<?xml version="1.0" encoding="UTF-8" standalone="no" ?>
<gpx xmlns="http://www.topografix.com/GPX/1/1" xmlns:xsi="http://www.w3.org/2001/XMLSchema-instance" xsi:schemaLocation="http://www.topografix.com/GPX/1/1 http://www.topografix.com/GPX/1/1/gpx.xsd" version="1.1" creator="VisuGPX - https://www.visugpx.com">
  <metadata>
    <name>Far_West_Realisé</name>
  </metadata>
  <trk>
    <name><![CDATA[J8 - Far west - Pagolle - Bayonne - last day ! Demain les vagues de l'océan 😍😎]]></name>
    <extensions>
      <line xmlns="http://www.topografix.com/GPX/gpx_style/0/2">
        <color>0000FF</color>
        <width>4</width>
      </line>
    </extensions>
    <trkseg>
      <trkpt lat="43.2259" lon="-0.98993">
        <ele>150.8</ele>
        <time>2022-09-11T06:48:31Z</time>
      </trkpt>
      <trkpt lat="43.2261" lon="-0.98989">
        <ele>150.8</ele>
        <time>2022-09-11T06:48:38Z</time>
      </trkpt>
      <trkpt lat="43.22626" lon="-0.98986">
        <ele>151</ele>
        <time>2022-09-11T06:48:44Z</time>
      </trkpt>
      <trkpt lat="43.2265" lon="-0.98984">
        <ele>151.4</ele>
        <time>2022-09-11T06:48:52Z</time>
      </trkpt>
      <trkpt lat="43.22674" lon="-0.9898">
        <ele>151.8</ele>
        <time>2022-09-11T06:48:59Z</time>
      </trkpt>
      <trkpt lat="43.22678" lon="-0.9898">
        <ele>152</ele>
        <time>2022-09-11T06:49:00Z</time>
      </trkpt>
      <trkpt lat="43.22703" lon="-0.98976">
        <ele>152.4</ele>
        <time>2022-09-11T06:49:07Z</time>
      </trkpt>
      <trkpt lat="43.22724" lon="-0.98972">
        <ele>152.6</ele>
        <time>2022-09-11T06:49:13Z</time>
      </trkpt>
      <trkpt lat="43.22749" lon="-0.98962">
        <ele>153</ele>
        <time>2022-09-11T06:49:20Z</time>
      </trkpt>
      <trkpt lat="43.22753" lon="-0.98961">
        <ele>153</ele>
        <time>2022-09-11T06:49:21Z</time>
      </trkpt>
      <trkpt lat="43.22786" lon="-0.98948">
        <ele>153.2</ele>
        <time>2022-09-11T06:49:30Z</time>
      </trkpt>
      <trkpt lat="43.22821" lon="-0.98937">
        <ele>153</ele>
        <time>2022-09-11T06:49:39Z</time>
      </trkpt>
      <trkpt lat="43.22848" lon="-0.98929">
        <ele>151.8</ele>
        <time>2022-09-11T06:49:45Z</time>
      </trkpt>
      <trkpt lat="43.22854" lon="-0.98927">
        <ele>151.8</ele>
        <time>2022-09-11T06:49:46Z</time>
      </trkpt>
      <trkpt lat="43.22899" lon="-0.9891">
        <ele>151.2</ele>
        <time>2022-09-11T06:49:55Z</time>
      </trkpt>
      <trkpt lat="43.22938" lon="-0.98892">
        <ele>150.8</ele>
        <time>2022-09-11T06:50:03Z</time>
      </trkpt>
      <trkpt lat="43.22942" lon="-0.9889">
        <ele>150.8</ele>
        <time>2022-09-11T06:50:04Z</time>
      </trkpt>
      <trkpt lat="43.22977" lon="-0.98873">
        <ele>150.2</ele>
        <time>2022-09-11T06:50:11Z</time>
      </trkpt>
      <trkpt lat="43.22993" lon="-0.98865">
        <ele>149.8</ele>
        <time>2022-09-11T06:50:14Z</time>
      </trkpt>
      <trkpt lat="43.23022" lon="-0.98854">
        <ele>149.6</ele>
        <time>2022-09-11T06:50:19Z</time>
      </trkpt>
      <trkpt lat="43.23063" lon="-0.98835">
        <ele>150</ele>
        <time>2022-09-11T06:50:27Z</time>
      </trkpt>
      <trkpt lat="43.23097" lon="-0.98819">
        <ele>150.6</ele>
        <time>2022-09-11T06:50:34Z</time>
      </trkpt>
      <trkpt lat="43.23123" lon="-0.98815">
        <ele>150.4</ele>
        <time>2022-09-11T06:50:40Z</time>
      </trkpt>
      <trkpt lat="43.23129" lon="-0.98816">
        <ele>150.4</ele>
        <time>2022-09-11T06:50:41Z</time>
      </trkpt>
      <trkpt lat="43.23144" lon="-0.98824">
        <ele>150.2</ele>
        <time>2022-09-11T06:50:44Z</time>
      </trkpt>
      <trkpt lat="43.23149" lon="-0.98827">
        <ele>150</ele>
        <time>2022-09-11T06:50:45Z</time>
      </trkpt>
      <trkpt lat="43.23175" lon="-0.98848">
        <ele>149.4</ele>
        <time>2022-09-11T06:50:50Z</time>
      </trkpt>
      <trkpt lat="43.23192" lon="-0.98863">
        <ele>148.6</ele>
        <time>2022-09-11T06:50:53Z</time>
      </trkpt>
      <trkpt lat="43.23216" lon="-0.9888">
        <ele>147.6</ele>
        <time>2022-09-11T06:50:57Z</time>
      </trkpt>
      <trkpt lat="43.23222" lon="-0.98884">
        <ele>147.4</ele>
        <time>2022-09-11T06:50:58Z</time>
      </trkpt>
      <trkpt lat="43.23254" lon="-0.98905">
        <ele>146.2</ele>
        <time>2022-09-11T06:51:03Z</time>
      </trkpt>
      <trkpt lat="43.23267" lon="-0.98911">
        <ele>146.2</ele>
        <time>2022-09-11T06:51:05Z</time>
      </trkpt>
      <trkpt lat="43.233" lon="-0.98926">
        <ele>145.2</ele>
        <time>2022-09-11T06:51:10Z</time>
      </trkpt>
      <trkpt lat="43.23319" lon="-0.98935">
        <ele>144.4</ele>
        <time>2022-09-11T06:51:13Z</time>
      </trkpt>
      <trkpt lat="43.23377" lon="-0.98959">
        <ele>144.2</ele>
        <time>2022-09-11T06:51:22Z</time>
      </trkpt>
      <trkpt lat="43.23383" lon="-0.98961">
        <ele>144.2</ele>
        <time>2022-09-11T06:51:23Z</time>
      </trkpt>
      <trkpt lat="43.23389" lon="-0.98963">
        <ele>144.2</ele>
        <time>2022-09-11T06:51:24Z</time>
      </trkpt>
      <trkpt lat="43.2342" lon="-0.98976">
        <ele>143</ele>
        <time>2022-09-11T06:51:29Z</time>
      </trkpt>
      <trkpt lat="43.23427" lon="-0.98979">
        <ele>142.4</ele>
        <time>2022-09-11T06:51:30Z</time>
      </trkpt>
      <trkpt lat="43.23442" lon="-0.98984">
        <ele>141.6</ele>
        <time>2022-09-11T06:51:32Z</time>
      </trkpt>
      <trkpt lat="43.23466" lon="-0.9899">
        <ele>140.8</ele>
        <time>2022-09-11T06:51:35Z</time>
      </trkpt>
      <trkpt lat="43.23482" lon="-0.98993">
        <ele>140.6</ele>
        <time>2022-09-11T06:51:37Z</time>
      </trkpt>
      <trkpt lat="43.23522" lon="-0.99">
        <ele>140.2</ele>
        <time>2022-09-11T06:51:42Z</time>
      </trkpt>
      <trkpt lat="43.23581" lon="-0.99012">
        <ele>139.6</ele>
        <time>2022-09-11T06:51:50Z</time>
      </trkpt>
      <trkpt lat="43.23619" lon="-0.99022">
        <ele>140.2</ele>
        <time>2022-09-11T06:51:56Z</time>
      </trkpt>
      <trkpt lat="43.23654" lon="-0.99035">
        <ele>140.4</ele>
        <time>2022-09-11T06:52:02Z</time>
      </trkpt>
      <trkpt lat="43.23704" lon="-0.99056">
        <ele>141</ele>
        <time>2022-09-11T06:52:12Z</time>
      </trkpt>
      <trkpt lat="43.23717" lon="-0.99062">
        <ele>141</ele>
        <time>2022-09-11T06:52:15Z</time>
      </trkpt>
      <trkpt lat="43.23727" lon="-0.99066">
        <ele>141</ele>
        <time>2022-09-11T06:52:17Z</time>
      </trkpt>
      <trkpt lat="43.23761" lon="-0.9908">
        <ele>139.4</ele>
        <time>2022-09-11T06:52:23Z</time>
      </trkpt>
      <trkpt lat="43.23781" lon="-0.99094">
        <ele>138.4</ele>
        <time>2022-09-11T06:52:26Z</time>
      </trkpt>
      <trkpt lat="43.23794" lon="-0.99108">
        <ele>137.4</ele>
        <time>2022-09-11T06:52:28Z</time>
      </trkpt>
      <trkpt lat="43.23808" lon="-0.99122">
        <ele>136.4</ele>
        <time>2022-09-11T06:52:30Z</time>
      </trkpt>
      <trkpt lat="43.23823" lon="-0.99131">
        <ele>136.2</ele>
        <time>2022-09-11T06:52:32Z</time>
      </trkpt>
      <trkpt lat="43.23839" lon="-0.99136">
        <ele>136</ele>
        <time>2022-09-11T06:52:34Z</time>
      </trkpt>
      <trkpt lat="43.23854" lon="-0.9914">
        <ele>135.6</ele>
        <time>2022-09-11T06:52:36Z</time>
      </trkpt>
      <trkpt lat="43.23869" lon="-0.99143">
        <ele>135.4</ele>
        <time>2022-09-11T06:52:38Z</time>
      </trkpt>
      <trkpt lat="43.23892" lon="-0.99144">
        <ele>135.4</ele>
        <time>2022-09-11T06:52:41Z</time>
      </trkpt>
      <trkpt lat="43.23948" lon="-0.9914">
        <ele>134.2</ele>
        <time>2022-09-11T06:52:48Z</time>
      </trkpt>
      <trkpt lat="43.23956" lon="-0.99139">
        <ele>134</ele>
        <time>2022-09-11T06:52:49Z</time>
      </trkpt>
      <trkpt lat="43.23996" lon="-0.99137">
        <ele>133.8</ele>
        <time>2022-09-11T06:52:54Z</time>
      </trkpt>
      <trkpt lat="43.24004" lon="-0.99139">
        <ele>133.8</ele>
        <time>2022-09-11T06:52:55Z</time>
      </trkpt>
      <trkpt lat="43.24046" lon="-0.99158">
        <ele>134.4</ele>
        <time>2022-09-11T06:53:01Z</time>
      </trkpt>
      <trkpt lat="43.24062" lon="-0.99167">
        <ele>135.4</ele>
        <time>2022-09-11T06:53:04Z</time>
      </trkpt>
      <trkpt lat="43.24071" lon="-0.99171">
        <ele>135.6</ele>
        <time>2022-09-11T06:53:06Z</time>
      </trkpt>
      <trkpt lat="43.241" lon="-0.99187">
        <ele>135.8</ele>
        <time>2022-09-11T06:53:13Z</time>
      </trkpt>
      <trkpt lat="43.24132" lon="-0.99205">
        <ele>135.4</ele>
        <time>2022-09-11T06:53:21Z</time>
      </trkpt>
      <trkpt lat="43.24147" lon="-0.99212">
        <ele>134.8</ele>
        <time>2022-09-11T06:53:24Z</time>
      </trkpt>
      <trkpt lat="43.24159" lon="-0.99214">
        <ele>134</ele>
        <time>2022-09-11T06:53:26Z</time>
      </trkpt>
      <trkpt lat="43.24173" lon="-0.99218">
        <ele>133</ele>
        <time>2022-09-11T06:53:28Z</time>
      </trkpt>
      <trkpt lat="43.24189" lon="-0.99225">
        <ele>132</ele>
        <time>2022-09-11T06:53:30Z</time>
      </trkpt>
      <trkpt lat="43.24217" lon="-0.9925">
        <ele>131.6</ele>
        <time>2022-09-11T06:53:34Z</time>
      </trkpt>
      <trkpt lat="43.2426" lon="-0.99297">
        <ele>131.2</ele>
        <time>2022-09-11T06:53:41Z</time>
      </trkpt>
      <trkpt lat="43.24301" lon="-0.99334">
        <ele>132</ele>
        <time>2022-09-11T06:53:48Z</time>
      </trkpt>
      <trkpt lat="43.24319" lon="-0.99354">
        <ele>132.4</ele>
        <time>2022-09-11T06:53:52Z</time>
      </trkpt>
      <trkpt lat="43.24327" lon="-0.99363">
        <ele>132.6</ele>
        <time>2022-09-11T06:53:54Z</time>
      </trkpt>
      <trkpt lat="43.24336" lon="-0.99369">
        <ele>132.6</ele>
        <time>2022-09-11T06:53:56Z</time>
      </trkpt>
      <trkpt lat="43.24349" lon="-0.99377">
        <ele>132.2</ele>
        <time>2022-09-11T06:53:59Z</time>
      </trkpt>
      <trkpt lat="43.24354" lon="-0.99378">
        <ele>132.2</ele>
        <time>2022-09-11T06:54:00Z</time>
      </trkpt>
      <trkpt lat="43.24365" lon="-0.9938">
        <ele>132</ele>
        <time>2022-09-11T06:54:02Z</time>
      </trkpt>
      <trkpt lat="43.24382" lon="-0.9938">
        <ele>131.8</ele>
        <time>2022-09-11T06:54:05Z</time>
      </trkpt>
      <trkpt lat="43.24406" lon="-0.99376">
        <ele>131</ele>
        <time>2022-09-11T06:54:09Z</time>
      </trkpt>
      <trkpt lat="43.24413" lon="-0.99374">
        <ele>130.8</ele>
        <time>2022-09-11T06:54:10Z</time>
      </trkpt>
      <trkpt lat="43.24419" lon="-0.99372">
        <ele>130.6</ele>
        <time>2022-09-11T06:54:11Z</time>
      </trkpt>
      <trkpt lat="43.24425" lon="-0.99369">
        <ele>130.2</ele>
        <time>2022-09-11T06:54:12Z</time>
      </trkpt>
      <trkpt lat="43.24438" lon="-0.99363">
        <ele>129.8</ele>
        <time>2022-09-11T06:54:14Z</time>
      </trkpt>
      <trkpt lat="43.24458" lon="-0.99352">
        <ele>129.4</ele>
        <time>2022-09-11T06:54:17Z</time>
      </trkpt>
      <trkpt lat="43.24485" lon="-0.99331">
        <ele>129.4</ele>
        <time>2022-09-11T06:54:22Z</time>
      </trkpt>
      <trkpt lat="43.24517" lon="-0.99288">
        <ele>129.6</ele>
        <time>2022-09-11T06:54:29Z</time>
      </trkpt>
      <trkpt lat="43.24544" lon="-0.99247">
        <ele>130.6</ele>
        <time>2022-09-11T06:54:36Z</time>
      </trkpt>
      <trkpt lat="43.24555" lon="-0.99231">
        <ele>131</ele>
        <time>2022-09-11T06:54:39Z</time>
      </trkpt>
      <trkpt lat="43.24566" lon="-0.99218">
        <ele>131.2</ele>
        <time>2022-09-11T06:54:42Z</time>
      </trkpt>
      <trkpt lat="43.24574" lon="-0.99209">
        <ele>131.4</ele>
        <time>2022-09-11T06:54:44Z</time>
      </trkpt>
      <trkpt lat="43.24593" lon="-0.99189">
        <ele>131.6</ele>
        <time>2022-09-11T06:54:49Z</time>
      </trkpt>
      <trkpt lat="43.24629" lon="-0.99159">
        <ele>131.6</ele>
        <time>2022-09-11T06:54:57Z</time>
      </trkpt>
      <trkpt lat="43.24676" lon="-0.99122">
        <ele>131.4</ele>
        <time>2022-09-11T06:55:07Z</time>
      </trkpt>
      <trkpt lat="43.24709" lon="-0.991">
        <ele>131</ele>
        <time>2022-09-11T06:55:14Z</time>
      </trkpt>
      <trkpt lat="43.24747" lon="-0.99076">
        <ele>130</ele>
        <time>2022-09-11T06:55:22Z</time>
      </trkpt>
      <trkpt lat="43.24753" lon="-0.99072">
        <ele>129.8</ele>
        <time>2022-09-11T06:55:23Z</time>
      </trkpt>
      <trkpt lat="43.24776" lon="-0.99064">
        <ele>129</ele>
        <time>2022-09-11T06:55:27Z</time>
      </trkpt>
      <trkpt lat="43.24783" lon="-0.99064">
        <ele>128.6</ele>
        <time>2022-09-11T06:55:28Z</time>
      </trkpt>
      <trkpt lat="43.24797" lon="-0.99067">
        <ele>127.4</ele>
        <time>2022-09-11T06:55:30Z</time>
      </trkpt>
      <trkpt lat="43.24804" lon="-0.9907">
        <ele>126.8</ele>
        <time>2022-09-11T06:55:31Z</time>
      </trkpt>
      <trkpt lat="43.24811" lon="-0.99073">
        <ele>126.2</ele>
        <time>2022-09-11T06:55:32Z</time>
      </trkpt>
      <trkpt lat="43.24827" lon="-0.99079">
        <ele>125</ele>
        <time>2022-09-11T06:55:34Z</time>
      </trkpt>
      <trkpt lat="43.24837" lon="-0.9908">
        <ele>124.2</ele>
        <time>2022-09-11T06:55:35Z</time>
      </trkpt>
      <trkpt lat="43.24846" lon="-0.99078">
        <ele>123.6</ele>
        <time>2022-09-11T06:55:36Z</time>
      </trkpt>
      <trkpt lat="43.24856" lon="-0.99074">
        <ele>123</ele>
        <time>2022-09-11T06:55:37Z</time>
      </trkpt>
      <trkpt lat="43.24871" lon="-0.99059">
        <ele>122.8</ele>
        <time>2022-09-11T06:55:39Z</time>
      </trkpt>
      <trkpt lat="43.24884" lon="-0.99044">
        <ele>122.6</ele>
        <time>2022-09-11T06:55:41Z</time>
      </trkpt>
      <trkpt lat="43.24909" lon="-0.99017">
        <ele>122.4</ele>
        <time>2022-09-11T06:55:45Z</time>
      </trkpt>
      <trkpt lat="43.24922" lon="-0.99004">
        <ele>122.6</ele>
        <time>2022-09-11T06:55:47Z</time>
      </trkpt>
      <trkpt lat="43.24968" lon="-0.98962">
        <ele>122.8</ele>
        <time>2022-09-11T06:55:55Z</time>
      </trkpt>
      <trkpt lat="43.25017" lon="-0.98915">
        <ele>122.4</ele>
        <time>2022-09-11T06:56:04Z</time>
      </trkpt>
      <trkpt lat="43.25065" lon="-0.98869">
        <ele>122.2</ele>
        <time>2022-09-11T06:56:13Z</time>
      </trkpt>
      <trkpt lat="43.25104" lon="-0.98831">
        <ele>122.2</ele>
        <time>2022-09-11T06:56:21Z</time>
      </trkpt>
      <trkpt lat="43.25117" lon="-0.9882">
        <ele>122.6</ele>
        <time>2022-09-11T06:56:24Z</time>
      </trkpt>
      <trkpt lat="43.25126" lon="-0.98816">
        <ele>122.6</ele>
        <time>2022-09-11T06:56:26Z</time>
      </trkpt>
      <trkpt lat="43.25139" lon="-0.98822">
        <ele>122.4</ele>
        <time>2022-09-11T06:56:29Z</time>
      </trkpt>
      <trkpt lat="43.25146" lon="-0.98832">
        <ele>122.2</ele>
        <time>2022-09-11T06:56:31Z</time>
      </trkpt>
      <trkpt lat="43.25153" lon="-0.98844">
        <ele>121.6</ele>
        <time>2022-09-11T06:56:33Z</time>
      </trkpt>
      <trkpt lat="43.25156" lon="-0.98851">
        <ele>121.4</ele>
        <time>2022-09-11T06:56:34Z</time>
      </trkpt>
      <trkpt lat="43.25164" lon="-0.98863">
        <ele>121.6</ele>
        <time>2022-09-11T06:56:36Z</time>
      </trkpt>
      <trkpt lat="43.25173" lon="-0.98873">
        <ele>121.8</ele>
        <time>2022-09-11T06:56:38Z</time>
      </trkpt>
      <trkpt lat="43.25183" lon="-0.98881">
        <ele>122</ele>
        <time>2022-09-11T06:56:40Z</time>
      </trkpt>
      <trkpt lat="43.25197" lon="-0.98891">
        <ele>122.2</ele>
        <time>2022-09-11T06:56:43Z</time>
      </trkpt>
      <trkpt lat="43.25201" lon="-0.98894">
        <ele>122.6</ele>
        <time>2022-09-11T06:56:44Z</time>
      </trkpt>
      <trkpt lat="43.2522" lon="-0.98908">
        <ele>123.8</ele>
        <time>2022-09-11T06:56:49Z</time>
      </trkpt>
      <trkpt lat="43.25223" lon="-0.98911">
        <ele>123.8</ele>
        <time>2022-09-11T06:56:50Z</time>
      </trkpt>
      <trkpt lat="43.25238" lon="-0.98923">
        <ele>124.4</ele>
        <time>2022-09-11T06:56:55Z</time>
      </trkpt>
      <trkpt lat="43.25253" lon="-0.98929">
        <ele>123.8</ele>
        <time>2022-09-11T06:56:59Z</time>
      </trkpt>
      <trkpt lat="43.25258" lon="-0.98929">
        <ele>123.4</ele>
        <time>2022-09-11T06:57:00Z</time>
      </trkpt>
      <trkpt lat="43.25281" lon="-0.98923">
        <ele>123</ele>
        <time>2022-09-11T06:57:04Z</time>
      </trkpt>
      <trkpt lat="43.25291" lon="-0.98915">
        <ele>123</ele>
        <time>2022-09-11T06:57:06Z</time>
      </trkpt>
      <trkpt lat="43.25311" lon="-0.98899">
        <ele>122.8</ele>
        <time>2022-09-11T06:57:10Z</time>
      </trkpt>
      <trkpt lat="43.25316" lon="-0.98894">
        <ele>122.6</ele>
        <time>2022-09-11T06:57:11Z</time>
      </trkpt>
      <trkpt lat="43.25338" lon="-0.98873">
        <ele>122.6</ele>
        <time>2022-09-11T06:57:16Z</time>
      </trkpt>
      <trkpt lat="43.25354" lon="-0.98862">
        <ele>122.2</ele>
        <time>2022-09-11T06:57:19Z</time>
      </trkpt>
      <trkpt lat="43.25365" lon="-0.98858">
        <ele>122</ele>
        <time>2022-09-11T06:57:21Z</time>
      </trkpt>
      <trkpt lat="43.25383" lon="-0.98859">
        <ele>122</ele>
        <time>2022-09-11T06:57:24Z</time>
      </trkpt>
      <trkpt lat="43.25399" lon="-0.98867">
        <ele>122</ele>
        <time>2022-09-11T06:57:27Z</time>
      </trkpt>
      <trkpt lat="43.25409" lon="-0.98873">
        <ele>121.8</ele>
        <time>2022-09-11T06:57:29Z</time>
      </trkpt>
      <trkpt lat="43.25415" lon="-0.98875">
        <ele>121.6</ele>
        <time>2022-09-11T06:57:30Z</time>
      </trkpt>
      <trkpt lat="43.25454" lon="-0.98898">
        <ele>121.6</ele>
        <time>2022-09-11T06:57:37Z</time>
      </trkpt>
      <trkpt lat="43.25458" lon="-0.98902">
        <ele>121.6</ele>
        <time>2022-09-11T06:57:38Z</time>
      </trkpt>
      <trkpt lat="43.25471" lon="-0.98918">
        <ele>121.4</ele>
        <time>2022-09-11T06:57:41Z</time>
      </trkpt>
      <trkpt lat="43.25486" lon="-0.98946">
        <ele>120.6</ele>
        <time>2022-09-11T06:57:45Z</time>
      </trkpt>
      <trkpt lat="43.25502" lon="-0.98959">
        <ele>120.6</ele>
        <time>2022-09-11T06:57:48Z</time>
      </trkpt>
      <trkpt lat="43.25517" lon="-0.98963">
        <ele>121.6</ele>
        <time>2022-09-11T06:57:51Z</time>
      </trkpt>
      <trkpt lat="43.25521" lon="-0.98963">
        <ele>122</ele>
        <time>2022-09-11T06:57:52Z</time>
      </trkpt>
      <trkpt lat="43.25546" lon="-0.98965">
        <ele>122.8</ele>
        <time>2022-09-11T06:57:58Z</time>
      </trkpt>
      <trkpt lat="43.25582" lon="-0.9897">
        <ele>122.4</ele>
        <time>2022-09-11T06:58:06Z</time>
      </trkpt>
      <trkpt lat="43.25617" lon="-0.98971">
        <ele>121</ele>
        <time>2022-09-11T06:58:12Z</time>
      </trkpt>
      <trkpt lat="43.25623" lon="-0.98971">
        <ele>120.8</ele>
        <time>2022-09-11T06:58:13Z</time>
      </trkpt>
      <trkpt lat="43.25661" lon="-0.98969">
        <ele>119.8</ele>
        <time>2022-09-11T06:58:19Z</time>
      </trkpt>
      <trkpt lat="43.2568" lon="-0.98967">
        <ele>119.4</ele>
        <time>2022-09-11T06:58:22Z</time>
      </trkpt>
      <trkpt lat="43.25714" lon="-0.98959">
        <ele>119.2</ele>
        <time>2022-09-11T06:58:28Z</time>
      </trkpt>
      <trkpt lat="43.25748" lon="-0.98948">
        <ele>118.8</ele>
        <time>2022-09-11T06:58:35Z</time>
      </trkpt>
      <trkpt lat="43.25753" lon="-0.98946">
        <ele>118.6</ele>
        <time>2022-09-11T06:58:36Z</time>
      </trkpt>
      <trkpt lat="43.25758" lon="-0.98944">
        <ele>118.4</ele>
        <time>2022-09-11T06:58:37Z</time>
      </trkpt>
      <trkpt lat="43.25774" lon="-0.98933">
        <ele>118</ele>
        <time>2022-09-11T06:58:40Z</time>
      </trkpt>
      <trkpt lat="43.25784" lon="-0.98923">
        <ele>117.6</ele>
        <time>2022-09-11T06:58:42Z</time>
      </trkpt>
      <trkpt lat="43.25806" lon="-0.98897">
        <ele>117.4</ele>
        <time>2022-09-11T06:58:47Z</time>
      </trkpt>
      <trkpt lat="43.25828" lon="-0.98873">
        <ele>118.4</ele>
        <time>2022-09-11T06:58:53Z</time>
      </trkpt>
      <trkpt lat="43.25831" lon="-0.9887">
        <ele>118.8</ele>
        <time>2022-09-11T06:58:54Z</time>
      </trkpt>
      <trkpt lat="43.25843" lon="-0.9886">
        <ele>119.8</ele>
        <time>2022-09-11T06:58:58Z</time>
      </trkpt>
      <trkpt lat="43.25849" lon="-0.98855">
        <ele>120</ele>
        <time>2022-09-11T06:59:00Z</time>
      </trkpt>
      <trkpt lat="43.25858" lon="-0.98849">
        <ele>120.8</ele>
        <time>2022-09-11T06:59:03Z</time>
      </trkpt>
      <trkpt lat="43.25869" lon="-0.98841">
        <ele>121.2</ele>
        <time>2022-09-11T06:59:07Z</time>
      </trkpt>
      <trkpt lat="43.25877" lon="-0.98837">
        <ele>121.8</ele>
        <time>2022-09-11T06:59:10Z</time>
      </trkpt>
      <trkpt lat="43.2589" lon="-0.98831">
        <ele>122.8</ele>
        <time>2022-09-11T06:59:15Z</time>
      </trkpt>
      <trkpt lat="43.25892" lon="-0.98829">
        <ele>122.8</ele>
        <time>2022-09-11T06:59:16Z</time>
      </trkpt>
      <trkpt lat="43.25901" lon="-0.98825">
        <ele>123.2</ele>
        <time>2022-09-11T06:59:20Z</time>
      </trkpt>
      <trkpt lat="43.25918" lon="-0.98821">
        <ele>124</ele>
        <time>2022-09-11T06:59:26Z</time>
      </trkpt>
      <trkpt lat="43.25926" lon="-0.98818">
        <ele>124.6</ele>
        <time>2022-09-11T06:59:29Z</time>
      </trkpt>
      <trkpt lat="43.25933" lon="-0.98817">
        <ele>125</ele>
        <time>2022-09-11T06:59:32Z</time>
      </trkpt>
      <trkpt lat="43.2594" lon="-0.98815">
        <ele>125.6</ele>
        <time>2022-09-11T06:59:35Z</time>
      </trkpt>
      <trkpt lat="43.25944" lon="-0.98814">
        <ele>126</ele>
        <time>2022-09-11T06:59:37Z</time>
      </trkpt>
      <trkpt lat="43.25953" lon="-0.98811">
        <ele>127</ele>
        <time>2022-09-11T06:59:42Z</time>
      </trkpt>
      <trkpt lat="43.25955" lon="-0.98811">
        <ele>127.4</ele>
        <time>2022-09-11T06:59:43Z</time>
      </trkpt>
      <trkpt lat="43.25967" lon="-0.9881">
        <ele>128.4</ele>
        <time>2022-09-11T06:59:50Z</time>
      </trkpt>
      <trkpt lat="43.25968" lon="-0.9881">
        <ele>128.6</ele>
        <time>2022-09-11T06:59:51Z</time>
      </trkpt>
      <trkpt lat="43.25976" lon="-0.98813">
        <ele>129.4</ele>
        <time>2022-09-11T06:59:56Z</time>
      </trkpt>
      <trkpt lat="43.2598" lon="-0.98814">
        <ele>129.6</ele>
        <time>2022-09-11T06:59:58Z</time>
      </trkpt>
      <trkpt lat="43.2599" lon="-0.98819">
        <ele>130.4</ele>
        <time>2022-09-11T07:00:03Z</time>
      </trkpt>
      <trkpt lat="43.25995" lon="-0.98823">
        <ele>130.8</ele>
        <time>2022-09-11T07:00:06Z</time>
      </trkpt>
      <trkpt lat="43.26003" lon="-0.98832">
        <ele>131.6</ele>
        <time>2022-09-11T07:00:11Z</time>
      </trkpt>
      <trkpt lat="43.26007" lon="-0.98842">
        <ele>131.8</ele>
        <time>2022-09-11T07:00:15Z</time>
      </trkpt>
      <trkpt lat="43.26011" lon="-0.98856">
        <ele>131.8</ele>
        <time>2022-09-11T07:00:20Z</time>
      </trkpt>
      <trkpt lat="43.26012" lon="-0.98886">
        <ele>131.4</ele>
        <time>2022-09-11T07:00:27Z</time>
      </trkpt>
      <trkpt lat="43.26014" lon="-0.98923">
        <ele>130.6</ele>
        <time>2022-09-11T07:00:33Z</time>
      </trkpt>
      <trkpt lat="43.26014" lon="-0.98974">
        <ele>129.2</ele>
        <time>2022-09-11T07:00:39Z</time>
      </trkpt>
      <trkpt lat="43.26017" lon="-0.99022">
        <ele>128</ele>
        <time>2022-09-11T07:00:44Z</time>
      </trkpt>
      <trkpt lat="43.2602" lon="-0.99041">
        <ele>127.8</ele>
        <time>2022-09-11T07:00:46Z</time>
      </trkpt>
      <trkpt lat="43.2603" lon="-0.99078">
        <ele>127</ele>
        <time>2022-09-11T07:00:50Z</time>
      </trkpt>
      <trkpt lat="43.26034" lon="-0.99086">
        <ele>126.8</ele>
        <time>2022-09-11T07:00:51Z</time>
      </trkpt>
      <trkpt lat="43.26046" lon="-0.9911">
        <ele>126</ele>
        <time>2022-09-11T07:00:54Z</time>
      </trkpt>
      <trkpt lat="43.26056" lon="-0.99124">
        <ele>125.6</ele>
        <time>2022-09-11T07:00:56Z</time>
      </trkpt>
      <trkpt lat="43.26068" lon="-0.99137">
        <ele>125.6</ele>
        <time>2022-09-11T07:00:58Z</time>
      </trkpt>
      <trkpt lat="43.26088" lon="-0.99152">
        <ele>125.2</ele>
        <time>2022-09-11T07:01:01Z</time>
      </trkpt>
      <trkpt lat="43.26102" lon="-0.99161">
        <ele>125</ele>
        <time>2022-09-11T07:01:03Z</time>
      </trkpt>
      <trkpt lat="43.26128" lon="-0.99178">
        <ele>124.8</ele>
        <time>2022-09-11T07:01:07Z</time>
      </trkpt>
      <trkpt lat="43.2614" lon="-0.99197">
        <ele>124.8</ele>
        <time>2022-09-11T07:01:10Z</time>
      </trkpt>
      <trkpt lat="43.26146" lon="-0.9923">
        <ele>124.6</ele>
        <time>2022-09-11T07:01:14Z</time>
      </trkpt>
      <trkpt lat="43.26145" lon="-0.9924">
        <ele>124.2</ele>
        <time>2022-09-11T07:01:15Z</time>
      </trkpt>
      <trkpt lat="43.26145" lon="-0.9925">
        <ele>123.8</ele>
        <time>2022-09-11T07:01:16Z</time>
      </trkpt>
      <trkpt lat="43.26144" lon="-0.99283">
        <ele>122</ele>
        <time>2022-09-11T07:01:19Z</time>
      </trkpt>
      <trkpt lat="43.26145" lon="-0.99294">
        <ele>121.2</ele>
        <time>2022-09-11T07:01:20Z</time>
      </trkpt>
      <trkpt lat="43.26148" lon="-0.99306">
        <ele>120.4</ele>
        <time>2022-09-11T07:01:21Z</time>
      </trkpt>
      <trkpt lat="43.26153" lon="-0.99317">
        <ele>119.6</ele>
        <time>2022-09-11T07:01:22Z</time>
      </trkpt>
      <trkpt lat="43.2616" lon="-0.99325">
        <ele>118.8</ele>
        <time>2022-09-11T07:01:23Z</time>
      </trkpt>
      <trkpt lat="43.26177" lon="-0.99339">
        <ele>117.2</ele>
        <time>2022-09-11T07:01:25Z</time>
      </trkpt>
      <trkpt lat="43.26194" lon="-0.99355">
        <ele>115.8</ele>
        <time>2022-09-11T07:01:27Z</time>
      </trkpt>
      <trkpt lat="43.26202" lon="-0.99367">
        <ele>115.2</ele>
        <time>2022-09-11T07:01:28Z</time>
      </trkpt>
      <trkpt lat="43.26208" lon="-0.9938">
        <ele>114.6</ele>
        <time>2022-09-11T07:01:29Z</time>
      </trkpt>
      <trkpt lat="43.26213" lon="-0.99395">
        <ele>113.6</ele>
        <time>2022-09-11T07:01:30Z</time>
      </trkpt>
      <trkpt lat="43.26218" lon="-0.9941">
        <ele>112.4</ele>
        <time>2022-09-11T07:01:31Z</time>
      </trkpt>
      <trkpt lat="43.26223" lon="-0.99424">
        <ele>111.4</ele>
        <time>2022-09-11T07:01:32Z</time>
      </trkpt>
      <trkpt lat="43.26229" lon="-0.99437">
        <ele>110.8</ele>
        <time>2022-09-11T07:01:33Z</time>
      </trkpt>
      <trkpt lat="43.26237" lon="-0.99448">
        <ele>110.2</ele>
        <time>2022-09-11T07:01:34Z</time>
      </trkpt>
      <trkpt lat="43.26255" lon="-0.99464">
        <ele>109.2</ele>
        <time>2022-09-11T07:01:36Z</time>
      </trkpt>
      <trkpt lat="43.26265" lon="-0.99469">
        <ele>108.6</ele>
        <time>2022-09-11T07:01:37Z</time>
      </trkpt>
      <trkpt lat="43.26275" lon="-0.99475">
        <ele>108</ele>
        <time>2022-09-11T07:01:38Z</time>
      </trkpt>
      <trkpt lat="43.26301" lon="-0.99495">
        <ele>107</ele>
        <time>2022-09-11T07:01:41Z</time>
      </trkpt>
      <trkpt lat="43.26319" lon="-0.99524">
        <ele>106</ele>
        <time>2022-09-11T07:01:44Z</time>
      </trkpt>
      <trkpt lat="43.26325" lon="-0.99535">
        <ele>106</ele>
        <time>2022-09-11T07:01:45Z</time>
      </trkpt>
      <trkpt lat="43.26347" lon="-0.99572">
        <ele>105.6</ele>
        <time>2022-09-11T07:01:49Z</time>
      </trkpt>
      <trkpt lat="43.26367" lon="-0.99607">
        <ele>105</ele>
        <time>2022-09-11T07:01:53Z</time>
      </trkpt>
      <trkpt lat="43.26371" lon="-0.99617">
        <ele>104.8</ele>
        <time>2022-09-11T07:01:54Z</time>
      </trkpt>
      <trkpt lat="43.26378" lon="-0.99661">
        <ele>104</ele>
        <time>2022-09-11T07:01:58Z</time>
      </trkpt>
      <trkpt lat="43.26373" lon="-0.99695">
        <ele>103</ele>
        <time>2022-09-11T07:02:01Z</time>
      </trkpt>
      <trkpt lat="43.26368" lon="-0.99705">
        <ele>102.8</ele>
        <time>2022-09-11T07:02:02Z</time>
      </trkpt>
      <trkpt lat="43.26364" lon="-0.99714">
        <ele>102.4</ele>
        <time>2022-09-11T07:02:03Z</time>
      </trkpt>
      <trkpt lat="43.26359" lon="-0.99723">
        <ele>102.2</ele>
        <time>2022-09-11T07:02:04Z</time>
      </trkpt>
      <trkpt lat="43.26351" lon="-0.9974">
        <ele>102</ele>
        <time>2022-09-11T07:02:06Z</time>
      </trkpt>
      <trkpt lat="43.26342" lon="-0.99768">
        <ele>102</ele>
        <time>2022-09-11T07:02:09Z</time>
      </trkpt>
      <trkpt lat="43.26338" lon="-0.99786">
        <ele>102</ele>
        <time>2022-09-11T07:02:11Z</time>
      </trkpt>
      <trkpt lat="43.26335" lon="-0.99802">
        <ele>101.8</ele>
        <time>2022-09-11T07:02:13Z</time>
      </trkpt>
      <trkpt lat="43.26335" lon="-0.99808">
        <ele>101.8</ele>
        <time>2022-09-11T07:02:14Z</time>
      </trkpt>
      <trkpt lat="43.26338" lon="-0.99817">
        <ele>101.6</ele>
        <time>2022-09-11T07:02:16Z</time>
      </trkpt>
      <trkpt lat="43.26344" lon="-0.99825">
        <ele>101.8</ele>
        <time>2022-09-11T07:02:18Z</time>
      </trkpt>
      <trkpt lat="43.26352" lon="-0.99831">
        <ele>101.8</ele>
        <time>2022-09-11T07:02:19Z</time>
      </trkpt>
      <trkpt lat="43.26359" lon="-0.99835">
        <ele>101.8</ele>
        <time>2022-09-11T07:02:20Z</time>
      </trkpt>
      <trkpt lat="43.26395" lon="-0.99858">
        <ele>102</ele>
        <time>2022-09-11T07:02:26Z</time>
      </trkpt>
      <trkpt lat="43.26416" lon="-0.99868">
        <ele>101.4</ele>
        <time>2022-09-11T07:02:30Z</time>
      </trkpt>
      <trkpt lat="43.26432" lon="-0.99873">
        <ele>101.4</ele>
        <time>2022-09-11T07:02:33Z</time>
      </trkpt>
      <trkpt lat="43.26442" lon="-0.99874">
        <ele>101.8</ele>
        <time>2022-09-11T07:02:35Z</time>
      </trkpt>
      <trkpt lat="43.26465" lon="-0.99879">
        <ele>102.8</ele>
        <time>2022-09-11T07:02:39Z</time>
      </trkpt>
      <trkpt lat="43.26469" lon="-0.99881">
        <ele>103.2</ele>
        <time>2022-09-11T07:02:40Z</time>
      </trkpt>
      <trkpt lat="43.2648" lon="-0.99887">
        <ele>104.2</ele>
        <time>2022-09-11T07:02:43Z</time>
      </trkpt>
      <trkpt lat="43.26489" lon="-0.99896">
        <ele>105</ele>
        <time>2022-09-11T07:02:46Z</time>
      </trkpt>
      <trkpt lat="43.26492" lon="-0.999">
        <ele>105.2</ele>
        <time>2022-09-11T07:02:47Z</time>
      </trkpt>
      <trkpt lat="43.26502" lon="-0.9992">
        <ele>106.4</ele>
        <time>2022-09-11T07:02:52Z</time>
      </trkpt>
      <trkpt lat="43.26506" lon="-0.99927">
        <ele>106.8</ele>
        <time>2022-09-11T07:02:54Z</time>
      </trkpt>
      <trkpt lat="43.26513" lon="-0.99946">
        <ele>107.4</ele>
        <time>2022-09-11T07:02:59Z</time>
      </trkpt>
      <trkpt lat="43.26519" lon="-0.9996">
        <ele>107.6</ele>
        <time>2022-09-11T07:03:03Z</time>
      </trkpt>
      <trkpt lat="43.26528" lon="-0.99987">
        <ele>108</ele>
        <time>2022-09-11T07:03:10Z</time>
      </trkpt>
      <trkpt lat="43.2654" lon="-1.00023">
        <ele>107.8</ele>
        <time>2022-09-11T07:03:18Z</time>
      </trkpt>
      <trkpt lat="43.26553" lon="-1.00055">
        <ele>106.4</ele>
        <time>2022-09-11T07:03:23Z</time>
      </trkpt>
      <trkpt lat="43.26555" lon="-1.00062">
        <ele>106.4</ele>
        <time>2022-09-11T07:03:24Z</time>
      </trkpt>
      <trkpt lat="43.26561" lon="-1.0008">
        <ele>106.4</ele>
        <time>2022-09-11T07:03:27Z</time>
      </trkpt>
      <trkpt lat="43.26575" lon="-1.00107">
        <ele>106</ele>
        <time>2022-09-11T07:03:32Z</time>
      </trkpt>
      <trkpt lat="43.26583" lon="-1.00123">
        <ele>106</ele>
        <time>2022-09-11T07:03:36Z</time>
      </trkpt>
      <trkpt lat="43.26595" lon="-1.00144">
        <ele>106</ele>
        <time>2022-09-11T07:03:41Z</time>
      </trkpt>
      <trkpt lat="43.26604" lon="-1.00153">
        <ele>106</ele>
        <time>2022-09-11T07:03:43Z</time>
      </trkpt>
      <trkpt lat="43.26617" lon="-1.00164">
        <ele>106</ele>
        <time>2022-09-11T07:03:46Z</time>
      </trkpt>
      <trkpt lat="43.26625" lon="-1.00173">
        <ele>106.2</ele>
        <time>2022-09-11T07:03:48Z</time>
      </trkpt>
      <trkpt lat="43.26631" lon="-1.00184">
        <ele>106.6</ele>
        <time>2022-09-11T07:03:50Z</time>
      </trkpt>
      <trkpt lat="43.26634" lon="-1.00189">
        <ele>106.6</ele>
        <time>2022-09-11T07:03:51Z</time>
      </trkpt>
      <trkpt lat="43.26643" lon="-1.00207">
        <ele>106.8</ele>
        <time>2022-09-11T07:03:54Z</time>
      </trkpt>
      <trkpt lat="43.2665" lon="-1.00224">
        <ele>107.2</ele>
        <time>2022-09-11T07:03:57Z</time>
      </trkpt>
      <trkpt lat="43.26652" lon="-1.00229">
        <ele>107.4</ele>
        <time>2022-09-11T07:03:58Z</time>
      </trkpt>
      <trkpt lat="43.26658" lon="-1.00263">
        <ele>107.8</ele>
        <time>2022-09-11T07:04:04Z</time>
      </trkpt>
      <trkpt lat="43.26659" lon="-1.00279">
        <ele>108.6</ele>
        <time>2022-09-11T07:04:07Z</time>
      </trkpt>
      <trkpt lat="43.26661" lon="-1.00318">
        <ele>108.6</ele>
        <time>2022-09-11T07:04:14Z</time>
      </trkpt>
      <trkpt lat="43.26657" lon="-1.00364">
        <ele>108.4</ele>
        <time>2022-09-11T07:04:21Z</time>
      </trkpt>
      <trkpt lat="43.26649" lon="-1.00402">
        <ele>107.4</ele>
        <time>2022-09-11T07:04:26Z</time>
      </trkpt>
      <trkpt lat="43.26646" lon="-1.00411">
        <ele>107.2</ele>
        <time>2022-09-11T07:04:27Z</time>
      </trkpt>
      <trkpt lat="43.26639" lon="-1.0044">
        <ele>106.4</ele>
        <time>2022-09-11T07:04:30Z</time>
      </trkpt>
      <trkpt lat="43.26633" lon="-1.00462">
        <ele>105</ele>
        <time>2022-09-11T07:04:32Z</time>
      </trkpt>
      <trkpt lat="43.26629" lon="-1.00486">
        <ele>103.8</ele>
        <time>2022-09-11T07:04:34Z</time>
      </trkpt>
      <trkpt lat="43.26625" lon="-1.00509">
        <ele>102.8</ele>
        <time>2022-09-11T07:04:36Z</time>
      </trkpt>
      <trkpt lat="43.26621" lon="-1.00534">
        <ele>102</ele>
        <time>2022-09-11T07:04:38Z</time>
      </trkpt>
      <trkpt lat="43.2662" lon="-1.00546">
        <ele>101.2</ele>
        <time>2022-09-11T07:04:39Z</time>
      </trkpt>
      <trkpt lat="43.26619" lon="-1.00585">
        <ele>99.8</ele>
        <time>2022-09-11T07:04:42Z</time>
      </trkpt>
      <trkpt lat="43.2662" lon="-1.00611">
        <ele>98.8</ele>
        <time>2022-09-11T07:04:44Z</time>
      </trkpt>
      <trkpt lat="43.26622" lon="-1.00623">
        <ele>98.2</ele>
        <time>2022-09-11T07:04:45Z</time>
      </trkpt>
      <trkpt lat="43.26632" lon="-1.00643">
        <ele>97.4</ele>
        <time>2022-09-11T07:04:47Z</time>
      </trkpt>
      <trkpt lat="43.26655" lon="-1.00659">
        <ele>97</ele>
        <time>2022-09-11T07:04:50Z</time>
      </trkpt>
      <trkpt lat="43.26684" lon="-1.00661">
        <ele>96.6</ele>
        <time>2022-09-11T07:04:53Z</time>
      </trkpt>
      <trkpt lat="43.26704" lon="-1.00656">
        <ele>96.2</ele>
        <time>2022-09-11T07:04:55Z</time>
      </trkpt>
      <trkpt lat="43.26728" lon="-1.0065">
        <ele>96.4</ele>
        <time>2022-09-11T07:04:58Z</time>
      </trkpt>
      <trkpt lat="43.26759" lon="-1.00642">
        <ele>96.2</ele>
        <time>2022-09-11T07:05:02Z</time>
      </trkpt>
      <trkpt lat="43.26765" lon="-1.00642">
        <ele>96.4</ele>
        <time>2022-09-11T07:05:03Z</time>
      </trkpt>
      <trkpt lat="43.26784" lon="-1.0065">
        <ele>96.8</ele>
        <time>2022-09-11T07:05:07Z</time>
      </trkpt>
      <trkpt lat="43.26793" lon="-1.00656">
        <ele>97.4</ele>
        <time>2022-09-11T07:05:09Z</time>
      </trkpt>
      <trkpt lat="43.26812" lon="-1.00668">
        <ele>98.8</ele>
        <time>2022-09-11T07:05:13Z</time>
      </trkpt>
      <trkpt lat="43.26817" lon="-1.0067">
        <ele>98.8</ele>
        <time>2022-09-11T07:05:14Z</time>
      </trkpt>
      <trkpt lat="43.26842" lon="-1.00675">
        <ele>98.6</ele>
        <time>2022-09-11T07:05:19Z</time>
      </trkpt>
      <trkpt lat="43.26873" lon="-1.00672">
        <ele>97.8</ele>
        <time>2022-09-11T07:05:24Z</time>
      </trkpt>
      <trkpt lat="43.26879" lon="-1.0067">
        <ele>97.6</ele>
        <time>2022-09-11T07:05:25Z</time>
      </trkpt>
      <trkpt lat="43.26912" lon="-1.0066">
        <ele>96.8</ele>
        <time>2022-09-11T07:05:30Z</time>
      </trkpt>
      <trkpt lat="43.26924" lon="-1.00655">
        <ele>96.4</ele>
        <time>2022-09-11T07:05:32Z</time>
      </trkpt>
      <trkpt lat="43.26968" lon="-1.0064">
        <ele>95.2</ele>
        <time>2022-09-11T07:05:39Z</time>
      </trkpt>
      <trkpt lat="43.26974" lon="-1.00637">
        <ele>95.2</ele>
        <time>2022-09-11T07:05:40Z</time>
      </trkpt>
      <trkpt lat="43.27024" lon="-1.00614">
        <ele>94.4</ele>
        <time>2022-09-11T07:05:48Z</time>
      </trkpt>
      <trkpt lat="43.27029" lon="-1.00611">
        <ele>94.2</ele>
        <time>2022-09-11T07:05:49Z</time>
      </trkpt>
      <trkpt lat="43.27067" lon="-1.00584">
        <ele>93.6</ele>
        <time>2022-09-11T07:05:56Z</time>
      </trkpt>
      <trkpt lat="43.27099" lon="-1.00561">
        <ele>93.2</ele>
        <time>2022-09-11T07:06:02Z</time>
      </trkpt>
      <trkpt lat="43.27105" lon="-1.00558">
        <ele>93</ele>
        <time>2022-09-11T07:06:03Z</time>
      </trkpt>
      <trkpt lat="43.27137" lon="-1.00542">
        <ele>93.2</ele>
        <time>2022-09-11T07:06:09Z</time>
      </trkpt>
      <trkpt lat="43.27146" lon="-1.00538">
        <ele>93.6</ele>
        <time>2022-09-11T07:06:11Z</time>
      </trkpt>
      <trkpt lat="43.27158" lon="-1.00538">
        <ele>94.4</ele>
        <time>2022-09-11T07:06:14Z</time>
      </trkpt>
      <trkpt lat="43.27172" lon="-1.00549">
        <ele>95.2</ele>
        <time>2022-09-11T07:06:18Z</time>
      </trkpt>
      <trkpt lat="43.27174" lon="-1.00553">
        <ele>95.4</ele>
        <time>2022-09-11T07:06:19Z</time>
      </trkpt>
      <trkpt lat="43.27183" lon="-1.00575">
        <ele>96.4</ele>
        <time>2022-09-11T07:06:24Z</time>
      </trkpt>
      <trkpt lat="43.27185" lon="-1.0058">
        <ele>96.4</ele>
        <time>2022-09-11T07:06:25Z</time>
      </trkpt>
      <trkpt lat="43.27198" lon="-1.0062">
        <ele>96.6</ele>
        <time>2022-09-11T07:06:33Z</time>
      </trkpt>
      <trkpt lat="43.27207" lon="-1.00665">
        <ele>96</ele>
        <time>2022-09-11T07:06:40Z</time>
      </trkpt>
      <trkpt lat="43.27208" lon="-1.00688">
        <ele>95.2</ele>
        <time>2022-09-11T07:06:43Z</time>
      </trkpt>
      <trkpt lat="43.27207" lon="-1.00715">
        <ele>94.6</ele>
        <time>2022-09-11T07:06:46Z</time>
      </trkpt>
      <trkpt lat="43.27205" lon="-1.00734">
        <ele>94.2</ele>
        <time>2022-09-11T07:06:48Z</time>
      </trkpt>
      <trkpt lat="43.27198" lon="-1.00763">
        <ele>93.2</ele>
        <time>2022-09-11T07:06:51Z</time>
      </trkpt>
      <trkpt lat="43.27195" lon="-1.00773">
        <ele>93</ele>
        <time>2022-09-11T07:06:52Z</time>
      </trkpt>
      <trkpt lat="43.27189" lon="-1.00823">
        <ele>92</ele>
        <time>2022-09-11T07:06:57Z</time>
      </trkpt>
      <trkpt lat="43.2719" lon="-1.00834">
        <ele>91.8</ele>
        <time>2022-09-11T07:06:58Z</time>
      </trkpt>
      <trkpt lat="43.27197" lon="-1.00861">
        <ele>91.6</ele>
        <time>2022-09-11T07:07:01Z</time>
      </trkpt>
      <trkpt lat="43.27209" lon="-1.00879">
        <ele>92</ele>
        <time>2022-09-11T07:07:04Z</time>
      </trkpt>
      <trkpt lat="43.27214" lon="-1.00885">
        <ele>92</ele>
        <time>2022-09-11T07:07:05Z</time>
      </trkpt>
      <trkpt lat="43.27218" lon="-1.0089">
        <ele>92</ele>
        <time>2022-09-11T07:07:06Z</time>
      </trkpt>
      <trkpt lat="43.27226" lon="-1.00911">
        <ele>92.4</ele>
        <time>2022-09-11T07:07:09Z</time>
      </trkpt>
      <trkpt lat="43.27226" lon="-1.0094">
        <ele>92.6</ele>
        <time>2022-09-11T07:07:13Z</time>
      </trkpt>
      <trkpt lat="43.27227" lon="-1.00953">
        <ele>93</ele>
        <time>2022-09-11T07:07:15Z</time>
      </trkpt>
      <trkpt lat="43.2723" lon="-1.00972">
        <ele>93.4</ele>
        <time>2022-09-11T07:07:18Z</time>
      </trkpt>
      <trkpt lat="43.27243" lon="-1.0101">
        <ele>93.6</ele>
        <time>2022-09-11T07:07:25Z</time>
      </trkpt>
      <trkpt lat="43.27251" lon="-1.01022">
        <ele>93.6</ele>
        <time>2022-09-11T07:07:28Z</time>
      </trkpt>
      <trkpt lat="43.27258" lon="-1.01028">
        <ele>93.6</ele>
        <time>2022-09-11T07:07:30Z</time>
      </trkpt>
      <trkpt lat="43.27262" lon="-1.01031">
        <ele>93.6</ele>
        <time>2022-09-11T07:07:31Z</time>
      </trkpt>
      <trkpt lat="43.27288" lon="-1.01044">
        <ele>93.4</ele>
        <time>2022-09-11T07:07:37Z</time>
      </trkpt>
      <trkpt lat="43.27322" lon="-1.01055">
        <ele>91.8</ele>
        <time>2022-09-11T07:07:43Z</time>
      </trkpt>
      <trkpt lat="43.27342" lon="-1.01062">
        <ele>90.8</ele>
        <time>2022-09-11T07:07:46Z</time>
      </trkpt>
      <trkpt lat="43.27363" lon="-1.01068">
        <ele>90.2</ele>
        <time>2022-09-11T07:07:49Z</time>
      </trkpt>
      <trkpt lat="43.27393" lon="-1.01074">
        <ele>90.4</ele>
        <time>2022-09-11T07:07:54Z</time>
      </trkpt>
      <trkpt lat="43.27433" lon="-1.01084">
        <ele>90.4</ele>
        <time>2022-09-11T07:08:01Z</time>
      </trkpt>
      <trkpt lat="43.2745" lon="-1.01093">
        <ele>89.8</ele>
        <time>2022-09-11T07:08:04Z</time>
      </trkpt>
      <trkpt lat="43.2746" lon="-1.01102">
        <ele>89.8</ele>
        <time>2022-09-11T07:08:06Z</time>
      </trkpt>
      <trkpt lat="43.27465" lon="-1.01107">
        <ele>89.6</ele>
        <time>2022-09-11T07:08:07Z</time>
      </trkpt>
      <trkpt lat="43.27484" lon="-1.0113">
        <ele>89.2</ele>
        <time>2022-09-11T07:08:11Z</time>
      </trkpt>
      <trkpt lat="43.27487" lon="-1.01136">
        <ele>89.2</ele>
        <time>2022-09-11T07:08:12Z</time>
      </trkpt>
      <trkpt lat="43.27497" lon="-1.01158">
        <ele>89</ele>
        <time>2022-09-11T07:08:15Z</time>
      </trkpt>
      <trkpt lat="43.275" lon="-1.01166">
        <ele>89</ele>
        <time>2022-09-11T07:08:16Z</time>
      </trkpt>
      <trkpt lat="43.27507" lon="-1.01198">
        <ele>88.8</ele>
        <time>2022-09-11T07:08:20Z</time>
      </trkpt>
      <trkpt lat="43.27508" lon="-1.01206">
        <ele>88.6</ele>
        <time>2022-09-11T07:08:21Z</time>
      </trkpt>
      <trkpt lat="43.27516" lon="-1.01253">
        <ele>88.4</ele>
        <time>2022-09-11T07:08:27Z</time>
      </trkpt>
      <trkpt lat="43.2752" lon="-1.01275">
        <ele>88.6</ele>
        <time>2022-09-11T07:08:30Z</time>
      </trkpt>
      <trkpt lat="43.27525" lon="-1.01288">
        <ele>88.6</ele>
        <time>2022-09-11T07:08:32Z</time>
      </trkpt>
      <trkpt lat="43.27535" lon="-1.01304">
        <ele>89.2</ele>
        <time>2022-09-11T07:08:35Z</time>
      </trkpt>
      <trkpt lat="43.27542" lon="-1.01312">
        <ele>89.8</ele>
        <time>2022-09-11T07:08:37Z</time>
      </trkpt>
      <trkpt lat="43.27559" lon="-1.01336">
        <ele>90.4</ele>
        <time>2022-09-11T07:08:43Z</time>
      </trkpt>
      <trkpt lat="43.27586" lon="-1.01375">
        <ele>90.6</ele>
        <time>2022-09-11T07:08:52Z</time>
      </trkpt>
      <trkpt lat="43.27608" lon="-1.01404">
        <ele>90.4</ele>
        <time>2022-09-11T07:08:58Z</time>
      </trkpt>
      <trkpt lat="43.27632" lon="-1.01437">
        <ele>90</ele>
        <time>2022-09-11T07:09:04Z</time>
      </trkpt>
      <trkpt lat="43.27656" lon="-1.01472">
        <ele>90</ele>
        <time>2022-09-11T07:09:10Z</time>
      </trkpt>
      <trkpt lat="43.27682" lon="-1.01518">
        <ele>90</ele>
        <time>2022-09-11T07:09:17Z</time>
      </trkpt>
      <trkpt lat="43.27684" lon="-1.01525">
        <ele>89.6</ele>
        <time>2022-09-11T07:09:18Z</time>
      </trkpt>
      <trkpt lat="43.27695" lon="-1.01558">
        <ele>88.6</ele>
        <time>2022-09-11T07:09:22Z</time>
      </trkpt>
      <trkpt lat="43.27705" lon="-1.01609">
        <ele>87.6</ele>
        <time>2022-09-11T07:09:28Z</time>
      </trkpt>
      <trkpt lat="43.27709" lon="-1.01626">
        <ele>87.6</ele>
        <time>2022-09-11T07:09:30Z</time>
      </trkpt>
      <trkpt lat="43.27718" lon="-1.01679">
        <ele>87</ele>
        <time>2022-09-11T07:09:36Z</time>
      </trkpt>
      <trkpt lat="43.27724" lon="-1.01713">
        <ele>86.6</ele>
        <time>2022-09-11T07:09:40Z</time>
      </trkpt>
      <trkpt lat="43.27726" lon="-1.01721">
        <ele>86.6</ele>
        <time>2022-09-11T07:09:41Z</time>
      </trkpt>
      <trkpt lat="43.27728" lon="-1.0173">
        <ele>86.4</ele>
        <time>2022-09-11T07:09:42Z</time>
      </trkpt>
      <trkpt lat="43.27741" lon="-1.01769">
        <ele>86.6</ele>
        <time>2022-09-11T07:09:47Z</time>
      </trkpt>
      <trkpt lat="43.27764" lon="-1.01811">
        <ele>85.8</ele>
        <time>2022-09-11T07:09:53Z</time>
      </trkpt>
      <trkpt lat="43.27791" lon="-1.01842">
        <ele>85.4</ele>
        <time>2022-09-11T07:09:59Z</time>
      </trkpt>
      <trkpt lat="43.27796" lon="-1.01847">
        <ele>85.4</ele>
        <time>2022-09-11T07:10:00Z</time>
      </trkpt>
      <trkpt lat="43.27822" lon="-1.01862">
        <ele>85.2</ele>
        <time>2022-09-11T07:10:05Z</time>
      </trkpt>
      <trkpt lat="43.2784" lon="-1.01873">
        <ele>85.6</ele>
        <time>2022-09-11T07:10:09Z</time>
      </trkpt>
      <trkpt lat="43.27844" lon="-1.01877">
        <ele>85.6</ele>
        <time>2022-09-11T07:10:10Z</time>
      </trkpt>
      <trkpt lat="43.27858" lon="-1.019">
        <ele>86.2</ele>
        <time>2022-09-11T07:10:15Z</time>
      </trkpt>
      <trkpt lat="43.27859" lon="-1.01905">
        <ele>86.4</ele>
        <time>2022-09-11T07:10:16Z</time>
      </trkpt>
      <trkpt lat="43.27863" lon="-1.01918">
        <ele>86.8</ele>
        <time>2022-09-11T07:10:20Z</time>
      </trkpt>
      <trkpt lat="43.27865" lon="-1.01923">
        <ele>86.6</ele>
        <time>2022-09-11T07:10:23Z</time>
      </trkpt>
      <trkpt lat="43.27867" lon="-1.01926">
        <ele>86.6</ele>
        <time>2022-09-11T07:10:26Z</time>
      </trkpt>
      <trkpt lat="43.27865" lon="-1.01932">
        <ele>86.4</ele>
        <time>2022-09-11T07:10:29Z</time>
      </trkpt>
      <trkpt lat="43.27864" lon="-1.01931">
        <ele>86.4</ele>
        <time>2022-09-11T07:10:30Z</time>
      </trkpt>
      <trkpt lat="43.27862" lon="-1.01923">
        <ele>86.6</ele>
        <time>2022-09-11T07:10:34Z</time>
      </trkpt>
      <trkpt lat="43.2786" lon="-1.01917">
        <ele>86.8</ele>
        <time>2022-09-11T07:10:37Z</time>
      </trkpt>
      <trkpt lat="43.27861" lon="-1.01923">
        <ele>87</ele>
        <time>2022-09-11T07:10:59Z</time>
      </trkpt>
      <trkpt lat="43.27864" lon="-1.01929">
        <ele>86.8</ele>
        <time>2022-09-11T07:11:01Z</time>
      </trkpt>
      <trkpt lat="43.27872" lon="-1.01956">
        <ele>86.4</ele>
        <time>2022-09-11T07:11:08Z</time>
      </trkpt>
      <trkpt lat="43.2788" lon="-1.01978">
        <ele>86.4</ele>
        <time>2022-09-11T07:11:14Z</time>
      </trkpt>
      <trkpt lat="43.27884" lon="-1.01988">
        <ele>86</ele>
        <time>2022-09-11T07:11:36Z</time>
      </trkpt>
      <trkpt lat="43.27887" lon="-1.01996">
        <ele>86</ele>
        <time>2022-09-11T07:11:38Z</time>
      </trkpt>
      <trkpt lat="43.27888" lon="-1.02023">
        <ele>85.4</ele>
        <time>2022-09-11T07:11:44Z</time>
      </trkpt>
      <trkpt lat="43.27887" lon="-1.0205">
        <ele>85.6</ele>
        <time>2022-09-11T07:11:50Z</time>
      </trkpt>
      <trkpt lat="43.27884" lon="-1.0207">
        <ele>85.6</ele>
        <time>2022-09-11T07:11:56Z</time>
      </trkpt>
      <trkpt lat="43.27883" lon="-1.02094">
        <ele>86.2</ele>
        <time>2022-09-11T07:12:04Z</time>
      </trkpt>
      <trkpt lat="43.27883" lon="-1.02102">
        <ele>86.4</ele>
        <time>2022-09-11T07:12:07Z</time>
      </trkpt>
      <trkpt lat="43.27884" lon="-1.02118">
        <ele>87</ele>
        <time>2022-09-11T07:12:12Z</time>
      </trkpt>
      <trkpt lat="43.27886" lon="-1.0213">
        <ele>87.4</ele>
        <time>2022-09-11T07:12:16Z</time>
      </trkpt>
      <trkpt lat="43.27888" lon="-1.02138">
        <ele>88</ele>
        <time>2022-09-11T07:12:19Z</time>
      </trkpt>
      <trkpt lat="43.27891" lon="-1.02144">
        <ele>88.6</ele>
        <time>2022-09-11T07:12:22Z</time>
      </trkpt>
      <trkpt lat="43.27895" lon="-1.0215">
        <ele>89.2</ele>
        <time>2022-09-11T07:12:26Z</time>
      </trkpt>
      <trkpt lat="43.27897" lon="-1.02153">
        <ele>89.4</ele>
        <time>2022-09-11T07:12:28Z</time>
      </trkpt>
      <trkpt lat="43.27898" lon="-1.02154">
        <ele>89.8</ele>
        <time>2022-09-11T07:12:29Z</time>
      </trkpt>
      <trkpt lat="43.27905" lon="-1.02155">
        <ele>90.4</ele>
        <time>2022-09-11T07:12:33Z</time>
      </trkpt>
      <trkpt lat="43.27915" lon="-1.02149">
        <ele>90.6</ele>
        <time>2022-09-11T07:12:39Z</time>
      </trkpt>
      <trkpt lat="43.27925" lon="-1.02144">
        <ele>90.8</ele>
        <time>2022-09-11T07:12:43Z</time>
      </trkpt>
      <trkpt lat="43.27934" lon="-1.02138">
        <ele>90.8</ele>
        <time>2022-09-11T07:12:47Z</time>
      </trkpt>
      <trkpt lat="43.27958" lon="-1.02122">
        <ele>91.2</ele>
        <time>2022-09-11T07:12:56Z</time>
      </trkpt>
      <trkpt lat="43.27983" lon="-1.02104">
        <ele>91.4</ele>
        <time>2022-09-11T07:13:05Z</time>
      </trkpt>
      <trkpt lat="43.28005" lon="-1.02089">
        <ele>91.6</ele>
        <time>2022-09-11T07:13:13Z</time>
      </trkpt>
      <trkpt lat="43.28023" lon="-1.02079">
        <ele>91.8</ele>
        <time>2022-09-11T07:13:19Z</time>
      </trkpt>
      <trkpt lat="43.28025" lon="-1.02077">
        <ele>91.8</ele>
        <time>2022-09-11T07:13:20Z</time>
      </trkpt>
      <trkpt lat="43.2804" lon="-1.02061">
        <ele>93</ele>
        <time>2022-09-11T07:13:27Z</time>
      </trkpt>
      <trkpt lat="43.28049" lon="-1.02054">
        <ele>94</ele>
        <time>2022-09-11T07:13:32Z</time>
      </trkpt>
      <trkpt lat="43.28054" lon="-1.0205">
        <ele>94.4</ele>
        <time>2022-09-11T07:13:35Z</time>
      </trkpt>
      <trkpt lat="43.28061" lon="-1.02045">
        <ele>95.2</ele>
        <time>2022-09-11T07:13:39Z</time>
      </trkpt>
      <trkpt lat="43.28069" lon="-1.02038">
        <ele>96</ele>
        <time>2022-09-11T07:13:44Z</time>
      </trkpt>
      <trkpt lat="43.2807" lon="-1.02037">
        <ele>96.2</ele>
        <time>2022-09-11T07:13:45Z</time>
      </trkpt>
      <trkpt lat="43.28078" lon="-1.02031">
        <ele>97.4</ele>
        <time>2022-09-11T07:13:50Z</time>
      </trkpt>
      <trkpt lat="43.28082" lon="-1.02027">
        <ele>97.8</ele>
        <time>2022-09-11T07:13:53Z</time>
      </trkpt>
      <trkpt lat="43.28087" lon="-1.02023">
        <ele>98.6</ele>
        <time>2022-09-11T07:13:57Z</time>
      </trkpt>
      <trkpt lat="43.28091" lon="-1.02019">
        <ele>99</ele>
        <time>2022-09-11T07:14:00Z</time>
      </trkpt>
      <trkpt lat="43.28094" lon="-1.02016">
        <ele>99.6</ele>
        <time>2022-09-11T07:14:03Z</time>
      </trkpt>
      <trkpt lat="43.28099" lon="-1.02011">
        <ele>100.2</ele>
        <time>2022-09-11T07:14:07Z</time>
      </trkpt>
      <trkpt lat="43.281" lon="-1.0201">
        <ele>100.6</ele>
        <time>2022-09-11T07:14:08Z</time>
      </trkpt>
      <trkpt lat="43.28108" lon="-1.02004">
        <ele>101.6</ele>
        <time>2022-09-11T07:14:14Z</time>
      </trkpt>
      <trkpt lat="43.28109" lon="-1.02003">
        <ele>101.8</ele>
        <time>2022-09-11T07:14:15Z</time>
      </trkpt>
      <trkpt lat="43.28117" lon="-1.01996">
        <ele>102.8</ele>
        <time>2022-09-11T07:14:21Z</time>
      </trkpt>
      <trkpt lat="43.28118" lon="-1.01995">
        <ele>102.8</ele>
        <time>2022-09-11T07:14:22Z</time>
      </trkpt>
      <trkpt lat="43.28125" lon="-1.01989">
        <ele>103.8</ele>
        <time>2022-09-11T07:14:28Z</time>
      </trkpt>
      <trkpt lat="43.2813" lon="-1.01987">
        <ele>104.4</ele>
        <time>2022-09-11T07:14:31Z</time>
      </trkpt>
      <trkpt lat="43.28133" lon="-1.01985">
        <ele>104.8</ele>
        <time>2022-09-11T07:14:33Z</time>
      </trkpt>
      <trkpt lat="43.28138" lon="-1.01981">
        <ele>105.8</ele>
        <time>2022-09-11T07:14:38Z</time>
      </trkpt>
      <trkpt lat="43.28139" lon="-1.0198">
        <ele>105.8</ele>
        <time>2022-09-11T07:14:39Z</time>
      </trkpt>
      <trkpt lat="43.28141" lon="-1.01979">
        <ele>106</ele>
        <time>2022-09-11T07:14:40Z</time>
      </trkpt>
      <trkpt lat="43.28144" lon="-1.01975">
        <ele>106.4</ele>
        <time>2022-09-11T07:14:43Z</time>
      </trkpt>
      <trkpt lat="43.28149" lon="-1.01974">
        <ele>107</ele>
        <time>2022-09-11T07:14:46Z</time>
      </trkpt>
      <trkpt lat="43.28153" lon="-1.0197">
        <ele>107.4</ele>
        <time>2022-09-11T07:14:49Z</time>
      </trkpt>
      <trkpt lat="43.28158" lon="-1.01964">
        <ele>108</ele>
        <time>2022-09-11T07:14:53Z</time>
      </trkpt>
      <trkpt lat="43.28162" lon="-1.01964">
        <ele>108.8</ele>
        <time>2022-09-11T07:14:56Z</time>
      </trkpt>
      <trkpt lat="43.28164" lon="-1.0196">
        <ele>109</ele>
        <time>2022-09-11T07:14:58Z</time>
      </trkpt>
      <trkpt lat="43.28165" lon="-1.01958">
        <ele>109.2</ele>
        <time>2022-09-11T07:14:59Z</time>
      </trkpt>
      <trkpt lat="43.28167" lon="-1.01956">
        <ele>109.4</ele>
        <time>2022-09-11T07:15:01Z</time>
      </trkpt>
      <trkpt lat="43.28174" lon="-1.01954">
        <ele>110.2</ele>
        <time>2022-09-11T07:15:06Z</time>
      </trkpt>
      <trkpt lat="43.28175" lon="-1.01953">
        <ele>110.4</ele>
        <time>2022-09-11T07:15:07Z</time>
      </trkpt>
      <trkpt lat="43.28176" lon="-1.0195">
        <ele>110.6</ele>
        <time>2022-09-11T07:15:08Z</time>
      </trkpt>
      <trkpt lat="43.28181" lon="-1.01944">
        <ele>111.2</ele>
        <time>2022-09-11T07:15:12Z</time>
      </trkpt>
      <trkpt lat="43.28182" lon="-1.01944">
        <ele>111.2</ele>
        <time>2022-09-11T07:15:13Z</time>
      </trkpt>
      <trkpt lat="43.28188" lon="-1.01938">
        <ele>112.2</ele>
        <time>2022-09-11T07:15:18Z</time>
      </trkpt>
      <trkpt lat="43.2819" lon="-1.01936">
        <ele>112.4</ele>
        <time>2022-09-11T07:15:19Z</time>
      </trkpt>
      <trkpt lat="43.28195" lon="-1.01934">
        <ele>113.2</ele>
        <time>2022-09-11T07:15:23Z</time>
      </trkpt>
      <trkpt lat="43.28198" lon="-1.01932">
        <ele>113.6</ele>
        <time>2022-09-11T07:15:25Z</time>
      </trkpt>
      <trkpt lat="43.28207" lon="-1.0193">
        <ele>114.2</ele>
        <time>2022-09-11T07:15:31Z</time>
      </trkpt>
      <trkpt lat="43.28212" lon="-1.01931">
        <ele>114.8</ele>
        <time>2022-09-11T07:15:34Z</time>
      </trkpt>
      <trkpt lat="43.28218" lon="-1.01936">
        <ele>115</ele>
        <time>2022-09-11T07:15:38Z</time>
      </trkpt>
      <trkpt lat="43.28228" lon="-1.01951">
        <ele>115.6</ele>
        <time>2022-09-11T07:15:46Z</time>
      </trkpt>
      <trkpt lat="43.2823" lon="-1.01956">
        <ele>115.8</ele>
        <time>2022-09-11T07:15:48Z</time>
      </trkpt>
      <trkpt lat="43.28232" lon="-1.0197">
        <ele>116.4</ele>
        <time>2022-09-11T07:15:53Z</time>
      </trkpt>
      <trkpt lat="43.28232" lon="-1.01989">
        <ele>116.8</ele>
        <time>2022-09-11T07:15:59Z</time>
      </trkpt>
      <trkpt lat="43.28231" lon="-1.01995">
        <ele>117</ele>
        <time>2022-09-11T07:16:01Z</time>
      </trkpt>
      <trkpt lat="43.28226" lon="-1.02016">
        <ele>117.8</ele>
        <time>2022-09-11T07:16:08Z</time>
      </trkpt>
      <trkpt lat="43.28225" lon="-1.02023">
        <ele>118.2</ele>
        <time>2022-09-11T07:16:10Z</time>
      </trkpt>
      <trkpt lat="43.28224" lon="-1.02046">
        <ele>118.8</ele>
        <time>2022-09-11T07:16:16Z</time>
      </trkpt>
      <trkpt lat="43.28233" lon="-1.02071">
        <ele>118.8</ele>
        <time>2022-09-11T07:16:23Z</time>
      </trkpt>
      <trkpt lat="43.28249" lon="-1.02098">
        <ele>118.4</ele>
        <time>2022-09-11T07:16:31Z</time>
      </trkpt>
      <trkpt lat="43.28271" lon="-1.02124">
        <ele>117.6</ele>
        <time>2022-09-11T07:16:38Z</time>
      </trkpt>
      <trkpt lat="43.28301" lon="-1.02147">
        <ele>117</ele>
        <time>2022-09-11T07:16:45Z</time>
      </trkpt>
      <trkpt lat="43.28306" lon="-1.02149">
        <ele>116.8</ele>
        <time>2022-09-11T07:16:46Z</time>
      </trkpt>
      <trkpt lat="43.28345" lon="-1.02166">
        <ele>116.2</ele>
        <time>2022-09-11T07:16:54Z</time>
      </trkpt>
      <trkpt lat="43.28364" lon="-1.02175">
        <ele>115.8</ele>
        <time>2022-09-11T07:16:58Z</time>
      </trkpt>
      <trkpt lat="43.2838" lon="-1.02182">
        <ele>115.4</ele>
        <time>2022-09-11T07:17:01Z</time>
      </trkpt>
      <trkpt lat="43.28403" lon="-1.02192">
        <ele>114.6</ele>
        <time>2022-09-11T07:17:05Z</time>
      </trkpt>
      <trkpt lat="43.28423" lon="-1.02201">
        <ele>113.4</ele>
        <time>2022-09-11T07:17:08Z</time>
      </trkpt>
      <trkpt lat="43.28453" lon="-1.02212">
        <ele>112.2</ele>
        <time>2022-09-11T07:17:12Z</time>
      </trkpt>
      <trkpt lat="43.28477" lon="-1.02222">
        <ele>111.2</ele>
        <time>2022-09-11T07:17:15Z</time>
      </trkpt>
      <trkpt lat="43.28502" lon="-1.02232">
        <ele>109.6</ele>
        <time>2022-09-11T07:17:18Z</time>
      </trkpt>
      <trkpt lat="43.28525" lon="-1.02244">
        <ele>108.4</ele>
        <time>2022-09-11T07:17:21Z</time>
      </trkpt>
      <trkpt lat="43.28576" lon="-1.02269">
        <ele>107.4</ele>
        <time>2022-09-11T07:17:28Z</time>
      </trkpt>
      <trkpt lat="43.28591" lon="-1.02275">
        <ele>106.8</ele>
        <time>2022-09-11T07:17:30Z</time>
      </trkpt>
      <trkpt lat="43.28608" lon="-1.02276">
        <ele>106</ele>
        <time>2022-09-11T07:17:32Z</time>
      </trkpt>
      <trkpt lat="43.28627" lon="-1.02275">
        <ele>104.8</ele>
        <time>2022-09-11T07:17:34Z</time>
      </trkpt>
      <trkpt lat="43.28647" lon="-1.0227">
        <ele>103.6</ele>
        <time>2022-09-11T07:17:36Z</time>
      </trkpt>
      <trkpt lat="43.28666" lon="-1.0226">
        <ele>102.2</ele>
        <time>2022-09-11T07:17:38Z</time>
      </trkpt>
      <trkpt lat="43.28687" lon="-1.02253">
        <ele>101.2</ele>
        <time>2022-09-11T07:17:40Z</time>
      </trkpt>
      <trkpt lat="43.28709" lon="-1.02252">
        <ele>100</ele>
        <time>2022-09-11T07:17:42Z</time>
      </trkpt>
      <trkpt lat="43.2872" lon="-1.02253">
        <ele>99</ele>
        <time>2022-09-11T07:17:43Z</time>
      </trkpt>
      <trkpt lat="43.28732" lon="-1.02256">
        <ele>97.4</ele>
        <time>2022-09-11T07:17:44Z</time>
      </trkpt>
      <trkpt lat="43.28743" lon="-1.02261">
        <ele>96.2</ele>
        <time>2022-09-11T07:17:45Z</time>
      </trkpt>
      <trkpt lat="43.28754" lon="-1.02267">
        <ele>95.4</ele>
        <time>2022-09-11T07:17:46Z</time>
      </trkpt>
      <trkpt lat="43.28764" lon="-1.02276">
        <ele>94.2</ele>
        <time>2022-09-11T07:17:47Z</time>
      </trkpt>
      <trkpt lat="43.28781" lon="-1.02299">
        <ele>92.6</ele>
        <time>2022-09-11T07:17:49Z</time>
      </trkpt>
      <trkpt lat="43.28795" lon="-1.02323">
        <ele>91.8</ele>
        <time>2022-09-11T07:17:51Z</time>
      </trkpt>
      <trkpt lat="43.28808" lon="-1.02345">
        <ele>91.4</ele>
        <time>2022-09-11T07:17:53Z</time>
      </trkpt>
      <trkpt lat="43.28843" lon="-1.02405">
        <ele>91</ele>
        <time>2022-09-11T07:17:59Z</time>
      </trkpt>
      <trkpt lat="43.28879" lon="-1.02466">
        <ele>90.4</ele>
        <time>2022-09-11T07:18:06Z</time>
      </trkpt>
      <trkpt lat="43.28899" lon="-1.02497">
        <ele>91.8</ele>
        <time>2022-09-11T07:18:11Z</time>
      </trkpt>
      <trkpt lat="43.28904" lon="-1.02506">
        <ele>92.6</ele>
        <time>2022-09-11T07:18:13Z</time>
      </trkpt>
      <trkpt lat="43.2891" lon="-1.02516">
        <ele>93.6</ele>
        <time>2022-09-11T07:18:16Z</time>
      </trkpt>
      <trkpt lat="43.28912" lon="-1.02519">
        <ele>93.8</ele>
        <time>2022-09-11T07:18:17Z</time>
      </trkpt>
      <trkpt lat="43.28921" lon="-1.02534">
        <ele>95</ele>
        <time>2022-09-11T07:18:23Z</time>
      </trkpt>
      <trkpt lat="43.28923" lon="-1.02536">
        <ele>95.2</ele>
        <time>2022-09-11T07:18:24Z</time>
      </trkpt>
      <trkpt lat="43.28929" lon="-1.02548">
        <ele>96.2</ele>
        <time>2022-09-11T07:18:29Z</time>
      </trkpt>
      <trkpt lat="43.28932" lon="-1.02552">
        <ele>96.4</ele>
        <time>2022-09-11T07:18:31Z</time>
      </trkpt>
      <trkpt lat="43.28934" lon="-1.02556">
        <ele>96.8</ele>
        <time>2022-09-11T07:18:33Z</time>
      </trkpt>
      <trkpt lat="43.28936" lon="-1.0256">
        <ele>97.4</ele>
        <time>2022-09-11T07:18:35Z</time>
      </trkpt>
      <trkpt lat="43.28943" lon="-1.02572">
        <ele>98.4</ele>
        <time>2022-09-11T07:18:41Z</time>
      </trkpt>
      <trkpt lat="43.2895" lon="-1.02585">
        <ele>99.6</ele>
        <time>2022-09-11T07:18:48Z</time>
      </trkpt>
      <trkpt lat="43.28953" lon="-1.02588">
        <ele>99.8</ele>
        <time>2022-09-11T07:18:50Z</time>
      </trkpt>
      <trkpt lat="43.28958" lon="-1.02598">
        <ele>100.6</ele>
        <time>2022-09-11T07:18:55Z</time>
      </trkpt>
      <trkpt lat="43.28961" lon="-1.02603">
        <ele>101.2</ele>
        <time>2022-09-11T07:18:58Z</time>
      </trkpt>
      <trkpt lat="43.28964" lon="-1.02608">
        <ele>101.8</ele>
        <time>2022-09-11T07:19:01Z</time>
      </trkpt>
      <trkpt lat="43.28973" lon="-1.02624">
        <ele>102.6</ele>
        <time>2022-09-11T07:19:09Z</time>
      </trkpt>
      <trkpt lat="43.28974" lon="-1.02626">
        <ele>102.8</ele>
        <time>2022-09-11T07:19:10Z</time>
      </trkpt>
      <trkpt lat="43.28983" lon="-1.02638">
        <ele>103.6</ele>
        <time>2022-09-11T07:19:16Z</time>
      </trkpt>
      <trkpt lat="43.28984" lon="-1.0264">
        <ele>103.8</ele>
        <time>2022-09-11T07:19:17Z</time>
      </trkpt>
      <trkpt lat="43.28991" lon="-1.02651">
        <ele>104.8</ele>
        <time>2022-09-11T07:19:23Z</time>
      </trkpt>
      <trkpt lat="43.28992" lon="-1.02653">
        <ele>105</ele>
        <time>2022-09-11T07:19:24Z</time>
      </trkpt>
      <trkpt lat="43.29001" lon="-1.02666">
        <ele>105.8</ele>
        <time>2022-09-11T07:19:31Z</time>
      </trkpt>
      <trkpt lat="43.29002" lon="-1.02668">
        <ele>106</ele>
        <time>2022-09-11T07:19:32Z</time>
      </trkpt>
      <trkpt lat="43.29011" lon="-1.02683">
        <ele>107</ele>
        <time>2022-09-11T07:19:39Z</time>
      </trkpt>
      <trkpt lat="43.29018" lon="-1.02695">
        <ele>108</ele>
        <time>2022-09-11T07:19:45Z</time>
      </trkpt>
      <trkpt lat="43.29019" lon="-1.02697">
        <ele>108.2</ele>
        <time>2022-09-11T07:19:46Z</time>
      </trkpt>
      <trkpt lat="43.29027" lon="-1.0271">
        <ele>109.2</ele>
        <time>2022-09-11T07:19:52Z</time>
      </trkpt>
      <trkpt lat="43.2903" lon="-1.02717">
        <ele>109.6</ele>
        <time>2022-09-11T07:19:55Z</time>
      </trkpt>
      <trkpt lat="43.29034" lon="-1.02723">
        <ele>110.2</ele>
        <time>2022-09-11T07:19:58Z</time>
      </trkpt>
      <trkpt lat="43.29035" lon="-1.02728">
        <ele>110.4</ele>
        <time>2022-09-11T07:20:00Z</time>
      </trkpt>
      <trkpt lat="43.29036" lon="-1.02732">
        <ele>110.6</ele>
        <time>2022-09-11T07:20:02Z</time>
      </trkpt>
      <trkpt lat="43.2904" lon="-1.02738">
        <ele>111.2</ele>
        <time>2022-09-11T07:20:05Z</time>
      </trkpt>
      <trkpt lat="43.29042" lon="-1.0274">
        <ele>111.4</ele>
        <time>2022-09-11T07:20:06Z</time>
      </trkpt>
      <trkpt lat="43.29045" lon="-1.02747">
        <ele>111.8</ele>
        <time>2022-09-11T07:20:09Z</time>
      </trkpt>
      <trkpt lat="43.29047" lon="-1.02751">
        <ele>112.4</ele>
        <time>2022-09-11T07:20:11Z</time>
      </trkpt>
      <trkpt lat="43.29049" lon="-1.02754">
        <ele>112.4</ele>
        <time>2022-09-11T07:20:12Z</time>
      </trkpt>
      <trkpt lat="43.29051" lon="-1.02758">
        <ele>112.6</ele>
        <time>2022-09-11T07:20:14Z</time>
      </trkpt>
      <trkpt lat="43.29056" lon="-1.02772">
        <ele>113.6</ele>
        <time>2022-09-11T07:20:20Z</time>
      </trkpt>
      <trkpt lat="43.29062" lon="-1.02791">
        <ele>114.6</ele>
        <time>2022-09-11T07:20:27Z</time>
      </trkpt>
      <trkpt lat="43.29063" lon="-1.02794">
        <ele>114.6</ele>
        <time>2022-09-11T07:20:28Z</time>
      </trkpt>
      <trkpt lat="43.29069" lon="-1.0281">
        <ele>115.4</ele>
        <time>2022-09-11T07:20:34Z</time>
      </trkpt>
      <trkpt lat="43.29077" lon="-1.02828">
        <ele>115.6</ele>
        <time>2022-09-11T07:20:41Z</time>
      </trkpt>
      <trkpt lat="43.29078" lon="-1.02831">
        <ele>115.6</ele>
        <time>2022-09-11T07:20:42Z</time>
      </trkpt>
      <trkpt lat="43.29089" lon="-1.02851">
        <ele>116</ele>
        <time>2022-09-11T07:20:49Z</time>
      </trkpt>
      <trkpt lat="43.29105" lon="-1.0287">
        <ele>116.4</ele>
        <time>2022-09-11T07:20:57Z</time>
      </trkpt>
      <trkpt lat="43.29119" lon="-1.02881">
        <ele>116.8</ele>
        <time>2022-09-11T07:21:02Z</time>
      </trkpt>
      <trkpt lat="43.29127" lon="-1.02887">
        <ele>116.8</ele>
        <time>2022-09-11T07:21:05Z</time>
      </trkpt>
      <trkpt lat="43.29152" lon="-1.02906">
        <ele>117.2</ele>
        <time>2022-09-11T07:21:14Z</time>
      </trkpt>
      <trkpt lat="43.29175" lon="-1.02928">
        <ele>117</ele>
        <time>2022-09-11T07:21:22Z</time>
      </trkpt>
      <trkpt lat="43.29195" lon="-1.02958">
        <ele>116.6</ele>
        <time>2022-09-11T07:21:29Z</time>
      </trkpt>
      <trkpt lat="43.29223" lon="-1.03002">
        <ele>116.2</ele>
        <time>2022-09-11T07:21:39Z</time>
      </trkpt>
      <trkpt lat="43.29244" lon="-1.03036">
        <ele>116</ele>
        <time>2022-09-11T07:21:48Z</time>
      </trkpt>
      <trkpt lat="43.29264" lon="-1.03069">
        <ele>117</ele>
        <time>2022-09-11T07:21:57Z</time>
      </trkpt>
      <trkpt lat="43.29276" lon="-1.03089">
        <ele>117.8</ele>
        <time>2022-09-11T07:22:03Z</time>
      </trkpt>
      <trkpt lat="43.29283" lon="-1.03102">
        <ele>118.4</ele>
        <time>2022-09-11T07:22:07Z</time>
      </trkpt>
      <trkpt lat="43.29285" lon="-1.03105">
        <ele>119</ele>
        <time>2022-09-11T07:22:08Z</time>
      </trkpt>
      <trkpt lat="43.29296" lon="-1.03122">
        <ele>120.2</ele>
        <time>2022-09-11T07:22:14Z</time>
      </trkpt>
      <trkpt lat="43.29299" lon="-1.03127">
        <ele>120.6</ele>
        <time>2022-09-11T07:22:16Z</time>
      </trkpt>
      <trkpt lat="43.29306" lon="-1.03138">
        <ele>121.2</ele>
        <time>2022-09-11T07:22:20Z</time>
      </trkpt>
      <trkpt lat="43.29311" lon="-1.03147">
        <ele>121.8</ele>
        <time>2022-09-11T07:22:23Z</time>
      </trkpt>
      <trkpt lat="43.29318" lon="-1.03158">
        <ele>122.4</ele>
        <time>2022-09-11T07:22:27Z</time>
      </trkpt>
      <trkpt lat="43.29323" lon="-1.03166">
        <ele>123</ele>
        <time>2022-09-11T07:22:30Z</time>
      </trkpt>
      <trkpt lat="43.29326" lon="-1.03171">
        <ele>123.4</ele>
        <time>2022-09-11T07:22:32Z</time>
      </trkpt>
      <trkpt lat="43.29336" lon="-1.03185">
        <ele>124.2</ele>
        <time>2022-09-11T07:22:38Z</time>
      </trkpt>
      <trkpt lat="43.29341" lon="-1.03193">
        <ele>124.4</ele>
        <time>2022-09-11T07:22:41Z</time>
      </trkpt>
      <trkpt lat="43.29347" lon="-1.03201">
        <ele>124.8</ele>
        <time>2022-09-11T07:22:44Z</time>
      </trkpt>
      <trkpt lat="43.29349" lon="-1.03204">
        <ele>125</ele>
        <time>2022-09-11T07:22:45Z</time>
      </trkpt>
      <trkpt lat="43.29366" lon="-1.03223">
        <ele>125.6</ele>
        <time>2022-09-11T07:22:53Z</time>
      </trkpt>
      <trkpt lat="43.29387" lon="-1.03241">
        <ele>126.2</ele>
        <time>2022-09-11T07:23:01Z</time>
      </trkpt>
      <trkpt lat="43.29402" lon="-1.03249">
        <ele>126.6</ele>
        <time>2022-09-11T07:23:06Z</time>
      </trkpt>
      <trkpt lat="43.29411" lon="-1.03255">
        <ele>126.6</ele>
        <time>2022-09-11T07:23:09Z</time>
      </trkpt>
      <trkpt lat="43.29438" lon="-1.0327">
        <ele>127</ele>
        <time>2022-09-11T07:23:17Z</time>
      </trkpt>
      <trkpt lat="43.29469" lon="-1.03288">
        <ele>127.2</ele>
        <time>2022-09-11T07:23:26Z</time>
      </trkpt>
      <trkpt lat="43.29493" lon="-1.03301">
        <ele>127.6</ele>
        <time>2022-09-11T07:23:33Z</time>
      </trkpt>
      <trkpt lat="43.29496" lon="-1.03304">
        <ele>127.6</ele>
        <time>2022-09-11T07:23:34Z</time>
      </trkpt>
      <trkpt lat="43.2952" lon="-1.03317">
        <ele>128</ele>
        <time>2022-09-11T07:23:41Z</time>
      </trkpt>
      <trkpt lat="43.29533" lon="-1.03324">
        <ele>128.6</ele>
        <time>2022-09-11T07:23:45Z</time>
      </trkpt>
      <trkpt lat="43.29546" lon="-1.03331">
        <ele>129.2</ele>
        <time>2022-09-11T07:23:49Z</time>
      </trkpt>
      <trkpt lat="43.29558" lon="-1.03337">
        <ele>129.6</ele>
        <time>2022-09-11T07:23:53Z</time>
      </trkpt>
      <trkpt lat="43.29572" lon="-1.03345">
        <ele>130.4</ele>
        <time>2022-09-11T07:23:58Z</time>
      </trkpt>
      <trkpt lat="43.29577" lon="-1.03348">
        <ele>130.6</ele>
        <time>2022-09-11T07:24:00Z</time>
      </trkpt>
      <trkpt lat="43.29592" lon="-1.03357">
        <ele>131.4</ele>
        <time>2022-09-11T07:24:06Z</time>
      </trkpt>
      <trkpt lat="43.29597" lon="-1.03359">
        <ele>131.8</ele>
        <time>2022-09-11T07:24:08Z</time>
      </trkpt>
      <trkpt lat="43.29611" lon="-1.03368">
        <ele>132.8</ele>
        <time>2022-09-11T07:24:14Z</time>
      </trkpt>
      <trkpt lat="43.29624" lon="-1.03376">
        <ele>133.6</ele>
        <time>2022-09-11T07:24:20Z</time>
      </trkpt>
      <trkpt lat="43.29628" lon="-1.03379">
        <ele>133.8</ele>
        <time>2022-09-11T07:24:22Z</time>
      </trkpt>
      <trkpt lat="43.29644" lon="-1.03387">
        <ele>134.6</ele>
        <time>2022-09-11T07:24:29Z</time>
      </trkpt>
      <trkpt lat="43.29646" lon="-1.03388">
        <ele>134.8</ele>
        <time>2022-09-11T07:24:30Z</time>
      </trkpt>
      <trkpt lat="43.2966" lon="-1.03398">
        <ele>136</ele>
        <time>2022-09-11T07:24:37Z</time>
      </trkpt>
      <trkpt lat="43.29662" lon="-1.034">
        <ele>136</ele>
        <time>2022-09-11T07:24:38Z</time>
      </trkpt>
      <trkpt lat="43.29676" lon="-1.03411">
        <ele>137.2</ele>
        <time>2022-09-11T07:24:45Z</time>
      </trkpt>
      <trkpt lat="43.29691" lon="-1.03425">
        <ele>138.2</ele>
        <time>2022-09-11T07:24:53Z</time>
      </trkpt>
      <trkpt lat="43.29701" lon="-1.03433">
        <ele>139.2</ele>
        <time>2022-09-11T07:24:58Z</time>
      </trkpt>
      <trkpt lat="43.29703" lon="-1.03435">
        <ele>139.4</ele>
        <time>2022-09-11T07:24:59Z</time>
      </trkpt>
      <trkpt lat="43.29714" lon="-1.03444">
        <ele>140.4</ele>
        <time>2022-09-11T07:25:05Z</time>
      </trkpt>
      <trkpt lat="43.29718" lon="-1.03448">
        <ele>140.6</ele>
        <time>2022-09-11T07:25:07Z</time>
      </trkpt>
      <trkpt lat="43.2973" lon="-1.03456">
        <ele>141.4</ele>
        <time>2022-09-11T07:25:13Z</time>
      </trkpt>
      <trkpt lat="43.29732" lon="-1.03458">
        <ele>141.6</ele>
        <time>2022-09-11T07:25:14Z</time>
      </trkpt>
      <trkpt lat="43.29744" lon="-1.03471">
        <ele>142.8</ele>
        <time>2022-09-11T07:25:21Z</time>
      </trkpt>
      <trkpt lat="43.29757" lon="-1.03484">
        <ele>144</ele>
        <time>2022-09-11T07:25:29Z</time>
      </trkpt>
      <trkpt lat="43.29759" lon="-1.03484">
        <ele>144</ele>
        <time>2022-09-11T07:25:30Z</time>
      </trkpt>
      <trkpt lat="43.29765" lon="-1.03488">
        <ele>144.6</ele>
        <time>2022-09-11T07:25:34Z</time>
      </trkpt>
      <trkpt lat="43.2977" lon="-1.03492">
        <ele>145</ele>
        <time>2022-09-11T07:25:37Z</time>
      </trkpt>
      <trkpt lat="43.29782" lon="-1.03502">
        <ele>146.2</ele>
        <time>2022-09-11T07:25:44Z</time>
      </trkpt>
      <trkpt lat="43.29785" lon="-1.03505">
        <ele>146.6</ele>
        <time>2022-09-11T07:25:46Z</time>
      </trkpt>
      <trkpt lat="43.29793" lon="-1.03511">
        <ele>147.4</ele>
        <time>2022-09-11T07:25:51Z</time>
      </trkpt>
      <trkpt lat="43.29798" lon="-1.03514">
        <ele>147.8</ele>
        <time>2022-09-11T07:25:54Z</time>
      </trkpt>
      <trkpt lat="43.29803" lon="-1.03517">
        <ele>148.4</ele>
        <time>2022-09-11T07:25:57Z</time>
      </trkpt>
      <trkpt lat="43.29809" lon="-1.0352">
        <ele>148.8</ele>
        <time>2022-09-11T07:26:00Z</time>
      </trkpt>
      <trkpt lat="43.29816" lon="-1.03524">
        <ele>149.4</ele>
        <time>2022-09-11T07:26:04Z</time>
      </trkpt>
      <trkpt lat="43.29824" lon="-1.03528">
        <ele>150</ele>
        <time>2022-09-11T07:26:08Z</time>
      </trkpt>
      <trkpt lat="43.29827" lon="-1.03529">
        <ele>150.6</ele>
        <time>2022-09-11T07:26:10Z</time>
      </trkpt>
      <trkpt lat="43.29838" lon="-1.03532">
        <ele>151.6</ele>
        <time>2022-09-11T07:26:16Z</time>
      </trkpt>
      <trkpt lat="43.29851" lon="-1.03538">
        <ele>152.6</ele>
        <time>2022-09-11T07:26:23Z</time>
      </trkpt>
      <trkpt lat="43.29857" lon="-1.03539">
        <ele>153</ele>
        <time>2022-09-11T07:26:26Z</time>
      </trkpt>
      <trkpt lat="43.29869" lon="-1.03544">
        <ele>153.8</ele>
        <time>2022-09-11T07:26:32Z</time>
      </trkpt>
      <trkpt lat="43.29871" lon="-1.03545">
        <ele>154</ele>
        <time>2022-09-11T07:26:33Z</time>
      </trkpt>
      <trkpt lat="43.29888" lon="-1.03551">
        <ele>154.8</ele>
        <time>2022-09-11T07:26:41Z</time>
      </trkpt>
      <trkpt lat="43.29905" lon="-1.03555">
        <ele>155.8</ele>
        <time>2022-09-11T07:26:49Z</time>
      </trkpt>
      <trkpt lat="43.29909" lon="-1.03555">
        <ele>156</ele>
        <time>2022-09-11T07:26:51Z</time>
      </trkpt>
      <trkpt lat="43.29917" lon="-1.03556">
        <ele>156.4</ele>
        <time>2022-09-11T07:26:56Z</time>
      </trkpt>
      <trkpt lat="43.29922" lon="-1.03551">
        <ele>157</ele>
        <time>2022-09-11T07:27:02Z</time>
      </trkpt>
      <trkpt lat="43.29921" lon="-1.03549">
        <ele>157</ele>
        <time>2022-09-11T07:27:03Z</time>
      </trkpt>
      <trkpt lat="43.29917" lon="-1.03543">
        <ele>157</ele>
        <time>2022-09-11T07:27:06Z</time>
      </trkpt>
      <trkpt lat="43.29906" lon="-1.03521">
        <ele>157.4</ele>
        <time>2022-09-11T07:27:14Z</time>
      </trkpt>
      <trkpt lat="43.29897" lon="-1.035">
        <ele>157.2</ele>
        <time>2022-09-11T07:27:21Z</time>
      </trkpt>
      <trkpt lat="43.29897" lon="-1.0348">
        <ele>156.8</ele>
        <time>2022-09-11T07:27:27Z</time>
      </trkpt>
      <trkpt lat="43.29905" lon="-1.03473">
        <ele>156.8</ele>
        <time>2022-09-11T07:27:31Z</time>
      </trkpt>
      <trkpt lat="43.29908" lon="-1.03471">
        <ele>157</ele>
        <time>2022-09-11T07:27:33Z</time>
      </trkpt>
      <trkpt lat="43.29914" lon="-1.03469">
        <ele>157.8</ele>
        <time>2022-09-11T07:27:37Z</time>
      </trkpt>
      <trkpt lat="43.29917" lon="-1.03467">
        <ele>158</ele>
        <time>2022-09-11T07:27:39Z</time>
      </trkpt>
      <trkpt lat="43.29925" lon="-1.03462">
        <ele>158.8</ele>
        <time>2022-09-11T07:27:44Z</time>
      </trkpt>
      <trkpt lat="43.29926" lon="-1.0346">
        <ele>159.2</ele>
        <time>2022-09-11T07:27:45Z</time>
      </trkpt>
      <trkpt lat="43.29931" lon="-1.03452">
        <ele>159.8</ele>
        <time>2022-09-11T07:27:51Z</time>
      </trkpt>
      <trkpt lat="43.29931" lon="-1.03449">
        <ele>160</ele>
        <time>2022-09-11T07:27:53Z</time>
      </trkpt>
      <trkpt lat="43.29935" lon="-1.03445">
        <ele>160.6</ele>
        <time>2022-09-11T07:34:58Z</time>
      </trkpt>
      <trkpt lat="43.29937" lon="-1.03446">
        <ele>160.6</ele>
        <time>2022-09-11T07:34:59Z</time>
      </trkpt>
      <trkpt lat="43.29946" lon="-1.03447">
        <ele>161.6</ele>
        <time>2022-09-11T07:35:05Z</time>
      </trkpt>
      <trkpt lat="43.29948" lon="-1.03447">
        <ele>161.8</ele>
        <time>2022-09-11T07:35:06Z</time>
      </trkpt>
      <trkpt lat="43.29951" lon="-1.03448">
        <ele>162</ele>
        <time>2022-09-11T07:35:08Z</time>
      </trkpt>
      <trkpt lat="43.29959" lon="-1.03452">
        <ele>162.6</ele>
        <time>2022-09-11T07:35:13Z</time>
      </trkpt>
      <trkpt lat="43.29967" lon="-1.0346">
        <ele>163.4</ele>
        <time>2022-09-11T07:35:20Z</time>
      </trkpt>
      <trkpt lat="43.29968" lon="-1.03461">
        <ele>163.8</ele>
        <time>2022-09-11T07:35:21Z</time>
      </trkpt>
      <trkpt lat="43.29975" lon="-1.03467">
        <ele>164.6</ele>
        <time>2022-09-11T07:35:26Z</time>
      </trkpt>
      <trkpt lat="43.29977" lon="-1.03468">
        <ele>164.8</ele>
        <time>2022-09-11T07:35:28Z</time>
      </trkpt>
      <trkpt lat="43.29984" lon="-1.03473">
        <ele>165.8</ele>
        <time>2022-09-11T07:35:33Z</time>
      </trkpt>
      <trkpt lat="43.29991" lon="-1.03478">
        <ele>166.6</ele>
        <time>2022-09-11T07:35:39Z</time>
      </trkpt>
      <trkpt lat="43.29994" lon="-1.03478">
        <ele>167</ele>
        <time>2022-09-11T07:35:41Z</time>
      </trkpt>
      <trkpt lat="43.30002" lon="-1.03482">
        <ele>168</ele>
        <time>2022-09-11T07:35:46Z</time>
      </trkpt>
      <trkpt lat="43.30003" lon="-1.03483">
        <ele>168.2</ele>
        <time>2022-09-11T07:35:47Z</time>
      </trkpt>
      <trkpt lat="43.30011" lon="-1.03487">
        <ele>169.2</ele>
        <time>2022-09-11T07:35:53Z</time>
      </trkpt>
      <trkpt lat="43.30012" lon="-1.03487">
        <ele>169.4</ele>
        <time>2022-09-11T07:35:54Z</time>
      </trkpt>
      <trkpt lat="43.3002" lon="-1.0349">
        <ele>170.4</ele>
        <time>2022-09-11T07:35:59Z</time>
      </trkpt>
      <trkpt lat="43.30024" lon="-1.0349">
        <ele>170.8</ele>
        <time>2022-09-11T07:36:02Z</time>
      </trkpt>
      <trkpt lat="43.3003" lon="-1.03489">
        <ele>171.4</ele>
        <time>2022-09-11T07:36:06Z</time>
      </trkpt>
      <trkpt lat="43.30036" lon="-1.0349">
        <ele>172.4</ele>
        <time>2022-09-11T07:36:10Z</time>
      </trkpt>
      <trkpt lat="43.30037" lon="-1.0349">
        <ele>172.6</ele>
        <time>2022-09-11T07:36:11Z</time>
      </trkpt>
      <trkpt lat="43.30038" lon="-1.03488">
        <ele>172.6</ele>
        <time>2022-09-11T07:36:12Z</time>
      </trkpt>
      <trkpt lat="43.30043" lon="-1.03487">
        <ele>173.4</ele>
        <time>2022-09-11T07:36:16Z</time>
      </trkpt>
      <trkpt lat="43.3005" lon="-1.03485">
        <ele>174.2</ele>
        <time>2022-09-11T07:36:21Z</time>
      </trkpt>
      <trkpt lat="43.30051" lon="-1.03486">
        <ele>174.4</ele>
        <time>2022-09-11T07:36:22Z</time>
      </trkpt>
      <trkpt lat="43.30056" lon="-1.03487">
        <ele>175</ele>
        <time>2022-09-11T07:36:25Z</time>
      </trkpt>
      <trkpt lat="43.30058" lon="-1.03482">
        <ele>175.6</ele>
        <time>2022-09-11T07:36:28Z</time>
      </trkpt>
      <trkpt lat="43.30059" lon="-1.03481">
        <ele>175.6</ele>
        <time>2022-09-11T07:36:29Z</time>
      </trkpt>
      <trkpt lat="43.30065" lon="-1.03483">
        <ele>176.6</ele>
        <time>2022-09-11T07:36:34Z</time>
      </trkpt>
      <trkpt lat="43.30067" lon="-1.03484">
        <ele>176.8</ele>
        <time>2022-09-11T07:36:35Z</time>
      </trkpt>
      <trkpt lat="43.30068" lon="-1.03484">
        <ele>177</ele>
        <time>2022-09-11T07:36:36Z</time>
      </trkpt>
      <trkpt lat="43.30071" lon="-1.03482">
        <ele>177.8</ele>
        <time>2022-09-11T07:36:39Z</time>
      </trkpt>
      <trkpt lat="43.30073" lon="-1.03482">
        <ele>178</ele>
        <time>2022-09-11T07:36:40Z</time>
      </trkpt>
      <trkpt lat="43.30081" lon="-1.03482">
        <ele>178.6</ele>
        <time>2022-09-11T07:36:46Z</time>
      </trkpt>
      <trkpt lat="43.30083" lon="-1.03482">
        <ele>178.8</ele>
        <time>2022-09-11T07:36:47Z</time>
      </trkpt>
      <trkpt lat="43.30084" lon="-1.03482">
        <ele>179</ele>
        <time>2022-09-11T07:36:48Z</time>
      </trkpt>
      <trkpt lat="43.30091" lon="-1.03481">
        <ele>179.8</ele>
        <time>2022-09-11T07:36:53Z</time>
      </trkpt>
      <trkpt lat="43.30102" lon="-1.03484">
        <ele>180.8</ele>
        <time>2022-09-11T07:37:01Z</time>
      </trkpt>
      <trkpt lat="43.30105" lon="-1.03483">
        <ele>180.8</ele>
        <time>2022-09-11T07:37:03Z</time>
      </trkpt>
      <trkpt lat="43.30115" lon="-1.0348">
        <ele>181.6</ele>
        <time>2022-09-11T07:37:09Z</time>
      </trkpt>
      <trkpt lat="43.30118" lon="-1.0348">
        <ele>181.8</ele>
        <time>2022-09-11T07:37:11Z</time>
      </trkpt>
      <trkpt lat="43.30124" lon="-1.03478">
        <ele>182.6</ele>
        <time>2022-09-11T07:37:16Z</time>
      </trkpt>
      <trkpt lat="43.30128" lon="-1.03479">
        <ele>182.8</ele>
        <time>2022-09-11T07:37:18Z</time>
      </trkpt>
      <trkpt lat="43.30134" lon="-1.03481">
        <ele>183.6</ele>
        <time>2022-09-11T07:37:22Z</time>
      </trkpt>
      <trkpt lat="43.30139" lon="-1.03479">
        <ele>184</ele>
        <time>2022-09-11T07:37:25Z</time>
      </trkpt>
      <trkpt lat="43.30147" lon="-1.0348">
        <ele>184.6</ele>
        <time>2022-09-11T07:37:29Z</time>
      </trkpt>
      <trkpt lat="43.30152" lon="-1.0348">
        <ele>185</ele>
        <time>2022-09-11T07:37:32Z</time>
      </trkpt>
      <trkpt lat="43.30159" lon="-1.0348">
        <ele>185.8</ele>
        <time>2022-09-11T07:37:36Z</time>
      </trkpt>
      <trkpt lat="43.30163" lon="-1.03482">
        <ele>186</ele>
        <time>2022-09-11T07:37:38Z</time>
      </trkpt>
      <trkpt lat="43.30169" lon="-1.03485">
        <ele>186.6</ele>
        <time>2022-09-11T07:37:42Z</time>
      </trkpt>
      <trkpt lat="43.30174" lon="-1.03488">
        <ele>187.4</ele>
        <time>2022-09-11T07:37:46Z</time>
      </trkpt>
      <trkpt lat="43.30175" lon="-1.03489">
        <ele>187.6</ele>
        <time>2022-09-11T07:37:47Z</time>
      </trkpt>
      <trkpt lat="43.30182" lon="-1.03492">
        <ele>188.4</ele>
        <time>2022-09-11T07:37:52Z</time>
      </trkpt>
      <trkpt lat="43.30184" lon="-1.03493">
        <ele>188.6</ele>
        <time>2022-09-11T07:37:53Z</time>
      </trkpt>
      <trkpt lat="43.30185" lon="-1.03495">
        <ele>188.8</ele>
        <time>2022-09-11T07:37:54Z</time>
      </trkpt>
      <trkpt lat="43.3019" lon="-1.03501">
        <ele>189.2</ele>
        <time>2022-09-11T07:37:58Z</time>
      </trkpt>
      <trkpt lat="43.30193" lon="-1.03501">
        <ele>189.6</ele>
        <time>2022-09-11T07:38:00Z</time>
      </trkpt>
      <trkpt lat="43.30197" lon="-1.03505">
        <ele>190</ele>
        <time>2022-09-11T07:38:03Z</time>
      </trkpt>
      <trkpt lat="43.30205" lon="-1.03513">
        <ele>190.6</ele>
        <time>2022-09-11T07:38:09Z</time>
      </trkpt>
      <trkpt lat="43.3021" lon="-1.03515">
        <ele>191</ele>
        <time>2022-09-11T07:38:12Z</time>
      </trkpt>
      <trkpt lat="43.30217" lon="-1.03517">
        <ele>191.6</ele>
        <time>2022-09-11T07:38:16Z</time>
      </trkpt>
      <trkpt lat="43.30224" lon="-1.03521">
        <ele>192</ele>
        <time>2022-09-11T07:38:20Z</time>
      </trkpt>
      <trkpt lat="43.30236" lon="-1.03523">
        <ele>192.8</ele>
        <time>2022-09-11T07:38:27Z</time>
      </trkpt>
      <trkpt lat="43.3025" lon="-1.03523">
        <ele>194</ele>
        <time>2022-09-11T07:38:34Z</time>
      </trkpt>
      <trkpt lat="43.30256" lon="-1.03524">
        <ele>194.6</ele>
        <time>2022-09-11T07:38:37Z</time>
      </trkpt>
      <trkpt lat="43.30261" lon="-1.03526">
        <ele>195.2</ele>
        <time>2022-09-11T07:38:40Z</time>
      </trkpt>
      <trkpt lat="43.30267" lon="-1.03527">
        <ele>195.4</ele>
        <time>2022-09-11T07:38:43Z</time>
      </trkpt>
      <trkpt lat="43.30278" lon="-1.0353">
        <ele>196.2</ele>
        <time>2022-09-11T07:38:48Z</time>
      </trkpt>
      <trkpt lat="43.30286" lon="-1.03534">
        <ele>196.6</ele>
        <time>2022-09-11T07:38:52Z</time>
      </trkpt>
      <trkpt lat="43.30294" lon="-1.03537">
        <ele>197.4</ele>
        <time>2022-09-11T07:38:56Z</time>
      </trkpt>
      <trkpt lat="43.30302" lon="-1.03542">
        <ele>197.8</ele>
        <time>2022-09-11T07:39:00Z</time>
      </trkpt>
      <trkpt lat="43.30317" lon="-1.03556">
        <ele>198</ele>
        <time>2022-09-11T07:39:08Z</time>
      </trkpt>
      <trkpt lat="43.30336" lon="-1.03567">
        <ele>198</ele>
        <time>2022-09-11T07:39:17Z</time>
      </trkpt>
      <trkpt lat="43.30345" lon="-1.03568">
        <ele>197.8</ele>
        <time>2022-09-11T07:39:21Z</time>
      </trkpt>
      <trkpt lat="43.30345" lon="-1.03566">
        <ele>198</ele>
        <time>2022-09-11T07:39:22Z</time>
      </trkpt>
      <trkpt lat="43.3035" lon="-1.03573">
        <ele>198</ele>
        <time>2022-09-11T07:39:30Z</time>
      </trkpt>
      <trkpt lat="43.30356" lon="-1.03575">
        <ele>197.8</ele>
        <time>2022-09-11T07:39:32Z</time>
      </trkpt>
      <trkpt lat="43.30377" lon="-1.0358">
        <ele>197</ele>
        <time>2022-09-11T07:39:37Z</time>
      </trkpt>
      <trkpt lat="43.30395" lon="-1.03584">
        <ele>196.2</ele>
        <time>2022-09-11T07:39:40Z</time>
      </trkpt>
      <trkpt lat="43.30401" lon="-1.03587">
        <ele>196</ele>
        <time>2022-09-11T07:39:41Z</time>
      </trkpt>
      <trkpt lat="43.30408" lon="-1.0359">
        <ele>195.8</ele>
        <time>2022-09-11T07:39:42Z</time>
      </trkpt>
      <trkpt lat="43.30419" lon="-1.03595">
        <ele>194.8</ele>
        <time>2022-09-11T07:39:44Z</time>
      </trkpt>
      <trkpt lat="43.30426" lon="-1.03598">
        <ele>193.2</ele>
        <time>2022-09-11T07:39:46Z</time>
      </trkpt>
      <trkpt lat="43.30438" lon="-1.03604">
        <ele>192.2</ele>
        <time>2022-09-11T07:39:49Z</time>
      </trkpt>
      <trkpt lat="43.30445" lon="-1.03606">
        <ele>191.2</ele>
        <time>2022-09-11T07:39:51Z</time>
      </trkpt>
      <trkpt lat="43.30454" lon="-1.03607">
        <ele>190.6</ele>
        <time>2022-09-11T07:39:53Z</time>
      </trkpt>
      <trkpt lat="43.30465" lon="-1.0361">
        <ele>189.8</ele>
        <time>2022-09-11T07:39:55Z</time>
      </trkpt>
      <trkpt lat="43.3048" lon="-1.03611">
        <ele>189.2</ele>
        <time>2022-09-11T07:39:57Z</time>
      </trkpt>
      <trkpt lat="43.30494" lon="-1.03611">
        <ele>188.6</ele>
        <time>2022-09-11T07:39:59Z</time>
      </trkpt>
      <trkpt lat="43.3051" lon="-1.03609">
        <ele>187.6</ele>
        <time>2022-09-11T07:40:01Z</time>
      </trkpt>
      <trkpt lat="43.30518" lon="-1.03607">
        <ele>186.8</ele>
        <time>2022-09-11T07:40:02Z</time>
      </trkpt>
      <trkpt lat="43.30525" lon="-1.03605">
        <ele>186</ele>
        <time>2022-09-11T07:40:03Z</time>
      </trkpt>
      <trkpt lat="43.30541" lon="-1.03597">
        <ele>184.2</ele>
        <time>2022-09-11T07:40:05Z</time>
      </trkpt>
      <trkpt lat="43.30548" lon="-1.03593">
        <ele>183.2</ele>
        <time>2022-09-11T07:40:06Z</time>
      </trkpt>
      <trkpt lat="43.30562" lon="-1.03583">
        <ele>181.4</ele>
        <time>2022-09-11T07:40:08Z</time>
      </trkpt>
      <trkpt lat="43.30574" lon="-1.03574">
        <ele>178.4</ele>
        <time>2022-09-11T07:40:10Z</time>
      </trkpt>
      <trkpt lat="43.30578" lon="-1.03569">
        <ele>177.4</ele>
        <time>2022-09-11T07:40:11Z</time>
      </trkpt>
      <trkpt lat="43.30583" lon="-1.03562">
        <ele>176.4</ele>
        <time>2022-09-11T07:40:12Z</time>
      </trkpt>
      <trkpt lat="43.30589" lon="-1.03554">
        <ele>175</ele>
        <time>2022-09-11T07:40:13Z</time>
      </trkpt>
      <trkpt lat="43.30593" lon="-1.03546">
        <ele>173.8</ele>
        <time>2022-09-11T07:40:14Z</time>
      </trkpt>
      <trkpt lat="43.30597" lon="-1.03538">
        <ele>172.6</ele>
        <time>2022-09-11T07:40:15Z</time>
      </trkpt>
      <trkpt lat="43.306" lon="-1.03533">
        <ele>171.6</ele>
        <time>2022-09-11T07:40:16Z</time>
      </trkpt>
      <trkpt lat="43.30604" lon="-1.03528">
        <ele>171</ele>
        <time>2022-09-11T07:40:17Z</time>
      </trkpt>
      <trkpt lat="43.30609" lon="-1.03524">
        <ele>170.8</ele>
        <time>2022-09-11T07:40:18Z</time>
      </trkpt>
      <trkpt lat="43.30628" lon="-1.03504">
        <ele>170.2</ele>
        <time>2022-09-11T07:40:22Z</time>
      </trkpt>
      <trkpt lat="43.30634" lon="-1.03501">
        <ele>169.8</ele>
        <time>2022-09-11T07:40:23Z</time>
      </trkpt>
      <trkpt lat="43.3064" lon="-1.03499">
        <ele>169.6</ele>
        <time>2022-09-11T07:40:24Z</time>
      </trkpt>
      <trkpt lat="43.30668" lon="-1.03502">
        <ele>168.6</ele>
        <time>2022-09-11T07:40:28Z</time>
      </trkpt>
      <trkpt lat="43.30675" lon="-1.03505">
        <ele>168.2</ele>
        <time>2022-09-11T07:40:29Z</time>
      </trkpt>
      <trkpt lat="43.30715" lon="-1.03517">
        <ele>167.8</ele>
        <time>2022-09-11T07:40:35Z</time>
      </trkpt>
      <trkpt lat="43.30728" lon="-1.03521">
        <ele>167.4</ele>
        <time>2022-09-11T07:40:37Z</time>
      </trkpt>
      <trkpt lat="43.30771" lon="-1.03533">
        <ele>166.8</ele>
        <time>2022-09-11T07:40:44Z</time>
      </trkpt>
      <trkpt lat="43.30789" lon="-1.03538">
        <ele>166.4</ele>
        <time>2022-09-11T07:40:47Z</time>
      </trkpt>
      <trkpt lat="43.30814" lon="-1.03546">
        <ele>166</ele>
        <time>2022-09-11T07:40:51Z</time>
      </trkpt>
      <trkpt lat="43.30835" lon="-1.03552">
        <ele>165.4</ele>
        <time>2022-09-11T07:40:54Z</time>
      </trkpt>
      <trkpt lat="43.30842" lon="-1.03555">
        <ele>165.2</ele>
        <time>2022-09-11T07:40:55Z</time>
      </trkpt>
      <trkpt lat="43.30847" lon="-1.03561">
        <ele>165</ele>
        <time>2022-09-11T07:40:56Z</time>
      </trkpt>
      <trkpt lat="43.30857" lon="-1.03574">
        <ele>164.2</ele>
        <time>2022-09-11T07:40:58Z</time>
      </trkpt>
      <trkpt lat="43.30869" lon="-1.03597">
        <ele>164</ele>
        <time>2022-09-11T07:41:01Z</time>
      </trkpt>
      <trkpt lat="43.30893" lon="-1.03635">
        <ele>163</ele>
        <time>2022-09-11T07:41:07Z</time>
      </trkpt>
      <trkpt lat="43.30915" lon="-1.03662">
        <ele>162</ele>
        <time>2022-09-11T07:41:13Z</time>
      </trkpt>
      <trkpt lat="43.30921" lon="-1.0367">
        <ele>161.4</ele>
        <time>2022-09-11T07:41:15Z</time>
      </trkpt>
      <trkpt lat="43.30924" lon="-1.0368">
        <ele>160.8</ele>
        <time>2022-09-11T07:41:18Z</time>
      </trkpt>
      <trkpt lat="43.30925" lon="-1.03682">
        <ele>160.6</ele>
        <time>2022-09-11T07:41:19Z</time>
      </trkpt>
      <trkpt lat="43.30936" lon="-1.03688">
        <ele>160</ele>
        <time>2022-09-11T07:42:12Z</time>
      </trkpt>
      <trkpt lat="43.30938" lon="-1.0369">
        <ele>160</ele>
        <time>2022-09-11T07:42:13Z</time>
      </trkpt>
      <trkpt lat="43.30939" lon="-1.03692">
        <ele>159.8</ele>
        <time>2022-09-11T07:42:14Z</time>
      </trkpt>
      <trkpt lat="43.30941" lon="-1.03693">
        <ele>159.8</ele>
        <time>2022-09-11T07:42:15Z</time>
      </trkpt>
      <trkpt lat="43.30951" lon="-1.03695">
        <ele>159.6</ele>
        <time>2022-09-11T07:42:19Z</time>
      </trkpt>
      <trkpt lat="43.30967" lon="-1.03701">
        <ele>159.2</ele>
        <time>2022-09-11T07:42:23Z</time>
      </trkpt>
      <trkpt lat="43.30971" lon="-1.03701">
        <ele>159</ele>
        <time>2022-09-11T07:42:24Z</time>
      </trkpt>
      <trkpt lat="43.3099" lon="-1.03706">
        <ele>158.6</ele>
        <time>2022-09-11T07:42:28Z</time>
      </trkpt>
      <trkpt lat="43.31" lon="-1.03709">
        <ele>158.2</ele>
        <time>2022-09-11T07:42:30Z</time>
      </trkpt>
      <trkpt lat="43.31023" lon="-1.03715">
        <ele>157.6</ele>
        <time>2022-09-11T07:42:34Z</time>
      </trkpt>
      <trkpt lat="43.31029" lon="-1.03717">
        <ele>157.2</ele>
        <time>2022-09-11T07:42:35Z</time>
      </trkpt>
      <trkpt lat="43.31042" lon="-1.0372">
        <ele>156.4</ele>
        <time>2022-09-11T07:42:37Z</time>
      </trkpt>
      <trkpt lat="43.31075" lon="-1.03735">
        <ele>155.4</ele>
        <time>2022-09-11T07:42:42Z</time>
      </trkpt>
      <trkpt lat="43.31125" lon="-1.03765">
        <ele>153.8</ele>
        <time>2022-09-11T07:42:49Z</time>
      </trkpt>
      <trkpt lat="43.31139" lon="-1.03774">
        <ele>153</ele>
        <time>2022-09-11T07:42:51Z</time>
      </trkpt>
      <trkpt lat="43.31147" lon="-1.03779">
        <ele>152.6</ele>
        <time>2022-09-11T07:42:52Z</time>
      </trkpt>
      <trkpt lat="43.31176" lon="-1.03795">
        <ele>151.6</ele>
        <time>2022-09-11T07:42:56Z</time>
      </trkpt>
      <trkpt lat="43.3119" lon="-1.038">
        <ele>150.8</ele>
        <time>2022-09-11T07:42:58Z</time>
      </trkpt>
      <trkpt lat="43.31203" lon="-1.03802">
        <ele>150.6</ele>
        <time>2022-09-11T07:43:00Z</time>
      </trkpt>
      <trkpt lat="43.3121" lon="-1.03802">
        <ele>150.4</ele>
        <time>2022-09-11T07:43:01Z</time>
      </trkpt>
      <trkpt lat="43.31216" lon="-1.038">
        <ele>150.2</ele>
        <time>2022-09-11T07:43:02Z</time>
      </trkpt>
      <trkpt lat="43.31234" lon="-1.03792">
        <ele>149.8</ele>
        <time>2022-09-11T07:43:05Z</time>
      </trkpt>
      <trkpt lat="43.31245" lon="-1.03786">
        <ele>149.6</ele>
        <time>2022-09-11T07:43:07Z</time>
      </trkpt>
      <trkpt lat="43.31252" lon="-1.03783">
        <ele>149.4</ele>
        <time>2022-09-11T07:43:08Z</time>
      </trkpt>
      <trkpt lat="43.31278" lon="-1.03767">
        <ele>148.2</ele>
        <time>2022-09-11T07:43:12Z</time>
      </trkpt>
      <trkpt lat="43.31301" lon="-1.0375">
        <ele>146.8</ele>
        <time>2022-09-11T07:43:15Z</time>
      </trkpt>
      <trkpt lat="43.31316" lon="-1.03737">
        <ele>145.8</ele>
        <time>2022-09-11T07:43:17Z</time>
      </trkpt>
      <trkpt lat="43.31341" lon="-1.03716">
        <ele>144.4</ele>
        <time>2022-09-11T07:43:20Z</time>
      </trkpt>
      <trkpt lat="43.31359" lon="-1.03702">
        <ele>143</ele>
        <time>2022-09-11T07:43:22Z</time>
      </trkpt>
      <trkpt lat="43.31368" lon="-1.03696">
        <ele>142.4</ele>
        <time>2022-09-11T07:43:23Z</time>
      </trkpt>
      <trkpt lat="43.31378" lon="-1.03692">
        <ele>142.2</ele>
        <time>2022-09-11T07:43:24Z</time>
      </trkpt>
      <trkpt lat="43.31388" lon="-1.03689">
        <ele>141.4</ele>
        <time>2022-09-11T07:43:25Z</time>
      </trkpt>
      <trkpt lat="43.31399" lon="-1.03689">
        <ele>140.6</ele>
        <time>2022-09-11T07:43:26Z</time>
      </trkpt>
      <trkpt lat="43.3141" lon="-1.03689">
        <ele>139.6</ele>
        <time>2022-09-11T07:43:27Z</time>
      </trkpt>
      <trkpt lat="43.31433" lon="-1.0369">
        <ele>138.6</ele>
        <time>2022-09-11T07:43:29Z</time>
      </trkpt>
      <trkpt lat="43.31457" lon="-1.03691">
        <ele>137.2</ele>
        <time>2022-09-11T07:43:31Z</time>
      </trkpt>
      <trkpt lat="43.3148" lon="-1.03691">
        <ele>135.2</ele>
        <time>2022-09-11T07:43:33Z</time>
      </trkpt>
      <trkpt lat="43.31505" lon="-1.0369">
        <ele>133.6</ele>
        <time>2022-09-11T07:43:35Z</time>
      </trkpt>
      <trkpt lat="43.3153" lon="-1.03687">
        <ele>132.2</ele>
        <time>2022-09-11T07:43:37Z</time>
      </trkpt>
      <trkpt lat="43.31555" lon="-1.03681">
        <ele>130.6</ele>
        <time>2022-09-11T07:43:39Z</time>
      </trkpt>
      <trkpt lat="43.3158" lon="-1.03674">
        <ele>128.4</ele>
        <time>2022-09-11T07:43:41Z</time>
      </trkpt>
      <trkpt lat="43.31593" lon="-1.03671">
        <ele>127.2</ele>
        <time>2022-09-11T07:43:42Z</time>
      </trkpt>
      <trkpt lat="43.31618" lon="-1.03667">
        <ele>125.4</ele>
        <time>2022-09-11T07:43:44Z</time>
      </trkpt>
      <trkpt lat="43.31645" lon="-1.03665">
        <ele>121.8</ele>
        <time>2022-09-11T07:43:46Z</time>
      </trkpt>
      <trkpt lat="43.31657" lon="-1.03665">
        <ele>120.4</ele>
        <time>2022-09-11T07:43:47Z</time>
      </trkpt>
      <trkpt lat="43.31669" lon="-1.03665">
        <ele>119</ele>
        <time>2022-09-11T07:43:48Z</time>
      </trkpt>
      <trkpt lat="43.31681" lon="-1.03666">
        <ele>117.8</ele>
        <time>2022-09-11T07:43:49Z</time>
      </trkpt>
      <trkpt lat="43.31692" lon="-1.03668">
        <ele>117</ele>
        <time>2022-09-11T07:43:50Z</time>
      </trkpt>
      <trkpt lat="43.31702" lon="-1.03674">
        <ele>116.4</ele>
        <time>2022-09-11T07:43:51Z</time>
      </trkpt>
      <trkpt lat="43.31711" lon="-1.03682">
        <ele>115.6</ele>
        <time>2022-09-11T07:43:52Z</time>
      </trkpt>
      <trkpt lat="43.3172" lon="-1.03693">
        <ele>114.6</ele>
        <time>2022-09-11T07:43:53Z</time>
      </trkpt>
      <trkpt lat="43.31736" lon="-1.03716">
        <ele>113.2</ele>
        <time>2022-09-11T07:43:55Z</time>
      </trkpt>
      <trkpt lat="43.3175" lon="-1.03741">
        <ele>111.6</ele>
        <time>2022-09-11T07:43:57Z</time>
      </trkpt>
      <trkpt lat="43.31756" lon="-1.03752">
        <ele>110.2</ele>
        <time>2022-09-11T07:43:58Z</time>
      </trkpt>
      <trkpt lat="43.3176" lon="-1.03763">
        <ele>108.6</ele>
        <time>2022-09-11T07:43:59Z</time>
      </trkpt>
      <trkpt lat="43.31765" lon="-1.03785">
        <ele>107.2</ele>
        <time>2022-09-11T07:44:01Z</time>
      </trkpt>
      <trkpt lat="43.31767" lon="-1.03797">
        <ele>107</ele>
        <time>2022-09-11T07:44:02Z</time>
      </trkpt>
      <trkpt lat="43.31769" lon="-1.03809">
        <ele>106.6</ele>
        <time>2022-09-11T07:44:03Z</time>
      </trkpt>
      <trkpt lat="43.3177" lon="-1.03822">
        <ele>106</ele>
        <time>2022-09-11T07:44:04Z</time>
      </trkpt>
      <trkpt lat="43.31774" lon="-1.03845">
        <ele>104.2</ele>
        <time>2022-09-11T07:44:06Z</time>
      </trkpt>
      <trkpt lat="43.31782" lon="-1.03865">
        <ele>102.8</ele>
        <time>2022-09-11T07:44:08Z</time>
      </trkpt>
      <trkpt lat="43.31788" lon="-1.03872">
        <ele>101.8</ele>
        <time>2022-09-11T07:44:09Z</time>
      </trkpt>
      <trkpt lat="43.31795" lon="-1.03875">
        <ele>99.8</ele>
        <time>2022-09-11T07:44:10Z</time>
      </trkpt>
      <trkpt lat="43.31804" lon="-1.03875">
        <ele>99</ele>
        <time>2022-09-11T07:44:11Z</time>
      </trkpt>
      <trkpt lat="43.31812" lon="-1.03871">
        <ele>98.4</ele>
        <time>2022-09-11T07:44:12Z</time>
      </trkpt>
      <trkpt lat="43.31826" lon="-1.03857">
        <ele>97.4</ele>
        <time>2022-09-11T07:44:14Z</time>
      </trkpt>
      <trkpt lat="43.31834" lon="-1.03834">
        <ele>96.4</ele>
        <time>2022-09-11T07:44:16Z</time>
      </trkpt>
      <trkpt lat="43.31838" lon="-1.03808">
        <ele>95.2</ele>
        <time>2022-09-11T07:44:18Z</time>
      </trkpt>
      <trkpt lat="43.31844" lon="-1.03782">
        <ele>93.6</ele>
        <time>2022-09-11T07:44:20Z</time>
      </trkpt>
      <trkpt lat="43.31852" lon="-1.03757">
        <ele>92.2</ele>
        <time>2022-09-11T07:44:22Z</time>
      </trkpt>
      <trkpt lat="43.31864" lon="-1.03734">
        <ele>90.2</ele>
        <time>2022-09-11T07:44:24Z</time>
      </trkpt>
      <trkpt lat="43.31881" lon="-1.03716">
        <ele>88.2</ele>
        <time>2022-09-11T07:44:26Z</time>
      </trkpt>
      <trkpt lat="43.3189" lon="-1.03709">
        <ele>87.4</ele>
        <time>2022-09-11T07:44:27Z</time>
      </trkpt>
      <trkpt lat="43.319" lon="-1.03702">
        <ele>86.4</ele>
        <time>2022-09-11T07:44:28Z</time>
      </trkpt>
      <trkpt lat="43.31911" lon="-1.03695">
        <ele>85.8</ele>
        <time>2022-09-11T07:44:29Z</time>
      </trkpt>
      <trkpt lat="43.31921" lon="-1.03689">
        <ele>85</ele>
        <time>2022-09-11T07:44:30Z</time>
      </trkpt>
      <trkpt lat="43.31932" lon="-1.03684">
        <ele>84.4</ele>
        <time>2022-09-11T07:44:31Z</time>
      </trkpt>
      <trkpt lat="43.31943" lon="-1.03678">
        <ele>83.6</ele>
        <time>2022-09-11T07:44:32Z</time>
      </trkpt>
      <trkpt lat="43.31953" lon="-1.03673">
        <ele>82.6</ele>
        <time>2022-09-11T07:44:33Z</time>
      </trkpt>
      <trkpt lat="43.31964" lon="-1.03668">
        <ele>81</ele>
        <time>2022-09-11T07:44:34Z</time>
      </trkpt>
      <trkpt lat="43.31985" lon="-1.03658">
        <ele>80</ele>
        <time>2022-09-11T07:44:36Z</time>
      </trkpt>
      <trkpt lat="43.32016" lon="-1.03643">
        <ele>79</ele>
        <time>2022-09-11T07:44:39Z</time>
      </trkpt>
      <trkpt lat="43.32035" lon="-1.03634">
        <ele>77.8</ele>
        <time>2022-09-11T07:44:41Z</time>
      </trkpt>
      <trkpt lat="43.32053" lon="-1.03625">
        <ele>76.6</ele>
        <time>2022-09-11T07:44:43Z</time>
      </trkpt>
      <trkpt lat="43.32078" lon="-1.03613">
        <ele>75.4</ele>
        <time>2022-09-11T07:44:46Z</time>
      </trkpt>
      <trkpt lat="43.32086" lon="-1.03609">
        <ele>74.8</ele>
        <time>2022-09-11T07:44:47Z</time>
      </trkpt>
      <trkpt lat="43.32101" lon="-1.03602">
        <ele>74.2</ele>
        <time>2022-09-11T07:44:49Z</time>
      </trkpt>
      <trkpt lat="43.32124" lon="-1.0359">
        <ele>73</ele>
        <time>2022-09-11T07:44:52Z</time>
      </trkpt>
      <trkpt lat="43.32146" lon="-1.0358">
        <ele>72</ele>
        <time>2022-09-11T07:44:55Z</time>
      </trkpt>
      <trkpt lat="43.32154" lon="-1.03576">
        <ele>71.6</ele>
        <time>2022-09-11T07:44:56Z</time>
      </trkpt>
      <trkpt lat="43.3217" lon="-1.03569">
        <ele>70.6</ele>
        <time>2022-09-11T07:44:58Z</time>
      </trkpt>
      <trkpt lat="43.32193" lon="-1.03557">
        <ele>69.6</ele>
        <time>2022-09-11T07:45:01Z</time>
      </trkpt>
      <trkpt lat="43.32201" lon="-1.03553">
        <ele>69.2</ele>
        <time>2022-09-11T07:45:02Z</time>
      </trkpt>
      <trkpt lat="43.32234" lon="-1.03538">
        <ele>68.4</ele>
        <time>2022-09-11T07:45:06Z</time>
      </trkpt>
      <trkpt lat="43.32274" lon="-1.03518">
        <ele>67.2</ele>
        <time>2022-09-11T07:45:11Z</time>
      </trkpt>
      <trkpt lat="43.3229" lon="-1.0351">
        <ele>66.8</ele>
        <time>2022-09-11T07:45:13Z</time>
      </trkpt>
      <trkpt lat="43.32314" lon="-1.03499">
        <ele>66</ele>
        <time>2022-09-11T07:45:16Z</time>
      </trkpt>
      <trkpt lat="43.32343" lon="-1.03484">
        <ele>65.2</ele>
        <time>2022-09-11T07:45:20Z</time>
      </trkpt>
      <trkpt lat="43.32349" lon="-1.03481">
        <ele>64.6</ele>
        <time>2022-09-11T07:45:21Z</time>
      </trkpt>
      <trkpt lat="43.3236" lon="-1.03475">
        <ele>63.6</ele>
        <time>2022-09-11T07:45:23Z</time>
      </trkpt>
      <trkpt lat="43.32364" lon="-1.03473">
        <ele>63.4</ele>
        <time>2022-09-11T07:45:24Z</time>
      </trkpt>
      <trkpt lat="43.32378" lon="-1.03467">
        <ele>62.4</ele>
        <time>2022-09-11T07:45:28Z</time>
      </trkpt>
      <trkpt lat="43.32381" lon="-1.03465">
        <ele>62.2</ele>
        <time>2022-09-11T07:45:29Z</time>
      </trkpt>
      <trkpt lat="43.32385" lon="-1.03462">
        <ele>61.8</ele>
        <time>2022-09-11T07:45:33Z</time>
      </trkpt>
      <trkpt lat="43.3239" lon="-1.03461">
        <ele>61.8</ele>
        <time>2022-09-11T07:45:41Z</time>
      </trkpt>
      <trkpt lat="43.32392" lon="-1.03461">
        <ele>62</ele>
        <time>2022-09-11T07:45:42Z</time>
      </trkpt>
      <trkpt lat="43.32407" lon="-1.03456">
        <ele>61.6</ele>
        <time>2022-09-11T07:45:47Z</time>
      </trkpt>
      <trkpt lat="43.3242" lon="-1.03451">
        <ele>61.2</ele>
        <time>2022-09-11T07:45:51Z</time>
      </trkpt>
      <trkpt lat="43.32429" lon="-1.03447">
        <ele>61</ele>
        <time>2022-09-11T07:45:54Z</time>
      </trkpt>
      <trkpt lat="43.32449" lon="-1.03436">
        <ele>60.8</ele>
        <time>2022-09-11T07:46:01Z</time>
      </trkpt>
      <trkpt lat="43.32469" lon="-1.03428">
        <ele>60.4</ele>
        <time>2022-09-11T07:46:08Z</time>
      </trkpt>
      <trkpt lat="43.32479" lon="-1.03423">
        <ele>60.2</ele>
        <time>2022-09-11T07:46:11Z</time>
      </trkpt>
      <trkpt lat="43.32491" lon="-1.03416">
        <ele>60</ele>
        <time>2022-09-11T07:46:15Z</time>
      </trkpt>
      <trkpt lat="43.32509" lon="-1.03408">
        <ele>59.8</ele>
        <time>2022-09-11T07:46:21Z</time>
      </trkpt>
      <trkpt lat="43.32527" lon="-1.03404">
        <ele>59.4</ele>
        <time>2022-09-11T07:46:27Z</time>
      </trkpt>
      <trkpt lat="43.32554" lon="-1.03396">
        <ele>59.4</ele>
        <time>2022-09-11T07:46:35Z</time>
      </trkpt>
      <trkpt lat="43.32561" lon="-1.03393">
        <ele>59.2</ele>
        <time>2022-09-11T07:46:37Z</time>
      </trkpt>
      <trkpt lat="43.32573" lon="-1.0339">
        <ele>59</ele>
        <time>2022-09-11T07:46:41Z</time>
      </trkpt>
      <trkpt lat="43.32587" lon="-1.03381">
        <ele>58.8</ele>
        <time>2022-09-11T07:46:47Z</time>
      </trkpt>
      <trkpt lat="43.32604" lon="-1.0337">
        <ele>58.4</ele>
        <time>2022-09-11T07:46:52Z</time>
      </trkpt>
      <trkpt lat="43.32613" lon="-1.03365">
        <ele>58.2</ele>
        <time>2022-09-11T07:46:55Z</time>
      </trkpt>
      <trkpt lat="43.32625" lon="-1.03358">
        <ele>58</ele>
        <time>2022-09-11T07:46:59Z</time>
      </trkpt>
      <trkpt lat="43.32642" lon="-1.03344">
        <ele>57.8</ele>
        <time>2022-09-11T07:47:06Z</time>
      </trkpt>
      <trkpt lat="43.32661" lon="-1.03322">
        <ele>57.2</ele>
        <time>2022-09-11T07:47:14Z</time>
      </trkpt>
      <trkpt lat="43.32666" lon="-1.03317">
        <ele>57</ele>
        <time>2022-09-11T07:47:16Z</time>
      </trkpt>
      <trkpt lat="43.32684" lon="-1.03293">
        <ele>56.8</ele>
        <time>2022-09-11T07:47:24Z</time>
      </trkpt>
      <trkpt lat="43.32698" lon="-1.03275">
        <ele>56.2</ele>
        <time>2022-09-11T07:47:32Z</time>
      </trkpt>
      <trkpt lat="43.32706" lon="-1.03261">
        <ele>56.2</ele>
        <time>2022-09-11T07:47:38Z</time>
      </trkpt>
      <trkpt lat="43.32707" lon="-1.03259">
        <ele>56</ele>
        <time>2022-09-11T07:47:39Z</time>
      </trkpt>
      <trkpt lat="43.3271" lon="-1.03252">
        <ele>56</ele>
        <time>2022-09-11T07:47:42Z</time>
      </trkpt>
      <trkpt lat="43.32714" lon="-1.03249">
        <ele>56</ele>
        <time>2022-09-11T07:47:45Z</time>
      </trkpt>
      <trkpt lat="43.32718" lon="-1.03246">
        <ele>56</ele>
        <time>2022-09-11T07:47:49Z</time>
      </trkpt>
      <trkpt lat="43.32722" lon="-1.03247">
        <ele>56</ele>
        <time>2022-09-11T07:47:51Z</time>
      </trkpt>
      <trkpt lat="43.32727" lon="-1.03253">
        <ele>56</ele>
        <time>2022-09-11T07:47:54Z</time>
      </trkpt>
      <trkpt lat="43.3273" lon="-1.03259">
        <ele>56</ele>
        <time>2022-09-11T07:47:56Z</time>
      </trkpt>
      <trkpt lat="43.32744" lon="-1.03283">
        <ele>56</ele>
        <time>2022-09-11T07:48:04Z</time>
      </trkpt>
      <trkpt lat="43.32761" lon="-1.03311">
        <ele>56.4</ele>
        <time>2022-09-11T07:48:14Z</time>
      </trkpt>
      <trkpt lat="43.32779" lon="-1.03338">
        <ele>57</ele>
        <time>2022-09-11T07:48:24Z</time>
      </trkpt>
      <trkpt lat="43.32795" lon="-1.03359">
        <ele>57.6</ele>
        <time>2022-09-11T07:48:32Z</time>
      </trkpt>
      <trkpt lat="43.32804" lon="-1.03371">
        <ele>58.2</ele>
        <time>2022-09-11T07:48:37Z</time>
      </trkpt>
      <trkpt lat="43.32808" lon="-1.03375">
        <ele>58.4</ele>
        <time>2022-09-11T07:48:40Z</time>
      </trkpt>
      <trkpt lat="43.32817" lon="-1.03384">
        <ele>58.8</ele>
        <time>2022-09-11T07:48:47Z</time>
      </trkpt>
      <trkpt lat="43.32823" lon="-1.03392">
        <ele>59</ele>
        <time>2022-09-11T07:48:54Z</time>
      </trkpt>
      <trkpt lat="43.32825" lon="-1.03394">
        <ele>59</ele>
        <time>2022-09-11T07:48:56Z</time>
      </trkpt>
      <trkpt lat="43.32827" lon="-1.034">
        <ele>59.2</ele>
        <time>2022-09-11T07:48:59Z</time>
      </trkpt>
      <trkpt lat="43.32823" lon="-1.03398">
        <ele>59.4</ele>
        <time>2022-09-11T07:49:18Z</time>
      </trkpt>
      <trkpt lat="43.32821" lon="-1.03397">
        <ele>59.4</ele>
        <time>2022-09-11T07:49:19Z</time>
      </trkpt>
      <trkpt lat="43.32812" lon="-1.03395">
        <ele>59.2</ele>
        <time>2022-09-11T07:49:24Z</time>
      </trkpt>
      <trkpt lat="43.3281" lon="-1.03396">
        <ele>59.2</ele>
        <time>2022-09-11T07:49:25Z</time>
      </trkpt>
      <trkpt lat="43.32801" lon="-1.03406">
        <ele>59.8</ele>
        <time>2022-09-11T07:49:31Z</time>
      </trkpt>
      <trkpt lat="43.32792" lon="-1.03421">
        <ele>59.8</ele>
        <time>2022-09-11T07:49:38Z</time>
      </trkpt>
      <trkpt lat="43.32784" lon="-1.03427">
        <ele>59.8</ele>
        <time>2022-09-11T07:49:44Z</time>
      </trkpt>
      <trkpt lat="43.32779" lon="-1.03431">
        <ele>59.8</ele>
        <time>2022-09-11T07:49:50Z</time>
      </trkpt>
      <trkpt lat="43.32785" lon="-1.03432">
        <ele>60.4</ele>
        <time>2022-09-11T07:54:38Z</time>
      </trkpt>
      <trkpt lat="43.32791" lon="-1.03444">
        <ele>60.6</ele>
        <time>2022-09-11T07:54:42Z</time>
      </trkpt>
      <trkpt lat="43.32799" lon="-1.03457">
        <ele>61</ele>
        <time>2022-09-11T07:54:48Z</time>
      </trkpt>
      <trkpt lat="43.32808" lon="-1.03474">
        <ele>61.4</ele>
        <time>2022-09-11T07:54:55Z</time>
      </trkpt>
      <trkpt lat="43.3281" lon="-1.03478">
        <ele>61.4</ele>
        <time>2022-09-11T07:54:57Z</time>
      </trkpt>
      <trkpt lat="43.32815" lon="-1.03492">
        <ele>61.6</ele>
        <time>2022-09-11T07:55:02Z</time>
      </trkpt>
      <trkpt lat="43.32821" lon="-1.03503">
        <ele>62</ele>
        <time>2022-09-11T07:55:08Z</time>
      </trkpt>
      <trkpt lat="43.32828" lon="-1.03519">
        <ele>62</ele>
        <time>2022-09-11T07:55:16Z</time>
      </trkpt>
      <trkpt lat="43.32836" lon="-1.03534">
        <ele>62</ele>
        <time>2022-09-11T07:55:25Z</time>
      </trkpt>
      <trkpt lat="43.32849" lon="-1.03533">
        <ele>62.2</ele>
        <time>2022-09-11T07:57:50Z</time>
      </trkpt>
      <trkpt lat="43.32857" lon="-1.03521">
        <ele>62.2</ele>
        <time>2022-09-11T07:57:55Z</time>
      </trkpt>
      <trkpt lat="43.32864" lon="-1.0351">
        <ele>62.4</ele>
        <time>2022-09-11T07:58:00Z</time>
      </trkpt>
      <trkpt lat="43.32873" lon="-1.03498">
        <ele>62.6</ele>
        <time>2022-09-11T07:58:06Z</time>
      </trkpt>
      <trkpt lat="43.3288" lon="-1.03488">
        <ele>62.8</ele>
        <time>2022-09-11T07:58:12Z</time>
      </trkpt>
      <trkpt lat="43.32889" lon="-1.03483">
        <ele>62.8</ele>
        <time>2022-09-11T07:58:36Z</time>
      </trkpt>
      <trkpt lat="43.32892" lon="-1.03483">
        <ele>62.8</ele>
        <time>2022-09-11T07:58:37Z</time>
      </trkpt>
      <trkpt lat="43.32903" lon="-1.03491">
        <ele>62.8</ele>
        <time>2022-09-11T07:58:41Z</time>
      </trkpt>
      <trkpt lat="43.3291" lon="-1.03497">
        <ele>62.8</ele>
        <time>2022-09-11T07:58:43Z</time>
      </trkpt>
      <trkpt lat="43.32943" lon="-1.0352">
        <ele>62.4</ele>
        <time>2022-09-11T07:58:52Z</time>
      </trkpt>
      <trkpt lat="43.32969" lon="-1.03538">
        <ele>61.2</ele>
        <time>2022-09-11T07:58:57Z</time>
      </trkpt>
      <trkpt lat="43.32974" lon="-1.03542">
        <ele>61</ele>
        <time>2022-09-11T07:58:58Z</time>
      </trkpt>
      <trkpt lat="43.32992" lon="-1.03554">
        <ele>60.2</ele>
        <time>2022-09-11T07:59:01Z</time>
      </trkpt>
      <trkpt lat="43.33004" lon="-1.03564">
        <ele>59.6</ele>
        <time>2022-09-11T07:59:03Z</time>
      </trkpt>
      <trkpt lat="43.3301" lon="-1.03571">
        <ele>59.4</ele>
        <time>2022-09-11T07:59:04Z</time>
      </trkpt>
      <trkpt lat="43.33015" lon="-1.0358">
        <ele>59</ele>
        <time>2022-09-11T07:59:05Z</time>
      </trkpt>
      <trkpt lat="43.33021" lon="-1.03599">
        <ele>58.6</ele>
        <time>2022-09-11T07:59:07Z</time>
      </trkpt>
      <trkpt lat="43.33023" lon="-1.03619">
        <ele>58.2</ele>
        <time>2022-09-11T07:59:09Z</time>
      </trkpt>
      <trkpt lat="43.33024" lon="-1.03628">
        <ele>58</ele>
        <time>2022-09-11T07:59:10Z</time>
      </trkpt>
      <trkpt lat="43.33025" lon="-1.03637">
        <ele>57.8</ele>
        <time>2022-09-11T07:59:11Z</time>
      </trkpt>
      <trkpt lat="43.33035" lon="-1.03694">
        <ele>57</ele>
        <time>2022-09-11T07:59:18Z</time>
      </trkpt>
      <trkpt lat="43.33037" lon="-1.03702">
        <ele>57</ele>
        <time>2022-09-11T07:59:19Z</time>
      </trkpt>
      <trkpt lat="43.3305" lon="-1.03755">
        <ele>56.2</ele>
        <time>2022-09-11T07:59:26Z</time>
      </trkpt>
      <trkpt lat="43.33056" lon="-1.03783">
        <ele>56</ele>
        <time>2022-09-11T07:59:30Z</time>
      </trkpt>
      <trkpt lat="43.3306" lon="-1.03802">
        <ele>56</ele>
        <time>2022-09-11T07:59:33Z</time>
      </trkpt>
      <trkpt lat="43.33061" lon="-1.03807">
        <ele>56</ele>
        <time>2022-09-11T07:59:34Z</time>
      </trkpt>
      <trkpt lat="43.33064" lon="-1.03827">
        <ele>56.2</ele>
        <time>2022-09-11T07:59:38Z</time>
      </trkpt>
      <trkpt lat="43.33056" lon="-1.03837">
        <ele>55.8</ele>
        <time>2022-09-11T07:59:41Z</time>
      </trkpt>
      <trkpt lat="43.33043" lon="-1.03844">
        <ele>55.4</ele>
        <time>2022-09-11T07:59:44Z</time>
      </trkpt>
      <trkpt lat="43.33033" lon="-1.0385">
        <ele>55.2</ele>
        <time>2022-09-11T07:59:46Z</time>
      </trkpt>
      <trkpt lat="43.33015" lon="-1.03863">
        <ele>54.8</ele>
        <time>2022-09-11T07:59:50Z</time>
      </trkpt>
      <trkpt lat="43.33002" lon="-1.03875">
        <ele>54.8</ele>
        <time>2022-09-11T07:59:53Z</time>
      </trkpt>
      <trkpt lat="43.32971" lon="-1.0392">
        <ele>55.2</ele>
        <time>2022-09-11T08:00:02Z</time>
      </trkpt>
      <trkpt lat="43.32959" lon="-1.03934">
        <ele>56</ele>
        <time>2022-09-11T08:00:06Z</time>
      </trkpt>
      <trkpt lat="43.32953" lon="-1.0394">
        <ele>56.2</ele>
        <time>2022-09-11T08:00:08Z</time>
      </trkpt>
      <trkpt lat="43.3293" lon="-1.03952">
        <ele>56.8</ele>
        <time>2022-09-11T08:00:15Z</time>
      </trkpt>
      <trkpt lat="43.3292" lon="-1.03956">
        <ele>57</ele>
        <time>2022-09-11T08:00:18Z</time>
      </trkpt>
      <trkpt lat="43.32903" lon="-1.03965">
        <ele>57.4</ele>
        <time>2022-09-11T08:00:23Z</time>
      </trkpt>
      <trkpt lat="43.32872" lon="-1.03984">
        <ele>57.8</ele>
        <time>2022-09-11T08:00:32Z</time>
      </trkpt>
      <trkpt lat="43.32856" lon="-1.03996">
        <ele>58.2</ele>
        <time>2022-09-11T08:00:37Z</time>
      </trkpt>
      <trkpt lat="43.32843" lon="-1.04006">
        <ele>58.4</ele>
        <time>2022-09-11T08:00:41Z</time>
      </trkpt>
      <trkpt lat="43.3282" lon="-1.0403">
        <ele>59</ele>
        <time>2022-09-11T08:00:49Z</time>
      </trkpt>
      <trkpt lat="43.32812" lon="-1.04041">
        <ele>59.2</ele>
        <time>2022-09-11T08:00:52Z</time>
      </trkpt>
      <trkpt lat="43.32795" lon="-1.04063">
        <ele>59.8</ele>
        <time>2022-09-11T08:00:59Z</time>
      </trkpt>
      <trkpt lat="43.3279" lon="-1.04074">
        <ele>60.2</ele>
        <time>2022-09-11T08:01:02Z</time>
      </trkpt>
      <trkpt lat="43.3279" lon="-1.04079">
        <ele>60.2</ele>
        <time>2022-09-11T08:01:03Z</time>
      </trkpt>
      <trkpt lat="43.32788" lon="-1.04087">
        <ele>60.4</ele>
        <time>2022-09-11T08:01:05Z</time>
      </trkpt>
      <trkpt lat="43.32783" lon="-1.041">
        <ele>60.6</ele>
        <time>2022-09-11T08:01:08Z</time>
      </trkpt>
      <trkpt lat="43.32767" lon="-1.04137">
        <ele>61</ele>
        <time>2022-09-11T08:01:17Z</time>
      </trkpt>
      <trkpt lat="43.32762" lon="-1.04149">
        <ele>61.4</ele>
        <time>2022-09-11T08:01:20Z</time>
      </trkpt>
      <trkpt lat="43.32756" lon="-1.04166">
        <ele>61.8</ele>
        <time>2022-09-11T08:01:24Z</time>
      </trkpt>
      <trkpt lat="43.3274" lon="-1.04198">
        <ele>62</ele>
        <time>2022-09-11T08:01:32Z</time>
      </trkpt>
      <trkpt lat="43.32723" lon="-1.04233">
        <ele>62</ele>
        <time>2022-09-11T08:01:40Z</time>
      </trkpt>
      <trkpt lat="43.32712" lon="-1.04261">
        <ele>62.4</ele>
        <time>2022-09-11T08:01:46Z</time>
      </trkpt>
      <trkpt lat="43.32709" lon="-1.04271">
        <ele>62.6</ele>
        <time>2022-09-11T08:01:48Z</time>
      </trkpt>
      <trkpt lat="43.32694" lon="-1.04311">
        <ele>62.8</ele>
        <time>2022-09-11T08:01:56Z</time>
      </trkpt>
      <trkpt lat="43.32685" lon="-1.0433">
        <ele>63.6</ele>
        <time>2022-09-11T08:02:01Z</time>
      </trkpt>
      <trkpt lat="43.32683" lon="-1.04333">
        <ele>63.8</ele>
        <time>2022-09-11T08:02:02Z</time>
      </trkpt>
      <trkpt lat="43.32673" lon="-1.04357">
        <ele>64.6</ele>
        <time>2022-09-11T08:02:09Z</time>
      </trkpt>
      <trkpt lat="43.32672" lon="-1.0436">
        <ele>64.8</ele>
        <time>2022-09-11T08:02:10Z</time>
      </trkpt>
      <trkpt lat="43.32671" lon="-1.04381">
        <ele>65</ele>
        <time>2022-09-11T08:02:15Z</time>
      </trkpt>
      <trkpt lat="43.32677" lon="-1.04406">
        <ele>64.4</ele>
        <time>2022-09-11T08:02:20Z</time>
      </trkpt>
      <trkpt lat="43.3268" lon="-1.04418">
        <ele>64.2</ele>
        <time>2022-09-11T08:02:22Z</time>
      </trkpt>
      <trkpt lat="43.32679" lon="-1.04436">
        <ele>64.2</ele>
        <time>2022-09-11T08:02:25Z</time>
      </trkpt>
      <trkpt lat="43.32678" lon="-1.04448">
        <ele>64.2</ele>
        <time>2022-09-11T08:02:27Z</time>
      </trkpt>
      <trkpt lat="43.32673" lon="-1.04482">
        <ele>65</ele>
        <time>2022-09-11T08:02:33Z</time>
      </trkpt>
      <trkpt lat="43.32671" lon="-1.04503">
        <ele>65.8</ele>
        <time>2022-09-11T08:02:37Z</time>
      </trkpt>
      <trkpt lat="43.3267" lon="-1.04515">
        <ele>65.8</ele>
        <time>2022-09-11T08:02:39Z</time>
      </trkpt>
      <trkpt lat="43.32669" lon="-1.04547">
        <ele>66</ele>
        <time>2022-09-11T08:02:45Z</time>
      </trkpt>
      <trkpt lat="43.32668" lon="-1.04559">
        <ele>66.2</ele>
        <time>2022-09-11T08:02:47Z</time>
      </trkpt>
      <trkpt lat="43.32661" lon="-1.04621">
        <ele>66.6</ele>
        <time>2022-09-11T08:02:58Z</time>
      </trkpt>
      <trkpt lat="43.32659" lon="-1.04632">
        <ele>66.8</ele>
        <time>2022-09-11T08:03:00Z</time>
      </trkpt>
      <trkpt lat="43.32655" lon="-1.04656">
        <ele>67.4</ele>
        <time>2022-09-11T08:03:05Z</time>
      </trkpt>
      <trkpt lat="43.32654" lon="-1.04673">
        <ele>68</ele>
        <time>2022-09-11T08:03:09Z</time>
      </trkpt>
      <trkpt lat="43.32652" lon="-1.04689">
        <ele>68.6</ele>
        <time>2022-09-11T08:03:13Z</time>
      </trkpt>
      <trkpt lat="43.32649" lon="-1.0471">
        <ele>68.8</ele>
        <time>2022-09-11T08:03:18Z</time>
      </trkpt>
      <trkpt lat="43.32646" lon="-1.04727">
        <ele>69.2</ele>
        <time>2022-09-11T08:03:22Z</time>
      </trkpt>
      <trkpt lat="43.32643" lon="-1.04742">
        <ele>69.4</ele>
        <time>2022-09-11T08:03:25Z</time>
      </trkpt>
      <trkpt lat="43.32636" lon="-1.04779">
        <ele>70</ele>
        <time>2022-09-11T08:03:33Z</time>
      </trkpt>
      <trkpt lat="43.32631" lon="-1.04806">
        <ele>70.2</ele>
        <time>2022-09-11T08:03:39Z</time>
      </trkpt>
      <trkpt lat="43.32628" lon="-1.0482">
        <ele>70.2</ele>
        <time>2022-09-11T08:03:42Z</time>
      </trkpt>
      <trkpt lat="43.32623" lon="-1.04863">
        <ele>70.6</ele>
        <time>2022-09-11T08:03:51Z</time>
      </trkpt>
      <trkpt lat="43.32618" lon="-1.04901">
        <ele>71</ele>
        <time>2022-09-11T08:03:59Z</time>
      </trkpt>
      <trkpt lat="43.32615" lon="-1.04913">
        <ele>71.2</ele>
        <time>2022-09-11T08:04:02Z</time>
      </trkpt>
      <trkpt lat="43.32608" lon="-1.04929">
        <ele>72</ele>
        <time>2022-09-11T08:04:06Z</time>
      </trkpt>
      <trkpt lat="43.32602" lon="-1.0494">
        <ele>72.2</ele>
        <time>2022-09-11T08:04:09Z</time>
      </trkpt>
      <trkpt lat="43.32595" lon="-1.04958">
        <ele>72.8</ele>
        <time>2022-09-11T08:04:13Z</time>
      </trkpt>
      <trkpt lat="43.32584" lon="-1.04989">
        <ele>72.6</ele>
        <time>2022-09-11T08:04:20Z</time>
      </trkpt>
      <trkpt lat="43.32575" lon="-1.05019">
        <ele>72.4</ele>
        <time>2022-09-11T08:04:26Z</time>
      </trkpt>
      <trkpt lat="43.32568" lon="-1.0504">
        <ele>72.2</ele>
        <time>2022-09-11T08:04:31Z</time>
      </trkpt>
      <trkpt lat="43.3257" lon="-1.05064">
        <ele>71.6</ele>
        <time>2022-09-11T08:04:35Z</time>
      </trkpt>
      <trkpt lat="43.32573" lon="-1.05071">
        <ele>70.8</ele>
        <time>2022-09-11T08:04:36Z</time>
      </trkpt>
      <trkpt lat="43.32583" lon="-1.05095">
        <ele>69.8</ele>
        <time>2022-09-11T08:04:39Z</time>
      </trkpt>
      <trkpt lat="43.32587" lon="-1.05103">
        <ele>69.6</ele>
        <time>2022-09-11T08:04:40Z</time>
      </trkpt>
      <trkpt lat="43.32602" lon="-1.05143">
        <ele>68.6</ele>
        <time>2022-09-11T08:04:45Z</time>
      </trkpt>
      <trkpt lat="43.32605" lon="-1.05151">
        <ele>68.4</ele>
        <time>2022-09-11T08:04:46Z</time>
      </trkpt>
      <trkpt lat="43.32617" lon="-1.05195">
        <ele>67.8</ele>
        <time>2022-09-11T08:04:52Z</time>
      </trkpt>
      <trkpt lat="43.32631" lon="-1.05239">
        <ele>68</ele>
        <time>2022-09-11T08:04:59Z</time>
      </trkpt>
      <trkpt lat="43.3264" lon="-1.05271">
        <ele>68.4</ele>
        <time>2022-09-11T08:05:04Z</time>
      </trkpt>
      <trkpt lat="43.32642" lon="-1.05276">
        <ele>68.6</ele>
        <time>2022-09-11T08:05:05Z</time>
      </trkpt>
      <trkpt lat="43.32656" lon="-1.05321">
        <ele>68.6</ele>
        <time>2022-09-11T08:05:13Z</time>
      </trkpt>
      <trkpt lat="43.32664" lon="-1.05347">
        <ele>69</ele>
        <time>2022-09-11T08:05:19Z</time>
      </trkpt>
      <trkpt lat="43.32671" lon="-1.05371">
        <ele>69</ele>
        <time>2022-09-11T08:05:26Z</time>
      </trkpt>
      <trkpt lat="43.32672" lon="-1.05402">
        <ele>68.4</ele>
        <time>2022-09-11T08:05:32Z</time>
      </trkpt>
      <trkpt lat="43.32672" lon="-1.05428">
        <ele>68.8</ele>
        <time>2022-09-11T08:05:37Z</time>
      </trkpt>
      <trkpt lat="43.32677" lon="-1.05444">
        <ele>69.6</ele>
        <time>2022-09-11T08:05:42Z</time>
      </trkpt>
      <trkpt lat="43.32679" lon="-1.05447">
        <ele>69.6</ele>
        <time>2022-09-11T08:05:43Z</time>
      </trkpt>
      <trkpt lat="43.32686" lon="-1.0546">
        <ele>70.6</ele>
        <time>2022-09-11T08:05:50Z</time>
      </trkpt>
      <trkpt lat="43.32689" lon="-1.05465">
        <ele>70.8</ele>
        <time>2022-09-11T08:05:52Z</time>
      </trkpt>
      <trkpt lat="43.32698" lon="-1.05481">
        <ele>71.6</ele>
        <time>2022-09-11T08:05:59Z</time>
      </trkpt>
      <trkpt lat="43.32699" lon="-1.05483">
        <ele>71.8</ele>
        <time>2022-09-11T08:06:00Z</time>
      </trkpt>
      <trkpt lat="43.3271" lon="-1.05507">
        <ele>72.8</ele>
        <time>2022-09-11T08:06:10Z</time>
      </trkpt>
      <trkpt lat="43.32719" lon="-1.0552">
        <ele>73.6</ele>
        <time>2022-09-11T08:06:17Z</time>
      </trkpt>
      <trkpt lat="43.32722" lon="-1.05524">
        <ele>73.8</ele>
        <time>2022-09-11T08:06:19Z</time>
      </trkpt>
      <trkpt lat="43.32731" lon="-1.05532">
        <ele>74</ele>
        <time>2022-09-11T08:06:24Z</time>
      </trkpt>
      <trkpt lat="43.32743" lon="-1.05544">
        <ele>74.8</ele>
        <time>2022-09-11T08:06:30Z</time>
      </trkpt>
      <trkpt lat="43.32745" lon="-1.05546">
        <ele>75</ele>
        <time>2022-09-11T08:06:31Z</time>
      </trkpt>
      <trkpt lat="43.3276" lon="-1.05558">
        <ele>75.6</ele>
        <time>2022-09-11T08:06:39Z</time>
      </trkpt>
      <trkpt lat="43.32765" lon="-1.05561">
        <ele>75.8</ele>
        <time>2022-09-11T08:06:41Z</time>
      </trkpt>
      <trkpt lat="43.32784" lon="-1.05569">
        <ele>76</ele>
        <time>2022-09-11T08:06:48Z</time>
      </trkpt>
      <trkpt lat="43.32804" lon="-1.05579">
        <ele>76</ele>
        <time>2022-09-11T08:06:56Z</time>
      </trkpt>
      <trkpt lat="43.32823" lon="-1.05585">
        <ele>76.2</ele>
        <time>2022-09-11T08:07:03Z</time>
      </trkpt>
      <trkpt lat="43.32844" lon="-1.05591">
        <ele>76.4</ele>
        <time>2022-09-11T08:07:11Z</time>
      </trkpt>
      <trkpt lat="43.32861" lon="-1.05597">
        <ele>76.6</ele>
        <time>2022-09-11T08:07:18Z</time>
      </trkpt>
      <trkpt lat="43.32863" lon="-1.05599">
        <ele>76.8</ele>
        <time>2022-09-11T08:07:19Z</time>
      </trkpt>
      <trkpt lat="43.32869" lon="-1.05606">
        <ele>77.4</ele>
        <time>2022-09-11T08:07:23Z</time>
      </trkpt>
      <trkpt lat="43.32872" lon="-1.05608">
        <ele>78</ele>
        <time>2022-09-11T08:07:25Z</time>
      </trkpt>
      <trkpt lat="43.32878" lon="-1.05612">
        <ele>78.6</ele>
        <time>2022-09-11T08:07:29Z</time>
      </trkpt>
      <trkpt lat="43.32882" lon="-1.05613">
        <ele>79.2</ele>
        <time>2022-09-11T08:07:32Z</time>
      </trkpt>
      <trkpt lat="43.32888" lon="-1.05614">
        <ele>79.6</ele>
        <time>2022-09-11T08:07:35Z</time>
      </trkpt>
      <trkpt lat="43.32897" lon="-1.05616">
        <ele>80.2</ele>
        <time>2022-09-11T08:07:40Z</time>
      </trkpt>
      <trkpt lat="43.32901" lon="-1.05617">
        <ele>80.4</ele>
        <time>2022-09-11T08:07:42Z</time>
      </trkpt>
      <trkpt lat="43.32912" lon="-1.05618">
        <ele>81.2</ele>
        <time>2022-09-11T08:07:48Z</time>
      </trkpt>
      <trkpt lat="43.32914" lon="-1.05618">
        <ele>81.4</ele>
        <time>2022-09-11T08:07:49Z</time>
      </trkpt>
      <trkpt lat="43.32925" lon="-1.0562">
        <ele>81.4</ele>
        <time>2022-09-11T08:07:54Z</time>
      </trkpt>
      <trkpt lat="43.3294" lon="-1.05624">
        <ele>81.6</ele>
        <time>2022-09-11T08:08:00Z</time>
      </trkpt>
      <trkpt lat="43.32952" lon="-1.05626">
        <ele>82.2</ele>
        <time>2022-09-11T08:08:07Z</time>
      </trkpt>
      <trkpt lat="43.3296" lon="-1.05629">
        <ele>82.4</ele>
        <time>2022-09-11T08:08:12Z</time>
      </trkpt>
      <trkpt lat="43.32965" lon="-1.0563">
        <ele>82.4</ele>
        <time>2022-09-11T08:08:15Z</time>
      </trkpt>
      <trkpt lat="43.32992" lon="-1.05637">
        <ele>82.6</ele>
        <time>2022-09-11T08:10:30Z</time>
      </trkpt>
      <trkpt lat="43.32996" lon="-1.05637">
        <ele>82.6</ele>
        <time>2022-09-11T08:10:32Z</time>
      </trkpt>
      <trkpt lat="43.33011" lon="-1.05636">
        <ele>82.8</ele>
        <time>2022-09-11T08:10:38Z</time>
      </trkpt>
      <trkpt lat="43.33028" lon="-1.05631">
        <ele>83</ele>
        <time>2022-09-11T08:10:45Z</time>
      </trkpt>
      <trkpt lat="43.33038" lon="-1.05627">
        <ele>82.8</ele>
        <time>2022-09-11T08:10:50Z</time>
      </trkpt>
      <trkpt lat="43.33049" lon="-1.05624">
        <ele>83.2</ele>
        <time>2022-09-11T08:10:56Z</time>
      </trkpt>
      <trkpt lat="43.3305" lon="-1.05623">
        <ele>83.2</ele>
        <time>2022-09-11T08:10:57Z</time>
      </trkpt>
      <trkpt lat="43.33061" lon="-1.05625">
        <ele>83.4</ele>
        <time>2022-09-11T08:11:15Z</time>
      </trkpt>
      <trkpt lat="43.3307" lon="-1.05626">
        <ele>83.8</ele>
        <time>2022-09-11T08:11:20Z</time>
      </trkpt>
      <trkpt lat="43.33073" lon="-1.05628">
        <ele>84</ele>
        <time>2022-09-11T08:11:22Z</time>
      </trkpt>
      <trkpt lat="43.33079" lon="-1.0563">
        <ele>84.6</ele>
        <time>2022-09-11T08:11:26Z</time>
      </trkpt>
      <trkpt lat="43.33083" lon="-1.05631">
        <ele>85.2</ele>
        <time>2022-09-11T08:11:28Z</time>
      </trkpt>
      <trkpt lat="43.33094" lon="-1.05634">
        <ele>85.6</ele>
        <time>2022-09-11T08:11:33Z</time>
      </trkpt>
      <trkpt lat="43.33106" lon="-1.05638">
        <ele>86.4</ele>
        <time>2022-09-11T08:11:39Z</time>
      </trkpt>
      <trkpt lat="43.33114" lon="-1.05641">
        <ele>86.6</ele>
        <time>2022-09-11T08:11:43Z</time>
      </trkpt>
      <trkpt lat="43.33121" lon="-1.05644">
        <ele>87</ele>
        <time>2022-09-11T08:11:46Z</time>
      </trkpt>
      <trkpt lat="43.33131" lon="-1.05646">
        <ele>87.8</ele>
        <time>2022-09-11T08:11:50Z</time>
      </trkpt>
      <trkpt lat="43.33133" lon="-1.05646">
        <ele>87.8</ele>
        <time>2022-09-11T08:11:51Z</time>
      </trkpt>
      <trkpt lat="43.33143" lon="-1.0565">
        <ele>88.4</ele>
        <time>2022-09-11T08:11:57Z</time>
      </trkpt>
      <trkpt lat="43.33153" lon="-1.05654">
        <ele>88.8</ele>
        <time>2022-09-11T08:12:04Z</time>
      </trkpt>
      <trkpt lat="43.33161" lon="-1.05656">
        <ele>89</ele>
        <time>2022-09-11T08:12:10Z</time>
      </trkpt>
      <trkpt lat="43.33172" lon="-1.0566">
        <ele>89.4</ele>
        <time>2022-09-11T08:12:18Z</time>
      </trkpt>
      <trkpt lat="43.33182" lon="-1.05664">
        <ele>90</ele>
        <time>2022-09-11T08:12:25Z</time>
      </trkpt>
      <trkpt lat="43.33183" lon="-1.05664">
        <ele>90</ele>
        <time>2022-09-11T08:12:26Z</time>
      </trkpt>
      <trkpt lat="43.33192" lon="-1.05667">
        <ele>90.8</ele>
        <time>2022-09-11T08:12:34Z</time>
      </trkpt>
      <trkpt lat="43.33197" lon="-1.05668">
        <ele>91.2</ele>
        <time>2022-09-11T08:12:38Z</time>
      </trkpt>
      <trkpt lat="43.33198" lon="-1.05668">
        <ele>91.4</ele>
        <time>2022-09-11T08:12:40Z</time>
      </trkpt>
      <trkpt lat="43.33249" lon="-1.05665">
        <ele>96.8</ele>
        <time>2022-09-11T08:13:23Z</time>
      </trkpt>
      <trkpt lat="43.33253" lon="-1.05665">
        <ele>97.2</ele>
        <time>2022-09-11T08:13:26Z</time>
      </trkpt>
      <trkpt lat="43.33259" lon="-1.05664">
        <ele>97.6</ele>
        <time>2022-09-11T08:13:31Z</time>
      </trkpt>
      <trkpt lat="43.33262" lon="-1.05664">
        <ele>97.8</ele>
        <time>2022-09-11T08:13:33Z</time>
      </trkpt>
      <trkpt lat="43.33263" lon="-1.05664">
        <ele>97.8</ele>
        <time>2022-09-11T08:13:34Z</time>
      </trkpt>
      <trkpt lat="43.33269" lon="-1.05663">
        <ele>98.4</ele>
        <time>2022-09-11T08:13:39Z</time>
      </trkpt>
      <trkpt lat="43.33273" lon="-1.05661">
        <ele>98.4</ele>
        <time>2022-09-11T08:13:43Z</time>
      </trkpt>
      <trkpt lat="43.33274" lon="-1.0566">
        <ele>98.4</ele>
        <time>2022-09-11T08:13:46Z</time>
      </trkpt>
      <trkpt lat="43.33283" lon="-1.05657">
        <ele>99</ele>
        <time>2022-09-11T08:13:52Z</time>
      </trkpt>
      <trkpt lat="43.33286" lon="-1.05656">
        <ele>99.4</ele>
        <time>2022-09-11T08:13:54Z</time>
      </trkpt>
      <trkpt lat="43.33297" lon="-1.05653">
        <ele>100</ele>
        <time>2022-09-11T08:14:00Z</time>
      </trkpt>
      <trkpt lat="43.33298" lon="-1.05653">
        <ele>100.2</ele>
        <time>2022-09-11T08:14:01Z</time>
      </trkpt>
      <trkpt lat="43.3331" lon="-1.05651">
        <ele>101</ele>
        <time>2022-09-11T08:14:08Z</time>
      </trkpt>
      <trkpt lat="43.33312" lon="-1.05652">
        <ele>101.2</ele>
        <time>2022-09-11T08:14:09Z</time>
      </trkpt>
      <trkpt lat="43.33321" lon="-1.05651">
        <ele>102.2</ele>
        <time>2022-09-11T08:14:14Z</time>
      </trkpt>
      <trkpt lat="43.33322" lon="-1.0565">
        <ele>102.4</ele>
        <time>2022-09-11T08:14:15Z</time>
      </trkpt>
      <trkpt lat="43.33332" lon="-1.05648">
        <ele>103.2</ele>
        <time>2022-09-11T08:14:21Z</time>
      </trkpt>
      <trkpt lat="43.33341" lon="-1.05648">
        <ele>104.2</ele>
        <time>2022-09-11T08:14:26Z</time>
      </trkpt>
      <trkpt lat="43.33343" lon="-1.05648">
        <ele>104.6</ele>
        <time>2022-09-11T08:14:27Z</time>
      </trkpt>
      <trkpt lat="43.33354" lon="-1.05647">
        <ele>105.4</ele>
        <time>2022-09-11T08:14:32Z</time>
      </trkpt>
      <trkpt lat="43.33356" lon="-1.05646">
        <ele>105.4</ele>
        <time>2022-09-11T08:14:33Z</time>
      </trkpt>
      <trkpt lat="43.33366" lon="-1.05645">
        <ele>106.4</ele>
        <time>2022-09-11T08:14:38Z</time>
      </trkpt>
      <trkpt lat="43.33378" lon="-1.05646">
        <ele>107</ele>
        <time>2022-09-11T08:14:44Z</time>
      </trkpt>
      <trkpt lat="43.33391" lon="-1.05647">
        <ele>107.4</ele>
        <time>2022-09-11T08:14:50Z</time>
      </trkpt>
      <trkpt lat="43.33393" lon="-1.05647">
        <ele>107.4</ele>
        <time>2022-09-11T08:14:51Z</time>
      </trkpt>
      <trkpt lat="43.33412" lon="-1.05651">
        <ele>107</ele>
        <time>2022-09-11T08:14:58Z</time>
      </trkpt>
      <trkpt lat="43.33427" lon="-1.05659">
        <ele>107.2</ele>
        <time>2022-09-11T08:15:04Z</time>
      </trkpt>
      <trkpt lat="43.3344" lon="-1.05667">
        <ele>107.2</ele>
        <time>2022-09-11T08:15:10Z</time>
      </trkpt>
      <trkpt lat="43.3346" lon="-1.05673">
        <ele>107.2</ele>
        <time>2022-09-11T08:15:16Z</time>
      </trkpt>
      <trkpt lat="43.33486" lon="-1.05683">
        <ele>107.4</ele>
        <time>2022-09-11T08:15:22Z</time>
      </trkpt>
      <trkpt lat="43.335" lon="-1.05689">
        <ele>107</ele>
        <time>2022-09-11T08:15:27Z</time>
      </trkpt>
      <trkpt lat="43.33523" lon="-1.05703">
        <ele>106.8</ele>
        <time>2022-09-11T08:15:33Z</time>
      </trkpt>
      <trkpt lat="43.33547" lon="-1.05721">
        <ele>107.4</ele>
        <time>2022-09-11T08:15:40Z</time>
      </trkpt>
      <trkpt lat="43.33561" lon="-1.05733">
        <ele>107.8</ele>
        <time>2022-09-11T08:15:45Z</time>
      </trkpt>
      <trkpt lat="43.33572" lon="-1.05745">
        <ele>108.4</ele>
        <time>2022-09-11T08:15:50Z</time>
      </trkpt>
      <trkpt lat="43.33574" lon="-1.05746">
        <ele>108.6</ele>
        <time>2022-09-11T08:15:51Z</time>
      </trkpt>
      <trkpt lat="43.33586" lon="-1.05756">
        <ele>109</ele>
        <time>2022-09-11T08:15:57Z</time>
      </trkpt>
      <trkpt lat="43.33595" lon="-1.05768">
        <ele>109.4</ele>
        <time>2022-09-11T08:16:03Z</time>
      </trkpt>
      <trkpt lat="43.33598" lon="-1.05774">
        <ele>109.6</ele>
        <time>2022-09-11T08:16:05Z</time>
      </trkpt>
      <trkpt lat="43.33607" lon="-1.05783">
        <ele>110</ele>
        <time>2022-09-11T08:16:09Z</time>
      </trkpt>
      <trkpt lat="43.33615" lon="-1.05793">
        <ele>110.6</ele>
        <time>2022-09-11T08:16:14Z</time>
      </trkpt>
      <trkpt lat="43.33623" lon="-1.05804">
        <ele>111.4</ele>
        <time>2022-09-11T08:16:20Z</time>
      </trkpt>
      <trkpt lat="43.33626" lon="-1.05808">
        <ele>111.6</ele>
        <time>2022-09-11T08:16:22Z</time>
      </trkpt>
      <trkpt lat="43.33659" lon="-1.05837">
        <ele>113.2</ele>
        <time>2022-09-11T08:17:09Z</time>
      </trkpt>
      <trkpt lat="43.33664" lon="-1.05841">
        <ele>113.6</ele>
        <time>2022-09-11T08:17:12Z</time>
      </trkpt>
      <trkpt lat="43.33675" lon="-1.05851">
        <ele>114.4</ele>
        <time>2022-09-11T08:17:19Z</time>
      </trkpt>
      <trkpt lat="43.33676" lon="-1.05852">
        <ele>114.4</ele>
        <time>2022-09-11T08:17:20Z</time>
      </trkpt>
      <trkpt lat="43.33686" lon="-1.05858">
        <ele>115.4</ele>
        <time>2022-09-11T08:17:26Z</time>
      </trkpt>
      <trkpt lat="43.33696" lon="-1.05866">
        <ele>116</ele>
        <time>2022-09-11T08:17:32Z</time>
      </trkpt>
      <trkpt lat="43.337" lon="-1.05869">
        <ele>116.4</ele>
        <time>2022-09-11T08:17:35Z</time>
      </trkpt>
      <trkpt lat="43.33706" lon="-1.05876">
        <ele>116.8</ele>
        <time>2022-09-11T08:17:39Z</time>
      </trkpt>
      <trkpt lat="43.33714" lon="-1.05882">
        <ele>117.4</ele>
        <time>2022-09-11T08:17:44Z</time>
      </trkpt>
      <trkpt lat="43.33718" lon="-1.05884">
        <ele>118</ele>
        <time>2022-09-11T08:17:47Z</time>
      </trkpt>
      <trkpt lat="43.33723" lon="-1.05889">
        <ele>118.6</ele>
        <time>2022-09-11T08:17:51Z</time>
      </trkpt>
      <trkpt lat="43.33727" lon="-1.05893">
        <ele>118.8</ele>
        <time>2022-09-11T08:17:54Z</time>
      </trkpt>
      <trkpt lat="43.33734" lon="-1.05899">
        <ele>119.6</ele>
        <time>2022-09-11T08:18:00Z</time>
      </trkpt>
      <trkpt lat="43.33741" lon="-1.05904">
        <ele>120.2</ele>
        <time>2022-09-11T08:18:05Z</time>
      </trkpt>
      <trkpt lat="43.33744" lon="-1.05907">
        <ele>120.6</ele>
        <time>2022-09-11T08:18:08Z</time>
      </trkpt>
      <trkpt lat="43.33748" lon="-1.0591">
        <ele>120.8</ele>
        <time>2022-09-11T08:18:11Z</time>
      </trkpt>
      <trkpt lat="43.33754" lon="-1.05915">
        <ele>121.4</ele>
        <time>2022-09-11T08:18:15Z</time>
      </trkpt>
      <trkpt lat="43.33757" lon="-1.05917">
        <ele>121.6</ele>
        <time>2022-09-11T08:18:17Z</time>
      </trkpt>
      <trkpt lat="43.33763" lon="-1.0592">
        <ele>122.4</ele>
        <time>2022-09-11T08:18:21Z</time>
      </trkpt>
      <trkpt lat="43.33766" lon="-1.05923">
        <ele>122.8</ele>
        <time>2022-09-11T08:18:24Z</time>
      </trkpt>
      <trkpt lat="43.33774" lon="-1.05927">
        <ele>123.6</ele>
        <time>2022-09-11T08:18:29Z</time>
      </trkpt>
      <trkpt lat="43.33777" lon="-1.05928">
        <ele>123.8</ele>
        <time>2022-09-11T08:18:31Z</time>
      </trkpt>
      <trkpt lat="43.33784" lon="-1.05932">
        <ele>124.6</ele>
        <time>2022-09-11T08:18:36Z</time>
      </trkpt>
      <trkpt lat="43.33787" lon="-1.05934">
        <ele>125</ele>
        <time>2022-09-11T08:18:38Z</time>
      </trkpt>
      <trkpt lat="43.33799" lon="-1.05938">
        <ele>126</ele>
        <time>2022-09-11T08:18:45Z</time>
      </trkpt>
      <trkpt lat="43.338" lon="-1.05939">
        <ele>126.2</ele>
        <time>2022-09-11T08:18:46Z</time>
      </trkpt>
      <trkpt lat="43.33812" lon="-1.05945">
        <ele>127</ele>
        <time>2022-09-11T08:18:54Z</time>
      </trkpt>
      <trkpt lat="43.33814" lon="-1.05945">
        <ele>127.2</ele>
        <time>2022-09-11T08:18:55Z</time>
      </trkpt>
      <trkpt lat="43.33822" lon="-1.0595">
        <ele>128.4</ele>
        <time>2022-09-11T08:19:02Z</time>
      </trkpt>
      <trkpt lat="43.33831" lon="-1.05954">
        <ele>129.6</ele>
        <time>2022-09-11T08:19:09Z</time>
      </trkpt>
      <trkpt lat="43.3384" lon="-1.05959">
        <ele>130.6</ele>
        <time>2022-09-11T08:19:16Z</time>
      </trkpt>
      <trkpt lat="43.33841" lon="-1.0596">
        <ele>130.8</ele>
        <time>2022-09-11T08:19:17Z</time>
      </trkpt>
      <trkpt lat="43.3385" lon="-1.05965">
        <ele>132</ele>
        <time>2022-09-11T08:19:24Z</time>
      </trkpt>
      <trkpt lat="43.33851" lon="-1.05966">
        <ele>132</ele>
        <time>2022-09-11T08:19:25Z</time>
      </trkpt>
      <trkpt lat="43.33856" lon="-1.05968">
        <ele>133</ele>
        <time>2022-09-11T08:19:29Z</time>
      </trkpt>
      <trkpt lat="43.33862" lon="-1.05971">
        <ele>134</ele>
        <time>2022-09-11T08:19:34Z</time>
      </trkpt>
      <trkpt lat="43.33863" lon="-1.05972">
        <ele>134.2</ele>
        <time>2022-09-11T08:19:35Z</time>
      </trkpt>
      <trkpt lat="43.3387" lon="-1.05979">
        <ele>135.2</ele>
        <time>2022-09-11T08:19:42Z</time>
      </trkpt>
      <trkpt lat="43.33872" lon="-1.0598">
        <ele>135.4</ele>
        <time>2022-09-11T08:19:43Z</time>
      </trkpt>
      <trkpt lat="43.33881" lon="-1.05987">
        <ele>136.4</ele>
        <time>2022-09-11T08:19:50Z</time>
      </trkpt>
      <trkpt lat="43.33882" lon="-1.05988">
        <ele>136.6</ele>
        <time>2022-09-11T08:19:51Z</time>
      </trkpt>
      <trkpt lat="43.33891" lon="-1.05995">
        <ele>137.4</ele>
        <time>2022-09-11T08:19:58Z</time>
      </trkpt>
      <trkpt lat="43.33892" lon="-1.05997">
        <ele>137.6</ele>
        <time>2022-09-11T08:19:59Z</time>
      </trkpt>
      <trkpt lat="43.33904" lon="-1.06005">
        <ele>138.2</ele>
        <time>2022-09-11T08:20:07Z</time>
      </trkpt>
      <trkpt lat="43.33907" lon="-1.06007">
        <ele>138.6</ele>
        <time>2022-09-11T08:20:09Z</time>
      </trkpt>
      <trkpt lat="43.33917" lon="-1.06012">
        <ele>139</ele>
        <time>2022-09-11T08:20:14Z</time>
      </trkpt>
      <trkpt lat="43.3393" lon="-1.06019">
        <ele>139.6</ele>
        <time>2022-09-11T08:20:22Z</time>
      </trkpt>
      <trkpt lat="43.33932" lon="-1.0602">
        <ele>139.8</ele>
        <time>2022-09-11T08:20:23Z</time>
      </trkpt>
      <trkpt lat="43.33937" lon="-1.06028">
        <ele>140.6</ele>
        <time>2022-09-11T08:20:28Z</time>
      </trkpt>
      <trkpt lat="43.33938" lon="-1.0603">
        <ele>140.8</ele>
        <time>2022-09-11T08:20:29Z</time>
      </trkpt>
      <trkpt lat="43.33942" lon="-1.06038">
        <ele>141.4</ele>
        <time>2022-09-11T08:20:34Z</time>
      </trkpt>
      <trkpt lat="43.33946" lon="-1.06039">
        <ele>142</ele>
        <time>2022-09-11T08:20:38Z</time>
      </trkpt>
      <trkpt lat="43.33946" lon="-1.0604">
        <ele>142.2</ele>
        <time>2022-09-11T08:20:39Z</time>
      </trkpt>
      <trkpt lat="43.33948" lon="-1.06042">
        <ele>142.2</ele>
        <time>2022-09-11T08:20:41Z</time>
      </trkpt>
      <trkpt lat="43.33946" lon="-1.06046">
        <ele>142.4</ele>
        <time>2022-09-11T08:20:44Z</time>
      </trkpt>
      <trkpt lat="43.33948" lon="-1.06048">
        <ele>142.6</ele>
        <time>2022-09-11T08:21:46Z</time>
      </trkpt>
      <trkpt lat="43.33951" lon="-1.06048">
        <ele>142.6</ele>
        <time>2022-09-11T08:21:47Z</time>
      </trkpt>
      <trkpt lat="43.33962" lon="-1.06056">
        <ele>142.6</ele>
        <time>2022-09-11T08:21:52Z</time>
      </trkpt>
      <trkpt lat="43.33976" lon="-1.06071">
        <ele>142.8</ele>
        <time>2022-09-11T08:21:59Z</time>
      </trkpt>
      <trkpt lat="43.33995" lon="-1.06094">
        <ele>142.4</ele>
        <time>2022-09-11T08:22:08Z</time>
      </trkpt>
      <trkpt lat="43.34006" lon="-1.06109">
        <ele>141.8</ele>
        <time>2022-09-11T08:22:11Z</time>
      </trkpt>
      <trkpt lat="43.34009" lon="-1.06115">
        <ele>141.6</ele>
        <time>2022-09-11T08:22:12Z</time>
      </trkpt>
      <trkpt lat="43.34013" lon="-1.0613">
        <ele>140.8</ele>
        <time>2022-09-11T08:22:14Z</time>
      </trkpt>
      <trkpt lat="43.34017" lon="-1.06135">
        <ele>140.4</ele>
        <time>2022-09-11T08:22:15Z</time>
      </trkpt>
      <trkpt lat="43.34022" lon="-1.06139">
        <ele>139.6</ele>
        <time>2022-09-11T08:22:16Z</time>
      </trkpt>
      <trkpt lat="43.34033" lon="-1.06138">
        <ele>138.4</ele>
        <time>2022-09-11T08:22:18Z</time>
      </trkpt>
      <trkpt lat="43.34048" lon="-1.06151">
        <ele>136.6</ele>
        <time>2022-09-11T08:22:21Z</time>
      </trkpt>
      <trkpt lat="43.34051" lon="-1.06156">
        <ele>135.6</ele>
        <time>2022-09-11T08:22:22Z</time>
      </trkpt>
      <trkpt lat="43.34054" lon="-1.06158">
        <ele>134.6</ele>
        <time>2022-09-11T08:22:23Z</time>
      </trkpt>
      <trkpt lat="43.34059" lon="-1.06156">
        <ele>133.8</ele>
        <time>2022-09-11T08:22:24Z</time>
      </trkpt>
      <trkpt lat="43.34063" lon="-1.06149">
        <ele>133.2</ele>
        <time>2022-09-11T08:22:25Z</time>
      </trkpt>
      <trkpt lat="43.34066" lon="-1.0614">
        <ele>132.4</ele>
        <time>2022-09-11T08:22:26Z</time>
      </trkpt>
      <trkpt lat="43.3407" lon="-1.06131">
        <ele>131.2</ele>
        <time>2022-09-11T08:22:27Z</time>
      </trkpt>
      <trkpt lat="43.34075" lon="-1.06123">
        <ele>130</ele>
        <time>2022-09-11T08:22:28Z</time>
      </trkpt>
      <trkpt lat="43.34079" lon="-1.06116">
        <ele>129</ele>
        <time>2022-09-11T08:22:29Z</time>
      </trkpt>
      <trkpt lat="43.34086" lon="-1.06111">
        <ele>128.2</ele>
        <time>2022-09-11T08:22:30Z</time>
      </trkpt>
      <trkpt lat="43.34093" lon="-1.06109">
        <ele>127.6</ele>
        <time>2022-09-11T08:22:31Z</time>
      </trkpt>
      <trkpt lat="43.34108" lon="-1.0611">
        <ele>127.4</ele>
        <time>2022-09-11T08:22:33Z</time>
      </trkpt>
      <trkpt lat="43.3412" lon="-1.06113">
        <ele>127.2</ele>
        <time>2022-09-11T08:22:35Z</time>
      </trkpt>
      <trkpt lat="43.34129" lon="-1.06115">
        <ele>128</ele>
        <time>2022-09-11T08:22:37Z</time>
      </trkpt>
      <trkpt lat="43.34132" lon="-1.06115">
        <ele>128.8</ele>
        <time>2022-09-11T08:22:38Z</time>
      </trkpt>
      <trkpt lat="43.34138" lon="-1.06115">
        <ele>130</ele>
        <time>2022-09-11T08:22:40Z</time>
      </trkpt>
      <trkpt lat="43.3414" lon="-1.06115">
        <ele>130.4</ele>
        <time>2022-09-11T08:22:41Z</time>
      </trkpt>
      <trkpt lat="43.34145" lon="-1.06115">
        <ele>131</ele>
        <time>2022-09-11T08:22:43Z</time>
      </trkpt>
      <trkpt lat="43.3415" lon="-1.06116">
        <ele>131.8</ele>
        <time>2022-09-11T08:22:46Z</time>
      </trkpt>
      <trkpt lat="43.34152" lon="-1.06115">
        <ele>131.8</ele>
        <time>2022-09-11T08:22:47Z</time>
      </trkpt>
      <trkpt lat="43.34155" lon="-1.06115">
        <ele>132.2</ele>
        <time>2022-09-11T08:22:49Z</time>
      </trkpt>
      <trkpt lat="43.34161" lon="-1.06115">
        <ele>132.8</ele>
        <time>2022-09-11T08:22:52Z</time>
      </trkpt>
      <trkpt lat="43.34166" lon="-1.06115">
        <ele>133</ele>
        <time>2022-09-11T08:22:54Z</time>
      </trkpt>
      <trkpt lat="43.34169" lon="-1.06116">
        <ele>133.4</ele>
        <time>2022-09-11T08:22:56Z</time>
      </trkpt>
      <trkpt lat="43.34176" lon="-1.06114">
        <ele>134.4</ele>
        <time>2022-09-11T08:23:00Z</time>
      </trkpt>
      <trkpt lat="43.34177" lon="-1.06115">
        <ele>134.6</ele>
        <time>2022-09-11T08:23:01Z</time>
      </trkpt>
      <trkpt lat="43.34179" lon="-1.06114">
        <ele>134.8</ele>
        <time>2022-09-11T08:23:02Z</time>
      </trkpt>
      <trkpt lat="43.34183" lon="-1.06113">
        <ele>135.2</ele>
        <time>2022-09-11T08:23:05Z</time>
      </trkpt>
      <trkpt lat="43.34197" lon="-1.06112">
        <ele>134.8</ele>
        <time>2022-09-11T08:23:10Z</time>
      </trkpt>
      <trkpt lat="43.34221" lon="-1.06105">
        <ele>134.6</ele>
        <time>2022-09-11T08:23:17Z</time>
      </trkpt>
      <trkpt lat="43.34244" lon="-1.06101">
        <ele>134</ele>
        <time>2022-09-11T08:23:23Z</time>
      </trkpt>
      <trkpt lat="43.3426" lon="-1.06109">
        <ele>133.6</ele>
        <time>2022-09-11T08:23:27Z</time>
      </trkpt>
      <trkpt lat="43.34263" lon="-1.06113">
        <ele>133.6</ele>
        <time>2022-09-11T08:23:28Z</time>
      </trkpt>
      <trkpt lat="43.34267" lon="-1.06116">
        <ele>133.4</ele>
        <time>2022-09-11T08:23:29Z</time>
      </trkpt>
      <trkpt lat="43.343" lon="-1.06144">
        <ele>132.4</ele>
        <time>2022-09-11T08:23:37Z</time>
      </trkpt>
      <trkpt lat="43.34304" lon="-1.06147">
        <ele>132.2</ele>
        <time>2022-09-11T08:23:38Z</time>
      </trkpt>
      <trkpt lat="43.3433" lon="-1.06165">
        <ele>131.4</ele>
        <time>2022-09-11T08:23:44Z</time>
      </trkpt>
      <trkpt lat="43.34335" lon="-1.06166">
        <ele>131.4</ele>
        <time>2022-09-11T08:23:45Z</time>
      </trkpt>
      <trkpt lat="43.34363" lon="-1.06173">
        <ele>131.2</ele>
        <time>2022-09-11T08:23:51Z</time>
      </trkpt>
      <trkpt lat="43.34388" lon="-1.06176">
        <ele>131.6</ele>
        <time>2022-09-11T08:23:58Z</time>
      </trkpt>
      <trkpt lat="43.34412" lon="-1.06182">
        <ele>132.2</ele>
        <time>2022-09-11T08:24:06Z</time>
      </trkpt>
      <trkpt lat="43.3442" lon="-1.06184">
        <ele>132.6</ele>
        <time>2022-09-11T08:24:09Z</time>
      </trkpt>
      <trkpt lat="43.34437" lon="-1.06189">
        <ele>133.4</ele>
        <time>2022-09-11T08:24:15Z</time>
      </trkpt>
      <trkpt lat="43.34445" lon="-1.06192">
        <ele>133.6</ele>
        <time>2022-09-11T08:24:18Z</time>
      </trkpt>
      <trkpt lat="43.34461" lon="-1.06193">
        <ele>134.4</ele>
        <time>2022-09-11T08:24:24Z</time>
      </trkpt>
      <trkpt lat="43.34469" lon="-1.06192">
        <ele>134.8</ele>
        <time>2022-09-11T08:24:27Z</time>
      </trkpt>
      <trkpt lat="43.34483" lon="-1.06189">
        <ele>135.2</ele>
        <time>2022-09-11T08:24:32Z</time>
      </trkpt>
      <trkpt lat="43.34501" lon="-1.06187">
        <ele>135.8</ele>
        <time>2022-09-11T08:24:39Z</time>
      </trkpt>
      <trkpt lat="43.34524" lon="-1.06181">
        <ele>136.8</ele>
        <time>2022-09-11T08:24:47Z</time>
      </trkpt>
      <trkpt lat="43.34527" lon="-1.0618">
        <ele>137</ele>
        <time>2022-09-11T08:24:48Z</time>
      </trkpt>
      <trkpt lat="43.3454" lon="-1.06176">
        <ele>137.2</ele>
        <time>2022-09-11T08:24:54Z</time>
      </trkpt>
      <trkpt lat="43.34554" lon="-1.06171">
        <ele>137.2</ele>
        <time>2022-09-11T08:25:00Z</time>
      </trkpt>
      <trkpt lat="43.34575" lon="-1.06161">
        <ele>136.8</ele>
        <time>2022-09-11T08:25:08Z</time>
      </trkpt>
      <trkpt lat="43.34597" lon="-1.06146">
        <ele>136.2</ele>
        <time>2022-09-11T08:25:14Z</time>
      </trkpt>
      <trkpt lat="43.34602" lon="-1.06144">
        <ele>136</ele>
        <time>2022-09-11T08:25:15Z</time>
      </trkpt>
      <trkpt lat="43.34624" lon="-1.0613">
        <ele>135</ele>
        <time>2022-09-11T08:25:20Z</time>
      </trkpt>
      <trkpt lat="43.34628" lon="-1.06126">
        <ele>134.6</ele>
        <time>2022-09-11T08:25:21Z</time>
      </trkpt>
      <trkpt lat="43.34641" lon="-1.06114">
        <ele>133.8</ele>
        <time>2022-09-11T08:25:24Z</time>
      </trkpt>
      <trkpt lat="43.34645" lon="-1.06108">
        <ele>133.4</ele>
        <time>2022-09-11T08:25:25Z</time>
      </trkpt>
      <trkpt lat="43.34653" lon="-1.06097">
        <ele>132.6</ele>
        <time>2022-09-11T08:25:27Z</time>
      </trkpt>
      <trkpt lat="43.34663" lon="-1.06085">
        <ele>132</ele>
        <time>2022-09-11T08:25:29Z</time>
      </trkpt>
      <trkpt lat="43.34668" lon="-1.06078">
        <ele>131.4</ele>
        <time>2022-09-11T08:25:30Z</time>
      </trkpt>
      <trkpt lat="43.3468" lon="-1.06065">
        <ele>130.6</ele>
        <time>2022-09-11T08:25:32Z</time>
      </trkpt>
      <trkpt lat="43.34686" lon="-1.06058">
        <ele>130.2</ele>
        <time>2022-09-11T08:25:33Z</time>
      </trkpt>
      <trkpt lat="43.34697" lon="-1.06047">
        <ele>128.8</ele>
        <time>2022-09-11T08:25:35Z</time>
      </trkpt>
      <trkpt lat="43.34706" lon="-1.0604">
        <ele>128</ele>
        <time>2022-09-11T08:25:37Z</time>
      </trkpt>
      <trkpt lat="43.3471" lon="-1.06038">
        <ele>128</ele>
        <time>2022-09-11T08:25:38Z</time>
      </trkpt>
      <trkpt lat="43.34714" lon="-1.06039">
        <ele>127.6</ele>
        <time>2022-09-11T08:25:39Z</time>
      </trkpt>
      <trkpt lat="43.34718" lon="-1.0604">
        <ele>127.4</ele>
        <time>2022-09-11T08:25:40Z</time>
      </trkpt>
      <trkpt lat="43.34732" lon="-1.06041">
        <ele>127</ele>
        <time>2022-09-11T08:25:45Z</time>
      </trkpt>
      <trkpt lat="43.34734" lon="-1.0604">
        <ele>126.8</ele>
        <time>2022-09-11T08:25:46Z</time>
      </trkpt>
      <trkpt lat="43.3474" lon="-1.06037">
        <ele>126.6</ele>
        <time>2022-09-11T08:25:49Z</time>
      </trkpt>
      <trkpt lat="43.34747" lon="-1.06032">
        <ele>126.6</ele>
        <time>2022-09-11T08:25:53Z</time>
      </trkpt>
      <trkpt lat="43.34751" lon="-1.0603">
        <ele>126.2</ele>
        <time>2022-09-11T08:25:58Z</time>
      </trkpt>
      <trkpt lat="43.34756" lon="-1.06027">
        <ele>126.2</ele>
        <time>2022-09-11T08:26:08Z</time>
      </trkpt>
      <trkpt lat="43.34762" lon="-1.06026">
        <ele>126.4</ele>
        <time>2022-09-11T08:26:10Z</time>
      </trkpt>
      <trkpt lat="43.34771" lon="-1.06029">
        <ele>126.4</ele>
        <time>2022-09-11T08:26:13Z</time>
      </trkpt>
      <trkpt lat="43.34782" lon="-1.06033">
        <ele>126</ele>
        <time>2022-09-11T08:26:16Z</time>
      </trkpt>
      <trkpt lat="43.34805" lon="-1.06045">
        <ele>125.6</ele>
        <time>2022-09-11T08:26:22Z</time>
      </trkpt>
      <trkpt lat="43.3481" lon="-1.06048">
        <ele>125.4</ele>
        <time>2022-09-11T08:26:23Z</time>
      </trkpt>
      <trkpt lat="43.3482" lon="-1.06052">
        <ele>124.6</ele>
        <time>2022-09-11T08:26:26Z</time>
      </trkpt>
      <trkpt lat="43.34825" lon="-1.06049">
        <ele>124.4</ele>
        <time>2022-09-11T08:26:28Z</time>
      </trkpt>
      <trkpt lat="43.34828" lon="-1.06046">
        <ele>123.8</ele>
        <time>2022-09-11T08:26:32Z</time>
      </trkpt>
      <trkpt lat="43.34835" lon="-1.06045">
        <ele>123.6</ele>
        <time>2022-09-11T08:26:36Z</time>
      </trkpt>
      <trkpt lat="43.34837" lon="-1.06044">
        <ele>123.2</ele>
        <time>2022-09-11T08:26:37Z</time>
      </trkpt>
      <trkpt lat="43.34842" lon="-1.06042">
        <ele>121.4</ele>
        <time>2022-09-11T08:26:39Z</time>
      </trkpt>
      <trkpt lat="43.34851" lon="-1.06042">
        <ele>120.4</ele>
        <time>2022-09-11T08:26:42Z</time>
      </trkpt>
      <trkpt lat="43.34857" lon="-1.06046">
        <ele>119</ele>
        <time>2022-09-11T08:26:45Z</time>
      </trkpt>
      <trkpt lat="43.34864" lon="-1.06052">
        <ele>118.4</ele>
        <time>2022-09-11T08:26:47Z</time>
      </trkpt>
      <trkpt lat="43.34872" lon="-1.06058">
        <ele>117.8</ele>
        <time>2022-09-11T08:26:49Z</time>
      </trkpt>
      <trkpt lat="43.34884" lon="-1.06067">
        <ele>116.8</ele>
        <time>2022-09-11T08:26:53Z</time>
      </trkpt>
      <trkpt lat="43.34898" lon="-1.06065">
        <ele>115.6</ele>
        <time>2022-09-11T08:26:57Z</time>
      </trkpt>
      <trkpt lat="43.34904" lon="-1.06061">
        <ele>115.2</ele>
        <time>2022-09-11T08:26:59Z</time>
      </trkpt>
      <trkpt lat="43.34912" lon="-1.06059">
        <ele>114.6</ele>
        <time>2022-09-11T08:27:02Z</time>
      </trkpt>
      <trkpt lat="43.34918" lon="-1.0606">
        <ele>113.4</ele>
        <time>2022-09-11T08:27:04Z</time>
      </trkpt>
      <trkpt lat="43.34928" lon="-1.06064">
        <ele>112.2</ele>
        <time>2022-09-11T08:27:07Z</time>
      </trkpt>
      <trkpt lat="43.34939" lon="-1.06069">
        <ele>111.2</ele>
        <time>2022-09-11T08:27:12Z</time>
      </trkpt>
      <trkpt lat="43.34942" lon="-1.0607">
        <ele>111</ele>
        <time>2022-09-11T08:27:13Z</time>
      </trkpt>
      <trkpt lat="43.34964" lon="-1.06071">
        <ele>110.2</ele>
        <time>2022-09-11T08:27:19Z</time>
      </trkpt>
      <trkpt lat="43.34972" lon="-1.06071">
        <ele>110</ele>
        <time>2022-09-11T08:27:21Z</time>
      </trkpt>
      <trkpt lat="43.34989" lon="-1.06073">
        <ele>109.4</ele>
        <time>2022-09-11T08:27:26Z</time>
      </trkpt>
      <trkpt lat="43.3501" lon="-1.06073">
        <ele>108.8</ele>
        <time>2022-09-11T08:27:32Z</time>
      </trkpt>
      <trkpt lat="43.35017" lon="-1.06074">
        <ele>108.6</ele>
        <time>2022-09-11T08:27:34Z</time>
      </trkpt>
      <trkpt lat="43.35044" lon="-1.06084">
        <ele>108</ele>
        <time>2022-09-11T08:27:41Z</time>
      </trkpt>
      <trkpt lat="43.35055" lon="-1.06088">
        <ele>107.8</ele>
        <time>2022-09-11T08:27:44Z</time>
      </trkpt>
      <trkpt lat="43.35064" lon="-1.06091">
        <ele>107.6</ele>
        <time>2022-09-11T08:27:47Z</time>
      </trkpt>
      <trkpt lat="43.35077" lon="-1.06086">
        <ele>107.8</ele>
        <time>2022-09-11T08:27:53Z</time>
      </trkpt>
      <trkpt lat="43.35082" lon="-1.06086">
        <ele>107.4</ele>
        <time>2022-09-11T08:27:55Z</time>
      </trkpt>
      <trkpt lat="43.35088" lon="-1.06086">
        <ele>106.4</ele>
        <time>2022-09-11T08:27:57Z</time>
      </trkpt>
      <trkpt lat="43.3509" lon="-1.06086">
        <ele>106</ele>
        <time>2022-09-11T08:27:58Z</time>
      </trkpt>
      <trkpt lat="43.35097" lon="-1.06089">
        <ele>105.2</ele>
        <time>2022-09-11T08:28:01Z</time>
      </trkpt>
      <trkpt lat="43.35104" lon="-1.0609">
        <ele>104.8</ele>
        <time>2022-09-11T08:28:03Z</time>
      </trkpt>
      <trkpt lat="43.35106" lon="-1.06091">
        <ele>104.8</ele>
        <time>2022-09-11T08:28:04Z</time>
      </trkpt>
      <trkpt lat="43.35116" lon="-1.06094">
        <ele>104.2</ele>
        <time>2022-09-11T08:28:07Z</time>
      </trkpt>
      <trkpt lat="43.3512" lon="-1.06096">
        <ele>104</ele>
        <time>2022-09-11T08:28:08Z</time>
      </trkpt>
      <trkpt lat="43.35143" lon="-1.06107">
        <ele>104.4</ele>
        <time>2022-09-11T08:28:14Z</time>
      </trkpt>
      <trkpt lat="43.35143" lon="-1.06108">
        <ele>105.2</ele>
        <time>2022-09-11T08:28:16Z</time>
      </trkpt>
      <trkpt lat="43.35172" lon="-1.06113">
        <ele>104.4</ele>
        <time>2022-09-11T08:28:27Z</time>
      </trkpt>
      <trkpt lat="43.35175" lon="-1.06112">
        <ele>104.4</ele>
        <time>2022-09-11T08:28:28Z</time>
      </trkpt>
      <trkpt lat="43.35197" lon="-1.06107">
        <ele>105.2</ele>
        <time>2022-09-11T08:28:38Z</time>
      </trkpt>
      <trkpt lat="43.352" lon="-1.06107">
        <ele>105</ele>
        <time>2022-09-11T08:28:39Z</time>
      </trkpt>
      <trkpt lat="43.35222" lon="-1.06104">
        <ele>104.4</ele>
        <time>2022-09-11T08:28:45Z</time>
      </trkpt>
      <trkpt lat="43.35232" lon="-1.06098">
        <ele>104.4</ele>
        <time>2022-09-11T08:28:48Z</time>
      </trkpt>
      <trkpt lat="43.35234" lon="-1.06095">
        <ele>104.4</ele>
        <time>2022-09-11T08:28:49Z</time>
      </trkpt>
      <trkpt lat="43.35242" lon="-1.06086">
        <ele>104.2</ele>
        <time>2022-09-11T08:28:52Z</time>
      </trkpt>
      <trkpt lat="43.35249" lon="-1.06076">
        <ele>103.6</ele>
        <time>2022-09-11T08:28:54Z</time>
      </trkpt>
      <trkpt lat="43.35254" lon="-1.06071">
        <ele>103.2</ele>
        <time>2022-09-11T08:28:55Z</time>
      </trkpt>
      <trkpt lat="43.35258" lon="-1.06066">
        <ele>103</ele>
        <time>2022-09-11T08:28:56Z</time>
      </trkpt>
      <trkpt lat="43.35268" lon="-1.06053">
        <ele>102.6</ele>
        <time>2022-09-11T08:28:58Z</time>
      </trkpt>
      <trkpt lat="43.35278" lon="-1.0604">
        <ele>101.8</ele>
        <time>2022-09-11T08:29:00Z</time>
      </trkpt>
      <trkpt lat="43.35292" lon="-1.06022">
        <ele>100.6</ele>
        <time>2022-09-11T08:29:03Z</time>
      </trkpt>
      <trkpt lat="43.353" lon="-1.0601">
        <ele>100.4</ele>
        <time>2022-09-11T08:29:05Z</time>
      </trkpt>
      <trkpt lat="43.35318" lon="-1.05987">
        <ele>99.6</ele>
        <time>2022-09-11T08:29:09Z</time>
      </trkpt>
      <trkpt lat="43.35323" lon="-1.05984">
        <ele>99.6</ele>
        <time>2022-09-11T08:29:10Z</time>
      </trkpt>
      <trkpt lat="43.35328" lon="-1.05981">
        <ele>99.6</ele>
        <time>2022-09-11T08:29:11Z</time>
      </trkpt>
      <trkpt lat="43.3534" lon="-1.05981">
        <ele>99.4</ele>
        <time>2022-09-11T08:29:14Z</time>
      </trkpt>
      <trkpt lat="43.35351" lon="-1.05988">
        <ele>100.4</ele>
        <time>2022-09-11T08:29:18Z</time>
      </trkpt>
      <trkpt lat="43.35353" lon="-1.05989">
        <ele>100.6</ele>
        <time>2022-09-11T08:29:19Z</time>
      </trkpt>
      <trkpt lat="43.35358" lon="-1.05992">
        <ele>101.8</ele>
        <time>2022-09-11T08:29:23Z</time>
      </trkpt>
      <trkpt lat="43.35357" lon="-1.05991">
        <ele>102</ele>
        <time>2022-09-11T08:29:24Z</time>
      </trkpt>
      <trkpt lat="43.35375" lon="-1.06001">
        <ele>103.6</ele>
        <time>2022-09-11T08:29:50Z</time>
      </trkpt>
      <trkpt lat="43.35379" lon="-1.06002">
        <ele>104</ele>
        <time>2022-09-11T08:29:52Z</time>
      </trkpt>
      <trkpt lat="43.35389" lon="-1.06005">
        <ele>104.8</ele>
        <time>2022-09-11T08:29:57Z</time>
      </trkpt>
      <trkpt lat="43.35391" lon="-1.06006">
        <ele>104.8</ele>
        <time>2022-09-11T08:29:58Z</time>
      </trkpt>
      <trkpt lat="43.354" lon="-1.0601">
        <ele>105.8</ele>
        <time>2022-09-11T08:30:03Z</time>
      </trkpt>
      <trkpt lat="43.35406" lon="-1.06013">
        <ele>106.2</ele>
        <time>2022-09-11T08:30:06Z</time>
      </trkpt>
      <trkpt lat="43.3542" lon="-1.06017">
        <ele>106.8</ele>
        <time>2022-09-11T08:30:12Z</time>
      </trkpt>
      <trkpt lat="43.35422" lon="-1.06018">
        <ele>107</ele>
        <time>2022-09-11T08:30:13Z</time>
      </trkpt>
      <trkpt lat="43.35441" lon="-1.06023">
        <ele>106.8</ele>
        <time>2022-09-11T08:30:20Z</time>
      </trkpt>
      <trkpt lat="43.35469" lon="-1.06033">
        <ele>106.4</ele>
        <time>2022-09-11T08:30:29Z</time>
      </trkpt>
      <trkpt lat="43.35497" lon="-1.06041">
        <ele>106.2</ele>
        <time>2022-09-11T08:30:36Z</time>
      </trkpt>
      <trkpt lat="43.35512" lon="-1.06044">
        <ele>105.8</ele>
        <time>2022-09-11T08:30:40Z</time>
      </trkpt>
      <trkpt lat="43.35529" lon="-1.06048">
        <ele>105.4</ele>
        <time>2022-09-11T08:30:45Z</time>
      </trkpt>
      <trkpt lat="43.35549" lon="-1.06051">
        <ele>105.8</ele>
        <time>2022-09-11T08:30:51Z</time>
      </trkpt>
      <trkpt lat="43.35577" lon="-1.06053">
        <ele>106.6</ele>
        <time>2022-09-11T08:31:00Z</time>
      </trkpt>
      <trkpt lat="43.3558" lon="-1.06053">
        <ele>106.8</ele>
        <time>2022-09-11T08:31:01Z</time>
      </trkpt>
      <trkpt lat="43.35585" lon="-1.06054">
        <ele>107.8</ele>
        <time>2022-09-11T08:31:04Z</time>
      </trkpt>
      <trkpt lat="43.35587" lon="-1.06054">
        <ele>108</ele>
        <time>2022-09-11T08:31:05Z</time>
      </trkpt>
      <trkpt lat="43.35605" lon="-1.06055">
        <ele>108.4</ele>
        <time>2022-09-11T08:31:13Z</time>
      </trkpt>
      <trkpt lat="43.35609" lon="-1.06056">
        <ele>108.8</ele>
        <time>2022-09-11T08:31:16Z</time>
      </trkpt>
      <trkpt lat="43.35614" lon="-1.06057">
        <ele>109.4</ele>
        <time>2022-09-11T08:31:19Z</time>
      </trkpt>
      <trkpt lat="43.35622" lon="-1.06057">
        <ele>110</ele>
        <time>2022-09-11T08:31:23Z</time>
      </trkpt>
      <trkpt lat="43.35629" lon="-1.06058">
        <ele>110.4</ele>
        <time>2022-09-11T08:31:27Z</time>
      </trkpt>
      <trkpt lat="43.35631" lon="-1.06059">
        <ele>110.6</ele>
        <time>2022-09-11T08:31:28Z</time>
      </trkpt>
      <trkpt lat="43.35636" lon="-1.06059">
        <ele>111</ele>
        <time>2022-09-11T08:31:31Z</time>
      </trkpt>
      <trkpt lat="43.35647" lon="-1.06061">
        <ele>111.6</ele>
        <time>2022-09-11T08:31:37Z</time>
      </trkpt>
      <trkpt lat="43.35667" lon="-1.06065">
        <ele>111.8</ele>
        <time>2022-09-11T08:31:46Z</time>
      </trkpt>
      <trkpt lat="43.35682" lon="-1.06069">
        <ele>111.6</ele>
        <time>2022-09-11T08:31:53Z</time>
      </trkpt>
      <trkpt lat="43.35706" lon="-1.06078">
        <ele>110.4</ele>
        <time>2022-09-11T08:32:01Z</time>
      </trkpt>
      <trkpt lat="43.35712" lon="-1.06082">
        <ele>110</ele>
        <time>2022-09-11T08:32:04Z</time>
      </trkpt>
      <trkpt lat="43.35722" lon="-1.06088">
        <ele>109.4</ele>
        <time>2022-09-11T08:32:08Z</time>
      </trkpt>
      <trkpt lat="43.35731" lon="-1.06091">
        <ele>109</ele>
        <time>2022-09-11T08:32:11Z</time>
      </trkpt>
      <trkpt lat="43.3574" lon="-1.06094">
        <ele>108.4</ele>
        <time>2022-09-11T08:32:14Z</time>
      </trkpt>
      <trkpt lat="43.35753" lon="-1.06096">
        <ele>108</ele>
        <time>2022-09-11T08:32:18Z</time>
      </trkpt>
      <trkpt lat="43.35768" lon="-1.06098">
        <ele>107.2</ele>
        <time>2022-09-11T08:32:22Z</time>
      </trkpt>
      <trkpt lat="43.35774" lon="-1.061">
        <ele>106.8</ele>
        <time>2022-09-11T08:32:24Z</time>
      </trkpt>
      <trkpt lat="43.35796" lon="-1.061">
        <ele>106.2</ele>
        <time>2022-09-11T08:32:31Z</time>
      </trkpt>
      <trkpt lat="43.35799" lon="-1.061">
        <ele>106.2</ele>
        <time>2022-09-11T08:33:13Z</time>
      </trkpt>
      <trkpt lat="43.35804" lon="-1.06098">
        <ele>106.2</ele>
        <time>2022-09-11T08:33:15Z</time>
      </trkpt>
      <trkpt lat="43.3582" lon="-1.06093">
        <ele>105.8</ele>
        <time>2022-09-11T08:33:20Z</time>
      </trkpt>
      <trkpt lat="43.35824" lon="-1.06091">
        <ele>105.6</ele>
        <time>2022-09-11T08:33:21Z</time>
      </trkpt>
      <trkpt lat="43.35834" lon="-1.06086">
        <ele>104.8</ele>
        <time>2022-09-11T08:33:25Z</time>
      </trkpt>
      <trkpt lat="43.35837" lon="-1.06084">
        <ele>104.4</ele>
        <time>2022-09-11T08:33:26Z</time>
      </trkpt>
      <trkpt lat="43.35841" lon="-1.06083">
        <ele>103.8</ele>
        <time>2022-09-11T08:33:27Z</time>
      </trkpt>
      <trkpt lat="43.35845" lon="-1.06081">
        <ele>103.6</ele>
        <time>2022-09-11T08:33:28Z</time>
      </trkpt>
      <trkpt lat="43.35862" lon="-1.06073">
        <ele>102.8</ele>
        <time>2022-09-11T08:33:32Z</time>
      </trkpt>
      <trkpt lat="43.35866" lon="-1.0607">
        <ele>102.6</ele>
        <time>2022-09-11T08:33:33Z</time>
      </trkpt>
      <trkpt lat="43.35882" lon="-1.0606">
        <ele>102</ele>
        <time>2022-09-11T08:33:37Z</time>
      </trkpt>
      <trkpt lat="43.3591" lon="-1.06046">
        <ele>101.2</ele>
        <time>2022-09-11T08:33:44Z</time>
      </trkpt>
      <trkpt lat="43.35929" lon="-1.06035">
        <ele>100</ele>
        <time>2022-09-11T08:33:49Z</time>
      </trkpt>
      <trkpt lat="43.35933" lon="-1.06033">
        <ele>99.8</ele>
        <time>2022-09-11T08:33:50Z</time>
      </trkpt>
      <trkpt lat="43.35938" lon="-1.06031">
        <ele>99.2</ele>
        <time>2022-09-11T08:33:51Z</time>
      </trkpt>
      <trkpt lat="43.35942" lon="-1.06029">
        <ele>98.8</ele>
        <time>2022-09-11T08:33:52Z</time>
      </trkpt>
      <trkpt lat="43.35954" lon="-1.0602">
        <ele>97.4</ele>
        <time>2022-09-11T08:33:55Z</time>
      </trkpt>
      <trkpt lat="43.35958" lon="-1.06019">
        <ele>97.2</ele>
        <time>2022-09-11T08:33:56Z</time>
      </trkpt>
      <trkpt lat="43.35968" lon="-1.06015">
        <ele>97</ele>
        <time>2022-09-11T08:33:58Z</time>
      </trkpt>
      <trkpt lat="43.35975" lon="-1.06013">
        <ele>96.8</ele>
        <time>2022-09-11T08:33:59Z</time>
      </trkpt>
      <trkpt lat="43.35998" lon="-1.0601">
        <ele>96</ele>
        <time>2022-09-11T08:34:08Z</time>
      </trkpt>
      <trkpt lat="43.36" lon="-1.06011">
        <ele>96</ele>
        <time>2022-09-11T08:34:09Z</time>
      </trkpt>
      <trkpt lat="43.36007" lon="-1.06025">
        <ele>95.6</ele>
        <time>2022-09-11T08:34:14Z</time>
      </trkpt>
      <trkpt lat="43.36008" lon="-1.06028">
        <ele>95.4</ele>
        <time>2022-09-11T08:34:15Z</time>
      </trkpt>
      <trkpt lat="43.36009" lon="-1.0603">
        <ele>95.2</ele>
        <time>2022-09-11T08:34:16Z</time>
      </trkpt>
      <trkpt lat="43.36013" lon="-1.06039">
        <ele>95</ele>
        <time>2022-09-11T08:34:19Z</time>
      </trkpt>
      <trkpt lat="43.36017" lon="-1.0605">
        <ele>94</ele>
        <time>2022-09-11T08:34:23Z</time>
      </trkpt>
      <trkpt lat="43.36022" lon="-1.06058">
        <ele>93.2</ele>
        <time>2022-09-11T08:34:26Z</time>
      </trkpt>
      <trkpt lat="43.36024" lon="-1.06061">
        <ele>92.8</ele>
        <time>2022-09-11T08:34:27Z</time>
      </trkpt>
      <trkpt lat="43.3603" lon="-1.06068">
        <ele>91.4</ele>
        <time>2022-09-11T08:34:30Z</time>
      </trkpt>
      <trkpt lat="43.36033" lon="-1.06073">
        <ele>90.6</ele>
        <time>2022-09-11T08:34:32Z</time>
      </trkpt>
      <trkpt lat="43.36034" lon="-1.06075">
        <ele>90.2</ele>
        <time>2022-09-11T08:34:33Z</time>
      </trkpt>
      <trkpt lat="43.3604" lon="-1.06083">
        <ele>89.2</ele>
        <time>2022-09-11T08:34:37Z</time>
      </trkpt>
      <trkpt lat="43.36041" lon="-1.06084">
        <ele>89</ele>
        <time>2022-09-11T08:34:38Z</time>
      </trkpt>
      <trkpt lat="43.36045" lon="-1.06086">
        <ele>88.6</ele>
        <time>2022-09-11T08:34:40Z</time>
      </trkpt>
      <trkpt lat="43.36048" lon="-1.06084">
        <ele>88.8</ele>
        <time>2022-09-11T08:34:42Z</time>
      </trkpt>
      <trkpt lat="43.36053" lon="-1.06081">
        <ele>89.6</ele>
        <time>2022-09-11T08:34:45Z</time>
      </trkpt>
      <trkpt lat="43.36061" lon="-1.06077">
        <ele>89.6</ele>
        <time>2022-09-11T08:34:49Z</time>
      </trkpt>
      <trkpt lat="43.36085" lon="-1.06063">
        <ele>88.8</ele>
        <time>2022-09-11T08:34:56Z</time>
      </trkpt>
      <trkpt lat="43.36102" lon="-1.06049">
        <ele>88</ele>
        <time>2022-09-11T08:35:00Z</time>
      </trkpt>
      <trkpt lat="43.36114" lon="-1.06037">
        <ele>87.4</ele>
        <time>2022-09-11T08:35:03Z</time>
      </trkpt>
      <trkpt lat="43.36126" lon="-1.06016">
        <ele>87</ele>
        <time>2022-09-11T08:35:08Z</time>
      </trkpt>
      <trkpt lat="43.36126" lon="-1.06004">
        <ele>87.4</ele>
        <time>2022-09-11T08:35:13Z</time>
      </trkpt>
      <trkpt lat="43.36124" lon="-1.05995">
        <ele>87.8</ele>
        <time>2022-09-11T08:35:18Z</time>
      </trkpt>
      <trkpt lat="43.36124" lon="-1.05993">
        <ele>87.8</ele>
        <time>2022-09-11T08:35:19Z</time>
      </trkpt>
      <trkpt lat="43.36125" lon="-1.05984">
        <ele>87.6</ele>
        <time>2022-09-11T08:39:43Z</time>
      </trkpt>
      <trkpt lat="43.36125" lon="-1.05988">
        <ele>87.6</ele>
        <time>2022-09-11T08:39:44Z</time>
      </trkpt>
      <trkpt lat="43.36126" lon="-1.0601">
        <ele>87</ele>
        <time>2022-09-11T08:39:50Z</time>
      </trkpt>
      <trkpt lat="43.36126" lon="-1.06013">
        <ele>87</ele>
        <time>2022-09-11T08:39:51Z</time>
      </trkpt>
      <trkpt lat="43.36126" lon="-1.0602">
        <ele>86.4</ele>
        <time>2022-09-11T08:39:54Z</time>
      </trkpt>
      <trkpt lat="43.36129" lon="-1.0602">
        <ele>85.6</ele>
        <time>2022-09-11T08:39:57Z</time>
      </trkpt>
      <trkpt lat="43.36129" lon="-1.06019">
        <ele>85.2</ele>
        <time>2022-09-11T08:39:58Z</time>
      </trkpt>
      <trkpt lat="43.36151" lon="-1.06017">
        <ele>75</ele>
        <time>2022-09-11T08:40:20Z</time>
      </trkpt>
      <trkpt lat="43.36154" lon="-1.06017">
        <ele>74.4</ele>
        <time>2022-09-11T08:40:21Z</time>
      </trkpt>
      <trkpt lat="43.36157" lon="-1.06016">
        <ele>73.8</ele>
        <time>2022-09-11T08:40:22Z</time>
      </trkpt>
      <trkpt lat="43.36166" lon="-1.06012">
        <ele>72.6</ele>
        <time>2022-09-11T08:40:25Z</time>
      </trkpt>
      <trkpt lat="43.36168" lon="-1.0601">
        <ele>72.2</ele>
        <time>2022-09-11T08:40:26Z</time>
      </trkpt>
      <trkpt lat="43.36174" lon="-1.06006">
        <ele>71.2</ele>
        <time>2022-09-11T08:40:28Z</time>
      </trkpt>
      <trkpt lat="43.36178" lon="-1.06002">
        <ele>70.2</ele>
        <time>2022-09-11T08:40:30Z</time>
      </trkpt>
      <trkpt lat="43.36186" lon="-1.05998">
        <ele>69.2</ele>
        <time>2022-09-11T08:40:32Z</time>
      </trkpt>
      <trkpt lat="43.36189" lon="-1.05997">
        <ele>68.8</ele>
        <time>2022-09-11T08:40:33Z</time>
      </trkpt>
      <trkpt lat="43.36207" lon="-1.05988">
        <ele>65.8</ele>
        <time>2022-09-11T08:40:39Z</time>
      </trkpt>
      <trkpt lat="43.3621" lon="-1.05987">
        <ele>64.6</ele>
        <time>2022-09-11T08:40:40Z</time>
      </trkpt>
      <trkpt lat="43.36216" lon="-1.05983">
        <ele>64.2</ele>
        <time>2022-09-11T08:40:42Z</time>
      </trkpt>
      <trkpt lat="43.36271" lon="-1.05952">
        <ele>62.4</ele>
        <time>2022-09-11T08:42:12Z</time>
      </trkpt>
      <trkpt lat="43.36274" lon="-1.05947">
        <ele>62.2</ele>
        <time>2022-09-11T08:42:14Z</time>
      </trkpt>
      <trkpt lat="43.3628" lon="-1.05939">
        <ele>62.2</ele>
        <time>2022-09-11T08:42:20Z</time>
      </trkpt>
      <trkpt lat="43.36287" lon="-1.05934">
        <ele>62</ele>
        <time>2022-09-11T08:42:25Z</time>
      </trkpt>
      <trkpt lat="43.36289" lon="-1.05932">
        <ele>62</ele>
        <time>2022-09-11T08:42:26Z</time>
      </trkpt>
      <trkpt lat="43.363" lon="-1.05928">
        <ele>61.6</ele>
        <time>2022-09-11T08:42:32Z</time>
      </trkpt>
      <trkpt lat="43.36306" lon="-1.05927">
        <ele>61.4</ele>
        <time>2022-09-11T08:42:36Z</time>
      </trkpt>
      <trkpt lat="43.36312" lon="-1.05927">
        <ele>61.2</ele>
        <time>2022-09-11T08:42:38Z</time>
      </trkpt>
      <trkpt lat="43.36322" lon="-1.05926">
        <ele>61</ele>
        <time>2022-09-11T08:42:43Z</time>
      </trkpt>
      <trkpt lat="43.36323" lon="-1.05925">
        <ele>61</ele>
        <time>2022-09-11T08:42:44Z</time>
      </trkpt>
      <trkpt lat="43.36336" lon="-1.05916">
        <ele>60.2</ele>
        <time>2022-09-11T08:42:52Z</time>
      </trkpt>
      <trkpt lat="43.36349" lon="-1.05911">
        <ele>59.8</ele>
        <time>2022-09-11T08:42:58Z</time>
      </trkpt>
      <trkpt lat="43.36368" lon="-1.05907">
        <ele>59.6</ele>
        <time>2022-09-11T08:43:06Z</time>
      </trkpt>
      <trkpt lat="43.36388" lon="-1.05903">
        <ele>59.8</ele>
        <time>2022-09-11T08:43:13Z</time>
      </trkpt>
      <trkpt lat="43.3641" lon="-1.05892">
        <ele>59.2</ele>
        <time>2022-09-11T08:43:19Z</time>
      </trkpt>
      <trkpt lat="43.36432" lon="-1.05882">
        <ele>58.8</ele>
        <time>2022-09-11T08:43:25Z</time>
      </trkpt>
      <trkpt lat="43.36448" lon="-1.0588">
        <ele>59.4</ele>
        <time>2022-09-11T08:43:30Z</time>
      </trkpt>
      <trkpt lat="43.36456" lon="-1.0588">
        <ele>59.8</ele>
        <time>2022-09-11T08:43:32Z</time>
      </trkpt>
      <trkpt lat="43.36465" lon="-1.05884">
        <ele>60.2</ele>
        <time>2022-09-11T08:43:35Z</time>
      </trkpt>
      <trkpt lat="43.36467" lon="-1.05885">
        <ele>60.4</ele>
        <time>2022-09-11T08:43:36Z</time>
      </trkpt>
      <trkpt lat="43.36474" lon="-1.05897">
        <ele>61.2</ele>
        <time>2022-09-11T08:43:43Z</time>
      </trkpt>
      <trkpt lat="43.36475" lon="-1.05899">
        <ele>61.2</ele>
        <time>2022-09-11T08:43:44Z</time>
      </trkpt>
      <trkpt lat="43.36477" lon="-1.05909">
        <ele>61.6</ele>
        <time>2022-09-11T08:43:48Z</time>
      </trkpt>
      <trkpt lat="43.36482" lon="-1.05914">
        <ele>61.6</ele>
        <time>2022-09-11T08:43:51Z</time>
      </trkpt>
      <trkpt lat="43.36485" lon="-1.05918">
        <ele>62.4</ele>
        <time>2022-09-11T08:43:53Z</time>
      </trkpt>
      <trkpt lat="43.36492" lon="-1.05925">
        <ele>62.8</ele>
        <time>2022-09-11T08:43:58Z</time>
      </trkpt>
      <trkpt lat="43.36496" lon="-1.05933">
        <ele>63.4</ele>
        <time>2022-09-11T08:44:02Z</time>
      </trkpt>
      <trkpt lat="43.36498" lon="-1.05937">
        <ele>63.8</ele>
        <time>2022-09-11T08:44:04Z</time>
      </trkpt>
      <trkpt lat="43.36502" lon="-1.05952">
        <ele>64.4</ele>
        <time>2022-09-11T08:44:11Z</time>
      </trkpt>
      <trkpt lat="43.36503" lon="-1.05954">
        <ele>64.6</ele>
        <time>2022-09-11T08:44:12Z</time>
      </trkpt>
      <trkpt lat="43.36506" lon="-1.05964">
        <ele>65.4</ele>
        <time>2022-09-11T08:44:19Z</time>
      </trkpt>
      <trkpt lat="43.36507" lon="-1.05966">
        <ele>65.6</ele>
        <time>2022-09-11T08:44:20Z</time>
      </trkpt>
      <trkpt lat="43.36508" lon="-1.05969">
        <ele>65.8</ele>
        <time>2022-09-11T08:44:22Z</time>
      </trkpt>
      <trkpt lat="43.36512" lon="-1.05977">
        <ele>66.2</ele>
        <time>2022-09-11T08:44:26Z</time>
      </trkpt>
      <trkpt lat="43.36517" lon="-1.05982">
        <ele>66.6</ele>
        <time>2022-09-11T08:44:30Z</time>
      </trkpt>
      <trkpt lat="43.36521" lon="-1.0598">
        <ele>66.4</ele>
        <time>2022-09-11T08:44:32Z</time>
      </trkpt>
      <trkpt lat="43.36526" lon="-1.05977">
        <ele>66.6</ele>
        <time>2022-09-11T08:44:35Z</time>
      </trkpt>
      <trkpt lat="43.36534" lon="-1.05975">
        <ele>66.8</ele>
        <time>2022-09-11T08:44:39Z</time>
      </trkpt>
      <trkpt lat="43.3655" lon="-1.05974">
        <ele>66.8</ele>
        <time>2022-09-11T08:44:46Z</time>
      </trkpt>
      <trkpt lat="43.3657" lon="-1.05966">
        <ele>66.2</ele>
        <time>2022-09-11T08:44:53Z</time>
      </trkpt>
      <trkpt lat="43.36588" lon="-1.05956">
        <ele>66.2</ele>
        <time>2022-09-11T08:45:00Z</time>
      </trkpt>
      <trkpt lat="43.36591" lon="-1.05956">
        <ele>66.2</ele>
        <time>2022-09-11T08:45:01Z</time>
      </trkpt>
      <trkpt lat="43.36597" lon="-1.0596">
        <ele>66.6</ele>
        <time>2022-09-11T08:45:05Z</time>
      </trkpt>
      <trkpt lat="43.36599" lon="-1.05961">
        <ele>66.8</ele>
        <time>2022-09-11T08:45:06Z</time>
      </trkpt>
      <trkpt lat="43.36603" lon="-1.05967">
        <ele>67.4</ele>
        <time>2022-09-11T08:45:10Z</time>
      </trkpt>
      <trkpt lat="43.36604" lon="-1.05969">
        <ele>67.8</ele>
        <time>2022-09-11T08:45:12Z</time>
      </trkpt>
      <trkpt lat="43.36608" lon="-1.05973">
        <ele>68.2</ele>
        <time>2022-09-11T08:45:16Z</time>
      </trkpt>
      <trkpt lat="43.3661" lon="-1.05977">
        <ele>68.8</ele>
        <time>2022-09-11T08:45:19Z</time>
      </trkpt>
      <trkpt lat="43.36614" lon="-1.05983">
        <ele>69.8</ele>
        <time>2022-09-11T08:45:23Z</time>
      </trkpt>
      <trkpt lat="43.36618" lon="-1.05987">
        <ele>71</ele>
        <time>2022-09-11T08:45:27Z</time>
      </trkpt>
      <trkpt lat="43.36681" lon="-1.06024">
        <ele>89.6</ele>
        <time>2022-09-11T08:50:45Z</time>
      </trkpt>
      <trkpt lat="43.36692" lon="-1.0601">
        <ele>89.2</ele>
        <time>2022-09-11T08:50:50Z</time>
      </trkpt>
      <trkpt lat="43.36694" lon="-1.06008">
        <ele>89.4</ele>
        <time>2022-09-11T08:50:51Z</time>
      </trkpt>
      <trkpt lat="43.36701" lon="-1.06003">
        <ele>89.8</ele>
        <time>2022-09-11T08:50:54Z</time>
      </trkpt>
      <trkpt lat="43.36708" lon="-1.05994">
        <ele>90.6</ele>
        <time>2022-09-11T08:50:59Z</time>
      </trkpt>
      <trkpt lat="43.36709" lon="-1.05992">
        <ele>90.6</ele>
        <time>2022-09-11T08:51:00Z</time>
      </trkpt>
      <trkpt lat="43.36718" lon="-1.05982">
        <ele>90.8</ele>
        <time>2022-09-11T08:51:05Z</time>
      </trkpt>
      <trkpt lat="43.36725" lon="-1.05978">
        <ele>90.8</ele>
        <time>2022-09-11T08:51:09Z</time>
      </trkpt>
      <trkpt lat="43.36727" lon="-1.05978">
        <ele>91</ele>
        <time>2022-09-11T08:51:10Z</time>
      </trkpt>
      <trkpt lat="43.36732" lon="-1.05982">
        <ele>92</ele>
        <time>2022-09-11T08:51:13Z</time>
      </trkpt>
      <trkpt lat="43.36734" lon="-1.05983">
        <ele>92.4</ele>
        <time>2022-09-11T08:51:14Z</time>
      </trkpt>
      <trkpt lat="43.36736" lon="-1.05984">
        <ele>93</ele>
        <time>2022-09-11T08:51:16Z</time>
      </trkpt>
      <trkpt lat="43.36738" lon="-1.05984">
        <ele>93.2</ele>
        <time>2022-09-11T08:51:18Z</time>
      </trkpt>
      <trkpt lat="43.36746" lon="-1.05982">
        <ele>94</ele>
        <time>2022-09-11T08:51:23Z</time>
      </trkpt>
      <trkpt lat="43.36747" lon="-1.05982">
        <ele>94</ele>
        <time>2022-09-11T08:51:24Z</time>
      </trkpt>
      <trkpt lat="43.36755" lon="-1.05983">
        <ele>94</ele>
        <time>2022-09-11T08:51:28Z</time>
      </trkpt>
      <trkpt lat="43.36764" lon="-1.05984">
        <ele>94.2</ele>
        <time>2022-09-11T08:51:34Z</time>
      </trkpt>
      <trkpt lat="43.36775" lon="-1.05988">
        <ele>94.6</ele>
        <time>2022-09-11T08:51:39Z</time>
      </trkpt>
      <trkpt lat="43.36794" lon="-1.05997">
        <ele>94</ele>
        <time>2022-09-11T08:51:46Z</time>
      </trkpt>
      <trkpt lat="43.36804" lon="-1.06">
        <ele>93.2</ele>
        <time>2022-09-11T08:51:50Z</time>
      </trkpt>
      <trkpt lat="43.36811" lon="-1.06002">
        <ele>92.6</ele>
        <time>2022-09-11T08:51:52Z</time>
      </trkpt>
      <trkpt lat="43.36819" lon="-1.06004">
        <ele>91.6</ele>
        <time>2022-09-11T08:51:55Z</time>
      </trkpt>
      <trkpt lat="43.36833" lon="-1.0601">
        <ele>91.6</ele>
        <time>2022-09-11T08:52:03Z</time>
      </trkpt>
      <trkpt lat="43.36844" lon="-1.06017">
        <ele>91.8</ele>
        <time>2022-09-11T08:52:14Z</time>
      </trkpt>
      <trkpt lat="43.36855" lon="-1.06025">
        <ele>91.6</ele>
        <time>2022-09-11T08:52:19Z</time>
      </trkpt>
      <trkpt lat="43.36863" lon="-1.06034">
        <ele>90.8</ele>
        <time>2022-09-11T08:52:23Z</time>
      </trkpt>
      <trkpt lat="43.36873" lon="-1.06044">
        <ele>90.4</ele>
        <time>2022-09-11T08:52:26Z</time>
      </trkpt>
      <trkpt lat="43.36875" lon="-1.06049">
        <ele>90.2</ele>
        <time>2022-09-11T08:52:27Z</time>
      </trkpt>
      <trkpt lat="43.36876" lon="-1.06053">
        <ele>90.2</ele>
        <time>2022-09-11T08:52:28Z</time>
      </trkpt>
      <trkpt lat="43.36881" lon="-1.06061">
        <ele>90.2</ele>
        <time>2022-09-11T08:52:31Z</time>
      </trkpt>
      <trkpt lat="43.36883" lon="-1.06069">
        <ele>90</ele>
        <time>2022-09-11T08:52:33Z</time>
      </trkpt>
      <trkpt lat="43.36889" lon="-1.06082">
        <ele>89</ele>
        <time>2022-09-11T08:52:36Z</time>
      </trkpt>
      <trkpt lat="43.36891" lon="-1.06086">
        <ele>88.2</ele>
        <time>2022-09-11T08:52:37Z</time>
      </trkpt>
      <trkpt lat="43.36893" lon="-1.06089">
        <ele>87.6</ele>
        <time>2022-09-11T08:52:38Z</time>
      </trkpt>
      <trkpt lat="43.36897" lon="-1.06096">
        <ele>86.4</ele>
        <time>2022-09-11T08:52:40Z</time>
      </trkpt>
      <trkpt lat="43.36902" lon="-1.06105">
        <ele>85.4</ele>
        <time>2022-09-11T08:52:43Z</time>
      </trkpt>
      <trkpt lat="43.36904" lon="-1.06108">
        <ele>85</ele>
        <time>2022-09-11T08:52:44Z</time>
      </trkpt>
      <trkpt lat="43.36908" lon="-1.06114">
        <ele>84.2</ele>
        <time>2022-09-11T08:52:46Z</time>
      </trkpt>
      <trkpt lat="43.36923" lon="-1.06104">
        <ele>83.6</ele>
        <time>2022-09-11T08:52:50Z</time>
      </trkpt>
      <trkpt lat="43.36936" lon="-1.06089">
        <ele>83.2</ele>
        <time>2022-09-11T08:52:53Z</time>
      </trkpt>
      <trkpt lat="43.3695" lon="-1.0607">
        <ele>82.2</ele>
        <time>2022-09-11T08:52:56Z</time>
      </trkpt>
      <trkpt lat="43.36971" lon="-1.0604">
        <ele>80.8</ele>
        <time>2022-09-11T08:53:00Z</time>
      </trkpt>
      <trkpt lat="43.36982" lon="-1.06025">
        <ele>80.6</ele>
        <time>2022-09-11T08:53:02Z</time>
      </trkpt>
      <trkpt lat="43.36997" lon="-1.06003">
        <ele>79.6</ele>
        <time>2022-09-11T08:53:05Z</time>
      </trkpt>
      <trkpt lat="43.37022" lon="-1.05968">
        <ele>79</ele>
        <time>2022-09-11T08:53:10Z</time>
      </trkpt>
      <trkpt lat="43.3704" lon="-1.05941">
        <ele>78.6</ele>
        <time>2022-09-11T08:53:14Z</time>
      </trkpt>
      <trkpt lat="43.37049" lon="-1.05929">
        <ele>78</ele>
        <time>2022-09-11T08:53:16Z</time>
      </trkpt>
      <trkpt lat="43.37057" lon="-1.05918">
        <ele>77.4</ele>
        <time>2022-09-11T08:53:18Z</time>
      </trkpt>
      <trkpt lat="43.37061" lon="-1.05914">
        <ele>76.8</ele>
        <time>2022-09-11T08:53:19Z</time>
      </trkpt>
      <trkpt lat="43.37071" lon="-1.05909">
        <ele>76.2</ele>
        <time>2022-09-11T08:53:21Z</time>
      </trkpt>
      <trkpt lat="43.37084" lon="-1.05906">
        <ele>75.6</ele>
        <time>2022-09-11T08:53:23Z</time>
      </trkpt>
      <trkpt lat="43.37099" lon="-1.05902">
        <ele>74.6</ele>
        <time>2022-09-11T08:53:25Z</time>
      </trkpt>
      <trkpt lat="43.37115" lon="-1.05903">
        <ele>73.6</ele>
        <time>2022-09-11T08:53:27Z</time>
      </trkpt>
      <trkpt lat="43.37125" lon="-1.05905">
        <ele>73</ele>
        <time>2022-09-11T08:53:28Z</time>
      </trkpt>
      <trkpt lat="43.37134" lon="-1.05908">
        <ele>72.2</ele>
        <time>2022-09-11T08:53:29Z</time>
      </trkpt>
      <trkpt lat="43.37164" lon="-1.0592">
        <ele>71.2</ele>
        <time>2022-09-11T08:53:32Z</time>
      </trkpt>
      <trkpt lat="43.37184" lon="-1.05928">
        <ele>69.6</ele>
        <time>2022-09-11T08:53:34Z</time>
      </trkpt>
      <trkpt lat="43.37224" lon="-1.05944">
        <ele>68.6</ele>
        <time>2022-09-11T08:53:38Z</time>
      </trkpt>
      <trkpt lat="43.37233" lon="-1.05948">
        <ele>68.2</ele>
        <time>2022-09-11T08:53:39Z</time>
      </trkpt>
      <trkpt lat="43.37251" lon="-1.05956">
        <ele>67.4</ele>
        <time>2022-09-11T08:53:41Z</time>
      </trkpt>
      <trkpt lat="43.37278" lon="-1.05966">
        <ele>66.2</ele>
        <time>2022-09-11T08:53:44Z</time>
      </trkpt>
      <trkpt lat="43.37295" lon="-1.05973">
        <ele>65.4</ele>
        <time>2022-09-11T08:53:46Z</time>
      </trkpt>
      <trkpt lat="43.37311" lon="-1.0598">
        <ele>65</ele>
        <time>2022-09-11T08:53:48Z</time>
      </trkpt>
      <trkpt lat="43.37357" lon="-1.06">
        <ele>64.6</ele>
        <time>2022-09-11T08:53:54Z</time>
      </trkpt>
      <trkpt lat="43.37379" lon="-1.06009">
        <ele>63.8</ele>
        <time>2022-09-11T08:53:57Z</time>
      </trkpt>
      <trkpt lat="43.37429" lon="-1.06029">
        <ele>63.6</ele>
        <time>2022-09-11T08:54:04Z</time>
      </trkpt>
      <trkpt lat="43.37483" lon="-1.06052">
        <ele>63</ele>
        <time>2022-09-11T08:54:12Z</time>
      </trkpt>
      <trkpt lat="43.37494" lon="-1.06057">
        <ele>63.2</ele>
        <time>2022-09-11T08:54:14Z</time>
      </trkpt>
      <trkpt lat="43.37516" lon="-1.06068">
        <ele>64.2</ele>
        <time>2022-09-11T08:54:19Z</time>
      </trkpt>
      <trkpt lat="43.37545" lon="-1.06082">
        <ele>64.8</ele>
        <time>2022-09-11T08:54:27Z</time>
      </trkpt>
      <trkpt lat="43.37549" lon="-1.06084">
        <ele>64.8</ele>
        <time>2022-09-11T08:54:28Z</time>
      </trkpt>
      <trkpt lat="43.37565" lon="-1.0609">
        <ele>65.2</ele>
        <time>2022-09-11T08:54:33Z</time>
      </trkpt>
      <trkpt lat="43.37587" lon="-1.06096">
        <ele>65</ele>
        <time>2022-09-11T08:54:39Z</time>
      </trkpt>
      <trkpt lat="43.37598" lon="-1.06096">
        <ele>64</ele>
        <time>2022-09-11T08:54:41Z</time>
      </trkpt>
      <trkpt lat="43.37604" lon="-1.06096">
        <ele>63.8</ele>
        <time>2022-09-11T08:54:42Z</time>
      </trkpt>
      <trkpt lat="43.37611" lon="-1.06097">
        <ele>63.4</ele>
        <time>2022-09-11T08:54:43Z</time>
      </trkpt>
      <trkpt lat="43.37617" lon="-1.06098">
        <ele>63.2</ele>
        <time>2022-09-11T08:54:44Z</time>
      </trkpt>
      <trkpt lat="43.37637" lon="-1.06106">
        <ele>62.6</ele>
        <time>2022-09-11T08:54:47Z</time>
      </trkpt>
      <trkpt lat="43.37686" lon="-1.06127">
        <ele>61.8</ele>
        <time>2022-09-11T08:54:54Z</time>
      </trkpt>
      <trkpt lat="43.37708" lon="-1.06123">
        <ele>61.8</ele>
        <time>2022-09-11T08:54:57Z</time>
      </trkpt>
      <trkpt lat="43.37714" lon="-1.06119">
        <ele>61.4</ele>
        <time>2022-09-11T08:54:58Z</time>
      </trkpt>
      <trkpt lat="43.3772" lon="-1.06114">
        <ele>61.4</ele>
        <time>2022-09-11T08:54:59Z</time>
      </trkpt>
      <trkpt lat="43.37732" lon="-1.06107">
        <ele>61.2</ele>
        <time>2022-09-11T08:55:01Z</time>
      </trkpt>
      <trkpt lat="43.37745" lon="-1.06102">
        <ele>61</ele>
        <time>2022-09-11T08:55:03Z</time>
      </trkpt>
      <trkpt lat="43.37759" lon="-1.06101">
        <ele>60.4</ele>
        <time>2022-09-11T08:55:05Z</time>
      </trkpt>
      <trkpt lat="43.37773" lon="-1.06102">
        <ele>60.2</ele>
        <time>2022-09-11T08:55:07Z</time>
      </trkpt>
      <trkpt lat="43.37802" lon="-1.06105">
        <ele>59.6</ele>
        <time>2022-09-11T08:55:11Z</time>
      </trkpt>
      <trkpt lat="43.3781" lon="-1.06107">
        <ele>59.2</ele>
        <time>2022-09-11T08:55:12Z</time>
      </trkpt>
      <trkpt lat="43.37833" lon="-1.06112">
        <ele>58</ele>
        <time>2022-09-11T08:55:15Z</time>
      </trkpt>
      <trkpt lat="43.37849" lon="-1.06115">
        <ele>57.2</ele>
        <time>2022-09-11T08:55:17Z</time>
      </trkpt>
      <trkpt lat="43.37856" lon="-1.06115">
        <ele>57</ele>
        <time>2022-09-11T08:55:18Z</time>
      </trkpt>
      <trkpt lat="43.37881" lon="-1.06114">
        <ele>55.8</ele>
        <time>2022-09-11T08:55:21Z</time>
      </trkpt>
      <trkpt lat="43.37889" lon="-1.06115">
        <ele>55.2</ele>
        <time>2022-09-11T08:55:22Z</time>
      </trkpt>
      <trkpt lat="43.37896" lon="-1.06117">
        <ele>54.6</ele>
        <time>2022-09-11T08:55:23Z</time>
      </trkpt>
      <trkpt lat="43.37917" lon="-1.06127">
        <ele>53.8</ele>
        <time>2022-09-11T08:55:26Z</time>
      </trkpt>
      <trkpt lat="43.37928" lon="-1.06133">
        <ele>53.6</ele>
        <time>2022-09-11T08:55:28Z</time>
      </trkpt>
      <trkpt lat="43.37938" lon="-1.06136">
        <ele>53</ele>
        <time>2022-09-11T08:55:30Z</time>
      </trkpt>
      <trkpt lat="43.37942" lon="-1.06139">
        <ele>53</ele>
        <time>2022-09-11T08:55:31Z</time>
      </trkpt>
      <trkpt lat="43.3795" lon="-1.06148">
        <ele>53.2</ele>
        <time>2022-09-11T08:55:34Z</time>
      </trkpt>
      <trkpt lat="43.37958" lon="-1.06172">
        <ele>53.8</ele>
        <time>2022-09-11T08:55:40Z</time>
      </trkpt>
      <trkpt lat="43.37959" lon="-1.06176">
        <ele>54</ele>
        <time>2022-09-11T08:55:41Z</time>
      </trkpt>
      <trkpt lat="43.37962" lon="-1.0618">
        <ele>54.6</ele>
        <time>2022-09-11T08:55:43Z</time>
      </trkpt>
      <trkpt lat="43.37965" lon="-1.06184">
        <ele>55</ele>
        <time>2022-09-11T08:55:45Z</time>
      </trkpt>
      <trkpt lat="43.37969" lon="-1.06184">
        <ele>55.4</ele>
        <time>2022-09-11T08:55:47Z</time>
      </trkpt>
      <trkpt lat="43.37971" lon="-1.06183">
        <ele>55.6</ele>
        <time>2022-09-11T08:55:48Z</time>
      </trkpt>
      <trkpt lat="43.37974" lon="-1.06182">
        <ele>55.8</ele>
        <time>2022-09-11T08:55:49Z</time>
      </trkpt>
      <trkpt lat="43.3798" lon="-1.06178">
        <ele>55.6</ele>
        <time>2022-09-11T08:55:51Z</time>
      </trkpt>
      <trkpt lat="43.37992" lon="-1.06171">
        <ele>55.8</ele>
        <time>2022-09-11T08:55:56Z</time>
      </trkpt>
      <trkpt lat="43.3801" lon="-1.06161">
        <ele>56.8</ele>
        <time>2022-09-11T08:56:02Z</time>
      </trkpt>
      <trkpt lat="43.38015" lon="-1.06158">
        <ele>57.4</ele>
        <time>2022-09-11T08:56:04Z</time>
      </trkpt>
      <trkpt lat="43.38021" lon="-1.06156">
        <ele>58</ele>
        <time>2022-09-11T08:56:06Z</time>
      </trkpt>
      <trkpt lat="43.38034" lon="-1.0615">
        <ele>59</ele>
        <time>2022-09-11T08:56:11Z</time>
      </trkpt>
      <trkpt lat="43.38036" lon="-1.06149">
        <ele>59.2</ele>
        <time>2022-09-11T08:56:12Z</time>
      </trkpt>
      <trkpt lat="43.3805" lon="-1.06142">
        <ele>60.4</ele>
        <time>2022-09-11T08:56:18Z</time>
      </trkpt>
      <trkpt lat="43.38052" lon="-1.06141">
        <ele>60.6</ele>
        <time>2022-09-11T08:56:19Z</time>
      </trkpt>
      <trkpt lat="43.38065" lon="-1.06135">
        <ele>61.6</ele>
        <time>2022-09-11T08:56:25Z</time>
      </trkpt>
      <trkpt lat="43.38068" lon="-1.06134">
        <ele>61.8</ele>
        <time>2022-09-11T08:56:26Z</time>
      </trkpt>
      <trkpt lat="43.3808" lon="-1.06126">
        <ele>62.8</ele>
        <time>2022-09-11T08:56:31Z</time>
      </trkpt>
      <trkpt lat="43.38085" lon="-1.06123">
        <ele>63.2</ele>
        <time>2022-09-11T08:56:33Z</time>
      </trkpt>
      <trkpt lat="43.38098" lon="-1.06117">
        <ele>63.8</ele>
        <time>2022-09-11T08:56:38Z</time>
      </trkpt>
      <trkpt lat="43.38101" lon="-1.06116">
        <ele>63.8</ele>
        <time>2022-09-11T08:56:39Z</time>
      </trkpt>
      <trkpt lat="43.3812" lon="-1.06105">
        <ele>64.2</ele>
        <time>2022-09-11T08:56:46Z</time>
      </trkpt>
      <trkpt lat="43.38152" lon="-1.06088">
        <ele>64.4</ele>
        <time>2022-09-11T08:56:56Z</time>
      </trkpt>
      <trkpt lat="43.38185" lon="-1.06072">
        <ele>64</ele>
        <time>2022-09-11T08:57:05Z</time>
      </trkpt>
      <trkpt lat="43.3821" lon="-1.06058">
        <ele>63.6</ele>
        <time>2022-09-11T08:57:12Z</time>
      </trkpt>
      <trkpt lat="43.38217" lon="-1.06053">
        <ele>63.6</ele>
        <time>2022-09-11T08:57:14Z</time>
      </trkpt>
      <trkpt lat="43.38231" lon="-1.06039">
        <ele>63.4</ele>
        <time>2022-09-11T08:57:18Z</time>
      </trkpt>
      <trkpt lat="43.38241" lon="-1.06026">
        <ele>63.4</ele>
        <time>2022-09-11T08:57:21Z</time>
      </trkpt>
      <trkpt lat="43.38251" lon="-1.06011">
        <ele>63.2</ele>
        <time>2022-09-11T08:57:24Z</time>
      </trkpt>
      <trkpt lat="43.38254" lon="-1.06005">
        <ele>63.2</ele>
        <time>2022-09-11T08:57:25Z</time>
      </trkpt>
      <trkpt lat="43.38264" lon="-1.05972">
        <ele>63.2</ele>
        <time>2022-09-11T08:57:30Z</time>
      </trkpt>
      <trkpt lat="43.38274" lon="-1.05915">
        <ele>64.6</ele>
        <time>2022-09-11T08:57:39Z</time>
      </trkpt>
      <trkpt lat="43.38275" lon="-1.0591">
        <ele>64.8</ele>
        <time>2022-09-11T08:57:40Z</time>
      </trkpt>
      <trkpt lat="43.38281" lon="-1.05879">
        <ele>65.8</ele>
        <time>2022-09-11T08:57:46Z</time>
      </trkpt>
      <trkpt lat="43.38282" lon="-1.05874">
        <ele>66</ele>
        <time>2022-09-11T08:57:47Z</time>
      </trkpt>
      <trkpt lat="43.38289" lon="-1.05842">
        <ele>67.2</ele>
        <time>2022-09-11T08:57:54Z</time>
      </trkpt>
      <trkpt lat="43.38294" lon="-1.05814">
        <ele>68.2</ele>
        <time>2022-09-11T08:58:01Z</time>
      </trkpt>
      <trkpt lat="43.38302" lon="-1.05788">
        <ele>69</ele>
        <time>2022-09-11T08:58:08Z</time>
      </trkpt>
      <trkpt lat="43.38307" lon="-1.0577">
        <ele>69.2</ele>
        <time>2022-09-11T08:58:13Z</time>
      </trkpt>
      <trkpt lat="43.38312" lon="-1.05758">
        <ele>69.6</ele>
        <time>2022-09-11T08:58:16Z</time>
      </trkpt>
      <trkpt lat="43.38323" lon="-1.05724">
        <ele>69.4</ele>
        <time>2022-09-11T08:58:24Z</time>
      </trkpt>
      <trkpt lat="43.38328" lon="-1.05695">
        <ele>69</ele>
        <time>2022-09-11T08:58:30Z</time>
      </trkpt>
      <trkpt lat="43.38331" lon="-1.0567">
        <ele>69</ele>
        <time>2022-09-11T08:58:35Z</time>
      </trkpt>
      <trkpt lat="43.38345" lon="-1.05662">
        <ele>68.8</ele>
        <time>2022-09-11T08:58:39Z</time>
      </trkpt>
      <trkpt lat="43.38359" lon="-1.05665">
        <ele>69</ele>
        <time>2022-09-11T08:58:44Z</time>
      </trkpt>
      <trkpt lat="43.38373" lon="-1.05682">
        <ele>69.4</ele>
        <time>2022-09-11T08:58:50Z</time>
      </trkpt>
      <trkpt lat="43.38392" lon="-1.05707">
        <ele>70</ele>
        <time>2022-09-11T08:58:58Z</time>
      </trkpt>
      <trkpt lat="43.38397" lon="-1.05713">
        <ele>70.2</ele>
        <time>2022-09-11T08:59:00Z</time>
      </trkpt>
      <trkpt lat="43.38417" lon="-1.05727">
        <ele>70.8</ele>
        <time>2022-09-11T08:59:06Z</time>
      </trkpt>
      <trkpt lat="43.38432" lon="-1.05737">
        <ele>71.4</ele>
        <time>2022-09-11T08:59:11Z</time>
      </trkpt>
      <trkpt lat="43.38438" lon="-1.0574">
        <ele>71.6</ele>
        <time>2022-09-11T08:59:13Z</time>
      </trkpt>
      <trkpt lat="43.38458" lon="-1.05758">
        <ele>71.6</ele>
        <time>2022-09-11T08:59:21Z</time>
      </trkpt>
      <trkpt lat="43.38481" lon="-1.05785">
        <ele>71.2</ele>
        <time>2022-09-11T08:59:30Z</time>
      </trkpt>
      <trkpt lat="43.38503" lon="-1.05812">
        <ele>70.4</ele>
        <time>2022-09-11T08:59:36Z</time>
      </trkpt>
      <trkpt lat="43.38506" lon="-1.05818">
        <ele>70.2</ele>
        <time>2022-09-11T08:59:37Z</time>
      </trkpt>
      <trkpt lat="43.38516" lon="-1.05843">
        <ele>69.4</ele>
        <time>2022-09-11T08:59:40Z</time>
      </trkpt>
      <trkpt lat="43.3852" lon="-1.05851">
        <ele>69</ele>
        <time>2022-09-11T08:59:41Z</time>
      </trkpt>
      <trkpt lat="43.38524" lon="-1.05859">
        <ele>68.8</ele>
        <time>2022-09-11T08:59:42Z</time>
      </trkpt>
      <trkpt lat="43.38542" lon="-1.05879">
        <ele>68.4</ele>
        <time>2022-09-11T08:59:45Z</time>
      </trkpt>
      <trkpt lat="43.38548" lon="-1.05884">
        <ele>68.4</ele>
        <time>2022-09-11T08:59:46Z</time>
      </trkpt>
      <trkpt lat="43.38567" lon="-1.05896">
        <ele>67.6</ele>
        <time>2022-09-11T08:59:49Z</time>
      </trkpt>
      <trkpt lat="43.3858" lon="-1.05903">
        <ele>67.2</ele>
        <time>2022-09-11T08:59:51Z</time>
      </trkpt>
      <trkpt lat="43.386" lon="-1.05913">
        <ele>66.6</ele>
        <time>2022-09-11T08:59:54Z</time>
      </trkpt>
      <trkpt lat="43.38637" lon="-1.05936">
        <ele>65.6</ele>
        <time>2022-09-11T09:00:00Z</time>
      </trkpt>
      <trkpt lat="43.38643" lon="-1.05941">
        <ele>65.6</ele>
        <time>2022-09-11T09:00:01Z</time>
      </trkpt>
      <trkpt lat="43.38674" lon="-1.05965">
        <ele>64.4</ele>
        <time>2022-09-11T09:00:06Z</time>
      </trkpt>
      <trkpt lat="43.38686" lon="-1.05975">
        <ele>64.2</ele>
        <time>2022-09-11T09:00:08Z</time>
      </trkpt>
      <trkpt lat="43.38712" lon="-1.05995">
        <ele>63.4</ele>
        <time>2022-09-11T09:00:12Z</time>
      </trkpt>
      <trkpt lat="43.38739" lon="-1.06015">
        <ele>62.4</ele>
        <time>2022-09-11T09:00:16Z</time>
      </trkpt>
      <trkpt lat="43.38746" lon="-1.0602">
        <ele>62.2</ele>
        <time>2022-09-11T09:00:17Z</time>
      </trkpt>
      <trkpt lat="43.38788" lon="-1.06047">
        <ele>60.8</ele>
        <time>2022-09-11T09:00:23Z</time>
      </trkpt>
      <trkpt lat="43.38826" lon="-1.06065">
        <ele>59.2</ele>
        <time>2022-09-11T09:00:28Z</time>
      </trkpt>
      <trkpt lat="43.3885" lon="-1.06074">
        <ele>58.4</ele>
        <time>2022-09-11T09:00:31Z</time>
      </trkpt>
      <trkpt lat="43.38858" lon="-1.06077">
        <ele>58</ele>
        <time>2022-09-11T09:00:32Z</time>
      </trkpt>
      <trkpt lat="43.38904" lon="-1.06094">
        <ele>57.4</ele>
        <time>2022-09-11T09:00:38Z</time>
      </trkpt>
      <trkpt lat="43.38912" lon="-1.06097">
        <ele>57</ele>
        <time>2022-09-11T09:00:39Z</time>
      </trkpt>
      <trkpt lat="43.38944" lon="-1.06104">
        <ele>56</ele>
        <time>2022-09-11T09:00:43Z</time>
      </trkpt>
      <trkpt lat="43.38952" lon="-1.06104">
        <ele>55.8</ele>
        <time>2022-09-11T09:00:44Z</time>
      </trkpt>
      <trkpt lat="43.38992" lon="-1.06099">
        <ele>54.8</ele>
        <time>2022-09-11T09:00:49Z</time>
      </trkpt>
      <trkpt lat="43.38999" lon="-1.06097">
        <ele>54.6</ele>
        <time>2022-09-11T09:00:50Z</time>
      </trkpt>
      <trkpt lat="43.3904" lon="-1.06091">
        <ele>53.8</ele>
        <time>2022-09-11T09:00:56Z</time>
      </trkpt>
      <trkpt lat="43.39047" lon="-1.06091">
        <ele>53.6</ele>
        <time>2022-09-11T09:00:57Z</time>
      </trkpt>
      <trkpt lat="43.39065" lon="-1.06094">
        <ele>54</ele>
        <time>2022-09-11T09:01:00Z</time>
      </trkpt>
      <trkpt lat="43.39078" lon="-1.06097">
        <ele>54</ele>
        <time>2022-09-11T09:01:02Z</time>
      </trkpt>
      <trkpt lat="43.39104" lon="-1.061">
        <ele>52.6</ele>
        <time>2022-09-11T09:01:06Z</time>
      </trkpt>
      <trkpt lat="43.3911" lon="-1.061">
        <ele>52.6</ele>
        <time>2022-09-11T09:01:07Z</time>
      </trkpt>
      <trkpt lat="43.39116" lon="-1.06099">
        <ele>52.8</ele>
        <time>2022-09-11T09:01:08Z</time>
      </trkpt>
      <trkpt lat="43.39132" lon="-1.06094">
        <ele>54</ele>
        <time>2022-09-11T09:01:11Z</time>
      </trkpt>
      <trkpt lat="43.39143" lon="-1.0609">
        <ele>53.8</ele>
        <time>2022-09-11T09:01:13Z</time>
      </trkpt>
      <trkpt lat="43.3919" lon="-1.06078">
        <ele>54.6</ele>
        <time>2022-09-11T09:01:22Z</time>
      </trkpt>
      <trkpt lat="43.39233" lon="-1.06077">
        <ele>54.6</ele>
        <time>2022-09-11T09:01:30Z</time>
      </trkpt>
      <trkpt lat="43.39271" lon="-1.06087">
        <ele>54.2</ele>
        <time>2022-09-11T09:01:37Z</time>
      </trkpt>
      <trkpt lat="43.39318" lon="-1.06106">
        <ele>53.2</ele>
        <time>2022-09-11T09:01:45Z</time>
      </trkpt>
      <trkpt lat="43.39355" lon="-1.06119">
        <ele>54.2</ele>
        <time>2022-09-11T09:01:52Z</time>
      </trkpt>
      <trkpt lat="43.39378" lon="-1.06111">
        <ele>54.4</ele>
        <time>2022-09-11T09:01:57Z</time>
      </trkpt>
      <trkpt lat="43.39383" lon="-1.06109">
        <ele>54.2</ele>
        <time>2022-09-11T09:01:58Z</time>
      </trkpt>
      <trkpt lat="43.39398" lon="-1.0611">
        <ele>54</ele>
        <time>2022-09-11T09:02:01Z</time>
      </trkpt>
      <trkpt lat="43.39414" lon="-1.06115">
        <ele>53.8</ele>
        <time>2022-09-11T09:02:04Z</time>
      </trkpt>
      <trkpt lat="43.39428" lon="-1.0612">
        <ele>53.8</ele>
        <time>2022-09-11T09:02:07Z</time>
      </trkpt>
      <trkpt lat="43.39455" lon="-1.06123">
        <ele>53.4</ele>
        <time>2022-09-11T09:02:12Z</time>
      </trkpt>
      <trkpt lat="43.39478" lon="-1.06112">
        <ele>53.2</ele>
        <time>2022-09-11T09:02:16Z</time>
      </trkpt>
      <trkpt lat="43.39484" lon="-1.06109">
        <ele>53.2</ele>
        <time>2022-09-11T09:02:17Z</time>
      </trkpt>
      <trkpt lat="43.39499" lon="-1.06098">
        <ele>52.8</ele>
        <time>2022-09-11T09:02:20Z</time>
      </trkpt>
      <trkpt lat="43.39504" lon="-1.06093">
        <ele>52.8</ele>
        <time>2022-09-11T09:02:21Z</time>
      </trkpt>
      <trkpt lat="43.39513" lon="-1.06083">
        <ele>53</ele>
        <time>2022-09-11T09:02:23Z</time>
      </trkpt>
      <trkpt lat="43.39517" lon="-1.06077">
        <ele>52.8</ele>
        <time>2022-09-11T09:02:24Z</time>
      </trkpt>
      <trkpt lat="43.39532" lon="-1.06054">
        <ele>53.4</ele>
        <time>2022-09-11T09:02:28Z</time>
      </trkpt>
      <trkpt lat="43.3954" lon="-1.06038">
        <ele>53.4</ele>
        <time>2022-09-11T09:02:31Z</time>
      </trkpt>
      <trkpt lat="43.39543" lon="-1.06033">
        <ele>53.4</ele>
        <time>2022-09-11T09:02:32Z</time>
      </trkpt>
      <trkpt lat="43.39544" lon="-1.06028">
        <ele>53.4</ele>
        <time>2022-09-11T09:02:33Z</time>
      </trkpt>
      <trkpt lat="43.39557" lon="-1.05982">
        <ele>53.6</ele>
        <time>2022-09-11T09:02:41Z</time>
      </trkpt>
      <trkpt lat="43.39564" lon="-1.0594">
        <ele>53.8</ele>
        <time>2022-09-11T09:02:48Z</time>
      </trkpt>
      <trkpt lat="43.39568" lon="-1.05909">
        <ele>53.8</ele>
        <time>2022-09-11T09:02:53Z</time>
      </trkpt>
      <trkpt lat="43.39569" lon="-1.05897">
        <ele>53.4</ele>
        <time>2022-09-11T09:02:55Z</time>
      </trkpt>
      <trkpt lat="43.39575" lon="-1.05855">
        <ele>52.8</ele>
        <time>2022-09-11T09:03:01Z</time>
      </trkpt>
      <trkpt lat="43.39575" lon="-1.05847">
        <ele>52.6</ele>
        <time>2022-09-11T09:03:02Z</time>
      </trkpt>
      <trkpt lat="43.3958" lon="-1.05812">
        <ele>51.4</ele>
        <time>2022-09-11T09:03:06Z</time>
      </trkpt>
      <trkpt lat="43.39584" lon="-1.05794">
        <ele>51</ele>
        <time>2022-09-11T09:03:08Z</time>
      </trkpt>
      <trkpt lat="43.39589" lon="-1.05776">
        <ele>50</ele>
        <time>2022-09-11T09:03:10Z</time>
      </trkpt>
      <trkpt lat="43.39601" lon="-1.05741">
        <ele>49</ele>
        <time>2022-09-11T09:03:14Z</time>
      </trkpt>
      <trkpt lat="43.39605" lon="-1.05733">
        <ele>48.6</ele>
        <time>2022-09-11T09:03:15Z</time>
      </trkpt>
      <trkpt lat="43.39614" lon="-1.05717">
        <ele>48</ele>
        <time>2022-09-11T09:03:17Z</time>
      </trkpt>
      <trkpt lat="43.39626" lon="-1.05706">
        <ele>48</ele>
        <time>2022-09-11T09:03:19Z</time>
      </trkpt>
      <trkpt lat="43.39632" lon="-1.05699">
        <ele>47.8</ele>
        <time>2022-09-11T09:03:20Z</time>
      </trkpt>
      <trkpt lat="43.39637" lon="-1.05691">
        <ele>47.2</ele>
        <time>2022-09-11T09:03:21Z</time>
      </trkpt>
      <trkpt lat="43.39641" lon="-1.0568">
        <ele>47.2</ele>
        <time>2022-09-11T09:03:22Z</time>
      </trkpt>
      <trkpt lat="43.39644" lon="-1.05646">
        <ele>46</ele>
        <time>2022-09-11T09:03:25Z</time>
      </trkpt>
      <trkpt lat="43.39647" lon="-1.05607">
        <ele>44.8</ele>
        <time>2022-09-11T09:03:28Z</time>
      </trkpt>
      <trkpt lat="43.3965" lon="-1.05578">
        <ele>42.2</ele>
        <time>2022-09-11T09:03:30Z</time>
      </trkpt>
      <trkpt lat="43.39667" lon="-1.05542">
        <ele>41.4</ele>
        <time>2022-09-11T09:03:33Z</time>
      </trkpt>
      <trkpt lat="43.39675" lon="-1.05533">
        <ele>40.6</ele>
        <time>2022-09-11T09:03:34Z</time>
      </trkpt>
      <trkpt lat="43.39683" lon="-1.05525">
        <ele>40.4</ele>
        <time>2022-09-11T09:03:35Z</time>
      </trkpt>
      <trkpt lat="43.39691" lon="-1.05518">
        <ele>40.2</ele>
        <time>2022-09-11T09:03:36Z</time>
      </trkpt>
      <trkpt lat="43.39714" lon="-1.05497">
        <ele>39.2</ele>
        <time>2022-09-11T09:03:39Z</time>
      </trkpt>
      <trkpt lat="43.39742" lon="-1.0547">
        <ele>38.6</ele>
        <time>2022-09-11T09:03:43Z</time>
      </trkpt>
      <trkpt lat="43.39763" lon="-1.05454">
        <ele>38.2</ele>
        <time>2022-09-11T09:03:46Z</time>
      </trkpt>
      <trkpt lat="43.39777" lon="-1.05446">
        <ele>38.2</ele>
        <time>2022-09-11T09:03:48Z</time>
      </trkpt>
      <trkpt lat="43.39816" lon="-1.05425">
        <ele>39</ele>
        <time>2022-09-11T09:03:54Z</time>
      </trkpt>
      <trkpt lat="43.39859" lon="-1.054">
        <ele>38</ele>
        <time>2022-09-11T09:04:01Z</time>
      </trkpt>
      <trkpt lat="43.39902" lon="-1.05384">
        <ele>38</ele>
        <time>2022-09-11T09:04:08Z</time>
      </trkpt>
      <trkpt lat="43.39955" lon="-1.05366">
        <ele>38.2</ele>
        <time>2022-09-11T09:04:18Z</time>
      </trkpt>
      <trkpt lat="43.39975" lon="-1.05358">
        <ele>37.8</ele>
        <time>2022-09-11T09:04:22Z</time>
      </trkpt>
      <trkpt lat="43.39984" lon="-1.05352">
        <ele>37.8</ele>
        <time>2022-09-11T09:04:24Z</time>
      </trkpt>
      <trkpt lat="43.39999" lon="-1.0535">
        <ele>37.6</ele>
        <time>2022-09-11T09:04:27Z</time>
      </trkpt>
      <trkpt lat="43.40008" lon="-1.05349">
        <ele>37.4</ele>
        <time>2022-09-11T09:04:29Z</time>
      </trkpt>
      <trkpt lat="43.40041" lon="-1.05343">
        <ele>38</ele>
        <time>2022-09-11T09:04:36Z</time>
      </trkpt>
      <trkpt lat="43.40055" lon="-1.05344">
        <ele>38</ele>
        <time>2022-09-11T09:04:39Z</time>
      </trkpt>
      <trkpt lat="43.40068" lon="-1.0535">
        <ele>38.2</ele>
        <time>2022-09-11T09:04:42Z</time>
      </trkpt>
      <trkpt lat="43.40071" lon="-1.05353">
        <ele>38.2</ele>
        <time>2022-09-11T09:04:43Z</time>
      </trkpt>
      <trkpt lat="43.40079" lon="-1.05358">
        <ele>38.4</ele>
        <time>2022-09-11T09:04:46Z</time>
      </trkpt>
      <trkpt lat="43.4009" lon="-1.0535">
        <ele>38</ele>
        <time>2022-09-11T09:04:50Z</time>
      </trkpt>
      <trkpt lat="43.40096" lon="-1.05344">
        <ele>37.4</ele>
        <time>2022-09-11T09:04:52Z</time>
      </trkpt>
      <trkpt lat="43.40107" lon="-1.05338">
        <ele>37.6</ele>
        <time>2022-09-11T09:04:56Z</time>
      </trkpt>
      <trkpt lat="43.40122" lon="-1.0534">
        <ele>37.4</ele>
        <time>2022-09-11T09:05:02Z</time>
      </trkpt>
      <trkpt lat="43.40131" lon="-1.05341">
        <ele>38</ele>
        <time>2022-09-11T09:05:07Z</time>
      </trkpt>
      <trkpt lat="43.40139" lon="-1.05342">
        <ele>38</ele>
        <time>2022-09-11T09:05:13Z</time>
      </trkpt>
      <trkpt lat="43.40142" lon="-1.05342">
        <ele>38</ele>
        <time>2022-09-11T09:05:15Z</time>
      </trkpt>
      <trkpt lat="43.4015" lon="-1.0534">
        <ele>38</ele>
        <time>2022-09-11T09:05:19Z</time>
      </trkpt>
      <trkpt lat="43.40154" lon="-1.05339">
        <ele>38</ele>
        <time>2022-09-11T09:05:21Z</time>
      </trkpt>
      <trkpt lat="43.40164" lon="-1.05338">
        <ele>37.8</ele>
        <time>2022-09-11T09:05:24Z</time>
      </trkpt>
      <trkpt lat="43.40177" lon="-1.05342">
        <ele>37.8</ele>
        <time>2022-09-11T09:05:29Z</time>
      </trkpt>
      <trkpt lat="43.4019" lon="-1.05342">
        <ele>37.8</ele>
        <time>2022-09-11T09:05:36Z</time>
      </trkpt>
      <trkpt lat="43.40204" lon="-1.05338">
        <ele>37.2</ele>
        <time>2022-09-11T09:05:42Z</time>
      </trkpt>
      <trkpt lat="43.40207" lon="-1.05337">
        <ele>37.2</ele>
        <time>2022-09-11T09:05:43Z</time>
      </trkpt>
      <trkpt lat="43.40221" lon="-1.05335">
        <ele>37.4</ele>
        <time>2022-09-11T09:05:48Z</time>
      </trkpt>
      <trkpt lat="43.40235" lon="-1.05334">
        <ele>37</ele>
        <time>2022-09-11T09:05:53Z</time>
      </trkpt>
      <trkpt lat="43.40239" lon="-1.05333">
        <ele>37.2</ele>
        <time>2022-09-11T09:05:55Z</time>
      </trkpt>
      <trkpt lat="43.40252" lon="-1.05333">
        <ele>37</ele>
        <time>2022-09-11T09:06:01Z</time>
      </trkpt>
      <trkpt lat="43.4026" lon="-1.05331">
        <ele>36.8</ele>
        <time>2022-09-11T09:06:05Z</time>
      </trkpt>
      <trkpt lat="43.40278" lon="-1.05332">
        <ele>36.8</ele>
        <time>2022-09-11T09:06:12Z</time>
      </trkpt>
      <trkpt lat="43.40298" lon="-1.05334">
        <ele>36.8</ele>
        <time>2022-09-11T09:06:19Z</time>
      </trkpt>
      <trkpt lat="43.40318" lon="-1.05332">
        <ele>36.8</ele>
        <time>2022-09-11T09:06:26Z</time>
      </trkpt>
      <trkpt lat="43.4034" lon="-1.0533">
        <ele>36.6</ele>
        <time>2022-09-11T09:06:34Z</time>
      </trkpt>
      <trkpt lat="43.40362" lon="-1.05333">
        <ele>36.6</ele>
        <time>2022-09-11T09:06:42Z</time>
      </trkpt>
      <trkpt lat="43.40381" lon="-1.0534">
        <ele>36.8</ele>
        <time>2022-09-11T09:06:49Z</time>
      </trkpt>
      <trkpt lat="43.40399" lon="-1.0535">
        <ele>36.8</ele>
        <time>2022-09-11T09:06:56Z</time>
      </trkpt>
      <trkpt lat="43.40416" lon="-1.05355">
        <ele>37</ele>
        <time>2022-09-11T09:07:03Z</time>
      </trkpt>
      <trkpt lat="43.40433" lon="-1.05354">
        <ele>36.8</ele>
        <time>2022-09-11T09:07:10Z</time>
      </trkpt>
      <trkpt lat="43.40447" lon="-1.05355">
        <ele>36.8</ele>
        <time>2022-09-11T09:07:15Z</time>
      </trkpt>
      <trkpt lat="43.40454" lon="-1.05357">
        <ele>36.8</ele>
        <time>2022-09-11T09:07:18Z</time>
      </trkpt>
      <trkpt lat="43.40476" lon="-1.05361">
        <ele>36.8</ele>
        <time>2022-09-11T09:07:26Z</time>
      </trkpt>
      <trkpt lat="43.40493" lon="-1.05365">
        <ele>36.8</ele>
        <time>2022-09-11T09:07:33Z</time>
      </trkpt>
      <trkpt lat="43.40507" lon="-1.05373">
        <ele>37</ele>
        <time>2022-09-11T09:07:39Z</time>
      </trkpt>
      <trkpt lat="43.40526" lon="-1.05381">
        <ele>36.8</ele>
        <time>2022-09-11T09:07:46Z</time>
      </trkpt>
      <trkpt lat="43.40547" lon="-1.05388">
        <ele>36.8</ele>
        <time>2022-09-11T09:07:53Z</time>
      </trkpt>
      <trkpt lat="43.40571" lon="-1.05398">
        <ele>36.8</ele>
        <time>2022-09-11T09:08:00Z</time>
      </trkpt>
      <trkpt lat="43.40593" lon="-1.05408">
        <ele>36.8</ele>
        <time>2022-09-11T09:08:07Z</time>
      </trkpt>
      <trkpt lat="43.40612" lon="-1.05417">
        <ele>36.6</ele>
        <time>2022-09-11T09:08:13Z</time>
      </trkpt>
      <trkpt lat="43.40636" lon="-1.05436">
        <ele>36.8</ele>
        <time>2022-09-11T09:08:21Z</time>
      </trkpt>
      <trkpt lat="43.40651" lon="-1.05451">
        <ele>36.6</ele>
        <time>2022-09-11T09:08:28Z</time>
      </trkpt>
      <trkpt lat="43.40665" lon="-1.05466">
        <ele>36.2</ele>
        <time>2022-09-11T09:08:33Z</time>
      </trkpt>
      <trkpt lat="43.40668" lon="-1.05469">
        <ele>36</ele>
        <time>2022-09-11T09:08:34Z</time>
      </trkpt>
      <trkpt lat="43.40685" lon="-1.05475">
        <ele>35.8</ele>
        <time>2022-09-11T09:08:39Z</time>
      </trkpt>
      <trkpt lat="43.40704" lon="-1.05467">
        <ele>35.8</ele>
        <time>2022-09-11T09:08:44Z</time>
      </trkpt>
      <trkpt lat="43.40732" lon="-1.05459">
        <ele>36</ele>
        <time>2022-09-11T09:08:51Z</time>
      </trkpt>
      <trkpt lat="43.40756" lon="-1.05462">
        <ele>36.6</ele>
        <time>2022-09-11T09:08:57Z</time>
      </trkpt>
      <trkpt lat="43.40775" lon="-1.05469">
        <ele>37.2</ele>
        <time>2022-09-11T09:09:02Z</time>
      </trkpt>
      <trkpt lat="43.40783" lon="-1.05472">
        <ele>37.4</ele>
        <time>2022-09-11T09:09:04Z</time>
      </trkpt>
      <trkpt lat="43.40819" lon="-1.05487">
        <ele>37.6</ele>
        <time>2022-09-11T09:09:13Z</time>
      </trkpt>
      <trkpt lat="43.40835" lon="-1.05495">
        <ele>38.2</ele>
        <time>2022-09-11T09:09:17Z</time>
      </trkpt>
      <trkpt lat="43.40854" lon="-1.05506">
        <ele>38.2</ele>
        <time>2022-09-11T09:09:22Z</time>
      </trkpt>
      <trkpt lat="43.40886" lon="-1.05527">
        <ele>38.2</ele>
        <time>2022-09-11T09:09:30Z</time>
      </trkpt>
      <trkpt lat="43.40915" lon="-1.05546">
        <ele>38</ele>
        <time>2022-09-11T09:09:38Z</time>
      </trkpt>
      <trkpt lat="43.4095" lon="-1.05567">
        <ele>38.4</ele>
        <time>2022-09-11T09:09:47Z</time>
      </trkpt>
      <trkpt lat="43.40978" lon="-1.05587">
        <ele>38.6</ele>
        <time>2022-09-11T09:09:55Z</time>
      </trkpt>
      <trkpt lat="43.40999" lon="-1.05599">
        <ele>38.4</ele>
        <time>2022-09-11T09:10:01Z</time>
      </trkpt>
      <trkpt lat="43.41011" lon="-1.05604">
        <ele>38</ele>
        <time>2022-09-11T09:10:04Z</time>
      </trkpt>
      <trkpt lat="43.4102" lon="-1.05607">
        <ele>37.8</ele>
        <time>2022-09-11T09:10:06Z</time>
      </trkpt>
      <trkpt lat="43.41039" lon="-1.05619">
        <ele>37.4</ele>
        <time>2022-09-11T09:10:12Z</time>
      </trkpt>
      <trkpt lat="43.41047" lon="-1.05624">
        <ele>37.2</ele>
        <time>2022-09-11T09:10:15Z</time>
      </trkpt>
      <trkpt lat="43.41056" lon="-1.05628">
        <ele>37.2</ele>
        <time>2022-09-11T09:10:18Z</time>
      </trkpt>
      <trkpt lat="43.41085" lon="-1.05641">
        <ele>36.6</ele>
        <time>2022-09-11T09:10:26Z</time>
      </trkpt>
      <trkpt lat="43.41103" lon="-1.05651">
        <ele>36.4</ele>
        <time>2022-09-11T09:10:32Z</time>
      </trkpt>
      <trkpt lat="43.41125" lon="-1.05666">
        <ele>36.4</ele>
        <time>2022-09-11T09:10:39Z</time>
      </trkpt>
      <trkpt lat="43.41134" lon="-1.05674">
        <ele>36.2</ele>
        <time>2022-09-11T09:10:42Z</time>
      </trkpt>
      <trkpt lat="43.41146" lon="-1.05685">
        <ele>36</ele>
        <time>2022-09-11T09:10:46Z</time>
      </trkpt>
      <trkpt lat="43.4116" lon="-1.05704">
        <ele>35.6</ele>
        <time>2022-09-11T09:10:52Z</time>
      </trkpt>
      <trkpt lat="43.41174" lon="-1.05719">
        <ele>36</ele>
        <time>2022-09-11T09:10:58Z</time>
      </trkpt>
      <trkpt lat="43.41194" lon="-1.05741">
        <ele>36.4</ele>
        <time>2022-09-11T09:11:06Z</time>
      </trkpt>
      <trkpt lat="43.41214" lon="-1.05758">
        <ele>36.4</ele>
        <time>2022-09-11T09:11:13Z</time>
      </trkpt>
      <trkpt lat="43.41229" lon="-1.05772">
        <ele>36.4</ele>
        <time>2022-09-11T09:11:18Z</time>
      </trkpt>
      <trkpt lat="43.41244" lon="-1.05782">
        <ele>36.2</ele>
        <time>2022-09-11T09:11:24Z</time>
      </trkpt>
      <trkpt lat="43.41256" lon="-1.05791">
        <ele>36</ele>
        <time>2022-09-11T09:11:29Z</time>
      </trkpt>
      <trkpt lat="43.41267" lon="-1.05799">
        <ele>36.2</ele>
        <time>2022-09-11T09:11:35Z</time>
      </trkpt>
      <trkpt lat="43.41276" lon="-1.058">
        <ele>35.6</ele>
        <time>2022-09-11T09:15:37Z</time>
      </trkpt>
      <trkpt lat="43.4128" lon="-1.05798">
        <ele>35.2</ele>
        <time>2022-09-11T09:15:38Z</time>
      </trkpt>
      <trkpt lat="43.41284" lon="-1.05797">
        <ele>35</ele>
        <time>2022-09-11T09:15:39Z</time>
      </trkpt>
      <trkpt lat="43.41296" lon="-1.05796">
        <ele>34.8</ele>
        <time>2022-09-11T09:15:42Z</time>
      </trkpt>
      <trkpt lat="43.41304" lon="-1.05798">
        <ele>34.8</ele>
        <time>2022-09-11T09:15:44Z</time>
      </trkpt>
      <trkpt lat="43.41318" lon="-1.05805">
        <ele>34.4</ele>
        <time>2022-09-11T09:15:48Z</time>
      </trkpt>
      <trkpt lat="43.41333" lon="-1.05818">
        <ele>34.4</ele>
        <time>2022-09-11T09:15:54Z</time>
      </trkpt>
      <trkpt lat="43.41346" lon="-1.05828">
        <ele>34.4</ele>
        <time>2022-09-11T09:16:00Z</time>
      </trkpt>
      <trkpt lat="43.41361" lon="-1.05841">
        <ele>34.4</ele>
        <time>2022-09-11T09:16:06Z</time>
      </trkpt>
      <trkpt lat="43.41379" lon="-1.05856">
        <ele>34.6</ele>
        <time>2022-09-11T09:16:12Z</time>
      </trkpt>
      <trkpt lat="43.41395" lon="-1.05874">
        <ele>35.2</ele>
        <time>2022-09-11T09:16:19Z</time>
      </trkpt>
      <trkpt lat="43.41413" lon="-1.05893">
        <ele>35.4</ele>
        <time>2022-09-11T09:16:27Z</time>
      </trkpt>
      <trkpt lat="43.41426" lon="-1.05905">
        <ele>35.4</ele>
        <time>2022-09-11T09:16:33Z</time>
      </trkpt>
      <trkpt lat="43.41445" lon="-1.05924">
        <ele>35.6</ele>
        <time>2022-09-11T09:16:42Z</time>
      </trkpt>
      <trkpt lat="43.41464" lon="-1.05941">
        <ele>35.4</ele>
        <time>2022-09-11T09:16:50Z</time>
      </trkpt>
      <trkpt lat="43.41482" lon="-1.05956">
        <ele>35.4</ele>
        <time>2022-09-11T09:16:58Z</time>
      </trkpt>
      <trkpt lat="43.41496" lon="-1.05976">
        <ele>35.4</ele>
        <time>2022-09-11T09:17:05Z</time>
      </trkpt>
      <trkpt lat="43.41509" lon="-1.05994">
        <ele>35.4</ele>
        <time>2022-09-11T09:17:12Z</time>
      </trkpt>
      <trkpt lat="43.41522" lon="-1.06011">
        <ele>35.2</ele>
        <time>2022-09-11T09:17:19Z</time>
      </trkpt>
      <trkpt lat="43.41532" lon="-1.06031">
        <ele>35</ele>
        <time>2022-09-11T09:17:26Z</time>
      </trkpt>
      <trkpt lat="43.41538" lon="-1.0605">
        <ele>34.8</ele>
        <time>2022-09-11T09:17:32Z</time>
      </trkpt>
      <trkpt lat="43.41541" lon="-1.06067">
        <ele>34</ele>
        <time>2022-09-11T09:17:38Z</time>
      </trkpt>
      <trkpt lat="43.41536" lon="-1.06081">
        <ele>34</ele>
        <time>2022-09-11T09:17:42Z</time>
      </trkpt>
      <trkpt lat="43.41534" lon="-1.06084">
        <ele>33.8</ele>
        <time>2022-09-11T09:17:43Z</time>
      </trkpt>
      <trkpt lat="43.41523" lon="-1.06113">
        <ele>34</ele>
        <time>2022-09-11T09:17:49Z</time>
      </trkpt>
      <trkpt lat="43.41511" lon="-1.0614">
        <ele>35.2</ele>
        <time>2022-09-11T09:17:56Z</time>
      </trkpt>
      <trkpt lat="43.41508" lon="-1.06155">
        <ele>36.2</ele>
        <time>2022-09-11T09:18:01Z</time>
      </trkpt>
      <trkpt lat="43.41508" lon="-1.06158">
        <ele>36.4</ele>
        <time>2022-09-11T09:18:02Z</time>
      </trkpt>
      <trkpt lat="43.41514" lon="-1.06181">
        <ele>36.6</ele>
        <time>2022-09-11T09:18:09Z</time>
      </trkpt>
      <trkpt lat="43.4152" lon="-1.06207">
        <ele>36.8</ele>
        <time>2022-09-11T09:18:16Z</time>
      </trkpt>
      <trkpt lat="43.41524" lon="-1.06221">
        <ele>37.4</ele>
        <time>2022-09-11T09:18:20Z</time>
      </trkpt>
      <trkpt lat="43.41527" lon="-1.06232">
        <ele>38</ele>
        <time>2022-09-11T09:18:23Z</time>
      </trkpt>
      <trkpt lat="43.41534" lon="-1.06261">
        <ele>38.4</ele>
        <time>2022-09-11T09:18:31Z</time>
      </trkpt>
      <trkpt lat="43.41538" lon="-1.06273">
        <ele>38.6</ele>
        <time>2022-09-11T09:18:34Z</time>
      </trkpt>
      <trkpt lat="43.41543" lon="-1.06293">
        <ele>39</ele>
        <time>2022-09-11T09:18:39Z</time>
      </trkpt>
      <trkpt lat="43.41547" lon="-1.06312">
        <ele>39.6</ele>
        <time>2022-09-11T09:18:44Z</time>
      </trkpt>
      <trkpt lat="43.4155" lon="-1.06323">
        <ele>40</ele>
        <time>2022-09-11T09:18:47Z</time>
      </trkpt>
      <trkpt lat="43.41553" lon="-1.06333">
        <ele>40.6</ele>
        <time>2022-09-11T09:18:50Z</time>
      </trkpt>
      <trkpt lat="43.41558" lon="-1.06353">
        <ele>41.6</ele>
        <time>2022-09-11T09:18:56Z</time>
      </trkpt>
      <trkpt lat="43.4156" lon="-1.06357">
        <ele>41.8</ele>
        <time>2022-09-11T09:18:58Z</time>
      </trkpt>
      <trkpt lat="43.41562" lon="-1.06366">
        <ele>42.4</ele>
        <time>2022-09-11T09:19:02Z</time>
      </trkpt>
      <trkpt lat="43.41565" lon="-1.06374">
        <ele>43</ele>
        <time>2022-09-11T09:19:05Z</time>
      </trkpt>
      <trkpt lat="43.41568" lon="-1.06383">
        <ele>43.6</ele>
        <time>2022-09-11T09:19:09Z</time>
      </trkpt>
      <trkpt lat="43.4157" lon="-1.06388">
        <ele>44</ele>
        <time>2022-09-11T09:19:11Z</time>
      </trkpt>
      <trkpt lat="43.41575" lon="-1.06401">
        <ele>44.8</ele>
        <time>2022-09-11T09:19:17Z</time>
      </trkpt>
      <trkpt lat="43.41577" lon="-1.0641">
        <ele>45</ele>
        <time>2022-09-11T09:19:20Z</time>
      </trkpt>
      <trkpt lat="43.41581" lon="-1.06424">
        <ele>45.6</ele>
        <time>2022-09-11T09:19:25Z</time>
      </trkpt>
      <trkpt lat="43.41584" lon="-1.06432">
        <ele>46</ele>
        <time>2022-09-11T09:19:28Z</time>
      </trkpt>
      <trkpt lat="43.4159" lon="-1.06444">
        <ele>46.6</ele>
        <time>2022-09-11T09:19:33Z</time>
      </trkpt>
      <trkpt lat="43.41599" lon="-1.06467">
        <ele>47</ele>
        <time>2022-09-11T09:19:41Z</time>
      </trkpt>
      <trkpt lat="43.416" lon="-1.0647">
        <ele>47.2</ele>
        <time>2022-09-11T09:19:42Z</time>
      </trkpt>
      <trkpt lat="43.4161" lon="-1.06494">
        <ele>47.6</ele>
        <time>2022-09-11T09:19:50Z</time>
      </trkpt>
      <trkpt lat="43.41615" lon="-1.06506">
        <ele>48.2</ele>
        <time>2022-09-11T09:19:54Z</time>
      </trkpt>
      <trkpt lat="43.41625" lon="-1.0653">
        <ele>48.4</ele>
        <time>2022-09-11T09:20:01Z</time>
      </trkpt>
      <trkpt lat="43.41633" lon="-1.06565">
        <ele>48.6</ele>
        <time>2022-09-11T09:20:09Z</time>
      </trkpt>
      <trkpt lat="43.41643" lon="-1.06601">
        <ele>48.8</ele>
        <time>2022-09-11T09:20:16Z</time>
      </trkpt>
      <trkpt lat="43.41659" lon="-1.06635">
        <ele>48.8</ele>
        <time>2022-09-11T09:20:23Z</time>
      </trkpt>
      <trkpt lat="43.41689" lon="-1.06683">
        <ele>49.2</ele>
        <time>2022-09-11T09:20:34Z</time>
      </trkpt>
      <trkpt lat="43.41715" lon="-1.06724">
        <ele>49.6</ele>
        <time>2022-09-11T09:20:43Z</time>
      </trkpt>
      <trkpt lat="43.41747" lon="-1.06774">
        <ele>49.8</ele>
        <time>2022-09-11T09:20:54Z</time>
      </trkpt>
      <trkpt lat="43.41772" lon="-1.06813">
        <ele>50.2</ele>
        <time>2022-09-11T09:21:03Z</time>
      </trkpt>
      <trkpt lat="43.41798" lon="-1.06854">
        <ele>50.6</ele>
        <time>2022-09-11T09:21:12Z</time>
      </trkpt>
      <trkpt lat="43.41821" lon="-1.06894">
        <ele>51.2</ele>
        <time>2022-09-11T09:21:21Z</time>
      </trkpt>
      <trkpt lat="43.41824" lon="-1.06898">
        <ele>51.4</ele>
        <time>2022-09-11T09:21:22Z</time>
      </trkpt>
      <trkpt lat="43.41835" lon="-1.06917">
        <ele>52.2</ele>
        <time>2022-09-11T09:21:27Z</time>
      </trkpt>
      <trkpt lat="43.4184" lon="-1.06928">
        <ele>52.8</ele>
        <time>2022-09-11T09:21:30Z</time>
      </trkpt>
      <trkpt lat="43.41845" lon="-1.06938">
        <ele>53.4</ele>
        <time>2022-09-11T09:21:33Z</time>
      </trkpt>
      <trkpt lat="43.4185" lon="-1.06948">
        <ele>54</ele>
        <time>2022-09-11T09:21:36Z</time>
      </trkpt>
      <trkpt lat="43.41855" lon="-1.06958">
        <ele>54.4</ele>
        <time>2022-09-11T09:21:39Z</time>
      </trkpt>
      <trkpt lat="43.41865" lon="-1.06974">
        <ele>55.6</ele>
        <time>2022-09-11T09:21:45Z</time>
      </trkpt>
      <trkpt lat="43.41873" lon="-1.06984">
        <ele>56</ele>
        <time>2022-09-11T09:21:49Z</time>
      </trkpt>
      <trkpt lat="43.41882" lon="-1.06998">
        <ele>56.4</ele>
        <time>2022-09-11T09:21:54Z</time>
      </trkpt>
      <trkpt lat="43.41887" lon="-1.07004">
        <ele>56.6</ele>
        <time>2022-09-11T09:21:56Z</time>
      </trkpt>
      <trkpt lat="43.419" lon="-1.07024">
        <ele>57.4</ele>
        <time>2022-09-11T09:22:03Z</time>
      </trkpt>
      <trkpt lat="43.41906" lon="-1.07037">
        <ele>57.8</ele>
        <time>2022-09-11T09:22:07Z</time>
      </trkpt>
      <trkpt lat="43.41911" lon="-1.07048">
        <ele>57.8</ele>
        <time>2022-09-11T09:22:10Z</time>
      </trkpt>
      <trkpt lat="43.41917" lon="-1.07087">
        <ele>58.6</ele>
        <time>2022-09-11T09:22:19Z</time>
      </trkpt>
      <trkpt lat="43.41918" lon="-1.07096">
        <ele>58.8</ele>
        <time>2022-09-11T09:22:21Z</time>
      </trkpt>
      <trkpt lat="43.41919" lon="-1.07127">
        <ele>59.6</ele>
        <time>2022-09-11T09:22:28Z</time>
      </trkpt>
      <trkpt lat="43.4192" lon="-1.07135">
        <ele>60</ele>
        <time>2022-09-11T09:22:30Z</time>
      </trkpt>
      <trkpt lat="43.41923" lon="-1.07169">
        <ele>61</ele>
        <time>2022-09-11T09:22:38Z</time>
      </trkpt>
      <trkpt lat="43.41927" lon="-1.07194">
        <ele>62</ele>
        <time>2022-09-11T09:22:45Z</time>
      </trkpt>
      <trkpt lat="43.41927" lon="-1.07198">
        <ele>62.2</ele>
        <time>2022-09-11T09:22:46Z</time>
      </trkpt>
      <trkpt lat="43.41929" lon="-1.07213">
        <ele>63.2</ele>
        <time>2022-09-11T09:22:51Z</time>
      </trkpt>
      <trkpt lat="43.4193" lon="-1.07222">
        <ele>63.4</ele>
        <time>2022-09-11T09:22:54Z</time>
      </trkpt>
      <trkpt lat="43.41931" lon="-1.07235">
        <ele>64.2</ele>
        <time>2022-09-11T09:22:58Z</time>
      </trkpt>
      <trkpt lat="43.41933" lon="-1.07251">
        <ele>64.8</ele>
        <time>2022-09-11T09:23:03Z</time>
      </trkpt>
      <trkpt lat="43.41936" lon="-1.07264">
        <ele>65.2</ele>
        <time>2022-09-11T09:23:07Z</time>
      </trkpt>
      <trkpt lat="43.4194" lon="-1.0727">
        <ele>65.6</ele>
        <time>2022-09-11T09:23:10Z</time>
      </trkpt>
      <trkpt lat="43.41952" lon="-1.07285">
        <ele>65.6</ele>
        <time>2022-09-11T09:23:17Z</time>
      </trkpt>
      <trkpt lat="43.41962" lon="-1.07296">
        <ele>66.4</ele>
        <time>2022-09-11T09:23:22Z</time>
      </trkpt>
      <trkpt lat="43.41966" lon="-1.073">
        <ele>66.8</ele>
        <time>2022-09-11T09:23:25Z</time>
      </trkpt>
      <trkpt lat="43.41971" lon="-1.07305">
        <ele>67.4</ele>
        <time>2022-09-11T09:23:29Z</time>
      </trkpt>
      <trkpt lat="43.41976" lon="-1.0731">
        <ele>68.2</ele>
        <time>2022-09-11T09:23:33Z</time>
      </trkpt>
      <trkpt lat="43.41978" lon="-1.07313">
        <ele>68.4</ele>
        <time>2022-09-11T09:23:35Z</time>
      </trkpt>
      <trkpt lat="43.41981" lon="-1.07315">
        <ele>68.8</ele>
        <time>2022-09-11T09:23:37Z</time>
      </trkpt>
      <trkpt lat="43.41986" lon="-1.07317">
        <ele>69.4</ele>
        <time>2022-09-11T09:23:40Z</time>
      </trkpt>
      <trkpt lat="43.41987" lon="-1.07317">
        <ele>69.6</ele>
        <time>2022-09-11T09:23:41Z</time>
      </trkpt>
      <trkpt lat="43.41992" lon="-1.0732">
        <ele>70.4</ele>
        <time>2022-09-11T09:23:45Z</time>
      </trkpt>
      <trkpt lat="43.41993" lon="-1.07321">
        <ele>70.6</ele>
        <time>2022-09-11T09:23:46Z</time>
      </trkpt>
      <trkpt lat="43.42" lon="-1.0733">
        <ele>71.8</ele>
        <time>2022-09-11T09:23:52Z</time>
      </trkpt>
      <trkpt lat="43.42001" lon="-1.07332">
        <ele>71.8</ele>
        <time>2022-09-11T09:23:53Z</time>
      </trkpt>
      <trkpt lat="43.42003" lon="-1.07335">
        <ele>72.2</ele>
        <time>2022-09-11T09:23:55Z</time>
      </trkpt>
      <trkpt lat="43.42004" lon="-1.07338">
        <ele>72.8</ele>
        <time>2022-09-11T09:23:57Z</time>
      </trkpt>
      <trkpt lat="43.42006" lon="-1.07344">
        <ele>73.4</ele>
        <time>2022-09-11T09:24:00Z</time>
      </trkpt>
      <trkpt lat="43.42006" lon="-1.07349">
        <ele>73.6</ele>
        <time>2022-09-11T09:24:03Z</time>
      </trkpt>
      <trkpt lat="43.42006" lon="-1.07351">
        <ele>74</ele>
        <time>2022-09-11T09:24:04Z</time>
      </trkpt>
      <trkpt lat="43.42006" lon="-1.07356">
        <ele>74.6</ele>
        <time>2022-09-11T09:24:07Z</time>
      </trkpt>
      <trkpt lat="43.42007" lon="-1.07361">
        <ele>75</ele>
        <time>2022-09-11T09:24:10Z</time>
      </trkpt>
      <trkpt lat="43.42006" lon="-1.07364">
        <ele>75.4</ele>
        <time>2022-09-11T09:24:12Z</time>
      </trkpt>
      <trkpt lat="43.42007" lon="-1.07372">
        <ele>76.2</ele>
        <time>2022-09-11T09:24:17Z</time>
      </trkpt>
      <trkpt lat="43.42007" lon="-1.07382">
        <ele>77.2</ele>
        <time>2022-09-11T09:24:23Z</time>
      </trkpt>
      <trkpt lat="43.42007" lon="-1.07383">
        <ele>77.2</ele>
        <time>2022-09-11T09:24:24Z</time>
      </trkpt>
      <trkpt lat="43.42008" lon="-1.07386">
        <ele>77.8</ele>
        <time>2022-09-11T09:24:27Z</time>
      </trkpt>
      <trkpt lat="43.42008" lon="-1.07389">
        <ele>78</ele>
        <time>2022-09-11T09:24:29Z</time>
      </trkpt>
      <trkpt lat="43.42008" lon="-1.0739">
        <ele>78.2</ele>
        <time>2022-09-11T09:24:30Z</time>
      </trkpt>
      <trkpt lat="43.42009" lon="-1.07398">
        <ele>78.8</ele>
        <time>2022-09-11T09:24:35Z</time>
      </trkpt>
      <trkpt lat="43.42011" lon="-1.07402">
        <ele>79.2</ele>
        <time>2022-09-11T09:24:38Z</time>
      </trkpt>
      <trkpt lat="43.42011" lon="-1.07411">
        <ele>80.2</ele>
        <time>2022-09-11T09:24:43Z</time>
      </trkpt>
      <trkpt lat="43.42011" lon="-1.07413">
        <ele>80.6</ele>
        <time>2022-09-11T09:24:44Z</time>
      </trkpt>
      <trkpt lat="43.42013" lon="-1.07418">
        <ele>81</ele>
        <time>2022-09-11T09:24:47Z</time>
      </trkpt>
      <trkpt lat="43.42013" lon="-1.07422">
        <ele>81.4</ele>
        <time>2022-09-11T09:24:50Z</time>
      </trkpt>
      <trkpt lat="43.42013" lon="-1.07424">
        <ele>81.6</ele>
        <time>2022-09-11T09:24:51Z</time>
      </trkpt>
      <trkpt lat="43.42015" lon="-1.07431">
        <ele>82.2</ele>
        <time>2022-09-11T09:24:55Z</time>
      </trkpt>
      <trkpt lat="43.42015" lon="-1.07432">
        <ele>82.2</ele>
        <time>2022-09-11T09:24:56Z</time>
      </trkpt>
      <trkpt lat="43.42016" lon="-1.07432">
        <ele>82.4</ele>
        <time>2022-09-11T09:24:57Z</time>
      </trkpt>
      <trkpt lat="43.42018" lon="-1.07432">
        <ele>82.6</ele>
        <time>2022-09-11T09:24:58Z</time>
      </trkpt>
      <trkpt lat="43.4202" lon="-1.07436">
        <ele>83.2</ele>
        <time>2022-09-11T09:25:02Z</time>
      </trkpt>
      <trkpt lat="43.42023" lon="-1.07437">
        <ele>83.6</ele>
        <time>2022-09-11T09:25:05Z</time>
      </trkpt>
      <trkpt lat="43.42024" lon="-1.07438">
        <ele>83.8</ele>
        <time>2022-09-11T09:25:06Z</time>
      </trkpt>
      <trkpt lat="43.42028" lon="-1.07444">
        <ele>84.8</ele>
        <time>2022-09-11T09:25:11Z</time>
      </trkpt>
      <trkpt lat="43.42029" lon="-1.07446">
        <ele>85</ele>
        <time>2022-09-11T09:25:12Z</time>
      </trkpt>
      <trkpt lat="43.4203" lon="-1.07446">
        <ele>85</ele>
        <time>2022-09-11T09:25:13Z</time>
      </trkpt>
      <trkpt lat="43.42034" lon="-1.07451">
        <ele>85.8</ele>
        <time>2022-09-11T09:25:19Z</time>
      </trkpt>
      <trkpt lat="43.42039" lon="-1.07455">
        <ele>86.6</ele>
        <time>2022-09-11T09:25:24Z</time>
      </trkpt>
      <trkpt lat="43.4204" lon="-1.07456">
        <ele>86.8</ele>
        <time>2022-09-11T09:25:25Z</time>
      </trkpt>
      <trkpt lat="43.42048" lon="-1.07464">
        <ele>87.8</ele>
        <time>2022-09-11T09:25:32Z</time>
      </trkpt>
      <trkpt lat="43.42049" lon="-1.07466">
        <ele>88</ele>
        <time>2022-09-11T09:25:33Z</time>
      </trkpt>
      <trkpt lat="43.42056" lon="-1.07471">
        <ele>89</ele>
        <time>2022-09-11T09:25:39Z</time>
      </trkpt>
      <trkpt lat="43.42056" lon="-1.07473">
        <ele>89</ele>
        <time>2022-09-11T09:25:40Z</time>
      </trkpt>
      <trkpt lat="43.42066" lon="-1.07483">
        <ele>89.8</ele>
        <time>2022-09-11T09:25:48Z</time>
      </trkpt>
      <trkpt lat="43.42072" lon="-1.07489">
        <ele>90</ele>
        <time>2022-09-11T09:25:53Z</time>
      </trkpt>
      <trkpt lat="43.42076" lon="-1.07491">
        <ele>90.6</ele>
        <time>2022-09-11T09:25:56Z</time>
      </trkpt>
      <trkpt lat="43.42082" lon="-1.07497">
        <ele>91</ele>
        <time>2022-09-11T09:26:00Z</time>
      </trkpt>
      <trkpt lat="43.42084" lon="-1.07502">
        <ele>91.6</ele>
        <time>2022-09-11T09:26:03Z</time>
      </trkpt>
      <trkpt lat="43.42087" lon="-1.07507">
        <ele>92.2</ele>
        <time>2022-09-11T09:26:06Z</time>
      </trkpt>
      <trkpt lat="43.42093" lon="-1.07511">
        <ele>92.6</ele>
        <time>2022-09-11T09:26:10Z</time>
      </trkpt>
      <trkpt lat="43.42095" lon="-1.07515">
        <ele>93.4</ele>
        <time>2022-09-11T09:26:13Z</time>
      </trkpt>
      <trkpt lat="43.42098" lon="-1.07519">
        <ele>93.6</ele>
        <time>2022-09-11T09:26:16Z</time>
      </trkpt>
      <trkpt lat="43.42099" lon="-1.0752">
        <ele>93.6</ele>
        <time>2022-09-11T09:26:17Z</time>
      </trkpt>
      <trkpt lat="43.42103" lon="-1.07522">
        <ele>94.4</ele>
        <time>2022-09-11T09:26:20Z</time>
      </trkpt>
      <trkpt lat="43.42105" lon="-1.07524">
        <ele>94.6</ele>
        <time>2022-09-11T09:26:22Z</time>
      </trkpt>
      <trkpt lat="43.42107" lon="-1.07527">
        <ele>95</ele>
        <time>2022-09-11T09:26:24Z</time>
      </trkpt>
      <trkpt lat="43.42111" lon="-1.07531">
        <ele>95.4</ele>
        <time>2022-09-11T09:26:27Z</time>
      </trkpt>
      <trkpt lat="43.42113" lon="-1.07533">
        <ele>95.8</ele>
        <time>2022-09-11T09:26:29Z</time>
      </trkpt>
      <trkpt lat="43.42119" lon="-1.07538">
        <ele>96.6</ele>
        <time>2022-09-11T09:26:34Z</time>
      </trkpt>
      <trkpt lat="43.42121" lon="-1.07538">
        <ele>96.8</ele>
        <time>2022-09-11T09:26:35Z</time>
      </trkpt>
      <trkpt lat="43.42122" lon="-1.07538">
        <ele>97</ele>
        <time>2022-09-11T09:26:36Z</time>
      </trkpt>
      <trkpt lat="43.42127" lon="-1.07543">
        <ele>97.4</ele>
        <time>2022-09-11T09:26:40Z</time>
      </trkpt>
      <trkpt lat="43.42128" lon="-1.07544">
        <ele>97.6</ele>
        <time>2022-09-11T09:26:41Z</time>
      </trkpt>
      <trkpt lat="43.42129" lon="-1.07545">
        <ele>97.6</ele>
        <time>2022-09-11T09:26:42Z</time>
      </trkpt>
      <trkpt lat="43.4213" lon="-1.07546">
        <ele>97.8</ele>
        <time>2022-09-11T09:26:43Z</time>
      </trkpt>
      <trkpt lat="43.42135" lon="-1.07548">
        <ele>98.4</ele>
        <time>2022-09-11T09:26:46Z</time>
      </trkpt>
      <trkpt lat="43.42137" lon="-1.0755">
        <ele>98.8</ele>
        <time>2022-09-11T09:26:48Z</time>
      </trkpt>
      <trkpt lat="43.42139" lon="-1.07551">
        <ele>99</ele>
        <time>2022-09-11T09:26:50Z</time>
      </trkpt>
      <trkpt lat="43.42146" lon="-1.07555">
        <ele>99.6</ele>
        <time>2022-09-11T09:26:55Z</time>
      </trkpt>
      <trkpt lat="43.42147" lon="-1.07556">
        <ele>99.8</ele>
        <time>2022-09-11T09:26:56Z</time>
      </trkpt>
      <trkpt lat="43.42159" lon="-1.07567">
        <ele>100.8</ele>
        <time>2022-09-11T09:27:05Z</time>
      </trkpt>
      <trkpt lat="43.4216" lon="-1.07569">
        <ele>100.8</ele>
        <time>2022-09-11T09:27:06Z</time>
      </trkpt>
      <trkpt lat="43.42171" lon="-1.07581">
        <ele>101.8</ele>
        <time>2022-09-11T09:27:15Z</time>
      </trkpt>
      <trkpt lat="43.42173" lon="-1.07582">
        <ele>102</ele>
        <time>2022-09-11T09:27:16Z</time>
      </trkpt>
      <trkpt lat="43.42177" lon="-1.07587">
        <ele>102.6</ele>
        <time>2022-09-11T09:27:20Z</time>
      </trkpt>
      <trkpt lat="43.42183" lon="-1.07595">
        <ele>103</ele>
        <time>2022-09-11T09:27:25Z</time>
      </trkpt>
      <trkpt lat="43.42186" lon="-1.07599">
        <ele>103.4</ele>
        <time>2022-09-11T09:27:28Z</time>
      </trkpt>
      <trkpt lat="43.42194" lon="-1.07608">
        <ele>104.2</ele>
        <time>2022-09-11T09:27:34Z</time>
      </trkpt>
      <trkpt lat="43.42198" lon="-1.07613">
        <ele>104.6</ele>
        <time>2022-09-11T09:27:37Z</time>
      </trkpt>
      <trkpt lat="43.42205" lon="-1.07618">
        <ele>105.2</ele>
        <time>2022-09-11T09:27:42Z</time>
      </trkpt>
      <trkpt lat="43.42209" lon="-1.0762">
        <ele>105.6</ele>
        <time>2022-09-11T09:27:45Z</time>
      </trkpt>
      <trkpt lat="43.42216" lon="-1.07624">
        <ele>106.2</ele>
        <time>2022-09-11T09:27:49Z</time>
      </trkpt>
      <trkpt lat="43.42222" lon="-1.07625">
        <ele>107</ele>
        <time>2022-09-11T09:27:53Z</time>
      </trkpt>
      <trkpt lat="43.42225" lon="-1.07627">
        <ele>107.4</ele>
        <time>2022-09-11T09:27:55Z</time>
      </trkpt>
      <trkpt lat="43.42229" lon="-1.07627">
        <ele>107.8</ele>
        <time>2022-09-11T09:27:58Z</time>
      </trkpt>
      <trkpt lat="43.42233" lon="-1.07629">
        <ele>108.4</ele>
        <time>2022-09-11T09:28:01Z</time>
      </trkpt>
      <trkpt lat="43.42239" lon="-1.07631">
        <ele>108.8</ele>
        <time>2022-09-11T09:28:05Z</time>
      </trkpt>
      <trkpt lat="43.42246" lon="-1.07634">
        <ele>109.4</ele>
        <time>2022-09-11T09:28:10Z</time>
      </trkpt>
      <trkpt lat="43.42251" lon="-1.07634">
        <ele>109.8</ele>
        <time>2022-09-11T09:28:13Z</time>
      </trkpt>
      <trkpt lat="43.42257" lon="-1.07635">
        <ele>110.6</ele>
        <time>2022-09-11T09:28:17Z</time>
      </trkpt>
      <trkpt lat="43.42262" lon="-1.07636">
        <ele>111</ele>
        <time>2022-09-11T09:28:20Z</time>
      </trkpt>
      <trkpt lat="43.42266" lon="-1.07637">
        <ele>111.2</ele>
        <time>2022-09-11T09:28:22Z</time>
      </trkpt>
      <trkpt lat="43.42269" lon="-1.07637">
        <ele>111.6</ele>
        <time>2022-09-11T09:28:24Z</time>
      </trkpt>
      <trkpt lat="43.42275" lon="-1.07639">
        <ele>112.2</ele>
        <time>2022-09-11T09:28:28Z</time>
      </trkpt>
      <trkpt lat="43.42283" lon="-1.0764">
        <ele>112.6</ele>
        <time>2022-09-11T09:28:32Z</time>
      </trkpt>
      <trkpt lat="43.42287" lon="-1.07641">
        <ele>113</ele>
        <time>2022-09-11T09:28:34Z</time>
      </trkpt>
      <trkpt lat="43.42293" lon="-1.07642">
        <ele>113.6</ele>
        <time>2022-09-11T09:28:38Z</time>
      </trkpt>
      <trkpt lat="43.42296" lon="-1.07642">
        <ele>113.8</ele>
        <time>2022-09-11T09:28:40Z</time>
      </trkpt>
      <trkpt lat="43.42304" lon="-1.07645">
        <ele>114.6</ele>
        <time>2022-09-11T09:28:44Z</time>
      </trkpt>
      <trkpt lat="43.42309" lon="-1.07648">
        <ele>115</ele>
        <time>2022-09-11T09:28:47Z</time>
      </trkpt>
      <trkpt lat="43.42316" lon="-1.07654">
        <ele>115.8</ele>
        <time>2022-09-11T09:28:52Z</time>
      </trkpt>
      <trkpt lat="43.42319" lon="-1.0766">
        <ele>116</ele>
        <time>2022-09-11T09:28:55Z</time>
      </trkpt>
      <trkpt lat="43.42325" lon="-1.07681">
        <ele>116.4</ele>
        <time>2022-09-11T09:29:03Z</time>
      </trkpt>
      <trkpt lat="43.42324" lon="-1.07698">
        <ele>116.8</ele>
        <time>2022-09-11T09:29:08Z</time>
      </trkpt>
      <trkpt lat="43.42323" lon="-1.07706">
        <ele>117.4</ele>
        <time>2022-09-11T09:29:11Z</time>
      </trkpt>
      <trkpt lat="43.42321" lon="-1.07725">
        <ele>117.8</ele>
        <time>2022-09-11T09:29:17Z</time>
      </trkpt>
      <trkpt lat="43.4232" lon="-1.07735">
        <ele>118</ele>
        <time>2022-09-11T09:29:20Z</time>
      </trkpt>
      <trkpt lat="43.42316" lon="-1.0776">
        <ele>119</ele>
        <time>2022-09-11T09:29:28Z</time>
      </trkpt>
      <trkpt lat="43.42315" lon="-1.07765">
        <ele>119.2</ele>
        <time>2022-09-11T09:29:30Z</time>
      </trkpt>
      <trkpt lat="43.42314" lon="-1.07782">
        <ele>119.6</ele>
        <time>2022-09-11T09:29:36Z</time>
      </trkpt>
      <trkpt lat="43.4231" lon="-1.07814">
        <ele>119.8</ele>
        <time>2022-09-11T09:29:44Z</time>
      </trkpt>
      <trkpt lat="43.42308" lon="-1.07835">
        <ele>120</ele>
        <time>2022-09-11T09:29:49Z</time>
      </trkpt>
      <trkpt lat="43.42306" lon="-1.07856">
        <ele>120.4</ele>
        <time>2022-09-11T09:29:54Z</time>
      </trkpt>
      <trkpt lat="43.42304" lon="-1.07885">
        <ele>121.2</ele>
        <time>2022-09-11T09:30:01Z</time>
      </trkpt>
      <trkpt lat="43.42304" lon="-1.0789">
        <ele>121.2</ele>
        <time>2022-09-11T09:30:02Z</time>
      </trkpt>
      <trkpt lat="43.42302" lon="-1.07923">
        <ele>122</ele>
        <time>2022-09-11T09:30:10Z</time>
      </trkpt>
      <trkpt lat="43.42302" lon="-1.0793">
        <ele>122.2</ele>
        <time>2022-09-11T09:30:12Z</time>
      </trkpt>
      <trkpt lat="43.42304" lon="-1.07945">
        <ele>123</ele>
        <time>2022-09-11T09:30:17Z</time>
      </trkpt>
      <trkpt lat="43.42304" lon="-1.0795">
        <ele>123.2</ele>
        <time>2022-09-11T09:30:19Z</time>
      </trkpt>
      <trkpt lat="43.42308" lon="-1.07965">
        <ele>123.8</ele>
        <time>2022-09-11T09:30:24Z</time>
      </trkpt>
      <trkpt lat="43.42313" lon="-1.07985">
        <ele>124.2</ele>
        <time>2022-09-11T09:30:31Z</time>
      </trkpt>
      <trkpt lat="43.42317" lon="-1.08">
        <ele>124.2</ele>
        <time>2022-09-11T09:30:35Z</time>
      </trkpt>
      <trkpt lat="43.42319" lon="-1.08011">
        <ele>124.4</ele>
        <time>2022-09-11T09:30:38Z</time>
      </trkpt>
      <trkpt lat="43.42323" lon="-1.08037">
        <ele>125.2</ele>
        <time>2022-09-11T09:30:45Z</time>
      </trkpt>
      <trkpt lat="43.42323" lon="-1.08046">
        <ele>125.8</ele>
        <time>2022-09-11T09:30:48Z</time>
      </trkpt>
      <trkpt lat="43.42324" lon="-1.08058">
        <ele>126.4</ele>
        <time>2022-09-11T09:30:53Z</time>
      </trkpt>
      <trkpt lat="43.42324" lon="-1.0806">
        <ele>126.6</ele>
        <time>2022-09-11T09:30:54Z</time>
      </trkpt>
      <trkpt lat="43.42325" lon="-1.08074">
        <ele>127.4</ele>
        <time>2022-09-11T09:31:00Z</time>
      </trkpt>
      <trkpt lat="43.42324" lon="-1.08089">
        <ele>128.6</ele>
        <time>2022-09-11T09:31:07Z</time>
      </trkpt>
      <trkpt lat="43.42323" lon="-1.081">
        <ele>129.6</ele>
        <time>2022-09-11T09:31:12Z</time>
      </trkpt>
      <trkpt lat="43.42322" lon="-1.08106">
        <ele>130</ele>
        <time>2022-09-11T09:31:15Z</time>
      </trkpt>
      <trkpt lat="43.42322" lon="-1.08113">
        <ele>130.4</ele>
        <time>2022-09-11T09:31:18Z</time>
      </trkpt>
      <trkpt lat="43.42323" lon="-1.08117">
        <ele>130.6</ele>
        <time>2022-09-11T09:31:20Z</time>
      </trkpt>
      <trkpt lat="43.42322" lon="-1.08119">
        <ele>130.8</ele>
        <time>2022-09-11T09:31:21Z</time>
      </trkpt>
      <trkpt lat="43.42321" lon="-1.08135">
        <ele>131.6</ele>
        <time>2022-09-11T09:31:28Z</time>
      </trkpt>
      <trkpt lat="43.42321" lon="-1.08138">
        <ele>131.8</ele>
        <time>2022-09-11T09:31:29Z</time>
      </trkpt>
      <trkpt lat="43.42321" lon="-1.08142">
        <ele>132</ele>
        <time>2022-09-11T09:31:31Z</time>
      </trkpt>
      <trkpt lat="43.4232" lon="-1.08159">
        <ele>132.6</ele>
        <time>2022-09-11T09:31:38Z</time>
      </trkpt>
      <trkpt lat="43.4232" lon="-1.08167">
        <ele>132.8</ele>
        <time>2022-09-11T09:31:41Z</time>
      </trkpt>
      <trkpt lat="43.42319" lon="-1.08177">
        <ele>133.2</ele>
        <time>2022-09-11T09:31:45Z</time>
      </trkpt>
      <trkpt lat="43.42317" lon="-1.08199">
        <ele>134</ele>
        <time>2022-09-11T09:31:53Z</time>
      </trkpt>
      <trkpt lat="43.42315" lon="-1.08225">
        <ele>135</ele>
        <time>2022-09-11T09:32:02Z</time>
      </trkpt>
      <trkpt lat="43.42315" lon="-1.08228">
        <ele>135</ele>
        <time>2022-09-11T09:32:03Z</time>
      </trkpt>
      <trkpt lat="43.42314" lon="-1.08247">
        <ele>136.2</ele>
        <time>2022-09-11T09:32:10Z</time>
      </trkpt>
      <trkpt lat="43.42314" lon="-1.08275">
        <ele>137.2</ele>
        <time>2022-09-11T09:32:19Z</time>
      </trkpt>
      <trkpt lat="43.42315" lon="-1.08278">
        <ele>137.4</ele>
        <time>2022-09-11T09:32:20Z</time>
      </trkpt>
      <trkpt lat="43.42319" lon="-1.08308">
        <ele>138.2</ele>
        <time>2022-09-11T09:32:29Z</time>
      </trkpt>
      <trkpt lat="43.42322" lon="-1.08327">
        <ele>139</ele>
        <time>2022-09-11T09:32:35Z</time>
      </trkpt>
      <trkpt lat="43.42323" lon="-1.08339">
        <ele>139.4</ele>
        <time>2022-09-11T09:32:39Z</time>
      </trkpt>
      <trkpt lat="43.42324" lon="-1.08345">
        <ele>139.6</ele>
        <time>2022-09-11T09:32:41Z</time>
      </trkpt>
      <trkpt lat="43.42329" lon="-1.08364">
        <ele>140.4</ele>
        <time>2022-09-11T09:32:47Z</time>
      </trkpt>
      <trkpt lat="43.4233" lon="-1.0837">
        <ele>140.8</ele>
        <time>2022-09-11T09:32:49Z</time>
      </trkpt>
      <trkpt lat="43.42336" lon="-1.08389">
        <ele>141.6</ele>
        <time>2022-09-11T09:32:55Z</time>
      </trkpt>
      <trkpt lat="43.42338" lon="-1.08397">
        <ele>142</ele>
        <time>2022-09-11T09:32:58Z</time>
      </trkpt>
      <trkpt lat="43.42343" lon="-1.08413">
        <ele>142.6</ele>
        <time>2022-09-11T09:33:04Z</time>
      </trkpt>
      <trkpt lat="43.42345" lon="-1.08421">
        <ele>143</ele>
        <time>2022-09-11T09:33:07Z</time>
      </trkpt>
      <trkpt lat="43.42349" lon="-1.0843">
        <ele>143.8</ele>
        <time>2022-09-11T09:33:11Z</time>
      </trkpt>
      <trkpt lat="43.4235" lon="-1.08436">
        <ele>144</ele>
        <time>2022-09-11T09:33:13Z</time>
      </trkpt>
      <trkpt lat="43.42355" lon="-1.08454">
        <ele>144.8</ele>
        <time>2022-09-11T09:33:20Z</time>
      </trkpt>
      <trkpt lat="43.42357" lon="-1.0846">
        <ele>145</ele>
        <time>2022-09-11T09:33:22Z</time>
      </trkpt>
      <trkpt lat="43.42362" lon="-1.08478">
        <ele>145.6</ele>
        <time>2022-09-11T09:33:29Z</time>
      </trkpt>
      <trkpt lat="43.42364" lon="-1.08487">
        <ele>145.8</ele>
        <time>2022-09-11T09:33:32Z</time>
      </trkpt>
      <trkpt lat="43.42367" lon="-1.085">
        <ele>146.6</ele>
        <time>2022-09-11T09:33:37Z</time>
      </trkpt>
      <trkpt lat="43.42369" lon="-1.08506">
        <ele>147</ele>
        <time>2022-09-11T09:33:39Z</time>
      </trkpt>
      <trkpt lat="43.42372" lon="-1.08522">
        <ele>147.8</ele>
        <time>2022-09-11T09:33:45Z</time>
      </trkpt>
      <trkpt lat="43.42373" lon="-1.08524">
        <ele>148</ele>
        <time>2022-09-11T09:33:46Z</time>
      </trkpt>
      <trkpt lat="43.42378" lon="-1.08546">
        <ele>148.8</ele>
        <time>2022-09-11T09:33:54Z</time>
      </trkpt>
      <trkpt lat="43.4238" lon="-1.08552">
        <ele>149.2</ele>
        <time>2022-09-11T09:33:56Z</time>
      </trkpt>
      <trkpt lat="43.42384" lon="-1.08565">
        <ele>149.8</ele>
        <time>2022-09-11T09:34:01Z</time>
      </trkpt>
      <trkpt lat="43.42385" lon="-1.08571">
        <ele>150.2</ele>
        <time>2022-09-11T09:34:03Z</time>
      </trkpt>
      <trkpt lat="43.42389" lon="-1.0859">
        <ele>151.2</ele>
        <time>2022-09-11T09:34:10Z</time>
      </trkpt>
      <trkpt lat="43.42391" lon="-1.08595">
        <ele>151.4</ele>
        <time>2022-09-11T09:34:12Z</time>
      </trkpt>
      <trkpt lat="43.42394" lon="-1.08611">
        <ele>152.4</ele>
        <time>2022-09-11T09:34:18Z</time>
      </trkpt>
      <trkpt lat="43.42395" lon="-1.08613">
        <ele>152.6</ele>
        <time>2022-09-11T09:34:19Z</time>
      </trkpt>
      <trkpt lat="43.42398" lon="-1.08631">
        <ele>153.4</ele>
        <time>2022-09-11T09:34:27Z</time>
      </trkpt>
      <trkpt lat="43.42399" lon="-1.08636">
        <ele>153.6</ele>
        <time>2022-09-11T09:34:29Z</time>
      </trkpt>
      <trkpt lat="43.42402" lon="-1.08652">
        <ele>154</ele>
        <time>2022-09-11T09:34:35Z</time>
      </trkpt>
      <trkpt lat="43.42406" lon="-1.08676">
        <ele>154.2</ele>
        <time>2022-09-11T09:34:43Z</time>
      </trkpt>
      <trkpt lat="43.42408" lon="-1.08695">
        <ele>154.6</ele>
        <time>2022-09-11T09:34:49Z</time>
      </trkpt>
      <trkpt lat="43.4241" lon="-1.08711">
        <ele>155</ele>
        <time>2022-09-11T09:34:54Z</time>
      </trkpt>
      <trkpt lat="43.42412" lon="-1.08731">
        <ele>155.6</ele>
        <time>2022-09-11T09:35:00Z</time>
      </trkpt>
      <trkpt lat="43.42411" lon="-1.08735">
        <ele>155.8</ele>
        <time>2022-09-11T09:35:01Z</time>
      </trkpt>
      <trkpt lat="43.42407" lon="-1.08758">
        <ele>155.8</ele>
        <time>2022-09-11T09:35:08Z</time>
      </trkpt>
      <trkpt lat="43.42399" lon="-1.0878">
        <ele>155.4</ele>
        <time>2022-09-11T09:35:13Z</time>
      </trkpt>
      <trkpt lat="43.42388" lon="-1.08808">
        <ele>154.6</ele>
        <time>2022-09-11T09:35:18Z</time>
      </trkpt>
      <trkpt lat="43.42385" lon="-1.08814">
        <ele>154.4</ele>
        <time>2022-09-11T09:35:19Z</time>
      </trkpt>
      <trkpt lat="43.4237" lon="-1.08862">
        <ele>154</ele>
        <time>2022-09-11T09:35:26Z</time>
      </trkpt>
      <trkpt lat="43.42365" lon="-1.08906">
        <ele>153.6</ele>
        <time>2022-09-11T09:35:32Z</time>
      </trkpt>
      <trkpt lat="43.42359" lon="-1.08964">
        <ele>153.8</ele>
        <time>2022-09-11T09:35:40Z</time>
      </trkpt>
      <trkpt lat="43.42352" lon="-1.09013">
        <ele>153.8</ele>
        <time>2022-09-11T09:35:48Z</time>
      </trkpt>
      <trkpt lat="43.42347" lon="-1.09048">
        <ele>153.6</ele>
        <time>2022-09-11T09:35:53Z</time>
      </trkpt>
      <trkpt lat="43.42344" lon="-1.09062">
        <ele>153.4</ele>
        <time>2022-09-11T09:35:55Z</time>
      </trkpt>
      <trkpt lat="43.42337" lon="-1.09117">
        <ele>153.8</ele>
        <time>2022-09-11T09:36:03Z</time>
      </trkpt>
      <trkpt lat="43.42331" lon="-1.09163">
        <ele>154.6</ele>
        <time>2022-09-11T09:36:11Z</time>
      </trkpt>
      <trkpt lat="43.4233" lon="-1.09173">
        <ele>154.6</ele>
        <time>2022-09-11T09:36:13Z</time>
      </trkpt>
      <trkpt lat="43.42326" lon="-1.09217">
        <ele>155</ele>
        <time>2022-09-11T09:36:21Z</time>
      </trkpt>
      <trkpt lat="43.42325" lon="-1.09254">
        <ele>155</ele>
        <time>2022-09-11T09:36:28Z</time>
      </trkpt>
      <trkpt lat="43.42324" lon="-1.09282">
        <ele>155.4</ele>
        <time>2022-09-11T09:36:34Z</time>
      </trkpt>
      <trkpt lat="43.42322" lon="-1.09311">
        <ele>155.8</ele>
        <time>2022-09-11T09:36:40Z</time>
      </trkpt>
      <trkpt lat="43.42322" lon="-1.09321">
        <ele>156</ele>
        <time>2022-09-11T09:36:42Z</time>
      </trkpt>
      <trkpt lat="43.42321" lon="-1.09352">
        <ele>156.8</ele>
        <time>2022-09-11T09:36:48Z</time>
      </trkpt>
      <trkpt lat="43.42319" lon="-1.09375">
        <ele>157.4</ele>
        <time>2022-09-11T09:36:53Z</time>
      </trkpt>
      <trkpt lat="43.42319" lon="-1.09392">
        <ele>157.8</ele>
        <time>2022-09-11T09:36:57Z</time>
      </trkpt>
      <trkpt lat="43.42319" lon="-1.09405">
        <ele>158.2</ele>
        <time>2022-09-11T09:37:00Z</time>
      </trkpt>
      <trkpt lat="43.42317" lon="-1.09434">
        <ele>158.6</ele>
        <time>2022-09-11T09:37:07Z</time>
      </trkpt>
      <trkpt lat="43.42317" lon="-1.09459">
        <ele>158.8</ele>
        <time>2022-09-11T09:37:13Z</time>
      </trkpt>
      <trkpt lat="43.42317" lon="-1.09464">
        <ele>158.8</ele>
        <time>2022-09-11T09:37:14Z</time>
      </trkpt>
      <trkpt lat="43.42317" lon="-1.09501">
        <ele>159</ele>
        <time>2022-09-11T09:37:22Z</time>
      </trkpt>
      <trkpt lat="43.42316" lon="-1.0954">
        <ele>159.8</ele>
        <time>2022-09-11T09:37:30Z</time>
      </trkpt>
      <trkpt lat="43.42315" lon="-1.09545">
        <ele>160</ele>
        <time>2022-09-11T09:37:31Z</time>
      </trkpt>
      <trkpt lat="43.42314" lon="-1.09575">
        <ele>160</ele>
        <time>2022-09-11T09:37:37Z</time>
      </trkpt>
      <trkpt lat="43.42312" lon="-1.09616">
        <ele>161</ele>
        <time>2022-09-11T09:37:46Z</time>
      </trkpt>
      <trkpt lat="43.42312" lon="-1.09645">
        <ele>162</ele>
        <time>2022-09-11T09:37:54Z</time>
      </trkpt>
      <trkpt lat="43.42311" lon="-1.09649">
        <ele>162.2</ele>
        <time>2022-09-11T09:37:55Z</time>
      </trkpt>
      <trkpt lat="43.4231" lon="-1.09675">
        <ele>163</ele>
        <time>2022-09-11T09:38:02Z</time>
      </trkpt>
      <trkpt lat="43.42309" lon="-1.09689">
        <ele>163.2</ele>
        <time>2022-09-11T09:38:06Z</time>
      </trkpt>
      <trkpt lat="43.42309" lon="-1.097">
        <ele>163.6</ele>
        <time>2022-09-11T09:38:09Z</time>
      </trkpt>
      <trkpt lat="43.42309" lon="-1.0972">
        <ele>164</ele>
        <time>2022-09-11T09:38:15Z</time>
      </trkpt>
      <trkpt lat="43.4231" lon="-1.0973">
        <ele>164.4</ele>
        <time>2022-09-11T09:38:18Z</time>
      </trkpt>
      <trkpt lat="43.42312" lon="-1.09741">
        <ele>164.4</ele>
        <time>2022-09-11T09:38:22Z</time>
      </trkpt>
      <trkpt lat="43.42313" lon="-1.09749">
        <ele>164.2</ele>
        <time>2022-09-11T09:38:25Z</time>
      </trkpt>
      <trkpt lat="43.42314" lon="-1.09755">
        <ele>164.2</ele>
        <time>2022-09-11T09:38:28Z</time>
      </trkpt>
      <trkpt lat="43.42316" lon="-1.09761">
        <ele>164.2</ele>
        <time>2022-09-11T09:38:30Z</time>
      </trkpt>
      <trkpt lat="43.42319" lon="-1.09772">
        <ele>163.8</ele>
        <time>2022-09-11T09:38:33Z</time>
      </trkpt>
      <trkpt lat="43.4232" lon="-1.09777">
        <ele>163.6</ele>
        <time>2022-09-11T09:38:34Z</time>
      </trkpt>
      <trkpt lat="43.42321" lon="-1.09788">
        <ele>163.6</ele>
        <time>2022-09-11T09:38:36Z</time>
      </trkpt>
      <trkpt lat="43.42321" lon="-1.09799">
        <ele>163.2</ele>
        <time>2022-09-11T09:38:38Z</time>
      </trkpt>
      <trkpt lat="43.42321" lon="-1.09804">
        <ele>163.2</ele>
        <time>2022-09-11T09:38:39Z</time>
      </trkpt>
      <trkpt lat="43.42318" lon="-1.09838">
        <ele>163</ele>
        <time>2022-09-11T09:38:45Z</time>
      </trkpt>
      <trkpt lat="43.42314" lon="-1.0988">
        <ele>162.6</ele>
        <time>2022-09-11T09:38:52Z</time>
      </trkpt>
      <trkpt lat="43.4231" lon="-1.09918">
        <ele>162.6</ele>
        <time>2022-09-11T09:38:59Z</time>
      </trkpt>
      <trkpt lat="43.42306" lon="-1.09954">
        <ele>163</ele>
        <time>2022-09-11T09:39:06Z</time>
      </trkpt>
      <trkpt lat="43.42301" lon="-1.09993">
        <ele>163.4</ele>
        <time>2022-09-11T09:39:14Z</time>
      </trkpt>
      <trkpt lat="43.423" lon="-1.10013">
        <ele>164.2</ele>
        <time>2022-09-11T09:39:19Z</time>
      </trkpt>
      <trkpt lat="43.423" lon="-1.10016">
        <ele>164.6</ele>
        <time>2022-09-11T09:39:20Z</time>
      </trkpt>
      <trkpt lat="43.423" lon="-1.10029">
        <ele>165.4</ele>
        <time>2022-09-11T09:39:24Z</time>
      </trkpt>
      <trkpt lat="43.42301" lon="-1.10032">
        <ele>165.6</ele>
        <time>2022-09-11T09:39:25Z</time>
      </trkpt>
      <trkpt lat="43.42303" lon="-1.1005">
        <ele>166.4</ele>
        <time>2022-09-11T09:39:31Z</time>
      </trkpt>
      <trkpt lat="43.42304" lon="-1.10053">
        <ele>166.6</ele>
        <time>2022-09-11T09:39:32Z</time>
      </trkpt>
      <trkpt lat="43.42307" lon="-1.10065">
        <ele>167.6</ele>
        <time>2022-09-11T09:39:37Z</time>
      </trkpt>
      <trkpt lat="43.42309" lon="-1.1007">
        <ele>167.8</ele>
        <time>2022-09-11T09:39:39Z</time>
      </trkpt>
      <trkpt lat="43.42315" lon="-1.10085">
        <ele>168.6</ele>
        <time>2022-09-11T09:39:44Z</time>
      </trkpt>
      <trkpt lat="43.42316" lon="-1.10094">
        <ele>169</ele>
        <time>2022-09-11T09:39:47Z</time>
      </trkpt>
      <trkpt lat="43.42323" lon="-1.10112">
        <ele>169.6</ele>
        <time>2022-09-11T09:39:52Z</time>
      </trkpt>
      <trkpt lat="43.42325" lon="-1.10118">
        <ele>169.8</ele>
        <time>2022-09-11T09:39:54Z</time>
      </trkpt>
      <trkpt lat="43.42333" lon="-1.10144">
        <ele>170.6</ele>
        <time>2022-09-11T09:40:02Z</time>
      </trkpt>
      <trkpt lat="43.42342" lon="-1.10169">
        <ele>170.6</ele>
        <time>2022-09-11T09:40:10Z</time>
      </trkpt>
      <trkpt lat="43.42348" lon="-1.1019">
        <ele>170.4</ele>
        <time>2022-09-11T09:40:16Z</time>
      </trkpt>
      <trkpt lat="43.42353" lon="-1.10211">
        <ele>170.2</ele>
        <time>2022-09-11T09:40:23Z</time>
      </trkpt>
      <trkpt lat="43.42356" lon="-1.10219">
        <ele>170.6</ele>
        <time>2022-09-11T09:42:44Z</time>
      </trkpt>
      <trkpt lat="43.42365" lon="-1.10222">
        <ele>171</ele>
        <time>2022-09-11T09:42:48Z</time>
      </trkpt>
      <trkpt lat="43.42368" lon="-1.10223">
        <ele>170.8</ele>
        <time>2022-09-11T09:42:49Z</time>
      </trkpt>
      <trkpt lat="43.4238" lon="-1.10226">
        <ele>170.4</ele>
        <time>2022-09-11T09:42:52Z</time>
      </trkpt>
      <trkpt lat="43.42389" lon="-1.10229">
        <ele>170</ele>
        <time>2022-09-11T09:42:54Z</time>
      </trkpt>
      <trkpt lat="43.42405" lon="-1.10233">
        <ele>169.6</ele>
        <time>2022-09-11T09:42:57Z</time>
      </trkpt>
      <trkpt lat="43.42423" lon="-1.10238">
        <ele>168.8</ele>
        <time>2022-09-11T09:43:00Z</time>
      </trkpt>
      <trkpt lat="43.42436" lon="-1.10241">
        <ele>168.4</ele>
        <time>2022-09-11T09:43:02Z</time>
      </trkpt>
      <trkpt lat="43.42471" lon="-1.10248">
        <ele>167.2</ele>
        <time>2022-09-11T09:43:07Z</time>
      </trkpt>
      <trkpt lat="43.42509" lon="-1.10245">
        <ele>166.2</ele>
        <time>2022-09-11T09:43:12Z</time>
      </trkpt>
      <trkpt lat="43.42516" lon="-1.10244">
        <ele>166.2</ele>
        <time>2022-09-11T09:43:13Z</time>
      </trkpt>
      <trkpt lat="43.42545" lon="-1.10236">
        <ele>165</ele>
        <time>2022-09-11T09:43:17Z</time>
      </trkpt>
      <trkpt lat="43.42551" lon="-1.10232">
        <ele>164.6</ele>
        <time>2022-09-11T09:43:18Z</time>
      </trkpt>
      <trkpt lat="43.42588" lon="-1.10209">
        <ele>164</ele>
        <time>2022-09-11T09:43:24Z</time>
      </trkpt>
      <trkpt lat="43.42593" lon="-1.10205">
        <ele>163.8</ele>
        <time>2022-09-11T09:43:25Z</time>
      </trkpt>
      <trkpt lat="43.4263" lon="-1.10174">
        <ele>165</ele>
        <time>2022-09-11T09:43:32Z</time>
      </trkpt>
      <trkpt lat="43.42635" lon="-1.10169">
        <ele>165</ele>
        <time>2022-09-11T09:43:33Z</time>
      </trkpt>
      <trkpt lat="43.42676" lon="-1.10144">
        <ele>164.6</ele>
        <time>2022-09-11T09:43:41Z</time>
      </trkpt>
      <trkpt lat="43.42712" lon="-1.10133">
        <ele>165</ele>
        <time>2022-09-11T09:43:48Z</time>
      </trkpt>
      <trkpt lat="43.42751" lon="-1.10129">
        <ele>166.2</ele>
        <time>2022-09-11T09:43:56Z</time>
      </trkpt>
      <trkpt lat="43.42776" lon="-1.10133">
        <ele>167.2</ele>
        <time>2022-09-11T09:44:02Z</time>
      </trkpt>
      <trkpt lat="43.42787" lon="-1.10135">
        <ele>167.4</ele>
        <time>2022-09-11T09:44:05Z</time>
      </trkpt>
      <trkpt lat="43.42812" lon="-1.10144">
        <ele>168</ele>
        <time>2022-09-11T09:44:13Z</time>
      </trkpt>
      <trkpt lat="43.42818" lon="-1.10147">
        <ele>168.2</ele>
        <time>2022-09-11T09:44:15Z</time>
      </trkpt>
      <trkpt lat="43.42835" lon="-1.10157">
        <ele>169.4</ele>
        <time>2022-09-11T09:44:21Z</time>
      </trkpt>
      <trkpt lat="43.42838" lon="-1.10159">
        <ele>169.4</ele>
        <time>2022-09-11T09:44:22Z</time>
      </trkpt>
      <trkpt lat="43.42856" lon="-1.10171">
        <ele>170.4</ele>
        <time>2022-09-11T09:44:29Z</time>
      </trkpt>
      <trkpt lat="43.42858" lon="-1.10173">
        <ele>170.6</ele>
        <time>2022-09-11T09:44:30Z</time>
      </trkpt>
      <trkpt lat="43.42872" lon="-1.10186">
        <ele>171.6</ele>
        <time>2022-09-11T09:44:36Z</time>
      </trkpt>
      <trkpt lat="43.42879" lon="-1.10193">
        <ele>172</ele>
        <time>2022-09-11T09:44:39Z</time>
      </trkpt>
      <trkpt lat="43.42891" lon="-1.10207">
        <ele>172.8</ele>
        <time>2022-09-11T09:44:45Z</time>
      </trkpt>
      <trkpt lat="43.42895" lon="-1.10213">
        <ele>173.2</ele>
        <time>2022-09-11T09:44:47Z</time>
      </trkpt>
      <trkpt lat="43.42903" lon="-1.10223">
        <ele>173.8</ele>
        <time>2022-09-11T09:44:51Z</time>
      </trkpt>
      <trkpt lat="43.42909" lon="-1.10233">
        <ele>174.6</ele>
        <time>2022-09-11T09:44:55Z</time>
      </trkpt>
      <trkpt lat="43.42913" lon="-1.1024">
        <ele>175</ele>
        <time>2022-09-11T09:44:58Z</time>
      </trkpt>
      <trkpt lat="43.42919" lon="-1.1025">
        <ele>175.6</ele>
        <time>2022-09-11T09:45:02Z</time>
      </trkpt>
      <trkpt lat="43.42923" lon="-1.10258">
        <ele>176.2</ele>
        <time>2022-09-11T09:45:05Z</time>
      </trkpt>
      <trkpt lat="43.42929" lon="-1.10272">
        <ele>177.2</ele>
        <time>2022-09-11T09:45:11Z</time>
      </trkpt>
      <trkpt lat="43.42937" lon="-1.10291">
        <ele>178.2</ele>
        <time>2022-09-11T09:45:19Z</time>
      </trkpt>
      <trkpt lat="43.42938" lon="-1.10294">
        <ele>178.2</ele>
        <time>2022-09-11T09:45:20Z</time>
      </trkpt>
      <trkpt lat="43.42943" lon="-1.1031">
        <ele>179.2</ele>
        <time>2022-09-11T09:45:26Z</time>
      </trkpt>
      <trkpt lat="43.42945" lon="-1.10314">
        <ele>179.4</ele>
        <time>2022-09-11T09:45:29Z</time>
      </trkpt>
      <trkpt lat="43.42951" lon="-1.10329">
        <ele>180.4</ele>
        <time>2022-09-11T09:45:35Z</time>
      </trkpt>
      <trkpt lat="43.42955" lon="-1.10341">
        <ele>181.2</ele>
        <time>2022-09-11T09:45:40Z</time>
      </trkpt>
      <trkpt lat="43.42956" lon="-1.10343">
        <ele>181.4</ele>
        <time>2022-09-11T09:45:41Z</time>
      </trkpt>
      <trkpt lat="43.42957" lon="-1.10348">
        <ele>181.4</ele>
        <time>2022-09-11T09:45:43Z</time>
      </trkpt>
      <trkpt lat="43.42959" lon="-1.1035">
        <ele>181.6</ele>
        <time>2022-09-11T09:45:44Z</time>
      </trkpt>
      <trkpt lat="43.42961" lon="-1.10357">
        <ele>182</ele>
        <time>2022-09-11T09:45:47Z</time>
      </trkpt>
      <trkpt lat="43.42964" lon="-1.10366">
        <ele>182.6</ele>
        <time>2022-09-11T09:45:50Z</time>
      </trkpt>
      <trkpt lat="43.42967" lon="-1.10373">
        <ele>183</ele>
        <time>2022-09-11T09:45:53Z</time>
      </trkpt>
      <trkpt lat="43.42972" lon="-1.10385">
        <ele>183.8</ele>
        <time>2022-09-11T09:45:58Z</time>
      </trkpt>
      <trkpt lat="43.42975" lon="-1.10391">
        <ele>184</ele>
        <time>2022-09-11T09:46:00Z</time>
      </trkpt>
      <trkpt lat="43.42985" lon="-1.10411">
        <ele>184.8</ele>
        <time>2022-09-11T09:46:08Z</time>
      </trkpt>
      <trkpt lat="43.42986" lon="-1.10413">
        <ele>184.8</ele>
        <time>2022-09-11T09:46:09Z</time>
      </trkpt>
      <trkpt lat="43.42996" lon="-1.10431">
        <ele>185.6</ele>
        <time>2022-09-11T09:46:16Z</time>
      </trkpt>
      <trkpt lat="43.43" lon="-1.10438">
        <ele>185.8</ele>
        <time>2022-09-11T09:46:19Z</time>
      </trkpt>
      <trkpt lat="43.43014" lon="-1.10457">
        <ele>186.2</ele>
        <time>2022-09-11T09:46:27Z</time>
      </trkpt>
      <trkpt lat="43.43038" lon="-1.10489">
        <ele>186.4</ele>
        <time>2022-09-11T09:46:37Z</time>
      </trkpt>
      <trkpt lat="43.43047" lon="-1.105">
        <ele>186.8</ele>
        <time>2022-09-11T09:46:40Z</time>
      </trkpt>
      <trkpt lat="43.43063" lon="-1.10523">
        <ele>186.8</ele>
        <time>2022-09-11T09:46:46Z</time>
      </trkpt>
      <trkpt lat="43.43084" lon="-1.10557">
        <ele>186.8</ele>
        <time>2022-09-11T09:46:54Z</time>
      </trkpt>
      <trkpt lat="43.43099" lon="-1.10585">
        <ele>186.4</ele>
        <time>2022-09-11T09:47:00Z</time>
      </trkpt>
      <trkpt lat="43.43099" lon="-1.10591">
        <ele>186.4</ele>
        <time>2022-09-11T09:47:01Z</time>
      </trkpt>
      <trkpt lat="43.43095" lon="-1.1061">
        <ele>186.4</ele>
        <time>2022-09-11T09:47:04Z</time>
      </trkpt>
      <trkpt lat="43.43089" lon="-1.1062">
        <ele>186.2</ele>
        <time>2022-09-11T09:47:06Z</time>
      </trkpt>
      <trkpt lat="43.43081" lon="-1.10635">
        <ele>185.6</ele>
        <time>2022-09-11T09:47:09Z</time>
      </trkpt>
      <trkpt lat="43.43062" lon="-1.10671">
        <ele>185.6</ele>
        <time>2022-09-11T09:47:17Z</time>
      </trkpt>
      <trkpt lat="43.43034" lon="-1.10711">
        <ele>184.8</ele>
        <time>2022-09-11T09:47:25Z</time>
      </trkpt>
      <trkpt lat="43.43026" lon="-1.10722">
        <ele>184.6</ele>
        <time>2022-09-11T09:47:27Z</time>
      </trkpt>
      <trkpt lat="43.43011" lon="-1.10751">
        <ele>183.4</ele>
        <time>2022-09-11T09:47:31Z</time>
      </trkpt>
      <trkpt lat="43.43001" lon="-1.10777">
        <ele>182.4</ele>
        <time>2022-09-11T09:47:34Z</time>
      </trkpt>
      <trkpt lat="43.4299" lon="-1.10805">
        <ele>181.8</ele>
        <time>2022-09-11T09:47:37Z</time>
      </trkpt>
      <trkpt lat="43.42983" lon="-1.10824">
        <ele>181.4</ele>
        <time>2022-09-11T09:47:39Z</time>
      </trkpt>
      <trkpt lat="43.42969" lon="-1.10861">
        <ele>180.2</ele>
        <time>2022-09-11T09:47:43Z</time>
      </trkpt>
      <trkpt lat="43.42962" lon="-1.10878">
        <ele>179.8</ele>
        <time>2022-09-11T09:47:45Z</time>
      </trkpt>
      <trkpt lat="43.42945" lon="-1.10924">
        <ele>179.8</ele>
        <time>2022-09-11T09:47:51Z</time>
      </trkpt>
      <trkpt lat="43.42931" lon="-1.1097">
        <ele>181</ele>
        <time>2022-09-11T09:47:58Z</time>
      </trkpt>
      <trkpt lat="43.4292" lon="-1.11024">
        <ele>180.8</ele>
        <time>2022-09-11T09:48:07Z</time>
      </trkpt>
      <trkpt lat="43.42915" lon="-1.11053">
        <ele>180.6</ele>
        <time>2022-09-11T09:48:13Z</time>
      </trkpt>
      <trkpt lat="43.42912" lon="-1.11084">
        <ele>180.6</ele>
        <time>2022-09-11T09:48:20Z</time>
      </trkpt>
      <trkpt lat="43.42911" lon="-1.11122">
        <ele>181</ele>
        <time>2022-09-11T09:48:28Z</time>
      </trkpt>
      <trkpt lat="43.4291" lon="-1.11142">
        <ele>181.2</ele>
        <time>2022-09-11T09:48:32Z</time>
      </trkpt>
      <trkpt lat="43.4291" lon="-1.11148">
        <ele>181.4</ele>
        <time>2022-09-11T09:48:33Z</time>
      </trkpt>
      <trkpt lat="43.42908" lon="-1.11178">
        <ele>181.8</ele>
        <time>2022-09-11T09:48:39Z</time>
      </trkpt>
      <trkpt lat="43.42906" lon="-1.11198">
        <ele>182.2</ele>
        <time>2022-09-11T09:48:43Z</time>
      </trkpt>
      <trkpt lat="43.42905" lon="-1.11222">
        <ele>183.4</ele>
        <time>2022-09-11T09:48:48Z</time>
      </trkpt>
      <trkpt lat="43.42905" lon="-1.11227">
        <ele>183.4</ele>
        <time>2022-09-11T09:48:49Z</time>
      </trkpt>
      <trkpt lat="43.42906" lon="-1.11262">
        <ele>184.4</ele>
        <time>2022-09-11T09:48:57Z</time>
      </trkpt>
      <trkpt lat="43.42906" lon="-1.11266">
        <ele>184.6</ele>
        <time>2022-09-11T09:48:58Z</time>
      </trkpt>
      <trkpt lat="43.42907" lon="-1.11293">
        <ele>185.4</ele>
        <time>2022-09-11T09:49:04Z</time>
      </trkpt>
      <trkpt lat="43.42907" lon="-1.11296">
        <ele>185.6</ele>
        <time>2022-09-11T09:49:05Z</time>
      </trkpt>
      <trkpt lat="43.42903" lon="-1.1132">
        <ele>186.6</ele>
        <time>2022-09-11T09:49:11Z</time>
      </trkpt>
      <trkpt lat="43.429" lon="-1.11327">
        <ele>187</ele>
        <time>2022-09-11T09:49:13Z</time>
      </trkpt>
      <trkpt lat="43.42894" lon="-1.11343">
        <ele>187.8</ele>
        <time>2022-09-11T09:49:18Z</time>
      </trkpt>
      <trkpt lat="43.4289" lon="-1.11351">
        <ele>188</ele>
        <time>2022-09-11T09:49:21Z</time>
      </trkpt>
      <trkpt lat="43.42886" lon="-1.11365">
        <ele>188.2</ele>
        <time>2022-09-11T09:49:27Z</time>
      </trkpt>
      <trkpt lat="43.42882" lon="-1.11387">
        <ele>188.2</ele>
        <time>2022-09-11T09:49:35Z</time>
      </trkpt>
      <trkpt lat="43.4288" lon="-1.1141">
        <ele>187.8</ele>
        <time>2022-09-11T09:49:40Z</time>
      </trkpt>
      <trkpt lat="43.42877" lon="-1.11431">
        <ele>186.6</ele>
        <time>2022-09-11T09:49:45Z</time>
      </trkpt>
      <trkpt lat="43.42874" lon="-1.11441">
        <ele>185.8</ele>
        <time>2022-09-11T09:50:27Z</time>
      </trkpt>
      <trkpt lat="43.42874" lon="-1.11443">
        <ele>185.6</ele>
        <time>2022-09-11T09:50:28Z</time>
      </trkpt>
      <trkpt lat="43.42869" lon="-1.11464">
        <ele>184.6</ele>
        <time>2022-09-11T09:50:31Z</time>
      </trkpt>
      <trkpt lat="43.42867" lon="-1.11472">
        <ele>184.2</ele>
        <time>2022-09-11T09:50:32Z</time>
      </trkpt>
      <trkpt lat="43.42857" lon="-1.11501">
        <ele>183.2</ele>
        <time>2022-09-11T09:50:35Z</time>
      </trkpt>
      <trkpt lat="43.42848" lon="-1.11532">
        <ele>182.2</ele>
        <time>2022-09-11T09:50:38Z</time>
      </trkpt>
      <trkpt lat="43.42841" lon="-1.11566">
        <ele>181.8</ele>
        <time>2022-09-11T09:50:41Z</time>
      </trkpt>
      <trkpt lat="43.42838" lon="-1.11588">
        <ele>181</ele>
        <time>2022-09-11T09:50:43Z</time>
      </trkpt>
      <trkpt lat="43.42837" lon="-1.116">
        <ele>180.8</ele>
        <time>2022-09-11T09:50:44Z</time>
      </trkpt>
      <trkpt lat="43.42839" lon="-1.11611">
        <ele>180.8</ele>
        <time>2022-09-11T09:50:45Z</time>
      </trkpt>
      <trkpt lat="43.42846" lon="-1.11632">
        <ele>179.8</ele>
        <time>2022-09-11T09:50:47Z</time>
      </trkpt>
      <trkpt lat="43.42851" lon="-1.11642">
        <ele>179.8</ele>
        <time>2022-09-11T09:50:48Z</time>
      </trkpt>
      <trkpt lat="43.42881" lon="-1.11703">
        <ele>179</ele>
        <time>2022-09-11T09:50:55Z</time>
      </trkpt>
      <trkpt lat="43.42889" lon="-1.11718">
        <ele>178.8</ele>
        <time>2022-09-11T09:50:57Z</time>
      </trkpt>
      <trkpt lat="43.42903" lon="-1.11745">
        <ele>178.8</ele>
        <time>2022-09-11T09:51:01Z</time>
      </trkpt>
      <trkpt lat="43.42912" lon="-1.11768">
        <ele>178.6</ele>
        <time>2022-09-11T09:51:06Z</time>
      </trkpt>
      <trkpt lat="43.42912" lon="-1.1177">
        <ele>178.4</ele>
        <time>2022-09-11T09:51:07Z</time>
      </trkpt>
      <trkpt lat="43.42912" lon="-1.11771">
        <ele>178.4</ele>
        <time>2022-09-11T09:51:09Z</time>
      </trkpt>
      <trkpt lat="43.42911" lon="-1.1177">
        <ele>178.4</ele>
        <time>2022-09-11T09:51:10Z</time>
      </trkpt>
      <trkpt lat="43.42909" lon="-1.11765">
        <ele>178.6</ele>
        <time>2022-09-11T09:51:13Z</time>
      </trkpt>
      <trkpt lat="43.42907" lon="-1.11758">
        <ele>178.6</ele>
        <time>2022-09-11T09:51:16Z</time>
      </trkpt>
      <trkpt lat="43.42904" lon="-1.11752">
        <ele>178.4</ele>
        <time>2022-09-11T09:51:20Z</time>
      </trkpt>
      <trkpt lat="43.42908" lon="-1.11757">
        <ele>178</ele>
        <time>2022-09-11T09:52:41Z</time>
      </trkpt>
      <trkpt lat="43.4291" lon="-1.1176">
        <ele>178</ele>
        <time>2022-09-11T09:52:43Z</time>
      </trkpt>
      <trkpt lat="43.42915" lon="-1.11779">
        <ele>178</ele>
        <time>2022-09-11T09:52:49Z</time>
      </trkpt>
      <trkpt lat="43.42923" lon="-1.11806">
        <ele>178.4</ele>
        <time>2022-09-11T09:52:56Z</time>
      </trkpt>
      <trkpt lat="43.42936" lon="-1.11849">
        <ele>178.6</ele>
        <time>2022-09-11T09:53:06Z</time>
      </trkpt>
      <trkpt lat="43.42947" lon="-1.11885">
        <ele>179.4</ele>
        <time>2022-09-11T09:53:15Z</time>
      </trkpt>
      <trkpt lat="43.42949" lon="-1.11906">
        <ele>179.8</ele>
        <time>2022-09-11T09:53:21Z</time>
      </trkpt>
      <trkpt lat="43.42947" lon="-1.11933">
        <ele>180</ele>
        <time>2022-09-11T09:53:28Z</time>
      </trkpt>
      <trkpt lat="43.42945" lon="-1.1197">
        <ele>179</ele>
        <time>2022-09-11T09:53:35Z</time>
      </trkpt>
      <trkpt lat="43.42944" lon="-1.11977">
        <ele>178.8</ele>
        <time>2022-09-11T09:53:36Z</time>
      </trkpt>
      <trkpt lat="43.4294" lon="-1.12002">
        <ele>178</ele>
        <time>2022-09-11T09:53:39Z</time>
      </trkpt>
      <trkpt lat="43.42937" lon="-1.12011">
        <ele>177.6</ele>
        <time>2022-09-11T09:53:40Z</time>
      </trkpt>
      <trkpt lat="43.42921" lon="-1.12039">
        <ele>177.8</ele>
        <time>2022-09-11T09:53:44Z</time>
      </trkpt>
      <trkpt lat="43.42897" lon="-1.12086">
        <ele>176.8</ele>
        <time>2022-09-11T09:53:51Z</time>
      </trkpt>
      <trkpt lat="43.42895" lon="-1.12091">
        <ele>176.4</ele>
        <time>2022-09-11T09:53:52Z</time>
      </trkpt>
      <trkpt lat="43.42894" lon="-1.12109">
        <ele>176</ele>
        <time>2022-09-11T09:53:55Z</time>
      </trkpt>
      <trkpt lat="43.42895" lon="-1.12132">
        <ele>175.4</ele>
        <time>2022-09-11T09:53:58Z</time>
      </trkpt>
      <trkpt lat="43.42898" lon="-1.12147">
        <ele>174.6</ele>
        <time>2022-09-11T09:54:00Z</time>
      </trkpt>
      <trkpt lat="43.42907" lon="-1.12169">
        <ele>174.2</ele>
        <time>2022-09-11T09:54:03Z</time>
      </trkpt>
      <trkpt lat="43.42912" lon="-1.12176">
        <ele>174</ele>
        <time>2022-09-11T09:54:04Z</time>
      </trkpt>
      <trkpt lat="43.42917" lon="-1.12184">
        <ele>173.6</ele>
        <time>2022-09-11T09:54:05Z</time>
      </trkpt>
      <trkpt lat="43.42922" lon="-1.12191">
        <ele>173</ele>
        <time>2022-09-11T09:54:06Z</time>
      </trkpt>
      <trkpt lat="43.42941" lon="-1.12216">
        <ele>171.6</ele>
        <time>2022-09-11T09:54:09Z</time>
      </trkpt>
      <trkpt lat="43.42955" lon="-1.12235">
        <ele>170.6</ele>
        <time>2022-09-11T09:54:11Z</time>
      </trkpt>
      <trkpt lat="43.4297" lon="-1.12255">
        <ele>169.6</ele>
        <time>2022-09-11T09:54:13Z</time>
      </trkpt>
      <trkpt lat="43.42977" lon="-1.12265">
        <ele>169</ele>
        <time>2022-09-11T09:54:14Z</time>
      </trkpt>
      <trkpt lat="43.42985" lon="-1.12274">
        <ele>168.4</ele>
        <time>2022-09-11T09:54:15Z</time>
      </trkpt>
      <trkpt lat="43.43001" lon="-1.12292">
        <ele>167.2</ele>
        <time>2022-09-11T09:54:17Z</time>
      </trkpt>
      <trkpt lat="43.43023" lon="-1.12318">
        <ele>166.4</ele>
        <time>2022-09-11T09:54:20Z</time>
      </trkpt>
      <trkpt lat="43.43034" lon="-1.12338">
        <ele>166.2</ele>
        <time>2022-09-11T09:54:22Z</time>
      </trkpt>
      <trkpt lat="43.43039" lon="-1.12348">
        <ele>165.8</ele>
        <time>2022-09-11T09:54:23Z</time>
      </trkpt>
      <trkpt lat="43.43044" lon="-1.12359">
        <ele>165.4</ele>
        <time>2022-09-11T09:54:24Z</time>
      </trkpt>
      <trkpt lat="43.43053" lon="-1.1238">
        <ele>164.6</ele>
        <time>2022-09-11T09:54:26Z</time>
      </trkpt>
      <trkpt lat="43.43059" lon="-1.12389">
        <ele>164.2</ele>
        <time>2022-09-11T09:54:27Z</time>
      </trkpt>
      <trkpt lat="43.43075" lon="-1.12405">
        <ele>163.8</ele>
        <time>2022-09-11T09:54:29Z</time>
      </trkpt>
      <trkpt lat="43.43084" lon="-1.12411">
        <ele>163.6</ele>
        <time>2022-09-11T09:54:30Z</time>
      </trkpt>
      <trkpt lat="43.43093" lon="-1.12416">
        <ele>163.2</ele>
        <time>2022-09-11T09:54:31Z</time>
      </trkpt>
      <trkpt lat="43.43101" lon="-1.12424">
        <ele>162.8</ele>
        <time>2022-09-11T09:54:32Z</time>
      </trkpt>
      <trkpt lat="43.43109" lon="-1.12434">
        <ele>162.6</ele>
        <time>2022-09-11T09:54:33Z</time>
      </trkpt>
      <trkpt lat="43.43117" lon="-1.12443">
        <ele>162.4</ele>
        <time>2022-09-11T09:54:34Z</time>
      </trkpt>
      <trkpt lat="43.43144" lon="-1.12481">
        <ele>161.2</ele>
        <time>2022-09-11T09:54:38Z</time>
      </trkpt>
      <trkpt lat="43.43156" lon="-1.125">
        <ele>160.6</ele>
        <time>2022-09-11T09:54:40Z</time>
      </trkpt>
      <trkpt lat="43.43163" lon="-1.12521">
        <ele>160</ele>
        <time>2022-09-11T09:54:42Z</time>
      </trkpt>
      <trkpt lat="43.43167" lon="-1.12542">
        <ele>160</ele>
        <time>2022-09-11T09:54:44Z</time>
      </trkpt>
      <trkpt lat="43.4317" lon="-1.1256">
        <ele>160</ele>
        <time>2022-09-11T09:54:46Z</time>
      </trkpt>
      <trkpt lat="43.43169" lon="-1.12599">
        <ele>160.4</ele>
        <time>2022-09-11T09:54:51Z</time>
      </trkpt>
      <trkpt lat="43.4317" lon="-1.12632">
        <ele>161.2</ele>
        <time>2022-09-11T09:54:56Z</time>
      </trkpt>
      <trkpt lat="43.43171" lon="-1.12638">
        <ele>161.6</ele>
        <time>2022-09-11T09:54:57Z</time>
      </trkpt>
      <trkpt lat="43.43172" lon="-1.12649">
        <ele>162.2</ele>
        <time>2022-09-11T09:54:59Z</time>
      </trkpt>
      <trkpt lat="43.43174" lon="-1.12673">
        <ele>163.2</ele>
        <time>2022-09-11T09:55:04Z</time>
      </trkpt>
      <trkpt lat="43.43174" lon="-1.12677">
        <ele>163.4</ele>
        <time>2022-09-11T09:55:05Z</time>
      </trkpt>
      <trkpt lat="43.43171" lon="-1.12717">
        <ele>163</ele>
        <time>2022-09-11T09:55:13Z</time>
      </trkpt>
      <trkpt lat="43.43168" lon="-1.12749">
        <ele>162.2</ele>
        <time>2022-09-11T09:55:17Z</time>
      </trkpt>
      <trkpt lat="43.43167" lon="-1.12758">
        <ele>162</ele>
        <time>2022-09-11T09:55:18Z</time>
      </trkpt>
      <trkpt lat="43.43165" lon="-1.12815">
        <ele>161.2</ele>
        <time>2022-09-11T09:55:24Z</time>
      </trkpt>
      <trkpt lat="43.43168" lon="-1.1287">
        <ele>160.2</ele>
        <time>2022-09-11T09:55:30Z</time>
      </trkpt>
      <trkpt lat="43.43169" lon="-1.12888">
        <ele>160</ele>
        <time>2022-09-11T09:55:32Z</time>
      </trkpt>
      <trkpt lat="43.43174" lon="-1.12947">
        <ele>159.6</ele>
        <time>2022-09-11T09:55:39Z</time>
      </trkpt>
      <trkpt lat="43.43175" lon="-1.12961">
        <ele>159.4</ele>
        <time>2022-09-11T09:55:41Z</time>
      </trkpt>
      <trkpt lat="43.43178" lon="-1.12981">
        <ele>159.4</ele>
        <time>2022-09-11T09:55:44Z</time>
      </trkpt>
      <trkpt lat="43.43181" lon="-1.13016">
        <ele>159.6</ele>
        <time>2022-09-11T09:55:49Z</time>
      </trkpt>
      <trkpt lat="43.43181" lon="-1.13022">
        <ele>159.8</ele>
        <time>2022-09-11T09:55:50Z</time>
      </trkpt>
      <trkpt lat="43.43179" lon="-1.13057">
        <ele>160.4</ele>
        <time>2022-09-11T09:55:55Z</time>
      </trkpt>
      <trkpt lat="43.43178" lon="-1.1307">
        <ele>160.6</ele>
        <time>2022-09-11T09:55:57Z</time>
      </trkpt>
      <trkpt lat="43.43169" lon="-1.13109">
        <ele>161</ele>
        <time>2022-09-11T09:56:03Z</time>
      </trkpt>
      <trkpt lat="43.43167" lon="-1.13116">
        <ele>161.2</ele>
        <time>2022-09-11T09:56:04Z</time>
      </trkpt>
      <trkpt lat="43.43162" lon="-1.13136">
        <ele>162.2</ele>
        <time>2022-09-11T09:56:08Z</time>
      </trkpt>
      <trkpt lat="43.43156" lon="-1.13155">
        <ele>163.4</ele>
        <time>2022-09-11T09:56:13Z</time>
      </trkpt>
      <trkpt lat="43.43155" lon="-1.13158">
        <ele>163.6</ele>
        <time>2022-09-11T09:56:14Z</time>
      </trkpt>
      <trkpt lat="43.43152" lon="-1.13169">
        <ele>164.4</ele>
        <time>2022-09-11T09:56:18Z</time>
      </trkpt>
      <trkpt lat="43.4315" lon="-1.13176">
        <ele>165</ele>
        <time>2022-09-11T09:56:21Z</time>
      </trkpt>
      <trkpt lat="43.43146" lon="-1.13186">
        <ele>165.4</ele>
        <time>2022-09-11T09:56:25Z</time>
      </trkpt>
      <trkpt lat="43.43145" lon="-1.13189">
        <ele>165.6</ele>
        <time>2022-09-11T09:56:26Z</time>
      </trkpt>
      <trkpt lat="43.43145" lon="-1.13191">
        <ele>165.6</ele>
        <time>2022-09-11T09:56:27Z</time>
      </trkpt>
      <trkpt lat="43.4314" lon="-1.13207">
        <ele>166.4</ele>
        <time>2022-09-11T09:56:34Z</time>
      </trkpt>
      <trkpt lat="43.43139" lon="-1.1321">
        <ele>166.6</ele>
        <time>2022-09-11T09:56:35Z</time>
      </trkpt>
      <trkpt lat="43.43136" lon="-1.13224">
        <ele>167.2</ele>
        <time>2022-09-11T09:56:40Z</time>
      </trkpt>
      <trkpt lat="43.43134" lon="-1.1323">
        <ele>167.6</ele>
        <time>2022-09-11T09:56:43Z</time>
      </trkpt>
      <trkpt lat="43.43133" lon="-1.13235">
        <ele>167.8</ele>
        <time>2022-09-11T09:56:45Z</time>
      </trkpt>
      <trkpt lat="43.43126" lon="-1.13253">
        <ele>168.8</ele>
        <time>2022-09-11T09:56:52Z</time>
      </trkpt>
      <trkpt lat="43.43119" lon="-1.13268">
        <ele>169.2</ele>
        <time>2022-09-11T09:56:58Z</time>
      </trkpt>
      <trkpt lat="43.43109" lon="-1.13285">
        <ele>169.2</ele>
        <time>2022-09-11T09:57:04Z</time>
      </trkpt>
      <trkpt lat="43.43093" lon="-1.13307">
        <ele>168.6</ele>
        <time>2022-09-11T09:57:10Z</time>
      </trkpt>
      <trkpt lat="43.43076" lon="-1.1334">
        <ele>167.4</ele>
        <time>2022-09-11T09:57:16Z</time>
      </trkpt>
      <trkpt lat="43.43063" lon="-1.13373">
        <ele>166.4</ele>
        <time>2022-09-11T09:57:21Z</time>
      </trkpt>
      <trkpt lat="43.43061" lon="-1.1338">
        <ele>166</ele>
        <time>2022-09-11T09:57:22Z</time>
      </trkpt>
      <trkpt lat="43.43056" lon="-1.13399">
        <ele>165.2</ele>
        <time>2022-09-11T09:57:25Z</time>
      </trkpt>
      <trkpt lat="43.43058" lon="-1.13413">
        <ele>164.6</ele>
        <time>2022-09-11T09:57:27Z</time>
      </trkpt>
      <trkpt lat="43.4307" lon="-1.13427">
        <ele>164.4</ele>
        <time>2022-09-11T09:57:30Z</time>
      </trkpt>
      <trkpt lat="43.43083" lon="-1.13433">
        <ele>164.4</ele>
        <time>2022-09-11T09:57:33Z</time>
      </trkpt>
      <trkpt lat="43.43092" lon="-1.13437">
        <ele>164.4</ele>
        <time>2022-09-11T09:57:35Z</time>
      </trkpt>
      <trkpt lat="43.43104" lon="-1.13443">
        <ele>164.4</ele>
        <time>2022-09-11T09:57:38Z</time>
      </trkpt>
      <trkpt lat="43.43111" lon="-1.1345">
        <ele>164</ele>
        <time>2022-09-11T09:57:40Z</time>
      </trkpt>
      <trkpt lat="43.43119" lon="-1.13476">
        <ele>163.4</ele>
        <time>2022-09-11T09:57:44Z</time>
      </trkpt>
      <trkpt lat="43.43114" lon="-1.13494">
        <ele>162.8</ele>
        <time>2022-09-11T09:57:46Z</time>
      </trkpt>
      <trkpt lat="43.4311" lon="-1.13503">
        <ele>162.2</ele>
        <time>2022-09-11T09:57:47Z</time>
      </trkpt>
      <trkpt lat="43.43105" lon="-1.13513">
        <ele>161.4</ele>
        <time>2022-09-11T09:57:48Z</time>
      </trkpt>
      <trkpt lat="43.431" lon="-1.13522">
        <ele>160.8</ele>
        <time>2022-09-11T09:57:49Z</time>
      </trkpt>
      <trkpt lat="43.43089" lon="-1.13543">
        <ele>160.2</ele>
        <time>2022-09-11T09:57:51Z</time>
      </trkpt>
      <trkpt lat="43.43076" lon="-1.13564">
        <ele>159</ele>
        <time>2022-09-11T09:57:53Z</time>
      </trkpt>
      <trkpt lat="43.43063" lon="-1.13586">
        <ele>157.2</ele>
        <time>2022-09-11T09:57:55Z</time>
      </trkpt>
      <trkpt lat="43.43056" lon="-1.136">
        <ele>155.8</ele>
        <time>2022-09-11T09:57:56Z</time>
      </trkpt>
      <trkpt lat="43.43049" lon="-1.13612">
        <ele>154.6</ele>
        <time>2022-09-11T09:57:57Z</time>
      </trkpt>
      <trkpt lat="43.43034" lon="-1.13639">
        <ele>152.8</ele>
        <time>2022-09-11T09:57:59Z</time>
      </trkpt>
      <trkpt lat="43.43026" lon="-1.13653">
        <ele>149.6</ele>
        <time>2022-09-11T09:58:00Z</time>
      </trkpt>
      <trkpt lat="43.43019" lon="-1.13669">
        <ele>148.6</ele>
        <time>2022-09-11T09:58:01Z</time>
      </trkpt>
      <trkpt lat="43.43005" lon="-1.137">
        <ele>147</ele>
        <time>2022-09-11T09:58:03Z</time>
      </trkpt>
      <trkpt lat="43.42997" lon="-1.13716">
        <ele>145.8</ele>
        <time>2022-09-11T09:58:04Z</time>
      </trkpt>
      <trkpt lat="43.42989" lon="-1.13732">
        <ele>144.6</ele>
        <time>2022-09-11T09:58:05Z</time>
      </trkpt>
      <trkpt lat="43.42982" lon="-1.13747">
        <ele>143.2</ele>
        <time>2022-09-11T09:58:06Z</time>
      </trkpt>
      <trkpt lat="43.42975" lon="-1.13764">
        <ele>142</ele>
        <time>2022-09-11T09:58:07Z</time>
      </trkpt>
      <trkpt lat="43.42967" lon="-1.13779">
        <ele>140.8</ele>
        <time>2022-09-11T09:58:08Z</time>
      </trkpt>
      <trkpt lat="43.4296" lon="-1.13794">
        <ele>139.6</ele>
        <time>2022-09-11T09:58:09Z</time>
      </trkpt>
      <trkpt lat="43.42945" lon="-1.13824">
        <ele>138.2</ele>
        <time>2022-09-11T09:58:11Z</time>
      </trkpt>
      <trkpt lat="43.4293" lon="-1.13855">
        <ele>136.8</ele>
        <time>2022-09-11T09:58:13Z</time>
      </trkpt>
      <trkpt lat="43.42923" lon="-1.1387">
        <ele>135.4</ele>
        <time>2022-09-11T09:58:14Z</time>
      </trkpt>
      <trkpt lat="43.42915" lon="-1.13885">
        <ele>134.6</ele>
        <time>2022-09-11T09:58:15Z</time>
      </trkpt>
      <trkpt lat="43.42907" lon="-1.13899">
        <ele>133.6</ele>
        <time>2022-09-11T09:58:16Z</time>
      </trkpt>
      <trkpt lat="43.4289" lon="-1.13928">
        <ele>131.2</ele>
        <time>2022-09-11T09:58:18Z</time>
      </trkpt>
      <trkpt lat="43.42881" lon="-1.13943">
        <ele>130</ele>
        <time>2022-09-11T09:58:19Z</time>
      </trkpt>
      <trkpt lat="43.42874" lon="-1.13957">
        <ele>129</ele>
        <time>2022-09-11T09:58:20Z</time>
      </trkpt>
      <trkpt lat="43.42865" lon="-1.1397">
        <ele>128.2</ele>
        <time>2022-09-11T09:58:21Z</time>
      </trkpt>
      <trkpt lat="43.42848" lon="-1.13996">
        <ele>127</ele>
        <time>2022-09-11T09:58:23Z</time>
      </trkpt>
      <trkpt lat="43.42841" lon="-1.14008">
        <ele>125.8</ele>
        <time>2022-09-11T09:58:24Z</time>
      </trkpt>
      <trkpt lat="43.42827" lon="-1.14029">
        <ele>123.8</ele>
        <time>2022-09-11T09:58:26Z</time>
      </trkpt>
      <trkpt lat="43.42816" lon="-1.14048">
        <ele>122.6</ele>
        <time>2022-09-11T09:58:28Z</time>
      </trkpt>
      <trkpt lat="43.42807" lon="-1.1407">
        <ele>121.8</ele>
        <time>2022-09-11T09:58:30Z</time>
      </trkpt>
      <trkpt lat="43.42803" lon="-1.14081">
        <ele>121.4</ele>
        <time>2022-09-11T09:58:31Z</time>
      </trkpt>
      <trkpt lat="43.42793" lon="-1.14105">
        <ele>120.6</ele>
        <time>2022-09-11T09:58:33Z</time>
      </trkpt>
      <trkpt lat="43.42791" lon="-1.14118">
        <ele>120</ele>
        <time>2022-09-11T09:58:34Z</time>
      </trkpt>
      <trkpt lat="43.42789" lon="-1.14143">
        <ele>119.2</ele>
        <time>2022-09-11T09:58:36Z</time>
      </trkpt>
      <trkpt lat="43.42789" lon="-1.14157">
        <ele>118.8</ele>
        <time>2022-09-11T09:58:37Z</time>
      </trkpt>
      <trkpt lat="43.42789" lon="-1.14198">
        <ele>117</ele>
        <time>2022-09-11T09:58:40Z</time>
      </trkpt>
      <trkpt lat="43.4279" lon="-1.14211">
        <ele>116.2</ele>
        <time>2022-09-11T09:58:41Z</time>
      </trkpt>
      <trkpt lat="43.42791" lon="-1.14226">
        <ele>115.6</ele>
        <time>2022-09-11T09:58:42Z</time>
      </trkpt>
      <trkpt lat="43.42793" lon="-1.14255">
        <ele>114</ele>
        <time>2022-09-11T09:58:44Z</time>
      </trkpt>
      <trkpt lat="43.42796" lon="-1.14281">
        <ele>112.6</ele>
        <time>2022-09-11T09:58:46Z</time>
      </trkpt>
      <trkpt lat="43.42801" lon="-1.14306">
        <ele>110.8</ele>
        <time>2022-09-11T09:58:48Z</time>
      </trkpt>
      <trkpt lat="43.42811" lon="-1.14329">
        <ele>109.6</ele>
        <time>2022-09-11T09:58:50Z</time>
      </trkpt>
      <trkpt lat="43.42827" lon="-1.14349">
        <ele>108</ele>
        <time>2022-09-11T09:58:52Z</time>
      </trkpt>
      <trkpt lat="43.42834" lon="-1.1436">
        <ele>107</ele>
        <time>2022-09-11T09:58:53Z</time>
      </trkpt>
      <trkpt lat="43.42845" lon="-1.14367">
        <ele>106.4</ele>
        <time>2022-09-11T09:58:54Z</time>
      </trkpt>
      <trkpt lat="43.42864" lon="-1.14384">
        <ele>104.6</ele>
        <time>2022-09-11T09:58:56Z</time>
      </trkpt>
      <trkpt lat="43.42887" lon="-1.14397">
        <ele>102.8</ele>
        <time>2022-09-11T09:58:58Z</time>
      </trkpt>
      <trkpt lat="43.42898" lon="-1.14403">
        <ele>101.6</ele>
        <time>2022-09-11T09:58:59Z</time>
      </trkpt>
      <trkpt lat="43.4291" lon="-1.14408">
        <ele>99.4</ele>
        <time>2022-09-11T09:59:00Z</time>
      </trkpt>
      <trkpt lat="43.4292" lon="-1.14414">
        <ele>97.4</ele>
        <time>2022-09-11T09:59:01Z</time>
      </trkpt>
      <trkpt lat="43.4293" lon="-1.14418">
        <ele>95.4</ele>
        <time>2022-09-11T09:59:02Z</time>
      </trkpt>
      <trkpt lat="43.4294" lon="-1.14423">
        <ele>94</ele>
        <time>2022-09-11T09:59:03Z</time>
      </trkpt>
      <trkpt lat="43.4295" lon="-1.14427">
        <ele>92.8</ele>
        <time>2022-09-11T09:59:04Z</time>
      </trkpt>
      <trkpt lat="43.42959" lon="-1.14432">
        <ele>91.6</ele>
        <time>2022-09-11T09:59:05Z</time>
      </trkpt>
      <trkpt lat="43.42968" lon="-1.14434">
        <ele>90.4</ele>
        <time>2022-09-11T09:59:06Z</time>
      </trkpt>
      <trkpt lat="43.42977" lon="-1.14435">
        <ele>89.2</ele>
        <time>2022-09-11T09:59:07Z</time>
      </trkpt>
      <trkpt lat="43.42986" lon="-1.14433">
        <ele>88</ele>
        <time>2022-09-11T09:59:08Z</time>
      </trkpt>
      <trkpt lat="43.42994" lon="-1.1443">
        <ele>86.8</ele>
        <time>2022-09-11T09:59:09Z</time>
      </trkpt>
      <trkpt lat="43.43001" lon="-1.14426">
        <ele>85.6</ele>
        <time>2022-09-11T09:59:10Z</time>
      </trkpt>
      <trkpt lat="43.43007" lon="-1.14422">
        <ele>84.4</ele>
        <time>2022-09-11T09:59:11Z</time>
      </trkpt>
      <trkpt lat="43.43011" lon="-1.14422">
        <ele>82.2</ele>
        <time>2022-09-11T09:59:12Z</time>
      </trkpt>
      <trkpt lat="43.43015" lon="-1.14422">
        <ele>81.4</ele>
        <time>2022-09-11T09:59:13Z</time>
      </trkpt>
      <trkpt lat="43.43019" lon="-1.14424">
        <ele>81</ele>
        <time>2022-09-11T09:59:14Z</time>
      </trkpt>
      <trkpt lat="43.43026" lon="-1.14434">
        <ele>79.6</ele>
        <time>2022-09-11T09:59:17Z</time>
      </trkpt>
      <trkpt lat="43.43031" lon="-1.14449">
        <ele>78.4</ele>
        <time>2022-09-11T09:59:20Z</time>
      </trkpt>
      <trkpt lat="43.43034" lon="-1.14455">
        <ele>78.2</ele>
        <time>2022-09-11T09:59:21Z</time>
      </trkpt>
      <trkpt lat="43.43037" lon="-1.14462">
        <ele>78.2</ele>
        <time>2022-09-11T09:59:22Z</time>
      </trkpt>
      <trkpt lat="43.43048" lon="-1.14482">
        <ele>77.2</ele>
        <time>2022-09-11T09:59:25Z</time>
      </trkpt>
      <trkpt lat="43.43053" lon="-1.14503">
        <ele>77</ele>
        <time>2022-09-11T09:59:27Z</time>
      </trkpt>
      <trkpt lat="43.43055" lon="-1.14515">
        <ele>76.8</ele>
        <time>2022-09-11T09:59:28Z</time>
      </trkpt>
      <trkpt lat="43.43058" lon="-1.14571">
        <ele>76.2</ele>
        <time>2022-09-11T09:59:33Z</time>
      </trkpt>
      <trkpt lat="43.43061" lon="-1.14599">
        <ele>75.8</ele>
        <time>2022-09-11T09:59:36Z</time>
      </trkpt>
      <trkpt lat="43.43064" lon="-1.14616">
        <ele>75.2</ele>
        <time>2022-09-11T09:59:38Z</time>
      </trkpt>
      <trkpt lat="43.43079" lon="-1.14665">
        <ele>74</ele>
        <time>2022-09-11T09:59:43Z</time>
      </trkpt>
      <trkpt lat="43.43087" lon="-1.14696">
        <ele>72.8</ele>
        <time>2022-09-11T09:59:46Z</time>
      </trkpt>
      <trkpt lat="43.43093" lon="-1.14719">
        <ele>71.6</ele>
        <time>2022-09-11T09:59:48Z</time>
      </trkpt>
      <trkpt lat="43.43099" lon="-1.14744">
        <ele>70</ele>
        <time>2022-09-11T09:59:50Z</time>
      </trkpt>
      <trkpt lat="43.43104" lon="-1.14767">
        <ele>68.6</ele>
        <time>2022-09-11T09:59:52Z</time>
      </trkpt>
      <trkpt lat="43.43105" lon="-1.1478">
        <ele>68</ele>
        <time>2022-09-11T09:59:53Z</time>
      </trkpt>
      <trkpt lat="43.43107" lon="-1.14794">
        <ele>67.2</ele>
        <time>2022-09-11T09:59:54Z</time>
      </trkpt>
      <trkpt lat="43.43111" lon="-1.14818">
        <ele>66</ele>
        <time>2022-09-11T09:59:56Z</time>
      </trkpt>
      <trkpt lat="43.43114" lon="-1.14838">
        <ele>64.4</ele>
        <time>2022-09-11T09:59:58Z</time>
      </trkpt>
      <trkpt lat="43.43119" lon="-1.14855">
        <ele>62.8</ele>
        <time>2022-09-11T10:00:00Z</time>
      </trkpt>
      <trkpt lat="43.43123" lon="-1.14871">
        <ele>61.4</ele>
        <time>2022-09-11T10:00:02Z</time>
      </trkpt>
      <trkpt lat="43.43128" lon="-1.14885">
        <ele>60</ele>
        <time>2022-09-11T10:00:04Z</time>
      </trkpt>
      <trkpt lat="43.43131" lon="-1.14899">
        <ele>59</ele>
        <time>2022-09-11T10:00:06Z</time>
      </trkpt>
      <trkpt lat="43.43137" lon="-1.1492">
        <ele>57.6</ele>
        <time>2022-09-11T10:00:09Z</time>
      </trkpt>
      <trkpt lat="43.4314" lon="-1.14928">
        <ele>57</ele>
        <time>2022-09-11T10:00:10Z</time>
      </trkpt>
      <trkpt lat="43.43141" lon="-1.14937">
        <ele>56.2</ele>
        <time>2022-09-11T10:00:11Z</time>
      </trkpt>
      <trkpt lat="43.4314" lon="-1.14959">
        <ele>55</ele>
        <time>2022-09-11T10:00:13Z</time>
      </trkpt>
      <trkpt lat="43.43138" lon="-1.1497">
        <ele>54.6</ele>
        <time>2022-09-11T10:00:14Z</time>
      </trkpt>
      <trkpt lat="43.43129" lon="-1.14999">
        <ele>53.6</ele>
        <time>2022-09-11T10:00:17Z</time>
      </trkpt>
      <trkpt lat="43.43126" lon="-1.15011">
        <ele>53.2</ele>
        <time>2022-09-11T10:00:18Z</time>
      </trkpt>
      <trkpt lat="43.43119" lon="-1.15035">
        <ele>52.2</ele>
        <time>2022-09-11T10:00:20Z</time>
      </trkpt>
      <trkpt lat="43.43113" lon="-1.15061">
        <ele>51.4</ele>
        <time>2022-09-11T10:00:22Z</time>
      </trkpt>
      <trkpt lat="43.43113" lon="-1.15074">
        <ele>51</ele>
        <time>2022-09-11T10:00:23Z</time>
      </trkpt>
      <trkpt lat="43.43113" lon="-1.15099">
        <ele>49.8</ele>
        <time>2022-09-11T10:00:25Z</time>
      </trkpt>
      <trkpt lat="43.43109" lon="-1.15124">
        <ele>49.4</ele>
        <time>2022-09-11T10:00:27Z</time>
      </trkpt>
      <trkpt lat="43.43102" lon="-1.15159">
        <ele>48.4</ele>
        <time>2022-09-11T10:00:30Z</time>
      </trkpt>
      <trkpt lat="43.43099" lon="-1.1517">
        <ele>47.8</ele>
        <time>2022-09-11T10:00:31Z</time>
      </trkpt>
      <trkpt lat="43.43096" lon="-1.15181">
        <ele>47.4</ele>
        <time>2022-09-11T10:00:32Z</time>
      </trkpt>
      <trkpt lat="43.43094" lon="-1.15203">
        <ele>46.8</ele>
        <time>2022-09-11T10:00:34Z</time>
      </trkpt>
      <trkpt lat="43.43095" lon="-1.15226">
        <ele>46.4</ele>
        <time>2022-09-11T10:00:36Z</time>
      </trkpt>
      <trkpt lat="43.43096" lon="-1.15257">
        <ele>46.4</ele>
        <time>2022-09-11T10:00:39Z</time>
      </trkpt>
      <trkpt lat="43.43096" lon="-1.15274">
        <ele>46</ele>
        <time>2022-09-11T10:00:41Z</time>
      </trkpt>
      <trkpt lat="43.43096" lon="-1.15281">
        <ele>46</ele>
        <time>2022-09-11T10:00:42Z</time>
      </trkpt>
      <trkpt lat="43.43098" lon="-1.15324">
        <ele>45.4</ele>
        <time>2022-09-11T10:00:47Z</time>
      </trkpt>
      <trkpt lat="43.43099" lon="-1.15334">
        <ele>45.2</ele>
        <time>2022-09-11T10:00:48Z</time>
      </trkpt>
      <trkpt lat="43.431" lon="-1.15353">
        <ele>45.2</ele>
        <time>2022-09-11T10:00:50Z</time>
      </trkpt>
      <trkpt lat="43.43102" lon="-1.15369">
        <ele>45</ele>
        <time>2022-09-11T10:00:52Z</time>
      </trkpt>
      <trkpt lat="43.43105" lon="-1.154">
        <ele>45.2</ele>
        <time>2022-09-11T10:00:57Z</time>
      </trkpt>
      <trkpt lat="43.43105" lon="-1.15408">
        <ele>46.2</ele>
        <time>2022-09-11T10:01:01Z</time>
      </trkpt>
      <trkpt lat="43.43107" lon="-1.15414">
        <ele>46.2</ele>
        <time>2022-09-11T10:01:03Z</time>
      </trkpt>
      <trkpt lat="43.43109" lon="-1.15416">
        <ele>46.4</ele>
        <time>2022-09-11T10:01:04Z</time>
      </trkpt>
      <trkpt lat="43.4311" lon="-1.15422">
        <ele>46.4</ele>
        <time>2022-09-11T10:01:06Z</time>
      </trkpt>
      <trkpt lat="43.43114" lon="-1.15437">
        <ele>46.4</ele>
        <time>2022-09-11T10:01:12Z</time>
      </trkpt>
      <trkpt lat="43.43121" lon="-1.15446">
        <ele>46.4</ele>
        <time>2022-09-11T10:01:18Z</time>
      </trkpt>
      <trkpt lat="43.43128" lon="-1.15455">
        <ele>46.4</ele>
        <time>2022-09-11T10:01:23Z</time>
      </trkpt>
      <trkpt lat="43.43137" lon="-1.15461">
        <ele>46.4</ele>
        <time>2022-09-11T10:01:27Z</time>
      </trkpt>
      <trkpt lat="43.4315" lon="-1.15471">
        <ele>46.6</ele>
        <time>2022-09-11T10:01:32Z</time>
      </trkpt>
      <trkpt lat="43.43165" lon="-1.15482">
        <ele>46.6</ele>
        <time>2022-09-11T10:01:38Z</time>
      </trkpt>
      <trkpt lat="43.43183" lon="-1.15495">
        <ele>47</ele>
        <time>2022-09-11T10:01:45Z</time>
      </trkpt>
      <trkpt lat="43.43197" lon="-1.15504">
        <ele>47.2</ele>
        <time>2022-09-11T10:01:50Z</time>
      </trkpt>
      <trkpt lat="43.43208" lon="-1.15512">
        <ele>47.4</ele>
        <time>2022-09-11T10:01:54Z</time>
      </trkpt>
      <trkpt lat="43.4321" lon="-1.15514">
        <ele>47.6</ele>
        <time>2022-09-11T10:01:55Z</time>
      </trkpt>
      <trkpt lat="43.43226" lon="-1.15525">
        <ele>48.2</ele>
        <time>2022-09-11T10:02:00Z</time>
      </trkpt>
      <trkpt lat="43.4324" lon="-1.15541">
        <ele>48.4</ele>
        <time>2022-09-11T10:02:06Z</time>
      </trkpt>
      <trkpt lat="43.43255" lon="-1.15557">
        <ele>48.6</ele>
        <time>2022-09-11T10:02:11Z</time>
      </trkpt>
      <trkpt lat="43.43283" lon="-1.15574">
        <ele>49.2</ele>
        <time>2022-09-11T10:02:17Z</time>
      </trkpt>
      <trkpt lat="43.43291" lon="-1.15584">
        <ele>49.4</ele>
        <time>2022-09-11T10:02:20Z</time>
      </trkpt>
      <trkpt lat="43.43302" lon="-1.15592">
        <ele>49.8</ele>
        <time>2022-09-11T10:02:23Z</time>
      </trkpt>
      <trkpt lat="43.43318" lon="-1.1561">
        <ele>49.8</ele>
        <time>2022-09-11T10:02:29Z</time>
      </trkpt>
      <trkpt lat="43.43328" lon="-1.1562">
        <ele>49.8</ele>
        <time>2022-09-11T10:02:33Z</time>
      </trkpt>
      <trkpt lat="43.43347" lon="-1.15639">
        <ele>49</ele>
        <time>2022-09-11T10:02:38Z</time>
      </trkpt>
      <trkpt lat="43.43354" lon="-1.15649">
        <ele>48.4</ele>
        <time>2022-09-11T10:02:40Z</time>
      </trkpt>
      <trkpt lat="43.43368" lon="-1.15667">
        <ele>47.6</ele>
        <time>2022-09-11T10:02:43Z</time>
      </trkpt>
      <trkpt lat="43.43373" lon="-1.15673">
        <ele>47.2</ele>
        <time>2022-09-11T10:02:44Z</time>
      </trkpt>
      <trkpt lat="43.43393" lon="-1.15702">
        <ele>46.2</ele>
        <time>2022-09-11T10:02:48Z</time>
      </trkpt>
      <trkpt lat="43.43419" lon="-1.15737">
        <ele>45.2</ele>
        <time>2022-09-11T10:02:53Z</time>
      </trkpt>
      <trkpt lat="43.43425" lon="-1.15744">
        <ele>45</ele>
        <time>2022-09-11T10:02:54Z</time>
      </trkpt>
      <trkpt lat="43.43445" lon="-1.1576">
        <ele>44.4</ele>
        <time>2022-09-11T10:02:57Z</time>
      </trkpt>
      <trkpt lat="43.43452" lon="-1.15765">
        <ele>44</ele>
        <time>2022-09-11T10:02:58Z</time>
      </trkpt>
      <trkpt lat="43.43477" lon="-1.15784">
        <ele>43.2</ele>
        <time>2022-09-11T10:03:02Z</time>
      </trkpt>
      <trkpt lat="43.43482" lon="-1.15788">
        <ele>43.2</ele>
        <time>2022-09-11T10:03:03Z</time>
      </trkpt>
      <trkpt lat="43.43499" lon="-1.15799">
        <ele>43.4</ele>
        <time>2022-09-11T10:03:06Z</time>
      </trkpt>
      <trkpt lat="43.43509" lon="-1.15808">
        <ele>43.8</ele>
        <time>2022-09-11T10:03:08Z</time>
      </trkpt>
      <trkpt lat="43.4353" lon="-1.15826">
        <ele>44.4</ele>
        <time>2022-09-11T10:03:13Z</time>
      </trkpt>
      <trkpt lat="43.43534" lon="-1.15829">
        <ele>44.4</ele>
        <time>2022-09-11T10:03:14Z</time>
      </trkpt>
      <trkpt lat="43.43555" lon="-1.15847">
        <ele>44.2</ele>
        <time>2022-09-11T10:03:19Z</time>
      </trkpt>
      <trkpt lat="43.43571" lon="-1.15867">
        <ele>43.8</ele>
        <time>2022-09-11T10:03:23Z</time>
      </trkpt>
      <trkpt lat="43.43574" lon="-1.15873">
        <ele>43.8</ele>
        <time>2022-09-11T10:03:24Z</time>
      </trkpt>
      <trkpt lat="43.43589" lon="-1.15896">
        <ele>43.2</ele>
        <time>2022-09-11T10:03:28Z</time>
      </trkpt>
      <trkpt lat="43.43593" lon="-1.15901">
        <ele>43</ele>
        <time>2022-09-11T10:03:29Z</time>
      </trkpt>
      <trkpt lat="43.43596" lon="-1.15906">
        <ele>43</ele>
        <time>2022-09-11T10:03:30Z</time>
      </trkpt>
      <trkpt lat="43.43616" lon="-1.15933">
        <ele>43.8</ele>
        <time>2022-09-11T10:03:36Z</time>
      </trkpt>
      <trkpt lat="43.43619" lon="-1.15937">
        <ele>44</ele>
        <time>2022-09-11T10:03:37Z</time>
      </trkpt>
      <trkpt lat="43.43625" lon="-1.15947">
        <ele>44.2</ele>
        <time>2022-09-11T10:03:39Z</time>
      </trkpt>
      <trkpt lat="43.43636" lon="-1.15965">
        <ele>44.6</ele>
        <time>2022-09-11T10:03:43Z</time>
      </trkpt>
      <trkpt lat="43.43654" lon="-1.15985">
        <ele>44.8</ele>
        <time>2022-09-11T10:03:48Z</time>
      </trkpt>
      <trkpt lat="43.4368" lon="-1.1602">
        <ele>44.6</ele>
        <time>2022-09-11T10:03:56Z</time>
      </trkpt>
      <trkpt lat="43.43686" lon="-1.16031">
        <ele>44.4</ele>
        <time>2022-09-11T10:03:58Z</time>
      </trkpt>
      <trkpt lat="43.43694" lon="-1.16049">
        <ele>43.8</ele>
        <time>2022-09-11T10:04:01Z</time>
      </trkpt>
      <trkpt lat="43.43709" lon="-1.16076">
        <ele>42.8</ele>
        <time>2022-09-11T10:04:05Z</time>
      </trkpt>
      <trkpt lat="43.43713" lon="-1.16084">
        <ele>42.6</ele>
        <time>2022-09-11T10:04:06Z</time>
      </trkpt>
      <trkpt lat="43.43722" lon="-1.16099">
        <ele>42</ele>
        <time>2022-09-11T10:04:08Z</time>
      </trkpt>
      <trkpt lat="43.43726" lon="-1.16107">
        <ele>41.6</ele>
        <time>2022-09-11T10:04:09Z</time>
      </trkpt>
      <trkpt lat="43.43735" lon="-1.16123">
        <ele>40.8</ele>
        <time>2022-09-11T10:04:11Z</time>
      </trkpt>
      <trkpt lat="43.4374" lon="-1.16131">
        <ele>40.6</ele>
        <time>2022-09-11T10:04:12Z</time>
      </trkpt>
      <trkpt lat="43.43756" lon="-1.16147">
        <ele>40</ele>
        <time>2022-09-11T10:04:15Z</time>
      </trkpt>
      <trkpt lat="43.43761" lon="-1.1615">
        <ele>40.2</ele>
        <time>2022-09-11T10:04:16Z</time>
      </trkpt>
      <trkpt lat="43.43784" lon="-1.16154">
        <ele>40.4</ele>
        <time>2022-09-11T10:04:20Z</time>
      </trkpt>
      <trkpt lat="43.43789" lon="-1.16155">
        <ele>40.2</ele>
        <time>2022-09-11T10:04:21Z</time>
      </trkpt>
      <trkpt lat="43.43804" lon="-1.16165">
        <ele>40.2</ele>
        <time>2022-09-11T10:04:24Z</time>
      </trkpt>
      <trkpt lat="43.43819" lon="-1.1618">
        <ele>40.4</ele>
        <time>2022-09-11T10:04:27Z</time>
      </trkpt>
      <trkpt lat="43.43841" lon="-1.16193">
        <ele>40.2</ele>
        <time>2022-09-11T10:04:30Z</time>
      </trkpt>
      <trkpt lat="43.43889" lon="-1.16229">
        <ele>40.2</ele>
        <time>2022-09-11T10:04:38Z</time>
      </trkpt>
      <trkpt lat="43.43894" lon="-1.16234">
        <ele>40.2</ele>
        <time>2022-09-11T10:04:39Z</time>
      </trkpt>
      <trkpt lat="43.43932" lon="-1.16266">
        <ele>40</ele>
        <time>2022-09-11T10:04:47Z</time>
      </trkpt>
      <trkpt lat="43.43945" lon="-1.16273">
        <ele>40.6</ele>
        <time>2022-09-11T10:04:50Z</time>
      </trkpt>
      <trkpt lat="43.43956" lon="-1.16277">
        <ele>40.8</ele>
        <time>2022-09-11T10:04:53Z</time>
      </trkpt>
      <trkpt lat="43.43969" lon="-1.16281">
        <ele>40.6</ele>
        <time>2022-09-11T10:04:56Z</time>
      </trkpt>
      <trkpt lat="43.43983" lon="-1.16285">
        <ele>40.4</ele>
        <time>2022-09-11T10:04:59Z</time>
      </trkpt>
      <trkpt lat="43.43997" lon="-1.16288">
        <ele>40.2</ele>
        <time>2022-09-11T10:05:02Z</time>
      </trkpt>
      <trkpt lat="43.44001" lon="-1.16289">
        <ele>40</ele>
        <time>2022-09-11T10:05:03Z</time>
      </trkpt>
      <trkpt lat="43.44021" lon="-1.16294">
        <ele>39.6</ele>
        <time>2022-09-11T10:05:08Z</time>
      </trkpt>
      <trkpt lat="43.4403" lon="-1.16295">
        <ele>39.6</ele>
        <time>2022-09-11T10:05:10Z</time>
      </trkpt>
      <trkpt lat="43.44045" lon="-1.16297">
        <ele>39</ele>
        <time>2022-09-11T10:05:14Z</time>
      </trkpt>
      <trkpt lat="43.44074" lon="-1.16304">
        <ele>39</ele>
        <time>2022-09-11T10:05:20Z</time>
      </trkpt>
      <trkpt lat="43.44099" lon="-1.16309">
        <ele>39.2</ele>
        <time>2022-09-11T10:05:25Z</time>
      </trkpt>
      <trkpt lat="43.44141" lon="-1.16309">
        <ele>39.2</ele>
        <time>2022-09-11T10:05:32Z</time>
      </trkpt>
      <trkpt lat="43.44186" lon="-1.16308">
        <ele>39.4</ele>
        <time>2022-09-11T10:05:40Z</time>
      </trkpt>
      <trkpt lat="43.44226" lon="-1.163">
        <ele>40.2</ele>
        <time>2022-09-11T10:05:48Z</time>
      </trkpt>
      <trkpt lat="43.4425" lon="-1.16285">
        <ele>40</ele>
        <time>2022-09-11T10:05:54Z</time>
      </trkpt>
      <trkpt lat="43.44254" lon="-1.16282">
        <ele>40</ele>
        <time>2022-09-11T10:05:55Z</time>
      </trkpt>
      <trkpt lat="43.44286" lon="-1.16256">
        <ele>39.4</ele>
        <time>2022-09-11T10:06:03Z</time>
      </trkpt>
      <trkpt lat="43.44315" lon="-1.16234">
        <ele>39.2</ele>
        <time>2022-09-11T10:06:10Z</time>
      </trkpt>
      <trkpt lat="43.44338" lon="-1.16215">
        <ele>38.4</ele>
        <time>2022-09-11T10:06:15Z</time>
      </trkpt>
      <trkpt lat="43.44356" lon="-1.162">
        <ele>38.2</ele>
        <time>2022-09-11T10:06:19Z</time>
      </trkpt>
      <trkpt lat="43.4439" lon="-1.16173">
        <ele>38.2</ele>
        <time>2022-09-11T10:06:27Z</time>
      </trkpt>
      <trkpt lat="43.44393" lon="-1.1617">
        <ele>38.4</ele>
        <time>2022-09-11T10:06:28Z</time>
      </trkpt>
      <trkpt lat="43.44407" lon="-1.16158">
        <ele>39</ele>
        <time>2022-09-11T10:06:32Z</time>
      </trkpt>
      <trkpt lat="43.44415" lon="-1.16148">
        <ele>39.6</ele>
        <time>2022-09-11T10:06:35Z</time>
      </trkpt>
      <trkpt lat="43.44423" lon="-1.16138">
        <ele>40</ele>
        <time>2022-09-11T10:06:38Z</time>
      </trkpt>
      <trkpt lat="43.44437" lon="-1.16106">
        <ele>39.6</ele>
        <time>2022-09-11T10:06:45Z</time>
      </trkpt>
      <trkpt lat="43.44441" lon="-1.16095">
        <ele>39.4</ele>
        <time>2022-09-11T10:06:47Z</time>
      </trkpt>
      <trkpt lat="43.44453" lon="-1.16068">
        <ele>39.2</ele>
        <time>2022-09-11T10:06:52Z</time>
      </trkpt>
      <trkpt lat="43.44475" lon="-1.16033">
        <ele>39.6</ele>
        <time>2022-09-11T10:06:59Z</time>
      </trkpt>
      <trkpt lat="43.44486" lon="-1.16022">
        <ele>40</ele>
        <time>2022-09-11T10:07:02Z</time>
      </trkpt>
      <trkpt lat="43.445" lon="-1.16014">
        <ele>39.8</ele>
        <time>2022-09-11T10:07:05Z</time>
      </trkpt>
      <trkpt lat="43.44538" lon="-1.15999">
        <ele>39.8</ele>
        <time>2022-09-11T10:07:13Z</time>
      </trkpt>
      <trkpt lat="43.44574" lon="-1.15976">
        <ele>39.6</ele>
        <time>2022-09-11T10:07:21Z</time>
      </trkpt>
      <trkpt lat="43.44618" lon="-1.15941">
        <ele>39</ele>
        <time>2022-09-11T10:07:31Z</time>
      </trkpt>
      <trkpt lat="43.44654" lon="-1.15913">
        <ele>39.2</ele>
        <time>2022-09-11T10:07:39Z</time>
      </trkpt>
      <trkpt lat="43.44688" lon="-1.15884">
        <ele>39.2</ele>
        <time>2022-09-11T10:07:47Z</time>
      </trkpt>
      <trkpt lat="43.44693" lon="-1.15881">
        <ele>39</ele>
        <time>2022-09-11T10:07:48Z</time>
      </trkpt>
      <trkpt lat="43.44711" lon="-1.15866">
        <ele>38.4</ele>
        <time>2022-09-11T10:07:52Z</time>
      </trkpt>
      <trkpt lat="43.44737" lon="-1.1585">
        <ele>38.2</ele>
        <time>2022-09-11T10:07:57Z</time>
      </trkpt>
      <trkpt lat="43.44763" lon="-1.15835">
        <ele>37.4</ele>
        <time>2022-09-11T10:08:02Z</time>
      </trkpt>
      <trkpt lat="43.44774" lon="-1.15828">
        <ele>37.2</ele>
        <time>2022-09-11T10:08:04Z</time>
      </trkpt>
      <trkpt lat="43.44823" lon="-1.15799">
        <ele>36.8</ele>
        <time>2022-09-11T10:08:13Z</time>
      </trkpt>
      <trkpt lat="43.44858" lon="-1.15778">
        <ele>37.4</ele>
        <time>2022-09-11T10:08:20Z</time>
      </trkpt>
      <trkpt lat="43.44897" lon="-1.15757">
        <ele>37.4</ele>
        <time>2022-09-11T10:08:28Z</time>
      </trkpt>
      <trkpt lat="43.44933" lon="-1.15751">
        <ele>37.8</ele>
        <time>2022-09-11T10:08:35Z</time>
      </trkpt>
      <trkpt lat="43.4496" lon="-1.15751">
        <ele>36.8</ele>
        <time>2022-09-11T10:08:40Z</time>
      </trkpt>
      <trkpt lat="43.44965" lon="-1.15751">
        <ele>36.8</ele>
        <time>2022-09-11T10:08:41Z</time>
      </trkpt>
      <trkpt lat="43.45005" lon="-1.15756">
        <ele>37.2</ele>
        <time>2022-09-11T10:08:49Z</time>
      </trkpt>
      <trkpt lat="43.45022" lon="-1.15747">
        <ele>38</ele>
        <time>2022-09-11T10:08:53Z</time>
      </trkpt>
      <trkpt lat="43.45025" lon="-1.15744">
        <ele>37.8</ele>
        <time>2022-09-11T10:08:54Z</time>
      </trkpt>
      <trkpt lat="43.45045" lon="-1.15729">
        <ele>37.6</ele>
        <time>2022-09-11T10:08:59Z</time>
      </trkpt>
      <trkpt lat="43.45054" lon="-1.15723">
        <ele>37.2</ele>
        <time>2022-09-11T10:09:01Z</time>
      </trkpt>
      <trkpt lat="43.45076" lon="-1.15706">
        <ele>36.6</ele>
        <time>2022-09-11T10:09:06Z</time>
      </trkpt>
      <trkpt lat="43.45107" lon="-1.15683">
        <ele>36.6</ele>
        <time>2022-09-11T10:09:12Z</time>
      </trkpt>
      <trkpt lat="43.45118" lon="-1.15676">
        <ele>36</ele>
        <time>2022-09-11T10:09:14Z</time>
      </trkpt>
      <trkpt lat="43.45148" lon="-1.15651">
        <ele>35.6</ele>
        <time>2022-09-11T10:09:20Z</time>
      </trkpt>
      <trkpt lat="43.45155" lon="-1.15639">
        <ele>35.4</ele>
        <time>2022-09-11T10:09:22Z</time>
      </trkpt>
      <trkpt lat="43.45163" lon="-1.1561">
        <ele>35.6</ele>
        <time>2022-09-11T10:09:26Z</time>
      </trkpt>
      <trkpt lat="43.45164" lon="-1.15595">
        <ele>35.6</ele>
        <time>2022-09-11T10:09:28Z</time>
      </trkpt>
      <trkpt lat="43.45165" lon="-1.15566">
        <ele>35.2</ele>
        <time>2022-09-11T10:09:32Z</time>
      </trkpt>
      <trkpt lat="43.45169" lon="-1.15526">
        <ele>35.4</ele>
        <time>2022-09-11T10:09:38Z</time>
      </trkpt>
      <trkpt lat="43.4517" lon="-1.155">
        <ele>35.2</ele>
        <time>2022-09-11T10:09:42Z</time>
      </trkpt>
      <trkpt lat="43.45167" lon="-1.15481">
        <ele>35.2</ele>
        <time>2022-09-11T10:09:45Z</time>
      </trkpt>
      <trkpt lat="43.45165" lon="-1.15476">
        <ele>35</ele>
        <time>2022-09-11T10:09:46Z</time>
      </trkpt>
      <trkpt lat="43.45163" lon="-1.1547">
        <ele>35</ele>
        <time>2022-09-11T10:09:47Z</time>
      </trkpt>
      <trkpt lat="43.45156" lon="-1.15446">
        <ele>34.8</ele>
        <time>2022-09-11T10:09:51Z</time>
      </trkpt>
      <trkpt lat="43.45139" lon="-1.15387">
        <ele>34.4</ele>
        <time>2022-09-11T10:10:00Z</time>
      </trkpt>
      <trkpt lat="43.45124" lon="-1.1534">
        <ele>34.2</ele>
        <time>2022-09-11T10:10:08Z</time>
      </trkpt>
      <trkpt lat="43.45121" lon="-1.15328">
        <ele>34</ele>
        <time>2022-09-11T10:10:10Z</time>
      </trkpt>
      <trkpt lat="43.45118" lon="-1.15315">
        <ele>34.4</ele>
        <time>2022-09-11T10:10:12Z</time>
      </trkpt>
      <trkpt lat="43.45118" lon="-1.15301">
        <ele>35</ele>
        <time>2022-09-11T10:10:14Z</time>
      </trkpt>
      <trkpt lat="43.45128" lon="-1.15282">
        <ele>34.4</ele>
        <time>2022-09-11T10:10:18Z</time>
      </trkpt>
      <trkpt lat="43.45131" lon="-1.15278">
        <ele>34.6</ele>
        <time>2022-09-11T10:10:19Z</time>
      </trkpt>
      <trkpt lat="43.45143" lon="-1.1527">
        <ele>34.8</ele>
        <time>2022-09-11T10:10:23Z</time>
      </trkpt>
      <trkpt lat="43.45146" lon="-1.15269">
        <ele>35.2</ele>
        <time>2022-09-11T10:10:24Z</time>
      </trkpt>
      <trkpt lat="43.4516" lon="-1.15265">
        <ele>35.4</ele>
        <time>2022-09-11T10:10:29Z</time>
      </trkpt>
      <trkpt lat="43.4519" lon="-1.1526">
        <ele>34.6</ele>
        <time>2022-09-11T10:10:36Z</time>
      </trkpt>
      <trkpt lat="43.45225" lon="-1.15252">
        <ele>34.2</ele>
        <time>2022-09-11T10:10:42Z</time>
      </trkpt>
      <trkpt lat="43.45254" lon="-1.15241">
        <ele>33.2</ele>
        <time>2022-09-11T10:10:47Z</time>
      </trkpt>
      <trkpt lat="43.45259" lon="-1.15237">
        <ele>33</ele>
        <time>2022-09-11T10:10:48Z</time>
      </trkpt>
      <trkpt lat="43.45264" lon="-1.15232">
        <ele>33</ele>
        <time>2022-09-11T10:10:49Z</time>
      </trkpt>
      <trkpt lat="43.45277" lon="-1.15206">
        <ele>32.8</ele>
        <time>2022-09-11T10:10:53Z</time>
      </trkpt>
      <trkpt lat="43.4528" lon="-1.152">
        <ele>32.6</ele>
        <time>2022-09-11T10:10:54Z</time>
      </trkpt>
      <trkpt lat="43.45293" lon="-1.15161">
        <ele>32.6</ele>
        <time>2022-09-11T10:11:00Z</time>
      </trkpt>
      <trkpt lat="43.45299" lon="-1.15143">
        <ele>32</ele>
        <time>2022-09-11T10:11:03Z</time>
      </trkpt>
      <trkpt lat="43.45308" lon="-1.15114">
        <ele>32.2</ele>
        <time>2022-09-11T10:11:08Z</time>
      </trkpt>
      <trkpt lat="43.45315" lon="-1.15088">
        <ele>32.6</ele>
        <time>2022-09-11T10:11:13Z</time>
      </trkpt>
      <trkpt lat="43.4532" lon="-1.15071">
        <ele>33</ele>
        <time>2022-09-11T10:11:16Z</time>
      </trkpt>
      <trkpt lat="43.45326" lon="-1.15051">
        <ele>33.4</ele>
        <time>2022-09-11T10:11:21Z</time>
      </trkpt>
      <trkpt lat="43.45338" lon="-1.15027">
        <ele>33</ele>
        <time>2022-09-11T10:11:27Z</time>
      </trkpt>
      <trkpt lat="43.45344" lon="-1.15015">
        <ele>32.6</ele>
        <time>2022-09-11T10:11:31Z</time>
      </trkpt>
      <trkpt lat="43.45346" lon="-1.15016">
        <ele>32.2</ele>
        <time>2022-09-11T10:11:32Z</time>
      </trkpt>
      <trkpt lat="43.45347" lon="-1.15018">
        <ele>32</ele>
        <time>2022-09-11T10:11:33Z</time>
      </trkpt>
      <trkpt lat="43.45346" lon="-1.1502">
        <ele>31.8</ele>
        <time>2022-09-11T10:11:34Z</time>
      </trkpt>
      <trkpt lat="43.45341" lon="-1.15028">
        <ele>32</ele>
        <time>2022-09-11T10:11:37Z</time>
      </trkpt>
      <trkpt lat="43.4534" lon="-1.1503">
        <ele>32</ele>
        <time>2022-09-11T10:11:38Z</time>
      </trkpt>
      <trkpt lat="43.45333" lon="-1.15044">
        <ele>32.8</ele>
        <time>2022-09-11T10:11:45Z</time>
      </trkpt>
      <trkpt lat="43.45332" lon="-1.15047">
        <ele>32.8</ele>
        <time>2022-09-11T10:11:47Z</time>
      </trkpt>
      <trkpt lat="43.45334" lon="-1.15042">
        <ele>33.2</ele>
        <time>2022-09-11T10:16:06Z</time>
      </trkpt>
      <trkpt lat="43.45344" lon="-1.15024">
        <ele>32.6</ele>
        <time>2022-09-11T10:16:12Z</time>
      </trkpt>
      <trkpt lat="43.45346" lon="-1.1502">
        <ele>32.6</ele>
        <time>2022-09-11T10:16:13Z</time>
      </trkpt>
      <trkpt lat="43.4536" lon="-1.14992">
        <ele>32.4</ele>
        <time>2022-09-11T10:16:19Z</time>
      </trkpt>
      <trkpt lat="43.45363" lon="-1.14987">
        <ele>32.2</ele>
        <time>2022-09-11T10:16:20Z</time>
      </trkpt>
      <trkpt lat="43.4538" lon="-1.14956">
        <ele>31.4</ele>
        <time>2022-09-11T10:16:26Z</time>
      </trkpt>
      <trkpt lat="43.45409" lon="-1.149">
        <ele>31.4</ele>
        <time>2022-09-11T10:16:36Z</time>
      </trkpt>
      <trkpt lat="43.45422" lon="-1.14877">
        <ele>31.2</ele>
        <time>2022-09-11T10:16:40Z</time>
      </trkpt>
      <trkpt lat="43.45439" lon="-1.14843">
        <ele>31</ele>
        <time>2022-09-11T10:16:46Z</time>
      </trkpt>
      <trkpt lat="43.45457" lon="-1.14801">
        <ele>30.6</ele>
        <time>2022-09-11T10:16:53Z</time>
      </trkpt>
      <trkpt lat="43.45473" lon="-1.14761">
        <ele>30.8</ele>
        <time>2022-09-11T10:17:00Z</time>
      </trkpt>
      <trkpt lat="43.45476" lon="-1.14756">
        <ele>30.8</ele>
        <time>2022-09-11T10:17:01Z</time>
      </trkpt>
      <trkpt lat="43.45479" lon="-1.14752">
        <ele>30.6</ele>
        <time>2022-09-11T10:17:02Z</time>
      </trkpt>
      <trkpt lat="43.45497" lon="-1.14729">
        <ele>30.6</ele>
        <time>2022-09-11T10:17:07Z</time>
      </trkpt>
      <trkpt lat="43.45535" lon="-1.14685">
        <ele>30.6</ele>
        <time>2022-09-11T10:17:18Z</time>
      </trkpt>
      <trkpt lat="43.4556" lon="-1.14656">
        <ele>30.6</ele>
        <time>2022-09-11T10:17:26Z</time>
      </trkpt>
      <trkpt lat="43.4558" lon="-1.14632">
        <ele>30.4</ele>
        <time>2022-09-11T10:17:33Z</time>
      </trkpt>
      <trkpt lat="43.45608" lon="-1.146">
        <ele>30.8</ele>
        <time>2022-09-11T10:17:42Z</time>
      </trkpt>
      <trkpt lat="43.45639" lon="-1.14563">
        <ele>30.4</ele>
        <time>2022-09-11T10:17:51Z</time>
      </trkpt>
      <trkpt lat="43.45677" lon="-1.14518">
        <ele>30.4</ele>
        <time>2022-09-11T10:18:01Z</time>
      </trkpt>
      <trkpt lat="43.45714" lon="-1.1448">
        <ele>30</ele>
        <time>2022-09-11T10:18:10Z</time>
      </trkpt>
      <trkpt lat="43.45742" lon="-1.14455">
        <ele>30.8</ele>
        <time>2022-09-11T10:18:17Z</time>
      </trkpt>
      <trkpt lat="43.45763" lon="-1.14444">
        <ele>31</ele>
        <time>2022-09-11T10:18:22Z</time>
      </trkpt>
      <trkpt lat="43.45776" lon="-1.14439">
        <ele>31.4</ele>
        <time>2022-09-11T10:18:25Z</time>
      </trkpt>
      <trkpt lat="43.45806" lon="-1.14429">
        <ele>31.2</ele>
        <time>2022-09-11T10:18:33Z</time>
      </trkpt>
      <trkpt lat="43.45837" lon="-1.14423">
        <ele>31.2</ele>
        <time>2022-09-11T10:18:41Z</time>
      </trkpt>
      <trkpt lat="43.45846" lon="-1.14424">
        <ele>31.4</ele>
        <time>2022-09-11T10:18:43Z</time>
      </trkpt>
      <trkpt lat="43.45862" lon="-1.14425">
        <ele>31</ele>
        <time>2022-09-11T10:18:47Z</time>
      </trkpt>
      <trkpt lat="43.45895" lon="-1.14431">
        <ele>30.2</ele>
        <time>2022-09-11T10:18:55Z</time>
      </trkpt>
      <trkpt lat="43.45899" lon="-1.14432">
        <ele>30</ele>
        <time>2022-09-11T10:18:56Z</time>
      </trkpt>
      <trkpt lat="43.4593" lon="-1.14433">
        <ele>29.6</ele>
        <time>2022-09-11T10:19:03Z</time>
      </trkpt>
      <trkpt lat="43.45939" lon="-1.14431">
        <ele>29.4</ele>
        <time>2022-09-11T10:19:05Z</time>
      </trkpt>
      <trkpt lat="43.4595" lon="-1.14429">
        <ele>29.2</ele>
        <time>2022-09-11T10:19:07Z</time>
      </trkpt>
      <trkpt lat="43.45956" lon="-1.14427">
        <ele>29</ele>
        <time>2022-09-11T10:19:08Z</time>
      </trkpt>
      <trkpt lat="43.45993" lon="-1.14409">
        <ele>28.8</ele>
        <time>2022-09-11T10:19:15Z</time>
      </trkpt>
      <trkpt lat="43.46005" lon="-1.144">
        <ele>28.8</ele>
        <time>2022-09-11T10:19:18Z</time>
      </trkpt>
      <trkpt lat="43.46022" lon="-1.1439">
        <ele>28.6</ele>
        <time>2022-09-11T10:19:22Z</time>
      </trkpt>
      <trkpt lat="43.4603" lon="-1.14382">
        <ele>29</ele>
        <time>2022-09-11T10:19:26Z</time>
      </trkpt>
      <trkpt lat="43.46038" lon="-1.1438">
        <ele>29.4</ele>
        <time>2022-09-11T10:19:44Z</time>
      </trkpt>
      <trkpt lat="43.46051" lon="-1.14391">
        <ele>29.2</ele>
        <time>2022-09-11T10:19:48Z</time>
      </trkpt>
      <trkpt lat="43.46081" lon="-1.14415">
        <ele>29.8</ele>
        <time>2022-09-11T10:19:56Z</time>
      </trkpt>
      <trkpt lat="43.46093" lon="-1.14424">
        <ele>30</ele>
        <time>2022-09-11T10:19:59Z</time>
      </trkpt>
      <trkpt lat="43.46115" lon="-1.14439">
        <ele>30</ele>
        <time>2022-09-11T10:20:04Z</time>
      </trkpt>
      <trkpt lat="43.4616" lon="-1.14459">
        <ele>30.2</ele>
        <time>2022-09-11T10:20:13Z</time>
      </trkpt>
      <trkpt lat="43.46208" lon="-1.1447">
        <ele>30.4</ele>
        <time>2022-09-11T10:20:22Z</time>
      </trkpt>
      <trkpt lat="43.46251" lon="-1.1447">
        <ele>30.8</ele>
        <time>2022-09-11T10:20:30Z</time>
      </trkpt>
      <trkpt lat="43.46272" lon="-1.14468">
        <ele>31</ele>
        <time>2022-09-11T10:20:34Z</time>
      </trkpt>
      <trkpt lat="43.46282" lon="-1.14466">
        <ele>31</ele>
        <time>2022-09-11T10:20:36Z</time>
      </trkpt>
      <trkpt lat="43.46314" lon="-1.14456">
        <ele>30.8</ele>
        <time>2022-09-11T10:20:42Z</time>
      </trkpt>
      <trkpt lat="43.46354" lon="-1.14441">
        <ele>31</ele>
        <time>2022-09-11T10:20:50Z</time>
      </trkpt>
      <trkpt lat="43.46378" lon="-1.1443">
        <ele>30.8</ele>
        <time>2022-09-11T10:20:56Z</time>
      </trkpt>
      <trkpt lat="43.46378" lon="-1.14424">
        <ele>30.6</ele>
        <time>2022-09-11T10:20:59Z</time>
      </trkpt>
      <trkpt lat="43.46375" lon="-1.14419">
        <ele>30.8</ele>
        <time>2022-09-11T10:21:25Z</time>
      </trkpt>
      <trkpt lat="43.46373" lon="-1.14418">
        <ele>30.8</ele>
        <time>2022-09-11T10:21:26Z</time>
      </trkpt>
      <trkpt lat="43.46363" lon="-1.1441">
        <ele>31.4</ele>
        <time>2022-09-11T10:21:31Z</time>
      </trkpt>
      <trkpt lat="43.46358" lon="-1.14402">
        <ele>32</ele>
        <time>2022-09-11T10:21:35Z</time>
      </trkpt>
      <trkpt lat="43.46355" lon="-1.14396">
        <ele>33</ele>
        <time>2022-09-11T10:21:38Z</time>
      </trkpt>
      <trkpt lat="43.46355" lon="-1.14394">
        <ele>33.2</ele>
        <time>2022-09-11T10:21:39Z</time>
      </trkpt>
      <trkpt lat="43.46356" lon="-1.14384">
        <ele>33.8</ele>
        <time>2022-09-11T10:21:43Z</time>
      </trkpt>
      <trkpt lat="43.46356" lon="-1.14382">
        <ele>34</ele>
        <time>2022-09-11T10:21:44Z</time>
      </trkpt>
      <trkpt lat="43.46356" lon="-1.14377">
        <ele>34.4</ele>
        <time>2022-09-11T10:21:46Z</time>
      </trkpt>
      <trkpt lat="43.46356" lon="-1.14368">
        <ele>35</ele>
        <time>2022-09-11T10:21:50Z</time>
      </trkpt>
      <trkpt lat="43.46355" lon="-1.14365">
        <ele>35.6</ele>
        <time>2022-09-11T10:21:52Z</time>
      </trkpt>
      <trkpt lat="43.46355" lon="-1.14354">
        <ele>36.6</ele>
        <time>2022-09-11T10:21:57Z</time>
      </trkpt>
      <trkpt lat="43.46355" lon="-1.14352">
        <ele>36.8</ele>
        <time>2022-09-11T10:21:58Z</time>
      </trkpt>
      <trkpt lat="43.46356" lon="-1.14335">
        <ele>37.6</ele>
        <time>2022-09-11T10:22:05Z</time>
      </trkpt>
      <trkpt lat="43.46355" lon="-1.1433">
        <ele>38</ele>
        <time>2022-09-11T10:22:07Z</time>
      </trkpt>
      <trkpt lat="43.46354" lon="-1.14322">
        <ele>38.6</ele>
        <time>2022-09-11T10:22:10Z</time>
      </trkpt>
      <trkpt lat="43.46351" lon="-1.14312">
        <ele>39.2</ele>
        <time>2022-09-11T10:22:14Z</time>
      </trkpt>
      <trkpt lat="43.46348" lon="-1.143">
        <ele>39.8</ele>
        <time>2022-09-11T10:22:19Z</time>
      </trkpt>
      <trkpt lat="43.46347" lon="-1.14295">
        <ele>39.8</ele>
        <time>2022-09-11T10:22:21Z</time>
      </trkpt>
      <trkpt lat="43.46341" lon="-1.14277">
        <ele>40.8</ele>
        <time>2022-09-11T10:22:29Z</time>
      </trkpt>
      <trkpt lat="43.46335" lon="-1.14261">
        <ele>41.4</ele>
        <time>2022-09-11T10:22:37Z</time>
      </trkpt>
      <trkpt lat="43.46329" lon="-1.14249">
        <ele>41.8</ele>
        <time>2022-09-11T10:22:43Z</time>
      </trkpt>
      <trkpt lat="43.46325" lon="-1.14243">
        <ele>42.4</ele>
        <time>2022-09-11T10:22:46Z</time>
      </trkpt>
      <trkpt lat="43.46321" lon="-1.14233">
        <ele>43</ele>
        <time>2022-09-11T10:22:50Z</time>
      </trkpt>
      <trkpt lat="43.46318" lon="-1.14226">
        <ele>43.2</ele>
        <time>2022-09-11T10:22:53Z</time>
      </trkpt>
      <trkpt lat="43.46311" lon="-1.14213">
        <ele>44</ele>
        <time>2022-09-11T10:23:00Z</time>
      </trkpt>
      <trkpt lat="43.4631" lon="-1.14211">
        <ele>44.2</ele>
        <time>2022-09-11T10:23:01Z</time>
      </trkpt>
      <trkpt lat="43.46305" lon="-1.14196">
        <ele>45</ele>
        <time>2022-09-11T10:23:08Z</time>
      </trkpt>
      <trkpt lat="43.463" lon="-1.14185">
        <ele>46.2</ele>
        <time>2022-09-11T10:23:14Z</time>
      </trkpt>
      <trkpt lat="43.46299" lon="-1.14179">
        <ele>46.6</ele>
        <time>2022-09-11T10:23:17Z</time>
      </trkpt>
      <trkpt lat="43.46297" lon="-1.14174">
        <ele>47.2</ele>
        <time>2022-09-11T10:23:20Z</time>
      </trkpt>
      <trkpt lat="43.46296" lon="-1.14164">
        <ele>48.2</ele>
        <time>2022-09-11T10:23:25Z</time>
      </trkpt>
      <trkpt lat="43.46295" lon="-1.14162">
        <ele>48.4</ele>
        <time>2022-09-11T10:23:26Z</time>
      </trkpt>
      <trkpt lat="43.46292" lon="-1.14157">
        <ele>49</ele>
        <time>2022-09-11T10:23:29Z</time>
      </trkpt>
      <trkpt lat="43.46291" lon="-1.14153">
        <ele>49.4</ele>
        <time>2022-09-11T10:23:31Z</time>
      </trkpt>
      <trkpt lat="43.46291" lon="-1.14151">
        <ele>49.6</ele>
        <time>2022-09-11T10:23:32Z</time>
      </trkpt>
      <trkpt lat="43.4629" lon="-1.14143">
        <ele>50.6</ele>
        <time>2022-09-11T10:23:36Z</time>
      </trkpt>
      <trkpt lat="43.46289" lon="-1.14133">
        <ele>51.6</ele>
        <time>2022-09-11T10:23:41Z</time>
      </trkpt>
      <trkpt lat="43.46288" lon="-1.14131">
        <ele>51.8</ele>
        <time>2022-09-11T10:23:42Z</time>
      </trkpt>
      <trkpt lat="43.46287" lon="-1.14123">
        <ele>52.8</ele>
        <time>2022-09-11T10:23:47Z</time>
      </trkpt>
      <trkpt lat="43.46287" lon="-1.14118">
        <ele>53.4</ele>
        <time>2022-09-11T10:23:50Z</time>
      </trkpt>
      <trkpt lat="43.46287" lon="-1.14114">
        <ele>53.8</ele>
        <time>2022-09-11T10:23:53Z</time>
      </trkpt>
      <trkpt lat="43.46286" lon="-1.14109">
        <ele>54.4</ele>
        <time>2022-09-11T10:23:56Z</time>
      </trkpt>
      <trkpt lat="43.46287" lon="-1.14105">
        <ele>55</ele>
        <time>2022-09-11T10:23:59Z</time>
      </trkpt>
      <trkpt lat="43.46287" lon="-1.14104">
        <ele>55.2</ele>
        <time>2022-09-11T10:24:00Z</time>
      </trkpt>
      <trkpt lat="43.46288" lon="-1.141">
        <ele>55.8</ele>
        <time>2022-09-11T10:24:02Z</time>
      </trkpt>
      <trkpt lat="43.46288" lon="-1.14098">
        <ele>56</ele>
        <time>2022-09-11T10:24:03Z</time>
      </trkpt>
      <trkpt lat="43.46288" lon="-1.14089">
        <ele>57.2</ele>
        <time>2022-09-11T10:24:08Z</time>
      </trkpt>
      <trkpt lat="43.46288" lon="-1.14078">
        <ele>58.2</ele>
        <time>2022-09-11T10:24:14Z</time>
      </trkpt>
      <trkpt lat="43.46289" lon="-1.14072">
        <ele>59</ele>
        <time>2022-09-11T10:24:18Z</time>
      </trkpt>
      <trkpt lat="43.46289" lon="-1.1407">
        <ele>59.2</ele>
        <time>2022-09-11T10:24:19Z</time>
      </trkpt>
      <trkpt lat="43.46288" lon="-1.14069">
        <ele>59.4</ele>
        <time>2022-09-11T10:24:20Z</time>
      </trkpt>
      <trkpt lat="43.46288" lon="-1.14067">
        <ele>59.4</ele>
        <time>2022-09-11T10:24:21Z</time>
      </trkpt>
      <trkpt lat="43.46287" lon="-1.14066">
        <ele>59.6</ele>
        <time>2022-09-11T10:24:22Z</time>
      </trkpt>
      <trkpt lat="43.46289" lon="-1.1406">
        <ele>60.4</ele>
        <time>2022-09-11T10:24:26Z</time>
      </trkpt>
      <trkpt lat="43.46289" lon="-1.14058">
        <ele>60.6</ele>
        <time>2022-09-11T10:24:27Z</time>
      </trkpt>
      <trkpt lat="43.46287" lon="-1.14051">
        <ele>61.4</ele>
        <time>2022-09-11T10:24:32Z</time>
      </trkpt>
      <trkpt lat="43.46287" lon="-1.1405">
        <ele>61.6</ele>
        <time>2022-09-11T10:24:33Z</time>
      </trkpt>
      <trkpt lat="43.46288" lon="-1.14044">
        <ele>62.2</ele>
        <time>2022-09-11T10:24:37Z</time>
      </trkpt>
      <trkpt lat="43.46287" lon="-1.14038">
        <ele>62.8</ele>
        <time>2022-09-11T10:24:40Z</time>
      </trkpt>
      <trkpt lat="43.46288" lon="-1.14033">
        <ele>63.2</ele>
        <time>2022-09-11T10:24:43Z</time>
      </trkpt>
      <trkpt lat="43.46289" lon="-1.14029">
        <ele>63.6</ele>
        <time>2022-09-11T10:24:45Z</time>
      </trkpt>
      <trkpt lat="43.46288" lon="-1.14027">
        <ele>63.8</ele>
        <time>2022-09-11T10:24:46Z</time>
      </trkpt>
      <trkpt lat="43.46288" lon="-1.14024">
        <ele>64</ele>
        <time>2022-09-11T10:24:48Z</time>
      </trkpt>
      <trkpt lat="43.46289" lon="-1.1402">
        <ele>64.4</ele>
        <time>2022-09-11T10:24:50Z</time>
      </trkpt>
      <trkpt lat="43.46289" lon="-1.14016">
        <ele>64.8</ele>
        <time>2022-09-11T10:24:52Z</time>
      </trkpt>
      <trkpt lat="43.46289" lon="-1.14011">
        <ele>65.2</ele>
        <time>2022-09-11T10:24:55Z</time>
      </trkpt>
      <trkpt lat="43.46291" lon="-1.14005">
        <ele>65.6</ele>
        <time>2022-09-11T10:24:58Z</time>
      </trkpt>
      <trkpt lat="43.46292" lon="-1.14001">
        <ele>65.8</ele>
        <time>2022-09-11T10:25:00Z</time>
      </trkpt>
      <trkpt lat="43.46291" lon="-1.13987">
        <ele>66.4</ele>
        <time>2022-09-11T10:25:06Z</time>
      </trkpt>
      <trkpt lat="43.46286" lon="-1.13971">
        <ele>67</ele>
        <time>2022-09-11T10:25:13Z</time>
      </trkpt>
      <trkpt lat="43.4628" lon="-1.13947">
        <ele>67</ele>
        <time>2022-09-11T10:25:21Z</time>
      </trkpt>
      <trkpt lat="43.46274" lon="-1.13919">
        <ele>67.2</ele>
        <time>2022-09-11T10:25:29Z</time>
      </trkpt>
      <trkpt lat="43.46268" lon="-1.13892">
        <ele>67.2</ele>
        <time>2022-09-11T10:25:36Z</time>
      </trkpt>
      <trkpt lat="43.4626" lon="-1.13855">
        <ele>67.8</ele>
        <time>2022-09-11T10:25:46Z</time>
      </trkpt>
      <trkpt lat="43.46258" lon="-1.13847">
        <ele>68</ele>
        <time>2022-09-11T10:25:48Z</time>
      </trkpt>
      <trkpt lat="43.46252" lon="-1.1382">
        <ele>68.6</ele>
        <time>2022-09-11T10:25:54Z</time>
      </trkpt>
      <trkpt lat="43.46244" lon="-1.1378">
        <ele>69</ele>
        <time>2022-09-11T10:26:03Z</time>
      </trkpt>
      <trkpt lat="43.46243" lon="-1.13776">
        <ele>69</ele>
        <time>2022-09-11T10:26:04Z</time>
      </trkpt>
      <trkpt lat="43.46239" lon="-1.13753">
        <ele>69.6</ele>
        <time>2022-09-11T10:26:10Z</time>
      </trkpt>
      <trkpt lat="43.46235" lon="-1.13743">
        <ele>70.2</ele>
        <time>2022-09-11T10:26:13Z</time>
      </trkpt>
      <trkpt lat="43.46229" lon="-1.13736">
        <ele>70.4</ele>
        <time>2022-09-11T10:26:16Z</time>
      </trkpt>
      <trkpt lat="43.46215" lon="-1.13733">
        <ele>71</ele>
        <time>2022-09-11T10:26:22Z</time>
      </trkpt>
      <trkpt lat="43.46194" lon="-1.13733">
        <ele>70.6</ele>
        <time>2022-09-11T10:26:30Z</time>
      </trkpt>
      <trkpt lat="43.46171" lon="-1.13725">
        <ele>71.2</ele>
        <time>2022-09-11T10:26:38Z</time>
      </trkpt>
      <trkpt lat="43.46169" lon="-1.13724">
        <ele>71.2</ele>
        <time>2022-09-11T10:26:39Z</time>
      </trkpt>
      <trkpt lat="43.46157" lon="-1.13719">
        <ele>72.4</ele>
        <time>2022-09-11T10:26:45Z</time>
      </trkpt>
      <trkpt lat="43.46156" lon="-1.13719">
        <ele>72.6</ele>
        <time>2022-09-11T10:26:46Z</time>
      </trkpt>
      <trkpt lat="43.46151" lon="-1.13716">
        <ele>73.4</ele>
        <time>2022-09-11T10:26:49Z</time>
      </trkpt>
      <trkpt lat="43.46147" lon="-1.13714">
        <ele>74.6</ele>
        <time>2022-09-11T10:26:52Z</time>
      </trkpt>
      <trkpt lat="43.46141" lon="-1.13712">
        <ele>75.6</ele>
        <time>2022-09-11T10:26:56Z</time>
      </trkpt>
      <trkpt lat="43.46135" lon="-1.13708">
        <ele>76.6</ele>
        <time>2022-09-11T10:27:00Z</time>
      </trkpt>
      <trkpt lat="43.46129" lon="-1.13704">
        <ele>78</ele>
        <time>2022-09-11T10:27:04Z</time>
      </trkpt>
      <trkpt lat="43.46126" lon="-1.13702">
        <ele>78.4</ele>
        <time>2022-09-11T10:27:06Z</time>
      </trkpt>
      <trkpt lat="43.46123" lon="-1.13698">
        <ele>79</ele>
        <time>2022-09-11T10:27:09Z</time>
      </trkpt>
      <trkpt lat="43.46117" lon="-1.13692">
        <ele>80.2</ele>
        <time>2022-09-11T10:27:14Z</time>
      </trkpt>
      <trkpt lat="43.46115" lon="-1.13689">
        <ele>80.8</ele>
        <time>2022-09-11T10:27:16Z</time>
      </trkpt>
      <trkpt lat="43.46112" lon="-1.13684">
        <ele>81.4</ele>
        <time>2022-09-11T10:27:20Z</time>
      </trkpt>
      <trkpt lat="43.46111" lon="-1.13683">
        <ele>81.6</ele>
        <time>2022-09-11T10:27:21Z</time>
      </trkpt>
      <trkpt lat="43.46106" lon="-1.13672">
        <ele>82.4</ele>
        <time>2022-09-11T10:27:27Z</time>
      </trkpt>
      <trkpt lat="43.46106" lon="-1.1367">
        <ele>82.6</ele>
        <time>2022-09-11T10:27:28Z</time>
      </trkpt>
      <trkpt lat="43.46103" lon="-1.13667">
        <ele>83</ele>
        <time>2022-09-11T10:27:30Z</time>
      </trkpt>
      <trkpt lat="43.46101" lon="-1.13662">
        <ele>83.4</ele>
        <time>2022-09-11T10:27:33Z</time>
      </trkpt>
      <trkpt lat="43.46101" lon="-1.1366">
        <ele>83.6</ele>
        <time>2022-09-11T10:27:34Z</time>
      </trkpt>
      <trkpt lat="43.461" lon="-1.13657">
        <ele>83.8</ele>
        <time>2022-09-11T10:27:36Z</time>
      </trkpt>
      <trkpt lat="43.46098" lon="-1.13651">
        <ele>84.4</ele>
        <time>2022-09-11T10:27:39Z</time>
      </trkpt>
      <trkpt lat="43.46096" lon="-1.13647">
        <ele>84.8</ele>
        <time>2022-09-11T10:27:41Z</time>
      </trkpt>
      <trkpt lat="43.46092" lon="-1.1364">
        <ele>85.4</ele>
        <time>2022-09-11T10:27:45Z</time>
      </trkpt>
      <trkpt lat="43.46091" lon="-1.13631">
        <ele>85.8</ele>
        <time>2022-09-11T10:27:49Z</time>
      </trkpt>
      <trkpt lat="43.46089" lon="-1.13627">
        <ele>86</ele>
        <time>2022-09-11T10:27:51Z</time>
      </trkpt>
      <trkpt lat="43.46084" lon="-1.13618">
        <ele>86.6</ele>
        <time>2022-09-11T10:27:56Z</time>
      </trkpt>
      <trkpt lat="43.46083" lon="-1.13613">
        <ele>87</ele>
        <time>2022-09-11T10:27:58Z</time>
      </trkpt>
      <trkpt lat="43.46076" lon="-1.13599">
        <ele>87.8</ele>
        <time>2022-09-11T10:28:05Z</time>
      </trkpt>
      <trkpt lat="43.46075" lon="-1.13593">
        <ele>88</ele>
        <time>2022-09-11T10:28:07Z</time>
      </trkpt>
      <trkpt lat="43.46073" lon="-1.13583">
        <ele>88.4</ele>
        <time>2022-09-11T10:28:11Z</time>
      </trkpt>
      <trkpt lat="43.46068" lon="-1.13568">
        <ele>89</ele>
        <time>2022-09-11T10:28:17Z</time>
      </trkpt>
      <trkpt lat="43.46066" lon="-1.13563">
        <ele>89.2</ele>
        <time>2022-09-11T10:28:19Z</time>
      </trkpt>
      <trkpt lat="43.4606" lon="-1.13544">
        <ele>89.6</ele>
        <time>2022-09-11T10:28:26Z</time>
      </trkpt>
      <trkpt lat="43.46055" lon="-1.13527">
        <ele>90</ele>
        <time>2022-09-11T10:28:32Z</time>
      </trkpt>
      <trkpt lat="43.46054" lon="-1.13521">
        <ele>90.2</ele>
        <time>2022-09-11T10:28:34Z</time>
      </trkpt>
      <trkpt lat="43.46048" lon="-1.13499">
        <ele>90.4</ele>
        <time>2022-09-11T10:28:41Z</time>
      </trkpt>
      <trkpt lat="43.46039" lon="-1.13469">
        <ele>91.2</ele>
        <time>2022-09-11T10:28:50Z</time>
      </trkpt>
      <trkpt lat="43.4603" lon="-1.13439">
        <ele>91.8</ele>
        <time>2022-09-11T10:28:59Z</time>
      </trkpt>
      <trkpt lat="43.46027" lon="-1.13427">
        <ele>92.2</ele>
        <time>2022-09-11T10:29:03Z</time>
      </trkpt>
      <trkpt lat="43.46024" lon="-1.13417">
        <ele>92.4</ele>
        <time>2022-09-11T10:29:06Z</time>
      </trkpt>
      <trkpt lat="43.46019" lon="-1.13397">
        <ele>92.8</ele>
        <time>2022-09-11T10:29:12Z</time>
      </trkpt>
      <trkpt lat="43.46015" lon="-1.13372">
        <ele>92.6</ele>
        <time>2022-09-11T10:29:20Z</time>
      </trkpt>
      <trkpt lat="43.4601" lon="-1.13339">
        <ele>92.2</ele>
        <time>2022-09-11T10:29:28Z</time>
      </trkpt>
      <trkpt lat="43.46003" lon="-1.13309">
        <ele>92</ele>
        <time>2022-09-11T10:29:34Z</time>
      </trkpt>
      <trkpt lat="43.46001" lon="-1.13304">
        <ele>91.8</ele>
        <time>2022-09-11T10:29:35Z</time>
      </trkpt>
      <trkpt lat="43.45987" lon="-1.13269">
        <ele>91.4</ele>
        <time>2022-09-11T10:29:42Z</time>
      </trkpt>
      <trkpt lat="43.45976" lon="-1.13239">
        <ele>91.2</ele>
        <time>2022-09-11T10:29:47Z</time>
      </trkpt>
      <trkpt lat="43.4597" lon="-1.13223">
        <ele>91.4</ele>
        <time>2022-09-11T10:29:50Z</time>
      </trkpt>
      <trkpt lat="43.45958" lon="-1.13183">
        <ele>92.2</ele>
        <time>2022-09-11T10:29:58Z</time>
      </trkpt>
      <trkpt lat="43.45957" lon="-1.13179">
        <ele>92.4</ele>
        <time>2022-09-11T10:29:59Z</time>
      </trkpt>
      <trkpt lat="43.45955" lon="-1.13151">
        <ele>93.4</ele>
        <time>2022-09-11T10:30:05Z</time>
      </trkpt>
      <trkpt lat="43.45955" lon="-1.13142">
        <ele>93.8</ele>
        <time>2022-09-11T10:30:07Z</time>
      </trkpt>
      <trkpt lat="43.45957" lon="-1.1312">
        <ele>94.4</ele>
        <time>2022-09-11T10:30:12Z</time>
      </trkpt>
      <trkpt lat="43.45959" lon="-1.131">
        <ele>95.2</ele>
        <time>2022-09-11T10:30:17Z</time>
      </trkpt>
      <trkpt lat="43.45961" lon="-1.13089">
        <ele>95.4</ele>
        <time>2022-09-11T10:30:20Z</time>
      </trkpt>
      <trkpt lat="43.45963" lon="-1.13066">
        <ele>96.2</ele>
        <time>2022-09-11T10:30:26Z</time>
      </trkpt>
      <trkpt lat="43.45965" lon="-1.13059">
        <ele>96.4</ele>
        <time>2022-09-11T10:30:28Z</time>
      </trkpt>
      <trkpt lat="43.4597" lon="-1.13048">
        <ele>96.4</ele>
        <time>2022-09-11T10:30:32Z</time>
      </trkpt>
      <trkpt lat="43.45973" lon="-1.13046">
        <ele>96.4</ele>
        <time>2022-09-11T10:30:33Z</time>
      </trkpt>
      <trkpt lat="43.45985" lon="-1.13047">
        <ele>96.8</ele>
        <time>2022-09-11T10:30:38Z</time>
      </trkpt>
      <trkpt lat="43.45992" lon="-1.13049">
        <ele>97.2</ele>
        <time>2022-09-11T10:30:41Z</time>
      </trkpt>
      <trkpt lat="43.45995" lon="-1.13051">
        <ele>97.6</ele>
        <time>2022-09-11T10:30:43Z</time>
      </trkpt>
      <trkpt lat="43.45998" lon="-1.13052">
        <ele>98</ele>
        <time>2022-09-11T10:30:45Z</time>
      </trkpt>
      <trkpt lat="43.46002" lon="-1.13052">
        <ele>98.8</ele>
        <time>2022-09-11T10:30:48Z</time>
      </trkpt>
      <trkpt lat="43.46006" lon="-1.13049">
        <ele>99.6</ele>
        <time>2022-09-11T10:30:51Z</time>
      </trkpt>
      <trkpt lat="43.46007" lon="-1.13049">
        <ele>99.8</ele>
        <time>2022-09-11T10:30:52Z</time>
      </trkpt>
      <trkpt lat="43.46009" lon="-1.1305">
        <ele>100</ele>
        <time>2022-09-11T10:30:53Z</time>
      </trkpt>
      <trkpt lat="43.46012" lon="-1.13051">
        <ele>100.6</ele>
        <time>2022-09-11T10:30:56Z</time>
      </trkpt>
      <trkpt lat="43.46016" lon="-1.13049">
        <ele>101</ele>
        <time>2022-09-11T10:30:59Z</time>
      </trkpt>
      <trkpt lat="43.46018" lon="-1.1305">
        <ele>101.4</ele>
        <time>2022-09-11T10:31:01Z</time>
      </trkpt>
      <trkpt lat="43.46021" lon="-1.13051">
        <ele>101.8</ele>
        <time>2022-09-11T10:31:03Z</time>
      </trkpt>
      <trkpt lat="43.46022" lon="-1.1305">
        <ele>102</ele>
        <time>2022-09-11T10:31:04Z</time>
      </trkpt>
      <trkpt lat="43.46024" lon="-1.13048">
        <ele>102.2</ele>
        <time>2022-09-11T10:31:06Z</time>
      </trkpt>
      <trkpt lat="43.46029" lon="-1.13051">
        <ele>103</ele>
        <time>2022-09-11T10:31:10Z</time>
      </trkpt>
      <trkpt lat="43.4603" lon="-1.1305">
        <ele>103</ele>
        <time>2022-09-11T10:31:11Z</time>
      </trkpt>
      <trkpt lat="43.46035" lon="-1.13048">
        <ele>104</ele>
        <time>2022-09-11T10:31:15Z</time>
      </trkpt>
      <trkpt lat="43.46041" lon="-1.13049">
        <ele>104.8</ele>
        <time>2022-09-11T10:31:19Z</time>
      </trkpt>
      <trkpt lat="43.46045" lon="-1.1305">
        <ele>105.2</ele>
        <time>2022-09-11T10:31:22Z</time>
      </trkpt>
      <trkpt lat="43.46047" lon="-1.13048">
        <ele>105.4</ele>
        <time>2022-09-11T10:31:24Z</time>
      </trkpt>
      <trkpt lat="43.46048" lon="-1.13047">
        <ele>105.6</ele>
        <time>2022-09-11T10:31:25Z</time>
      </trkpt>
      <trkpt lat="43.46053" lon="-1.13046">
        <ele>106.2</ele>
        <time>2022-09-11T10:31:29Z</time>
      </trkpt>
      <trkpt lat="43.46055" lon="-1.13047">
        <ele>106.4</ele>
        <time>2022-09-11T10:31:31Z</time>
      </trkpt>
      <trkpt lat="43.4606" lon="-1.13045">
        <ele>107.2</ele>
        <time>2022-09-11T10:31:35Z</time>
      </trkpt>
      <trkpt lat="43.46061" lon="-1.13045">
        <ele>107.4</ele>
        <time>2022-09-11T10:31:36Z</time>
      </trkpt>
      <trkpt lat="43.46066" lon="-1.13044">
        <ele>108.2</ele>
        <time>2022-09-11T10:31:41Z</time>
      </trkpt>
      <trkpt lat="43.46067" lon="-1.13044">
        <ele>108.6</ele>
        <time>2022-09-11T10:31:42Z</time>
      </trkpt>
      <trkpt lat="43.46069" lon="-1.13044">
        <ele>108.8</ele>
        <time>2022-09-11T10:31:44Z</time>
      </trkpt>
      <trkpt lat="43.46072" lon="-1.13043">
        <ele>109.2</ele>
        <time>2022-09-11T10:31:47Z</time>
      </trkpt>
      <trkpt lat="43.46073" lon="-1.13043">
        <ele>109.4</ele>
        <time>2022-09-11T10:31:48Z</time>
      </trkpt>
      <trkpt lat="43.46092" lon="-1.13043">
        <ele>111.4</ele>
        <time>2022-09-11T10:32:03Z</time>
      </trkpt>
      <trkpt lat="43.46095" lon="-1.13043">
        <ele>111.6</ele>
        <time>2022-09-11T10:32:05Z</time>
      </trkpt>
      <trkpt lat="43.46106" lon="-1.13043">
        <ele>112.4</ele>
        <time>2022-09-11T10:32:12Z</time>
      </trkpt>
      <trkpt lat="43.46109" lon="-1.13043">
        <ele>112.6</ele>
        <time>2022-09-11T10:32:14Z</time>
      </trkpt>
      <trkpt lat="43.46116" lon="-1.13044">
        <ele>112.8</ele>
        <time>2022-09-11T10:32:18Z</time>
      </trkpt>
      <trkpt lat="43.46131" lon="-1.13044">
        <ele>113.4</ele>
        <time>2022-09-11T10:32:26Z</time>
      </trkpt>
      <trkpt lat="43.46133" lon="-1.13043">
        <ele>113.6</ele>
        <time>2022-09-11T10:32:27Z</time>
      </trkpt>
      <trkpt lat="43.46145" lon="-1.13038">
        <ele>114.2</ele>
        <time>2022-09-11T10:32:33Z</time>
      </trkpt>
      <trkpt lat="43.46165" lon="-1.13033">
        <ele>114</ele>
        <time>2022-09-11T10:32:40Z</time>
      </trkpt>
      <trkpt lat="43.46187" lon="-1.13027">
        <ele>112.8</ele>
        <time>2022-09-11T10:32:44Z</time>
      </trkpt>
      <trkpt lat="43.46203" lon="-1.13026">
        <ele>112.6</ele>
        <time>2022-09-11T10:32:47Z</time>
      </trkpt>
      <trkpt lat="43.46217" lon="-1.13025">
        <ele>112.8</ele>
        <time>2022-09-11T10:32:50Z</time>
      </trkpt>
      <trkpt lat="43.46232" lon="-1.13024">
        <ele>113.6</ele>
        <time>2022-09-11T10:32:54Z</time>
      </trkpt>
      <trkpt lat="43.46235" lon="-1.13024">
        <ele>113.6</ele>
        <time>2022-09-11T10:32:55Z</time>
      </trkpt>
      <trkpt lat="43.46268" lon="-1.13024">
        <ele>113.6</ele>
        <time>2022-09-11T10:33:04Z</time>
      </trkpt>
      <trkpt lat="43.46299" lon="-1.13022">
        <ele>113.6</ele>
        <time>2022-09-11T10:33:12Z</time>
      </trkpt>
      <trkpt lat="43.46331" lon="-1.13021">
        <ele>114</ele>
        <time>2022-09-11T10:33:20Z</time>
      </trkpt>
      <trkpt lat="43.46353" lon="-1.13017">
        <ele>114.2</ele>
        <time>2022-09-11T10:33:26Z</time>
      </trkpt>
      <trkpt lat="43.46364" lon="-1.13015">
        <ele>114.6</ele>
        <time>2022-09-11T10:33:29Z</time>
      </trkpt>
      <trkpt lat="43.46382" lon="-1.1301">
        <ele>115</ele>
        <time>2022-09-11T10:33:34Z</time>
      </trkpt>
      <trkpt lat="43.46398" lon="-1.13004">
        <ele>115.8</ele>
        <time>2022-09-11T10:33:39Z</time>
      </trkpt>
      <trkpt lat="43.46404" lon="-1.13003">
        <ele>115.8</ele>
        <time>2022-09-11T10:33:41Z</time>
      </trkpt>
      <trkpt lat="43.46425" lon="-1.13">
        <ele>116.4</ele>
        <time>2022-09-11T10:33:47Z</time>
      </trkpt>
      <trkpt lat="43.46441" lon="-1.13001">
        <ele>116.8</ele>
        <time>2022-09-11T10:33:52Z</time>
      </trkpt>
      <trkpt lat="43.46445" lon="-1.13001">
        <ele>117</ele>
        <time>2022-09-11T10:33:53Z</time>
      </trkpt>
      <trkpt lat="43.46463" lon="-1.13002">
        <ele>117.4</ele>
        <time>2022-09-11T10:33:59Z</time>
      </trkpt>
      <trkpt lat="43.46487" lon="-1.13008">
        <ele>117.8</ele>
        <time>2022-09-11T10:34:07Z</time>
      </trkpt>
      <trkpt lat="43.46502" lon="-1.13011">
        <ele>117.4</ele>
        <time>2022-09-11T10:34:11Z</time>
      </trkpt>
      <trkpt lat="43.46506" lon="-1.13013">
        <ele>117.4</ele>
        <time>2022-09-11T10:34:12Z</time>
      </trkpt>
      <trkpt lat="43.46529" lon="-1.13023">
        <ele>117</ele>
        <time>2022-09-11T10:34:18Z</time>
      </trkpt>
      <trkpt lat="43.46536" lon="-1.13024">
        <ele>116.6</ele>
        <time>2022-09-11T10:34:22Z</time>
      </trkpt>
      <trkpt lat="43.46543" lon="-1.13025">
        <ele>116.2</ele>
        <time>2022-09-11T10:35:48Z</time>
      </trkpt>
      <trkpt lat="43.46546" lon="-1.13026">
        <ele>116.4</ele>
        <time>2022-09-11T10:35:49Z</time>
      </trkpt>
      <trkpt lat="43.46565" lon="-1.13026">
        <ele>115.8</ele>
        <time>2022-09-11T10:35:54Z</time>
      </trkpt>
      <trkpt lat="43.46601" lon="-1.13019">
        <ele>115</ele>
        <time>2022-09-11T10:36:01Z</time>
      </trkpt>
      <trkpt lat="43.46607" lon="-1.13018">
        <ele>114.8</ele>
        <time>2022-09-11T10:36:02Z</time>
      </trkpt>
      <trkpt lat="43.46627" lon="-1.13011">
        <ele>113.8</ele>
        <time>2022-09-11T10:36:05Z</time>
      </trkpt>
      <trkpt lat="43.46639" lon="-1.13006">
        <ele>112.8</ele>
        <time>2022-09-11T10:36:07Z</time>
      </trkpt>
      <trkpt lat="43.46645" lon="-1.13004">
        <ele>112.2</ele>
        <time>2022-09-11T10:36:08Z</time>
      </trkpt>
      <trkpt lat="43.46652" lon="-1.13">
        <ele>111.8</ele>
        <time>2022-09-11T10:36:09Z</time>
      </trkpt>
      <trkpt lat="43.46672" lon="-1.12989">
        <ele>110.8</ele>
        <time>2022-09-11T10:36:12Z</time>
      </trkpt>
      <trkpt lat="43.46688" lon="-1.12979">
        <ele>109.6</ele>
        <time>2022-09-11T10:36:14Z</time>
      </trkpt>
      <trkpt lat="43.46704" lon="-1.12968">
        <ele>108.2</ele>
        <time>2022-09-11T10:36:16Z</time>
      </trkpt>
      <trkpt lat="43.46711" lon="-1.12962">
        <ele>107.2</ele>
        <time>2022-09-11T10:36:17Z</time>
      </trkpt>
      <trkpt lat="43.46718" lon="-1.12956">
        <ele>106</ele>
        <time>2022-09-11T10:36:18Z</time>
      </trkpt>
      <trkpt lat="43.46732" lon="-1.12947">
        <ele>104.6</ele>
        <time>2022-09-11T10:36:20Z</time>
      </trkpt>
      <trkpt lat="43.46747" lon="-1.12945">
        <ele>104.6</ele>
        <time>2022-09-11T10:36:22Z</time>
      </trkpt>
      <trkpt lat="43.46762" lon="-1.12949">
        <ele>103.6</ele>
        <time>2022-09-11T10:36:24Z</time>
      </trkpt>
      <trkpt lat="43.46769" lon="-1.12951">
        <ele>103.2</ele>
        <time>2022-09-11T10:36:25Z</time>
      </trkpt>
      <trkpt lat="43.46776" lon="-1.12954">
        <ele>103</ele>
        <time>2022-09-11T10:36:26Z</time>
      </trkpt>
      <trkpt lat="43.46796" lon="-1.12959">
        <ele>103.6</ele>
        <time>2022-09-11T10:36:29Z</time>
      </trkpt>
      <trkpt lat="43.46807" lon="-1.12958">
        <ele>104</ele>
        <time>2022-09-11T10:36:31Z</time>
      </trkpt>
      <trkpt lat="43.46816" lon="-1.12955">
        <ele>104.6</ele>
        <time>2022-09-11T10:36:33Z</time>
      </trkpt>
      <trkpt lat="43.46827" lon="-1.12951">
        <ele>105.2</ele>
        <time>2022-09-11T10:36:36Z</time>
      </trkpt>
      <trkpt lat="43.46854" lon="-1.12941">
        <ele>104.4</ele>
        <time>2022-09-11T10:36:42Z</time>
      </trkpt>
      <trkpt lat="43.46866" lon="-1.12936">
        <ele>103.6</ele>
        <time>2022-09-11T10:36:44Z</time>
      </trkpt>
      <trkpt lat="43.46887" lon="-1.12925">
        <ele>102.4</ele>
        <time>2022-09-11T10:36:47Z</time>
      </trkpt>
      <trkpt lat="43.46894" lon="-1.12922">
        <ele>101.2</ele>
        <time>2022-09-11T10:36:48Z</time>
      </trkpt>
      <trkpt lat="43.46901" lon="-1.12919">
        <ele>100.2</ele>
        <time>2022-09-11T10:36:49Z</time>
      </trkpt>
      <trkpt lat="43.46914" lon="-1.12912">
        <ele>98.4</ele>
        <time>2022-09-11T10:36:51Z</time>
      </trkpt>
      <trkpt lat="43.4692" lon="-1.12909">
        <ele>96.6</ele>
        <time>2022-09-11T10:36:52Z</time>
      </trkpt>
      <trkpt lat="43.46926" lon="-1.12907">
        <ele>96</ele>
        <time>2022-09-11T10:36:53Z</time>
      </trkpt>
      <trkpt lat="43.46931" lon="-1.12904">
        <ele>95.4</ele>
        <time>2022-09-11T10:36:54Z</time>
      </trkpt>
      <trkpt lat="43.46942" lon="-1.12899">
        <ele>94.2</ele>
        <time>2022-09-11T10:36:56Z</time>
      </trkpt>
      <trkpt lat="43.46955" lon="-1.12893">
        <ele>92.2</ele>
        <time>2022-09-11T10:36:58Z</time>
      </trkpt>
      <trkpt lat="43.46961" lon="-1.1289">
        <ele>91.2</ele>
        <time>2022-09-11T10:36:59Z</time>
      </trkpt>
      <trkpt lat="43.46967" lon="-1.12886">
        <ele>90</ele>
        <time>2022-09-11T10:37:00Z</time>
      </trkpt>
      <trkpt lat="43.46973" lon="-1.12883">
        <ele>89</ele>
        <time>2022-09-11T10:37:01Z</time>
      </trkpt>
      <trkpt lat="43.46979" lon="-1.12879">
        <ele>87.8</ele>
        <time>2022-09-11T10:37:02Z</time>
      </trkpt>
      <trkpt lat="43.46991" lon="-1.12869">
        <ele>86</ele>
        <time>2022-09-11T10:37:04Z</time>
      </trkpt>
      <trkpt lat="43.46996" lon="-1.12862">
        <ele>85</ele>
        <time>2022-09-11T10:37:05Z</time>
      </trkpt>
      <trkpt lat="43.47003" lon="-1.12847">
        <ele>83.4</ele>
        <time>2022-09-11T10:37:07Z</time>
      </trkpt>
      <trkpt lat="43.47007" lon="-1.12838">
        <ele>82.8</ele>
        <time>2022-09-11T10:37:08Z</time>
      </trkpt>
      <trkpt lat="43.47011" lon="-1.12828">
        <ele>81.6</ele>
        <time>2022-09-11T10:37:09Z</time>
      </trkpt>
      <trkpt lat="43.4702" lon="-1.12808">
        <ele>79.8</ele>
        <time>2022-09-11T10:37:11Z</time>
      </trkpt>
      <trkpt lat="43.47029" lon="-1.12789">
        <ele>78</ele>
        <time>2022-09-11T10:37:13Z</time>
      </trkpt>
      <trkpt lat="43.47033" lon="-1.12779">
        <ele>76.6</ele>
        <time>2022-09-11T10:37:14Z</time>
      </trkpt>
      <trkpt lat="43.47038" lon="-1.1277">
        <ele>75.4</ele>
        <time>2022-09-11T10:37:15Z</time>
      </trkpt>
      <trkpt lat="43.47042" lon="-1.12762">
        <ele>73.2</ele>
        <time>2022-09-11T10:37:16Z</time>
      </trkpt>
      <trkpt lat="43.47045" lon="-1.12754">
        <ele>72.2</ele>
        <time>2022-09-11T10:37:17Z</time>
      </trkpt>
      <trkpt lat="43.47048" lon="-1.12746">
        <ele>71.2</ele>
        <time>2022-09-11T10:37:18Z</time>
      </trkpt>
      <trkpt lat="43.47049" lon="-1.12738">
        <ele>70.2</ele>
        <time>2022-09-11T10:37:19Z</time>
      </trkpt>
      <trkpt lat="43.47051" lon="-1.1273">
        <ele>69.4</ele>
        <time>2022-09-11T10:37:20Z</time>
      </trkpt>
      <trkpt lat="43.47054" lon="-1.12723">
        <ele>69</ele>
        <time>2022-09-11T10:37:21Z</time>
      </trkpt>
      <trkpt lat="43.47063" lon="-1.1272">
        <ele>68.4</ele>
        <time>2022-09-11T10:37:23Z</time>
      </trkpt>
      <trkpt lat="43.47067" lon="-1.12721">
        <ele>68.2</ele>
        <time>2022-09-11T10:37:24Z</time>
      </trkpt>
      <trkpt lat="43.47078" lon="-1.12726">
        <ele>68.6</ele>
        <time>2022-09-11T10:37:27Z</time>
      </trkpt>
      <trkpt lat="43.47089" lon="-1.12727">
        <ele>69.6</ele>
        <time>2022-09-11T10:37:30Z</time>
      </trkpt>
      <trkpt lat="43.47095" lon="-1.12727">
        <ele>70.2</ele>
        <time>2022-09-11T10:37:32Z</time>
      </trkpt>
      <trkpt lat="43.47101" lon="-1.12727">
        <ele>70.8</ele>
        <time>2022-09-11T10:37:34Z</time>
      </trkpt>
      <trkpt lat="43.47105" lon="-1.12726">
        <ele>71.4</ele>
        <time>2022-09-11T10:37:37Z</time>
      </trkpt>
      <trkpt lat="43.47108" lon="-1.12726">
        <ele>72</ele>
        <time>2022-09-11T10:37:39Z</time>
      </trkpt>
      <trkpt lat="43.47115" lon="-1.12725">
        <ele>73.2</ele>
        <time>2022-09-11T10:37:43Z</time>
      </trkpt>
      <trkpt lat="43.47126" lon="-1.1272">
        <ele>74.4</ele>
        <time>2022-09-11T10:37:50Z</time>
      </trkpt>
      <trkpt lat="43.47127" lon="-1.12719">
        <ele>74.6</ele>
        <time>2022-09-11T10:37:51Z</time>
      </trkpt>
      <trkpt lat="43.47135" lon="-1.12714">
        <ele>75.6</ele>
        <time>2022-09-11T10:37:56Z</time>
      </trkpt>
      <trkpt lat="43.47138" lon="-1.12712">
        <ele>76.2</ele>
        <time>2022-09-11T10:37:58Z</time>
      </trkpt>
      <trkpt lat="43.47142" lon="-1.12709">
        <ele>76.6</ele>
        <time>2022-09-11T10:38:01Z</time>
      </trkpt>
      <trkpt lat="43.47149" lon="-1.12706">
        <ele>77.8</ele>
        <time>2022-09-11T10:38:05Z</time>
      </trkpt>
      <trkpt lat="43.47156" lon="-1.12702">
        <ele>78.2</ele>
        <time>2022-09-11T10:38:09Z</time>
      </trkpt>
      <trkpt lat="43.47159" lon="-1.127">
        <ele>78.2</ele>
        <time>2022-09-11T10:38:11Z</time>
      </trkpt>
      <trkpt lat="43.47169" lon="-1.12701">
        <ele>77.8</ele>
        <time>2022-09-11T10:38:15Z</time>
      </trkpt>
      <trkpt lat="43.47174" lon="-1.12703">
        <ele>77.6</ele>
        <time>2022-09-11T10:38:16Z</time>
      </trkpt>
      <trkpt lat="43.47184" lon="-1.12709">
        <ele>77.2</ele>
        <time>2022-09-11T10:38:18Z</time>
      </trkpt>
      <trkpt lat="43.4719" lon="-1.12713">
        <ele>76.6</ele>
        <time>2022-09-11T10:38:19Z</time>
      </trkpt>
      <trkpt lat="43.47206" lon="-1.12724">
        <ele>75</ele>
        <time>2022-09-11T10:38:21Z</time>
      </trkpt>
      <trkpt lat="43.47223" lon="-1.12734">
        <ele>73.8</ele>
        <time>2022-09-11T10:38:23Z</time>
      </trkpt>
      <trkpt lat="43.47249" lon="-1.12753">
        <ele>72.6</ele>
        <time>2022-09-11T10:38:26Z</time>
      </trkpt>
      <trkpt lat="43.47265" lon="-1.12768">
        <ele>71.8</ele>
        <time>2022-09-11T10:38:28Z</time>
      </trkpt>
      <trkpt lat="43.47277" lon="-1.12785">
        <ele>71.6</ele>
        <time>2022-09-11T10:38:30Z</time>
      </trkpt>
      <trkpt lat="43.4731" lon="-1.12838">
        <ele>70.6</ele>
        <time>2022-09-11T10:38:36Z</time>
      </trkpt>
      <trkpt lat="43.47316" lon="-1.12848">
        <ele>70.2</ele>
        <time>2022-09-11T10:38:37Z</time>
      </trkpt>
      <trkpt lat="43.47338" lon="-1.12888">
        <ele>68.6</ele>
        <time>2022-09-11T10:38:41Z</time>
      </trkpt>
      <trkpt lat="43.47349" lon="-1.12908">
        <ele>68</ele>
        <time>2022-09-11T10:38:43Z</time>
      </trkpt>
      <trkpt lat="43.47376" lon="-1.12955">
        <ele>67.6</ele>
        <time>2022-09-11T10:38:48Z</time>
      </trkpt>
      <trkpt lat="43.47385" lon="-1.12973">
        <ele>67.2</ele>
        <time>2022-09-11T10:38:50Z</time>
      </trkpt>
      <trkpt lat="43.47423" lon="-1.13029">
        <ele>67.4</ele>
        <time>2022-09-11T10:38:57Z</time>
      </trkpt>
      <trkpt lat="43.47448" lon="-1.13065">
        <ele>66.4</ele>
        <time>2022-09-11T10:39:02Z</time>
      </trkpt>
      <trkpt lat="43.47457" lon="-1.13077">
        <ele>66.6</ele>
        <time>2022-09-11T10:39:04Z</time>
      </trkpt>
      <trkpt lat="43.47466" lon="-1.13089">
        <ele>66.6</ele>
        <time>2022-09-11T10:39:06Z</time>
      </trkpt>
      <trkpt lat="43.47486" lon="-1.13111">
        <ele>66.8</ele>
        <time>2022-09-11T10:39:10Z</time>
      </trkpt>
      <trkpt lat="43.47517" lon="-1.1314">
        <ele>67.2</ele>
        <time>2022-09-11T10:39:17Z</time>
      </trkpt>
      <trkpt lat="43.47547" lon="-1.13163">
        <ele>67.2</ele>
        <time>2022-09-11T10:39:24Z</time>
      </trkpt>
      <trkpt lat="43.4755" lon="-1.13167">
        <ele>67</ele>
        <time>2022-09-11T10:39:25Z</time>
      </trkpt>
      <trkpt lat="43.47557" lon="-1.13175">
        <ele>66.6</ele>
        <time>2022-09-11T10:39:27Z</time>
      </trkpt>
      <trkpt lat="43.47566" lon="-1.13194">
        <ele>66.2</ele>
        <time>2022-09-11T10:39:30Z</time>
      </trkpt>
      <trkpt lat="43.47586" lon="-1.13228">
        <ele>65.2</ele>
        <time>2022-09-11T10:39:35Z</time>
      </trkpt>
      <trkpt lat="43.47592" lon="-1.13234">
        <ele>65</ele>
        <time>2022-09-11T10:39:36Z</time>
      </trkpt>
      <trkpt lat="43.47613" lon="-1.13247">
        <ele>64.4</ele>
        <time>2022-09-11T10:39:39Z</time>
      </trkpt>
      <trkpt lat="43.47627" lon="-1.13255">
        <ele>64.4</ele>
        <time>2022-09-11T10:39:41Z</time>
      </trkpt>
      <trkpt lat="43.47642" lon="-1.13264">
        <ele>64</ele>
        <time>2022-09-11T10:39:43Z</time>
      </trkpt>
      <trkpt lat="43.47669" lon="-1.13281">
        <ele>62.8</ele>
        <time>2022-09-11T10:39:47Z</time>
      </trkpt>
      <trkpt lat="43.47693" lon="-1.13293">
        <ele>62</ele>
        <time>2022-09-11T10:39:50Z</time>
      </trkpt>
      <trkpt lat="43.47702" lon="-1.13296">
        <ele>61.4</ele>
        <time>2022-09-11T10:39:51Z</time>
      </trkpt>
      <trkpt lat="43.47718" lon="-1.13299">
        <ele>60.2</ele>
        <time>2022-09-11T10:39:53Z</time>
      </trkpt>
      <trkpt lat="43.47731" lon="-1.13302">
        <ele>59</ele>
        <time>2022-09-11T10:39:55Z</time>
      </trkpt>
      <trkpt lat="43.47742" lon="-1.13302">
        <ele>58.4</ele>
        <time>2022-09-11T10:39:57Z</time>
      </trkpt>
      <trkpt lat="43.47752" lon="-1.13297">
        <ele>58.6</ele>
        <time>2022-09-11T10:39:59Z</time>
      </trkpt>
      <trkpt lat="43.47762" lon="-1.13289">
        <ele>58</ele>
        <time>2022-09-11T10:40:01Z</time>
      </trkpt>
      <trkpt lat="43.47778" lon="-1.13281">
        <ele>56</ele>
        <time>2022-09-11T10:40:04Z</time>
      </trkpt>
      <trkpt lat="43.47783" lon="-1.13282">
        <ele>53.8</ele>
        <time>2022-09-11T10:40:05Z</time>
      </trkpt>
      <trkpt lat="43.47793" lon="-1.1329">
        <ele>52.4</ele>
        <time>2022-09-11T10:40:07Z</time>
      </trkpt>
      <trkpt lat="43.47802" lon="-1.13301">
        <ele>51.2</ele>
        <time>2022-09-11T10:40:09Z</time>
      </trkpt>
      <trkpt lat="43.47811" lon="-1.13308">
        <ele>49.4</ele>
        <time>2022-09-11T10:40:11Z</time>
      </trkpt>
      <trkpt lat="43.47821" lon="-1.13305">
        <ele>48</ele>
        <time>2022-09-11T10:40:13Z</time>
      </trkpt>
      <trkpt lat="43.47825" lon="-1.13299">
        <ele>47.4</ele>
        <time>2022-09-11T10:40:14Z</time>
      </trkpt>
      <trkpt lat="43.47827" lon="-1.1329">
        <ele>46.4</ele>
        <time>2022-09-11T10:40:15Z</time>
      </trkpt>
      <trkpt lat="43.47827" lon="-1.13282">
        <ele>45.4</ele>
        <time>2022-09-11T10:40:16Z</time>
      </trkpt>
      <trkpt lat="43.47827" lon="-1.13273">
        <ele>44.4</ele>
        <time>2022-09-11T10:40:17Z</time>
      </trkpt>
      <trkpt lat="43.47829" lon="-1.13267">
        <ele>43.6</ele>
        <time>2022-09-11T10:40:18Z</time>
      </trkpt>
      <trkpt lat="43.47832" lon="-1.13262">
        <ele>42.8</ele>
        <time>2022-09-11T10:40:19Z</time>
      </trkpt>
      <trkpt lat="43.47837" lon="-1.1326">
        <ele>41.8</ele>
        <time>2022-09-11T10:40:20Z</time>
      </trkpt>
      <trkpt lat="43.47843" lon="-1.1326">
        <ele>40.8</ele>
        <time>2022-09-11T10:40:21Z</time>
      </trkpt>
      <trkpt lat="43.47849" lon="-1.13263">
        <ele>39.8</ele>
        <time>2022-09-11T10:40:22Z</time>
      </trkpt>
      <trkpt lat="43.47862" lon="-1.1327">
        <ele>38.4</ele>
        <time>2022-09-11T10:40:24Z</time>
      </trkpt>
      <trkpt lat="43.47876" lon="-1.13273">
        <ele>37</ele>
        <time>2022-09-11T10:40:26Z</time>
      </trkpt>
      <trkpt lat="43.47883" lon="-1.13276">
        <ele>36.2</ele>
        <time>2022-09-11T10:40:27Z</time>
      </trkpt>
      <trkpt lat="43.4789" lon="-1.1328">
        <ele>35.4</ele>
        <time>2022-09-11T10:40:28Z</time>
      </trkpt>
      <trkpt lat="43.47895" lon="-1.13285">
        <ele>33.2</ele>
        <time>2022-09-11T10:40:29Z</time>
      </trkpt>
      <trkpt lat="43.47902" lon="-1.13292">
        <ele>31.4</ele>
        <time>2022-09-11T10:40:31Z</time>
      </trkpt>
      <trkpt lat="43.47908" lon="-1.13302">
        <ele>30.2</ele>
        <time>2022-09-11T10:40:33Z</time>
      </trkpt>
      <trkpt lat="43.47914" lon="-1.13317">
        <ele>29.4</ele>
        <time>2022-09-11T10:40:35Z</time>
      </trkpt>
      <trkpt lat="43.47918" lon="-1.13326">
        <ele>29.2</ele>
        <time>2022-09-11T10:40:36Z</time>
      </trkpt>
      <trkpt lat="43.47929" lon="-1.13352">
        <ele>28.8</ele>
        <time>2022-09-11T10:40:39Z</time>
      </trkpt>
      <trkpt lat="43.47932" lon="-1.13362">
        <ele>28.4</ele>
        <time>2022-09-11T10:40:40Z</time>
      </trkpt>
      <trkpt lat="43.47939" lon="-1.13404">
        <ele>28.6</ele>
        <time>2022-09-11T10:40:45Z</time>
      </trkpt>
      <trkpt lat="43.47952" lon="-1.13455">
        <ele>29</ele>
        <time>2022-09-11T10:40:52Z</time>
      </trkpt>
      <trkpt lat="43.47966" lon="-1.13488">
        <ele>29.2</ele>
        <time>2022-09-11T10:40:57Z</time>
      </trkpt>
      <trkpt lat="43.4797" lon="-1.13501">
        <ele>29.4</ele>
        <time>2022-09-11T10:40:59Z</time>
      </trkpt>
      <trkpt lat="43.4798" lon="-1.13547">
        <ele>30.2</ele>
        <time>2022-09-11T10:41:07Z</time>
      </trkpt>
      <trkpt lat="43.4798" lon="-1.13568">
        <ele>31.4</ele>
        <time>2022-09-11T10:41:12Z</time>
      </trkpt>
      <trkpt lat="43.4798" lon="-1.13572">
        <ele>31.8</ele>
        <time>2022-09-11T10:41:13Z</time>
      </trkpt>
      <trkpt lat="43.47979" lon="-1.13583">
        <ele>32.4</ele>
        <time>2022-09-11T10:41:16Z</time>
      </trkpt>
      <trkpt lat="43.47979" lon="-1.13594">
        <ele>33.4</ele>
        <time>2022-09-11T10:41:20Z</time>
      </trkpt>
      <trkpt lat="43.47979" lon="-1.13597">
        <ele>33.6</ele>
        <time>2022-09-11T10:41:21Z</time>
      </trkpt>
      <trkpt lat="43.47977" lon="-1.1361">
        <ele>34.4</ele>
        <time>2022-09-11T10:41:26Z</time>
      </trkpt>
      <trkpt lat="43.47977" lon="-1.13612">
        <ele>34.6</ele>
        <time>2022-09-11T10:41:27Z</time>
      </trkpt>
      <trkpt lat="43.47976" lon="-1.13615">
        <ele>34.8</ele>
        <time>2022-09-11T10:41:28Z</time>
      </trkpt>
      <trkpt lat="43.47973" lon="-1.13623">
        <ele>35.2</ele>
        <time>2022-09-11T10:41:31Z</time>
      </trkpt>
      <trkpt lat="43.4797" lon="-1.13638">
        <ele>35.6</ele>
        <time>2022-09-11T10:41:36Z</time>
      </trkpt>
      <trkpt lat="43.47968" lon="-1.13641">
        <ele>35.8</ele>
        <time>2022-09-11T10:41:37Z</time>
      </trkpt>
      <trkpt lat="43.47965" lon="-1.13656">
        <ele>36.4</ele>
        <time>2022-09-11T10:41:42Z</time>
      </trkpt>
      <trkpt lat="43.47964" lon="-1.13659">
        <ele>36.4</ele>
        <time>2022-09-11T10:41:43Z</time>
      </trkpt>
      <trkpt lat="43.4796" lon="-1.13677">
        <ele>36.8</ele>
        <time>2022-09-11T10:41:49Z</time>
      </trkpt>
      <trkpt lat="43.4796" lon="-1.1368">
        <ele>36.8</ele>
        <time>2022-09-11T10:41:50Z</time>
      </trkpt>
      <trkpt lat="43.47956" lon="-1.13705">
        <ele>36.2</ele>
        <time>2022-09-11T10:41:55Z</time>
      </trkpt>
      <trkpt lat="43.47955" lon="-1.13725">
        <ele>35.6</ele>
        <time>2022-09-11T10:41:58Z</time>
      </trkpt>
      <trkpt lat="43.47955" lon="-1.13741">
        <ele>35.2</ele>
        <time>2022-09-11T10:42:00Z</time>
      </trkpt>
      <trkpt lat="43.47957" lon="-1.1376">
        <ele>34.4</ele>
        <time>2022-09-11T10:42:02Z</time>
      </trkpt>
      <trkpt lat="43.47963" lon="-1.13778">
        <ele>33.6</ele>
        <time>2022-09-11T10:42:04Z</time>
      </trkpt>
      <trkpt lat="43.47967" lon="-1.13787">
        <ele>32.8</ele>
        <time>2022-09-11T10:42:05Z</time>
      </trkpt>
      <trkpt lat="43.47972" lon="-1.13796">
        <ele>32.4</ele>
        <time>2022-09-11T10:42:06Z</time>
      </trkpt>
      <trkpt lat="43.47983" lon="-1.13814">
        <ele>31.6</ele>
        <time>2022-09-11T10:42:08Z</time>
      </trkpt>
      <trkpt lat="43.48002" lon="-1.1384">
        <ele>30.6</ele>
        <time>2022-09-11T10:42:11Z</time>
      </trkpt>
      <trkpt lat="43.48021" lon="-1.13867">
        <ele>29.2</ele>
        <time>2022-09-11T10:42:14Z</time>
      </trkpt>
      <trkpt lat="43.48028" lon="-1.13876">
        <ele>29.2</ele>
        <time>2022-09-11T10:42:15Z</time>
      </trkpt>
      <trkpt lat="43.48057" lon="-1.1391">
        <ele>28</ele>
        <time>2022-09-11T10:42:19Z</time>
      </trkpt>
      <trkpt lat="43.48072" lon="-1.13925">
        <ele>27.4</ele>
        <time>2022-09-11T10:42:21Z</time>
      </trkpt>
      <trkpt lat="43.48101" lon="-1.13946">
        <ele>26.6</ele>
        <time>2022-09-11T10:42:25Z</time>
      </trkpt>
      <trkpt lat="43.48125" lon="-1.13957">
        <ele>27</ele>
        <time>2022-09-11T10:42:29Z</time>
      </trkpt>
      <trkpt lat="43.48146" lon="-1.13969">
        <ele>26.6</ele>
        <time>2022-09-11T10:42:33Z</time>
      </trkpt>
      <trkpt lat="43.48151" lon="-1.13975">
        <ele>27</ele>
        <time>2022-09-11T10:42:35Z</time>
      </trkpt>
      <trkpt lat="43.48157" lon="-1.13981">
        <ele>27.8</ele>
        <time>2022-09-11T10:42:38Z</time>
      </trkpt>
      <trkpt lat="43.4816" lon="-1.13984">
        <ele>28.4</ele>
        <time>2022-09-11T10:42:40Z</time>
      </trkpt>
      <trkpt lat="43.48163" lon="-1.13986">
        <ele>28.8</ele>
        <time>2022-09-11T10:42:42Z</time>
      </trkpt>
      <trkpt lat="43.4817" lon="-1.13991">
        <ele>30</ele>
        <time>2022-09-11T10:42:46Z</time>
      </trkpt>
      <trkpt lat="43.48174" lon="-1.13995">
        <ele>30.6</ele>
        <time>2022-09-11T10:42:49Z</time>
      </trkpt>
      <trkpt lat="43.48177" lon="-1.13998">
        <ele>31</ele>
        <time>2022-09-11T10:42:51Z</time>
      </trkpt>
      <trkpt lat="43.48181" lon="-1.14002">
        <ele>32</ele>
        <time>2022-09-11T10:42:54Z</time>
      </trkpt>
      <trkpt lat="43.48183" lon="-1.14006">
        <ele>32.6</ele>
        <time>2022-09-11T10:42:56Z</time>
      </trkpt>
      <trkpt lat="43.48186" lon="-1.14008">
        <ele>33.2</ele>
        <time>2022-09-11T10:42:58Z</time>
      </trkpt>
      <trkpt lat="43.48191" lon="-1.14016">
        <ele>34.2</ele>
        <time>2022-09-11T10:43:03Z</time>
      </trkpt>
      <trkpt lat="43.48199" lon="-1.14027">
        <ele>35.4</ele>
        <time>2022-09-11T10:43:10Z</time>
      </trkpt>
      <trkpt lat="43.48201" lon="-1.14028">
        <ele>35.6</ele>
        <time>2022-09-11T10:43:11Z</time>
      </trkpt>
      <trkpt lat="43.48208" lon="-1.14033">
        <ele>36.6</ele>
        <time>2022-09-11T10:43:17Z</time>
      </trkpt>
      <trkpt lat="43.48211" lon="-1.14034">
        <ele>36.8</ele>
        <time>2022-09-11T10:43:19Z</time>
      </trkpt>
      <trkpt lat="43.48215" lon="-1.14038">
        <ele>37.4</ele>
        <time>2022-09-11T10:43:23Z</time>
      </trkpt>
      <trkpt lat="43.48215" lon="-1.14043">
        <ele>37.4</ele>
        <time>2022-09-11T10:43:26Z</time>
      </trkpt>
      <trkpt lat="43.48214" lon="-1.14047">
        <ele>37.8</ele>
        <time>2022-09-11T10:43:28Z</time>
      </trkpt>
      <trkpt lat="43.48216" lon="-1.14053">
        <ele>38.2</ele>
        <time>2022-09-11T10:43:31Z</time>
      </trkpt>
      <trkpt lat="43.48219" lon="-1.14062">
        <ele>38.8</ele>
        <time>2022-09-11T10:43:36Z</time>
      </trkpt>
      <trkpt lat="43.48219" lon="-1.14064">
        <ele>39</ele>
        <time>2022-09-11T10:43:37Z</time>
      </trkpt>
      <trkpt lat="43.4822" lon="-1.14065">
        <ele>39</ele>
        <time>2022-09-11T10:43:38Z</time>
      </trkpt>
      <trkpt lat="43.48225" lon="-1.14079">
        <ele>39.8</ele>
        <time>2022-09-11T10:43:45Z</time>
      </trkpt>
      <trkpt lat="43.48226" lon="-1.14084">
        <ele>40</ele>
        <time>2022-09-11T10:43:47Z</time>
      </trkpt>
      <trkpt lat="43.48228" lon="-1.14089">
        <ele>40.4</ele>
        <time>2022-09-11T10:43:50Z</time>
      </trkpt>
      <trkpt lat="43.48231" lon="-1.14097">
        <ele>41</ele>
        <time>2022-09-11T10:43:54Z</time>
      </trkpt>
      <trkpt lat="43.48235" lon="-1.1411">
        <ele>42</ele>
        <time>2022-09-11T10:44:01Z</time>
      </trkpt>
      <trkpt lat="43.48236" lon="-1.14112">
        <ele>42</ele>
        <time>2022-09-11T10:44:02Z</time>
      </trkpt>
      <trkpt lat="43.48238" lon="-1.1412">
        <ele>43</ele>
        <time>2022-09-11T10:44:07Z</time>
      </trkpt>
      <trkpt lat="43.48238" lon="-1.14121">
        <ele>43.2</ele>
        <time>2022-09-11T10:44:08Z</time>
      </trkpt>
      <trkpt lat="43.4824" lon="-1.14121">
        <ele>43.4</ele>
        <time>2022-09-11T10:44:09Z</time>
      </trkpt>
      <trkpt lat="43.48249" lon="-1.14125">
        <ele>43.8</ele>
        <time>2022-09-11T10:44:30Z</time>
      </trkpt>
      <trkpt lat="43.48249" lon="-1.14133">
        <ele>43.8</ele>
        <time>2022-09-11T10:44:34Z</time>
      </trkpt>
      <trkpt lat="43.4825" lon="-1.14133">
        <ele>44</ele>
        <time>2022-09-11T10:44:35Z</time>
      </trkpt>
      <trkpt lat="43.48249" lon="-1.14124">
        <ele>47.2</ele>
        <time>2022-09-11T11:29:39Z</time>
      </trkpt>
      <trkpt lat="43.48248" lon="-1.14123">
        <ele>47.2</ele>
        <time>2022-09-11T11:29:41Z</time>
      </trkpt>
      <trkpt lat="43.48229" lon="-1.14169">
        <ele>50.6</ele>
        <time>2022-09-11T11:30:36Z</time>
      </trkpt>
      <trkpt lat="43.48227" lon="-1.14176">
        <ele>51</ele>
        <time>2022-09-11T11:30:40Z</time>
      </trkpt>
      <trkpt lat="43.48222" lon="-1.14188">
        <ele>51.4</ele>
        <time>2022-09-11T11:30:46Z</time>
      </trkpt>
      <trkpt lat="43.48219" lon="-1.14194">
        <ele>51.6</ele>
        <time>2022-09-11T11:30:49Z</time>
      </trkpt>
      <trkpt lat="43.48216" lon="-1.14203">
        <ele>52</ele>
        <time>2022-09-11T11:30:53Z</time>
      </trkpt>
      <trkpt lat="43.4821" lon="-1.14219">
        <ele>52.6</ele>
        <time>2022-09-11T11:31:01Z</time>
      </trkpt>
      <trkpt lat="43.4821" lon="-1.14224">
        <ele>52.6</ele>
        <time>2022-09-11T11:31:03Z</time>
      </trkpt>
      <trkpt lat="43.48205" lon="-1.14234">
        <ele>52.8</ele>
        <time>2022-09-11T11:31:08Z</time>
      </trkpt>
      <trkpt lat="43.482" lon="-1.1425">
        <ele>53.4</ele>
        <time>2022-09-11T11:31:15Z</time>
      </trkpt>
      <trkpt lat="43.48199" lon="-1.14255">
        <ele>53.8</ele>
        <time>2022-09-11T11:31:17Z</time>
      </trkpt>
      <trkpt lat="43.48194" lon="-1.14271">
        <ele>54.4</ele>
        <time>2022-09-11T11:31:24Z</time>
      </trkpt>
      <trkpt lat="43.48191" lon="-1.14282">
        <ele>54.8</ele>
        <time>2022-09-11T11:31:29Z</time>
      </trkpt>
      <trkpt lat="43.48191" lon="-1.14285">
        <ele>54.8</ele>
        <time>2022-09-11T11:31:30Z</time>
      </trkpt>
      <trkpt lat="43.48191" lon="-1.14287">
        <ele>55</ele>
        <time>2022-09-11T11:31:31Z</time>
      </trkpt>
      <trkpt lat="43.4819" lon="-1.14306">
        <ele>55.8</ele>
        <time>2022-09-11T11:31:39Z</time>
      </trkpt>
      <trkpt lat="43.4819" lon="-1.14309">
        <ele>56</ele>
        <time>2022-09-11T11:31:40Z</time>
      </trkpt>
      <trkpt lat="43.4819" lon="-1.14326">
        <ele>56.8</ele>
        <time>2022-09-11T11:31:47Z</time>
      </trkpt>
      <trkpt lat="43.4819" lon="-1.14331">
        <ele>57</ele>
        <time>2022-09-11T11:31:49Z</time>
      </trkpt>
      <trkpt lat="43.48188" lon="-1.14344">
        <ele>58</ele>
        <time>2022-09-11T11:31:55Z</time>
      </trkpt>
      <trkpt lat="43.48188" lon="-1.14347">
        <ele>58</ele>
        <time>2022-09-11T11:31:56Z</time>
      </trkpt>
      <trkpt lat="43.48186" lon="-1.14362">
        <ele>59</ele>
        <time>2022-09-11T11:32:03Z</time>
      </trkpt>
      <trkpt lat="43.48186" lon="-1.14364">
        <ele>59.2</ele>
        <time>2022-09-11T11:32:04Z</time>
      </trkpt>
      <trkpt lat="43.48183" lon="-1.14374">
        <ele>60.4</ele>
        <time>2022-09-11T11:32:09Z</time>
      </trkpt>
      <trkpt lat="43.48183" lon="-1.14378">
        <ele>60.8</ele>
        <time>2022-09-11T11:32:11Z</time>
      </trkpt>
      <trkpt lat="43.48181" lon="-1.14385">
        <ele>61.4</ele>
        <time>2022-09-11T11:32:16Z</time>
      </trkpt>
      <trkpt lat="43.4818" lon="-1.14386">
        <ele>61.6</ele>
        <time>2022-09-11T11:32:17Z</time>
      </trkpt>
      <trkpt lat="43.48183" lon="-1.14391">
        <ele>62.2</ele>
        <time>2022-09-11T11:32:21Z</time>
      </trkpt>
      <trkpt lat="43.4819" lon="-1.14396">
        <ele>62.4</ele>
        <time>2022-09-11T11:32:26Z</time>
      </trkpt>
      <trkpt lat="43.48194" lon="-1.14395">
        <ele>62.6</ele>
        <time>2022-09-11T11:32:28Z</time>
      </trkpt>
      <trkpt lat="43.48206" lon="-1.14394">
        <ele>62.8</ele>
        <time>2022-09-11T11:32:34Z</time>
      </trkpt>
      <trkpt lat="43.48219" lon="-1.14393">
        <ele>63</ele>
        <time>2022-09-11T11:32:41Z</time>
      </trkpt>
      <trkpt lat="43.48234" lon="-1.14382">
        <ele>62.6</ele>
        <time>2022-09-11T11:32:47Z</time>
      </trkpt>
      <trkpt lat="43.48252" lon="-1.14377">
        <ele>62.8</ele>
        <time>2022-09-11T11:32:53Z</time>
      </trkpt>
      <trkpt lat="43.48273" lon="-1.14385">
        <ele>63</ele>
        <time>2022-09-11T11:33:00Z</time>
      </trkpt>
      <trkpt lat="43.48279" lon="-1.14404">
        <ele>62.8</ele>
        <time>2022-09-11T11:33:04Z</time>
      </trkpt>
      <trkpt lat="43.48278" lon="-1.1441">
        <ele>62.6</ele>
        <time>2022-09-11T11:33:05Z</time>
      </trkpt>
      <trkpt lat="43.48274" lon="-1.1442">
        <ele>62.4</ele>
        <time>2022-09-11T11:33:07Z</time>
      </trkpt>
      <trkpt lat="43.48274" lon="-1.1443">
        <ele>62.6</ele>
        <time>2022-09-11T11:33:11Z</time>
      </trkpt>
      <trkpt lat="43.48279" lon="-1.14436">
        <ele>61.8</ele>
        <time>2022-09-11T11:33:14Z</time>
      </trkpt>
      <trkpt lat="43.48282" lon="-1.14441">
        <ele>61.2</ele>
        <time>2022-09-11T11:33:16Z</time>
      </trkpt>
      <trkpt lat="43.48283" lon="-1.14442">
        <ele>60.8</ele>
        <time>2022-09-11T11:33:17Z</time>
      </trkpt>
      <trkpt lat="43.48288" lon="-1.14447">
        <ele>59.8</ele>
        <time>2022-09-11T11:33:35Z</time>
      </trkpt>
      <trkpt lat="43.48295" lon="-1.14455">
        <ele>59</ele>
        <time>2022-09-11T11:33:38Z</time>
      </trkpt>
      <trkpt lat="43.48303" lon="-1.1446">
        <ele>58.8</ele>
        <time>2022-09-11T11:33:40Z</time>
      </trkpt>
      <trkpt lat="43.48319" lon="-1.14476">
        <ele>58</ele>
        <time>2022-09-11T11:33:44Z</time>
      </trkpt>
      <trkpt lat="43.48329" lon="-1.14485">
        <ele>57.2</ele>
        <time>2022-09-11T11:33:46Z</time>
      </trkpt>
      <trkpt lat="43.48338" lon="-1.14496">
        <ele>56.4</ele>
        <time>2022-09-11T11:33:48Z</time>
      </trkpt>
      <trkpt lat="43.48349" lon="-1.14508">
        <ele>55.4</ele>
        <time>2022-09-11T11:33:50Z</time>
      </trkpt>
      <trkpt lat="43.48362" lon="-1.14522">
        <ele>54.8</ele>
        <time>2022-09-11T11:33:52Z</time>
      </trkpt>
      <trkpt lat="43.48369" lon="-1.1453">
        <ele>54.2</ele>
        <time>2022-09-11T11:33:53Z</time>
      </trkpt>
      <trkpt lat="43.48383" lon="-1.1455">
        <ele>52.8</ele>
        <time>2022-09-11T11:33:55Z</time>
      </trkpt>
      <trkpt lat="43.4839" lon="-1.14561">
        <ele>52</ele>
        <time>2022-09-11T11:33:56Z</time>
      </trkpt>
      <trkpt lat="43.48397" lon="-1.14572">
        <ele>51</ele>
        <time>2022-09-11T11:33:57Z</time>
      </trkpt>
      <trkpt lat="43.48405" lon="-1.14584">
        <ele>49.8</ele>
        <time>2022-09-11T11:33:58Z</time>
      </trkpt>
      <trkpt lat="43.48412" lon="-1.14596">
        <ele>48.8</ele>
        <time>2022-09-11T11:33:59Z</time>
      </trkpt>
      <trkpt lat="43.48421" lon="-1.14607">
        <ele>47.6</ele>
        <time>2022-09-11T11:34:00Z</time>
      </trkpt>
      <trkpt lat="43.48442" lon="-1.14624">
        <ele>46.2</ele>
        <time>2022-09-11T11:34:02Z</time>
      </trkpt>
      <trkpt lat="43.48452" lon="-1.14631">
        <ele>45.6</ele>
        <time>2022-09-11T11:34:03Z</time>
      </trkpt>
      <trkpt lat="43.48463" lon="-1.14637">
        <ele>44.6</ele>
        <time>2022-09-11T11:34:04Z</time>
      </trkpt>
      <trkpt lat="43.48475" lon="-1.14642">
        <ele>43.6</ele>
        <time>2022-09-11T11:34:05Z</time>
      </trkpt>
      <trkpt lat="43.48497" lon="-1.14648">
        <ele>42.6</ele>
        <time>2022-09-11T11:34:07Z</time>
      </trkpt>
      <trkpt lat="43.48507" lon="-1.14654">
        <ele>42.4</ele>
        <time>2022-09-11T11:34:08Z</time>
      </trkpt>
      <trkpt lat="43.48516" lon="-1.1466">
        <ele>41</ele>
        <time>2022-09-11T11:34:09Z</time>
      </trkpt>
      <trkpt lat="43.48524" lon="-1.14667">
        <ele>40.2</ele>
        <time>2022-09-11T11:34:10Z</time>
      </trkpt>
      <trkpt lat="43.48532" lon="-1.14674">
        <ele>39.4</ele>
        <time>2022-09-11T11:34:11Z</time>
      </trkpt>
      <trkpt lat="43.48545" lon="-1.14686">
        <ele>37.8</ele>
        <time>2022-09-11T11:34:13Z</time>
      </trkpt>
      <trkpt lat="43.48551" lon="-1.14692">
        <ele>37</ele>
        <time>2022-09-11T11:34:14Z</time>
      </trkpt>
      <trkpt lat="43.48557" lon="-1.14698">
        <ele>36.6</ele>
        <time>2022-09-11T11:34:15Z</time>
      </trkpt>
      <trkpt lat="43.48572" lon="-1.14711">
        <ele>34.8</ele>
        <time>2022-09-11T11:34:17Z</time>
      </trkpt>
      <trkpt lat="43.48586" lon="-1.14721">
        <ele>32.8</ele>
        <time>2022-09-11T11:34:19Z</time>
      </trkpt>
      <trkpt lat="43.48594" lon="-1.14724">
        <ele>32</ele>
        <time>2022-09-11T11:34:20Z</time>
      </trkpt>
      <trkpt lat="43.48602" lon="-1.14724">
        <ele>31</ele>
        <time>2022-09-11T11:34:21Z</time>
      </trkpt>
      <trkpt lat="43.4861" lon="-1.14722">
        <ele>30.6</ele>
        <time>2022-09-11T11:34:22Z</time>
      </trkpt>
      <trkpt lat="43.48618" lon="-1.14719">
        <ele>30</ele>
        <time>2022-09-11T11:34:23Z</time>
      </trkpt>
      <trkpt lat="43.48639" lon="-1.14708">
        <ele>29</ele>
        <time>2022-09-11T11:34:26Z</time>
      </trkpt>
      <trkpt lat="43.48646" lon="-1.14704">
        <ele>29</ele>
        <time>2022-09-11T11:34:27Z</time>
      </trkpt>
      <trkpt lat="43.4868" lon="-1.14683">
        <ele>27.8</ele>
        <time>2022-09-11T11:34:32Z</time>
      </trkpt>
      <trkpt lat="43.48686" lon="-1.14678">
        <ele>27.8</ele>
        <time>2022-09-11T11:34:33Z</time>
      </trkpt>
      <trkpt lat="43.48696" lon="-1.14668">
        <ele>27.2</ele>
        <time>2022-09-11T11:34:35Z</time>
      </trkpt>
      <trkpt lat="43.487" lon="-1.14663">
        <ele>26.6</ele>
        <time>2022-09-11T11:34:36Z</time>
      </trkpt>
      <trkpt lat="43.48704" lon="-1.14659">
        <ele>26.4</ele>
        <time>2022-09-11T11:34:37Z</time>
      </trkpt>
      <trkpt lat="43.48714" lon="-1.14646">
        <ele>25.6</ele>
        <time>2022-09-11T11:34:41Z</time>
      </trkpt>
      <trkpt lat="43.48719" lon="-1.14641">
        <ele>25.6</ele>
        <time>2022-09-11T11:34:44Z</time>
      </trkpt>
      <trkpt lat="43.48721" lon="-1.14642">
        <ele>25.4</ele>
        <time>2022-09-11T11:34:45Z</time>
      </trkpt>
      <trkpt lat="43.48723" lon="-1.14644">
        <ele>25.2</ele>
        <time>2022-09-11T11:34:46Z</time>
      </trkpt>
      <trkpt lat="43.48727" lon="-1.1465">
        <ele>25</ele>
        <time>2022-09-11T11:34:49Z</time>
      </trkpt>
      <trkpt lat="43.48729" lon="-1.14658">
        <ele>24.8</ele>
        <time>2022-09-11T11:34:53Z</time>
      </trkpt>
      <trkpt lat="43.48733" lon="-1.14674">
        <ele>25.8</ele>
        <time>2022-09-11T11:35:01Z</time>
      </trkpt>
      <trkpt lat="43.48735" lon="-1.14679">
        <ele>26.8</ele>
        <time>2022-09-11T11:35:05Z</time>
      </trkpt>
      <trkpt lat="43.48737" lon="-1.14686">
        <ele>27.2</ele>
        <time>2022-09-11T11:35:09Z</time>
      </trkpt>
      <trkpt lat="43.48742" lon="-1.147">
        <ele>27</ele>
        <time>2022-09-11T11:35:16Z</time>
      </trkpt>
      <trkpt lat="43.48749" lon="-1.14718">
        <ele>27.2</ele>
        <time>2022-09-11T11:35:23Z</time>
      </trkpt>
      <trkpt lat="43.48759" lon="-1.14739">
        <ele>27.2</ele>
        <time>2022-09-11T11:35:29Z</time>
      </trkpt>
      <trkpt lat="43.48775" lon="-1.14771">
        <ele>27.2</ele>
        <time>2022-09-11T11:35:36Z</time>
      </trkpt>
      <trkpt lat="43.48797" lon="-1.14805">
        <ele>27.4</ele>
        <time>2022-09-11T11:35:43Z</time>
      </trkpt>
      <trkpt lat="43.48825" lon="-1.14836">
        <ele>27.6</ele>
        <time>2022-09-11T11:35:50Z</time>
      </trkpt>
      <trkpt lat="43.48862" lon="-1.14864">
        <ele>27.8</ele>
        <time>2022-09-11T11:35:58Z</time>
      </trkpt>
      <trkpt lat="43.48898" lon="-1.14884">
        <ele>27.4</ele>
        <time>2022-09-11T11:36:05Z</time>
      </trkpt>
      <trkpt lat="43.48945" lon="-1.14906">
        <ele>27.8</ele>
        <time>2022-09-11T11:36:14Z</time>
      </trkpt>
      <trkpt lat="43.48993" lon="-1.14919">
        <ele>27.2</ele>
        <time>2022-09-11T11:36:23Z</time>
      </trkpt>
      <trkpt lat="43.49034" lon="-1.14925">
        <ele>27.6</ele>
        <time>2022-09-11T11:36:31Z</time>
      </trkpt>
      <trkpt lat="43.49083" lon="-1.14925">
        <ele>27.4</ele>
        <time>2022-09-11T11:36:40Z</time>
      </trkpt>
      <trkpt lat="43.49133" lon="-1.14923">
        <ele>27.6</ele>
        <time>2022-09-11T11:36:49Z</time>
      </trkpt>
      <trkpt lat="43.49189" lon="-1.14924">
        <ele>27.8</ele>
        <time>2022-09-11T11:36:59Z</time>
      </trkpt>
      <trkpt lat="43.49244" lon="-1.14929">
        <ele>27.8</ele>
        <time>2022-09-11T11:37:09Z</time>
      </trkpt>
      <trkpt lat="43.49287" lon="-1.14932">
        <ele>27.8</ele>
        <time>2022-09-11T11:37:17Z</time>
      </trkpt>
      <trkpt lat="43.49329" lon="-1.14937">
        <ele>27.6</ele>
        <time>2022-09-11T11:37:25Z</time>
      </trkpt>
      <trkpt lat="43.49371" lon="-1.14943">
        <ele>28</ele>
        <time>2022-09-11T11:37:33Z</time>
      </trkpt>
      <trkpt lat="43.49417" lon="-1.14956">
        <ele>27.4</ele>
        <time>2022-09-11T11:37:42Z</time>
      </trkpt>
      <trkpt lat="43.49463" lon="-1.14975">
        <ele>27.4</ele>
        <time>2022-09-11T11:37:51Z</time>
      </trkpt>
      <trkpt lat="43.49498" lon="-1.14994">
        <ele>27.8</ele>
        <time>2022-09-11T11:37:58Z</time>
      </trkpt>
      <trkpt lat="43.49531" lon="-1.15022">
        <ele>27.6</ele>
        <time>2022-09-11T11:38:05Z</time>
      </trkpt>
      <trkpt lat="43.49563" lon="-1.15063">
        <ele>27.6</ele>
        <time>2022-09-11T11:38:13Z</time>
      </trkpt>
      <trkpt lat="43.49592" lon="-1.15108">
        <ele>27.6</ele>
        <time>2022-09-11T11:38:21Z</time>
      </trkpt>
      <trkpt lat="43.49618" lon="-1.15165">
        <ele>27.6</ele>
        <time>2022-09-11T11:38:30Z</time>
      </trkpt>
      <trkpt lat="43.4964" lon="-1.15225">
        <ele>27.6</ele>
        <time>2022-09-11T11:38:39Z</time>
      </trkpt>
      <trkpt lat="43.49655" lon="-1.15282">
        <ele>27.6</ele>
        <time>2022-09-11T11:38:47Z</time>
      </trkpt>
      <trkpt lat="43.49667" lon="-1.1535">
        <ele>27.2</ele>
        <time>2022-09-11T11:38:56Z</time>
      </trkpt>
      <trkpt lat="43.49674" lon="-1.15395">
        <ele>27.2</ele>
        <time>2022-09-11T11:39:02Z</time>
      </trkpt>
      <trkpt lat="43.49679" lon="-1.15458">
        <ele>27.2</ele>
        <time>2022-09-11T11:39:10Z</time>
      </trkpt>
      <trkpt lat="43.49679" lon="-1.15512">
        <ele>27.2</ele>
        <time>2022-09-11T11:39:17Z</time>
      </trkpt>
      <trkpt lat="43.49672" lon="-1.15562">
        <ele>27.6</ele>
        <time>2022-09-11T11:39:24Z</time>
      </trkpt>
      <trkpt lat="43.49659" lon="-1.15611">
        <ele>27.6</ele>
        <time>2022-09-11T11:39:31Z</time>
      </trkpt>
      <trkpt lat="43.49644" lon="-1.15652">
        <ele>27.8</ele>
        <time>2022-09-11T11:39:37Z</time>
      </trkpt>
      <trkpt lat="43.49619" lon="-1.15703">
        <ele>28</ele>
        <time>2022-09-11T11:39:45Z</time>
      </trkpt>
      <trkpt lat="43.4959" lon="-1.1575">
        <ele>27.8</ele>
        <time>2022-09-11T11:39:53Z</time>
      </trkpt>
      <trkpt lat="43.49561" lon="-1.1579">
        <ele>27.6</ele>
        <time>2022-09-11T11:40:00Z</time>
      </trkpt>
      <trkpt lat="43.49524" lon="-1.1584">
        <ele>27.8</ele>
        <time>2022-09-11T11:40:09Z</time>
      </trkpt>
      <trkpt lat="43.49496" lon="-1.15875">
        <ele>27.8</ele>
        <time>2022-09-11T11:40:16Z</time>
      </trkpt>
      <trkpt lat="43.49461" lon="-1.15913">
        <ele>27.6</ele>
        <time>2022-09-11T11:40:24Z</time>
      </trkpt>
      <trkpt lat="43.49427" lon="-1.1595">
        <ele>28</ele>
        <time>2022-09-11T11:40:32Z</time>
      </trkpt>
      <trkpt lat="43.49417" lon="-1.15959">
        <ele>27.8</ele>
        <time>2022-09-11T11:40:34Z</time>
      </trkpt>
      <trkpt lat="43.49395" lon="-1.15982">
        <ele>28</ele>
        <time>2022-09-11T11:40:39Z</time>
      </trkpt>
      <trkpt lat="43.49355" lon="-1.16022">
        <ele>27.8</ele>
        <time>2022-09-11T11:40:48Z</time>
      </trkpt>
      <trkpt lat="43.49318" lon="-1.16059">
        <ele>27.8</ele>
        <time>2022-09-11T11:40:56Z</time>
      </trkpt>
      <trkpt lat="43.49289" lon="-1.16083">
        <ele>28</ele>
        <time>2022-09-11T11:41:02Z</time>
      </trkpt>
      <trkpt lat="43.49271" lon="-1.16099">
        <ele>28</ele>
        <time>2022-09-11T11:41:06Z</time>
      </trkpt>
      <trkpt lat="43.49262" lon="-1.16108">
        <ele>27.8</ele>
        <time>2022-09-11T11:41:08Z</time>
      </trkpt>
      <trkpt lat="43.49237" lon="-1.16134">
        <ele>28</ele>
        <time>2022-09-11T11:41:14Z</time>
      </trkpt>
      <trkpt lat="43.49227" lon="-1.16143">
        <ele>28</ele>
        <time>2022-09-11T11:41:16Z</time>
      </trkpt>
      <trkpt lat="43.49183" lon="-1.16185">
        <ele>27.8</ele>
        <time>2022-09-11T11:41:26Z</time>
      </trkpt>
      <trkpt lat="43.49151" lon="-1.16222">
        <ele>27.8</ele>
        <time>2022-09-11T11:41:34Z</time>
      </trkpt>
      <trkpt lat="43.49125" lon="-1.16265">
        <ele>27.8</ele>
        <time>2022-09-11T11:41:42Z</time>
      </trkpt>
      <trkpt lat="43.49123" lon="-1.16271">
        <ele>27.6</ele>
        <time>2022-09-11T11:41:43Z</time>
      </trkpt>
      <trkpt lat="43.49111" lon="-1.16299">
        <ele>27.6</ele>
        <time>2022-09-11T11:41:48Z</time>
      </trkpt>
      <trkpt lat="43.49093" lon="-1.1633">
        <ele>27.8</ele>
        <time>2022-09-11T11:41:55Z</time>
      </trkpt>
      <trkpt lat="43.49076" lon="-1.1637">
        <ele>27.6</ele>
        <time>2022-09-11T11:42:02Z</time>
      </trkpt>
      <trkpt lat="43.49068" lon="-1.1641">
        <ele>27.8</ele>
        <time>2022-09-11T11:42:08Z</time>
      </trkpt>
      <trkpt lat="43.49064" lon="-1.16461">
        <ele>28.2</ele>
        <time>2022-09-11T11:42:15Z</time>
      </trkpt>
      <trkpt lat="43.49058" lon="-1.16521">
        <ele>28</ele>
        <time>2022-09-11T11:42:23Z</time>
      </trkpt>
      <trkpt lat="43.49064" lon="-1.16575">
        <ele>28</ele>
        <time>2022-09-11T11:42:30Z</time>
      </trkpt>
      <trkpt lat="43.49076" lon="-1.16628">
        <ele>28.2</ele>
        <time>2022-09-11T11:42:37Z</time>
      </trkpt>
      <trkpt lat="43.49095" lon="-1.1668">
        <ele>27.6</ele>
        <time>2022-09-11T11:42:45Z</time>
      </trkpt>
      <trkpt lat="43.49107" lon="-1.16725">
        <ele>27.6</ele>
        <time>2022-09-11T11:42:52Z</time>
      </trkpt>
      <trkpt lat="43.49124" lon="-1.16766">
        <ele>27.6</ele>
        <time>2022-09-11T11:42:58Z</time>
      </trkpt>
      <trkpt lat="43.49161" lon="-1.16828">
        <ele>27.8</ele>
        <time>2022-09-11T11:43:08Z</time>
      </trkpt>
      <trkpt lat="43.49186" lon="-1.16869">
        <ele>28</ele>
        <time>2022-09-11T11:43:15Z</time>
      </trkpt>
      <trkpt lat="43.49223" lon="-1.16927">
        <ele>28.4</ele>
        <time>2022-09-11T11:43:25Z</time>
      </trkpt>
      <trkpt lat="43.49259" lon="-1.16974">
        <ele>28.4</ele>
        <time>2022-09-11T11:43:34Z</time>
      </trkpt>
      <trkpt lat="43.49301" lon="-1.17019">
        <ele>28.2</ele>
        <time>2022-09-11T11:43:43Z</time>
      </trkpt>
      <trkpt lat="43.49339" lon="-1.17053">
        <ele>28.4</ele>
        <time>2022-09-11T11:43:51Z</time>
      </trkpt>
      <trkpt lat="43.49368" lon="-1.17071">
        <ele>28</ele>
        <time>2022-09-11T11:43:57Z</time>
      </trkpt>
      <trkpt lat="43.49406" lon="-1.17091">
        <ele>28</ele>
        <time>2022-09-11T11:44:05Z</time>
      </trkpt>
      <trkpt lat="43.49437" lon="-1.17098">
        <ele>28</ele>
        <time>2022-09-11T11:44:11Z</time>
      </trkpt>
      <trkpt lat="43.49475" lon="-1.17101">
        <ele>28.6</ele>
        <time>2022-09-11T11:44:18Z</time>
      </trkpt>
      <trkpt lat="43.49512" lon="-1.17095">
        <ele>28</ele>
        <time>2022-09-11T11:44:25Z</time>
      </trkpt>
      <trkpt lat="43.49551" lon="-1.17082">
        <ele>28.4</ele>
        <time>2022-09-11T11:44:32Z</time>
      </trkpt>
      <trkpt lat="43.4959" lon="-1.1707">
        <ele>28.6</ele>
        <time>2022-09-11T11:44:39Z</time>
      </trkpt>
      <trkpt lat="43.49628" lon="-1.17055">
        <ele>28.6</ele>
        <time>2022-09-11T11:44:46Z</time>
      </trkpt>
      <trkpt lat="43.49676" lon="-1.17037">
        <ele>28</ele>
        <time>2022-09-11T11:44:55Z</time>
      </trkpt>
      <trkpt lat="43.49701" lon="-1.17026">
        <ele>27.6</ele>
        <time>2022-09-11T11:45:00Z</time>
      </trkpt>
      <trkpt lat="43.49711" lon="-1.17022">
        <ele>27.6</ele>
        <time>2022-09-11T11:45:02Z</time>
      </trkpt>
      <trkpt lat="43.49745" lon="-1.17006">
        <ele>27.8</ele>
        <time>2022-09-11T11:45:09Z</time>
      </trkpt>
      <trkpt lat="43.4978" lon="-1.1699">
        <ele>27.8</ele>
        <time>2022-09-11T11:45:17Z</time>
      </trkpt>
      <trkpt lat="43.49807" lon="-1.16976">
        <ele>28</ele>
        <time>2022-09-11T11:45:23Z</time>
      </trkpt>
      <trkpt lat="43.49846" lon="-1.16956">
        <ele>28.6</ele>
        <time>2022-09-11T11:45:31Z</time>
      </trkpt>
      <trkpt lat="43.49879" lon="-1.16938">
        <ele>28.2</ele>
        <time>2022-09-11T11:45:38Z</time>
      </trkpt>
      <trkpt lat="43.49915" lon="-1.16922">
        <ele>28.4</ele>
        <time>2022-09-11T11:45:45Z</time>
      </trkpt>
      <trkpt lat="43.49919" lon="-1.1692">
        <ele>28.6</ele>
        <time>2022-09-11T11:45:46Z</time>
      </trkpt>
      <trkpt lat="43.4995" lon="-1.16908">
        <ele>28</ele>
        <time>2022-09-11T11:45:53Z</time>
      </trkpt>
      <trkpt lat="43.49984" lon="-1.16894">
        <ele>28.4</ele>
        <time>2022-09-11T11:46:00Z</time>
      </trkpt>
      <trkpt lat="43.50031" lon="-1.16877">
        <ele>28.6</ele>
        <time>2022-09-11T11:46:09Z</time>
      </trkpt>
      <trkpt lat="43.50075" lon="-1.16871">
        <ele>28.6</ele>
        <time>2022-09-11T11:46:17Z</time>
      </trkpt>
      <trkpt lat="43.50119" lon="-1.16876">
        <ele>28.6</ele>
        <time>2022-09-11T11:46:25Z</time>
      </trkpt>
      <trkpt lat="43.50152" lon="-1.16894">
        <ele>28.2</ele>
        <time>2022-09-11T11:46:31Z</time>
      </trkpt>
      <trkpt lat="43.50183" lon="-1.16922">
        <ele>28.4</ele>
        <time>2022-09-11T11:46:37Z</time>
      </trkpt>
      <trkpt lat="43.50226" lon="-1.16972">
        <ele>28.6</ele>
        <time>2022-09-11T11:46:46Z</time>
      </trkpt>
      <trkpt lat="43.5023" lon="-1.16977">
        <ele>28.8</ele>
        <time>2022-09-11T11:46:47Z</time>
      </trkpt>
      <trkpt lat="43.50248" lon="-1.17">
        <ele>28.8</ele>
        <time>2022-09-11T11:46:51Z</time>
      </trkpt>
      <trkpt lat="43.50271" lon="-1.17029">
        <ele>28.4</ele>
        <time>2022-09-11T11:46:56Z</time>
      </trkpt>
      <trkpt lat="43.50313" lon="-1.17081">
        <ele>28.4</ele>
        <time>2022-09-11T11:47:05Z</time>
      </trkpt>
      <trkpt lat="43.50322" lon="-1.17093">
        <ele>28.2</ele>
        <time>2022-09-11T11:47:07Z</time>
      </trkpt>
      <trkpt lat="43.50364" lon="-1.1714">
        <ele>28.2</ele>
        <time>2022-09-11T11:47:16Z</time>
      </trkpt>
      <trkpt lat="43.50409" lon="-1.17178">
        <ele>28.6</ele>
        <time>2022-09-11T11:47:25Z</time>
      </trkpt>
      <trkpt lat="43.50451" lon="-1.17205">
        <ele>29</ele>
        <time>2022-09-11T11:47:33Z</time>
      </trkpt>
      <trkpt lat="43.50482" lon="-1.17214">
        <ele>28.4</ele>
        <time>2022-09-11T11:47:39Z</time>
      </trkpt>
      <trkpt lat="43.50522" lon="-1.17215">
        <ele>28.4</ele>
        <time>2022-09-11T11:47:47Z</time>
      </trkpt>
      <trkpt lat="43.50545" lon="-1.17203">
        <ele>28.4</ele>
        <time>2022-09-11T11:47:53Z</time>
      </trkpt>
      <trkpt lat="43.50564" lon="-1.17192">
        <ele>28.6</ele>
        <time>2022-09-11T11:47:58Z</time>
      </trkpt>
      <trkpt lat="43.50572" lon="-1.17193">
        <ele>28.6</ele>
        <time>2022-09-11T11:48:00Z</time>
      </trkpt>
      <trkpt lat="43.50578" lon="-1.17194">
        <ele>28.8</ele>
        <time>2022-09-11T11:48:02Z</time>
      </trkpt>
      <trkpt lat="43.50589" lon="-1.17189">
        <ele>29.4</ele>
        <time>2022-09-11T11:48:06Z</time>
      </trkpt>
      <trkpt lat="43.50603" lon="-1.17169">
        <ele>28.8</ele>
        <time>2022-09-11T11:48:12Z</time>
      </trkpt>
      <trkpt lat="43.5062" lon="-1.17135">
        <ele>28.2</ele>
        <time>2022-09-11T11:48:18Z</time>
      </trkpt>
      <trkpt lat="43.50624" lon="-1.17124">
        <ele>28.2</ele>
        <time>2022-09-11T11:48:20Z</time>
      </trkpt>
      <trkpt lat="43.50629" lon="-1.17105">
        <ele>28.4</ele>
        <time>2022-09-11T11:48:23Z</time>
      </trkpt>
      <trkpt lat="43.50639" lon="-1.17065">
        <ele>27.8</ele>
        <time>2022-09-11T11:48:29Z</time>
      </trkpt>
      <trkpt lat="43.50651" lon="-1.17019">
        <ele>28</ele>
        <time>2022-09-11T11:48:36Z</time>
      </trkpt>
      <trkpt lat="43.50668" lon="-1.16953">
        <ele>28.8</ele>
        <time>2022-09-11T11:48:46Z</time>
      </trkpt>
      <trkpt lat="43.50681" lon="-1.169">
        <ele>28.8</ele>
        <time>2022-09-11T11:48:54Z</time>
      </trkpt>
      <trkpt lat="43.50693" lon="-1.16851">
        <ele>28.8</ele>
        <time>2022-09-11T11:49:01Z</time>
      </trkpt>
      <trkpt lat="43.50703" lon="-1.16811">
        <ele>28.8</ele>
        <time>2022-09-11T11:49:07Z</time>
      </trkpt>
      <trkpt lat="43.50718" lon="-1.16768">
        <ele>28.8</ele>
        <time>2022-09-11T11:49:14Z</time>
      </trkpt>
      <trkpt lat="43.5074" lon="-1.16709">
        <ele>29.6</ele>
        <time>2022-09-11T11:49:23Z</time>
      </trkpt>
      <trkpt lat="43.50742" lon="-1.16702">
        <ele>29.8</ele>
        <time>2022-09-11T11:49:24Z</time>
      </trkpt>
      <trkpt lat="43.50762" lon="-1.16651">
        <ele>28.8</ele>
        <time>2022-09-11T11:49:32Z</time>
      </trkpt>
      <trkpt lat="43.5079" lon="-1.16597">
        <ele>29.8</ele>
        <time>2022-09-11T11:49:41Z</time>
      </trkpt>
      <trkpt lat="43.50808" lon="-1.1657">
        <ele>30</ele>
        <time>2022-09-11T11:49:46Z</time>
      </trkpt>
      <trkpt lat="43.50824" lon="-1.16552">
        <ele>29.8</ele>
        <time>2022-09-11T11:49:50Z</time>
      </trkpt>
      <trkpt lat="43.50866" lon="-1.1651">
        <ele>29</ele>
        <time>2022-09-11T11:50:00Z</time>
      </trkpt>
      <trkpt lat="43.50904" lon="-1.16482">
        <ele>28.8</ele>
        <time>2022-09-11T11:50:08Z</time>
      </trkpt>
      <trkpt lat="43.50954" lon="-1.16455">
        <ele>29</ele>
        <time>2022-09-11T11:50:18Z</time>
      </trkpt>
      <trkpt lat="43.50959" lon="-1.16452">
        <ele>29.2</ele>
        <time>2022-09-11T11:50:19Z</time>
      </trkpt>
      <trkpt lat="43.51005" lon="-1.16429">
        <ele>28.8</ele>
        <time>2022-09-11T11:50:28Z</time>
      </trkpt>
      <trkpt lat="43.51051" lon="-1.16411">
        <ele>28.8</ele>
        <time>2022-09-11T11:50:37Z</time>
      </trkpt>
      <trkpt lat="43.51099" lon="-1.16401">
        <ele>29</ele>
        <time>2022-09-11T11:50:46Z</time>
      </trkpt>
      <trkpt lat="43.51142" lon="-1.16399">
        <ele>28.8</ele>
        <time>2022-09-11T11:50:54Z</time>
      </trkpt>
      <trkpt lat="43.51183" lon="-1.16405">
        <ele>28.8</ele>
        <time>2022-09-11T11:51:01Z</time>
      </trkpt>
      <trkpt lat="43.51222" lon="-1.16421">
        <ele>28.6</ele>
        <time>2022-09-11T11:51:08Z</time>
      </trkpt>
      <trkpt lat="43.51253" lon="-1.16448">
        <ele>28.8</ele>
        <time>2022-09-11T11:51:14Z</time>
      </trkpt>
      <trkpt lat="43.51257" lon="-1.16453">
        <ele>29</ele>
        <time>2022-09-11T11:51:15Z</time>
      </trkpt>
      <trkpt lat="43.51292" lon="-1.16507">
        <ele>28.6</ele>
        <time>2022-09-11T11:51:24Z</time>
      </trkpt>
      <trkpt lat="43.51317" lon="-1.16553">
        <ele>28.6</ele>
        <time>2022-09-11T11:51:31Z</time>
      </trkpt>
      <trkpt lat="43.51342" lon="-1.16613">
        <ele>28.8</ele>
        <time>2022-09-11T11:51:39Z</time>
      </trkpt>
      <trkpt lat="43.51366" lon="-1.16673">
        <ele>28.8</ele>
        <time>2022-09-11T11:51:47Z</time>
      </trkpt>
      <trkpt lat="43.51387" lon="-1.16735">
        <ele>28.8</ele>
        <time>2022-09-11T11:51:55Z</time>
      </trkpt>
      <trkpt lat="43.51406" lon="-1.16797">
        <ele>28.8</ele>
        <time>2022-09-11T11:52:03Z</time>
      </trkpt>
      <trkpt lat="43.51428" lon="-1.16867">
        <ele>29</ele>
        <time>2022-09-11T11:52:12Z</time>
      </trkpt>
      <trkpt lat="43.51432" lon="-1.16882">
        <ele>29</ele>
        <time>2022-09-11T11:52:14Z</time>
      </trkpt>
      <trkpt lat="43.5145" lon="-1.16935">
        <ele>29</ele>
        <time>2022-09-11T11:52:21Z</time>
      </trkpt>
      <trkpt lat="43.51469" lon="-1.16984">
        <ele>29.4</ele>
        <time>2022-09-11T11:52:28Z</time>
      </trkpt>
      <trkpt lat="43.51494" lon="-1.17043">
        <ele>29.4</ele>
        <time>2022-09-11T11:52:36Z</time>
      </trkpt>
      <trkpt lat="43.51512" lon="-1.17083">
        <ele>29.4</ele>
        <time>2022-09-11T11:52:42Z</time>
      </trkpt>
      <trkpt lat="43.51521" lon="-1.17101">
        <ele>29.2</ele>
        <time>2022-09-11T11:52:45Z</time>
      </trkpt>
      <trkpt lat="43.51528" lon="-1.17111">
        <ele>29</ele>
        <time>2022-09-11T11:52:47Z</time>
      </trkpt>
      <trkpt lat="43.51535" lon="-1.17121">
        <ele>29</ele>
        <time>2022-09-11T11:52:49Z</time>
      </trkpt>
      <trkpt lat="43.51548" lon="-1.17145">
        <ele>28.8</ele>
        <time>2022-09-11T11:52:54Z</time>
      </trkpt>
      <trkpt lat="43.51571" lon="-1.17179">
        <ele>29.4</ele>
        <time>2022-09-11T11:53:01Z</time>
      </trkpt>
      <trkpt lat="43.51587" lon="-1.17201">
        <ele>29.2</ele>
        <time>2022-09-11T11:53:06Z</time>
      </trkpt>
      <trkpt lat="43.51593" lon="-1.1721">
        <ele>29.2</ele>
        <time>2022-09-11T11:53:08Z</time>
      </trkpt>
      <trkpt lat="43.5161" lon="-1.17231">
        <ele>29</ele>
        <time>2022-09-11T11:53:13Z</time>
      </trkpt>
      <trkpt lat="43.51618" lon="-1.17244">
        <ele>29.2</ele>
        <time>2022-09-11T11:53:16Z</time>
      </trkpt>
      <trkpt lat="43.51643" lon="-1.17278">
        <ele>28.8</ele>
        <time>2022-09-11T11:53:23Z</time>
      </trkpt>
      <trkpt lat="43.51667" lon="-1.17313">
        <ele>29.2</ele>
        <time>2022-09-11T11:53:30Z</time>
      </trkpt>
      <trkpt lat="43.51694" lon="-1.1735">
        <ele>28.8</ele>
        <time>2022-09-11T11:53:37Z</time>
      </trkpt>
      <trkpt lat="43.5171" lon="-1.17372">
        <ele>29</ele>
        <time>2022-09-11T11:53:41Z</time>
      </trkpt>
      <trkpt lat="43.51718" lon="-1.17382">
        <ele>28.8</ele>
        <time>2022-09-11T11:53:43Z</time>
      </trkpt>
      <trkpt lat="43.51733" lon="-1.17405">
        <ele>29.2</ele>
        <time>2022-09-11T11:53:47Z</time>
      </trkpt>
      <trkpt lat="43.5174" lon="-1.17417">
        <ele>29</ele>
        <time>2022-09-11T11:53:49Z</time>
      </trkpt>
      <trkpt lat="43.51759" lon="-1.17449">
        <ele>28.8</ele>
        <time>2022-09-11T11:53:55Z</time>
      </trkpt>
      <trkpt lat="43.51775" lon="-1.17478">
        <ele>28.8</ele>
        <time>2022-09-11T11:54:00Z</time>
      </trkpt>
      <trkpt lat="43.51782" lon="-1.1749">
        <ele>28.8</ele>
        <time>2022-09-11T11:54:02Z</time>
      </trkpt>
      <trkpt lat="43.51799" lon="-1.17529">
        <ele>29</ele>
        <time>2022-09-11T11:54:08Z</time>
      </trkpt>
      <trkpt lat="43.51814" lon="-1.17568">
        <ele>28.8</ele>
        <time>2022-09-11T11:54:14Z</time>
      </trkpt>
      <trkpt lat="43.51819" lon="-1.1758">
        <ele>28.8</ele>
        <time>2022-09-11T11:54:16Z</time>
      </trkpt>
      <trkpt lat="43.5183" lon="-1.17613">
        <ele>29</ele>
        <time>2022-09-11T11:54:21Z</time>
      </trkpt>
      <trkpt lat="43.51844" lon="-1.17653">
        <ele>29.2</ele>
        <time>2022-09-11T11:54:27Z</time>
      </trkpt>
      <trkpt lat="43.5185" lon="-1.17673">
        <ele>29.2</ele>
        <time>2022-09-11T11:54:30Z</time>
      </trkpt>
      <trkpt lat="43.51871" lon="-1.17738">
        <ele>29.6</ele>
        <time>2022-09-11T11:54:39Z</time>
      </trkpt>
      <trkpt lat="43.51891" lon="-1.17802">
        <ele>29.4</ele>
        <time>2022-09-11T11:54:48Z</time>
      </trkpt>
      <trkpt lat="43.51906" lon="-1.1785">
        <ele>29.2</ele>
        <time>2022-09-11T11:54:55Z</time>
      </trkpt>
      <trkpt lat="43.51924" lon="-1.17892">
        <ele>29</ele>
        <time>2022-09-11T11:55:02Z</time>
      </trkpt>
      <trkpt lat="43.51927" lon="-1.17898">
        <ele>29</ele>
        <time>2022-09-11T11:55:03Z</time>
      </trkpt>
      <trkpt lat="43.5194" lon="-1.17928">
        <ele>29</ele>
        <time>2022-09-11T11:55:08Z</time>
      </trkpt>
      <trkpt lat="43.51966" lon="-1.17987">
        <ele>29.2</ele>
        <time>2022-09-11T11:55:17Z</time>
      </trkpt>
      <trkpt lat="43.5199" lon="-1.18031">
        <ele>29.2</ele>
        <time>2022-09-11T11:55:24Z</time>
      </trkpt>
      <trkpt lat="43.52015" lon="-1.18072">
        <ele>29.2</ele>
        <time>2022-09-11T11:55:31Z</time>
      </trkpt>
      <trkpt lat="43.52049" lon="-1.18121">
        <ele>29.4</ele>
        <time>2022-09-11T11:55:40Z</time>
      </trkpt>
      <trkpt lat="43.52072" lon="-1.18147">
        <ele>29.2</ele>
        <time>2022-09-11T11:55:46Z</time>
      </trkpt>
      <trkpt lat="43.52095" lon="-1.18169">
        <ele>28.8</ele>
        <time>2022-09-11T11:55:52Z</time>
      </trkpt>
      <trkpt lat="43.521" lon="-1.18173">
        <ele>28.8</ele>
        <time>2022-09-11T11:55:53Z</time>
      </trkpt>
      <trkpt lat="43.52126" lon="-1.18196">
        <ele>29.2</ele>
        <time>2022-09-11T11:55:59Z</time>
      </trkpt>
      <trkpt lat="43.52148" lon="-1.18214">
        <ele>29.2</ele>
        <time>2022-09-11T11:56:04Z</time>
      </trkpt>
      <trkpt lat="43.52157" lon="-1.18219">
        <ele>29.2</ele>
        <time>2022-09-11T11:56:06Z</time>
      </trkpt>
      <trkpt lat="43.5219" lon="-1.18239">
        <ele>29.4</ele>
        <time>2022-09-11T11:56:13Z</time>
      </trkpt>
      <trkpt lat="43.52237" lon="-1.18264">
        <ele>29.2</ele>
        <time>2022-09-11T11:56:22Z</time>
      </trkpt>
      <trkpt lat="43.52291" lon="-1.18289">
        <ele>29.2</ele>
        <time>2022-09-11T11:56:32Z</time>
      </trkpt>
      <trkpt lat="43.52344" lon="-1.18315">
        <ele>29</ele>
        <time>2022-09-11T11:56:42Z</time>
      </trkpt>
      <trkpt lat="43.52391" lon="-1.18339">
        <ele>29</ele>
        <time>2022-09-11T11:56:51Z</time>
      </trkpt>
      <trkpt lat="43.52431" lon="-1.18362">
        <ele>28.8</ele>
        <time>2022-09-11T11:56:59Z</time>
      </trkpt>
      <trkpt lat="43.52464" lon="-1.18386">
        <ele>28.8</ele>
        <time>2022-09-11T11:57:06Z</time>
      </trkpt>
      <trkpt lat="43.52507" lon="-1.18424">
        <ele>29</ele>
        <time>2022-09-11T11:57:15Z</time>
      </trkpt>
      <trkpt lat="43.52538" lon="-1.18459">
        <ele>28.8</ele>
        <time>2022-09-11T11:57:22Z</time>
      </trkpt>
      <trkpt lat="43.52561" lon="-1.18498">
        <ele>28.8</ele>
        <time>2022-09-11T11:57:29Z</time>
      </trkpt>
      <trkpt lat="43.52581" lon="-1.18553">
        <ele>29</ele>
        <time>2022-09-11T11:57:37Z</time>
      </trkpt>
      <trkpt lat="43.52596" lon="-1.18626">
        <ele>29</ele>
        <time>2022-09-11T11:57:47Z</time>
      </trkpt>
      <trkpt lat="43.52599" lon="-1.18689">
        <ele>28.8</ele>
        <time>2022-09-11T11:57:55Z</time>
      </trkpt>
      <trkpt lat="43.526" lon="-1.18764">
        <ele>28.8</ele>
        <time>2022-09-11T11:58:04Z</time>
      </trkpt>
      <trkpt lat="43.52597" lon="-1.18845">
        <ele>29.4</ele>
        <time>2022-09-11T11:58:13Z</time>
      </trkpt>
      <trkpt lat="43.52596" lon="-1.18863">
        <ele>29.2</ele>
        <time>2022-09-11T11:58:15Z</time>
      </trkpt>
      <trkpt lat="43.52591" lon="-1.18942">
        <ele>29.2</ele>
        <time>2022-09-11T11:58:24Z</time>
      </trkpt>
      <trkpt lat="43.52581" lon="-1.19003">
        <ele>29</ele>
        <time>2022-09-11T11:58:31Z</time>
      </trkpt>
      <trkpt lat="43.52569" lon="-1.19081">
        <ele>29.2</ele>
        <time>2022-09-11T11:58:40Z</time>
      </trkpt>
      <trkpt lat="43.52559" lon="-1.19149">
        <ele>29</ele>
        <time>2022-09-11T11:58:48Z</time>
      </trkpt>
      <trkpt lat="43.52547" lon="-1.19204">
        <ele>29.4</ele>
        <time>2022-09-11T11:58:55Z</time>
      </trkpt>
      <trkpt lat="43.52532" lon="-1.19253">
        <ele>29.4</ele>
        <time>2022-09-11T11:59:02Z</time>
      </trkpt>
      <trkpt lat="43.52515" lon="-1.19287">
        <ele>29.4</ele>
        <time>2022-09-11T11:59:08Z</time>
      </trkpt>
      <trkpt lat="43.52491" lon="-1.19324">
        <ele>29.2</ele>
        <time>2022-09-11T11:59:15Z</time>
      </trkpt>
      <trkpt lat="43.52463" lon="-1.19364">
        <ele>29.4</ele>
        <time>2022-09-11T11:59:22Z</time>
      </trkpt>
      <trkpt lat="43.52434" lon="-1.19404">
        <ele>29.6</ele>
        <time>2022-09-11T11:59:29Z</time>
      </trkpt>
      <trkpt lat="43.52404" lon="-1.19444">
        <ele>29.8</ele>
        <time>2022-09-11T11:59:36Z</time>
      </trkpt>
      <trkpt lat="43.524" lon="-1.1945">
        <ele>30.2</ele>
        <time>2022-09-11T11:59:37Z</time>
      </trkpt>
      <trkpt lat="43.52368" lon="-1.19495">
        <ele>30</ele>
        <time>2022-09-11T11:59:45Z</time>
      </trkpt>
      <trkpt lat="43.52356" lon="-1.19512">
        <ele>29</ele>
        <time>2022-09-11T11:59:48Z</time>
      </trkpt>
      <trkpt lat="43.52342" lon="-1.19533">
        <ele>29</ele>
        <time>2022-09-11T11:59:52Z</time>
      </trkpt>
      <trkpt lat="43.52324" lon="-1.19561">
        <ele>29.2</ele>
        <time>2022-09-11T11:59:58Z</time>
      </trkpt>
      <trkpt lat="43.52304" lon="-1.19594">
        <ele>29.8</ele>
        <time>2022-09-11T12:00:04Z</time>
      </trkpt>
      <trkpt lat="43.52282" lon="-1.19633">
        <ele>29.6</ele>
        <time>2022-09-11T12:00:11Z</time>
      </trkpt>
      <trkpt lat="43.52263" lon="-1.19669">
        <ele>29.8</ele>
        <time>2022-09-11T12:00:18Z</time>
      </trkpt>
      <trkpt lat="43.52257" lon="-1.1968">
        <ele>30</ele>
        <time>2022-09-11T12:00:21Z</time>
      </trkpt>
      <trkpt lat="43.52255" lon="-1.19684">
        <ele>30.4</ele>
        <time>2022-09-11T12:00:23Z</time>
      </trkpt>
      <trkpt lat="43.52248" lon="-1.19699">
        <ele>30.4</ele>
        <time>2022-09-11T12:00:28Z</time>
      </trkpt>
      <trkpt lat="43.52235" lon="-1.19723">
        <ele>29</ele>
        <time>2022-09-11T12:00:32Z</time>
      </trkpt>
      <trkpt lat="43.52216" lon="-1.19764">
        <ele>29</ele>
        <time>2022-09-11T12:00:39Z</time>
      </trkpt>
      <trkpt lat="43.52212" lon="-1.19776">
        <ele>29.4</ele>
        <time>2022-09-11T12:00:41Z</time>
      </trkpt>
      <trkpt lat="43.5221" lon="-1.19794">
        <ele>29.2</ele>
        <time>2022-09-11T12:00:44Z</time>
      </trkpt>
      <trkpt lat="43.52209" lon="-1.19807">
        <ele>29</ele>
        <time>2022-09-11T12:00:46Z</time>
      </trkpt>
      <trkpt lat="43.52209" lon="-1.19833">
        <ele>29.6</ele>
        <time>2022-09-11T12:00:50Z</time>
      </trkpt>
      <trkpt lat="43.52208" lon="-1.19867">
        <ele>29.4</ele>
        <time>2022-09-11T12:00:55Z</time>
      </trkpt>
      <trkpt lat="43.52209" lon="-1.19873">
        <ele>29.4</ele>
        <time>2022-09-11T12:00:56Z</time>
      </trkpt>
      <trkpt lat="43.52211" lon="-1.19898">
        <ele>30</ele>
        <time>2022-09-11T12:01:00Z</time>
      </trkpt>
      <trkpt lat="43.52215" lon="-1.19917">
        <ele>30.4</ele>
        <time>2022-09-11T12:01:03Z</time>
      </trkpt>
      <trkpt lat="43.52227" lon="-1.19968">
        <ele>30.6</ele>
        <time>2022-09-11T12:01:11Z</time>
      </trkpt>
      <trkpt lat="43.52234" lon="-1.2">
        <ele>31.2</ele>
        <time>2022-09-11T12:01:16Z</time>
      </trkpt>
      <trkpt lat="43.52241" lon="-1.20028">
        <ele>31.6</ele>
        <time>2022-09-11T12:01:21Z</time>
      </trkpt>
      <trkpt lat="43.52244" lon="-1.20043">
        <ele>32.2</ele>
        <time>2022-09-11T12:01:24Z</time>
      </trkpt>
      <trkpt lat="43.52251" lon="-1.20075">
        <ele>32.2</ele>
        <time>2022-09-11T12:01:30Z</time>
      </trkpt>
      <trkpt lat="43.52259" lon="-1.20114">
        <ele>31.6</ele>
        <time>2022-09-11T12:01:36Z</time>
      </trkpt>
      <trkpt lat="43.52268" lon="-1.20167">
        <ele>31.2</ele>
        <time>2022-09-11T12:01:43Z</time>
      </trkpt>
      <trkpt lat="43.52273" lon="-1.20213">
        <ele>30</ele>
        <time>2022-09-11T12:01:49Z</time>
      </trkpt>
      <trkpt lat="43.52277" lon="-1.20235">
        <ele>30</ele>
        <time>2022-09-11T12:01:52Z</time>
      </trkpt>
      <trkpt lat="43.52282" lon="-1.20272">
        <ele>29.8</ele>
        <time>2022-09-11T12:01:57Z</time>
      </trkpt>
      <trkpt lat="43.52281" lon="-1.20279">
        <ele>29.8</ele>
        <time>2022-09-11T12:01:58Z</time>
      </trkpt>
      <trkpt lat="43.52279" lon="-1.20332">
        <ele>30.2</ele>
        <time>2022-09-11T12:02:06Z</time>
      </trkpt>
      <trkpt lat="43.52281" lon="-1.20348">
        <ele>30.6</ele>
        <time>2022-09-11T12:02:09Z</time>
      </trkpt>
      <trkpt lat="43.52283" lon="-1.20353">
        <ele>30.6</ele>
        <time>2022-09-11T12:02:10Z</time>
      </trkpt>
      <trkpt lat="43.52302" lon="-1.20386">
        <ele>30.2</ele>
        <time>2022-09-11T12:02:16Z</time>
      </trkpt>
      <trkpt lat="43.52322" lon="-1.20426">
        <ele>29.8</ele>
        <time>2022-09-11T12:02:23Z</time>
      </trkpt>
      <trkpt lat="43.52342" lon="-1.20473">
        <ele>30</ele>
        <time>2022-09-11T12:02:30Z</time>
      </trkpt>
      <trkpt lat="43.52367" lon="-1.20546">
        <ele>29.6</ele>
        <time>2022-09-11T12:02:40Z</time>
      </trkpt>
      <trkpt lat="43.52372" lon="-1.2056">
        <ele>29.4</ele>
        <time>2022-09-11T12:02:42Z</time>
      </trkpt>
      <trkpt lat="43.52383" lon="-1.2059">
        <ele>29</ele>
        <time>2022-09-11T12:02:46Z</time>
      </trkpt>
      <trkpt lat="43.52385" lon="-1.20598">
        <ele>29</ele>
        <time>2022-09-11T12:02:47Z</time>
      </trkpt>
      <trkpt lat="43.52391" lon="-1.20615">
        <ele>28.8</ele>
        <time>2022-09-11T12:02:49Z</time>
      </trkpt>
      <trkpt lat="43.524" lon="-1.20638">
        <ele>28.6</ele>
        <time>2022-09-11T12:02:52Z</time>
      </trkpt>
      <trkpt lat="43.5241" lon="-1.20661">
        <ele>28.6</ele>
        <time>2022-09-11T12:02:55Z</time>
      </trkpt>
      <trkpt lat="43.52421" lon="-1.20682">
        <ele>28.6</ele>
        <time>2022-09-11T12:02:58Z</time>
      </trkpt>
      <trkpt lat="43.52452" lon="-1.20734">
        <ele>29.6</ele>
        <time>2022-09-11T12:03:06Z</time>
      </trkpt>
      <trkpt lat="43.5247" lon="-1.2077">
        <ele>30</ele>
        <time>2022-09-11T12:03:12Z</time>
      </trkpt>
      <trkpt lat="43.5248" lon="-1.20789">
        <ele>30</ele>
        <time>2022-09-11T12:03:15Z</time>
      </trkpt>
      <trkpt lat="43.52503" lon="-1.2084">
        <ele>29.8</ele>
        <time>2022-09-11T12:03:23Z</time>
      </trkpt>
      <trkpt lat="43.52522" lon="-1.20883">
        <ele>30</ele>
        <time>2022-09-11T12:03:30Z</time>
      </trkpt>
      <trkpt lat="43.52551" lon="-1.20941">
        <ele>29.6</ele>
        <time>2022-09-11T12:03:40Z</time>
      </trkpt>
      <trkpt lat="43.52571" lon="-1.20978">
        <ele>29.6</ele>
        <time>2022-09-11T12:03:48Z</time>
      </trkpt>
      <trkpt lat="43.5258" lon="-1.20994">
        <ele>29.6</ele>
        <time>2022-09-11T12:03:53Z</time>
      </trkpt>
      <trkpt lat="43.5258" lon="-1.21">
        <ele>29.4</ele>
        <time>2022-09-11T12:04:02Z</time>
      </trkpt>
      <trkpt lat="43.52578" lon="-1.21017">
        <ele>29.2</ele>
        <time>2022-09-11T12:04:06Z</time>
      </trkpt>
      <trkpt lat="43.52564" lon="-1.21038">
        <ele>29.2</ele>
        <time>2022-09-11T12:04:11Z</time>
      </trkpt>
      <trkpt lat="43.52561" lon="-1.21043">
        <ele>29.2</ele>
        <time>2022-09-11T12:04:12Z</time>
      </trkpt>
      <trkpt lat="43.52555" lon="-1.21053">
        <ele>29</ele>
        <time>2022-09-11T12:04:14Z</time>
      </trkpt>
      <trkpt lat="43.52539" lon="-1.21076">
        <ele>28.8</ele>
        <time>2022-09-11T12:04:19Z</time>
      </trkpt>
      <trkpt lat="43.52517" lon="-1.21108">
        <ele>28.4</ele>
        <time>2022-09-11T12:04:26Z</time>
      </trkpt>
      <trkpt lat="43.52493" lon="-1.21146">
        <ele>28.6</ele>
        <time>2022-09-11T12:04:33Z</time>
      </trkpt>
      <trkpt lat="43.52462" lon="-1.21195">
        <ele>28.8</ele>
        <time>2022-09-11T12:04:41Z</time>
      </trkpt>
      <trkpt lat="43.52425" lon="-1.21251">
        <ele>28.8</ele>
        <time>2022-09-11T12:04:50Z</time>
      </trkpt>
      <trkpt lat="43.5239" lon="-1.21306">
        <ele>28.8</ele>
        <time>2022-09-11T12:04:59Z</time>
      </trkpt>
      <trkpt lat="43.52354" lon="-1.21365">
        <ele>28.6</ele>
        <time>2022-09-11T12:05:09Z</time>
      </trkpt>
      <trkpt lat="43.5235" lon="-1.2137">
        <ele>28.4</ele>
        <time>2022-09-11T12:05:10Z</time>
      </trkpt>
      <trkpt lat="43.52321" lon="-1.21418">
        <ele>27.8</ele>
        <time>2022-09-11T12:05:18Z</time>
      </trkpt>
      <trkpt lat="43.52318" lon="-1.21423">
        <ele>28</ele>
        <time>2022-09-11T12:05:19Z</time>
      </trkpt>
      <trkpt lat="43.52302" lon="-1.21452">
        <ele>28.4</ele>
        <time>2022-09-11T12:05:25Z</time>
      </trkpt>
      <trkpt lat="43.52309" lon="-1.21463">
        <ele>27.2</ele>
        <time>2022-09-11T12:05:28Z</time>
      </trkpt>
      <trkpt lat="43.52333" lon="-1.2149">
        <ele>27.4</ele>
        <time>2022-09-11T12:05:35Z</time>
      </trkpt>
      <trkpt lat="43.52359" lon="-1.21523">
        <ele>27.4</ele>
        <time>2022-09-11T12:05:42Z</time>
      </trkpt>
      <trkpt lat="43.52391" lon="-1.21564">
        <ele>27.8</ele>
        <time>2022-09-11T12:05:50Z</time>
      </trkpt>
      <trkpt lat="43.52433" lon="-1.21617">
        <ele>27.6</ele>
        <time>2022-09-11T12:06:00Z</time>
      </trkpt>
      <trkpt lat="43.52471" lon="-1.21665">
        <ele>27.6</ele>
        <time>2022-09-11T12:06:09Z</time>
      </trkpt>
      <trkpt lat="43.525" lon="-1.21702">
        <ele>27.8</ele>
        <time>2022-09-11T12:06:16Z</time>
      </trkpt>
      <trkpt lat="43.52538" lon="-1.21749">
        <ele>27.6</ele>
        <time>2022-09-11T12:06:25Z</time>
      </trkpt>
      <trkpt lat="43.5255" lon="-1.21765">
        <ele>27.6</ele>
        <time>2022-09-11T12:06:28Z</time>
      </trkpt>
      <trkpt lat="43.52553" lon="-1.21778">
        <ele>27.8</ele>
        <time>2022-09-11T12:06:30Z</time>
      </trkpt>
      <trkpt lat="43.52547" lon="-1.218">
        <ele>27.6</ele>
        <time>2022-09-11T12:06:33Z</time>
      </trkpt>
      <trkpt lat="43.52538" lon="-1.21812">
        <ele>27.8</ele>
        <time>2022-09-11T12:06:35Z</time>
      </trkpt>
      <trkpt lat="43.52517" lon="-1.21845">
        <ele>27.8</ele>
        <time>2022-09-11T12:06:40Z</time>
      </trkpt>
      <trkpt lat="43.52479" lon="-1.21905">
        <ele>27.8</ele>
        <time>2022-09-11T12:06:49Z</time>
      </trkpt>
      <trkpt lat="43.5247" lon="-1.21918">
        <ele>28</ele>
        <time>2022-09-11T12:06:51Z</time>
      </trkpt>
      <trkpt lat="43.52431" lon="-1.21978">
        <ele>27.8</ele>
        <time>2022-09-11T12:07:00Z</time>
      </trkpt>
      <trkpt lat="43.52427" lon="-1.21985">
        <ele>27.8</ele>
        <time>2022-09-11T12:07:01Z</time>
      </trkpt>
      <trkpt lat="43.5239" lon="-1.22042">
        <ele>28.4</ele>
        <time>2022-09-11T12:07:09Z</time>
      </trkpt>
      <trkpt lat="43.5238" lon="-1.22057">
        <ele>28</ele>
        <time>2022-09-11T12:07:11Z</time>
      </trkpt>
      <trkpt lat="43.52343" lon="-1.22113">
        <ele>28.2</ele>
        <time>2022-09-11T12:07:19Z</time>
      </trkpt>
      <trkpt lat="43.52326" lon="-1.22141">
        <ele>28.2</ele>
        <time>2022-09-11T12:07:23Z</time>
      </trkpt>
      <trkpt lat="43.52288" lon="-1.22197">
        <ele>28</ele>
        <time>2022-09-11T12:07:32Z</time>
      </trkpt>
      <trkpt lat="43.5225" lon="-1.22255">
        <ele>27.8</ele>
        <time>2022-09-11T12:07:41Z</time>
      </trkpt>
      <trkpt lat="43.52246" lon="-1.22262">
        <ele>27.8</ele>
        <time>2022-09-11T12:07:42Z</time>
      </trkpt>
      <trkpt lat="43.52212" lon="-1.22314">
        <ele>27.4</ele>
        <time>2022-09-11T12:07:50Z</time>
      </trkpt>
      <trkpt lat="43.52173" lon="-1.22371">
        <ele>27.8</ele>
        <time>2022-09-11T12:07:59Z</time>
      </trkpt>
      <trkpt lat="43.52138" lon="-1.22418">
        <ele>27.6</ele>
        <time>2022-09-11T12:08:07Z</time>
      </trkpt>
      <trkpt lat="43.52104" lon="-1.22463">
        <ele>27</ele>
        <time>2022-09-11T12:08:15Z</time>
      </trkpt>
      <trkpt lat="43.52062" lon="-1.22518">
        <ele>27.8</ele>
        <time>2022-09-11T12:08:24Z</time>
      </trkpt>
      <trkpt lat="43.52021" lon="-1.22574">
        <ele>27.6</ele>
        <time>2022-09-11T12:08:33Z</time>
      </trkpt>
      <trkpt lat="43.5198" lon="-1.22629">
        <ele>27.4</ele>
        <time>2022-09-11T12:08:42Z</time>
      </trkpt>
      <trkpt lat="43.51941" lon="-1.22682">
        <ele>28</ele>
        <time>2022-09-11T12:08:51Z</time>
      </trkpt>
      <trkpt lat="43.51904" lon="-1.22729">
        <ele>28</ele>
        <time>2022-09-11T12:09:00Z</time>
      </trkpt>
      <trkpt lat="43.51882" lon="-1.22759">
        <ele>28</ele>
        <time>2022-09-11T12:09:06Z</time>
      </trkpt>
      <trkpt lat="43.51845" lon="-1.22808">
        <ele>27.6</ele>
        <time>2022-09-11T12:09:16Z</time>
      </trkpt>
      <trkpt lat="43.5181" lon="-1.22852">
        <ele>27.6</ele>
        <time>2022-09-11T12:09:26Z</time>
      </trkpt>
      <trkpt lat="43.51794" lon="-1.22874">
        <ele>27.8</ele>
        <time>2022-09-11T12:09:32Z</time>
      </trkpt>
      <trkpt lat="43.51791" lon="-1.22879">
        <ele>27.8</ele>
        <time>2022-09-11T12:09:33Z</time>
      </trkpt>
      <trkpt lat="43.51772" lon="-1.22911">
        <ele>27.8</ele>
        <time>2022-09-11T12:09:39Z</time>
      </trkpt>
      <trkpt lat="43.51748" lon="-1.22954">
        <ele>28</ele>
        <time>2022-09-11T12:09:46Z</time>
      </trkpt>
      <trkpt lat="43.51722" lon="-1.23003">
        <ele>28.2</ele>
        <time>2022-09-11T12:09:53Z</time>
      </trkpt>
      <trkpt lat="43.51688" lon="-1.23068">
        <ele>28</ele>
        <time>2022-09-11T12:10:02Z</time>
      </trkpt>
      <trkpt lat="43.51681" lon="-1.23083">
        <ele>27.8</ele>
        <time>2022-09-11T12:10:04Z</time>
      </trkpt>
      <trkpt lat="43.51648" lon="-1.2315">
        <ele>28</ele>
        <time>2022-09-11T12:10:13Z</time>
      </trkpt>
      <trkpt lat="43.51644" lon="-1.23157">
        <ele>28</ele>
        <time>2022-09-11T12:10:14Z</time>
      </trkpt>
      <trkpt lat="43.5161" lon="-1.23211">
        <ele>28.6</ele>
        <time>2022-09-11T12:10:22Z</time>
      </trkpt>
      <trkpt lat="43.51569" lon="-1.23269">
        <ele>28.8</ele>
        <time>2022-09-11T12:10:31Z</time>
      </trkpt>
      <trkpt lat="43.51565" lon="-1.23276">
        <ele>29</ele>
        <time>2022-09-11T12:10:32Z</time>
      </trkpt>
      <trkpt lat="43.51529" lon="-1.23339">
        <ele>28.6</ele>
        <time>2022-09-11T12:10:41Z</time>
      </trkpt>
      <trkpt lat="43.51499" lon="-1.23409">
        <ele>28.6</ele>
        <time>2022-09-11T12:10:50Z</time>
      </trkpt>
      <trkpt lat="43.51496" lon="-1.23417">
        <ele>28.4</ele>
        <time>2022-09-11T12:10:51Z</time>
      </trkpt>
      <trkpt lat="43.51472" lon="-1.23479">
        <ele>28.4</ele>
        <time>2022-09-11T12:10:59Z</time>
      </trkpt>
      <trkpt lat="43.5145" lon="-1.23549">
        <ele>29</ele>
        <time>2022-09-11T12:11:08Z</time>
      </trkpt>
      <trkpt lat="43.51444" lon="-1.23564">
        <ele>28.6</ele>
        <time>2022-09-11T12:11:10Z</time>
      </trkpt>
      <trkpt lat="43.5143" lon="-1.2359">
        <ele>28.6</ele>
        <time>2022-09-11T12:11:14Z</time>
      </trkpt>
      <trkpt lat="43.51393" lon="-1.23649">
        <ele>28.4</ele>
        <time>2022-09-11T12:11:23Z</time>
      </trkpt>
      <trkpt lat="43.51389" lon="-1.23656">
        <ele>28.6</ele>
        <time>2022-09-11T12:11:24Z</time>
      </trkpt>
      <trkpt lat="43.51354" lon="-1.23706">
        <ele>28.6</ele>
        <time>2022-09-11T12:11:32Z</time>
      </trkpt>
      <trkpt lat="43.51316" lon="-1.23752">
        <ele>28.4</ele>
        <time>2022-09-11T12:11:40Z</time>
      </trkpt>
      <trkpt lat="43.5127" lon="-1.23801">
        <ele>28.4</ele>
        <time>2022-09-11T12:11:49Z</time>
      </trkpt>
      <trkpt lat="43.51265" lon="-1.23807">
        <ele>28.4</ele>
        <time>2022-09-11T12:11:50Z</time>
      </trkpt>
      <trkpt lat="43.51222" lon="-1.23859">
        <ele>29.2</ele>
        <time>2022-09-11T12:11:59Z</time>
      </trkpt>
      <trkpt lat="43.51187" lon="-1.23894">
        <ele>29</ele>
        <time>2022-09-11T12:12:06Z</time>
      </trkpt>
      <trkpt lat="43.51181" lon="-1.23896">
        <ele>28.8</ele>
        <time>2022-09-11T12:12:07Z</time>
      </trkpt>
      <trkpt lat="43.5117" lon="-1.23902">
        <ele>28.8</ele>
        <time>2022-09-11T12:12:09Z</time>
      </trkpt>
      <trkpt lat="43.51162" lon="-1.23912">
        <ele>28.8</ele>
        <time>2022-09-11T12:12:11Z</time>
      </trkpt>
      <trkpt lat="43.51155" lon="-1.23926">
        <ele>28.4</ele>
        <time>2022-09-11T12:12:13Z</time>
      </trkpt>
      <trkpt lat="43.51142" lon="-1.23954">
        <ele>28.4</ele>
        <time>2022-09-11T12:12:17Z</time>
      </trkpt>
      <trkpt lat="43.51118" lon="-1.23995">
        <ele>28.6</ele>
        <time>2022-09-11T12:12:24Z</time>
      </trkpt>
      <trkpt lat="43.51093" lon="-1.24043">
        <ele>28.2</ele>
        <time>2022-09-11T12:12:32Z</time>
      </trkpt>
      <trkpt lat="43.51065" lon="-1.24099">
        <ele>28.2</ele>
        <time>2022-09-11T12:12:41Z</time>
      </trkpt>
      <trkpt lat="43.51039" lon="-1.24149">
        <ele>27.8</ele>
        <time>2022-09-11T12:12:49Z</time>
      </trkpt>
      <trkpt lat="43.51016" lon="-1.2419">
        <ele>28.2</ele>
        <time>2022-09-11T12:12:56Z</time>
      </trkpt>
      <trkpt lat="43.50981" lon="-1.24255">
        <ele>28.4</ele>
        <time>2022-09-11T12:13:07Z</time>
      </trkpt>
      <trkpt lat="43.50955" lon="-1.24303">
        <ele>28.6</ele>
        <time>2022-09-11T12:13:16Z</time>
      </trkpt>
      <trkpt lat="43.50952" lon="-1.24309">
        <ele>28.8</ele>
        <time>2022-09-11T12:13:17Z</time>
      </trkpt>
      <trkpt lat="43.50936" lon="-1.24338">
        <ele>28.8</ele>
        <time>2022-09-11T12:13:23Z</time>
      </trkpt>
      <trkpt lat="43.50928" lon="-1.24351">
        <ele>27.6</ele>
        <time>2022-09-11T12:13:26Z</time>
      </trkpt>
      <trkpt lat="43.50919" lon="-1.24363">
        <ele>28</ele>
        <time>2022-09-11T12:13:30Z</time>
      </trkpt>
      <trkpt lat="43.50912" lon="-1.24372">
        <ele>28.8</ele>
        <time>2022-09-11T12:17:29Z</time>
      </trkpt>
      <trkpt lat="43.50908" lon="-1.24377">
        <ele>28.8</ele>
        <time>2022-09-11T12:17:31Z</time>
      </trkpt>
      <trkpt lat="43.50891" lon="-1.24399">
        <ele>28.8</ele>
        <time>2022-09-11T12:17:38Z</time>
      </trkpt>
      <trkpt lat="43.50871" lon="-1.24432">
        <ele>29.2</ele>
        <time>2022-09-11T12:17:46Z</time>
      </trkpt>
      <trkpt lat="43.50852" lon="-1.24468">
        <ele>29.4</ele>
        <time>2022-09-11T12:17:54Z</time>
      </trkpt>
      <trkpt lat="43.50849" lon="-1.24471">
        <ele>29.4</ele>
        <time>2022-09-11T12:17:55Z</time>
      </trkpt>
      <trkpt lat="43.50831" lon="-1.24489">
        <ele>29.6</ele>
        <time>2022-09-11T12:18:00Z</time>
      </trkpt>
      <trkpt lat="43.50825" lon="-1.24498">
        <ele>29.4</ele>
        <time>2022-09-11T12:18:02Z</time>
      </trkpt>
      <trkpt lat="43.50818" lon="-1.24514">
        <ele>29.4</ele>
        <time>2022-09-11T12:18:05Z</time>
      </trkpt>
      <trkpt lat="43.50816" lon="-1.24519">
        <ele>29.6</ele>
        <time>2022-09-11T12:18:06Z</time>
      </trkpt>
      <trkpt lat="43.50817" lon="-1.24541">
        <ele>29.6</ele>
        <time>2022-09-11T12:18:09Z</time>
      </trkpt>
      <trkpt lat="43.50817" lon="-1.24548">
        <ele>29.6</ele>
        <time>2022-09-11T12:18:10Z</time>
      </trkpt>
      <trkpt lat="43.5082" lon="-1.24595">
        <ele>29.8</ele>
        <time>2022-09-11T12:18:16Z</time>
      </trkpt>
      <trkpt lat="43.50822" lon="-1.24603">
        <ele>30</ele>
        <time>2022-09-11T12:18:17Z</time>
      </trkpt>
      <trkpt lat="43.5083" lon="-1.24632">
        <ele>29.8</ele>
        <time>2022-09-11T12:18:21Z</time>
      </trkpt>
      <trkpt lat="43.50831" lon="-1.2464">
        <ele>30.2</ele>
        <time>2022-09-11T12:18:22Z</time>
      </trkpt>
      <trkpt lat="43.50829" lon="-1.24654">
        <ele>30.2</ele>
        <time>2022-09-11T12:18:24Z</time>
      </trkpt>
      <trkpt lat="43.50818" lon="-1.24679">
        <ele>30</ele>
        <time>2022-09-11T12:18:28Z</time>
      </trkpt>
      <trkpt lat="43.50805" lon="-1.24692">
        <ele>30</ele>
        <time>2022-09-11T12:18:31Z</time>
      </trkpt>
      <trkpt lat="43.50796" lon="-1.247">
        <ele>30</ele>
        <time>2022-09-11T12:18:33Z</time>
      </trkpt>
      <trkpt lat="43.50792" lon="-1.24705">
        <ele>29.8</ele>
        <time>2022-09-11T12:18:34Z</time>
      </trkpt>
      <trkpt lat="43.50778" lon="-1.24729">
        <ele>30</ele>
        <time>2022-09-11T12:18:38Z</time>
      </trkpt>
      <trkpt lat="43.50771" lon="-1.24741">
        <ele>30</ele>
        <time>2022-09-11T12:18:40Z</time>
      </trkpt>
      <trkpt lat="43.50757" lon="-1.24752">
        <ele>29.6</ele>
        <time>2022-09-11T12:18:43Z</time>
      </trkpt>
      <trkpt lat="43.50746" lon="-1.24755">
        <ele>29.8</ele>
        <time>2022-09-11T12:18:45Z</time>
      </trkpt>
      <trkpt lat="43.5074" lon="-1.24755">
        <ele>30.2</ele>
        <time>2022-09-11T12:18:46Z</time>
      </trkpt>
      <trkpt lat="43.5073" lon="-1.24754">
        <ele>30.6</ele>
        <time>2022-09-11T12:18:48Z</time>
      </trkpt>
      <trkpt lat="43.50708" lon="-1.24751">
        <ele>30.2</ele>
        <time>2022-09-11T12:18:52Z</time>
      </trkpt>
      <trkpt lat="43.50693" lon="-1.24757">
        <ele>30</ele>
        <time>2022-09-11T12:18:55Z</time>
      </trkpt>
      <trkpt lat="43.50671" lon="-1.24777">
        <ele>30</ele>
        <time>2022-09-11T12:19:00Z</time>
      </trkpt>
      <trkpt lat="43.50664" lon="-1.24787">
        <ele>30</ele>
        <time>2022-09-11T12:19:02Z</time>
      </trkpt>
      <trkpt lat="43.50646" lon="-1.24817">
        <ele>30</ele>
        <time>2022-09-11T12:19:07Z</time>
      </trkpt>
      <trkpt lat="43.50622" lon="-1.24854">
        <ele>29.8</ele>
        <time>2022-09-11T12:19:14Z</time>
      </trkpt>
      <trkpt lat="43.50592" lon="-1.24882">
        <ele>30.2</ele>
        <time>2022-09-11T12:19:21Z</time>
      </trkpt>
      <trkpt lat="43.50555" lon="-1.24903">
        <ele>29.6</ele>
        <time>2022-09-11T12:19:29Z</time>
      </trkpt>
      <trkpt lat="43.50533" lon="-1.24918">
        <ele>29.2</ele>
        <time>2022-09-11T12:19:34Z</time>
      </trkpt>
      <trkpt lat="43.50527" lon="-1.24929">
        <ele>29.2</ele>
        <time>2022-09-11T12:19:36Z</time>
      </trkpt>
      <trkpt lat="43.50521" lon="-1.2495">
        <ele>29.2</ele>
        <time>2022-09-11T12:19:39Z</time>
      </trkpt>
      <trkpt lat="43.5052" lon="-1.24956">
        <ele>29.2</ele>
        <time>2022-09-11T12:19:40Z</time>
      </trkpt>
      <trkpt lat="43.50509" lon="-1.2501">
        <ele>29</ele>
        <time>2022-09-11T12:19:48Z</time>
      </trkpt>
      <trkpt lat="43.50505" lon="-1.25029">
        <ele>29.2</ele>
        <time>2022-09-11T12:19:51Z</time>
      </trkpt>
      <trkpt lat="43.50508" lon="-1.25041">
        <ele>29.2</ele>
        <time>2022-09-11T12:19:53Z</time>
      </trkpt>
      <trkpt lat="43.50513" lon="-1.25053">
        <ele>29.4</ele>
        <time>2022-09-11T12:19:55Z</time>
      </trkpt>
      <trkpt lat="43.50515" lon="-1.25072">
        <ele>29.6</ele>
        <time>2022-09-11T12:19:58Z</time>
      </trkpt>
      <trkpt lat="43.50515" lon="-1.25079">
        <ele>29.6</ele>
        <time>2022-09-11T12:19:59Z</time>
      </trkpt>
      <trkpt lat="43.50519" lon="-1.25126">
        <ele>29.8</ele>
        <time>2022-09-11T12:20:06Z</time>
      </trkpt>
      <trkpt lat="43.50523" lon="-1.25138">
        <ele>29.8</ele>
        <time>2022-09-11T12:20:08Z</time>
      </trkpt>
      <trkpt lat="43.50532" lon="-1.25161">
        <ele>29.8</ele>
        <time>2022-09-11T12:20:12Z</time>
      </trkpt>
      <trkpt lat="43.50555" lon="-1.2521">
        <ele>30</ele>
        <time>2022-09-11T12:20:20Z</time>
      </trkpt>
      <trkpt lat="43.50582" lon="-1.25274">
        <ele>30</ele>
        <time>2022-09-11T12:20:30Z</time>
      </trkpt>
      <trkpt lat="43.50609" lon="-1.25336">
        <ele>30.2</ele>
        <time>2022-09-11T12:20:40Z</time>
      </trkpt>
      <trkpt lat="43.50625" lon="-1.25374">
        <ele>30.2</ele>
        <time>2022-09-11T12:20:46Z</time>
      </trkpt>
      <trkpt lat="43.50627" lon="-1.2538">
        <ele>30.2</ele>
        <time>2022-09-11T12:20:47Z</time>
      </trkpt>
      <trkpt lat="43.50639" lon="-1.25419">
        <ele>30.2</ele>
        <time>2022-09-11T12:20:53Z</time>
      </trkpt>
      <trkpt lat="43.50649" lon="-1.25454">
        <ele>30.4</ele>
        <time>2022-09-11T12:20:58Z</time>
      </trkpt>
      <trkpt lat="43.50648" lon="-1.25469">
        <ele>30.6</ele>
        <time>2022-09-11T12:21:00Z</time>
      </trkpt>
      <trkpt lat="43.50642" lon="-1.25489">
        <ele>30.4</ele>
        <time>2022-09-11T12:21:03Z</time>
      </trkpt>
      <trkpt lat="43.50638" lon="-1.25503">
        <ele>30.6</ele>
        <time>2022-09-11T12:21:05Z</time>
      </trkpt>
      <trkpt lat="43.50634" lon="-1.25514">
        <ele>30.8</ele>
        <time>2022-09-11T12:21:07Z</time>
      </trkpt>
      <trkpt lat="43.50631" lon="-1.25518">
        <ele>31.2</ele>
        <time>2022-09-11T12:21:08Z</time>
      </trkpt>
      <trkpt lat="43.50628" lon="-1.25521">
        <ele>31.4</ele>
        <time>2022-09-11T12:21:09Z</time>
      </trkpt>
      <trkpt lat="43.50615" lon="-1.25527">
        <ele>32</ele>
        <time>2022-09-11T12:21:13Z</time>
      </trkpt>
      <trkpt lat="43.50611" lon="-1.25529">
        <ele>32</ele>
        <time>2022-09-11T12:21:14Z</time>
      </trkpt>
      <trkpt lat="43.50586" lon="-1.25533">
        <ele>31.8</ele>
        <time>2022-09-11T12:21:20Z</time>
      </trkpt>
      <trkpt lat="43.50554" lon="-1.25527">
        <ele>32.2</ele>
        <time>2022-09-11T12:21:27Z</time>
      </trkpt>
      <trkpt lat="43.50549" lon="-1.25525">
        <ele>32.2</ele>
        <time>2022-09-11T12:21:28Z</time>
      </trkpt>
      <trkpt lat="43.50522" lon="-1.25509">
        <ele>32</ele>
        <time>2022-09-11T12:21:34Z</time>
      </trkpt>
      <trkpt lat="43.50481" lon="-1.2548">
        <ele>31.8</ele>
        <time>2022-09-11T12:21:43Z</time>
      </trkpt>
      <trkpt lat="43.50466" lon="-1.25474">
        <ele>32</ele>
        <time>2022-09-11T12:21:46Z</time>
      </trkpt>
      <trkpt lat="43.50456" lon="-1.25475">
        <ele>31.8</ele>
        <time>2022-09-11T12:21:48Z</time>
      </trkpt>
      <trkpt lat="43.50438" lon="-1.25487">
        <ele>32</ele>
        <time>2022-09-11T12:21:52Z</time>
      </trkpt>
      <trkpt lat="43.50428" lon="-1.2551">
        <ele>31.6</ele>
        <time>2022-09-11T12:21:56Z</time>
      </trkpt>
      <trkpt lat="43.50428" lon="-1.25532">
        <ele>31.4</ele>
        <time>2022-09-11T12:21:59Z</time>
      </trkpt>
      <trkpt lat="43.50429" lon="-1.25546">
        <ele>31.4</ele>
        <time>2022-09-11T12:22:01Z</time>
      </trkpt>
      <trkpt lat="43.50435" lon="-1.25609">
        <ele>31.8</ele>
        <time>2022-09-11T12:22:10Z</time>
      </trkpt>
      <trkpt lat="43.50436" lon="-1.25674">
        <ele>32</ele>
        <time>2022-09-11T12:22:19Z</time>
      </trkpt>
      <trkpt lat="43.50435" lon="-1.25681">
        <ele>32</ele>
        <time>2022-09-11T12:22:20Z</time>
      </trkpt>
      <trkpt lat="43.50428" lon="-1.25716">
        <ele>31.6</ele>
        <time>2022-09-11T12:22:25Z</time>
      </trkpt>
      <trkpt lat="43.5042" lon="-1.25766">
        <ele>31.8</ele>
        <time>2022-09-11T12:22:32Z</time>
      </trkpt>
      <trkpt lat="43.5041" lon="-1.25822">
        <ele>32.2</ele>
        <time>2022-09-11T12:22:40Z</time>
      </trkpt>
      <trkpt lat="43.50403" lon="-1.25863">
        <ele>32</ele>
        <time>2022-09-11T12:22:46Z</time>
      </trkpt>
      <trkpt lat="43.50392" lon="-1.25914">
        <ele>32.4</ele>
        <time>2022-09-11T12:22:53Z</time>
      </trkpt>
      <trkpt lat="43.50378" lon="-1.25956">
        <ele>32.2</ele>
        <time>2022-09-11T12:22:59Z</time>
      </trkpt>
      <trkpt lat="43.50363" lon="-1.25993">
        <ele>32</ele>
        <time>2022-09-11T12:23:05Z</time>
      </trkpt>
      <trkpt lat="43.5034" lon="-1.26038">
        <ele>31.8</ele>
        <time>2022-09-11T12:23:12Z</time>
      </trkpt>
      <trkpt lat="43.50307" lon="-1.26098">
        <ele>32</ele>
        <time>2022-09-11T12:23:22Z</time>
      </trkpt>
      <trkpt lat="43.50297" lon="-1.26117">
        <ele>31.8</ele>
        <time>2022-09-11T12:23:25Z</time>
      </trkpt>
      <trkpt lat="43.50286" lon="-1.26143">
        <ele>31.8</ele>
        <time>2022-09-11T12:23:29Z</time>
      </trkpt>
      <trkpt lat="43.50264" lon="-1.26197">
        <ele>31.6</ele>
        <time>2022-09-11T12:23:37Z</time>
      </trkpt>
      <trkpt lat="43.50244" lon="-1.26234">
        <ele>32</ele>
        <time>2022-09-11T12:23:43Z</time>
      </trkpt>
      <trkpt lat="43.50222" lon="-1.26276">
        <ele>32</ele>
        <time>2022-09-11T12:23:50Z</time>
      </trkpt>
      <trkpt lat="43.50197" lon="-1.26317">
        <ele>32.2</ele>
        <time>2022-09-11T12:23:57Z</time>
      </trkpt>
      <trkpt lat="43.50166" lon="-1.2637">
        <ele>32.2</ele>
        <time>2022-09-11T12:24:06Z</time>
      </trkpt>
      <trkpt lat="43.50143" lon="-1.26418">
        <ele>31.8</ele>
        <time>2022-09-11T12:24:14Z</time>
      </trkpt>
      <trkpt lat="43.50122" lon="-1.26455">
        <ele>32.2</ele>
        <time>2022-09-11T12:24:20Z</time>
      </trkpt>
      <trkpt lat="43.50103" lon="-1.26492">
        <ele>31.4</ele>
        <time>2022-09-11T12:24:26Z</time>
      </trkpt>
      <trkpt lat="43.5008" lon="-1.2653">
        <ele>31.4</ele>
        <time>2022-09-11T12:24:33Z</time>
      </trkpt>
      <trkpt lat="43.50055" lon="-1.26568">
        <ele>31.6</ele>
        <time>2022-09-11T12:24:40Z</time>
      </trkpt>
      <trkpt lat="43.50028" lon="-1.26607">
        <ele>32.2</ele>
        <time>2022-09-11T12:24:47Z</time>
      </trkpt>
      <trkpt lat="43.49999" lon="-1.2665">
        <ele>31.8</ele>
        <time>2022-09-11T12:24:55Z</time>
      </trkpt>
      <trkpt lat="43.49971" lon="-1.26697">
        <ele>32.2</ele>
        <time>2022-09-11T12:25:03Z</time>
      </trkpt>
      <trkpt lat="43.49942" lon="-1.26746">
        <ele>32.2</ele>
        <time>2022-09-11T12:25:12Z</time>
      </trkpt>
      <trkpt lat="43.49939" lon="-1.26751">
        <ele>32.2</ele>
        <time>2022-09-11T12:25:13Z</time>
      </trkpt>
      <trkpt lat="43.49929" lon="-1.26771">
        <ele>32</ele>
        <time>2022-09-11T12:25:17Z</time>
      </trkpt>
      <trkpt lat="43.499" lon="-1.26813">
        <ele>32.6</ele>
        <time>2022-09-11T12:25:25Z</time>
      </trkpt>
      <trkpt lat="43.49872" lon="-1.26857">
        <ele>32</ele>
        <time>2022-09-11T12:25:33Z</time>
      </trkpt>
      <trkpt lat="43.49852" lon="-1.2689">
        <ele>32</ele>
        <time>2022-09-11T12:25:39Z</time>
      </trkpt>
      <trkpt lat="43.49825" lon="-1.26936">
        <ele>32</ele>
        <time>2022-09-11T12:25:47Z</time>
      </trkpt>
      <trkpt lat="43.49806" lon="-1.26981">
        <ele>32</ele>
        <time>2022-09-11T12:25:54Z</time>
      </trkpt>
      <trkpt lat="43.49788" lon="-1.27033">
        <ele>32.2</ele>
        <time>2022-09-11T12:26:02Z</time>
      </trkpt>
      <trkpt lat="43.49768" lon="-1.27099">
        <ele>32.4</ele>
        <time>2022-09-11T12:26:12Z</time>
      </trkpt>
      <trkpt lat="43.49756" lon="-1.27147">
        <ele>32.4</ele>
        <time>2022-09-11T12:26:19Z</time>
      </trkpt>
      <trkpt lat="43.49746" lon="-1.27196">
        <ele>32.4</ele>
        <time>2022-09-11T12:26:26Z</time>
      </trkpt>
      <trkpt lat="43.49744" lon="-1.27203">
        <ele>32.6</ele>
        <time>2022-09-11T12:26:27Z</time>
      </trkpt>
      <trkpt lat="43.49731" lon="-1.2726">
        <ele>32.2</ele>
        <time>2022-09-11T12:26:35Z</time>
      </trkpt>
      <trkpt lat="43.49724" lon="-1.27314">
        <ele>32.4</ele>
        <time>2022-09-11T12:26:42Z</time>
      </trkpt>
      <trkpt lat="43.49725" lon="-1.27368">
        <ele>32.4</ele>
        <time>2022-09-11T12:26:49Z</time>
      </trkpt>
      <trkpt lat="43.4973" lon="-1.27444">
        <ele>32.8</ele>
        <time>2022-09-11T12:26:59Z</time>
      </trkpt>
      <trkpt lat="43.49732" lon="-1.27496">
        <ele>32.4</ele>
        <time>2022-09-11T12:27:06Z</time>
      </trkpt>
      <trkpt lat="43.49732" lon="-1.27557">
        <ele>32.6</ele>
        <time>2022-09-11T12:27:14Z</time>
      </trkpt>
      <trkpt lat="43.49737" lon="-1.27627">
        <ele>32.4</ele>
        <time>2022-09-11T12:27:23Z</time>
      </trkpt>
      <trkpt lat="43.49738" lon="-1.27677">
        <ele>32.4</ele>
        <time>2022-09-11T12:27:30Z</time>
      </trkpt>
      <trkpt lat="43.49743" lon="-1.27742">
        <ele>32.6</ele>
        <time>2022-09-11T12:27:39Z</time>
      </trkpt>
      <trkpt lat="43.49747" lon="-1.27803">
        <ele>32.6</ele>
        <time>2022-09-11T12:27:47Z</time>
      </trkpt>
      <trkpt lat="43.49754" lon="-1.27854">
        <ele>32.6</ele>
        <time>2022-09-11T12:27:54Z</time>
      </trkpt>
      <trkpt lat="43.4976" lon="-1.27912">
        <ele>32.8</ele>
        <time>2022-09-11T12:28:02Z</time>
      </trkpt>
      <trkpt lat="43.49764" lon="-1.27971">
        <ele>32.8</ele>
        <time>2022-09-11T12:28:10Z</time>
      </trkpt>
      <trkpt lat="43.4977" lon="-1.28027">
        <ele>32.8</ele>
        <time>2022-09-11T12:28:18Z</time>
      </trkpt>
      <trkpt lat="43.49771" lon="-1.28085">
        <ele>32.8</ele>
        <time>2022-09-11T12:28:26Z</time>
      </trkpt>
      <trkpt lat="43.49767" lon="-1.28143">
        <ele>32.8</ele>
        <time>2022-09-11T12:28:34Z</time>
      </trkpt>
      <trkpt lat="43.49761" lon="-1.28207">
        <ele>32.8</ele>
        <time>2022-09-11T12:28:43Z</time>
      </trkpt>
      <trkpt lat="43.49759" lon="-1.28238">
        <ele>32.8</ele>
        <time>2022-09-11T12:28:48Z</time>
      </trkpt>
      <trkpt lat="43.49754" lon="-1.28283">
        <ele>32.8</ele>
        <time>2022-09-11T12:28:54Z</time>
      </trkpt>
      <trkpt lat="43.49742" lon="-1.28353">
        <ele>32.8</ele>
        <time>2022-09-11T12:29:03Z</time>
      </trkpt>
      <trkpt lat="43.49727" lon="-1.28428">
        <ele>33.2</ele>
        <time>2022-09-11T12:29:13Z</time>
      </trkpt>
      <trkpt lat="43.49725" lon="-1.28435">
        <ele>33</ele>
        <time>2022-09-11T12:29:14Z</time>
      </trkpt>
      <trkpt lat="43.49715" lon="-1.28482">
        <ele>32.6</ele>
        <time>2022-09-11T12:29:21Z</time>
      </trkpt>
      <trkpt lat="43.49701" lon="-1.28538">
        <ele>32.8</ele>
        <time>2022-09-11T12:29:29Z</time>
      </trkpt>
      <trkpt lat="43.49679" lon="-1.28597">
        <ele>32.8</ele>
        <time>2022-09-11T12:29:38Z</time>
      </trkpt>
      <trkpt lat="43.49659" lon="-1.28646">
        <ele>32.6</ele>
        <time>2022-09-11T12:29:46Z</time>
      </trkpt>
      <trkpt lat="43.4964" lon="-1.28691">
        <ele>32.8</ele>
        <time>2022-09-11T12:29:53Z</time>
      </trkpt>
      <trkpt lat="43.49637" lon="-1.28696">
        <ele>32.6</ele>
        <time>2022-09-11T12:29:54Z</time>
      </trkpt>
      <trkpt lat="43.49617" lon="-1.28736">
        <ele>32.6</ele>
        <time>2022-09-11T12:30:01Z</time>
      </trkpt>
      <trkpt lat="43.49615" lon="-1.28742">
        <ele>32.6</ele>
        <time>2022-09-11T12:30:02Z</time>
      </trkpt>
      <trkpt lat="43.49611" lon="-1.28766">
        <ele>32.6</ele>
        <time>2022-09-11T12:30:06Z</time>
      </trkpt>
      <trkpt lat="43.49611" lon="-1.28777">
        <ele>32.8</ele>
        <time>2022-09-11T12:30:08Z</time>
      </trkpt>
      <trkpt lat="43.49607" lon="-1.28806">
        <ele>32.2</ele>
        <time>2022-09-11T12:30:14Z</time>
      </trkpt>
      <trkpt lat="43.49607" lon="-1.28818">
        <ele>32.2</ele>
        <time>2022-09-11T12:32:04Z</time>
      </trkpt>
      <trkpt lat="43.49607" lon="-1.28824">
        <ele>32.2</ele>
        <time>2022-09-11T12:32:06Z</time>
      </trkpt>
      <trkpt lat="43.49608" lon="-1.28849">
        <ele>32.2</ele>
        <time>2022-09-11T12:32:12Z</time>
      </trkpt>
      <trkpt lat="43.49607" lon="-1.28885">
        <ele>32.2</ele>
        <time>2022-09-11T12:32:19Z</time>
      </trkpt>
      <trkpt lat="43.49608" lon="-1.28924">
        <ele>32.2</ele>
        <time>2022-09-11T12:32:26Z</time>
      </trkpt>
      <trkpt lat="43.49609" lon="-1.28958">
        <ele>32.2</ele>
        <time>2022-09-11T12:32:32Z</time>
      </trkpt>
      <trkpt lat="43.49609" lon="-1.28964">
        <ele>32.4</ele>
        <time>2022-09-11T12:32:33Z</time>
      </trkpt>
      <trkpt lat="43.4961" lon="-1.28976">
        <ele>32.6</ele>
        <time>2022-09-11T12:32:35Z</time>
      </trkpt>
      <trkpt lat="43.49613" lon="-1.28994">
        <ele>32.6</ele>
        <time>2022-09-11T12:32:38Z</time>
      </trkpt>
      <trkpt lat="43.49621" lon="-1.29025">
        <ele>32.6</ele>
        <time>2022-09-11T12:32:43Z</time>
      </trkpt>
      <trkpt lat="43.49626" lon="-1.29035">
        <ele>32.8</ele>
        <time>2022-09-11T12:32:45Z</time>
      </trkpt>
      <trkpt lat="43.49634" lon="-1.2905">
        <ele>32.6</ele>
        <time>2022-09-11T12:32:48Z</time>
      </trkpt>
      <trkpt lat="43.49639" lon="-1.29071">
        <ele>32.2</ele>
        <time>2022-09-11T12:32:51Z</time>
      </trkpt>
      <trkpt lat="43.49641" lon="-1.29078">
        <ele>32.4</ele>
        <time>2022-09-11T12:32:52Z</time>
      </trkpt>
      <trkpt lat="43.49655" lon="-1.29124">
        <ele>32.4</ele>
        <time>2022-09-11T12:32:59Z</time>
      </trkpt>
      <trkpt lat="43.49668" lon="-1.2917">
        <ele>32.6</ele>
        <time>2022-09-11T12:33:06Z</time>
      </trkpt>
      <trkpt lat="43.49683" lon="-1.29215">
        <ele>32.2</ele>
        <time>2022-09-11T12:33:14Z</time>
      </trkpt>
      <trkpt lat="43.49694" lon="-1.29245">
        <ele>32.4</ele>
        <time>2022-09-11T12:33:20Z</time>
      </trkpt>
      <trkpt lat="43.49706" lon="-1.29274">
        <ele>32.4</ele>
        <time>2022-09-11T12:33:27Z</time>
      </trkpt>
      <trkpt lat="43.49717" lon="-1.29285">
        <ele>32.6</ele>
        <time>2022-09-11T12:33:32Z</time>
      </trkpt>
      <trkpt lat="43.49719" lon="-1.29301">
        <ele>33</ele>
        <time>2022-09-11T12:33:36Z</time>
      </trkpt>
      <trkpt lat="43.4972" lon="-1.29311">
        <ele>33.4</ele>
        <time>2022-09-11T12:33:38Z</time>
      </trkpt>
      <trkpt lat="43.49723" lon="-1.29336">
        <ele>34.2</ele>
        <time>2022-09-11T12:33:44Z</time>
      </trkpt>
      <trkpt lat="43.49724" lon="-1.29348">
        <ele>34.4</ele>
        <time>2022-09-11T12:33:47Z</time>
      </trkpt>
      <trkpt lat="43.49726" lon="-1.29379">
        <ele>34.4</ele>
        <time>2022-09-11T12:33:54Z</time>
      </trkpt>
      <trkpt lat="43.49728" lon="-1.29419">
        <ele>34.2</ele>
        <time>2022-09-11T12:34:02Z</time>
      </trkpt>
      <trkpt lat="43.49726" lon="-1.29433">
        <ele>34.4</ele>
        <time>2022-09-11T12:34:07Z</time>
      </trkpt>
      <trkpt lat="43.49719" lon="-1.2943">
        <ele>34.8</ele>
        <time>2022-09-11T12:34:11Z</time>
      </trkpt>
      <trkpt lat="43.49713" lon="-1.29424">
        <ele>35</ele>
        <time>2022-09-11T12:34:17Z</time>
      </trkpt>
      <trkpt lat="43.49706" lon="-1.29407">
        <ele>34.6</ele>
        <time>2022-09-11T12:34:22Z</time>
      </trkpt>
      <trkpt lat="43.49702" lon="-1.29389">
        <ele>33.4</ele>
        <time>2022-09-11T12:34:26Z</time>
      </trkpt>
      <trkpt lat="43.497" lon="-1.29384">
        <ele>33.2</ele>
        <time>2022-09-11T12:34:27Z</time>
      </trkpt>
      <trkpt lat="43.49693" lon="-1.29372">
        <ele>32.4</ele>
        <time>2022-09-11T12:34:31Z</time>
      </trkpt>
      <trkpt lat="43.49692" lon="-1.2937">
        <ele>32.2</ele>
        <time>2022-09-11T12:34:33Z</time>
      </trkpt>
      <trkpt lat="43.49688" lon="-1.29364">
        <ele>32</ele>
        <time>2022-09-11T12:35:43Z</time>
      </trkpt>
      <trkpt lat="43.49685" lon="-1.29357">
        <ele>32.2</ele>
        <time>2022-09-11T12:35:46Z</time>
      </trkpt>
      <trkpt lat="43.49687" lon="-1.2936">
        <ele>33</ele>
        <time>2022-09-11T12:39:40Z</time>
      </trkpt>
      <trkpt lat="43.4969" lon="-1.29365">
        <ele>33</ele>
        <time>2022-09-11T12:39:42Z</time>
      </trkpt>
      <trkpt lat="43.49693" lon="-1.29371">
        <ele>32.8</ele>
        <time>2022-09-11T12:39:44Z</time>
      </trkpt>
      <trkpt lat="43.49701" lon="-1.29389">
        <ele>33.4</ele>
        <time>2022-09-11T12:39:50Z</time>
      </trkpt>
      <trkpt lat="43.49706" lon="-1.29402">
        <ele>34.4</ele>
        <time>2022-09-11T12:39:55Z</time>
      </trkpt>
      <trkpt lat="43.49708" lon="-1.29409">
        <ele>34.8</ele>
        <time>2022-09-11T12:39:58Z</time>
      </trkpt>
      <trkpt lat="43.49712" lon="-1.29421">
        <ele>35.6</ele>
        <time>2022-09-11T12:40:04Z</time>
      </trkpt>
      <trkpt lat="43.49715" lon="-1.29425">
        <ele>35.8</ele>
        <time>2022-09-11T12:40:07Z</time>
      </trkpt>
      <trkpt lat="43.49723" lon="-1.2943">
        <ele>36</ele>
        <time>2022-09-11T12:40:13Z</time>
      </trkpt>
      <trkpt lat="43.49728" lon="-1.29431">
        <ele>35.4</ele>
        <time>2022-09-11T12:40:19Z</time>
      </trkpt>
      <trkpt lat="43.49729" lon="-1.29433">
        <ele>35.4</ele>
        <time>2022-09-11T12:40:20Z</time>
      </trkpt>
      <trkpt lat="43.49737" lon="-1.29443">
        <ele>35.6</ele>
        <time>2022-09-11T12:40:24Z</time>
      </trkpt>
      <trkpt lat="43.49752" lon="-1.29469">
        <ele>36</ele>
        <time>2022-09-11T12:40:32Z</time>
      </trkpt>
      <trkpt lat="43.49764" lon="-1.29491">
        <ele>36.6</ele>
        <time>2022-09-11T12:40:38Z</time>
      </trkpt>
      <trkpt lat="43.49776" lon="-1.29513">
        <ele>37.6</ele>
        <time>2022-09-11T12:40:45Z</time>
      </trkpt>
      <trkpt lat="43.49778" lon="-1.29516">
        <ele>37.8</ele>
        <time>2022-09-11T12:40:46Z</time>
      </trkpt>
      <trkpt lat="43.4979" lon="-1.29536">
        <ele>38.6</ele>
        <time>2022-09-11T12:40:53Z</time>
      </trkpt>
      <trkpt lat="43.49793" lon="-1.29541">
        <ele>38.8</ele>
        <time>2022-09-11T12:40:55Z</time>
      </trkpt>
      <trkpt lat="43.49804" lon="-1.29559">
        <ele>39.4</ele>
        <time>2022-09-11T12:41:02Z</time>
      </trkpt>
      <trkpt lat="43.4981" lon="-1.29568">
        <ele>40</ele>
        <time>2022-09-11T12:41:06Z</time>
      </trkpt>
      <trkpt lat="43.49816" lon="-1.29573">
        <ele>40.6</ele>
        <time>2022-09-11T12:41:10Z</time>
      </trkpt>
      <trkpt lat="43.49819" lon="-1.29571">
        <ele>40.8</ele>
        <time>2022-09-11T12:41:11Z</time>
      </trkpt>
      <trkpt lat="43.49822" lon="-1.29568">
        <ele>41</ele>
        <time>2022-09-11T12:41:12Z</time>
      </trkpt>
      <trkpt lat="43.49824" lon="-1.29564">
        <ele>41.4</ele>
        <time>2022-09-11T12:41:13Z</time>
      </trkpt>
      <trkpt lat="43.49845" lon="-1.29537">
        <ele>40.8</ele>
        <time>2022-09-11T12:41:20Z</time>
      </trkpt>
      <trkpt lat="43.49881" lon="-1.29495">
        <ele>41</ele>
        <time>2022-09-11T12:41:30Z</time>
      </trkpt>
      <trkpt lat="43.49919" lon="-1.29451">
        <ele>40.6</ele>
        <time>2022-09-11T12:41:40Z</time>
      </trkpt>
      <trkpt lat="43.49943" lon="-1.29424">
        <ele>40.4</ele>
        <time>2022-09-11T12:41:47Z</time>
      </trkpt>
      <trkpt lat="43.49959" lon="-1.29404">
        <ele>39.4</ele>
        <time>2022-09-11T12:41:51Z</time>
      </trkpt>
      <trkpt lat="43.4997" lon="-1.29394">
        <ele>38.6</ele>
        <time>2022-09-11T12:41:53Z</time>
      </trkpt>
      <trkpt lat="43.49987" lon="-1.29378">
        <ele>38.4</ele>
        <time>2022-09-11T12:41:56Z</time>
      </trkpt>
      <trkpt lat="43.50006" lon="-1.29365">
        <ele>37.4</ele>
        <time>2022-09-11T12:41:59Z</time>
      </trkpt>
      <trkpt lat="43.50013" lon="-1.29361">
        <ele>37.4</ele>
        <time>2022-09-11T12:42:00Z</time>
      </trkpt>
      <trkpt lat="43.50049" lon="-1.29347">
        <ele>36.6</ele>
        <time>2022-09-11T12:42:05Z</time>
      </trkpt>
      <trkpt lat="43.50055" lon="-1.29345">
        <ele>36.4</ele>
        <time>2022-09-11T12:42:06Z</time>
      </trkpt>
      <trkpt lat="43.50065" lon="-1.29342">
        <ele>35.2</ele>
        <time>2022-09-11T12:42:08Z</time>
      </trkpt>
      <trkpt lat="43.50073" lon="-1.29338">
        <ele>34</ele>
        <time>2022-09-11T12:42:10Z</time>
      </trkpt>
      <trkpt lat="43.50081" lon="-1.29335">
        <ele>33.2</ele>
        <time>2022-09-11T12:42:14Z</time>
      </trkpt>
      <trkpt lat="43.50081" lon="-1.29335">
        <ele>32.8</ele>
        <time>2022-09-11T12:42:15Z</time>
      </trkpt>
      <trkpt lat="43.50086" lon="-1.29335">
        <ele>33.2</ele>
        <time>2022-09-11T12:42:44Z</time>
      </trkpt>
      <trkpt lat="43.50089" lon="-1.29334">
        <ele>33.4</ele>
        <time>2022-09-11T12:42:45Z</time>
      </trkpt>
      <trkpt lat="43.50095" lon="-1.29332">
        <ele>33.8</ele>
        <time>2022-09-11T12:42:47Z</time>
      </trkpt>
      <trkpt lat="43.5011" lon="-1.29326">
        <ele>33.4</ele>
        <time>2022-09-11T12:42:51Z</time>
      </trkpt>
      <trkpt lat="43.50147" lon="-1.29314">
        <ele>33</ele>
        <time>2022-09-11T12:42:59Z</time>
      </trkpt>
      <trkpt lat="43.50177" lon="-1.29304">
        <ele>32.8</ele>
        <time>2022-09-11T12:43:05Z</time>
      </trkpt>
      <trkpt lat="43.50187" lon="-1.29301">
        <ele>33</ele>
        <time>2022-09-11T12:43:07Z</time>
      </trkpt>
      <trkpt lat="43.50232" lon="-1.29286">
        <ele>33</ele>
        <time>2022-09-11T12:43:16Z</time>
      </trkpt>
      <trkpt lat="43.50272" lon="-1.29275">
        <ele>32.4</ele>
        <time>2022-09-11T12:43:24Z</time>
      </trkpt>
      <trkpt lat="43.50304" lon="-1.29262">
        <ele>32.4</ele>
        <time>2022-09-11T12:43:31Z</time>
      </trkpt>
      <trkpt lat="43.50312" lon="-1.29274">
        <ele>32.2</ele>
        <time>2022-09-11T12:43:34Z</time>
      </trkpt>
      <trkpt lat="43.50314" lon="-1.29294">
        <ele>32.4</ele>
        <time>2022-09-11T12:43:37Z</time>
      </trkpt>
      <trkpt lat="43.50311" lon="-1.29355">
        <ele>32.2</ele>
        <time>2022-09-11T12:43:45Z</time>
      </trkpt>
      <trkpt lat="43.5031" lon="-1.29428">
        <ele>32.4</ele>
        <time>2022-09-11T12:43:54Z</time>
      </trkpt>
      <trkpt lat="43.50311" lon="-1.29499">
        <ele>32.4</ele>
        <time>2022-09-11T12:44:03Z</time>
      </trkpt>
      <trkpt lat="43.50313" lon="-1.2956">
        <ele>32.4</ele>
        <time>2022-09-11T12:44:11Z</time>
      </trkpt>
      <trkpt lat="43.50314" lon="-1.29616">
        <ele>32.8</ele>
        <time>2022-09-11T12:44:18Z</time>
      </trkpt>
      <trkpt lat="43.50308" lon="-1.29681">
        <ele>32.6</ele>
        <time>2022-09-11T12:44:26Z</time>
      </trkpt>
      <trkpt lat="43.50301" lon="-1.2975">
        <ele>32.6</ele>
        <time>2022-09-11T12:44:35Z</time>
      </trkpt>
      <trkpt lat="43.50308" lon="-1.29779">
        <ele>32.8</ele>
        <time>2022-09-11T12:44:39Z</time>
      </trkpt>
      <trkpt lat="43.50315" lon="-1.2979">
        <ele>32.8</ele>
        <time>2022-09-11T12:44:41Z</time>
      </trkpt>
      <trkpt lat="43.50326" lon="-1.29806">
        <ele>33.2</ele>
        <time>2022-09-11T12:44:44Z</time>
      </trkpt>
      <trkpt lat="43.50331" lon="-1.29818">
        <ele>33.2</ele>
        <time>2022-09-11T12:44:46Z</time>
      </trkpt>
      <trkpt lat="43.50334" lon="-1.29832">
        <ele>33.2</ele>
        <time>2022-09-11T12:44:48Z</time>
      </trkpt>
      <trkpt lat="43.50335" lon="-1.29839">
        <ele>33.2</ele>
        <time>2022-09-11T12:44:49Z</time>
      </trkpt>
      <trkpt lat="43.5034" lon="-1.29866">
        <ele>33</ele>
        <time>2022-09-11T12:44:53Z</time>
      </trkpt>
      <trkpt lat="43.50349" lon="-1.29928">
        <ele>33.2</ele>
        <time>2022-09-11T12:45:02Z</time>
      </trkpt>
      <trkpt lat="43.50351" lon="-1.29949">
        <ele>33.2</ele>
        <time>2022-09-11T12:45:05Z</time>
      </trkpt>
      <trkpt lat="43.50354" lon="-1.29969">
        <ele>33.2</ele>
        <time>2022-09-11T12:45:08Z</time>
      </trkpt>
      <trkpt lat="43.50366" lon="-1.30023">
        <ele>33</ele>
        <time>2022-09-11T12:45:15Z</time>
      </trkpt>
      <trkpt lat="43.50371" lon="-1.30038">
        <ele>32.8</ele>
        <time>2022-09-11T12:45:17Z</time>
      </trkpt>
      <trkpt lat="43.50382" lon="-1.30083">
        <ele>33</ele>
        <time>2022-09-11T12:45:23Z</time>
      </trkpt>
      <trkpt lat="43.50383" lon="-1.3009">
        <ele>33</ele>
        <time>2022-09-11T12:45:24Z</time>
      </trkpt>
      <trkpt lat="43.50378" lon="-1.30121">
        <ele>33.4</ele>
        <time>2022-09-11T12:45:28Z</time>
      </trkpt>
      <trkpt lat="43.50363" lon="-1.30144">
        <ele>33.2</ele>
        <time>2022-09-11T12:45:32Z</time>
      </trkpt>
      <trkpt lat="43.5036" lon="-1.30149">
        <ele>33.2</ele>
        <time>2022-09-11T12:45:33Z</time>
      </trkpt>
      <trkpt lat="43.50353" lon="-1.3017">
        <ele>33.2</ele>
        <time>2022-09-11T12:45:36Z</time>
      </trkpt>
      <trkpt lat="43.50353" lon="-1.30185">
        <ele>33.4</ele>
        <time>2022-09-11T12:45:38Z</time>
      </trkpt>
      <trkpt lat="43.50355" lon="-1.30201">
        <ele>33.4</ele>
        <time>2022-09-11T12:45:40Z</time>
      </trkpt>
      <trkpt lat="43.50359" lon="-1.30223">
        <ele>33.2</ele>
        <time>2022-09-11T12:45:43Z</time>
      </trkpt>
      <trkpt lat="43.50364" lon="-1.30244">
        <ele>33.2</ele>
        <time>2022-09-11T12:45:46Z</time>
      </trkpt>
      <trkpt lat="43.50372" lon="-1.30297">
        <ele>33.4</ele>
        <time>2022-09-11T12:45:53Z</time>
      </trkpt>
      <trkpt lat="43.50382" lon="-1.30358">
        <ele>33.4</ele>
        <time>2022-09-11T12:46:01Z</time>
      </trkpt>
      <trkpt lat="43.50394" lon="-1.30436">
        <ele>33</ele>
        <time>2022-09-11T12:46:11Z</time>
      </trkpt>
      <trkpt lat="43.50402" lon="-1.30498">
        <ele>33.2</ele>
        <time>2022-09-11T12:46:19Z</time>
      </trkpt>
      <trkpt lat="43.50413" lon="-1.30565">
        <ele>33</ele>
        <time>2022-09-11T12:46:28Z</time>
      </trkpt>
      <trkpt lat="43.50416" lon="-1.30612">
        <ele>33.2</ele>
        <time>2022-09-11T12:46:34Z</time>
      </trkpt>
      <trkpt lat="43.50422" lon="-1.30692">
        <ele>33.2</ele>
        <time>2022-09-11T12:46:44Z</time>
      </trkpt>
      <trkpt lat="43.50426" lon="-1.30753">
        <ele>33.6</ele>
        <time>2022-09-11T12:46:52Z</time>
      </trkpt>
      <trkpt lat="43.50428" lon="-1.30808">
        <ele>33.2</ele>
        <time>2022-09-11T12:46:59Z</time>
      </trkpt>
      <trkpt lat="43.50431" lon="-1.30884">
        <ele>33.8</ele>
        <time>2022-09-11T12:47:08Z</time>
      </trkpt>
      <trkpt lat="43.50431" lon="-1.30893">
        <ele>33.6</ele>
        <time>2022-09-11T12:47:09Z</time>
      </trkpt>
      <trkpt lat="43.50434" lon="-1.30974">
        <ele>33.4</ele>
        <time>2022-09-11T12:47:18Z</time>
      </trkpt>
      <trkpt lat="43.50434" lon="-1.30992">
        <ele>33.6</ele>
        <time>2022-09-11T12:47:20Z</time>
      </trkpt>
      <trkpt lat="43.5044" lon="-1.31062">
        <ele>33</ele>
        <time>2022-09-11T12:47:28Z</time>
      </trkpt>
      <trkpt lat="43.5045" lon="-1.31138">
        <ele>33.2</ele>
        <time>2022-09-11T12:47:37Z</time>
      </trkpt>
      <trkpt lat="43.50459" lon="-1.31206">
        <ele>33.2</ele>
        <time>2022-09-11T12:47:45Z</time>
      </trkpt>
      <trkpt lat="43.50468" lon="-1.31281">
        <ele>33.2</ele>
        <time>2022-09-11T12:47:54Z</time>
      </trkpt>
      <trkpt lat="43.50469" lon="-1.3129">
        <ele>33.4</ele>
        <time>2022-09-11T12:47:55Z</time>
      </trkpt>
      <trkpt lat="43.50477" lon="-1.31356">
        <ele>33.2</ele>
        <time>2022-09-11T12:48:03Z</time>
      </trkpt>
      <trkpt lat="43.50488" lon="-1.31422">
        <ele>33.2</ele>
        <time>2022-09-11T12:48:12Z</time>
      </trkpt>
      <trkpt lat="43.50495" lon="-1.31485">
        <ele>33.4</ele>
        <time>2022-09-11T12:48:20Z</time>
      </trkpt>
      <trkpt lat="43.50496" lon="-1.31567">
        <ele>33.6</ele>
        <time>2022-09-11T12:48:30Z</time>
      </trkpt>
      <trkpt lat="43.50498" lon="-1.31624">
        <ele>33.4</ele>
        <time>2022-09-11T12:48:37Z</time>
      </trkpt>
      <trkpt lat="43.50503" lon="-1.31675">
        <ele>33</ele>
        <time>2022-09-11T12:48:44Z</time>
      </trkpt>
      <trkpt lat="43.5051" lon="-1.3172">
        <ele>33.2</ele>
        <time>2022-09-11T12:48:50Z</time>
      </trkpt>
      <trkpt lat="43.50518" lon="-1.31789">
        <ele>33.6</ele>
        <time>2022-09-11T12:48:59Z</time>
      </trkpt>
      <trkpt lat="43.50519" lon="-1.31804">
        <ele>33.2</ele>
        <time>2022-09-11T12:49:01Z</time>
      </trkpt>
      <trkpt lat="43.50523" lon="-1.31839">
        <ele>33.2</ele>
        <time>2022-09-11T12:49:06Z</time>
      </trkpt>
      <trkpt lat="43.50531" lon="-1.31904">
        <ele>33.2</ele>
        <time>2022-09-11T12:49:15Z</time>
      </trkpt>
      <trkpt lat="43.50538" lon="-1.3195">
        <ele>33</ele>
        <time>2022-09-11T12:49:22Z</time>
      </trkpt>
      <trkpt lat="43.50545" lon="-1.32009">
        <ele>33.2</ele>
        <time>2022-09-11T12:49:31Z</time>
      </trkpt>
      <trkpt lat="43.50551" lon="-1.32061">
        <ele>33.4</ele>
        <time>2022-09-11T12:49:39Z</time>
      </trkpt>
      <trkpt lat="43.50561" lon="-1.32135">
        <ele>33.6</ele>
        <time>2022-09-11T12:49:50Z</time>
      </trkpt>
      <trkpt lat="43.50562" lon="-1.32141">
        <ele>33.6</ele>
        <time>2022-09-11T12:49:51Z</time>
      </trkpt>
      <trkpt lat="43.50564" lon="-1.32148">
        <ele>33.8</ele>
        <time>2022-09-11T12:49:52Z</time>
      </trkpt>
      <trkpt lat="43.50567" lon="-1.32159">
        <ele>33.8</ele>
        <time>2022-09-11T12:49:54Z</time>
      </trkpt>
      <trkpt lat="43.50573" lon="-1.32175">
        <ele>33.8</ele>
        <time>2022-09-11T12:49:57Z</time>
      </trkpt>
      <trkpt lat="43.50581" lon="-1.32204">
        <ele>33.6</ele>
        <time>2022-09-11T12:50:03Z</time>
      </trkpt>
      <trkpt lat="43.50583" lon="-1.32227">
        <ele>33.8</ele>
        <time>2022-09-11T12:50:07Z</time>
      </trkpt>
      <trkpt lat="43.50582" lon="-1.32239">
        <ele>33.6</ele>
        <time>2022-09-11T12:50:09Z</time>
      </trkpt>
      <trkpt lat="43.50576" lon="-1.32283">
        <ele>33.8</ele>
        <time>2022-09-11T12:50:16Z</time>
      </trkpt>
      <trkpt lat="43.50574" lon="-1.32326">
        <ele>33.8</ele>
        <time>2022-09-11T12:50:23Z</time>
      </trkpt>
      <trkpt lat="43.50575" lon="-1.32332">
        <ele>33.8</ele>
        <time>2022-09-11T12:50:24Z</time>
      </trkpt>
      <trkpt lat="43.50578" lon="-1.3235">
        <ele>33.8</ele>
        <time>2022-09-11T12:50:28Z</time>
      </trkpt>
      <trkpt lat="43.5058" lon="-1.32368">
        <ele>33.6</ele>
        <time>2022-09-11T12:50:32Z</time>
      </trkpt>
      <trkpt lat="43.50581" lon="-1.32399">
        <ele>33.8</ele>
        <time>2022-09-11T12:50:38Z</time>
      </trkpt>
      <trkpt lat="43.50583" lon="-1.32417">
        <ele>33.4</ele>
        <time>2022-09-11T12:50:44Z</time>
      </trkpt>
      <trkpt lat="43.50583" lon="-1.32427">
        <ele>33.4</ele>
        <time>2022-09-11T12:52:19Z</time>
      </trkpt>
      <trkpt lat="43.50582" lon="-1.32431">
        <ele>33.4</ele>
        <time>2022-09-11T12:52:21Z</time>
      </trkpt>
      <trkpt lat="43.50582" lon="-1.32452">
        <ele>33.8</ele>
        <time>2022-09-11T12:52:26Z</time>
      </trkpt>
      <trkpt lat="43.50586" lon="-1.32484">
        <ele>33.8</ele>
        <time>2022-09-11T12:52:32Z</time>
      </trkpt>
      <trkpt lat="43.50589" lon="-1.32506">
        <ele>33.8</ele>
        <time>2022-09-11T12:52:36Z</time>
      </trkpt>
      <trkpt lat="43.50588" lon="-1.32517">
        <ele>33.8</ele>
        <time>2022-09-11T12:52:38Z</time>
      </trkpt>
      <trkpt lat="43.50582" lon="-1.32539">
        <ele>34</ele>
        <time>2022-09-11T12:52:42Z</time>
      </trkpt>
      <trkpt lat="43.5058" lon="-1.32544">
        <ele>34</ele>
        <time>2022-09-11T12:52:43Z</time>
      </trkpt>
      <trkpt lat="43.50565" lon="-1.32591">
        <ele>33.8</ele>
        <time>2022-09-11T12:52:51Z</time>
      </trkpt>
      <trkpt lat="43.50561" lon="-1.32609">
        <ele>34</ele>
        <time>2022-09-11T12:52:54Z</time>
      </trkpt>
      <trkpt lat="43.50559" lon="-1.32622">
        <ele>34.2</ele>
        <time>2022-09-11T12:52:56Z</time>
      </trkpt>
      <trkpt lat="43.50551" lon="-1.32671">
        <ele>34.2</ele>
        <time>2022-09-11T12:53:03Z</time>
      </trkpt>
      <trkpt lat="43.50539" lon="-1.32719">
        <ele>34.4</ele>
        <time>2022-09-11T12:53:10Z</time>
      </trkpt>
      <trkpt lat="43.50536" lon="-1.32751">
        <ele>34.2</ele>
        <time>2022-09-11T12:53:15Z</time>
      </trkpt>
      <trkpt lat="43.50532" lon="-1.3279">
        <ele>34.4</ele>
        <time>2022-09-11T12:53:21Z</time>
      </trkpt>
      <trkpt lat="43.50526" lon="-1.32841">
        <ele>34.2</ele>
        <time>2022-09-11T12:53:28Z</time>
      </trkpt>
      <trkpt lat="43.5052" lon="-1.3289">
        <ele>34.6</ele>
        <time>2022-09-11T12:53:34Z</time>
      </trkpt>
      <trkpt lat="43.50514" lon="-1.32928">
        <ele>34.4</ele>
        <time>2022-09-11T12:53:39Z</time>
      </trkpt>
      <trkpt lat="43.50512" lon="-1.32936">
        <ele>34.4</ele>
        <time>2022-09-11T12:53:40Z</time>
      </trkpt>
      <trkpt lat="43.50499" lon="-1.33006">
        <ele>34.4</ele>
        <time>2022-09-11T12:53:49Z</time>
      </trkpt>
      <trkpt lat="43.5049" lon="-1.33053">
        <ele>34.6</ele>
        <time>2022-09-11T12:53:55Z</time>
      </trkpt>
      <trkpt lat="43.50479" lon="-1.33113">
        <ele>34.6</ele>
        <time>2022-09-11T12:54:03Z</time>
      </trkpt>
      <trkpt lat="43.50464" lon="-1.33183">
        <ele>34.4</ele>
        <time>2022-09-11T12:54:12Z</time>
      </trkpt>
      <trkpt lat="43.50456" lon="-1.33228">
        <ele>34.2</ele>
        <time>2022-09-11T12:54:18Z</time>
      </trkpt>
      <trkpt lat="43.50451" lon="-1.33278">
        <ele>34.4</ele>
        <time>2022-09-11T12:54:25Z</time>
      </trkpt>
      <trkpt lat="43.50444" lon="-1.3333">
        <ele>34.4</ele>
        <time>2022-09-11T12:54:32Z</time>
      </trkpt>
      <trkpt lat="43.50441" lon="-1.33345">
        <ele>34.6</ele>
        <time>2022-09-11T12:54:34Z</time>
      </trkpt>
      <trkpt lat="43.50437" lon="-1.33375">
        <ele>34.6</ele>
        <time>2022-09-11T12:54:38Z</time>
      </trkpt>
      <trkpt lat="43.50434" lon="-1.33413">
        <ele>34.4</ele>
        <time>2022-09-11T12:54:43Z</time>
      </trkpt>
      <trkpt lat="43.50433" lon="-1.33438">
        <ele>34.6</ele>
        <time>2022-09-11T12:54:46Z</time>
      </trkpt>
      <trkpt lat="43.50429" lon="-1.33471">
        <ele>35</ele>
        <time>2022-09-11T12:54:50Z</time>
      </trkpt>
      <trkpt lat="43.50426" lon="-1.33502">
        <ele>34.6</ele>
        <time>2022-09-11T12:54:54Z</time>
      </trkpt>
      <trkpt lat="43.50418" lon="-1.33566">
        <ele>34.8</ele>
        <time>2022-09-11T12:55:02Z</time>
      </trkpt>
      <trkpt lat="43.50409" lon="-1.33636">
        <ele>34.8</ele>
        <time>2022-09-11T12:55:11Z</time>
      </trkpt>
      <trkpt lat="43.504" lon="-1.33688">
        <ele>34.4</ele>
        <time>2022-09-11T12:55:18Z</time>
      </trkpt>
      <trkpt lat="43.50398" lon="-1.33695">
        <ele>34.6</ele>
        <time>2022-09-11T12:55:19Z</time>
      </trkpt>
      <trkpt lat="43.50387" lon="-1.33711">
        <ele>34.8</ele>
        <time>2022-09-11T12:55:22Z</time>
      </trkpt>
      <trkpt lat="43.50382" lon="-1.33716">
        <ele>34.8</ele>
        <time>2022-09-11T12:55:23Z</time>
      </trkpt>
      <trkpt lat="43.50379" lon="-1.33722">
        <ele>35</ele>
        <time>2022-09-11T12:55:24Z</time>
      </trkpt>
      <trkpt lat="43.50371" lon="-1.33742">
        <ele>34.8</ele>
        <time>2022-09-11T12:55:27Z</time>
      </trkpt>
      <trkpt lat="43.50368" lon="-1.33758">
        <ele>34.4</ele>
        <time>2022-09-11T12:55:29Z</time>
      </trkpt>
      <trkpt lat="43.50366" lon="-1.33774">
        <ele>34.4</ele>
        <time>2022-09-11T12:55:31Z</time>
      </trkpt>
      <trkpt lat="43.50365" lon="-1.3379">
        <ele>34.6</ele>
        <time>2022-09-11T12:55:33Z</time>
      </trkpt>
      <trkpt lat="43.50356" lon="-1.33854">
        <ele>35</ele>
        <time>2022-09-11T12:55:41Z</time>
      </trkpt>
      <trkpt lat="43.50353" lon="-1.33869">
        <ele>34.8</ele>
        <time>2022-09-11T12:55:43Z</time>
      </trkpt>
      <trkpt lat="43.5035" lon="-1.339">
        <ele>34.8</ele>
        <time>2022-09-11T12:55:47Z</time>
      </trkpt>
      <trkpt lat="43.50343" lon="-1.33961">
        <ele>34.2</ele>
        <time>2022-09-11T12:55:55Z</time>
      </trkpt>
      <trkpt lat="43.50332" lon="-1.34029">
        <ele>34.4</ele>
        <time>2022-09-11T12:56:04Z</time>
      </trkpt>
      <trkpt lat="43.5032" lon="-1.34089">
        <ele>34.4</ele>
        <time>2022-09-11T12:56:12Z</time>
      </trkpt>
      <trkpt lat="43.50299" lon="-1.3416">
        <ele>34.4</ele>
        <time>2022-09-11T12:56:22Z</time>
      </trkpt>
      <trkpt lat="43.50295" lon="-1.34175">
        <ele>34.4</ele>
        <time>2022-09-11T12:56:24Z</time>
      </trkpt>
      <trkpt lat="43.50282" lon="-1.34225">
        <ele>34.6</ele>
        <time>2022-09-11T12:56:31Z</time>
      </trkpt>
      <trkpt lat="43.50272" lon="-1.34277">
        <ele>34.6</ele>
        <time>2022-09-11T12:56:38Z</time>
      </trkpt>
      <trkpt lat="43.5026" lon="-1.34303">
        <ele>34.8</ele>
        <time>2022-09-11T12:56:42Z</time>
      </trkpt>
      <trkpt lat="43.50256" lon="-1.3431">
        <ele>34.8</ele>
        <time>2022-09-11T12:56:43Z</time>
      </trkpt>
      <trkpt lat="43.50244" lon="-1.34335">
        <ele>34.6</ele>
        <time>2022-09-11T12:56:47Z</time>
      </trkpt>
      <trkpt lat="43.50239" lon="-1.34355">
        <ele>34.8</ele>
        <time>2022-09-11T12:56:50Z</time>
      </trkpt>
      <trkpt lat="43.50238" lon="-1.34361">
        <ele>34.6</ele>
        <time>2022-09-11T12:56:51Z</time>
      </trkpt>
      <trkpt lat="43.50231" lon="-1.3441">
        <ele>35</ele>
        <time>2022-09-11T12:56:58Z</time>
      </trkpt>
      <trkpt lat="43.50218" lon="-1.34463">
        <ele>35</ele>
        <time>2022-09-11T12:57:06Z</time>
      </trkpt>
      <trkpt lat="43.50204" lon="-1.34515">
        <ele>34.8</ele>
        <time>2022-09-11T12:57:14Z</time>
      </trkpt>
      <trkpt lat="43.50196" lon="-1.3457">
        <ele>34.8</ele>
        <time>2022-09-11T12:57:22Z</time>
      </trkpt>
      <trkpt lat="43.5018" lon="-1.34641">
        <ele>34.4</ele>
        <time>2022-09-11T12:57:32Z</time>
      </trkpt>
      <trkpt lat="43.50166" lon="-1.34712">
        <ele>34.4</ele>
        <time>2022-09-11T12:57:42Z</time>
      </trkpt>
      <trkpt lat="43.50154" lon="-1.34783">
        <ele>35.2</ele>
        <time>2022-09-11T12:57:52Z</time>
      </trkpt>
      <trkpt lat="43.50139" lon="-1.3485">
        <ele>35.4</ele>
        <time>2022-09-11T12:58:01Z</time>
      </trkpt>
      <trkpt lat="43.50124" lon="-1.34921">
        <ele>34.4</ele>
        <time>2022-09-11T12:58:10Z</time>
      </trkpt>
      <trkpt lat="43.50108" lon="-1.35">
        <ele>34.4</ele>
        <time>2022-09-11T12:58:20Z</time>
      </trkpt>
      <trkpt lat="43.50097" lon="-1.35076">
        <ele>34.6</ele>
        <time>2022-09-11T12:58:29Z</time>
      </trkpt>
      <trkpt lat="43.50096" lon="-1.35085">
        <ele>34.8</ele>
        <time>2022-09-11T12:58:30Z</time>
      </trkpt>
      <trkpt lat="43.50091" lon="-1.35152">
        <ele>34.6</ele>
        <time>2022-09-11T12:58:38Z</time>
      </trkpt>
      <trkpt lat="43.50088" lon="-1.35225">
        <ele>35</ele>
        <time>2022-09-11T12:58:47Z</time>
      </trkpt>
      <trkpt lat="43.50087" lon="-1.35293">
        <ele>34.6</ele>
        <time>2022-09-11T12:58:56Z</time>
      </trkpt>
      <trkpt lat="43.50085" lon="-1.35341">
        <ele>35</ele>
        <time>2022-09-11T12:59:03Z</time>
      </trkpt>
      <trkpt lat="43.50085" lon="-1.35396">
        <ele>35.4</ele>
        <time>2022-09-11T12:59:11Z</time>
      </trkpt>
      <trkpt lat="43.50085" lon="-1.3544">
        <ele>34.8</ele>
        <time>2022-09-11T12:59:17Z</time>
      </trkpt>
      <trkpt lat="43.50078" lon="-1.35494">
        <ele>35</ele>
        <time>2022-09-11T12:59:24Z</time>
      </trkpt>
      <trkpt lat="43.50071" lon="-1.35558">
        <ele>35</ele>
        <time>2022-09-11T12:59:33Z</time>
      </trkpt>
      <trkpt lat="43.50062" lon="-1.35617">
        <ele>34.8</ele>
        <time>2022-09-11T12:59:42Z</time>
      </trkpt>
      <trkpt lat="43.50048" lon="-1.35676">
        <ele>34.8</ele>
        <time>2022-09-11T12:59:50Z</time>
      </trkpt>
      <trkpt lat="43.50035" lon="-1.35742">
        <ele>34.6</ele>
        <time>2022-09-11T12:59:59Z</time>
      </trkpt>
      <trkpt lat="43.50024" lon="-1.35807">
        <ele>34.6</ele>
        <time>2022-09-11T13:00:08Z</time>
      </trkpt>
      <trkpt lat="43.50015" lon="-1.35866">
        <ele>34.6</ele>
        <time>2022-09-11T13:00:16Z</time>
      </trkpt>
      <trkpt lat="43.50005" lon="-1.35932">
        <ele>34.8</ele>
        <time>2022-09-11T13:00:25Z</time>
      </trkpt>
      <trkpt lat="43.49998" lon="-1.35981">
        <ele>34.8</ele>
        <time>2022-09-11T13:00:32Z</time>
      </trkpt>
      <trkpt lat="43.49991" lon="-1.36039">
        <ele>34.4</ele>
        <time>2022-09-11T13:00:40Z</time>
      </trkpt>
      <trkpt lat="43.49979" lon="-1.36095">
        <ele>34.4</ele>
        <time>2022-09-11T13:00:48Z</time>
      </trkpt>
      <trkpt lat="43.49962" lon="-1.36145">
        <ele>34.8</ele>
        <time>2022-09-11T13:00:56Z</time>
      </trkpt>
      <trkpt lat="43.49942" lon="-1.3619">
        <ele>34.4</ele>
        <time>2022-09-11T13:01:04Z</time>
      </trkpt>
      <trkpt lat="43.49922" lon="-1.36225">
        <ele>34.2</ele>
        <time>2022-09-11T13:01:12Z</time>
      </trkpt>
      <trkpt lat="43.4991" lon="-1.36245">
        <ele>34.4</ele>
        <time>2022-09-11T13:01:18Z</time>
      </trkpt>
      <trkpt lat="43.49906" lon="-1.36251">
        <ele>34.2</ele>
        <time>2022-09-11T13:01:22Z</time>
      </trkpt>
      <trkpt lat="43.49903" lon="-1.36256">
        <ele>34.8</ele>
        <time>2022-09-11T13:03:42Z</time>
      </trkpt>
      <trkpt lat="43.499" lon="-1.3626">
        <ele>34.8</ele>
        <time>2022-09-11T13:03:44Z</time>
      </trkpt>
      <trkpt lat="43.49885" lon="-1.3628">
        <ele>35</ele>
        <time>2022-09-11T13:03:51Z</time>
      </trkpt>
      <trkpt lat="43.4987" lon="-1.36304">
        <ele>35.2</ele>
        <time>2022-09-11T13:03:59Z</time>
      </trkpt>
      <trkpt lat="43.49855" lon="-1.36327">
        <ele>34.8</ele>
        <time>2022-09-11T13:04:08Z</time>
      </trkpt>
      <trkpt lat="43.4985" lon="-1.36334">
        <ele>35</ele>
        <time>2022-09-11T13:06:16Z</time>
      </trkpt>
      <trkpt lat="43.49847" lon="-1.36339">
        <ele>35</ele>
        <time>2022-09-11T13:06:18Z</time>
      </trkpt>
      <trkpt lat="43.49832" lon="-1.36359">
        <ele>35.2</ele>
        <time>2022-09-11T13:06:25Z</time>
      </trkpt>
      <trkpt lat="43.49813" lon="-1.36387">
        <ele>35.4</ele>
        <time>2022-09-11T13:06:33Z</time>
      </trkpt>
      <trkpt lat="43.49791" lon="-1.36419">
        <ele>35.2</ele>
        <time>2022-09-11T13:06:41Z</time>
      </trkpt>
      <trkpt lat="43.49764" lon="-1.3646">
        <ele>35.4</ele>
        <time>2022-09-11T13:06:50Z</time>
      </trkpt>
      <trkpt lat="43.49725" lon="-1.36518">
        <ele>35.8</ele>
        <time>2022-09-11T13:07:02Z</time>
      </trkpt>
      <trkpt lat="43.49722" lon="-1.36523">
        <ele>35.8</ele>
        <time>2022-09-11T13:07:03Z</time>
      </trkpt>
      <trkpt lat="43.49706" lon="-1.36546">
        <ele>36</ele>
        <time>2022-09-11T13:07:08Z</time>
      </trkpt>
      <trkpt lat="43.49697" lon="-1.36561">
        <ele>35.8</ele>
        <time>2022-09-11T13:07:11Z</time>
      </trkpt>
      <trkpt lat="43.49687" lon="-1.36584">
        <ele>35.8</ele>
        <time>2022-09-11T13:07:15Z</time>
      </trkpt>
      <trkpt lat="43.49681" lon="-1.36604">
        <ele>36</ele>
        <time>2022-09-11T13:07:18Z</time>
      </trkpt>
      <trkpt lat="43.4967" lon="-1.36657">
        <ele>36.2</ele>
        <time>2022-09-11T13:07:25Z</time>
      </trkpt>
      <trkpt lat="43.49663" lon="-1.36729">
        <ele>36</ele>
        <time>2022-09-11T13:07:34Z</time>
      </trkpt>
      <trkpt lat="43.49654" lon="-1.3681">
        <ele>35.8</ele>
        <time>2022-09-11T13:07:44Z</time>
      </trkpt>
      <trkpt lat="43.49647" lon="-1.36881">
        <ele>35.4</ele>
        <time>2022-09-11T13:07:53Z</time>
      </trkpt>
      <trkpt lat="43.49648" lon="-1.36927">
        <ele>35.8</ele>
        <time>2022-09-11T13:07:59Z</time>
      </trkpt>
      <trkpt lat="43.49651" lon="-1.36995">
        <ele>35.8</ele>
        <time>2022-09-11T13:08:08Z</time>
      </trkpt>
      <trkpt lat="43.49654" lon="-1.37059">
        <ele>35.6</ele>
        <time>2022-09-11T13:08:16Z</time>
      </trkpt>
      <trkpt lat="43.49658" lon="-1.37133">
        <ele>35.2</ele>
        <time>2022-09-11T13:08:25Z</time>
      </trkpt>
      <trkpt lat="43.49663" lon="-1.37198">
        <ele>35.4</ele>
        <time>2022-09-11T13:08:33Z</time>
      </trkpt>
      <trkpt lat="43.49671" lon="-1.37261">
        <ele>35.4</ele>
        <time>2022-09-11T13:08:41Z</time>
      </trkpt>
      <trkpt lat="43.4968" lon="-1.37338">
        <ele>36.2</ele>
        <time>2022-09-11T13:08:50Z</time>
      </trkpt>
      <trkpt lat="43.49689" lon="-1.37417">
        <ele>36</ele>
        <time>2022-09-11T13:08:59Z</time>
      </trkpt>
      <trkpt lat="43.4969" lon="-1.37426">
        <ele>36</ele>
        <time>2022-09-11T13:09:00Z</time>
      </trkpt>
      <trkpt lat="43.497" lon="-1.37503">
        <ele>35.8</ele>
        <time>2022-09-11T13:09:09Z</time>
      </trkpt>
      <trkpt lat="43.49709" lon="-1.3756">
        <ele>36</ele>
        <time>2022-09-11T13:09:16Z</time>
      </trkpt>
      <trkpt lat="43.49718" lon="-1.37641">
        <ele>35.8</ele>
        <time>2022-09-11T13:09:26Z</time>
      </trkpt>
      <trkpt lat="43.49728" lon="-1.37718">
        <ele>36</ele>
        <time>2022-09-11T13:09:35Z</time>
      </trkpt>
      <trkpt lat="43.49731" lon="-1.37734">
        <ele>35.8</ele>
        <time>2022-09-11T13:09:37Z</time>
      </trkpt>
      <trkpt lat="43.49743" lon="-1.37808">
        <ele>35.6</ele>
        <time>2022-09-11T13:09:46Z</time>
      </trkpt>
      <trkpt lat="43.49745" lon="-1.37816">
        <ele>35.8</ele>
        <time>2022-09-11T13:09:47Z</time>
      </trkpt>
      <trkpt lat="43.49758" lon="-1.3789">
        <ele>35.8</ele>
        <time>2022-09-11T13:09:56Z</time>
      </trkpt>
      <trkpt lat="43.4976" lon="-1.37897">
        <ele>36</ele>
        <time>2022-09-11T13:09:57Z</time>
      </trkpt>
      <trkpt lat="43.49772" lon="-1.37943">
        <ele>36.6</ele>
        <time>2022-09-11T13:10:04Z</time>
      </trkpt>
      <trkpt lat="43.49776" lon="-1.37961">
        <ele>36.6</ele>
        <time>2022-09-11T13:10:07Z</time>
      </trkpt>
      <trkpt lat="43.49777" lon="-1.3798">
        <ele>36.4</ele>
        <time>2022-09-11T13:10:10Z</time>
      </trkpt>
      <trkpt lat="43.4978" lon="-1.38042">
        <ele>36.2</ele>
        <time>2022-09-11T13:10:19Z</time>
      </trkpt>
      <trkpt lat="43.49782" lon="-1.38098">
        <ele>35.8</ele>
        <time>2022-09-11T13:10:27Z</time>
      </trkpt>
      <trkpt lat="43.49786" lon="-1.38157">
        <ele>35.8</ele>
        <time>2022-09-11T13:10:35Z</time>
      </trkpt>
      <trkpt lat="43.4979" lon="-1.38192">
        <ele>36</ele>
        <time>2022-09-11T13:10:40Z</time>
      </trkpt>
      <trkpt lat="43.49791" lon="-1.38207">
        <ele>36.2</ele>
        <time>2022-09-11T13:10:42Z</time>
      </trkpt>
      <trkpt lat="43.49793" lon="-1.38236">
        <ele>36.4</ele>
        <time>2022-09-11T13:10:46Z</time>
      </trkpt>
      <trkpt lat="43.49791" lon="-1.38258">
        <ele>36.4</ele>
        <time>2022-09-11T13:10:49Z</time>
      </trkpt>
      <trkpt lat="43.49792" lon="-1.38279">
        <ele>36.4</ele>
        <time>2022-09-11T13:10:52Z</time>
      </trkpt>
      <trkpt lat="43.49793" lon="-1.38294">
        <ele>36.4</ele>
        <time>2022-09-11T13:10:54Z</time>
      </trkpt>
      <trkpt lat="43.49798" lon="-1.38315">
        <ele>36.2</ele>
        <time>2022-09-11T13:10:57Z</time>
      </trkpt>
      <trkpt lat="43.498" lon="-1.38321">
        <ele>36.2</ele>
        <time>2022-09-11T13:10:58Z</time>
      </trkpt>
      <trkpt lat="43.49801" lon="-1.38328">
        <ele>36.2</ele>
        <time>2022-09-11T13:10:59Z</time>
      </trkpt>
      <trkpt lat="43.49801" lon="-1.38356">
        <ele>36.2</ele>
        <time>2022-09-11T13:11:03Z</time>
      </trkpt>
      <trkpt lat="43.49796" lon="-1.38423">
        <ele>36.4</ele>
        <time>2022-09-11T13:11:12Z</time>
      </trkpt>
      <trkpt lat="43.49796" lon="-1.38487">
        <ele>36.2</ele>
        <time>2022-09-11T13:11:20Z</time>
      </trkpt>
      <trkpt lat="43.49795" lon="-1.38539">
        <ele>36.2</ele>
        <time>2022-09-11T13:11:27Z</time>
      </trkpt>
      <trkpt lat="43.49791" lon="-1.38582">
        <ele>36.4</ele>
        <time>2022-09-11T13:11:33Z</time>
      </trkpt>
      <trkpt lat="43.49789" lon="-1.38624">
        <ele>36.2</ele>
        <time>2022-09-11T13:11:39Z</time>
      </trkpt>
      <trkpt lat="43.49789" lon="-1.38692">
        <ele>35.8</ele>
        <time>2022-09-11T13:11:48Z</time>
      </trkpt>
      <trkpt lat="43.49791" lon="-1.3877">
        <ele>35.8</ele>
        <time>2022-09-11T13:11:58Z</time>
      </trkpt>
      <trkpt lat="43.49791" lon="-1.38785">
        <ele>35.8</ele>
        <time>2022-09-11T13:12:00Z</time>
      </trkpt>
      <trkpt lat="43.49789" lon="-1.38847">
        <ele>35.8</ele>
        <time>2022-09-11T13:12:08Z</time>
      </trkpt>
      <trkpt lat="43.49787" lon="-1.38863">
        <ele>35.6</ele>
        <time>2022-09-11T13:12:10Z</time>
      </trkpt>
      <trkpt lat="43.49786" lon="-1.38886">
        <ele>35.6</ele>
        <time>2022-09-11T13:12:13Z</time>
      </trkpt>
      <trkpt lat="43.49787" lon="-1.3894">
        <ele>35.6</ele>
        <time>2022-09-11T13:12:20Z</time>
      </trkpt>
      <trkpt lat="43.49782" lon="-1.39006">
        <ele>36.2</ele>
        <time>2022-09-11T13:12:29Z</time>
      </trkpt>
      <trkpt lat="43.4978" lon="-1.39012">
        <ele>36.4</ele>
        <time>2022-09-11T13:12:30Z</time>
      </trkpt>
      <trkpt lat="43.49777" lon="-1.39026">
        <ele>36.4</ele>
        <time>2022-09-11T13:12:32Z</time>
      </trkpt>
      <trkpt lat="43.49776" lon="-1.39034">
        <ele>36.2</ele>
        <time>2022-09-11T13:12:33Z</time>
      </trkpt>
      <trkpt lat="43.49775" lon="-1.39056">
        <ele>36</ele>
        <time>2022-09-11T13:12:36Z</time>
      </trkpt>
      <trkpt lat="43.49776" lon="-1.39071">
        <ele>36</ele>
        <time>2022-09-11T13:12:38Z</time>
      </trkpt>
      <trkpt lat="43.49778" lon="-1.39077">
        <ele>36</ele>
        <time>2022-09-11T13:12:39Z</time>
      </trkpt>
      <trkpt lat="43.4978" lon="-1.391">
        <ele>35.6</ele>
        <time>2022-09-11T13:12:42Z</time>
      </trkpt>
      <trkpt lat="43.4978" lon="-1.39115">
        <ele>35.8</ele>
        <time>2022-09-11T13:12:44Z</time>
      </trkpt>
      <trkpt lat="43.4978" lon="-1.39195">
        <ele>35.6</ele>
        <time>2022-09-11T13:12:54Z</time>
      </trkpt>
      <trkpt lat="43.49777" lon="-1.39258">
        <ele>35.6</ele>
        <time>2022-09-11T13:13:02Z</time>
      </trkpt>
      <trkpt lat="43.49776" lon="-1.39273">
        <ele>35.6</ele>
        <time>2022-09-11T13:13:04Z</time>
      </trkpt>
      <trkpt lat="43.49776" lon="-1.39294">
        <ele>35.6</ele>
        <time>2022-09-11T13:13:07Z</time>
      </trkpt>
      <trkpt lat="43.49775" lon="-1.39316">
        <ele>35.8</ele>
        <time>2022-09-11T13:13:10Z</time>
      </trkpt>
      <trkpt lat="43.49774" lon="-1.39392">
        <ele>35.8</ele>
        <time>2022-09-11T13:13:20Z</time>
      </trkpt>
      <trkpt lat="43.49777" lon="-1.39454">
        <ele>35.8</ele>
        <time>2022-09-11T13:13:28Z</time>
      </trkpt>
      <trkpt lat="43.49785" lon="-1.39531">
        <ele>36</ele>
        <time>2022-09-11T13:13:38Z</time>
      </trkpt>
      <trkpt lat="43.49795" lon="-1.39605">
        <ele>35.8</ele>
        <time>2022-09-11T13:13:48Z</time>
      </trkpt>
      <trkpt lat="43.49806" lon="-1.39663">
        <ele>36</ele>
        <time>2022-09-11T13:13:56Z</time>
      </trkpt>
      <trkpt lat="43.49812" lon="-1.39715">
        <ele>36</ele>
        <time>2022-09-11T13:14:04Z</time>
      </trkpt>
      <trkpt lat="43.49815" lon="-1.3977">
        <ele>36</ele>
        <time>2022-09-11T13:14:12Z</time>
      </trkpt>
      <trkpt lat="43.4982" lon="-1.39818">
        <ele>36.2</ele>
        <time>2022-09-11T13:14:19Z</time>
      </trkpt>
      <trkpt lat="43.49829" lon="-1.39881">
        <ele>36.4</ele>
        <time>2022-09-11T13:14:28Z</time>
      </trkpt>
      <trkpt lat="43.4983" lon="-1.39888">
        <ele>36.6</ele>
        <time>2022-09-11T13:14:29Z</time>
      </trkpt>
      <trkpt lat="43.49836" lon="-1.39935">
        <ele>36.2</ele>
        <time>2022-09-11T13:14:35Z</time>
      </trkpt>
      <trkpt lat="43.49841" lon="-1.39979">
        <ele>36</ele>
        <time>2022-09-11T13:14:41Z</time>
      </trkpt>
      <trkpt lat="43.49846" lon="-1.40028">
        <ele>35.6</ele>
        <time>2022-09-11T13:14:48Z</time>
      </trkpt>
      <trkpt lat="43.49851" lon="-1.40086">
        <ele>35.6</ele>
        <time>2022-09-11T13:14:56Z</time>
      </trkpt>
      <trkpt lat="43.49857" lon="-1.40159">
        <ele>36</ele>
        <time>2022-09-11T13:15:06Z</time>
      </trkpt>
      <trkpt lat="43.49863" lon="-1.40237">
        <ele>36.2</ele>
        <time>2022-09-11T13:15:17Z</time>
      </trkpt>
      <trkpt lat="43.49866" lon="-1.40285">
        <ele>36.2</ele>
        <time>2022-09-11T13:15:24Z</time>
      </trkpt>
      <trkpt lat="43.49869" lon="-1.4031">
        <ele>36.2</ele>
        <time>2022-09-11T13:15:28Z</time>
      </trkpt>
      <trkpt lat="43.49869" lon="-1.40322">
        <ele>36.2</ele>
        <time>2022-09-11T13:15:30Z</time>
      </trkpt>
      <trkpt lat="43.49874" lon="-1.40366">
        <ele>36.4</ele>
        <time>2022-09-11T13:15:38Z</time>
      </trkpt>
      <trkpt lat="43.49879" lon="-1.40423">
        <ele>36.4</ele>
        <time>2022-09-11T13:15:47Z</time>
      </trkpt>
      <trkpt lat="43.49881" lon="-1.40463">
        <ele>36.6</ele>
        <time>2022-09-11T13:15:54Z</time>
      </trkpt>
      <trkpt lat="43.49883" lon="-1.40507">
        <ele>36.6</ele>
        <time>2022-09-11T13:16:02Z</time>
      </trkpt>
      <trkpt lat="43.49884" lon="-1.40566">
        <ele>36.4</ele>
        <time>2022-09-11T13:16:11Z</time>
      </trkpt>
      <trkpt lat="43.49883" lon="-1.40573">
        <ele>36.4</ele>
        <time>2022-09-11T13:16:12Z</time>
      </trkpt>
      <trkpt lat="43.49883" lon="-1.40609">
        <ele>36.4</ele>
        <time>2022-09-11T13:16:17Z</time>
      </trkpt>
      <trkpt lat="43.49882" lon="-1.4066">
        <ele>36.2</ele>
        <time>2022-09-11T13:16:24Z</time>
      </trkpt>
      <trkpt lat="43.49881" lon="-1.40731">
        <ele>36.2</ele>
        <time>2022-09-11T13:16:34Z</time>
      </trkpt>
      <trkpt lat="43.49879" lon="-1.40792">
        <ele>36.4</ele>
        <time>2022-09-11T13:16:43Z</time>
      </trkpt>
      <trkpt lat="43.49876" lon="-1.40853">
        <ele>36.6</ele>
        <time>2022-09-11T13:16:52Z</time>
      </trkpt>
      <trkpt lat="43.49873" lon="-1.40906">
        <ele>36.8</ele>
        <time>2022-09-11T13:17:00Z</time>
      </trkpt>
      <trkpt lat="43.4987" lon="-1.40956">
        <ele>36.8</ele>
        <time>2022-09-11T13:17:08Z</time>
      </trkpt>
      <trkpt lat="43.4987" lon="-1.40993">
        <ele>36.8</ele>
        <time>2022-09-11T13:17:15Z</time>
      </trkpt>
      <trkpt lat="43.49869" lon="-1.4103">
        <ele>36.4</ele>
        <time>2022-09-11T13:17:23Z</time>
      </trkpt>
      <trkpt lat="43.4987" lon="-1.41045">
        <ele>37</ele>
        <time>2022-09-11T13:19:53Z</time>
      </trkpt>
      <trkpt lat="43.49869" lon="-1.41052">
        <ele>37</ele>
        <time>2022-09-11T13:19:55Z</time>
      </trkpt>
      <trkpt lat="43.49868" lon="-1.41082">
        <ele>37.2</ele>
        <time>2022-09-11T13:20:02Z</time>
      </trkpt>
      <trkpt lat="43.49865" lon="-1.41121">
        <ele>37.6</ele>
        <time>2022-09-11T13:20:09Z</time>
      </trkpt>
      <trkpt lat="43.49862" lon="-1.41168">
        <ele>37.4</ele>
        <time>2022-09-11T13:20:17Z</time>
      </trkpt>
      <trkpt lat="43.49858" lon="-1.41211">
        <ele>37.4</ele>
        <time>2022-09-11T13:20:24Z</time>
      </trkpt>
      <trkpt lat="43.49855" lon="-1.41264">
        <ele>37.4</ele>
        <time>2022-09-11T13:20:32Z</time>
      </trkpt>
      <trkpt lat="43.49853" lon="-1.41318">
        <ele>37.8</ele>
        <time>2022-09-11T13:20:40Z</time>
      </trkpt>
      <trkpt lat="43.49851" lon="-1.4138">
        <ele>38</ele>
        <time>2022-09-11T13:20:49Z</time>
      </trkpt>
      <trkpt lat="43.49851" lon="-1.41386">
        <ele>38</ele>
        <time>2022-09-11T13:20:50Z</time>
      </trkpt>
      <trkpt lat="43.49847" lon="-1.41442">
        <ele>38.4</ele>
        <time>2022-09-11T13:20:58Z</time>
      </trkpt>
      <trkpt lat="43.49841" lon="-1.41504">
        <ele>38.4</ele>
        <time>2022-09-11T13:21:07Z</time>
      </trkpt>
      <trkpt lat="43.49834" lon="-1.41567">
        <ele>38</ele>
        <time>2022-09-11T13:21:15Z</time>
      </trkpt>
      <trkpt lat="43.49828" lon="-1.4164">
        <ele>38</ele>
        <time>2022-09-11T13:21:24Z</time>
      </trkpt>
      <trkpt lat="43.4982" lon="-1.4171">
        <ele>38.4</ele>
        <time>2022-09-11T13:21:33Z</time>
      </trkpt>
      <trkpt lat="43.4982" lon="-1.41732">
        <ele>38</ele>
        <time>2022-09-11T13:21:36Z</time>
      </trkpt>
      <trkpt lat="43.49821" lon="-1.41746">
        <ele>37.8</ele>
        <time>2022-09-11T13:21:38Z</time>
      </trkpt>
      <trkpt lat="43.49818" lon="-1.41775">
        <ele>37.8</ele>
        <time>2022-09-11T13:21:42Z</time>
      </trkpt>
      <trkpt lat="43.49818" lon="-1.41782">
        <ele>38</ele>
        <time>2022-09-11T13:21:43Z</time>
      </trkpt>
      <trkpt lat="43.49808" lon="-1.41836">
        <ele>38</ele>
        <time>2022-09-11T13:21:50Z</time>
      </trkpt>
      <trkpt lat="43.498" lon="-1.41905">
        <ele>38.2</ele>
        <time>2022-09-11T13:21:59Z</time>
      </trkpt>
      <trkpt lat="43.498" lon="-1.41952">
        <ele>38.4</ele>
        <time>2022-09-11T13:22:05Z</time>
      </trkpt>
      <trkpt lat="43.49792" lon="-1.41998">
        <ele>38.4</ele>
        <time>2022-09-11T13:22:11Z</time>
      </trkpt>
      <trkpt lat="43.49784" lon="-1.42072">
        <ele>38</ele>
        <time>2022-09-11T13:22:20Z</time>
      </trkpt>
      <trkpt lat="43.49775" lon="-1.42148">
        <ele>37.8</ele>
        <time>2022-09-11T13:22:29Z</time>
      </trkpt>
      <trkpt lat="43.49773" lon="-1.42166">
        <ele>38</ele>
        <time>2022-09-11T13:22:31Z</time>
      </trkpt>
      <trkpt lat="43.49765" lon="-1.42245">
        <ele>38</ele>
        <time>2022-09-11T13:22:40Z</time>
      </trkpt>
      <trkpt lat="43.49754" lon="-1.4232">
        <ele>37.8</ele>
        <time>2022-09-11T13:22:49Z</time>
      </trkpt>
      <trkpt lat="43.49743" lon="-1.42374">
        <ele>37.6</ele>
        <time>2022-09-11T13:22:56Z</time>
      </trkpt>
      <trkpt lat="43.49729" lon="-1.42431">
        <ele>37.8</ele>
        <time>2022-09-11T13:23:04Z</time>
      </trkpt>
      <trkpt lat="43.49716" lon="-1.42482">
        <ele>38</ele>
        <time>2022-09-11T13:23:11Z</time>
      </trkpt>
      <trkpt lat="43.49699" lon="-1.42546">
        <ele>38</ele>
        <time>2022-09-11T13:23:20Z</time>
      </trkpt>
      <trkpt lat="43.49683" lon="-1.42602">
        <ele>38.2</ele>
        <time>2022-09-11T13:23:28Z</time>
      </trkpt>
      <trkpt lat="43.4967" lon="-1.42659">
        <ele>38.2</ele>
        <time>2022-09-11T13:23:36Z</time>
      </trkpt>
      <trkpt lat="43.49672" lon="-1.42702">
        <ele>38.8</ele>
        <time>2022-09-11T13:23:42Z</time>
      </trkpt>
      <trkpt lat="43.49684" lon="-1.42725">
        <ele>38.6</ele>
        <time>2022-09-11T13:23:46Z</time>
      </trkpt>
      <trkpt lat="43.49697" lon="-1.42734">
        <ele>38.6</ele>
        <time>2022-09-11T13:23:49Z</time>
      </trkpt>
      <trkpt lat="43.49702" lon="-1.42736">
        <ele>38.6</ele>
        <time>2022-09-11T13:23:50Z</time>
      </trkpt>
      <trkpt lat="43.49743" lon="-1.42753">
        <ele>38.8</ele>
        <time>2022-09-11T13:23:58Z</time>
      </trkpt>
      <trkpt lat="43.49758" lon="-1.4276">
        <ele>38.8</ele>
        <time>2022-09-11T13:24:01Z</time>
      </trkpt>
      <trkpt lat="43.49767" lon="-1.42766">
        <ele>39</ele>
        <time>2022-09-11T13:24:03Z</time>
      </trkpt>
      <trkpt lat="43.4977" lon="-1.42771">
        <ele>39</ele>
        <time>2022-09-11T13:24:04Z</time>
      </trkpt>
      <trkpt lat="43.49775" lon="-1.42782">
        <ele>39.2</ele>
        <time>2022-09-11T13:24:06Z</time>
      </trkpt>
      <trkpt lat="43.49776" lon="-1.42796">
        <ele>39.4</ele>
        <time>2022-09-11T13:24:08Z</time>
      </trkpt>
      <trkpt lat="43.49776" lon="-1.42803">
        <ele>39.2</ele>
        <time>2022-09-11T13:24:09Z</time>
      </trkpt>
      <trkpt lat="43.49777" lon="-1.42832">
        <ele>39.4</ele>
        <time>2022-09-11T13:24:13Z</time>
      </trkpt>
      <trkpt lat="43.49777" lon="-1.42839">
        <ele>39.4</ele>
        <time>2022-09-11T13:24:14Z</time>
      </trkpt>
      <trkpt lat="43.49777" lon="-1.42873">
        <ele>39.8</ele>
        <time>2022-09-11T13:24:19Z</time>
      </trkpt>
      <trkpt lat="43.49776" lon="-1.42879">
        <ele>40</ele>
        <time>2022-09-11T13:24:20Z</time>
      </trkpt>
      <trkpt lat="43.49767" lon="-1.42892">
        <ele>39.6</ele>
        <time>2022-09-11T13:24:23Z</time>
      </trkpt>
      <trkpt lat="43.49763" lon="-1.42896">
        <ele>39.8</ele>
        <time>2022-09-11T13:24:24Z</time>
      </trkpt>
      <trkpt lat="43.49749" lon="-1.42917">
        <ele>39.8</ele>
        <time>2022-09-11T13:24:28Z</time>
      </trkpt>
      <trkpt lat="43.49745" lon="-1.42944">
        <ele>39.8</ele>
        <time>2022-09-11T13:24:32Z</time>
      </trkpt>
      <trkpt lat="43.49752" lon="-1.42968">
        <ele>40</ele>
        <time>2022-09-11T13:24:36Z</time>
      </trkpt>
      <trkpt lat="43.49753" lon="-1.42975">
        <ele>40.2</ele>
        <time>2022-09-11T13:24:37Z</time>
      </trkpt>
      <trkpt lat="43.49754" lon="-1.42981">
        <ele>40.2</ele>
        <time>2022-09-11T13:24:38Z</time>
      </trkpt>
      <trkpt lat="43.49755" lon="-1.43001">
        <ele>40.4</ele>
        <time>2022-09-11T13:24:41Z</time>
      </trkpt>
      <trkpt lat="43.49756" lon="-1.43023">
        <ele>41.4</ele>
        <time>2022-09-11T13:24:45Z</time>
      </trkpt>
      <trkpt lat="43.49757" lon="-1.43027">
        <ele>41.6</ele>
        <time>2022-09-11T13:24:46Z</time>
      </trkpt>
      <trkpt lat="43.49759" lon="-1.4305">
        <ele>42.4</ele>
        <time>2022-09-11T13:24:52Z</time>
      </trkpt>
      <trkpt lat="43.49761" lon="-1.43068">
        <ele>43.6</ele>
        <time>2022-09-11T13:24:57Z</time>
      </trkpt>
      <trkpt lat="43.49763" lon="-1.43075">
        <ele>44</ele>
        <time>2022-09-11T13:24:59Z</time>
      </trkpt>
      <trkpt lat="43.49765" lon="-1.43088">
        <ele>44.8</ele>
        <time>2022-09-11T13:25:03Z</time>
      </trkpt>
      <trkpt lat="43.49767" lon="-1.43099">
        <ele>45.4</ele>
        <time>2022-09-11T13:25:07Z</time>
      </trkpt>
      <trkpt lat="43.49768" lon="-1.43106">
        <ele>46</ele>
        <time>2022-09-11T13:25:09Z</time>
      </trkpt>
      <trkpt lat="43.49768" lon="-1.43117">
        <ele>46.6</ele>
        <time>2022-09-11T13:25:13Z</time>
      </trkpt>
      <trkpt lat="43.49769" lon="-1.43125">
        <ele>47</ele>
        <time>2022-09-11T13:25:16Z</time>
      </trkpt>
      <trkpt lat="43.4977" lon="-1.43135">
        <ele>47.6</ele>
        <time>2022-09-11T13:25:20Z</time>
      </trkpt>
      <trkpt lat="43.4977" lon="-1.43142">
        <ele>48.2</ele>
        <time>2022-09-11T13:25:23Z</time>
      </trkpt>
      <trkpt lat="43.4977" lon="-1.43149">
        <ele>48.8</ele>
        <time>2022-09-11T13:25:26Z</time>
      </trkpt>
      <trkpt lat="43.4977" lon="-1.43156">
        <ele>49.2</ele>
        <time>2022-09-11T13:25:29Z</time>
      </trkpt>
      <trkpt lat="43.49768" lon="-1.43164">
        <ele>50</ele>
        <time>2022-09-11T13:25:33Z</time>
      </trkpt>
      <trkpt lat="43.49769" lon="-1.43169">
        <ele>50.2</ele>
        <time>2022-09-11T13:25:35Z</time>
      </trkpt>
      <trkpt lat="43.49769" lon="-1.4317">
        <ele>50.2</ele>
        <time>2022-09-11T13:25:36Z</time>
      </trkpt>
      <trkpt lat="43.49769" lon="-1.43173">
        <ele>50.4</ele>
        <time>2022-09-11T13:25:38Z</time>
      </trkpt>
      <trkpt lat="43.4977" lon="-1.43175">
        <ele>50.6</ele>
        <time>2022-09-11T13:25:39Z</time>
      </trkpt>
      <trkpt lat="43.4977" lon="-1.43193">
        <ele>51.6</ele>
        <time>2022-09-11T13:25:49Z</time>
      </trkpt>
      <trkpt lat="43.4977" lon="-1.43197">
        <ele>51.8</ele>
        <time>2022-09-11T13:25:51Z</time>
      </trkpt>
      <trkpt lat="43.49769" lon="-1.43211">
        <ele>52.6</ele>
        <time>2022-09-11T13:25:57Z</time>
      </trkpt>
      <trkpt lat="43.49769" lon="-1.43214">
        <ele>52.6</ele>
        <time>2022-09-11T13:25:58Z</time>
      </trkpt>
      <trkpt lat="43.49765" lon="-1.43233">
        <ele>53.2</ele>
        <time>2022-09-11T13:26:04Z</time>
      </trkpt>
      <trkpt lat="43.49765" lon="-1.43246">
        <ele>53.8</ele>
        <time>2022-09-11T13:26:08Z</time>
      </trkpt>
      <trkpt lat="43.49764" lon="-1.43255">
        <ele>54</ele>
        <time>2022-09-11T13:26:11Z</time>
      </trkpt>
      <trkpt lat="43.49764" lon="-1.43258">
        <ele>54</ele>
        <time>2022-09-11T13:26:12Z</time>
      </trkpt>
      <trkpt lat="43.49759" lon="-1.43276">
        <ele>54.4</ele>
        <time>2022-09-11T13:26:19Z</time>
      </trkpt>
      <trkpt lat="43.49755" lon="-1.43292">
        <ele>54.8</ele>
        <time>2022-09-11T13:26:25Z</time>
      </trkpt>
      <trkpt lat="43.49753" lon="-1.43297">
        <ele>55</ele>
        <time>2022-09-11T13:26:27Z</time>
      </trkpt>
      <trkpt lat="43.49747" lon="-1.43311">
        <ele>55.6</ele>
        <time>2022-09-11T13:26:33Z</time>
      </trkpt>
      <trkpt lat="43.49746" lon="-1.43315">
        <ele>55.8</ele>
        <time>2022-09-11T13:26:35Z</time>
      </trkpt>
      <trkpt lat="43.49748" lon="-1.43321">
        <ele>56.2</ele>
        <time>2022-09-11T13:26:38Z</time>
      </trkpt>
      <trkpt lat="43.49749" lon="-1.43322">
        <ele>56.2</ele>
        <time>2022-09-11T13:26:39Z</time>
      </trkpt>
      <trkpt lat="43.4974" lon="-1.43321">
        <ele>56.8</ele>
        <time>2022-09-11T13:29:14Z</time>
      </trkpt>
      <trkpt lat="43.4974" lon="-1.43323">
        <ele>57</ele>
        <time>2022-09-11T13:29:15Z</time>
      </trkpt>
      <trkpt lat="43.49739" lon="-1.43324">
        <ele>57.2</ele>
        <time>2022-09-11T13:29:16Z</time>
      </trkpt>
      <trkpt lat="43.49734" lon="-1.43332">
        <ele>58.2</ele>
        <time>2022-09-11T13:29:21Z</time>
      </trkpt>
      <trkpt lat="43.4973" lon="-1.43335">
        <ele>58.6</ele>
        <time>2022-09-11T13:29:23Z</time>
      </trkpt>
      <trkpt lat="43.49728" lon="-1.43336">
        <ele>58.6</ele>
        <time>2022-09-11T13:29:24Z</time>
      </trkpt>
      <trkpt lat="43.4972" lon="-1.43337">
        <ele>59.2</ele>
        <time>2022-09-11T13:29:28Z</time>
      </trkpt>
      <trkpt lat="43.49717" lon="-1.43338">
        <ele>59.6</ele>
        <time>2022-09-11T13:29:30Z</time>
      </trkpt>
      <trkpt lat="43.4971" lon="-1.43342">
        <ele>60.2</ele>
        <time>2022-09-11T13:29:34Z</time>
      </trkpt>
      <trkpt lat="43.49704" lon="-1.43345">
        <ele>61.2</ele>
        <time>2022-09-11T13:29:38Z</time>
      </trkpt>
      <trkpt lat="43.49701" lon="-1.43345">
        <ele>61.4</ele>
        <time>2022-09-11T13:29:40Z</time>
      </trkpt>
      <trkpt lat="43.49692" lon="-1.43351">
        <ele>62.2</ele>
        <time>2022-09-11T13:29:46Z</time>
      </trkpt>
      <trkpt lat="43.49691" lon="-1.43352">
        <ele>62.4</ele>
        <time>2022-09-11T13:29:47Z</time>
      </trkpt>
      <trkpt lat="43.49679" lon="-1.43361">
        <ele>63.4</ele>
        <time>2022-09-11T13:29:55Z</time>
      </trkpt>
      <trkpt lat="43.49671" lon="-1.4337">
        <ele>64</ele>
        <time>2022-09-11T13:30:01Z</time>
      </trkpt>
      <trkpt lat="43.49663" lon="-1.43381">
        <ele>64.6</ele>
        <time>2022-09-11T13:30:07Z</time>
      </trkpt>
      <trkpt lat="43.49661" lon="-1.43383">
        <ele>64.8</ele>
        <time>2022-09-11T13:30:08Z</time>
      </trkpt>
      <trkpt lat="43.49655" lon="-1.43396">
        <ele>65.2</ele>
        <time>2022-09-11T13:30:14Z</time>
      </trkpt>
      <trkpt lat="43.49648" lon="-1.43414">
        <ele>65.2</ele>
        <time>2022-09-11T13:30:20Z</time>
      </trkpt>
      <trkpt lat="43.49636" lon="-1.43429">
        <ele>65.2</ele>
        <time>2022-09-11T13:30:25Z</time>
      </trkpt>
      <trkpt lat="43.4962" lon="-1.43451">
        <ele>65</ele>
        <time>2022-09-11T13:30:31Z</time>
      </trkpt>
      <trkpt lat="43.49617" lon="-1.43471">
        <ele>65.2</ele>
        <time>2022-09-11T13:30:35Z</time>
      </trkpt>
      <trkpt lat="43.49617" lon="-1.43515">
        <ele>64.8</ele>
        <time>2022-09-11T13:30:43Z</time>
      </trkpt>
      <trkpt lat="43.49616" lon="-1.4356">
        <ele>64.2</ele>
        <time>2022-09-11T13:30:50Z</time>
      </trkpt>
      <trkpt lat="43.49617" lon="-1.43566">
        <ele>64.2</ele>
        <time>2022-09-11T13:30:51Z</time>
      </trkpt>
      <trkpt lat="43.49616" lon="-1.43613">
        <ele>64.4</ele>
        <time>2022-09-11T13:30:58Z</time>
      </trkpt>
      <trkpt lat="43.49616" lon="-1.43673">
        <ele>64.2</ele>
        <time>2022-09-11T13:31:07Z</time>
      </trkpt>
      <trkpt lat="43.49615" lon="-1.43718">
        <ele>65</ele>
        <time>2022-09-11T13:31:14Z</time>
      </trkpt>
      <trkpt lat="43.49611" lon="-1.43763">
        <ele>65.6</ele>
        <time>2022-09-11T13:31:21Z</time>
      </trkpt>
      <trkpt lat="43.49608" lon="-1.43769">
        <ele>65.6</ele>
        <time>2022-09-11T13:31:22Z</time>
      </trkpt>
      <trkpt lat="43.49595" lon="-1.43786">
        <ele>65.8</ele>
        <time>2022-09-11T13:31:26Z</time>
      </trkpt>
      <trkpt lat="43.49577" lon="-1.43792">
        <ele>66</ele>
        <time>2022-09-11T13:31:30Z</time>
      </trkpt>
      <trkpt lat="43.49572" lon="-1.43792">
        <ele>66.2</ele>
        <time>2022-09-11T13:31:31Z</time>
      </trkpt>
      <trkpt lat="43.49568" lon="-1.43791">
        <ele>66.4</ele>
        <time>2022-09-11T13:31:32Z</time>
      </trkpt>
      <trkpt lat="43.49554" lon="-1.43785">
        <ele>66.2</ele>
        <time>2022-09-11T13:31:35Z</time>
      </trkpt>
      <trkpt lat="43.49525" lon="-1.43776">
        <ele>65.8</ele>
        <time>2022-09-11T13:31:41Z</time>
      </trkpt>
      <trkpt lat="43.4952" lon="-1.43778">
        <ele>65.8</ele>
        <time>2022-09-11T13:31:42Z</time>
      </trkpt>
      <trkpt lat="43.4951" lon="-1.43794">
        <ele>65.8</ele>
        <time>2022-09-11T13:31:45Z</time>
      </trkpt>
      <trkpt lat="43.49507" lon="-1.43823">
        <ele>65.2</ele>
        <time>2022-09-11T13:31:49Z</time>
      </trkpt>
      <trkpt lat="43.49505" lon="-1.43826">
        <ele>65.2</ele>
        <time>2022-09-11T13:31:50Z</time>
      </trkpt>
      <trkpt lat="43.49503" lon="-1.43829">
        <ele>65</ele>
        <time>2022-09-11T13:31:51Z</time>
      </trkpt>
      <trkpt lat="43.49497" lon="-1.43831">
        <ele>64.6</ele>
        <time>2022-09-11T13:31:55Z</time>
      </trkpt>
      <trkpt lat="43.49496" lon="-1.43831">
        <ele>64.6</ele>
        <time>2022-09-11T13:31:56Z</time>
      </trkpt>
      <trkpt lat="43.49489" lon="-1.4383">
        <ele>64.6</ele>
        <time>2022-09-11T13:32:02Z</time>
      </trkpt>
      <trkpt lat="43.49495" lon="-1.43827">
        <ele>64.8</ele>
        <time>2022-09-11T13:32:06Z</time>
      </trkpt>
      <trkpt lat="43.49498" lon="-1.43826">
        <ele>65</ele>
        <time>2022-09-11T13:32:07Z</time>
      </trkpt>
      <trkpt lat="43.49506" lon="-1.43827">
        <ele>64.8</ele>
        <time>2022-09-11T13:32:11Z</time>
      </trkpt>
      <trkpt lat="43.49509" lon="-1.4383">
        <ele>64.6</ele>
        <time>2022-09-11T13:32:12Z</time>
      </trkpt>
      <trkpt lat="43.49515" lon="-1.43851">
        <ele>64.6</ele>
        <time>2022-09-11T13:32:16Z</time>
      </trkpt>
      <trkpt lat="43.49518" lon="-1.43863">
        <ele>64.4</ele>
        <time>2022-09-11T13:32:18Z</time>
      </trkpt>
      <trkpt lat="43.49522" lon="-1.4389">
        <ele>64.6</ele>
        <time>2022-09-11T13:32:22Z</time>
      </trkpt>
      <trkpt lat="43.49523" lon="-1.43898">
        <ele>64.8</ele>
        <time>2022-09-11T13:32:23Z</time>
      </trkpt>
      <trkpt lat="43.49523" lon="-1.43913">
        <ele>64.2</ele>
        <time>2022-09-11T13:32:25Z</time>
      </trkpt>
      <trkpt lat="43.4952" lon="-1.43928">
        <ele>63.8</ele>
        <time>2022-09-11T13:32:27Z</time>
      </trkpt>
      <trkpt lat="43.49517" lon="-1.43943">
        <ele>63.6</ele>
        <time>2022-09-11T13:32:29Z</time>
      </trkpt>
      <trkpt lat="43.49507" lon="-1.43986">
        <ele>62.6</ele>
        <time>2022-09-11T13:32:34Z</time>
      </trkpt>
      <trkpt lat="43.49505" lon="-1.43995">
        <ele>62.4</ele>
        <time>2022-09-11T13:32:35Z</time>
      </trkpt>
      <trkpt lat="43.4949" lon="-1.44057">
        <ele>62.2</ele>
        <time>2022-09-11T13:32:41Z</time>
      </trkpt>
      <trkpt lat="43.49484" lon="-1.44098">
        <ele>61.2</ele>
        <time>2022-09-11T13:32:45Z</time>
      </trkpt>
      <trkpt lat="43.4948" lon="-1.44136">
        <ele>61</ele>
        <time>2022-09-11T13:32:49Z</time>
      </trkpt>
      <trkpt lat="43.49468" lon="-1.44216">
        <ele>62.2</ele>
        <time>2022-09-11T13:32:58Z</time>
      </trkpt>
      <trkpt lat="43.49467" lon="-1.44225">
        <ele>62.2</ele>
        <time>2022-09-11T13:32:59Z</time>
      </trkpt>
      <trkpt lat="43.49456" lon="-1.443">
        <ele>62.2</ele>
        <time>2022-09-11T13:33:08Z</time>
      </trkpt>
      <trkpt lat="43.49444" lon="-1.44369">
        <ele>62.8</ele>
        <time>2022-09-11T13:33:17Z</time>
      </trkpt>
      <trkpt lat="43.4943" lon="-1.44434">
        <ele>63.2</ele>
        <time>2022-09-11T13:33:27Z</time>
      </trkpt>
      <trkpt lat="43.49428" lon="-1.44441">
        <ele>63.4</ele>
        <time>2022-09-11T13:33:28Z</time>
      </trkpt>
      <trkpt lat="43.49416" lon="-1.44489">
        <ele>64.4</ele>
        <time>2022-09-11T13:33:36Z</time>
      </trkpt>
      <trkpt lat="43.49413" lon="-1.44501">
        <ele>64.6</ele>
        <time>2022-09-11T13:33:38Z</time>
      </trkpt>
      <trkpt lat="43.49399" lon="-1.44553">
        <ele>65.4</ele>
        <time>2022-09-11T13:33:47Z</time>
      </trkpt>
      <trkpt lat="43.49398" lon="-1.4456">
        <ele>65.6</ele>
        <time>2022-09-11T13:33:48Z</time>
      </trkpt>
      <trkpt lat="43.49392" lon="-1.44584">
        <ele>65.6</ele>
        <time>2022-09-11T13:33:52Z</time>
      </trkpt>
      <trkpt lat="43.49391" lon="-1.44597">
        <ele>65.4</ele>
        <time>2022-09-11T13:33:54Z</time>
      </trkpt>
      <trkpt lat="43.49389" lon="-1.44603">
        <ele>65.6</ele>
        <time>2022-09-11T13:33:55Z</time>
      </trkpt>
      <trkpt lat="43.49388" lon="-1.4461">
        <ele>65.6</ele>
        <time>2022-09-11T13:33:56Z</time>
      </trkpt>
      <trkpt lat="43.49376" lon="-1.44653">
        <ele>66</ele>
        <time>2022-09-11T13:34:03Z</time>
      </trkpt>
      <trkpt lat="43.49372" lon="-1.44665">
        <ele>66</ele>
        <time>2022-09-11T13:34:05Z</time>
      </trkpt>
      <trkpt lat="43.49367" lon="-1.44676">
        <ele>66</ele>
        <time>2022-09-11T13:34:07Z</time>
      </trkpt>
      <trkpt lat="43.49363" lon="-1.44688">
        <ele>65.8</ele>
        <time>2022-09-11T13:34:09Z</time>
      </trkpt>
      <trkpt lat="43.49348" lon="-1.44728">
        <ele>65</ele>
        <time>2022-09-11T13:34:15Z</time>
      </trkpt>
      <trkpt lat="43.49336" lon="-1.44751">
        <ele>64.4</ele>
        <time>2022-09-11T13:34:18Z</time>
      </trkpt>
      <trkpt lat="43.49327" lon="-1.44767">
        <ele>64</ele>
        <time>2022-09-11T13:34:20Z</time>
      </trkpt>
      <trkpt lat="43.49322" lon="-1.44775">
        <ele>63.4</ele>
        <time>2022-09-11T13:34:21Z</time>
      </trkpt>
      <trkpt lat="43.49308" lon="-1.44803">
        <ele>62.4</ele>
        <time>2022-09-11T13:34:24Z</time>
      </trkpt>
      <trkpt lat="43.49304" lon="-1.44814">
        <ele>61.8</ele>
        <time>2022-09-11T13:34:25Z</time>
      </trkpt>
      <trkpt lat="43.49302" lon="-1.44826">
        <ele>61.4</ele>
        <time>2022-09-11T13:34:26Z</time>
      </trkpt>
      <trkpt lat="43.49298" lon="-1.44852">
        <ele>60</ele>
        <time>2022-09-11T13:34:28Z</time>
      </trkpt>
      <trkpt lat="43.49297" lon="-1.44865">
        <ele>59</ele>
        <time>2022-09-11T13:34:29Z</time>
      </trkpt>
      <trkpt lat="43.49297" lon="-1.44878">
        <ele>58.4</ele>
        <time>2022-09-11T13:34:30Z</time>
      </trkpt>
      <trkpt lat="43.49301" lon="-1.44903">
        <ele>57.2</ele>
        <time>2022-09-11T13:34:32Z</time>
      </trkpt>
      <trkpt lat="43.49304" lon="-1.44915">
        <ele>56.4</ele>
        <time>2022-09-11T13:34:33Z</time>
      </trkpt>
      <trkpt lat="43.49306" lon="-1.44927">
        <ele>56</ele>
        <time>2022-09-11T13:34:34Z</time>
      </trkpt>
      <trkpt lat="43.49315" lon="-1.44963">
        <ele>55</ele>
        <time>2022-09-11T13:34:37Z</time>
      </trkpt>
      <trkpt lat="43.49322" lon="-1.44988">
        <ele>54.4</ele>
        <time>2022-09-11T13:34:39Z</time>
      </trkpt>
      <trkpt lat="43.49327" lon="-1.45">
        <ele>53.8</ele>
        <time>2022-09-11T13:34:40Z</time>
      </trkpt>
      <trkpt lat="43.49334" lon="-1.45013">
        <ele>53</ele>
        <time>2022-09-11T13:34:41Z</time>
      </trkpt>
      <trkpt lat="43.49341" lon="-1.45026">
        <ele>52.2</ele>
        <time>2022-09-11T13:34:42Z</time>
      </trkpt>
      <trkpt lat="43.49348" lon="-1.45039">
        <ele>51.4</ele>
        <time>2022-09-11T13:34:43Z</time>
      </trkpt>
      <trkpt lat="43.49355" lon="-1.45053">
        <ele>50.4</ele>
        <time>2022-09-11T13:34:44Z</time>
      </trkpt>
      <trkpt lat="43.49362" lon="-1.45067">
        <ele>48.2</ele>
        <time>2022-09-11T13:34:45Z</time>
      </trkpt>
      <trkpt lat="43.49368" lon="-1.45082">
        <ele>46.8</ele>
        <time>2022-09-11T13:34:46Z</time>
      </trkpt>
      <trkpt lat="43.49374" lon="-1.45098">
        <ele>46</ele>
        <time>2022-09-11T13:34:47Z</time>
      </trkpt>
      <trkpt lat="43.49378" lon="-1.45113">
        <ele>45</ele>
        <time>2022-09-11T13:34:48Z</time>
      </trkpt>
      <trkpt lat="43.4938" lon="-1.45145">
        <ele>43.2</ele>
        <time>2022-09-11T13:34:50Z</time>
      </trkpt>
      <trkpt lat="43.49369" lon="-1.45186">
        <ele>43</ele>
        <time>2022-09-11T13:34:53Z</time>
      </trkpt>
      <trkpt lat="43.49354" lon="-1.45206">
        <ele>43.2</ele>
        <time>2022-09-11T13:34:55Z</time>
      </trkpt>
      <trkpt lat="43.49346" lon="-1.45215">
        <ele>43</ele>
        <time>2022-09-11T13:34:56Z</time>
      </trkpt>
      <trkpt lat="43.49311" lon="-1.45262">
        <ele>42.2</ele>
        <time>2022-09-11T13:35:01Z</time>
      </trkpt>
      <trkpt lat="43.49306" lon="-1.45272">
        <ele>41.8</ele>
        <time>2022-09-11T13:35:02Z</time>
      </trkpt>
      <trkpt lat="43.49283" lon="-1.45304">
        <ele>41.6</ele>
        <time>2022-09-11T13:35:06Z</time>
      </trkpt>
      <trkpt lat="43.49259" lon="-1.45322">
        <ele>41.8</ele>
        <time>2022-09-11T13:35:10Z</time>
      </trkpt>
      <trkpt lat="43.49214" lon="-1.45342">
        <ele>41</ele>
        <time>2022-09-11T13:35:18Z</time>
      </trkpt>
      <trkpt lat="43.49206" lon="-1.45346">
        <ele>40.8</ele>
        <time>2022-09-11T13:35:20Z</time>
      </trkpt>
      <trkpt lat="43.49202" lon="-1.45347">
        <ele>40.8</ele>
        <time>2022-09-11T13:35:21Z</time>
      </trkpt>
      <trkpt lat="43.49186" lon="-1.45349">
        <ele>40.6</ele>
        <time>2022-09-11T13:35:25Z</time>
      </trkpt>
      <trkpt lat="43.49175" lon="-1.45343">
        <ele>40.6</ele>
        <time>2022-09-11T13:35:28Z</time>
      </trkpt>
      <trkpt lat="43.49172" lon="-1.4534">
        <ele>40.6</ele>
        <time>2022-09-11T13:35:29Z</time>
      </trkpt>
      <trkpt lat="43.49162" lon="-1.45337">
        <ele>40.6</ele>
        <time>2022-09-11T13:35:33Z</time>
      </trkpt>
      <trkpt lat="43.49153" lon="-1.45344">
        <ele>40.6</ele>
        <time>2022-09-11T13:35:38Z</time>
      </trkpt>
      <trkpt lat="43.49157" lon="-1.45359">
        <ele>40.8</ele>
        <time>2022-09-11T13:35:43Z</time>
      </trkpt>
      <trkpt lat="43.49161" lon="-1.45376">
        <ele>40.6</ele>
        <time>2022-09-11T13:35:50Z</time>
      </trkpt>
      <trkpt lat="43.49164" lon="-1.45389">
        <ele>40.6</ele>
        <time>2022-09-11T13:35:55Z</time>
      </trkpt>
      <trkpt lat="43.49166" lon="-1.45403">
        <ele>40</ele>
        <time>2022-09-11T13:35:59Z</time>
      </trkpt>
      <trkpt lat="43.49165" lon="-1.45405">
        <ele>40</ele>
        <time>2022-09-11T13:36:00Z</time>
      </trkpt>
      <trkpt lat="43.49152" lon="-1.45406">
        <ele>40</ele>
        <time>2022-09-11T13:36:04Z</time>
      </trkpt>
      <trkpt lat="43.49149" lon="-1.45408">
        <ele>40.2</ele>
        <time>2022-09-11T13:36:05Z</time>
      </trkpt>
      <trkpt lat="43.49141" lon="-1.45416">
        <ele>40.4</ele>
        <time>2022-09-11T13:36:08Z</time>
      </trkpt>
      <trkpt lat="43.49125" lon="-1.4543">
        <ele>40.6</ele>
        <time>2022-09-11T13:36:14Z</time>
      </trkpt>
      <trkpt lat="43.49115" lon="-1.45436">
        <ele>40.4</ele>
        <time>2022-09-11T13:36:18Z</time>
      </trkpt>
      <trkpt lat="43.49097" lon="-1.45436">
        <ele>41</ele>
        <time>2022-09-11T13:36:24Z</time>
      </trkpt>
      <trkpt lat="43.49094" lon="-1.45439">
        <ele>41</ele>
        <time>2022-09-11T13:36:25Z</time>
      </trkpt>
      <trkpt lat="43.49078" lon="-1.45462">
        <ele>41.4</ele>
        <time>2022-09-11T13:36:31Z</time>
      </trkpt>
      <trkpt lat="43.49061" lon="-1.45492">
        <ele>41.2</ele>
        <time>2022-09-11T13:36:37Z</time>
      </trkpt>
      <trkpt lat="43.49047" lon="-1.45521">
        <ele>41</ele>
        <time>2022-09-11T13:36:42Z</time>
      </trkpt>
      <trkpt lat="43.49039" lon="-1.4554">
        <ele>41</ele>
        <time>2022-09-11T13:36:45Z</time>
      </trkpt>
      <trkpt lat="43.4902" lon="-1.45579">
        <ele>41</ele>
        <time>2022-09-11T13:36:52Z</time>
      </trkpt>
      <trkpt lat="43.49015" lon="-1.45612">
        <ele>40.8</ele>
        <time>2022-09-11T13:36:57Z</time>
      </trkpt>
      <trkpt lat="43.49012" lon="-1.45635">
        <ele>40.8</ele>
        <time>2022-09-11T13:37:01Z</time>
      </trkpt>
      <trkpt lat="43.4901" lon="-1.45645">
        <ele>40.6</ele>
        <time>2022-09-11T13:37:03Z</time>
      </trkpt>
      <trkpt lat="43.49002" lon="-1.45675">
        <ele>40.4</ele>
        <time>2022-09-11T13:37:09Z</time>
      </trkpt>
      <trkpt lat="43.49004" lon="-1.45694">
        <ele>40.6</ele>
        <time>2022-09-11T13:37:13Z</time>
      </trkpt>
      <trkpt lat="43.49012" lon="-1.45724">
        <ele>40.4</ele>
        <time>2022-09-11T13:37:20Z</time>
      </trkpt>
      <trkpt lat="43.49016" lon="-1.4573">
        <ele>40.4</ele>
        <time>2022-09-11T13:37:22Z</time>
      </trkpt>
      <trkpt lat="43.49022" lon="-1.45732">
        <ele>40.2</ele>
        <time>2022-09-11T13:37:24Z</time>
      </trkpt>
      <trkpt lat="43.49024" lon="-1.45733">
        <ele>40.2</ele>
        <time>2022-09-11T13:37:25Z</time>
      </trkpt>
      <trkpt lat="43.49029" lon="-1.45742">
        <ele>40</ele>
        <time>2022-09-11T13:37:28Z</time>
      </trkpt>
      <trkpt lat="43.49028" lon="-1.4575">
        <ele>39.6</ele>
        <time>2022-09-11T13:37:30Z</time>
      </trkpt>
      <trkpt lat="43.49025" lon="-1.45753">
        <ele>39.4</ele>
        <time>2022-09-11T13:37:31Z</time>
      </trkpt>
      <trkpt lat="43.49013" lon="-1.45766">
        <ele>39.4</ele>
        <time>2022-09-11T13:37:35Z</time>
      </trkpt>
      <trkpt lat="43.4901" lon="-1.45788">
        <ele>39.6</ele>
        <time>2022-09-11T13:37:39Z</time>
      </trkpt>
      <trkpt lat="43.49014" lon="-1.45798">
        <ele>39.8</ele>
        <time>2022-09-11T13:37:41Z</time>
      </trkpt>
      <trkpt lat="43.49024" lon="-1.45825">
        <ele>40.4</ele>
        <time>2022-09-11T13:37:46Z</time>
      </trkpt>
      <trkpt lat="43.49039" lon="-1.45863">
        <ele>40</ele>
        <time>2022-09-11T13:37:53Z</time>
      </trkpt>
      <trkpt lat="43.49041" lon="-1.45869">
        <ele>40</ele>
        <time>2022-09-11T13:37:54Z</time>
      </trkpt>
      <trkpt lat="43.49047" lon="-1.45888">
        <ele>40.8</ele>
        <time>2022-09-11T13:37:57Z</time>
      </trkpt>
      <trkpt lat="43.49059" lon="-1.45929">
        <ele>40.6</ele>
        <time>2022-09-11T13:38:04Z</time>
      </trkpt>
      <trkpt lat="43.49061" lon="-1.45935">
        <ele>40.4</ele>
        <time>2022-09-11T13:38:05Z</time>
      </trkpt>
      <trkpt lat="43.4907" lon="-1.45967">
        <ele>40.4</ele>
        <time>2022-09-11T13:38:11Z</time>
      </trkpt>
      <trkpt lat="43.49081" lon="-1.46001">
        <ele>39.8</ele>
        <time>2022-09-11T13:38:18Z</time>
      </trkpt>
      <trkpt lat="43.4908" lon="-1.46021">
        <ele>40</ele>
        <time>2022-09-11T13:38:22Z</time>
      </trkpt>
      <trkpt lat="43.49068" lon="-1.46046">
        <ele>39.8</ele>
        <time>2022-09-11T13:38:27Z</time>
      </trkpt>
      <trkpt lat="43.49065" lon="-1.46052">
        <ele>39.6</ele>
        <time>2022-09-11T13:38:28Z</time>
      </trkpt>
      <trkpt lat="43.4906" lon="-1.46063">
        <ele>39.8</ele>
        <time>2022-09-11T13:38:30Z</time>
      </trkpt>
      <trkpt lat="43.49056" lon="-1.46079">
        <ele>39.8</ele>
        <time>2022-09-11T13:38:33Z</time>
      </trkpt>
      <trkpt lat="43.4905" lon="-1.46117">
        <ele>40.2</ele>
        <time>2022-09-11T13:38:40Z</time>
      </trkpt>
      <trkpt lat="43.4905" lon="-1.46152">
        <ele>40.2</ele>
        <time>2022-09-11T13:38:47Z</time>
      </trkpt>
      <trkpt lat="43.49054" lon="-1.46191">
        <ele>40.4</ele>
        <time>2022-09-11T13:38:55Z</time>
      </trkpt>
      <trkpt lat="43.49062" lon="-1.46222">
        <ele>40.6</ele>
        <time>2022-09-11T13:39:02Z</time>
      </trkpt>
      <trkpt lat="43.49068" lon="-1.46237">
        <ele>40.4</ele>
        <time>2022-09-11T13:39:05Z</time>
      </trkpt>
      <trkpt lat="43.49071" lon="-1.46252">
        <ele>40.4</ele>
        <time>2022-09-11T13:39:08Z</time>
      </trkpt>
      <trkpt lat="43.49065" lon="-1.46262">
        <ele>40.4</ele>
        <time>2022-09-11T13:39:11Z</time>
      </trkpt>
      <trkpt lat="43.49066" lon="-1.46271">
        <ele>40.6</ele>
        <time>2022-09-11T13:39:14Z</time>
      </trkpt>
      <trkpt lat="43.49063" lon="-1.46272">
        <ele>40.6</ele>
        <time>2022-09-11T13:39:17Z</time>
      </trkpt>
      <trkpt lat="43.49059" lon="-1.46262">
        <ele>41.2</ele>
        <time>2022-09-11T13:39:21Z</time>
      </trkpt>
      <trkpt lat="43.49057" lon="-1.46256">
        <ele>41.4</ele>
        <time>2022-09-11T13:39:23Z</time>
      </trkpt>
      <trkpt lat="43.49048" lon="-1.46241">
        <ele>41.8</ele>
        <time>2022-09-11T13:39:29Z</time>
      </trkpt>
      <trkpt lat="43.49039" lon="-1.46242">
        <ele>42.4</ele>
        <time>2022-09-11T13:39:33Z</time>
      </trkpt>
      <trkpt lat="43.49035" lon="-1.46245">
        <ele>43</ele>
        <time>2022-09-11T13:39:35Z</time>
      </trkpt>
      <trkpt lat="43.49029" lon="-1.4625">
        <ele>44</ele>
        <time>2022-09-11T13:39:39Z</time>
      </trkpt>
      <trkpt lat="43.49027" lon="-1.46251">
        <ele>44.2</ele>
        <time>2022-09-11T13:39:40Z</time>
      </trkpt>
      <trkpt lat="43.49018" lon="-1.46259">
        <ele>44.8</ele>
        <time>2022-09-11T13:39:45Z</time>
      </trkpt>
      <trkpt lat="43.49015" lon="-1.46261">
        <ele>45.2</ele>
        <time>2022-09-11T13:39:47Z</time>
      </trkpt>
      <trkpt lat="43.49005" lon="-1.46271">
        <ele>46</ele>
        <time>2022-09-11T13:39:54Z</time>
      </trkpt>
      <trkpt lat="43.49003" lon="-1.46273">
        <ele>46.2</ele>
        <time>2022-09-11T13:39:56Z</time>
      </trkpt>
      <trkpt lat="43.49" lon="-1.46275">
        <ele>46.4</ele>
        <time>2022-09-11T13:40:00Z</time>
      </trkpt>
      <trkpt lat="43.48994" lon="-1.46279">
        <ele>46.6</ele>
        <time>2022-09-11T13:40:07Z</time>
      </trkpt>
      <trkpt lat="43.4898" lon="-1.46293">
        <ele>46.8</ele>
        <time>2022-09-11T13:40:15Z</time>
      </trkpt>
      <trkpt lat="43.48962" lon="-1.46314">
        <ele>46.6</ele>
        <time>2022-09-11T13:40:25Z</time>
      </trkpt>
      <trkpt lat="43.48941" lon="-1.46342">
        <ele>46.8</ele>
        <time>2022-09-11T13:40:35Z</time>
      </trkpt>
      <trkpt lat="43.4892" lon="-1.46374">
        <ele>47</ele>
        <time>2022-09-11T13:40:45Z</time>
      </trkpt>
      <trkpt lat="43.48904" lon="-1.46399">
        <ele>47</ele>
        <time>2022-09-11T13:40:53Z</time>
      </trkpt>
      <trkpt lat="43.48886" lon="-1.46428">
        <ele>47.4</ele>
        <time>2022-09-11T13:41:01Z</time>
      </trkpt>
      <trkpt lat="43.48879" lon="-1.4644">
        <ele>47.4</ele>
        <time>2022-09-11T13:41:04Z</time>
      </trkpt>
      <trkpt lat="43.48856" lon="-1.46483">
        <ele>47.4</ele>
        <time>2022-09-11T13:41:15Z</time>
      </trkpt>
      <trkpt lat="43.48841" lon="-1.46512">
        <ele>47.2</ele>
        <time>2022-09-11T13:41:24Z</time>
      </trkpt>
      <trkpt lat="43.48834" lon="-1.46529">
        <ele>47.4</ele>
        <time>2022-09-11T13:41:30Z</time>
      </trkpt>
      <trkpt lat="43.48836" lon="-1.46531">
        <ele>47.6</ele>
        <time>2022-09-11T13:41:31Z</time>
      </trkpt>
      <trkpt lat="43.48839" lon="-1.46538">
        <ele>48.2</ele>
        <time>2022-09-11T13:41:36Z</time>
      </trkpt>
      <trkpt lat="43.48841" lon="-1.46536">
        <ele>41.2</ele>
        <time>2022-09-11T13:43:20Z</time>
      </trkpt>
      <trkpt lat="43.48843" lon="-1.46534">
        <ele>41.4</ele>
        <time>2022-09-11T13:43:21Z</time>
      </trkpt>
      <trkpt lat="43.48851" lon="-1.46527">
        <ele>41.4</ele>
        <time>2022-09-11T13:43:25Z</time>
      </trkpt>
      <trkpt lat="43.48853" lon="-1.46527">
        <ele>41.4</ele>
        <time>2022-09-11T13:43:26Z</time>
      </trkpt>
      <trkpt lat="43.48861" lon="-1.46535">
        <ele>41.4</ele>
        <time>2022-09-11T13:43:30Z</time>
      </trkpt>
      <trkpt lat="43.4887" lon="-1.46546">
        <ele>41.8</ele>
        <time>2022-09-11T13:43:35Z</time>
      </trkpt>
      <trkpt lat="43.48872" lon="-1.4655">
        <ele>41.8</ele>
        <time>2022-09-11T13:43:37Z</time>
      </trkpt>
      <trkpt lat="43.4888" lon="-1.46564">
        <ele>41.8</ele>
        <time>2022-09-11T13:43:44Z</time>
      </trkpt>
      <trkpt lat="43.48888" lon="-1.46574">
        <ele>42</ele>
        <time>2022-09-11T13:43:49Z</time>
      </trkpt>
      <trkpt lat="43.48897" lon="-1.46588">
        <ele>42.2</ele>
        <time>2022-09-11T13:43:54Z</time>
      </trkpt>
      <trkpt lat="43.48907" lon="-1.46611">
        <ele>42</ele>
        <time>2022-09-11T13:44:00Z</time>
      </trkpt>
      <trkpt lat="43.48917" lon="-1.46628">
        <ele>42</ele>
        <time>2022-09-11T13:44:05Z</time>
      </trkpt>
      <trkpt lat="43.4893" lon="-1.46647">
        <ele>42.2</ele>
        <time>2022-09-11T13:44:11Z</time>
      </trkpt>
      <trkpt lat="43.48932" lon="-1.4665">
        <ele>42.4</ele>
        <time>2022-09-11T13:44:12Z</time>
      </trkpt>
      <trkpt lat="43.48952" lon="-1.46672">
        <ele>42.8</ele>
        <time>2022-09-11T13:44:20Z</time>
      </trkpt>
      <trkpt lat="43.48962" lon="-1.46681">
        <ele>43.4</ele>
        <time>2022-09-11T13:44:24Z</time>
      </trkpt>
      <trkpt lat="43.48975" lon="-1.46692">
        <ele>43.6</ele>
        <time>2022-09-11T13:44:29Z</time>
      </trkpt>
      <trkpt lat="43.48989" lon="-1.46703">
        <ele>43.8</ele>
        <time>2022-09-11T13:44:35Z</time>
      </trkpt>
      <trkpt lat="43.49007" lon="-1.46717">
        <ele>44.2</ele>
        <time>2022-09-11T13:44:42Z</time>
      </trkpt>
      <trkpt lat="43.49018" lon="-1.46725">
        <ele>44.4</ele>
        <time>2022-09-11T13:44:46Z</time>
      </trkpt>
      <trkpt lat="43.49029" lon="-1.46733">
        <ele>44.6</ele>
        <time>2022-09-11T13:44:50Z</time>
      </trkpt>
      <trkpt lat="43.49051" lon="-1.46748">
        <ele>44.6</ele>
        <time>2022-09-11T13:44:58Z</time>
      </trkpt>
      <trkpt lat="43.49074" lon="-1.46767">
        <ele>44.2</ele>
        <time>2022-09-11T13:45:05Z</time>
      </trkpt>
      <trkpt lat="43.49081" lon="-1.46775">
        <ele>43.8</ele>
        <time>2022-09-11T13:45:07Z</time>
      </trkpt>
      <trkpt lat="43.4909" lon="-1.46791">
        <ele>43.4</ele>
        <time>2022-09-11T13:45:10Z</time>
      </trkpt>
      <trkpt lat="43.49113" lon="-1.46838">
        <ele>42.6</ele>
        <time>2022-09-11T13:45:18Z</time>
      </trkpt>
      <trkpt lat="43.49119" lon="-1.46851">
        <ele>42.4</ele>
        <time>2022-09-11T13:45:20Z</time>
      </trkpt>
      <trkpt lat="43.49129" lon="-1.4687">
        <ele>42</ele>
        <time>2022-09-11T13:45:24Z</time>
      </trkpt>
      <trkpt lat="43.49137" lon="-1.46886">
        <ele>41.6</ele>
        <time>2022-09-11T13:45:30Z</time>
      </trkpt>
      <trkpt lat="43.4914" lon="-1.46892">
        <ele>41.8</ele>
        <time>2022-09-11T13:46:04Z</time>
      </trkpt>
      <trkpt lat="43.49141" lon="-1.46894">
        <ele>41.6</ele>
        <time>2022-09-11T13:46:05Z</time>
      </trkpt>
      <trkpt lat="43.49146" lon="-1.46912">
        <ele>41.6</ele>
        <time>2022-09-11T13:46:11Z</time>
      </trkpt>
      <trkpt lat="43.49146" lon="-1.46931">
        <ele>41.8</ele>
        <time>2022-09-11T13:46:16Z</time>
      </trkpt>
      <trkpt lat="43.49145" lon="-1.46945">
        <ele>41.8</ele>
        <time>2022-09-11T13:46:19Z</time>
      </trkpt>
      <trkpt lat="43.4914" lon="-1.46951">
        <ele>42</ele>
        <time>2022-09-11T13:46:21Z</time>
      </trkpt>
      <trkpt lat="43.49133" lon="-1.46955">
        <ele>42</ele>
        <time>2022-09-11T13:46:23Z</time>
      </trkpt>
      <trkpt lat="43.49117" lon="-1.46962">
        <ele>42.4</ele>
        <time>2022-09-11T13:46:28Z</time>
      </trkpt>
      <trkpt lat="43.49098" lon="-1.46973">
        <ele>43</ele>
        <time>2022-09-11T13:46:35Z</time>
      </trkpt>
      <trkpt lat="43.49086" lon="-1.46983">
        <ele>43.4</ele>
        <time>2022-09-11T13:46:39Z</time>
      </trkpt>
      <trkpt lat="43.49081" lon="-1.4699">
        <ele>43.2</ele>
        <time>2022-09-11T13:46:41Z</time>
      </trkpt>
      <trkpt lat="43.49064" lon="-1.47014">
        <ele>43.2</ele>
        <time>2022-09-11T13:46:48Z</time>
      </trkpt>
      <trkpt lat="43.49062" lon="-1.47021">
        <ele>43.4</ele>
        <time>2022-09-11T13:46:50Z</time>
      </trkpt>
      <trkpt lat="43.49064" lon="-1.47024">
        <ele>43.4</ele>
        <time>2022-09-11T13:46:51Z</time>
      </trkpt>
      <trkpt lat="43.49071" lon="-1.47043">
        <ele>43.2</ele>
        <time>2022-09-11T13:46:56Z</time>
      </trkpt>
      <trkpt lat="43.49072" lon="-1.47065">
        <ele>43.2</ele>
        <time>2022-09-11T13:47:01Z</time>
      </trkpt>
      <trkpt lat="43.4907" lon="-1.47095">
        <ele>43.6</ele>
        <time>2022-09-11T13:47:09Z</time>
      </trkpt>
      <trkpt lat="43.49067" lon="-1.47123">
        <ele>43.6</ele>
        <time>2022-09-11T13:47:16Z</time>
      </trkpt>
      <trkpt lat="43.49066" lon="-1.47156">
        <ele>43.4</ele>
        <time>2022-09-11T13:47:24Z</time>
      </trkpt>
      <trkpt lat="43.49066" lon="-1.47161">
        <ele>43.4</ele>
        <time>2022-09-11T13:47:26Z</time>
      </trkpt>
      <trkpt lat="43.49067" lon="-1.47164">
        <ele>43.2</ele>
        <time>2022-09-11T13:47:28Z</time>
      </trkpt>
      <trkpt lat="43.49068" lon="-1.47172">
        <ele>43.4</ele>
        <time>2022-09-11T13:47:42Z</time>
      </trkpt>
      <trkpt lat="43.49068" lon="-1.47175">
        <ele>43.4</ele>
        <time>2022-09-11T13:47:43Z</time>
      </trkpt>
      <trkpt lat="43.49069" lon="-1.47188">
        <ele>43</ele>
        <time>2022-09-11T13:47:46Z</time>
      </trkpt>
      <trkpt lat="43.4907" lon="-1.47202">
        <ele>42.8</ele>
        <time>2022-09-11T13:47:49Z</time>
      </trkpt>
      <trkpt lat="43.49076" lon="-1.47226">
        <ele>42.6</ele>
        <time>2022-09-11T13:47:54Z</time>
      </trkpt>
      <trkpt lat="43.4908" lon="-1.47252">
        <ele>42.4</ele>
        <time>2022-09-11T13:48:00Z</time>
      </trkpt>
      <trkpt lat="43.49081" lon="-1.47256">
        <ele>42.4</ele>
        <time>2022-09-11T13:48:01Z</time>
      </trkpt>
      <trkpt lat="43.4909" lon="-1.4728">
        <ele>42</ele>
        <time>2022-09-11T13:48:07Z</time>
      </trkpt>
      <trkpt lat="43.4909" lon="-1.47301">
        <ele>41.8</ele>
        <time>2022-09-11T13:48:12Z</time>
      </trkpt>
      <trkpt lat="43.49092" lon="-1.47328">
        <ele>41.6</ele>
        <time>2022-09-11T13:48:19Z</time>
      </trkpt>
      <trkpt lat="43.49092" lon="-1.47335">
        <ele>41.8</ele>
        <time>2022-09-11T13:48:22Z</time>
      </trkpt>
      <trkpt lat="43.49091" lon="-1.4734">
        <ele>41.8</ele>
        <time>2022-09-11T13:48:24Z</time>
      </trkpt>
      <trkpt lat="43.49089" lon="-1.47365">
        <ele>42.2</ele>
        <time>2022-09-11T13:48:32Z</time>
      </trkpt>
      <trkpt lat="43.49094" lon="-1.47384">
        <ele>42.6</ele>
        <time>2022-09-11T13:48:39Z</time>
      </trkpt>
      <trkpt lat="43.491" lon="-1.47399">
        <ele>43.4</ele>
        <time>2022-09-11T13:48:44Z</time>
      </trkpt>
      <trkpt lat="43.49101" lon="-1.47402">
        <ele>43.6</ele>
        <time>2022-09-11T13:48:45Z</time>
      </trkpt>
      <trkpt lat="43.49103" lon="-1.47421">
        <ele>44</ele>
        <time>2022-09-11T13:48:51Z</time>
      </trkpt>
      <trkpt lat="43.49104" lon="-1.47444">
        <ele>44.2</ele>
        <time>2022-09-11T13:48:59Z</time>
      </trkpt>
      <trkpt lat="43.49103" lon="-1.47468">
        <ele>43.8</ele>
        <time>2022-09-11T13:49:07Z</time>
      </trkpt>
      <trkpt lat="43.49103" lon="-1.47477">
        <ele>42.8</ele>
        <time>2022-09-11T13:49:12Z</time>
      </trkpt>
      <trkpt lat="43.491" lon="-1.47492">
        <ele>42.6</ele>
        <time>2022-09-11T13:49:17Z</time>
      </trkpt>
      <trkpt lat="43.49099" lon="-1.47497">
        <ele>42.4</ele>
        <time>2022-09-11T13:49:18Z</time>
      </trkpt>
      <trkpt lat="43.49095" lon="-1.47523">
        <ele>42</ele>
        <time>2022-09-11T13:49:24Z</time>
      </trkpt>
      <trkpt lat="43.49096" lon="-1.47531">
        <ele>41.8</ele>
        <time>2022-09-11T13:49:28Z</time>
      </trkpt>
      <trkpt lat="43.49095" lon="-1.47549">
        <ele>42</ele>
        <time>2022-09-11T13:49:37Z</time>
      </trkpt>
      <trkpt lat="43.49094" lon="-1.47554">
        <ele>42.2</ele>
        <time>2022-09-11T13:49:39Z</time>
      </trkpt>
      <trkpt lat="43.49091" lon="-1.47574">
        <ele>42.4</ele>
        <time>2022-09-11T13:49:46Z</time>
      </trkpt>
      <trkpt lat="43.49091" lon="-1.47579">
        <ele>42.6</ele>
        <time>2022-09-11T13:49:47Z</time>
      </trkpt>
      <trkpt lat="43.49092" lon="-1.47589">
        <ele>42.6</ele>
        <time>2022-09-11T13:49:50Z</time>
      </trkpt>
      <trkpt lat="43.49092" lon="-1.47603">
        <ele>43.2</ele>
        <time>2022-09-11T13:49:55Z</time>
      </trkpt>
      <trkpt lat="43.49092" lon="-1.47605">
        <ele>43.4</ele>
        <time>2022-09-11T13:49:56Z</time>
      </trkpt>
      <trkpt lat="43.4909" lon="-1.47613">
        <ele>44</ele>
        <time>2022-09-11T13:50:00Z</time>
      </trkpt>
      <trkpt lat="43.4909" lon="-1.47617">
        <ele>44.4</ele>
        <time>2022-09-11T13:50:02Z</time>
      </trkpt>
      <trkpt lat="43.49088" lon="-1.47637">
        <ele>45.4</ele>
        <time>2022-09-11T13:50:10Z</time>
      </trkpt>
      <trkpt lat="43.49089" lon="-1.47641">
        <ele>45.6</ele>
        <time>2022-09-11T13:50:11Z</time>
      </trkpt>
      <trkpt lat="43.4909" lon="-1.47644">
        <ele>45.8</ele>
        <time>2022-09-11T13:50:12Z</time>
      </trkpt>
      <trkpt lat="43.49089" lon="-1.47658">
        <ele>46.6</ele>
        <time>2022-09-11T13:50:17Z</time>
      </trkpt>
      <trkpt lat="43.49085" lon="-1.47671">
        <ele>47.4</ele>
        <time>2022-09-11T13:50:24Z</time>
      </trkpt>
      <trkpt lat="43.49082" lon="-1.47673">
        <ele>47.6</ele>
        <time>2022-09-11T13:50:26Z</time>
      </trkpt>
      <trkpt lat="43.49082" lon="-1.47674">
        <ele>47.8</ele>
        <time>2022-09-11T13:50:27Z</time>
      </trkpt>
      <trkpt lat="43.49077" lon="-1.47674">
        <ele>48.2</ele>
        <time>2022-09-11T13:50:30Z</time>
      </trkpt>
      <trkpt lat="43.49072" lon="-1.47675">
        <ele>48.6</ele>
        <time>2022-09-11T13:50:34Z</time>
      </trkpt>
      <trkpt lat="43.4907" lon="-1.47676">
        <ele>48.8</ele>
        <time>2022-09-11T13:50:35Z</time>
      </trkpt>
      <trkpt lat="43.49067" lon="-1.47678">
        <ele>49.2</ele>
        <time>2022-09-11T13:50:38Z</time>
      </trkpt>
      <trkpt lat="43.49058" lon="-1.47672">
        <ele>49.2</ele>
        <time>2022-09-11T13:50:45Z</time>
      </trkpt>
      <trkpt lat="43.49051" lon="-1.47673">
        <ele>49.4</ele>
        <time>2022-09-11T13:50:50Z</time>
      </trkpt>
      <trkpt lat="43.49043" lon="-1.47661">
        <ele>50</ele>
        <time>2022-09-11T13:54:02Z</time>
      </trkpt>
      <trkpt lat="43.49041" lon="-1.4766">
        <ele>50</ele>
        <time>2022-09-11T13:54:03Z</time>
      </trkpt>
      <trkpt lat="43.49027" lon="-1.4766">
        <ele>50.6</ele>
        <time>2022-09-11T13:54:10Z</time>
      </trkpt>
      <trkpt lat="43.49025" lon="-1.47662">
        <ele>51</ele>
        <time>2022-09-11T13:54:12Z</time>
      </trkpt>
      <trkpt lat="43.49018" lon="-1.47665">
        <ele>51.2</ele>
        <time>2022-09-11T13:54:17Z</time>
      </trkpt>
      <trkpt lat="43.49016" lon="-1.47668">
        <ele>51.4</ele>
        <time>2022-09-11T13:54:19Z</time>
      </trkpt>
      <trkpt lat="43.49013" lon="-1.47672">
        <ele>51.4</ele>
        <time>2022-09-11T13:54:22Z</time>
      </trkpt>
      <trkpt lat="43.49001" lon="-1.47683">
        <ele>51.8</ele>
        <time>2022-09-11T13:54:31Z</time>
      </trkpt>
      <trkpt lat="43.4899" lon="-1.47688">
        <ele>52</ele>
        <time>2022-09-11T13:54:37Z</time>
      </trkpt>
      <trkpt lat="43.48985" lon="-1.47691">
        <ele>52</ele>
        <time>2022-09-11T13:54:40Z</time>
      </trkpt>
      <trkpt lat="43.48973" lon="-1.47698">
        <ele>52.4</ele>
        <time>2022-09-11T13:54:47Z</time>
      </trkpt>
      <trkpt lat="43.48958" lon="-1.47712">
        <ele>53</ele>
        <time>2022-09-11T13:54:56Z</time>
      </trkpt>
      <trkpt lat="43.48957" lon="-1.47714">
        <ele>53</ele>
        <time>2022-09-11T13:54:57Z</time>
      </trkpt>
      <trkpt lat="43.48945" lon="-1.4772">
        <ele>52.8</ele>
        <time>2022-09-11T13:55:04Z</time>
      </trkpt>
      <trkpt lat="43.48926" lon="-1.47735">
        <ele>52.4</ele>
        <time>2022-09-11T13:55:15Z</time>
      </trkpt>
      <trkpt lat="43.48915" lon="-1.47746">
        <ele>52.2</ele>
        <time>2022-09-11T13:55:24Z</time>
      </trkpt>
      <trkpt lat="43.4891" lon="-1.4775">
        <ele>52.2</ele>
        <time>2022-09-11T13:55:28Z</time>
      </trkpt>
      <trkpt lat="43.48906" lon="-1.47754">
        <ele>52.2</ele>
        <time>2022-09-11T13:55:31Z</time>
      </trkpt>
      <trkpt lat="43.48894" lon="-1.47761">
        <ele>52.4</ele>
        <time>2022-09-11T13:55:40Z</time>
      </trkpt>
      <trkpt lat="43.48891" lon="-1.47761">
        <ele>52.6</ele>
        <time>2022-09-11T13:56:30Z</time>
      </trkpt>
      <trkpt lat="43.48893" lon="-1.4776">
        <ele>52.6</ele>
        <time>2022-09-11T13:56:31Z</time>
      </trkpt>
      <trkpt lat="43.48896" lon="-1.47756">
        <ele>52.6</ele>
        <time>2022-09-11T13:56:33Z</time>
      </trkpt>
      <trkpt lat="43.48906" lon="-1.47741">
        <ele>52.6</ele>
        <time>2022-09-11T13:56:39Z</time>
      </trkpt>
      <trkpt lat="43.48917" lon="-1.47732">
        <ele>52.8</ele>
        <time>2022-09-11T13:56:44Z</time>
      </trkpt>
      <trkpt lat="43.48932" lon="-1.47721">
        <ele>53</ele>
        <time>2022-09-11T13:56:51Z</time>
      </trkpt>
      <trkpt lat="43.4895" lon="-1.47708">
        <ele>53.2</ele>
        <time>2022-09-11T13:56:59Z</time>
      </trkpt>
      <trkpt lat="43.48963" lon="-1.47697">
        <ele>53</ele>
        <time>2022-09-11T13:57:07Z</time>
      </trkpt>
      <trkpt lat="43.48973" lon="-1.4769">
        <ele>52.8</ele>
        <time>2022-09-11T13:57:14Z</time>
      </trkpt>
      <trkpt lat="43.48979" lon="-1.47688">
        <ele>52.6</ele>
        <time>2022-09-11T13:57:18Z</time>
      </trkpt>
      <trkpt lat="43.48983" lon="-1.47685">
        <ele>52.4</ele>
        <time>2022-09-11T13:57:22Z</time>
      </trkpt>
      <trkpt lat="43.48988" lon="-1.47681">
        <ele>52.4</ele>
        <time>2022-09-11T13:57:26Z</time>
      </trkpt>
      <trkpt lat="43.48996" lon="-1.47673">
        <ele>52</ele>
        <time>2022-09-11T13:57:34Z</time>
      </trkpt>
      <trkpt lat="43.49005" lon="-1.47665">
        <ele>52.2</ele>
        <time>2022-09-11T13:57:42Z</time>
      </trkpt>
      <trkpt lat="43.49014" lon="-1.47663">
        <ele>52</ele>
        <time>2022-09-11T13:57:48Z</time>
      </trkpt>
      <trkpt lat="43.49016" lon="-1.47663">
        <ele>52</ele>
        <time>2022-09-11T13:57:49Z</time>
      </trkpt>
      <trkpt lat="43.49023" lon="-1.4766">
        <ele>51.8</ele>
        <time>2022-09-11T13:57:54Z</time>
      </trkpt>
      <trkpt lat="43.49024" lon="-1.4766">
        <ele>51.8</ele>
        <time>2022-09-11T13:57:55Z</time>
      </trkpt>
      <trkpt lat="43.49025" lon="-1.47664">
        <ele>51.6</ele>
        <time>2022-09-11T13:57:58Z</time>
      </trkpt>
      <trkpt lat="43.49026" lon="-1.47667">
        <ele>51.6</ele>
        <time>2022-09-11T13:58:00Z</time>
      </trkpt>
      <trkpt lat="43.49028" lon="-1.47676">
        <ele>51.8</ele>
        <time>2022-09-11T13:58:04Z</time>
      </trkpt>
    </trkseg>
  </trk>
  <trk>
    <name><![CDATA[J7 - Far west - Oloron-Sainte-Marie - Pagolle - Pays basque 😎😍]]></name>
    <extensions>
      <line xmlns="http://www.topografix.com/GPX/gpx_style/0/2">
        <color>00FF00</color>
        <width>4</width>
      </line>
    </extensions>
    <trkseg>
      <trkpt lat="43.19413" lon="-0.61088">
        <ele>223</ele>
        <time>2022-09-10T08:08:40Z</time>
      </trkpt>
      <trkpt lat="43.19409" lon="-0.61091">
        <ele>223</ele>
        <time>2022-09-10T08:08:45Z</time>
      </trkpt>
      <trkpt lat="43.19408" lon="-0.61095">
        <ele>223</ele>
        <time>2022-09-10T08:08:47Z</time>
      </trkpt>
      <trkpt lat="43.19401" lon="-0.611">
        <ele>223.2</ele>
        <time>2022-09-10T08:08:53Z</time>
      </trkpt>
      <trkpt lat="43.19398" lon="-0.61106">
        <ele>223.2</ele>
        <time>2022-09-10T08:08:57Z</time>
      </trkpt>
      <trkpt lat="43.19396" lon="-0.61111">
        <ele>223.2</ele>
        <time>2022-09-10T08:09:00Z</time>
      </trkpt>
      <trkpt lat="43.19395" lon="-0.61112">
        <ele>223.2</ele>
        <time>2022-09-10T08:09:01Z</time>
      </trkpt>
      <trkpt lat="43.19392" lon="-0.61118">
        <ele>223.2</ele>
        <time>2022-09-10T08:09:06Z</time>
      </trkpt>
      <trkpt lat="43.19391" lon="-0.61123">
        <ele>223.2</ele>
        <time>2022-09-10T08:09:09Z</time>
      </trkpt>
      <trkpt lat="43.19395" lon="-0.61128">
        <ele>223</ele>
        <time>2022-09-10T08:09:12Z</time>
      </trkpt>
      <trkpt lat="43.19397" lon="-0.61129">
        <ele>223</ele>
        <time>2022-09-10T08:09:13Z</time>
      </trkpt>
      <trkpt lat="43.19413" lon="-0.61142">
        <ele>223</ele>
        <time>2022-09-10T08:09:22Z</time>
      </trkpt>
      <trkpt lat="43.19427" lon="-0.61151">
        <ele>223.2</ele>
        <time>2022-09-10T08:09:28Z</time>
      </trkpt>
      <trkpt lat="43.19442" lon="-0.61164">
        <ele>223.6</ele>
        <time>2022-09-10T08:09:34Z</time>
      </trkpt>
      <trkpt lat="43.19442" lon="-0.61182">
        <ele>224</ele>
        <time>2022-09-10T08:09:38Z</time>
      </trkpt>
      <trkpt lat="43.19434" lon="-0.61196">
        <ele>224.2</ele>
        <time>2022-09-10T08:09:42Z</time>
      </trkpt>
      <trkpt lat="43.19421" lon="-0.612">
        <ele>224.2</ele>
        <time>2022-09-10T08:09:46Z</time>
      </trkpt>
      <trkpt lat="43.19401" lon="-0.61201">
        <ele>223.8</ele>
        <time>2022-09-10T08:09:51Z</time>
      </trkpt>
      <trkpt lat="43.19385" lon="-0.61209">
        <ele>223.8</ele>
        <time>2022-09-10T08:09:56Z</time>
      </trkpt>
      <trkpt lat="43.19362" lon="-0.61225">
        <ele>223.8</ele>
        <time>2022-09-10T08:10:03Z</time>
      </trkpt>
      <trkpt lat="43.19344" lon="-0.61242">
        <ele>224</ele>
        <time>2022-09-10T08:10:09Z</time>
      </trkpt>
      <trkpt lat="43.19316" lon="-0.61266">
        <ele>224.2</ele>
        <time>2022-09-10T08:10:18Z</time>
      </trkpt>
      <trkpt lat="43.19285" lon="-0.61291">
        <ele>224.8</ele>
        <time>2022-09-10T08:10:28Z</time>
      </trkpt>
      <trkpt lat="43.19269" lon="-0.61304">
        <ele>225</ele>
        <time>2022-09-10T08:10:35Z</time>
      </trkpt>
      <trkpt lat="43.19267" lon="-0.61305">
        <ele>225</ele>
        <time>2022-09-10T08:10:37Z</time>
      </trkpt>
      <trkpt lat="43.19261" lon="-0.61314">
        <ele>225.4</ele>
        <time>2022-09-10T08:10:41Z</time>
      </trkpt>
      <trkpt lat="43.19247" lon="-0.6132">
        <ele>225.6</ele>
        <time>2022-09-10T08:10:46Z</time>
      </trkpt>
      <trkpt lat="43.19234" lon="-0.61332">
        <ele>226.2</ele>
        <time>2022-09-10T08:10:51Z</time>
      </trkpt>
      <trkpt lat="43.19222" lon="-0.61342">
        <ele>226.6</ele>
        <time>2022-09-10T08:10:55Z</time>
      </trkpt>
      <trkpt lat="43.19209" lon="-0.61356">
        <ele>227.4</ele>
        <time>2022-09-10T08:11:00Z</time>
      </trkpt>
      <trkpt lat="43.19204" lon="-0.61362">
        <ele>227.6</ele>
        <time>2022-09-10T08:11:02Z</time>
      </trkpt>
      <trkpt lat="43.19186" lon="-0.61384">
        <ele>228.4</ele>
        <time>2022-09-10T08:11:09Z</time>
      </trkpt>
      <trkpt lat="43.1918" lon="-0.61392">
        <ele>228.8</ele>
        <time>2022-09-10T08:11:12Z</time>
      </trkpt>
      <trkpt lat="43.19167" lon="-0.61412">
        <ele>229.6</ele>
        <time>2022-09-10T08:11:18Z</time>
      </trkpt>
      <trkpt lat="43.19162" lon="-0.61418">
        <ele>229.6</ele>
        <time>2022-09-10T08:11:20Z</time>
      </trkpt>
      <trkpt lat="43.19144" lon="-0.6145">
        <ele>229.6</ele>
        <time>2022-09-10T08:11:28Z</time>
      </trkpt>
      <trkpt lat="43.19125" lon="-0.61492">
        <ele>229.8</ele>
        <time>2022-09-10T08:11:37Z</time>
      </trkpt>
      <trkpt lat="43.1911" lon="-0.61529">
        <ele>230.6</ele>
        <time>2022-09-10T08:11:45Z</time>
      </trkpt>
      <trkpt lat="43.19094" lon="-0.61568">
        <ele>231.8</ele>
        <time>2022-09-10T08:11:54Z</time>
      </trkpt>
      <trkpt lat="43.19091" lon="-0.61577">
        <ele>232</ele>
        <time>2022-09-10T08:11:56Z</time>
      </trkpt>
      <trkpt lat="43.19081" lon="-0.61599">
        <ele>232.8</ele>
        <time>2022-09-10T08:12:02Z</time>
      </trkpt>
      <trkpt lat="43.19073" lon="-0.61618">
        <ele>233.6</ele>
        <time>2022-09-10T08:12:07Z</time>
      </trkpt>
      <trkpt lat="43.19068" lon="-0.6163">
        <ele>233.8</ele>
        <time>2022-09-10T08:12:10Z</time>
      </trkpt>
      <trkpt lat="43.19061" lon="-0.61648">
        <ele>234.6</ele>
        <time>2022-09-10T08:12:15Z</time>
      </trkpt>
      <trkpt lat="43.19057" lon="-0.61662">
        <ele>235</ele>
        <time>2022-09-10T08:12:19Z</time>
      </trkpt>
      <trkpt lat="43.19051" lon="-0.61678">
        <ele>235.4</ele>
        <time>2022-09-10T08:12:24Z</time>
      </trkpt>
      <trkpt lat="43.1904" lon="-0.61708">
        <ele>235.8</ele>
        <time>2022-09-10T08:12:33Z</time>
      </trkpt>
      <trkpt lat="43.1904" lon="-0.61712">
        <ele>235.8</ele>
        <time>2022-09-10T08:12:34Z</time>
      </trkpt>
      <trkpt lat="43.1904" lon="-0.61715">
        <ele>236</ele>
        <time>2022-09-10T08:12:35Z</time>
      </trkpt>
      <trkpt lat="43.19042" lon="-0.61723">
        <ele>236</ele>
        <time>2022-09-10T08:12:37Z</time>
      </trkpt>
      <trkpt lat="43.19046" lon="-0.61745">
        <ele>236</ele>
        <time>2022-09-10T08:12:43Z</time>
      </trkpt>
      <trkpt lat="43.1904" lon="-0.61759">
        <ele>236</ele>
        <time>2022-09-10T08:12:47Z</time>
      </trkpt>
      <trkpt lat="43.19023" lon="-0.61772">
        <ele>236.2</ele>
        <time>2022-09-10T08:12:53Z</time>
      </trkpt>
      <trkpt lat="43.19018" lon="-0.61783">
        <ele>236.2</ele>
        <time>2022-09-10T08:12:56Z</time>
      </trkpt>
      <trkpt lat="43.19017" lon="-0.61791">
        <ele>236.2</ele>
        <time>2022-09-10T08:12:58Z</time>
      </trkpt>
      <trkpt lat="43.19017" lon="-0.61797">
        <ele>236.2</ele>
        <time>2022-09-10T08:13:00Z</time>
      </trkpt>
      <trkpt lat="43.19015" lon="-0.618">
        <ele>236.2</ele>
        <time>2022-09-10T08:13:01Z</time>
      </trkpt>
      <trkpt lat="43.19012" lon="-0.61806">
        <ele>236.2</ele>
        <time>2022-09-10T08:13:03Z</time>
      </trkpt>
      <trkpt lat="43.19007" lon="-0.61823">
        <ele>236.4</ele>
        <time>2022-09-10T08:13:09Z</time>
      </trkpt>
      <trkpt lat="43.19003" lon="-0.61823">
        <ele>236.4</ele>
        <time>2022-09-10T08:13:55Z</time>
      </trkpt>
      <trkpt lat="43.18998" lon="-0.61825">
        <ele>236.2</ele>
        <time>2022-09-10T08:13:57Z</time>
      </trkpt>
      <trkpt lat="43.1899" lon="-0.61838">
        <ele>236.2</ele>
        <time>2022-09-10T08:14:01Z</time>
      </trkpt>
      <trkpt lat="43.18989" lon="-0.61842">
        <ele>236.2</ele>
        <time>2022-09-10T08:14:02Z</time>
      </trkpt>
      <trkpt lat="43.18975" lon="-0.61865">
        <ele>236.6</ele>
        <time>2022-09-10T08:14:08Z</time>
      </trkpt>
      <trkpt lat="43.18962" lon="-0.61892">
        <ele>236.6</ele>
        <time>2022-09-10T08:14:15Z</time>
      </trkpt>
      <trkpt lat="43.1896" lon="-0.61921">
        <ele>236.6</ele>
        <time>2022-09-10T08:14:21Z</time>
      </trkpt>
      <trkpt lat="43.18965" lon="-0.61969">
        <ele>236.4</ele>
        <time>2022-09-10T08:14:29Z</time>
      </trkpt>
      <trkpt lat="43.18969" lon="-0.6201">
        <ele>237</ele>
        <time>2022-09-10T08:14:36Z</time>
      </trkpt>
      <trkpt lat="43.18971" lon="-0.62028">
        <ele>237</ele>
        <time>2022-09-10T08:14:39Z</time>
      </trkpt>
      <trkpt lat="43.18972" lon="-0.62033">
        <ele>237.2</ele>
        <time>2022-09-10T08:14:40Z</time>
      </trkpt>
      <trkpt lat="43.18977" lon="-0.62062">
        <ele>237.4</ele>
        <time>2022-09-10T08:14:45Z</time>
      </trkpt>
      <trkpt lat="43.18989" lon="-0.6208">
        <ele>237.4</ele>
        <time>2022-09-10T08:14:49Z</time>
      </trkpt>
      <trkpt lat="43.19017" lon="-0.62112">
        <ele>237</ele>
        <time>2022-09-10T08:14:58Z</time>
      </trkpt>
      <trkpt lat="43.19021" lon="-0.62118">
        <ele>237</ele>
        <time>2022-09-10T08:15:02Z</time>
      </trkpt>
      <trkpt lat="43.1903" lon="-0.62124">
        <ele>237.2</ele>
        <time>2022-09-10T08:15:08Z</time>
      </trkpt>
      <trkpt lat="43.19036" lon="-0.62125">
        <ele>237.4</ele>
        <time>2022-09-10T08:15:23Z</time>
      </trkpt>
      <trkpt lat="43.19042" lon="-0.62127">
        <ele>237.2</ele>
        <time>2022-09-10T08:15:25Z</time>
      </trkpt>
      <trkpt lat="43.19051" lon="-0.62138">
        <ele>237.4</ele>
        <time>2022-09-10T08:15:28Z</time>
      </trkpt>
      <trkpt lat="43.19052" lon="-0.62144">
        <ele>237.4</ele>
        <time>2022-09-10T08:15:29Z</time>
      </trkpt>
      <trkpt lat="43.19055" lon="-0.62167">
        <ele>237.6</ele>
        <time>2022-09-10T08:15:33Z</time>
      </trkpt>
      <trkpt lat="43.19065" lon="-0.62182">
        <ele>237.4</ele>
        <time>2022-09-10T08:15:36Z</time>
      </trkpt>
      <trkpt lat="43.19068" lon="-0.62186">
        <ele>237.6</ele>
        <time>2022-09-10T08:15:37Z</time>
      </trkpt>
      <trkpt lat="43.19083" lon="-0.62204">
        <ele>237.2</ele>
        <time>2022-09-10T08:15:41Z</time>
      </trkpt>
      <trkpt lat="43.19094" lon="-0.62218">
        <ele>237.2</ele>
        <time>2022-09-10T08:15:44Z</time>
      </trkpt>
      <trkpt lat="43.19114" lon="-0.6225">
        <ele>236.6</ele>
        <time>2022-09-10T08:15:50Z</time>
      </trkpt>
      <trkpt lat="43.19117" lon="-0.62256">
        <ele>236.4</ele>
        <time>2022-09-10T08:15:51Z</time>
      </trkpt>
      <trkpt lat="43.19131" lon="-0.62298">
        <ele>236</ele>
        <time>2022-09-10T08:15:58Z</time>
      </trkpt>
      <trkpt lat="43.19148" lon="-0.62337">
        <ele>235.4</ele>
        <time>2022-09-10T08:16:05Z</time>
      </trkpt>
      <trkpt lat="43.1915" lon="-0.62343">
        <ele>235.4</ele>
        <time>2022-09-10T08:16:06Z</time>
      </trkpt>
      <trkpt lat="43.19148" lon="-0.62355">
        <ele>235.6</ele>
        <time>2022-09-10T08:16:08Z</time>
      </trkpt>
      <trkpt lat="43.19139" lon="-0.62377">
        <ele>235.2</ele>
        <time>2022-09-10T08:16:12Z</time>
      </trkpt>
      <trkpt lat="43.19138" lon="-0.62382">
        <ele>235.4</ele>
        <time>2022-09-10T08:16:13Z</time>
      </trkpt>
      <trkpt lat="43.19127" lon="-0.62414">
        <ele>235.6</ele>
        <time>2022-09-10T08:16:19Z</time>
      </trkpt>
      <trkpt lat="43.19113" lon="-0.62454">
        <ele>235.4</ele>
        <time>2022-09-10T08:16:27Z</time>
      </trkpt>
      <trkpt lat="43.19106" lon="-0.62474">
        <ele>235.2</ele>
        <time>2022-09-10T08:16:31Z</time>
      </trkpt>
      <trkpt lat="43.19105" lon="-0.62491">
        <ele>235.2</ele>
        <time>2022-09-10T08:16:34Z</time>
      </trkpt>
      <trkpt lat="43.19102" lon="-0.62533">
        <ele>235.4</ele>
        <time>2022-09-10T08:16:42Z</time>
      </trkpt>
      <trkpt lat="43.19099" lon="-0.62582">
        <ele>235.6</ele>
        <time>2022-09-10T08:16:51Z</time>
      </trkpt>
      <trkpt lat="43.19096" lon="-0.62621">
        <ele>235.6</ele>
        <time>2022-09-10T08:16:58Z</time>
      </trkpt>
      <trkpt lat="43.19093" lon="-0.62674">
        <ele>235.2</ele>
        <time>2022-09-10T08:17:07Z</time>
      </trkpt>
      <trkpt lat="43.19091" lon="-0.62697">
        <ele>234.8</ele>
        <time>2022-09-10T08:17:11Z</time>
      </trkpt>
      <trkpt lat="43.19088" lon="-0.62713">
        <ele>234.8</ele>
        <time>2022-09-10T08:17:14Z</time>
      </trkpt>
      <trkpt lat="43.19079" lon="-0.62746">
        <ele>235</ele>
        <time>2022-09-10T08:17:21Z</time>
      </trkpt>
      <trkpt lat="43.19061" lon="-0.62782">
        <ele>235.2</ele>
        <time>2022-09-10T08:17:29Z</time>
      </trkpt>
      <trkpt lat="43.19058" lon="-0.62786">
        <ele>235.4</ele>
        <time>2022-09-10T08:17:30Z</time>
      </trkpt>
      <trkpt lat="43.19042" lon="-0.62803">
        <ele>235.4</ele>
        <time>2022-09-10T08:17:35Z</time>
      </trkpt>
      <trkpt lat="43.19031" lon="-0.62825">
        <ele>235.2</ele>
        <time>2022-09-10T08:17:41Z</time>
      </trkpt>
      <trkpt lat="43.19038" lon="-0.62846">
        <ele>235.2</ele>
        <time>2022-09-10T08:17:45Z</time>
      </trkpt>
      <trkpt lat="43.19058" lon="-0.62888">
        <ele>234.8</ele>
        <time>2022-09-10T08:17:54Z</time>
      </trkpt>
      <trkpt lat="43.19063" lon="-0.62911">
        <ele>234.8</ele>
        <time>2022-09-10T08:17:59Z</time>
      </trkpt>
      <trkpt lat="43.19053" lon="-0.62929">
        <ele>235</ele>
        <time>2022-09-10T08:18:03Z</time>
      </trkpt>
      <trkpt lat="43.19036" lon="-0.62961">
        <ele>235</ele>
        <time>2022-09-10T08:18:11Z</time>
      </trkpt>
      <trkpt lat="43.19034" lon="-0.62978">
        <ele>234.8</ele>
        <time>2022-09-10T08:18:16Z</time>
      </trkpt>
      <trkpt lat="43.19044" lon="-0.62997">
        <ele>234.8</ele>
        <time>2022-09-10T08:18:21Z</time>
      </trkpt>
      <trkpt lat="43.19047" lon="-0.63001">
        <ele>234.8</ele>
        <time>2022-09-10T08:18:22Z</time>
      </trkpt>
      <trkpt lat="43.19064" lon="-0.63032">
        <ele>234.6</ele>
        <time>2022-09-10T08:18:29Z</time>
      </trkpt>
      <trkpt lat="43.19083" lon="-0.63062">
        <ele>234.2</ele>
        <time>2022-09-10T08:18:36Z</time>
      </trkpt>
      <trkpt lat="43.19104" lon="-0.63095">
        <ele>234</ele>
        <time>2022-09-10T08:18:44Z</time>
      </trkpt>
      <trkpt lat="43.19124" lon="-0.63124">
        <ele>233.8</ele>
        <time>2022-09-10T08:18:51Z</time>
      </trkpt>
      <trkpt lat="43.19127" lon="-0.63128">
        <ele>233.8</ele>
        <time>2022-09-10T08:18:52Z</time>
      </trkpt>
      <trkpt lat="43.19152" lon="-0.63163">
        <ele>233.4</ele>
        <time>2022-09-10T08:19:01Z</time>
      </trkpt>
      <trkpt lat="43.19169" lon="-0.6319">
        <ele>233.4</ele>
        <time>2022-09-10T08:19:08Z</time>
      </trkpt>
      <trkpt lat="43.19186" lon="-0.63212">
        <ele>233.4</ele>
        <time>2022-09-10T08:19:14Z</time>
      </trkpt>
      <trkpt lat="43.1921" lon="-0.63247">
        <ele>232.8</ele>
        <time>2022-09-10T08:19:21Z</time>
      </trkpt>
      <trkpt lat="43.19213" lon="-0.63251">
        <ele>232.8</ele>
        <time>2022-09-10T08:19:22Z</time>
      </trkpt>
      <trkpt lat="43.19243" lon="-0.63295">
        <ele>232.4</ele>
        <time>2022-09-10T08:19:31Z</time>
      </trkpt>
      <trkpt lat="43.19283" lon="-0.63354">
        <ele>232</ele>
        <time>2022-09-10T08:19:42Z</time>
      </trkpt>
      <trkpt lat="43.19315" lon="-0.634">
        <ele>232</ele>
        <time>2022-09-10T08:19:51Z</time>
      </trkpt>
      <trkpt lat="43.19331" lon="-0.6342">
        <ele>231.8</ele>
        <time>2022-09-10T08:19:55Z</time>
      </trkpt>
      <trkpt lat="43.19346" lon="-0.63439">
        <ele>231.4</ele>
        <time>2022-09-10T08:19:59Z</time>
      </trkpt>
      <trkpt lat="43.19385" lon="-0.6349">
        <ele>231</ele>
        <time>2022-09-10T08:20:09Z</time>
      </trkpt>
      <trkpt lat="43.19416" lon="-0.63531">
        <ele>230.8</ele>
        <time>2022-09-10T08:20:18Z</time>
      </trkpt>
      <trkpt lat="43.19433" lon="-0.63558">
        <ele>230.6</ele>
        <time>2022-09-10T08:20:24Z</time>
      </trkpt>
      <trkpt lat="43.19464" lon="-0.63606">
        <ele>230.4</ele>
        <time>2022-09-10T08:20:34Z</time>
      </trkpt>
      <trkpt lat="43.19477" lon="-0.63623">
        <ele>230.4</ele>
        <time>2022-09-10T08:20:38Z</time>
      </trkpt>
      <trkpt lat="43.19485" lon="-0.63629">
        <ele>230.2</ele>
        <time>2022-09-10T08:20:40Z</time>
      </trkpt>
      <trkpt lat="43.19515" lon="-0.63657">
        <ele>230.2</ele>
        <time>2022-09-10T08:20:47Z</time>
      </trkpt>
      <trkpt lat="43.1954" lon="-0.63692">
        <ele>230</ele>
        <time>2022-09-10T08:20:54Z</time>
      </trkpt>
      <trkpt lat="43.19547" lon="-0.63702">
        <ele>229.6</ele>
        <time>2022-09-10T08:20:56Z</time>
      </trkpt>
      <trkpt lat="43.19569" lon="-0.63731">
        <ele>229.4</ele>
        <time>2022-09-10T08:21:02Z</time>
      </trkpt>
      <trkpt lat="43.19601" lon="-0.63774">
        <ele>229</ele>
        <time>2022-09-10T08:21:11Z</time>
      </trkpt>
      <trkpt lat="43.19614" lon="-0.63789">
        <ele>228.8</ele>
        <time>2022-09-10T08:21:15Z</time>
      </trkpt>
      <trkpt lat="43.19621" lon="-0.63796">
        <ele>228.8</ele>
        <time>2022-09-10T08:21:17Z</time>
      </trkpt>
      <trkpt lat="43.19651" lon="-0.63825">
        <ele>228.8</ele>
        <time>2022-09-10T08:21:24Z</time>
      </trkpt>
      <trkpt lat="43.19688" lon="-0.63869">
        <ele>228.6</ele>
        <time>2022-09-10T08:21:33Z</time>
      </trkpt>
      <trkpt lat="43.19696" lon="-0.63879">
        <ele>228.6</ele>
        <time>2022-09-10T08:21:35Z</time>
      </trkpt>
      <trkpt lat="43.19728" lon="-0.63918">
        <ele>228.2</ele>
        <time>2022-09-10T08:21:43Z</time>
      </trkpt>
      <trkpt lat="43.19746" lon="-0.63946">
        <ele>228.2</ele>
        <time>2022-09-10T08:21:49Z</time>
      </trkpt>
      <trkpt lat="43.19766" lon="-0.63987">
        <ele>227.8</ele>
        <time>2022-09-10T08:21:56Z</time>
      </trkpt>
      <trkpt lat="43.19779" lon="-0.64007">
        <ele>227.4</ele>
        <time>2022-09-10T08:22:00Z</time>
      </trkpt>
      <trkpt lat="43.19787" lon="-0.64022">
        <ele>227.4</ele>
        <time>2022-09-10T08:22:03Z</time>
      </trkpt>
      <trkpt lat="43.19805" lon="-0.64066">
        <ele>227.2</ele>
        <time>2022-09-10T08:22:11Z</time>
      </trkpt>
      <trkpt lat="43.19831" lon="-0.64107">
        <ele>226.8</ele>
        <time>2022-09-10T08:22:19Z</time>
      </trkpt>
      <trkpt lat="43.19865" lon="-0.64153">
        <ele>226.4</ele>
        <time>2022-09-10T08:22:28Z</time>
      </trkpt>
      <trkpt lat="43.1987" lon="-0.64158">
        <ele>226.4</ele>
        <time>2022-09-10T08:22:29Z</time>
      </trkpt>
      <trkpt lat="43.19901" lon="-0.64188">
        <ele>226</ele>
        <time>2022-09-10T08:22:36Z</time>
      </trkpt>
      <trkpt lat="43.19926" lon="-0.64209">
        <ele>225.8</ele>
        <time>2022-09-10T08:22:42Z</time>
      </trkpt>
      <trkpt lat="43.19944" lon="-0.64223">
        <ele>225.6</ele>
        <time>2022-09-10T08:22:47Z</time>
      </trkpt>
      <trkpt lat="43.19948" lon="-0.64227">
        <ele>225.6</ele>
        <time>2022-09-10T08:22:48Z</time>
      </trkpt>
      <trkpt lat="43.19977" lon="-0.64252">
        <ele>225.4</ele>
        <time>2022-09-10T08:22:55Z</time>
      </trkpt>
      <trkpt lat="43.19987" lon="-0.64259">
        <ele>225</ele>
        <time>2022-09-10T08:22:57Z</time>
      </trkpt>
      <trkpt lat="43.2003" lon="-0.64289">
        <ele>225</ele>
        <time>2022-09-10T08:23:06Z</time>
      </trkpt>
      <trkpt lat="43.20071" lon="-0.64322">
        <ele>224.4</ele>
        <time>2022-09-10T08:23:15Z</time>
      </trkpt>
      <trkpt lat="43.20115" lon="-0.64365">
        <ele>224</ele>
        <time>2022-09-10T08:23:25Z</time>
      </trkpt>
      <trkpt lat="43.2015" lon="-0.64403">
        <ele>223.8</ele>
        <time>2022-09-10T08:23:33Z</time>
      </trkpt>
      <trkpt lat="43.20168" lon="-0.64421">
        <ele>223.4</ele>
        <time>2022-09-10T08:23:37Z</time>
      </trkpt>
      <trkpt lat="43.20172" lon="-0.64426">
        <ele>223.4</ele>
        <time>2022-09-10T08:23:38Z</time>
      </trkpt>
      <trkpt lat="43.20215" lon="-0.64473">
        <ele>223.2</ele>
        <time>2022-09-10T08:23:48Z</time>
      </trkpt>
      <trkpt lat="43.20258" lon="-0.64517">
        <ele>222.8</ele>
        <time>2022-09-10T08:23:58Z</time>
      </trkpt>
      <trkpt lat="43.20296" lon="-0.64556">
        <ele>222.4</ele>
        <time>2022-09-10T08:24:07Z</time>
      </trkpt>
      <trkpt lat="43.203" lon="-0.64561">
        <ele>222.2</ele>
        <time>2022-09-10T08:24:08Z</time>
      </trkpt>
      <trkpt lat="43.20333" lon="-0.64593">
        <ele>222</ele>
        <time>2022-09-10T08:24:15Z</time>
      </trkpt>
      <trkpt lat="43.20375" lon="-0.64635">
        <ele>221.4</ele>
        <time>2022-09-10T08:24:24Z</time>
      </trkpt>
      <trkpt lat="43.2038" lon="-0.6464">
        <ele>221.2</ele>
        <time>2022-09-10T08:24:25Z</time>
      </trkpt>
      <trkpt lat="43.20409" lon="-0.64673">
        <ele>220.8</ele>
        <time>2022-09-10T08:24:32Z</time>
      </trkpt>
      <trkpt lat="43.20439" lon="-0.64709">
        <ele>220.6</ele>
        <time>2022-09-10T08:24:39Z</time>
      </trkpt>
      <trkpt lat="43.20474" lon="-0.64755">
        <ele>220.2</ele>
        <time>2022-09-10T08:24:48Z</time>
      </trkpt>
      <trkpt lat="43.20503" lon="-0.64796">
        <ele>219.6</ele>
        <time>2022-09-10T08:24:56Z</time>
      </trkpt>
      <trkpt lat="43.2051" lon="-0.64806">
        <ele>219.6</ele>
        <time>2022-09-10T08:24:58Z</time>
      </trkpt>
      <trkpt lat="43.20525" lon="-0.64823">
        <ele>219.6</ele>
        <time>2022-09-10T08:25:02Z</time>
      </trkpt>
      <trkpt lat="43.20556" lon="-0.64847">
        <ele>219.6</ele>
        <time>2022-09-10T08:25:09Z</time>
      </trkpt>
      <trkpt lat="43.20593" lon="-0.64869">
        <ele>219.6</ele>
        <time>2022-09-10T08:25:17Z</time>
      </trkpt>
      <trkpt lat="43.20645" lon="-0.64887">
        <ele>219.2</ele>
        <time>2022-09-10T08:25:27Z</time>
      </trkpt>
      <trkpt lat="43.20656" lon="-0.6489">
        <ele>219.2</ele>
        <time>2022-09-10T08:25:29Z</time>
      </trkpt>
      <trkpt lat="43.2071" lon="-0.64908">
        <ele>218.8</ele>
        <time>2022-09-10T08:25:39Z</time>
      </trkpt>
      <trkpt lat="43.20721" lon="-0.6491">
        <ele>218.8</ele>
        <time>2022-09-10T08:25:41Z</time>
      </trkpt>
      <trkpt lat="43.20731" lon="-0.64915">
        <ele>218.8</ele>
        <time>2022-09-10T08:25:43Z</time>
      </trkpt>
      <trkpt lat="43.2075" lon="-0.64926">
        <ele>218.6</ele>
        <time>2022-09-10T08:25:47Z</time>
      </trkpt>
      <trkpt lat="43.20789" lon="-0.64959">
        <ele>218.2</ele>
        <time>2022-09-10T08:25:56Z</time>
      </trkpt>
      <trkpt lat="43.20805" lon="-0.64974">
        <ele>218.2</ele>
        <time>2022-09-10T08:26:00Z</time>
      </trkpt>
      <trkpt lat="43.2083" lon="-0.64998">
        <ele>218.2</ele>
        <time>2022-09-10T08:26:06Z</time>
      </trkpt>
      <trkpt lat="43.20856" lon="-0.65026">
        <ele>218</ele>
        <time>2022-09-10T08:26:13Z</time>
      </trkpt>
      <trkpt lat="43.20877" lon="-0.65057">
        <ele>218</ele>
        <time>2022-09-10T08:26:19Z</time>
      </trkpt>
      <trkpt lat="43.20911" lon="-0.65092">
        <ele>217.4</ele>
        <time>2022-09-10T08:26:27Z</time>
      </trkpt>
      <trkpt lat="43.20932" lon="-0.65107">
        <ele>217</ele>
        <time>2022-09-10T08:26:32Z</time>
      </trkpt>
      <trkpt lat="43.2094" lon="-0.65112">
        <ele>217.2</ele>
        <time>2022-09-10T08:26:34Z</time>
      </trkpt>
      <trkpt lat="43.20949" lon="-0.65126">
        <ele>217.2</ele>
        <time>2022-09-10T08:26:38Z</time>
      </trkpt>
      <trkpt lat="43.20949" lon="-0.6514">
        <ele>217</ele>
        <time>2022-09-10T08:26:43Z</time>
      </trkpt>
      <trkpt lat="43.20945" lon="-0.6516">
        <ele>216.8</ele>
        <time>2022-09-10T08:26:47Z</time>
      </trkpt>
      <trkpt lat="43.20942" lon="-0.65173">
        <ele>216.2</ele>
        <time>2022-09-10T08:26:52Z</time>
      </trkpt>
      <trkpt lat="43.20942" lon="-0.65169">
        <ele>216.2</ele>
        <time>2022-09-10T08:26:56Z</time>
      </trkpt>
      <trkpt lat="43.20946" lon="-0.65152">
        <ele>216.4</ele>
        <time>2022-09-10T08:27:01Z</time>
      </trkpt>
      <trkpt lat="43.20952" lon="-0.6514">
        <ele>216.6</ele>
        <time>2022-09-10T08:27:05Z</time>
      </trkpt>
      <trkpt lat="43.20956" lon="-0.65139">
        <ele>216.6</ele>
        <time>2022-09-10T08:27:06Z</time>
      </trkpt>
      <trkpt lat="43.20967" lon="-0.65139">
        <ele>216.8</ele>
        <time>2022-09-10T08:27:09Z</time>
      </trkpt>
      <trkpt lat="43.20975" lon="-0.65138">
        <ele>217</ele>
        <time>2022-09-10T08:27:11Z</time>
      </trkpt>
      <trkpt lat="43.2098" lon="-0.65139">
        <ele>217</ele>
        <time>2022-09-10T08:27:12Z</time>
      </trkpt>
      <trkpt lat="43.21002" lon="-0.65144">
        <ele>216.8</ele>
        <time>2022-09-10T08:27:17Z</time>
      </trkpt>
      <trkpt lat="43.21027" lon="-0.65149">
        <ele>216.6</ele>
        <time>2022-09-10T08:27:23Z</time>
      </trkpt>
      <trkpt lat="43.21035" lon="-0.65152">
        <ele>216.4</ele>
        <time>2022-09-10T08:27:25Z</time>
      </trkpt>
      <trkpt lat="43.21062" lon="-0.65162">
        <ele>216.6</ele>
        <time>2022-09-10T08:27:32Z</time>
      </trkpt>
      <trkpt lat="43.21089" lon="-0.65176">
        <ele>216.2</ele>
        <time>2022-09-10T08:27:39Z</time>
      </trkpt>
      <trkpt lat="43.21096" lon="-0.65184">
        <ele>216</ele>
        <time>2022-09-10T08:27:41Z</time>
      </trkpt>
      <trkpt lat="43.21103" lon="-0.65194">
        <ele>215.6</ele>
        <time>2022-09-10T08:27:43Z</time>
      </trkpt>
      <trkpt lat="43.21107" lon="-0.65199">
        <ele>215.6</ele>
        <time>2022-09-10T08:27:44Z</time>
      </trkpt>
      <trkpt lat="43.21141" lon="-0.65254">
        <ele>215.4</ele>
        <time>2022-09-10T08:27:54Z</time>
      </trkpt>
      <trkpt lat="43.21157" lon="-0.65283">
        <ele>215</ele>
        <time>2022-09-10T08:27:59Z</time>
      </trkpt>
      <trkpt lat="43.21167" lon="-0.65299">
        <ele>214.8</ele>
        <time>2022-09-10T08:28:02Z</time>
      </trkpt>
      <trkpt lat="43.21178" lon="-0.65314">
        <ele>214.8</ele>
        <time>2022-09-10T08:28:05Z</time>
      </trkpt>
      <trkpt lat="43.21193" lon="-0.65334">
        <ele>214.6</ele>
        <time>2022-09-10T08:28:09Z</time>
      </trkpt>
      <trkpt lat="43.21216" lon="-0.65377">
        <ele>214</ele>
        <time>2022-09-10T08:28:17Z</time>
      </trkpt>
      <trkpt lat="43.2122" lon="-0.65382">
        <ele>214</ele>
        <time>2022-09-10T08:28:18Z</time>
      </trkpt>
      <trkpt lat="43.21226" lon="-0.65392">
        <ele>214</ele>
        <time>2022-09-10T08:28:20Z</time>
      </trkpt>
      <trkpt lat="43.21231" lon="-0.65403">
        <ele>214</ele>
        <time>2022-09-10T08:28:22Z</time>
      </trkpt>
      <trkpt lat="43.21236" lon="-0.65414">
        <ele>213.8</ele>
        <time>2022-09-10T08:28:24Z</time>
      </trkpt>
      <trkpt lat="43.2124" lon="-0.65425">
        <ele>213.8</ele>
        <time>2022-09-10T08:28:26Z</time>
      </trkpt>
      <trkpt lat="43.21247" lon="-0.65433">
        <ele>213.4</ele>
        <time>2022-09-10T08:28:28Z</time>
      </trkpt>
      <trkpt lat="43.21272" lon="-0.6546">
        <ele>213.2</ele>
        <time>2022-09-10T08:28:36Z</time>
      </trkpt>
      <trkpt lat="43.21279" lon="-0.6545">
        <ele>213.2</ele>
        <time>2022-09-10T08:28:39Z</time>
      </trkpt>
      <trkpt lat="43.2128" lon="-0.65447">
        <ele>213.2</ele>
        <time>2022-09-10T08:28:40Z</time>
      </trkpt>
      <trkpt lat="43.2129" lon="-0.65432">
        <ele>213.2</ele>
        <time>2022-09-10T08:28:46Z</time>
      </trkpt>
      <trkpt lat="43.21293" lon="-0.65428">
        <ele>213</ele>
        <time>2022-09-10T08:28:48Z</time>
      </trkpt>
      <trkpt lat="43.21299" lon="-0.65433">
        <ele>213.2</ele>
        <time>2022-09-10T08:28:50Z</time>
      </trkpt>
      <trkpt lat="43.21309" lon="-0.6544">
        <ele>213</ele>
        <time>2022-09-10T08:28:53Z</time>
      </trkpt>
      <trkpt lat="43.21316" lon="-0.65446">
        <ele>213</ele>
        <time>2022-09-10T08:28:55Z</time>
      </trkpt>
      <trkpt lat="43.2132" lon="-0.65449">
        <ele>213</ele>
        <time>2022-09-10T08:28:56Z</time>
      </trkpt>
      <trkpt lat="43.21331" lon="-0.65459">
        <ele>212.6</ele>
        <time>2022-09-10T08:28:59Z</time>
      </trkpt>
      <trkpt lat="43.21337" lon="-0.65463">
        <ele>212</ele>
        <time>2022-09-10T08:29:01Z</time>
      </trkpt>
      <trkpt lat="43.2134" lon="-0.65465">
        <ele>211.6</ele>
        <time>2022-09-10T08:29:02Z</time>
      </trkpt>
      <trkpt lat="43.21358" lon="-0.65472">
        <ele>210.8</ele>
        <time>2022-09-10T08:29:07Z</time>
      </trkpt>
      <trkpt lat="43.21371" lon="-0.65485">
        <ele>211</ele>
        <time>2022-09-10T08:29:12Z</time>
      </trkpt>
      <trkpt lat="43.21378" lon="-0.65492">
        <ele>210.8</ele>
        <time>2022-09-10T08:29:18Z</time>
      </trkpt>
      <trkpt lat="43.21373" lon="-0.65489">
        <ele>210.2</ele>
        <time>2022-09-10T08:31:30Z</time>
      </trkpt>
      <trkpt lat="43.2137" lon="-0.65486">
        <ele>210.2</ele>
        <time>2022-09-10T08:31:32Z</time>
      </trkpt>
      <trkpt lat="43.21364" lon="-0.65479">
        <ele>210.2</ele>
        <time>2022-09-10T08:31:35Z</time>
      </trkpt>
      <trkpt lat="43.21355" lon="-0.65474">
        <ele>210</ele>
        <time>2022-09-10T08:31:39Z</time>
      </trkpt>
      <trkpt lat="43.21352" lon="-0.65472">
        <ele>210</ele>
        <time>2022-09-10T08:31:41Z</time>
      </trkpt>
      <trkpt lat="43.2135" lon="-0.65474">
        <ele>209.8</ele>
        <time>2022-09-10T08:31:43Z</time>
      </trkpt>
      <trkpt lat="43.21355" lon="-0.65478">
        <ele>209.2</ele>
        <time>2022-09-10T08:31:46Z</time>
      </trkpt>
      <trkpt lat="43.21358" lon="-0.65479">
        <ele>209</ele>
        <time>2022-09-10T08:31:47Z</time>
      </trkpt>
      <trkpt lat="43.2136" lon="-0.65483">
        <ele>208.8</ele>
        <time>2022-09-10T08:31:48Z</time>
      </trkpt>
      <trkpt lat="43.21364" lon="-0.65493">
        <ele>207.6</ele>
        <time>2022-09-10T08:31:50Z</time>
      </trkpt>
      <trkpt lat="43.21366" lon="-0.65507">
        <ele>205.8</ele>
        <time>2022-09-10T08:31:52Z</time>
      </trkpt>
      <trkpt lat="43.21369" lon="-0.65522">
        <ele>204.6</ele>
        <time>2022-09-10T08:31:54Z</time>
      </trkpt>
      <trkpt lat="43.2137" lon="-0.6553">
        <ele>204.2</ele>
        <time>2022-09-10T08:31:55Z</time>
      </trkpt>
      <trkpt lat="43.21372" lon="-0.65539">
        <ele>203.6</ele>
        <time>2022-09-10T08:31:56Z</time>
      </trkpt>
      <trkpt lat="43.21374" lon="-0.65547">
        <ele>203</ele>
        <time>2022-09-10T08:31:57Z</time>
      </trkpt>
      <trkpt lat="43.21376" lon="-0.65555">
        <ele>202.4</ele>
        <time>2022-09-10T08:31:58Z</time>
      </trkpt>
      <trkpt lat="43.21378" lon="-0.65565">
        <ele>201.6</ele>
        <time>2022-09-10T08:31:59Z</time>
      </trkpt>
      <trkpt lat="43.21378" lon="-0.65573">
        <ele>200.8</ele>
        <time>2022-09-10T08:32:00Z</time>
      </trkpt>
      <trkpt lat="43.21379" lon="-0.65588">
        <ele>199</ele>
        <time>2022-09-10T08:32:02Z</time>
      </trkpt>
      <trkpt lat="43.21379" lon="-0.65599">
        <ele>197.8</ele>
        <time>2022-09-10T08:32:04Z</time>
      </trkpt>
      <trkpt lat="43.21378" lon="-0.65605">
        <ele>197.4</ele>
        <time>2022-09-10T08:32:05Z</time>
      </trkpt>
      <trkpt lat="43.21371" lon="-0.65624">
        <ele>195.8</ele>
        <time>2022-09-10T08:32:08Z</time>
      </trkpt>
      <trkpt lat="43.21362" lon="-0.65647">
        <ele>194.6</ele>
        <time>2022-09-10T08:32:11Z</time>
      </trkpt>
      <trkpt lat="43.21359" lon="-0.65662">
        <ele>194.4</ele>
        <time>2022-09-10T08:32:13Z</time>
      </trkpt>
      <trkpt lat="43.21356" lon="-0.65681">
        <ele>194.4</ele>
        <time>2022-09-10T08:32:16Z</time>
      </trkpt>
      <trkpt lat="43.21353" lon="-0.65686">
        <ele>194.2</ele>
        <time>2022-09-10T08:32:17Z</time>
      </trkpt>
      <trkpt lat="43.21341" lon="-0.65696">
        <ele>193.8</ele>
        <time>2022-09-10T08:32:20Z</time>
      </trkpt>
      <trkpt lat="43.21329" lon="-0.65711">
        <ele>193.4</ele>
        <time>2022-09-10T08:32:24Z</time>
      </trkpt>
      <trkpt lat="43.21324" lon="-0.65719">
        <ele>193.6</ele>
        <time>2022-09-10T08:32:26Z</time>
      </trkpt>
      <trkpt lat="43.21307" lon="-0.6575">
        <ele>193.8</ele>
        <time>2022-09-10T08:32:34Z</time>
      </trkpt>
      <trkpt lat="43.21297" lon="-0.65769">
        <ele>194.2</ele>
        <time>2022-09-10T08:32:39Z</time>
      </trkpt>
      <trkpt lat="43.2129" lon="-0.65785">
        <ele>194.6</ele>
        <time>2022-09-10T08:32:43Z</time>
      </trkpt>
      <trkpt lat="43.21283" lon="-0.65797">
        <ele>194.6</ele>
        <time>2022-09-10T08:32:46Z</time>
      </trkpt>
      <trkpt lat="43.21265" lon="-0.65819">
        <ele>194.8</ele>
        <time>2022-09-10T08:32:53Z</time>
      </trkpt>
      <trkpt lat="43.21244" lon="-0.65847">
        <ele>195.4</ele>
        <time>2022-09-10T08:33:01Z</time>
      </trkpt>
      <trkpt lat="43.21236" lon="-0.65857">
        <ele>195.6</ele>
        <time>2022-09-10T08:33:04Z</time>
      </trkpt>
      <trkpt lat="43.21222" lon="-0.65876">
        <ele>195.4</ele>
        <time>2022-09-10T08:33:09Z</time>
      </trkpt>
      <trkpt lat="43.21196" lon="-0.65913">
        <ele>195.4</ele>
        <time>2022-09-10T08:33:18Z</time>
      </trkpt>
      <trkpt lat="43.21179" lon="-0.65937">
        <ele>195.4</ele>
        <time>2022-09-10T08:33:24Z</time>
      </trkpt>
      <trkpt lat="43.2115" lon="-0.65966">
        <ele>196</ele>
        <time>2022-09-10T08:33:33Z</time>
      </trkpt>
      <trkpt lat="43.21133" lon="-0.65983">
        <ele>196.2</ele>
        <time>2022-09-10T08:33:39Z</time>
      </trkpt>
      <trkpt lat="43.21114" lon="-0.65998">
        <ele>196</ele>
        <time>2022-09-10T08:33:46Z</time>
      </trkpt>
      <trkpt lat="43.21112" lon="-0.66001">
        <ele>196</ele>
        <time>2022-09-10T08:33:47Z</time>
      </trkpt>
      <trkpt lat="43.2111" lon="-0.66015">
        <ele>196</ele>
        <time>2022-09-10T08:33:50Z</time>
      </trkpt>
      <trkpt lat="43.21112" lon="-0.66032">
        <ele>195.4</ele>
        <time>2022-09-10T08:33:53Z</time>
      </trkpt>
      <trkpt lat="43.21114" lon="-0.66043">
        <ele>195.4</ele>
        <time>2022-09-10T08:33:55Z</time>
      </trkpt>
      <trkpt lat="43.21121" lon="-0.66065">
        <ele>196</ele>
        <time>2022-09-10T08:34:00Z</time>
      </trkpt>
      <trkpt lat="43.21131" lon="-0.66093">
        <ele>195.8</ele>
        <time>2022-09-10T08:34:08Z</time>
      </trkpt>
      <trkpt lat="43.21141" lon="-0.66103">
        <ele>195.8</ele>
        <time>2022-09-10T08:34:12Z</time>
      </trkpt>
      <trkpt lat="43.21156" lon="-0.66104">
        <ele>195.6</ele>
        <time>2022-09-10T08:34:16Z</time>
      </trkpt>
      <trkpt lat="43.21165" lon="-0.66106">
        <ele>195.4</ele>
        <time>2022-09-10T08:34:18Z</time>
      </trkpt>
      <trkpt lat="43.21173" lon="-0.66118">
        <ele>195.2</ele>
        <time>2022-09-10T08:34:21Z</time>
      </trkpt>
      <trkpt lat="43.21176" lon="-0.6614">
        <ele>195.6</ele>
        <time>2022-09-10T08:34:25Z</time>
      </trkpt>
      <trkpt lat="43.21176" lon="-0.66146">
        <ele>195.6</ele>
        <time>2022-09-10T08:34:26Z</time>
      </trkpt>
      <trkpt lat="43.21172" lon="-0.66188">
        <ele>196.2</ele>
        <time>2022-09-10T08:34:34Z</time>
      </trkpt>
      <trkpt lat="43.21168" lon="-0.66213">
        <ele>196.6</ele>
        <time>2022-09-10T08:34:39Z</time>
      </trkpt>
      <trkpt lat="43.21169" lon="-0.66217">
        <ele>196.8</ele>
        <time>2022-09-10T08:34:40Z</time>
      </trkpt>
      <trkpt lat="43.21173" lon="-0.66236">
        <ele>197.6</ele>
        <time>2022-09-10T08:34:45Z</time>
      </trkpt>
      <trkpt lat="43.21174" lon="-0.66239">
        <ele>197.8</ele>
        <time>2022-09-10T08:34:46Z</time>
      </trkpt>
      <trkpt lat="43.2118" lon="-0.66249">
        <ele>198.8</ele>
        <time>2022-09-10T08:34:51Z</time>
      </trkpt>
      <trkpt lat="43.21182" lon="-0.66252">
        <ele>199.2</ele>
        <time>2022-09-10T08:34:53Z</time>
      </trkpt>
      <trkpt lat="43.21187" lon="-0.66258">
        <ele>200</ele>
        <time>2022-09-10T08:34:57Z</time>
      </trkpt>
      <trkpt lat="43.21191" lon="-0.66265">
        <ele>200.6</ele>
        <time>2022-09-10T08:35:01Z</time>
      </trkpt>
      <trkpt lat="43.21195" lon="-0.6627">
        <ele>201.2</ele>
        <time>2022-09-10T08:35:04Z</time>
      </trkpt>
      <trkpt lat="43.21199" lon="-0.66279">
        <ele>201.8</ele>
        <time>2022-09-10T08:35:09Z</time>
      </trkpt>
      <trkpt lat="43.212" lon="-0.66285">
        <ele>202.2</ele>
        <time>2022-09-10T08:35:12Z</time>
      </trkpt>
      <trkpt lat="43.21199" lon="-0.66297">
        <ele>203.2</ele>
        <time>2022-09-10T08:35:18Z</time>
      </trkpt>
      <trkpt lat="43.21195" lon="-0.66306">
        <ele>204.4</ele>
        <time>2022-09-10T08:35:23Z</time>
      </trkpt>
      <trkpt lat="43.21194" lon="-0.66307">
        <ele>204.6</ele>
        <time>2022-09-10T08:35:24Z</time>
      </trkpt>
      <trkpt lat="43.21188" lon="-0.66313">
        <ele>205.4</ele>
        <time>2022-09-10T08:35:29Z</time>
      </trkpt>
      <trkpt lat="43.21187" lon="-0.66314">
        <ele>205.6</ele>
        <time>2022-09-10T08:35:30Z</time>
      </trkpt>
      <trkpt lat="43.21181" lon="-0.66321">
        <ele>206.4</ele>
        <time>2022-09-10T08:35:35Z</time>
      </trkpt>
      <trkpt lat="43.2118" lon="-0.66322">
        <ele>206.6</ele>
        <time>2022-09-10T08:35:36Z</time>
      </trkpt>
      <trkpt lat="43.21177" lon="-0.66325">
        <ele>206.8</ele>
        <time>2022-09-10T08:35:38Z</time>
      </trkpt>
      <trkpt lat="43.21172" lon="-0.66328">
        <ele>207.6</ele>
        <time>2022-09-10T08:35:42Z</time>
      </trkpt>
      <trkpt lat="43.21171" lon="-0.66329">
        <ele>207.6</ele>
        <time>2022-09-10T08:35:43Z</time>
      </trkpt>
      <trkpt lat="43.21164" lon="-0.66336">
        <ele>208.6</ele>
        <time>2022-09-10T08:35:49Z</time>
      </trkpt>
      <trkpt lat="43.21163" lon="-0.66337">
        <ele>208.8</ele>
        <time>2022-09-10T08:35:50Z</time>
      </trkpt>
      <trkpt lat="43.21155" lon="-0.66343">
        <ele>209.8</ele>
        <time>2022-09-10T08:35:56Z</time>
      </trkpt>
      <trkpt lat="43.21151" lon="-0.66346">
        <ele>210.2</ele>
        <time>2022-09-10T08:35:59Z</time>
      </trkpt>
      <trkpt lat="43.21146" lon="-0.66353">
        <ele>210.8</ele>
        <time>2022-09-10T08:36:04Z</time>
      </trkpt>
      <trkpt lat="43.21144" lon="-0.66356">
        <ele>211</ele>
        <time>2022-09-10T08:36:06Z</time>
      </trkpt>
      <trkpt lat="43.21144" lon="-0.6636">
        <ele>211.4</ele>
        <time>2022-09-10T08:36:08Z</time>
      </trkpt>
      <trkpt lat="43.21145" lon="-0.66364">
        <ele>212</ele>
        <time>2022-09-10T08:36:10Z</time>
      </trkpt>
      <trkpt lat="43.21146" lon="-0.66366">
        <ele>212</ele>
        <time>2022-09-10T08:36:11Z</time>
      </trkpt>
      <trkpt lat="43.21157" lon="-0.6637">
        <ele>212.8</ele>
        <time>2022-09-10T08:36:18Z</time>
      </trkpt>
      <trkpt lat="43.21164" lon="-0.66369">
        <ele>213</ele>
        <time>2022-09-10T08:36:21Z</time>
      </trkpt>
      <trkpt lat="43.21173" lon="-0.66367">
        <ele>213.2</ele>
        <time>2022-09-10T08:36:25Z</time>
      </trkpt>
      <trkpt lat="43.2119" lon="-0.66361">
        <ele>213.6</ele>
        <time>2022-09-10T08:36:32Z</time>
      </trkpt>
      <trkpt lat="43.21199" lon="-0.66357">
        <ele>214</ele>
        <time>2022-09-10T08:36:36Z</time>
      </trkpt>
      <trkpt lat="43.21204" lon="-0.66358">
        <ele>214.2</ele>
        <time>2022-09-10T08:36:38Z</time>
      </trkpt>
      <trkpt lat="43.21215" lon="-0.66367">
        <ele>215</ele>
        <time>2022-09-10T08:36:44Z</time>
      </trkpt>
      <trkpt lat="43.21222" lon="-0.66374">
        <ele>215.2</ele>
        <time>2022-09-10T08:36:48Z</time>
      </trkpt>
      <trkpt lat="43.21227" lon="-0.66379">
        <ele>215.6</ele>
        <time>2022-09-10T08:36:51Z</time>
      </trkpt>
      <trkpt lat="43.21235" lon="-0.66384">
        <ele>216.2</ele>
        <time>2022-09-10T08:36:55Z</time>
      </trkpt>
      <trkpt lat="43.21238" lon="-0.66385">
        <ele>216.8</ele>
        <time>2022-09-10T08:36:57Z</time>
      </trkpt>
      <trkpt lat="43.21245" lon="-0.66388">
        <ele>217.4</ele>
        <time>2022-09-10T08:37:02Z</time>
      </trkpt>
      <trkpt lat="43.21248" lon="-0.66389">
        <ele>217.6</ele>
        <time>2022-09-10T08:37:04Z</time>
      </trkpt>
      <trkpt lat="43.21259" lon="-0.66391">
        <ele>218.2</ele>
        <time>2022-09-10T08:37:11Z</time>
      </trkpt>
      <trkpt lat="43.2126" lon="-0.66392">
        <ele>218.4</ele>
        <time>2022-09-10T08:37:12Z</time>
      </trkpt>
      <trkpt lat="43.21271" lon="-0.66393">
        <ele>219.6</ele>
        <time>2022-09-10T08:37:18Z</time>
      </trkpt>
      <trkpt lat="43.21273" lon="-0.66393">
        <ele>219.8</ele>
        <time>2022-09-10T08:37:19Z</time>
      </trkpt>
      <trkpt lat="43.2128" lon="-0.66395">
        <ele>220.8</ele>
        <time>2022-09-10T08:37:23Z</time>
      </trkpt>
      <trkpt lat="43.21287" lon="-0.66396">
        <ele>221.2</ele>
        <time>2022-09-10T08:37:27Z</time>
      </trkpt>
      <trkpt lat="43.21296" lon="-0.66399">
        <ele>221.8</ele>
        <time>2022-09-10T08:37:32Z</time>
      </trkpt>
      <trkpt lat="43.21299" lon="-0.664">
        <ele>222.2</ele>
        <time>2022-09-10T08:37:34Z</time>
      </trkpt>
      <trkpt lat="43.21311" lon="-0.66404">
        <ele>222.8</ele>
        <time>2022-09-10T08:37:41Z</time>
      </trkpt>
      <trkpt lat="43.21313" lon="-0.66405">
        <ele>223</ele>
        <time>2022-09-10T08:37:42Z</time>
      </trkpt>
      <trkpt lat="43.21319" lon="-0.66406">
        <ele>224</ele>
        <time>2022-09-10T08:37:46Z</time>
      </trkpt>
      <trkpt lat="43.21325" lon="-0.66406">
        <ele>225</ele>
        <time>2022-09-10T08:37:50Z</time>
      </trkpt>
      <trkpt lat="43.21331" lon="-0.66405">
        <ele>226.2</ele>
        <time>2022-09-10T08:37:54Z</time>
      </trkpt>
      <trkpt lat="43.21335" lon="-0.66406">
        <ele>226.8</ele>
        <time>2022-09-10T08:37:57Z</time>
      </trkpt>
      <trkpt lat="43.21337" lon="-0.66406">
        <ele>227.2</ele>
        <time>2022-09-10T08:37:59Z</time>
      </trkpt>
      <trkpt lat="43.21345" lon="-0.66408">
        <ele>228.2</ele>
        <time>2022-09-10T08:38:04Z</time>
      </trkpt>
      <trkpt lat="43.21346" lon="-0.66409">
        <ele>228.4</ele>
        <time>2022-09-10T08:38:05Z</time>
      </trkpt>
      <trkpt lat="43.21354" lon="-0.66416">
        <ele>229.2</ele>
        <time>2022-09-10T08:38:11Z</time>
      </trkpt>
      <trkpt lat="43.21355" lon="-0.66418">
        <ele>229.4</ele>
        <time>2022-09-10T08:38:12Z</time>
      </trkpt>
      <trkpt lat="43.2136" lon="-0.66426">
        <ele>229.8</ele>
        <time>2022-09-10T08:38:17Z</time>
      </trkpt>
      <trkpt lat="43.21366" lon="-0.66434">
        <ele>230.4</ele>
        <time>2022-09-10T08:38:22Z</time>
      </trkpt>
      <trkpt lat="43.2137" lon="-0.66439">
        <ele>231.2</ele>
        <time>2022-09-10T08:38:25Z</time>
      </trkpt>
      <trkpt lat="43.21373" lon="-0.66444">
        <ele>231.6</ele>
        <time>2022-09-10T08:38:28Z</time>
      </trkpt>
      <trkpt lat="43.21377" lon="-0.66448">
        <ele>232.2</ele>
        <time>2022-09-10T08:38:31Z</time>
      </trkpt>
      <trkpt lat="43.21378" lon="-0.66449">
        <ele>232.2</ele>
        <time>2022-09-10T08:38:32Z</time>
      </trkpt>
      <trkpt lat="43.21385" lon="-0.66459">
        <ele>232.2</ele>
        <time>2022-09-10T08:38:38Z</time>
      </trkpt>
      <trkpt lat="43.21398" lon="-0.66466">
        <ele>231.4</ele>
        <time>2022-09-10T08:38:43Z</time>
      </trkpt>
      <trkpt lat="43.21412" lon="-0.66456">
        <ele>231</ele>
        <time>2022-09-10T08:38:47Z</time>
      </trkpt>
      <trkpt lat="43.2143" lon="-0.66437">
        <ele>230.8</ele>
        <time>2022-09-10T08:38:54Z</time>
      </trkpt>
      <trkpt lat="43.2145" lon="-0.6642">
        <ele>231</ele>
        <time>2022-09-10T08:39:01Z</time>
      </trkpt>
      <trkpt lat="43.21471" lon="-0.66405">
        <ele>231.8</ele>
        <time>2022-09-10T08:39:09Z</time>
      </trkpt>
      <trkpt lat="43.21481" lon="-0.66399">
        <ele>232.6</ele>
        <time>2022-09-10T08:39:14Z</time>
      </trkpt>
      <trkpt lat="43.21485" lon="-0.66397">
        <ele>233</ele>
        <time>2022-09-10T08:39:16Z</time>
      </trkpt>
      <trkpt lat="43.21494" lon="-0.66393">
        <ele>233.8</ele>
        <time>2022-09-10T08:39:20Z</time>
      </trkpt>
      <trkpt lat="43.21507" lon="-0.66391">
        <ele>234.8</ele>
        <time>2022-09-10T08:39:26Z</time>
      </trkpt>
      <trkpt lat="43.21523" lon="-0.66391">
        <ele>235.6</ele>
        <time>2022-09-10T08:39:34Z</time>
      </trkpt>
      <trkpt lat="43.21537" lon="-0.66388">
        <ele>235.4</ele>
        <time>2022-09-10T08:39:40Z</time>
      </trkpt>
      <trkpt lat="43.21545" lon="-0.66383">
        <ele>235</ele>
        <time>2022-09-10T08:39:42Z</time>
      </trkpt>
      <trkpt lat="43.21552" lon="-0.66375">
        <ele>234.6</ele>
        <time>2022-09-10T08:39:44Z</time>
      </trkpt>
      <trkpt lat="43.21563" lon="-0.66355">
        <ele>234.4</ele>
        <time>2022-09-10T08:39:48Z</time>
      </trkpt>
      <trkpt lat="43.21566" lon="-0.6635">
        <ele>234.2</ele>
        <time>2022-09-10T08:39:49Z</time>
      </trkpt>
      <trkpt lat="43.21573" lon="-0.66341">
        <ele>234.2</ele>
        <time>2022-09-10T08:39:51Z</time>
      </trkpt>
      <trkpt lat="43.21586" lon="-0.66327">
        <ele>234</ele>
        <time>2022-09-10T08:39:55Z</time>
      </trkpt>
      <trkpt lat="43.21596" lon="-0.66315">
        <ele>234.2</ele>
        <time>2022-09-10T08:39:58Z</time>
      </trkpt>
      <trkpt lat="43.21609" lon="-0.66307">
        <ele>234.8</ele>
        <time>2022-09-10T08:40:02Z</time>
      </trkpt>
      <trkpt lat="43.21615" lon="-0.66304">
        <ele>235</ele>
        <time>2022-09-10T08:40:04Z</time>
      </trkpt>
      <trkpt lat="43.2163" lon="-0.66298">
        <ele>234.8</ele>
        <time>2022-09-10T08:40:09Z</time>
      </trkpt>
      <trkpt lat="43.21646" lon="-0.66286">
        <ele>233.6</ele>
        <time>2022-09-10T08:40:14Z</time>
      </trkpt>
      <trkpt lat="43.21669" lon="-0.66265">
        <ele>233</ele>
        <time>2022-09-10T08:40:19Z</time>
      </trkpt>
      <trkpt lat="43.21674" lon="-0.66262">
        <ele>232.6</ele>
        <time>2022-09-10T08:40:20Z</time>
      </trkpt>
      <trkpt lat="43.21683" lon="-0.66255">
        <ele>232.2</ele>
        <time>2022-09-10T08:40:22Z</time>
      </trkpt>
      <trkpt lat="43.21696" lon="-0.66245">
        <ele>232.2</ele>
        <time>2022-09-10T08:40:25Z</time>
      </trkpt>
      <trkpt lat="43.21711" lon="-0.66228">
        <ele>232.4</ele>
        <time>2022-09-10T08:40:29Z</time>
      </trkpt>
      <trkpt lat="43.21718" lon="-0.66219">
        <ele>232</ele>
        <time>2022-09-10T08:40:31Z</time>
      </trkpt>
      <trkpt lat="43.21721" lon="-0.66214">
        <ele>232</ele>
        <time>2022-09-10T08:40:32Z</time>
      </trkpt>
      <trkpt lat="43.21725" lon="-0.66209">
        <ele>231.4</ele>
        <time>2022-09-10T08:40:33Z</time>
      </trkpt>
      <trkpt lat="43.21738" lon="-0.66192">
        <ele>230.6</ele>
        <time>2022-09-10T08:40:36Z</time>
      </trkpt>
      <trkpt lat="43.21743" lon="-0.66187">
        <ele>230.4</ele>
        <time>2022-09-10T08:40:37Z</time>
      </trkpt>
      <trkpt lat="43.21763" lon="-0.66162">
        <ele>229.8</ele>
        <time>2022-09-10T08:40:42Z</time>
      </trkpt>
      <trkpt lat="43.21783" lon="-0.66135">
        <ele>229.8</ele>
        <time>2022-09-10T08:40:48Z</time>
      </trkpt>
      <trkpt lat="43.21804" lon="-0.6611">
        <ele>230.2</ele>
        <time>2022-09-10T08:40:54Z</time>
      </trkpt>
      <trkpt lat="43.21832" lon="-0.66082">
        <ele>230.6</ele>
        <time>2022-09-10T08:41:02Z</time>
      </trkpt>
      <trkpt lat="43.21848" lon="-0.66068">
        <ele>230.6</ele>
        <time>2022-09-10T08:41:07Z</time>
      </trkpt>
      <trkpt lat="43.2187" lon="-0.66057">
        <ele>230.8</ele>
        <time>2022-09-10T08:41:13Z</time>
      </trkpt>
      <trkpt lat="43.21895" lon="-0.6605">
        <ele>230.8</ele>
        <time>2022-09-10T08:41:20Z</time>
      </trkpt>
      <trkpt lat="43.21909" lon="-0.66049">
        <ele>231</ele>
        <time>2022-09-10T08:41:25Z</time>
      </trkpt>
      <trkpt lat="43.21917" lon="-0.66058">
        <ele>230.4</ele>
        <time>2022-09-10T08:41:30Z</time>
      </trkpt>
      <trkpt lat="43.21923" lon="-0.66075">
        <ele>229.8</ele>
        <time>2022-09-10T08:41:34Z</time>
      </trkpt>
      <trkpt lat="43.21925" lon="-0.66081">
        <ele>229.6</ele>
        <time>2022-09-10T08:41:35Z</time>
      </trkpt>
      <trkpt lat="43.21934" lon="-0.66105">
        <ele>229.2</ele>
        <time>2022-09-10T08:41:39Z</time>
      </trkpt>
      <trkpt lat="43.21947" lon="-0.66133">
        <ele>228.4</ele>
        <time>2022-09-10T08:41:44Z</time>
      </trkpt>
      <trkpt lat="43.21949" lon="-0.66139">
        <ele>228.2</ele>
        <time>2022-09-10T08:41:45Z</time>
      </trkpt>
      <trkpt lat="43.21951" lon="-0.66145">
        <ele>228</ele>
        <time>2022-09-10T08:41:46Z</time>
      </trkpt>
      <trkpt lat="43.21959" lon="-0.6617">
        <ele>227.4</ele>
        <time>2022-09-10T08:41:50Z</time>
      </trkpt>
      <trkpt lat="43.21965" lon="-0.66187">
        <ele>227.2</ele>
        <time>2022-09-10T08:41:53Z</time>
      </trkpt>
      <trkpt lat="43.21973" lon="-0.66209">
        <ele>226.8</ele>
        <time>2022-09-10T08:41:57Z</time>
      </trkpt>
      <trkpt lat="43.21984" lon="-0.66238">
        <ele>226.2</ele>
        <time>2022-09-10T08:42:03Z</time>
      </trkpt>
      <trkpt lat="43.21986" lon="-0.66242">
        <ele>226.2</ele>
        <time>2022-09-10T08:42:04Z</time>
      </trkpt>
      <trkpt lat="43.21999" lon="-0.66269">
        <ele>225.8</ele>
        <time>2022-09-10T08:42:10Z</time>
      </trkpt>
      <trkpt lat="43.22012" lon="-0.66298">
        <ele>225.6</ele>
        <time>2022-09-10T08:42:17Z</time>
      </trkpt>
      <trkpt lat="43.2202" lon="-0.66314">
        <ele>225.8</ele>
        <time>2022-09-10T08:42:22Z</time>
      </trkpt>
      <trkpt lat="43.22029" lon="-0.66337">
        <ele>225.8</ele>
        <time>2022-09-10T08:42:28Z</time>
      </trkpt>
      <trkpt lat="43.22042" lon="-0.66375">
        <ele>225.6</ele>
        <time>2022-09-10T08:42:36Z</time>
      </trkpt>
      <trkpt lat="43.22048" lon="-0.6639">
        <ele>225.2</ele>
        <time>2022-09-10T08:42:39Z</time>
      </trkpt>
      <trkpt lat="43.22053" lon="-0.66406">
        <ele>225</ele>
        <time>2022-09-10T08:42:42Z</time>
      </trkpt>
      <trkpt lat="43.22062" lon="-0.66432">
        <ele>224.6</ele>
        <time>2022-09-10T08:42:47Z</time>
      </trkpt>
      <trkpt lat="43.22067" lon="-0.66443">
        <ele>224.6</ele>
        <time>2022-09-10T08:42:49Z</time>
      </trkpt>
      <trkpt lat="43.22077" lon="-0.66479">
        <ele>224.2</ele>
        <time>2022-09-10T08:42:56Z</time>
      </trkpt>
      <trkpt lat="43.22078" lon="-0.66485">
        <ele>224</ele>
        <time>2022-09-10T08:42:57Z</time>
      </trkpt>
      <trkpt lat="43.22083" lon="-0.66506">
        <ele>223.6</ele>
        <time>2022-09-10T08:43:01Z</time>
      </trkpt>
      <trkpt lat="43.2209" lon="-0.6653">
        <ele>223.2</ele>
        <time>2022-09-10T08:43:08Z</time>
      </trkpt>
      <trkpt lat="43.22096" lon="-0.66545">
        <ele>222.8</ele>
        <time>2022-09-10T08:43:13Z</time>
      </trkpt>
      <trkpt lat="43.22102" lon="-0.66564">
        <ele>222.6</ele>
        <time>2022-09-10T08:43:18Z</time>
      </trkpt>
      <trkpt lat="43.22112" lon="-0.66589">
        <ele>222.2</ele>
        <time>2022-09-10T08:43:24Z</time>
      </trkpt>
      <trkpt lat="43.22117" lon="-0.666">
        <ele>221.8</ele>
        <time>2022-09-10T08:43:27Z</time>
      </trkpt>
      <trkpt lat="43.22123" lon="-0.66613">
        <ele>221.6</ele>
        <time>2022-09-10T08:43:30Z</time>
      </trkpt>
      <trkpt lat="43.22131" lon="-0.66638">
        <ele>221</ele>
        <time>2022-09-10T08:43:36Z</time>
      </trkpt>
      <trkpt lat="43.22133" lon="-0.66642">
        <ele>220.6</ele>
        <time>2022-09-10T08:43:37Z</time>
      </trkpt>
      <trkpt lat="43.22145" lon="-0.66672">
        <ele>220</ele>
        <time>2022-09-10T08:43:43Z</time>
      </trkpt>
      <trkpt lat="43.22151" lon="-0.66691">
        <ele>219.6</ele>
        <time>2022-09-10T08:43:47Z</time>
      </trkpt>
      <trkpt lat="43.22155" lon="-0.66701">
        <ele>219.4</ele>
        <time>2022-09-10T08:43:49Z</time>
      </trkpt>
      <trkpt lat="43.22164" lon="-0.66725">
        <ele>219.2</ele>
        <time>2022-09-10T08:43:54Z</time>
      </trkpt>
      <trkpt lat="43.22172" lon="-0.66745">
        <ele>219</ele>
        <time>2022-09-10T08:43:59Z</time>
      </trkpt>
      <trkpt lat="43.22183" lon="-0.66758">
        <ele>218.8</ele>
        <time>2022-09-10T08:44:04Z</time>
      </trkpt>
      <trkpt lat="43.22185" lon="-0.66759">
        <ele>218.6</ele>
        <time>2022-09-10T08:44:05Z</time>
      </trkpt>
      <trkpt lat="43.22198" lon="-0.66772">
        <ele>218</ele>
        <time>2022-09-10T08:44:10Z</time>
      </trkpt>
      <trkpt lat="43.22209" lon="-0.66785">
        <ele>217.4</ele>
        <time>2022-09-10T08:44:14Z</time>
      </trkpt>
      <trkpt lat="43.22216" lon="-0.66794">
        <ele>217</ele>
        <time>2022-09-10T08:44:16Z</time>
      </trkpt>
      <trkpt lat="43.22226" lon="-0.66809">
        <ele>216.4</ele>
        <time>2022-09-10T08:44:19Z</time>
      </trkpt>
      <trkpt lat="43.22232" lon="-0.6682">
        <ele>216.4</ele>
        <time>2022-09-10T08:44:21Z</time>
      </trkpt>
      <trkpt lat="43.22244" lon="-0.66842">
        <ele>215.8</ele>
        <time>2022-09-10T08:44:26Z</time>
      </trkpt>
      <trkpt lat="43.22258" lon="-0.66859">
        <ele>215.8</ele>
        <time>2022-09-10T08:44:32Z</time>
      </trkpt>
      <trkpt lat="43.22273" lon="-0.66871">
        <ele>215.8</ele>
        <time>2022-09-10T08:44:37Z</time>
      </trkpt>
      <trkpt lat="43.22283" lon="-0.6688">
        <ele>215.2</ele>
        <time>2022-09-10T08:44:41Z</time>
      </trkpt>
      <trkpt lat="43.22285" lon="-0.66882">
        <ele>215.2</ele>
        <time>2022-09-10T08:44:42Z</time>
      </trkpt>
      <trkpt lat="43.22296" lon="-0.66892">
        <ele>214.6</ele>
        <time>2022-09-10T08:44:47Z</time>
      </trkpt>
      <trkpt lat="43.22311" lon="-0.66901">
        <ele>214.6</ele>
        <time>2022-09-10T08:44:52Z</time>
      </trkpt>
      <trkpt lat="43.22318" lon="-0.66905">
        <ele>214.4</ele>
        <time>2022-09-10T08:44:54Z</time>
      </trkpt>
      <trkpt lat="43.22325" lon="-0.66909">
        <ele>214.2</ele>
        <time>2022-09-10T08:44:56Z</time>
      </trkpt>
      <trkpt lat="43.22337" lon="-0.66915">
        <ele>213.6</ele>
        <time>2022-09-10T08:44:59Z</time>
      </trkpt>
      <trkpt lat="43.22345" lon="-0.6692">
        <ele>213.2</ele>
        <time>2022-09-10T08:45:01Z</time>
      </trkpt>
      <trkpt lat="43.22359" lon="-0.66928">
        <ele>212.4</ele>
        <time>2022-09-10T08:45:04Z</time>
      </trkpt>
      <trkpt lat="43.22369" lon="-0.66936">
        <ele>212</ele>
        <time>2022-09-10T08:45:06Z</time>
      </trkpt>
      <trkpt lat="43.22383" lon="-0.66946">
        <ele>211</ele>
        <time>2022-09-10T08:45:09Z</time>
      </trkpt>
      <trkpt lat="43.22388" lon="-0.66949">
        <ele>210.6</ele>
        <time>2022-09-10T08:45:10Z</time>
      </trkpt>
      <trkpt lat="43.22403" lon="-0.66957">
        <ele>209.8</ele>
        <time>2022-09-10T08:45:13Z</time>
      </trkpt>
      <trkpt lat="43.22407" lon="-0.6696">
        <ele>209.6</ele>
        <time>2022-09-10T08:45:14Z</time>
      </trkpt>
      <trkpt lat="43.22412" lon="-0.66961">
        <ele>209.2</ele>
        <time>2022-09-10T08:45:15Z</time>
      </trkpt>
      <trkpt lat="43.2242" lon="-0.6696">
        <ele>208.6</ele>
        <time>2022-09-10T08:45:17Z</time>
      </trkpt>
      <trkpt lat="43.22423" lon="-0.66957">
        <ele>208.4</ele>
        <time>2022-09-10T08:45:18Z</time>
      </trkpt>
      <trkpt lat="43.22432" lon="-0.6695">
        <ele>208</ele>
        <time>2022-09-10T08:45:21Z</time>
      </trkpt>
      <trkpt lat="43.22436" lon="-0.66948">
        <ele>207.6</ele>
        <time>2022-09-10T08:45:23Z</time>
      </trkpt>
      <trkpt lat="43.22441" lon="-0.66946">
        <ele>207</ele>
        <time>2022-09-10T08:45:26Z</time>
      </trkpt>
      <trkpt lat="43.22445" lon="-0.66946">
        <ele>206.8</ele>
        <time>2022-09-10T08:45:28Z</time>
      </trkpt>
      <trkpt lat="43.22453" lon="-0.66955">
        <ele>206.6</ele>
        <time>2022-09-10T08:45:33Z</time>
      </trkpt>
      <trkpt lat="43.2246" lon="-0.66977">
        <ele>206.2</ele>
        <time>2022-09-10T08:45:39Z</time>
      </trkpt>
      <trkpt lat="43.22461" lon="-0.66988">
        <ele>205.8</ele>
        <time>2022-09-10T08:45:41Z</time>
      </trkpt>
      <trkpt lat="43.22461" lon="-0.67002">
        <ele>205</ele>
        <time>2022-09-10T08:45:43Z</time>
      </trkpt>
      <trkpt lat="43.22459" lon="-0.6701">
        <ele>204.4</ele>
        <time>2022-09-10T08:45:44Z</time>
      </trkpt>
      <trkpt lat="43.22455" lon="-0.67025">
        <ele>203</ele>
        <time>2022-09-10T08:45:46Z</time>
      </trkpt>
      <trkpt lat="43.22452" lon="-0.6704">
        <ele>202.2</ele>
        <time>2022-09-10T08:45:48Z</time>
      </trkpt>
      <trkpt lat="43.22452" lon="-0.67055">
        <ele>201.8</ele>
        <time>2022-09-10T08:45:50Z</time>
      </trkpt>
      <trkpt lat="43.22458" lon="-0.67071">
        <ele>201</ele>
        <time>2022-09-10T08:45:53Z</time>
      </trkpt>
      <trkpt lat="43.22468" lon="-0.67078">
        <ele>201.2</ele>
        <time>2022-09-10T08:45:57Z</time>
      </trkpt>
      <trkpt lat="43.22471" lon="-0.67078">
        <ele>201.4</ele>
        <time>2022-09-10T08:45:58Z</time>
      </trkpt>
      <trkpt lat="43.22488" lon="-0.67077">
        <ele>201.6</ele>
        <time>2022-09-10T08:46:05Z</time>
      </trkpt>
      <trkpt lat="43.22513" lon="-0.67074">
        <ele>201.2</ele>
        <time>2022-09-10T08:46:13Z</time>
      </trkpt>
      <trkpt lat="43.22538" lon="-0.67073">
        <ele>200.6</ele>
        <time>2022-09-10T08:46:18Z</time>
      </trkpt>
      <trkpt lat="43.22543" lon="-0.67073">
        <ele>200.4</ele>
        <time>2022-09-10T08:46:19Z</time>
      </trkpt>
      <trkpt lat="43.2257" lon="-0.67069">
        <ele>200.4</ele>
        <time>2022-09-10T08:46:25Z</time>
      </trkpt>
      <trkpt lat="43.22596" lon="-0.67064">
        <ele>201</ele>
        <time>2022-09-10T08:46:32Z</time>
      </trkpt>
      <trkpt lat="43.22619" lon="-0.67066">
        <ele>200.8</ele>
        <time>2022-09-10T08:46:38Z</time>
      </trkpt>
      <trkpt lat="43.22627" lon="-0.67069">
        <ele>200.2</ele>
        <time>2022-09-10T08:46:40Z</time>
      </trkpt>
      <trkpt lat="43.22636" lon="-0.67075">
        <ele>199.8</ele>
        <time>2022-09-10T08:46:42Z</time>
      </trkpt>
      <trkpt lat="43.22641" lon="-0.67078">
        <ele>199.6</ele>
        <time>2022-09-10T08:46:43Z</time>
      </trkpt>
      <trkpt lat="43.22646" lon="-0.67081">
        <ele>199.4</ele>
        <time>2022-09-10T08:46:44Z</time>
      </trkpt>
      <trkpt lat="43.22656" lon="-0.67086">
        <ele>199.4</ele>
        <time>2022-09-10T08:46:46Z</time>
      </trkpt>
      <trkpt lat="43.22669" lon="-0.67088">
        <ele>199.4</ele>
        <time>2022-09-10T08:46:49Z</time>
      </trkpt>
      <trkpt lat="43.22673" lon="-0.6709">
        <ele>199.4</ele>
        <time>2022-09-10T08:46:50Z</time>
      </trkpt>
      <trkpt lat="43.22692" lon="-0.671">
        <ele>199.2</ele>
        <time>2022-09-10T08:46:54Z</time>
      </trkpt>
      <trkpt lat="43.2273" lon="-0.67122">
        <ele>199.6</ele>
        <time>2022-09-10T08:47:02Z</time>
      </trkpt>
      <trkpt lat="43.22768" lon="-0.67138">
        <ele>199.8</ele>
        <time>2022-09-10T08:47:10Z</time>
      </trkpt>
      <trkpt lat="43.22784" lon="-0.67152">
        <ele>199.8</ele>
        <time>2022-09-10T08:47:14Z</time>
      </trkpt>
      <trkpt lat="43.22787" lon="-0.67156">
        <ele>199.8</ele>
        <time>2022-09-10T08:47:15Z</time>
      </trkpt>
      <trkpt lat="43.22808" lon="-0.67188">
        <ele>200</ele>
        <time>2022-09-10T08:47:22Z</time>
      </trkpt>
      <trkpt lat="43.22814" lon="-0.67199">
        <ele>199.6</ele>
        <time>2022-09-10T08:47:24Z</time>
      </trkpt>
      <trkpt lat="43.22825" lon="-0.67218">
        <ele>199.4</ele>
        <time>2022-09-10T08:47:28Z</time>
      </trkpt>
      <trkpt lat="43.22854" lon="-0.67256">
        <ele>199.4</ele>
        <time>2022-09-10T08:47:37Z</time>
      </trkpt>
      <trkpt lat="43.22879" lon="-0.67277">
        <ele>198.8</ele>
        <time>2022-09-10T08:47:43Z</time>
      </trkpt>
      <trkpt lat="43.22909" lon="-0.67289">
        <ele>198.8</ele>
        <time>2022-09-10T08:47:49Z</time>
      </trkpt>
      <trkpt lat="43.22932" lon="-0.67284">
        <ele>199</ele>
        <time>2022-09-10T08:47:54Z</time>
      </trkpt>
      <trkpt lat="43.22946" lon="-0.67279">
        <ele>199.8</ele>
        <time>2022-09-10T08:47:59Z</time>
      </trkpt>
      <trkpt lat="43.22952" lon="-0.67277">
        <ele>200.6</ele>
        <time>2022-09-10T08:48:02Z</time>
      </trkpt>
      <trkpt lat="43.2296" lon="-0.67274">
        <ele>201.4</ele>
        <time>2022-09-10T08:48:06Z</time>
      </trkpt>
      <trkpt lat="43.22962" lon="-0.67273">
        <ele>201.6</ele>
        <time>2022-09-10T08:48:07Z</time>
      </trkpt>
      <trkpt lat="43.22974" lon="-0.67269">
        <ele>202.6</ele>
        <time>2022-09-10T08:48:12Z</time>
      </trkpt>
      <trkpt lat="43.22978" lon="-0.67267">
        <ele>202.8</ele>
        <time>2022-09-10T08:48:14Z</time>
      </trkpt>
      <trkpt lat="43.22994" lon="-0.67268">
        <ele>203.4</ele>
        <time>2022-09-10T08:48:21Z</time>
      </trkpt>
      <trkpt lat="43.23004" lon="-0.6728">
        <ele>203.2</ele>
        <time>2022-09-10T08:48:26Z</time>
      </trkpt>
      <trkpt lat="43.2302" lon="-0.67306">
        <ele>202.4</ele>
        <time>2022-09-10T08:48:32Z</time>
      </trkpt>
      <trkpt lat="43.23027" lon="-0.67319">
        <ele>201.4</ele>
        <time>2022-09-10T08:48:34Z</time>
      </trkpt>
      <trkpt lat="43.23035" lon="-0.67336">
        <ele>200.4</ele>
        <time>2022-09-10T08:48:36Z</time>
      </trkpt>
      <trkpt lat="43.23053" lon="-0.67368">
        <ele>199</ele>
        <time>2022-09-10T08:48:40Z</time>
      </trkpt>
      <trkpt lat="43.23063" lon="-0.6738">
        <ele>198.4</ele>
        <time>2022-09-10T08:48:42Z</time>
      </trkpt>
      <trkpt lat="43.23072" lon="-0.67393">
        <ele>198</ele>
        <time>2022-09-10T08:48:45Z</time>
      </trkpt>
      <trkpt lat="43.23074" lon="-0.67396">
        <ele>197.8</ele>
        <time>2022-09-10T08:48:46Z</time>
      </trkpt>
      <trkpt lat="43.23089" lon="-0.67412">
        <ele>197.2</ele>
        <time>2022-09-10T08:48:53Z</time>
      </trkpt>
      <trkpt lat="43.23102" lon="-0.67427">
        <ele>197.2</ele>
        <time>2022-09-10T08:49:00Z</time>
      </trkpt>
      <trkpt lat="43.23118" lon="-0.67432">
        <ele>197</ele>
        <time>2022-09-10T08:49:06Z</time>
      </trkpt>
      <trkpt lat="43.23143" lon="-0.67434">
        <ele>196.4</ele>
        <time>2022-09-10T08:49:12Z</time>
      </trkpt>
      <trkpt lat="43.23164" lon="-0.67424">
        <ele>196.8</ele>
        <time>2022-09-10T08:49:18Z</time>
      </trkpt>
      <trkpt lat="43.23189" lon="-0.67401">
        <ele>197</ele>
        <time>2022-09-10T08:49:26Z</time>
      </trkpt>
      <trkpt lat="43.23212" lon="-0.67376">
        <ele>196.8</ele>
        <time>2022-09-10T08:49:34Z</time>
      </trkpt>
      <trkpt lat="43.23227" lon="-0.67362">
        <ele>196.2</ele>
        <time>2022-09-10T08:49:39Z</time>
      </trkpt>
      <trkpt lat="43.23234" lon="-0.67362">
        <ele>195.8</ele>
        <time>2022-09-10T08:49:41Z</time>
      </trkpt>
      <trkpt lat="43.23238" lon="-0.67364">
        <ele>195.6</ele>
        <time>2022-09-10T08:49:42Z</time>
      </trkpt>
      <trkpt lat="43.23242" lon="-0.67366">
        <ele>195.2</ele>
        <time>2022-09-10T08:49:43Z</time>
      </trkpt>
      <trkpt lat="43.23247" lon="-0.67367">
        <ele>194.6</ele>
        <time>2022-09-10T08:49:44Z</time>
      </trkpt>
      <trkpt lat="43.23257" lon="-0.6737">
        <ele>193.2</ele>
        <time>2022-09-10T08:49:46Z</time>
      </trkpt>
      <trkpt lat="43.23265" lon="-0.67373">
        <ele>192.4</ele>
        <time>2022-09-10T08:49:48Z</time>
      </trkpt>
      <trkpt lat="43.23268" lon="-0.67375">
        <ele>192.2</ele>
        <time>2022-09-10T08:49:49Z</time>
      </trkpt>
      <trkpt lat="43.23277" lon="-0.67387">
        <ele>192</ele>
        <time>2022-09-10T08:49:53Z</time>
      </trkpt>
      <trkpt lat="43.23293" lon="-0.67402">
        <ele>191.6</ele>
        <time>2022-09-10T08:50:00Z</time>
      </trkpt>
      <trkpt lat="43.23301" lon="-0.67403">
        <ele>191.4</ele>
        <time>2022-09-10T08:50:02Z</time>
      </trkpt>
      <trkpt lat="43.23306" lon="-0.67403">
        <ele>191.2</ele>
        <time>2022-09-10T08:50:03Z</time>
      </trkpt>
      <trkpt lat="43.2331" lon="-0.67402">
        <ele>191</ele>
        <time>2022-09-10T08:50:04Z</time>
      </trkpt>
      <trkpt lat="43.2332" lon="-0.67398">
        <ele>190.6</ele>
        <time>2022-09-10T08:50:06Z</time>
      </trkpt>
      <trkpt lat="43.23331" lon="-0.67395">
        <ele>190.2</ele>
        <time>2022-09-10T08:50:08Z</time>
      </trkpt>
      <trkpt lat="43.23341" lon="-0.6739">
        <ele>190.2</ele>
        <time>2022-09-10T08:50:10Z</time>
      </trkpt>
      <trkpt lat="43.23361" lon="-0.67381">
        <ele>190</ele>
        <time>2022-09-10T08:50:14Z</time>
      </trkpt>
      <trkpt lat="43.2337" lon="-0.67381">
        <ele>190</ele>
        <time>2022-09-10T08:50:16Z</time>
      </trkpt>
      <trkpt lat="43.23387" lon="-0.67388">
        <ele>189.8</ele>
        <time>2022-09-10T08:50:20Z</time>
      </trkpt>
      <trkpt lat="43.23396" lon="-0.67392">
        <ele>189.4</ele>
        <time>2022-09-10T08:50:22Z</time>
      </trkpt>
      <trkpt lat="43.23417" lon="-0.67396">
        <ele>189</ele>
        <time>2022-09-10T08:50:26Z</time>
      </trkpt>
      <trkpt lat="43.23429" lon="-0.67398">
        <ele>188</ele>
        <time>2022-09-10T08:50:28Z</time>
      </trkpt>
      <trkpt lat="43.23466" lon="-0.67404">
        <ele>186.8</ele>
        <time>2022-09-10T08:50:34Z</time>
      </trkpt>
      <trkpt lat="43.23473" lon="-0.67405">
        <ele>186.6</ele>
        <time>2022-09-10T08:50:35Z</time>
      </trkpt>
      <trkpt lat="43.23514" lon="-0.67412">
        <ele>186</ele>
        <time>2022-09-10T08:50:42Z</time>
      </trkpt>
      <trkpt lat="43.23524" lon="-0.67412">
        <ele>186</ele>
        <time>2022-09-10T08:50:44Z</time>
      </trkpt>
      <trkpt lat="43.23548" lon="-0.67413">
        <ele>185.8</ele>
        <time>2022-09-10T08:50:48Z</time>
      </trkpt>
      <trkpt lat="43.2357" lon="-0.67414">
        <ele>185.6</ele>
        <time>2022-09-10T08:50:52Z</time>
      </trkpt>
      <trkpt lat="43.23602" lon="-0.67424">
        <ele>185</ele>
        <time>2022-09-10T08:50:58Z</time>
      </trkpt>
      <trkpt lat="43.23652" lon="-0.6744">
        <ele>185</ele>
        <time>2022-09-10T08:51:08Z</time>
      </trkpt>
      <trkpt lat="43.23677" lon="-0.6745">
        <ele>184.6</ele>
        <time>2022-09-10T08:51:13Z</time>
      </trkpt>
      <trkpt lat="43.23701" lon="-0.67462">
        <ele>184.4</ele>
        <time>2022-09-10T08:51:18Z</time>
      </trkpt>
      <trkpt lat="43.23748" lon="-0.67485">
        <ele>184</ele>
        <time>2022-09-10T08:51:28Z</time>
      </trkpt>
      <trkpt lat="43.23762" lon="-0.67487">
        <ele>183.6</ele>
        <time>2022-09-10T08:51:31Z</time>
      </trkpt>
      <trkpt lat="43.23785" lon="-0.67487">
        <ele>183.8</ele>
        <time>2022-09-10T08:51:36Z</time>
      </trkpt>
      <trkpt lat="43.23824" lon="-0.67492">
        <ele>183.2</ele>
        <time>2022-09-10T08:51:44Z</time>
      </trkpt>
      <trkpt lat="43.23872" lon="-0.67509">
        <ele>182.6</ele>
        <time>2022-09-10T08:51:53Z</time>
      </trkpt>
      <trkpt lat="43.23876" lon="-0.67512">
        <ele>182.6</ele>
        <time>2022-09-10T08:51:54Z</time>
      </trkpt>
      <trkpt lat="43.23893" lon="-0.67528">
        <ele>182.4</ele>
        <time>2022-09-10T08:51:58Z</time>
      </trkpt>
      <trkpt lat="43.23925" lon="-0.67559">
        <ele>181.8</ele>
        <time>2022-09-10T08:52:06Z</time>
      </trkpt>
      <trkpt lat="43.23941" lon="-0.67576">
        <ele>181.2</ele>
        <time>2022-09-10T08:52:10Z</time>
      </trkpt>
      <trkpt lat="43.23951" lon="-0.67584">
        <ele>181</ele>
        <time>2022-09-10T08:52:12Z</time>
      </trkpt>
      <trkpt lat="43.23956" lon="-0.67588">
        <ele>180.8</ele>
        <time>2022-09-10T08:52:13Z</time>
      </trkpt>
      <trkpt lat="43.23977" lon="-0.67602">
        <ele>180.2</ele>
        <time>2022-09-10T08:52:17Z</time>
      </trkpt>
      <trkpt lat="43.24005" lon="-0.67621">
        <ele>179.2</ele>
        <time>2022-09-10T08:52:22Z</time>
      </trkpt>
      <trkpt lat="43.24011" lon="-0.67624">
        <ele>179</ele>
        <time>2022-09-10T08:52:23Z</time>
      </trkpt>
      <trkpt lat="43.24052" lon="-0.67646">
        <ele>178.2</ele>
        <time>2022-09-10T08:52:30Z</time>
      </trkpt>
      <trkpt lat="43.24057" lon="-0.6765">
        <ele>178</ele>
        <time>2022-09-10T08:52:31Z</time>
      </trkpt>
      <trkpt lat="43.24073" lon="-0.67667">
        <ele>177.2</ele>
        <time>2022-09-10T08:52:34Z</time>
      </trkpt>
      <trkpt lat="43.24078" lon="-0.67673">
        <ele>176.8</ele>
        <time>2022-09-10T08:52:35Z</time>
      </trkpt>
      <trkpt lat="43.2409" lon="-0.67687">
        <ele>176.4</ele>
        <time>2022-09-10T08:52:37Z</time>
      </trkpt>
      <trkpt lat="43.24093" lon="-0.67695">
        <ele>176.4</ele>
        <time>2022-09-10T08:52:38Z</time>
      </trkpt>
      <trkpt lat="43.24103" lon="-0.67723">
        <ele>176.4</ele>
        <time>2022-09-10T08:52:42Z</time>
      </trkpt>
      <trkpt lat="43.24106" lon="-0.67729">
        <ele>176.4</ele>
        <time>2022-09-10T08:52:43Z</time>
      </trkpt>
      <trkpt lat="43.24112" lon="-0.67741">
        <ele>176.2</ele>
        <time>2022-09-10T08:52:45Z</time>
      </trkpt>
      <trkpt lat="43.24121" lon="-0.67751">
        <ele>176.2</ele>
        <time>2022-09-10T08:52:47Z</time>
      </trkpt>
      <trkpt lat="43.24146" lon="-0.67777">
        <ele>176.2</ele>
        <time>2022-09-10T08:52:53Z</time>
      </trkpt>
      <trkpt lat="43.24169" lon="-0.67812">
        <ele>176.2</ele>
        <time>2022-09-10T08:53:00Z</time>
      </trkpt>
      <trkpt lat="43.2418" lon="-0.67827">
        <ele>175.8</ele>
        <time>2022-09-10T08:53:03Z</time>
      </trkpt>
      <trkpt lat="43.24196" lon="-0.67853">
        <ele>175.6</ele>
        <time>2022-09-10T08:53:08Z</time>
      </trkpt>
      <trkpt lat="43.24224" lon="-0.67893">
        <ele>175</ele>
        <time>2022-09-10T08:53:16Z</time>
      </trkpt>
      <trkpt lat="43.24238" lon="-0.67911">
        <ele>174.8</ele>
        <time>2022-09-10T08:53:20Z</time>
      </trkpt>
      <trkpt lat="43.2425" lon="-0.67924">
        <ele>174.2</ele>
        <time>2022-09-10T08:53:23Z</time>
      </trkpt>
      <trkpt lat="43.24262" lon="-0.67935">
        <ele>174.2</ele>
        <time>2022-09-10T08:53:26Z</time>
      </trkpt>
      <trkpt lat="43.24272" lon="-0.6794">
        <ele>174.2</ele>
        <time>2022-09-10T08:53:28Z</time>
      </trkpt>
      <trkpt lat="43.24305" lon="-0.6795">
        <ele>174.2</ele>
        <time>2022-09-10T08:53:35Z</time>
      </trkpt>
      <trkpt lat="43.24342" lon="-0.67964">
        <ele>174</ele>
        <time>2022-09-10T08:53:43Z</time>
      </trkpt>
      <trkpt lat="43.24378" lon="-0.67976">
        <ele>174.4</ele>
        <time>2022-09-10T08:53:51Z</time>
      </trkpt>
      <trkpt lat="43.24395" lon="-0.67982">
        <ele>174.2</ele>
        <time>2022-09-10T08:53:55Z</time>
      </trkpt>
      <trkpt lat="43.24407" lon="-0.67986">
        <ele>174.2</ele>
        <time>2022-09-10T08:53:58Z</time>
      </trkpt>
      <trkpt lat="43.24435" lon="-0.67997">
        <ele>174</ele>
        <time>2022-09-10T08:54:05Z</time>
      </trkpt>
      <trkpt lat="43.2444" lon="-0.67997">
        <ele>174</ele>
        <time>2022-09-10T08:54:06Z</time>
      </trkpt>
      <trkpt lat="43.24448" lon="-0.67997">
        <ele>173.6</ele>
        <time>2022-09-10T08:54:08Z</time>
      </trkpt>
      <trkpt lat="43.24452" lon="-0.67998">
        <ele>173.6</ele>
        <time>2022-09-10T08:54:09Z</time>
      </trkpt>
      <trkpt lat="43.24456" lon="-0.68001">
        <ele>173.4</ele>
        <time>2022-09-10T08:54:10Z</time>
      </trkpt>
      <trkpt lat="43.24461" lon="-0.68015">
        <ele>173.6</ele>
        <time>2022-09-10T08:54:13Z</time>
      </trkpt>
      <trkpt lat="43.24458" lon="-0.68033">
        <ele>173.8</ele>
        <time>2022-09-10T08:54:17Z</time>
      </trkpt>
      <trkpt lat="43.24457" lon="-0.68039">
        <ele>173.8</ele>
        <time>2022-09-10T08:54:18Z</time>
      </trkpt>
      <trkpt lat="43.24457" lon="-0.68044">
        <ele>174</ele>
        <time>2022-09-10T08:54:19Z</time>
      </trkpt>
      <trkpt lat="43.24457" lon="-0.68069">
        <ele>173.6</ele>
        <time>2022-09-10T08:54:23Z</time>
      </trkpt>
      <trkpt lat="43.24459" lon="-0.68095">
        <ele>173.2</ele>
        <time>2022-09-10T08:54:27Z</time>
      </trkpt>
      <trkpt lat="43.24458" lon="-0.68108">
        <ele>173.2</ele>
        <time>2022-09-10T08:54:29Z</time>
      </trkpt>
      <trkpt lat="43.24459" lon="-0.6812">
        <ele>172.8</ele>
        <time>2022-09-10T08:54:31Z</time>
      </trkpt>
      <trkpt lat="43.2446" lon="-0.68126">
        <ele>172.8</ele>
        <time>2022-09-10T08:54:32Z</time>
      </trkpt>
      <trkpt lat="43.24463" lon="-0.68137">
        <ele>172.8</ele>
        <time>2022-09-10T08:54:34Z</time>
      </trkpt>
      <trkpt lat="43.24466" lon="-0.68143">
        <ele>173</ele>
        <time>2022-09-10T08:54:35Z</time>
      </trkpt>
      <trkpt lat="43.24476" lon="-0.68151">
        <ele>173.2</ele>
        <time>2022-09-10T08:54:39Z</time>
      </trkpt>
      <trkpt lat="43.24483" lon="-0.68152">
        <ele>173.4</ele>
        <time>2022-09-10T08:54:41Z</time>
      </trkpt>
      <trkpt lat="43.24496" lon="-0.68153">
        <ele>173.4</ele>
        <time>2022-09-10T08:54:44Z</time>
      </trkpt>
      <trkpt lat="43.24509" lon="-0.68154">
        <ele>173.4</ele>
        <time>2022-09-10T08:54:47Z</time>
      </trkpt>
      <trkpt lat="43.24521" lon="-0.68162">
        <ele>173.6</ele>
        <time>2022-09-10T08:54:50Z</time>
      </trkpt>
      <trkpt lat="43.24524" lon="-0.68164">
        <ele>173.6</ele>
        <time>2022-09-10T08:54:51Z</time>
      </trkpt>
      <trkpt lat="43.24536" lon="-0.68172">
        <ele>174</ele>
        <time>2022-09-10T08:54:55Z</time>
      </trkpt>
      <trkpt lat="43.24554" lon="-0.68169">
        <ele>174.4</ele>
        <time>2022-09-10T08:55:00Z</time>
      </trkpt>
      <trkpt lat="43.24565" lon="-0.68152">
        <ele>174.2</ele>
        <time>2022-09-10T08:55:04Z</time>
      </trkpt>
      <trkpt lat="43.2457" lon="-0.68141">
        <ele>173.8</ele>
        <time>2022-09-10T08:55:06Z</time>
      </trkpt>
      <trkpt lat="43.24581" lon="-0.68129">
        <ele>173.2</ele>
        <time>2022-09-10T08:55:09Z</time>
      </trkpt>
      <trkpt lat="43.24585" lon="-0.68125">
        <ele>173</ele>
        <time>2022-09-10T08:55:10Z</time>
      </trkpt>
      <trkpt lat="43.24599" lon="-0.68116">
        <ele>173</ele>
        <time>2022-09-10T08:55:13Z</time>
      </trkpt>
      <trkpt lat="43.24609" lon="-0.68111">
        <ele>172.8</ele>
        <time>2022-09-10T08:55:15Z</time>
      </trkpt>
      <trkpt lat="43.24613" lon="-0.68108">
        <ele>172.8</ele>
        <time>2022-09-10T08:55:16Z</time>
      </trkpt>
      <trkpt lat="43.24628" lon="-0.68093">
        <ele>172.8</ele>
        <time>2022-09-10T08:55:20Z</time>
      </trkpt>
      <trkpt lat="43.24656" lon="-0.68077">
        <ele>172.6</ele>
        <time>2022-09-10T08:55:26Z</time>
      </trkpt>
      <trkpt lat="43.24661" lon="-0.68074">
        <ele>172.4</ele>
        <time>2022-09-10T08:55:27Z</time>
      </trkpt>
      <trkpt lat="43.24678" lon="-0.68063">
        <ele>172.4</ele>
        <time>2022-09-10T08:55:31Z</time>
      </trkpt>
      <trkpt lat="43.24686" lon="-0.68057">
        <ele>172.2</ele>
        <time>2022-09-10T08:55:33Z</time>
      </trkpt>
      <trkpt lat="43.24703" lon="-0.68056">
        <ele>172.2</ele>
        <time>2022-09-10T08:55:37Z</time>
      </trkpt>
      <trkpt lat="43.2474" lon="-0.68062">
        <ele>172.6</ele>
        <time>2022-09-10T08:55:45Z</time>
      </trkpt>
      <trkpt lat="43.24772" lon="-0.68062">
        <ele>172</ele>
        <time>2022-09-10T08:55:52Z</time>
      </trkpt>
      <trkpt lat="43.24776" lon="-0.68062">
        <ele>172.2</ele>
        <time>2022-09-10T08:55:53Z</time>
      </trkpt>
      <trkpt lat="43.2479" lon="-0.68061">
        <ele>172</ele>
        <time>2022-09-10T08:55:56Z</time>
      </trkpt>
      <trkpt lat="43.24794" lon="-0.68061">
        <ele>171.8</ele>
        <time>2022-09-10T08:55:57Z</time>
      </trkpt>
      <trkpt lat="43.24823" lon="-0.68064">
        <ele>172.2</ele>
        <time>2022-09-10T08:56:03Z</time>
      </trkpt>
      <trkpt lat="43.24827" lon="-0.68064">
        <ele>172.2</ele>
        <time>2022-09-10T08:56:04Z</time>
      </trkpt>
      <trkpt lat="43.24846" lon="-0.68064">
        <ele>172.4</ele>
        <time>2022-09-10T08:56:08Z</time>
      </trkpt>
      <trkpt lat="43.24854" lon="-0.68064">
        <ele>172.4</ele>
        <time>2022-09-10T08:56:10Z</time>
      </trkpt>
      <trkpt lat="43.24868" lon="-0.68069">
        <ele>172.6</ele>
        <time>2022-09-10T08:56:14Z</time>
      </trkpt>
      <trkpt lat="43.24875" lon="-0.6807">
        <ele>172.8</ele>
        <time>2022-09-10T08:56:16Z</time>
      </trkpt>
      <trkpt lat="43.24889" lon="-0.68071">
        <ele>172.6</ele>
        <time>2022-09-10T08:56:20Z</time>
      </trkpt>
      <trkpt lat="43.24917" lon="-0.68072">
        <ele>172.8</ele>
        <time>2022-09-10T08:56:27Z</time>
      </trkpt>
      <trkpt lat="43.24934" lon="-0.68072">
        <ele>173.2</ele>
        <time>2022-09-10T08:56:31Z</time>
      </trkpt>
      <trkpt lat="43.2495" lon="-0.68076">
        <ele>173.2</ele>
        <time>2022-09-10T08:56:35Z</time>
      </trkpt>
      <trkpt lat="43.2497" lon="-0.68079">
        <ele>173.6</ele>
        <time>2022-09-10T08:56:40Z</time>
      </trkpt>
      <trkpt lat="43.24974" lon="-0.68079">
        <ele>173.6</ele>
        <time>2022-09-10T08:56:41Z</time>
      </trkpt>
      <trkpt lat="43.25012" lon="-0.68084">
        <ele>173.2</ele>
        <time>2022-09-10T08:56:50Z</time>
      </trkpt>
      <trkpt lat="43.25045" lon="-0.68087">
        <ele>172.8</ele>
        <time>2022-09-10T08:56:58Z</time>
      </trkpt>
      <trkpt lat="43.2508" lon="-0.68091">
        <ele>172.6</ele>
        <time>2022-09-10T08:57:06Z</time>
      </trkpt>
      <trkpt lat="43.25084" lon="-0.68092">
        <ele>172.4</ele>
        <time>2022-09-10T08:57:07Z</time>
      </trkpt>
      <trkpt lat="43.25115" lon="-0.68104">
        <ele>171.8</ele>
        <time>2022-09-10T08:57:14Z</time>
      </trkpt>
      <trkpt lat="43.25132" lon="-0.68115">
        <ele>171.4</ele>
        <time>2022-09-10T08:57:18Z</time>
      </trkpt>
      <trkpt lat="43.25137" lon="-0.68118">
        <ele>171.4</ele>
        <time>2022-09-10T08:57:19Z</time>
      </trkpt>
      <trkpt lat="43.2516" lon="-0.68133">
        <ele>171.4</ele>
        <time>2022-09-10T08:57:24Z</time>
      </trkpt>
      <trkpt lat="43.25202" lon="-0.68156">
        <ele>171.4</ele>
        <time>2022-09-10T08:57:33Z</time>
      </trkpt>
      <trkpt lat="43.25245" lon="-0.68185">
        <ele>170.8</ele>
        <time>2022-09-10T08:57:42Z</time>
      </trkpt>
      <trkpt lat="43.25281" lon="-0.68211">
        <ele>171</ele>
        <time>2022-09-10T08:57:50Z</time>
      </trkpt>
      <trkpt lat="43.25323" lon="-0.68252">
        <ele>170.6</ele>
        <time>2022-09-10T08:58:00Z</time>
      </trkpt>
      <trkpt lat="43.25341" lon="-0.68269">
        <ele>170.4</ele>
        <time>2022-09-10T08:58:04Z</time>
      </trkpt>
      <trkpt lat="43.25379" lon="-0.68307">
        <ele>170.6</ele>
        <time>2022-09-10T08:58:13Z</time>
      </trkpt>
      <trkpt lat="43.25406" lon="-0.68331">
        <ele>171.6</ele>
        <time>2022-09-10T08:58:20Z</time>
      </trkpt>
      <trkpt lat="43.2541" lon="-0.68333">
        <ele>171.8</ele>
        <time>2022-09-10T08:58:21Z</time>
      </trkpt>
      <trkpt lat="43.25444" lon="-0.68353">
        <ele>171.4</ele>
        <time>2022-09-10T08:58:29Z</time>
      </trkpt>
      <trkpt lat="43.25483" lon="-0.6837">
        <ele>171</ele>
        <time>2022-09-10T08:58:37Z</time>
      </trkpt>
      <trkpt lat="43.25528" lon="-0.68391">
        <ele>171</ele>
        <time>2022-09-10T08:58:46Z</time>
      </trkpt>
      <trkpt lat="43.25547" lon="-0.68397">
        <ele>171.2</ele>
        <time>2022-09-10T08:58:50Z</time>
      </trkpt>
      <trkpt lat="43.2556" lon="-0.68398">
        <ele>171.6</ele>
        <time>2022-09-10T08:58:53Z</time>
      </trkpt>
      <trkpt lat="43.25573" lon="-0.68399">
        <ele>172.8</ele>
        <time>2022-09-10T08:58:57Z</time>
      </trkpt>
      <trkpt lat="43.25577" lon="-0.68399">
        <ele>173.6</ele>
        <time>2022-09-10T08:58:59Z</time>
      </trkpt>
      <trkpt lat="43.25579" lon="-0.684">
        <ele>173.8</ele>
        <time>2022-09-10T08:59:00Z</time>
      </trkpt>
      <trkpt lat="43.25586" lon="-0.684">
        <ele>174.8</ele>
        <time>2022-09-10T08:59:04Z</time>
      </trkpt>
      <trkpt lat="43.25588" lon="-0.684">
        <ele>175</ele>
        <time>2022-09-10T08:59:05Z</time>
      </trkpt>
      <trkpt lat="43.25595" lon="-0.68402">
        <ele>175.8</ele>
        <time>2022-09-10T08:59:09Z</time>
      </trkpt>
      <trkpt lat="43.25605" lon="-0.68405">
        <ele>177</ele>
        <time>2022-09-10T08:59:14Z</time>
      </trkpt>
      <trkpt lat="43.25607" lon="-0.68405">
        <ele>177.2</ele>
        <time>2022-09-10T08:59:15Z</time>
      </trkpt>
      <trkpt lat="43.25617" lon="-0.68409">
        <ele>178</ele>
        <time>2022-09-10T08:59:20Z</time>
      </trkpt>
      <trkpt lat="43.25619" lon="-0.6841">
        <ele>178.2</ele>
        <time>2022-09-10T08:59:21Z</time>
      </trkpt>
      <trkpt lat="43.25639" lon="-0.68421">
        <ele>178.6</ele>
        <time>2022-09-10T08:59:29Z</time>
      </trkpt>
      <trkpt lat="43.25659" lon="-0.68436">
        <ele>178.6</ele>
        <time>2022-09-10T08:59:37Z</time>
      </trkpt>
      <trkpt lat="43.25683" lon="-0.6845">
        <ele>179</ele>
        <time>2022-09-10T08:59:45Z</time>
      </trkpt>
      <trkpt lat="43.25718" lon="-0.6846">
        <ele>179</ele>
        <time>2022-09-10T08:59:55Z</time>
      </trkpt>
      <trkpt lat="43.25736" lon="-0.68474">
        <ele>180</ele>
        <time>2022-09-10T09:00:01Z</time>
      </trkpt>
      <trkpt lat="43.25738" lon="-0.68477">
        <ele>180.4</ele>
        <time>2022-09-10T09:00:02Z</time>
      </trkpt>
      <trkpt lat="43.25747" lon="-0.68488">
        <ele>181.6</ele>
        <time>2022-09-10T09:00:07Z</time>
      </trkpt>
      <trkpt lat="43.25755" lon="-0.68498">
        <ele>182</ele>
        <time>2022-09-10T09:00:11Z</time>
      </trkpt>
      <trkpt lat="43.2577" lon="-0.68516">
        <ele>182.4</ele>
        <time>2022-09-10T09:00:18Z</time>
      </trkpt>
      <trkpt lat="43.25782" lon="-0.68527">
        <ele>182.4</ele>
        <time>2022-09-10T09:00:24Z</time>
      </trkpt>
      <trkpt lat="43.25803" lon="-0.68538">
        <ele>182.4</ele>
        <time>2022-09-10T09:00:31Z</time>
      </trkpt>
      <trkpt lat="43.25829" lon="-0.68552">
        <ele>182.4</ele>
        <time>2022-09-10T09:00:38Z</time>
      </trkpt>
      <trkpt lat="43.25837" lon="-0.68557">
        <ele>182.6</ele>
        <time>2022-09-10T09:00:40Z</time>
      </trkpt>
      <trkpt lat="43.25862" lon="-0.68571">
        <ele>182.4</ele>
        <time>2022-09-10T09:00:46Z</time>
      </trkpt>
      <trkpt lat="43.25892" lon="-0.68587">
        <ele>182</ele>
        <time>2022-09-10T09:00:54Z</time>
      </trkpt>
      <trkpt lat="43.25928" lon="-0.68602">
        <ele>181.6</ele>
        <time>2022-09-10T09:01:04Z</time>
      </trkpt>
      <trkpt lat="43.25931" lon="-0.68603">
        <ele>181.6</ele>
        <time>2022-09-10T09:01:05Z</time>
      </trkpt>
      <trkpt lat="43.25957" lon="-0.68611">
        <ele>181.6</ele>
        <time>2022-09-10T09:01:12Z</time>
      </trkpt>
      <trkpt lat="43.25973" lon="-0.68618">
        <ele>181.2</ele>
        <time>2022-09-10T09:01:16Z</time>
      </trkpt>
      <trkpt lat="43.25982" lon="-0.68622">
        <ele>181.4</ele>
        <time>2022-09-10T09:01:18Z</time>
      </trkpt>
      <trkpt lat="43.26023" lon="-0.68642">
        <ele>181.4</ele>
        <time>2022-09-10T09:01:28Z</time>
      </trkpt>
      <trkpt lat="43.26042" lon="-0.68659">
        <ele>181.2</ele>
        <time>2022-09-10T09:01:34Z</time>
      </trkpt>
      <trkpt lat="43.26064" lon="-0.68682">
        <ele>180.8</ele>
        <time>2022-09-10T09:01:41Z</time>
      </trkpt>
      <trkpt lat="43.26091" lon="-0.68709">
        <ele>180.6</ele>
        <time>2022-09-10T09:01:50Z</time>
      </trkpt>
      <trkpt lat="43.26094" lon="-0.68712">
        <ele>180.6</ele>
        <time>2022-09-10T09:01:51Z</time>
      </trkpt>
      <trkpt lat="43.26103" lon="-0.68734">
        <ele>180.4</ele>
        <time>2022-09-10T09:01:56Z</time>
      </trkpt>
      <trkpt lat="43.26103" lon="-0.68761">
        <ele>180.6</ele>
        <time>2022-09-10T09:02:02Z</time>
      </trkpt>
      <trkpt lat="43.26097" lon="-0.6879">
        <ele>180.4</ele>
        <time>2022-09-10T09:02:08Z</time>
      </trkpt>
      <trkpt lat="43.26092" lon="-0.68824">
        <ele>180.4</ele>
        <time>2022-09-10T09:02:15Z</time>
      </trkpt>
      <trkpt lat="43.26088" lon="-0.68846">
        <ele>180.4</ele>
        <time>2022-09-10T09:02:21Z</time>
      </trkpt>
      <trkpt lat="43.26082" lon="-0.68864">
        <ele>180.2</ele>
        <time>2022-09-10T09:02:27Z</time>
      </trkpt>
      <trkpt lat="43.26077" lon="-0.68875">
        <ele>180.2</ele>
        <time>2022-09-10T09:02:32Z</time>
      </trkpt>
      <trkpt lat="43.26072" lon="-0.68879">
        <ele>180.4</ele>
        <time>2022-09-10T09:02:36Z</time>
      </trkpt>
      <trkpt lat="43.26068" lon="-0.68881">
        <ele>180.2</ele>
        <time>2022-09-10T09:02:39Z</time>
      </trkpt>
      <trkpt lat="43.26078" lon="-0.68869">
        <ele>179.6</ele>
        <time>2022-09-10T09:07:17Z</time>
      </trkpt>
      <trkpt lat="43.26079" lon="-0.68867">
        <ele>179.6</ele>
        <time>2022-09-10T09:07:18Z</time>
      </trkpt>
      <trkpt lat="43.26079" lon="-0.68865">
        <ele>179.6</ele>
        <time>2022-09-10T09:07:19Z</time>
      </trkpt>
      <trkpt lat="43.26085" lon="-0.6886">
        <ele>179.4</ele>
        <time>2022-09-10T09:07:23Z</time>
      </trkpt>
      <trkpt lat="43.26085" lon="-0.68866">
        <ele>179.6</ele>
        <time>2022-09-10T09:07:26Z</time>
      </trkpt>
      <trkpt lat="43.26083" lon="-0.68869">
        <ele>179.6</ele>
        <time>2022-09-10T09:07:28Z</time>
      </trkpt>
      <trkpt lat="43.26082" lon="-0.68878">
        <ele>179.6</ele>
        <time>2022-09-10T09:07:32Z</time>
      </trkpt>
      <trkpt lat="43.26082" lon="-0.68891">
        <ele>179.4</ele>
        <time>2022-09-10T09:07:38Z</time>
      </trkpt>
      <trkpt lat="43.26086" lon="-0.68912">
        <ele>179.4</ele>
        <time>2022-09-10T09:07:46Z</time>
      </trkpt>
      <trkpt lat="43.26091" lon="-0.68931">
        <ele>179.2</ele>
        <time>2022-09-10T09:07:55Z</time>
      </trkpt>
      <trkpt lat="43.26098" lon="-0.6895">
        <ele>179.2</ele>
        <time>2022-09-10T09:08:03Z</time>
      </trkpt>
      <trkpt lat="43.26104" lon="-0.68962">
        <ele>179</ele>
        <time>2022-09-10T09:08:09Z</time>
      </trkpt>
      <trkpt lat="43.26117" lon="-0.68975">
        <ele>179</ele>
        <time>2022-09-10T09:08:17Z</time>
      </trkpt>
      <trkpt lat="43.26135" lon="-0.68989">
        <ele>179</ele>
        <time>2022-09-10T09:08:25Z</time>
      </trkpt>
      <trkpt lat="43.26145" lon="-0.69005">
        <ele>179.2</ele>
        <time>2022-09-10T09:08:31Z</time>
      </trkpt>
      <trkpt lat="43.26162" lon="-0.69031">
        <ele>179.2</ele>
        <time>2022-09-10T09:08:39Z</time>
      </trkpt>
      <trkpt lat="43.26179" lon="-0.69058">
        <ele>179</ele>
        <time>2022-09-10T09:08:47Z</time>
      </trkpt>
      <trkpt lat="43.26192" lon="-0.69091">
        <ele>179.4</ele>
        <time>2022-09-10T09:08:54Z</time>
      </trkpt>
      <trkpt lat="43.2621" lon="-0.69134">
        <ele>179.2</ele>
        <time>2022-09-10T09:09:02Z</time>
      </trkpt>
      <trkpt lat="43.26233" lon="-0.69181">
        <ele>179.2</ele>
        <time>2022-09-10T09:09:11Z</time>
      </trkpt>
      <trkpt lat="43.26253" lon="-0.69219">
        <ele>179.2</ele>
        <time>2022-09-10T09:09:18Z</time>
      </trkpt>
      <trkpt lat="43.26258" lon="-0.69231">
        <ele>179</ele>
        <time>2022-09-10T09:09:20Z</time>
      </trkpt>
      <trkpt lat="43.26277" lon="-0.69278">
        <ele>179</ele>
        <time>2022-09-10T09:09:28Z</time>
      </trkpt>
      <trkpt lat="43.26297" lon="-0.69325">
        <ele>178.6</ele>
        <time>2022-09-10T09:09:36Z</time>
      </trkpt>
      <trkpt lat="43.26311" lon="-0.69359">
        <ele>178.4</ele>
        <time>2022-09-10T09:09:42Z</time>
      </trkpt>
      <trkpt lat="43.26317" lon="-0.69375">
        <ele>178.6</ele>
        <time>2022-09-10T09:09:45Z</time>
      </trkpt>
      <trkpt lat="43.26321" lon="-0.69404">
        <ele>178.6</ele>
        <time>2022-09-10T09:09:50Z</time>
      </trkpt>
      <trkpt lat="43.26321" lon="-0.6941">
        <ele>178.6</ele>
        <time>2022-09-10T09:09:51Z</time>
      </trkpt>
      <trkpt lat="43.26321" lon="-0.69459">
        <ele>178.6</ele>
        <time>2022-09-10T09:09:59Z</time>
      </trkpt>
      <trkpt lat="43.2632" lon="-0.6951">
        <ele>178.8</ele>
        <time>2022-09-10T09:10:07Z</time>
      </trkpt>
      <trkpt lat="43.26319" lon="-0.6959">
        <ele>179</ele>
        <time>2022-09-10T09:10:18Z</time>
      </trkpt>
      <trkpt lat="43.26318" lon="-0.69597">
        <ele>178.8</ele>
        <time>2022-09-10T09:10:19Z</time>
      </trkpt>
      <trkpt lat="43.26312" lon="-0.69673">
        <ele>178.4</ele>
        <time>2022-09-10T09:10:29Z</time>
      </trkpt>
      <trkpt lat="43.26306" lon="-0.69754">
        <ele>178</ele>
        <time>2022-09-10T09:10:39Z</time>
      </trkpt>
      <trkpt lat="43.26305" lon="-0.69762">
        <ele>178</ele>
        <time>2022-09-10T09:10:40Z</time>
      </trkpt>
      <trkpt lat="43.26295" lon="-0.69833">
        <ele>178</ele>
        <time>2022-09-10T09:10:49Z</time>
      </trkpt>
      <trkpt lat="43.26287" lon="-0.6989">
        <ele>177.4</ele>
        <time>2022-09-10T09:10:56Z</time>
      </trkpt>
      <trkpt lat="43.2628" lon="-0.6993">
        <ele>177.2</ele>
        <time>2022-09-10T09:11:01Z</time>
      </trkpt>
      <trkpt lat="43.2627" lon="-0.69988">
        <ele>177.6</ele>
        <time>2022-09-10T09:11:09Z</time>
      </trkpt>
      <trkpt lat="43.26254" lon="-0.70049">
        <ele>178</ele>
        <time>2022-09-10T09:11:18Z</time>
      </trkpt>
      <trkpt lat="43.26241" lon="-0.70109">
        <ele>178</ele>
        <time>2022-09-10T09:11:27Z</time>
      </trkpt>
      <trkpt lat="43.2624" lon="-0.70163">
        <ele>177.2</ele>
        <time>2022-09-10T09:11:35Z</time>
      </trkpt>
      <trkpt lat="43.26243" lon="-0.70235">
        <ele>177.4</ele>
        <time>2022-09-10T09:11:45Z</time>
      </trkpt>
      <trkpt lat="43.26247" lon="-0.70294">
        <ele>177.8</ele>
        <time>2022-09-10T09:11:53Z</time>
      </trkpt>
      <trkpt lat="43.26259" lon="-0.70352">
        <ele>178.4</ele>
        <time>2022-09-10T09:12:01Z</time>
      </trkpt>
      <trkpt lat="43.26264" lon="-0.70374">
        <ele>178.4</ele>
        <time>2022-09-10T09:12:04Z</time>
      </trkpt>
      <trkpt lat="43.26272" lon="-0.70419">
        <ele>178.2</ele>
        <time>2022-09-10T09:12:10Z</time>
      </trkpt>
      <trkpt lat="43.26273" lon="-0.70481">
        <ele>178</ele>
        <time>2022-09-10T09:12:18Z</time>
      </trkpt>
      <trkpt lat="43.26273" lon="-0.70523">
        <ele>177.4</ele>
        <time>2022-09-10T09:12:24Z</time>
      </trkpt>
      <trkpt lat="43.26273" lon="-0.70538">
        <ele>177.2</ele>
        <time>2022-09-10T09:12:26Z</time>
      </trkpt>
      <trkpt lat="43.26276" lon="-0.70596">
        <ele>177.6</ele>
        <time>2022-09-10T09:12:34Z</time>
      </trkpt>
      <trkpt lat="43.26286" lon="-0.70648">
        <ele>177.2</ele>
        <time>2022-09-10T09:12:41Z</time>
      </trkpt>
      <trkpt lat="43.26302" lon="-0.70703">
        <ele>176.8</ele>
        <time>2022-09-10T09:12:49Z</time>
      </trkpt>
      <trkpt lat="43.26318" lon="-0.70769">
        <ele>176.6</ele>
        <time>2022-09-10T09:12:58Z</time>
      </trkpt>
      <trkpt lat="43.26326" lon="-0.70807">
        <ele>176.4</ele>
        <time>2022-09-10T09:13:03Z</time>
      </trkpt>
      <trkpt lat="43.26335" lon="-0.70844">
        <ele>176</ele>
        <time>2022-09-10T09:13:08Z</time>
      </trkpt>
      <trkpt lat="43.26346" lon="-0.70897">
        <ele>176</ele>
        <time>2022-09-10T09:13:16Z</time>
      </trkpt>
      <trkpt lat="43.26357" lon="-0.70952">
        <ele>175.8</ele>
        <time>2022-09-10T09:13:25Z</time>
      </trkpt>
      <trkpt lat="43.26365" lon="-0.70994">
        <ele>175.4</ele>
        <time>2022-09-10T09:13:32Z</time>
      </trkpt>
      <trkpt lat="43.26366" lon="-0.71">
        <ele>175.2</ele>
        <time>2022-09-10T09:13:33Z</time>
      </trkpt>
      <trkpt lat="43.26371" lon="-0.71022">
        <ele>175</ele>
        <time>2022-09-10T09:13:38Z</time>
      </trkpt>
      <trkpt lat="43.26372" lon="-0.71052">
        <ele>175</ele>
        <time>2022-09-10T09:13:45Z</time>
      </trkpt>
      <trkpt lat="43.26374" lon="-0.71077">
        <ele>174.8</ele>
        <time>2022-09-10T09:13:50Z</time>
      </trkpt>
      <trkpt lat="43.26385" lon="-0.71096">
        <ele>174.8</ele>
        <time>2022-09-10T09:13:55Z</time>
      </trkpt>
      <trkpt lat="43.26405" lon="-0.71109">
        <ele>174.6</ele>
        <time>2022-09-10T09:14:01Z</time>
      </trkpt>
      <trkpt lat="43.26419" lon="-0.71125">
        <ele>174.6</ele>
        <time>2022-09-10T09:14:06Z</time>
      </trkpt>
      <trkpt lat="43.26419" lon="-0.71131">
        <ele>174.4</ele>
        <time>2022-09-10T09:14:07Z</time>
      </trkpt>
      <trkpt lat="43.26418" lon="-0.71142">
        <ele>174.4</ele>
        <time>2022-09-10T09:14:09Z</time>
      </trkpt>
      <trkpt lat="43.26413" lon="-0.71188">
        <ele>174.4</ele>
        <time>2022-09-10T09:14:17Z</time>
      </trkpt>
      <trkpt lat="43.26413" lon="-0.71194">
        <ele>174.4</ele>
        <time>2022-09-10T09:14:18Z</time>
      </trkpt>
      <trkpt lat="43.26414" lon="-0.71201">
        <ele>174.4</ele>
        <time>2022-09-10T09:14:19Z</time>
      </trkpt>
      <trkpt lat="43.26417" lon="-0.71225">
        <ele>174.4</ele>
        <time>2022-09-10T09:14:23Z</time>
      </trkpt>
      <trkpt lat="43.26418" lon="-0.71231">
        <ele>174.4</ele>
        <time>2022-09-10T09:14:24Z</time>
      </trkpt>
      <trkpt lat="43.2642" lon="-0.71236">
        <ele>174.4</ele>
        <time>2022-09-10T09:14:25Z</time>
      </trkpt>
      <trkpt lat="43.26423" lon="-0.71247">
        <ele>174.2</ele>
        <time>2022-09-10T09:14:27Z</time>
      </trkpt>
      <trkpt lat="43.26424" lon="-0.71264">
        <ele>174</ele>
        <time>2022-09-10T09:14:30Z</time>
      </trkpt>
      <trkpt lat="43.26425" lon="-0.71299">
        <ele>173.6</ele>
        <time>2022-09-10T09:14:37Z</time>
      </trkpt>
      <trkpt lat="43.26414" lon="-0.71318">
        <ele>173.6</ele>
        <time>2022-09-10T09:14:42Z</time>
      </trkpt>
      <trkpt lat="43.26403" lon="-0.71334">
        <ele>173.2</ele>
        <time>2022-09-10T09:14:46Z</time>
      </trkpt>
      <trkpt lat="43.26399" lon="-0.71337">
        <ele>173.4</ele>
        <time>2022-09-10T09:14:47Z</time>
      </trkpt>
      <trkpt lat="43.26395" lon="-0.71339">
        <ele>173.4</ele>
        <time>2022-09-10T09:14:48Z</time>
      </trkpt>
      <trkpt lat="43.26359" lon="-0.7136">
        <ele>173.6</ele>
        <time>2022-09-10T09:14:57Z</time>
      </trkpt>
      <trkpt lat="43.26332" lon="-0.71379">
        <ele>173.6</ele>
        <time>2022-09-10T09:15:04Z</time>
      </trkpt>
      <trkpt lat="43.26313" lon="-0.71397">
        <ele>172.8</ele>
        <time>2022-09-10T09:15:09Z</time>
      </trkpt>
      <trkpt lat="43.26308" lon="-0.71404">
        <ele>172.2</ele>
        <time>2022-09-10T09:15:10Z</time>
      </trkpt>
      <trkpt lat="43.26298" lon="-0.7142">
        <ele>170.6</ele>
        <time>2022-09-10T09:15:12Z</time>
      </trkpt>
      <trkpt lat="43.26286" lon="-0.7144">
        <ele>169</ele>
        <time>2022-09-10T09:15:14Z</time>
      </trkpt>
      <trkpt lat="43.26279" lon="-0.71451">
        <ele>167.6</ele>
        <time>2022-09-10T09:15:15Z</time>
      </trkpt>
      <trkpt lat="43.26272" lon="-0.71464">
        <ele>166</ele>
        <time>2022-09-10T09:15:16Z</time>
      </trkpt>
      <trkpt lat="43.26264" lon="-0.71476">
        <ele>165</ele>
        <time>2022-09-10T09:15:17Z</time>
      </trkpt>
      <trkpt lat="43.26256" lon="-0.71487">
        <ele>163.2</ele>
        <time>2022-09-10T09:15:18Z</time>
      </trkpt>
      <trkpt lat="43.26248" lon="-0.71497">
        <ele>162.2</ele>
        <time>2022-09-10T09:15:19Z</time>
      </trkpt>
      <trkpt lat="43.26239" lon="-0.71505">
        <ele>161.2</ele>
        <time>2022-09-10T09:15:20Z</time>
      </trkpt>
      <trkpt lat="43.26224" lon="-0.71517">
        <ele>160.2</ele>
        <time>2022-09-10T09:15:22Z</time>
      </trkpt>
      <trkpt lat="43.26218" lon="-0.71521">
        <ele>160.2</ele>
        <time>2022-09-10T09:15:23Z</time>
      </trkpt>
      <trkpt lat="43.26209" lon="-0.71531">
        <ele>159.8</ele>
        <time>2022-09-10T09:15:25Z</time>
      </trkpt>
      <trkpt lat="43.26207" lon="-0.71552">
        <ele>159</ele>
        <time>2022-09-10T09:15:27Z</time>
      </trkpt>
      <trkpt lat="43.26208" lon="-0.71569">
        <ele>159</ele>
        <time>2022-09-10T09:15:29Z</time>
      </trkpt>
      <trkpt lat="43.26207" lon="-0.71578">
        <ele>159.4</ele>
        <time>2022-09-10T09:15:30Z</time>
      </trkpt>
      <trkpt lat="43.26194" lon="-0.71588">
        <ele>160.2</ele>
        <time>2022-09-10T09:15:33Z</time>
      </trkpt>
      <trkpt lat="43.2619" lon="-0.7159">
        <ele>160.4</ele>
        <time>2022-09-10T09:15:34Z</time>
      </trkpt>
      <trkpt lat="43.2618" lon="-0.71593">
        <ele>161.4</ele>
        <time>2022-09-10T09:15:37Z</time>
      </trkpt>
      <trkpt lat="43.26178" lon="-0.71594">
        <ele>161.8</ele>
        <time>2022-09-10T09:15:38Z</time>
      </trkpt>
      <trkpt lat="43.26174" lon="-0.71596">
        <ele>162.4</ele>
        <time>2022-09-10T09:15:40Z</time>
      </trkpt>
      <trkpt lat="43.26167" lon="-0.71598">
        <ele>163.4</ele>
        <time>2022-09-10T09:15:44Z</time>
      </trkpt>
      <trkpt lat="43.26166" lon="-0.71599">
        <ele>163.6</ele>
        <time>2022-09-10T09:15:45Z</time>
      </trkpt>
      <trkpt lat="43.2616" lon="-0.71601">
        <ele>165</ele>
        <time>2022-09-10T09:15:49Z</time>
      </trkpt>
      <trkpt lat="43.26156" lon="-0.71602">
        <ele>165.6</ele>
        <time>2022-09-10T09:15:52Z</time>
      </trkpt>
      <trkpt lat="43.26153" lon="-0.71603">
        <ele>166</ele>
        <time>2022-09-10T09:15:54Z</time>
      </trkpt>
      <trkpt lat="43.26147" lon="-0.71606">
        <ele>167</ele>
        <time>2022-09-10T09:15:59Z</time>
      </trkpt>
      <trkpt lat="43.26146" lon="-0.71606">
        <ele>167.2</ele>
        <time>2022-09-10T09:16:00Z</time>
      </trkpt>
      <trkpt lat="43.26138" lon="-0.7161">
        <ele>168.2</ele>
        <time>2022-09-10T09:16:06Z</time>
      </trkpt>
      <trkpt lat="43.26135" lon="-0.7161">
        <ele>168.6</ele>
        <time>2022-09-10T09:16:08Z</time>
      </trkpt>
      <trkpt lat="43.26132" lon="-0.7161">
        <ele>168.8</ele>
        <time>2022-09-10T09:16:10Z</time>
      </trkpt>
      <trkpt lat="43.26129" lon="-0.71612">
        <ele>169.4</ele>
        <time>2022-09-10T09:16:12Z</time>
      </trkpt>
      <trkpt lat="43.26127" lon="-0.71613">
        <ele>169.8</ele>
        <time>2022-09-10T09:16:13Z</time>
      </trkpt>
      <trkpt lat="43.26126" lon="-0.71614">
        <ele>170</ele>
        <time>2022-09-10T09:16:14Z</time>
      </trkpt>
      <trkpt lat="43.26121" lon="-0.71617">
        <ele>170.6</ele>
        <time>2022-09-10T09:16:17Z</time>
      </trkpt>
      <trkpt lat="43.26114" lon="-0.7162">
        <ele>171.2</ele>
        <time>2022-09-10T09:16:22Z</time>
      </trkpt>
      <trkpt lat="43.26111" lon="-0.71623">
        <ele>171.6</ele>
        <time>2022-09-10T09:16:24Z</time>
      </trkpt>
      <trkpt lat="43.26102" lon="-0.71628">
        <ele>172.2</ele>
        <time>2022-09-10T09:16:29Z</time>
      </trkpt>
      <trkpt lat="43.26095" lon="-0.71633">
        <ele>172.6</ele>
        <time>2022-09-10T09:16:33Z</time>
      </trkpt>
      <trkpt lat="43.26086" lon="-0.71638">
        <ele>173</ele>
        <time>2022-09-10T09:16:37Z</time>
      </trkpt>
      <trkpt lat="43.26072" lon="-0.71644">
        <ele>173.6</ele>
        <time>2022-09-10T09:16:43Z</time>
      </trkpt>
      <trkpt lat="43.26069" lon="-0.71645">
        <ele>173.6</ele>
        <time>2022-09-10T09:16:44Z</time>
      </trkpt>
      <trkpt lat="43.2605" lon="-0.71651">
        <ele>174</ele>
        <time>2022-09-10T09:16:51Z</time>
      </trkpt>
      <trkpt lat="43.26023" lon="-0.71668">
        <ele>174.2</ele>
        <time>2022-09-10T09:17:00Z</time>
      </trkpt>
      <trkpt lat="43.2602" lon="-0.71668">
        <ele>174.2</ele>
        <time>2022-09-10T09:17:01Z</time>
      </trkpt>
      <trkpt lat="43.26012" lon="-0.71673">
        <ele>174.2</ele>
        <time>2022-09-10T09:17:04Z</time>
      </trkpt>
      <trkpt lat="43.26002" lon="-0.7168">
        <ele>174.4</ele>
        <time>2022-09-10T09:17:07Z</time>
      </trkpt>
      <trkpt lat="43.25989" lon="-0.71687">
        <ele>174.2</ele>
        <time>2022-09-10T09:17:11Z</time>
      </trkpt>
      <trkpt lat="43.25964" lon="-0.71702">
        <ele>174.4</ele>
        <time>2022-09-10T09:17:19Z</time>
      </trkpt>
      <trkpt lat="43.25931" lon="-0.71719">
        <ele>173.6</ele>
        <time>2022-09-10T09:17:28Z</time>
      </trkpt>
      <trkpt lat="43.25893" lon="-0.71746">
        <ele>172.8</ele>
        <time>2022-09-10T09:17:37Z</time>
      </trkpt>
      <trkpt lat="43.25882" lon="-0.71759">
        <ele>172.8</ele>
        <time>2022-09-10T09:17:40Z</time>
      </trkpt>
      <trkpt lat="43.25877" lon="-0.71768">
        <ele>172.8</ele>
        <time>2022-09-10T09:17:42Z</time>
      </trkpt>
      <trkpt lat="43.25867" lon="-0.71789">
        <ele>174.2</ele>
        <time>2022-09-10T09:17:48Z</time>
      </trkpt>
      <trkpt lat="43.25865" lon="-0.71796">
        <ele>174.8</ele>
        <time>2022-09-10T09:17:50Z</time>
      </trkpt>
      <trkpt lat="43.25862" lon="-0.71817">
        <ele>175.6</ele>
        <time>2022-09-10T09:17:56Z</time>
      </trkpt>
      <trkpt lat="43.25862" lon="-0.7182">
        <ele>175.8</ele>
        <time>2022-09-10T09:17:57Z</time>
      </trkpt>
      <trkpt lat="43.25866" lon="-0.71837">
        <ele>176</ele>
        <time>2022-09-10T09:18:03Z</time>
      </trkpt>
      <trkpt lat="43.25861" lon="-0.7185">
        <ele>176.2</ele>
        <time>2022-09-10T09:18:07Z</time>
      </trkpt>
      <trkpt lat="43.25857" lon="-0.71854">
        <ele>176</ele>
        <time>2022-09-10T09:18:08Z</time>
      </trkpt>
      <trkpt lat="43.25854" lon="-0.71858">
        <ele>175.6</ele>
        <time>2022-09-10T09:18:10Z</time>
      </trkpt>
      <trkpt lat="43.25849" lon="-0.71861">
        <ele>175.2</ele>
        <time>2022-09-10T09:18:11Z</time>
      </trkpt>
      <trkpt lat="43.25846" lon="-0.7187">
        <ele>175</ele>
        <time>2022-09-10T09:18:13Z</time>
      </trkpt>
      <trkpt lat="43.2585" lon="-0.71882">
        <ele>176</ele>
        <time>2022-09-10T09:18:17Z</time>
      </trkpt>
      <trkpt lat="43.25854" lon="-0.71896">
        <ele>176.8</ele>
        <time>2022-09-10T09:18:23Z</time>
      </trkpt>
      <trkpt lat="43.25855" lon="-0.71898">
        <ele>177</ele>
        <time>2022-09-10T09:18:24Z</time>
      </trkpt>
      <trkpt lat="43.25857" lon="-0.71907">
        <ele>178</ele>
        <time>2022-09-10T09:18:28Z</time>
      </trkpt>
      <trkpt lat="43.25861" lon="-0.71915">
        <ele>178.6</ele>
        <time>2022-09-10T09:18:32Z</time>
      </trkpt>
      <trkpt lat="43.25862" lon="-0.71919">
        <ele>179</ele>
        <time>2022-09-10T09:18:34Z</time>
      </trkpt>
      <trkpt lat="43.25865" lon="-0.71927">
        <ele>180.2</ele>
        <time>2022-09-10T09:18:39Z</time>
      </trkpt>
      <trkpt lat="43.2587" lon="-0.7194">
        <ele>181.4</ele>
        <time>2022-09-10T09:18:46Z</time>
      </trkpt>
      <trkpt lat="43.25871" lon="-0.71944">
        <ele>181.8</ele>
        <time>2022-09-10T09:18:48Z</time>
      </trkpt>
      <trkpt lat="43.25874" lon="-0.71951">
        <ele>182.4</ele>
        <time>2022-09-10T09:18:52Z</time>
      </trkpt>
      <trkpt lat="43.25876" lon="-0.71959">
        <ele>183</ele>
        <time>2022-09-10T09:18:56Z</time>
      </trkpt>
      <trkpt lat="43.25878" lon="-0.71965">
        <ele>183.6</ele>
        <time>2022-09-10T09:18:59Z</time>
      </trkpt>
      <trkpt lat="43.25879" lon="-0.71975">
        <ele>184.6</ele>
        <time>2022-09-10T09:19:04Z</time>
      </trkpt>
      <trkpt lat="43.25879" lon="-0.71977">
        <ele>184.8</ele>
        <time>2022-09-10T09:19:05Z</time>
      </trkpt>
      <trkpt lat="43.25878" lon="-0.71989">
        <ele>185.8</ele>
        <time>2022-09-10T09:19:11Z</time>
      </trkpt>
      <trkpt lat="43.25877" lon="-0.71995">
        <ele>186.4</ele>
        <time>2022-09-10T09:19:14Z</time>
      </trkpt>
      <trkpt lat="43.25875" lon="-0.72001">
        <ele>187</ele>
        <time>2022-09-10T09:19:17Z</time>
      </trkpt>
      <trkpt lat="43.25873" lon="-0.72003">
        <ele>187.2</ele>
        <time>2022-09-10T09:19:19Z</time>
      </trkpt>
      <trkpt lat="43.25871" lon="-0.72006">
        <ele>187.6</ele>
        <time>2022-09-10T09:19:21Z</time>
      </trkpt>
      <trkpt lat="43.25868" lon="-0.7201">
        <ele>188</ele>
        <time>2022-09-10T09:19:24Z</time>
      </trkpt>
      <trkpt lat="43.25862" lon="-0.72016">
        <ele>189.2</ele>
        <time>2022-09-10T09:19:30Z</time>
      </trkpt>
      <trkpt lat="43.25858" lon="-0.7202">
        <ele>190.2</ele>
        <time>2022-09-10T09:19:36Z</time>
      </trkpt>
      <trkpt lat="43.25855" lon="-0.72022">
        <ele>190.8</ele>
        <time>2022-09-10T09:19:39Z</time>
      </trkpt>
      <trkpt lat="43.25851" lon="-0.72024">
        <ele>191.4</ele>
        <time>2022-09-10T09:19:42Z</time>
      </trkpt>
      <trkpt lat="43.2585" lon="-0.72025">
        <ele>191.6</ele>
        <time>2022-09-10T09:19:43Z</time>
      </trkpt>
      <trkpt lat="43.25844" lon="-0.72029">
        <ele>192.6</ele>
        <time>2022-09-10T09:19:48Z</time>
      </trkpt>
      <trkpt lat="43.2584" lon="-0.72032">
        <ele>193.6</ele>
        <time>2022-09-10T09:19:51Z</time>
      </trkpt>
      <trkpt lat="43.25839" lon="-0.72033">
        <ele>193.6</ele>
        <time>2022-09-10T09:19:52Z</time>
      </trkpt>
      <trkpt lat="43.25835" lon="-0.7204">
        <ele>194.6</ele>
        <time>2022-09-10T09:19:57Z</time>
      </trkpt>
      <trkpt lat="43.25834" lon="-0.72041">
        <ele>194.8</ele>
        <time>2022-09-10T09:19:58Z</time>
      </trkpt>
      <trkpt lat="43.25833" lon="-0.72042">
        <ele>195</ele>
        <time>2022-09-10T09:19:59Z</time>
      </trkpt>
      <trkpt lat="43.25829" lon="-0.72051">
        <ele>195.8</ele>
        <time>2022-09-10T09:20:04Z</time>
      </trkpt>
      <trkpt lat="43.25827" lon="-0.72052">
        <ele>196</ele>
        <time>2022-09-10T09:20:05Z</time>
      </trkpt>
      <trkpt lat="43.25821" lon="-0.72066">
        <ele>196.8</ele>
        <time>2022-09-10T09:20:12Z</time>
      </trkpt>
      <trkpt lat="43.25815" lon="-0.72086">
        <ele>197.6</ele>
        <time>2022-09-10T09:20:20Z</time>
      </trkpt>
      <trkpt lat="43.25811" lon="-0.72097">
        <ele>197.8</ele>
        <time>2022-09-10T09:20:24Z</time>
      </trkpt>
      <trkpt lat="43.25807" lon="-0.72112">
        <ele>198.4</ele>
        <time>2022-09-10T09:20:29Z</time>
      </trkpt>
      <trkpt lat="43.25798" lon="-0.72141">
        <ele>198.8</ele>
        <time>2022-09-10T09:20:38Z</time>
      </trkpt>
      <trkpt lat="43.25797" lon="-0.72144">
        <ele>199</ele>
        <time>2022-09-10T09:20:39Z</time>
      </trkpt>
      <trkpt lat="43.25789" lon="-0.72168">
        <ele>199.2</ele>
        <time>2022-09-10T09:20:46Z</time>
      </trkpt>
      <trkpt lat="43.25783" lon="-0.72186">
        <ele>199</ele>
        <time>2022-09-10T09:20:51Z</time>
      </trkpt>
      <trkpt lat="43.25778" lon="-0.72206">
        <ele>198.6</ele>
        <time>2022-09-10T09:20:55Z</time>
      </trkpt>
      <trkpt lat="43.25777" lon="-0.72211">
        <ele>198.4</ele>
        <time>2022-09-10T09:20:56Z</time>
      </trkpt>
      <trkpt lat="43.25769" lon="-0.72233">
        <ele>197.6</ele>
        <time>2022-09-10T09:21:01Z</time>
      </trkpt>
      <trkpt lat="43.25766" lon="-0.72242">
        <ele>197</ele>
        <time>2022-09-10T09:21:03Z</time>
      </trkpt>
      <trkpt lat="43.25761" lon="-0.72253">
        <ele>196.6</ele>
        <time>2022-09-10T09:21:05Z</time>
      </trkpt>
      <trkpt lat="43.25758" lon="-0.72259">
        <ele>196.2</ele>
        <time>2022-09-10T09:21:06Z</time>
      </trkpt>
      <trkpt lat="43.25751" lon="-0.72271">
        <ele>195.4</ele>
        <time>2022-09-10T09:21:08Z</time>
      </trkpt>
      <trkpt lat="43.25748" lon="-0.72277">
        <ele>195.2</ele>
        <time>2022-09-10T09:21:09Z</time>
      </trkpt>
      <trkpt lat="43.25743" lon="-0.72292">
        <ele>194.6</ele>
        <time>2022-09-10T09:21:11Z</time>
      </trkpt>
      <trkpt lat="43.25739" lon="-0.72317">
        <ele>194.4</ele>
        <time>2022-09-10T09:21:14Z</time>
      </trkpt>
      <trkpt lat="43.25738" lon="-0.72334">
        <ele>194</ele>
        <time>2022-09-10T09:21:16Z</time>
      </trkpt>
      <trkpt lat="43.25738" lon="-0.72342">
        <ele>193.8</ele>
        <time>2022-09-10T09:21:17Z</time>
      </trkpt>
      <trkpt lat="43.25738" lon="-0.72358">
        <ele>193.6</ele>
        <time>2022-09-10T09:21:19Z</time>
      </trkpt>
      <trkpt lat="43.2573" lon="-0.72391">
        <ele>193.6</ele>
        <time>2022-09-10T09:21:24Z</time>
      </trkpt>
      <trkpt lat="43.25713" lon="-0.72428">
        <ele>193.6</ele>
        <time>2022-09-10T09:21:31Z</time>
      </trkpt>
      <trkpt lat="43.25694" lon="-0.72467">
        <ele>194.4</ele>
        <time>2022-09-10T09:21:40Z</time>
      </trkpt>
      <trkpt lat="43.25684" lon="-0.72489">
        <ele>195.2</ele>
        <time>2022-09-10T09:21:46Z</time>
      </trkpt>
      <trkpt lat="43.25682" lon="-0.72493">
        <ele>195.2</ele>
        <time>2022-09-10T09:21:47Z</time>
      </trkpt>
      <trkpt lat="43.25671" lon="-0.72513">
        <ele>196.2</ele>
        <time>2022-09-10T09:21:53Z</time>
      </trkpt>
      <trkpt lat="43.25669" lon="-0.72517">
        <ele>196.4</ele>
        <time>2022-09-10T09:21:54Z</time>
      </trkpt>
      <trkpt lat="43.25659" lon="-0.7254">
        <ele>197.2</ele>
        <time>2022-09-10T09:22:00Z</time>
      </trkpt>
      <trkpt lat="43.25657" lon="-0.72545">
        <ele>197.4</ele>
        <time>2022-09-10T09:22:01Z</time>
      </trkpt>
      <trkpt lat="43.2565" lon="-0.72569">
        <ele>198.2</ele>
        <time>2022-09-10T09:22:07Z</time>
      </trkpt>
      <trkpt lat="43.25648" lon="-0.72573">
        <ele>198.4</ele>
        <time>2022-09-10T09:22:08Z</time>
      </trkpt>
      <trkpt lat="43.25636" lon="-0.72609">
        <ele>199.2</ele>
        <time>2022-09-10T09:22:17Z</time>
      </trkpt>
      <trkpt lat="43.25635" lon="-0.72613">
        <ele>199.4</ele>
        <time>2022-09-10T09:22:18Z</time>
      </trkpt>
      <trkpt lat="43.25621" lon="-0.72648">
        <ele>200.2</ele>
        <time>2022-09-10T09:22:27Z</time>
      </trkpt>
      <trkpt lat="43.25614" lon="-0.72662">
        <ele>200.6</ele>
        <time>2022-09-10T09:22:31Z</time>
      </trkpt>
      <trkpt lat="43.25611" lon="-0.72671">
        <ele>200.8</ele>
        <time>2022-09-10T09:22:34Z</time>
      </trkpt>
      <trkpt lat="43.25602" lon="-0.7269">
        <ele>201.2</ele>
        <time>2022-09-10T09:22:40Z</time>
      </trkpt>
      <trkpt lat="43.25597" lon="-0.72704">
        <ele>201.6</ele>
        <time>2022-09-10T09:22:44Z</time>
      </trkpt>
      <trkpt lat="43.25587" lon="-0.72725">
        <ele>202.2</ele>
        <time>2022-09-10T09:22:50Z</time>
      </trkpt>
      <trkpt lat="43.25579" lon="-0.72745">
        <ele>202.8</ele>
        <time>2022-09-10T09:22:56Z</time>
      </trkpt>
      <trkpt lat="43.25574" lon="-0.72756">
        <ele>203</ele>
        <time>2022-09-10T09:22:59Z</time>
      </trkpt>
      <trkpt lat="43.25566" lon="-0.72785">
        <ele>203.8</ele>
        <time>2022-09-10T09:23:07Z</time>
      </trkpt>
      <trkpt lat="43.25567" lon="-0.72792">
        <ele>203.8</ele>
        <time>2022-09-10T09:23:09Z</time>
      </trkpt>
      <trkpt lat="43.25572" lon="-0.72802">
        <ele>204.2</ele>
        <time>2022-09-10T09:23:12Z</time>
      </trkpt>
      <trkpt lat="43.25583" lon="-0.72818">
        <ele>204.4</ele>
        <time>2022-09-10T09:23:18Z</time>
      </trkpt>
      <trkpt lat="43.25584" lon="-0.72825">
        <ele>204.4</ele>
        <time>2022-09-10T09:23:21Z</time>
      </trkpt>
      <trkpt lat="43.25583" lon="-0.72828">
        <ele>204.4</ele>
        <time>2022-09-10T09:23:23Z</time>
      </trkpt>
      <trkpt lat="43.25581" lon="-0.7283">
        <ele>204.8</ele>
        <time>2022-09-10T09:24:40Z</time>
      </trkpt>
      <trkpt lat="43.25577" lon="-0.72833">
        <ele>204.8</ele>
        <time>2022-09-10T09:24:42Z</time>
      </trkpt>
      <trkpt lat="43.25576" lon="-0.72835">
        <ele>205</ele>
        <time>2022-09-10T09:24:43Z</time>
      </trkpt>
      <trkpt lat="43.25564" lon="-0.72849">
        <ele>205.6</ele>
        <time>2022-09-10T09:24:50Z</time>
      </trkpt>
      <trkpt lat="43.2556" lon="-0.72853">
        <ele>206.2</ele>
        <time>2022-09-10T09:24:52Z</time>
      </trkpt>
      <trkpt lat="43.2555" lon="-0.72865">
        <ele>206.8</ele>
        <time>2022-09-10T09:24:58Z</time>
      </trkpt>
      <trkpt lat="43.25545" lon="-0.72871">
        <ele>207.2</ele>
        <time>2022-09-10T09:25:01Z</time>
      </trkpt>
      <trkpt lat="43.25537" lon="-0.72881">
        <ele>207.6</ele>
        <time>2022-09-10T09:25:06Z</time>
      </trkpt>
      <trkpt lat="43.25529" lon="-0.72891">
        <ele>207.8</ele>
        <time>2022-09-10T09:25:12Z</time>
      </trkpt>
      <trkpt lat="43.25517" lon="-0.729">
        <ele>207</ele>
        <time>2022-09-10T09:25:17Z</time>
      </trkpt>
      <trkpt lat="43.25506" lon="-0.72903">
        <ele>206</ele>
        <time>2022-09-10T09:25:20Z</time>
      </trkpt>
      <trkpt lat="43.25499" lon="-0.72904">
        <ele>205.2</ele>
        <time>2022-09-10T09:25:22Z</time>
      </trkpt>
      <trkpt lat="43.25495" lon="-0.72904">
        <ele>204.8</ele>
        <time>2022-09-10T09:25:23Z</time>
      </trkpt>
      <trkpt lat="43.25489" lon="-0.72903">
        <ele>203.6</ele>
        <time>2022-09-10T09:25:25Z</time>
      </trkpt>
      <trkpt lat="43.25486" lon="-0.72903">
        <ele>202.6</ele>
        <time>2022-09-10T09:25:26Z</time>
      </trkpt>
      <trkpt lat="43.25483" lon="-0.72903">
        <ele>202.2</ele>
        <time>2022-09-10T09:25:27Z</time>
      </trkpt>
      <trkpt lat="43.25475" lon="-0.72905">
        <ele>201.2</ele>
        <time>2022-09-10T09:25:30Z</time>
      </trkpt>
      <trkpt lat="43.25469" lon="-0.72905">
        <ele>200.8</ele>
        <time>2022-09-10T09:25:32Z</time>
      </trkpt>
      <trkpt lat="43.25461" lon="-0.72917">
        <ele>200.4</ele>
        <time>2022-09-10T09:25:41Z</time>
      </trkpt>
      <trkpt lat="43.25459" lon="-0.72919">
        <ele>200.2</ele>
        <time>2022-09-10T09:25:42Z</time>
      </trkpt>
      <trkpt lat="43.25452" lon="-0.7293">
        <ele>198.8</ele>
        <time>2022-09-10T09:25:46Z</time>
      </trkpt>
      <trkpt lat="43.25446" lon="-0.72937">
        <ele>197.8</ele>
        <time>2022-09-10T09:25:50Z</time>
      </trkpt>
      <trkpt lat="43.25405" lon="-0.73013">
        <ele>186.4</ele>
        <time>2022-09-10T09:26:26Z</time>
      </trkpt>
      <trkpt lat="43.25403" lon="-0.73019">
        <ele>185.6</ele>
        <time>2022-09-10T09:26:28Z</time>
      </trkpt>
      <trkpt lat="43.25402" lon="-0.73026">
        <ele>185</ele>
        <time>2022-09-10T09:26:30Z</time>
      </trkpt>
      <trkpt lat="43.254" lon="-0.73038">
        <ele>184</ele>
        <time>2022-09-10T09:26:33Z</time>
      </trkpt>
      <trkpt lat="43.25402" lon="-0.73051">
        <ele>182.8</ele>
        <time>2022-09-10T09:26:37Z</time>
      </trkpt>
      <trkpt lat="43.25403" lon="-0.73055">
        <ele>182.2</ele>
        <time>2022-09-10T09:26:38Z</time>
      </trkpt>
      <trkpt lat="43.25403" lon="-0.73059">
        <ele>181.8</ele>
        <time>2022-09-10T09:26:39Z</time>
      </trkpt>
      <trkpt lat="43.25405" lon="-0.73073">
        <ele>180.8</ele>
        <time>2022-09-10T09:26:43Z</time>
      </trkpt>
      <trkpt lat="43.25405" lon="-0.73076">
        <ele>180.4</ele>
        <time>2022-09-10T09:26:44Z</time>
      </trkpt>
      <trkpt lat="43.25406" lon="-0.73078">
        <ele>180.2</ele>
        <time>2022-09-10T09:26:45Z</time>
      </trkpt>
      <trkpt lat="43.25407" lon="-0.73084">
        <ele>179.6</ele>
        <time>2022-09-10T09:26:47Z</time>
      </trkpt>
      <trkpt lat="43.25408" lon="-0.73093">
        <ele>179</ele>
        <time>2022-09-10T09:26:51Z</time>
      </trkpt>
      <trkpt lat="43.25408" lon="-0.73096">
        <ele>178.6</ele>
        <time>2022-09-10T09:26:52Z</time>
      </trkpt>
      <trkpt lat="43.25409" lon="-0.73098">
        <ele>178.4</ele>
        <time>2022-09-10T09:26:53Z</time>
      </trkpt>
      <trkpt lat="43.25411" lon="-0.73105">
        <ele>177.4</ele>
        <time>2022-09-10T09:26:56Z</time>
      </trkpt>
      <trkpt lat="43.25411" lon="-0.73107">
        <ele>177.2</ele>
        <time>2022-09-10T09:26:57Z</time>
      </trkpt>
      <trkpt lat="43.25413" lon="-0.73114">
        <ele>176.2</ele>
        <time>2022-09-10T09:27:00Z</time>
      </trkpt>
      <trkpt lat="43.25415" lon="-0.73122">
        <ele>175</ele>
        <time>2022-09-10T09:27:03Z</time>
      </trkpt>
      <trkpt lat="43.25418" lon="-0.73133">
        <ele>173.8</ele>
        <time>2022-09-10T09:27:08Z</time>
      </trkpt>
      <trkpt lat="43.2542" lon="-0.73139">
        <ele>173.2</ele>
        <time>2022-09-10T09:27:10Z</time>
      </trkpt>
      <trkpt lat="43.2542" lon="-0.73141">
        <ele>172.8</ele>
        <time>2022-09-10T09:27:12Z</time>
      </trkpt>
      <trkpt lat="43.2542" lon="-0.73151">
        <ele>172</ele>
        <time>2022-09-10T09:27:15Z</time>
      </trkpt>
      <trkpt lat="43.25414" lon="-0.7316">
        <ele>167.8</ele>
        <time>2022-09-10T09:28:17Z</time>
      </trkpt>
      <trkpt lat="43.254" lon="-0.73175">
        <ele>167.2</ele>
        <time>2022-09-10T09:28:22Z</time>
      </trkpt>
      <trkpt lat="43.25388" lon="-0.73184">
        <ele>167.4</ele>
        <time>2022-09-10T09:28:27Z</time>
      </trkpt>
      <trkpt lat="43.25386" lon="-0.73187">
        <ele>167.6</ele>
        <time>2022-09-10T09:28:28Z</time>
      </trkpt>
      <trkpt lat="43.25374" lon="-0.73202">
        <ele>168.4</ele>
        <time>2022-09-10T09:28:35Z</time>
      </trkpt>
      <trkpt lat="43.25374" lon="-0.73204">
        <ele>168.6</ele>
        <time>2022-09-10T09:28:36Z</time>
      </trkpt>
      <trkpt lat="43.25373" lon="-0.73205">
        <ele>169</ele>
        <time>2022-09-10T09:28:38Z</time>
      </trkpt>
      <trkpt lat="43.25342" lon="-0.73352">
        <ele>187</ele>
        <time>2022-09-10T09:32:41Z</time>
      </trkpt>
      <trkpt lat="43.25332" lon="-0.7336">
        <ele>188.2</ele>
        <time>2022-09-10T09:32:48Z</time>
      </trkpt>
      <trkpt lat="43.25331" lon="-0.73361">
        <ele>188.4</ele>
        <time>2022-09-10T09:32:49Z</time>
      </trkpt>
      <trkpt lat="43.25326" lon="-0.73364">
        <ele>189.2</ele>
        <time>2022-09-10T09:32:53Z</time>
      </trkpt>
      <trkpt lat="43.25324" lon="-0.73367">
        <ele>189.6</ele>
        <time>2022-09-10T09:32:55Z</time>
      </trkpt>
      <trkpt lat="43.25318" lon="-0.73373">
        <ele>190.2</ele>
        <time>2022-09-10T09:32:59Z</time>
      </trkpt>
      <trkpt lat="43.25312" lon="-0.7338">
        <ele>190.8</ele>
        <time>2022-09-10T09:33:03Z</time>
      </trkpt>
      <trkpt lat="43.25303" lon="-0.73391">
        <ele>191.4</ele>
        <time>2022-09-10T09:33:09Z</time>
      </trkpt>
      <trkpt lat="43.25294" lon="-0.73406">
        <ele>192.2</ele>
        <time>2022-09-10T09:33:16Z</time>
      </trkpt>
      <trkpt lat="43.25293" lon="-0.73408">
        <ele>192.4</ele>
        <time>2022-09-10T09:33:17Z</time>
      </trkpt>
      <trkpt lat="43.25285" lon="-0.7342">
        <ele>193.4</ele>
        <time>2022-09-10T09:33:23Z</time>
      </trkpt>
      <trkpt lat="43.25284" lon="-0.73422">
        <ele>193.6</ele>
        <time>2022-09-10T09:33:24Z</time>
      </trkpt>
      <trkpt lat="43.25277" lon="-0.73434">
        <ele>194.6</ele>
        <time>2022-09-10T09:33:30Z</time>
      </trkpt>
      <trkpt lat="43.25276" lon="-0.73436">
        <ele>194.8</ele>
        <time>2022-09-10T09:33:31Z</time>
      </trkpt>
      <trkpt lat="43.25272" lon="-0.73442">
        <ele>195</ele>
        <time>2022-09-10T09:33:34Z</time>
      </trkpt>
      <trkpt lat="43.25269" lon="-0.73449">
        <ele>195.4</ele>
        <time>2022-09-10T09:33:37Z</time>
      </trkpt>
      <trkpt lat="43.25267" lon="-0.73453">
        <ele>195.4</ele>
        <time>2022-09-10T09:33:39Z</time>
      </trkpt>
      <trkpt lat="43.25265" lon="-0.73458">
        <ele>195.6</ele>
        <time>2022-09-10T09:33:41Z</time>
      </trkpt>
      <trkpt lat="43.25262" lon="-0.73464">
        <ele>195.8</ele>
        <time>2022-09-10T09:33:43Z</time>
      </trkpt>
      <trkpt lat="43.25252" lon="-0.73478">
        <ele>196.8</ele>
        <time>2022-09-10T09:33:49Z</time>
      </trkpt>
      <trkpt lat="43.25249" lon="-0.73482">
        <ele>197</ele>
        <time>2022-09-10T09:33:51Z</time>
      </trkpt>
      <trkpt lat="43.25237" lon="-0.73502">
        <ele>197.2</ele>
        <time>2022-09-10T09:33:59Z</time>
      </trkpt>
      <trkpt lat="43.25222" lon="-0.73528">
        <ele>197.4</ele>
        <time>2022-09-10T09:34:08Z</time>
      </trkpt>
      <trkpt lat="43.25217" lon="-0.73536">
        <ele>197.8</ele>
        <time>2022-09-10T09:34:11Z</time>
      </trkpt>
      <trkpt lat="43.25213" lon="-0.73545">
        <ele>198.2</ele>
        <time>2022-09-10T09:34:14Z</time>
      </trkpt>
      <trkpt lat="43.252" lon="-0.73568">
        <ele>199</ele>
        <time>2022-09-10T09:34:22Z</time>
      </trkpt>
      <trkpt lat="43.25188" lon="-0.7359">
        <ele>199.6</ele>
        <time>2022-09-10T09:34:29Z</time>
      </trkpt>
      <trkpt lat="43.25173" lon="-0.73617">
        <ele>199.8</ele>
        <time>2022-09-10T09:34:37Z</time>
      </trkpt>
      <trkpt lat="43.25168" lon="-0.73627">
        <ele>200</ele>
        <time>2022-09-10T09:34:40Z</time>
      </trkpt>
      <trkpt lat="43.25164" lon="-0.73635">
        <ele>200.4</ele>
        <time>2022-09-10T09:34:43Z</time>
      </trkpt>
      <trkpt lat="43.2515" lon="-0.73657">
        <ele>201</ele>
        <time>2022-09-10T09:34:51Z</time>
      </trkpt>
      <trkpt lat="43.25133" lon="-0.73684">
        <ele>202</ele>
        <time>2022-09-10T09:35:00Z</time>
      </trkpt>
      <trkpt lat="43.2512" lon="-0.73704">
        <ele>202.6</ele>
        <time>2022-09-10T09:35:08Z</time>
      </trkpt>
      <trkpt lat="43.25107" lon="-0.73727">
        <ele>203</ele>
        <time>2022-09-10T09:35:15Z</time>
      </trkpt>
      <trkpt lat="43.25105" lon="-0.7373">
        <ele>203</ele>
        <time>2022-09-10T09:35:16Z</time>
      </trkpt>
      <trkpt lat="43.25097" lon="-0.73752">
        <ele>203.4</ele>
        <time>2022-09-10T09:35:22Z</time>
      </trkpt>
      <trkpt lat="43.25087" lon="-0.73775">
        <ele>204</ele>
        <time>2022-09-10T09:35:28Z</time>
      </trkpt>
      <trkpt lat="43.25084" lon="-0.73782">
        <ele>204.2</ele>
        <time>2022-09-10T09:35:30Z</time>
      </trkpt>
      <trkpt lat="43.25078" lon="-0.73796">
        <ele>204.6</ele>
        <time>2022-09-10T09:35:34Z</time>
      </trkpt>
      <trkpt lat="43.25071" lon="-0.73811">
        <ele>205.2</ele>
        <time>2022-09-10T09:35:38Z</time>
      </trkpt>
      <trkpt lat="43.25064" lon="-0.73833">
        <ele>206</ele>
        <time>2022-09-10T09:35:44Z</time>
      </trkpt>
      <trkpt lat="43.25061" lon="-0.73843">
        <ele>206.4</ele>
        <time>2022-09-10T09:35:47Z</time>
      </trkpt>
      <trkpt lat="43.25058" lon="-0.73854">
        <ele>206.2</ele>
        <time>2022-09-10T09:35:51Z</time>
      </trkpt>
      <trkpt lat="43.25052" lon="-0.73871">
        <ele>206</ele>
        <time>2022-09-10T09:35:57Z</time>
      </trkpt>
      <trkpt lat="43.2505" lon="-0.73877">
        <ele>206.2</ele>
        <time>2022-09-10T09:35:59Z</time>
      </trkpt>
      <trkpt lat="43.25045" lon="-0.73894">
        <ele>205.8</ele>
        <time>2022-09-10T09:36:04Z</time>
      </trkpt>
      <trkpt lat="43.25041" lon="-0.73903">
        <ele>206.4</ele>
        <time>2022-09-10T09:42:44Z</time>
      </trkpt>
      <trkpt lat="43.25038" lon="-0.73916">
        <ele>206.6</ele>
        <time>2022-09-10T09:42:49Z</time>
      </trkpt>
      <trkpt lat="43.25037" lon="-0.73922">
        <ele>206.8</ele>
        <time>2022-09-10T09:42:51Z</time>
      </trkpt>
      <trkpt lat="43.25036" lon="-0.73924">
        <ele>207</ele>
        <time>2022-09-10T09:42:52Z</time>
      </trkpt>
      <trkpt lat="43.25035" lon="-0.73933">
        <ele>207.4</ele>
        <time>2022-09-10T09:42:55Z</time>
      </trkpt>
      <trkpt lat="43.25033" lon="-0.73935">
        <ele>207.6</ele>
        <time>2022-09-10T09:42:56Z</time>
      </trkpt>
      <trkpt lat="43.25031" lon="-0.7394">
        <ele>207.8</ele>
        <time>2022-09-10T09:42:58Z</time>
      </trkpt>
      <trkpt lat="43.25029" lon="-0.73951">
        <ele>208.6</ele>
        <time>2022-09-10T09:43:02Z</time>
      </trkpt>
      <trkpt lat="43.25028" lon="-0.73953">
        <ele>209</ele>
        <time>2022-09-10T09:43:03Z</time>
      </trkpt>
      <trkpt lat="43.25023" lon="-0.73967">
        <ele>209.6</ele>
        <time>2022-09-10T09:43:09Z</time>
      </trkpt>
      <trkpt lat="43.25023" lon="-0.7397">
        <ele>209.8</ele>
        <time>2022-09-10T09:43:10Z</time>
      </trkpt>
      <trkpt lat="43.25018" lon="-0.73983">
        <ele>210.8</ele>
        <time>2022-09-10T09:43:16Z</time>
      </trkpt>
      <trkpt lat="43.25015" lon="-0.73989">
        <ele>211.2</ele>
        <time>2022-09-10T09:43:19Z</time>
      </trkpt>
      <trkpt lat="43.25012" lon="-0.73998">
        <ele>211.8</ele>
        <time>2022-09-10T09:43:23Z</time>
      </trkpt>
      <trkpt lat="43.2501" lon="-0.74007">
        <ele>212.2</ele>
        <time>2022-09-10T09:43:26Z</time>
      </trkpt>
      <trkpt lat="43.25009" lon="-0.74013">
        <ele>212.8</ele>
        <time>2022-09-10T09:43:29Z</time>
      </trkpt>
      <trkpt lat="43.25008" lon="-0.74019">
        <ele>213.2</ele>
        <time>2022-09-10T09:43:32Z</time>
      </trkpt>
      <trkpt lat="43.25004" lon="-0.74037">
        <ele>213.8</ele>
        <time>2022-09-10T09:43:39Z</time>
      </trkpt>
      <trkpt lat="43.25003" lon="-0.74043">
        <ele>214</ele>
        <time>2022-09-10T09:43:41Z</time>
      </trkpt>
      <trkpt lat="43.25" lon="-0.74055">
        <ele>214.6</ele>
        <time>2022-09-10T09:43:45Z</time>
      </trkpt>
      <trkpt lat="43.24996" lon="-0.74066">
        <ele>215</ele>
        <time>2022-09-10T09:43:49Z</time>
      </trkpt>
      <trkpt lat="43.24995" lon="-0.74071">
        <ele>215.4</ele>
        <time>2022-09-10T09:43:51Z</time>
      </trkpt>
      <trkpt lat="43.24991" lon="-0.74086">
        <ele>216</ele>
        <time>2022-09-10T09:43:56Z</time>
      </trkpt>
      <trkpt lat="43.24989" lon="-0.74093">
        <ele>216.4</ele>
        <time>2022-09-10T09:43:58Z</time>
      </trkpt>
      <trkpt lat="43.24985" lon="-0.74111">
        <ele>217.2</ele>
        <time>2022-09-10T09:44:04Z</time>
      </trkpt>
      <trkpt lat="43.24984" lon="-0.74113">
        <ele>217.2</ele>
        <time>2022-09-10T09:44:05Z</time>
      </trkpt>
      <trkpt lat="43.24985" lon="-0.74127">
        <ele>217.8</ele>
        <time>2022-09-10T09:44:11Z</time>
      </trkpt>
      <trkpt lat="43.24983" lon="-0.74141">
        <ele>218.2</ele>
        <time>2022-09-10T09:44:17Z</time>
      </trkpt>
      <trkpt lat="43.24982" lon="-0.74143">
        <ele>218.2</ele>
        <time>2022-09-10T09:44:18Z</time>
      </trkpt>
      <trkpt lat="43.24976" lon="-0.74158">
        <ele>218.8</ele>
        <time>2022-09-10T09:44:24Z</time>
      </trkpt>
      <trkpt lat="43.24973" lon="-0.74165">
        <ele>219.2</ele>
        <time>2022-09-10T09:44:28Z</time>
      </trkpt>
      <trkpt lat="43.2497" lon="-0.74172">
        <ele>219.8</ele>
        <time>2022-09-10T09:44:31Z</time>
      </trkpt>
      <trkpt lat="43.24964" lon="-0.74189">
        <ele>220.4</ele>
        <time>2022-09-10T09:44:37Z</time>
      </trkpt>
      <trkpt lat="43.24958" lon="-0.74207">
        <ele>221.4</ele>
        <time>2022-09-10T09:44:44Z</time>
      </trkpt>
      <trkpt lat="43.24957" lon="-0.74211">
        <ele>221.6</ele>
        <time>2022-09-10T09:44:45Z</time>
      </trkpt>
      <trkpt lat="43.24953" lon="-0.74229">
        <ele>222.4</ele>
        <time>2022-09-10T09:44:51Z</time>
      </trkpt>
      <trkpt lat="43.24952" lon="-0.7424">
        <ele>223</ele>
        <time>2022-09-10T09:44:55Z</time>
      </trkpt>
      <trkpt lat="43.24951" lon="-0.74242">
        <ele>222.8</ele>
        <time>2022-09-10T09:44:56Z</time>
      </trkpt>
      <trkpt lat="43.24948" lon="-0.74253">
        <ele>223.2</ele>
        <time>2022-09-10T09:45:00Z</time>
      </trkpt>
      <trkpt lat="43.24944" lon="-0.74268">
        <ele>223.2</ele>
        <time>2022-09-10T09:45:05Z</time>
      </trkpt>
      <trkpt lat="43.24943" lon="-0.74276">
        <ele>223</ele>
        <time>2022-09-10T09:45:08Z</time>
      </trkpt>
      <trkpt lat="43.24942" lon="-0.74284">
        <ele>223</ele>
        <time>2022-09-10T09:45:11Z</time>
      </trkpt>
      <trkpt lat="43.24938" lon="-0.74298">
        <ele>223.6</ele>
        <time>2022-09-10T09:45:16Z</time>
      </trkpt>
      <trkpt lat="43.24935" lon="-0.74306">
        <ele>224</ele>
        <time>2022-09-10T09:45:19Z</time>
      </trkpt>
      <trkpt lat="43.24933" lon="-0.74312">
        <ele>224.2</ele>
        <time>2022-09-10T09:45:21Z</time>
      </trkpt>
      <trkpt lat="43.24932" lon="-0.74318">
        <ele>224.6</ele>
        <time>2022-09-10T09:45:23Z</time>
      </trkpt>
      <trkpt lat="43.24931" lon="-0.74324">
        <ele>224.8</ele>
        <time>2022-09-10T09:45:25Z</time>
      </trkpt>
      <trkpt lat="43.24929" lon="-0.74332">
        <ele>225</ele>
        <time>2022-09-10T09:45:28Z</time>
      </trkpt>
      <trkpt lat="43.24927" lon="-0.74338">
        <ele>225.2</ele>
        <time>2022-09-10T09:45:30Z</time>
      </trkpt>
      <trkpt lat="43.24924" lon="-0.74347">
        <ele>225.4</ele>
        <time>2022-09-10T09:45:33Z</time>
      </trkpt>
      <trkpt lat="43.24921" lon="-0.74358">
        <ele>225.6</ele>
        <time>2022-09-10T09:45:36Z</time>
      </trkpt>
      <trkpt lat="43.24917" lon="-0.74367">
        <ele>225.8</ele>
        <time>2022-09-10T09:45:39Z</time>
      </trkpt>
      <trkpt lat="43.24909" lon="-0.7439">
        <ele>226.8</ele>
        <time>2022-09-10T09:45:47Z</time>
      </trkpt>
      <trkpt lat="43.24903" lon="-0.7441">
        <ele>227.8</ele>
        <time>2022-09-10T09:45:53Z</time>
      </trkpt>
      <trkpt lat="43.24902" lon="-0.74413">
        <ele>228</ele>
        <time>2022-09-10T09:45:54Z</time>
      </trkpt>
      <trkpt lat="43.24889" lon="-0.74426">
        <ele>228.8</ele>
        <time>2022-09-10T09:46:00Z</time>
      </trkpt>
      <trkpt lat="43.24883" lon="-0.74431">
        <ele>229</ele>
        <time>2022-09-10T09:46:03Z</time>
      </trkpt>
      <trkpt lat="43.24874" lon="-0.74437">
        <ele>229.4</ele>
        <time>2022-09-10T09:46:07Z</time>
      </trkpt>
      <trkpt lat="43.24866" lon="-0.74441">
        <ele>230</ele>
        <time>2022-09-10T09:46:11Z</time>
      </trkpt>
      <trkpt lat="43.2486" lon="-0.74445">
        <ele>230.2</ele>
        <time>2022-09-10T09:46:14Z</time>
      </trkpt>
      <trkpt lat="43.24846" lon="-0.74459">
        <ele>231</ele>
        <time>2022-09-10T09:46:22Z</time>
      </trkpt>
      <trkpt lat="43.24845" lon="-0.7446">
        <ele>231</ele>
        <time>2022-09-10T09:46:23Z</time>
      </trkpt>
      <trkpt lat="43.24832" lon="-0.74473">
        <ele>232</ele>
        <time>2022-09-10T09:46:31Z</time>
      </trkpt>
      <trkpt lat="43.2483" lon="-0.74474">
        <ele>232</ele>
        <time>2022-09-10T09:46:32Z</time>
      </trkpt>
      <trkpt lat="43.24818" lon="-0.74487">
        <ele>232.4</ele>
        <time>2022-09-10T09:46:39Z</time>
      </trkpt>
      <trkpt lat="43.24805" lon="-0.74498">
        <ele>233.2</ele>
        <time>2022-09-10T09:46:46Z</time>
      </trkpt>
      <trkpt lat="43.24803" lon="-0.74499">
        <ele>233.4</ele>
        <time>2022-09-10T09:46:47Z</time>
      </trkpt>
      <trkpt lat="43.24793" lon="-0.74507">
        <ele>234.4</ele>
        <time>2022-09-10T09:46:53Z</time>
      </trkpt>
      <trkpt lat="43.24792" lon="-0.74508">
        <ele>234.6</ele>
        <time>2022-09-10T09:46:54Z</time>
      </trkpt>
      <trkpt lat="43.24786" lon="-0.74513">
        <ele>235.6</ele>
        <time>2022-09-10T09:46:59Z</time>
      </trkpt>
      <trkpt lat="43.24784" lon="-0.74514">
        <ele>235.8</ele>
        <time>2022-09-10T09:47:00Z</time>
      </trkpt>
      <trkpt lat="43.24779" lon="-0.74519">
        <ele>236.6</ele>
        <time>2022-09-10T09:47:04Z</time>
      </trkpt>
      <trkpt lat="43.24774" lon="-0.74524">
        <ele>237.6</ele>
        <time>2022-09-10T09:47:08Z</time>
      </trkpt>
      <trkpt lat="43.24765" lon="-0.74533">
        <ele>238.8</ele>
        <time>2022-09-10T09:47:15Z</time>
      </trkpt>
      <trkpt lat="43.24763" lon="-0.74534">
        <ele>239.2</ele>
        <time>2022-09-10T09:47:17Z</time>
      </trkpt>
      <trkpt lat="43.24759" lon="-0.74538">
        <ele>240</ele>
        <time>2022-09-10T09:47:21Z</time>
      </trkpt>
      <trkpt lat="43.24755" lon="-0.74543">
        <ele>240.6</ele>
        <time>2022-09-10T09:47:25Z</time>
      </trkpt>
      <trkpt lat="43.24752" lon="-0.74546">
        <ele>241.2</ele>
        <time>2022-09-10T09:47:28Z</time>
      </trkpt>
      <trkpt lat="43.24748" lon="-0.7455">
        <ele>242</ele>
        <time>2022-09-10T09:47:33Z</time>
      </trkpt>
      <trkpt lat="43.24747" lon="-0.74551">
        <ele>242.2</ele>
        <time>2022-09-10T09:47:34Z</time>
      </trkpt>
      <trkpt lat="43.24746" lon="-0.74552">
        <ele>242.2</ele>
        <time>2022-09-10T09:47:35Z</time>
      </trkpt>
      <trkpt lat="43.24739" lon="-0.74556">
        <ele>243</ele>
        <time>2022-09-10T09:47:40Z</time>
      </trkpt>
      <trkpt lat="43.24738" lon="-0.74557">
        <ele>243.2</ele>
        <time>2022-09-10T09:47:41Z</time>
      </trkpt>
      <trkpt lat="43.24728" lon="-0.74567">
        <ele>243.8</ele>
        <time>2022-09-10T09:47:49Z</time>
      </trkpt>
      <trkpt lat="43.24722" lon="-0.74572">
        <ele>244.2</ele>
        <time>2022-09-10T09:47:53Z</time>
      </trkpt>
      <trkpt lat="43.24712" lon="-0.74578">
        <ele>244.4</ele>
        <time>2022-09-10T09:47:57Z</time>
      </trkpt>
      <trkpt lat="43.247" lon="-0.74574">
        <ele>245</ele>
        <time>2022-09-10T09:48:02Z</time>
      </trkpt>
      <trkpt lat="43.24696" lon="-0.7457">
        <ele>245.2</ele>
        <time>2022-09-10T09:48:04Z</time>
      </trkpt>
      <trkpt lat="43.2469" lon="-0.74562">
        <ele>245.2</ele>
        <time>2022-09-10T09:48:08Z</time>
      </trkpt>
      <trkpt lat="43.24679" lon="-0.74563">
        <ele>244.6</ele>
        <time>2022-09-10T09:48:51Z</time>
      </trkpt>
      <trkpt lat="43.24671" lon="-0.74565">
        <ele>244.4</ele>
        <time>2022-09-10T09:48:54Z</time>
      </trkpt>
      <trkpt lat="43.24664" lon="-0.74568">
        <ele>244.2</ele>
        <time>2022-09-10T09:48:56Z</time>
      </trkpt>
      <trkpt lat="43.24659" lon="-0.74572">
        <ele>244</ele>
        <time>2022-09-10T09:48:58Z</time>
      </trkpt>
      <trkpt lat="43.24649" lon="-0.74582">
        <ele>243.2</ele>
        <time>2022-09-10T09:49:03Z</time>
      </trkpt>
      <trkpt lat="43.24646" lon="-0.74584">
        <ele>243</ele>
        <time>2022-09-10T09:49:04Z</time>
      </trkpt>
      <trkpt lat="43.24637" lon="-0.74598">
        <ele>242.2</ele>
        <time>2022-09-10T09:49:08Z</time>
      </trkpt>
      <trkpt lat="43.24635" lon="-0.74602">
        <ele>242</ele>
        <time>2022-09-10T09:49:09Z</time>
      </trkpt>
      <trkpt lat="43.24626" lon="-0.74621">
        <ele>241.4</ele>
        <time>2022-09-10T09:49:13Z</time>
      </trkpt>
      <trkpt lat="43.24624" lon="-0.74631">
        <ele>241</ele>
        <time>2022-09-10T09:49:15Z</time>
      </trkpt>
      <trkpt lat="43.2462" lon="-0.74645">
        <ele>241</ele>
        <time>2022-09-10T09:49:18Z</time>
      </trkpt>
      <trkpt lat="43.24618" lon="-0.74659">
        <ele>241</ele>
        <time>2022-09-10T09:49:21Z</time>
      </trkpt>
      <trkpt lat="43.24618" lon="-0.74668">
        <ele>241.2</ele>
        <time>2022-09-10T09:49:23Z</time>
      </trkpt>
      <trkpt lat="43.24615" lon="-0.74698">
        <ele>241.6</ele>
        <time>2022-09-10T09:49:30Z</time>
      </trkpt>
      <trkpt lat="43.24604" lon="-0.74718">
        <ele>241.8</ele>
        <time>2022-09-10T09:49:35Z</time>
      </trkpt>
      <trkpt lat="43.24593" lon="-0.74732">
        <ele>242</ele>
        <time>2022-09-10T09:49:40Z</time>
      </trkpt>
      <trkpt lat="43.24587" lon="-0.74736">
        <ele>242.2</ele>
        <time>2022-09-10T09:49:42Z</time>
      </trkpt>
      <trkpt lat="43.24561" lon="-0.74745">
        <ele>242</ele>
        <time>2022-09-10T09:49:50Z</time>
      </trkpt>
      <trkpt lat="43.2454" lon="-0.74757">
        <ele>241</ele>
        <time>2022-09-10T09:49:55Z</time>
      </trkpt>
      <trkpt lat="43.24536" lon="-0.74761">
        <ele>241</ele>
        <time>2022-09-10T09:49:56Z</time>
      </trkpt>
      <trkpt lat="43.24529" lon="-0.7477">
        <ele>240.4</ele>
        <time>2022-09-10T09:49:58Z</time>
      </trkpt>
      <trkpt lat="43.24523" lon="-0.74782">
        <ele>239.6</ele>
        <time>2022-09-10T09:50:00Z</time>
      </trkpt>
      <trkpt lat="43.2452" lon="-0.74786">
        <ele>239.2</ele>
        <time>2022-09-10T09:50:01Z</time>
      </trkpt>
      <trkpt lat="43.24515" lon="-0.74797">
        <ele>238.6</ele>
        <time>2022-09-10T09:50:04Z</time>
      </trkpt>
      <trkpt lat="43.24511" lon="-0.74804">
        <ele>238.6</ele>
        <time>2022-09-10T09:50:06Z</time>
      </trkpt>
      <trkpt lat="43.245" lon="-0.74814">
        <ele>238.4</ele>
        <time>2022-09-10T09:50:10Z</time>
      </trkpt>
      <trkpt lat="43.24481" lon="-0.74827">
        <ele>237.8</ele>
        <time>2022-09-10T09:50:16Z</time>
      </trkpt>
      <trkpt lat="43.24463" lon="-0.74839">
        <ele>238.2</ele>
        <time>2022-09-10T09:50:23Z</time>
      </trkpt>
      <trkpt lat="43.24452" lon="-0.74851">
        <ele>238.2</ele>
        <time>2022-09-10T09:50:29Z</time>
      </trkpt>
      <trkpt lat="43.24445" lon="-0.74856">
        <ele>238.2</ele>
        <time>2022-09-10T09:50:34Z</time>
      </trkpt>
      <trkpt lat="43.24433" lon="-0.74856">
        <ele>238.8</ele>
        <time>2022-09-10T09:50:40Z</time>
      </trkpt>
      <trkpt lat="43.24419" lon="-0.74851">
        <ele>239.2</ele>
        <time>2022-09-10T09:50:47Z</time>
      </trkpt>
      <trkpt lat="43.24413" lon="-0.74849">
        <ele>239.8</ele>
        <time>2022-09-10T09:50:50Z</time>
      </trkpt>
      <trkpt lat="43.24409" lon="-0.74846">
        <ele>240</ele>
        <time>2022-09-10T09:50:52Z</time>
      </trkpt>
      <trkpt lat="43.24402" lon="-0.7483">
        <ele>240.8</ele>
        <time>2022-09-10T09:50:59Z</time>
      </trkpt>
      <trkpt lat="43.24398" lon="-0.74816">
        <ele>241.6</ele>
        <time>2022-09-10T09:51:05Z</time>
      </trkpt>
      <trkpt lat="43.24394" lon="-0.74806">
        <ele>241.8</ele>
        <time>2022-09-10T09:51:09Z</time>
      </trkpt>
      <trkpt lat="43.24394" lon="-0.748">
        <ele>242.4</ele>
        <time>2022-09-10T09:51:12Z</time>
      </trkpt>
      <trkpt lat="43.24393" lon="-0.74795">
        <ele>243</ele>
        <time>2022-09-10T09:51:15Z</time>
      </trkpt>
      <trkpt lat="43.24392" lon="-0.74791">
        <ele>243.2</ele>
        <time>2022-09-10T09:51:17Z</time>
      </trkpt>
      <trkpt lat="43.24386" lon="-0.74779">
        <ele>244</ele>
        <time>2022-09-10T09:51:24Z</time>
      </trkpt>
      <trkpt lat="43.24385" lon="-0.74778">
        <ele>244.2</ele>
        <time>2022-09-10T09:51:25Z</time>
      </trkpt>
      <trkpt lat="43.24381" lon="-0.74768">
        <ele>245.2</ele>
        <time>2022-09-10T09:51:30Z</time>
      </trkpt>
      <trkpt lat="43.24372" lon="-0.74752">
        <ele>245.8</ele>
        <time>2022-09-10T09:51:37Z</time>
      </trkpt>
      <trkpt lat="43.24365" lon="-0.74741">
        <ele>246.2</ele>
        <time>2022-09-10T09:51:42Z</time>
      </trkpt>
      <trkpt lat="43.24364" lon="-0.74739">
        <ele>246.4</ele>
        <time>2022-09-10T09:51:43Z</time>
      </trkpt>
      <trkpt lat="43.24355" lon="-0.74732">
        <ele>247.4</ele>
        <time>2022-09-10T09:51:49Z</time>
      </trkpt>
      <trkpt lat="43.24353" lon="-0.74732">
        <ele>247.4</ele>
        <time>2022-09-10T09:51:50Z</time>
      </trkpt>
      <trkpt lat="43.2435" lon="-0.74731">
        <ele>247.6</ele>
        <time>2022-09-10T09:51:52Z</time>
      </trkpt>
      <trkpt lat="43.24344" lon="-0.74729">
        <ele>248</ele>
        <time>2022-09-10T09:51:55Z</time>
      </trkpt>
      <trkpt lat="43.2434" lon="-0.7473">
        <ele>248.6</ele>
        <time>2022-09-10T09:51:57Z</time>
      </trkpt>
      <trkpt lat="43.24335" lon="-0.7473">
        <ele>249</ele>
        <time>2022-09-10T09:52:00Z</time>
      </trkpt>
      <trkpt lat="43.24333" lon="-0.7473">
        <ele>249.2</ele>
        <time>2022-09-10T09:52:01Z</time>
      </trkpt>
      <trkpt lat="43.24327" lon="-0.74727">
        <ele>249.6</ele>
        <time>2022-09-10T09:52:04Z</time>
      </trkpt>
      <trkpt lat="43.24323" lon="-0.74723">
        <ele>250</ele>
        <time>2022-09-10T09:52:07Z</time>
      </trkpt>
      <trkpt lat="43.24317" lon="-0.74718">
        <ele>250.4</ele>
        <time>2022-09-10T09:52:11Z</time>
      </trkpt>
      <trkpt lat="43.24314" lon="-0.74716">
        <ele>250.6</ele>
        <time>2022-09-10T09:52:13Z</time>
      </trkpt>
      <trkpt lat="43.24312" lon="-0.74714">
        <ele>250.6</ele>
        <time>2022-09-10T09:52:14Z</time>
      </trkpt>
      <trkpt lat="43.24303" lon="-0.74712">
        <ele>251.2</ele>
        <time>2022-09-10T09:52:19Z</time>
      </trkpt>
      <trkpt lat="43.24296" lon="-0.74715">
        <ele>251.8</ele>
        <time>2022-09-10T09:52:23Z</time>
      </trkpt>
      <trkpt lat="43.2429" lon="-0.74717">
        <ele>252</ele>
        <time>2022-09-10T09:52:26Z</time>
      </trkpt>
      <trkpt lat="43.24276" lon="-0.74723">
        <ele>252.4</ele>
        <time>2022-09-10T09:52:32Z</time>
      </trkpt>
      <trkpt lat="43.24272" lon="-0.74724">
        <ele>251.4</ele>
        <time>2022-09-10T09:53:16Z</time>
      </trkpt>
      <trkpt lat="43.24268" lon="-0.74725">
        <ele>251.2</ele>
        <time>2022-09-10T09:53:17Z</time>
      </trkpt>
      <trkpt lat="43.24254" lon="-0.74726">
        <ele>250.6</ele>
        <time>2022-09-10T09:53:20Z</time>
      </trkpt>
      <trkpt lat="43.24244" lon="-0.74722">
        <ele>250.2</ele>
        <time>2022-09-10T09:53:22Z</time>
      </trkpt>
      <trkpt lat="43.2424" lon="-0.74719">
        <ele>249.6</ele>
        <time>2022-09-10T09:53:23Z</time>
      </trkpt>
      <trkpt lat="43.24231" lon="-0.74715">
        <ele>248.6</ele>
        <time>2022-09-10T09:53:25Z</time>
      </trkpt>
      <trkpt lat="43.24226" lon="-0.74713">
        <ele>248.2</ele>
        <time>2022-09-10T09:53:26Z</time>
      </trkpt>
      <trkpt lat="43.24216" lon="-0.74717">
        <ele>247.2</ele>
        <time>2022-09-10T09:53:29Z</time>
      </trkpt>
      <trkpt lat="43.24206" lon="-0.74731">
        <ele>246.8</ele>
        <time>2022-09-10T09:53:33Z</time>
      </trkpt>
      <trkpt lat="43.24203" lon="-0.74735">
        <ele>246.6</ele>
        <time>2022-09-10T09:53:34Z</time>
      </trkpt>
      <trkpt lat="43.24193" lon="-0.74741">
        <ele>246.4</ele>
        <time>2022-09-10T09:53:37Z</time>
      </trkpt>
      <trkpt lat="43.24181" lon="-0.74748">
        <ele>246</ele>
        <time>2022-09-10T09:53:41Z</time>
      </trkpt>
      <trkpt lat="43.24179" lon="-0.74749">
        <ele>246</ele>
        <time>2022-09-10T09:53:42Z</time>
      </trkpt>
      <trkpt lat="43.24176" lon="-0.74759">
        <ele>246.2</ele>
        <time>2022-09-10T09:53:47Z</time>
      </trkpt>
      <trkpt lat="43.24177" lon="-0.7476">
        <ele>246.2</ele>
        <time>2022-09-10T09:53:48Z</time>
      </trkpt>
      <trkpt lat="43.24182" lon="-0.74765">
        <ele>246</ele>
        <time>2022-09-10T09:53:51Z</time>
      </trkpt>
      <trkpt lat="43.24184" lon="-0.74766">
        <ele>245.8</ele>
        <time>2022-09-10T09:53:52Z</time>
      </trkpt>
      <trkpt lat="43.24193" lon="-0.74773">
        <ele>245.8</ele>
        <time>2022-09-10T09:53:56Z</time>
      </trkpt>
      <trkpt lat="43.24204" lon="-0.74786">
        <ele>246.2</ele>
        <time>2022-09-10T09:54:01Z</time>
      </trkpt>
      <trkpt lat="43.24209" lon="-0.74794">
        <ele>247</ele>
        <time>2022-09-10T09:54:04Z</time>
      </trkpt>
      <trkpt lat="43.24213" lon="-0.74803">
        <ele>248</ele>
        <time>2022-09-10T09:54:07Z</time>
      </trkpt>
      <trkpt lat="43.24214" lon="-0.74806">
        <ele>248.2</ele>
        <time>2022-09-10T09:54:08Z</time>
      </trkpt>
      <trkpt lat="43.24219" lon="-0.74815">
        <ele>249.4</ele>
        <time>2022-09-10T09:54:12Z</time>
      </trkpt>
      <trkpt lat="43.24221" lon="-0.7482">
        <ele>250</ele>
        <time>2022-09-10T09:54:14Z</time>
      </trkpt>
      <trkpt lat="43.24223" lon="-0.74827">
        <ele>250.2</ele>
        <time>2022-09-10T09:54:17Z</time>
      </trkpt>
      <trkpt lat="43.24226" lon="-0.74834">
        <ele>250.2</ele>
        <time>2022-09-10T09:54:20Z</time>
      </trkpt>
      <trkpt lat="43.24227" lon="-0.74836">
        <ele>250.2</ele>
        <time>2022-09-10T09:54:21Z</time>
      </trkpt>
      <trkpt lat="43.2423" lon="-0.7485">
        <ele>249.6</ele>
        <time>2022-09-10T09:54:25Z</time>
      </trkpt>
      <trkpt lat="43.24238" lon="-0.74872">
        <ele>248.4</ele>
        <time>2022-09-10T09:54:31Z</time>
      </trkpt>
      <trkpt lat="43.24241" lon="-0.74889">
        <ele>247.4</ele>
        <time>2022-09-10T09:54:35Z</time>
      </trkpt>
      <trkpt lat="43.24241" lon="-0.74893">
        <ele>247</ele>
        <time>2022-09-10T09:54:36Z</time>
      </trkpt>
      <trkpt lat="43.24239" lon="-0.74902">
        <ele>246</ele>
        <time>2022-09-10T09:54:38Z</time>
      </trkpt>
      <trkpt lat="43.24237" lon="-0.74908">
        <ele>245.4</ele>
        <time>2022-09-10T09:54:39Z</time>
      </trkpt>
      <trkpt lat="43.24234" lon="-0.74915">
        <ele>244.8</ele>
        <time>2022-09-10T09:54:40Z</time>
      </trkpt>
      <trkpt lat="43.24232" lon="-0.7492">
        <ele>243.8</ele>
        <time>2022-09-10T09:54:41Z</time>
      </trkpt>
      <trkpt lat="43.24229" lon="-0.74934">
        <ele>242.6</ele>
        <time>2022-09-10T09:54:43Z</time>
      </trkpt>
      <trkpt lat="43.24224" lon="-0.74952">
        <ele>241.8</ele>
        <time>2022-09-10T09:54:45Z</time>
      </trkpt>
      <trkpt lat="43.24224" lon="-0.74959">
        <ele>241.2</ele>
        <time>2022-09-10T09:54:46Z</time>
      </trkpt>
      <trkpt lat="43.24223" lon="-0.74968">
        <ele>240.6</ele>
        <time>2022-09-10T09:54:47Z</time>
      </trkpt>
      <trkpt lat="43.24223" lon="-0.74976">
        <ele>240</ele>
        <time>2022-09-10T09:54:48Z</time>
      </trkpt>
      <trkpt lat="43.24223" lon="-0.74983">
        <ele>239.6</ele>
        <time>2022-09-10T09:54:49Z</time>
      </trkpt>
      <trkpt lat="43.24222" lon="-0.75003">
        <ele>238.6</ele>
        <time>2022-09-10T09:54:52Z</time>
      </trkpt>
      <trkpt lat="43.24222" lon="-0.75015">
        <ele>237.4</ele>
        <time>2022-09-10T09:54:54Z</time>
      </trkpt>
      <trkpt lat="43.2422" lon="-0.75022">
        <ele>236.8</ele>
        <time>2022-09-10T09:54:55Z</time>
      </trkpt>
      <trkpt lat="43.24217" lon="-0.7503">
        <ele>236.2</ele>
        <time>2022-09-10T09:54:56Z</time>
      </trkpt>
      <trkpt lat="43.24211" lon="-0.75045">
        <ele>235.2</ele>
        <time>2022-09-10T09:54:58Z</time>
      </trkpt>
      <trkpt lat="43.24208" lon="-0.75049">
        <ele>234.6</ele>
        <time>2022-09-10T09:54:59Z</time>
      </trkpt>
      <trkpt lat="43.24206" lon="-0.75052">
        <ele>234.2</ele>
        <time>2022-09-10T09:55:00Z</time>
      </trkpt>
      <trkpt lat="43.24203" lon="-0.75056">
        <ele>233.6</ele>
        <time>2022-09-10T09:55:01Z</time>
      </trkpt>
      <trkpt lat="43.24195" lon="-0.75067">
        <ele>232.4</ele>
        <time>2022-09-10T09:55:03Z</time>
      </trkpt>
      <trkpt lat="43.24189" lon="-0.75076">
        <ele>231</ele>
        <time>2022-09-10T09:55:05Z</time>
      </trkpt>
      <trkpt lat="43.24186" lon="-0.75081">
        <ele>230</ele>
        <time>2022-09-10T09:55:06Z</time>
      </trkpt>
      <trkpt lat="43.24184" lon="-0.75084">
        <ele>229.6</ele>
        <time>2022-09-10T09:55:07Z</time>
      </trkpt>
      <trkpt lat="43.24178" lon="-0.75093">
        <ele>228.2</ele>
        <time>2022-09-10T09:55:09Z</time>
      </trkpt>
      <trkpt lat="43.24172" lon="-0.75102">
        <ele>226.8</ele>
        <time>2022-09-10T09:55:11Z</time>
      </trkpt>
      <trkpt lat="43.2417" lon="-0.75107">
        <ele>226.2</ele>
        <time>2022-09-10T09:55:12Z</time>
      </trkpt>
      <trkpt lat="43.24168" lon="-0.75111">
        <ele>225.6</ele>
        <time>2022-09-10T09:55:13Z</time>
      </trkpt>
      <trkpt lat="43.24165" lon="-0.75119">
        <ele>224.4</ele>
        <time>2022-09-10T09:55:15Z</time>
      </trkpt>
      <trkpt lat="43.24161" lon="-0.75126">
        <ele>223</ele>
        <time>2022-09-10T09:55:17Z</time>
      </trkpt>
      <trkpt lat="43.24154" lon="-0.75133">
        <ele>221.6</ele>
        <time>2022-09-10T09:55:20Z</time>
      </trkpt>
      <trkpt lat="43.24148" lon="-0.75138">
        <ele>220.6</ele>
        <time>2022-09-10T09:55:22Z</time>
      </trkpt>
      <trkpt lat="43.24142" lon="-0.75144">
        <ele>219.4</ele>
        <time>2022-09-10T09:55:24Z</time>
      </trkpt>
      <trkpt lat="43.24136" lon="-0.7515">
        <ele>218.2</ele>
        <time>2022-09-10T09:55:26Z</time>
      </trkpt>
      <trkpt lat="43.24129" lon="-0.75158">
        <ele>217.2</ele>
        <time>2022-09-10T09:55:28Z</time>
      </trkpt>
      <trkpt lat="43.24124" lon="-0.75168">
        <ele>216</ele>
        <time>2022-09-10T09:55:30Z</time>
      </trkpt>
      <trkpt lat="43.24123" lon="-0.75178">
        <ele>215.2</ele>
        <time>2022-09-10T09:55:32Z</time>
      </trkpt>
      <trkpt lat="43.2412" lon="-0.75187">
        <ele>214.6</ele>
        <time>2022-09-10T09:55:34Z</time>
      </trkpt>
      <trkpt lat="43.24115" lon="-0.75196">
        <ele>214.2</ele>
        <time>2022-09-10T09:55:36Z</time>
      </trkpt>
      <trkpt lat="43.24106" lon="-0.7521">
        <ele>213.4</ele>
        <time>2022-09-10T09:55:39Z</time>
      </trkpt>
      <trkpt lat="43.24102" lon="-0.75218">
        <ele>212.8</ele>
        <time>2022-09-10T09:55:41Z</time>
      </trkpt>
      <trkpt lat="43.241" lon="-0.75221">
        <ele>212.4</ele>
        <time>2022-09-10T09:55:42Z</time>
      </trkpt>
      <trkpt lat="43.24097" lon="-0.75227">
        <ele>211.2</ele>
        <time>2022-09-10T09:55:44Z</time>
      </trkpt>
      <trkpt lat="43.24095" lon="-0.75231">
        <ele>210.2</ele>
        <time>2022-09-10T09:55:46Z</time>
      </trkpt>
      <trkpt lat="43.24092" lon="-0.75235">
        <ele>209.2</ele>
        <time>2022-09-10T09:55:48Z</time>
      </trkpt>
      <trkpt lat="43.2409" lon="-0.75237">
        <ele>208.6</ele>
        <time>2022-09-10T09:55:49Z</time>
      </trkpt>
      <trkpt lat="43.24089" lon="-0.7524">
        <ele>207.8</ele>
        <time>2022-09-10T09:55:50Z</time>
      </trkpt>
      <trkpt lat="43.24086" lon="-0.75245">
        <ele>206.6</ele>
        <time>2022-09-10T09:55:52Z</time>
      </trkpt>
      <trkpt lat="43.24085" lon="-0.75248">
        <ele>205.2</ele>
        <time>2022-09-10T09:55:53Z</time>
      </trkpt>
      <trkpt lat="43.24083" lon="-0.75253">
        <ele>204</ele>
        <time>2022-09-10T09:55:55Z</time>
      </trkpt>
      <trkpt lat="43.24081" lon="-0.7526">
        <ele>202.8</ele>
        <time>2022-09-10T09:55:57Z</time>
      </trkpt>
      <trkpt lat="43.24078" lon="-0.75267">
        <ele>201.4</ele>
        <time>2022-09-10T09:55:59Z</time>
      </trkpt>
      <trkpt lat="43.24078" lon="-0.75271">
        <ele>200.2</ele>
        <time>2022-09-10T09:56:01Z</time>
      </trkpt>
      <trkpt lat="43.24078" lon="-0.75273">
        <ele>199.8</ele>
        <time>2022-09-10T09:56:02Z</time>
      </trkpt>
      <trkpt lat="43.24078" lon="-0.75276">
        <ele>199.2</ele>
        <time>2022-09-10T09:56:03Z</time>
      </trkpt>
      <trkpt lat="43.24079" lon="-0.7528">
        <ele>198.2</ele>
        <time>2022-09-10T09:56:05Z</time>
      </trkpt>
      <trkpt lat="43.24079" lon="-0.75283">
        <ele>197.6</ele>
        <time>2022-09-10T09:56:06Z</time>
      </trkpt>
      <trkpt lat="43.24078" lon="-0.75286">
        <ele>197</ele>
        <time>2022-09-10T09:56:07Z</time>
      </trkpt>
      <trkpt lat="43.24081" lon="-0.75296">
        <ele>195.4</ele>
        <time>2022-09-10T09:56:12Z</time>
      </trkpt>
      <trkpt lat="43.24086" lon="-0.75303">
        <ele>194.2</ele>
        <time>2022-09-10T09:56:15Z</time>
      </trkpt>
      <trkpt lat="43.24089" lon="-0.75305">
        <ele>193.8</ele>
        <time>2022-09-10T09:56:16Z</time>
      </trkpt>
      <trkpt lat="43.2409" lon="-0.7531">
        <ele>192.8</ele>
        <time>2022-09-10T09:56:17Z</time>
      </trkpt>
      <trkpt lat="43.24094" lon="-0.75319">
        <ele>191.4</ele>
        <time>2022-09-10T09:56:20Z</time>
      </trkpt>
      <trkpt lat="43.24098" lon="-0.75321">
        <ele>190.4</ele>
        <time>2022-09-10T09:56:22Z</time>
      </trkpt>
      <trkpt lat="43.24102" lon="-0.75325">
        <ele>189.2</ele>
        <time>2022-09-10T09:56:24Z</time>
      </trkpt>
      <trkpt lat="43.24105" lon="-0.75326">
        <ele>189</ele>
        <time>2022-09-10T09:56:25Z</time>
      </trkpt>
      <trkpt lat="43.24109" lon="-0.7533">
        <ele>188.2</ele>
        <time>2022-09-10T09:56:28Z</time>
      </trkpt>
      <trkpt lat="43.2411" lon="-0.75332">
        <ele>187.8</ele>
        <time>2022-09-10T09:56:29Z</time>
      </trkpt>
      <trkpt lat="43.2411" lon="-0.75335">
        <ele>187</ele>
        <time>2022-09-10T09:56:31Z</time>
      </trkpt>
      <trkpt lat="43.2411" lon="-0.7534">
        <ele>185.8</ele>
        <time>2022-09-10T09:56:34Z</time>
      </trkpt>
      <trkpt lat="43.24109" lon="-0.75343">
        <ele>185.4</ele>
        <time>2022-09-10T09:56:35Z</time>
      </trkpt>
      <trkpt lat="43.24108" lon="-0.75349">
        <ele>184.6</ele>
        <time>2022-09-10T09:56:37Z</time>
      </trkpt>
      <trkpt lat="43.24108" lon="-0.75356">
        <ele>183.4</ele>
        <time>2022-09-10T09:56:39Z</time>
      </trkpt>
      <trkpt lat="43.24108" lon="-0.75359">
        <ele>182.8</ele>
        <time>2022-09-10T09:56:40Z</time>
      </trkpt>
      <trkpt lat="43.24107" lon="-0.75361">
        <ele>181.8</ele>
        <time>2022-09-10T09:56:41Z</time>
      </trkpt>
      <trkpt lat="43.24107" lon="-0.75364">
        <ele>181.2</ele>
        <time>2022-09-10T09:56:42Z</time>
      </trkpt>
      <trkpt lat="43.24105" lon="-0.7537">
        <ele>180.4</ele>
        <time>2022-09-10T09:56:44Z</time>
      </trkpt>
      <trkpt lat="43.24099" lon="-0.75374">
        <ele>178.8</ele>
        <time>2022-09-10T09:56:47Z</time>
      </trkpt>
      <trkpt lat="43.24098" lon="-0.75376">
        <ele>178.2</ele>
        <time>2022-09-10T09:56:48Z</time>
      </trkpt>
      <trkpt lat="43.24096" lon="-0.75377">
        <ele>177.6</ele>
        <time>2022-09-10T09:56:49Z</time>
      </trkpt>
      <trkpt lat="43.24092" lon="-0.7538">
        <ele>176.6</ele>
        <time>2022-09-10T09:56:52Z</time>
      </trkpt>
      <trkpt lat="43.2409" lon="-0.75379">
        <ele>176.4</ele>
        <time>2022-09-10T09:56:53Z</time>
      </trkpt>
      <trkpt lat="43.24087" lon="-0.75378">
        <ele>176.2</ele>
        <time>2022-09-10T09:56:54Z</time>
      </trkpt>
      <trkpt lat="43.24085" lon="-0.75379">
        <ele>176</ele>
        <time>2022-09-10T09:56:55Z</time>
      </trkpt>
      <trkpt lat="43.24078" lon="-0.7538">
        <ele>175.4</ele>
        <time>2022-09-10T09:56:58Z</time>
      </trkpt>
      <trkpt lat="43.24077" lon="-0.75381">
        <ele>175.2</ele>
        <time>2022-09-10T09:56:59Z</time>
      </trkpt>
      <trkpt lat="43.24063" lon="-0.75386">
        <ele>171.6</ele>
        <time>2022-09-10T09:57:07Z</time>
      </trkpt>
      <trkpt lat="43.24059" lon="-0.7539">
        <ele>170.4</ele>
        <time>2022-09-10T09:57:09Z</time>
      </trkpt>
      <trkpt lat="43.24053" lon="-0.75396">
        <ele>169</ele>
        <time>2022-09-10T09:57:12Z</time>
      </trkpt>
      <trkpt lat="43.24053" lon="-0.75398">
        <ele>168.6</ele>
        <time>2022-09-10T09:57:13Z</time>
      </trkpt>
      <trkpt lat="43.24052" lon="-0.75402">
        <ele>168</ele>
        <time>2022-09-10T09:57:15Z</time>
      </trkpt>
      <trkpt lat="43.24053" lon="-0.75404">
        <ele>167.6</ele>
        <time>2022-09-10T09:57:16Z</time>
      </trkpt>
      <trkpt lat="43.2405" lon="-0.75415">
        <ele>166.4</ele>
        <time>2022-09-10T09:57:20Z</time>
      </trkpt>
      <trkpt lat="43.24048" lon="-0.75427">
        <ele>165.4</ele>
        <time>2022-09-10T09:57:24Z</time>
      </trkpt>
      <trkpt lat="43.24048" lon="-0.7543">
        <ele>165.2</ele>
        <time>2022-09-10T09:57:25Z</time>
      </trkpt>
      <trkpt lat="43.24047" lon="-0.75432">
        <ele>165</ele>
        <time>2022-09-10T09:57:26Z</time>
      </trkpt>
      <trkpt lat="43.24044" lon="-0.7544">
        <ele>164.2</ele>
        <time>2022-09-10T09:57:30Z</time>
      </trkpt>
      <trkpt lat="43.24026" lon="-0.7552">
        <ele>162.8</ele>
        <time>2022-09-10T09:59:12Z</time>
      </trkpt>
      <trkpt lat="43.24029" lon="-0.75521">
        <ele>162.8</ele>
        <time>2022-09-10T09:59:14Z</time>
      </trkpt>
      <trkpt lat="43.24038" lon="-0.75519">
        <ele>162.8</ele>
        <time>2022-09-10T09:59:20Z</time>
      </trkpt>
      <trkpt lat="43.24047" lon="-0.75518">
        <ele>162.4</ele>
        <time>2022-09-10T09:59:25Z</time>
      </trkpt>
      <trkpt lat="43.24055" lon="-0.75522">
        <ele>162.4</ele>
        <time>2022-09-10T09:59:29Z</time>
      </trkpt>
      <trkpt lat="43.24057" lon="-0.75526">
        <ele>162.6</ele>
        <time>2022-09-10T09:59:31Z</time>
      </trkpt>
      <trkpt lat="43.24063" lon="-0.7553">
        <ele>163.8</ele>
        <time>2022-09-10T09:59:35Z</time>
      </trkpt>
      <trkpt lat="43.24071" lon="-0.75535">
        <ele>164</ele>
        <time>2022-09-10T09:59:37Z</time>
      </trkpt>
      <trkpt lat="43.24079" lon="-0.75541">
        <ele>164.8</ele>
        <time>2022-09-10T09:59:43Z</time>
      </trkpt>
      <trkpt lat="43.24081" lon="-0.75542">
        <ele>164.8</ele>
        <time>2022-09-10T09:59:44Z</time>
      </trkpt>
      <trkpt lat="43.24088" lon="-0.75546">
        <ele>165.4</ele>
        <time>2022-09-10T09:59:49Z</time>
      </trkpt>
      <trkpt lat="43.24098" lon="-0.75549">
        <ele>165.2</ele>
        <time>2022-09-10T09:59:53Z</time>
      </trkpt>
      <trkpt lat="43.24104" lon="-0.75549">
        <ele>165</ele>
        <time>2022-09-10T09:59:55Z</time>
      </trkpt>
      <trkpt lat="43.24124" lon="-0.75542">
        <ele>164</ele>
        <time>2022-09-10T10:00:01Z</time>
      </trkpt>
      <trkpt lat="43.24131" lon="-0.75539">
        <ele>163.6</ele>
        <time>2022-09-10T10:00:03Z</time>
      </trkpt>
      <trkpt lat="43.24139" lon="-0.75533">
        <ele>162.8</ele>
        <time>2022-09-10T10:00:07Z</time>
      </trkpt>
      <trkpt lat="43.24141" lon="-0.75531">
        <ele>162.4</ele>
        <time>2022-09-10T10:00:08Z</time>
      </trkpt>
      <trkpt lat="43.24146" lon="-0.75526">
        <ele>161.4</ele>
        <time>2022-09-10T10:00:11Z</time>
      </trkpt>
      <trkpt lat="43.24148" lon="-0.75525">
        <ele>161.2</ele>
        <time>2022-09-10T10:00:12Z</time>
      </trkpt>
      <trkpt lat="43.2415" lon="-0.75524">
        <ele>161</ele>
        <time>2022-09-10T10:00:13Z</time>
      </trkpt>
      <trkpt lat="43.24155" lon="-0.75522">
        <ele>161.2</ele>
        <time>2022-09-10T10:00:16Z</time>
      </trkpt>
      <trkpt lat="43.24158" lon="-0.7552">
        <ele>161.6</ele>
        <time>2022-09-10T10:00:18Z</time>
      </trkpt>
      <trkpt lat="43.24162" lon="-0.75519">
        <ele>162.2</ele>
        <time>2022-09-10T10:00:20Z</time>
      </trkpt>
      <trkpt lat="43.2417" lon="-0.75517">
        <ele>163.2</ele>
        <time>2022-09-10T10:00:24Z</time>
      </trkpt>
      <trkpt lat="43.24172" lon="-0.75517">
        <ele>163.4</ele>
        <time>2022-09-10T10:00:25Z</time>
      </trkpt>
      <trkpt lat="43.24182" lon="-0.75516">
        <ele>164.4</ele>
        <time>2022-09-10T10:00:29Z</time>
      </trkpt>
      <trkpt lat="43.24185" lon="-0.75516">
        <ele>165</ele>
        <time>2022-09-10T10:00:31Z</time>
      </trkpt>
      <trkpt lat="43.24188" lon="-0.75515">
        <ele>165.2</ele>
        <time>2022-09-10T10:00:32Z</time>
      </trkpt>
      <trkpt lat="43.24206" lon="-0.75517">
        <ele>166</ele>
        <time>2022-09-10T10:04:13Z</time>
      </trkpt>
      <trkpt lat="43.2422" lon="-0.75517">
        <ele>166</ele>
        <time>2022-09-10T10:04:18Z</time>
      </trkpt>
      <trkpt lat="43.24235" lon="-0.75514">
        <ele>166.2</ele>
        <time>2022-09-10T10:04:24Z</time>
      </trkpt>
      <trkpt lat="43.24244" lon="-0.75518">
        <ele>166.4</ele>
        <time>2022-09-10T10:04:28Z</time>
      </trkpt>
      <trkpt lat="43.24245" lon="-0.7552">
        <ele>166.6</ele>
        <time>2022-09-10T10:04:29Z</time>
      </trkpt>
      <trkpt lat="43.24254" lon="-0.75532">
        <ele>166.6</ele>
        <time>2022-09-10T10:04:33Z</time>
      </trkpt>
      <trkpt lat="43.24268" lon="-0.75555">
        <ele>167</ele>
        <time>2022-09-10T10:04:39Z</time>
      </trkpt>
      <trkpt lat="43.24274" lon="-0.75563">
        <ele>167.6</ele>
        <time>2022-09-10T10:04:42Z</time>
      </trkpt>
      <trkpt lat="43.24277" lon="-0.75564">
        <ele>167.6</ele>
        <time>2022-09-10T10:04:44Z</time>
      </trkpt>
      <trkpt lat="43.2428" lon="-0.75562">
        <ele>167.6</ele>
        <time>2022-09-10T10:04:46Z</time>
      </trkpt>
      <trkpt lat="43.24282" lon="-0.75558">
        <ele>167.4</ele>
        <time>2022-09-10T10:04:48Z</time>
      </trkpt>
      <trkpt lat="43.24285" lon="-0.75552">
        <ele>167.2</ele>
        <time>2022-09-10T10:04:50Z</time>
      </trkpt>
      <trkpt lat="43.24288" lon="-0.7555">
        <ele>166.8</ele>
        <time>2022-09-10T10:04:52Z</time>
      </trkpt>
      <trkpt lat="43.2429" lon="-0.75551">
        <ele>166.8</ele>
        <time>2022-09-10T10:04:53Z</time>
      </trkpt>
      <trkpt lat="43.24291" lon="-0.75552">
        <ele>166.6</ele>
        <time>2022-09-10T10:04:54Z</time>
      </trkpt>
      <trkpt lat="43.24294" lon="-0.75554">
        <ele>166.2</ele>
        <time>2022-09-10T10:04:56Z</time>
      </trkpt>
      <trkpt lat="43.24297" lon="-0.75555">
        <ele>166</ele>
        <time>2022-09-10T10:04:58Z</time>
      </trkpt>
      <trkpt lat="43.24298" lon="-0.75556">
        <ele>166</ele>
        <time>2022-09-10T10:04:59Z</time>
      </trkpt>
      <trkpt lat="43.24302" lon="-0.7556">
        <ele>166.6</ele>
        <time>2022-09-10T10:05:02Z</time>
      </trkpt>
      <trkpt lat="43.24307" lon="-0.75562">
        <ele>166.8</ele>
        <time>2022-09-10T10:05:04Z</time>
      </trkpt>
      <trkpt lat="43.2431" lon="-0.75562">
        <ele>166.8</ele>
        <time>2022-09-10T10:05:05Z</time>
      </trkpt>
      <trkpt lat="43.24321" lon="-0.75563">
        <ele>167.2</ele>
        <time>2022-09-10T10:05:09Z</time>
      </trkpt>
      <trkpt lat="43.24322" lon="-0.75562">
        <ele>167.2</ele>
        <time>2022-09-10T10:05:10Z</time>
      </trkpt>
      <trkpt lat="43.24351" lon="-0.75544">
        <ele>168.4</ele>
        <time>2022-09-10T10:05:45Z</time>
      </trkpt>
      <trkpt lat="43.24356" lon="-0.75546">
        <ele>168.8</ele>
        <time>2022-09-10T10:05:48Z</time>
      </trkpt>
      <trkpt lat="43.24358" lon="-0.75547">
        <ele>169.2</ele>
        <time>2022-09-10T10:05:50Z</time>
      </trkpt>
      <trkpt lat="43.24358" lon="-0.75548">
        <ele>169.4</ele>
        <time>2022-09-10T10:05:51Z</time>
      </trkpt>
      <trkpt lat="43.24361" lon="-0.75553">
        <ele>170.6</ele>
        <time>2022-09-10T10:05:56Z</time>
      </trkpt>
      <trkpt lat="43.24405" lon="-0.75565">
        <ele>181.4</ele>
        <time>2022-09-10T10:06:45Z</time>
      </trkpt>
      <trkpt lat="43.24407" lon="-0.75563">
        <ele>181.8</ele>
        <time>2022-09-10T10:06:47Z</time>
      </trkpt>
      <trkpt lat="43.24417" lon="-0.75557">
        <ele>182.2</ele>
        <time>2022-09-10T10:06:54Z</time>
      </trkpt>
      <trkpt lat="43.24422" lon="-0.75556">
        <ele>182.4</ele>
        <time>2022-09-10T10:06:58Z</time>
      </trkpt>
      <trkpt lat="43.24429" lon="-0.75554">
        <ele>182.4</ele>
        <time>2022-09-10T10:07:02Z</time>
      </trkpt>
      <trkpt lat="43.24435" lon="-0.75553">
        <ele>182.2</ele>
        <time>2022-09-10T10:07:05Z</time>
      </trkpt>
      <trkpt lat="43.24441" lon="-0.75556">
        <ele>182</ele>
        <time>2022-09-10T10:07:08Z</time>
      </trkpt>
      <trkpt lat="43.2445" lon="-0.75563">
        <ele>182</ele>
        <time>2022-09-10T10:07:13Z</time>
      </trkpt>
      <trkpt lat="43.24453" lon="-0.75567">
        <ele>182.6</ele>
        <time>2022-09-10T10:07:15Z</time>
      </trkpt>
      <trkpt lat="43.24458" lon="-0.75571">
        <ele>183.4</ele>
        <time>2022-09-10T10:07:18Z</time>
      </trkpt>
      <trkpt lat="43.24461" lon="-0.75574">
        <ele>183.6</ele>
        <time>2022-09-10T10:07:20Z</time>
      </trkpt>
      <trkpt lat="43.24469" lon="-0.75578">
        <ele>184.2</ele>
        <time>2022-09-10T10:07:25Z</time>
      </trkpt>
      <trkpt lat="43.24471" lon="-0.75579">
        <ele>184.4</ele>
        <time>2022-09-10T10:07:26Z</time>
      </trkpt>
      <trkpt lat="43.24476" lon="-0.75581">
        <ele>184.6</ele>
        <time>2022-09-10T10:07:30Z</time>
      </trkpt>
      <trkpt lat="43.24477" lon="-0.75582">
        <ele>184.6</ele>
        <time>2022-09-10T10:07:31Z</time>
      </trkpt>
      <trkpt lat="43.24488" lon="-0.75587">
        <ele>184.8</ele>
        <time>2022-09-10T10:07:37Z</time>
      </trkpt>
      <trkpt lat="43.24499" lon="-0.75601">
        <ele>185</ele>
        <time>2022-09-10T10:07:44Z</time>
      </trkpt>
      <trkpt lat="43.24518" lon="-0.75615">
        <ele>185.4</ele>
        <time>2022-09-10T10:07:50Z</time>
      </trkpt>
      <trkpt lat="43.24529" lon="-0.75626">
        <ele>185.6</ele>
        <time>2022-09-10T10:07:56Z</time>
      </trkpt>
      <trkpt lat="43.24532" lon="-0.75631">
        <ele>185.8</ele>
        <time>2022-09-10T10:07:58Z</time>
      </trkpt>
      <trkpt lat="43.2454" lon="-0.75646">
        <ele>185.8</ele>
        <time>2022-09-10T10:08:02Z</time>
      </trkpt>
      <trkpt lat="43.2454" lon="-0.75662">
        <ele>185.8</ele>
        <time>2022-09-10T10:08:06Z</time>
      </trkpt>
      <trkpt lat="43.24545" lon="-0.75677">
        <ele>185.8</ele>
        <time>2022-09-10T10:08:10Z</time>
      </trkpt>
      <trkpt lat="43.24546" lon="-0.75681">
        <ele>185.8</ele>
        <time>2022-09-10T10:08:11Z</time>
      </trkpt>
      <trkpt lat="43.24551" lon="-0.75691">
        <ele>185.8</ele>
        <time>2022-09-10T10:08:15Z</time>
      </trkpt>
      <trkpt lat="43.24558" lon="-0.75696">
        <ele>186</ele>
        <time>2022-09-10T10:08:20Z</time>
      </trkpt>
      <trkpt lat="43.2456" lon="-0.75706">
        <ele>186.4</ele>
        <time>2022-09-10T10:08:24Z</time>
      </trkpt>
      <trkpt lat="43.24561" lon="-0.75708">
        <ele>186.4</ele>
        <time>2022-09-10T10:08:25Z</time>
      </trkpt>
      <trkpt lat="43.24565" lon="-0.75715">
        <ele>186.4</ele>
        <time>2022-09-10T10:08:28Z</time>
      </trkpt>
      <trkpt lat="43.24569" lon="-0.75719">
        <ele>186.4</ele>
        <time>2022-09-10T10:08:30Z</time>
      </trkpt>
      <trkpt lat="43.24572" lon="-0.75723">
        <ele>186.4</ele>
        <time>2022-09-10T10:08:32Z</time>
      </trkpt>
      <trkpt lat="43.24581" lon="-0.75732">
        <ele>185.8</ele>
        <time>2022-09-10T10:09:36Z</time>
      </trkpt>
      <trkpt lat="43.24594" lon="-0.75743">
        <ele>185.4</ele>
        <time>2022-09-10T10:09:41Z</time>
      </trkpt>
      <trkpt lat="43.24603" lon="-0.75751">
        <ele>185.4</ele>
        <time>2022-09-10T10:09:45Z</time>
      </trkpt>
      <trkpt lat="43.24611" lon="-0.75762">
        <ele>186.6</ele>
        <time>2022-09-10T10:09:51Z</time>
      </trkpt>
      <trkpt lat="43.24612" lon="-0.75764">
        <ele>186.8</ele>
        <time>2022-09-10T10:09:52Z</time>
      </trkpt>
      <trkpt lat="43.24619" lon="-0.75772">
        <ele>188</ele>
        <time>2022-09-10T10:09:57Z</time>
      </trkpt>
      <trkpt lat="43.24621" lon="-0.75774">
        <ele>188.2</ele>
        <time>2022-09-10T10:09:58Z</time>
      </trkpt>
      <trkpt lat="43.24679" lon="-0.75828">
        <ele>193.6</ele>
        <time>2022-09-10T10:10:39Z</time>
      </trkpt>
      <trkpt lat="43.24688" lon="-0.75837">
        <ele>193.8</ele>
        <time>2022-09-10T10:10:45Z</time>
      </trkpt>
      <trkpt lat="43.24702" lon="-0.75856">
        <ele>194.6</ele>
        <time>2022-09-10T10:10:53Z</time>
      </trkpt>
      <trkpt lat="43.24704" lon="-0.75858">
        <ele>194.8</ele>
        <time>2022-09-10T10:10:54Z</time>
      </trkpt>
      <trkpt lat="43.24716" lon="-0.75872">
        <ele>194.8</ele>
        <time>2022-09-10T10:11:00Z</time>
      </trkpt>
      <trkpt lat="43.24724" lon="-0.75886">
        <ele>195.6</ele>
        <time>2022-09-10T10:11:06Z</time>
      </trkpt>
      <trkpt lat="43.24726" lon="-0.75888">
        <ele>195.8</ele>
        <time>2022-09-10T10:11:07Z</time>
      </trkpt>
      <trkpt lat="43.24734" lon="-0.75898">
        <ele>196.8</ele>
        <time>2022-09-10T10:11:13Z</time>
      </trkpt>
      <trkpt lat="43.2474" lon="-0.75902">
        <ele>197.8</ele>
        <time>2022-09-10T10:11:17Z</time>
      </trkpt>
      <trkpt lat="43.24744" lon="-0.75908">
        <ele>198.8</ele>
        <time>2022-09-10T10:11:21Z</time>
      </trkpt>
      <trkpt lat="43.24745" lon="-0.7591">
        <ele>199</ele>
        <time>2022-09-10T10:11:22Z</time>
      </trkpt>
      <trkpt lat="43.24748" lon="-0.75917">
        <ele>200</ele>
        <time>2022-09-10T10:11:26Z</time>
      </trkpt>
      <trkpt lat="43.24749" lon="-0.7592">
        <ele>200.4</ele>
        <time>2022-09-10T10:11:28Z</time>
      </trkpt>
      <trkpt lat="43.2475" lon="-0.75921">
        <ele>200.6</ele>
        <time>2022-09-10T10:11:29Z</time>
      </trkpt>
      <trkpt lat="43.24755" lon="-0.75933">
        <ele>200.6</ele>
        <time>2022-09-10T10:11:35Z</time>
      </trkpt>
      <trkpt lat="43.24758" lon="-0.75939">
        <ele>201</ele>
        <time>2022-09-10T10:11:38Z</time>
      </trkpt>
      <trkpt lat="43.24763" lon="-0.75952">
        <ele>201.2</ele>
        <time>2022-09-10T10:11:43Z</time>
      </trkpt>
      <trkpt lat="43.24773" lon="-0.75973">
        <ele>201.4</ele>
        <time>2022-09-10T10:11:51Z</time>
      </trkpt>
      <trkpt lat="43.24781" lon="-0.75985">
        <ele>200.2</ele>
        <time>2022-09-10T10:11:56Z</time>
      </trkpt>
      <trkpt lat="43.24783" lon="-0.75986">
        <ele>200</ele>
        <time>2022-09-10T10:11:57Z</time>
      </trkpt>
      <trkpt lat="43.24791" lon="-0.75991">
        <ele>199</ele>
        <time>2022-09-10T10:12:00Z</time>
      </trkpt>
      <trkpt lat="43.24793" lon="-0.75993">
        <ele>198.4</ele>
        <time>2022-09-10T10:12:01Z</time>
      </trkpt>
      <trkpt lat="43.24798" lon="-0.75995">
        <ele>197.4</ele>
        <time>2022-09-10T10:12:03Z</time>
      </trkpt>
      <trkpt lat="43.24802" lon="-0.75999">
        <ele>196</ele>
        <time>2022-09-10T10:12:06Z</time>
      </trkpt>
      <trkpt lat="43.24809" lon="-0.76007">
        <ele>194.8</ele>
        <time>2022-09-10T10:12:10Z</time>
      </trkpt>
      <trkpt lat="43.24811" lon="-0.76011">
        <ele>194.6</ele>
        <time>2022-09-10T10:12:11Z</time>
      </trkpt>
      <trkpt lat="43.24813" lon="-0.76013">
        <ele>194</ele>
        <time>2022-09-10T10:12:12Z</time>
      </trkpt>
      <trkpt lat="43.24816" lon="-0.76015">
        <ele>193.6</ele>
        <time>2022-09-10T10:12:13Z</time>
      </trkpt>
      <trkpt lat="43.24819" lon="-0.7602">
        <ele>192.6</ele>
        <time>2022-09-10T10:12:15Z</time>
      </trkpt>
      <trkpt lat="43.24824" lon="-0.76027">
        <ele>191.4</ele>
        <time>2022-09-10T10:12:18Z</time>
      </trkpt>
      <trkpt lat="43.24831" lon="-0.76038">
        <ele>190</ele>
        <time>2022-09-10T10:12:22Z</time>
      </trkpt>
      <trkpt lat="43.24836" lon="-0.76043">
        <ele>188.8</ele>
        <time>2022-09-10T10:12:24Z</time>
      </trkpt>
      <trkpt lat="43.24843" lon="-0.76053">
        <ele>187.6</ele>
        <time>2022-09-10T10:12:27Z</time>
      </trkpt>
      <trkpt lat="43.24847" lon="-0.76059">
        <ele>186.8</ele>
        <time>2022-09-10T10:12:29Z</time>
      </trkpt>
      <trkpt lat="43.24848" lon="-0.76062">
        <ele>186.6</ele>
        <time>2022-09-10T10:12:30Z</time>
      </trkpt>
      <trkpt lat="43.24854" lon="-0.76073">
        <ele>184.8</ele>
        <time>2022-09-10T10:12:52Z</time>
      </trkpt>
      <trkpt lat="43.24857" lon="-0.76077">
        <ele>183.6</ele>
        <time>2022-09-10T10:12:54Z</time>
      </trkpt>
      <trkpt lat="43.24862" lon="-0.76084">
        <ele>182.4</ele>
        <time>2022-09-10T10:12:56Z</time>
      </trkpt>
      <trkpt lat="43.24867" lon="-0.7609">
        <ele>181.2</ele>
        <time>2022-09-10T10:12:58Z</time>
      </trkpt>
      <trkpt lat="43.24868" lon="-0.76093">
        <ele>180.8</ele>
        <time>2022-09-10T10:12:59Z</time>
      </trkpt>
      <trkpt lat="43.24875" lon="-0.76103">
        <ele>179.8</ele>
        <time>2022-09-10T10:13:02Z</time>
      </trkpt>
      <trkpt lat="43.24878" lon="-0.76105">
        <ele>179.2</ele>
        <time>2022-09-10T10:13:03Z</time>
      </trkpt>
      <trkpt lat="43.2488" lon="-0.76107">
        <ele>178.6</ele>
        <time>2022-09-10T10:13:04Z</time>
      </trkpt>
      <trkpt lat="43.24885" lon="-0.76111">
        <ele>177.4</ele>
        <time>2022-09-10T10:13:06Z</time>
      </trkpt>
      <trkpt lat="43.24888" lon="-0.76114">
        <ele>176</ele>
        <time>2022-09-10T10:13:07Z</time>
      </trkpt>
      <trkpt lat="43.24896" lon="-0.76123">
        <ele>174.4</ele>
        <time>2022-09-10T10:13:10Z</time>
      </trkpt>
      <trkpt lat="43.24899" lon="-0.76127">
        <ele>173.6</ele>
        <time>2022-09-10T10:13:12Z</time>
      </trkpt>
      <trkpt lat="43.24901" lon="-0.76128">
        <ele>173.2</ele>
        <time>2022-09-10T10:13:13Z</time>
      </trkpt>
      <trkpt lat="43.24905" lon="-0.76133">
        <ele>172.2</ele>
        <time>2022-09-10T10:13:16Z</time>
      </trkpt>
      <trkpt lat="43.24907" lon="-0.76134">
        <ele>171.8</ele>
        <time>2022-09-10T10:13:17Z</time>
      </trkpt>
      <trkpt lat="43.24909" lon="-0.76137">
        <ele>170.8</ele>
        <time>2022-09-10T10:13:19Z</time>
      </trkpt>
      <trkpt lat="43.24916" lon="-0.76153">
        <ele>162</ele>
        <time>2022-09-10T10:14:05Z</time>
      </trkpt>
      <trkpt lat="43.24934" lon="-0.76202">
        <ele>164.4</ele>
        <time>2022-09-10T10:14:40Z</time>
      </trkpt>
      <trkpt lat="43.24933" lon="-0.76212">
        <ele>164.6</ele>
        <time>2022-09-10T10:14:43Z</time>
      </trkpt>
      <trkpt lat="43.24933" lon="-0.76214">
        <ele>164.4</ele>
        <time>2022-09-10T10:14:44Z</time>
      </trkpt>
      <trkpt lat="43.24931" lon="-0.76219">
        <ele>164.6</ele>
        <time>2022-09-10T10:14:46Z</time>
      </trkpt>
      <trkpt lat="43.24928" lon="-0.76223">
        <ele>164.8</ele>
        <time>2022-09-10T10:14:48Z</time>
      </trkpt>
      <trkpt lat="43.24921" lon="-0.76235">
        <ele>165.4</ele>
        <time>2022-09-10T10:14:55Z</time>
      </trkpt>
      <trkpt lat="43.24921" lon="-0.76235">
        <ele>165.6</ele>
        <time>2022-09-10T10:14:56Z</time>
      </trkpt>
      <trkpt lat="43.24913" lon="-0.76244">
        <ele>166.6</ele>
        <time>2022-09-10T10:15:00Z</time>
      </trkpt>
      <trkpt lat="43.2491" lon="-0.76264">
        <ele>167</ele>
        <time>2022-09-10T10:16:04Z</time>
      </trkpt>
      <trkpt lat="43.24909" lon="-0.76268">
        <ele>167</ele>
        <time>2022-09-10T10:16:05Z</time>
      </trkpt>
      <trkpt lat="43.24902" lon="-0.76287">
        <ele>166.6</ele>
        <time>2022-09-10T10:16:16Z</time>
      </trkpt>
      <trkpt lat="43.24901" lon="-0.76291">
        <ele>166.2</ele>
        <time>2022-09-10T10:16:17Z</time>
      </trkpt>
      <trkpt lat="43.24899" lon="-0.76296">
        <ele>165.4</ele>
        <time>2022-09-10T10:16:19Z</time>
      </trkpt>
      <trkpt lat="43.24895" lon="-0.763">
        <ele>165</ele>
        <time>2022-09-10T10:16:21Z</time>
      </trkpt>
      <trkpt lat="43.24888" lon="-0.76307">
        <ele>165.2</ele>
        <time>2022-09-10T10:16:25Z</time>
      </trkpt>
      <trkpt lat="43.24884" lon="-0.76312">
        <ele>165.6</ele>
        <time>2022-09-10T10:16:27Z</time>
      </trkpt>
      <trkpt lat="43.2488" lon="-0.76319">
        <ele>165.8</ele>
        <time>2022-09-10T10:16:29Z</time>
      </trkpt>
      <trkpt lat="43.24878" lon="-0.76328">
        <ele>165.4</ele>
        <time>2022-09-10T10:16:31Z</time>
      </trkpt>
      <trkpt lat="43.24874" lon="-0.76344">
        <ele>164.2</ele>
        <time>2022-09-10T10:16:36Z</time>
      </trkpt>
      <trkpt lat="43.24874" lon="-0.76344">
        <ele>163.8</ele>
        <time>2022-09-10T10:16:37Z</time>
      </trkpt>
      <trkpt lat="43.24867" lon="-0.76359">
        <ele>163.4</ele>
        <time>2022-09-10T10:16:42Z</time>
      </trkpt>
      <trkpt lat="43.24867" lon="-0.76361">
        <ele>163</ele>
        <time>2022-09-10T10:16:43Z</time>
      </trkpt>
      <trkpt lat="43.24866" lon="-0.76365">
        <ele>163</ele>
        <time>2022-09-10T10:16:44Z</time>
      </trkpt>
      <trkpt lat="43.24865" lon="-0.76368">
        <ele>163.2</ele>
        <time>2022-09-10T10:16:45Z</time>
      </trkpt>
      <trkpt lat="43.24869" lon="-0.7637">
        <ele>164.2</ele>
        <time>2022-09-10T10:16:54Z</time>
      </trkpt>
      <trkpt lat="43.2487" lon="-0.76369">
        <ele>164.2</ele>
        <time>2022-09-10T10:16:55Z</time>
      </trkpt>
      <trkpt lat="43.24876" lon="-0.76362">
        <ele>163.8</ele>
        <time>2022-09-10T10:17:00Z</time>
      </trkpt>
      <trkpt lat="43.24877" lon="-0.7636">
        <ele>163.8</ele>
        <time>2022-09-10T10:17:01Z</time>
      </trkpt>
      <trkpt lat="43.24887" lon="-0.76352">
        <ele>164.2</ele>
        <time>2022-09-10T10:17:07Z</time>
      </trkpt>
      <trkpt lat="43.24901" lon="-0.76344">
        <ele>164.8</ele>
        <time>2022-09-10T10:17:13Z</time>
      </trkpt>
      <trkpt lat="43.24909" lon="-0.76339">
        <ele>165.4</ele>
        <time>2022-09-10T10:17:17Z</time>
      </trkpt>
      <trkpt lat="43.2491" lon="-0.76338">
        <ele>165.4</ele>
        <time>2022-09-10T10:17:18Z</time>
      </trkpt>
      <trkpt lat="43.24921" lon="-0.76332">
        <ele>166.4</ele>
        <time>2022-09-10T10:17:23Z</time>
      </trkpt>
      <trkpt lat="43.24923" lon="-0.7633">
        <ele>166.6</ele>
        <time>2022-09-10T10:17:24Z</time>
      </trkpt>
      <trkpt lat="43.24934" lon="-0.76321">
        <ele>167.6</ele>
        <time>2022-09-10T10:17:30Z</time>
      </trkpt>
      <trkpt lat="43.24945" lon="-0.76317">
        <ele>167.4</ele>
        <time>2022-09-10T10:17:35Z</time>
      </trkpt>
      <trkpt lat="43.24946" lon="-0.76315">
        <ele>167.2</ele>
        <time>2022-09-10T10:17:36Z</time>
      </trkpt>
      <trkpt lat="43.24955" lon="-0.76304">
        <ele>166.2</ele>
        <time>2022-09-10T10:17:40Z</time>
      </trkpt>
      <trkpt lat="43.24958" lon="-0.76302">
        <ele>165.8</ele>
        <time>2022-09-10T10:17:41Z</time>
      </trkpt>
      <trkpt lat="43.24961" lon="-0.76301">
        <ele>165.4</ele>
        <time>2022-09-10T10:17:42Z</time>
      </trkpt>
      <trkpt lat="43.24967" lon="-0.76299">
        <ele>164.8</ele>
        <time>2022-09-10T10:17:44Z</time>
      </trkpt>
      <trkpt lat="43.24973" lon="-0.763">
        <ele>164</ele>
        <time>2022-09-10T10:17:46Z</time>
      </trkpt>
      <trkpt lat="43.24978" lon="-0.76305">
        <ele>163.8</ele>
        <time>2022-09-10T10:17:48Z</time>
      </trkpt>
      <trkpt lat="43.24985" lon="-0.76312">
        <ele>163.2</ele>
        <time>2022-09-10T10:17:51Z</time>
      </trkpt>
      <trkpt lat="43.24995" lon="-0.76322">
        <ele>162.8</ele>
        <time>2022-09-10T10:17:57Z</time>
      </trkpt>
      <trkpt lat="43.24997" lon="-0.76324">
        <ele>162.6</ele>
        <time>2022-09-10T10:17:58Z</time>
      </trkpt>
      <trkpt lat="43.25003" lon="-0.76335">
        <ele>162.8</ele>
        <time>2022-09-10T10:18:02Z</time>
      </trkpt>
      <trkpt lat="43.25013" lon="-0.76352">
        <ele>162.4</ele>
        <time>2022-09-10T10:18:08Z</time>
      </trkpt>
      <trkpt lat="43.25021" lon="-0.76366">
        <ele>161.8</ele>
        <time>2022-09-10T10:18:13Z</time>
      </trkpt>
      <trkpt lat="43.25023" lon="-0.76369">
        <ele>161.6</ele>
        <time>2022-09-10T10:18:14Z</time>
      </trkpt>
      <trkpt lat="43.25031" lon="-0.76385">
        <ele>161</ele>
        <time>2022-09-10T10:18:18Z</time>
      </trkpt>
      <trkpt lat="43.25033" lon="-0.76391">
        <ele>160.2</ele>
        <time>2022-09-10T10:18:19Z</time>
      </trkpt>
      <trkpt lat="43.25035" lon="-0.76406">
        <ele>159.6</ele>
        <time>2022-09-10T10:18:22Z</time>
      </trkpt>
      <trkpt lat="43.25035" lon="-0.76435">
        <ele>160.8</ele>
        <time>2022-09-10T10:18:28Z</time>
      </trkpt>
      <trkpt lat="43.25037" lon="-0.76446">
        <ele>160.6</ele>
        <time>2022-09-10T10:18:32Z</time>
      </trkpt>
      <trkpt lat="43.2504" lon="-0.76454">
        <ele>160</ele>
        <time>2022-09-10T10:18:37Z</time>
      </trkpt>
      <trkpt lat="43.25045" lon="-0.76459">
        <ele>159</ele>
        <time>2022-09-10T10:18:55Z</time>
      </trkpt>
      <trkpt lat="43.25048" lon="-0.76458">
        <ele>159</ele>
        <time>2022-09-10T10:18:56Z</time>
      </trkpt>
      <trkpt lat="43.25074" lon="-0.76442">
        <ele>158.2</ele>
        <time>2022-09-10T10:19:02Z</time>
      </trkpt>
      <trkpt lat="43.25078" lon="-0.76438">
        <ele>158</ele>
        <time>2022-09-10T10:19:03Z</time>
      </trkpt>
      <trkpt lat="43.25092" lon="-0.76427">
        <ele>158.8</ele>
        <time>2022-09-10T10:19:07Z</time>
      </trkpt>
      <trkpt lat="43.25109" lon="-0.76415">
        <ele>159</ele>
        <time>2022-09-10T10:19:12Z</time>
      </trkpt>
      <trkpt lat="43.25115" lon="-0.76411">
        <ele>159.4</ele>
        <time>2022-09-10T10:19:14Z</time>
      </trkpt>
      <trkpt lat="43.25122" lon="-0.76409">
        <ele>160.2</ele>
        <time>2022-09-10T10:19:17Z</time>
      </trkpt>
      <trkpt lat="43.25124" lon="-0.7641">
        <ele>160.6</ele>
        <time>2022-09-10T10:19:18Z</time>
      </trkpt>
      <trkpt lat="43.25132" lon="-0.7642">
        <ele>161.2</ele>
        <time>2022-09-10T10:19:23Z</time>
      </trkpt>
      <trkpt lat="43.25133" lon="-0.76424">
        <ele>161.4</ele>
        <time>2022-09-10T10:19:24Z</time>
      </trkpt>
      <trkpt lat="43.25138" lon="-0.76448">
        <ele>161.8</ele>
        <time>2022-09-10T10:19:29Z</time>
      </trkpt>
      <trkpt lat="43.25142" lon="-0.76495">
        <ele>161.8</ele>
        <time>2022-09-10T10:19:37Z</time>
      </trkpt>
      <trkpt lat="43.25143" lon="-0.76543">
        <ele>162.2</ele>
        <time>2022-09-10T10:19:44Z</time>
      </trkpt>
      <trkpt lat="43.25142" lon="-0.76557">
        <ele>162.4</ele>
        <time>2022-09-10T10:19:46Z</time>
      </trkpt>
      <trkpt lat="43.2514" lon="-0.766">
        <ele>162.6</ele>
        <time>2022-09-10T10:19:52Z</time>
      </trkpt>
      <trkpt lat="43.25137" lon="-0.76664">
        <ele>162.4</ele>
        <time>2022-09-10T10:20:01Z</time>
      </trkpt>
      <trkpt lat="43.25141" lon="-0.76722">
        <ele>162.4</ele>
        <time>2022-09-10T10:20:09Z</time>
      </trkpt>
      <trkpt lat="43.25154" lon="-0.76774">
        <ele>162.8</ele>
        <time>2022-09-10T10:20:17Z</time>
      </trkpt>
      <trkpt lat="43.25163" lon="-0.76818">
        <ele>163</ele>
        <time>2022-09-10T10:20:24Z</time>
      </trkpt>
      <trkpt lat="43.25164" lon="-0.76831">
        <ele>162.8</ele>
        <time>2022-09-10T10:20:26Z</time>
      </trkpt>
      <trkpt lat="43.25167" lon="-0.76863">
        <ele>162.8</ele>
        <time>2022-09-10T10:20:31Z</time>
      </trkpt>
      <trkpt lat="43.2517" lon="-0.76913">
        <ele>163</ele>
        <time>2022-09-10T10:20:39Z</time>
      </trkpt>
      <trkpt lat="43.2518" lon="-0.76962">
        <ele>162.8</ele>
        <time>2022-09-10T10:20:47Z</time>
      </trkpt>
      <trkpt lat="43.25185" lon="-0.76978">
        <ele>162.8</ele>
        <time>2022-09-10T10:20:50Z</time>
      </trkpt>
      <trkpt lat="43.25191" lon="-0.7699">
        <ele>162.8</ele>
        <time>2022-09-10T10:20:53Z</time>
      </trkpt>
      <trkpt lat="43.25192" lon="-0.77">
        <ele>162.6</ele>
        <time>2022-09-10T10:20:57Z</time>
      </trkpt>
      <trkpt lat="43.25196" lon="-0.76997">
        <ele>162.6</ele>
        <time>2022-09-10T10:21:05Z</time>
      </trkpt>
      <trkpt lat="43.25198" lon="-0.76996">
        <ele>162.6</ele>
        <time>2022-09-10T10:21:06Z</time>
      </trkpt>
      <trkpt lat="43.25207" lon="-0.7699">
        <ele>163.6</ele>
        <time>2022-09-10T10:21:12Z</time>
      </trkpt>
      <trkpt lat="43.25215" lon="-0.76982">
        <ele>164.4</ele>
        <time>2022-09-10T10:21:18Z</time>
      </trkpt>
      <trkpt lat="43.25218" lon="-0.76981">
        <ele>164.6</ele>
        <time>2022-09-10T10:21:20Z</time>
      </trkpt>
      <trkpt lat="43.25219" lon="-0.76981">
        <ele>164.6</ele>
        <time>2022-09-10T10:21:21Z</time>
      </trkpt>
      <trkpt lat="43.25221" lon="-0.76982">
        <ele>164.8</ele>
        <time>2022-09-10T10:21:23Z</time>
      </trkpt>
      <trkpt lat="43.25225" lon="-0.7699">
        <ele>165.2</ele>
        <time>2022-09-10T10:22:18Z</time>
      </trkpt>
      <trkpt lat="43.25227" lon="-0.76991">
        <ele>165.2</ele>
        <time>2022-09-10T10:22:19Z</time>
      </trkpt>
      <trkpt lat="43.25231" lon="-0.76996">
        <ele>165.6</ele>
        <time>2022-09-10T10:22:23Z</time>
      </trkpt>
      <trkpt lat="43.25233" lon="-0.76997">
        <ele>165.6</ele>
        <time>2022-09-10T10:22:25Z</time>
      </trkpt>
      <trkpt lat="43.25235" lon="-0.76997">
        <ele>165.6</ele>
        <time>2022-09-10T10:22:26Z</time>
      </trkpt>
      <trkpt lat="43.2524" lon="-0.76999">
        <ele>165.6</ele>
        <time>2022-09-10T10:22:31Z</time>
      </trkpt>
      <trkpt lat="43.25243" lon="-0.77004">
        <ele>165.8</ele>
        <time>2022-09-10T10:22:36Z</time>
      </trkpt>
      <trkpt lat="43.25245" lon="-0.77004">
        <ele>165.8</ele>
        <time>2022-09-10T10:22:38Z</time>
      </trkpt>
      <trkpt lat="43.25245" lon="-0.77007">
        <ele>165.8</ele>
        <time>2022-09-10T10:22:40Z</time>
      </trkpt>
      <trkpt lat="43.2524" lon="-0.77004">
        <ele>165.8</ele>
        <time>2022-09-10T10:23:22Z</time>
      </trkpt>
      <trkpt lat="43.25239" lon="-0.77004">
        <ele>165.8</ele>
        <time>2022-09-10T10:23:23Z</time>
      </trkpt>
      <trkpt lat="43.25233" lon="-0.77">
        <ele>165.6</ele>
        <time>2022-09-10T10:23:27Z</time>
      </trkpt>
      <trkpt lat="43.25232" lon="-0.76999">
        <ele>165.6</ele>
        <time>2022-09-10T10:23:28Z</time>
      </trkpt>
      <trkpt lat="43.25226" lon="-0.76995">
        <ele>165.4</ele>
        <time>2022-09-10T10:23:33Z</time>
      </trkpt>
      <trkpt lat="43.25225" lon="-0.76994">
        <ele>165.4</ele>
        <time>2022-09-10T10:23:34Z</time>
      </trkpt>
      <trkpt lat="43.25221" lon="-0.76984">
        <ele>165</ele>
        <time>2022-09-10T10:23:39Z</time>
      </trkpt>
      <trkpt lat="43.2522" lon="-0.76983">
        <ele>164.4</ele>
        <time>2022-09-10T10:23:41Z</time>
      </trkpt>
      <trkpt lat="43.25214" lon="-0.76983">
        <ele>164.2</ele>
        <time>2022-09-10T10:24:41Z</time>
      </trkpt>
      <trkpt lat="43.252" lon="-0.76991">
        <ele>163.4</ele>
        <time>2022-09-10T10:24:47Z</time>
      </trkpt>
      <trkpt lat="43.25194" lon="-0.77008">
        <ele>162.6</ele>
        <time>2022-09-10T10:24:53Z</time>
      </trkpt>
      <trkpt lat="43.25195" lon="-0.77022">
        <ele>162.6</ele>
        <time>2022-09-10T10:24:57Z</time>
      </trkpt>
      <trkpt lat="43.25198" lon="-0.77033">
        <ele>162.6</ele>
        <time>2022-09-10T10:25:00Z</time>
      </trkpt>
      <trkpt lat="43.25209" lon="-0.77057">
        <ele>162.6</ele>
        <time>2022-09-10T10:25:07Z</time>
      </trkpt>
      <trkpt lat="43.25229" lon="-0.77089">
        <ele>163</ele>
        <time>2022-09-10T10:25:15Z</time>
      </trkpt>
      <trkpt lat="43.25242" lon="-0.77107">
        <ele>163.2</ele>
        <time>2022-09-10T10:25:19Z</time>
      </trkpt>
      <trkpt lat="43.25254" lon="-0.77121">
        <ele>163.4</ele>
        <time>2022-09-10T10:25:22Z</time>
      </trkpt>
      <trkpt lat="43.25267" lon="-0.77133">
        <ele>163.2</ele>
        <time>2022-09-10T10:25:25Z</time>
      </trkpt>
      <trkpt lat="43.25281" lon="-0.77142">
        <ele>163.2</ele>
        <time>2022-09-10T10:25:28Z</time>
      </trkpt>
      <trkpt lat="43.25314" lon="-0.77162">
        <ele>163.6</ele>
        <time>2022-09-10T10:25:35Z</time>
      </trkpt>
      <trkpt lat="43.25319" lon="-0.77164">
        <ele>163.6</ele>
        <time>2022-09-10T10:25:36Z</time>
      </trkpt>
      <trkpt lat="43.25348" lon="-0.7718">
        <ele>163.6</ele>
        <time>2022-09-10T10:25:42Z</time>
      </trkpt>
      <trkpt lat="43.2538" lon="-0.77199">
        <ele>164</ele>
        <time>2022-09-10T10:25:48Z</time>
      </trkpt>
      <trkpt lat="43.25385" lon="-0.77203">
        <ele>164</ele>
        <time>2022-09-10T10:25:49Z</time>
      </trkpt>
      <trkpt lat="43.25404" lon="-0.77224">
        <ele>164.2</ele>
        <time>2022-09-10T10:25:53Z</time>
      </trkpt>
      <trkpt lat="43.25413" lon="-0.77237">
        <ele>164.2</ele>
        <time>2022-09-10T10:25:55Z</time>
      </trkpt>
      <trkpt lat="43.25416" lon="-0.77244">
        <ele>164.6</ele>
        <time>2022-09-10T10:25:56Z</time>
      </trkpt>
      <trkpt lat="43.25428" lon="-0.77285">
        <ele>164.4</ele>
        <time>2022-09-10T10:26:01Z</time>
      </trkpt>
      <trkpt lat="43.25442" lon="-0.77365">
        <ele>165</ele>
        <time>2022-09-10T10:26:10Z</time>
      </trkpt>
      <trkpt lat="43.25438" lon="-0.7741">
        <ele>165.2</ele>
        <time>2022-09-10T10:26:15Z</time>
      </trkpt>
      <trkpt lat="43.25422" lon="-0.77464">
        <ele>164.8</ele>
        <time>2022-09-10T10:26:21Z</time>
      </trkpt>
      <trkpt lat="43.25405" lon="-0.77515">
        <ele>164.4</ele>
        <time>2022-09-10T10:26:27Z</time>
      </trkpt>
      <trkpt lat="43.25382" lon="-0.77584">
        <ele>164.4</ele>
        <time>2022-09-10T10:26:35Z</time>
      </trkpt>
      <trkpt lat="43.25359" lon="-0.77652">
        <ele>164.2</ele>
        <time>2022-09-10T10:26:43Z</time>
      </trkpt>
      <trkpt lat="43.25336" lon="-0.77717">
        <ele>165</ele>
        <time>2022-09-10T10:26:51Z</time>
      </trkpt>
      <trkpt lat="43.25312" lon="-0.77791">
        <ele>165.4</ele>
        <time>2022-09-10T10:27:00Z</time>
      </trkpt>
      <trkpt lat="43.25307" lon="-0.77806">
        <ele>165.2</ele>
        <time>2022-09-10T10:27:02Z</time>
      </trkpt>
      <trkpt lat="43.25282" lon="-0.77869">
        <ele>165.4</ele>
        <time>2022-09-10T10:27:10Z</time>
      </trkpt>
      <trkpt lat="43.25258" lon="-0.779">
        <ele>165.2</ele>
        <time>2022-09-10T10:27:15Z</time>
      </trkpt>
      <trkpt lat="43.25233" lon="-0.77941">
        <ele>165</ele>
        <time>2022-09-10T10:27:21Z</time>
      </trkpt>
      <trkpt lat="43.25216" lon="-0.77987">
        <ele>165.4</ele>
        <time>2022-09-10T10:27:27Z</time>
      </trkpt>
      <trkpt lat="43.25196" lon="-0.7805">
        <ele>165.4</ele>
        <time>2022-09-10T10:27:35Z</time>
      </trkpt>
      <trkpt lat="43.25187" lon="-0.78071">
        <ele>165.8</ele>
        <time>2022-09-10T10:27:38Z</time>
      </trkpt>
      <trkpt lat="43.25175" lon="-0.78091">
        <ele>165.6</ele>
        <time>2022-09-10T10:27:41Z</time>
      </trkpt>
      <trkpt lat="43.25161" lon="-0.78108">
        <ele>165.8</ele>
        <time>2022-09-10T10:27:44Z</time>
      </trkpt>
      <trkpt lat="43.2515" lon="-0.78116">
        <ele>165.6</ele>
        <time>2022-09-10T10:27:46Z</time>
      </trkpt>
      <trkpt lat="43.25102" lon="-0.78142">
        <ele>165.6</ele>
        <time>2022-09-10T10:27:54Z</time>
      </trkpt>
      <trkpt lat="43.25048" lon="-0.78166">
        <ele>166</ele>
        <time>2022-09-10T10:28:03Z</time>
      </trkpt>
      <trkpt lat="43.24995" lon="-0.7819">
        <ele>166.4</ele>
        <time>2022-09-10T10:28:12Z</time>
      </trkpt>
      <trkpt lat="43.24989" lon="-0.78193">
        <ele>166.4</ele>
        <time>2022-09-10T10:28:13Z</time>
      </trkpt>
      <trkpt lat="43.24949" lon="-0.78212">
        <ele>166.8</ele>
        <time>2022-09-10T10:28:20Z</time>
      </trkpt>
      <trkpt lat="43.24937" lon="-0.78218">
        <ele>166.8</ele>
        <time>2022-09-10T10:28:22Z</time>
      </trkpt>
      <trkpt lat="43.24885" lon="-0.78242">
        <ele>167.4</ele>
        <time>2022-09-10T10:28:31Z</time>
      </trkpt>
      <trkpt lat="43.24879" lon="-0.78245">
        <ele>167.6</ele>
        <time>2022-09-10T10:28:32Z</time>
      </trkpt>
      <trkpt lat="43.24845" lon="-0.7827">
        <ele>167.4</ele>
        <time>2022-09-10T10:28:38Z</time>
      </trkpt>
      <trkpt lat="43.24817" lon="-0.78309">
        <ele>167.2</ele>
        <time>2022-09-10T10:28:44Z</time>
      </trkpt>
      <trkpt lat="43.24811" lon="-0.78326">
        <ele>167.2</ele>
        <time>2022-09-10T10:28:46Z</time>
      </trkpt>
      <trkpt lat="43.24804" lon="-0.78351">
        <ele>167.4</ele>
        <time>2022-09-10T10:28:49Z</time>
      </trkpt>
      <trkpt lat="43.248" lon="-0.78386">
        <ele>167.6</ele>
        <time>2022-09-10T10:28:53Z</time>
      </trkpt>
      <trkpt lat="43.24797" lon="-0.78411">
        <ele>167.6</ele>
        <time>2022-09-10T10:28:56Z</time>
      </trkpt>
      <trkpt lat="43.24787" lon="-0.78486">
        <ele>167.8</ele>
        <time>2022-09-10T10:29:05Z</time>
      </trkpt>
      <trkpt lat="43.24778" lon="-0.78561">
        <ele>168</ele>
        <time>2022-09-10T10:29:14Z</time>
      </trkpt>
      <trkpt lat="43.24776" lon="-0.78577">
        <ele>167.8</ele>
        <time>2022-09-10T10:29:16Z</time>
      </trkpt>
      <trkpt lat="43.24769" lon="-0.78632">
        <ele>167.8</ele>
        <time>2022-09-10T10:29:23Z</time>
      </trkpt>
      <trkpt lat="43.24766" lon="-0.78685">
        <ele>167.8</ele>
        <time>2022-09-10T10:29:29Z</time>
      </trkpt>
      <trkpt lat="43.2477" lon="-0.78748">
        <ele>168</ele>
        <time>2022-09-10T10:29:36Z</time>
      </trkpt>
      <trkpt lat="43.24776" lon="-0.78809">
        <ele>168.4</ele>
        <time>2022-09-10T10:29:43Z</time>
      </trkpt>
      <trkpt lat="43.24781" lon="-0.78848">
        <ele>168.4</ele>
        <time>2022-09-10T10:29:48Z</time>
      </trkpt>
      <trkpt lat="43.24782" lon="-0.78856">
        <ele>168.2</ele>
        <time>2022-09-10T10:29:49Z</time>
      </trkpt>
      <trkpt lat="43.24785" lon="-0.78889">
        <ele>168.6</ele>
        <time>2022-09-10T10:29:53Z</time>
      </trkpt>
      <trkpt lat="43.24789" lon="-0.7893">
        <ele>168.8</ele>
        <time>2022-09-10T10:29:58Z</time>
      </trkpt>
      <trkpt lat="43.2479" lon="-0.78937">
        <ele>168.8</ele>
        <time>2022-09-10T10:29:59Z</time>
      </trkpt>
      <trkpt lat="43.24793" lon="-0.78958">
        <ele>169.2</ele>
        <time>2022-09-10T10:30:02Z</time>
      </trkpt>
      <trkpt lat="43.24796" lon="-0.78987">
        <ele>169.2</ele>
        <time>2022-09-10T10:30:06Z</time>
      </trkpt>
      <trkpt lat="43.24797" lon="-0.78994">
        <ele>169.2</ele>
        <time>2022-09-10T10:30:07Z</time>
      </trkpt>
      <trkpt lat="43.24798" lon="-0.79008">
        <ele>169.2</ele>
        <time>2022-09-10T10:30:09Z</time>
      </trkpt>
      <trkpt lat="43.24797" lon="-0.7903">
        <ele>169.4</ele>
        <time>2022-09-10T10:30:12Z</time>
      </trkpt>
      <trkpt lat="43.24796" lon="-0.79061">
        <ele>169.8</ele>
        <time>2022-09-10T10:30:16Z</time>
      </trkpt>
      <trkpt lat="43.24795" lon="-0.79069">
        <ele>169.6</ele>
        <time>2022-09-10T10:30:17Z</time>
      </trkpt>
      <trkpt lat="43.24787" lon="-0.79119">
        <ele>169.8</ele>
        <time>2022-09-10T10:30:23Z</time>
      </trkpt>
      <trkpt lat="43.2478" lon="-0.79149">
        <ele>170.2</ele>
        <time>2022-09-10T10:30:26Z</time>
      </trkpt>
      <trkpt lat="43.2477" lon="-0.79174">
        <ele>170.4</ele>
        <time>2022-09-10T10:30:29Z</time>
      </trkpt>
      <trkpt lat="43.24746" lon="-0.79217">
        <ele>170.8</ele>
        <time>2022-09-10T10:30:35Z</time>
      </trkpt>
      <trkpt lat="43.24715" lon="-0.79252">
        <ele>170.4</ele>
        <time>2022-09-10T10:30:41Z</time>
      </trkpt>
      <trkpt lat="43.24709" lon="-0.79256">
        <ele>170.6</ele>
        <time>2022-09-10T10:30:42Z</time>
      </trkpt>
      <trkpt lat="43.24679" lon="-0.79278">
        <ele>170.4</ele>
        <time>2022-09-10T10:30:47Z</time>
      </trkpt>
      <trkpt lat="43.24634" lon="-0.79299">
        <ele>170.6</ele>
        <time>2022-09-10T10:30:54Z</time>
      </trkpt>
      <trkpt lat="43.2458" lon="-0.79316">
        <ele>170.4</ele>
        <time>2022-09-10T10:31:02Z</time>
      </trkpt>
      <trkpt lat="43.24574" lon="-0.79318">
        <ele>170.4</ele>
        <time>2022-09-10T10:31:03Z</time>
      </trkpt>
      <trkpt lat="43.24521" lon="-0.79334">
        <ele>171</ele>
        <time>2022-09-10T10:31:11Z</time>
      </trkpt>
      <trkpt lat="43.24478" lon="-0.7935">
        <ele>171.4</ele>
        <time>2022-09-10T10:31:18Z</time>
      </trkpt>
      <trkpt lat="43.24472" lon="-0.79354">
        <ele>171.4</ele>
        <time>2022-09-10T10:31:19Z</time>
      </trkpt>
      <trkpt lat="43.24453" lon="-0.79377">
        <ele>171.6</ele>
        <time>2022-09-10T10:31:23Z</time>
      </trkpt>
      <trkpt lat="43.2444" lon="-0.79408">
        <ele>171.8</ele>
        <time>2022-09-10T10:31:27Z</time>
      </trkpt>
      <trkpt lat="43.24437" lon="-0.79444">
        <ele>171.6</ele>
        <time>2022-09-10T10:31:31Z</time>
      </trkpt>
      <trkpt lat="43.24444" lon="-0.79479">
        <ele>172.2</ele>
        <time>2022-09-10T10:31:35Z</time>
      </trkpt>
      <trkpt lat="43.24447" lon="-0.79487">
        <ele>172.6</ele>
        <time>2022-09-10T10:31:36Z</time>
      </trkpt>
      <trkpt lat="43.24464" lon="-0.79516">
        <ele>172.8</ele>
        <time>2022-09-10T10:31:40Z</time>
      </trkpt>
      <trkpt lat="43.24505" lon="-0.79574">
        <ele>172.8</ele>
        <time>2022-09-10T10:31:49Z</time>
      </trkpt>
      <trkpt lat="43.24542" lon="-0.79632">
        <ele>173.2</ele>
        <time>2022-09-10T10:31:58Z</time>
      </trkpt>
      <trkpt lat="43.24577" lon="-0.79685">
        <ele>172.8</ele>
        <time>2022-09-10T10:32:06Z</time>
      </trkpt>
      <trkpt lat="43.24603" lon="-0.79733">
        <ele>173.2</ele>
        <time>2022-09-10T10:32:13Z</time>
      </trkpt>
      <trkpt lat="43.24624" lon="-0.79786">
        <ele>173.8</ele>
        <time>2022-09-10T10:32:20Z</time>
      </trkpt>
      <trkpt lat="43.2464" lon="-0.79854">
        <ele>174.4</ele>
        <time>2022-09-10T10:32:28Z</time>
      </trkpt>
      <trkpt lat="43.24644" lon="-0.79914">
        <ele>174.2</ele>
        <time>2022-09-10T10:32:35Z</time>
      </trkpt>
      <trkpt lat="43.24641" lon="-0.79949">
        <ele>174.8</ele>
        <time>2022-09-10T10:32:39Z</time>
      </trkpt>
      <trkpt lat="43.24639" lon="-0.79975">
        <ele>174.6</ele>
        <time>2022-09-10T10:32:42Z</time>
      </trkpt>
      <trkpt lat="43.24623" lon="-0.80041">
        <ele>174</ele>
        <time>2022-09-10T10:32:50Z</time>
      </trkpt>
      <trkpt lat="43.2462" lon="-0.80049">
        <ele>173.6</ele>
        <time>2022-09-10T10:32:51Z</time>
      </trkpt>
      <trkpt lat="43.24606" lon="-0.80086">
        <ele>174.2</ele>
        <time>2022-09-10T10:32:56Z</time>
      </trkpt>
      <trkpt lat="43.24576" lon="-0.80143">
        <ele>174</ele>
        <time>2022-09-10T10:33:04Z</time>
      </trkpt>
      <trkpt lat="43.24549" lon="-0.80191">
        <ele>174.4</ele>
        <time>2022-09-10T10:33:11Z</time>
      </trkpt>
      <trkpt lat="43.24534" lon="-0.80219">
        <ele>174.6</ele>
        <time>2022-09-10T10:33:15Z</time>
      </trkpt>
      <trkpt lat="43.24518" lon="-0.80247">
        <ele>174.6</ele>
        <time>2022-09-10T10:33:19Z</time>
      </trkpt>
      <trkpt lat="43.2449" lon="-0.80297">
        <ele>174.8</ele>
        <time>2022-09-10T10:33:26Z</time>
      </trkpt>
      <trkpt lat="43.24459" lon="-0.80355">
        <ele>175.2</ele>
        <time>2022-09-10T10:33:34Z</time>
      </trkpt>
      <trkpt lat="43.24426" lon="-0.80415">
        <ele>174.8</ele>
        <time>2022-09-10T10:33:42Z</time>
      </trkpt>
      <trkpt lat="43.24405" lon="-0.80463">
        <ele>175</ele>
        <time>2022-09-10T10:33:48Z</time>
      </trkpt>
      <trkpt lat="43.24402" lon="-0.80472">
        <ele>175</ele>
        <time>2022-09-10T10:33:49Z</time>
      </trkpt>
      <trkpt lat="43.24398" lon="-0.80502">
        <ele>175</ele>
        <time>2022-09-10T10:33:52Z</time>
      </trkpt>
      <trkpt lat="43.24397" lon="-0.80522">
        <ele>175.2</ele>
        <time>2022-09-10T10:33:54Z</time>
      </trkpt>
      <trkpt lat="43.244" lon="-0.80583">
        <ele>175.4</ele>
        <time>2022-09-10T10:34:00Z</time>
      </trkpt>
      <trkpt lat="43.24401" lon="-0.80643">
        <ele>175.2</ele>
        <time>2022-09-10T10:34:06Z</time>
      </trkpt>
      <trkpt lat="43.24396" lon="-0.80694">
        <ele>175</ele>
        <time>2022-09-10T10:34:11Z</time>
      </trkpt>
      <trkpt lat="43.24394" lon="-0.80705">
        <ele>175</ele>
        <time>2022-09-10T10:34:12Z</time>
      </trkpt>
      <trkpt lat="43.24385" lon="-0.80746">
        <ele>176</ele>
        <time>2022-09-10T10:34:16Z</time>
      </trkpt>
      <trkpt lat="43.24378" lon="-0.80777">
        <ele>175.6</ele>
        <time>2022-09-10T10:34:19Z</time>
      </trkpt>
      <trkpt lat="43.24361" lon="-0.80838">
        <ele>174.8</ele>
        <time>2022-09-10T10:34:25Z</time>
      </trkpt>
      <trkpt lat="43.24352" lon="-0.80869">
        <ele>174.4</ele>
        <time>2022-09-10T10:34:28Z</time>
      </trkpt>
      <trkpt lat="43.24333" lon="-0.80939">
        <ele>174.4</ele>
        <time>2022-09-10T10:34:35Z</time>
      </trkpt>
      <trkpt lat="43.2433" lon="-0.80948">
        <ele>174.4</ele>
        <time>2022-09-10T10:34:36Z</time>
      </trkpt>
      <trkpt lat="43.24306" lon="-0.81001">
        <ele>175.2</ele>
        <time>2022-09-10T10:34:42Z</time>
      </trkpt>
      <trkpt lat="43.2427" lon="-0.81068">
        <ele>174.2</ele>
        <time>2022-09-10T10:34:50Z</time>
      </trkpt>
      <trkpt lat="43.24263" lon="-0.81086">
        <ele>174.6</ele>
        <time>2022-09-10T10:34:52Z</time>
      </trkpt>
      <trkpt lat="43.24256" lon="-0.81114">
        <ele>174.6</ele>
        <time>2022-09-10T10:34:55Z</time>
      </trkpt>
      <trkpt lat="43.24243" lon="-0.81167">
        <ele>175.6</ele>
        <time>2022-09-10T10:35:01Z</time>
      </trkpt>
      <trkpt lat="43.24234" lon="-0.81199">
        <ele>175.8</ele>
        <time>2022-09-10T10:35:05Z</time>
      </trkpt>
      <trkpt lat="43.24232" lon="-0.81207">
        <ele>175.8</ele>
        <time>2022-09-10T10:35:06Z</time>
      </trkpt>
      <trkpt lat="43.24222" lon="-0.81238">
        <ele>177</ele>
        <time>2022-09-10T10:35:10Z</time>
      </trkpt>
      <trkpt lat="43.24212" lon="-0.8126">
        <ele>177</ele>
        <time>2022-09-10T10:35:13Z</time>
      </trkpt>
      <trkpt lat="43.24188" lon="-0.81302">
        <ele>177</ele>
        <time>2022-09-10T10:35:19Z</time>
      </trkpt>
      <trkpt lat="43.2415" lon="-0.81359">
        <ele>177</ele>
        <time>2022-09-10T10:35:27Z</time>
      </trkpt>
      <trkpt lat="43.24125" lon="-0.81402">
        <ele>176.8</ele>
        <time>2022-09-10T10:35:34Z</time>
      </trkpt>
      <trkpt lat="43.24115" lon="-0.81424">
        <ele>176.6</ele>
        <time>2022-09-10T10:35:37Z</time>
      </trkpt>
      <trkpt lat="43.24103" lon="-0.81456">
        <ele>177</ele>
        <time>2022-09-10T10:35:41Z</time>
      </trkpt>
      <trkpt lat="43.2408" lon="-0.81527">
        <ele>177.4</ele>
        <time>2022-09-10T10:35:50Z</time>
      </trkpt>
      <trkpt lat="43.24054" lon="-0.81601">
        <ele>178</ele>
        <time>2022-09-10T10:35:59Z</time>
      </trkpt>
      <trkpt lat="43.2403" lon="-0.81636">
        <ele>178.4</ele>
        <time>2022-09-10T10:36:04Z</time>
      </trkpt>
      <trkpt lat="43.24002" lon="-0.81671">
        <ele>178.8</ele>
        <time>2022-09-10T10:36:10Z</time>
      </trkpt>
      <trkpt lat="43.23979" lon="-0.81698">
        <ele>178.8</ele>
        <time>2022-09-10T10:36:15Z</time>
      </trkpt>
      <trkpt lat="43.2396" lon="-0.81721">
        <ele>179</ele>
        <time>2022-09-10T10:36:19Z</time>
      </trkpt>
      <trkpt lat="43.23947" lon="-0.81738">
        <ele>178.8</ele>
        <time>2022-09-10T10:36:22Z</time>
      </trkpt>
      <trkpt lat="43.23943" lon="-0.81744">
        <ele>178.8</ele>
        <time>2022-09-10T10:36:23Z</time>
      </trkpt>
      <trkpt lat="43.23931" lon="-0.81763">
        <ele>179.6</ele>
        <time>2022-09-10T10:36:26Z</time>
      </trkpt>
      <trkpt lat="43.23907" lon="-0.81801">
        <ele>179.4</ele>
        <time>2022-09-10T10:36:32Z</time>
      </trkpt>
      <trkpt lat="43.23874" lon="-0.81856">
        <ele>180</ele>
        <time>2022-09-10T10:36:40Z</time>
      </trkpt>
      <trkpt lat="43.23862" lon="-0.81876">
        <ele>180.2</ele>
        <time>2022-09-10T10:36:43Z</time>
      </trkpt>
      <trkpt lat="43.23846" lon="-0.81903">
        <ele>180</ele>
        <time>2022-09-10T10:36:47Z</time>
      </trkpt>
      <trkpt lat="43.23819" lon="-0.8194">
        <ele>180.4</ele>
        <time>2022-09-10T10:36:53Z</time>
      </trkpt>
      <trkpt lat="43.23794" lon="-0.81969">
        <ele>181.4</ele>
        <time>2022-09-10T10:36:58Z</time>
      </trkpt>
      <trkpt lat="43.23778" lon="-0.81985">
        <ele>181.4</ele>
        <time>2022-09-10T10:37:01Z</time>
      </trkpt>
      <trkpt lat="43.23735" lon="-0.82022">
        <ele>181.8</ele>
        <time>2022-09-10T10:37:09Z</time>
      </trkpt>
      <trkpt lat="43.23706" lon="-0.82048">
        <ele>182.2</ele>
        <time>2022-09-10T10:37:15Z</time>
      </trkpt>
      <trkpt lat="43.23701" lon="-0.82052">
        <ele>182.4</ele>
        <time>2022-09-10T10:37:16Z</time>
      </trkpt>
      <trkpt lat="43.23672" lon="-0.82078">
        <ele>183.2</ele>
        <time>2022-09-10T10:37:22Z</time>
      </trkpt>
      <trkpt lat="43.23653" lon="-0.82097">
        <ele>183.4</ele>
        <time>2022-09-10T10:37:26Z</time>
      </trkpt>
      <trkpt lat="43.23631" lon="-0.82126">
        <ele>184</ele>
        <time>2022-09-10T10:37:31Z</time>
      </trkpt>
      <trkpt lat="43.23615" lon="-0.8215">
        <ele>184.4</ele>
        <time>2022-09-10T10:37:35Z</time>
      </trkpt>
      <trkpt lat="43.23604" lon="-0.82168">
        <ele>184.4</ele>
        <time>2022-09-10T10:37:38Z</time>
      </trkpt>
      <trkpt lat="43.23576" lon="-0.82221">
        <ele>184.2</ele>
        <time>2022-09-10T10:37:46Z</time>
      </trkpt>
      <trkpt lat="43.23547" lon="-0.82282">
        <ele>183.4</ele>
        <time>2022-09-10T10:37:54Z</time>
      </trkpt>
      <trkpt lat="43.23524" lon="-0.82346">
        <ele>183</ele>
        <time>2022-09-10T10:38:01Z</time>
      </trkpt>
      <trkpt lat="43.23511" lon="-0.82407">
        <ele>182.8</ele>
        <time>2022-09-10T10:38:07Z</time>
      </trkpt>
      <trkpt lat="43.23499" lon="-0.82486">
        <ele>182.6</ele>
        <time>2022-09-10T10:38:15Z</time>
      </trkpt>
      <trkpt lat="43.23497" lon="-0.82496">
        <ele>182.6</ele>
        <time>2022-09-10T10:38:16Z</time>
      </trkpt>
      <trkpt lat="43.23492" lon="-0.82525">
        <ele>182.4</ele>
        <time>2022-09-10T10:38:19Z</time>
      </trkpt>
      <trkpt lat="43.23489" lon="-0.82535">
        <ele>182.2</ele>
        <time>2022-09-10T10:38:20Z</time>
      </trkpt>
      <trkpt lat="43.23482" lon="-0.82552">
        <ele>182.6</ele>
        <time>2022-09-10T10:38:22Z</time>
      </trkpt>
      <trkpt lat="43.2347" lon="-0.82577">
        <ele>183</ele>
        <time>2022-09-10T10:38:25Z</time>
      </trkpt>
      <trkpt lat="43.2346" lon="-0.82591">
        <ele>183</ele>
        <time>2022-09-10T10:38:27Z</time>
      </trkpt>
      <trkpt lat="43.23448" lon="-0.82603">
        <ele>183.2</ele>
        <time>2022-09-10T10:38:29Z</time>
      </trkpt>
      <trkpt lat="43.2343" lon="-0.82618">
        <ele>183.2</ele>
        <time>2022-09-10T10:38:32Z</time>
      </trkpt>
      <trkpt lat="43.23423" lon="-0.82621">
        <ele>183.4</ele>
        <time>2022-09-10T10:38:33Z</time>
      </trkpt>
      <trkpt lat="43.23409" lon="-0.82628">
        <ele>183.4</ele>
        <time>2022-09-10T10:38:35Z</time>
      </trkpt>
      <trkpt lat="43.23395" lon="-0.82631">
        <ele>183.4</ele>
        <time>2022-09-10T10:38:37Z</time>
      </trkpt>
      <trkpt lat="43.23349" lon="-0.82639">
        <ele>184</ele>
        <time>2022-09-10T10:38:44Z</time>
      </trkpt>
      <trkpt lat="43.23337" lon="-0.82644">
        <ele>184.4</ele>
        <time>2022-09-10T10:38:46Z</time>
      </trkpt>
      <trkpt lat="43.23331" lon="-0.82648">
        <ele>184.6</ele>
        <time>2022-09-10T10:38:47Z</time>
      </trkpt>
      <trkpt lat="43.2332" lon="-0.82657">
        <ele>185</ele>
        <time>2022-09-10T10:38:49Z</time>
      </trkpt>
      <trkpt lat="43.2331" lon="-0.82667">
        <ele>185.4</ele>
        <time>2022-09-10T10:38:51Z</time>
      </trkpt>
      <trkpt lat="43.23292" lon="-0.82688">
        <ele>186</ele>
        <time>2022-09-10T10:38:55Z</time>
      </trkpt>
      <trkpt lat="43.23276" lon="-0.82707">
        <ele>186.4</ele>
        <time>2022-09-10T10:38:59Z</time>
      </trkpt>
      <trkpt lat="43.23265" lon="-0.82721">
        <ele>186.8</ele>
        <time>2022-09-10T10:39:02Z</time>
      </trkpt>
      <trkpt lat="43.23244" lon="-0.82747">
        <ele>187.6</ele>
        <time>2022-09-10T10:39:08Z</time>
      </trkpt>
      <trkpt lat="43.23238" lon="-0.82754">
        <ele>188</ele>
        <time>2022-09-10T10:39:10Z</time>
      </trkpt>
      <trkpt lat="43.23229" lon="-0.82769">
        <ele>188.6</ele>
        <time>2022-09-10T10:39:14Z</time>
      </trkpt>
      <trkpt lat="43.23221" lon="-0.82779">
        <ele>189.2</ele>
        <time>2022-09-10T10:39:17Z</time>
      </trkpt>
      <trkpt lat="43.23217" lon="-0.82786">
        <ele>189.6</ele>
        <time>2022-09-10T10:39:19Z</time>
      </trkpt>
      <trkpt lat="43.23205" lon="-0.82803">
        <ele>190.8</ele>
        <time>2022-09-10T10:39:25Z</time>
      </trkpt>
      <trkpt lat="43.23203" lon="-0.82805">
        <ele>191</ele>
        <time>2022-09-10T10:39:26Z</time>
      </trkpt>
      <trkpt lat="43.23194" lon="-0.82819">
        <ele>191.8</ele>
        <time>2022-09-10T10:39:31Z</time>
      </trkpt>
      <trkpt lat="43.23188" lon="-0.82828">
        <ele>192.8</ele>
        <time>2022-09-10T10:39:34Z</time>
      </trkpt>
      <trkpt lat="43.23186" lon="-0.8283">
        <ele>193</ele>
        <time>2022-09-10T10:39:35Z</time>
      </trkpt>
      <trkpt lat="43.23177" lon="-0.82846">
        <ele>194</ele>
        <time>2022-09-10T10:39:41Z</time>
      </trkpt>
      <trkpt lat="43.23175" lon="-0.82848">
        <ele>194</ele>
        <time>2022-09-10T10:39:42Z</time>
      </trkpt>
      <trkpt lat="43.23167" lon="-0.82858">
        <ele>195</ele>
        <time>2022-09-10T10:39:47Z</time>
      </trkpt>
      <trkpt lat="43.23164" lon="-0.82863">
        <ele>195.2</ele>
        <time>2022-09-10T10:39:49Z</time>
      </trkpt>
      <trkpt lat="43.23158" lon="-0.82873">
        <ele>195.8</ele>
        <time>2022-09-10T10:39:53Z</time>
      </trkpt>
      <trkpt lat="43.23153" lon="-0.82879">
        <ele>196.2</ele>
        <time>2022-09-10T10:39:56Z</time>
      </trkpt>
      <trkpt lat="43.23146" lon="-0.82889">
        <ele>197.4</ele>
        <time>2022-09-10T10:40:01Z</time>
      </trkpt>
      <trkpt lat="43.23142" lon="-0.82894">
        <ele>197.6</ele>
        <time>2022-09-10T10:40:03Z</time>
      </trkpt>
      <trkpt lat="43.23131" lon="-0.82905">
        <ele>198.4</ele>
        <time>2022-09-10T10:40:09Z</time>
      </trkpt>
      <trkpt lat="43.23129" lon="-0.82907">
        <ele>198.4</ele>
        <time>2022-09-10T10:40:10Z</time>
      </trkpt>
      <trkpt lat="43.23113" lon="-0.82922">
        <ele>199</ele>
        <time>2022-09-10T10:40:17Z</time>
      </trkpt>
      <trkpt lat="43.23101" lon="-0.8293">
        <ele>199.6</ele>
        <time>2022-09-10T10:40:22Z</time>
      </trkpt>
      <trkpt lat="43.23097" lon="-0.82935">
        <ele>199.6</ele>
        <time>2022-09-10T10:40:24Z</time>
      </trkpt>
      <trkpt lat="43.23076" lon="-0.82954">
        <ele>200.2</ele>
        <time>2022-09-10T10:40:32Z</time>
      </trkpt>
      <trkpt lat="43.23056" lon="-0.82971">
        <ele>200.6</ele>
        <time>2022-09-10T10:40:39Z</time>
      </trkpt>
      <trkpt lat="43.23053" lon="-0.82973">
        <ele>200.8</ele>
        <time>2022-09-10T10:40:40Z</time>
      </trkpt>
      <trkpt lat="43.2303" lon="-0.82994">
        <ele>201.6</ele>
        <time>2022-09-10T10:40:48Z</time>
      </trkpt>
      <trkpt lat="43.23028" lon="-0.82997">
        <ele>201.8</ele>
        <time>2022-09-10T10:40:49Z</time>
      </trkpt>
      <trkpt lat="43.23007" lon="-0.8302">
        <ele>202.2</ele>
        <time>2022-09-10T10:40:57Z</time>
      </trkpt>
      <trkpt lat="43.22999" lon="-0.83026">
        <ele>202.6</ele>
        <time>2022-09-10T10:41:00Z</time>
      </trkpt>
      <trkpt lat="43.22995" lon="-0.83027">
        <ele>202.8</ele>
        <time>2022-09-10T10:41:01Z</time>
      </trkpt>
      <trkpt lat="43.22984" lon="-0.83039">
        <ele>203</ele>
        <time>2022-09-10T10:41:06Z</time>
      </trkpt>
      <trkpt lat="43.22977" lon="-0.83055">
        <ele>203.4</ele>
        <time>2022-09-10T10:41:13Z</time>
      </trkpt>
      <trkpt lat="43.22971" lon="-0.83063">
        <ele>203.8</ele>
        <time>2022-09-10T10:41:44Z</time>
      </trkpt>
      <trkpt lat="43.22966" lon="-0.83069">
        <ele>203.8</ele>
        <time>2022-09-10T10:42:14Z</time>
      </trkpt>
      <trkpt lat="43.22964" lon="-0.83071">
        <ele>203.6</ele>
        <time>2022-09-10T10:42:15Z</time>
      </trkpt>
      <trkpt lat="43.22956" lon="-0.83083">
        <ele>203.6</ele>
        <time>2022-09-10T10:42:21Z</time>
      </trkpt>
      <trkpt lat="43.22971" lon="-0.83061">
        <ele>204.4</ele>
        <time>2022-09-10T10:50:34Z</time>
      </trkpt>
      <trkpt lat="43.2297" lon="-0.83062">
        <ele>204.2</ele>
        <time>2022-09-10T10:50:35Z</time>
      </trkpt>
      <trkpt lat="43.22971" lon="-0.83063">
        <ele>204.4</ele>
        <time>2022-09-10T10:50:39Z</time>
      </trkpt>
      <trkpt lat="43.22972" lon="-0.83061">
        <ele>204.4</ele>
        <time>2022-09-10T10:50:40Z</time>
      </trkpt>
      <trkpt lat="43.22982" lon="-0.83049">
        <ele>204.2</ele>
        <time>2022-09-10T10:50:47Z</time>
      </trkpt>
      <trkpt lat="43.2298" lon="-0.83046">
        <ele>204</ele>
        <time>2022-09-10T10:50:48Z</time>
      </trkpt>
      <trkpt lat="43.22975" lon="-0.83047">
        <ele>203.4</ele>
        <time>2022-09-10T10:50:50Z</time>
      </trkpt>
      <trkpt lat="43.22969" lon="-0.83054">
        <ele>202.8</ele>
        <time>2022-09-10T10:50:52Z</time>
      </trkpt>
      <trkpt lat="43.22961" lon="-0.83061">
        <ele>202.2</ele>
        <time>2022-09-10T10:50:54Z</time>
      </trkpt>
      <trkpt lat="43.22946" lon="-0.83072">
        <ele>201.8</ele>
        <time>2022-09-10T10:50:57Z</time>
      </trkpt>
      <trkpt lat="43.22935" lon="-0.83081">
        <ele>201.2</ele>
        <time>2022-09-10T10:50:59Z</time>
      </trkpt>
      <trkpt lat="43.22924" lon="-0.8309">
        <ele>200.6</ele>
        <time>2022-09-10T10:51:01Z</time>
      </trkpt>
      <trkpt lat="43.2291" lon="-0.83106">
        <ele>200</ele>
        <time>2022-09-10T10:51:04Z</time>
      </trkpt>
      <trkpt lat="43.22905" lon="-0.83113">
        <ele>199.8</ele>
        <time>2022-09-10T10:51:05Z</time>
      </trkpt>
      <trkpt lat="43.22896" lon="-0.83127">
        <ele>199.6</ele>
        <time>2022-09-10T10:51:07Z</time>
      </trkpt>
      <trkpt lat="43.22882" lon="-0.83146">
        <ele>199.2</ele>
        <time>2022-09-10T10:51:10Z</time>
      </trkpt>
      <trkpt lat="43.22877" lon="-0.8315">
        <ele>199</ele>
        <time>2022-09-10T10:51:11Z</time>
      </trkpt>
      <trkpt lat="43.22863" lon="-0.83147">
        <ele>199.2</ele>
        <time>2022-09-10T10:51:14Z</time>
      </trkpt>
      <trkpt lat="43.22854" lon="-0.83134">
        <ele>199</ele>
        <time>2022-09-10T10:51:17Z</time>
      </trkpt>
      <trkpt lat="43.22852" lon="-0.8313">
        <ele>199</ele>
        <time>2022-09-10T10:51:18Z</time>
      </trkpt>
      <trkpt lat="43.2283" lon="-0.831">
        <ele>200</ele>
        <time>2022-09-10T10:51:26Z</time>
      </trkpt>
      <trkpt lat="43.22824" lon="-0.83096">
        <ele>200.6</ele>
        <time>2022-09-10T10:51:29Z</time>
      </trkpt>
      <trkpt lat="43.22819" lon="-0.83094">
        <ele>201.2</ele>
        <time>2022-09-10T10:51:31Z</time>
      </trkpt>
      <trkpt lat="43.22815" lon="-0.83091">
        <ele>201.8</ele>
        <time>2022-09-10T10:51:33Z</time>
      </trkpt>
      <trkpt lat="43.22809" lon="-0.83089">
        <ele>202.8</ele>
        <time>2022-09-10T10:51:36Z</time>
      </trkpt>
      <trkpt lat="43.22806" lon="-0.83087">
        <ele>203.2</ele>
        <time>2022-09-10T10:51:38Z</time>
      </trkpt>
      <trkpt lat="43.228" lon="-0.83086">
        <ele>203.8</ele>
        <time>2022-09-10T10:51:41Z</time>
      </trkpt>
      <trkpt lat="43.22795" lon="-0.83084">
        <ele>204.4</ele>
        <time>2022-09-10T10:51:44Z</time>
      </trkpt>
      <trkpt lat="43.22789" lon="-0.83081">
        <ele>205</ele>
        <time>2022-09-10T10:51:48Z</time>
      </trkpt>
      <trkpt lat="43.22782" lon="-0.83076">
        <ele>205.6</ele>
        <time>2022-09-10T10:51:52Z</time>
      </trkpt>
      <trkpt lat="43.2278" lon="-0.83074">
        <ele>206.2</ele>
        <time>2022-09-10T10:51:54Z</time>
      </trkpt>
      <trkpt lat="43.22771" lon="-0.83067">
        <ele>207</ele>
        <time>2022-09-10T10:51:59Z</time>
      </trkpt>
      <trkpt lat="43.22766" lon="-0.83063">
        <ele>207.2</ele>
        <time>2022-09-10T10:52:02Z</time>
      </trkpt>
      <trkpt lat="43.22752" lon="-0.83052">
        <ele>207.6</ele>
        <time>2022-09-10T10:52:09Z</time>
      </trkpt>
      <trkpt lat="43.22744" lon="-0.83044">
        <ele>208.2</ele>
        <time>2022-09-10T10:52:13Z</time>
      </trkpt>
      <trkpt lat="43.22734" lon="-0.83039">
        <ele>208.6</ele>
        <time>2022-09-10T10:52:17Z</time>
      </trkpt>
      <trkpt lat="43.2272" lon="-0.83029">
        <ele>209.2</ele>
        <time>2022-09-10T10:52:23Z</time>
      </trkpt>
      <trkpt lat="43.22717" lon="-0.83028">
        <ele>209.2</ele>
        <time>2022-09-10T10:52:24Z</time>
      </trkpt>
      <trkpt lat="43.22701" lon="-0.83018">
        <ele>209.4</ele>
        <time>2022-09-10T10:52:30Z</time>
      </trkpt>
      <trkpt lat="43.22692" lon="-0.83014">
        <ele>209.4</ele>
        <time>2022-09-10T10:52:33Z</time>
      </trkpt>
      <trkpt lat="43.22669" lon="-0.83004">
        <ele>209</ele>
        <time>2022-09-10T10:52:40Z</time>
      </trkpt>
      <trkpt lat="43.22631" lon="-0.82993">
        <ele>208.4</ele>
        <time>2022-09-10T10:52:50Z</time>
      </trkpt>
      <trkpt lat="43.226" lon="-0.82989">
        <ele>208.6</ele>
        <time>2022-09-10T10:52:57Z</time>
      </trkpt>
      <trkpt lat="43.22562" lon="-0.82992">
        <ele>208.8</ele>
        <time>2022-09-10T10:53:06Z</time>
      </trkpt>
      <trkpt lat="43.22543" lon="-0.82995">
        <ele>208.2</ele>
        <time>2022-09-10T10:53:10Z</time>
      </trkpt>
      <trkpt lat="43.22538" lon="-0.82997">
        <ele>208</ele>
        <time>2022-09-10T10:53:11Z</time>
      </trkpt>
      <trkpt lat="43.22533" lon="-0.82999">
        <ele>207.8</ele>
        <time>2022-09-10T10:53:12Z</time>
      </trkpt>
      <trkpt lat="43.22505" lon="-0.83016">
        <ele>208</ele>
        <time>2022-09-10T10:53:18Z</time>
      </trkpt>
      <trkpt lat="43.22485" lon="-0.83033">
        <ele>209.4</ele>
        <time>2022-09-10T10:53:24Z</time>
      </trkpt>
      <trkpt lat="43.22462" lon="-0.83055">
        <ele>209.6</ele>
        <time>2022-09-10T10:53:31Z</time>
      </trkpt>
      <trkpt lat="43.22447" lon="-0.83065">
        <ele>209.6</ele>
        <time>2022-09-10T10:53:35Z</time>
      </trkpt>
      <trkpt lat="43.22438" lon="-0.83068">
        <ele>209.8</ele>
        <time>2022-09-10T10:53:37Z</time>
      </trkpt>
      <trkpt lat="43.22405" lon="-0.83074">
        <ele>209</ele>
        <time>2022-09-10T10:53:44Z</time>
      </trkpt>
      <trkpt lat="43.22401" lon="-0.83077">
        <ele>209</ele>
        <time>2022-09-10T10:53:45Z</time>
      </trkpt>
      <trkpt lat="43.22384" lon="-0.83088">
        <ele>209.2</ele>
        <time>2022-09-10T10:53:49Z</time>
      </trkpt>
      <trkpt lat="43.2237" lon="-0.83102">
        <ele>209.8</ele>
        <time>2022-09-10T10:53:53Z</time>
      </trkpt>
      <trkpt lat="43.22357" lon="-0.83116">
        <ele>210.6</ele>
        <time>2022-09-10T10:53:57Z</time>
      </trkpt>
      <trkpt lat="43.22349" lon="-0.83124">
        <ele>211.4</ele>
        <time>2022-09-10T10:54:00Z</time>
      </trkpt>
      <trkpt lat="43.22346" lon="-0.83127">
        <ele>211.6</ele>
        <time>2022-09-10T10:54:01Z</time>
      </trkpt>
      <trkpt lat="43.22337" lon="-0.83137">
        <ele>212.8</ele>
        <time>2022-09-10T10:54:05Z</time>
      </trkpt>
      <trkpt lat="43.22333" lon="-0.83142">
        <ele>213.4</ele>
        <time>2022-09-10T10:54:07Z</time>
      </trkpt>
      <trkpt lat="43.22329" lon="-0.83154">
        <ele>214</ele>
        <time>2022-09-10T10:54:11Z</time>
      </trkpt>
      <trkpt lat="43.22327" lon="-0.83164">
        <ele>214.8</ele>
        <time>2022-09-10T10:54:14Z</time>
      </trkpt>
      <trkpt lat="43.22328" lon="-0.83169">
        <ele>215.2</ele>
        <time>2022-09-10T10:54:16Z</time>
      </trkpt>
      <trkpt lat="43.22327" lon="-0.8318">
        <ele>215.8</ele>
        <time>2022-09-10T10:54:20Z</time>
      </trkpt>
      <trkpt lat="43.22326" lon="-0.83188">
        <ele>216.2</ele>
        <time>2022-09-10T10:54:23Z</time>
      </trkpt>
      <trkpt lat="43.22325" lon="-0.83198">
        <ele>215.8</ele>
        <time>2022-09-10T10:54:27Z</time>
      </trkpt>
      <trkpt lat="43.22324" lon="-0.83213">
        <ele>215</ele>
        <time>2022-09-10T10:54:30Z</time>
      </trkpt>
      <trkpt lat="43.22323" lon="-0.83219">
        <ele>214.6</ele>
        <time>2022-09-10T10:54:31Z</time>
      </trkpt>
      <trkpt lat="43.22323" lon="-0.83231">
        <ele>213.8</ele>
        <time>2022-09-10T10:54:33Z</time>
      </trkpt>
      <trkpt lat="43.22322" lon="-0.83248">
        <ele>212.2</ele>
        <time>2022-09-10T10:54:36Z</time>
      </trkpt>
      <trkpt lat="43.22321" lon="-0.8326">
        <ele>210.6</ele>
        <time>2022-09-10T10:54:38Z</time>
      </trkpt>
      <trkpt lat="43.2232" lon="-0.83271">
        <ele>209.4</ele>
        <time>2022-09-10T10:54:40Z</time>
      </trkpt>
      <trkpt lat="43.22318" lon="-0.83279">
        <ele>208.8</ele>
        <time>2022-09-10T10:54:42Z</time>
      </trkpt>
      <trkpt lat="43.22315" lon="-0.83284">
        <ele>208.4</ele>
        <time>2022-09-10T10:54:44Z</time>
      </trkpt>
      <trkpt lat="43.22308" lon="-0.83282">
        <ele>208.2</ele>
        <time>2022-09-10T10:54:46Z</time>
      </trkpt>
      <trkpt lat="43.22301" lon="-0.83275">
        <ele>207.4</ele>
        <time>2022-09-10T10:54:48Z</time>
      </trkpt>
      <trkpt lat="43.22297" lon="-0.83272">
        <ele>207.2</ele>
        <time>2022-09-10T10:54:49Z</time>
      </trkpt>
      <trkpt lat="43.22292" lon="-0.83269">
        <ele>207.2</ele>
        <time>2022-09-10T10:54:50Z</time>
      </trkpt>
      <trkpt lat="43.22264" lon="-0.83253">
        <ele>206.2</ele>
        <time>2022-09-10T10:54:55Z</time>
      </trkpt>
      <trkpt lat="43.22244" lon="-0.83249">
        <ele>205.2</ele>
        <time>2022-09-10T10:54:58Z</time>
      </trkpt>
      <trkpt lat="43.2223" lon="-0.83249">
        <ele>204.8</ele>
        <time>2022-09-10T10:55:00Z</time>
      </trkpt>
      <trkpt lat="43.22186" lon="-0.83253">
        <ele>204.2</ele>
        <time>2022-09-10T10:55:06Z</time>
      </trkpt>
      <trkpt lat="43.2214" lon="-0.83256">
        <ele>204.2</ele>
        <time>2022-09-10T10:55:13Z</time>
      </trkpt>
      <trkpt lat="43.22107" lon="-0.83259">
        <ele>205</ele>
        <time>2022-09-10T10:55:19Z</time>
      </trkpt>
      <trkpt lat="43.22098" lon="-0.83258">
        <ele>205.2</ele>
        <time>2022-09-10T10:55:21Z</time>
      </trkpt>
      <trkpt lat="43.2208" lon="-0.83261">
        <ele>205.6</ele>
        <time>2022-09-10T10:55:25Z</time>
      </trkpt>
      <trkpt lat="43.22057" lon="-0.83267">
        <ele>206.2</ele>
        <time>2022-09-10T10:55:31Z</time>
      </trkpt>
      <trkpt lat="43.22056" lon="-0.83271">
        <ele>206.2</ele>
        <time>2022-09-10T10:55:32Z</time>
      </trkpt>
      <trkpt lat="43.22055" lon="-0.83275">
        <ele>206.2</ele>
        <time>2022-09-10T10:55:33Z</time>
      </trkpt>
      <trkpt lat="43.22055" lon="-0.83279">
        <ele>206.2</ele>
        <time>2022-09-10T10:55:34Z</time>
      </trkpt>
      <trkpt lat="43.22057" lon="-0.83288">
        <ele>206.4</ele>
        <time>2022-09-10T10:55:36Z</time>
      </trkpt>
      <trkpt lat="43.22061" lon="-0.83306">
        <ele>206.8</ele>
        <time>2022-09-10T10:55:40Z</time>
      </trkpt>
      <trkpt lat="43.22064" lon="-0.8332">
        <ele>207.4</ele>
        <time>2022-09-10T10:55:43Z</time>
      </trkpt>
      <trkpt lat="43.22069" lon="-0.83341">
        <ele>208.6</ele>
        <time>2022-09-10T10:55:48Z</time>
      </trkpt>
      <trkpt lat="43.2207" lon="-0.83345">
        <ele>208.8</ele>
        <time>2022-09-10T10:55:49Z</time>
      </trkpt>
      <trkpt lat="43.22069" lon="-0.83358">
        <ele>209.6</ele>
        <time>2022-09-10T10:55:53Z</time>
      </trkpt>
      <trkpt lat="43.22066" lon="-0.83363">
        <ele>209.8</ele>
        <time>2022-09-10T10:55:55Z</time>
      </trkpt>
      <trkpt lat="43.22052" lon="-0.83374">
        <ele>210.6</ele>
        <time>2022-09-10T10:56:01Z</time>
      </trkpt>
      <trkpt lat="43.22026" lon="-0.83383">
        <ele>211.2</ele>
        <time>2022-09-10T10:56:10Z</time>
      </trkpt>
      <trkpt lat="43.21999" lon="-0.83392">
        <ele>211.2</ele>
        <time>2022-09-10T10:56:18Z</time>
      </trkpt>
      <trkpt lat="43.21966" lon="-0.83406">
        <ele>211.8</ele>
        <time>2022-09-10T10:56:28Z</time>
      </trkpt>
      <trkpt lat="43.21963" lon="-0.83406">
        <ele>211.8</ele>
        <time>2022-09-10T10:56:29Z</time>
      </trkpt>
      <trkpt lat="43.2195" lon="-0.83411">
        <ele>211.8</ele>
        <time>2022-09-10T10:56:33Z</time>
      </trkpt>
      <trkpt lat="43.21931" lon="-0.83413">
        <ele>211</ele>
        <time>2022-09-10T10:56:37Z</time>
      </trkpt>
      <trkpt lat="43.21925" lon="-0.83414">
        <ele>210.6</ele>
        <time>2022-09-10T10:56:38Z</time>
      </trkpt>
      <trkpt lat="43.21904" lon="-0.83416">
        <ele>209.2</ele>
        <time>2022-09-10T10:56:41Z</time>
      </trkpt>
      <trkpt lat="43.21887" lon="-0.83419">
        <ele>208.2</ele>
        <time>2022-09-10T10:56:43Z</time>
      </trkpt>
      <trkpt lat="43.21872" lon="-0.83425">
        <ele>207.8</ele>
        <time>2022-09-10T10:56:45Z</time>
      </trkpt>
      <trkpt lat="43.21865" lon="-0.83431">
        <ele>207.8</ele>
        <time>2022-09-10T10:56:46Z</time>
      </trkpt>
      <trkpt lat="43.21852" lon="-0.83451">
        <ele>208.4</ele>
        <time>2022-09-10T10:56:49Z</time>
      </trkpt>
      <trkpt lat="43.21847" lon="-0.83464">
        <ele>209.4</ele>
        <time>2022-09-10T10:56:51Z</time>
      </trkpt>
      <trkpt lat="43.21843" lon="-0.83476">
        <ele>210.4</ele>
        <time>2022-09-10T10:56:53Z</time>
      </trkpt>
      <trkpt lat="43.21842" lon="-0.83482">
        <ele>210.8</ele>
        <time>2022-09-10T10:56:54Z</time>
      </trkpt>
      <trkpt lat="43.2184" lon="-0.83492">
        <ele>211.2</ele>
        <time>2022-09-10T10:56:56Z</time>
      </trkpt>
      <trkpt lat="43.21839" lon="-0.83501">
        <ele>211.4</ele>
        <time>2022-09-10T10:56:58Z</time>
      </trkpt>
      <trkpt lat="43.21837" lon="-0.83531">
        <ele>211.8</ele>
        <time>2022-09-10T10:57:04Z</time>
      </trkpt>
      <trkpt lat="43.21837" lon="-0.83536">
        <ele>211.8</ele>
        <time>2022-09-10T10:57:05Z</time>
      </trkpt>
      <trkpt lat="43.21835" lon="-0.83562">
        <ele>212.4</ele>
        <time>2022-09-10T10:57:10Z</time>
      </trkpt>
      <trkpt lat="43.21835" lon="-0.83572">
        <ele>213</ele>
        <time>2022-09-10T10:57:12Z</time>
      </trkpt>
      <trkpt lat="43.21834" lon="-0.8359">
        <ele>214.2</ele>
        <time>2022-09-10T10:57:16Z</time>
      </trkpt>
      <trkpt lat="43.21834" lon="-0.83593">
        <ele>214.4</ele>
        <time>2022-09-10T10:57:17Z</time>
      </trkpt>
      <trkpt lat="43.21835" lon="-0.83603">
        <ele>215.2</ele>
        <time>2022-09-10T10:57:20Z</time>
      </trkpt>
      <trkpt lat="43.21837" lon="-0.83614">
        <ele>216.2</ele>
        <time>2022-09-10T10:57:24Z</time>
      </trkpt>
      <trkpt lat="43.21838" lon="-0.83617">
        <ele>216.4</ele>
        <time>2022-09-10T10:57:25Z</time>
      </trkpt>
      <trkpt lat="43.21842" lon="-0.83639">
        <ele>216.4</ele>
        <time>2022-09-10T10:57:31Z</time>
      </trkpt>
      <trkpt lat="43.2184" lon="-0.83657">
        <ele>216.2</ele>
        <time>2022-09-10T10:57:34Z</time>
      </trkpt>
      <trkpt lat="43.21838" lon="-0.83662">
        <ele>216.2</ele>
        <time>2022-09-10T10:57:35Z</time>
      </trkpt>
      <trkpt lat="43.21825" lon="-0.83688">
        <ele>217</ele>
        <time>2022-09-10T10:57:41Z</time>
      </trkpt>
      <trkpt lat="43.2182" lon="-0.83718">
        <ele>217.2</ele>
        <time>2022-09-10T10:57:48Z</time>
      </trkpt>
      <trkpt lat="43.21819" lon="-0.83741">
        <ele>216</ele>
        <time>2022-09-10T10:57:52Z</time>
      </trkpt>
      <trkpt lat="43.21819" lon="-0.83747">
        <ele>215.8</ele>
        <time>2022-09-10T10:57:53Z</time>
      </trkpt>
      <trkpt lat="43.21818" lon="-0.83753">
        <ele>215.4</ele>
        <time>2022-09-10T10:57:54Z</time>
      </trkpt>
      <trkpt lat="43.21806" lon="-0.83763">
        <ele>214.4</ele>
        <time>2022-09-10T10:57:57Z</time>
      </trkpt>
      <trkpt lat="43.21799" lon="-0.83765">
        <ele>214</ele>
        <time>2022-09-10T10:57:58Z</time>
      </trkpt>
      <trkpt lat="43.21786" lon="-0.83765">
        <ele>213</ele>
        <time>2022-09-10T10:58:00Z</time>
      </trkpt>
      <trkpt lat="43.2177" lon="-0.83762">
        <ele>211.4</ele>
        <time>2022-09-10T10:58:03Z</time>
      </trkpt>
      <trkpt lat="43.21766" lon="-0.83763">
        <ele>210.6</ele>
        <time>2022-09-10T10:58:04Z</time>
      </trkpt>
      <trkpt lat="43.21762" lon="-0.83767">
        <ele>210</ele>
        <time>2022-09-10T10:58:05Z</time>
      </trkpt>
      <trkpt lat="43.21758" lon="-0.83783">
        <ele>208.4</ele>
        <time>2022-09-10T10:58:07Z</time>
      </trkpt>
      <trkpt lat="43.21761" lon="-0.83798">
        <ele>207</ele>
        <time>2022-09-10T10:58:09Z</time>
      </trkpt>
      <trkpt lat="43.21765" lon="-0.83806">
        <ele>206.2</ele>
        <time>2022-09-10T10:58:10Z</time>
      </trkpt>
      <trkpt lat="43.2177" lon="-0.83814">
        <ele>205.4</ele>
        <time>2022-09-10T10:58:11Z</time>
      </trkpt>
      <trkpt lat="43.21775" lon="-0.83822">
        <ele>204.8</ele>
        <time>2022-09-10T10:58:12Z</time>
      </trkpt>
      <trkpt lat="43.21778" lon="-0.83831">
        <ele>204.4</ele>
        <time>2022-09-10T10:58:13Z</time>
      </trkpt>
      <trkpt lat="43.21778" lon="-0.83841">
        <ele>204.2</ele>
        <time>2022-09-10T10:58:14Z</time>
      </trkpt>
      <trkpt lat="43.21773" lon="-0.83851">
        <ele>204</ele>
        <time>2022-09-10T10:58:16Z</time>
      </trkpt>
      <trkpt lat="43.21768" lon="-0.83857">
        <ele>204.8</ele>
        <time>2022-09-10T10:58:18Z</time>
      </trkpt>
      <trkpt lat="43.21767" lon="-0.83859">
        <ele>205.6</ele>
        <time>2022-09-10T10:58:19Z</time>
      </trkpt>
      <trkpt lat="43.21766" lon="-0.83861">
        <ele>206</ele>
        <time>2022-09-10T10:58:20Z</time>
      </trkpt>
      <trkpt lat="43.21763" lon="-0.83865">
        <ele>207</ele>
        <time>2022-09-10T10:58:23Z</time>
      </trkpt>
      <trkpt lat="43.2176" lon="-0.83872">
        <ele>208</ele>
        <time>2022-09-10T10:58:27Z</time>
      </trkpt>
      <trkpt lat="43.21755" lon="-0.83883">
        <ele>209.4</ele>
        <time>2022-09-10T10:58:33Z</time>
      </trkpt>
      <trkpt lat="43.21754" lon="-0.83885">
        <ele>209.6</ele>
        <time>2022-09-10T10:58:34Z</time>
      </trkpt>
      <trkpt lat="43.2175" lon="-0.83894">
        <ele>210.4</ele>
        <time>2022-09-10T10:58:38Z</time>
      </trkpt>
      <trkpt lat="43.21747" lon="-0.83902">
        <ele>211.2</ele>
        <time>2022-09-10T10:58:41Z</time>
      </trkpt>
      <trkpt lat="43.21744" lon="-0.83909">
        <ele>211.4</ele>
        <time>2022-09-10T10:58:44Z</time>
      </trkpt>
      <trkpt lat="43.21741" lon="-0.83919">
        <ele>212.4</ele>
        <time>2022-09-10T10:58:48Z</time>
      </trkpt>
      <trkpt lat="43.2174" lon="-0.83921">
        <ele>212.6</ele>
        <time>2022-09-10T10:58:49Z</time>
      </trkpt>
      <trkpt lat="43.21736" lon="-0.83936">
        <ele>213.6</ele>
        <time>2022-09-10T10:58:55Z</time>
      </trkpt>
      <trkpt lat="43.21734" lon="-0.83944">
        <ele>213.8</ele>
        <time>2022-09-10T10:58:58Z</time>
      </trkpt>
      <trkpt lat="43.21732" lon="-0.83951">
        <ele>214.2</ele>
        <time>2022-09-10T10:59:01Z</time>
      </trkpt>
      <trkpt lat="43.21727" lon="-0.83973">
        <ele>214.8</ele>
        <time>2022-09-10T10:59:08Z</time>
      </trkpt>
      <trkpt lat="43.21722" lon="-0.83996">
        <ele>215.8</ele>
        <time>2022-09-10T10:59:16Z</time>
      </trkpt>
      <trkpt lat="43.21719" lon="-0.84019">
        <ele>216.8</ele>
        <time>2022-09-10T10:59:24Z</time>
      </trkpt>
      <trkpt lat="43.21718" lon="-0.84023">
        <ele>217</ele>
        <time>2022-09-10T10:59:25Z</time>
      </trkpt>
      <trkpt lat="43.21714" lon="-0.84037">
        <ele>217.8</ele>
        <time>2022-09-10T10:59:30Z</time>
      </trkpt>
      <trkpt lat="43.21713" lon="-0.84042">
        <ele>218.2</ele>
        <time>2022-09-10T10:59:32Z</time>
      </trkpt>
      <trkpt lat="43.2171" lon="-0.84061">
        <ele>219.2</ele>
        <time>2022-09-10T10:59:38Z</time>
      </trkpt>
      <trkpt lat="43.21707" lon="-0.84081">
        <ele>220</ele>
        <time>2022-09-10T10:59:45Z</time>
      </trkpt>
      <trkpt lat="43.21705" lon="-0.84087">
        <ele>220.4</ele>
        <time>2022-09-10T10:59:47Z</time>
      </trkpt>
      <trkpt lat="43.217" lon="-0.84103">
        <ele>220.4</ele>
        <time>2022-09-10T10:59:54Z</time>
      </trkpt>
      <trkpt lat="43.21693" lon="-0.84124">
        <ele>220.4</ele>
        <time>2022-09-10T11:00:02Z</time>
      </trkpt>
      <trkpt lat="43.21683" lon="-0.84144">
        <ele>220</ele>
        <time>2022-09-10T11:00:07Z</time>
      </trkpt>
      <trkpt lat="43.21668" lon="-0.84181">
        <ele>219.2</ele>
        <time>2022-09-10T11:00:13Z</time>
      </trkpt>
      <trkpt lat="43.2166" lon="-0.84215">
        <ele>218.2</ele>
        <time>2022-09-10T11:00:17Z</time>
      </trkpt>
      <trkpt lat="43.2166" lon="-0.84225">
        <ele>217.8</ele>
        <time>2022-09-10T11:00:18Z</time>
      </trkpt>
      <trkpt lat="43.21664" lon="-0.84266">
        <ele>217</ele>
        <time>2022-09-10T11:00:22Z</time>
      </trkpt>
      <trkpt lat="43.21661" lon="-0.84277">
        <ele>216.2</ele>
        <time>2022-09-10T11:00:23Z</time>
      </trkpt>
      <trkpt lat="43.21654" lon="-0.84293">
        <ele>216.2</ele>
        <time>2022-09-10T11:00:25Z</time>
      </trkpt>
      <trkpt lat="43.21636" lon="-0.84302">
        <ele>216</ele>
        <time>2022-09-10T11:00:28Z</time>
      </trkpt>
      <trkpt lat="43.21626" lon="-0.84295">
        <ele>217</ele>
        <time>2022-09-10T11:00:31Z</time>
      </trkpt>
      <trkpt lat="43.21624" lon="-0.84293">
        <ele>217.2</ele>
        <time>2022-09-10T11:00:32Z</time>
      </trkpt>
      <trkpt lat="43.2162" lon="-0.84288">
        <ele>218.4</ele>
        <time>2022-09-10T11:00:35Z</time>
      </trkpt>
      <trkpt lat="43.21619" lon="-0.84287">
        <ele>218.6</ele>
        <time>2022-09-10T11:00:36Z</time>
      </trkpt>
      <trkpt lat="43.21617" lon="-0.84283">
        <ele>219.4</ele>
        <time>2022-09-10T11:00:39Z</time>
      </trkpt>
      <trkpt lat="43.21616" lon="-0.84282">
        <ele>219.6</ele>
        <time>2022-09-10T11:00:40Z</time>
      </trkpt>
      <trkpt lat="43.21613" lon="-0.84276">
        <ele>220.2</ele>
        <time>2022-09-10T11:00:44Z</time>
      </trkpt>
      <trkpt lat="43.21606" lon="-0.84272">
        <ele>220.6</ele>
        <time>2022-09-10T11:01:31Z</time>
      </trkpt>
      <trkpt lat="43.21604" lon="-0.8427">
        <ele>220.8</ele>
        <time>2022-09-10T11:01:32Z</time>
      </trkpt>
      <trkpt lat="43.21588" lon="-0.84264">
        <ele>221.4</ele>
        <time>2022-09-10T11:01:38Z</time>
      </trkpt>
      <trkpt lat="43.21579" lon="-0.84263">
        <ele>221.8</ele>
        <time>2022-09-10T11:01:41Z</time>
      </trkpt>
      <trkpt lat="43.21571" lon="-0.84263">
        <ele>222.2</ele>
        <time>2022-09-10T11:01:44Z</time>
      </trkpt>
      <trkpt lat="43.21566" lon="-0.84263">
        <ele>222.4</ele>
        <time>2022-09-10T11:01:46Z</time>
      </trkpt>
      <trkpt lat="43.2154" lon="-0.84265">
        <ele>222.2</ele>
        <time>2022-09-10T11:01:54Z</time>
      </trkpt>
      <trkpt lat="43.21511" lon="-0.84269">
        <ele>222.8</ele>
        <time>2022-09-10T11:02:02Z</time>
      </trkpt>
      <trkpt lat="43.21503" lon="-0.84271">
        <ele>223</ele>
        <time>2022-09-10T11:02:04Z</time>
      </trkpt>
      <trkpt lat="43.21486" lon="-0.84273">
        <ele>223.8</ele>
        <time>2022-09-10T11:02:09Z</time>
      </trkpt>
      <trkpt lat="43.21476" lon="-0.84275">
        <ele>223.8</ele>
        <time>2022-09-10T11:02:12Z</time>
      </trkpt>
      <trkpt lat="43.21449" lon="-0.84279">
        <ele>223.2</ele>
        <time>2022-09-10T11:02:18Z</time>
      </trkpt>
      <trkpt lat="43.21434" lon="-0.84284">
        <ele>222.8</ele>
        <time>2022-09-10T11:02:21Z</time>
      </trkpt>
      <trkpt lat="43.21425" lon="-0.8429">
        <ele>222.6</ele>
        <time>2022-09-10T11:02:23Z</time>
      </trkpt>
      <trkpt lat="43.21421" lon="-0.84292">
        <ele>222.6</ele>
        <time>2022-09-10T11:02:24Z</time>
      </trkpt>
      <trkpt lat="43.21418" lon="-0.84296">
        <ele>223</ele>
        <time>2022-09-10T11:02:25Z</time>
      </trkpt>
      <trkpt lat="43.21408" lon="-0.84311">
        <ele>223</ele>
        <time>2022-09-10T11:02:29Z</time>
      </trkpt>
      <trkpt lat="43.21404" lon="-0.84328">
        <ele>224</ele>
        <time>2022-09-10T11:02:33Z</time>
      </trkpt>
      <trkpt lat="43.21403" lon="-0.84332">
        <ele>224.2</ele>
        <time>2022-09-10T11:02:34Z</time>
      </trkpt>
      <trkpt lat="43.21402" lon="-0.84343">
        <ele>225</ele>
        <time>2022-09-10T11:02:37Z</time>
      </trkpt>
      <trkpt lat="43.21399" lon="-0.84363">
        <ele>225.6</ele>
        <time>2022-09-10T11:02:42Z</time>
      </trkpt>
      <trkpt lat="43.21397" lon="-0.84371">
        <ele>226.2</ele>
        <time>2022-09-10T11:02:44Z</time>
      </trkpt>
      <trkpt lat="43.21394" lon="-0.84383">
        <ele>227</ele>
        <time>2022-09-10T11:02:48Z</time>
      </trkpt>
      <trkpt lat="43.2139" lon="-0.84399">
        <ele>226.8</ele>
        <time>2022-09-10T11:02:53Z</time>
      </trkpt>
      <trkpt lat="43.21381" lon="-0.84425">
        <ele>225.4</ele>
        <time>2022-09-10T11:02:57Z</time>
      </trkpt>
      <trkpt lat="43.21378" lon="-0.84434">
        <ele>225</ele>
        <time>2022-09-10T11:02:58Z</time>
      </trkpt>
      <trkpt lat="43.21366" lon="-0.84464">
        <ele>223.6</ele>
        <time>2022-09-10T11:03:01Z</time>
      </trkpt>
      <trkpt lat="43.21361" lon="-0.84473">
        <ele>223</ele>
        <time>2022-09-10T11:03:02Z</time>
      </trkpt>
      <trkpt lat="43.21356" lon="-0.84481">
        <ele>222.4</ele>
        <time>2022-09-10T11:03:03Z</time>
      </trkpt>
      <trkpt lat="43.21351" lon="-0.84488">
        <ele>221.4</ele>
        <time>2022-09-10T11:03:04Z</time>
      </trkpt>
      <trkpt lat="43.21345" lon="-0.84493">
        <ele>220.6</ele>
        <time>2022-09-10T11:03:05Z</time>
      </trkpt>
      <trkpt lat="43.2134" lon="-0.84497">
        <ele>219.8</ele>
        <time>2022-09-10T11:03:06Z</time>
      </trkpt>
      <trkpt lat="43.2133" lon="-0.84498">
        <ele>218.6</ele>
        <time>2022-09-10T11:03:08Z</time>
      </trkpt>
      <trkpt lat="43.21323" lon="-0.84486">
        <ele>217.4</ele>
        <time>2022-09-10T11:03:10Z</time>
      </trkpt>
      <trkpt lat="43.2132" lon="-0.84473">
        <ele>217.2</ele>
        <time>2022-09-10T11:03:12Z</time>
      </trkpt>
      <trkpt lat="43.21317" lon="-0.84452">
        <ele>217.4</ele>
        <time>2022-09-10T11:03:15Z</time>
      </trkpt>
      <trkpt lat="43.21311" lon="-0.84427">
        <ele>218.4</ele>
        <time>2022-09-10T11:03:19Z</time>
      </trkpt>
      <trkpt lat="43.21305" lon="-0.84406">
        <ele>219.6</ele>
        <time>2022-09-10T11:03:23Z</time>
      </trkpt>
      <trkpt lat="43.21295" lon="-0.84379">
        <ele>220.4</ele>
        <time>2022-09-10T11:03:29Z</time>
      </trkpt>
      <trkpt lat="43.21293" lon="-0.84376">
        <ele>220.6</ele>
        <time>2022-09-10T11:03:30Z</time>
      </trkpt>
      <trkpt lat="43.21285" lon="-0.84361">
        <ele>221.4</ele>
        <time>2022-09-10T11:03:35Z</time>
      </trkpt>
      <trkpt lat="43.21283" lon="-0.84358">
        <ele>222</ele>
        <time>2022-09-10T11:03:36Z</time>
      </trkpt>
      <trkpt lat="43.21269" lon="-0.8434">
        <ele>222.2</ele>
        <time>2022-09-10T11:03:42Z</time>
      </trkpt>
      <trkpt lat="43.21257" lon="-0.84337">
        <ele>223</ele>
        <time>2022-09-10T11:03:46Z</time>
      </trkpt>
      <trkpt lat="43.21255" lon="-0.84338">
        <ele>223.2</ele>
        <time>2022-09-10T11:03:47Z</time>
      </trkpt>
      <trkpt lat="43.21249" lon="-0.84342">
        <ele>224</ele>
        <time>2022-09-10T11:03:51Z</time>
      </trkpt>
      <trkpt lat="43.21244" lon="-0.84349">
        <ele>225.2</ele>
        <time>2022-09-10T11:03:55Z</time>
      </trkpt>
      <trkpt lat="43.2124" lon="-0.84351">
        <ele>225.6</ele>
        <time>2022-09-10T11:03:57Z</time>
      </trkpt>
      <trkpt lat="43.21235" lon="-0.84354">
        <ele>226.2</ele>
        <time>2022-09-10T11:04:00Z</time>
      </trkpt>
      <trkpt lat="43.21221" lon="-0.84366">
        <ele>226.8</ele>
        <time>2022-09-10T11:04:08Z</time>
      </trkpt>
      <trkpt lat="43.21203" lon="-0.8438">
        <ele>226.2</ele>
        <time>2022-09-10T11:04:14Z</time>
      </trkpt>
      <trkpt lat="43.21174" lon="-0.84405">
        <ele>225.8</ele>
        <time>2022-09-10T11:04:22Z</time>
      </trkpt>
      <trkpt lat="43.21151" lon="-0.8443">
        <ele>226</ele>
        <time>2022-09-10T11:04:30Z</time>
      </trkpt>
      <trkpt lat="43.21127" lon="-0.8446">
        <ele>226.2</ele>
        <time>2022-09-10T11:04:38Z</time>
      </trkpt>
      <trkpt lat="43.21119" lon="-0.84475">
        <ele>225.8</ele>
        <time>2022-09-10T11:04:41Z</time>
      </trkpt>
      <trkpt lat="43.21113" lon="-0.84492">
        <ele>225.8</ele>
        <time>2022-09-10T11:04:44Z</time>
      </trkpt>
      <trkpt lat="43.21106" lon="-0.84529">
        <ele>227.4</ele>
        <time>2022-09-10T11:04:51Z</time>
      </trkpt>
      <trkpt lat="43.21103" lon="-0.84543">
        <ele>228.4</ele>
        <time>2022-09-10T11:04:55Z</time>
      </trkpt>
      <trkpt lat="43.211" lon="-0.84552">
        <ele>229</ele>
        <time>2022-09-10T11:04:58Z</time>
      </trkpt>
      <trkpt lat="43.21098" lon="-0.84558">
        <ele>229.4</ele>
        <time>2022-09-10T11:05:00Z</time>
      </trkpt>
      <trkpt lat="43.21089" lon="-0.84575">
        <ele>230.4</ele>
        <time>2022-09-10T11:05:06Z</time>
      </trkpt>
      <trkpt lat="43.21088" lon="-0.84578">
        <ele>230.4</ele>
        <time>2022-09-10T11:05:07Z</time>
      </trkpt>
      <trkpt lat="43.2108" lon="-0.8459">
        <ele>231.6</ele>
        <time>2022-09-10T11:05:12Z</time>
      </trkpt>
      <trkpt lat="43.21078" lon="-0.84592">
        <ele>231.6</ele>
        <time>2022-09-10T11:05:13Z</time>
      </trkpt>
      <trkpt lat="43.21064" lon="-0.84611">
        <ele>231.6</ele>
        <time>2022-09-10T11:05:19Z</time>
      </trkpt>
      <trkpt lat="43.21053" lon="-0.84627">
        <ele>232.8</ele>
        <time>2022-09-10T11:05:24Z</time>
      </trkpt>
      <trkpt lat="43.2105" lon="-0.84633">
        <ele>233</ele>
        <time>2022-09-10T11:05:26Z</time>
      </trkpt>
      <trkpt lat="43.2104" lon="-0.84659">
        <ele>233.2</ele>
        <time>2022-09-10T11:05:34Z</time>
      </trkpt>
      <trkpt lat="43.21033" lon="-0.84688">
        <ele>232.6</ele>
        <time>2022-09-10T11:05:40Z</time>
      </trkpt>
      <trkpt lat="43.21033" lon="-0.84713">
        <ele>231.4</ele>
        <time>2022-09-10T11:05:43Z</time>
      </trkpt>
      <trkpt lat="43.21041" lon="-0.84741">
        <ele>230.2</ele>
        <time>2022-09-10T11:05:46Z</time>
      </trkpt>
      <trkpt lat="43.21052" lon="-0.84766">
        <ele>229.6</ele>
        <time>2022-09-10T11:05:49Z</time>
      </trkpt>
      <trkpt lat="43.21059" lon="-0.84777">
        <ele>229.8</ele>
        <time>2022-09-10T11:05:51Z</time>
      </trkpt>
      <trkpt lat="43.21074" lon="-0.84794">
        <ele>231.4</ele>
        <time>2022-09-10T11:05:56Z</time>
      </trkpt>
      <trkpt lat="43.21082" lon="-0.84801">
        <ele>232.8</ele>
        <time>2022-09-10T11:06:00Z</time>
      </trkpt>
      <trkpt lat="43.21084" lon="-0.84803">
        <ele>233</ele>
        <time>2022-09-10T11:06:01Z</time>
      </trkpt>
      <trkpt lat="43.2109" lon="-0.84809">
        <ele>233.8</ele>
        <time>2022-09-10T11:06:05Z</time>
      </trkpt>
      <trkpt lat="43.21096" lon="-0.84815">
        <ele>234.4</ele>
        <time>2022-09-10T11:06:08Z</time>
      </trkpt>
      <trkpt lat="43.211" lon="-0.8482">
        <ele>235</ele>
        <time>2022-09-10T11:06:11Z</time>
      </trkpt>
      <trkpt lat="43.21103" lon="-0.84824">
        <ele>235.4</ele>
        <time>2022-09-10T11:06:14Z</time>
      </trkpt>
      <trkpt lat="43.21108" lon="-0.84828">
        <ele>236</ele>
        <time>2022-09-10T11:06:17Z</time>
      </trkpt>
      <trkpt lat="43.21114" lon="-0.84834">
        <ele>236.6</ele>
        <time>2022-09-10T11:06:21Z</time>
      </trkpt>
      <trkpt lat="43.21118" lon="-0.84838">
        <ele>237.4</ele>
        <time>2022-09-10T11:06:24Z</time>
      </trkpt>
      <trkpt lat="43.21123" lon="-0.84843">
        <ele>237.6</ele>
        <time>2022-09-10T11:06:27Z</time>
      </trkpt>
      <trkpt lat="43.21129" lon="-0.84849">
        <ele>238.4</ele>
        <time>2022-09-10T11:06:31Z</time>
      </trkpt>
      <trkpt lat="43.21133" lon="-0.84852">
        <ele>238.6</ele>
        <time>2022-09-10T11:06:33Z</time>
      </trkpt>
      <trkpt lat="43.2114" lon="-0.8486">
        <ele>239.4</ele>
        <time>2022-09-10T11:06:38Z</time>
      </trkpt>
      <trkpt lat="43.21146" lon="-0.84866">
        <ele>240</ele>
        <time>2022-09-10T11:06:42Z</time>
      </trkpt>
      <trkpt lat="43.21149" lon="-0.84868">
        <ele>240.4</ele>
        <time>2022-09-10T11:06:44Z</time>
      </trkpt>
      <trkpt lat="43.21155" lon="-0.84875">
        <ele>241.2</ele>
        <time>2022-09-10T11:06:48Z</time>
      </trkpt>
      <trkpt lat="43.21158" lon="-0.84877">
        <ele>241.6</ele>
        <time>2022-09-10T11:06:50Z</time>
      </trkpt>
      <trkpt lat="43.21167" lon="-0.84887">
        <ele>242.2</ele>
        <time>2022-09-10T11:06:55Z</time>
      </trkpt>
      <trkpt lat="43.2117" lon="-0.8489">
        <ele>242.6</ele>
        <time>2022-09-10T11:06:57Z</time>
      </trkpt>
      <trkpt lat="43.21173" lon="-0.84893">
        <ele>242.8</ele>
        <time>2022-09-10T11:06:59Z</time>
      </trkpt>
      <trkpt lat="43.21174" lon="-0.84895">
        <ele>243</ele>
        <time>2022-09-10T11:07:00Z</time>
      </trkpt>
      <trkpt lat="43.21177" lon="-0.849">
        <ele>243.6</ele>
        <time>2022-09-10T11:07:03Z</time>
      </trkpt>
      <trkpt lat="43.21178" lon="-0.84902">
        <ele>243.6</ele>
        <time>2022-09-10T11:07:04Z</time>
      </trkpt>
      <trkpt lat="43.21179" lon="-0.84903">
        <ele>243.8</ele>
        <time>2022-09-10T11:07:05Z</time>
      </trkpt>
      <trkpt lat="43.21183" lon="-0.84907">
        <ele>244.4</ele>
        <time>2022-09-10T11:07:08Z</time>
      </trkpt>
      <trkpt lat="43.21185" lon="-0.84908">
        <ele>244.6</ele>
        <time>2022-09-10T11:07:09Z</time>
      </trkpt>
      <trkpt lat="43.21187" lon="-0.84908">
        <ele>244.8</ele>
        <time>2022-09-10T11:07:10Z</time>
      </trkpt>
      <trkpt lat="43.2119" lon="-0.84912">
        <ele>245.4</ele>
        <time>2022-09-10T11:07:13Z</time>
      </trkpt>
      <trkpt lat="43.21192" lon="-0.84913">
        <ele>245.6</ele>
        <time>2022-09-10T11:07:14Z</time>
      </trkpt>
      <trkpt lat="43.21194" lon="-0.84915">
        <ele>246</ele>
        <time>2022-09-10T11:07:16Z</time>
      </trkpt>
      <trkpt lat="43.21196" lon="-0.84917">
        <ele>246</ele>
        <time>2022-09-10T11:07:17Z</time>
      </trkpt>
      <trkpt lat="43.21199" lon="-0.84919">
        <ele>246.4</ele>
        <time>2022-09-10T11:07:20Z</time>
      </trkpt>
      <trkpt lat="43.21204" lon="-0.84922">
        <ele>247</ele>
        <time>2022-09-10T11:07:23Z</time>
      </trkpt>
      <trkpt lat="43.21213" lon="-0.84928">
        <ele>247.6</ele>
        <time>2022-09-10T11:07:29Z</time>
      </trkpt>
      <trkpt lat="43.21218" lon="-0.84931">
        <ele>248</ele>
        <time>2022-09-10T11:07:32Z</time>
      </trkpt>
      <trkpt lat="43.21226" lon="-0.84934">
        <ele>249</ele>
        <time>2022-09-10T11:07:37Z</time>
      </trkpt>
      <trkpt lat="43.21228" lon="-0.84935">
        <ele>249</ele>
        <time>2022-09-10T11:07:38Z</time>
      </trkpt>
      <trkpt lat="43.21239" lon="-0.84941">
        <ele>250</ele>
        <time>2022-09-10T11:07:45Z</time>
      </trkpt>
      <trkpt lat="43.21241" lon="-0.84941">
        <ele>250.2</ele>
        <time>2022-09-10T11:07:46Z</time>
      </trkpt>
      <trkpt lat="43.2125" lon="-0.84948">
        <ele>251.2</ele>
        <time>2022-09-10T11:07:52Z</time>
      </trkpt>
      <trkpt lat="43.21251" lon="-0.84949">
        <ele>251.2</ele>
        <time>2022-09-10T11:07:53Z</time>
      </trkpt>
      <trkpt lat="43.2126" lon="-0.84958">
        <ele>252.6</ele>
        <time>2022-09-10T11:08:00Z</time>
      </trkpt>
      <trkpt lat="43.21261" lon="-0.8496">
        <ele>252.6</ele>
        <time>2022-09-10T11:08:01Z</time>
      </trkpt>
      <trkpt lat="43.21269" lon="-0.84969">
        <ele>253.6</ele>
        <time>2022-09-10T11:08:08Z</time>
      </trkpt>
      <trkpt lat="43.2127" lon="-0.8497">
        <ele>253.6</ele>
        <time>2022-09-10T11:08:09Z</time>
      </trkpt>
      <trkpt lat="43.21279" lon="-0.84977">
        <ele>254.6</ele>
        <time>2022-09-10T11:08:16Z</time>
      </trkpt>
      <trkpt lat="43.2128" lon="-0.84977">
        <ele>254.8</ele>
        <time>2022-09-10T11:08:17Z</time>
      </trkpt>
      <trkpt lat="43.21289" lon="-0.84977">
        <ele>256</ele>
        <time>2022-09-10T11:08:23Z</time>
      </trkpt>
      <trkpt lat="43.21293" lon="-0.84974">
        <ele>257.2</ele>
        <time>2022-09-10T11:08:27Z</time>
      </trkpt>
      <trkpt lat="43.21297" lon="-0.84972">
        <ele>257.8</ele>
        <time>2022-09-10T11:08:30Z</time>
      </trkpt>
      <trkpt lat="43.213" lon="-0.84971">
        <ele>258.4</ele>
        <time>2022-09-10T11:08:32Z</time>
      </trkpt>
      <trkpt lat="43.21301" lon="-0.84971">
        <ele>258.6</ele>
        <time>2022-09-10T11:08:33Z</time>
      </trkpt>
      <trkpt lat="43.21304" lon="-0.84972">
        <ele>259.4</ele>
        <time>2022-09-10T11:08:36Z</time>
      </trkpt>
      <trkpt lat="43.21305" lon="-0.84972">
        <ele>259.4</ele>
        <time>2022-09-10T11:08:37Z</time>
      </trkpt>
      <trkpt lat="43.21307" lon="-0.84979">
        <ele>260.2</ele>
        <time>2022-09-10T11:08:41Z</time>
      </trkpt>
      <trkpt lat="43.21308" lon="-0.8498">
        <ele>260.4</ele>
        <time>2022-09-10T11:08:42Z</time>
      </trkpt>
      <trkpt lat="43.21309" lon="-0.84982">
        <ele>260.6</ele>
        <time>2022-09-10T11:08:43Z</time>
      </trkpt>
      <trkpt lat="43.21313" lon="-0.84993">
        <ele>261.6</ele>
        <time>2022-09-10T11:08:49Z</time>
      </trkpt>
      <trkpt lat="43.21316" lon="-0.85007">
        <ele>262.6</ele>
        <time>2022-09-10T11:08:57Z</time>
      </trkpt>
      <trkpt lat="43.21321" lon="-0.85022">
        <ele>263.6</ele>
        <time>2022-09-10T11:09:05Z</time>
      </trkpt>
      <trkpt lat="43.21321" lon="-0.85024">
        <ele>263.8</ele>
        <time>2022-09-10T11:09:06Z</time>
      </trkpt>
      <trkpt lat="43.21323" lon="-0.85031">
        <ele>264.8</ele>
        <time>2022-09-10T11:09:10Z</time>
      </trkpt>
      <trkpt lat="43.21325" lon="-0.85039">
        <ele>265.8</ele>
        <time>2022-09-10T11:09:14Z</time>
      </trkpt>
      <trkpt lat="43.21328" lon="-0.85052">
        <ele>266.8</ele>
        <time>2022-09-10T11:09:21Z</time>
      </trkpt>
      <trkpt lat="43.21329" lon="-0.85054">
        <ele>266.8</ele>
        <time>2022-09-10T11:09:22Z</time>
      </trkpt>
      <trkpt lat="43.21331" lon="-0.8506">
        <ele>267.2</ele>
        <time>2022-09-10T11:09:25Z</time>
      </trkpt>
      <trkpt lat="43.21331" lon="-0.85064">
        <ele>267.4</ele>
        <time>2022-09-10T11:09:27Z</time>
      </trkpt>
      <trkpt lat="43.21332" lon="-0.85067">
        <ele>267.8</ele>
        <time>2022-09-10T11:09:29Z</time>
      </trkpt>
      <trkpt lat="43.21333" lon="-0.85069">
        <ele>268</ele>
        <time>2022-09-10T11:09:30Z</time>
      </trkpt>
      <trkpt lat="43.21337" lon="-0.85076">
        <ele>268.6</ele>
        <time>2022-09-10T11:09:34Z</time>
      </trkpt>
      <trkpt lat="43.21337" lon="-0.85082">
        <ele>269</ele>
        <time>2022-09-10T11:09:37Z</time>
      </trkpt>
      <trkpt lat="43.21339" lon="-0.85085">
        <ele>269</ele>
        <time>2022-09-10T11:09:39Z</time>
      </trkpt>
      <trkpt lat="43.21341" lon="-0.85088">
        <ele>269.4</ele>
        <time>2022-09-10T11:09:41Z</time>
      </trkpt>
      <trkpt lat="43.21341" lon="-0.85095">
        <ele>269.8</ele>
        <time>2022-09-10T11:09:44Z</time>
      </trkpt>
      <trkpt lat="43.21344" lon="-0.85103">
        <ele>270</ele>
        <time>2022-09-10T11:09:48Z</time>
      </trkpt>
      <trkpt lat="43.21346" lon="-0.85106">
        <ele>270.4</ele>
        <time>2022-09-10T11:09:50Z</time>
      </trkpt>
      <trkpt lat="43.21351" lon="-0.85118">
        <ele>271</ele>
        <time>2022-09-10T11:09:56Z</time>
      </trkpt>
      <trkpt lat="43.21356" lon="-0.85137">
        <ele>272.2</ele>
        <time>2022-09-10T11:10:05Z</time>
      </trkpt>
      <trkpt lat="43.21358" lon="-0.85153">
        <ele>273.2</ele>
        <time>2022-09-10T11:10:12Z</time>
      </trkpt>
      <trkpt lat="43.21358" lon="-0.85154">
        <ele>273.2</ele>
        <time>2022-09-10T11:10:13Z</time>
      </trkpt>
      <trkpt lat="43.21357" lon="-0.85168">
        <ele>274.4</ele>
        <time>2022-09-10T11:10:19Z</time>
      </trkpt>
      <trkpt lat="43.21359" lon="-0.8518">
        <ele>275.4</ele>
        <time>2022-09-10T11:10:25Z</time>
      </trkpt>
      <trkpt lat="43.21358" lon="-0.85183">
        <ele>275.6</ele>
        <time>2022-09-10T11:10:26Z</time>
      </trkpt>
      <trkpt lat="43.21358" lon="-0.85187">
        <ele>275.8</ele>
        <time>2022-09-10T11:10:28Z</time>
      </trkpt>
      <trkpt lat="43.2136" lon="-0.85191">
        <ele>276.4</ele>
        <time>2022-09-10T11:10:30Z</time>
      </trkpt>
      <trkpt lat="43.21362" lon="-0.85194">
        <ele>276.8</ele>
        <time>2022-09-10T11:10:32Z</time>
      </trkpt>
      <trkpt lat="43.21362" lon="-0.852">
        <ele>277.2</ele>
        <time>2022-09-10T11:10:35Z</time>
      </trkpt>
      <trkpt lat="43.21362" lon="-0.85204">
        <ele>277.6</ele>
        <time>2022-09-10T11:10:37Z</time>
      </trkpt>
      <trkpt lat="43.21361" lon="-0.85208">
        <ele>277.8</ele>
        <time>2022-09-10T11:10:39Z</time>
      </trkpt>
      <trkpt lat="43.21365" lon="-0.8522">
        <ele>278.6</ele>
        <time>2022-09-10T11:10:46Z</time>
      </trkpt>
      <trkpt lat="43.21366" lon="-0.85221">
        <ele>278.6</ele>
        <time>2022-09-10T11:10:47Z</time>
      </trkpt>
      <trkpt lat="43.21369" lon="-0.8523">
        <ele>279.6</ele>
        <time>2022-09-10T11:10:52Z</time>
      </trkpt>
      <trkpt lat="43.21372" lon="-0.85236">
        <ele>280.4</ele>
        <time>2022-09-10T11:10:56Z</time>
      </trkpt>
      <trkpt lat="43.21374" lon="-0.85239">
        <ele>280.8</ele>
        <time>2022-09-10T11:10:58Z</time>
      </trkpt>
      <trkpt lat="43.21377" lon="-0.85247">
        <ele>281.8</ele>
        <time>2022-09-10T11:11:03Z</time>
      </trkpt>
      <trkpt lat="43.21378" lon="-0.85248">
        <ele>282</ele>
        <time>2022-09-10T11:11:04Z</time>
      </trkpt>
      <trkpt lat="43.21378" lon="-0.85249">
        <ele>282</ele>
        <time>2022-09-10T11:11:05Z</time>
      </trkpt>
      <trkpt lat="43.21381" lon="-0.85253">
        <ele>282.8</ele>
        <time>2022-09-10T11:11:08Z</time>
      </trkpt>
      <trkpt lat="43.21382" lon="-0.85257">
        <ele>283.2</ele>
        <time>2022-09-10T11:11:10Z</time>
      </trkpt>
      <trkpt lat="43.21387" lon="-0.85261">
        <ele>284.2</ele>
        <time>2022-09-10T11:11:14Z</time>
      </trkpt>
      <trkpt lat="43.21393" lon="-0.8527">
        <ele>285.2</ele>
        <time>2022-09-10T11:11:21Z</time>
      </trkpt>
      <trkpt lat="43.21397" lon="-0.85275">
        <ele>285.8</ele>
        <time>2022-09-10T11:11:25Z</time>
      </trkpt>
      <trkpt lat="43.21398" lon="-0.85276">
        <ele>286</ele>
        <time>2022-09-10T11:11:26Z</time>
      </trkpt>
      <trkpt lat="43.21399" lon="-0.85277">
        <ele>286.2</ele>
        <time>2022-09-10T11:11:27Z</time>
      </trkpt>
      <trkpt lat="43.214" lon="-0.85278">
        <ele>286.4</ele>
        <time>2022-09-10T11:11:28Z</time>
      </trkpt>
      <trkpt lat="43.21411" lon="-0.85285">
        <ele>287.4</ele>
        <time>2022-09-10T11:11:36Z</time>
      </trkpt>
      <trkpt lat="43.21412" lon="-0.85286">
        <ele>287.6</ele>
        <time>2022-09-10T11:11:37Z</time>
      </trkpt>
      <trkpt lat="43.21419" lon="-0.85287">
        <ele>288.2</ele>
        <time>2022-09-10T11:11:41Z</time>
      </trkpt>
      <trkpt lat="43.21422" lon="-0.85289">
        <ele>288.4</ele>
        <time>2022-09-10T11:11:43Z</time>
      </trkpt>
      <trkpt lat="43.21429" lon="-0.85291">
        <ele>288.8</ele>
        <time>2022-09-10T11:11:47Z</time>
      </trkpt>
      <trkpt lat="43.21437" lon="-0.85293">
        <ele>289.4</ele>
        <time>2022-09-10T11:11:52Z</time>
      </trkpt>
      <trkpt lat="43.21446" lon="-0.85297">
        <ele>290.2</ele>
        <time>2022-09-10T11:11:58Z</time>
      </trkpt>
      <trkpt lat="43.21448" lon="-0.85298">
        <ele>290.4</ele>
        <time>2022-09-10T11:11:59Z</time>
      </trkpt>
      <trkpt lat="43.2145" lon="-0.853">
        <ele>290.6</ele>
        <time>2022-09-10T11:12:01Z</time>
      </trkpt>
      <trkpt lat="43.21453" lon="-0.85301">
        <ele>290.8</ele>
        <time>2022-09-10T11:12:03Z</time>
      </trkpt>
      <trkpt lat="43.21458" lon="-0.85304">
        <ele>291.2</ele>
        <time>2022-09-10T11:12:06Z</time>
      </trkpt>
      <trkpt lat="43.21463" lon="-0.85309">
        <ele>291.8</ele>
        <time>2022-09-10T11:12:10Z</time>
      </trkpt>
      <trkpt lat="43.21471" lon="-0.85318">
        <ele>292.6</ele>
        <time>2022-09-10T11:12:16Z</time>
      </trkpt>
      <trkpt lat="43.21473" lon="-0.85321">
        <ele>292.8</ele>
        <time>2022-09-10T11:12:18Z</time>
      </trkpt>
      <trkpt lat="43.2148" lon="-0.8533">
        <ele>293.6</ele>
        <time>2022-09-10T11:12:24Z</time>
      </trkpt>
      <trkpt lat="43.21481" lon="-0.85331">
        <ele>294</ele>
        <time>2022-09-10T11:12:25Z</time>
      </trkpt>
      <trkpt lat="43.21488" lon="-0.85341">
        <ele>295.2</ele>
        <time>2022-09-10T11:12:31Z</time>
      </trkpt>
      <trkpt lat="43.21488" lon="-0.85343">
        <ele>295.2</ele>
        <time>2022-09-10T11:12:32Z</time>
      </trkpt>
      <trkpt lat="43.21491" lon="-0.85346">
        <ele>295.6</ele>
        <time>2022-09-10T11:12:34Z</time>
      </trkpt>
      <trkpt lat="43.21493" lon="-0.85347">
        <ele>296</ele>
        <time>2022-09-10T11:12:36Z</time>
      </trkpt>
      <trkpt lat="43.21494" lon="-0.85349">
        <ele>296.2</ele>
        <time>2022-09-10T11:12:37Z</time>
      </trkpt>
      <trkpt lat="43.21499" lon="-0.85356">
        <ele>297</ele>
        <time>2022-09-10T11:12:42Z</time>
      </trkpt>
      <trkpt lat="43.21501" lon="-0.85359">
        <ele>297.2</ele>
        <time>2022-09-10T11:12:44Z</time>
      </trkpt>
      <trkpt lat="43.21505" lon="-0.85363">
        <ele>297.8</ele>
        <time>2022-09-10T11:12:47Z</time>
      </trkpt>
      <trkpt lat="43.21506" lon="-0.85365">
        <ele>298</ele>
        <time>2022-09-10T11:12:48Z</time>
      </trkpt>
      <trkpt lat="43.21507" lon="-0.85366">
        <ele>298.4</ele>
        <time>2022-09-10T11:12:49Z</time>
      </trkpt>
      <trkpt lat="43.21512" lon="-0.85374">
        <ele>299.4</ele>
        <time>2022-09-10T11:12:54Z</time>
      </trkpt>
      <trkpt lat="43.21513" lon="-0.85376">
        <ele>299.6</ele>
        <time>2022-09-10T11:12:55Z</time>
      </trkpt>
      <trkpt lat="43.21517" lon="-0.85379">
        <ele>300.2</ele>
        <time>2022-09-10T11:12:58Z</time>
      </trkpt>
      <trkpt lat="43.21519" lon="-0.85382">
        <ele>300.4</ele>
        <time>2022-09-10T11:13:00Z</time>
      </trkpt>
      <trkpt lat="43.21521" lon="-0.85385">
        <ele>300.8</ele>
        <time>2022-09-10T11:13:02Z</time>
      </trkpt>
      <trkpt lat="43.21525" lon="-0.85392">
        <ele>301.4</ele>
        <time>2022-09-10T11:13:06Z</time>
      </trkpt>
      <trkpt lat="43.21529" lon="-0.85396">
        <ele>302</ele>
        <time>2022-09-10T11:13:09Z</time>
      </trkpt>
      <trkpt lat="43.21534" lon="-0.85404">
        <ele>302.6</ele>
        <time>2022-09-10T11:13:13Z</time>
      </trkpt>
      <trkpt lat="43.21538" lon="-0.85409">
        <ele>303</ele>
        <time>2022-09-10T11:13:16Z</time>
      </trkpt>
      <trkpt lat="43.21544" lon="-0.85419">
        <ele>303.8</ele>
        <time>2022-09-10T11:13:22Z</time>
      </trkpt>
      <trkpt lat="43.21545" lon="-0.85421">
        <ele>304</ele>
        <time>2022-09-10T11:13:23Z</time>
      </trkpt>
      <trkpt lat="43.21548" lon="-0.85431">
        <ele>304.6</ele>
        <time>2022-09-10T11:13:29Z</time>
      </trkpt>
      <trkpt lat="43.21549" lon="-0.85433">
        <ele>304.8</ele>
        <time>2022-09-10T11:13:30Z</time>
      </trkpt>
      <trkpt lat="43.21553" lon="-0.85445">
        <ele>305.6</ele>
        <time>2022-09-10T11:13:36Z</time>
      </trkpt>
      <trkpt lat="43.21554" lon="-0.85448">
        <ele>306</ele>
        <time>2022-09-10T11:13:38Z</time>
      </trkpt>
      <trkpt lat="43.21558" lon="-0.85455">
        <ele>306.2</ele>
        <time>2022-09-10T11:13:42Z</time>
      </trkpt>
      <trkpt lat="43.2156" lon="-0.85461">
        <ele>306.2</ele>
        <time>2022-09-10T11:13:44Z</time>
      </trkpt>
      <trkpt lat="43.21569" lon="-0.85488">
        <ele>306.8</ele>
        <time>2022-09-10T11:13:53Z</time>
      </trkpt>
      <trkpt lat="43.21571" lon="-0.85494">
        <ele>307</ele>
        <time>2022-09-10T11:13:55Z</time>
      </trkpt>
      <trkpt lat="43.21579" lon="-0.85514">
        <ele>307.2</ele>
        <time>2022-09-10T11:14:02Z</time>
      </trkpt>
      <trkpt lat="43.21585" lon="-0.85531">
        <ele>308</ele>
        <time>2022-09-10T11:14:08Z</time>
      </trkpt>
      <trkpt lat="43.21586" lon="-0.85534">
        <ele>308.4</ele>
        <time>2022-09-10T11:14:09Z</time>
      </trkpt>
      <trkpt lat="43.21589" lon="-0.85547">
        <ele>309.2</ele>
        <time>2022-09-10T11:14:14Z</time>
      </trkpt>
      <trkpt lat="43.21589" lon="-0.85553">
        <ele>309.4</ele>
        <time>2022-09-10T11:14:16Z</time>
      </trkpt>
      <trkpt lat="43.21591" lon="-0.85561">
        <ele>310.2</ele>
        <time>2022-09-10T11:14:19Z</time>
      </trkpt>
      <trkpt lat="43.21592" lon="-0.85569">
        <ele>311.4</ele>
        <time>2022-09-10T11:14:22Z</time>
      </trkpt>
      <trkpt lat="43.21595" lon="-0.85579">
        <ele>312.4</ele>
        <time>2022-09-10T11:14:26Z</time>
      </trkpt>
      <trkpt lat="43.21596" lon="-0.8559">
        <ele>313</ele>
        <time>2022-09-10T11:14:30Z</time>
      </trkpt>
      <trkpt lat="43.21596" lon="-0.85595">
        <ele>313.6</ele>
        <time>2022-09-10T11:14:33Z</time>
      </trkpt>
      <trkpt lat="43.21599" lon="-0.85603">
        <ele>313.6</ele>
        <time>2022-09-10T11:16:06Z</time>
      </trkpt>
      <trkpt lat="43.21601" lon="-0.85609">
        <ele>313.8</ele>
        <time>2022-09-10T11:16:08Z</time>
      </trkpt>
      <trkpt lat="43.21612" lon="-0.85637">
        <ele>314.2</ele>
        <time>2022-09-10T11:16:16Z</time>
      </trkpt>
      <trkpt lat="43.21617" lon="-0.85648">
        <ele>314.6</ele>
        <time>2022-09-10T11:16:20Z</time>
      </trkpt>
      <trkpt lat="43.21625" lon="-0.85661">
        <ele>315.4</ele>
        <time>2022-09-10T11:16:25Z</time>
      </trkpt>
      <trkpt lat="43.21629" lon="-0.85669">
        <ele>315.8</ele>
        <time>2022-09-10T11:16:28Z</time>
      </trkpt>
      <trkpt lat="43.21639" lon="-0.85686">
        <ele>316.6</ele>
        <time>2022-09-10T11:16:34Z</time>
      </trkpt>
      <trkpt lat="43.21641" lon="-0.85688">
        <ele>316.8</ele>
        <time>2022-09-10T11:16:35Z</time>
      </trkpt>
      <trkpt lat="43.21651" lon="-0.85705">
        <ele>317.4</ele>
        <time>2022-09-10T11:16:42Z</time>
      </trkpt>
      <trkpt lat="43.21656" lon="-0.85709">
        <ele>317.8</ele>
        <time>2022-09-10T11:16:45Z</time>
      </trkpt>
      <trkpt lat="43.21657" lon="-0.85711">
        <ele>318</ele>
        <time>2022-09-10T11:16:46Z</time>
      </trkpt>
      <trkpt lat="43.21659" lon="-0.85713">
        <ele>318.2</ele>
        <time>2022-09-10T11:16:47Z</time>
      </trkpt>
      <trkpt lat="43.21664" lon="-0.85722">
        <ele>318.8</ele>
        <time>2022-09-10T11:16:51Z</time>
      </trkpt>
      <trkpt lat="43.21666" lon="-0.85729">
        <ele>319.4</ele>
        <time>2022-09-10T11:16:54Z</time>
      </trkpt>
      <trkpt lat="43.21669" lon="-0.85738">
        <ele>319.8</ele>
        <time>2022-09-10T11:16:57Z</time>
      </trkpt>
      <trkpt lat="43.21672" lon="-0.85753">
        <ele>320.2</ele>
        <time>2022-09-10T11:17:01Z</time>
      </trkpt>
      <trkpt lat="43.21672" lon="-0.8578">
        <ele>320.8</ele>
        <time>2022-09-10T11:17:08Z</time>
      </trkpt>
      <trkpt lat="43.21672" lon="-0.85783">
        <ele>320.8</ele>
        <time>2022-09-10T11:17:09Z</time>
      </trkpt>
      <trkpt lat="43.21671" lon="-0.85807">
        <ele>321.8</ele>
        <time>2022-09-10T11:17:16Z</time>
      </trkpt>
      <trkpt lat="43.21672" lon="-0.8581">
        <ele>322</ele>
        <time>2022-09-10T11:17:17Z</time>
      </trkpt>
      <trkpt lat="43.21675" lon="-0.8583">
        <ele>322.6</ele>
        <time>2022-09-10T11:17:23Z</time>
      </trkpt>
      <trkpt lat="43.21679" lon="-0.85841">
        <ele>323</ele>
        <time>2022-09-10T11:17:27Z</time>
      </trkpt>
      <trkpt lat="43.21681" lon="-0.85847">
        <ele>323.2</ele>
        <time>2022-09-10T11:17:29Z</time>
      </trkpt>
      <trkpt lat="43.21686" lon="-0.85865">
        <ele>324</ele>
        <time>2022-09-10T11:17:35Z</time>
      </trkpt>
      <trkpt lat="43.21689" lon="-0.85872">
        <ele>324.4</ele>
        <time>2022-09-10T11:17:38Z</time>
      </trkpt>
      <trkpt lat="43.21692" lon="-0.8588">
        <ele>325.2</ele>
        <time>2022-09-10T11:17:42Z</time>
      </trkpt>
      <trkpt lat="43.21693" lon="-0.85883">
        <ele>325.4</ele>
        <time>2022-09-10T11:17:44Z</time>
      </trkpt>
      <trkpt lat="43.21695" lon="-0.85892">
        <ele>326.4</ele>
        <time>2022-09-10T11:17:49Z</time>
      </trkpt>
      <trkpt lat="43.21697" lon="-0.85903">
        <ele>327</ele>
        <time>2022-09-10T11:17:54Z</time>
      </trkpt>
      <trkpt lat="43.21698" lon="-0.8591">
        <ele>327.4</ele>
        <time>2022-09-10T11:17:57Z</time>
      </trkpt>
      <trkpt lat="43.21699" lon="-0.85922">
        <ele>328.2</ele>
        <time>2022-09-10T11:18:02Z</time>
      </trkpt>
      <trkpt lat="43.21698" lon="-0.85927">
        <ele>328.4</ele>
        <time>2022-09-10T11:18:04Z</time>
      </trkpt>
      <trkpt lat="43.21696" lon="-0.8594">
        <ele>329.4</ele>
        <time>2022-09-10T11:18:10Z</time>
      </trkpt>
      <trkpt lat="43.21696" lon="-0.85941">
        <ele>329.6</ele>
        <time>2022-09-10T11:18:12Z</time>
      </trkpt>
      <trkpt lat="43.21697" lon="-0.85958">
        <ele>330.4</ele>
        <time>2022-09-10T11:19:29Z</time>
      </trkpt>
      <trkpt lat="43.21697" lon="-0.8596">
        <ele>330.6</ele>
        <time>2022-09-10T11:19:30Z</time>
      </trkpt>
      <trkpt lat="43.21697" lon="-0.85962">
        <ele>330.6</ele>
        <time>2022-09-10T11:19:31Z</time>
      </trkpt>
      <trkpt lat="43.21697" lon="-0.85969">
        <ele>331.2</ele>
        <time>2022-09-10T11:19:34Z</time>
      </trkpt>
      <trkpt lat="43.21698" lon="-0.85974">
        <ele>331.6</ele>
        <time>2022-09-10T11:19:36Z</time>
      </trkpt>
      <trkpt lat="43.21701" lon="-0.85984">
        <ele>332.8</ele>
        <time>2022-09-10T11:19:41Z</time>
      </trkpt>
      <trkpt lat="43.21703" lon="-0.85988">
        <ele>333</ele>
        <time>2022-09-10T11:19:43Z</time>
      </trkpt>
      <trkpt lat="43.21707" lon="-0.86005">
        <ele>333.4</ele>
        <time>2022-09-10T11:19:50Z</time>
      </trkpt>
      <trkpt lat="43.21712" lon="-0.86015">
        <ele>333.8</ele>
        <time>2022-09-10T11:19:55Z</time>
      </trkpt>
      <trkpt lat="43.21717" lon="-0.86024">
        <ele>334.4</ele>
        <time>2022-09-10T11:20:00Z</time>
      </trkpt>
      <trkpt lat="43.21725" lon="-0.86035">
        <ele>334</ele>
        <time>2022-09-10T11:21:14Z</time>
      </trkpt>
      <trkpt lat="43.21728" lon="-0.86042">
        <ele>333.6</ele>
        <time>2022-09-10T11:21:16Z</time>
      </trkpt>
      <trkpt lat="43.21731" lon="-0.86054">
        <ele>332.8</ele>
        <time>2022-09-10T11:21:18Z</time>
      </trkpt>
      <trkpt lat="43.21734" lon="-0.86062">
        <ele>332</ele>
        <time>2022-09-10T11:21:19Z</time>
      </trkpt>
      <trkpt lat="43.21735" lon="-0.86071">
        <ele>330.8</ele>
        <time>2022-09-10T11:21:20Z</time>
      </trkpt>
      <trkpt lat="43.21736" lon="-0.86081">
        <ele>329.8</ele>
        <time>2022-09-10T11:21:21Z</time>
      </trkpt>
      <trkpt lat="43.21736" lon="-0.86093">
        <ele>328.8</ele>
        <time>2022-09-10T11:21:22Z</time>
      </trkpt>
      <trkpt lat="43.21735" lon="-0.86122">
        <ele>327.2</ele>
        <time>2022-09-10T11:21:24Z</time>
      </trkpt>
      <trkpt lat="43.21735" lon="-0.8615">
        <ele>325.6</ele>
        <time>2022-09-10T11:21:26Z</time>
      </trkpt>
      <trkpt lat="43.21737" lon="-0.86185">
        <ele>324.2</ele>
        <time>2022-09-10T11:21:29Z</time>
      </trkpt>
      <trkpt lat="43.21738" lon="-0.86195">
        <ele>323.8</ele>
        <time>2022-09-10T11:21:30Z</time>
      </trkpt>
      <trkpt lat="43.21738" lon="-0.86204">
        <ele>323.4</ele>
        <time>2022-09-10T11:21:31Z</time>
      </trkpt>
      <trkpt lat="43.21737" lon="-0.86214">
        <ele>323</ele>
        <time>2022-09-10T11:21:32Z</time>
      </trkpt>
      <trkpt lat="43.21733" lon="-0.86233">
        <ele>322.8</ele>
        <time>2022-09-10T11:21:34Z</time>
      </trkpt>
      <trkpt lat="43.21722" lon="-0.86261">
        <ele>321.6</ele>
        <time>2022-09-10T11:21:37Z</time>
      </trkpt>
      <trkpt lat="43.21718" lon="-0.8627">
        <ele>321.2</ele>
        <time>2022-09-10T11:21:38Z</time>
      </trkpt>
      <trkpt lat="43.21713" lon="-0.86277">
        <ele>321</ele>
        <time>2022-09-10T11:21:39Z</time>
      </trkpt>
      <trkpt lat="43.217" lon="-0.86299">
        <ele>320.8</ele>
        <time>2022-09-10T11:21:42Z</time>
      </trkpt>
      <trkpt lat="43.2169" lon="-0.86312">
        <ele>320.6</ele>
        <time>2022-09-10T11:21:44Z</time>
      </trkpt>
      <trkpt lat="43.21682" lon="-0.86326">
        <ele>320.4</ele>
        <time>2022-09-10T11:21:46Z</time>
      </trkpt>
      <trkpt lat="43.2167" lon="-0.86347">
        <ele>320.2</ele>
        <time>2022-09-10T11:21:49Z</time>
      </trkpt>
      <trkpt lat="43.21663" lon="-0.86383">
        <ele>320</ele>
        <time>2022-09-10T11:21:53Z</time>
      </trkpt>
      <trkpt lat="43.21662" lon="-0.864">
        <ele>320</ele>
        <time>2022-09-10T11:21:55Z</time>
      </trkpt>
      <trkpt lat="43.21664" lon="-0.86415">
        <ele>319.8</ele>
        <time>2022-09-10T11:21:57Z</time>
      </trkpt>
      <trkpt lat="43.21668" lon="-0.86434">
        <ele>320</ele>
        <time>2022-09-10T11:22:00Z</time>
      </trkpt>
      <trkpt lat="43.21672" lon="-0.86445">
        <ele>320.4</ele>
        <time>2022-09-10T11:22:02Z</time>
      </trkpt>
      <trkpt lat="43.21684" lon="-0.86463">
        <ele>321</ele>
        <time>2022-09-10T11:22:07Z</time>
      </trkpt>
      <trkpt lat="43.21706" lon="-0.8648">
        <ele>321</ele>
        <time>2022-09-10T11:22:14Z</time>
      </trkpt>
      <trkpt lat="43.21726" lon="-0.86496">
        <ele>320.2</ele>
        <time>2022-09-10T11:22:19Z</time>
      </trkpt>
      <trkpt lat="43.21739" lon="-0.8651">
        <ele>319.2</ele>
        <time>2022-09-10T11:22:22Z</time>
      </trkpt>
      <trkpt lat="43.21744" lon="-0.86516">
        <ele>319.2</ele>
        <time>2022-09-10T11:22:23Z</time>
      </trkpt>
      <trkpt lat="43.21751" lon="-0.86528">
        <ele>318.6</ele>
        <time>2022-09-10T11:22:25Z</time>
      </trkpt>
      <trkpt lat="43.21757" lon="-0.86543">
        <ele>318.2</ele>
        <time>2022-09-10T11:22:27Z</time>
      </trkpt>
      <trkpt lat="43.21763" lon="-0.86578">
        <ele>317.2</ele>
        <time>2022-09-10T11:22:31Z</time>
      </trkpt>
      <trkpt lat="43.21764" lon="-0.86588">
        <ele>317</ele>
        <time>2022-09-10T11:22:32Z</time>
      </trkpt>
      <trkpt lat="43.21764" lon="-0.86617">
        <ele>316.2</ele>
        <time>2022-09-10T11:22:35Z</time>
      </trkpt>
      <trkpt lat="43.21764" lon="-0.86637">
        <ele>315.4</ele>
        <time>2022-09-10T11:22:37Z</time>
      </trkpt>
      <trkpt lat="43.21765" lon="-0.86658">
        <ele>315</ele>
        <time>2022-09-10T11:22:39Z</time>
      </trkpt>
      <trkpt lat="43.21766" lon="-0.86691">
        <ele>314.4</ele>
        <time>2022-09-10T11:22:42Z</time>
      </trkpt>
      <trkpt lat="43.21768" lon="-0.86735">
        <ele>313.6</ele>
        <time>2022-09-10T11:22:46Z</time>
      </trkpt>
      <trkpt lat="43.21769" lon="-0.86745">
        <ele>313.4</ele>
        <time>2022-09-10T11:22:47Z</time>
      </trkpt>
      <trkpt lat="43.21771" lon="-0.86757">
        <ele>313.2</ele>
        <time>2022-09-10T11:22:48Z</time>
      </trkpt>
      <trkpt lat="43.21773" lon="-0.86767">
        <ele>312.4</ele>
        <time>2022-09-10T11:22:49Z</time>
      </trkpt>
      <trkpt lat="43.21779" lon="-0.86783">
        <ele>312</ele>
        <time>2022-09-10T11:22:51Z</time>
      </trkpt>
      <trkpt lat="43.2179" lon="-0.86798">
        <ele>311.2</ele>
        <time>2022-09-10T11:22:54Z</time>
      </trkpt>
      <trkpt lat="43.21797" lon="-0.86803">
        <ele>310.2</ele>
        <time>2022-09-10T11:22:55Z</time>
      </trkpt>
      <trkpt lat="43.21805" lon="-0.86808">
        <ele>309.6</ele>
        <time>2022-09-10T11:22:56Z</time>
      </trkpt>
      <trkpt lat="43.21814" lon="-0.86814">
        <ele>308.6</ele>
        <time>2022-09-10T11:22:57Z</time>
      </trkpt>
      <trkpt lat="43.21824" lon="-0.8682">
        <ele>307.8</ele>
        <time>2022-09-10T11:22:58Z</time>
      </trkpt>
      <trkpt lat="43.21847" lon="-0.8683">
        <ele>306.6</ele>
        <time>2022-09-10T11:23:00Z</time>
      </trkpt>
      <trkpt lat="43.21859" lon="-0.86834">
        <ele>306.2</ele>
        <time>2022-09-10T11:23:01Z</time>
      </trkpt>
      <trkpt lat="43.2187" lon="-0.86838">
        <ele>305.6</ele>
        <time>2022-09-10T11:23:02Z</time>
      </trkpt>
      <trkpt lat="43.2189" lon="-0.86846">
        <ele>304.4</ele>
        <time>2022-09-10T11:23:04Z</time>
      </trkpt>
      <trkpt lat="43.21907" lon="-0.86857">
        <ele>304.2</ele>
        <time>2022-09-10T11:23:06Z</time>
      </trkpt>
      <trkpt lat="43.21923" lon="-0.86872">
        <ele>303.2</ele>
        <time>2022-09-10T11:23:08Z</time>
      </trkpt>
      <trkpt lat="43.21929" lon="-0.8688">
        <ele>302</ele>
        <time>2022-09-10T11:23:09Z</time>
      </trkpt>
      <trkpt lat="43.21936" lon="-0.86886">
        <ele>300.8</ele>
        <time>2022-09-10T11:23:10Z</time>
      </trkpt>
      <trkpt lat="43.21943" lon="-0.86892">
        <ele>299.6</ele>
        <time>2022-09-10T11:23:11Z</time>
      </trkpt>
      <trkpt lat="43.21952" lon="-0.86898">
        <ele>298.4</ele>
        <time>2022-09-10T11:23:12Z</time>
      </trkpt>
      <trkpt lat="43.21961" lon="-0.86903">
        <ele>295.6</ele>
        <time>2022-09-10T11:23:13Z</time>
      </trkpt>
      <trkpt lat="43.21971" lon="-0.86907">
        <ele>294</ele>
        <time>2022-09-10T11:23:14Z</time>
      </trkpt>
      <trkpt lat="43.21981" lon="-0.86913">
        <ele>292.6</ele>
        <time>2022-09-10T11:23:15Z</time>
      </trkpt>
      <trkpt lat="43.2199" lon="-0.86919">
        <ele>291.2</ele>
        <time>2022-09-10T11:23:16Z</time>
      </trkpt>
      <trkpt lat="43.22" lon="-0.86927">
        <ele>290</ele>
        <time>2022-09-10T11:23:17Z</time>
      </trkpt>
      <trkpt lat="43.22009" lon="-0.86936">
        <ele>288.6</ele>
        <time>2022-09-10T11:23:18Z</time>
      </trkpt>
      <trkpt lat="43.22018" lon="-0.86945">
        <ele>287</ele>
        <time>2022-09-10T11:23:19Z</time>
      </trkpt>
      <trkpt lat="43.22026" lon="-0.86954">
        <ele>285.6</ele>
        <time>2022-09-10T11:23:20Z</time>
      </trkpt>
      <trkpt lat="43.22034" lon="-0.86961">
        <ele>284</ele>
        <time>2022-09-10T11:23:21Z</time>
      </trkpt>
      <trkpt lat="43.22042" lon="-0.86968">
        <ele>282.8</ele>
        <time>2022-09-10T11:23:22Z</time>
      </trkpt>
      <trkpt lat="43.22049" lon="-0.86974">
        <ele>281.8</ele>
        <time>2022-09-10T11:23:23Z</time>
      </trkpt>
      <trkpt lat="43.22055" lon="-0.86981">
        <ele>281</ele>
        <time>2022-09-10T11:23:24Z</time>
      </trkpt>
      <trkpt lat="43.2206" lon="-0.86989">
        <ele>280.4</ele>
        <time>2022-09-10T11:23:25Z</time>
      </trkpt>
      <trkpt lat="43.22062" lon="-0.87006">
        <ele>279.8</ele>
        <time>2022-09-10T11:23:27Z</time>
      </trkpt>
      <trkpt lat="43.2206" lon="-0.87034">
        <ele>280.2</ele>
        <time>2022-09-10T11:23:31Z</time>
      </trkpt>
      <trkpt lat="43.22059" lon="-0.8706">
        <ele>279.8</ele>
        <time>2022-09-10T11:23:34Z</time>
      </trkpt>
      <trkpt lat="43.2206" lon="-0.87069">
        <ele>279.2</ele>
        <time>2022-09-10T11:23:35Z</time>
      </trkpt>
      <trkpt lat="43.22063" lon="-0.87079">
        <ele>278</ele>
        <time>2022-09-10T11:23:36Z</time>
      </trkpt>
      <trkpt lat="43.22067" lon="-0.87087">
        <ele>275.6</ele>
        <time>2022-09-10T11:23:37Z</time>
      </trkpt>
      <trkpt lat="43.22072" lon="-0.87096">
        <ele>274.2</ele>
        <time>2022-09-10T11:23:38Z</time>
      </trkpt>
      <trkpt lat="43.22079" lon="-0.87105">
        <ele>272.8</ele>
        <time>2022-09-10T11:23:39Z</time>
      </trkpt>
      <trkpt lat="43.22087" lon="-0.87116">
        <ele>271.4</ele>
        <time>2022-09-10T11:23:40Z</time>
      </trkpt>
      <trkpt lat="43.22095" lon="-0.87127">
        <ele>269.8</ele>
        <time>2022-09-10T11:23:41Z</time>
      </trkpt>
      <trkpt lat="43.22102" lon="-0.87137">
        <ele>268</ele>
        <time>2022-09-10T11:23:42Z</time>
      </trkpt>
      <trkpt lat="43.22107" lon="-0.87147">
        <ele>266.4</ele>
        <time>2022-09-10T11:23:43Z</time>
      </trkpt>
      <trkpt lat="43.22112" lon="-0.87159">
        <ele>265.4</ele>
        <time>2022-09-10T11:23:44Z</time>
      </trkpt>
      <trkpt lat="43.22118" lon="-0.8718">
        <ele>263.6</ele>
        <time>2022-09-10T11:23:46Z</time>
      </trkpt>
      <trkpt lat="43.22121" lon="-0.87191">
        <ele>262.4</ele>
        <time>2022-09-10T11:23:47Z</time>
      </trkpt>
      <trkpt lat="43.22125" lon="-0.87202">
        <ele>261.2</ele>
        <time>2022-09-10T11:23:48Z</time>
      </trkpt>
      <trkpt lat="43.2213" lon="-0.87213">
        <ele>259.6</ele>
        <time>2022-09-10T11:23:49Z</time>
      </trkpt>
      <trkpt lat="43.22136" lon="-0.87226">
        <ele>257.8</ele>
        <time>2022-09-10T11:23:50Z</time>
      </trkpt>
      <trkpt lat="43.22142" lon="-0.87239">
        <ele>255.8</ele>
        <time>2022-09-10T11:23:51Z</time>
      </trkpt>
      <trkpt lat="43.22147" lon="-0.87253">
        <ele>254</ele>
        <time>2022-09-10T11:23:52Z</time>
      </trkpt>
      <trkpt lat="43.22152" lon="-0.87269">
        <ele>252.4</ele>
        <time>2022-09-10T11:23:53Z</time>
      </trkpt>
      <trkpt lat="43.22159" lon="-0.87282">
        <ele>251.2</ele>
        <time>2022-09-10T11:23:54Z</time>
      </trkpt>
      <trkpt lat="43.22173" lon="-0.87302">
        <ele>250</ele>
        <time>2022-09-10T11:23:56Z</time>
      </trkpt>
      <trkpt lat="43.22188" lon="-0.87331">
        <ele>249.6</ele>
        <time>2022-09-10T11:23:59Z</time>
      </trkpt>
      <trkpt lat="43.22192" lon="-0.87348">
        <ele>248.2</ele>
        <time>2022-09-10T11:24:01Z</time>
      </trkpt>
      <trkpt lat="43.22192" lon="-0.87357">
        <ele>247.4</ele>
        <time>2022-09-10T11:24:02Z</time>
      </trkpt>
      <trkpt lat="43.22191" lon="-0.87367">
        <ele>246.4</ele>
        <time>2022-09-10T11:24:03Z</time>
      </trkpt>
      <trkpt lat="43.22189" lon="-0.87378">
        <ele>245</ele>
        <time>2022-09-10T11:24:04Z</time>
      </trkpt>
      <trkpt lat="43.22187" lon="-0.8739">
        <ele>243.6</ele>
        <time>2022-09-10T11:24:05Z</time>
      </trkpt>
      <trkpt lat="43.22184" lon="-0.87402">
        <ele>242.2</ele>
        <time>2022-09-10T11:24:06Z</time>
      </trkpt>
      <trkpt lat="43.22181" lon="-0.87414">
        <ele>241</ele>
        <time>2022-09-10T11:24:07Z</time>
      </trkpt>
      <trkpt lat="43.22179" lon="-0.87426">
        <ele>239.8</ele>
        <time>2022-09-10T11:24:08Z</time>
      </trkpt>
      <trkpt lat="43.22181" lon="-0.8745">
        <ele>238.2</ele>
        <time>2022-09-10T11:24:10Z</time>
      </trkpt>
      <trkpt lat="43.2219" lon="-0.87475">
        <ele>237.6</ele>
        <time>2022-09-10T11:24:13Z</time>
      </trkpt>
      <trkpt lat="43.222" lon="-0.87487">
        <ele>237.2</ele>
        <time>2022-09-10T11:24:15Z</time>
      </trkpt>
      <trkpt lat="43.22206" lon="-0.87492">
        <ele>236.6</ele>
        <time>2022-09-10T11:24:16Z</time>
      </trkpt>
      <trkpt lat="43.22211" lon="-0.87498">
        <ele>235.6</ele>
        <time>2022-09-10T11:24:17Z</time>
      </trkpt>
      <trkpt lat="43.22215" lon="-0.87505">
        <ele>234.4</ele>
        <time>2022-09-10T11:24:18Z</time>
      </trkpt>
      <trkpt lat="43.2222" lon="-0.87523">
        <ele>232.4</ele>
        <time>2022-09-10T11:24:20Z</time>
      </trkpt>
      <trkpt lat="43.22221" lon="-0.87541">
        <ele>230.6</ele>
        <time>2022-09-10T11:24:22Z</time>
      </trkpt>
      <trkpt lat="43.22221" lon="-0.87559">
        <ele>228.8</ele>
        <time>2022-09-10T11:24:24Z</time>
      </trkpt>
      <trkpt lat="43.22221" lon="-0.87567">
        <ele>226.8</ele>
        <time>2022-09-10T11:24:25Z</time>
      </trkpt>
      <trkpt lat="43.2222" lon="-0.87574">
        <ele>225.6</ele>
        <time>2022-09-10T11:24:26Z</time>
      </trkpt>
      <trkpt lat="43.22219" lon="-0.87586">
        <ele>223.8</ele>
        <time>2022-09-10T11:24:28Z</time>
      </trkpt>
      <trkpt lat="43.22218" lon="-0.8759">
        <ele>223</ele>
        <time>2022-09-10T11:24:29Z</time>
      </trkpt>
      <trkpt lat="43.22218" lon="-0.87594">
        <ele>222.6</ele>
        <time>2022-09-10T11:24:30Z</time>
      </trkpt>
      <trkpt lat="43.22217" lon="-0.87597">
        <ele>221.8</ele>
        <time>2022-09-10T11:24:33Z</time>
      </trkpt>
      <trkpt lat="43.22215" lon="-0.8761">
        <ele>222.4</ele>
        <time>2022-09-10T11:28:10Z</time>
      </trkpt>
      <trkpt lat="43.22214" lon="-0.87617">
        <ele>222.2</ele>
        <time>2022-09-10T11:28:12Z</time>
      </trkpt>
      <trkpt lat="43.22213" lon="-0.87626">
        <ele>221.4</ele>
        <time>2022-09-10T11:28:14Z</time>
      </trkpt>
      <trkpt lat="43.22209" lon="-0.87641">
        <ele>219.8</ele>
        <time>2022-09-10T11:28:17Z</time>
      </trkpt>
      <trkpt lat="43.22205" lon="-0.87658">
        <ele>218.4</ele>
        <time>2022-09-10T11:28:19Z</time>
      </trkpt>
      <trkpt lat="43.222" lon="-0.87675">
        <ele>217.2</ele>
        <time>2022-09-10T11:28:21Z</time>
      </trkpt>
      <trkpt lat="43.22195" lon="-0.87692">
        <ele>215.2</ele>
        <time>2022-09-10T11:28:23Z</time>
      </trkpt>
      <trkpt lat="43.22189" lon="-0.87716">
        <ele>213.6</ele>
        <time>2022-09-10T11:28:26Z</time>
      </trkpt>
      <trkpt lat="43.22187" lon="-0.87724">
        <ele>211.8</ele>
        <time>2022-09-10T11:28:27Z</time>
      </trkpt>
      <trkpt lat="43.22184" lon="-0.87731">
        <ele>211</ele>
        <time>2022-09-10T11:28:28Z</time>
      </trkpt>
      <trkpt lat="43.22182" lon="-0.87739">
        <ele>210</ele>
        <time>2022-09-10T11:28:29Z</time>
      </trkpt>
      <trkpt lat="43.22179" lon="-0.87746">
        <ele>208.8</ele>
        <time>2022-09-10T11:28:30Z</time>
      </trkpt>
      <trkpt lat="43.22174" lon="-0.87761">
        <ele>207.2</ele>
        <time>2022-09-10T11:28:32Z</time>
      </trkpt>
      <trkpt lat="43.22169" lon="-0.87776">
        <ele>205.8</ele>
        <time>2022-09-10T11:28:34Z</time>
      </trkpt>
      <trkpt lat="43.22166" lon="-0.87784">
        <ele>204.6</ele>
        <time>2022-09-10T11:28:35Z</time>
      </trkpt>
      <trkpt lat="43.22164" lon="-0.87792">
        <ele>203.4</ele>
        <time>2022-09-10T11:28:36Z</time>
      </trkpt>
      <trkpt lat="43.22161" lon="-0.87802">
        <ele>202.2</ele>
        <time>2022-09-10T11:28:37Z</time>
      </trkpt>
      <trkpt lat="43.22158" lon="-0.87811">
        <ele>201</ele>
        <time>2022-09-10T11:28:38Z</time>
      </trkpt>
      <trkpt lat="43.22156" lon="-0.87821">
        <ele>199.8</ele>
        <time>2022-09-10T11:28:39Z</time>
      </trkpt>
      <trkpt lat="43.22153" lon="-0.87831">
        <ele>198.4</ele>
        <time>2022-09-10T11:28:40Z</time>
      </trkpt>
      <trkpt lat="43.22151" lon="-0.87841">
        <ele>197.2</ele>
        <time>2022-09-10T11:28:41Z</time>
      </trkpt>
      <trkpt lat="43.2215" lon="-0.87852">
        <ele>196.2</ele>
        <time>2022-09-10T11:28:42Z</time>
      </trkpt>
      <trkpt lat="43.22148" lon="-0.87863">
        <ele>195</ele>
        <time>2022-09-10T11:28:43Z</time>
      </trkpt>
      <trkpt lat="43.22145" lon="-0.87873">
        <ele>194.2</ele>
        <time>2022-09-10T11:28:44Z</time>
      </trkpt>
      <trkpt lat="43.22142" lon="-0.87883">
        <ele>193.2</ele>
        <time>2022-09-10T11:28:45Z</time>
      </trkpt>
      <trkpt lat="43.22135" lon="-0.87901">
        <ele>192.2</ele>
        <time>2022-09-10T11:28:47Z</time>
      </trkpt>
      <trkpt lat="43.22132" lon="-0.87919">
        <ele>191.6</ele>
        <time>2022-09-10T11:28:49Z</time>
      </trkpt>
      <trkpt lat="43.22131" lon="-0.87939">
        <ele>189.8</ele>
        <time>2022-09-10T11:28:51Z</time>
      </trkpt>
      <trkpt lat="43.22131" lon="-0.8795">
        <ele>188.8</ele>
        <time>2022-09-10T11:28:52Z</time>
      </trkpt>
      <trkpt lat="43.22132" lon="-0.8796">
        <ele>187.6</ele>
        <time>2022-09-10T11:28:53Z</time>
      </trkpt>
      <trkpt lat="43.22134" lon="-0.8797">
        <ele>186.4</ele>
        <time>2022-09-10T11:28:54Z</time>
      </trkpt>
      <trkpt lat="43.22137" lon="-0.8798">
        <ele>185.2</ele>
        <time>2022-09-10T11:28:55Z</time>
      </trkpt>
      <trkpt lat="43.22139" lon="-0.87988">
        <ele>183.8</ele>
        <time>2022-09-10T11:28:56Z</time>
      </trkpt>
      <trkpt lat="43.22142" lon="-0.87997">
        <ele>182.2</ele>
        <time>2022-09-10T11:28:57Z</time>
      </trkpt>
      <trkpt lat="43.22144" lon="-0.88004">
        <ele>180.6</ele>
        <time>2022-09-10T11:28:58Z</time>
      </trkpt>
      <trkpt lat="43.22149" lon="-0.8802">
        <ele>178.8</ele>
        <time>2022-09-10T11:29:00Z</time>
      </trkpt>
      <trkpt lat="43.2215" lon="-0.88027">
        <ele>178.4</ele>
        <time>2022-09-10T11:29:01Z</time>
      </trkpt>
      <trkpt lat="43.22151" lon="-0.88034">
        <ele>177.8</ele>
        <time>2022-09-10T11:29:02Z</time>
      </trkpt>
      <trkpt lat="43.22153" lon="-0.8805">
        <ele>177</ele>
        <time>2022-09-10T11:29:04Z</time>
      </trkpt>
      <trkpt lat="43.22152" lon="-0.88067">
        <ele>176.6</ele>
        <time>2022-09-10T11:29:06Z</time>
      </trkpt>
      <trkpt lat="43.2215" lon="-0.88083">
        <ele>175.2</ele>
        <time>2022-09-10T11:29:08Z</time>
      </trkpt>
      <trkpt lat="43.22144" lon="-0.88101">
        <ele>173.6</ele>
        <time>2022-09-10T11:29:10Z</time>
      </trkpt>
      <trkpt lat="43.2214" lon="-0.8811">
        <ele>172.6</ele>
        <time>2022-09-10T11:29:11Z</time>
      </trkpt>
      <trkpt lat="43.22136" lon="-0.88118">
        <ele>171.6</ele>
        <time>2022-09-10T11:29:12Z</time>
      </trkpt>
      <trkpt lat="43.22132" lon="-0.88126">
        <ele>170.2</ele>
        <time>2022-09-10T11:29:13Z</time>
      </trkpt>
      <trkpt lat="43.22128" lon="-0.88134">
        <ele>169</ele>
        <time>2022-09-10T11:29:14Z</time>
      </trkpt>
      <trkpt lat="43.22125" lon="-0.88144">
        <ele>166.2</ele>
        <time>2022-09-10T11:29:15Z</time>
      </trkpt>
      <trkpt lat="43.22123" lon="-0.88157">
        <ele>164.8</ele>
        <time>2022-09-10T11:29:16Z</time>
      </trkpt>
      <trkpt lat="43.22123" lon="-0.88182">
        <ele>164.2</ele>
        <time>2022-09-10T11:29:18Z</time>
      </trkpt>
      <trkpt lat="43.22121" lon="-0.88223">
        <ele>164</ele>
        <time>2022-09-10T11:29:22Z</time>
      </trkpt>
      <trkpt lat="43.22115" lon="-0.88241">
        <ele>164.2</ele>
        <time>2022-09-10T11:29:25Z</time>
      </trkpt>
      <trkpt lat="43.22109" lon="-0.88255">
        <ele>165.2</ele>
        <time>2022-09-10T11:29:29Z</time>
      </trkpt>
      <trkpt lat="43.22109" lon="-0.88262">
        <ele>166.2</ele>
        <time>2022-09-10T11:29:32Z</time>
      </trkpt>
      <trkpt lat="43.22109" lon="-0.88264">
        <ele>166.6</ele>
        <time>2022-09-10T11:29:33Z</time>
      </trkpt>
      <trkpt lat="43.2211" lon="-0.88265">
        <ele>166.8</ele>
        <time>2022-09-10T11:29:34Z</time>
      </trkpt>
      <trkpt lat="43.22112" lon="-0.88268">
        <ele>167.2</ele>
        <time>2022-09-10T11:29:36Z</time>
      </trkpt>
      <trkpt lat="43.22115" lon="-0.88269">
        <ele>167.8</ele>
        <time>2022-09-10T11:29:38Z</time>
      </trkpt>
      <trkpt lat="43.22125" lon="-0.88274">
        <ele>168.4</ele>
        <time>2022-09-10T11:29:43Z</time>
      </trkpt>
      <trkpt lat="43.22129" lon="-0.88275">
        <ele>168.6</ele>
        <time>2022-09-10T11:29:45Z</time>
      </trkpt>
      <trkpt lat="43.22139" lon="-0.88281">
        <ele>168.6</ele>
        <time>2022-09-10T11:29:51Z</time>
      </trkpt>
      <trkpt lat="43.22148" lon="-0.8829">
        <ele>168.6</ele>
        <time>2022-09-10T11:29:57Z</time>
      </trkpt>
      <trkpt lat="43.22148" lon="-0.88293">
        <ele>168.8</ele>
        <time>2022-09-10T11:29:58Z</time>
      </trkpt>
      <trkpt lat="43.22145" lon="-0.88307">
        <ele>169.2</ele>
        <time>2022-09-10T11:30:03Z</time>
      </trkpt>
      <trkpt lat="43.22145" lon="-0.8831">
        <ele>169.4</ele>
        <time>2022-09-10T11:30:04Z</time>
      </trkpt>
      <trkpt lat="43.22144" lon="-0.88327">
        <ele>170.6</ele>
        <time>2022-09-10T11:30:11Z</time>
      </trkpt>
      <trkpt lat="43.22144" lon="-0.88331">
        <ele>170.8</ele>
        <time>2022-09-10T11:30:13Z</time>
      </trkpt>
      <trkpt lat="43.22148" lon="-0.88335">
        <ele>171</ele>
        <time>2022-09-10T11:30:16Z</time>
      </trkpt>
      <trkpt lat="43.22161" lon="-0.88343">
        <ele>171.2</ele>
        <time>2022-09-10T11:30:24Z</time>
      </trkpt>
      <trkpt lat="43.22163" lon="-0.88348">
        <ele>171.6</ele>
        <time>2022-09-10T11:30:27Z</time>
      </trkpt>
      <trkpt lat="43.22162" lon="-0.88354">
        <ele>172</ele>
        <time>2022-09-10T11:30:30Z</time>
      </trkpt>
      <trkpt lat="43.22162" lon="-0.88357">
        <ele>172.2</ele>
        <time>2022-09-10T11:30:31Z</time>
      </trkpt>
      <trkpt lat="43.22158" lon="-0.88367">
        <ele>172.6</ele>
        <time>2022-09-10T11:30:36Z</time>
      </trkpt>
      <trkpt lat="43.22157" lon="-0.88371">
        <ele>173</ele>
        <time>2022-09-10T11:30:38Z</time>
      </trkpt>
      <trkpt lat="43.22149" lon="-0.88386">
        <ele>173.6</ele>
        <time>2022-09-10T11:30:46Z</time>
      </trkpt>
      <trkpt lat="43.22142" lon="-0.88394">
        <ele>174.8</ele>
        <time>2022-09-10T11:30:52Z</time>
      </trkpt>
      <trkpt lat="43.2214" lon="-0.88397">
        <ele>175.2</ele>
        <time>2022-09-10T11:30:54Z</time>
      </trkpt>
      <trkpt lat="43.22138" lon="-0.884">
        <ele>175.4</ele>
        <time>2022-09-10T11:30:56Z</time>
      </trkpt>
      <trkpt lat="43.22136" lon="-0.88403">
        <ele>175.8</ele>
        <time>2022-09-10T11:30:58Z</time>
      </trkpt>
      <trkpt lat="43.22135" lon="-0.88407">
        <ele>176.2</ele>
        <time>2022-09-10T11:31:00Z</time>
      </trkpt>
      <trkpt lat="43.22134" lon="-0.88408">
        <ele>176.4</ele>
        <time>2022-09-10T11:31:01Z</time>
      </trkpt>
      <trkpt lat="43.22131" lon="-0.88411">
        <ele>177</ele>
        <time>2022-09-10T11:31:04Z</time>
      </trkpt>
      <trkpt lat="43.2213" lon="-0.88416">
        <ele>177.4</ele>
        <time>2022-09-10T11:31:07Z</time>
      </trkpt>
      <trkpt lat="43.2213" lon="-0.88418">
        <ele>177.6</ele>
        <time>2022-09-10T11:31:08Z</time>
      </trkpt>
      <trkpt lat="43.22128" lon="-0.88421">
        <ele>178</ele>
        <time>2022-09-10T11:31:10Z</time>
      </trkpt>
      <trkpt lat="43.22123" lon="-0.88426">
        <ele>179</ele>
        <time>2022-09-10T11:31:15Z</time>
      </trkpt>
      <trkpt lat="43.22122" lon="-0.88427">
        <ele>179.2</ele>
        <time>2022-09-10T11:31:16Z</time>
      </trkpt>
      <trkpt lat="43.22117" lon="-0.88432">
        <ele>179.8</ele>
        <time>2022-09-10T11:31:21Z</time>
      </trkpt>
      <trkpt lat="43.22117" lon="-0.88433">
        <ele>180</ele>
        <time>2022-09-10T11:31:22Z</time>
      </trkpt>
      <trkpt lat="43.22117" lon="-0.88435">
        <ele>180.2</ele>
        <time>2022-09-10T11:31:23Z</time>
      </trkpt>
      <trkpt lat="43.22121" lon="-0.88443">
        <ele>180.8</ele>
        <time>2022-09-10T11:31:28Z</time>
      </trkpt>
      <trkpt lat="43.2212" lon="-0.88445">
        <ele>180.8</ele>
        <time>2022-09-10T11:31:29Z</time>
      </trkpt>
      <trkpt lat="43.22117" lon="-0.88447">
        <ele>181.4</ele>
        <time>2022-09-10T11:31:32Z</time>
      </trkpt>
      <trkpt lat="43.22112" lon="-0.88449">
        <ele>181.8</ele>
        <time>2022-09-10T11:31:37Z</time>
      </trkpt>
      <trkpt lat="43.22114" lon="-0.88452">
        <ele>182.4</ele>
        <time>2022-09-10T11:31:39Z</time>
      </trkpt>
      <trkpt lat="43.22115" lon="-0.88453">
        <ele>182.4</ele>
        <time>2022-09-10T11:31:40Z</time>
      </trkpt>
      <trkpt lat="43.22115" lon="-0.88455">
        <ele>182.6</ele>
        <time>2022-09-10T11:31:41Z</time>
      </trkpt>
      <trkpt lat="43.22111" lon="-0.88458">
        <ele>183.2</ele>
        <time>2022-09-10T11:31:45Z</time>
      </trkpt>
      <trkpt lat="43.22109" lon="-0.88462">
        <ele>183.6</ele>
        <time>2022-09-10T11:31:48Z</time>
      </trkpt>
      <trkpt lat="43.2211" lon="-0.88467">
        <ele>184.2</ele>
        <time>2022-09-10T11:31:51Z</time>
      </trkpt>
      <trkpt lat="43.22111" lon="-0.88468">
        <ele>184.2</ele>
        <time>2022-09-10T11:31:52Z</time>
      </trkpt>
      <trkpt lat="43.22111" lon="-0.8847">
        <ele>184.4</ele>
        <time>2022-09-10T11:31:53Z</time>
      </trkpt>
      <trkpt lat="43.2211" lon="-0.88473">
        <ele>184.6</ele>
        <time>2022-09-10T11:31:55Z</time>
      </trkpt>
      <trkpt lat="43.22109" lon="-0.88474">
        <ele>184.8</ele>
        <time>2022-09-10T11:31:56Z</time>
      </trkpt>
      <trkpt lat="43.22103" lon="-0.88477">
        <ele>185.6</ele>
        <time>2022-09-10T11:32:01Z</time>
      </trkpt>
      <trkpt lat="43.22105" lon="-0.88482">
        <ele>186.6</ele>
        <time>2022-09-10T11:32:05Z</time>
      </trkpt>
      <trkpt lat="43.22106" lon="-0.88484">
        <ele>186.6</ele>
        <time>2022-09-10T11:32:06Z</time>
      </trkpt>
      <trkpt lat="43.22105" lon="-0.88489">
        <ele>187.2</ele>
        <time>2022-09-10T11:32:09Z</time>
      </trkpt>
      <trkpt lat="43.22101" lon="-0.88492">
        <ele>187.8</ele>
        <time>2022-09-10T11:32:12Z</time>
      </trkpt>
      <trkpt lat="43.221" lon="-0.88495">
        <ele>188</ele>
        <time>2022-09-10T11:32:14Z</time>
      </trkpt>
      <trkpt lat="43.22104" lon="-0.885">
        <ele>188.8</ele>
        <time>2022-09-10T11:32:18Z</time>
      </trkpt>
      <trkpt lat="43.22104" lon="-0.88501">
        <ele>189</ele>
        <time>2022-09-10T11:32:19Z</time>
      </trkpt>
      <trkpt lat="43.22102" lon="-0.88508">
        <ele>189.6</ele>
        <time>2022-09-10T11:32:23Z</time>
      </trkpt>
      <trkpt lat="43.22101" lon="-0.8851">
        <ele>189.8</ele>
        <time>2022-09-10T11:32:24Z</time>
      </trkpt>
      <trkpt lat="43.22101" lon="-0.88512">
        <ele>190</ele>
        <time>2022-09-10T11:32:25Z</time>
      </trkpt>
      <trkpt lat="43.22104" lon="-0.88516">
        <ele>190.6</ele>
        <time>2022-09-10T11:32:28Z</time>
      </trkpt>
      <trkpt lat="43.22105" lon="-0.88519">
        <ele>191</ele>
        <time>2022-09-10T11:32:30Z</time>
      </trkpt>
      <trkpt lat="43.22104" lon="-0.88524">
        <ele>191.2</ele>
        <time>2022-09-10T11:32:33Z</time>
      </trkpt>
      <trkpt lat="43.22103" lon="-0.88528">
        <ele>191.6</ele>
        <time>2022-09-10T11:32:35Z</time>
      </trkpt>
      <trkpt lat="43.22105" lon="-0.88534">
        <ele>192</ele>
        <time>2022-09-10T11:32:39Z</time>
      </trkpt>
      <trkpt lat="43.22105" lon="-0.88536">
        <ele>192</ele>
        <time>2022-09-10T11:32:40Z</time>
      </trkpt>
      <trkpt lat="43.22108" lon="-0.88554">
        <ele>192.2</ele>
        <time>2022-09-10T11:32:48Z</time>
      </trkpt>
      <trkpt lat="43.22109" lon="-0.88564">
        <ele>192</ele>
        <time>2022-09-10T11:32:51Z</time>
      </trkpt>
      <trkpt lat="43.22107" lon="-0.88572">
        <ele>191.8</ele>
        <time>2022-09-10T11:32:53Z</time>
      </trkpt>
      <trkpt lat="43.22101" lon="-0.88589">
        <ele>191.2</ele>
        <time>2022-09-10T11:32:58Z</time>
      </trkpt>
      <trkpt lat="43.22099" lon="-0.88591">
        <ele>191</ele>
        <time>2022-09-10T11:32:59Z</time>
      </trkpt>
      <trkpt lat="43.22099" lon="-0.88593">
        <ele>191</ele>
        <time>2022-09-10T11:33:00Z</time>
      </trkpt>
      <trkpt lat="43.22098" lon="-0.88604">
        <ele>190.6</ele>
        <time>2022-09-10T11:33:03Z</time>
      </trkpt>
      <trkpt lat="43.22096" lon="-0.88613">
        <ele>190.2</ele>
        <time>2022-09-10T11:33:05Z</time>
      </trkpt>
      <trkpt lat="43.22095" lon="-0.88618">
        <ele>189.8</ele>
        <time>2022-09-10T11:33:06Z</time>
      </trkpt>
      <trkpt lat="43.22091" lon="-0.88631">
        <ele>188.6</ele>
        <time>2022-09-10T11:33:09Z</time>
      </trkpt>
      <trkpt lat="43.22086" lon="-0.88643">
        <ele>187.6</ele>
        <time>2022-09-10T11:33:14Z</time>
      </trkpt>
      <trkpt lat="43.22086" lon="-0.88644">
        <ele>187.6</ele>
        <time>2022-09-10T11:33:15Z</time>
      </trkpt>
      <trkpt lat="43.22081" lon="-0.88649">
        <ele>187.4</ele>
        <time>2022-09-10T11:33:31Z</time>
      </trkpt>
      <trkpt lat="43.22076" lon="-0.88656">
        <ele>186.6</ele>
        <time>2022-09-10T11:34:03Z</time>
      </trkpt>
      <trkpt lat="43.22074" lon="-0.88659">
        <ele>186.6</ele>
        <time>2022-09-10T11:34:04Z</time>
      </trkpt>
      <trkpt lat="43.22068" lon="-0.88672">
        <ele>186</ele>
        <time>2022-09-10T11:34:07Z</time>
      </trkpt>
      <trkpt lat="43.22065" lon="-0.88678">
        <ele>185.4</ele>
        <time>2022-09-10T11:34:08Z</time>
      </trkpt>
      <trkpt lat="43.22059" lon="-0.8869">
        <ele>184</ele>
        <time>2022-09-10T11:34:10Z</time>
      </trkpt>
      <trkpt lat="43.22053" lon="-0.887">
        <ele>182.4</ele>
        <time>2022-09-10T11:34:12Z</time>
      </trkpt>
      <trkpt lat="43.22046" lon="-0.8871">
        <ele>181</ele>
        <time>2022-09-10T11:34:14Z</time>
      </trkpt>
      <trkpt lat="43.22039" lon="-0.88718">
        <ele>179.6</ele>
        <time>2022-09-10T11:34:16Z</time>
      </trkpt>
      <trkpt lat="43.22034" lon="-0.88724">
        <ele>178</ele>
        <time>2022-09-10T11:34:18Z</time>
      </trkpt>
      <trkpt lat="43.22028" lon="-0.88731">
        <ele>176.4</ele>
        <time>2022-09-10T11:34:20Z</time>
      </trkpt>
      <trkpt lat="43.22022" lon="-0.88738">
        <ele>174.8</ele>
        <time>2022-09-10T11:34:22Z</time>
      </trkpt>
      <trkpt lat="43.22018" lon="-0.88743">
        <ele>174</ele>
        <time>2022-09-10T11:34:23Z</time>
      </trkpt>
      <trkpt lat="43.22015" lon="-0.88748">
        <ele>173.4</ele>
        <time>2022-09-10T11:34:24Z</time>
      </trkpt>
      <trkpt lat="43.22008" lon="-0.88757">
        <ele>171.8</ele>
        <time>2022-09-10T11:34:26Z</time>
      </trkpt>
      <trkpt lat="43.22006" lon="-0.88761">
        <ele>170</ele>
        <time>2022-09-10T11:34:27Z</time>
      </trkpt>
      <trkpt lat="43.22003" lon="-0.88764">
        <ele>169.2</ele>
        <time>2022-09-10T11:34:28Z</time>
      </trkpt>
      <trkpt lat="43.22001" lon="-0.88766">
        <ele>168.6</ele>
        <time>2022-09-10T11:34:29Z</time>
      </trkpt>
      <trkpt lat="43.21997" lon="-0.88771">
        <ele>167.4</ele>
        <time>2022-09-10T11:34:31Z</time>
      </trkpt>
      <trkpt lat="43.21994" lon="-0.88778">
        <ele>166.4</ele>
        <time>2022-09-10T11:34:33Z</time>
      </trkpt>
      <trkpt lat="43.21993" lon="-0.88782">
        <ele>166</ele>
        <time>2022-09-10T11:34:34Z</time>
      </trkpt>
      <trkpt lat="43.21989" lon="-0.8879">
        <ele>165</ele>
        <time>2022-09-10T11:34:36Z</time>
      </trkpt>
      <trkpt lat="43.21984" lon="-0.88799">
        <ele>164</ele>
        <time>2022-09-10T11:34:38Z</time>
      </trkpt>
      <trkpt lat="43.21982" lon="-0.88803">
        <ele>163.6</ele>
        <time>2022-09-10T11:34:39Z</time>
      </trkpt>
      <trkpt lat="43.21977" lon="-0.88811">
        <ele>162</ele>
        <time>2022-09-10T11:34:41Z</time>
      </trkpt>
      <trkpt lat="43.21971" lon="-0.88823">
        <ele>160.8</ele>
        <time>2022-09-10T11:34:43Z</time>
      </trkpt>
      <trkpt lat="43.21965" lon="-0.88832">
        <ele>159.8</ele>
        <time>2022-09-10T11:34:46Z</time>
      </trkpt>
      <trkpt lat="43.21962" lon="-0.88836">
        <ele>158.6</ele>
        <time>2022-09-10T11:34:48Z</time>
      </trkpt>
      <trkpt lat="43.2196" lon="-0.88843">
        <ele>157.6</ele>
        <time>2022-09-10T11:34:51Z</time>
      </trkpt>
      <trkpt lat="43.2196" lon="-0.88846">
        <ele>157.6</ele>
        <time>2022-09-10T11:34:52Z</time>
      </trkpt>
      <trkpt lat="43.21961" lon="-0.88849">
        <ele>157.6</ele>
        <time>2022-09-10T11:34:53Z</time>
      </trkpt>
      <trkpt lat="43.21965" lon="-0.88864">
        <ele>157.2</ele>
        <time>2022-09-10T11:34:56Z</time>
      </trkpt>
      <trkpt lat="43.21966" lon="-0.88867">
        <ele>157</ele>
        <time>2022-09-10T11:34:57Z</time>
      </trkpt>
      <trkpt lat="43.21969" lon="-0.88876">
        <ele>156.4</ele>
        <time>2022-09-10T11:35:00Z</time>
      </trkpt>
      <trkpt lat="43.21969" lon="-0.88879">
        <ele>156.2</ele>
        <time>2022-09-10T11:35:01Z</time>
      </trkpt>
      <trkpt lat="43.21968" lon="-0.88904">
        <ele>156.4</ele>
        <time>2022-09-10T11:35:07Z</time>
      </trkpt>
      <trkpt lat="43.21974" lon="-0.8892">
        <ele>156.8</ele>
        <time>2022-09-10T11:35:13Z</time>
      </trkpt>
      <trkpt lat="43.21981" lon="-0.88944">
        <ele>156.6</ele>
        <time>2022-09-10T11:35:19Z</time>
      </trkpt>
      <trkpt lat="43.21989" lon="-0.88967">
        <ele>156.2</ele>
        <time>2022-09-10T11:35:26Z</time>
      </trkpt>
      <trkpt lat="43.21998" lon="-0.88985">
        <ele>156.4</ele>
        <time>2022-09-10T11:35:33Z</time>
      </trkpt>
      <trkpt lat="43.22008" lon="-0.88986">
        <ele>156.8</ele>
        <time>2022-09-10T11:35:38Z</time>
      </trkpt>
      <trkpt lat="43.22016" lon="-0.88985">
        <ele>157</ele>
        <time>2022-09-10T11:35:44Z</time>
      </trkpt>
      <trkpt lat="43.22019" lon="-0.88998">
        <ele>156.8</ele>
        <time>2022-09-10T11:35:49Z</time>
      </trkpt>
      <trkpt lat="43.22012" lon="-0.89013">
        <ele>156.6</ele>
        <time>2022-09-10T11:35:55Z</time>
      </trkpt>
      <trkpt lat="43.22005" lon="-0.89023">
        <ele>156.4</ele>
        <time>2022-09-10T11:36:00Z</time>
      </trkpt>
      <trkpt lat="43.22002" lon="-0.89039">
        <ele>156.4</ele>
        <time>2022-09-10T11:36:06Z</time>
      </trkpt>
      <trkpt lat="43.22002" lon="-0.89043">
        <ele>156.6</ele>
        <time>2022-09-10T11:36:08Z</time>
      </trkpt>
      <trkpt lat="43.22004" lon="-0.89046">
        <ele>156.6</ele>
        <time>2022-09-10T11:36:10Z</time>
      </trkpt>
      <trkpt lat="43.2201" lon="-0.89057">
        <ele>156.4</ele>
        <time>2022-09-10T11:38:38Z</time>
      </trkpt>
      <trkpt lat="43.22017" lon="-0.89053">
        <ele>159.4</ele>
        <time>2022-09-10T12:22:16Z</time>
      </trkpt>
      <trkpt lat="43.22027" lon="-0.89055">
        <ele>159.6</ele>
        <time>2022-09-10T12:22:23Z</time>
      </trkpt>
      <trkpt lat="43.22036" lon="-0.89051">
        <ele>159.6</ele>
        <time>2022-09-10T12:22:30Z</time>
      </trkpt>
      <trkpt lat="43.22037" lon="-0.89049">
        <ele>159.8</ele>
        <time>2022-09-10T12:22:32Z</time>
      </trkpt>
      <trkpt lat="43.22039" lon="-0.89045">
        <ele>159.8</ele>
        <time>2022-09-10T12:22:36Z</time>
      </trkpt>
      <trkpt lat="43.22044" lon="-0.89049">
        <ele>160</ele>
        <time>2022-09-10T12:22:41Z</time>
      </trkpt>
      <trkpt lat="43.22053" lon="-0.89057">
        <ele>160</ele>
        <time>2022-09-10T12:22:48Z</time>
      </trkpt>
      <trkpt lat="43.22054" lon="-0.89059">
        <ele>160</ele>
        <time>2022-09-10T12:22:49Z</time>
      </trkpt>
      <trkpt lat="43.22059" lon="-0.89076">
        <ele>160</ele>
        <time>2022-09-10T12:22:56Z</time>
      </trkpt>
      <trkpt lat="43.22066" lon="-0.89096">
        <ele>160.2</ele>
        <time>2022-09-10T12:23:05Z</time>
      </trkpt>
      <trkpt lat="43.2207" lon="-0.89109">
        <ele>160.4</ele>
        <time>2022-09-10T12:23:11Z</time>
      </trkpt>
      <trkpt lat="43.22072" lon="-0.89113">
        <ele>160.4</ele>
        <time>2022-09-10T12:23:13Z</time>
      </trkpt>
      <trkpt lat="43.22078" lon="-0.89128">
        <ele>160.8</ele>
        <time>2022-09-10T12:23:21Z</time>
      </trkpt>
      <trkpt lat="43.2208" lon="-0.89132">
        <ele>160.8</ele>
        <time>2022-09-10T12:23:24Z</time>
      </trkpt>
      <trkpt lat="43.22082" lon="-0.89137">
        <ele>161</ele>
        <time>2022-09-10T12:23:27Z</time>
      </trkpt>
      <trkpt lat="43.22082" lon="-0.89138">
        <ele>161</ele>
        <time>2022-09-10T12:23:28Z</time>
      </trkpt>
      <trkpt lat="43.22068" lon="-0.89146">
        <ele>161</ele>
        <time>2022-09-10T12:24:38Z</time>
      </trkpt>
      <trkpt lat="43.22066" lon="-0.89146">
        <ele>161</ele>
        <time>2022-09-10T12:24:39Z</time>
      </trkpt>
      <trkpt lat="43.22057" lon="-0.89149">
        <ele>161</ele>
        <time>2022-09-10T12:24:48Z</time>
      </trkpt>
      <trkpt lat="43.22086" lon="-0.89167">
        <ele>160.6</ele>
        <time>2022-09-10T12:25:47Z</time>
      </trkpt>
      <trkpt lat="43.22087" lon="-0.89168">
        <ele>160.6</ele>
        <time>2022-09-10T12:25:48Z</time>
      </trkpt>
      <trkpt lat="43.22092" lon="-0.8918">
        <ele>160.8</ele>
        <time>2022-09-10T12:25:54Z</time>
      </trkpt>
      <trkpt lat="43.22098" lon="-0.89192">
        <ele>161</ele>
        <time>2022-09-10T12:26:02Z</time>
      </trkpt>
      <trkpt lat="43.22103" lon="-0.89208">
        <ele>161</ele>
        <time>2022-09-10T12:26:09Z</time>
      </trkpt>
      <trkpt lat="43.22103" lon="-0.8921">
        <ele>161.2</ele>
        <time>2022-09-10T12:26:10Z</time>
      </trkpt>
      <trkpt lat="43.221" lon="-0.89214">
        <ele>161</ele>
        <time>2022-09-10T12:26:13Z</time>
      </trkpt>
      <trkpt lat="43.22101" lon="-0.89211">
        <ele>160.8</ele>
        <time>2022-09-10T12:26:16Z</time>
      </trkpt>
      <trkpt lat="43.22099" lon="-0.89196">
        <ele>160.8</ele>
        <time>2022-09-10T12:26:22Z</time>
      </trkpt>
      <trkpt lat="43.22094" lon="-0.89176">
        <ele>160.6</ele>
        <time>2022-09-10T12:26:28Z</time>
      </trkpt>
      <trkpt lat="43.22088" lon="-0.89156">
        <ele>160.6</ele>
        <time>2022-09-10T12:26:34Z</time>
      </trkpt>
      <trkpt lat="43.22082" lon="-0.89135">
        <ele>160.8</ele>
        <time>2022-09-10T12:26:40Z</time>
      </trkpt>
      <trkpt lat="43.22083" lon="-0.89132">
        <ele>161</ele>
        <time>2022-09-10T12:26:41Z</time>
      </trkpt>
      <trkpt lat="43.22085" lon="-0.89126">
        <ele>160.6</ele>
        <time>2022-09-10T12:26:44Z</time>
      </trkpt>
      <trkpt lat="43.22088" lon="-0.89124">
        <ele>160.6</ele>
        <time>2022-09-10T12:26:46Z</time>
      </trkpt>
      <trkpt lat="43.22101" lon="-0.89112">
        <ele>160.6</ele>
        <time>2022-09-10T12:26:53Z</time>
      </trkpt>
      <trkpt lat="43.22112" lon="-0.89104">
        <ele>160.8</ele>
        <time>2022-09-10T12:27:00Z</time>
      </trkpt>
      <trkpt lat="43.2212" lon="-0.89095">
        <ele>160.8</ele>
        <time>2022-09-10T12:27:07Z</time>
      </trkpt>
      <trkpt lat="43.2212" lon="-0.89092">
        <ele>160.8</ele>
        <time>2022-09-10T12:27:09Z</time>
      </trkpt>
      <trkpt lat="43.22119" lon="-0.89085">
        <ele>160.6</ele>
        <time>2022-09-10T12:27:12Z</time>
      </trkpt>
      <trkpt lat="43.22116" lon="-0.89073">
        <ele>160.4</ele>
        <time>2022-09-10T12:27:18Z</time>
      </trkpt>
      <trkpt lat="43.2211" lon="-0.89053">
        <ele>159.8</ele>
        <time>2022-09-10T12:27:24Z</time>
      </trkpt>
      <trkpt lat="43.221" lon="-0.89026">
        <ele>159.6</ele>
        <time>2022-09-10T12:27:31Z</time>
      </trkpt>
      <trkpt lat="43.22094" lon="-0.89004">
        <ele>159.8</ele>
        <time>2022-09-10T12:27:37Z</time>
      </trkpt>
      <trkpt lat="43.22088" lon="-0.88983">
        <ele>159.6</ele>
        <time>2022-09-10T12:27:43Z</time>
      </trkpt>
      <trkpt lat="43.2209" lon="-0.88976">
        <ele>159.8</ele>
        <time>2022-09-10T12:27:45Z</time>
      </trkpt>
      <trkpt lat="43.22094" lon="-0.88972">
        <ele>159.8</ele>
        <time>2022-09-10T12:27:47Z</time>
      </trkpt>
      <trkpt lat="43.22106" lon="-0.88961">
        <ele>160</ele>
        <time>2022-09-10T12:27:54Z</time>
      </trkpt>
      <trkpt lat="43.22126" lon="-0.88947">
        <ele>160.2</ele>
        <time>2022-09-10T12:28:03Z</time>
      </trkpt>
      <trkpt lat="43.22135" lon="-0.88938">
        <ele>160</ele>
        <time>2022-09-10T12:28:09Z</time>
      </trkpt>
      <trkpt lat="43.22134" lon="-0.88927">
        <ele>160</ele>
        <time>2022-09-10T12:28:14Z</time>
      </trkpt>
      <trkpt lat="43.22129" lon="-0.88918">
        <ele>160.2</ele>
        <time>2022-09-10T12:28:19Z</time>
      </trkpt>
      <trkpt lat="43.22129" lon="-0.88917">
        <ele>160.2</ele>
        <time>2022-09-10T12:28:20Z</time>
      </trkpt>
      <trkpt lat="43.22129" lon="-0.88915">
        <ele>160.2</ele>
        <time>2022-09-10T12:28:21Z</time>
      </trkpt>
      <trkpt lat="43.22134" lon="-0.88908">
        <ele>160</ele>
        <time>2022-09-10T12:28:24Z</time>
      </trkpt>
      <trkpt lat="43.22136" lon="-0.88905">
        <ele>160</ele>
        <time>2022-09-10T12:28:25Z</time>
      </trkpt>
      <trkpt lat="43.22149" lon="-0.88892">
        <ele>160.4</ele>
        <time>2022-09-10T12:28:32Z</time>
      </trkpt>
      <trkpt lat="43.22164" lon="-0.88879">
        <ele>160.4</ele>
        <time>2022-09-10T12:28:40Z</time>
      </trkpt>
      <trkpt lat="43.22176" lon="-0.88875">
        <ele>160.4</ele>
        <time>2022-09-10T12:28:45Z</time>
      </trkpt>
      <trkpt lat="43.22187" lon="-0.88885">
        <ele>160.2</ele>
        <time>2022-09-10T12:28:50Z</time>
      </trkpt>
      <trkpt lat="43.22196" lon="-0.88907">
        <ele>160.2</ele>
        <time>2022-09-10T12:28:57Z</time>
      </trkpt>
      <trkpt lat="43.22206" lon="-0.8893">
        <ele>160.2</ele>
        <time>2022-09-10T12:29:05Z</time>
      </trkpt>
      <trkpt lat="43.22216" lon="-0.8895">
        <ele>160.2</ele>
        <time>2022-09-10T12:29:12Z</time>
      </trkpt>
      <trkpt lat="43.22224" lon="-0.88971">
        <ele>160.4</ele>
        <time>2022-09-10T12:29:18Z</time>
      </trkpt>
      <trkpt lat="43.22234" lon="-0.88994">
        <ele>160.4</ele>
        <time>2022-09-10T12:29:25Z</time>
      </trkpt>
      <trkpt lat="43.22245" lon="-0.89022">
        <ele>160</ele>
        <time>2022-09-10T12:29:34Z</time>
      </trkpt>
      <trkpt lat="43.22257" lon="-0.89049">
        <ele>160.4</ele>
        <time>2022-09-10T12:29:43Z</time>
      </trkpt>
      <trkpt lat="43.22267" lon="-0.89071">
        <ele>160.4</ele>
        <time>2022-09-10T12:29:50Z</time>
      </trkpt>
      <trkpt lat="43.2227" lon="-0.89076">
        <ele>160.6</ele>
        <time>2022-09-10T12:29:52Z</time>
      </trkpt>
      <trkpt lat="43.22281" lon="-0.891">
        <ele>160.6</ele>
        <time>2022-09-10T12:30:00Z</time>
      </trkpt>
      <trkpt lat="43.2229" lon="-0.89117">
        <ele>160.8</ele>
        <time>2022-09-10T12:30:08Z</time>
      </trkpt>
      <trkpt lat="43.22296" lon="-0.89116">
        <ele>160.8</ele>
        <time>2022-09-10T12:31:04Z</time>
      </trkpt>
      <trkpt lat="43.22299" lon="-0.89111">
        <ele>161</ele>
        <time>2022-09-10T12:31:06Z</time>
      </trkpt>
      <trkpt lat="43.22309" lon="-0.89096">
        <ele>160.8</ele>
        <time>2022-09-10T12:31:12Z</time>
      </trkpt>
      <trkpt lat="43.22326" lon="-0.89071">
        <ele>160.6</ele>
        <time>2022-09-10T12:31:20Z</time>
      </trkpt>
      <trkpt lat="43.22344" lon="-0.89042">
        <ele>160.6</ele>
        <time>2022-09-10T12:31:29Z</time>
      </trkpt>
      <trkpt lat="43.22357" lon="-0.89021">
        <ele>160.4</ele>
        <time>2022-09-10T12:31:35Z</time>
      </trkpt>
      <trkpt lat="43.22367" lon="-0.89009">
        <ele>160.4</ele>
        <time>2022-09-10T12:31:39Z</time>
      </trkpt>
      <trkpt lat="43.22388" lon="-0.88978">
        <ele>160.2</ele>
        <time>2022-09-10T12:31:48Z</time>
      </trkpt>
      <trkpt lat="43.22405" lon="-0.88952">
        <ele>160.4</ele>
        <time>2022-09-10T12:31:56Z</time>
      </trkpt>
      <trkpt lat="43.22421" lon="-0.88928">
        <ele>160.2</ele>
        <time>2022-09-10T12:32:03Z</time>
      </trkpt>
      <trkpt lat="43.22438" lon="-0.88896">
        <ele>160</ele>
        <time>2022-09-10T12:32:12Z</time>
      </trkpt>
      <trkpt lat="43.22448" lon="-0.88879">
        <ele>159.8</ele>
        <time>2022-09-10T12:32:17Z</time>
      </trkpt>
      <trkpt lat="43.22466" lon="-0.88843">
        <ele>159.6</ele>
        <time>2022-09-10T12:32:28Z</time>
      </trkpt>
      <trkpt lat="43.22474" lon="-0.88832">
        <ele>159.6</ele>
        <time>2022-09-10T12:32:33Z</time>
      </trkpt>
      <trkpt lat="43.22477" lon="-0.88832">
        <ele>159.6</ele>
        <time>2022-09-10T12:32:34Z</time>
      </trkpt>
      <trkpt lat="43.22482" lon="-0.88837">
        <ele>159.4</ele>
        <time>2022-09-10T12:32:36Z</time>
      </trkpt>
      <trkpt lat="43.22484" lon="-0.8884">
        <ele>159.4</ele>
        <time>2022-09-10T12:32:37Z</time>
      </trkpt>
      <trkpt lat="43.225" lon="-0.88856">
        <ele>159.8</ele>
        <time>2022-09-10T12:32:44Z</time>
      </trkpt>
      <trkpt lat="43.22512" lon="-0.8886">
        <ele>160</ele>
        <time>2022-09-10T12:32:50Z</time>
      </trkpt>
      <trkpt lat="43.22519" lon="-0.88863">
        <ele>160</ele>
        <time>2022-09-10T12:32:53Z</time>
      </trkpt>
      <trkpt lat="43.22521" lon="-0.88868">
        <ele>160</ele>
        <time>2022-09-10T12:32:55Z</time>
      </trkpt>
      <trkpt lat="43.22529" lon="-0.88874">
        <ele>160</ele>
        <time>2022-09-10T12:33:01Z</time>
      </trkpt>
      <trkpt lat="43.22531" lon="-0.88874">
        <ele>160</ele>
        <time>2022-09-10T12:33:03Z</time>
      </trkpt>
      <trkpt lat="43.22535" lon="-0.88877">
        <ele>160</ele>
        <time>2022-09-10T12:33:06Z</time>
      </trkpt>
      <trkpt lat="43.22546" lon="-0.8888">
        <ele>160</ele>
        <time>2022-09-10T12:33:58Z</time>
      </trkpt>
      <trkpt lat="43.22548" lon="-0.88879">
        <ele>160</ele>
        <time>2022-09-10T12:33:59Z</time>
      </trkpt>
      <trkpt lat="43.22557" lon="-0.88875">
        <ele>159.8</ele>
        <time>2022-09-10T12:34:04Z</time>
      </trkpt>
      <trkpt lat="43.22559" lon="-0.88876">
        <ele>159.6</ele>
        <time>2022-09-10T12:34:05Z</time>
      </trkpt>
      <trkpt lat="43.22568" lon="-0.88882">
        <ele>159.4</ele>
        <time>2022-09-10T12:34:10Z</time>
      </trkpt>
      <trkpt lat="43.22572" lon="-0.88883">
        <ele>159.4</ele>
        <time>2022-09-10T12:34:12Z</time>
      </trkpt>
      <trkpt lat="43.22574" lon="-0.88882">
        <ele>159.4</ele>
        <time>2022-09-10T12:34:13Z</time>
      </trkpt>
      <trkpt lat="43.22577" lon="-0.8888">
        <ele>159.4</ele>
        <time>2022-09-10T12:34:15Z</time>
      </trkpt>
      <trkpt lat="43.22579" lon="-0.88883">
        <ele>159.2</ele>
        <time>2022-09-10T12:34:20Z</time>
      </trkpt>
      <trkpt lat="43.2258" lon="-0.88889">
        <ele>159.4</ele>
        <time>2022-09-10T12:34:33Z</time>
      </trkpt>
      <trkpt lat="43.22579" lon="-0.88892">
        <ele>159.4</ele>
        <time>2022-09-10T12:34:34Z</time>
      </trkpt>
      <trkpt lat="43.22571" lon="-0.88907">
        <ele>159.4</ele>
        <time>2022-09-10T12:34:39Z</time>
      </trkpt>
      <trkpt lat="43.22555" lon="-0.88938">
        <ele>159.6</ele>
        <time>2022-09-10T12:34:47Z</time>
      </trkpt>
      <trkpt lat="43.22534" lon="-0.8897">
        <ele>159.6</ele>
        <time>2022-09-10T12:34:55Z</time>
      </trkpt>
      <trkpt lat="43.22517" lon="-0.89005">
        <ele>159.6</ele>
        <time>2022-09-10T12:35:03Z</time>
      </trkpt>
      <trkpt lat="43.22498" lon="-0.89043">
        <ele>159.8</ele>
        <time>2022-09-10T12:35:12Z</time>
      </trkpt>
      <trkpt lat="43.22479" lon="-0.8908">
        <ele>159.8</ele>
        <time>2022-09-10T12:35:21Z</time>
      </trkpt>
      <trkpt lat="43.22458" lon="-0.89119">
        <ele>159.8</ele>
        <time>2022-09-10T12:35:30Z</time>
      </trkpt>
      <trkpt lat="43.22439" lon="-0.89155">
        <ele>160</ele>
        <time>2022-09-10T12:35:39Z</time>
      </trkpt>
      <trkpt lat="43.22422" lon="-0.89188">
        <ele>160.4</ele>
        <time>2022-09-10T12:35:48Z</time>
      </trkpt>
      <trkpt lat="43.2242" lon="-0.89192">
        <ele>160.4</ele>
        <time>2022-09-10T12:35:49Z</time>
      </trkpt>
      <trkpt lat="43.22412" lon="-0.89221">
        <ele>161</ele>
        <time>2022-09-10T12:35:57Z</time>
      </trkpt>
      <trkpt lat="43.22419" lon="-0.89234">
        <ele>161.2</ele>
        <time>2022-09-10T12:36:01Z</time>
      </trkpt>
      <trkpt lat="43.22424" lon="-0.89238">
        <ele>161.6</ele>
        <time>2022-09-10T12:36:03Z</time>
      </trkpt>
      <trkpt lat="43.22432" lon="-0.89244">
        <ele>162.2</ele>
        <time>2022-09-10T12:36:07Z</time>
      </trkpt>
      <trkpt lat="43.22436" lon="-0.89247">
        <ele>162.8</ele>
        <time>2022-09-10T12:36:09Z</time>
      </trkpt>
      <trkpt lat="43.22444" lon="-0.89253">
        <ele>163.4</ele>
        <time>2022-09-10T12:36:14Z</time>
      </trkpt>
      <trkpt lat="43.22449" lon="-0.89256">
        <ele>163.8</ele>
        <time>2022-09-10T12:36:17Z</time>
      </trkpt>
      <trkpt lat="43.22455" lon="-0.89261">
        <ele>164.4</ele>
        <time>2022-09-10T12:36:21Z</time>
      </trkpt>
      <trkpt lat="43.2246" lon="-0.89261">
        <ele>164.8</ele>
        <time>2022-09-10T12:36:24Z</time>
      </trkpt>
      <trkpt lat="43.22464" lon="-0.89261">
        <ele>165</ele>
        <time>2022-09-10T12:36:26Z</time>
      </trkpt>
      <trkpt lat="43.22475" lon="-0.89254">
        <ele>166</ele>
        <time>2022-09-10T12:36:33Z</time>
      </trkpt>
      <trkpt lat="43.22488" lon="-0.89244">
        <ele>167</ele>
        <time>2022-09-10T12:36:41Z</time>
      </trkpt>
      <trkpt lat="43.22491" lon="-0.89241">
        <ele>167.2</ele>
        <time>2022-09-10T12:36:43Z</time>
      </trkpt>
      <trkpt lat="43.22502" lon="-0.89234">
        <ele>168.2</ele>
        <time>2022-09-10T12:36:49Z</time>
      </trkpt>
      <trkpt lat="43.22505" lon="-0.89232">
        <ele>168.6</ele>
        <time>2022-09-10T12:36:51Z</time>
      </trkpt>
      <trkpt lat="43.22513" lon="-0.89229">
        <ele>169.4</ele>
        <time>2022-09-10T12:36:56Z</time>
      </trkpt>
      <trkpt lat="43.22519" lon="-0.89227">
        <ele>170</ele>
        <time>2022-09-10T12:37:00Z</time>
      </trkpt>
      <trkpt lat="43.22522" lon="-0.89227">
        <ele>170.4</ele>
        <time>2022-09-10T12:37:02Z</time>
      </trkpt>
      <trkpt lat="43.22534" lon="-0.8923">
        <ele>171.2</ele>
        <time>2022-09-10T12:37:10Z</time>
      </trkpt>
      <trkpt lat="43.22536" lon="-0.89231">
        <ele>171.4</ele>
        <time>2022-09-10T12:37:11Z</time>
      </trkpt>
      <trkpt lat="43.22544" lon="-0.8924">
        <ele>172.2</ele>
        <time>2022-09-10T12:37:17Z</time>
      </trkpt>
      <trkpt lat="43.22545" lon="-0.89245">
        <ele>172.6</ele>
        <time>2022-09-10T12:37:19Z</time>
      </trkpt>
      <trkpt lat="43.22549" lon="-0.89252">
        <ele>173.2</ele>
        <time>2022-09-10T12:37:23Z</time>
      </trkpt>
      <trkpt lat="43.22552" lon="-0.89264">
        <ele>173.8</ele>
        <time>2022-09-10T12:37:28Z</time>
      </trkpt>
      <trkpt lat="43.22553" lon="-0.89269">
        <ele>174.2</ele>
        <time>2022-09-10T12:37:31Z</time>
      </trkpt>
      <trkpt lat="43.22556" lon="-0.89281">
        <ele>174.8</ele>
        <time>2022-09-10T12:37:38Z</time>
      </trkpt>
      <trkpt lat="43.22559" lon="-0.89294">
        <ele>176</ele>
        <time>2022-09-10T12:37:45Z</time>
      </trkpt>
      <trkpt lat="43.22563" lon="-0.89308">
        <ele>176.8</ele>
        <time>2022-09-10T12:37:52Z</time>
      </trkpt>
      <trkpt lat="43.22564" lon="-0.8931">
        <ele>177</ele>
        <time>2022-09-10T12:37:53Z</time>
      </trkpt>
      <trkpt lat="43.22568" lon="-0.8932">
        <ele>177.6</ele>
        <time>2022-09-10T12:37:58Z</time>
      </trkpt>
      <trkpt lat="43.22576" lon="-0.89337">
        <ele>178</ele>
        <time>2022-09-10T12:38:05Z</time>
      </trkpt>
      <trkpt lat="43.22577" lon="-0.89339">
        <ele>178.2</ele>
        <time>2022-09-10T12:38:06Z</time>
      </trkpt>
      <trkpt lat="43.22585" lon="-0.89357">
        <ele>178.8</ele>
        <time>2022-09-10T12:38:13Z</time>
      </trkpt>
      <trkpt lat="43.2259" lon="-0.89367">
        <ele>179.2</ele>
        <time>2022-09-10T12:38:17Z</time>
      </trkpt>
      <trkpt lat="43.22597" lon="-0.89379">
        <ele>179.8</ele>
        <time>2022-09-10T12:38:22Z</time>
      </trkpt>
      <trkpt lat="43.22609" lon="-0.89382">
        <ele>180.2</ele>
        <time>2022-09-10T12:38:28Z</time>
      </trkpt>
      <trkpt lat="43.2261" lon="-0.8938">
        <ele>180.2</ele>
        <time>2022-09-10T12:38:29Z</time>
      </trkpt>
      <trkpt lat="43.22614" lon="-0.89369">
        <ele>181.2</ele>
        <time>2022-09-10T12:38:34Z</time>
      </trkpt>
      <trkpt lat="43.22616" lon="-0.89359">
        <ele>182</ele>
        <time>2022-09-10T12:38:40Z</time>
      </trkpt>
      <trkpt lat="43.22616" lon="-0.89355">
        <ele>182.2</ele>
        <time>2022-09-10T12:38:42Z</time>
      </trkpt>
      <trkpt lat="43.22616" lon="-0.89352">
        <ele>182.4</ele>
        <time>2022-09-10T12:38:43Z</time>
      </trkpt>
      <trkpt lat="43.22618" lon="-0.89344">
        <ele>182.8</ele>
        <time>2022-09-10T12:38:47Z</time>
      </trkpt>
      <trkpt lat="43.22621" lon="-0.89334">
        <ele>183.4</ele>
        <time>2022-09-10T12:38:51Z</time>
      </trkpt>
      <trkpt lat="43.22626" lon="-0.89322">
        <ele>184.8</ele>
        <time>2022-09-10T12:38:57Z</time>
      </trkpt>
      <trkpt lat="43.22632" lon="-0.8931">
        <ele>186</ele>
        <time>2022-09-10T12:39:03Z</time>
      </trkpt>
      <trkpt lat="43.22635" lon="-0.89306">
        <ele>186.4</ele>
        <time>2022-09-10T12:39:05Z</time>
      </trkpt>
      <trkpt lat="43.22641" lon="-0.89301">
        <ele>187</ele>
        <time>2022-09-10T12:39:09Z</time>
      </trkpt>
      <trkpt lat="43.22647" lon="-0.89294">
        <ele>187.8</ele>
        <time>2022-09-10T12:39:13Z</time>
      </trkpt>
      <trkpt lat="43.22648" lon="-0.89293">
        <ele>188.2</ele>
        <time>2022-09-10T12:39:14Z</time>
      </trkpt>
      <trkpt lat="43.22657" lon="-0.89285">
        <ele>188.8</ele>
        <time>2022-09-10T12:39:20Z</time>
      </trkpt>
      <trkpt lat="43.22658" lon="-0.89283">
        <ele>189.4</ele>
        <time>2022-09-10T12:39:21Z</time>
      </trkpt>
      <trkpt lat="43.22662" lon="-0.8928">
        <ele>189.6</ele>
        <time>2022-09-10T12:39:23Z</time>
      </trkpt>
      <trkpt lat="43.22667" lon="-0.89276">
        <ele>189.8</ele>
        <time>2022-09-10T12:39:26Z</time>
      </trkpt>
      <trkpt lat="43.22677" lon="-0.89268">
        <ele>190.6</ele>
        <time>2022-09-10T12:39:32Z</time>
      </trkpt>
      <trkpt lat="43.22681" lon="-0.89264">
        <ele>190.6</ele>
        <time>2022-09-10T12:39:35Z</time>
      </trkpt>
      <trkpt lat="43.2269" lon="-0.89257">
        <ele>191.6</ele>
        <time>2022-09-10T12:39:40Z</time>
      </trkpt>
      <trkpt lat="43.22694" lon="-0.89251">
        <ele>192</ele>
        <time>2022-09-10T12:39:43Z</time>
      </trkpt>
      <trkpt lat="43.22704" lon="-0.89243">
        <ele>192.6</ele>
        <time>2022-09-10T12:39:48Z</time>
      </trkpt>
      <trkpt lat="43.22711" lon="-0.89237">
        <ele>193.2</ele>
        <time>2022-09-10T12:39:52Z</time>
      </trkpt>
      <trkpt lat="43.22725" lon="-0.89223">
        <ele>193.4</ele>
        <time>2022-09-10T12:40:00Z</time>
      </trkpt>
      <trkpt lat="43.22745" lon="-0.89206">
        <ele>193.2</ele>
        <time>2022-09-10T12:40:09Z</time>
      </trkpt>
      <trkpt lat="43.22772" lon="-0.89192">
        <ele>192.4</ele>
        <time>2022-09-10T12:40:17Z</time>
      </trkpt>
      <trkpt lat="43.228" lon="-0.89182">
        <ele>192.6</ele>
        <time>2022-09-10T12:40:25Z</time>
      </trkpt>
      <trkpt lat="43.2283" lon="-0.89179">
        <ele>192</ele>
        <time>2022-09-10T12:40:32Z</time>
      </trkpt>
      <trkpt lat="43.22835" lon="-0.8918">
        <ele>191.6</ele>
        <time>2022-09-10T12:40:33Z</time>
      </trkpt>
      <trkpt lat="43.22847" lon="-0.89183">
        <ele>191.2</ele>
        <time>2022-09-10T12:40:35Z</time>
      </trkpt>
      <trkpt lat="43.22859" lon="-0.89188">
        <ele>190.6</ele>
        <time>2022-09-10T12:40:37Z</time>
      </trkpt>
      <trkpt lat="43.22878" lon="-0.89195">
        <ele>189</ele>
        <time>2022-09-10T12:40:40Z</time>
      </trkpt>
      <trkpt lat="43.22885" lon="-0.89193">
        <ele>188.8</ele>
        <time>2022-09-10T12:40:41Z</time>
      </trkpt>
      <trkpt lat="43.22892" lon="-0.89188">
        <ele>188.6</ele>
        <time>2022-09-10T12:40:42Z</time>
      </trkpt>
      <trkpt lat="43.22903" lon="-0.89164">
        <ele>189</ele>
        <time>2022-09-10T12:40:45Z</time>
      </trkpt>
      <trkpt lat="43.22906" lon="-0.89157">
        <ele>189.4</ele>
        <time>2022-09-10T12:40:46Z</time>
      </trkpt>
      <trkpt lat="43.2291" lon="-0.89146">
        <ele>190</ele>
        <time>2022-09-10T12:40:48Z</time>
      </trkpt>
      <trkpt lat="43.22912" lon="-0.89142">
        <ele>190.6</ele>
        <time>2022-09-10T12:40:49Z</time>
      </trkpt>
      <trkpt lat="43.22915" lon="-0.89135">
        <ele>191.2</ele>
        <time>2022-09-10T12:40:51Z</time>
      </trkpt>
      <trkpt lat="43.22918" lon="-0.89128">
        <ele>191.6</ele>
        <time>2022-09-10T12:40:54Z</time>
      </trkpt>
      <trkpt lat="43.22922" lon="-0.89122">
        <ele>192.4</ele>
        <time>2022-09-10T12:40:57Z</time>
      </trkpt>
      <trkpt lat="43.22928" lon="-0.89112">
        <ele>193.6</ele>
        <time>2022-09-10T12:41:02Z</time>
      </trkpt>
      <trkpt lat="43.22934" lon="-0.891">
        <ele>194.6</ele>
        <time>2022-09-10T12:41:08Z</time>
      </trkpt>
      <trkpt lat="43.22938" lon="-0.89095">
        <ele>195</ele>
        <time>2022-09-10T12:41:11Z</time>
      </trkpt>
      <trkpt lat="43.22943" lon="-0.89091">
        <ele>195.6</ele>
        <time>2022-09-10T12:41:14Z</time>
      </trkpt>
      <trkpt lat="43.2295" lon="-0.89086">
        <ele>196.8</ele>
        <time>2022-09-10T12:41:19Z</time>
      </trkpt>
      <trkpt lat="43.22958" lon="-0.89082">
        <ele>197.8</ele>
        <time>2022-09-10T12:41:24Z</time>
      </trkpt>
      <trkpt lat="43.2296" lon="-0.89082">
        <ele>198</ele>
        <time>2022-09-10T12:41:25Z</time>
      </trkpt>
      <trkpt lat="43.22969" lon="-0.89079">
        <ele>198.8</ele>
        <time>2022-09-10T12:41:31Z</time>
      </trkpt>
      <trkpt lat="43.22974" lon="-0.89077">
        <ele>199.2</ele>
        <time>2022-09-10T12:41:34Z</time>
      </trkpt>
      <trkpt lat="43.2298" lon="-0.89077">
        <ele>199.8</ele>
        <time>2022-09-10T12:41:38Z</time>
      </trkpt>
      <trkpt lat="43.22989" lon="-0.89075">
        <ele>200.8</ele>
        <time>2022-09-10T12:41:44Z</time>
      </trkpt>
      <trkpt lat="43.22997" lon="-0.89075">
        <ele>201.8</ele>
        <time>2022-09-10T12:41:49Z</time>
      </trkpt>
      <trkpt lat="43.23001" lon="-0.89075">
        <ele>202.6</ele>
        <time>2022-09-10T12:41:52Z</time>
      </trkpt>
      <trkpt lat="43.23003" lon="-0.89075">
        <ele>202.8</ele>
        <time>2022-09-10T12:41:53Z</time>
      </trkpt>
      <trkpt lat="43.23004" lon="-0.89074">
        <ele>203</ele>
        <time>2022-09-10T12:41:54Z</time>
      </trkpt>
      <trkpt lat="43.23008" lon="-0.89074">
        <ele>203.2</ele>
        <time>2022-09-10T12:41:56Z</time>
      </trkpt>
      <trkpt lat="43.2301" lon="-0.89075">
        <ele>203.6</ele>
        <time>2022-09-10T12:41:58Z</time>
      </trkpt>
      <trkpt lat="43.23017" lon="-0.89073">
        <ele>204.2</ele>
        <time>2022-09-10T12:42:02Z</time>
      </trkpt>
      <trkpt lat="43.23019" lon="-0.89074">
        <ele>204.4</ele>
        <time>2022-09-10T12:42:04Z</time>
      </trkpt>
      <trkpt lat="43.23027" lon="-0.89072">
        <ele>205.2</ele>
        <time>2022-09-10T12:42:09Z</time>
      </trkpt>
      <trkpt lat="43.23032" lon="-0.89072">
        <ele>205.8</ele>
        <time>2022-09-10T12:42:12Z</time>
      </trkpt>
      <trkpt lat="43.23038" lon="-0.89071">
        <ele>206.4</ele>
        <time>2022-09-10T12:42:16Z</time>
      </trkpt>
      <trkpt lat="43.23044" lon="-0.89071">
        <ele>207</ele>
        <time>2022-09-10T12:42:20Z</time>
      </trkpt>
      <trkpt lat="43.2305" lon="-0.89069">
        <ele>207.4</ele>
        <time>2022-09-10T12:42:24Z</time>
      </trkpt>
      <trkpt lat="43.23053" lon="-0.89069">
        <ele>207.8</ele>
        <time>2022-09-10T12:42:26Z</time>
      </trkpt>
      <trkpt lat="43.23061" lon="-0.89068">
        <ele>208.6</ele>
        <time>2022-09-10T12:42:31Z</time>
      </trkpt>
      <trkpt lat="43.23062" lon="-0.89068">
        <ele>208.6</ele>
        <time>2022-09-10T12:42:32Z</time>
      </trkpt>
      <trkpt lat="43.23071" lon="-0.89067">
        <ele>209.6</ele>
        <time>2022-09-10T12:42:37Z</time>
      </trkpt>
      <trkpt lat="43.23072" lon="-0.89067">
        <ele>209.8</ele>
        <time>2022-09-10T12:42:38Z</time>
      </trkpt>
      <trkpt lat="43.23083" lon="-0.89067">
        <ele>210.6</ele>
        <time>2022-09-10T12:42:44Z</time>
      </trkpt>
      <trkpt lat="43.23086" lon="-0.89065">
        <ele>211.2</ele>
        <time>2022-09-10T12:42:46Z</time>
      </trkpt>
      <trkpt lat="43.23095" lon="-0.89065">
        <ele>211.8</ele>
        <time>2022-09-10T12:42:51Z</time>
      </trkpt>
      <trkpt lat="43.23098" lon="-0.89064">
        <ele>212</ele>
        <time>2022-09-10T12:42:53Z</time>
      </trkpt>
      <trkpt lat="43.23109" lon="-0.89063">
        <ele>212.8</ele>
        <time>2022-09-10T12:42:59Z</time>
      </trkpt>
      <trkpt lat="43.23115" lon="-0.89062">
        <ele>213.2</ele>
        <time>2022-09-10T12:43:02Z</time>
      </trkpt>
      <trkpt lat="43.23125" lon="-0.89061">
        <ele>213.8</ele>
        <time>2022-09-10T12:43:07Z</time>
      </trkpt>
      <trkpt lat="43.23129" lon="-0.8906">
        <ele>213.8</ele>
        <time>2022-09-10T12:43:09Z</time>
      </trkpt>
      <trkpt lat="43.23147" lon="-0.89058">
        <ele>214.6</ele>
        <time>2022-09-10T12:43:17Z</time>
      </trkpt>
      <trkpt lat="43.2315" lon="-0.89057">
        <ele>214.8</ele>
        <time>2022-09-10T12:43:18Z</time>
      </trkpt>
      <trkpt lat="43.23166" lon="-0.89055">
        <ele>215.8</ele>
        <time>2022-09-10T12:43:25Z</time>
      </trkpt>
      <trkpt lat="43.23169" lon="-0.89055">
        <ele>215.8</ele>
        <time>2022-09-10T12:43:26Z</time>
      </trkpt>
      <trkpt lat="43.23188" lon="-0.89053">
        <ele>216.8</ele>
        <time>2022-09-10T12:43:34Z</time>
      </trkpt>
      <trkpt lat="43.23195" lon="-0.89052">
        <ele>217.2</ele>
        <time>2022-09-10T12:43:37Z</time>
      </trkpt>
      <trkpt lat="43.23216" lon="-0.89051">
        <ele>217.2</ele>
        <time>2022-09-10T12:43:45Z</time>
      </trkpt>
      <trkpt lat="43.23235" lon="-0.89053">
        <ele>216.6</ele>
        <time>2022-09-10T12:43:50Z</time>
      </trkpt>
      <trkpt lat="43.2325" lon="-0.89058">
        <ele>215.8</ele>
        <time>2022-09-10T12:43:53Z</time>
      </trkpt>
      <trkpt lat="43.23268" lon="-0.89063">
        <ele>215.2</ele>
        <time>2022-09-10T12:43:56Z</time>
      </trkpt>
      <trkpt lat="43.23275" lon="-0.89064">
        <ele>214.8</ele>
        <time>2022-09-10T12:43:57Z</time>
      </trkpt>
      <trkpt lat="43.23296" lon="-0.89069">
        <ele>213.8</ele>
        <time>2022-09-10T12:44:00Z</time>
      </trkpt>
      <trkpt lat="43.2331" lon="-0.89073">
        <ele>213.2</ele>
        <time>2022-09-10T12:44:02Z</time>
      </trkpt>
      <trkpt lat="43.23316" lon="-0.89077">
        <ele>213</ele>
        <time>2022-09-10T12:44:03Z</time>
      </trkpt>
      <trkpt lat="43.23334" lon="-0.89091">
        <ele>213</ele>
        <time>2022-09-10T12:44:06Z</time>
      </trkpt>
      <trkpt lat="43.23339" lon="-0.89096">
        <ele>213</ele>
        <time>2022-09-10T12:44:07Z</time>
      </trkpt>
      <trkpt lat="43.23361" lon="-0.89116">
        <ele>214</ele>
        <time>2022-09-10T12:44:12Z</time>
      </trkpt>
      <trkpt lat="43.23372" lon="-0.89125">
        <ele>215</ele>
        <time>2022-09-10T12:44:16Z</time>
      </trkpt>
      <trkpt lat="43.23374" lon="-0.89127">
        <ele>215</ele>
        <time>2022-09-10T12:44:17Z</time>
      </trkpt>
      <trkpt lat="43.23381" lon="-0.89134">
        <ele>216</ele>
        <time>2022-09-10T12:44:21Z</time>
      </trkpt>
      <trkpt lat="43.23385" lon="-0.89137">
        <ele>216.6</ele>
        <time>2022-09-10T12:44:24Z</time>
      </trkpt>
      <trkpt lat="43.23389" lon="-0.8914">
        <ele>217.2</ele>
        <time>2022-09-10T12:44:27Z</time>
      </trkpt>
      <trkpt lat="43.23395" lon="-0.89145">
        <ele>218</ele>
        <time>2022-09-10T12:44:31Z</time>
      </trkpt>
      <trkpt lat="43.23398" lon="-0.89147">
        <ele>218.4</ele>
        <time>2022-09-10T12:44:33Z</time>
      </trkpt>
      <trkpt lat="43.23407" lon="-0.89155">
        <ele>219.4</ele>
        <time>2022-09-10T12:44:39Z</time>
      </trkpt>
      <trkpt lat="43.23415" lon="-0.89163">
        <ele>220.6</ele>
        <time>2022-09-10T12:44:45Z</time>
      </trkpt>
      <trkpt lat="43.23418" lon="-0.89165">
        <ele>221</ele>
        <time>2022-09-10T12:44:47Z</time>
      </trkpt>
      <trkpt lat="43.23425" lon="-0.8917">
        <ele>221.8</ele>
        <time>2022-09-10T12:44:52Z</time>
      </trkpt>
      <trkpt lat="43.23429" lon="-0.89175">
        <ele>222.6</ele>
        <time>2022-09-10T12:44:56Z</time>
      </trkpt>
      <trkpt lat="43.23431" lon="-0.89176">
        <ele>222.8</ele>
        <time>2022-09-10T12:44:57Z</time>
      </trkpt>
      <trkpt lat="43.23436" lon="-0.89179">
        <ele>223.4</ele>
        <time>2022-09-10T12:45:01Z</time>
      </trkpt>
      <trkpt lat="43.23437" lon="-0.8918">
        <ele>223.6</ele>
        <time>2022-09-10T12:45:02Z</time>
      </trkpt>
      <trkpt lat="43.23439" lon="-0.89183">
        <ele>224</ele>
        <time>2022-09-10T12:45:04Z</time>
      </trkpt>
      <trkpt lat="43.23443" lon="-0.89185">
        <ele>224.4</ele>
        <time>2022-09-10T12:45:07Z</time>
      </trkpt>
      <trkpt lat="43.23445" lon="-0.89188">
        <ele>224.8</ele>
        <time>2022-09-10T12:45:09Z</time>
      </trkpt>
      <trkpt lat="43.23448" lon="-0.8919">
        <ele>225</ele>
        <time>2022-09-10T12:45:11Z</time>
      </trkpt>
      <trkpt lat="43.23455" lon="-0.89196">
        <ele>226</ele>
        <time>2022-09-10T12:45:17Z</time>
      </trkpt>
      <trkpt lat="43.23456" lon="-0.89197">
        <ele>226.2</ele>
        <time>2022-09-10T12:45:18Z</time>
      </trkpt>
      <trkpt lat="43.23465" lon="-0.89202">
        <ele>227.2</ele>
        <time>2022-09-10T12:45:25Z</time>
      </trkpt>
      <trkpt lat="43.23466" lon="-0.89204">
        <ele>227.4</ele>
        <time>2022-09-10T12:45:26Z</time>
      </trkpt>
      <trkpt lat="43.23474" lon="-0.89209">
        <ele>228.4</ele>
        <time>2022-09-10T12:45:32Z</time>
      </trkpt>
      <trkpt lat="43.23479" lon="-0.8921">
        <ele>229</ele>
        <time>2022-09-10T12:45:35Z</time>
      </trkpt>
      <trkpt lat="43.23483" lon="-0.89213">
        <ele>229.4</ele>
        <time>2022-09-10T12:45:38Z</time>
      </trkpt>
      <trkpt lat="43.23489" lon="-0.8922">
        <ele>230.4</ele>
        <time>2022-09-10T12:45:44Z</time>
      </trkpt>
      <trkpt lat="43.23491" lon="-0.8922">
        <ele>230.4</ele>
        <time>2022-09-10T12:45:45Z</time>
      </trkpt>
      <trkpt lat="43.23495" lon="-0.89222">
        <ele>231</ele>
        <time>2022-09-10T12:45:48Z</time>
      </trkpt>
      <trkpt lat="43.23498" lon="-0.89227">
        <ele>231.6</ele>
        <time>2022-09-10T12:45:51Z</time>
      </trkpt>
      <trkpt lat="43.23499" lon="-0.89228">
        <ele>231.6</ele>
        <time>2022-09-10T12:45:52Z</time>
      </trkpt>
      <trkpt lat="43.23505" lon="-0.89239">
        <ele>232.6</ele>
        <time>2022-09-10T12:45:59Z</time>
      </trkpt>
      <trkpt lat="43.23506" lon="-0.89241">
        <ele>232.8</ele>
        <time>2022-09-10T12:46:00Z</time>
      </trkpt>
      <trkpt lat="43.23514" lon="-0.89261">
        <ele>233.6</ele>
        <time>2022-09-10T12:46:10Z</time>
      </trkpt>
      <trkpt lat="43.23521" lon="-0.89282">
        <ele>234.2</ele>
        <time>2022-09-10T12:46:19Z</time>
      </trkpt>
      <trkpt lat="43.23527" lon="-0.89297">
        <ele>234.6</ele>
        <time>2022-09-10T12:46:24Z</time>
      </trkpt>
      <trkpt lat="43.2353" lon="-0.89306">
        <ele>235</ele>
        <time>2022-09-10T12:46:27Z</time>
      </trkpt>
      <trkpt lat="43.23541" lon="-0.89325">
        <ele>235.8</ele>
        <time>2022-09-10T12:46:34Z</time>
      </trkpt>
      <trkpt lat="43.23545" lon="-0.89331">
        <ele>236</ele>
        <time>2022-09-10T12:46:36Z</time>
      </trkpt>
      <trkpt lat="43.23559" lon="-0.89351">
        <ele>236.6</ele>
        <time>2022-09-10T12:46:43Z</time>
      </trkpt>
      <trkpt lat="43.23563" lon="-0.89357">
        <ele>236.8</ele>
        <time>2022-09-10T12:46:45Z</time>
      </trkpt>
      <trkpt lat="43.23572" lon="-0.89376">
        <ele>237.4</ele>
        <time>2022-09-10T12:46:50Z</time>
      </trkpt>
      <trkpt lat="43.23578" lon="-0.89395">
        <ele>237.8</ele>
        <time>2022-09-10T12:46:55Z</time>
      </trkpt>
      <trkpt lat="43.23581" lon="-0.89407">
        <ele>238.6</ele>
        <time>2022-09-10T12:46:58Z</time>
      </trkpt>
      <trkpt lat="43.23582" lon="-0.89419">
        <ele>238.8</ele>
        <time>2022-09-10T12:47:01Z</time>
      </trkpt>
      <trkpt lat="43.23582" lon="-0.89431">
        <ele>239.2</ele>
        <time>2022-09-10T12:47:04Z</time>
      </trkpt>
      <trkpt lat="43.23581" lon="-0.89461">
        <ele>240</ele>
        <time>2022-09-10T12:47:11Z</time>
      </trkpt>
      <trkpt lat="43.2358" lon="-0.89469">
        <ele>240.4</ele>
        <time>2022-09-10T12:47:13Z</time>
      </trkpt>
      <trkpt lat="43.23576" lon="-0.89493">
        <ele>241</ele>
        <time>2022-09-10T12:47:19Z</time>
      </trkpt>
      <trkpt lat="43.23571" lon="-0.89507">
        <ele>241.6</ele>
        <time>2022-09-10T12:47:23Z</time>
      </trkpt>
      <trkpt lat="43.23565" lon="-0.89521">
        <ele>242</ele>
        <time>2022-09-10T12:47:27Z</time>
      </trkpt>
      <trkpt lat="43.23559" lon="-0.8953">
        <ele>242.6</ele>
        <time>2022-09-10T12:47:30Z</time>
      </trkpt>
      <trkpt lat="43.23548" lon="-0.89543">
        <ele>243.2</ele>
        <time>2022-09-10T12:47:35Z</time>
      </trkpt>
      <trkpt lat="43.23541" lon="-0.8955">
        <ele>243.6</ele>
        <time>2022-09-10T12:47:38Z</time>
      </trkpt>
      <trkpt lat="43.23528" lon="-0.89559">
        <ele>244.4</ele>
        <time>2022-09-10T12:47:43Z</time>
      </trkpt>
      <trkpt lat="43.23517" lon="-0.89564">
        <ele>245.2</ele>
        <time>2022-09-10T12:47:47Z</time>
      </trkpt>
      <trkpt lat="43.23505" lon="-0.89569">
        <ele>245.4</ele>
        <time>2022-09-10T12:47:51Z</time>
      </trkpt>
      <trkpt lat="43.23494" lon="-0.89574">
        <ele>246</ele>
        <time>2022-09-10T12:47:55Z</time>
      </trkpt>
      <trkpt lat="43.23485" lon="-0.89578">
        <ele>246.4</ele>
        <time>2022-09-10T12:47:58Z</time>
      </trkpt>
      <trkpt lat="43.23475" lon="-0.89586">
        <ele>246.8</ele>
        <time>2022-09-10T12:48:02Z</time>
      </trkpt>
      <trkpt lat="43.23451" lon="-0.8961">
        <ele>247.4</ele>
        <time>2022-09-10T12:48:11Z</time>
      </trkpt>
      <trkpt lat="43.23432" lon="-0.89624">
        <ele>247.8</ele>
        <time>2022-09-10T12:48:17Z</time>
      </trkpt>
      <trkpt lat="43.23409" lon="-0.89635">
        <ele>248.2</ele>
        <time>2022-09-10T12:48:24Z</time>
      </trkpt>
      <trkpt lat="43.23391" lon="-0.89642">
        <ele>248.4</ele>
        <time>2022-09-10T12:48:30Z</time>
      </trkpt>
      <trkpt lat="43.23388" lon="-0.89643">
        <ele>248.6</ele>
        <time>2022-09-10T12:48:31Z</time>
      </trkpt>
      <trkpt lat="43.23373" lon="-0.89649">
        <ele>249</ele>
        <time>2022-09-10T12:48:36Z</time>
      </trkpt>
      <trkpt lat="43.23355" lon="-0.89654">
        <ele>249.6</ele>
        <time>2022-09-10T12:48:42Z</time>
      </trkpt>
      <trkpt lat="43.23352" lon="-0.89655">
        <ele>249.6</ele>
        <time>2022-09-10T12:48:43Z</time>
      </trkpt>
      <trkpt lat="43.23336" lon="-0.89663">
        <ele>249.8</ele>
        <time>2022-09-10T12:48:48Z</time>
      </trkpt>
      <trkpt lat="43.23315" lon="-0.89681">
        <ele>250.6</ele>
        <time>2022-09-10T12:48:54Z</time>
      </trkpt>
      <trkpt lat="43.23312" lon="-0.89684">
        <ele>250.8</ele>
        <time>2022-09-10T12:48:55Z</time>
      </trkpt>
      <trkpt lat="43.23285" lon="-0.8971">
        <ele>251.6</ele>
        <time>2022-09-10T12:49:04Z</time>
      </trkpt>
      <trkpt lat="43.23275" lon="-0.89718">
        <ele>251.6</ele>
        <time>2022-09-10T12:49:07Z</time>
      </trkpt>
      <trkpt lat="43.23258" lon="-0.89737">
        <ele>252</ele>
        <time>2022-09-10T12:49:13Z</time>
      </trkpt>
      <trkpt lat="43.23238" lon="-0.89756">
        <ele>252.6</ele>
        <time>2022-09-10T12:49:20Z</time>
      </trkpt>
      <trkpt lat="43.23232" lon="-0.89763">
        <ele>252.8</ele>
        <time>2022-09-10T12:49:22Z</time>
      </trkpt>
      <trkpt lat="43.23219" lon="-0.89786">
        <ele>253</ele>
        <time>2022-09-10T12:49:28Z</time>
      </trkpt>
      <trkpt lat="43.23212" lon="-0.89812">
        <ele>253.6</ele>
        <time>2022-09-10T12:49:34Z</time>
      </trkpt>
      <trkpt lat="43.23212" lon="-0.89817">
        <ele>253.8</ele>
        <time>2022-09-10T12:49:35Z</time>
      </trkpt>
      <trkpt lat="43.23214" lon="-0.89848">
        <ele>254.2</ele>
        <time>2022-09-10T12:49:41Z</time>
      </trkpt>
      <trkpt lat="43.23224" lon="-0.89864">
        <ele>254.2</ele>
        <time>2022-09-10T12:49:45Z</time>
      </trkpt>
      <trkpt lat="43.23227" lon="-0.89867">
        <ele>254.6</ele>
        <time>2022-09-10T12:49:46Z</time>
      </trkpt>
      <trkpt lat="43.23233" lon="-0.89874">
        <ele>255</ele>
        <time>2022-09-10T12:49:48Z</time>
      </trkpt>
      <trkpt lat="43.23242" lon="-0.89892">
        <ele>255.4</ele>
        <time>2022-09-10T12:49:52Z</time>
      </trkpt>
      <trkpt lat="43.23249" lon="-0.89929">
        <ele>255.8</ele>
        <time>2022-09-10T12:49:59Z</time>
      </trkpt>
      <trkpt lat="43.2325" lon="-0.89934">
        <ele>256</ele>
        <time>2022-09-10T12:50:00Z</time>
      </trkpt>
      <trkpt lat="43.23249" lon="-0.89966">
        <ele>256.6</ele>
        <time>2022-09-10T12:50:06Z</time>
      </trkpt>
      <trkpt lat="43.23245" lon="-0.89982">
        <ele>256.8</ele>
        <time>2022-09-10T12:50:09Z</time>
      </trkpt>
      <trkpt lat="43.23241" lon="-0.89992">
        <ele>257</ele>
        <time>2022-09-10T12:50:11Z</time>
      </trkpt>
      <trkpt lat="43.23239" lon="-0.89997">
        <ele>257</ele>
        <time>2022-09-10T12:50:12Z</time>
      </trkpt>
      <trkpt lat="43.2322" lon="-0.90027">
        <ele>257.8</ele>
        <time>2022-09-10T12:50:19Z</time>
      </trkpt>
      <trkpt lat="43.23211" lon="-0.90044">
        <ele>258</ele>
        <time>2022-09-10T12:50:23Z</time>
      </trkpt>
      <trkpt lat="43.2321" lon="-0.9005">
        <ele>258.2</ele>
        <time>2022-09-10T12:50:24Z</time>
      </trkpt>
      <trkpt lat="43.2321" lon="-0.90056">
        <ele>258.2</ele>
        <time>2022-09-10T12:50:25Z</time>
      </trkpt>
      <trkpt lat="43.23216" lon="-0.90073">
        <ele>258.6</ele>
        <time>2022-09-10T12:50:29Z</time>
      </trkpt>
      <trkpt lat="43.23219" lon="-0.90079">
        <ele>259</ele>
        <time>2022-09-10T12:50:31Z</time>
      </trkpt>
      <trkpt lat="43.23232" lon="-0.90101">
        <ele>259.6</ele>
        <time>2022-09-10T12:50:37Z</time>
      </trkpt>
      <trkpt lat="43.23248" lon="-0.90133">
        <ele>260</ele>
        <time>2022-09-10T12:50:45Z</time>
      </trkpt>
      <trkpt lat="43.2325" lon="-0.90138">
        <ele>260.2</ele>
        <time>2022-09-10T12:50:46Z</time>
      </trkpt>
      <trkpt lat="43.23252" lon="-0.90142">
        <ele>260.2</ele>
        <time>2022-09-10T12:50:47Z</time>
      </trkpt>
      <trkpt lat="43.23257" lon="-0.90164">
        <ele>260.4</ele>
        <time>2022-09-10T12:50:52Z</time>
      </trkpt>
      <trkpt lat="43.23265" lon="-0.9019">
        <ele>261.2</ele>
        <time>2022-09-10T12:50:58Z</time>
      </trkpt>
      <trkpt lat="43.23266" lon="-0.90194">
        <ele>261.2</ele>
        <time>2022-09-10T12:50:59Z</time>
      </trkpt>
      <trkpt lat="43.2327" lon="-0.90224">
        <ele>261.4</ele>
        <time>2022-09-10T12:51:05Z</time>
      </trkpt>
      <trkpt lat="43.23268" lon="-0.90271">
        <ele>262.4</ele>
        <time>2022-09-10T12:51:13Z</time>
      </trkpt>
      <trkpt lat="43.23268" lon="-0.90277">
        <ele>262.6</ele>
        <time>2022-09-10T12:51:14Z</time>
      </trkpt>
      <trkpt lat="43.23261" lon="-0.90301">
        <ele>263</ele>
        <time>2022-09-10T12:51:19Z</time>
      </trkpt>
      <trkpt lat="43.23247" lon="-0.90333">
        <ele>262.8</ele>
        <time>2022-09-10T12:51:27Z</time>
      </trkpt>
      <trkpt lat="43.23249" lon="-0.90351">
        <ele>263</ele>
        <time>2022-09-10T12:51:31Z</time>
      </trkpt>
      <trkpt lat="43.23251" lon="-0.90353">
        <ele>263.2</ele>
        <time>2022-09-10T12:51:32Z</time>
      </trkpt>
      <trkpt lat="43.23258" lon="-0.90352">
        <ele>263.4</ele>
        <time>2022-09-10T12:51:34Z</time>
      </trkpt>
      <trkpt lat="43.23261" lon="-0.90352">
        <ele>263.4</ele>
        <time>2022-09-10T12:51:35Z</time>
      </trkpt>
      <trkpt lat="43.23282" lon="-0.90352">
        <ele>264</ele>
        <time>2022-09-10T12:51:41Z</time>
      </trkpt>
      <trkpt lat="43.23307" lon="-0.90362">
        <ele>264.6</ele>
        <time>2022-09-10T12:51:48Z</time>
      </trkpt>
      <trkpt lat="43.23329" lon="-0.90377">
        <ele>265</ele>
        <time>2022-09-10T12:51:54Z</time>
      </trkpt>
      <trkpt lat="43.23346" lon="-0.90399">
        <ele>265.4</ele>
        <time>2022-09-10T12:52:00Z</time>
      </trkpt>
      <trkpt lat="43.23356" lon="-0.90415">
        <ele>265.6</ele>
        <time>2022-09-10T12:52:04Z</time>
      </trkpt>
      <trkpt lat="43.23361" lon="-0.90429">
        <ele>266</ele>
        <time>2022-09-10T12:52:07Z</time>
      </trkpt>
      <trkpt lat="43.23363" lon="-0.9046">
        <ele>266.6</ele>
        <time>2022-09-10T12:52:13Z</time>
      </trkpt>
      <trkpt lat="43.23362" lon="-0.90471">
        <ele>266.8</ele>
        <time>2022-09-10T12:52:15Z</time>
      </trkpt>
      <trkpt lat="43.23357" lon="-0.90508">
        <ele>267.2</ele>
        <time>2022-09-10T12:52:22Z</time>
      </trkpt>
      <trkpt lat="43.23353" lon="-0.90543">
        <ele>267.8</ele>
        <time>2022-09-10T12:52:29Z</time>
      </trkpt>
      <trkpt lat="43.23355" lon="-0.9058">
        <ele>268.6</ele>
        <time>2022-09-10T12:52:36Z</time>
      </trkpt>
      <trkpt lat="43.23359" lon="-0.90595">
        <ele>268.8</ele>
        <time>2022-09-10T12:52:39Z</time>
      </trkpt>
      <trkpt lat="43.23366" lon="-0.90612">
        <ele>269</ele>
        <time>2022-09-10T12:52:43Z</time>
      </trkpt>
      <trkpt lat="43.2337" lon="-0.90614">
        <ele>269</ele>
        <time>2022-09-10T12:52:44Z</time>
      </trkpt>
      <trkpt lat="43.23373" lon="-0.90615">
        <ele>269</ele>
        <time>2022-09-10T12:52:45Z</time>
      </trkpt>
      <trkpt lat="43.23377" lon="-0.90614">
        <ele>269.2</ele>
        <time>2022-09-10T12:52:46Z</time>
      </trkpt>
      <trkpt lat="43.23391" lon="-0.90604">
        <ele>269.8</ele>
        <time>2022-09-10T12:52:50Z</time>
      </trkpt>
      <trkpt lat="43.23395" lon="-0.90601">
        <ele>270</ele>
        <time>2022-09-10T12:52:51Z</time>
      </trkpt>
      <trkpt lat="43.23422" lon="-0.90581">
        <ele>270.6</ele>
        <time>2022-09-10T12:52:59Z</time>
      </trkpt>
      <trkpt lat="43.23433" lon="-0.90573">
        <ele>271</ele>
        <time>2022-09-10T12:53:02Z</time>
      </trkpt>
      <trkpt lat="43.23447" lon="-0.90564">
        <ele>271</ele>
        <time>2022-09-10T12:53:06Z</time>
      </trkpt>
      <trkpt lat="43.23476" lon="-0.90548">
        <ele>271.8</ele>
        <time>2022-09-10T12:53:14Z</time>
      </trkpt>
      <trkpt lat="43.23495" lon="-0.90537">
        <ele>272</ele>
        <time>2022-09-10T12:53:19Z</time>
      </trkpt>
      <trkpt lat="43.23503" lon="-0.90534">
        <ele>272.2</ele>
        <time>2022-09-10T12:53:21Z</time>
      </trkpt>
      <trkpt lat="43.23528" lon="-0.90526">
        <ele>273</ele>
        <time>2022-09-10T12:53:28Z</time>
      </trkpt>
      <trkpt lat="43.23535" lon="-0.90526">
        <ele>273.2</ele>
        <time>2022-09-10T12:53:30Z</time>
      </trkpt>
      <trkpt lat="43.23548" lon="-0.90526">
        <ele>273.6</ele>
        <time>2022-09-10T12:53:34Z</time>
      </trkpt>
      <trkpt lat="43.23557" lon="-0.90528">
        <ele>274.2</ele>
        <time>2022-09-10T12:53:37Z</time>
      </trkpt>
      <trkpt lat="43.23569" lon="-0.90531">
        <ele>274.8</ele>
        <time>2022-09-10T12:53:41Z</time>
      </trkpt>
      <trkpt lat="43.23582" lon="-0.90534">
        <ele>275.4</ele>
        <time>2022-09-10T12:53:46Z</time>
      </trkpt>
      <trkpt lat="43.23588" lon="-0.90534">
        <ele>275.8</ele>
        <time>2022-09-10T12:53:48Z</time>
      </trkpt>
      <trkpt lat="43.23607" lon="-0.90528">
        <ele>276.4</ele>
        <time>2022-09-10T12:53:55Z</time>
      </trkpt>
      <trkpt lat="43.23623" lon="-0.90522">
        <ele>277.4</ele>
        <time>2022-09-10T12:54:01Z</time>
      </trkpt>
      <trkpt lat="43.23628" lon="-0.90519">
        <ele>277.4</ele>
        <time>2022-09-10T12:54:03Z</time>
      </trkpt>
      <trkpt lat="43.23646" lon="-0.90512">
        <ele>278.6</ele>
        <time>2022-09-10T12:54:10Z</time>
      </trkpt>
      <trkpt lat="43.23661" lon="-0.90507">
        <ele>279.4</ele>
        <time>2022-09-10T12:54:16Z</time>
      </trkpt>
      <trkpt lat="43.23669" lon="-0.90505">
        <ele>279.8</ele>
        <time>2022-09-10T12:54:19Z</time>
      </trkpt>
      <trkpt lat="43.23677" lon="-0.90502">
        <ele>280.2</ele>
        <time>2022-09-10T12:54:22Z</time>
      </trkpt>
      <trkpt lat="43.23689" lon="-0.905">
        <ele>280.8</ele>
        <time>2022-09-10T12:54:27Z</time>
      </trkpt>
      <trkpt lat="43.23694" lon="-0.90499">
        <ele>281</ele>
        <time>2022-09-10T12:54:29Z</time>
      </trkpt>
      <trkpt lat="43.23709" lon="-0.905">
        <ele>281.8</ele>
        <time>2022-09-10T12:54:35Z</time>
      </trkpt>
      <trkpt lat="43.23712" lon="-0.90501">
        <ele>282</ele>
        <time>2022-09-10T12:54:36Z</time>
      </trkpt>
      <trkpt lat="43.23731" lon="-0.90508">
        <ele>283</ele>
        <time>2022-09-10T12:54:44Z</time>
      </trkpt>
      <trkpt lat="43.23733" lon="-0.90509">
        <ele>283</ele>
        <time>2022-09-10T12:54:45Z</time>
      </trkpt>
      <trkpt lat="43.23745" lon="-0.90518">
        <ele>283.6</ele>
        <time>2022-09-10T12:54:50Z</time>
      </trkpt>
      <trkpt lat="43.23756" lon="-0.90531">
        <ele>284</ele>
        <time>2022-09-10T12:54:55Z</time>
      </trkpt>
      <trkpt lat="43.23761" lon="-0.90539">
        <ele>284.4</ele>
        <time>2022-09-10T12:54:58Z</time>
      </trkpt>
      <trkpt lat="43.23767" lon="-0.90551">
        <ele>285.2</ele>
        <time>2022-09-10T12:55:02Z</time>
      </trkpt>
      <trkpt lat="43.23774" lon="-0.90564">
        <ele>285.4</ele>
        <time>2022-09-10T12:55:06Z</time>
      </trkpt>
      <trkpt lat="43.2378" lon="-0.90587">
        <ele>286.2</ele>
        <time>2022-09-10T12:55:13Z</time>
      </trkpt>
      <trkpt lat="43.23781" lon="-0.90591">
        <ele>286.4</ele>
        <time>2022-09-10T12:55:14Z</time>
      </trkpt>
      <trkpt lat="43.23785" lon="-0.90617">
        <ele>287</ele>
        <time>2022-09-10T12:55:21Z</time>
      </trkpt>
      <trkpt lat="43.23786" lon="-0.90621">
        <ele>287.4</ele>
        <time>2022-09-10T12:55:22Z</time>
      </trkpt>
      <trkpt lat="43.23789" lon="-0.90655">
        <ele>288.2</ele>
        <time>2022-09-10T12:55:30Z</time>
      </trkpt>
      <trkpt lat="43.2379" lon="-0.90686">
        <ele>288.2</ele>
        <time>2022-09-10T12:55:38Z</time>
      </trkpt>
      <trkpt lat="43.23792" lon="-0.90718">
        <ele>287.6</ele>
        <time>2022-09-10T12:55:44Z</time>
      </trkpt>
      <trkpt lat="43.23792" lon="-0.90769">
        <ele>286.8</ele>
        <time>2022-09-10T12:55:51Z</time>
      </trkpt>
      <trkpt lat="43.23792" lon="-0.90792">
        <ele>286.4</ele>
        <time>2022-09-10T12:55:54Z</time>
      </trkpt>
      <trkpt lat="43.23788" lon="-0.9082">
        <ele>286</ele>
        <time>2022-09-10T12:55:58Z</time>
      </trkpt>
      <trkpt lat="43.23787" lon="-0.90827">
        <ele>286</ele>
        <time>2022-09-10T12:55:59Z</time>
      </trkpt>
      <trkpt lat="43.23779" lon="-0.90865">
        <ele>286.4</ele>
        <time>2022-09-10T12:56:05Z</time>
      </trkpt>
      <trkpt lat="43.23778" lon="-0.9087">
        <ele>286.6</ele>
        <time>2022-09-10T12:56:06Z</time>
      </trkpt>
      <trkpt lat="43.23771" lon="-0.90891">
        <ele>287.6</ele>
        <time>2022-09-10T12:56:10Z</time>
      </trkpt>
      <trkpt lat="43.23767" lon="-0.90904">
        <ele>288.2</ele>
        <time>2022-09-10T12:56:13Z</time>
      </trkpt>
      <trkpt lat="43.23753" lon="-0.90928">
        <ele>288.6</ele>
        <time>2022-09-10T12:56:20Z</time>
      </trkpt>
      <trkpt lat="43.23739" lon="-0.9095">
        <ele>289.6</ele>
        <time>2022-09-10T12:56:27Z</time>
      </trkpt>
      <trkpt lat="43.23737" lon="-0.90953">
        <ele>289.8</ele>
        <time>2022-09-10T12:56:28Z</time>
      </trkpt>
      <trkpt lat="43.23724" lon="-0.90968">
        <ele>290.6</ele>
        <time>2022-09-10T12:56:34Z</time>
      </trkpt>
      <trkpt lat="43.23722" lon="-0.9097">
        <ele>290.8</ele>
        <time>2022-09-10T12:56:35Z</time>
      </trkpt>
      <trkpt lat="43.23711" lon="-0.90983">
        <ele>291.4</ele>
        <time>2022-09-10T12:56:40Z</time>
      </trkpt>
      <trkpt lat="43.23706" lon="-0.90987">
        <ele>291.8</ele>
        <time>2022-09-10T12:56:42Z</time>
      </trkpt>
      <trkpt lat="43.23697" lon="-0.90994">
        <ele>292.2</ele>
        <time>2022-09-10T12:56:46Z</time>
      </trkpt>
      <trkpt lat="43.23682" lon="-0.91003">
        <ele>292.4</ele>
        <time>2022-09-10T12:56:52Z</time>
      </trkpt>
      <trkpt lat="43.23669" lon="-0.91009">
        <ele>292.8</ele>
        <time>2022-09-10T12:56:57Z</time>
      </trkpt>
      <trkpt lat="43.23666" lon="-0.9101">
        <ele>292.8</ele>
        <time>2022-09-10T12:56:58Z</time>
      </trkpt>
      <trkpt lat="43.23648" lon="-0.91018">
        <ele>293.2</ele>
        <time>2022-09-10T12:57:05Z</time>
      </trkpt>
      <trkpt lat="43.23631" lon="-0.91029">
        <ele>293.6</ele>
        <time>2022-09-10T12:57:11Z</time>
      </trkpt>
      <trkpt lat="43.23619" lon="-0.91042">
        <ele>293.8</ele>
        <time>2022-09-10T12:57:16Z</time>
      </trkpt>
      <trkpt lat="43.23611" lon="-0.91051">
        <ele>294</ele>
        <time>2022-09-10T12:57:19Z</time>
      </trkpt>
      <trkpt lat="43.23601" lon="-0.91063">
        <ele>294.4</ele>
        <time>2022-09-10T12:57:23Z</time>
      </trkpt>
      <trkpt lat="43.23596" lon="-0.91084">
        <ele>294.6</ele>
        <time>2022-09-10T12:57:28Z</time>
      </trkpt>
      <trkpt lat="43.23598" lon="-0.91092">
        <ele>295</ele>
        <time>2022-09-10T12:57:30Z</time>
      </trkpt>
      <trkpt lat="43.23602" lon="-0.91097">
        <ele>295.4</ele>
        <time>2022-09-10T12:57:32Z</time>
      </trkpt>
      <trkpt lat="43.23619" lon="-0.91117">
        <ele>295.8</ele>
        <time>2022-09-10T12:57:40Z</time>
      </trkpt>
      <trkpt lat="43.23632" lon="-0.91129">
        <ele>296</ele>
        <time>2022-09-10T12:57:45Z</time>
      </trkpt>
      <trkpt lat="43.23634" lon="-0.91132">
        <ele>296</ele>
        <time>2022-09-10T12:57:46Z</time>
      </trkpt>
      <trkpt lat="43.23641" lon="-0.91152">
        <ele>296.4</ele>
        <time>2022-09-10T12:57:51Z</time>
      </trkpt>
      <trkpt lat="43.23642" lon="-0.91177">
        <ele>296.8</ele>
        <time>2022-09-10T12:57:57Z</time>
      </trkpt>
      <trkpt lat="43.23638" lon="-0.91202">
        <ele>297</ele>
        <time>2022-09-10T12:58:02Z</time>
      </trkpt>
      <trkpt lat="43.23635" lon="-0.91212">
        <ele>297.4</ele>
        <time>2022-09-10T12:58:04Z</time>
      </trkpt>
      <trkpt lat="43.23626" lon="-0.91246">
        <ele>298.2</ele>
        <time>2022-09-10T12:58:11Z</time>
      </trkpt>
      <trkpt lat="43.23614" lon="-0.91284">
        <ele>298.6</ele>
        <time>2022-09-10T12:58:19Z</time>
      </trkpt>
      <trkpt lat="43.23604" lon="-0.91324">
        <ele>299.2</ele>
        <time>2022-09-10T12:58:27Z</time>
      </trkpt>
      <trkpt lat="43.2359" lon="-0.91374">
        <ele>300</ele>
        <time>2022-09-10T12:58:37Z</time>
      </trkpt>
      <trkpt lat="43.23586" lon="-0.91388">
        <ele>300.4</ele>
        <time>2022-09-10T12:58:40Z</time>
      </trkpt>
      <trkpt lat="43.23582" lon="-0.91403">
        <ele>300.6</ele>
        <time>2022-09-10T12:58:43Z</time>
      </trkpt>
      <trkpt lat="43.2357" lon="-0.91442">
        <ele>301.4</ele>
        <time>2022-09-10T12:58:51Z</time>
      </trkpt>
      <trkpt lat="43.23567" lon="-0.91452">
        <ele>301.6</ele>
        <time>2022-09-10T12:58:53Z</time>
      </trkpt>
      <trkpt lat="43.23558" lon="-0.91486">
        <ele>302.4</ele>
        <time>2022-09-10T12:59:00Z</time>
      </trkpt>
      <trkpt lat="43.23557" lon="-0.9149">
        <ele>302.4</ele>
        <time>2022-09-10T12:59:01Z</time>
      </trkpt>
      <trkpt lat="43.23547" lon="-0.91516">
        <ele>303.2</ele>
        <time>2022-09-10T12:59:07Z</time>
      </trkpt>
      <trkpt lat="43.23541" lon="-0.91534">
        <ele>303.6</ele>
        <time>2022-09-10T12:59:11Z</time>
      </trkpt>
      <trkpt lat="43.23539" lon="-0.91543">
        <ele>303.8</ele>
        <time>2022-09-10T12:59:13Z</time>
      </trkpt>
      <trkpt lat="43.23535" lon="-0.91562">
        <ele>304</ele>
        <time>2022-09-10T12:59:19Z</time>
      </trkpt>
      <trkpt lat="43.23541" lon="-0.91579">
        <ele>304.4</ele>
        <time>2022-09-10T12:59:24Z</time>
      </trkpt>
      <trkpt lat="43.23543" lon="-0.9158">
        <ele>304.6</ele>
        <time>2022-09-10T12:59:25Z</time>
      </trkpt>
      <trkpt lat="43.23555" lon="-0.9158">
        <ele>305</ele>
        <time>2022-09-10T12:59:29Z</time>
      </trkpt>
      <trkpt lat="43.23558" lon="-0.91579">
        <ele>305.2</ele>
        <time>2022-09-10T12:59:30Z</time>
      </trkpt>
      <trkpt lat="43.23577" lon="-0.91576">
        <ele>305.6</ele>
        <time>2022-09-10T12:59:37Z</time>
      </trkpt>
      <trkpt lat="43.23598" lon="-0.91573">
        <ele>306.2</ele>
        <time>2022-09-10T12:59:44Z</time>
      </trkpt>
      <trkpt lat="43.23613" lon="-0.91572">
        <ele>306.6</ele>
        <time>2022-09-10T12:59:49Z</time>
      </trkpt>
      <trkpt lat="43.23622" lon="-0.91571">
        <ele>307</ele>
        <time>2022-09-10T12:59:52Z</time>
      </trkpt>
      <trkpt lat="43.23646" lon="-0.91567">
        <ele>307.4</ele>
        <time>2022-09-10T12:59:59Z</time>
      </trkpt>
      <trkpt lat="43.23654" lon="-0.91566">
        <ele>307.6</ele>
        <time>2022-09-10T13:00:01Z</time>
      </trkpt>
      <trkpt lat="43.23682" lon="-0.91564">
        <ele>308.4</ele>
        <time>2022-09-10T13:00:09Z</time>
      </trkpt>
      <trkpt lat="43.23688" lon="-0.91566">
        <ele>308.8</ele>
        <time>2022-09-10T13:00:11Z</time>
      </trkpt>
      <trkpt lat="43.237" lon="-0.91572">
        <ele>309.2</ele>
        <time>2022-09-10T13:00:15Z</time>
      </trkpt>
      <trkpt lat="43.2372" lon="-0.91592">
        <ele>309.8</ele>
        <time>2022-09-10T13:00:22Z</time>
      </trkpt>
      <trkpt lat="43.23723" lon="-0.91595">
        <ele>309.8</ele>
        <time>2022-09-10T13:00:23Z</time>
      </trkpt>
      <trkpt lat="43.23736" lon="-0.91622">
        <ele>310.4</ele>
        <time>2022-09-10T13:00:30Z</time>
      </trkpt>
      <trkpt lat="43.2374" lon="-0.91639">
        <ele>310.8</ele>
        <time>2022-09-10T13:00:34Z</time>
      </trkpt>
      <trkpt lat="43.23743" lon="-0.91653">
        <ele>310.8</ele>
        <time>2022-09-10T13:00:37Z</time>
      </trkpt>
      <trkpt lat="43.23745" lon="-0.91681">
        <ele>311.4</ele>
        <time>2022-09-10T13:00:43Z</time>
      </trkpt>
      <trkpt lat="43.23745" lon="-0.917">
        <ele>312</ele>
        <time>2022-09-10T13:00:47Z</time>
      </trkpt>
      <trkpt lat="43.23743" lon="-0.9172">
        <ele>312</ele>
        <time>2022-09-10T13:00:51Z</time>
      </trkpt>
      <trkpt lat="43.23749" lon="-0.91742">
        <ele>312.4</ele>
        <time>2022-09-10T13:00:56Z</time>
      </trkpt>
      <trkpt lat="43.23752" lon="-0.91744">
        <ele>312.4</ele>
        <time>2022-09-10T13:00:57Z</time>
      </trkpt>
      <trkpt lat="43.23759" lon="-0.91746">
        <ele>312.6</ele>
        <time>2022-09-10T13:00:59Z</time>
      </trkpt>
      <trkpt lat="43.23777" lon="-0.91739">
        <ele>313</ele>
        <time>2022-09-10T13:01:04Z</time>
      </trkpt>
      <trkpt lat="43.23801" lon="-0.9173">
        <ele>313.2</ele>
        <time>2022-09-10T13:01:10Z</time>
      </trkpt>
      <trkpt lat="43.23821" lon="-0.91725">
        <ele>313.2</ele>
        <time>2022-09-10T13:01:15Z</time>
      </trkpt>
      <trkpt lat="43.23829" lon="-0.91724">
        <ele>313.4</ele>
        <time>2022-09-10T13:01:17Z</time>
      </trkpt>
      <trkpt lat="43.23842" lon="-0.91726">
        <ele>313.8</ele>
        <time>2022-09-10T13:01:20Z</time>
      </trkpt>
      <trkpt lat="43.23849" lon="-0.9173">
        <ele>314</ele>
        <time>2022-09-10T13:01:22Z</time>
      </trkpt>
      <trkpt lat="43.23857" lon="-0.91734">
        <ele>314</ele>
        <time>2022-09-10T13:01:24Z</time>
      </trkpt>
      <trkpt lat="43.23867" lon="-0.91741">
        <ele>314.2</ele>
        <time>2022-09-10T13:01:27Z</time>
      </trkpt>
      <trkpt lat="43.2389" lon="-0.91748">
        <ele>314.6</ele>
        <time>2022-09-10T13:01:33Z</time>
      </trkpt>
      <trkpt lat="43.23895" lon="-0.91748">
        <ele>314.8</ele>
        <time>2022-09-10T13:01:34Z</time>
      </trkpt>
      <trkpt lat="43.23905" lon="-0.91742">
        <ele>315.2</ele>
        <time>2022-09-10T13:01:37Z</time>
      </trkpt>
      <trkpt lat="43.23908" lon="-0.9174">
        <ele>315.2</ele>
        <time>2022-09-10T13:01:38Z</time>
      </trkpt>
      <trkpt lat="43.23931" lon="-0.91724">
        <ele>315.8</ele>
        <time>2022-09-10T13:01:45Z</time>
      </trkpt>
      <trkpt lat="43.23937" lon="-0.91721">
        <ele>316.2</ele>
        <time>2022-09-10T13:01:47Z</time>
      </trkpt>
      <trkpt lat="43.23951" lon="-0.91719">
        <ele>316.6</ele>
        <time>2022-09-10T13:01:51Z</time>
      </trkpt>
      <trkpt lat="43.23967" lon="-0.91727">
        <ele>317.2</ele>
        <time>2022-09-10T13:01:56Z</time>
      </trkpt>
      <trkpt lat="43.23969" lon="-0.9173">
        <ele>317.6</ele>
        <time>2022-09-10T13:01:57Z</time>
      </trkpt>
      <trkpt lat="43.23988" lon="-0.91741">
        <ele>318.4</ele>
        <time>2022-09-10T13:02:04Z</time>
      </trkpt>
      <trkpt lat="43.24003" lon="-0.91754">
        <ele>319.4</ele>
        <time>2022-09-10T13:02:11Z</time>
      </trkpt>
      <trkpt lat="43.24006" lon="-0.91756">
        <ele>319.6</ele>
        <time>2022-09-10T13:02:12Z</time>
      </trkpt>
      <trkpt lat="43.24017" lon="-0.91778">
        <ele>320.6</ele>
        <time>2022-09-10T13:02:19Z</time>
      </trkpt>
      <trkpt lat="43.24021" lon="-0.91787">
        <ele>321</ele>
        <time>2022-09-10T13:02:22Z</time>
      </trkpt>
      <trkpt lat="43.24031" lon="-0.91803">
        <ele>321.6</ele>
        <time>2022-09-10T13:02:28Z</time>
      </trkpt>
      <trkpt lat="43.24035" lon="-0.91807">
        <ele>321.8</ele>
        <time>2022-09-10T13:02:30Z</time>
      </trkpt>
      <trkpt lat="43.24047" lon="-0.91817">
        <ele>322.6</ele>
        <time>2022-09-10T13:02:35Z</time>
      </trkpt>
      <trkpt lat="43.24054" lon="-0.91825">
        <ele>322.8</ele>
        <time>2022-09-10T13:02:38Z</time>
      </trkpt>
      <trkpt lat="43.24071" lon="-0.91855">
        <ele>323.2</ele>
        <time>2022-09-10T13:02:46Z</time>
      </trkpt>
      <trkpt lat="43.24084" lon="-0.91885">
        <ele>323.2</ele>
        <time>2022-09-10T13:02:53Z</time>
      </trkpt>
      <trkpt lat="43.24094" lon="-0.91895">
        <ele>322.8</ele>
        <time>2022-09-10T13:02:56Z</time>
      </trkpt>
      <trkpt lat="43.24102" lon="-0.919">
        <ele>323</ele>
        <time>2022-09-10T13:02:58Z</time>
      </trkpt>
      <trkpt lat="43.24128" lon="-0.9192">
        <ele>323.6</ele>
        <time>2022-09-10T13:03:06Z</time>
      </trkpt>
      <trkpt lat="43.2415" lon="-0.91933">
        <ele>323.4</ele>
        <time>2022-09-10T13:03:13Z</time>
      </trkpt>
      <trkpt lat="43.24176" lon="-0.91954">
        <ele>323</ele>
        <time>2022-09-10T13:03:22Z</time>
      </trkpt>
      <trkpt lat="43.24179" lon="-0.9196">
        <ele>322.4</ele>
        <time>2022-09-10T13:03:26Z</time>
      </trkpt>
      <trkpt lat="43.24182" lon="-0.91961">
        <ele>322.6</ele>
        <time>2022-09-10T13:04:34Z</time>
      </trkpt>
      <trkpt lat="43.24187" lon="-0.91962">
        <ele>322.4</ele>
        <time>2022-09-10T13:04:36Z</time>
      </trkpt>
      <trkpt lat="43.24192" lon="-0.91967">
        <ele>322.2</ele>
        <time>2022-09-10T13:04:38Z</time>
      </trkpt>
      <trkpt lat="43.24201" lon="-0.91976">
        <ele>322</ele>
        <time>2022-09-10T13:04:41Z</time>
      </trkpt>
      <trkpt lat="43.24213" lon="-0.91988">
        <ele>321.6</ele>
        <time>2022-09-10T13:04:44Z</time>
      </trkpt>
      <trkpt lat="43.24227" lon="-0.92001">
        <ele>321</ele>
        <time>2022-09-10T13:04:47Z</time>
      </trkpt>
      <trkpt lat="43.24236" lon="-0.92011">
        <ele>320.6</ele>
        <time>2022-09-10T13:04:49Z</time>
      </trkpt>
      <trkpt lat="43.2426" lon="-0.9204">
        <ele>319.6</ele>
        <time>2022-09-10T13:04:54Z</time>
      </trkpt>
      <trkpt lat="43.24281" lon="-0.92069">
        <ele>318.6</ele>
        <time>2022-09-10T13:04:58Z</time>
      </trkpt>
      <trkpt lat="43.24291" lon="-0.92085">
        <ele>318.2</ele>
        <time>2022-09-10T13:05:00Z</time>
      </trkpt>
      <trkpt lat="43.24301" lon="-0.92101">
        <ele>317.4</ele>
        <time>2022-09-10T13:05:02Z</time>
      </trkpt>
      <trkpt lat="43.2432" lon="-0.92122">
        <ele>316.8</ele>
        <time>2022-09-10T13:05:05Z</time>
      </trkpt>
      <trkpt lat="43.24327" lon="-0.92128">
        <ele>316.2</ele>
        <time>2022-09-10T13:05:06Z</time>
      </trkpt>
      <trkpt lat="43.24343" lon="-0.92138">
        <ele>315.2</ele>
        <time>2022-09-10T13:05:08Z</time>
      </trkpt>
      <trkpt lat="43.2436" lon="-0.92145">
        <ele>314.6</ele>
        <time>2022-09-10T13:05:10Z</time>
      </trkpt>
      <trkpt lat="43.24377" lon="-0.92149">
        <ele>314</ele>
        <time>2022-09-10T13:05:12Z</time>
      </trkpt>
      <trkpt lat="43.24402" lon="-0.92156">
        <ele>314</ele>
        <time>2022-09-10T13:05:15Z</time>
      </trkpt>
      <trkpt lat="43.24424" lon="-0.92162">
        <ele>313.6</ele>
        <time>2022-09-10T13:05:18Z</time>
      </trkpt>
      <trkpt lat="43.24437" lon="-0.92171">
        <ele>313.6</ele>
        <time>2022-09-10T13:05:20Z</time>
      </trkpt>
      <trkpt lat="43.24463" lon="-0.92188">
        <ele>314.6</ele>
        <time>2022-09-10T13:05:25Z</time>
      </trkpt>
      <trkpt lat="43.24489" lon="-0.92205">
        <ele>314.6</ele>
        <time>2022-09-10T13:05:31Z</time>
      </trkpt>
      <trkpt lat="43.24503" lon="-0.92216">
        <ele>315</ele>
        <time>2022-09-10T13:05:35Z</time>
      </trkpt>
      <trkpt lat="43.24511" lon="-0.92223">
        <ele>315.2</ele>
        <time>2022-09-10T13:05:38Z</time>
      </trkpt>
      <trkpt lat="43.24526" lon="-0.92235">
        <ele>316</ele>
        <time>2022-09-10T13:05:44Z</time>
      </trkpt>
      <trkpt lat="43.24529" lon="-0.92236">
        <ele>316</ele>
        <time>2022-09-10T13:05:45Z</time>
      </trkpt>
      <trkpt lat="43.2455" lon="-0.92249">
        <ele>316.6</ele>
        <time>2022-09-10T13:05:52Z</time>
      </trkpt>
      <trkpt lat="43.24553" lon="-0.92251">
        <ele>316.6</ele>
        <time>2022-09-10T13:05:53Z</time>
      </trkpt>
      <trkpt lat="43.24569" lon="-0.9226">
        <ele>317.2</ele>
        <time>2022-09-10T13:05:58Z</time>
      </trkpt>
      <trkpt lat="43.24578" lon="-0.92265">
        <ele>317.4</ele>
        <time>2022-09-10T13:06:01Z</time>
      </trkpt>
      <trkpt lat="43.24601" lon="-0.92278">
        <ele>318.2</ele>
        <time>2022-09-10T13:06:08Z</time>
      </trkpt>
      <trkpt lat="43.24613" lon="-0.92282">
        <ele>318.2</ele>
        <time>2022-09-10T13:06:11Z</time>
      </trkpt>
      <trkpt lat="43.24638" lon="-0.92291">
        <ele>318</ele>
        <time>2022-09-10T13:06:17Z</time>
      </trkpt>
      <trkpt lat="43.24684" lon="-0.92297">
        <ele>318.2</ele>
        <time>2022-09-10T13:06:27Z</time>
      </trkpt>
      <trkpt lat="43.24719" lon="-0.92306">
        <ele>318.2</ele>
        <time>2022-09-10T13:06:34Z</time>
      </trkpt>
      <trkpt lat="43.24755" lon="-0.92322">
        <ele>318.4</ele>
        <time>2022-09-10T13:06:41Z</time>
      </trkpt>
      <trkpt lat="43.24789" lon="-0.92347">
        <ele>318.6</ele>
        <time>2022-09-10T13:06:48Z</time>
      </trkpt>
      <trkpt lat="43.2483" lon="-0.92383">
        <ele>318.8</ele>
        <time>2022-09-10T13:06:58Z</time>
      </trkpt>
      <trkpt lat="43.24854" lon="-0.9241">
        <ele>318.6</ele>
        <time>2022-09-10T13:07:04Z</time>
      </trkpt>
      <trkpt lat="43.24863" lon="-0.92417">
        <ele>318.8</ele>
        <time>2022-09-10T13:07:06Z</time>
      </trkpt>
      <trkpt lat="43.24872" lon="-0.92423">
        <ele>318.6</ele>
        <time>2022-09-10T13:07:08Z</time>
      </trkpt>
      <trkpt lat="43.24885" lon="-0.92432">
        <ele>318.6</ele>
        <time>2022-09-10T13:07:11Z</time>
      </trkpt>
      <trkpt lat="43.24921" lon="-0.92457">
        <ele>318.6</ele>
        <time>2022-09-10T13:07:19Z</time>
      </trkpt>
      <trkpt lat="43.24955" lon="-0.92484">
        <ele>318.6</ele>
        <time>2022-09-10T13:07:27Z</time>
      </trkpt>
      <trkpt lat="43.24959" lon="-0.92504">
        <ele>318.4</ele>
        <time>2022-09-10T13:07:30Z</time>
      </trkpt>
      <trkpt lat="43.2495" lon="-0.92519">
        <ele>318.6</ele>
        <time>2022-09-10T13:07:33Z</time>
      </trkpt>
      <trkpt lat="43.24947" lon="-0.92524">
        <ele>318.6</ele>
        <time>2022-09-10T13:07:34Z</time>
      </trkpt>
      <trkpt lat="43.24922" lon="-0.92556">
        <ele>319.2</ele>
        <time>2022-09-10T13:07:41Z</time>
      </trkpt>
      <trkpt lat="43.24912" lon="-0.9257">
        <ele>319.4</ele>
        <time>2022-09-10T13:07:44Z</time>
      </trkpt>
      <trkpt lat="43.24903" lon="-0.92586">
        <ele>319.6</ele>
        <time>2022-09-10T13:07:47Z</time>
      </trkpt>
      <trkpt lat="43.24891" lon="-0.92608">
        <ele>320.2</ele>
        <time>2022-09-10T13:07:51Z</time>
      </trkpt>
      <trkpt lat="43.24887" lon="-0.9262">
        <ele>320.4</ele>
        <time>2022-09-10T13:07:53Z</time>
      </trkpt>
      <trkpt lat="43.24884" lon="-0.92626">
        <ele>320.4</ele>
        <time>2022-09-10T13:07:54Z</time>
      </trkpt>
      <trkpt lat="43.24868" lon="-0.92668">
        <ele>320.8</ele>
        <time>2022-09-10T13:08:01Z</time>
      </trkpt>
      <trkpt lat="43.24844" lon="-0.92712">
        <ele>321.2</ele>
        <time>2022-09-10T13:08:09Z</time>
      </trkpt>
      <trkpt lat="43.24835" lon="-0.9273">
        <ele>321.4</ele>
        <time>2022-09-10T13:08:12Z</time>
      </trkpt>
      <trkpt lat="43.24823" lon="-0.92759">
        <ele>321.8</ele>
        <time>2022-09-10T13:08:17Z</time>
      </trkpt>
      <trkpt lat="43.24822" lon="-0.92766">
        <ele>321.8</ele>
        <time>2022-09-10T13:08:18Z</time>
      </trkpt>
      <trkpt lat="43.24822" lon="-0.92787">
        <ele>321.8</ele>
        <time>2022-09-10T13:08:21Z</time>
      </trkpt>
      <trkpt lat="43.24831" lon="-0.92819">
        <ele>322</ele>
        <time>2022-09-10T13:08:26Z</time>
      </trkpt>
      <trkpt lat="43.24844" lon="-0.92854">
        <ele>322.4</ele>
        <time>2022-09-10T13:08:32Z</time>
      </trkpt>
      <trkpt lat="43.24847" lon="-0.9286">
        <ele>322.6</ele>
        <time>2022-09-10T13:08:33Z</time>
      </trkpt>
      <trkpt lat="43.24865" lon="-0.92906">
        <ele>323</ele>
        <time>2022-09-10T13:08:41Z</time>
      </trkpt>
      <trkpt lat="43.24874" lon="-0.92921">
        <ele>323.2</ele>
        <time>2022-09-10T13:08:44Z</time>
      </trkpt>
      <trkpt lat="43.24885" lon="-0.92935">
        <ele>323.4</ele>
        <time>2022-09-10T13:08:47Z</time>
      </trkpt>
      <trkpt lat="43.24889" lon="-0.92939">
        <ele>323.2</ele>
        <time>2022-09-10T13:08:48Z</time>
      </trkpt>
      <trkpt lat="43.24911" lon="-0.92957">
        <ele>323.4</ele>
        <time>2022-09-10T13:08:54Z</time>
      </trkpt>
      <trkpt lat="43.24918" lon="-0.92964">
        <ele>323.6</ele>
        <time>2022-09-10T13:08:56Z</time>
      </trkpt>
      <trkpt lat="43.24945" lon="-0.92986">
        <ele>324.4</ele>
        <time>2022-09-10T13:09:03Z</time>
      </trkpt>
      <trkpt lat="43.24952" lon="-0.92993">
        <ele>324.6</ele>
        <time>2022-09-10T13:09:05Z</time>
      </trkpt>
      <trkpt lat="43.24969" lon="-0.9301">
        <ele>325.4</ele>
        <time>2022-09-10T13:09:11Z</time>
      </trkpt>
      <trkpt lat="43.24975" lon="-0.93016">
        <ele>325.6</ele>
        <time>2022-09-10T13:09:13Z</time>
      </trkpt>
      <trkpt lat="43.2499" lon="-0.93034">
        <ele>326.2</ele>
        <time>2022-09-10T13:09:19Z</time>
      </trkpt>
      <trkpt lat="43.24998" lon="-0.93041">
        <ele>326.6</ele>
        <time>2022-09-10T13:09:22Z</time>
      </trkpt>
      <trkpt lat="43.25007" lon="-0.93051">
        <ele>327.2</ele>
        <time>2022-09-10T13:09:26Z</time>
      </trkpt>
      <trkpt lat="43.25018" lon="-0.93065">
        <ele>327.6</ele>
        <time>2022-09-10T13:09:31Z</time>
      </trkpt>
      <trkpt lat="43.25026" lon="-0.93076">
        <ele>328.2</ele>
        <time>2022-09-10T13:09:35Z</time>
      </trkpt>
      <trkpt lat="43.25033" lon="-0.93089">
        <ele>328.8</ele>
        <time>2022-09-10T13:09:39Z</time>
      </trkpt>
      <trkpt lat="43.2504" lon="-0.93101">
        <ele>329.2</ele>
        <time>2022-09-10T13:09:43Z</time>
      </trkpt>
      <trkpt lat="43.25048" lon="-0.93116">
        <ele>330</ele>
        <time>2022-09-10T13:09:48Z</time>
      </trkpt>
      <trkpt lat="43.25054" lon="-0.93129">
        <ele>330.4</ele>
        <time>2022-09-10T13:09:52Z</time>
      </trkpt>
      <trkpt lat="43.25062" lon="-0.93144">
        <ele>331.2</ele>
        <time>2022-09-10T13:09:57Z</time>
      </trkpt>
      <trkpt lat="43.25063" lon="-0.93146">
        <ele>331.2</ele>
        <time>2022-09-10T13:09:58Z</time>
      </trkpt>
      <trkpt lat="43.25076" lon="-0.93173">
        <ele>332.2</ele>
        <time>2022-09-10T13:10:06Z</time>
      </trkpt>
      <trkpt lat="43.25078" lon="-0.9318">
        <ele>332.8</ele>
        <time>2022-09-10T13:10:08Z</time>
      </trkpt>
      <trkpt lat="43.25086" lon="-0.93197">
        <ele>333.4</ele>
        <time>2022-09-10T13:10:13Z</time>
      </trkpt>
      <trkpt lat="43.25088" lon="-0.932">
        <ele>333.6</ele>
        <time>2022-09-10T13:10:14Z</time>
      </trkpt>
      <trkpt lat="43.251" lon="-0.93231">
        <ele>334.6</ele>
        <time>2022-09-10T13:10:23Z</time>
      </trkpt>
      <trkpt lat="43.25119" lon="-0.9327">
        <ele>335.6</ele>
        <time>2022-09-10T13:10:35Z</time>
      </trkpt>
      <trkpt lat="43.25132" lon="-0.93294">
        <ele>336.6</ele>
        <time>2022-09-10T13:10:43Z</time>
      </trkpt>
      <trkpt lat="43.25137" lon="-0.93299">
        <ele>336.6</ele>
        <time>2022-09-10T13:10:45Z</time>
      </trkpt>
      <trkpt lat="43.25144" lon="-0.9331">
        <ele>337.2</ele>
        <time>2022-09-10T13:10:49Z</time>
      </trkpt>
      <trkpt lat="43.25151" lon="-0.93322">
        <ele>337.8</ele>
        <time>2022-09-10T13:10:53Z</time>
      </trkpt>
      <trkpt lat="43.25161" lon="-0.93336">
        <ele>338.4</ele>
        <time>2022-09-10T13:10:58Z</time>
      </trkpt>
      <trkpt lat="43.25167" lon="-0.93344">
        <ele>338.8</ele>
        <time>2022-09-10T13:11:01Z</time>
      </trkpt>
      <trkpt lat="43.25178" lon="-0.93356">
        <ele>339.6</ele>
        <time>2022-09-10T13:11:06Z</time>
      </trkpt>
      <trkpt lat="43.25184" lon="-0.93364">
        <ele>339.8</ele>
        <time>2022-09-10T13:11:09Z</time>
      </trkpt>
      <trkpt lat="43.25199" lon="-0.9338">
        <ele>340.6</ele>
        <time>2022-09-10T13:11:16Z</time>
      </trkpt>
      <trkpt lat="43.25208" lon="-0.9339">
        <ele>341</ele>
        <time>2022-09-10T13:11:20Z</time>
      </trkpt>
      <trkpt lat="43.25216" lon="-0.93401">
        <ele>341.6</ele>
        <time>2022-09-10T13:11:24Z</time>
      </trkpt>
      <trkpt lat="43.25224" lon="-0.93411">
        <ele>342.2</ele>
        <time>2022-09-10T13:11:28Z</time>
      </trkpt>
      <trkpt lat="43.25235" lon="-0.93423">
        <ele>342.8</ele>
        <time>2022-09-10T13:11:33Z</time>
      </trkpt>
      <trkpt lat="43.25239" lon="-0.93428">
        <ele>343.2</ele>
        <time>2022-09-10T13:11:35Z</time>
      </trkpt>
      <trkpt lat="43.25254" lon="-0.93439">
        <ele>343.8</ele>
        <time>2022-09-10T13:11:41Z</time>
      </trkpt>
      <trkpt lat="43.25262" lon="-0.93444">
        <ele>344.2</ele>
        <time>2022-09-10T13:11:45Z</time>
      </trkpt>
      <trkpt lat="43.25265" lon="-0.93447">
        <ele>344.4</ele>
        <time>2022-09-10T13:11:47Z</time>
      </trkpt>
      <trkpt lat="43.25275" lon="-0.93453">
        <ele>344.8</ele>
        <time>2022-09-10T13:11:53Z</time>
      </trkpt>
      <trkpt lat="43.25279" lon="-0.93455">
        <ele>345</ele>
        <time>2022-09-10T13:12:34Z</time>
      </trkpt>
      <trkpt lat="43.25281" lon="-0.93455">
        <ele>345</ele>
        <time>2022-09-10T13:12:35Z</time>
      </trkpt>
      <trkpt lat="43.25285" lon="-0.93456">
        <ele>345.2</ele>
        <time>2022-09-10T13:12:37Z</time>
      </trkpt>
      <trkpt lat="43.25295" lon="-0.9346">
        <ele>345.4</ele>
        <time>2022-09-10T13:12:41Z</time>
      </trkpt>
      <trkpt lat="43.25307" lon="-0.93464">
        <ele>346.2</ele>
        <time>2022-09-10T13:12:46Z</time>
      </trkpt>
      <trkpt lat="43.25312" lon="-0.93466">
        <ele>346.4</ele>
        <time>2022-09-10T13:12:48Z</time>
      </trkpt>
      <trkpt lat="43.25336" lon="-0.93474">
        <ele>347.2</ele>
        <time>2022-09-10T13:12:57Z</time>
      </trkpt>
      <trkpt lat="43.25338" lon="-0.93475">
        <ele>347.2</ele>
        <time>2022-09-10T13:12:58Z</time>
      </trkpt>
      <trkpt lat="43.25354" lon="-0.9348">
        <ele>347.2</ele>
        <time>2022-09-10T13:13:05Z</time>
      </trkpt>
      <trkpt lat="43.2536" lon="-0.93479">
        <ele>347.4</ele>
        <time>2022-09-10T13:14:45Z</time>
      </trkpt>
      <trkpt lat="43.25374" lon="-0.93476">
        <ele>347.6</ele>
        <time>2022-09-10T13:14:51Z</time>
      </trkpt>
      <trkpt lat="43.25391" lon="-0.9348">
        <ele>347.8</ele>
        <time>2022-09-10T13:14:58Z</time>
      </trkpt>
      <trkpt lat="43.25416" lon="-0.93486">
        <ele>346.8</ele>
        <time>2022-09-10T13:15:04Z</time>
      </trkpt>
      <trkpt lat="43.25451" lon="-0.93493">
        <ele>346.4</ele>
        <time>2022-09-10T13:15:11Z</time>
      </trkpt>
      <trkpt lat="43.25457" lon="-0.93493">
        <ele>346</ele>
        <time>2022-09-10T13:15:12Z</time>
      </trkpt>
      <trkpt lat="43.25476" lon="-0.93497">
        <ele>344.8</ele>
        <time>2022-09-10T13:15:15Z</time>
      </trkpt>
      <trkpt lat="43.25489" lon="-0.935">
        <ele>344.2</ele>
        <time>2022-09-10T13:15:17Z</time>
      </trkpt>
      <trkpt lat="43.25503" lon="-0.93501">
        <ele>343.8</ele>
        <time>2022-09-10T13:15:19Z</time>
      </trkpt>
      <trkpt lat="43.2554" lon="-0.93507">
        <ele>342.4</ele>
        <time>2022-09-10T13:15:24Z</time>
      </trkpt>
      <trkpt lat="43.25548" lon="-0.93507">
        <ele>342</ele>
        <time>2022-09-10T13:15:25Z</time>
      </trkpt>
      <trkpt lat="43.25569" lon="-0.93502">
        <ele>341.6</ele>
        <time>2022-09-10T13:15:28Z</time>
      </trkpt>
      <trkpt lat="43.25577" lon="-0.93501">
        <ele>340.8</ele>
        <time>2022-09-10T13:15:29Z</time>
      </trkpt>
      <trkpt lat="43.25606" lon="-0.93491">
        <ele>339.8</ele>
        <time>2022-09-10T13:15:33Z</time>
      </trkpt>
      <trkpt lat="43.25629" lon="-0.93484">
        <ele>338.8</ele>
        <time>2022-09-10T13:15:36Z</time>
      </trkpt>
      <trkpt lat="43.25637" lon="-0.93481">
        <ele>338.4</ele>
        <time>2022-09-10T13:15:37Z</time>
      </trkpt>
      <trkpt lat="43.2566" lon="-0.93479">
        <ele>337.8</ele>
        <time>2022-09-10T13:15:40Z</time>
      </trkpt>
      <trkpt lat="43.25668" lon="-0.93484">
        <ele>337.4</ele>
        <time>2022-09-10T13:15:41Z</time>
      </trkpt>
      <trkpt lat="43.25675" lon="-0.9349">
        <ele>337.2</ele>
        <time>2022-09-10T13:15:42Z</time>
      </trkpt>
      <trkpt lat="43.25688" lon="-0.93503">
        <ele>336.4</ele>
        <time>2022-09-10T13:15:44Z</time>
      </trkpt>
      <trkpt lat="43.25696" lon="-0.93508">
        <ele>336</ele>
        <time>2022-09-10T13:15:45Z</time>
      </trkpt>
      <trkpt lat="43.25727" lon="-0.93524">
        <ele>334.4</ele>
        <time>2022-09-10T13:15:49Z</time>
      </trkpt>
      <trkpt lat="43.25735" lon="-0.93528">
        <ele>334</ele>
        <time>2022-09-10T13:15:50Z</time>
      </trkpt>
      <trkpt lat="43.25759" lon="-0.93542">
        <ele>333</ele>
        <time>2022-09-10T13:15:53Z</time>
      </trkpt>
      <trkpt lat="43.25783" lon="-0.9356">
        <ele>332</ele>
        <time>2022-09-10T13:15:56Z</time>
      </trkpt>
      <trkpt lat="43.25805" lon="-0.93582">
        <ele>331</ele>
        <time>2022-09-10T13:15:59Z</time>
      </trkpt>
      <trkpt lat="43.25818" lon="-0.93601">
        <ele>330.4</ele>
        <time>2022-09-10T13:16:01Z</time>
      </trkpt>
      <trkpt lat="43.25828" lon="-0.93621">
        <ele>330</ele>
        <time>2022-09-10T13:16:03Z</time>
      </trkpt>
      <trkpt lat="43.25846" lon="-0.93651">
        <ele>328.8</ele>
        <time>2022-09-10T13:16:06Z</time>
      </trkpt>
      <trkpt lat="43.25864" lon="-0.9368">
        <ele>327.6</ele>
        <time>2022-09-10T13:16:09Z</time>
      </trkpt>
      <trkpt lat="43.25876" lon="-0.937">
        <ele>326.6</ele>
        <time>2022-09-10T13:16:11Z</time>
      </trkpt>
      <trkpt lat="43.25887" lon="-0.93722">
        <ele>325.2</ele>
        <time>2022-09-10T13:16:13Z</time>
      </trkpt>
      <trkpt lat="43.25902" lon="-0.93759">
        <ele>324</ele>
        <time>2022-09-10T13:16:16Z</time>
      </trkpt>
      <trkpt lat="43.25914" lon="-0.93781">
        <ele>323.8</ele>
        <time>2022-09-10T13:16:18Z</time>
      </trkpt>
      <trkpt lat="43.25926" lon="-0.93803">
        <ele>322.6</ele>
        <time>2022-09-10T13:16:20Z</time>
      </trkpt>
      <trkpt lat="43.25939" lon="-0.93825">
        <ele>321.4</ele>
        <time>2022-09-10T13:16:22Z</time>
      </trkpt>
      <trkpt lat="43.25961" lon="-0.93856">
        <ele>320</ele>
        <time>2022-09-10T13:16:25Z</time>
      </trkpt>
      <trkpt lat="43.25987" lon="-0.93881">
        <ele>319</ele>
        <time>2022-09-10T13:16:28Z</time>
      </trkpt>
      <trkpt lat="43.25997" lon="-0.93887">
        <ele>318.8</ele>
        <time>2022-09-10T13:16:29Z</time>
      </trkpt>
      <trkpt lat="43.26025" lon="-0.93904">
        <ele>318</ele>
        <time>2022-09-10T13:16:32Z</time>
      </trkpt>
      <trkpt lat="43.26053" lon="-0.93921">
        <ele>316.4</ele>
        <time>2022-09-10T13:16:35Z</time>
      </trkpt>
      <trkpt lat="43.26061" lon="-0.93926">
        <ele>316</ele>
        <time>2022-09-10T13:16:36Z</time>
      </trkpt>
      <trkpt lat="43.26068" lon="-0.93932">
        <ele>315.2</ele>
        <time>2022-09-10T13:16:37Z</time>
      </trkpt>
      <trkpt lat="43.26074" lon="-0.93938">
        <ele>314.8</ele>
        <time>2022-09-10T13:16:38Z</time>
      </trkpt>
      <trkpt lat="43.26078" lon="-0.93944">
        <ele>314.4</ele>
        <time>2022-09-10T13:16:39Z</time>
      </trkpt>
      <trkpt lat="43.26081" lon="-0.93949">
        <ele>314.2</ele>
        <time>2022-09-10T13:16:40Z</time>
      </trkpt>
      <trkpt lat="43.26086" lon="-0.93956">
        <ele>313.2</ele>
        <time>2022-09-10T13:16:42Z</time>
      </trkpt>
      <trkpt lat="43.26088" lon="-0.93959">
        <ele>313</ele>
        <time>2022-09-10T13:16:43Z</time>
      </trkpt>
      <trkpt lat="43.26095" lon="-0.9397">
        <ele>312.6</ele>
        <time>2022-09-10T13:16:48Z</time>
      </trkpt>
      <trkpt lat="43.26108" lon="-0.93982">
        <ele>312.6</ele>
        <time>2022-09-10T13:18:43Z</time>
      </trkpt>
      <trkpt lat="43.26127" lon="-0.93999">
        <ele>312.4</ele>
        <time>2022-09-10T13:18:49Z</time>
      </trkpt>
      <trkpt lat="43.26148" lon="-0.94014">
        <ele>312.4</ele>
        <time>2022-09-10T13:18:54Z</time>
      </trkpt>
      <trkpt lat="43.26152" lon="-0.94016">
        <ele>312.4</ele>
        <time>2022-09-10T13:18:55Z</time>
      </trkpt>
      <trkpt lat="43.26179" lon="-0.94021">
        <ele>311.8</ele>
        <time>2022-09-10T13:19:01Z</time>
      </trkpt>
      <trkpt lat="43.26183" lon="-0.94021">
        <ele>311.8</ele>
        <time>2022-09-10T13:19:02Z</time>
      </trkpt>
      <trkpt lat="43.26217" lon="-0.94021">
        <ele>311.2</ele>
        <time>2022-09-10T13:19:09Z</time>
      </trkpt>
      <trkpt lat="43.26228" lon="-0.94018">
        <ele>311.2</ele>
        <time>2022-09-10T13:19:12Z</time>
      </trkpt>
      <trkpt lat="43.26229" lon="-0.94014">
        <ele>311.4</ele>
        <time>2022-09-10T13:19:13Z</time>
      </trkpt>
      <trkpt lat="43.26234" lon="-0.94015">
        <ele>311.2</ele>
        <time>2022-09-10T13:19:16Z</time>
      </trkpt>
      <trkpt lat="43.26235" lon="-0.94017">
        <ele>310.8</ele>
        <time>2022-09-10T13:19:18Z</time>
      </trkpt>
      <trkpt lat="43.26237" lon="-0.94022">
        <ele>310.6</ele>
        <time>2022-09-10T13:21:57Z</time>
      </trkpt>
      <trkpt lat="43.26241" lon="-0.94026">
        <ele>310.6</ele>
        <time>2022-09-10T13:21:59Z</time>
      </trkpt>
      <trkpt lat="43.26254" lon="-0.9404">
        <ele>309.8</ele>
        <time>2022-09-10T13:22:03Z</time>
      </trkpt>
      <trkpt lat="43.26258" lon="-0.94045">
        <ele>309.6</ele>
        <time>2022-09-10T13:22:04Z</time>
      </trkpt>
      <trkpt lat="43.2627" lon="-0.94066">
        <ele>308.8</ele>
        <time>2022-09-10T13:22:07Z</time>
      </trkpt>
      <trkpt lat="43.26275" lon="-0.94074">
        <ele>308.2</ele>
        <time>2022-09-10T13:22:08Z</time>
      </trkpt>
      <trkpt lat="43.26285" lon="-0.94091">
        <ele>307</ele>
        <time>2022-09-10T13:22:10Z</time>
      </trkpt>
      <trkpt lat="43.26295" lon="-0.9411">
        <ele>306</ele>
        <time>2022-09-10T13:22:12Z</time>
      </trkpt>
      <trkpt lat="43.26307" lon="-0.9413">
        <ele>304.8</ele>
        <time>2022-09-10T13:22:14Z</time>
      </trkpt>
      <trkpt lat="43.26319" lon="-0.94153">
        <ele>303.4</ele>
        <time>2022-09-10T13:22:16Z</time>
      </trkpt>
      <trkpt lat="43.26326" lon="-0.94164">
        <ele>303</ele>
        <time>2022-09-10T13:22:17Z</time>
      </trkpt>
      <trkpt lat="43.26332" lon="-0.94176">
        <ele>302.4</ele>
        <time>2022-09-10T13:22:18Z</time>
      </trkpt>
      <trkpt lat="43.26358" lon="-0.94219">
        <ele>301.4</ele>
        <time>2022-09-10T13:22:22Z</time>
      </trkpt>
      <trkpt lat="43.26371" lon="-0.9424">
        <ele>301.4</ele>
        <time>2022-09-10T13:22:24Z</time>
      </trkpt>
      <trkpt lat="43.26406" lon="-0.94297">
        <ele>301.4</ele>
        <time>2022-09-10T13:22:30Z</time>
      </trkpt>
      <trkpt lat="43.26428" lon="-0.94334">
        <ele>302.4</ele>
        <time>2022-09-10T13:22:35Z</time>
      </trkpt>
      <trkpt lat="43.26437" lon="-0.94351">
        <ele>303.6</ele>
        <time>2022-09-10T13:22:38Z</time>
      </trkpt>
      <trkpt lat="43.26443" lon="-0.94362">
        <ele>304</ele>
        <time>2022-09-10T13:22:40Z</time>
      </trkpt>
      <trkpt lat="43.26455" lon="-0.94387">
        <ele>304.8</ele>
        <time>2022-09-10T13:22:45Z</time>
      </trkpt>
      <trkpt lat="43.26462" lon="-0.94401">
        <ele>305.2</ele>
        <time>2022-09-10T13:22:48Z</time>
      </trkpt>
      <trkpt lat="43.26475" lon="-0.94428">
        <ele>306</ele>
        <time>2022-09-10T13:22:54Z</time>
      </trkpt>
      <trkpt lat="43.26481" lon="-0.9444">
        <ele>306.4</ele>
        <time>2022-09-10T13:22:57Z</time>
      </trkpt>
      <trkpt lat="43.26489" lon="-0.94458">
        <ele>307</ele>
        <time>2022-09-10T13:23:01Z</time>
      </trkpt>
      <trkpt lat="43.26496" lon="-0.94474">
        <ele>307.8</ele>
        <time>2022-09-10T13:23:05Z</time>
      </trkpt>
      <trkpt lat="43.26497" lon="-0.94477">
        <ele>308</ele>
        <time>2022-09-10T13:23:06Z</time>
      </trkpt>
      <trkpt lat="43.26504" lon="-0.94494">
        <ele>309.2</ele>
        <time>2022-09-10T13:23:11Z</time>
      </trkpt>
      <trkpt lat="43.26509" lon="-0.94505">
        <ele>310.2</ele>
        <time>2022-09-10T13:23:15Z</time>
      </trkpt>
      <trkpt lat="43.2651" lon="-0.94507">
        <ele>310.4</ele>
        <time>2022-09-10T13:23:16Z</time>
      </trkpt>
      <trkpt lat="43.26514" lon="-0.94519">
        <ele>311.2</ele>
        <time>2022-09-10T13:23:22Z</time>
      </trkpt>
      <trkpt lat="43.26516" lon="-0.94522">
        <ele>311.4</ele>
        <time>2022-09-10T13:23:23Z</time>
      </trkpt>
      <trkpt lat="43.26521" lon="-0.94535">
        <ele>312.2</ele>
        <time>2022-09-10T13:23:28Z</time>
      </trkpt>
      <trkpt lat="43.26523" lon="-0.94544">
        <ele>312.6</ele>
        <time>2022-09-10T13:23:31Z</time>
      </trkpt>
      <trkpt lat="43.26528" lon="-0.94556">
        <ele>313.4</ele>
        <time>2022-09-10T13:23:36Z</time>
      </trkpt>
      <trkpt lat="43.26528" lon="-0.94559">
        <ele>313.6</ele>
        <time>2022-09-10T13:23:37Z</time>
      </trkpt>
      <trkpt lat="43.26535" lon="-0.94572">
        <ele>314.2</ele>
        <time>2022-09-10T13:23:42Z</time>
      </trkpt>
      <trkpt lat="43.26536" lon="-0.94577">
        <ele>314.4</ele>
        <time>2022-09-10T13:23:44Z</time>
      </trkpt>
      <trkpt lat="43.2654" lon="-0.94589">
        <ele>315</ele>
        <time>2022-09-10T13:23:49Z</time>
      </trkpt>
      <trkpt lat="43.26544" lon="-0.94598">
        <ele>315.4</ele>
        <time>2022-09-10T13:23:52Z</time>
      </trkpt>
      <trkpt lat="43.26547" lon="-0.94609">
        <ele>315.6</ele>
        <time>2022-09-10T13:23:56Z</time>
      </trkpt>
      <trkpt lat="43.26556" lon="-0.94631">
        <ele>316.4</ele>
        <time>2022-09-10T13:24:04Z</time>
      </trkpt>
      <trkpt lat="43.2656" lon="-0.94643">
        <ele>316.6</ele>
        <time>2022-09-10T13:24:08Z</time>
      </trkpt>
      <trkpt lat="43.26564" lon="-0.94653">
        <ele>316.4</ele>
        <time>2022-09-10T13:24:11Z</time>
      </trkpt>
      <trkpt lat="43.26573" lon="-0.94676">
        <ele>315.8</ele>
        <time>2022-09-10T13:24:17Z</time>
      </trkpt>
      <trkpt lat="43.2658" lon="-0.94692">
        <ele>315.4</ele>
        <time>2022-09-10T13:24:20Z</time>
      </trkpt>
      <trkpt lat="43.26585" lon="-0.94705">
        <ele>315</ele>
        <time>2022-09-10T13:24:22Z</time>
      </trkpt>
      <trkpt lat="43.26591" lon="-0.9472">
        <ele>314.4</ele>
        <time>2022-09-10T13:24:24Z</time>
      </trkpt>
      <trkpt lat="43.26604" lon="-0.94746">
        <ele>313</ele>
        <time>2022-09-10T13:24:27Z</time>
      </trkpt>
      <trkpt lat="43.26621" lon="-0.94773">
        <ele>311.8</ele>
        <time>2022-09-10T13:24:30Z</time>
      </trkpt>
      <trkpt lat="43.26628" lon="-0.9478">
        <ele>311.4</ele>
        <time>2022-09-10T13:24:31Z</time>
      </trkpt>
      <trkpt lat="43.26647" lon="-0.94787">
        <ele>310.6</ele>
        <time>2022-09-10T13:24:33Z</time>
      </trkpt>
      <trkpt lat="43.26657" lon="-0.94789">
        <ele>310.6</ele>
        <time>2022-09-10T13:24:34Z</time>
      </trkpt>
      <trkpt lat="43.26677" lon="-0.94787">
        <ele>309.4</ele>
        <time>2022-09-10T13:24:36Z</time>
      </trkpt>
      <trkpt lat="43.26686" lon="-0.94781">
        <ele>307.4</ele>
        <time>2022-09-10T13:24:37Z</time>
      </trkpt>
      <trkpt lat="43.26701" lon="-0.94766">
        <ele>306.6</ele>
        <time>2022-09-10T13:24:39Z</time>
      </trkpt>
      <trkpt lat="43.26709" lon="-0.94763">
        <ele>306</ele>
        <time>2022-09-10T13:24:40Z</time>
      </trkpt>
      <trkpt lat="43.26724" lon="-0.94771">
        <ele>304.4</ele>
        <time>2022-09-10T13:24:42Z</time>
      </trkpt>
      <trkpt lat="43.26732" lon="-0.94792">
        <ele>302.8</ele>
        <time>2022-09-10T13:24:44Z</time>
      </trkpt>
      <trkpt lat="43.26733" lon="-0.94815">
        <ele>301.4</ele>
        <time>2022-09-10T13:24:46Z</time>
      </trkpt>
      <trkpt lat="43.26733" lon="-0.94826">
        <ele>300.6</ele>
        <time>2022-09-10T13:24:47Z</time>
      </trkpt>
      <trkpt lat="43.26734" lon="-0.94836">
        <ele>300</ele>
        <time>2022-09-10T13:24:48Z</time>
      </trkpt>
      <trkpt lat="43.26735" lon="-0.9487">
        <ele>299</ele>
        <time>2022-09-10T13:24:51Z</time>
      </trkpt>
      <trkpt lat="43.26737" lon="-0.94881">
        <ele>298.4</ele>
        <time>2022-09-10T13:24:52Z</time>
      </trkpt>
      <trkpt lat="43.2674" lon="-0.94905">
        <ele>297.6</ele>
        <time>2022-09-10T13:24:54Z</time>
      </trkpt>
      <trkpt lat="43.26747" lon="-0.94943">
        <ele>296.4</ele>
        <time>2022-09-10T13:24:57Z</time>
      </trkpt>
      <trkpt lat="43.26754" lon="-0.9497">
        <ele>295.4</ele>
        <time>2022-09-10T13:24:59Z</time>
      </trkpt>
      <trkpt lat="43.26758" lon="-0.94984">
        <ele>294.8</ele>
        <time>2022-09-10T13:25:00Z</time>
      </trkpt>
      <trkpt lat="43.26764" lon="-0.94997">
        <ele>293.4</ele>
        <time>2022-09-10T13:25:01Z</time>
      </trkpt>
      <trkpt lat="43.26774" lon="-0.95025">
        <ele>291.8</ele>
        <time>2022-09-10T13:25:03Z</time>
      </trkpt>
      <trkpt lat="43.26786" lon="-0.95052">
        <ele>290.6</ele>
        <time>2022-09-10T13:25:05Z</time>
      </trkpt>
      <trkpt lat="43.26798" lon="-0.95078">
        <ele>289.6</ele>
        <time>2022-09-10T13:25:07Z</time>
      </trkpt>
      <trkpt lat="43.26804" lon="-0.95091">
        <ele>289.4</ele>
        <time>2022-09-10T13:25:08Z</time>
      </trkpt>
      <trkpt lat="43.26816" lon="-0.95113">
        <ele>289.6</ele>
        <time>2022-09-10T13:25:10Z</time>
      </trkpt>
      <trkpt lat="43.26823" lon="-0.95122">
        <ele>289.4</ele>
        <time>2022-09-10T13:25:11Z</time>
      </trkpt>
      <trkpt lat="43.26857" lon="-0.95165">
        <ele>289</ele>
        <time>2022-09-10T13:25:16Z</time>
      </trkpt>
      <trkpt lat="43.26868" lon="-0.95182">
        <ele>289.4</ele>
        <time>2022-09-10T13:25:18Z</time>
      </trkpt>
      <trkpt lat="43.26874" lon="-0.95203">
        <ele>289.4</ele>
        <time>2022-09-10T13:25:20Z</time>
      </trkpt>
      <trkpt lat="43.2687" lon="-0.95234">
        <ele>288.6</ele>
        <time>2022-09-10T13:25:23Z</time>
      </trkpt>
      <trkpt lat="43.26868" lon="-0.95244">
        <ele>288.2</ele>
        <time>2022-09-10T13:25:24Z</time>
      </trkpt>
      <trkpt lat="43.26857" lon="-0.95292">
        <ele>287.2</ele>
        <time>2022-09-10T13:25:29Z</time>
      </trkpt>
      <trkpt lat="43.26855" lon="-0.95301">
        <ele>287.2</ele>
        <time>2022-09-10T13:25:30Z</time>
      </trkpt>
      <trkpt lat="43.26844" lon="-0.95372">
        <ele>286.8</ele>
        <time>2022-09-10T13:25:38Z</time>
      </trkpt>
      <trkpt lat="43.26838" lon="-0.95427">
        <ele>286</ele>
        <time>2022-09-10T13:25:45Z</time>
      </trkpt>
      <trkpt lat="43.26836" lon="-0.95456">
        <ele>285.6</ele>
        <time>2022-09-10T13:25:50Z</time>
      </trkpt>
      <trkpt lat="43.26836" lon="-0.95468">
        <ele>285</ele>
        <time>2022-09-10T13:25:54Z</time>
      </trkpt>
      <trkpt lat="43.26836" lon="-0.9547">
        <ele>285</ele>
        <time>2022-09-10T13:25:55Z</time>
      </trkpt>
      <trkpt lat="43.26834" lon="-0.95481">
        <ele>284.6</ele>
        <time>2022-09-10T13:26:00Z</time>
      </trkpt>
      <trkpt lat="43.26835" lon="-0.95493">
        <ele>284.2</ele>
        <time>2022-09-10T13:30:42Z</time>
      </trkpt>
      <trkpt lat="43.26835" lon="-0.95514">
        <ele>284.2</ele>
        <time>2022-09-10T13:30:47Z</time>
      </trkpt>
      <trkpt lat="43.26838" lon="-0.9555">
        <ele>284.2</ele>
        <time>2022-09-10T13:30:54Z</time>
      </trkpt>
      <trkpt lat="43.26839" lon="-0.95567">
        <ele>284</ele>
        <time>2022-09-10T13:30:57Z</time>
      </trkpt>
      <trkpt lat="43.26839" lon="-0.95584">
        <ele>284.2</ele>
        <time>2022-09-10T13:31:00Z</time>
      </trkpt>
      <trkpt lat="43.26838" lon="-0.95591">
        <ele>284.2</ele>
        <time>2022-09-10T13:31:01Z</time>
      </trkpt>
      <trkpt lat="43.26834" lon="-0.95606">
        <ele>284.8</ele>
        <time>2022-09-10T13:31:04Z</time>
      </trkpt>
      <trkpt lat="43.26834" lon="-0.95611">
        <ele>284.8</ele>
        <time>2022-09-10T13:31:05Z</time>
      </trkpt>
      <trkpt lat="43.26827" lon="-0.95641">
        <ele>285.6</ele>
        <time>2022-09-10T13:31:11Z</time>
      </trkpt>
      <trkpt lat="43.26821" lon="-0.95655">
        <ele>286</ele>
        <time>2022-09-10T13:31:14Z</time>
      </trkpt>
      <trkpt lat="43.26818" lon="-0.95665">
        <ele>286.4</ele>
        <time>2022-09-10T13:31:16Z</time>
      </trkpt>
      <trkpt lat="43.26813" lon="-0.95685">
        <ele>287</ele>
        <time>2022-09-10T13:31:20Z</time>
      </trkpt>
      <trkpt lat="43.2681" lon="-0.95704">
        <ele>287.8</ele>
        <time>2022-09-10T13:31:24Z</time>
      </trkpt>
      <trkpt lat="43.26809" lon="-0.95709">
        <ele>288</ele>
        <time>2022-09-10T13:31:25Z</time>
      </trkpt>
      <trkpt lat="43.26805" lon="-0.95738">
        <ele>289</ele>
        <time>2022-09-10T13:31:31Z</time>
      </trkpt>
      <trkpt lat="43.26805" lon="-0.95742">
        <ele>289.2</ele>
        <time>2022-09-10T13:31:32Z</time>
      </trkpt>
      <trkpt lat="43.26803" lon="-0.95768">
        <ele>289.4</ele>
        <time>2022-09-10T13:31:38Z</time>
      </trkpt>
      <trkpt lat="43.268" lon="-0.95793">
        <ele>289.6</ele>
        <time>2022-09-10T13:31:44Z</time>
      </trkpt>
      <trkpt lat="43.26798" lon="-0.95816">
        <ele>289.4</ele>
        <time>2022-09-10T13:31:50Z</time>
      </trkpt>
      <trkpt lat="43.26793" lon="-0.95847">
        <ele>289.6</ele>
        <time>2022-09-10T13:31:57Z</time>
      </trkpt>
      <trkpt lat="43.26791" lon="-0.95871">
        <ele>289.8</ele>
        <time>2022-09-10T13:32:02Z</time>
      </trkpt>
      <trkpt lat="43.26789" lon="-0.95904">
        <ele>289.4</ele>
        <time>2022-09-10T13:32:08Z</time>
      </trkpt>
      <trkpt lat="43.26787" lon="-0.95943">
        <ele>289</ele>
        <time>2022-09-10T13:32:14Z</time>
      </trkpt>
      <trkpt lat="43.26786" lon="-0.95957">
        <ele>288.8</ele>
        <time>2022-09-10T13:32:16Z</time>
      </trkpt>
      <trkpt lat="43.26787" lon="-0.95994">
        <ele>288.6</ele>
        <time>2022-09-10T13:32:21Z</time>
      </trkpt>
      <trkpt lat="43.26789" lon="-0.96008">
        <ele>288.4</ele>
        <time>2022-09-10T13:32:23Z</time>
      </trkpt>
      <trkpt lat="43.2679" lon="-0.96023">
        <ele>288</ele>
        <time>2022-09-10T13:32:25Z</time>
      </trkpt>
      <trkpt lat="43.26795" lon="-0.96061">
        <ele>287.6</ele>
        <time>2022-09-10T13:32:30Z</time>
      </trkpt>
      <trkpt lat="43.26806" lon="-0.96105">
        <ele>287.2</ele>
        <time>2022-09-10T13:32:36Z</time>
      </trkpt>
      <trkpt lat="43.26809" lon="-0.96112">
        <ele>287</ele>
        <time>2022-09-10T13:32:37Z</time>
      </trkpt>
      <trkpt lat="43.26813" lon="-0.96125">
        <ele>287</ele>
        <time>2022-09-10T13:32:39Z</time>
      </trkpt>
      <trkpt lat="43.26826" lon="-0.96154">
        <ele>286.8</ele>
        <time>2022-09-10T13:32:44Z</time>
      </trkpt>
      <trkpt lat="43.26846" lon="-0.96191">
        <ele>286.4</ele>
        <time>2022-09-10T13:32:51Z</time>
      </trkpt>
      <trkpt lat="43.26859" lon="-0.96212">
        <ele>286</ele>
        <time>2022-09-10T13:32:55Z</time>
      </trkpt>
      <trkpt lat="43.2687" lon="-0.96229">
        <ele>285.8</ele>
        <time>2022-09-10T13:32:58Z</time>
      </trkpt>
      <trkpt lat="43.26874" lon="-0.96234">
        <ele>286</ele>
        <time>2022-09-10T13:32:59Z</time>
      </trkpt>
      <trkpt lat="43.26904" lon="-0.96268">
        <ele>284.8</ele>
        <time>2022-09-10T13:33:06Z</time>
      </trkpt>
      <trkpt lat="43.26908" lon="-0.96272">
        <ele>284.8</ele>
        <time>2022-09-10T13:33:07Z</time>
      </trkpt>
      <trkpt lat="43.26946" lon="-0.96308">
        <ele>283.8</ele>
        <time>2022-09-10T13:33:15Z</time>
      </trkpt>
      <trkpt lat="43.26984" lon="-0.96343">
        <ele>283</ele>
        <time>2022-09-10T13:33:22Z</time>
      </trkpt>
      <trkpt lat="43.2699" lon="-0.9635">
        <ele>282.4</ele>
        <time>2022-09-10T13:33:23Z</time>
      </trkpt>
      <trkpt lat="43.27004" lon="-0.96363">
        <ele>281.2</ele>
        <time>2022-09-10T13:33:25Z</time>
      </trkpt>
      <trkpt lat="43.27012" lon="-0.9637">
        <ele>280.2</ele>
        <time>2022-09-10T13:33:26Z</time>
      </trkpt>
      <trkpt lat="43.2702" lon="-0.96378">
        <ele>279.6</ele>
        <time>2022-09-10T13:33:27Z</time>
      </trkpt>
      <trkpt lat="43.27028" lon="-0.96385">
        <ele>279</ele>
        <time>2022-09-10T13:33:28Z</time>
      </trkpt>
      <trkpt lat="43.27045" lon="-0.964">
        <ele>278</ele>
        <time>2022-09-10T13:33:30Z</time>
      </trkpt>
      <trkpt lat="43.27064" lon="-0.96416">
        <ele>276.4</ele>
        <time>2022-09-10T13:33:32Z</time>
      </trkpt>
      <trkpt lat="43.27073" lon="-0.96424">
        <ele>275.8</ele>
        <time>2022-09-10T13:33:33Z</time>
      </trkpt>
      <trkpt lat="43.27083" lon="-0.96432">
        <ele>275</ele>
        <time>2022-09-10T13:33:34Z</time>
      </trkpt>
      <trkpt lat="43.27102" lon="-0.96448">
        <ele>273.6</ele>
        <time>2022-09-10T13:33:36Z</time>
      </trkpt>
      <trkpt lat="43.27122" lon="-0.96465">
        <ele>272</ele>
        <time>2022-09-10T13:33:38Z</time>
      </trkpt>
      <trkpt lat="43.27142" lon="-0.96483">
        <ele>270.4</ele>
        <time>2022-09-10T13:33:40Z</time>
      </trkpt>
      <trkpt lat="43.27151" lon="-0.96493">
        <ele>270</ele>
        <time>2022-09-10T13:33:41Z</time>
      </trkpt>
      <trkpt lat="43.2716" lon="-0.96504">
        <ele>269.4</ele>
        <time>2022-09-10T13:33:42Z</time>
      </trkpt>
      <trkpt lat="43.27176" lon="-0.96527">
        <ele>267.8</ele>
        <time>2022-09-10T13:33:44Z</time>
      </trkpt>
      <trkpt lat="43.27184" lon="-0.96538">
        <ele>266.8</ele>
        <time>2022-09-10T13:33:45Z</time>
      </trkpt>
      <trkpt lat="43.27208" lon="-0.96571">
        <ele>265.6</ele>
        <time>2022-09-10T13:33:48Z</time>
      </trkpt>
      <trkpt lat="43.27224" lon="-0.9659">
        <ele>263.8</ele>
        <time>2022-09-10T13:33:50Z</time>
      </trkpt>
      <trkpt lat="43.27233" lon="-0.96598">
        <ele>263.4</ele>
        <time>2022-09-10T13:33:51Z</time>
      </trkpt>
      <trkpt lat="43.27243" lon="-0.96604">
        <ele>263</ele>
        <time>2022-09-10T13:33:52Z</time>
      </trkpt>
      <trkpt lat="43.27252" lon="-0.9661">
        <ele>262.6</ele>
        <time>2022-09-10T13:33:53Z</time>
      </trkpt>
      <trkpt lat="43.27261" lon="-0.96613">
        <ele>262.2</ele>
        <time>2022-09-10T13:33:54Z</time>
      </trkpt>
      <trkpt lat="43.27279" lon="-0.96619">
        <ele>261.6</ele>
        <time>2022-09-10T13:33:56Z</time>
      </trkpt>
      <trkpt lat="43.27297" lon="-0.96624">
        <ele>260.6</ele>
        <time>2022-09-10T13:33:58Z</time>
      </trkpt>
      <trkpt lat="43.27305" lon="-0.96628">
        <ele>260.2</ele>
        <time>2022-09-10T13:33:59Z</time>
      </trkpt>
      <trkpt lat="43.27317" lon="-0.96643">
        <ele>259.8</ele>
        <time>2022-09-10T13:34:01Z</time>
      </trkpt>
      <trkpt lat="43.27325" lon="-0.96677">
        <ele>259</ele>
        <time>2022-09-10T13:34:04Z</time>
      </trkpt>
      <trkpt lat="43.27324" lon="-0.96712">
        <ele>259</ele>
        <time>2022-09-10T13:34:07Z</time>
      </trkpt>
      <trkpt lat="43.27319" lon="-0.96736">
        <ele>258</ele>
        <time>2022-09-10T13:34:09Z</time>
      </trkpt>
      <trkpt lat="43.27314" lon="-0.96762">
        <ele>256.6</ele>
        <time>2022-09-10T13:34:11Z</time>
      </trkpt>
      <trkpt lat="43.27308" lon="-0.9679">
        <ele>254.8</ele>
        <time>2022-09-10T13:34:13Z</time>
      </trkpt>
      <trkpt lat="43.27305" lon="-0.96805">
        <ele>253.4</ele>
        <time>2022-09-10T13:34:14Z</time>
      </trkpt>
      <trkpt lat="43.27303" lon="-0.9682">
        <ele>253</ele>
        <time>2022-09-10T13:34:15Z</time>
      </trkpt>
      <trkpt lat="43.27302" lon="-0.96835">
        <ele>252.4</ele>
        <time>2022-09-10T13:34:16Z</time>
      </trkpt>
      <trkpt lat="43.27301" lon="-0.96867">
        <ele>251</ele>
        <time>2022-09-10T13:34:18Z</time>
      </trkpt>
      <trkpt lat="43.27301" lon="-0.96883">
        <ele>250.4</ele>
        <time>2022-09-10T13:34:19Z</time>
      </trkpt>
      <trkpt lat="43.27301" lon="-0.969">
        <ele>249.6</ele>
        <time>2022-09-10T13:34:20Z</time>
      </trkpt>
      <trkpt lat="43.27304" lon="-0.96933">
        <ele>247.6</ele>
        <time>2022-09-10T13:34:22Z</time>
      </trkpt>
      <trkpt lat="43.27307" lon="-0.96966">
        <ele>246</ele>
        <time>2022-09-10T13:34:24Z</time>
      </trkpt>
      <trkpt lat="43.27311" lon="-0.96997">
        <ele>244</ele>
        <time>2022-09-10T13:34:26Z</time>
      </trkpt>
      <trkpt lat="43.27316" lon="-0.97029">
        <ele>241.8</ele>
        <time>2022-09-10T13:34:28Z</time>
      </trkpt>
      <trkpt lat="43.27322" lon="-0.97061">
        <ele>240.2</ele>
        <time>2022-09-10T13:34:30Z</time>
      </trkpt>
      <trkpt lat="43.27331" lon="-0.97092">
        <ele>238.4</ele>
        <time>2022-09-10T13:34:32Z</time>
      </trkpt>
      <trkpt lat="43.2734" lon="-0.97122">
        <ele>236.4</ele>
        <time>2022-09-10T13:34:34Z</time>
      </trkpt>
      <trkpt lat="43.27345" lon="-0.97135">
        <ele>235.2</ele>
        <time>2022-09-10T13:34:35Z</time>
      </trkpt>
      <trkpt lat="43.2735" lon="-0.97148">
        <ele>234.2</ele>
        <time>2022-09-10T13:34:36Z</time>
      </trkpt>
      <trkpt lat="43.27356" lon="-0.97159">
        <ele>233.2</ele>
        <time>2022-09-10T13:34:37Z</time>
      </trkpt>
      <trkpt lat="43.27364" lon="-0.97168">
        <ele>231</ele>
        <time>2022-09-10T13:34:38Z</time>
      </trkpt>
      <trkpt lat="43.27371" lon="-0.97176">
        <ele>230</ele>
        <time>2022-09-10T13:34:39Z</time>
      </trkpt>
      <trkpt lat="43.27385" lon="-0.97191">
        <ele>228.6</ele>
        <time>2022-09-10T13:34:41Z</time>
      </trkpt>
      <trkpt lat="43.27394" lon="-0.97197">
        <ele>228</ele>
        <time>2022-09-10T13:34:42Z</time>
      </trkpt>
      <trkpt lat="43.27402" lon="-0.97204">
        <ele>227.2</ele>
        <time>2022-09-10T13:34:43Z</time>
      </trkpt>
      <trkpt lat="43.27411" lon="-0.97209">
        <ele>226.4</ele>
        <time>2022-09-10T13:34:44Z</time>
      </trkpt>
      <trkpt lat="43.2742" lon="-0.97213">
        <ele>225.6</ele>
        <time>2022-09-10T13:34:45Z</time>
      </trkpt>
      <trkpt lat="43.27443" lon="-0.97221">
        <ele>224.2</ele>
        <time>2022-09-10T13:34:47Z</time>
      </trkpt>
      <trkpt lat="43.27465" lon="-0.97228">
        <ele>223</ele>
        <time>2022-09-10T13:34:49Z</time>
      </trkpt>
      <trkpt lat="43.27488" lon="-0.97236">
        <ele>221.6</ele>
        <time>2022-09-10T13:34:51Z</time>
      </trkpt>
      <trkpt lat="43.275" lon="-0.97239">
        <ele>220.4</ele>
        <time>2022-09-10T13:34:52Z</time>
      </trkpt>
      <trkpt lat="43.27512" lon="-0.97242">
        <ele>219.2</ele>
        <time>2022-09-10T13:34:53Z</time>
      </trkpt>
      <trkpt lat="43.27535" lon="-0.97246">
        <ele>217.4</ele>
        <time>2022-09-10T13:34:55Z</time>
      </trkpt>
      <trkpt lat="43.27558" lon="-0.9725">
        <ele>215.6</ele>
        <time>2022-09-10T13:34:57Z</time>
      </trkpt>
      <trkpt lat="43.2757" lon="-0.97254">
        <ele>214.8</ele>
        <time>2022-09-10T13:34:58Z</time>
      </trkpt>
      <trkpt lat="43.27581" lon="-0.97259">
        <ele>213.8</ele>
        <time>2022-09-10T13:34:59Z</time>
      </trkpt>
      <trkpt lat="43.27591" lon="-0.9727">
        <ele>213</ele>
        <time>2022-09-10T13:35:00Z</time>
      </trkpt>
      <trkpt lat="43.27599" lon="-0.97284">
        <ele>212.2</ele>
        <time>2022-09-10T13:35:01Z</time>
      </trkpt>
      <trkpt lat="43.27605" lon="-0.97299">
        <ele>210.8</ele>
        <time>2022-09-10T13:35:02Z</time>
      </trkpt>
      <trkpt lat="43.27616" lon="-0.9733">
        <ele>209.2</ele>
        <time>2022-09-10T13:35:04Z</time>
      </trkpt>
      <trkpt lat="43.2763" lon="-0.97359">
        <ele>207.6</ele>
        <time>2022-09-10T13:35:06Z</time>
      </trkpt>
      <trkpt lat="43.27636" lon="-0.97373">
        <ele>206.4</ele>
        <time>2022-09-10T13:35:07Z</time>
      </trkpt>
      <trkpt lat="43.27642" lon="-0.97387">
        <ele>205.2</ele>
        <time>2022-09-10T13:35:08Z</time>
      </trkpt>
      <trkpt lat="43.27647" lon="-0.97401">
        <ele>204</ele>
        <time>2022-09-10T13:35:09Z</time>
      </trkpt>
      <trkpt lat="43.27651" lon="-0.97415">
        <ele>203</ele>
        <time>2022-09-10T13:35:10Z</time>
      </trkpt>
      <trkpt lat="43.27653" lon="-0.9743">
        <ele>202.2</ele>
        <time>2022-09-10T13:35:11Z</time>
      </trkpt>
      <trkpt lat="43.27653" lon="-0.97445">
        <ele>201.4</ele>
        <time>2022-09-10T13:35:12Z</time>
      </trkpt>
      <trkpt lat="43.27651" lon="-0.9746">
        <ele>200.8</ele>
        <time>2022-09-10T13:35:13Z</time>
      </trkpt>
      <trkpt lat="43.27646" lon="-0.97475">
        <ele>200</ele>
        <time>2022-09-10T13:35:14Z</time>
      </trkpt>
      <trkpt lat="43.27642" lon="-0.9749">
        <ele>198.8</ele>
        <time>2022-09-10T13:35:15Z</time>
      </trkpt>
      <trkpt lat="43.27638" lon="-0.97504">
        <ele>197.6</ele>
        <time>2022-09-10T13:35:16Z</time>
      </trkpt>
      <trkpt lat="43.27632" lon="-0.97534">
        <ele>196</ele>
        <time>2022-09-10T13:35:18Z</time>
      </trkpt>
      <trkpt lat="43.27625" lon="-0.97563">
        <ele>193.8</ele>
        <time>2022-09-10T13:35:20Z</time>
      </trkpt>
      <trkpt lat="43.2762" lon="-0.97593">
        <ele>192.2</ele>
        <time>2022-09-10T13:35:22Z</time>
      </trkpt>
      <trkpt lat="43.27615" lon="-0.97619">
        <ele>190</ele>
        <time>2022-09-10T13:35:24Z</time>
      </trkpt>
      <trkpt lat="43.27612" lon="-0.97631">
        <ele>188.8</ele>
        <time>2022-09-10T13:35:25Z</time>
      </trkpt>
      <trkpt lat="43.2761" lon="-0.97643">
        <ele>186.8</ele>
        <time>2022-09-10T13:35:26Z</time>
      </trkpt>
      <trkpt lat="43.27608" lon="-0.97653">
        <ele>185.6</ele>
        <time>2022-09-10T13:35:27Z</time>
      </trkpt>
      <trkpt lat="43.27604" lon="-0.97671">
        <ele>184.2</ele>
        <time>2022-09-10T13:35:29Z</time>
      </trkpt>
      <trkpt lat="43.27599" lon="-0.97694">
        <ele>183</ele>
        <time>2022-09-10T13:35:32Z</time>
      </trkpt>
      <trkpt lat="43.27599" lon="-0.97702">
        <ele>182.8</ele>
        <time>2022-09-10T13:35:33Z</time>
      </trkpt>
      <trkpt lat="43.27598" lon="-0.97715">
        <ele>183</ele>
        <time>2022-09-10T13:35:35Z</time>
      </trkpt>
      <trkpt lat="43.27599" lon="-0.9772">
        <ele>183</ele>
        <time>2022-09-10T13:35:36Z</time>
      </trkpt>
      <trkpt lat="43.27602" lon="-0.97733">
        <ele>183.2</ele>
        <time>2022-09-10T13:35:39Z</time>
      </trkpt>
      <trkpt lat="43.27607" lon="-0.97755">
        <ele>183.2</ele>
        <time>2022-09-10T13:35:46Z</time>
      </trkpt>
      <trkpt lat="43.27612" lon="-0.97778">
        <ele>182.4</ele>
        <time>2022-09-10T13:35:53Z</time>
      </trkpt>
      <trkpt lat="43.27614" lon="-0.97784">
        <ele>182.2</ele>
        <time>2022-09-10T13:35:55Z</time>
      </trkpt>
      <trkpt lat="43.27612" lon="-0.97792">
        <ele>182</ele>
        <time>2022-09-10T13:35:58Z</time>
      </trkpt>
      <trkpt lat="43.27612" lon="-0.97795">
        <ele>182</ele>
        <time>2022-09-10T13:35:59Z</time>
      </trkpt>
      <trkpt lat="43.27609" lon="-0.97803">
        <ele>182</ele>
        <time>2022-09-10T13:36:03Z</time>
      </trkpt>
      <trkpt lat="43.27609" lon="-0.97804">
        <ele>182</ele>
        <time>2022-09-10T13:36:04Z</time>
      </trkpt>
      <trkpt lat="43.27606" lon="-0.97804">
        <ele>182</ele>
        <time>2022-09-10T13:36:07Z</time>
      </trkpt>
      <trkpt lat="43.27602" lon="-0.97801">
        <ele>182</ele>
        <time>2022-09-10T13:36:10Z</time>
      </trkpt>
      <trkpt lat="43.27603" lon="-0.97793">
        <ele>182</ele>
        <time>2022-09-10T13:36:13Z</time>
      </trkpt>
      <trkpt lat="43.27604" lon="-0.97788">
        <ele>182</ele>
        <time>2022-09-10T13:36:15Z</time>
      </trkpt>
      <trkpt lat="43.27608" lon="-0.97791">
        <ele>182.8</ele>
        <time>2022-09-10T13:48:11Z</time>
      </trkpt>
      <trkpt lat="43.27607" lon="-0.97785">
        <ele>183</ele>
        <time>2022-09-10T13:48:13Z</time>
      </trkpt>
      <trkpt lat="43.27606" lon="-0.97776">
        <ele>183.4</ele>
        <time>2022-09-10T13:48:16Z</time>
      </trkpt>
      <trkpt lat="43.27606" lon="-0.97764">
        <ele>184</ele>
        <time>2022-09-10T13:48:20Z</time>
      </trkpt>
      <trkpt lat="43.27603" lon="-0.97752">
        <ele>184.4</ele>
        <time>2022-09-10T13:48:24Z</time>
      </trkpt>
      <trkpt lat="43.27599" lon="-0.97736">
        <ele>184.6</ele>
        <time>2022-09-10T13:48:31Z</time>
      </trkpt>
      <trkpt lat="43.27593" lon="-0.9772">
        <ele>184.6</ele>
        <time>2022-09-10T13:48:39Z</time>
      </trkpt>
      <trkpt lat="43.27591" lon="-0.97698">
        <ele>184</ele>
        <time>2022-09-10T13:48:45Z</time>
      </trkpt>
      <trkpt lat="43.27582" lon="-0.97685">
        <ele>183.2</ele>
        <time>2022-09-10T13:48:50Z</time>
      </trkpt>
      <trkpt lat="43.27573" lon="-0.9768">
        <ele>182.6</ele>
        <time>2022-09-10T13:48:52Z</time>
      </trkpt>
      <trkpt lat="43.27561" lon="-0.97674">
        <ele>181.8</ele>
        <time>2022-09-10T13:48:54Z</time>
      </trkpt>
      <trkpt lat="43.27555" lon="-0.9767">
        <ele>181.4</ele>
        <time>2022-09-10T13:48:55Z</time>
      </trkpt>
      <trkpt lat="43.27549" lon="-0.97665">
        <ele>181</ele>
        <time>2022-09-10T13:48:56Z</time>
      </trkpt>
      <trkpt lat="43.27537" lon="-0.9765">
        <ele>180.6</ele>
        <time>2022-09-10T13:48:58Z</time>
      </trkpt>
      <trkpt lat="43.27531" lon="-0.97641">
        <ele>180.4</ele>
        <time>2022-09-10T13:48:59Z</time>
      </trkpt>
      <trkpt lat="43.27519" lon="-0.97624">
        <ele>179.2</ele>
        <time>2022-09-10T13:49:01Z</time>
      </trkpt>
      <trkpt lat="43.27512" lon="-0.97616">
        <ele>178.8</ele>
        <time>2022-09-10T13:49:02Z</time>
      </trkpt>
      <trkpt lat="43.27504" lon="-0.9761">
        <ele>178</ele>
        <time>2022-09-10T13:49:03Z</time>
      </trkpt>
      <trkpt lat="43.27489" lon="-0.97608">
        <ele>178.4</ele>
        <time>2022-09-10T13:49:05Z</time>
      </trkpt>
      <trkpt lat="43.27477" lon="-0.97612">
        <ele>179.2</ele>
        <time>2022-09-10T13:49:07Z</time>
      </trkpt>
      <trkpt lat="43.27473" lon="-0.97613">
        <ele>179.2</ele>
        <time>2022-09-10T13:49:08Z</time>
      </trkpt>
      <trkpt lat="43.27461" lon="-0.97617">
        <ele>180.4</ele>
        <time>2022-09-10T13:49:12Z</time>
      </trkpt>
      <trkpt lat="43.27458" lon="-0.97618">
        <ele>180.6</ele>
        <time>2022-09-10T13:49:13Z</time>
      </trkpt>
      <trkpt lat="43.27444" lon="-0.9762">
        <ele>181.4</ele>
        <time>2022-09-10T13:49:18Z</time>
      </trkpt>
      <trkpt lat="43.27441" lon="-0.9762">
        <ele>181.6</ele>
        <time>2022-09-10T13:49:19Z</time>
      </trkpt>
      <trkpt lat="43.27428" lon="-0.97622">
        <ele>182.4</ele>
        <time>2022-09-10T13:49:24Z</time>
      </trkpt>
      <trkpt lat="43.27423" lon="-0.97622">
        <ele>182.6</ele>
        <time>2022-09-10T13:49:26Z</time>
      </trkpt>
      <trkpt lat="43.27412" lon="-0.97627">
        <ele>183.6</ele>
        <time>2022-09-10T13:49:32Z</time>
      </trkpt>
      <trkpt lat="43.27394" lon="-0.97633">
        <ele>184.4</ele>
        <time>2022-09-10T13:49:41Z</time>
      </trkpt>
      <trkpt lat="43.27392" lon="-0.97634">
        <ele>184.6</ele>
        <time>2022-09-10T13:49:42Z</time>
      </trkpt>
      <trkpt lat="43.27382" lon="-0.97639">
        <ele>185.6</ele>
        <time>2022-09-10T13:49:47Z</time>
      </trkpt>
      <trkpt lat="43.27379" lon="-0.9764">
        <ele>186</ele>
        <time>2022-09-10T13:49:49Z</time>
      </trkpt>
      <trkpt lat="43.27371" lon="-0.97642">
        <ele>186.6</ele>
        <time>2022-09-10T13:49:53Z</time>
      </trkpt>
      <trkpt lat="43.27368" lon="-0.97645">
        <ele>187</ele>
        <time>2022-09-10T13:49:55Z</time>
      </trkpt>
      <trkpt lat="43.27359" lon="-0.97649">
        <ele>187.6</ele>
        <time>2022-09-10T13:50:00Z</time>
      </trkpt>
      <trkpt lat="43.27357" lon="-0.97649">
        <ele>187.8</ele>
        <time>2022-09-10T13:50:01Z</time>
      </trkpt>
      <trkpt lat="43.27343" lon="-0.97652">
        <ele>188.6</ele>
        <time>2022-09-10T13:50:08Z</time>
      </trkpt>
      <trkpt lat="43.27339" lon="-0.97652">
        <ele>188.8</ele>
        <time>2022-09-10T13:50:10Z</time>
      </trkpt>
      <trkpt lat="43.27329" lon="-0.97651">
        <ele>189.4</ele>
        <time>2022-09-10T13:50:15Z</time>
      </trkpt>
      <trkpt lat="43.2732" lon="-0.9765">
        <ele>189.8</ele>
        <time>2022-09-10T13:50:19Z</time>
      </trkpt>
      <trkpt lat="43.27309" lon="-0.97647">
        <ele>190.2</ele>
        <time>2022-09-10T13:50:24Z</time>
      </trkpt>
      <trkpt lat="43.27289" lon="-0.97641">
        <ele>191</ele>
        <time>2022-09-10T13:50:32Z</time>
      </trkpt>
      <trkpt lat="43.27269" lon="-0.97633">
        <ele>191.6</ele>
        <time>2022-09-10T13:50:40Z</time>
      </trkpt>
      <trkpt lat="43.27243" lon="-0.97629">
        <ele>192</ele>
        <time>2022-09-10T13:50:49Z</time>
      </trkpt>
      <trkpt lat="43.27221" lon="-0.97629">
        <ele>192.4</ele>
        <time>2022-09-10T13:50:57Z</time>
      </trkpt>
      <trkpt lat="43.27205" lon="-0.9763">
        <ele>192.6</ele>
        <time>2022-09-10T13:51:04Z</time>
      </trkpt>
      <trkpt lat="43.27203" lon="-0.97631">
        <ele>192.6</ele>
        <time>2022-09-10T13:51:05Z</time>
      </trkpt>
      <trkpt lat="43.27185" lon="-0.97633">
        <ele>192</ele>
        <time>2022-09-10T13:51:11Z</time>
      </trkpt>
      <trkpt lat="43.27176" lon="-0.9763">
        <ele>191.6</ele>
        <time>2022-09-10T13:51:13Z</time>
      </trkpt>
      <trkpt lat="43.2716" lon="-0.97623">
        <ele>190.8</ele>
        <time>2022-09-10T13:51:16Z</time>
      </trkpt>
      <trkpt lat="43.27135" lon="-0.97611">
        <ele>189.8</ele>
        <time>2022-09-10T13:51:20Z</time>
      </trkpt>
      <trkpt lat="43.2712" lon="-0.97605">
        <ele>189.2</ele>
        <time>2022-09-10T13:51:22Z</time>
      </trkpt>
      <trkpt lat="43.27113" lon="-0.97602">
        <ele>188.8</ele>
        <time>2022-09-10T13:51:23Z</time>
      </trkpt>
      <trkpt lat="43.27083" lon="-0.97593">
        <ele>187</ele>
        <time>2022-09-10T13:51:27Z</time>
      </trkpt>
      <trkpt lat="43.27076" lon="-0.97593">
        <ele>186.6</ele>
        <time>2022-09-10T13:51:28Z</time>
      </trkpt>
      <trkpt lat="43.27062" lon="-0.97598">
        <ele>186</ele>
        <time>2022-09-10T13:51:30Z</time>
      </trkpt>
      <trkpt lat="43.27055" lon="-0.97601">
        <ele>185.4</ele>
        <time>2022-09-10T13:51:31Z</time>
      </trkpt>
      <trkpt lat="43.27047" lon="-0.97605">
        <ele>184.8</ele>
        <time>2022-09-10T13:51:32Z</time>
      </trkpt>
      <trkpt lat="43.27032" lon="-0.97613">
        <ele>183.6</ele>
        <time>2022-09-10T13:51:34Z</time>
      </trkpt>
      <trkpt lat="43.27017" lon="-0.97622">
        <ele>182</ele>
        <time>2022-09-10T13:51:36Z</time>
      </trkpt>
      <trkpt lat="43.2701" lon="-0.97628">
        <ele>181.2</ele>
        <time>2022-09-10T13:51:37Z</time>
      </trkpt>
      <trkpt lat="43.27003" lon="-0.97635">
        <ele>180.4</ele>
        <time>2022-09-10T13:51:38Z</time>
      </trkpt>
      <trkpt lat="43.26991" lon="-0.97651">
        <ele>179.2</ele>
        <time>2022-09-10T13:51:40Z</time>
      </trkpt>
      <trkpt lat="43.2698" lon="-0.97669">
        <ele>178</ele>
        <time>2022-09-10T13:51:42Z</time>
      </trkpt>
      <trkpt lat="43.26968" lon="-0.97691">
        <ele>176.4</ele>
        <time>2022-09-10T13:51:44Z</time>
      </trkpt>
      <trkpt lat="43.26956" lon="-0.97715">
        <ele>174.8</ele>
        <time>2022-09-10T13:51:46Z</time>
      </trkpt>
      <trkpt lat="43.2694" lon="-0.97737">
        <ele>173.8</ele>
        <time>2022-09-10T13:51:48Z</time>
      </trkpt>
      <trkpt lat="43.26931" lon="-0.97747">
        <ele>173.2</ele>
        <time>2022-09-10T13:51:49Z</time>
      </trkpt>
      <trkpt lat="43.26922" lon="-0.97755">
        <ele>172.4</ele>
        <time>2022-09-10T13:51:50Z</time>
      </trkpt>
      <trkpt lat="43.26911" lon="-0.9776">
        <ele>170.6</ele>
        <time>2022-09-10T13:51:51Z</time>
      </trkpt>
      <trkpt lat="43.269" lon="-0.97763">
        <ele>170</ele>
        <time>2022-09-10T13:51:52Z</time>
      </trkpt>
      <trkpt lat="43.26889" lon="-0.97764">
        <ele>169.4</ele>
        <time>2022-09-10T13:51:53Z</time>
      </trkpt>
      <trkpt lat="43.26878" lon="-0.97764">
        <ele>168.8</ele>
        <time>2022-09-10T13:51:54Z</time>
      </trkpt>
      <trkpt lat="43.26867" lon="-0.97763">
        <ele>168.4</ele>
        <time>2022-09-10T13:51:55Z</time>
      </trkpt>
      <trkpt lat="43.26845" lon="-0.97762">
        <ele>167</ele>
        <time>2022-09-10T13:51:57Z</time>
      </trkpt>
      <trkpt lat="43.26824" lon="-0.97762">
        <ele>165.6</ele>
        <time>2022-09-10T13:51:59Z</time>
      </trkpt>
      <trkpt lat="43.26813" lon="-0.97764">
        <ele>165</ele>
        <time>2022-09-10T13:52:00Z</time>
      </trkpt>
      <trkpt lat="43.26792" lon="-0.9777">
        <ele>164.2</ele>
        <time>2022-09-10T13:52:02Z</time>
      </trkpt>
      <trkpt lat="43.2677" lon="-0.97777">
        <ele>163.6</ele>
        <time>2022-09-10T13:52:04Z</time>
      </trkpt>
      <trkpt lat="43.2675" lon="-0.97786">
        <ele>162.6</ele>
        <time>2022-09-10T13:52:06Z</time>
      </trkpt>
      <trkpt lat="43.26731" lon="-0.97799">
        <ele>161.8</ele>
        <time>2022-09-10T13:52:08Z</time>
      </trkpt>
      <trkpt lat="43.26723" lon="-0.97806">
        <ele>161.6</ele>
        <time>2022-09-10T13:52:09Z</time>
      </trkpt>
      <trkpt lat="43.26688" lon="-0.9785">
        <ele>160.6</ele>
        <time>2022-09-10T13:52:14Z</time>
      </trkpt>
      <trkpt lat="43.26681" lon="-0.97859">
        <ele>159.8</ele>
        <time>2022-09-10T13:52:15Z</time>
      </trkpt>
      <trkpt lat="43.26662" lon="-0.97887">
        <ele>158.4</ele>
        <time>2022-09-10T13:52:18Z</time>
      </trkpt>
      <trkpt lat="43.26648" lon="-0.97903">
        <ele>158.2</ele>
        <time>2022-09-10T13:52:20Z</time>
      </trkpt>
      <trkpt lat="43.26618" lon="-0.97926">
        <ele>158.2</ele>
        <time>2022-09-10T13:52:24Z</time>
      </trkpt>
      <trkpt lat="43.2659" lon="-0.97947">
        <ele>157.4</ele>
        <time>2022-09-10T13:52:28Z</time>
      </trkpt>
      <trkpt lat="43.26576" lon="-0.97959">
        <ele>156.6</ele>
        <time>2022-09-10T13:52:30Z</time>
      </trkpt>
      <trkpt lat="43.26569" lon="-0.97965">
        <ele>156.2</ele>
        <time>2022-09-10T13:52:31Z</time>
      </trkpt>
      <trkpt lat="43.26549" lon="-0.97987">
        <ele>155.6</ele>
        <time>2022-09-10T13:52:34Z</time>
      </trkpt>
      <trkpt lat="43.26543" lon="-0.97996">
        <ele>155.4</ele>
        <time>2022-09-10T13:52:35Z</time>
      </trkpt>
      <trkpt lat="43.26536" lon="-0.98004">
        <ele>155.2</ele>
        <time>2022-09-10T13:52:36Z</time>
      </trkpt>
      <trkpt lat="43.26524" lon="-0.98023">
        <ele>154</ele>
        <time>2022-09-10T13:52:38Z</time>
      </trkpt>
      <trkpt lat="43.26511" lon="-0.98041">
        <ele>152.8</ele>
        <time>2022-09-10T13:52:40Z</time>
      </trkpt>
      <trkpt lat="43.26504" lon="-0.9805">
        <ele>152.2</ele>
        <time>2022-09-10T13:52:41Z</time>
      </trkpt>
      <trkpt lat="43.26491" lon="-0.98069">
        <ele>151.4</ele>
        <time>2022-09-10T13:52:43Z</time>
      </trkpt>
      <trkpt lat="43.26478" lon="-0.9809">
        <ele>150.4</ele>
        <time>2022-09-10T13:52:45Z</time>
      </trkpt>
      <trkpt lat="43.26464" lon="-0.98112">
        <ele>149.4</ele>
        <time>2022-09-10T13:52:47Z</time>
      </trkpt>
      <trkpt lat="43.26458" lon="-0.98122">
        <ele>148.8</ele>
        <time>2022-09-10T13:52:48Z</time>
      </trkpt>
      <trkpt lat="43.26444" lon="-0.98142">
        <ele>148.4</ele>
        <time>2022-09-10T13:52:50Z</time>
      </trkpt>
      <trkpt lat="43.26421" lon="-0.98184">
        <ele>147.6</ele>
        <time>2022-09-10T13:52:54Z</time>
      </trkpt>
      <trkpt lat="43.26411" lon="-0.98207">
        <ele>147.2</ele>
        <time>2022-09-10T13:52:56Z</time>
      </trkpt>
      <trkpt lat="43.26408" lon="-0.98219">
        <ele>146.6</ele>
        <time>2022-09-10T13:52:57Z</time>
      </trkpt>
      <trkpt lat="43.26405" lon="-0.98232">
        <ele>146</ele>
        <time>2022-09-10T13:52:58Z</time>
      </trkpt>
      <trkpt lat="43.26398" lon="-0.98271">
        <ele>144.6</ele>
        <time>2022-09-10T13:53:01Z</time>
      </trkpt>
      <trkpt lat="43.26395" lon="-0.98296">
        <ele>143.6</ele>
        <time>2022-09-10T13:53:03Z</time>
      </trkpt>
      <trkpt lat="43.26391" lon="-0.98321">
        <ele>143.2</ele>
        <time>2022-09-10T13:53:05Z</time>
      </trkpt>
      <trkpt lat="43.26384" lon="-0.98343">
        <ele>142.8</ele>
        <time>2022-09-10T13:53:07Z</time>
      </trkpt>
      <trkpt lat="43.26379" lon="-0.98353">
        <ele>142.6</ele>
        <time>2022-09-10T13:53:08Z</time>
      </trkpt>
      <trkpt lat="43.26374" lon="-0.98363">
        <ele>142.4</ele>
        <time>2022-09-10T13:53:09Z</time>
      </trkpt>
      <trkpt lat="43.26347" lon="-0.9839">
        <ele>141.6</ele>
        <time>2022-09-10T13:53:13Z</time>
      </trkpt>
      <trkpt lat="43.26339" lon="-0.98393">
        <ele>141.6</ele>
        <time>2022-09-10T13:53:14Z</time>
      </trkpt>
      <trkpt lat="43.26324" lon="-0.984">
        <ele>141.4</ele>
        <time>2022-09-10T13:53:16Z</time>
      </trkpt>
      <trkpt lat="43.26317" lon="-0.98405">
        <ele>141</ele>
        <time>2022-09-10T13:53:17Z</time>
      </trkpt>
      <trkpt lat="43.2631" lon="-0.9841">
        <ele>140.8</ele>
        <time>2022-09-10T13:53:18Z</time>
      </trkpt>
      <trkpt lat="43.26297" lon="-0.98423">
        <ele>140.4</ele>
        <time>2022-09-10T13:53:20Z</time>
      </trkpt>
      <trkpt lat="43.26292" lon="-0.9843">
        <ele>140.4</ele>
        <time>2022-09-10T13:53:21Z</time>
      </trkpt>
      <trkpt lat="43.26281" lon="-0.98445">
        <ele>140</ele>
        <time>2022-09-10T13:53:23Z</time>
      </trkpt>
      <trkpt lat="43.26268" lon="-0.98461">
        <ele>139.2</ele>
        <time>2022-09-10T13:53:25Z</time>
      </trkpt>
      <trkpt lat="43.26262" lon="-0.9847">
        <ele>138.8</ele>
        <time>2022-09-10T13:53:26Z</time>
      </trkpt>
      <trkpt lat="43.26256" lon="-0.98479">
        <ele>137.6</ele>
        <time>2022-09-10T13:53:27Z</time>
      </trkpt>
      <trkpt lat="43.26244" lon="-0.985">
        <ele>136.4</ele>
        <time>2022-09-10T13:53:29Z</time>
      </trkpt>
      <trkpt lat="43.26237" lon="-0.9851">
        <ele>135.8</ele>
        <time>2022-09-10T13:53:30Z</time>
      </trkpt>
      <trkpt lat="43.26229" lon="-0.98518">
        <ele>135.4</ele>
        <time>2022-09-10T13:53:31Z</time>
      </trkpt>
      <trkpt lat="43.26221" lon="-0.98526">
        <ele>135</ele>
        <time>2022-09-10T13:53:32Z</time>
      </trkpt>
      <trkpt lat="43.26208" lon="-0.98542">
        <ele>134.8</ele>
        <time>2022-09-10T13:53:34Z</time>
      </trkpt>
      <trkpt lat="43.26203" lon="-0.98551">
        <ele>135</ele>
        <time>2022-09-10T13:53:35Z</time>
      </trkpt>
      <trkpt lat="43.2619" lon="-0.98581">
        <ele>136.2</ele>
        <time>2022-09-10T13:53:39Z</time>
      </trkpt>
      <trkpt lat="43.2618" lon="-0.98597">
        <ele>137.2</ele>
        <time>2022-09-10T13:53:42Z</time>
      </trkpt>
      <trkpt lat="43.26176" lon="-0.98602">
        <ele>137.4</ele>
        <time>2022-09-10T13:53:43Z</time>
      </trkpt>
      <trkpt lat="43.26172" lon="-0.98605">
        <ele>137.4</ele>
        <time>2022-09-10T13:53:44Z</time>
      </trkpt>
      <trkpt lat="43.26158" lon="-0.98614">
        <ele>137.6</ele>
        <time>2022-09-10T13:53:47Z</time>
      </trkpt>
      <trkpt lat="43.2614" lon="-0.98623">
        <ele>137.6</ele>
        <time>2022-09-10T13:53:51Z</time>
      </trkpt>
      <trkpt lat="43.26136" lon="-0.98625">
        <ele>137.6</ele>
        <time>2022-09-10T13:53:52Z</time>
      </trkpt>
      <trkpt lat="43.26103" lon="-0.98638">
        <ele>137.2</ele>
        <time>2022-09-10T13:53:59Z</time>
      </trkpt>
      <trkpt lat="43.26091" lon="-0.9864">
        <ele>136.8</ele>
        <time>2022-09-10T13:54:01Z</time>
      </trkpt>
      <trkpt lat="43.26071" lon="-0.98639">
        <ele>136</ele>
        <time>2022-09-10T13:54:04Z</time>
      </trkpt>
      <trkpt lat="43.26058" lon="-0.98634">
        <ele>135.6</ele>
        <time>2022-09-10T13:54:06Z</time>
      </trkpt>
      <trkpt lat="43.26052" lon="-0.98631">
        <ele>135.6</ele>
        <time>2022-09-10T13:54:07Z</time>
      </trkpt>
      <trkpt lat="43.26041" lon="-0.98622">
        <ele>135</ele>
        <time>2022-09-10T13:54:09Z</time>
      </trkpt>
      <trkpt lat="43.26027" lon="-0.98605">
        <ele>135.2</ele>
        <time>2022-09-10T13:54:12Z</time>
      </trkpt>
      <trkpt lat="43.26024" lon="-0.986">
        <ele>135.2</ele>
        <time>2022-09-10T13:54:13Z</time>
      </trkpt>
      <trkpt lat="43.26006" lon="-0.98576">
        <ele>135.6</ele>
        <time>2022-09-10T13:54:18Z</time>
      </trkpt>
      <trkpt lat="43.25999" lon="-0.98568">
        <ele>135.6</ele>
        <time>2022-09-10T13:54:20Z</time>
      </trkpt>
      <trkpt lat="43.25993" lon="-0.9856">
        <ele>135.8</ele>
        <time>2022-09-10T13:54:22Z</time>
      </trkpt>
      <trkpt lat="43.2599" lon="-0.98556">
        <ele>136</ele>
        <time>2022-09-10T13:54:23Z</time>
      </trkpt>
      <trkpt lat="43.25981" lon="-0.98542">
        <ele>136.4</ele>
        <time>2022-09-10T13:54:26Z</time>
      </trkpt>
      <trkpt lat="43.25969" lon="-0.98522">
        <ele>136.6</ele>
        <time>2022-09-10T13:54:31Z</time>
      </trkpt>
      <trkpt lat="43.25958" lon="-0.98512">
        <ele>136.8</ele>
        <time>2022-09-10T13:54:35Z</time>
      </trkpt>
      <trkpt lat="43.25955" lon="-0.98513">
        <ele>137</ele>
        <time>2022-09-10T13:54:36Z</time>
      </trkpt>
      <trkpt lat="43.25952" lon="-0.98514">
        <ele>137</ele>
        <time>2022-09-10T13:54:37Z</time>
      </trkpt>
      <trkpt lat="43.25945" lon="-0.98519">
        <ele>137</ele>
        <time>2022-09-10T13:54:39Z</time>
      </trkpt>
      <trkpt lat="43.25938" lon="-0.98523">
        <ele>137</ele>
        <time>2022-09-10T13:54:41Z</time>
      </trkpt>
      <trkpt lat="43.25897" lon="-0.98551">
        <ele>137.6</ele>
        <time>2022-09-10T13:54:52Z</time>
      </trkpt>
      <trkpt lat="43.25887" lon="-0.98558">
        <ele>138.2</ele>
        <time>2022-09-10T13:54:55Z</time>
      </trkpt>
      <trkpt lat="43.25875" lon="-0.98568">
        <ele>138.6</ele>
        <time>2022-09-10T13:54:59Z</time>
      </trkpt>
      <trkpt lat="43.25868" lon="-0.98575">
        <ele>139.2</ele>
        <time>2022-09-10T13:55:02Z</time>
      </trkpt>
      <trkpt lat="43.25859" lon="-0.98589">
        <ele>139.6</ele>
        <time>2022-09-10T13:55:07Z</time>
      </trkpt>
      <trkpt lat="43.25847" lon="-0.98612">
        <ele>140.2</ele>
        <time>2022-09-10T13:55:14Z</time>
      </trkpt>
      <trkpt lat="43.25845" lon="-0.98615">
        <ele>140.4</ele>
        <time>2022-09-10T13:55:15Z</time>
      </trkpt>
      <trkpt lat="43.25832" lon="-0.98642">
        <ele>141.4</ele>
        <time>2022-09-10T13:55:23Z</time>
      </trkpt>
      <trkpt lat="43.25822" lon="-0.98665">
        <ele>142</ele>
        <time>2022-09-10T13:55:30Z</time>
      </trkpt>
      <trkpt lat="43.25811" lon="-0.98689">
        <ele>142.2</ele>
        <time>2022-09-10T13:55:37Z</time>
      </trkpt>
      <trkpt lat="43.25797" lon="-0.98717">
        <ele>141.4</ele>
        <time>2022-09-10T13:55:43Z</time>
      </trkpt>
      <trkpt lat="43.25788" lon="-0.98745">
        <ele>140.6</ele>
        <time>2022-09-10T13:55:47Z</time>
      </trkpt>
      <trkpt lat="43.25786" lon="-0.98754">
        <ele>140.2</ele>
        <time>2022-09-10T13:55:48Z</time>
      </trkpt>
      <trkpt lat="43.25789" lon="-0.98786">
        <ele>139</ele>
        <time>2022-09-10T13:55:51Z</time>
      </trkpt>
      <trkpt lat="43.25802" lon="-0.98816">
        <ele>138</ele>
        <time>2022-09-10T13:55:54Z</time>
      </trkpt>
      <trkpt lat="43.25806" lon="-0.98825">
        <ele>137.6</ele>
        <time>2022-09-10T13:55:55Z</time>
      </trkpt>
      <trkpt lat="43.2581" lon="-0.98835">
        <ele>137</ele>
        <time>2022-09-10T13:55:56Z</time>
      </trkpt>
      <trkpt lat="43.25815" lon="-0.98856">
        <ele>136.6</ele>
        <time>2022-09-10T13:55:58Z</time>
      </trkpt>
      <trkpt lat="43.2581" lon="-0.98874">
        <ele>136.4</ele>
        <time>2022-09-10T13:56:00Z</time>
      </trkpt>
      <trkpt lat="43.25794" lon="-0.98892">
        <ele>136.8</ele>
        <time>2022-09-10T13:56:03Z</time>
      </trkpt>
      <trkpt lat="43.25773" lon="-0.98914">
        <ele>137.8</ele>
        <time>2022-09-10T13:56:08Z</time>
      </trkpt>
      <trkpt lat="43.2577" lon="-0.98918">
        <ele>138</ele>
        <time>2022-09-10T13:56:09Z</time>
      </trkpt>
      <trkpt lat="43.25759" lon="-0.98928">
        <ele>138.8</ele>
        <time>2022-09-10T13:56:13Z</time>
      </trkpt>
      <trkpt lat="43.25755" lon="-0.98933">
        <ele>139</ele>
        <time>2022-09-10T13:56:15Z</time>
      </trkpt>
      <trkpt lat="43.2575" lon="-0.9894">
        <ele>140</ele>
        <time>2022-09-10T13:56:18Z</time>
      </trkpt>
      <trkpt lat="43.25747" lon="-0.98945">
        <ele>140.6</ele>
        <time>2022-09-10T13:56:21Z</time>
      </trkpt>
      <trkpt lat="43.25748" lon="-0.98946">
        <ele>141.2</ele>
        <time>2022-09-10T13:56:24Z</time>
      </trkpt>
      <trkpt lat="43.25746" lon="-0.9895">
        <ele>141.6</ele>
        <time>2022-09-10T13:56:34Z</time>
      </trkpt>
      <trkpt lat="43.25743" lon="-0.98952">
        <ele>141.8</ele>
        <time>2022-09-10T13:56:36Z</time>
      </trkpt>
      <trkpt lat="43.25732" lon="-0.98959">
        <ele>142.2</ele>
        <time>2022-09-10T13:56:41Z</time>
      </trkpt>
      <trkpt lat="43.25714" lon="-0.98964">
        <ele>142.4</ele>
        <time>2022-09-10T13:56:48Z</time>
      </trkpt>
      <trkpt lat="43.25686" lon="-0.98971">
        <ele>142.2</ele>
        <time>2022-09-10T13:56:56Z</time>
      </trkpt>
      <trkpt lat="43.25655" lon="-0.98975">
        <ele>142.6</ele>
        <time>2022-09-10T13:57:04Z</time>
      </trkpt>
      <trkpt lat="43.25623" lon="-0.98976">
        <ele>143.2</ele>
        <time>2022-09-10T13:57:12Z</time>
      </trkpt>
      <trkpt lat="43.25615" lon="-0.98976">
        <ele>143.4</ele>
        <time>2022-09-10T13:57:14Z</time>
      </trkpt>
      <trkpt lat="43.25589" lon="-0.98975">
        <ele>144.4</ele>
        <time>2022-09-10T13:57:21Z</time>
      </trkpt>
      <trkpt lat="43.25586" lon="-0.98974">
        <ele>144.4</ele>
        <time>2022-09-10T13:57:22Z</time>
      </trkpt>
      <trkpt lat="43.2557" lon="-0.98974">
        <ele>145.4</ele>
        <time>2022-09-10T13:57:27Z</time>
      </trkpt>
      <trkpt lat="43.25563" lon="-0.98974">
        <ele>145.8</ele>
        <time>2022-09-10T13:57:29Z</time>
      </trkpt>
      <trkpt lat="43.25537" lon="-0.98971">
        <ele>146</ele>
        <time>2022-09-10T13:57:37Z</time>
      </trkpt>
      <trkpt lat="43.25508" lon="-0.98967">
        <ele>145.4</ele>
        <time>2022-09-10T13:57:44Z</time>
      </trkpt>
      <trkpt lat="43.25496" lon="-0.98963">
        <ele>144.8</ele>
        <time>2022-09-10T13:57:46Z</time>
      </trkpt>
      <trkpt lat="43.25485" lon="-0.98954">
        <ele>144.4</ele>
        <time>2022-09-10T13:57:48Z</time>
      </trkpt>
      <trkpt lat="43.25481" lon="-0.98948">
        <ele>144</ele>
        <time>2022-09-10T13:57:49Z</time>
      </trkpt>
      <trkpt lat="43.25471" lon="-0.98927">
        <ele>144.2</ele>
        <time>2022-09-10T13:57:52Z</time>
      </trkpt>
      <trkpt lat="43.25464" lon="-0.98917">
        <ele>144.2</ele>
        <time>2022-09-10T13:57:54Z</time>
      </trkpt>
      <trkpt lat="43.25451" lon="-0.98903">
        <ele>144.6</ele>
        <time>2022-09-10T13:57:57Z</time>
      </trkpt>
      <trkpt lat="43.25447" lon="-0.989">
        <ele>144.6</ele>
        <time>2022-09-10T13:57:58Z</time>
      </trkpt>
      <trkpt lat="43.25424" lon="-0.98885">
        <ele>144.8</ele>
        <time>2022-09-10T13:58:03Z</time>
      </trkpt>
      <trkpt lat="43.25391" lon="-0.98868">
        <ele>145</ele>
        <time>2022-09-10T13:58:10Z</time>
      </trkpt>
      <trkpt lat="43.25369" lon="-0.98862">
        <ele>145.2</ele>
        <time>2022-09-10T13:58:16Z</time>
      </trkpt>
      <trkpt lat="43.25364" lon="-0.98864">
        <ele>145.4</ele>
        <time>2022-09-10T13:58:17Z</time>
      </trkpt>
      <trkpt lat="43.25345" lon="-0.98875">
        <ele>145.4</ele>
        <time>2022-09-10T13:58:21Z</time>
      </trkpt>
      <trkpt lat="43.25341" lon="-0.98879">
        <ele>145.4</ele>
        <time>2022-09-10T13:58:22Z</time>
      </trkpt>
      <trkpt lat="43.25307" lon="-0.98913">
        <ele>146</ele>
        <time>2022-09-10T13:58:31Z</time>
      </trkpt>
      <trkpt lat="43.25299" lon="-0.9892">
        <ele>146</ele>
        <time>2022-09-10T13:58:33Z</time>
      </trkpt>
      <trkpt lat="43.25277" lon="-0.98937">
        <ele>146.8</ele>
        <time>2022-09-10T13:58:39Z</time>
      </trkpt>
      <trkpt lat="43.25269" lon="-0.98939">
        <ele>146.8</ele>
        <time>2022-09-10T13:58:41Z</time>
      </trkpt>
      <trkpt lat="43.25256" lon="-0.98939">
        <ele>147.2</ele>
        <time>2022-09-10T13:58:44Z</time>
      </trkpt>
      <trkpt lat="43.25252" lon="-0.98938">
        <ele>147.4</ele>
        <time>2022-09-10T13:58:45Z</time>
      </trkpt>
      <trkpt lat="43.25242" lon="-0.98933">
        <ele>148</ele>
        <time>2022-09-10T13:58:48Z</time>
      </trkpt>
      <trkpt lat="43.25232" lon="-0.98926">
        <ele>148</ele>
        <time>2022-09-10T13:58:51Z</time>
      </trkpt>
      <trkpt lat="43.2521" lon="-0.98909">
        <ele>148</ele>
        <time>2022-09-10T13:58:57Z</time>
      </trkpt>
      <trkpt lat="43.25186" lon="-0.9889">
        <ele>147.2</ele>
        <time>2022-09-10T13:59:02Z</time>
      </trkpt>
      <trkpt lat="43.2518" lon="-0.98885">
        <ele>147</ele>
        <time>2022-09-10T13:59:03Z</time>
      </trkpt>
      <trkpt lat="43.25165" lon="-0.98869">
        <ele>146.2</ele>
        <time>2022-09-10T13:59:06Z</time>
      </trkpt>
      <trkpt lat="43.2516" lon="-0.98862">
        <ele>146</ele>
        <time>2022-09-10T13:59:07Z</time>
      </trkpt>
      <trkpt lat="43.25146" lon="-0.98836">
        <ele>145.2</ele>
        <time>2022-09-10T13:59:11Z</time>
      </trkpt>
      <trkpt lat="43.25127" lon="-0.98824">
        <ele>145.8</ele>
        <time>2022-09-10T13:59:15Z</time>
      </trkpt>
      <trkpt lat="43.25113" lon="-0.98831">
        <ele>146.2</ele>
        <time>2022-09-10T13:59:18Z</time>
      </trkpt>
      <trkpt lat="43.25109" lon="-0.98834">
        <ele>146.4</ele>
        <time>2022-09-10T13:59:19Z</time>
      </trkpt>
      <trkpt lat="43.25077" lon="-0.98864">
        <ele>145.8</ele>
        <time>2022-09-10T13:59:26Z</time>
      </trkpt>
      <trkpt lat="43.25032" lon="-0.98908">
        <ele>145.4</ele>
        <time>2022-09-10T13:59:36Z</time>
      </trkpt>
      <trkpt lat="43.25006" lon="-0.98932">
        <ele>145.6</ele>
        <time>2022-09-10T13:59:42Z</time>
      </trkpt>
      <trkpt lat="43.24963" lon="-0.98973">
        <ele>146</ele>
        <time>2022-09-10T13:59:52Z</time>
      </trkpt>
      <trkpt lat="43.2494" lon="-0.98994">
        <ele>146</ele>
        <time>2022-09-10T13:59:58Z</time>
      </trkpt>
      <trkpt lat="43.24932" lon="-0.99002">
        <ele>146</ele>
        <time>2022-09-10T14:00:00Z</time>
      </trkpt>
      <trkpt lat="43.24894" lon="-0.99044">
        <ele>146</ele>
        <time>2022-09-10T14:00:09Z</time>
      </trkpt>
      <trkpt lat="43.24868" lon="-0.99077">
        <ele>146</ele>
        <time>2022-09-10T14:00:16Z</time>
      </trkpt>
      <trkpt lat="43.24855" lon="-0.99087">
        <ele>146.2</ele>
        <time>2022-09-10T14:00:19Z</time>
      </trkpt>
      <trkpt lat="43.24845" lon="-0.99089">
        <ele>146.2</ele>
        <time>2022-09-10T14:00:21Z</time>
      </trkpt>
      <trkpt lat="43.24832" lon="-0.99087">
        <ele>146.8</ele>
        <time>2022-09-10T14:00:24Z</time>
      </trkpt>
      <trkpt lat="43.24824" lon="-0.99084">
        <ele>147.2</ele>
        <time>2022-09-10T14:00:26Z</time>
      </trkpt>
      <trkpt lat="43.24806" lon="-0.99076">
        <ele>148</ele>
        <time>2022-09-10T14:00:32Z</time>
      </trkpt>
      <trkpt lat="43.24804" lon="-0.99075">
        <ele>148.2</ele>
        <time>2022-09-10T14:00:33Z</time>
      </trkpt>
      <trkpt lat="43.24789" lon="-0.99071">
        <ele>149.2</ele>
        <time>2022-09-10T14:00:39Z</time>
      </trkpt>
      <trkpt lat="43.24787" lon="-0.9907">
        <ele>149.4</ele>
        <time>2022-09-10T14:00:40Z</time>
      </trkpt>
      <trkpt lat="43.24775" lon="-0.9907">
        <ele>150.4</ele>
        <time>2022-09-10T14:00:45Z</time>
      </trkpt>
      <trkpt lat="43.24762" lon="-0.99073">
        <ele>151.6</ele>
        <time>2022-09-10T14:00:50Z</time>
      </trkpt>
      <trkpt lat="43.24752" lon="-0.99077">
        <ele>152.4</ele>
        <time>2022-09-10T14:00:54Z</time>
      </trkpt>
      <trkpt lat="43.2475" lon="-0.99079">
        <ele>152.6</ele>
        <time>2022-09-10T14:00:55Z</time>
      </trkpt>
      <trkpt lat="43.24738" lon="-0.99086">
        <ele>153.2</ele>
        <time>2022-09-10T14:01:00Z</time>
      </trkpt>
      <trkpt lat="43.24724" lon="-0.99095">
        <ele>153.6</ele>
        <time>2022-09-10T14:01:07Z</time>
      </trkpt>
      <trkpt lat="43.24705" lon="-0.99107">
        <ele>154</ele>
        <time>2022-09-10T14:01:15Z</time>
      </trkpt>
      <trkpt lat="43.24686" lon="-0.9912">
        <ele>154.2</ele>
        <time>2022-09-10T14:01:22Z</time>
      </trkpt>
      <trkpt lat="43.24672" lon="-0.99128">
        <ele>154.6</ele>
        <time>2022-09-10T14:01:27Z</time>
      </trkpt>
      <trkpt lat="43.24665" lon="-0.99133">
        <ele>154.8</ele>
        <time>2022-09-10T14:01:29Z</time>
      </trkpt>
      <trkpt lat="43.24635" lon="-0.99156">
        <ele>155</ele>
        <time>2022-09-10T14:01:38Z</time>
      </trkpt>
      <trkpt lat="43.24604" lon="-0.99184">
        <ele>154.8</ele>
        <time>2022-09-10T14:01:47Z</time>
      </trkpt>
      <trkpt lat="43.24576" lon="-0.9921">
        <ele>154.8</ele>
        <time>2022-09-10T14:01:55Z</time>
      </trkpt>
      <trkpt lat="43.24545" lon="-0.9925">
        <ele>154</ele>
        <time>2022-09-10T14:02:04Z</time>
      </trkpt>
      <trkpt lat="43.24527" lon="-0.99277">
        <ele>153.6</ele>
        <time>2022-09-10T14:02:09Z</time>
      </trkpt>
      <trkpt lat="43.2452" lon="-0.99289">
        <ele>153.6</ele>
        <time>2022-09-10T14:02:11Z</time>
      </trkpt>
      <trkpt lat="43.24498" lon="-0.99322">
        <ele>152.4</ele>
        <time>2022-09-10T14:02:17Z</time>
      </trkpt>
      <trkpt lat="43.24489" lon="-0.99331">
        <ele>152.6</ele>
        <time>2022-09-10T14:02:19Z</time>
      </trkpt>
      <trkpt lat="43.24471" lon="-0.99348">
        <ele>152.8</ele>
        <time>2022-09-10T14:02:23Z</time>
      </trkpt>
      <trkpt lat="43.24457" lon="-0.99358">
        <ele>153.2</ele>
        <time>2022-09-10T14:02:26Z</time>
      </trkpt>
      <trkpt lat="43.24427" lon="-0.99374">
        <ele>153.6</ele>
        <time>2022-09-10T14:02:32Z</time>
      </trkpt>
      <trkpt lat="43.24422" lon="-0.99377">
        <ele>153.6</ele>
        <time>2022-09-10T14:02:33Z</time>
      </trkpt>
      <trkpt lat="43.24397" lon="-0.99385">
        <ele>154.2</ele>
        <time>2022-09-10T14:02:39Z</time>
      </trkpt>
      <trkpt lat="43.24375" lon="-0.99387">
        <ele>154.6</ele>
        <time>2022-09-10T14:02:45Z</time>
      </trkpt>
      <trkpt lat="43.24371" lon="-0.99387">
        <ele>154.8</ele>
        <time>2022-09-10T14:02:46Z</time>
      </trkpt>
      <trkpt lat="43.24343" lon="-0.99379">
        <ele>155.2</ele>
        <time>2022-09-10T14:02:53Z</time>
      </trkpt>
      <trkpt lat="43.24326" lon="-0.99366">
        <ele>155.6</ele>
        <time>2022-09-10T14:02:58Z</time>
      </trkpt>
      <trkpt lat="43.24319" lon="-0.9936">
        <ele>155.8</ele>
        <time>2022-09-10T14:03:00Z</time>
      </trkpt>
      <trkpt lat="43.24295" lon="-0.99333">
        <ele>155.4</ele>
        <time>2022-09-10T14:03:07Z</time>
      </trkpt>
      <trkpt lat="43.24282" lon="-0.99321">
        <ele>154.6</ele>
        <time>2022-09-10T14:03:10Z</time>
      </trkpt>
      <trkpt lat="43.24267" lon="-0.99309">
        <ele>154.4</ele>
        <time>2022-09-10T14:03:13Z</time>
      </trkpt>
      <trkpt lat="43.24263" lon="-0.99304">
        <ele>154.4</ele>
        <time>2022-09-10T14:03:14Z</time>
      </trkpt>
      <trkpt lat="43.24242" lon="-0.99281">
        <ele>155.2</ele>
        <time>2022-09-10T14:03:19Z</time>
      </trkpt>
      <trkpt lat="43.24203" lon="-0.99238">
        <ele>154.6</ele>
        <time>2022-09-10T14:03:28Z</time>
      </trkpt>
      <trkpt lat="43.24179" lon="-0.99223">
        <ele>155</ele>
        <time>2022-09-10T14:03:33Z</time>
      </trkpt>
      <trkpt lat="43.24173" lon="-0.99221">
        <ele>155.2</ele>
        <time>2022-09-10T14:03:34Z</time>
      </trkpt>
      <trkpt lat="43.24156" lon="-0.99217">
        <ele>155.8</ele>
        <time>2022-09-10T14:03:38Z</time>
      </trkpt>
      <trkpt lat="43.24153" lon="-0.99216">
        <ele>156.4</ele>
        <time>2022-09-10T14:03:39Z</time>
      </trkpt>
      <trkpt lat="43.24147" lon="-0.99216">
        <ele>157</ele>
        <time>2022-09-10T14:03:41Z</time>
      </trkpt>
      <trkpt lat="43.24135" lon="-0.99211">
        <ele>158</ele>
        <time>2022-09-10T14:03:45Z</time>
      </trkpt>
      <trkpt lat="43.24118" lon="-0.99201">
        <ele>159</ele>
        <time>2022-09-10T14:03:51Z</time>
      </trkpt>
      <trkpt lat="43.24092" lon="-0.99186">
        <ele>159.4</ele>
        <time>2022-09-10T14:04:00Z</time>
      </trkpt>
      <trkpt lat="43.24062" lon="-0.99171">
        <ele>159.6</ele>
        <time>2022-09-10T14:04:09Z</time>
      </trkpt>
      <trkpt lat="43.24047" lon="-0.99164">
        <ele>159.2</ele>
        <time>2022-09-10T14:04:13Z</time>
      </trkpt>
      <trkpt lat="43.24037" lon="-0.99158">
        <ele>158.8</ele>
        <time>2022-09-10T14:04:15Z</time>
      </trkpt>
      <trkpt lat="43.24026" lon="-0.99153">
        <ele>157.6</ele>
        <time>2022-09-10T14:04:17Z</time>
      </trkpt>
      <trkpt lat="43.24008" lon="-0.99145">
        <ele>157.2</ele>
        <time>2022-09-10T14:04:20Z</time>
      </trkpt>
      <trkpt lat="43.23979" lon="-0.99141">
        <ele>157</ele>
        <time>2022-09-10T14:04:25Z</time>
      </trkpt>
      <trkpt lat="43.23937" lon="-0.99145">
        <ele>156.8</ele>
        <time>2022-09-10T14:04:33Z</time>
      </trkpt>
      <trkpt lat="43.23903" lon="-0.99148">
        <ele>157.4</ele>
        <time>2022-09-10T14:04:40Z</time>
      </trkpt>
      <trkpt lat="43.23867" lon="-0.99147">
        <ele>158.2</ele>
        <time>2022-09-10T14:04:48Z</time>
      </trkpt>
      <trkpt lat="43.23832" lon="-0.99138">
        <ele>158.4</ele>
        <time>2022-09-10T14:04:56Z</time>
      </trkpt>
      <trkpt lat="43.2382" lon="-0.99133">
        <ele>158.8</ele>
        <time>2022-09-10T14:04:59Z</time>
      </trkpt>
      <trkpt lat="43.23806" lon="-0.99124">
        <ele>158.8</ele>
        <time>2022-09-10T14:05:03Z</time>
      </trkpt>
      <trkpt lat="43.23786" lon="-0.99103">
        <ele>159.2</ele>
        <time>2022-09-10T14:05:09Z</time>
      </trkpt>
      <trkpt lat="43.23772" lon="-0.99091">
        <ele>160.2</ele>
        <time>2022-09-10T14:05:13Z</time>
      </trkpt>
      <trkpt lat="43.23762" lon="-0.99086">
        <ele>160.6</ele>
        <time>2022-09-10T14:05:16Z</time>
      </trkpt>
      <trkpt lat="43.23756" lon="-0.99083">
        <ele>161.2</ele>
        <time>2022-09-10T14:05:18Z</time>
      </trkpt>
      <trkpt lat="43.23745" lon="-0.99078">
        <ele>162</ele>
        <time>2022-09-10T14:05:22Z</time>
      </trkpt>
      <trkpt lat="43.23739" lon="-0.99076">
        <ele>162.2</ele>
        <time>2022-09-10T14:05:24Z</time>
      </trkpt>
      <trkpt lat="43.23725" lon="-0.99069">
        <ele>163.4</ele>
        <time>2022-09-10T14:05:29Z</time>
      </trkpt>
      <trkpt lat="43.23723" lon="-0.99068">
        <ele>163.6</ele>
        <time>2022-09-10T14:05:30Z</time>
      </trkpt>
      <trkpt lat="43.23707" lon="-0.99061">
        <ele>164.6</ele>
        <time>2022-09-10T14:05:36Z</time>
      </trkpt>
      <trkpt lat="43.23686" lon="-0.99051">
        <ele>164</ele>
        <time>2022-09-10T14:05:44Z</time>
      </trkpt>
      <trkpt lat="43.23655" lon="-0.99038">
        <ele>163.8</ele>
        <time>2022-09-10T14:05:53Z</time>
      </trkpt>
      <trkpt lat="43.23639" lon="-0.99032">
        <ele>163.4</ele>
        <time>2022-09-10T14:05:57Z</time>
      </trkpt>
      <trkpt lat="43.23625" lon="-0.99027">
        <ele>163.2</ele>
        <time>2022-09-10T14:06:00Z</time>
      </trkpt>
      <trkpt lat="43.23621" lon="-0.99025">
        <ele>163</ele>
        <time>2022-09-10T14:06:01Z</time>
      </trkpt>
      <trkpt lat="43.23582" lon="-0.99016">
        <ele>163</ele>
        <time>2022-09-10T14:06:09Z</time>
      </trkpt>
      <trkpt lat="43.23539" lon="-0.99006">
        <ele>162.6</ele>
        <time>2022-09-10T14:06:17Z</time>
      </trkpt>
      <trkpt lat="43.23493" lon="-0.98998">
        <ele>162.6</ele>
        <time>2022-09-10T14:06:26Z</time>
      </trkpt>
      <trkpt lat="43.23448" lon="-0.98988">
        <ele>162.8</ele>
        <time>2022-09-10T14:06:35Z</time>
      </trkpt>
      <trkpt lat="43.23426" lon="-0.98982">
        <ele>163.6</ele>
        <time>2022-09-10T14:06:40Z</time>
      </trkpt>
      <trkpt lat="43.23422" lon="-0.9898">
        <ele>164.2</ele>
        <time>2022-09-10T14:06:41Z</time>
      </trkpt>
      <trkpt lat="43.23414" lon="-0.98977">
        <ele>164.6</ele>
        <time>2022-09-10T14:06:43Z</time>
      </trkpt>
      <trkpt lat="43.23397" lon="-0.98971">
        <ele>165.8</ele>
        <time>2022-09-10T14:06:48Z</time>
      </trkpt>
      <trkpt lat="43.23375" lon="-0.98963">
        <ele>166.8</ele>
        <time>2022-09-10T14:06:55Z</time>
      </trkpt>
      <trkpt lat="43.23361" lon="-0.98958">
        <ele>166.8</ele>
        <time>2022-09-10T14:06:59Z</time>
      </trkpt>
      <trkpt lat="43.23324" lon="-0.98942">
        <ele>167.6</ele>
        <time>2022-09-10T14:07:08Z</time>
      </trkpt>
      <trkpt lat="43.23284" lon="-0.98924">
        <ele>167.6</ele>
        <time>2022-09-10T14:07:17Z</time>
      </trkpt>
      <trkpt lat="43.23267" lon="-0.98917">
        <ele>168</ele>
        <time>2022-09-10T14:07:21Z</time>
      </trkpt>
      <trkpt lat="43.23246" lon="-0.98905">
        <ele>168.2</ele>
        <time>2022-09-10T14:07:26Z</time>
      </trkpt>
      <trkpt lat="43.2323" lon="-0.98894">
        <ele>169</ele>
        <time>2022-09-10T14:07:30Z</time>
      </trkpt>
      <trkpt lat="43.23215" lon="-0.98884">
        <ele>169.6</ele>
        <time>2022-09-10T14:07:34Z</time>
      </trkpt>
      <trkpt lat="43.23209" lon="-0.98879">
        <ele>170</ele>
        <time>2022-09-10T14:07:36Z</time>
      </trkpt>
      <trkpt lat="43.23194" lon="-0.98868">
        <ele>170.4</ele>
        <time>2022-09-10T14:07:41Z</time>
      </trkpt>
      <trkpt lat="43.2317" lon="-0.9885">
        <ele>170.8</ele>
        <time>2022-09-10T14:07:49Z</time>
      </trkpt>
      <trkpt lat="43.23165" lon="-0.98846">
        <ele>171</ele>
        <time>2022-09-10T14:07:51Z</time>
      </trkpt>
      <trkpt lat="43.23146" lon="-0.9883">
        <ele>171.8</ele>
        <time>2022-09-10T14:07:58Z</time>
      </trkpt>
      <trkpt lat="43.23137" lon="-0.98825">
        <ele>172.2</ele>
        <time>2022-09-10T14:08:01Z</time>
      </trkpt>
      <trkpt lat="43.23127" lon="-0.98821">
        <ele>172.4</ele>
        <time>2022-09-10T14:08:04Z</time>
      </trkpt>
      <trkpt lat="43.23104" lon="-0.98822">
        <ele>172.8</ele>
        <time>2022-09-10T14:08:11Z</time>
      </trkpt>
      <trkpt lat="43.23094" lon="-0.98825">
        <ele>173.2</ele>
        <time>2022-09-10T14:08:14Z</time>
      </trkpt>
      <trkpt lat="43.23079" lon="-0.98831">
        <ele>173</ele>
        <time>2022-09-10T14:08:18Z</time>
      </trkpt>
      <trkpt lat="43.23054" lon="-0.98844">
        <ele>172.4</ele>
        <time>2022-09-10T14:08:24Z</time>
      </trkpt>
      <trkpt lat="43.23018" lon="-0.9886">
        <ele>172.4</ele>
        <time>2022-09-10T14:08:31Z</time>
      </trkpt>
      <trkpt lat="43.22976" lon="-0.98878">
        <ele>172.6</ele>
        <time>2022-09-10T14:08:39Z</time>
      </trkpt>
      <trkpt lat="43.22937" lon="-0.98896">
        <ele>173.6</ele>
        <time>2022-09-10T14:08:47Z</time>
      </trkpt>
      <trkpt lat="43.22909" lon="-0.9891">
        <ele>174.2</ele>
        <time>2022-09-10T14:08:53Z</time>
      </trkpt>
      <trkpt lat="43.22895" lon="-0.98916">
        <ele>174.2</ele>
        <time>2022-09-10T14:08:56Z</time>
      </trkpt>
      <trkpt lat="43.2285" lon="-0.98932">
        <ele>174.2</ele>
        <time>2022-09-10T14:09:05Z</time>
      </trkpt>
      <trkpt lat="43.22819" lon="-0.98941">
        <ele>175.2</ele>
        <time>2022-09-10T14:09:12Z</time>
      </trkpt>
      <trkpt lat="43.22778" lon="-0.98954">
        <ele>175.8</ele>
        <time>2022-09-10T14:09:22Z</time>
      </trkpt>
      <trkpt lat="43.22755" lon="-0.98965">
        <ele>175.8</ele>
        <time>2022-09-10T14:09:28Z</time>
      </trkpt>
      <trkpt lat="43.22717" lon="-0.98978">
        <ele>175.8</ele>
        <time>2022-09-10T14:09:37Z</time>
      </trkpt>
      <trkpt lat="43.22705" lon="-0.9898">
        <ele>175.6</ele>
        <time>2022-09-10T14:09:40Z</time>
      </trkpt>
      <trkpt lat="43.22688" lon="-0.98982">
        <ele>175.4</ele>
        <time>2022-09-10T14:09:44Z</time>
      </trkpt>
      <trkpt lat="43.22659" lon="-0.98986">
        <ele>175</ele>
        <time>2022-09-10T14:09:51Z</time>
      </trkpt>
      <trkpt lat="43.22624" lon="-0.98991">
        <ele>174.2</ele>
        <time>2022-09-10T14:09:59Z</time>
      </trkpt>
      <trkpt lat="43.22615" lon="-0.98992">
        <ele>174.2</ele>
        <time>2022-09-10T14:10:01Z</time>
      </trkpt>
      <trkpt lat="43.22587" lon="-0.98995">
        <ele>174</ele>
        <time>2022-09-10T14:10:08Z</time>
      </trkpt>
      <trkpt lat="43.22562" lon="-0.99">
        <ele>174.2</ele>
        <time>2022-09-10T14:10:16Z</time>
      </trkpt>
      <trkpt lat="43.22546" lon="-0.99004">
        <ele>174.2</ele>
        <time>2022-09-10T14:10:23Z</time>
      </trkpt>
      <trkpt lat="43.22529" lon="-0.99006">
        <ele>174.4</ele>
        <time>2022-09-10T14:10:30Z</time>
      </trkpt>
      <trkpt lat="43.2251" lon="-0.99009">
        <ele>174.8</ele>
        <time>2022-09-10T14:10:37Z</time>
      </trkpt>
      <trkpt lat="43.2249" lon="-0.99012">
        <ele>174.6</ele>
        <time>2022-09-10T14:10:43Z</time>
      </trkpt>
      <trkpt lat="43.22475" lon="-0.99007">
        <ele>174.4</ele>
        <time>2022-09-10T14:10:49Z</time>
      </trkpt>
      <trkpt lat="43.22458" lon="-0.98994">
        <ele>175.2</ele>
        <time>2022-09-10T14:10:57Z</time>
      </trkpt>
      <trkpt lat="43.22457" lon="-0.98991">
        <ele>175.2</ele>
        <time>2022-09-10T14:10:58Z</time>
      </trkpt>
      <trkpt lat="43.22457" lon="-0.98988">
        <ele>175.2</ele>
        <time>2022-09-10T14:10:59Z</time>
      </trkpt>
      <trkpt lat="43.22458" lon="-0.9898">
        <ele>174.8</ele>
        <time>2022-09-10T14:11:01Z</time>
      </trkpt>
      <trkpt lat="43.22464" lon="-0.98962">
        <ele>175</ele>
        <time>2022-09-10T14:11:06Z</time>
      </trkpt>
      <trkpt lat="43.22465" lon="-0.98959">
        <ele>175</ele>
        <time>2022-09-10T14:11:07Z</time>
      </trkpt>
      <trkpt lat="43.22471" lon="-0.98938">
        <ele>174.8</ele>
        <time>2022-09-10T14:11:14Z</time>
      </trkpt>
      <trkpt lat="43.22475" lon="-0.98923">
        <ele>174.8</ele>
        <time>2022-09-10T14:11:21Z</time>
      </trkpt>
    </trkseg>
  </trk>
  <trk>
    <name><![CDATA[J6 - Far West - Lestelle-Bétharram - Oloron-Sainte-Marie - encore une journée cool et de beaux paysages !]]></name>
    <extensions>
      <line xmlns="http://www.topografix.com/GPX/gpx_style/0/2">
        <color>FF0000</color>
        <width>4</width>
      </line>
    </extensions>
    <trkseg>
      <trkpt lat="43.12726" lon="-0.20769">
        <ele>294</ele>
        <time>2022-09-08T08:21:30Z</time>
      </trkpt>
      <trkpt lat="43.12725" lon="-0.20771">
        <ele>294</ele>
        <time>2022-09-08T08:21:39Z</time>
      </trkpt>
      <trkpt lat="43.12729" lon="-0.20773">
        <ele>294</ele>
        <time>2022-09-08T08:21:42Z</time>
      </trkpt>
      <trkpt lat="43.1273" lon="-0.20773">
        <ele>294</ele>
        <time>2022-09-08T08:21:43Z</time>
      </trkpt>
      <trkpt lat="43.12739" lon="-0.20778">
        <ele>294</ele>
        <time>2022-09-08T08:21:49Z</time>
      </trkpt>
      <trkpt lat="43.12756" lon="-0.20787">
        <ele>294</ele>
        <time>2022-09-08T08:21:57Z</time>
      </trkpt>
      <trkpt lat="43.12776" lon="-0.20798">
        <ele>293.8</ele>
        <time>2022-09-08T08:22:06Z</time>
      </trkpt>
      <trkpt lat="43.12795" lon="-0.2081">
        <ele>293.6</ele>
        <time>2022-09-08T08:22:13Z</time>
      </trkpt>
      <trkpt lat="43.12816" lon="-0.20826">
        <ele>293.6</ele>
        <time>2022-09-08T08:22:21Z</time>
      </trkpt>
      <trkpt lat="43.12838" lon="-0.20841">
        <ele>293.2</ele>
        <time>2022-09-08T08:22:28Z</time>
      </trkpt>
      <trkpt lat="43.12861" lon="-0.2086">
        <ele>293.2</ele>
        <time>2022-09-08T08:22:37Z</time>
      </trkpt>
      <trkpt lat="43.12863" lon="-0.20863">
        <ele>293.2</ele>
        <time>2022-09-08T08:22:38Z</time>
      </trkpt>
      <trkpt lat="43.1286" lon="-0.2087">
        <ele>293</ele>
        <time>2022-09-08T08:22:40Z</time>
      </trkpt>
      <trkpt lat="43.12852" lon="-0.20883">
        <ele>293.2</ele>
        <time>2022-09-08T08:22:44Z</time>
      </trkpt>
      <trkpt lat="43.12848" lon="-0.2089">
        <ele>293.2</ele>
        <time>2022-09-08T08:22:46Z</time>
      </trkpt>
      <trkpt lat="43.12843" lon="-0.20905">
        <ele>293.4</ele>
        <time>2022-09-08T08:22:51Z</time>
      </trkpt>
      <trkpt lat="43.12845" lon="-0.20908">
        <ele>293.4</ele>
        <time>2022-09-08T08:22:52Z</time>
      </trkpt>
      <trkpt lat="43.12852" lon="-0.20917">
        <ele>293.4</ele>
        <time>2022-09-08T08:22:55Z</time>
      </trkpt>
      <trkpt lat="43.12859" lon="-0.20926">
        <ele>293.4</ele>
        <time>2022-09-08T08:22:58Z</time>
      </trkpt>
      <trkpt lat="43.12874" lon="-0.20944">
        <ele>293.2</ele>
        <time>2022-09-08T08:23:05Z</time>
      </trkpt>
      <trkpt lat="43.12892" lon="-0.20965">
        <ele>293.2</ele>
        <time>2022-09-08T08:23:12Z</time>
      </trkpt>
      <trkpt lat="43.12902" lon="-0.20978">
        <ele>293</ele>
        <time>2022-09-08T08:23:16Z</time>
      </trkpt>
      <trkpt lat="43.12911" lon="-0.20993">
        <ele>293</ele>
        <time>2022-09-08T08:23:20Z</time>
      </trkpt>
      <trkpt lat="43.12926" lon="-0.21011">
        <ele>293</ele>
        <time>2022-09-08T08:23:26Z</time>
      </trkpt>
      <trkpt lat="43.12944" lon="-0.2103">
        <ele>293</ele>
        <time>2022-09-08T08:23:33Z</time>
      </trkpt>
      <trkpt lat="43.12969" lon="-0.21051">
        <ele>292.8</ele>
        <time>2022-09-08T08:23:41Z</time>
      </trkpt>
      <trkpt lat="43.12985" lon="-0.21068">
        <ele>292.6</ele>
        <time>2022-09-08T08:23:47Z</time>
      </trkpt>
      <trkpt lat="43.13003" lon="-0.21091">
        <ele>292.4</ele>
        <time>2022-09-08T08:23:54Z</time>
      </trkpt>
      <trkpt lat="43.13018" lon="-0.21103">
        <ele>292</ele>
        <time>2022-09-08T08:23:59Z</time>
      </trkpt>
      <trkpt lat="43.13025" lon="-0.2111">
        <ele>291.8</ele>
        <time>2022-09-08T08:24:02Z</time>
      </trkpt>
      <trkpt lat="43.13026" lon="-0.21114">
        <ele>291.8</ele>
        <time>2022-09-08T08:24:04Z</time>
      </trkpt>
      <trkpt lat="43.13026" lon="-0.21116">
        <ele>291.8</ele>
        <time>2022-09-08T08:24:05Z</time>
      </trkpt>
      <trkpt lat="43.13022" lon="-0.21124">
        <ele>292</ele>
        <time>2022-09-08T08:24:08Z</time>
      </trkpt>
      <trkpt lat="43.13007" lon="-0.21147">
        <ele>292</ele>
        <time>2022-09-08T08:24:15Z</time>
      </trkpt>
      <trkpt lat="43.12987" lon="-0.21177">
        <ele>292.4</ele>
        <time>2022-09-08T08:24:24Z</time>
      </trkpt>
      <trkpt lat="43.12977" lon="-0.21193">
        <ele>293</ele>
        <time>2022-09-08T08:24:29Z</time>
      </trkpt>
      <trkpt lat="43.12974" lon="-0.21199">
        <ele>293.2</ele>
        <time>2022-09-08T08:24:31Z</time>
      </trkpt>
      <trkpt lat="43.12968" lon="-0.21214">
        <ele>294</ele>
        <time>2022-09-08T08:24:36Z</time>
      </trkpt>
      <trkpt lat="43.12964" lon="-0.21223">
        <ele>294.4</ele>
        <time>2022-09-08T08:24:39Z</time>
      </trkpt>
      <trkpt lat="43.1296" lon="-0.21231">
        <ele>295</ele>
        <time>2022-09-08T08:24:42Z</time>
      </trkpt>
      <trkpt lat="43.12956" lon="-0.21247">
        <ele>296</ele>
        <time>2022-09-08T08:24:47Z</time>
      </trkpt>
      <trkpt lat="43.12955" lon="-0.21249">
        <ele>296</ele>
        <time>2022-09-08T08:24:48Z</time>
      </trkpt>
      <trkpt lat="43.1295" lon="-0.21266">
        <ele>296.6</ele>
        <time>2022-09-08T08:24:54Z</time>
      </trkpt>
      <trkpt lat="43.12946" lon="-0.21296">
        <ele>296.8</ele>
        <time>2022-09-08T08:25:03Z</time>
      </trkpt>
      <trkpt lat="43.12945" lon="-0.21313">
        <ele>297</ele>
        <time>2022-09-08T08:25:08Z</time>
      </trkpt>
      <trkpt lat="43.12944" lon="-0.2132">
        <ele>297</ele>
        <time>2022-09-08T08:25:10Z</time>
      </trkpt>
      <trkpt lat="43.12945" lon="-0.21345">
        <ele>296.8</ele>
        <time>2022-09-08T08:25:16Z</time>
      </trkpt>
      <trkpt lat="43.12946" lon="-0.21371">
        <ele>295.8</ele>
        <time>2022-09-08T08:25:20Z</time>
      </trkpt>
      <trkpt lat="43.12946" lon="-0.21378">
        <ele>295.6</ele>
        <time>2022-09-08T08:25:21Z</time>
      </trkpt>
      <trkpt lat="43.12946" lon="-0.21427">
        <ele>295.2</ele>
        <time>2022-09-08T08:25:28Z</time>
      </trkpt>
      <trkpt lat="43.12945" lon="-0.21452">
        <ele>294.6</ele>
        <time>2022-09-08T08:25:31Z</time>
      </trkpt>
      <trkpt lat="43.12943" lon="-0.21471">
        <ele>294.4</ele>
        <time>2022-09-08T08:25:34Z</time>
      </trkpt>
      <trkpt lat="43.12935" lon="-0.21497">
        <ele>295.6</ele>
        <time>2022-09-08T08:25:39Z</time>
      </trkpt>
      <trkpt lat="43.12934" lon="-0.215">
        <ele>295.8</ele>
        <time>2022-09-08T08:25:40Z</time>
      </trkpt>
      <trkpt lat="43.12927" lon="-0.21511">
        <ele>296.4</ele>
        <time>2022-09-08T08:25:44Z</time>
      </trkpt>
      <trkpt lat="43.12925" lon="-0.21513">
        <ele>296.8</ele>
        <time>2022-09-08T08:25:45Z</time>
      </trkpt>
      <trkpt lat="43.12917" lon="-0.21521">
        <ele>297.8</ele>
        <time>2022-09-08T08:25:51Z</time>
      </trkpt>
      <trkpt lat="43.12909" lon="-0.21529">
        <ele>298.8</ele>
        <time>2022-09-08T08:25:57Z</time>
      </trkpt>
      <trkpt lat="43.12905" lon="-0.21533">
        <ele>299.6</ele>
        <time>2022-09-08T08:26:00Z</time>
      </trkpt>
      <trkpt lat="43.12903" lon="-0.21536">
        <ele>300</ele>
        <time>2022-09-08T08:26:02Z</time>
      </trkpt>
      <trkpt lat="43.12899" lon="-0.21541">
        <ele>300.8</ele>
        <time>2022-09-08T08:26:06Z</time>
      </trkpt>
      <trkpt lat="43.12895" lon="-0.21545">
        <ele>301</ele>
        <time>2022-09-08T08:26:09Z</time>
      </trkpt>
      <trkpt lat="43.1289" lon="-0.21551">
        <ele>302</ele>
        <time>2022-09-08T08:26:14Z</time>
      </trkpt>
      <trkpt lat="43.12889" lon="-0.21553">
        <ele>302</ele>
        <time>2022-09-08T08:26:15Z</time>
      </trkpt>
      <trkpt lat="43.12887" lon="-0.21564">
        <ele>303</ele>
        <time>2022-09-08T08:26:21Z</time>
      </trkpt>
      <trkpt lat="43.12886" lon="-0.21566">
        <ele>303.2</ele>
        <time>2022-09-08T08:26:22Z</time>
      </trkpt>
      <trkpt lat="43.12881" lon="-0.21575">
        <ele>304.2</ele>
        <time>2022-09-08T08:26:28Z</time>
      </trkpt>
      <trkpt lat="43.12881" lon="-0.21577">
        <ele>304.2</ele>
        <time>2022-09-08T08:26:29Z</time>
      </trkpt>
      <trkpt lat="43.1288" lon="-0.21584">
        <ele>305</ele>
        <time>2022-09-08T08:26:33Z</time>
      </trkpt>
      <trkpt lat="43.12879" lon="-0.21588">
        <ele>305.2</ele>
        <time>2022-09-08T08:26:35Z</time>
      </trkpt>
      <trkpt lat="43.12877" lon="-0.21593">
        <ele>305.8</ele>
        <time>2022-09-08T08:26:38Z</time>
      </trkpt>
      <trkpt lat="43.12875" lon="-0.21599">
        <ele>306.4</ele>
        <time>2022-09-08T08:26:42Z</time>
      </trkpt>
      <trkpt lat="43.12873" lon="-0.21605">
        <ele>307</ele>
        <time>2022-09-08T08:26:46Z</time>
      </trkpt>
      <trkpt lat="43.12872" lon="-0.21608">
        <ele>307.4</ele>
        <time>2022-09-08T08:26:48Z</time>
      </trkpt>
      <trkpt lat="43.1287" lon="-0.21618">
        <ele>308.4</ele>
        <time>2022-09-08T08:26:54Z</time>
      </trkpt>
      <trkpt lat="43.12869" lon="-0.21621">
        <ele>308.6</ele>
        <time>2022-09-08T08:26:56Z</time>
      </trkpt>
      <trkpt lat="43.12864" lon="-0.21629">
        <ele>309.4</ele>
        <time>2022-09-08T08:27:02Z</time>
      </trkpt>
      <trkpt lat="43.12864" lon="-0.21631">
        <ele>309.6</ele>
        <time>2022-09-08T08:27:03Z</time>
      </trkpt>
      <trkpt lat="43.12864" lon="-0.21632">
        <ele>309.6</ele>
        <time>2022-09-08T08:27:04Z</time>
      </trkpt>
      <trkpt lat="43.12862" lon="-0.21636">
        <ele>310</ele>
        <time>2022-09-08T08:27:07Z</time>
      </trkpt>
      <trkpt lat="43.1286" lon="-0.21639">
        <ele>310.6</ele>
        <time>2022-09-08T08:27:10Z</time>
      </trkpt>
      <trkpt lat="43.12858" lon="-0.21644">
        <ele>311.4</ele>
        <time>2022-09-08T08:27:14Z</time>
      </trkpt>
      <trkpt lat="43.12858" lon="-0.21647">
        <ele>311.8</ele>
        <time>2022-09-08T08:27:16Z</time>
      </trkpt>
      <trkpt lat="43.12857" lon="-0.21654">
        <ele>312.4</ele>
        <time>2022-09-08T08:27:21Z</time>
      </trkpt>
      <trkpt lat="43.12856" lon="-0.21656">
        <ele>312.8</ele>
        <time>2022-09-08T08:27:23Z</time>
      </trkpt>
      <trkpt lat="43.12854" lon="-0.21661">
        <ele>313.2</ele>
        <time>2022-09-08T08:27:26Z</time>
      </trkpt>
      <trkpt lat="43.12854" lon="-0.21662">
        <ele>313.4</ele>
        <time>2022-09-08T08:27:27Z</time>
      </trkpt>
      <trkpt lat="43.12855" lon="-0.21667">
        <ele>314</ele>
        <time>2022-09-08T08:27:30Z</time>
      </trkpt>
      <trkpt lat="43.12856" lon="-0.21675">
        <ele>314.4</ele>
        <time>2022-09-08T08:27:34Z</time>
      </trkpt>
      <trkpt lat="43.12856" lon="-0.21683">
        <ele>315</ele>
        <time>2022-09-08T08:27:38Z</time>
      </trkpt>
      <trkpt lat="43.12856" lon="-0.2169">
        <ele>315.4</ele>
        <time>2022-09-08T08:27:42Z</time>
      </trkpt>
      <trkpt lat="43.12856" lon="-0.21703">
        <ele>316</ele>
        <time>2022-09-08T08:27:48Z</time>
      </trkpt>
      <trkpt lat="43.12855" lon="-0.21707">
        <ele>316</ele>
        <time>2022-09-08T08:27:50Z</time>
      </trkpt>
      <trkpt lat="43.12854" lon="-0.21723">
        <ele>316.6</ele>
        <time>2022-09-08T08:27:57Z</time>
      </trkpt>
      <trkpt lat="43.12851" lon="-0.21735">
        <ele>317</ele>
        <time>2022-09-08T08:28:02Z</time>
      </trkpt>
      <trkpt lat="43.12851" lon="-0.21738">
        <ele>317.2</ele>
        <time>2022-09-08T08:28:04Z</time>
      </trkpt>
      <trkpt lat="43.12848" lon="-0.21754">
        <ele>317.8</ele>
        <time>2022-09-08T08:28:11Z</time>
      </trkpt>
      <trkpt lat="43.12846" lon="-0.21762">
        <ele>318</ele>
        <time>2022-09-08T08:28:15Z</time>
      </trkpt>
      <trkpt lat="43.12844" lon="-0.21772">
        <ele>318.4</ele>
        <time>2022-09-08T08:28:19Z</time>
      </trkpt>
      <trkpt lat="43.12841" lon="-0.21782">
        <ele>319.2</ele>
        <time>2022-09-08T08:28:24Z</time>
      </trkpt>
      <trkpt lat="43.1284" lon="-0.21786">
        <ele>319.4</ele>
        <time>2022-09-08T08:28:26Z</time>
      </trkpt>
      <trkpt lat="43.1284" lon="-0.21797">
        <ele>320.2</ele>
        <time>2022-09-08T08:28:31Z</time>
      </trkpt>
      <trkpt lat="43.1284" lon="-0.21804">
        <ele>320.6</ele>
        <time>2022-09-08T08:28:34Z</time>
      </trkpt>
      <trkpt lat="43.12839" lon="-0.21815">
        <ele>321.4</ele>
        <time>2022-09-08T08:28:39Z</time>
      </trkpt>
      <trkpt lat="43.12841" lon="-0.21824">
        <ele>321.8</ele>
        <time>2022-09-08T08:28:43Z</time>
      </trkpt>
      <trkpt lat="43.12842" lon="-0.2183">
        <ele>322.4</ele>
        <time>2022-09-08T08:28:46Z</time>
      </trkpt>
      <trkpt lat="43.12843" lon="-0.21841">
        <ele>323.4</ele>
        <time>2022-09-08T08:28:51Z</time>
      </trkpt>
      <trkpt lat="43.12843" lon="-0.21845">
        <ele>323.8</ele>
        <time>2022-09-08T08:28:53Z</time>
      </trkpt>
      <trkpt lat="43.12845" lon="-0.2185">
        <ele>324.6</ele>
        <time>2022-09-08T08:28:56Z</time>
      </trkpt>
      <trkpt lat="43.12845" lon="-0.21858">
        <ele>325.4</ele>
        <time>2022-09-08T08:29:01Z</time>
      </trkpt>
      <trkpt lat="43.12846" lon="-0.2186">
        <ele>325.6</ele>
        <time>2022-09-08T08:29:02Z</time>
      </trkpt>
      <trkpt lat="43.12847" lon="-0.2187">
        <ele>326.6</ele>
        <time>2022-09-08T08:29:08Z</time>
      </trkpt>
      <trkpt lat="43.12846" lon="-0.21873">
        <ele>326.8</ele>
        <time>2022-09-08T08:29:10Z</time>
      </trkpt>
      <trkpt lat="43.12846" lon="-0.21879">
        <ele>327.6</ele>
        <time>2022-09-08T08:29:13Z</time>
      </trkpt>
      <trkpt lat="43.12845" lon="-0.21883">
        <ele>328</ele>
        <time>2022-09-08T08:29:16Z</time>
      </trkpt>
      <trkpt lat="43.12842" lon="-0.21887">
        <ele>328.4</ele>
        <time>2022-09-08T08:29:19Z</time>
      </trkpt>
      <trkpt lat="43.12839" lon="-0.21892">
        <ele>329</ele>
        <time>2022-09-08T08:29:23Z</time>
      </trkpt>
      <trkpt lat="43.12836" lon="-0.21896">
        <ele>329.4</ele>
        <time>2022-09-08T08:29:26Z</time>
      </trkpt>
      <trkpt lat="43.12832" lon="-0.21899">
        <ele>330</ele>
        <time>2022-09-08T08:29:30Z</time>
      </trkpt>
      <trkpt lat="43.12828" lon="-0.21899">
        <ele>330.4</ele>
        <time>2022-09-08T08:29:33Z</time>
      </trkpt>
      <trkpt lat="43.12827" lon="-0.219">
        <ele>330.4</ele>
        <time>2022-09-08T08:29:34Z</time>
      </trkpt>
      <trkpt lat="43.12825" lon="-0.21901">
        <ele>331</ele>
        <time>2022-09-08T08:29:36Z</time>
      </trkpt>
      <trkpt lat="43.12821" lon="-0.21902">
        <ele>331.4</ele>
        <time>2022-09-08T08:29:39Z</time>
      </trkpt>
      <trkpt lat="43.12812" lon="-0.21903">
        <ele>332.2</ele>
        <time>2022-09-08T08:29:45Z</time>
      </trkpt>
      <trkpt lat="43.12808" lon="-0.21905">
        <ele>332.6</ele>
        <time>2022-09-08T08:29:48Z</time>
      </trkpt>
      <trkpt lat="43.12802" lon="-0.21905">
        <ele>333.2</ele>
        <time>2022-09-08T08:29:53Z</time>
      </trkpt>
      <trkpt lat="43.128" lon="-0.21906">
        <ele>333.4</ele>
        <time>2022-09-08T08:29:55Z</time>
      </trkpt>
      <trkpt lat="43.12794" lon="-0.21908">
        <ele>334.2</ele>
        <time>2022-09-08T08:30:00Z</time>
      </trkpt>
      <trkpt lat="43.12793" lon="-0.21908">
        <ele>334.4</ele>
        <time>2022-09-08T08:30:01Z</time>
      </trkpt>
      <trkpt lat="43.12791" lon="-0.21908">
        <ele>334.6</ele>
        <time>2022-09-08T08:30:03Z</time>
      </trkpt>
      <trkpt lat="43.12783" lon="-0.21911">
        <ele>335.2</ele>
        <time>2022-09-08T08:30:08Z</time>
      </trkpt>
      <trkpt lat="43.12782" lon="-0.21912">
        <ele>335.2</ele>
        <time>2022-09-08T08:30:09Z</time>
      </trkpt>
      <trkpt lat="43.1278" lon="-0.21914">
        <ele>335.4</ele>
        <time>2022-09-08T08:30:10Z</time>
      </trkpt>
      <trkpt lat="43.12773" lon="-0.21918">
        <ele>336.2</ele>
        <time>2022-09-08T08:30:15Z</time>
      </trkpt>
      <trkpt lat="43.12771" lon="-0.21918">
        <ele>336.4</ele>
        <time>2022-09-08T08:30:16Z</time>
      </trkpt>
      <trkpt lat="43.1277" lon="-0.21919">
        <ele>336.4</ele>
        <time>2022-09-08T08:30:17Z</time>
      </trkpt>
      <trkpt lat="43.12762" lon="-0.21921">
        <ele>337.4</ele>
        <time>2022-09-08T08:30:23Z</time>
      </trkpt>
      <trkpt lat="43.12761" lon="-0.21922">
        <ele>337.6</ele>
        <time>2022-09-08T08:30:24Z</time>
      </trkpt>
      <trkpt lat="43.12757" lon="-0.21927">
        <ele>338</ele>
        <time>2022-09-08T08:30:28Z</time>
      </trkpt>
      <trkpt lat="43.1275" lon="-0.21929">
        <ele>338.6</ele>
        <time>2022-09-08T08:30:33Z</time>
      </trkpt>
      <trkpt lat="43.12749" lon="-0.21931">
        <ele>338.8</ele>
        <time>2022-09-08T08:30:34Z</time>
      </trkpt>
      <trkpt lat="43.12743" lon="-0.21931">
        <ele>339.4</ele>
        <time>2022-09-08T08:30:38Z</time>
      </trkpt>
      <trkpt lat="43.12741" lon="-0.21933">
        <ele>339.8</ele>
        <time>2022-09-08T08:30:40Z</time>
      </trkpt>
      <trkpt lat="43.1274" lon="-0.21935">
        <ele>339.8</ele>
        <time>2022-09-08T08:30:41Z</time>
      </trkpt>
      <trkpt lat="43.12739" lon="-0.21935">
        <ele>340</ele>
        <time>2022-09-08T08:30:42Z</time>
      </trkpt>
      <trkpt lat="43.12732" lon="-0.21936">
        <ele>340.8</ele>
        <time>2022-09-08T08:30:47Z</time>
      </trkpt>
      <trkpt lat="43.12726" lon="-0.21941">
        <ele>341.6</ele>
        <time>2022-09-08T08:30:52Z</time>
      </trkpt>
      <trkpt lat="43.12723" lon="-0.21942">
        <ele>341.8</ele>
        <time>2022-09-08T08:30:54Z</time>
      </trkpt>
      <trkpt lat="43.12722" lon="-0.21943">
        <ele>342</ele>
        <time>2022-09-08T08:30:55Z</time>
      </trkpt>
      <trkpt lat="43.12715" lon="-0.21949">
        <ele>342.6</ele>
        <time>2022-09-08T08:31:00Z</time>
      </trkpt>
      <trkpt lat="43.12712" lon="-0.21952">
        <ele>342.8</ele>
        <time>2022-09-08T08:31:02Z</time>
      </trkpt>
      <trkpt lat="43.12707" lon="-0.21957">
        <ele>343</ele>
        <time>2022-09-08T08:31:06Z</time>
      </trkpt>
      <trkpt lat="43.12701" lon="-0.21968">
        <ele>343.4</ele>
        <time>2022-09-08T08:31:11Z</time>
      </trkpt>
      <trkpt lat="43.12693" lon="-0.21984">
        <ele>344</ele>
        <time>2022-09-08T08:31:17Z</time>
      </trkpt>
      <trkpt lat="43.1269" lon="-0.2199">
        <ele>344.2</ele>
        <time>2022-09-08T08:31:19Z</time>
      </trkpt>
      <trkpt lat="43.12679" lon="-0.22009">
        <ele>345.2</ele>
        <time>2022-09-08T08:31:26Z</time>
      </trkpt>
      <trkpt lat="43.12678" lon="-0.22012">
        <ele>345.4</ele>
        <time>2022-09-08T08:31:27Z</time>
      </trkpt>
      <trkpt lat="43.12664" lon="-0.22039">
        <ele>346.2</ele>
        <time>2022-09-08T08:31:36Z</time>
      </trkpt>
      <trkpt lat="43.12649" lon="-0.22066">
        <ele>347</ele>
        <time>2022-09-08T08:31:45Z</time>
      </trkpt>
      <trkpt lat="43.12643" lon="-0.22078">
        <ele>347.2</ele>
        <time>2022-09-08T08:31:49Z</time>
      </trkpt>
      <trkpt lat="43.12634" lon="-0.22098">
        <ele>347.6</ele>
        <time>2022-09-08T08:31:56Z</time>
      </trkpt>
      <trkpt lat="43.12624" lon="-0.22119">
        <ele>347.6</ele>
        <time>2022-09-08T08:32:05Z</time>
      </trkpt>
      <trkpt lat="43.12615" lon="-0.22141">
        <ele>347.4</ele>
        <time>2022-09-08T08:32:12Z</time>
      </trkpt>
      <trkpt lat="43.12601" lon="-0.2217">
        <ele>347.2</ele>
        <time>2022-09-08T08:32:20Z</time>
      </trkpt>
      <trkpt lat="43.12586" lon="-0.22204">
        <ele>346.6</ele>
        <time>2022-09-08T08:32:28Z</time>
      </trkpt>
      <trkpt lat="43.12575" lon="-0.22231">
        <ele>347</ele>
        <time>2022-09-08T08:32:35Z</time>
      </trkpt>
      <trkpt lat="43.12574" lon="-0.2225">
        <ele>347.8</ele>
        <time>2022-09-08T08:32:40Z</time>
      </trkpt>
      <trkpt lat="43.12575" lon="-0.22254">
        <ele>348.6</ele>
        <time>2022-09-08T08:32:42Z</time>
      </trkpt>
      <trkpt lat="43.12576" lon="-0.22262">
        <ele>349.6</ele>
        <time>2022-09-08T08:32:45Z</time>
      </trkpt>
      <trkpt lat="43.12577" lon="-0.22265">
        <ele>349.8</ele>
        <time>2022-09-08T08:32:46Z</time>
      </trkpt>
      <trkpt lat="43.12577" lon="-0.22275">
        <ele>351</ele>
        <time>2022-09-08T08:32:49Z</time>
      </trkpt>
      <trkpt lat="43.12578" lon="-0.22278">
        <ele>351</ele>
        <time>2022-09-08T08:32:50Z</time>
      </trkpt>
      <trkpt lat="43.12577" lon="-0.22282">
        <ele>351.2</ele>
        <time>2022-09-08T08:32:51Z</time>
      </trkpt>
      <trkpt lat="43.12577" lon="-0.22285">
        <ele>351.2</ele>
        <time>2022-09-08T08:32:52Z</time>
      </trkpt>
      <trkpt lat="43.12577" lon="-0.22296">
        <ele>351.4</ele>
        <time>2022-09-08T08:32:55Z</time>
      </trkpt>
      <trkpt lat="43.12579" lon="-0.22308">
        <ele>351</ele>
        <time>2022-09-08T08:32:58Z</time>
      </trkpt>
      <trkpt lat="43.12588" lon="-0.22328">
        <ele>350.8</ele>
        <time>2022-09-08T08:33:03Z</time>
      </trkpt>
      <trkpt lat="43.12605" lon="-0.22335">
        <ele>351.8</ele>
        <time>2022-09-08T08:33:09Z</time>
      </trkpt>
      <trkpt lat="43.12607" lon="-0.22336">
        <ele>352</ele>
        <time>2022-09-08T08:33:10Z</time>
      </trkpt>
      <trkpt lat="43.12618" lon="-0.22341">
        <ele>353</ele>
        <time>2022-09-08T08:33:16Z</time>
      </trkpt>
      <trkpt lat="43.12634" lon="-0.22346">
        <ele>352.8</ele>
        <time>2022-09-08T08:33:23Z</time>
      </trkpt>
      <trkpt lat="43.12653" lon="-0.22357">
        <ele>352.2</ele>
        <time>2022-09-08T08:33:28Z</time>
      </trkpt>
      <trkpt lat="43.1266" lon="-0.22364">
        <ele>352.2</ele>
        <time>2022-09-08T08:33:30Z</time>
      </trkpt>
      <trkpt lat="43.12663" lon="-0.22368">
        <ele>352</ele>
        <time>2022-09-08T08:33:31Z</time>
      </trkpt>
      <trkpt lat="43.12669" lon="-0.22378">
        <ele>351.8</ele>
        <time>2022-09-08T08:33:33Z</time>
      </trkpt>
      <trkpt lat="43.12672" lon="-0.22383">
        <ele>351.6</ele>
        <time>2022-09-08T08:33:34Z</time>
      </trkpt>
      <trkpt lat="43.12678" lon="-0.22396">
        <ele>351</ele>
        <time>2022-09-08T08:33:36Z</time>
      </trkpt>
      <trkpt lat="43.1268" lon="-0.22403">
        <ele>350.6</ele>
        <time>2022-09-08T08:33:37Z</time>
      </trkpt>
      <trkpt lat="43.12685" lon="-0.22417">
        <ele>350</ele>
        <time>2022-09-08T08:33:39Z</time>
      </trkpt>
      <trkpt lat="43.12688" lon="-0.22425">
        <ele>350</ele>
        <time>2022-09-08T08:33:40Z</time>
      </trkpt>
      <trkpt lat="43.12699" lon="-0.22456">
        <ele>348.8</ele>
        <time>2022-09-08T08:33:44Z</time>
      </trkpt>
      <trkpt lat="43.12705" lon="-0.22472">
        <ele>348.4</ele>
        <time>2022-09-08T08:33:46Z</time>
      </trkpt>
      <trkpt lat="43.12713" lon="-0.22498">
        <ele>347.6</ele>
        <time>2022-09-08T08:33:49Z</time>
      </trkpt>
      <trkpt lat="43.12725" lon="-0.22533">
        <ele>346.6</ele>
        <time>2022-09-08T08:33:53Z</time>
      </trkpt>
      <trkpt lat="43.12736" lon="-0.2256">
        <ele>345.2</ele>
        <time>2022-09-08T08:33:56Z</time>
      </trkpt>
      <trkpt lat="43.12751" lon="-0.22597">
        <ele>344</ele>
        <time>2022-09-08T08:34:00Z</time>
      </trkpt>
      <trkpt lat="43.12763" lon="-0.22635">
        <ele>342.6</ele>
        <time>2022-09-08T08:34:04Z</time>
      </trkpt>
      <trkpt lat="43.12767" lon="-0.22652">
        <ele>340.8</ele>
        <time>2022-09-08T08:34:06Z</time>
      </trkpt>
      <trkpt lat="43.12775" lon="-0.2268">
        <ele>340</ele>
        <time>2022-09-08T08:34:09Z</time>
      </trkpt>
      <trkpt lat="43.12778" lon="-0.2269">
        <ele>339.6</ele>
        <time>2022-09-08T08:34:10Z</time>
      </trkpt>
      <trkpt lat="43.12784" lon="-0.22711">
        <ele>338.6</ele>
        <time>2022-09-08T08:34:12Z</time>
      </trkpt>
      <trkpt lat="43.12792" lon="-0.22744">
        <ele>337</ele>
        <time>2022-09-08T08:34:15Z</time>
      </trkpt>
      <trkpt lat="43.12793" lon="-0.22755">
        <ele>336.4</ele>
        <time>2022-09-08T08:34:16Z</time>
      </trkpt>
      <trkpt lat="43.1279" lon="-0.22775">
        <ele>336.2</ele>
        <time>2022-09-08T08:34:18Z</time>
      </trkpt>
      <trkpt lat="43.12786" lon="-0.22784">
        <ele>336</ele>
        <time>2022-09-08T08:34:19Z</time>
      </trkpt>
      <trkpt lat="43.12784" lon="-0.22793">
        <ele>336</ele>
        <time>2022-09-08T08:34:20Z</time>
      </trkpt>
      <trkpt lat="43.1278" lon="-0.22811">
        <ele>335.8</ele>
        <time>2022-09-08T08:34:22Z</time>
      </trkpt>
      <trkpt lat="43.12775" lon="-0.22838">
        <ele>335</ele>
        <time>2022-09-08T08:34:25Z</time>
      </trkpt>
      <trkpt lat="43.12773" lon="-0.22848">
        <ele>334.6</ele>
        <time>2022-09-08T08:34:26Z</time>
      </trkpt>
      <trkpt lat="43.12769" lon="-0.22866">
        <ele>334.2</ele>
        <time>2022-09-08T08:34:28Z</time>
      </trkpt>
      <trkpt lat="43.12764" lon="-0.22885">
        <ele>333.8</ele>
        <time>2022-09-08T08:34:30Z</time>
      </trkpt>
      <trkpt lat="43.12754" lon="-0.2294">
        <ele>333.4</ele>
        <time>2022-09-08T08:34:36Z</time>
      </trkpt>
      <trkpt lat="43.12751" lon="-0.22975">
        <ele>333.8</ele>
        <time>2022-09-08T08:34:41Z</time>
      </trkpt>
      <trkpt lat="43.12749" lon="-0.22996">
        <ele>335</ele>
        <time>2022-09-08T08:34:46Z</time>
      </trkpt>
      <trkpt lat="43.12749" lon="-0.23005">
        <ele>336.2</ele>
        <time>2022-09-08T08:34:49Z</time>
      </trkpt>
      <trkpt lat="43.12751" lon="-0.23012">
        <ele>336.6</ele>
        <time>2022-09-08T08:34:52Z</time>
      </trkpt>
      <trkpt lat="43.12759" lon="-0.23021">
        <ele>337.2</ele>
        <time>2022-09-08T08:34:59Z</time>
      </trkpt>
      <trkpt lat="43.12761" lon="-0.23035">
        <ele>336.6</ele>
        <time>2022-09-08T08:35:51Z</time>
      </trkpt>
      <trkpt lat="43.12761" lon="-0.23046">
        <ele>336.2</ele>
        <time>2022-09-08T08:35:53Z</time>
      </trkpt>
      <trkpt lat="43.12759" lon="-0.23079">
        <ele>334.6</ele>
        <time>2022-09-08T08:35:57Z</time>
      </trkpt>
      <trkpt lat="43.12755" lon="-0.23102">
        <ele>333</ele>
        <time>2022-09-08T08:35:59Z</time>
      </trkpt>
      <trkpt lat="43.12753" lon="-0.23115">
        <ele>331.2</ele>
        <time>2022-09-08T08:36:00Z</time>
      </trkpt>
      <trkpt lat="43.12753" lon="-0.23128">
        <ele>329.8</ele>
        <time>2022-09-08T08:36:01Z</time>
      </trkpt>
      <trkpt lat="43.12753" lon="-0.23141">
        <ele>328.8</ele>
        <time>2022-09-08T08:36:02Z</time>
      </trkpt>
      <trkpt lat="43.12755" lon="-0.23164">
        <ele>327.4</ele>
        <time>2022-09-08T08:36:04Z</time>
      </trkpt>
      <trkpt lat="43.12755" lon="-0.23176">
        <ele>326.8</ele>
        <time>2022-09-08T08:36:05Z</time>
      </trkpt>
      <trkpt lat="43.12754" lon="-0.23189">
        <ele>326</ele>
        <time>2022-09-08T08:36:06Z</time>
      </trkpt>
      <trkpt lat="43.1275" lon="-0.23216">
        <ele>324.6</ele>
        <time>2022-09-08T08:36:08Z</time>
      </trkpt>
      <trkpt lat="43.12746" lon="-0.23242">
        <ele>323.2</ele>
        <time>2022-09-08T08:36:10Z</time>
      </trkpt>
      <trkpt lat="43.12739" lon="-0.23267">
        <ele>322</ele>
        <time>2022-09-08T08:36:12Z</time>
      </trkpt>
      <trkpt lat="43.12735" lon="-0.23278">
        <ele>321.4</ele>
        <time>2022-09-08T08:36:13Z</time>
      </trkpt>
      <trkpt lat="43.1273" lon="-0.23288">
        <ele>320.8</ele>
        <time>2022-09-08T08:36:14Z</time>
      </trkpt>
      <trkpt lat="43.1272" lon="-0.23306">
        <ele>319.4</ele>
        <time>2022-09-08T08:36:16Z</time>
      </trkpt>
      <trkpt lat="43.12715" lon="-0.23313">
        <ele>318.8</ele>
        <time>2022-09-08T08:36:17Z</time>
      </trkpt>
      <trkpt lat="43.1271" lon="-0.23319">
        <ele>318.4</ele>
        <time>2022-09-08T08:36:18Z</time>
      </trkpt>
      <trkpt lat="43.12693" lon="-0.2333">
        <ele>318.4</ele>
        <time>2022-09-08T08:36:21Z</time>
      </trkpt>
      <trkpt lat="43.12687" lon="-0.23333">
        <ele>318.2</ele>
        <time>2022-09-08T08:36:22Z</time>
      </trkpt>
      <trkpt lat="43.1267" lon="-0.23346">
        <ele>317.8</ele>
        <time>2022-09-08T08:36:25Z</time>
      </trkpt>
      <trkpt lat="43.1266" lon="-0.23356">
        <ele>317</ele>
        <time>2022-09-08T08:36:27Z</time>
      </trkpt>
      <trkpt lat="43.12652" lon="-0.23365">
        <ele>315.8</ele>
        <time>2022-09-08T08:36:29Z</time>
      </trkpt>
      <trkpt lat="43.12645" lon="-0.23369">
        <ele>315.4</ele>
        <time>2022-09-08T08:36:31Z</time>
      </trkpt>
      <trkpt lat="43.12633" lon="-0.23367">
        <ele>314.6</ele>
        <time>2022-09-08T08:36:34Z</time>
      </trkpt>
      <trkpt lat="43.1263" lon="-0.23365">
        <ele>314</ele>
        <time>2022-09-08T08:36:35Z</time>
      </trkpt>
      <trkpt lat="43.12626" lon="-0.23362">
        <ele>313.4</ele>
        <time>2022-09-08T08:36:36Z</time>
      </trkpt>
      <trkpt lat="43.1261" lon="-0.23354">
        <ele>312</ele>
        <time>2022-09-08T08:36:39Z</time>
      </trkpt>
      <trkpt lat="43.12583" lon="-0.23344">
        <ele>310.8</ele>
        <time>2022-09-08T08:36:43Z</time>
      </trkpt>
      <trkpt lat="43.12576" lon="-0.23342">
        <ele>310.4</ele>
        <time>2022-09-08T08:36:44Z</time>
      </trkpt>
      <trkpt lat="43.1256" lon="-0.23342">
        <ele>309.6</ele>
        <time>2022-09-08T08:36:46Z</time>
      </trkpt>
      <trkpt lat="43.12547" lon="-0.2335">
        <ele>309.2</ele>
        <time>2022-09-08T08:36:48Z</time>
      </trkpt>
      <trkpt lat="43.12534" lon="-0.23366">
        <ele>309</ele>
        <time>2022-09-08T08:36:51Z</time>
      </trkpt>
      <trkpt lat="43.1253" lon="-0.23371">
        <ele>308.8</ele>
        <time>2022-09-08T08:36:52Z</time>
      </trkpt>
      <trkpt lat="43.12529" lon="-0.23377">
        <ele>308.8</ele>
        <time>2022-09-08T08:36:53Z</time>
      </trkpt>
      <trkpt lat="43.1253" lon="-0.23389">
        <ele>308.6</ele>
        <time>2022-09-08T08:36:55Z</time>
      </trkpt>
      <trkpt lat="43.12534" lon="-0.23402">
        <ele>309.2</ele>
        <time>2022-09-08T08:36:58Z</time>
      </trkpt>
      <trkpt lat="43.12536" lon="-0.23406">
        <ele>309.2</ele>
        <time>2022-09-08T08:36:59Z</time>
      </trkpt>
      <trkpt lat="43.12543" lon="-0.23426">
        <ele>310.2</ele>
        <time>2022-09-08T08:37:05Z</time>
      </trkpt>
      <trkpt lat="43.12547" lon="-0.23438">
        <ele>310.8</ele>
        <time>2022-09-08T08:37:10Z</time>
      </trkpt>
      <trkpt lat="43.12547" lon="-0.23443">
        <ele>311.4</ele>
        <time>2022-09-08T08:37:12Z</time>
      </trkpt>
      <trkpt lat="43.12546" lon="-0.23445">
        <ele>311.4</ele>
        <time>2022-09-08T08:37:13Z</time>
      </trkpt>
      <trkpt lat="43.12545" lon="-0.23452">
        <ele>312</ele>
        <time>2022-09-08T08:37:16Z</time>
      </trkpt>
      <trkpt lat="43.12545" lon="-0.23454">
        <ele>312.2</ele>
        <time>2022-09-08T08:37:17Z</time>
      </trkpt>
      <trkpt lat="43.12544" lon="-0.23459">
        <ele>313</ele>
        <time>2022-09-08T08:37:20Z</time>
      </trkpt>
      <trkpt lat="43.12544" lon="-0.23461">
        <ele>313.2</ele>
        <time>2022-09-08T08:37:21Z</time>
      </trkpt>
      <trkpt lat="43.12543" lon="-0.23469">
        <ele>314.2</ele>
        <time>2022-09-08T08:37:25Z</time>
      </trkpt>
      <trkpt lat="43.12542" lon="-0.23471">
        <ele>314.4</ele>
        <time>2022-09-08T08:37:26Z</time>
      </trkpt>
      <trkpt lat="43.12542" lon="-0.23478">
        <ele>315.2</ele>
        <time>2022-09-08T08:37:30Z</time>
      </trkpt>
      <trkpt lat="43.12541" lon="-0.23483">
        <ele>316</ele>
        <time>2022-09-08T08:37:33Z</time>
      </trkpt>
      <trkpt lat="43.1254" lon="-0.23486">
        <ele>316.4</ele>
        <time>2022-09-08T08:37:35Z</time>
      </trkpt>
      <trkpt lat="43.12538" lon="-0.23493">
        <ele>317.2</ele>
        <time>2022-09-08T08:37:39Z</time>
      </trkpt>
      <trkpt lat="43.12538" lon="-0.23495">
        <ele>317.4</ele>
        <time>2022-09-08T08:37:40Z</time>
      </trkpt>
      <trkpt lat="43.12536" lon="-0.23502">
        <ele>318.6</ele>
        <time>2022-09-08T08:37:45Z</time>
      </trkpt>
      <trkpt lat="43.12534" lon="-0.23506">
        <ele>319.2</ele>
        <time>2022-09-08T08:37:48Z</time>
      </trkpt>
      <trkpt lat="43.12533" lon="-0.23511">
        <ele>319.6</ele>
        <time>2022-09-08T08:37:51Z</time>
      </trkpt>
      <trkpt lat="43.12533" lon="-0.23512">
        <ele>319.8</ele>
        <time>2022-09-08T08:37:52Z</time>
      </trkpt>
      <trkpt lat="43.12533" lon="-0.23515">
        <ele>320.2</ele>
        <time>2022-09-08T08:37:54Z</time>
      </trkpt>
      <trkpt lat="43.12531" lon="-0.23518">
        <ele>320.8</ele>
        <time>2022-09-08T08:37:57Z</time>
      </trkpt>
      <trkpt lat="43.12531" lon="-0.23522">
        <ele>321.2</ele>
        <time>2022-09-08T08:37:59Z</time>
      </trkpt>
      <trkpt lat="43.1253" lon="-0.23526">
        <ele>322</ele>
        <time>2022-09-08T08:38:02Z</time>
      </trkpt>
      <trkpt lat="43.12529" lon="-0.23529">
        <ele>322.4</ele>
        <time>2022-09-08T08:38:04Z</time>
      </trkpt>
      <trkpt lat="43.12528" lon="-0.2353">
        <ele>322.4</ele>
        <time>2022-09-08T08:38:05Z</time>
      </trkpt>
      <trkpt lat="43.12528" lon="-0.23531">
        <ele>322.6</ele>
        <time>2022-09-08T08:38:06Z</time>
      </trkpt>
      <trkpt lat="43.12528" lon="-0.23534">
        <ele>323</ele>
        <time>2022-09-08T08:38:08Z</time>
      </trkpt>
      <trkpt lat="43.12528" lon="-0.23537">
        <ele>323.4</ele>
        <time>2022-09-08T08:38:10Z</time>
      </trkpt>
      <trkpt lat="43.12526" lon="-0.23545">
        <ele>324.2</ele>
        <time>2022-09-08T08:38:15Z</time>
      </trkpt>
      <trkpt lat="43.12524" lon="-0.23548">
        <ele>324.4</ele>
        <time>2022-09-08T08:38:17Z</time>
      </trkpt>
      <trkpt lat="43.12523" lon="-0.23553">
        <ele>325.2</ele>
        <time>2022-09-08T08:38:21Z</time>
      </trkpt>
      <trkpt lat="43.12522" lon="-0.23555">
        <ele>325.4</ele>
        <time>2022-09-08T08:38:22Z</time>
      </trkpt>
      <trkpt lat="43.12521" lon="-0.23565">
        <ele>326.4</ele>
        <time>2022-09-08T08:38:28Z</time>
      </trkpt>
      <trkpt lat="43.12521" lon="-0.23566">
        <ele>326.6</ele>
        <time>2022-09-08T08:38:29Z</time>
      </trkpt>
      <trkpt lat="43.12518" lon="-0.23575">
        <ele>327.4</ele>
        <time>2022-09-08T08:38:35Z</time>
      </trkpt>
      <trkpt lat="43.12519" lon="-0.23576">
        <ele>327.8</ele>
        <time>2022-09-08T08:38:36Z</time>
      </trkpt>
      <trkpt lat="43.12515" lon="-0.23584">
        <ele>328.4</ele>
        <time>2022-09-08T08:38:42Z</time>
      </trkpt>
      <trkpt lat="43.12515" lon="-0.23591">
        <ele>329.2</ele>
        <time>2022-09-08T08:38:47Z</time>
      </trkpt>
      <trkpt lat="43.12513" lon="-0.23596">
        <ele>329.6</ele>
        <time>2022-09-08T08:38:50Z</time>
      </trkpt>
      <trkpt lat="43.12514" lon="-0.23601">
        <ele>330.2</ele>
        <time>2022-09-08T08:38:53Z</time>
      </trkpt>
      <trkpt lat="43.12512" lon="-0.23605">
        <ele>330.6</ele>
        <time>2022-09-08T08:38:56Z</time>
      </trkpt>
      <trkpt lat="43.12512" lon="-0.23608">
        <ele>331</ele>
        <time>2022-09-08T08:38:58Z</time>
      </trkpt>
      <trkpt lat="43.12512" lon="-0.23612">
        <ele>331.4</ele>
        <time>2022-09-08T08:39:01Z</time>
      </trkpt>
      <trkpt lat="43.12512" lon="-0.23616">
        <ele>331.8</ele>
        <time>2022-09-08T08:39:03Z</time>
      </trkpt>
      <trkpt lat="43.12511" lon="-0.23617">
        <ele>332</ele>
        <time>2022-09-08T08:39:04Z</time>
      </trkpt>
      <trkpt lat="43.12509" lon="-0.2362">
        <ele>332.4</ele>
        <time>2022-09-08T08:39:06Z</time>
      </trkpt>
      <trkpt lat="43.12511" lon="-0.23624">
        <ele>333</ele>
        <time>2022-09-08T08:39:09Z</time>
      </trkpt>
      <trkpt lat="43.1251" lon="-0.23627">
        <ele>333.2</ele>
        <time>2022-09-08T08:39:11Z</time>
      </trkpt>
      <trkpt lat="43.12509" lon="-0.23632">
        <ele>334</ele>
        <time>2022-09-08T08:39:15Z</time>
      </trkpt>
      <trkpt lat="43.12509" lon="-0.23635">
        <ele>334.4</ele>
        <time>2022-09-08T08:39:17Z</time>
      </trkpt>
      <trkpt lat="43.1251" lon="-0.23636">
        <ele>334.6</ele>
        <time>2022-09-08T08:39:18Z</time>
      </trkpt>
      <trkpt lat="43.12511" lon="-0.2364">
        <ele>334.8</ele>
        <time>2022-09-08T08:39:20Z</time>
      </trkpt>
      <trkpt lat="43.1251" lon="-0.23642">
        <ele>335</ele>
        <time>2022-09-08T08:39:21Z</time>
      </trkpt>
      <trkpt lat="43.12509" lon="-0.23647">
        <ele>335.6</ele>
        <time>2022-09-08T08:39:24Z</time>
      </trkpt>
      <trkpt lat="43.12509" lon="-0.23651">
        <ele>336</ele>
        <time>2022-09-08T08:39:26Z</time>
      </trkpt>
      <trkpt lat="43.12509" lon="-0.23658">
        <ele>336.8</ele>
        <time>2022-09-08T08:39:30Z</time>
      </trkpt>
      <trkpt lat="43.12508" lon="-0.23662">
        <ele>337</ele>
        <time>2022-09-08T08:39:32Z</time>
      </trkpt>
      <trkpt lat="43.1251" lon="-0.23669">
        <ele>337.8</ele>
        <time>2022-09-08T08:39:36Z</time>
      </trkpt>
      <trkpt lat="43.1251" lon="-0.23671">
        <ele>338</ele>
        <time>2022-09-08T08:39:37Z</time>
      </trkpt>
      <trkpt lat="43.12511" lon="-0.23674">
        <ele>338.2</ele>
        <time>2022-09-08T08:39:39Z</time>
      </trkpt>
      <trkpt lat="43.12511" lon="-0.23683">
        <ele>338.8</ele>
        <time>2022-09-08T08:39:44Z</time>
      </trkpt>
      <trkpt lat="43.12511" lon="-0.23689">
        <ele>339.2</ele>
        <time>2022-09-08T08:39:47Z</time>
      </trkpt>
      <trkpt lat="43.12513" lon="-0.23697">
        <ele>339.6</ele>
        <time>2022-09-08T08:39:51Z</time>
      </trkpt>
      <trkpt lat="43.12514" lon="-0.23709">
        <ele>340.4</ele>
        <time>2022-09-08T08:39:57Z</time>
      </trkpt>
      <trkpt lat="43.12514" lon="-0.23716">
        <ele>340.8</ele>
        <time>2022-09-08T08:40:00Z</time>
      </trkpt>
      <trkpt lat="43.12517" lon="-0.23732">
        <ele>341.4</ele>
        <time>2022-09-08T08:40:07Z</time>
      </trkpt>
      <trkpt lat="43.12518" lon="-0.23734">
        <ele>341.6</ele>
        <time>2022-09-08T08:40:08Z</time>
      </trkpt>
      <trkpt lat="43.12519" lon="-0.23756">
        <ele>342.4</ele>
        <time>2022-09-08T08:40:16Z</time>
      </trkpt>
      <trkpt lat="43.12522" lon="-0.23779">
        <ele>343.2</ele>
        <time>2022-09-08T08:40:24Z</time>
      </trkpt>
      <trkpt lat="43.12522" lon="-0.23782">
        <ele>343.6</ele>
        <time>2022-09-08T08:40:25Z</time>
      </trkpt>
      <trkpt lat="43.12525" lon="-0.23806">
        <ele>344.2</ele>
        <time>2022-09-08T08:40:33Z</time>
      </trkpt>
      <trkpt lat="43.12525" lon="-0.23816">
        <ele>344.6</ele>
        <time>2022-09-08T08:40:36Z</time>
      </trkpt>
      <trkpt lat="43.12526" lon="-0.23832">
        <ele>345</ele>
        <time>2022-09-08T08:40:41Z</time>
      </trkpt>
      <trkpt lat="43.1253" lon="-0.23865">
        <ele>345.6</ele>
        <time>2022-09-08T08:40:50Z</time>
      </trkpt>
      <trkpt lat="43.12535" lon="-0.23907">
        <ele>345.6</ele>
        <time>2022-09-08T08:41:00Z</time>
      </trkpt>
      <trkpt lat="43.12541" lon="-0.23949">
        <ele>346.6</ele>
        <time>2022-09-08T08:41:10Z</time>
      </trkpt>
      <trkpt lat="43.12542" lon="-0.23953">
        <ele>346.6</ele>
        <time>2022-09-08T08:41:11Z</time>
      </trkpt>
      <trkpt lat="43.12544" lon="-0.23974">
        <ele>347.6</ele>
        <time>2022-09-08T08:41:16Z</time>
      </trkpt>
      <trkpt lat="43.12547" lon="-0.2399">
        <ele>348.2</ele>
        <time>2022-09-08T08:41:20Z</time>
      </trkpt>
      <trkpt lat="43.12548" lon="-0.23998">
        <ele>348.6</ele>
        <time>2022-09-08T08:41:22Z</time>
      </trkpt>
      <trkpt lat="43.1255" lon="-0.24017">
        <ele>349.4</ele>
        <time>2022-09-08T08:41:27Z</time>
      </trkpt>
      <trkpt lat="43.12553" lon="-0.24033">
        <ele>349.8</ele>
        <time>2022-09-08T08:41:31Z</time>
      </trkpt>
      <trkpt lat="43.12555" lon="-0.24051">
        <ele>350.4</ele>
        <time>2022-09-08T08:41:36Z</time>
      </trkpt>
      <trkpt lat="43.12556" lon="-0.24063">
        <ele>351</ele>
        <time>2022-09-08T08:41:39Z</time>
      </trkpt>
      <trkpt lat="43.12558" lon="-0.24081">
        <ele>351.2</ele>
        <time>2022-09-08T08:41:45Z</time>
      </trkpt>
      <trkpt lat="43.12557" lon="-0.24098">
        <ele>351</ele>
        <time>2022-09-08T08:41:53Z</time>
      </trkpt>
      <trkpt lat="43.12553" lon="-0.2411">
        <ele>350.4</ele>
        <time>2022-09-08T08:42:01Z</time>
      </trkpt>
      <trkpt lat="43.12548" lon="-0.2412">
        <ele>349.8</ele>
        <time>2022-09-08T08:42:04Z</time>
      </trkpt>
      <trkpt lat="43.12545" lon="-0.24131">
        <ele>349.2</ele>
        <time>2022-09-08T08:42:06Z</time>
      </trkpt>
      <trkpt lat="43.12539" lon="-0.24144">
        <ele>348.8</ele>
        <time>2022-09-08T08:42:08Z</time>
      </trkpt>
      <trkpt lat="43.12534" lon="-0.24161">
        <ele>347.8</ele>
        <time>2022-09-08T08:42:10Z</time>
      </trkpt>
      <trkpt lat="43.12531" lon="-0.24171">
        <ele>347.2</ele>
        <time>2022-09-08T08:42:11Z</time>
      </trkpt>
      <trkpt lat="43.12525" lon="-0.24193">
        <ele>346.2</ele>
        <time>2022-09-08T08:42:13Z</time>
      </trkpt>
      <trkpt lat="43.12522" lon="-0.24204">
        <ele>345.6</ele>
        <time>2022-09-08T08:42:14Z</time>
      </trkpt>
      <trkpt lat="43.12518" lon="-0.24214">
        <ele>345.2</ele>
        <time>2022-09-08T08:42:15Z</time>
      </trkpt>
      <trkpt lat="43.12504" lon="-0.24245">
        <ele>344</ele>
        <time>2022-09-08T08:42:18Z</time>
      </trkpt>
      <trkpt lat="43.12499" lon="-0.24254">
        <ele>343.8</ele>
        <time>2022-09-08T08:42:19Z</time>
      </trkpt>
      <trkpt lat="43.12474" lon="-0.24291">
        <ele>343.4</ele>
        <time>2022-09-08T08:42:24Z</time>
      </trkpt>
      <trkpt lat="43.12469" lon="-0.24303">
        <ele>343.4</ele>
        <time>2022-09-08T08:42:27Z</time>
      </trkpt>
      <trkpt lat="43.12465" lon="-0.24308">
        <ele>343</ele>
        <time>2022-09-08T08:42:30Z</time>
      </trkpt>
      <trkpt lat="43.12465" lon="-0.24308">
        <ele>342.8</ele>
        <time>2022-09-08T08:42:31Z</time>
      </trkpt>
      <trkpt lat="43.12464" lon="-0.24316">
        <ele>342.2</ele>
        <time>2022-09-08T08:43:47Z</time>
      </trkpt>
      <trkpt lat="43.12462" lon="-0.2432">
        <ele>342</ele>
        <time>2022-09-08T08:43:48Z</time>
      </trkpt>
      <trkpt lat="43.12461" lon="-0.24324">
        <ele>341.8</ele>
        <time>2022-09-08T08:43:49Z</time>
      </trkpt>
      <trkpt lat="43.12456" lon="-0.24337">
        <ele>341.2</ele>
        <time>2022-09-08T08:43:51Z</time>
      </trkpt>
      <trkpt lat="43.12452" lon="-0.24345">
        <ele>340.8</ele>
        <time>2022-09-08T08:43:52Z</time>
      </trkpt>
      <trkpt lat="43.12439" lon="-0.24373">
        <ele>339.4</ele>
        <time>2022-09-08T08:43:55Z</time>
      </trkpt>
      <trkpt lat="43.12435" lon="-0.24382">
        <ele>338.8</ele>
        <time>2022-09-08T08:43:56Z</time>
      </trkpt>
      <trkpt lat="43.12431" lon="-0.2439">
        <ele>338.2</ele>
        <time>2022-09-08T08:43:57Z</time>
      </trkpt>
      <trkpt lat="43.12413" lon="-0.24422">
        <ele>336.8</ele>
        <time>2022-09-08T08:44:01Z</time>
      </trkpt>
      <trkpt lat="43.12402" lon="-0.24439">
        <ele>335.6</ele>
        <time>2022-09-08T08:44:03Z</time>
      </trkpt>
      <trkpt lat="43.12389" lon="-0.24455">
        <ele>333.6</ele>
        <time>2022-09-08T08:44:05Z</time>
      </trkpt>
      <trkpt lat="43.12382" lon="-0.24462">
        <ele>332.8</ele>
        <time>2022-09-08T08:44:06Z</time>
      </trkpt>
      <trkpt lat="43.12375" lon="-0.24467">
        <ele>332</ele>
        <time>2022-09-08T08:44:07Z</time>
      </trkpt>
      <trkpt lat="43.12361" lon="-0.24476">
        <ele>330.8</ele>
        <time>2022-09-08T08:44:09Z</time>
      </trkpt>
      <trkpt lat="43.12356" lon="-0.24482">
        <ele>330.6</ele>
        <time>2022-09-08T08:44:10Z</time>
      </trkpt>
      <trkpt lat="43.12344" lon="-0.24503">
        <ele>330.2</ele>
        <time>2022-09-08T08:44:13Z</time>
      </trkpt>
      <trkpt lat="43.1234" lon="-0.24511">
        <ele>330</ele>
        <time>2022-09-08T08:44:14Z</time>
      </trkpt>
      <trkpt lat="43.12334" lon="-0.24517">
        <ele>329.6</ele>
        <time>2022-09-08T08:44:15Z</time>
      </trkpt>
      <trkpt lat="43.1232" lon="-0.24533">
        <ele>328.2</ele>
        <time>2022-09-08T08:44:17Z</time>
      </trkpt>
      <trkpt lat="43.12313" lon="-0.24543">
        <ele>327.4</ele>
        <time>2022-09-08T08:44:18Z</time>
      </trkpt>
      <trkpt lat="43.12305" lon="-0.24552">
        <ele>326.4</ele>
        <time>2022-09-08T08:44:19Z</time>
      </trkpt>
      <trkpt lat="43.12293" lon="-0.24573">
        <ele>324.4</ele>
        <time>2022-09-08T08:44:21Z</time>
      </trkpt>
      <trkpt lat="43.12288" lon="-0.24584">
        <ele>323.2</ele>
        <time>2022-09-08T08:44:22Z</time>
      </trkpt>
      <trkpt lat="43.1228" lon="-0.24604">
        <ele>321.6</ele>
        <time>2022-09-08T08:44:24Z</time>
      </trkpt>
      <trkpt lat="43.12269" lon="-0.24623">
        <ele>320.2</ele>
        <time>2022-09-08T08:44:26Z</time>
      </trkpt>
      <trkpt lat="43.12262" lon="-0.24631">
        <ele>319.2</ele>
        <time>2022-09-08T08:44:27Z</time>
      </trkpt>
      <trkpt lat="43.12256" lon="-0.2464">
        <ele>318.4</ele>
        <time>2022-09-08T08:44:28Z</time>
      </trkpt>
      <trkpt lat="43.12245" lon="-0.24657">
        <ele>317.4</ele>
        <time>2022-09-08T08:44:30Z</time>
      </trkpt>
      <trkpt lat="43.12232" lon="-0.24672">
        <ele>316.4</ele>
        <time>2022-09-08T08:44:32Z</time>
      </trkpt>
      <trkpt lat="43.12226" lon="-0.24679">
        <ele>315.8</ele>
        <time>2022-09-08T08:44:33Z</time>
      </trkpt>
      <trkpt lat="43.12211" lon="-0.24691">
        <ele>314.6</ele>
        <time>2022-09-08T08:44:35Z</time>
      </trkpt>
      <trkpt lat="43.12191" lon="-0.24707">
        <ele>314</ele>
        <time>2022-09-08T08:44:38Z</time>
      </trkpt>
      <trkpt lat="43.12185" lon="-0.24712">
        <ele>313.4</ele>
        <time>2022-09-08T08:44:39Z</time>
      </trkpt>
      <trkpt lat="43.12171" lon="-0.24719">
        <ele>312.4</ele>
        <time>2022-09-08T08:44:41Z</time>
      </trkpt>
      <trkpt lat="43.12159" lon="-0.24725">
        <ele>311.2</ele>
        <time>2022-09-08T08:44:43Z</time>
      </trkpt>
      <trkpt lat="43.12154" lon="-0.24729">
        <ele>310.6</ele>
        <time>2022-09-08T08:44:44Z</time>
      </trkpt>
      <trkpt lat="43.12151" lon="-0.24732">
        <ele>309.8</ele>
        <time>2022-09-08T08:44:45Z</time>
      </trkpt>
      <trkpt lat="43.12148" lon="-0.24735">
        <ele>309.2</ele>
        <time>2022-09-08T08:44:46Z</time>
      </trkpt>
      <trkpt lat="43.12145" lon="-0.24739">
        <ele>308.6</ele>
        <time>2022-09-08T08:44:48Z</time>
      </trkpt>
      <trkpt lat="43.12143" lon="-0.24741">
        <ele>307.8</ele>
        <time>2022-09-08T08:44:50Z</time>
      </trkpt>
      <trkpt lat="43.12144" lon="-0.24741">
        <ele>307.6</ele>
        <time>2022-09-08T08:44:51Z</time>
      </trkpt>
      <trkpt lat="43.12156" lon="-0.24734">
        <ele>308.4</ele>
        <time>2022-09-08T08:45:52Z</time>
      </trkpt>
      <trkpt lat="43.12158" lon="-0.24733">
        <ele>308.4</ele>
        <time>2022-09-08T08:45:53Z</time>
      </trkpt>
      <trkpt lat="43.1217" lon="-0.24729">
        <ele>307.6</ele>
        <time>2022-09-08T08:45:58Z</time>
      </trkpt>
      <trkpt lat="43.12172" lon="-0.24728">
        <ele>307.6</ele>
        <time>2022-09-08T08:45:59Z</time>
      </trkpt>
      <trkpt lat="43.12187" lon="-0.24716">
        <ele>306.8</ele>
        <time>2022-09-08T08:46:04Z</time>
      </trkpt>
      <trkpt lat="43.12194" lon="-0.2471">
        <ele>306.4</ele>
        <time>2022-09-08T08:46:06Z</time>
      </trkpt>
      <trkpt lat="43.12209" lon="-0.24696">
        <ele>306</ele>
        <time>2022-09-08T08:46:10Z</time>
      </trkpt>
      <trkpt lat="43.1223" lon="-0.24678">
        <ele>305.4</ele>
        <time>2022-09-08T08:46:16Z</time>
      </trkpt>
      <trkpt lat="43.12251" lon="-0.24659">
        <ele>305</ele>
        <time>2022-09-08T08:46:23Z</time>
      </trkpt>
      <trkpt lat="43.12256" lon="-0.24654">
        <ele>304.2</ele>
        <time>2022-09-08T08:46:25Z</time>
      </trkpt>
      <trkpt lat="43.12269" lon="-0.24645">
        <ele>303.4</ele>
        <time>2022-09-08T08:46:29Z</time>
      </trkpt>
      <trkpt lat="43.12276" lon="-0.24642">
        <ele>303.2</ele>
        <time>2022-09-08T08:46:31Z</time>
      </trkpt>
      <trkpt lat="43.12294" lon="-0.24642">
        <ele>302</ele>
        <time>2022-09-08T08:46:35Z</time>
      </trkpt>
      <trkpt lat="43.12323" lon="-0.24648">
        <ele>301.6</ele>
        <time>2022-09-08T08:46:38Z</time>
      </trkpt>
      <trkpt lat="43.12351" lon="-0.24661">
        <ele>300.8</ele>
        <time>2022-09-08T08:46:42Z</time>
      </trkpt>
      <trkpt lat="43.12356" lon="-0.24665">
        <ele>300.6</ele>
        <time>2022-09-08T08:46:43Z</time>
      </trkpt>
      <trkpt lat="43.12373" lon="-0.24676">
        <ele>300</ele>
        <time>2022-09-08T08:46:46Z</time>
      </trkpt>
      <trkpt lat="43.12397" lon="-0.24688">
        <ele>300.2</ele>
        <time>2022-09-08T08:46:49Z</time>
      </trkpt>
      <trkpt lat="43.12408" lon="-0.24701">
        <ele>299.6</ele>
        <time>2022-09-08T08:46:52Z</time>
      </trkpt>
      <trkpt lat="43.12409" lon="-0.24706">
        <ele>299.2</ele>
        <time>2022-09-08T08:46:53Z</time>
      </trkpt>
      <trkpt lat="43.12419" lon="-0.24724">
        <ele>299</ele>
        <time>2022-09-08T08:46:56Z</time>
      </trkpt>
      <trkpt lat="43.12421" lon="-0.24731">
        <ele>298.6</ele>
        <time>2022-09-08T08:46:57Z</time>
      </trkpt>
      <trkpt lat="43.12428" lon="-0.24758">
        <ele>298.4</ele>
        <time>2022-09-08T08:47:01Z</time>
      </trkpt>
      <trkpt lat="43.1243" lon="-0.24766">
        <ele>298.4</ele>
        <time>2022-09-08T08:47:02Z</time>
      </trkpt>
      <trkpt lat="43.12438" lon="-0.24792">
        <ele>298.2</ele>
        <time>2022-09-08T08:47:07Z</time>
      </trkpt>
      <trkpt lat="43.12449" lon="-0.24825">
        <ele>298.2</ele>
        <time>2022-09-08T08:47:14Z</time>
      </trkpt>
      <trkpt lat="43.12458" lon="-0.24848">
        <ele>298.6</ele>
        <time>2022-09-08T08:47:20Z</time>
      </trkpt>
      <trkpt lat="43.12472" lon="-0.24874">
        <ele>299.2</ele>
        <time>2022-09-08T08:47:28Z</time>
      </trkpt>
      <trkpt lat="43.1248" lon="-0.24883">
        <ele>299.2</ele>
        <time>2022-09-08T08:47:32Z</time>
      </trkpt>
      <trkpt lat="43.12488" lon="-0.2489">
        <ele>299.2</ele>
        <time>2022-09-08T08:47:36Z</time>
      </trkpt>
      <trkpt lat="43.12501" lon="-0.249">
        <ele>299</ele>
        <time>2022-09-08T08:47:41Z</time>
      </trkpt>
      <trkpt lat="43.1252" lon="-0.24909">
        <ele>299</ele>
        <time>2022-09-08T08:47:48Z</time>
      </trkpt>
      <trkpt lat="43.12535" lon="-0.24914">
        <ele>299.2</ele>
        <time>2022-09-08T08:47:52Z</time>
      </trkpt>
      <trkpt lat="43.12562" lon="-0.24917">
        <ele>299</ele>
        <time>2022-09-08T08:47:59Z</time>
      </trkpt>
      <trkpt lat="43.12582" lon="-0.24919">
        <ele>299.2</ele>
        <time>2022-09-08T08:48:05Z</time>
      </trkpt>
      <trkpt lat="43.12603" lon="-0.24921">
        <ele>298.8</ele>
        <time>2022-09-08T08:48:11Z</time>
      </trkpt>
      <trkpt lat="43.12616" lon="-0.24923">
        <ele>298.4</ele>
        <time>2022-09-08T08:48:14Z</time>
      </trkpt>
      <trkpt lat="43.12626" lon="-0.24923">
        <ele>298</ele>
        <time>2022-09-08T08:48:16Z</time>
      </trkpt>
      <trkpt lat="43.12658" lon="-0.24924">
        <ele>298</ele>
        <time>2022-09-08T08:48:23Z</time>
      </trkpt>
      <trkpt lat="43.12679" lon="-0.24924">
        <ele>297.6</ele>
        <time>2022-09-08T08:48:28Z</time>
      </trkpt>
      <trkpt lat="43.12687" lon="-0.24924">
        <ele>297.6</ele>
        <time>2022-09-08T08:48:30Z</time>
      </trkpt>
      <trkpt lat="43.12712" lon="-0.24923">
        <ele>298</ele>
        <time>2022-09-08T08:48:36Z</time>
      </trkpt>
      <trkpt lat="43.12738" lon="-0.24924">
        <ele>298.2</ele>
        <time>2022-09-08T08:48:43Z</time>
      </trkpt>
      <trkpt lat="43.12769" lon="-0.24924">
        <ele>297.8</ele>
        <time>2022-09-08T08:48:51Z</time>
      </trkpt>
      <trkpt lat="43.12787" lon="-0.24926">
        <ele>297.4</ele>
        <time>2022-09-08T08:48:57Z</time>
      </trkpt>
      <trkpt lat="43.1281" lon="-0.2493">
        <ele>296.6</ele>
        <time>2022-09-08T08:49:32Z</time>
      </trkpt>
      <trkpt lat="43.12812" lon="-0.2493">
        <ele>296.6</ele>
        <time>2022-09-08T08:49:33Z</time>
      </trkpt>
      <trkpt lat="43.12817" lon="-0.2493">
        <ele>296.4</ele>
        <time>2022-09-08T08:49:35Z</time>
      </trkpt>
      <trkpt lat="43.12831" lon="-0.24927">
        <ele>296.2</ele>
        <time>2022-09-08T08:49:41Z</time>
      </trkpt>
      <trkpt lat="43.12847" lon="-0.24929">
        <ele>296</ele>
        <time>2022-09-08T08:49:47Z</time>
      </trkpt>
      <trkpt lat="43.12861" lon="-0.24929">
        <ele>295.4</ele>
        <time>2022-09-08T08:49:51Z</time>
      </trkpt>
      <trkpt lat="43.12867" lon="-0.24928">
        <ele>295.2</ele>
        <time>2022-09-08T08:49:53Z</time>
      </trkpt>
      <trkpt lat="43.12884" lon="-0.2493">
        <ele>294.8</ele>
        <time>2022-09-08T08:49:58Z</time>
      </trkpt>
      <trkpt lat="43.12906" lon="-0.2493">
        <ele>294.6</ele>
        <time>2022-09-08T08:50:04Z</time>
      </trkpt>
      <trkpt lat="43.12924" lon="-0.24931">
        <ele>294.8</ele>
        <time>2022-09-08T08:50:10Z</time>
      </trkpt>
      <trkpt lat="43.12938" lon="-0.2493">
        <ele>295</ele>
        <time>2022-09-08T08:50:15Z</time>
      </trkpt>
      <trkpt lat="43.12957" lon="-0.24932">
        <ele>295</ele>
        <time>2022-09-08T08:50:20Z</time>
      </trkpt>
      <trkpt lat="43.1298" lon="-0.2493">
        <ele>294.8</ele>
        <time>2022-09-08T08:50:25Z</time>
      </trkpt>
      <trkpt lat="43.13004" lon="-0.24929">
        <ele>295</ele>
        <time>2022-09-08T08:50:31Z</time>
      </trkpt>
      <trkpt lat="43.13029" lon="-0.24926">
        <ele>295</ele>
        <time>2022-09-08T08:50:37Z</time>
      </trkpt>
      <trkpt lat="43.13055" lon="-0.2492">
        <ele>295.2</ele>
        <time>2022-09-08T08:50:44Z</time>
      </trkpt>
      <trkpt lat="43.13075" lon="-0.24918">
        <ele>295.2</ele>
        <time>2022-09-08T08:50:50Z</time>
      </trkpt>
      <trkpt lat="43.13092" lon="-0.24917">
        <ele>295</ele>
        <time>2022-09-08T08:50:55Z</time>
      </trkpt>
      <trkpt lat="43.1312" lon="-0.24915">
        <ele>295</ele>
        <time>2022-09-08T08:51:03Z</time>
      </trkpt>
      <trkpt lat="43.13143" lon="-0.2491">
        <ele>295.4</ele>
        <time>2022-09-08T08:51:09Z</time>
      </trkpt>
      <trkpt lat="43.13167" lon="-0.24906">
        <ele>295.6</ele>
        <time>2022-09-08T08:51:15Z</time>
      </trkpt>
      <trkpt lat="43.13189" lon="-0.24903">
        <ele>295.6</ele>
        <time>2022-09-08T08:51:21Z</time>
      </trkpt>
      <trkpt lat="43.13209" lon="-0.249">
        <ele>295.4</ele>
        <time>2022-09-08T08:51:26Z</time>
      </trkpt>
      <trkpt lat="43.13232" lon="-0.24898">
        <ele>295</ele>
        <time>2022-09-08T08:51:32Z</time>
      </trkpt>
      <trkpt lat="43.13255" lon="-0.24898">
        <ele>294.2</ele>
        <time>2022-09-08T08:51:37Z</time>
      </trkpt>
      <trkpt lat="43.13285" lon="-0.24892">
        <ele>293.8</ele>
        <time>2022-09-08T08:51:44Z</time>
      </trkpt>
      <trkpt lat="43.13313" lon="-0.2489">
        <ele>293.4</ele>
        <time>2022-09-08T08:51:50Z</time>
      </trkpt>
      <trkpt lat="43.13339" lon="-0.24891">
        <ele>293.2</ele>
        <time>2022-09-08T08:51:56Z</time>
      </trkpt>
      <trkpt lat="43.13359" lon="-0.24893">
        <ele>293.4</ele>
        <time>2022-09-08T08:52:01Z</time>
      </trkpt>
      <trkpt lat="43.13382" lon="-0.24895">
        <ele>293.6</ele>
        <time>2022-09-08T08:52:07Z</time>
      </trkpt>
      <trkpt lat="43.13404" lon="-0.24897">
        <ele>294.2</ele>
        <time>2022-09-08T08:52:13Z</time>
      </trkpt>
      <trkpt lat="43.13427" lon="-0.24899">
        <ele>293.8</ele>
        <time>2022-09-08T08:52:19Z</time>
      </trkpt>
      <trkpt lat="43.13455" lon="-0.24902">
        <ele>293.8</ele>
        <time>2022-09-08T08:52:26Z</time>
      </trkpt>
      <trkpt lat="43.13479" lon="-0.24902">
        <ele>293.6</ele>
        <time>2022-09-08T08:52:32Z</time>
      </trkpt>
      <trkpt lat="43.1349" lon="-0.24903">
        <ele>293.2</ele>
        <time>2022-09-08T08:52:35Z</time>
      </trkpt>
      <trkpt lat="43.13501" lon="-0.24904">
        <ele>293</ele>
        <time>2022-09-08T08:52:38Z</time>
      </trkpt>
      <trkpt lat="43.13521" lon="-0.24908">
        <ele>293</ele>
        <time>2022-09-08T08:52:43Z</time>
      </trkpt>
      <trkpt lat="43.13532" lon="-0.24913">
        <ele>292.8</ele>
        <time>2022-09-08T08:52:46Z</time>
      </trkpt>
      <trkpt lat="43.13541" lon="-0.24917">
        <ele>292.6</ele>
        <time>2022-09-08T08:52:48Z</time>
      </trkpt>
      <trkpt lat="43.13572" lon="-0.24932">
        <ele>292.2</ele>
        <time>2022-09-08T08:52:55Z</time>
      </trkpt>
      <trkpt lat="43.13601" lon="-0.24946">
        <ele>292</ele>
        <time>2022-09-08T08:53:02Z</time>
      </trkpt>
      <trkpt lat="43.13624" lon="-0.24956">
        <ele>291.8</ele>
        <time>2022-09-08T08:53:07Z</time>
      </trkpt>
      <trkpt lat="43.13633" lon="-0.24959">
        <ele>291.6</ele>
        <time>2022-09-08T08:53:09Z</time>
      </trkpt>
      <trkpt lat="43.13642" lon="-0.24962">
        <ele>291.4</ele>
        <time>2022-09-08T08:53:11Z</time>
      </trkpt>
      <trkpt lat="43.13657" lon="-0.24964">
        <ele>290.6</ele>
        <time>2022-09-08T08:53:14Z</time>
      </trkpt>
      <trkpt lat="43.13663" lon="-0.24964">
        <ele>290.6</ele>
        <time>2022-09-08T08:53:15Z</time>
      </trkpt>
      <trkpt lat="43.13686" lon="-0.2496">
        <ele>289.6</ele>
        <time>2022-09-08T08:53:19Z</time>
      </trkpt>
      <trkpt lat="43.13703" lon="-0.24954">
        <ele>289</ele>
        <time>2022-09-08T08:53:22Z</time>
      </trkpt>
      <trkpt lat="43.1372" lon="-0.24948">
        <ele>288.4</ele>
        <time>2022-09-08T08:53:25Z</time>
      </trkpt>
      <trkpt lat="43.1374" lon="-0.24939">
        <ele>287.4</ele>
        <time>2022-09-08T08:53:29Z</time>
      </trkpt>
      <trkpt lat="43.13774" lon="-0.24928">
        <ele>286.6</ele>
        <time>2022-09-08T08:53:35Z</time>
      </trkpt>
      <trkpt lat="43.1378" lon="-0.24927">
        <ele>286.4</ele>
        <time>2022-09-08T08:53:36Z</time>
      </trkpt>
      <trkpt lat="43.13791" lon="-0.24924">
        <ele>286.2</ele>
        <time>2022-09-08T08:53:38Z</time>
      </trkpt>
      <trkpt lat="43.13801" lon="-0.24923">
        <ele>286.2</ele>
        <time>2022-09-08T08:53:40Z</time>
      </trkpt>
      <trkpt lat="43.13818" lon="-0.24923">
        <ele>285.8</ele>
        <time>2022-09-08T08:53:43Z</time>
      </trkpt>
      <trkpt lat="43.13833" lon="-0.24924">
        <ele>285.6</ele>
        <time>2022-09-08T08:53:46Z</time>
      </trkpt>
      <trkpt lat="43.13838" lon="-0.24925">
        <ele>285.6</ele>
        <time>2022-09-08T08:53:47Z</time>
      </trkpt>
      <trkpt lat="43.13852" lon="-0.24927">
        <ele>285.4</ele>
        <time>2022-09-08T08:53:50Z</time>
      </trkpt>
      <trkpt lat="43.13856" lon="-0.24928">
        <ele>285.4</ele>
        <time>2022-09-08T08:53:51Z</time>
      </trkpt>
      <trkpt lat="43.1387" lon="-0.24933">
        <ele>285.2</ele>
        <time>2022-09-08T08:53:54Z</time>
      </trkpt>
      <trkpt lat="43.1388" lon="-0.24938">
        <ele>285</ele>
        <time>2022-09-08T08:53:56Z</time>
      </trkpt>
      <trkpt lat="43.13907" lon="-0.24955">
        <ele>284.2</ele>
        <time>2022-09-08T08:54:02Z</time>
      </trkpt>
      <trkpt lat="43.13912" lon="-0.24958">
        <ele>284.2</ele>
        <time>2022-09-08T08:54:03Z</time>
      </trkpt>
      <trkpt lat="43.13939" lon="-0.2498">
        <ele>284</ele>
        <time>2022-09-08T08:54:09Z</time>
      </trkpt>
      <trkpt lat="43.13966" lon="-0.25004">
        <ele>283.6</ele>
        <time>2022-09-08T08:54:16Z</time>
      </trkpt>
      <trkpt lat="43.13989" lon="-0.2503">
        <ele>283.6</ele>
        <time>2022-09-08T08:54:24Z</time>
      </trkpt>
      <trkpt lat="43.14005" lon="-0.25045">
        <ele>283.2</ele>
        <time>2022-09-08T08:54:30Z</time>
      </trkpt>
      <trkpt lat="43.14019" lon="-0.25051">
        <ele>283.2</ele>
        <time>2022-09-08T08:54:34Z</time>
      </trkpt>
      <trkpt lat="43.1403" lon="-0.25054">
        <ele>283.2</ele>
        <time>2022-09-08T08:54:37Z</time>
      </trkpt>
      <trkpt lat="43.14054" lon="-0.25051">
        <ele>283</ele>
        <time>2022-09-08T08:54:44Z</time>
      </trkpt>
      <trkpt lat="43.14063" lon="-0.25043">
        <ele>283.6</ele>
        <time>2022-09-08T08:54:49Z</time>
      </trkpt>
      <trkpt lat="43.14069" lon="-0.25044">
        <ele>284</ele>
        <time>2022-09-08T08:55:31Z</time>
      </trkpt>
      <trkpt lat="43.1407" lon="-0.25048">
        <ele>284</ele>
        <time>2022-09-08T08:55:32Z</time>
      </trkpt>
      <trkpt lat="43.1407" lon="-0.25052">
        <ele>284.2</ele>
        <time>2022-09-08T08:55:33Z</time>
      </trkpt>
      <trkpt lat="43.1407" lon="-0.25057">
        <ele>284.2</ele>
        <time>2022-09-08T08:55:34Z</time>
      </trkpt>
      <trkpt lat="43.14068" lon="-0.25068">
        <ele>283.8</ele>
        <time>2022-09-08T08:55:36Z</time>
      </trkpt>
      <trkpt lat="43.14066" lon="-0.25097">
        <ele>283.8</ele>
        <time>2022-09-08T08:55:41Z</time>
      </trkpt>
      <trkpt lat="43.14061" lon="-0.25144">
        <ele>283.4</ele>
        <time>2022-09-08T08:55:49Z</time>
      </trkpt>
      <trkpt lat="43.14059" lon="-0.25191">
        <ele>283.2</ele>
        <time>2022-09-08T08:55:56Z</time>
      </trkpt>
      <trkpt lat="43.14059" lon="-0.25198">
        <ele>283.2</ele>
        <time>2022-09-08T08:55:57Z</time>
      </trkpt>
      <trkpt lat="43.14059" lon="-0.25244">
        <ele>283.4</ele>
        <time>2022-09-08T08:56:04Z</time>
      </trkpt>
      <trkpt lat="43.14059" lon="-0.2527">
        <ele>284.4</ele>
        <time>2022-09-08T08:56:09Z</time>
      </trkpt>
      <trkpt lat="43.14059" lon="-0.25278">
        <ele>285</ele>
        <time>2022-09-08T08:56:11Z</time>
      </trkpt>
      <trkpt lat="43.14059" lon="-0.25285">
        <ele>285.4</ele>
        <time>2022-09-08T08:56:13Z</time>
      </trkpt>
      <trkpt lat="43.14061" lon="-0.25299">
        <ele>286.6</ele>
        <time>2022-09-08T08:56:18Z</time>
      </trkpt>
      <trkpt lat="43.14061" lon="-0.25302">
        <ele>286.8</ele>
        <time>2022-09-08T08:56:19Z</time>
      </trkpt>
      <trkpt lat="43.14063" lon="-0.25313">
        <ele>287.8</ele>
        <time>2022-09-08T08:56:24Z</time>
      </trkpt>
      <trkpt lat="43.14064" lon="-0.25318">
        <ele>288.4</ele>
        <time>2022-09-08T08:56:26Z</time>
      </trkpt>
      <trkpt lat="43.14065" lon="-0.25322">
        <ele>289</ele>
        <time>2022-09-08T08:56:28Z</time>
      </trkpt>
      <trkpt lat="43.14068" lon="-0.25334">
        <ele>290</ele>
        <time>2022-09-08T08:56:33Z</time>
      </trkpt>
      <trkpt lat="43.1407" lon="-0.25344">
        <ele>291.2</ele>
        <time>2022-09-08T08:56:38Z</time>
      </trkpt>
      <trkpt lat="43.14072" lon="-0.25357">
        <ele>292.2</ele>
        <time>2022-09-08T08:56:44Z</time>
      </trkpt>
      <trkpt lat="43.14074" lon="-0.2537">
        <ele>293.4</ele>
        <time>2022-09-08T08:56:50Z</time>
      </trkpt>
      <trkpt lat="43.14074" lon="-0.25375">
        <ele>293.8</ele>
        <time>2022-09-08T08:56:52Z</time>
      </trkpt>
      <trkpt lat="43.14072" lon="-0.25388">
        <ele>294.6</ele>
        <time>2022-09-08T08:56:58Z</time>
      </trkpt>
      <trkpt lat="43.14071" lon="-0.2539">
        <ele>294.8</ele>
        <time>2022-09-08T08:56:59Z</time>
      </trkpt>
      <trkpt lat="43.14068" lon="-0.25401">
        <ele>295.6</ele>
        <time>2022-09-08T08:57:05Z</time>
      </trkpt>
      <trkpt lat="43.14066" lon="-0.25407">
        <ele>296.2</ele>
        <time>2022-09-08T08:57:08Z</time>
      </trkpt>
      <trkpt lat="43.14063" lon="-0.25415">
        <ele>296.8</ele>
        <time>2022-09-08T08:57:12Z</time>
      </trkpt>
      <trkpt lat="43.14059" lon="-0.25426">
        <ele>298</ele>
        <time>2022-09-08T08:57:18Z</time>
      </trkpt>
      <trkpt lat="43.14054" lon="-0.2544">
        <ele>299</ele>
        <time>2022-09-08T08:57:25Z</time>
      </trkpt>
      <trkpt lat="43.14052" lon="-0.25447">
        <ele>299.6</ele>
        <time>2022-09-08T08:57:29Z</time>
      </trkpt>
      <trkpt lat="43.14049" lon="-0.25453">
        <ele>300</ele>
        <time>2022-09-08T08:57:32Z</time>
      </trkpt>
      <trkpt lat="43.14046" lon="-0.25463">
        <ele>300.8</ele>
        <time>2022-09-08T08:57:37Z</time>
      </trkpt>
      <trkpt lat="43.14045" lon="-0.25468">
        <ele>301.2</ele>
        <time>2022-09-08T08:57:39Z</time>
      </trkpt>
      <trkpt lat="43.14041" lon="-0.25478">
        <ele>302</ele>
        <time>2022-09-08T08:57:44Z</time>
      </trkpt>
      <trkpt lat="43.14036" lon="-0.25487">
        <ele>302.2</ele>
        <time>2022-09-08T08:57:48Z</time>
      </trkpt>
      <trkpt lat="43.14033" lon="-0.25494">
        <ele>302.6</ele>
        <time>2022-09-08T08:57:51Z</time>
      </trkpt>
      <trkpt lat="43.14024" lon="-0.25508">
        <ele>303.2</ele>
        <time>2022-09-08T08:57:58Z</time>
      </trkpt>
      <trkpt lat="43.14021" lon="-0.25513">
        <ele>303.4</ele>
        <time>2022-09-08T08:58:00Z</time>
      </trkpt>
      <trkpt lat="43.14008" lon="-0.25536">
        <ele>304.2</ele>
        <time>2022-09-08T08:58:09Z</time>
      </trkpt>
      <trkpt lat="43.14006" lon="-0.25542">
        <ele>304.4</ele>
        <time>2022-09-08T08:58:11Z</time>
      </trkpt>
      <trkpt lat="43.13994" lon="-0.2556">
        <ele>305</ele>
        <time>2022-09-08T08:58:18Z</time>
      </trkpt>
      <trkpt lat="43.13988" lon="-0.25572">
        <ele>305.4</ele>
        <time>2022-09-08T08:58:22Z</time>
      </trkpt>
      <trkpt lat="43.13983" lon="-0.2558">
        <ele>306</ele>
        <time>2022-09-08T08:58:25Z</time>
      </trkpt>
      <trkpt lat="43.1398" lon="-0.25585">
        <ele>306.4</ele>
        <time>2022-09-08T08:58:27Z</time>
      </trkpt>
      <trkpt lat="43.13969" lon="-0.25606">
        <ele>307.2</ele>
        <time>2022-09-08T08:58:34Z</time>
      </trkpt>
      <trkpt lat="43.13966" lon="-0.25613">
        <ele>307.4</ele>
        <time>2022-09-08T08:58:36Z</time>
      </trkpt>
      <trkpt lat="43.13964" lon="-0.25616">
        <ele>307.6</ele>
        <time>2022-09-08T08:58:37Z</time>
      </trkpt>
      <trkpt lat="43.13949" lon="-0.25643">
        <ele>308.6</ele>
        <time>2022-09-08T08:58:46Z</time>
      </trkpt>
      <trkpt lat="43.1394" lon="-0.25666">
        <ele>309.4</ele>
        <time>2022-09-08T08:58:53Z</time>
      </trkpt>
      <trkpt lat="43.13938" lon="-0.25677">
        <ele>309.6</ele>
        <time>2022-09-08T08:58:56Z</time>
      </trkpt>
      <trkpt lat="43.13934" lon="-0.25687">
        <ele>310</ele>
        <time>2022-09-08T08:58:59Z</time>
      </trkpt>
      <trkpt lat="43.13921" lon="-0.25698">
        <ele>310.2</ele>
        <time>2022-09-08T08:59:04Z</time>
      </trkpt>
      <trkpt lat="43.13904" lon="-0.25719">
        <ele>310.8</ele>
        <time>2022-09-08T08:59:11Z</time>
      </trkpt>
      <trkpt lat="43.13901" lon="-0.25726">
        <ele>311</ele>
        <time>2022-09-08T08:59:13Z</time>
      </trkpt>
      <trkpt lat="43.13885" lon="-0.25753">
        <ele>311.8</ele>
        <time>2022-09-08T08:59:21Z</time>
      </trkpt>
      <trkpt lat="43.13872" lon="-0.25787">
        <ele>312.8</ele>
        <time>2022-09-08T08:59:30Z</time>
      </trkpt>
      <trkpt lat="43.13865" lon="-0.25819">
        <ele>313.8</ele>
        <time>2022-09-08T08:59:38Z</time>
      </trkpt>
      <trkpt lat="43.13863" lon="-0.25832">
        <ele>314</ele>
        <time>2022-09-08T08:59:41Z</time>
      </trkpt>
      <trkpt lat="43.1386" lon="-0.25849">
        <ele>314.4</ele>
        <time>2022-09-08T08:59:45Z</time>
      </trkpt>
      <trkpt lat="43.13857" lon="-0.25867">
        <ele>314.4</ele>
        <time>2022-09-08T08:59:49Z</time>
      </trkpt>
      <trkpt lat="43.13854" lon="-0.2589">
        <ele>315</ele>
        <time>2022-09-08T08:59:54Z</time>
      </trkpt>
      <trkpt lat="43.13851" lon="-0.25909">
        <ele>315.2</ele>
        <time>2022-09-08T08:59:58Z</time>
      </trkpt>
      <trkpt lat="43.13842" lon="-0.25952">
        <ele>316</ele>
        <time>2022-09-08T09:00:07Z</time>
      </trkpt>
      <trkpt lat="43.13837" lon="-0.25977">
        <ele>316</ele>
        <time>2022-09-08T09:00:12Z</time>
      </trkpt>
      <trkpt lat="43.13835" lon="-0.25992">
        <ele>316.2</ele>
        <time>2022-09-08T09:00:15Z</time>
      </trkpt>
      <trkpt lat="43.13835" lon="-0.2601">
        <ele>316.2</ele>
        <time>2022-09-08T09:00:18Z</time>
      </trkpt>
      <trkpt lat="43.13832" lon="-0.26021">
        <ele>316.2</ele>
        <time>2022-09-08T09:00:20Z</time>
      </trkpt>
      <trkpt lat="43.13822" lon="-0.26034">
        <ele>316</ele>
        <time>2022-09-08T09:00:24Z</time>
      </trkpt>
      <trkpt lat="43.13819" lon="-0.26037">
        <ele>315.8</ele>
        <time>2022-09-08T09:00:25Z</time>
      </trkpt>
      <trkpt lat="43.13811" lon="-0.26057">
        <ele>315.8</ele>
        <time>2022-09-08T09:00:30Z</time>
      </trkpt>
      <trkpt lat="43.138" lon="-0.26092">
        <ele>316</ele>
        <time>2022-09-08T09:00:38Z</time>
      </trkpt>
      <trkpt lat="43.13789" lon="-0.26132">
        <ele>316</ele>
        <time>2022-09-08T09:00:46Z</time>
      </trkpt>
      <trkpt lat="43.13776" lon="-0.26173">
        <ele>316.2</ele>
        <time>2022-09-08T09:00:54Z</time>
      </trkpt>
      <trkpt lat="43.13757" lon="-0.26215">
        <ele>316.8</ele>
        <time>2022-09-08T09:01:03Z</time>
      </trkpt>
      <trkpt lat="43.13733" lon="-0.26261">
        <ele>317</ele>
        <time>2022-09-08T09:01:13Z</time>
      </trkpt>
      <trkpt lat="43.13731" lon="-0.26265">
        <ele>317.2</ele>
        <time>2022-09-08T09:01:14Z</time>
      </trkpt>
      <trkpt lat="43.13715" lon="-0.2629">
        <ele>317.2</ele>
        <time>2022-09-08T09:01:20Z</time>
      </trkpt>
      <trkpt lat="43.13689" lon="-0.26326">
        <ele>317.4</ele>
        <time>2022-09-08T09:01:29Z</time>
      </trkpt>
      <trkpt lat="43.13659" lon="-0.26355">
        <ele>318.2</ele>
        <time>2022-09-08T09:01:38Z</time>
      </trkpt>
      <trkpt lat="43.13656" lon="-0.26357">
        <ele>318.4</ele>
        <time>2022-09-08T09:01:39Z</time>
      </trkpt>
      <trkpt lat="43.13634" lon="-0.26373">
        <ele>319.4</ele>
        <time>2022-09-08T09:01:45Z</time>
      </trkpt>
      <trkpt lat="43.13631" lon="-0.26376">
        <ele>319.6</ele>
        <time>2022-09-08T09:01:46Z</time>
      </trkpt>
      <trkpt lat="43.13602" lon="-0.26399">
        <ele>320.4</ele>
        <time>2022-09-08T09:01:55Z</time>
      </trkpt>
      <trkpt lat="43.1357" lon="-0.26421">
        <ele>321.2</ele>
        <time>2022-09-08T09:02:04Z</time>
      </trkpt>
      <trkpt lat="43.13552" lon="-0.26434">
        <ele>321.6</ele>
        <time>2022-09-08T09:02:09Z</time>
      </trkpt>
      <trkpt lat="43.13541" lon="-0.26442">
        <ele>321.8</ele>
        <time>2022-09-08T09:02:12Z</time>
      </trkpt>
      <trkpt lat="43.13538" lon="-0.26446">
        <ele>321.8</ele>
        <time>2022-09-08T09:02:13Z</time>
      </trkpt>
      <trkpt lat="43.13527" lon="-0.26463">
        <ele>322</ele>
        <time>2022-09-08T09:02:17Z</time>
      </trkpt>
      <trkpt lat="43.13525" lon="-0.26468">
        <ele>322</ele>
        <time>2022-09-08T09:02:18Z</time>
      </trkpt>
      <trkpt lat="43.13523" lon="-0.26473">
        <ele>322</ele>
        <time>2022-09-08T09:02:19Z</time>
      </trkpt>
      <trkpt lat="43.13514" lon="-0.26498">
        <ele>322</ele>
        <time>2022-09-08T09:02:24Z</time>
      </trkpt>
      <trkpt lat="43.13502" lon="-0.26539">
        <ele>322.6</ele>
        <time>2022-09-08T09:02:32Z</time>
      </trkpt>
      <trkpt lat="43.13495" lon="-0.2656">
        <ele>323</ele>
        <time>2022-09-08T09:02:36Z</time>
      </trkpt>
      <trkpt lat="43.13492" lon="-0.26571">
        <ele>323.2</ele>
        <time>2022-09-08T09:02:38Z</time>
      </trkpt>
      <trkpt lat="43.1348" lon="-0.26601">
        <ele>323.6</ele>
        <time>2022-09-08T09:02:44Z</time>
      </trkpt>
      <trkpt lat="43.13475" lon="-0.26611">
        <ele>323.8</ele>
        <time>2022-09-08T09:02:46Z</time>
      </trkpt>
      <trkpt lat="43.13468" lon="-0.26632">
        <ele>324.4</ele>
        <time>2022-09-08T09:02:50Z</time>
      </trkpt>
      <trkpt lat="43.13466" lon="-0.26637">
        <ele>324.8</ele>
        <time>2022-09-08T09:02:51Z</time>
      </trkpt>
      <trkpt lat="43.13459" lon="-0.26653">
        <ele>325.2</ele>
        <time>2022-09-08T09:02:54Z</time>
      </trkpt>
      <trkpt lat="43.13448" lon="-0.26681">
        <ele>325.8</ele>
        <time>2022-09-08T09:03:00Z</time>
      </trkpt>
      <trkpt lat="43.13433" lon="-0.26712">
        <ele>326.8</ele>
        <time>2022-09-08T09:03:07Z</time>
      </trkpt>
      <trkpt lat="43.1342" lon="-0.26737">
        <ele>327.6</ele>
        <time>2022-09-08T09:03:13Z</time>
      </trkpt>
      <trkpt lat="43.13418" lon="-0.2674">
        <ele>327.8</ele>
        <time>2022-09-08T09:03:14Z</time>
      </trkpt>
      <trkpt lat="43.13405" lon="-0.26758">
        <ele>328.6</ele>
        <time>2022-09-08T09:03:20Z</time>
      </trkpt>
      <trkpt lat="43.13399" lon="-0.26759">
        <ele>328.8</ele>
        <time>2022-09-08T09:03:23Z</time>
      </trkpt>
      <trkpt lat="43.13397" lon="-0.26758">
        <ele>329</ele>
        <time>2022-09-08T09:03:24Z</time>
      </trkpt>
      <trkpt lat="43.13385" lon="-0.26748">
        <ele>328.8</ele>
        <time>2022-09-08T09:03:31Z</time>
      </trkpt>
      <trkpt lat="43.1337" lon="-0.26738">
        <ele>327.6</ele>
        <time>2022-09-08T09:03:35Z</time>
      </trkpt>
      <trkpt lat="43.13365" lon="-0.26734">
        <ele>327.2</ele>
        <time>2022-09-08T09:03:36Z</time>
      </trkpt>
      <trkpt lat="43.1336" lon="-0.2673">
        <ele>326.6</ele>
        <time>2022-09-08T09:03:37Z</time>
      </trkpt>
      <trkpt lat="43.13353" lon="-0.26727">
        <ele>325.4</ele>
        <time>2022-09-08T09:03:38Z</time>
      </trkpt>
      <trkpt lat="43.13347" lon="-0.26724">
        <ele>324.2</ele>
        <time>2022-09-08T09:03:39Z</time>
      </trkpt>
      <trkpt lat="43.13341" lon="-0.26722">
        <ele>323.2</ele>
        <time>2022-09-08T09:03:40Z</time>
      </trkpt>
      <trkpt lat="43.13336" lon="-0.2672">
        <ele>322.2</ele>
        <time>2022-09-08T09:03:42Z</time>
      </trkpt>
      <trkpt lat="43.13328" lon="-0.26717">
        <ele>322.2</ele>
        <time>2022-09-08T09:03:48Z</time>
      </trkpt>
      <trkpt lat="43.1333" lon="-0.26719">
        <ele>322.2</ele>
        <time>2022-09-08T09:04:54Z</time>
      </trkpt>
      <trkpt lat="43.13332" lon="-0.26722">
        <ele>322</ele>
        <time>2022-09-08T09:04:56Z</time>
      </trkpt>
      <trkpt lat="43.13334" lon="-0.26729">
        <ele>321.2</ele>
        <time>2022-09-08T09:04:58Z</time>
      </trkpt>
      <trkpt lat="43.13336" lon="-0.26732">
        <ele>320.8</ele>
        <time>2022-09-08T09:04:59Z</time>
      </trkpt>
      <trkpt lat="43.13339" lon="-0.2674">
        <ele>319.6</ele>
        <time>2022-09-08T09:05:01Z</time>
      </trkpt>
      <trkpt lat="43.13339" lon="-0.26744">
        <ele>319.2</ele>
        <time>2022-09-08T09:05:02Z</time>
      </trkpt>
      <trkpt lat="43.13336" lon="-0.26755">
        <ele>318.2</ele>
        <time>2022-09-08T09:05:05Z</time>
      </trkpt>
      <trkpt lat="43.13336" lon="-0.26759">
        <ele>318</ele>
        <time>2022-09-08T09:05:06Z</time>
      </trkpt>
      <trkpt lat="43.1333" lon="-0.26772">
        <ele>316.8</ele>
        <time>2022-09-08T09:05:09Z</time>
      </trkpt>
      <trkpt lat="43.13329" lon="-0.26776">
        <ele>316.4</ele>
        <time>2022-09-08T09:05:10Z</time>
      </trkpt>
      <trkpt lat="43.13325" lon="-0.26785">
        <ele>315.6</ele>
        <time>2022-09-08T09:05:12Z</time>
      </trkpt>
      <trkpt lat="43.13322" lon="-0.26794">
        <ele>314.4</ele>
        <time>2022-09-08T09:05:14Z</time>
      </trkpt>
      <trkpt lat="43.13321" lon="-0.26798">
        <ele>314</ele>
        <time>2022-09-08T09:05:15Z</time>
      </trkpt>
      <trkpt lat="43.13318" lon="-0.26806">
        <ele>313.2</ele>
        <time>2022-09-08T09:05:18Z</time>
      </trkpt>
      <trkpt lat="43.13314" lon="-0.26818">
        <ele>312.2</ele>
        <time>2022-09-08T09:05:25Z</time>
      </trkpt>
      <trkpt lat="43.1331" lon="-0.26825">
        <ele>312</ele>
        <time>2022-09-08T09:07:54Z</time>
      </trkpt>
      <trkpt lat="43.13308" lon="-0.2683">
        <ele>312</ele>
        <time>2022-09-08T09:07:56Z</time>
      </trkpt>
      <trkpt lat="43.13301" lon="-0.26848">
        <ele>311.2</ele>
        <time>2022-09-08T09:08:01Z</time>
      </trkpt>
      <trkpt lat="43.133" lon="-0.26852">
        <ele>311</ele>
        <time>2022-09-08T09:08:02Z</time>
      </trkpt>
      <trkpt lat="43.13295" lon="-0.26865">
        <ele>309.8</ele>
        <time>2022-09-08T09:08:05Z</time>
      </trkpt>
      <trkpt lat="43.1329" lon="-0.2688">
        <ele>308.6</ele>
        <time>2022-09-08T09:08:09Z</time>
      </trkpt>
      <trkpt lat="43.13285" lon="-0.26893">
        <ele>307.6</ele>
        <time>2022-09-08T09:08:34Z</time>
      </trkpt>
      <trkpt lat="43.13284" lon="-0.26896">
        <ele>307.4</ele>
        <time>2022-09-08T09:08:35Z</time>
      </trkpt>
      <trkpt lat="43.13283" lon="-0.269">
        <ele>307.2</ele>
        <time>2022-09-08T09:08:36Z</time>
      </trkpt>
      <trkpt lat="43.13277" lon="-0.26918">
        <ele>306.2</ele>
        <time>2022-09-08T09:08:41Z</time>
      </trkpt>
      <trkpt lat="43.13275" lon="-0.26928">
        <ele>305.4</ele>
        <time>2022-09-08T09:08:44Z</time>
      </trkpt>
      <trkpt lat="43.13274" lon="-0.26931">
        <ele>305.2</ele>
        <time>2022-09-08T09:08:45Z</time>
      </trkpt>
      <trkpt lat="43.13268" lon="-0.26951">
        <ele>304.2</ele>
        <time>2022-09-08T09:08:50Z</time>
      </trkpt>
      <trkpt lat="43.13266" lon="-0.26954">
        <ele>303.6</ele>
        <time>2022-09-08T09:08:51Z</time>
      </trkpt>
      <trkpt lat="43.13262" lon="-0.26964">
        <ele>303.2</ele>
        <time>2022-09-08T09:08:54Z</time>
      </trkpt>
      <trkpt lat="43.13252" lon="-0.26979">
        <ele>302.6</ele>
        <time>2022-09-08T09:08:58Z</time>
      </trkpt>
      <trkpt lat="43.13244" lon="-0.26988">
        <ele>302</ele>
        <time>2022-09-08T09:09:01Z</time>
      </trkpt>
      <trkpt lat="43.13226" lon="-0.27007">
        <ele>301.2</ele>
        <time>2022-09-08T09:09:07Z</time>
      </trkpt>
      <trkpt lat="43.13223" lon="-0.2701">
        <ele>300.8</ele>
        <time>2022-09-08T09:09:08Z</time>
      </trkpt>
      <trkpt lat="43.132" lon="-0.27035">
        <ele>299.8</ele>
        <time>2022-09-08T09:09:15Z</time>
      </trkpt>
      <trkpt lat="43.13197" lon="-0.27039">
        <ele>299.6</ele>
        <time>2022-09-08T09:09:16Z</time>
      </trkpt>
      <trkpt lat="43.13185" lon="-0.27051">
        <ele>298.6</ele>
        <time>2022-09-08T09:09:20Z</time>
      </trkpt>
      <trkpt lat="43.13177" lon="-0.27061">
        <ele>297.4</ele>
        <time>2022-09-08T09:09:23Z</time>
      </trkpt>
      <trkpt lat="43.13155" lon="-0.27085">
        <ele>295.8</ele>
        <time>2022-09-08T09:09:29Z</time>
      </trkpt>
      <trkpt lat="43.13144" lon="-0.27096">
        <ele>294.8</ele>
        <time>2022-09-08T09:09:32Z</time>
      </trkpt>
      <trkpt lat="43.13135" lon="-0.27107">
        <ele>294.6</ele>
        <time>2022-09-08T09:09:35Z</time>
      </trkpt>
      <trkpt lat="43.13133" lon="-0.27127">
        <ele>293.8</ele>
        <time>2022-09-08T09:09:39Z</time>
      </trkpt>
      <trkpt lat="43.13133" lon="-0.27162">
        <ele>293.6</ele>
        <time>2022-09-08T09:09:46Z</time>
      </trkpt>
      <trkpt lat="43.13134" lon="-0.27168">
        <ele>293.6</ele>
        <time>2022-09-08T09:09:47Z</time>
      </trkpt>
      <trkpt lat="43.13136" lon="-0.27179">
        <ele>293.6</ele>
        <time>2022-09-08T09:09:49Z</time>
      </trkpt>
      <trkpt lat="43.13139" lon="-0.27189">
        <ele>293.6</ele>
        <time>2022-09-08T09:09:51Z</time>
      </trkpt>
      <trkpt lat="43.13147" lon="-0.27216">
        <ele>293.2</ele>
        <time>2022-09-08T09:09:56Z</time>
      </trkpt>
      <trkpt lat="43.13148" lon="-0.27232">
        <ele>292.6</ele>
        <time>2022-09-08T09:09:58Z</time>
      </trkpt>
      <trkpt lat="43.13148" lon="-0.27251">
        <ele>291.6</ele>
        <time>2022-09-08T09:10:00Z</time>
      </trkpt>
      <trkpt lat="43.13148" lon="-0.27262">
        <ele>291.4</ele>
        <time>2022-09-08T09:10:01Z</time>
      </trkpt>
      <trkpt lat="43.13143" lon="-0.27291">
        <ele>290.4</ele>
        <time>2022-09-08T09:10:04Z</time>
      </trkpt>
      <trkpt lat="43.13136" lon="-0.27337">
        <ele>290.4</ele>
        <time>2022-09-08T09:10:09Z</time>
      </trkpt>
      <trkpt lat="43.1313" lon="-0.27366">
        <ele>289.4</ele>
        <time>2022-09-08T09:10:12Z</time>
      </trkpt>
      <trkpt lat="43.1313" lon="-0.27376">
        <ele>289.4</ele>
        <time>2022-09-08T09:10:13Z</time>
      </trkpt>
      <trkpt lat="43.1313" lon="-0.27385">
        <ele>289.4</ele>
        <time>2022-09-08T09:10:14Z</time>
      </trkpt>
      <trkpt lat="43.13133" lon="-0.274">
        <ele>289.6</ele>
        <time>2022-09-08T09:10:16Z</time>
      </trkpt>
      <trkpt lat="43.13134" lon="-0.27414">
        <ele>290.2</ele>
        <time>2022-09-08T09:10:18Z</time>
      </trkpt>
      <trkpt lat="43.13136" lon="-0.27428">
        <ele>290.4</ele>
        <time>2022-09-08T09:10:20Z</time>
      </trkpt>
      <trkpt lat="43.13136" lon="-0.27451">
        <ele>291.4</ele>
        <time>2022-09-08T09:10:24Z</time>
      </trkpt>
      <trkpt lat="43.13138" lon="-0.27484">
        <ele>292.4</ele>
        <time>2022-09-08T09:10:31Z</time>
      </trkpt>
      <trkpt lat="43.13137" lon="-0.27517">
        <ele>292.4</ele>
        <time>2022-09-08T09:10:38Z</time>
      </trkpt>
      <trkpt lat="43.13136" lon="-0.27548">
        <ele>292.2</ele>
        <time>2022-09-08T09:10:44Z</time>
      </trkpt>
      <trkpt lat="43.13136" lon="-0.27581">
        <ele>292</ele>
        <time>2022-09-08T09:10:50Z</time>
      </trkpt>
      <trkpt lat="43.13136" lon="-0.27587">
        <ele>291.8</ele>
        <time>2022-09-08T09:10:51Z</time>
      </trkpt>
      <trkpt lat="43.13137" lon="-0.27604">
        <ele>291.4</ele>
        <time>2022-09-08T09:10:54Z</time>
      </trkpt>
      <trkpt lat="43.13139" lon="-0.27623">
        <ele>291</ele>
        <time>2022-09-08T09:10:57Z</time>
      </trkpt>
      <trkpt lat="43.1314" lon="-0.27631">
        <ele>290.4</ele>
        <time>2022-09-08T09:10:58Z</time>
      </trkpt>
      <trkpt lat="43.13142" lon="-0.27663">
        <ele>289.2</ele>
        <time>2022-09-08T09:11:02Z</time>
      </trkpt>
      <trkpt lat="43.13142" lon="-0.27672">
        <ele>288.8</ele>
        <time>2022-09-08T09:11:03Z</time>
      </trkpt>
      <trkpt lat="43.1314" lon="-0.27688">
        <ele>288.2</ele>
        <time>2022-09-08T09:11:05Z</time>
      </trkpt>
      <trkpt lat="43.13137" lon="-0.27701">
        <ele>288.6</ele>
        <time>2022-09-08T09:11:07Z</time>
      </trkpt>
      <trkpt lat="43.13134" lon="-0.27717">
        <ele>289.2</ele>
        <time>2022-09-08T09:11:10Z</time>
      </trkpt>
      <trkpt lat="43.13132" lon="-0.27731">
        <ele>290</ele>
        <time>2022-09-08T09:11:13Z</time>
      </trkpt>
      <trkpt lat="43.13132" lon="-0.27735">
        <ele>290.2</ele>
        <time>2022-09-08T09:11:14Z</time>
      </trkpt>
      <trkpt lat="43.13129" lon="-0.27752">
        <ele>291.4</ele>
        <time>2022-09-08T09:11:18Z</time>
      </trkpt>
      <trkpt lat="43.13128" lon="-0.27763">
        <ele>292</ele>
        <time>2022-09-08T09:11:21Z</time>
      </trkpt>
      <trkpt lat="43.13125" lon="-0.27774">
        <ele>292.4</ele>
        <time>2022-09-08T09:11:24Z</time>
      </trkpt>
      <trkpt lat="43.13122" lon="-0.27787">
        <ele>293.2</ele>
        <time>2022-09-08T09:11:28Z</time>
      </trkpt>
      <trkpt lat="43.1312" lon="-0.27793">
        <ele>293.4</ele>
        <time>2022-09-08T09:11:30Z</time>
      </trkpt>
      <trkpt lat="43.13114" lon="-0.27812">
        <ele>294.6</ele>
        <time>2022-09-08T09:11:36Z</time>
      </trkpt>
      <trkpt lat="43.13107" lon="-0.27833">
        <ele>295.8</ele>
        <time>2022-09-08T09:11:43Z</time>
      </trkpt>
      <trkpt lat="43.13105" lon="-0.27839">
        <ele>296</ele>
        <time>2022-09-08T09:11:45Z</time>
      </trkpt>
      <trkpt lat="43.131" lon="-0.27858">
        <ele>296.8</ele>
        <time>2022-09-08T09:11:51Z</time>
      </trkpt>
      <trkpt lat="43.13098" lon="-0.27862">
        <ele>296.8</ele>
        <time>2022-09-08T09:11:52Z</time>
      </trkpt>
      <trkpt lat="43.13087" lon="-0.27888">
        <ele>297.2</ele>
        <time>2022-09-08T09:12:00Z</time>
      </trkpt>
      <trkpt lat="43.13075" lon="-0.27912">
        <ele>297.4</ele>
        <time>2022-09-08T09:12:07Z</time>
      </trkpt>
      <trkpt lat="43.13059" lon="-0.27943">
        <ele>297.4</ele>
        <time>2022-09-08T09:12:16Z</time>
      </trkpt>
      <trkpt lat="43.1305" lon="-0.27961">
        <ele>297.6</ele>
        <time>2022-09-08T09:12:21Z</time>
      </trkpt>
      <trkpt lat="43.13032" lon="-0.27988">
        <ele>297.4</ele>
        <time>2022-09-08T09:12:29Z</time>
      </trkpt>
      <trkpt lat="43.13009" lon="-0.28014">
        <ele>297</ele>
        <time>2022-09-08T09:12:39Z</time>
      </trkpt>
      <trkpt lat="43.12992" lon="-0.28027">
        <ele>296</ele>
        <time>2022-09-08T09:12:45Z</time>
      </trkpt>
      <trkpt lat="43.12984" lon="-0.28034">
        <ele>295.6</ele>
        <time>2022-09-08T09:12:47Z</time>
      </trkpt>
      <trkpt lat="43.12977" lon="-0.28042">
        <ele>295.4</ele>
        <time>2022-09-08T09:12:49Z</time>
      </trkpt>
      <trkpt lat="43.12971" lon="-0.2805">
        <ele>295.2</ele>
        <time>2022-09-08T09:12:51Z</time>
      </trkpt>
      <trkpt lat="43.12952" lon="-0.28076">
        <ele>295.4</ele>
        <time>2022-09-08T09:12:58Z</time>
      </trkpt>
      <trkpt lat="43.12933" lon="-0.28101">
        <ele>294.8</ele>
        <time>2022-09-08T09:13:05Z</time>
      </trkpt>
      <trkpt lat="43.12912" lon="-0.28125">
        <ele>294.6</ele>
        <time>2022-09-08T09:13:12Z</time>
      </trkpt>
      <trkpt lat="43.12908" lon="-0.28129">
        <ele>294.4</ele>
        <time>2022-09-08T09:13:13Z</time>
      </trkpt>
      <trkpt lat="43.12889" lon="-0.28147">
        <ele>294</ele>
        <time>2022-09-08T09:13:18Z</time>
      </trkpt>
      <trkpt lat="43.12885" lon="-0.28151">
        <ele>294</ele>
        <time>2022-09-08T09:13:19Z</time>
      </trkpt>
      <trkpt lat="43.1287" lon="-0.2816">
        <ele>293.4</ele>
        <time>2022-09-08T09:13:22Z</time>
      </trkpt>
      <trkpt lat="43.12849" lon="-0.2817">
        <ele>292.8</ele>
        <time>2022-09-08T09:13:26Z</time>
      </trkpt>
      <trkpt lat="43.12833" lon="-0.28175">
        <ele>292.2</ele>
        <time>2022-09-08T09:13:29Z</time>
      </trkpt>
      <trkpt lat="43.12814" lon="-0.2818">
        <ele>291.6</ele>
        <time>2022-09-08T09:13:32Z</time>
      </trkpt>
      <trkpt lat="43.12795" lon="-0.28183">
        <ele>291.2</ele>
        <time>2022-09-08T09:13:35Z</time>
      </trkpt>
      <trkpt lat="43.12777" lon="-0.28184">
        <ele>291</ele>
        <time>2022-09-08T09:13:38Z</time>
      </trkpt>
      <trkpt lat="43.12742" lon="-0.28183">
        <ele>290.4</ele>
        <time>2022-09-08T09:13:44Z</time>
      </trkpt>
      <trkpt lat="43.12721" lon="-0.28181">
        <ele>290.6</ele>
        <time>2022-09-08T09:13:49Z</time>
      </trkpt>
      <trkpt lat="43.12699" lon="-0.28178">
        <ele>290.8</ele>
        <time>2022-09-08T09:13:54Z</time>
      </trkpt>
      <trkpt lat="43.1269" lon="-0.28179">
        <ele>290.8</ele>
        <time>2022-09-08T09:13:56Z</time>
      </trkpt>
      <trkpt lat="43.12661" lon="-0.28181">
        <ele>291.2</ele>
        <time>2022-09-08T09:14:03Z</time>
      </trkpt>
      <trkpt lat="43.12629" lon="-0.28186">
        <ele>291</ele>
        <time>2022-09-08T09:14:10Z</time>
      </trkpt>
      <trkpt lat="43.12625" lon="-0.28186">
        <ele>291</ele>
        <time>2022-09-08T09:14:11Z</time>
      </trkpt>
      <trkpt lat="43.12598" lon="-0.28188">
        <ele>291.6</ele>
        <time>2022-09-08T09:14:18Z</time>
      </trkpt>
      <trkpt lat="43.12594" lon="-0.28188">
        <ele>291.6</ele>
        <time>2022-09-08T09:14:19Z</time>
      </trkpt>
      <trkpt lat="43.12574" lon="-0.28189">
        <ele>291.4</ele>
        <time>2022-09-08T09:14:24Z</time>
      </trkpt>
      <trkpt lat="43.12561" lon="-0.28191">
        <ele>290.8</ele>
        <time>2022-09-08T09:14:27Z</time>
      </trkpt>
      <trkpt lat="43.12549" lon="-0.28193">
        <ele>290</ele>
        <time>2022-09-08T09:14:29Z</time>
      </trkpt>
      <trkpt lat="43.12535" lon="-0.28196">
        <ele>288.8</ele>
        <time>2022-09-08T09:14:31Z</time>
      </trkpt>
      <trkpt lat="43.12528" lon="-0.282">
        <ele>288.4</ele>
        <time>2022-09-08T09:14:32Z</time>
      </trkpt>
      <trkpt lat="43.12521" lon="-0.28205">
        <ele>287.8</ele>
        <time>2022-09-08T09:14:33Z</time>
      </trkpt>
      <trkpt lat="43.1251" lon="-0.28218">
        <ele>287</ele>
        <time>2022-09-08T09:14:35Z</time>
      </trkpt>
      <trkpt lat="43.12507" lon="-0.28237">
        <ele>286.6</ele>
        <time>2022-09-08T09:14:37Z</time>
      </trkpt>
      <trkpt lat="43.12508" lon="-0.28246">
        <ele>286.4</ele>
        <time>2022-09-08T09:14:38Z</time>
      </trkpt>
      <trkpt lat="43.12502" lon="-0.28281">
        <ele>286.4</ele>
        <time>2022-09-08T09:14:42Z</time>
      </trkpt>
      <trkpt lat="43.12493" lon="-0.28307">
        <ele>286.6</ele>
        <time>2022-09-08T09:14:46Z</time>
      </trkpt>
      <trkpt lat="43.12476" lon="-0.28346">
        <ele>287.6</ele>
        <time>2022-09-08T09:14:54Z</time>
      </trkpt>
      <trkpt lat="43.12462" lon="-0.28378">
        <ele>288.2</ele>
        <time>2022-09-08T09:15:01Z</time>
      </trkpt>
      <trkpt lat="43.12451" lon="-0.28411">
        <ele>288</ele>
        <time>2022-09-08T09:15:08Z</time>
      </trkpt>
      <trkpt lat="43.12444" lon="-0.2845">
        <ele>288.6</ele>
        <time>2022-09-08T09:15:15Z</time>
      </trkpt>
      <trkpt lat="43.12436" lon="-0.28482">
        <ele>289.2</ele>
        <time>2022-09-08T09:15:22Z</time>
      </trkpt>
      <trkpt lat="43.12426" lon="-0.28523">
        <ele>289.2</ele>
        <time>2022-09-08T09:15:30Z</time>
      </trkpt>
      <trkpt lat="43.12419" lon="-0.2855">
        <ele>289.8</ele>
        <time>2022-09-08T09:15:35Z</time>
      </trkpt>
      <trkpt lat="43.12415" lon="-0.28564">
        <ele>290.2</ele>
        <time>2022-09-08T09:15:38Z</time>
      </trkpt>
      <trkpt lat="43.12408" lon="-0.28594">
        <ele>290.8</ele>
        <time>2022-09-08T09:15:44Z</time>
      </trkpt>
      <trkpt lat="43.12404" lon="-0.28608">
        <ele>291.4</ele>
        <time>2022-09-08T09:15:47Z</time>
      </trkpt>
      <trkpt lat="43.12398" lon="-0.28629">
        <ele>292</ele>
        <time>2022-09-08T09:15:52Z</time>
      </trkpt>
      <trkpt lat="43.12394" lon="-0.2864">
        <ele>292</ele>
        <time>2022-09-08T09:15:55Z</time>
      </trkpt>
      <trkpt lat="43.12382" lon="-0.28668">
        <ele>291.4</ele>
        <time>2022-09-08T09:16:01Z</time>
      </trkpt>
      <trkpt lat="43.12369" lon="-0.28692">
        <ele>290.8</ele>
        <time>2022-09-08T09:16:06Z</time>
      </trkpt>
      <trkpt lat="43.12363" lon="-0.28704">
        <ele>290.6</ele>
        <time>2022-09-08T09:16:08Z</time>
      </trkpt>
      <trkpt lat="43.12348" lon="-0.28728">
        <ele>289.8</ele>
        <time>2022-09-08T09:16:12Z</time>
      </trkpt>
      <trkpt lat="43.12338" lon="-0.28748">
        <ele>289.6</ele>
        <time>2022-09-08T09:16:15Z</time>
      </trkpt>
      <trkpt lat="43.12314" lon="-0.28793">
        <ele>288.8</ele>
        <time>2022-09-08T09:16:22Z</time>
      </trkpt>
      <trkpt lat="43.12298" lon="-0.28826">
        <ele>288.8</ele>
        <time>2022-09-08T09:16:28Z</time>
      </trkpt>
      <trkpt lat="43.12296" lon="-0.28831">
        <ele>288.8</ele>
        <time>2022-09-08T09:16:29Z</time>
      </trkpt>
      <trkpt lat="43.1228" lon="-0.28862">
        <ele>289.2</ele>
        <time>2022-09-08T09:16:36Z</time>
      </trkpt>
      <trkpt lat="43.12258" lon="-0.289">
        <ele>289.8</ele>
        <time>2022-09-08T09:16:45Z</time>
      </trkpt>
      <trkpt lat="43.12243" lon="-0.28931">
        <ele>291</ele>
        <time>2022-09-08T09:16:52Z</time>
      </trkpt>
      <trkpt lat="43.12223" lon="-0.28976">
        <ele>290.6</ele>
        <time>2022-09-08T09:17:01Z</time>
      </trkpt>
      <trkpt lat="43.12203" lon="-0.29019">
        <ele>290.4</ele>
        <time>2022-09-08T09:17:10Z</time>
      </trkpt>
      <trkpt lat="43.12183" lon="-0.29057">
        <ele>290.4</ele>
        <time>2022-09-08T09:17:19Z</time>
      </trkpt>
      <trkpt lat="43.12156" lon="-0.29087">
        <ele>290.6</ele>
        <time>2022-09-08T09:17:28Z</time>
      </trkpt>
      <trkpt lat="43.12137" lon="-0.291">
        <ele>290.8</ele>
        <time>2022-09-08T09:17:34Z</time>
      </trkpt>
      <trkpt lat="43.12125" lon="-0.29112">
        <ele>291.2</ele>
        <time>2022-09-08T09:17:39Z</time>
      </trkpt>
      <trkpt lat="43.12124" lon="-0.29116">
        <ele>291.6</ele>
        <time>2022-09-08T09:17:40Z</time>
      </trkpt>
      <trkpt lat="43.12125" lon="-0.29119">
        <ele>292</ele>
        <time>2022-09-08T09:17:41Z</time>
      </trkpt>
      <trkpt lat="43.12126" lon="-0.29127">
        <ele>292.8</ele>
        <time>2022-09-08T09:17:44Z</time>
      </trkpt>
      <trkpt lat="43.12127" lon="-0.29133">
        <ele>292.8</ele>
        <time>2022-09-08T09:17:46Z</time>
      </trkpt>
      <trkpt lat="43.12127" lon="-0.29155">
        <ele>292.6</ele>
        <time>2022-09-08T09:17:52Z</time>
      </trkpt>
      <trkpt lat="43.12122" lon="-0.29182">
        <ele>292</ele>
        <time>2022-09-08T09:17:58Z</time>
      </trkpt>
      <trkpt lat="43.12115" lon="-0.29222">
        <ele>292.8</ele>
        <time>2022-09-08T09:18:07Z</time>
      </trkpt>
      <trkpt lat="43.12114" lon="-0.2923">
        <ele>293.2</ele>
        <time>2022-09-08T09:18:09Z</time>
      </trkpt>
      <trkpt lat="43.1211" lon="-0.29249">
        <ele>294.2</ele>
        <time>2022-09-08T09:18:15Z</time>
      </trkpt>
      <trkpt lat="43.12107" lon="-0.29261">
        <ele>295.4</ele>
        <time>2022-09-08T09:18:20Z</time>
      </trkpt>
      <trkpt lat="43.12105" lon="-0.29266">
        <ele>295.6</ele>
        <time>2022-09-08T09:18:22Z</time>
      </trkpt>
      <trkpt lat="43.12101" lon="-0.29281">
        <ele>296.4</ele>
        <time>2022-09-08T09:18:28Z</time>
      </trkpt>
      <trkpt lat="43.12099" lon="-0.29286">
        <ele>296.6</ele>
        <time>2022-09-08T09:18:30Z</time>
      </trkpt>
      <trkpt lat="43.12095" lon="-0.2931">
        <ele>297.6</ele>
        <time>2022-09-08T09:18:39Z</time>
      </trkpt>
      <trkpt lat="43.12094" lon="-0.29333">
        <ele>298.8</ele>
        <time>2022-09-08T09:18:47Z</time>
      </trkpt>
      <trkpt lat="43.12097" lon="-0.29363">
        <ele>299.8</ele>
        <time>2022-09-08T09:18:57Z</time>
      </trkpt>
      <trkpt lat="43.12098" lon="-0.29366">
        <ele>299.8</ele>
        <time>2022-09-08T09:18:58Z</time>
      </trkpt>
      <trkpt lat="43.12101" lon="-0.29388">
        <ele>300.4</ele>
        <time>2022-09-08T09:19:05Z</time>
      </trkpt>
      <trkpt lat="43.12107" lon="-0.29408">
        <ele>301</ele>
        <time>2022-09-08T09:19:12Z</time>
      </trkpt>
      <trkpt lat="43.12109" lon="-0.29414">
        <ele>301.2</ele>
        <time>2022-09-08T09:19:14Z</time>
      </trkpt>
      <trkpt lat="43.12113" lon="-0.29426">
        <ele>302</ele>
        <time>2022-09-08T09:19:18Z</time>
      </trkpt>
      <trkpt lat="43.12119" lon="-0.29439">
        <ele>302.6</ele>
        <time>2022-09-08T09:19:23Z</time>
      </trkpt>
      <trkpt lat="43.12123" lon="-0.29447">
        <ele>303</ele>
        <time>2022-09-08T09:19:26Z</time>
      </trkpt>
      <trkpt lat="43.12132" lon="-0.29463">
        <ele>303.4</ele>
        <time>2022-09-08T09:19:32Z</time>
      </trkpt>
      <trkpt lat="43.1215" lon="-0.2949">
        <ele>303.4</ele>
        <time>2022-09-08T09:19:41Z</time>
      </trkpt>
      <trkpt lat="43.12167" lon="-0.29516">
        <ele>303.4</ele>
        <time>2022-09-08T09:19:50Z</time>
      </trkpt>
      <trkpt lat="43.12174" lon="-0.29528">
        <ele>303.6</ele>
        <time>2022-09-08T09:19:57Z</time>
      </trkpt>
      <trkpt lat="43.12183" lon="-0.29543">
        <ele>304.2</ele>
        <time>2022-09-08T09:20:03Z</time>
      </trkpt>
      <trkpt lat="43.12184" lon="-0.29546">
        <ele>304.2</ele>
        <time>2022-09-08T09:20:04Z</time>
      </trkpt>
      <trkpt lat="43.12198" lon="-0.29566">
        <ele>305.2</ele>
        <time>2022-09-08T09:20:12Z</time>
      </trkpt>
      <trkpt lat="43.12201" lon="-0.29571">
        <ele>305.4</ele>
        <time>2022-09-08T09:20:14Z</time>
      </trkpt>
      <trkpt lat="43.12209" lon="-0.29585">
        <ele>306.2</ele>
        <time>2022-09-08T09:20:20Z</time>
      </trkpt>
      <trkpt lat="43.12213" lon="-0.29591">
        <ele>306.8</ele>
        <time>2022-09-08T09:20:23Z</time>
      </trkpt>
      <trkpt lat="43.12218" lon="-0.29601">
        <ele>307.4</ele>
        <time>2022-09-08T09:20:27Z</time>
      </trkpt>
      <trkpt lat="43.12222" lon="-0.29607">
        <ele>308.2</ele>
        <time>2022-09-08T09:20:30Z</time>
      </trkpt>
      <trkpt lat="43.12226" lon="-0.29614">
        <ele>308.6</ele>
        <time>2022-09-08T09:20:33Z</time>
      </trkpt>
      <trkpt lat="43.12234" lon="-0.29627">
        <ele>309.4</ele>
        <time>2022-09-08T09:20:39Z</time>
      </trkpt>
      <trkpt lat="43.12237" lon="-0.29631">
        <ele>309.6</ele>
        <time>2022-09-08T09:20:41Z</time>
      </trkpt>
      <trkpt lat="43.12245" lon="-0.29646">
        <ele>310.8</ele>
        <time>2022-09-08T09:20:48Z</time>
      </trkpt>
      <trkpt lat="43.12246" lon="-0.29648">
        <ele>311</ele>
        <time>2022-09-08T09:20:49Z</time>
      </trkpt>
      <trkpt lat="43.12254" lon="-0.29661">
        <ele>311.8</ele>
        <time>2022-09-08T09:20:55Z</time>
      </trkpt>
      <trkpt lat="43.1226" lon="-0.29671">
        <ele>312.4</ele>
        <time>2022-09-08T09:21:00Z</time>
      </trkpt>
      <trkpt lat="43.12263" lon="-0.29677">
        <ele>313</ele>
        <time>2022-09-08T09:21:03Z</time>
      </trkpt>
      <trkpt lat="43.12268" lon="-0.29686">
        <ele>313.6</ele>
        <time>2022-09-08T09:21:07Z</time>
      </trkpt>
      <trkpt lat="43.12272" lon="-0.29693">
        <ele>314</ele>
        <time>2022-09-08T09:21:10Z</time>
      </trkpt>
      <trkpt lat="43.12278" lon="-0.29704">
        <ele>315</ele>
        <time>2022-09-08T09:21:15Z</time>
      </trkpt>
      <trkpt lat="43.12279" lon="-0.29706">
        <ele>315.2</ele>
        <time>2022-09-08T09:21:16Z</time>
      </trkpt>
      <trkpt lat="43.12287" lon="-0.29716">
        <ele>316</ele>
        <time>2022-09-08T09:21:21Z</time>
      </trkpt>
      <trkpt lat="43.12289" lon="-0.2972">
        <ele>316.2</ele>
        <time>2022-09-08T09:21:23Z</time>
      </trkpt>
      <trkpt lat="43.12299" lon="-0.29731">
        <ele>317.4</ele>
        <time>2022-09-08T09:21:29Z</time>
      </trkpt>
      <trkpt lat="43.12301" lon="-0.29733">
        <ele>317.6</ele>
        <time>2022-09-08T09:21:30Z</time>
      </trkpt>
      <trkpt lat="43.12308" lon="-0.29744">
        <ele>318.4</ele>
        <time>2022-09-08T09:21:35Z</time>
      </trkpt>
      <trkpt lat="43.12316" lon="-0.29754">
        <ele>319.2</ele>
        <time>2022-09-08T09:21:40Z</time>
      </trkpt>
      <trkpt lat="43.12319" lon="-0.29758">
        <ele>319.6</ele>
        <time>2022-09-08T09:21:42Z</time>
      </trkpt>
      <trkpt lat="43.1233" lon="-0.29774">
        <ele>320.4</ele>
        <time>2022-09-08T09:21:49Z</time>
      </trkpt>
      <trkpt lat="43.12333" lon="-0.29779">
        <ele>320.6</ele>
        <time>2022-09-08T09:21:51Z</time>
      </trkpt>
      <trkpt lat="43.12349" lon="-0.29803">
        <ele>321.4</ele>
        <time>2022-09-08T09:22:01Z</time>
      </trkpt>
      <trkpt lat="43.12356" lon="-0.29815">
        <ele>321.6</ele>
        <time>2022-09-08T09:22:06Z</time>
      </trkpt>
      <trkpt lat="43.1236" lon="-0.29822">
        <ele>321.8</ele>
        <time>2022-09-08T09:22:09Z</time>
      </trkpt>
      <trkpt lat="43.12372" lon="-0.29843">
        <ele>322</ele>
        <time>2022-09-08T09:22:17Z</time>
      </trkpt>
      <trkpt lat="43.12383" lon="-0.29862">
        <ele>322.2</ele>
        <time>2022-09-08T09:22:25Z</time>
      </trkpt>
      <trkpt lat="43.12393" lon="-0.2988">
        <ele>322.2</ele>
        <time>2022-09-08T09:22:32Z</time>
      </trkpt>
      <trkpt lat="43.12405" lon="-0.29902">
        <ele>321.6</ele>
        <time>2022-09-08T09:22:39Z</time>
      </trkpt>
      <trkpt lat="43.1242" lon="-0.2993">
        <ele>320.6</ele>
        <time>2022-09-08T09:22:45Z</time>
      </trkpt>
      <trkpt lat="43.12424" lon="-0.29935">
        <ele>320.2</ele>
        <time>2022-09-08T09:22:46Z</time>
      </trkpt>
      <trkpt lat="43.12435" lon="-0.29953">
        <ele>319.6</ele>
        <time>2022-09-08T09:22:49Z</time>
      </trkpt>
      <trkpt lat="43.12439" lon="-0.29958">
        <ele>319.2</ele>
        <time>2022-09-08T09:22:50Z</time>
      </trkpt>
      <trkpt lat="43.12446" lon="-0.29968">
        <ele>318.6</ele>
        <time>2022-09-08T09:22:52Z</time>
      </trkpt>
      <trkpt lat="43.12452" lon="-0.29976">
        <ele>318.2</ele>
        <time>2022-09-08T09:22:54Z</time>
      </trkpt>
      <trkpt lat="43.12458" lon="-0.29987">
        <ele>317.8</ele>
        <time>2022-09-08T09:22:57Z</time>
      </trkpt>
      <trkpt lat="43.1247" lon="-0.30001">
        <ele>317.6</ele>
        <time>2022-09-08T09:23:03Z</time>
      </trkpt>
      <trkpt lat="43.12477" lon="-0.30006">
        <ele>317.2</ele>
        <time>2022-09-08T09:23:08Z</time>
      </trkpt>
      <trkpt lat="43.12478" lon="-0.3001">
        <ele>317.2</ele>
        <time>2022-09-08T09:23:10Z</time>
      </trkpt>
      <trkpt lat="43.12474" lon="-0.30016">
        <ele>317</ele>
        <time>2022-09-08T09:23:14Z</time>
      </trkpt>
      <trkpt lat="43.12474" lon="-0.3002">
        <ele>317</ele>
        <time>2022-09-08T09:23:16Z</time>
      </trkpt>
      <trkpt lat="43.12478" lon="-0.30025">
        <ele>316.6</ele>
        <time>2022-09-08T09:23:18Z</time>
      </trkpt>
      <trkpt lat="43.12482" lon="-0.30033">
        <ele>316.4</ele>
        <time>2022-09-08T09:23:20Z</time>
      </trkpt>
      <trkpt lat="43.12485" lon="-0.30037">
        <ele>316.2</ele>
        <time>2022-09-08T09:23:21Z</time>
      </trkpt>
      <trkpt lat="43.1249" lon="-0.30047">
        <ele>315.6</ele>
        <time>2022-09-08T09:23:23Z</time>
      </trkpt>
      <trkpt lat="43.12495" lon="-0.30057">
        <ele>314.8</ele>
        <time>2022-09-08T09:23:25Z</time>
      </trkpt>
      <trkpt lat="43.12501" lon="-0.30068">
        <ele>313.8</ele>
        <time>2022-09-08T09:23:27Z</time>
      </trkpt>
      <trkpt lat="43.12507" lon="-0.30079">
        <ele>312.6</ele>
        <time>2022-09-08T09:23:29Z</time>
      </trkpt>
      <trkpt lat="43.1251" lon="-0.30085">
        <ele>311.8</ele>
        <time>2022-09-08T09:23:30Z</time>
      </trkpt>
      <trkpt lat="43.12512" lon="-0.3009">
        <ele>311.2</ele>
        <time>2022-09-08T09:23:31Z</time>
      </trkpt>
      <trkpt lat="43.12517" lon="-0.30101">
        <ele>310</ele>
        <time>2022-09-08T09:23:33Z</time>
      </trkpt>
      <trkpt lat="43.1252" lon="-0.30106">
        <ele>309.4</ele>
        <time>2022-09-08T09:23:34Z</time>
      </trkpt>
      <trkpt lat="43.12522" lon="-0.30112">
        <ele>308.8</ele>
        <time>2022-09-08T09:23:35Z</time>
      </trkpt>
      <trkpt lat="43.12525" lon="-0.30117">
        <ele>308.2</ele>
        <time>2022-09-08T09:23:36Z</time>
      </trkpt>
      <trkpt lat="43.12527" lon="-0.30122">
        <ele>307.6</ele>
        <time>2022-09-08T09:23:37Z</time>
      </trkpt>
      <trkpt lat="43.12533" lon="-0.30132">
        <ele>306.4</ele>
        <time>2022-09-08T09:23:39Z</time>
      </trkpt>
      <trkpt lat="43.12536" lon="-0.30137">
        <ele>305.2</ele>
        <time>2022-09-08T09:23:40Z</time>
      </trkpt>
      <trkpt lat="43.12541" lon="-0.30146">
        <ele>303.6</ele>
        <time>2022-09-08T09:23:42Z</time>
      </trkpt>
      <trkpt lat="43.12545" lon="-0.30151">
        <ele>303</ele>
        <time>2022-09-08T09:23:43Z</time>
      </trkpt>
      <trkpt lat="43.12548" lon="-0.30157">
        <ele>302.4</ele>
        <time>2022-09-08T09:23:44Z</time>
      </trkpt>
      <trkpt lat="43.12554" lon="-0.30166">
        <ele>300.8</ele>
        <time>2022-09-08T09:23:46Z</time>
      </trkpt>
      <trkpt lat="43.1256" lon="-0.30175">
        <ele>299.4</ele>
        <time>2022-09-08T09:23:48Z</time>
      </trkpt>
      <trkpt lat="43.12562" lon="-0.30179">
        <ele>298.6</ele>
        <time>2022-09-08T09:23:49Z</time>
      </trkpt>
      <trkpt lat="43.12565" lon="-0.30182">
        <ele>298</ele>
        <time>2022-09-08T09:23:50Z</time>
      </trkpt>
      <trkpt lat="43.12571" lon="-0.30188">
        <ele>296.8</ele>
        <time>2022-09-08T09:23:53Z</time>
      </trkpt>
      <trkpt lat="43.12577" lon="-0.30193">
        <ele>295.6</ele>
        <time>2022-09-08T09:23:57Z</time>
      </trkpt>
      <trkpt lat="43.1258" lon="-0.30195">
        <ele>295.2</ele>
        <time>2022-09-08T09:23:59Z</time>
      </trkpt>
      <trkpt lat="43.1258" lon="-0.30196">
        <ele>295.2</ele>
        <time>2022-09-08T09:24:00Z</time>
      </trkpt>
      <trkpt lat="43.1258" lon="-0.30202">
        <ele>294.8</ele>
        <time>2022-09-08T09:24:04Z</time>
      </trkpt>
      <trkpt lat="43.1258" lon="-0.30208">
        <ele>294.4</ele>
        <time>2022-09-08T09:24:07Z</time>
      </trkpt>
      <trkpt lat="43.12582" lon="-0.3021">
        <ele>294.2</ele>
        <time>2022-09-08T09:24:08Z</time>
      </trkpt>
      <trkpt lat="43.12584" lon="-0.30212">
        <ele>293.8</ele>
        <time>2022-09-08T09:24:09Z</time>
      </trkpt>
      <trkpt lat="43.12588" lon="-0.30216">
        <ele>293.2</ele>
        <time>2022-09-08T09:24:11Z</time>
      </trkpt>
      <trkpt lat="43.12593" lon="-0.3022">
        <ele>292.2</ele>
        <time>2022-09-08T09:24:14Z</time>
      </trkpt>
      <trkpt lat="43.12595" lon="-0.30221">
        <ele>292</ele>
        <time>2022-09-08T09:24:15Z</time>
      </trkpt>
      <trkpt lat="43.12599" lon="-0.30227">
        <ele>291.2</ele>
        <time>2022-09-08T09:24:21Z</time>
      </trkpt>
      <trkpt lat="43.12607" lon="-0.30248">
        <ele>292</ele>
        <time>2022-09-08T09:25:26Z</time>
      </trkpt>
      <trkpt lat="43.1261" lon="-0.30253">
        <ele>292</ele>
        <time>2022-09-08T09:25:28Z</time>
      </trkpt>
      <trkpt lat="43.12616" lon="-0.30272">
        <ele>292.2</ele>
        <time>2022-09-08T09:25:34Z</time>
      </trkpt>
      <trkpt lat="43.12622" lon="-0.30287">
        <ele>293.2</ele>
        <time>2022-09-08T09:25:39Z</time>
      </trkpt>
      <trkpt lat="43.12625" lon="-0.30296">
        <ele>294</ele>
        <time>2022-09-08T09:25:43Z</time>
      </trkpt>
      <trkpt lat="43.12632" lon="-0.30311">
        <ele>294.4</ele>
        <time>2022-09-08T09:25:49Z</time>
      </trkpt>
      <trkpt lat="43.12634" lon="-0.30317">
        <ele>294.4</ele>
        <time>2022-09-08T09:25:51Z</time>
      </trkpt>
      <trkpt lat="43.12638" lon="-0.30333">
        <ele>294.6</ele>
        <time>2022-09-08T09:25:57Z</time>
      </trkpt>
      <trkpt lat="43.12642" lon="-0.30348">
        <ele>294.8</ele>
        <time>2022-09-08T09:26:03Z</time>
      </trkpt>
      <trkpt lat="43.1265" lon="-0.30361">
        <ele>294.8</ele>
        <time>2022-09-08T09:26:08Z</time>
      </trkpt>
      <trkpt lat="43.12653" lon="-0.30375">
        <ele>295</ele>
        <time>2022-09-08T09:26:14Z</time>
      </trkpt>
      <trkpt lat="43.12659" lon="-0.30375">
        <ele>295.2</ele>
        <time>2022-09-08T09:26:18Z</time>
      </trkpt>
      <trkpt lat="43.12667" lon="-0.30373">
        <ele>295.4</ele>
        <time>2022-09-08T09:26:23Z</time>
      </trkpt>
      <trkpt lat="43.12668" lon="-0.30372">
        <ele>295.4</ele>
        <time>2022-09-08T09:26:24Z</time>
      </trkpt>
      <trkpt lat="43.1267" lon="-0.3037">
        <ele>295.4</ele>
        <time>2022-09-08T09:26:26Z</time>
      </trkpt>
      <trkpt lat="43.12674" lon="-0.30367">
        <ele>295.2</ele>
        <time>2022-09-08T09:26:30Z</time>
      </trkpt>
      <trkpt lat="43.12681" lon="-0.30368">
        <ele>295.4</ele>
        <time>2022-09-08T09:26:35Z</time>
      </trkpt>
      <trkpt lat="43.12682" lon="-0.3038">
        <ele>295.6</ele>
        <time>2022-09-08T09:26:39Z</time>
      </trkpt>
      <trkpt lat="43.12688" lon="-0.30387">
        <ele>296</ele>
        <time>2022-09-08T09:26:43Z</time>
      </trkpt>
      <trkpt lat="43.12702" lon="-0.30398">
        <ele>296.2</ele>
        <time>2022-09-08T09:26:51Z</time>
      </trkpt>
      <trkpt lat="43.12708" lon="-0.30401">
        <ele>296.2</ele>
        <time>2022-09-08T09:30:03Z</time>
      </trkpt>
      <trkpt lat="43.12703" lon="-0.30404">
        <ele>296.4</ele>
        <time>2022-09-08T09:30:06Z</time>
      </trkpt>
      <trkpt lat="43.12701" lon="-0.30403">
        <ele>296.4</ele>
        <time>2022-09-08T09:30:07Z</time>
      </trkpt>
      <trkpt lat="43.12694" lon="-0.30396">
        <ele>296.2</ele>
        <time>2022-09-08T09:30:11Z</time>
      </trkpt>
      <trkpt lat="43.12687" lon="-0.30397">
        <ele>296.2</ele>
        <time>2022-09-08T09:30:14Z</time>
      </trkpt>
      <trkpt lat="43.12682" lon="-0.30397">
        <ele>296.4</ele>
        <time>2022-09-08T09:30:16Z</time>
      </trkpt>
      <trkpt lat="43.12671" lon="-0.30406">
        <ele>295.8</ele>
        <time>2022-09-08T09:30:22Z</time>
      </trkpt>
      <trkpt lat="43.12668" lon="-0.3042">
        <ele>296</ele>
        <time>2022-09-08T09:30:28Z</time>
      </trkpt>
      <trkpt lat="43.12662" lon="-0.30432">
        <ele>296</ele>
        <time>2022-09-08T09:30:35Z</time>
      </trkpt>
      <trkpt lat="43.12666" lon="-0.30429">
        <ele>295.4</ele>
        <time>2022-09-08T09:35:39Z</time>
      </trkpt>
      <trkpt lat="43.12668" lon="-0.30428">
        <ele>295.4</ele>
        <time>2022-09-08T09:35:40Z</time>
      </trkpt>
      <trkpt lat="43.12676" lon="-0.30425">
        <ele>295.6</ele>
        <time>2022-09-08T09:35:44Z</time>
      </trkpt>
      <trkpt lat="43.12683" lon="-0.30421">
        <ele>295.6</ele>
        <time>2022-09-08T09:35:47Z</time>
      </trkpt>
      <trkpt lat="43.12699" lon="-0.30415">
        <ele>295.6</ele>
        <time>2022-09-08T09:35:55Z</time>
      </trkpt>
      <trkpt lat="43.12701" lon="-0.3041">
        <ele>295.6</ele>
        <time>2022-09-08T09:35:58Z</time>
      </trkpt>
      <trkpt lat="43.12698" lon="-0.30408">
        <ele>295.6</ele>
        <time>2022-09-08T09:36:00Z</time>
      </trkpt>
      <trkpt lat="43.12698" lon="-0.30415">
        <ele>295.8</ele>
        <time>2022-09-08T09:36:03Z</time>
      </trkpt>
      <trkpt lat="43.12696" lon="-0.30418">
        <ele>296</ele>
        <time>2022-09-08T09:36:05Z</time>
      </trkpt>
      <trkpt lat="43.12691" lon="-0.30422">
        <ele>296</ele>
        <time>2022-09-08T09:36:08Z</time>
      </trkpt>
      <trkpt lat="43.12673" lon="-0.30432">
        <ele>295.6</ele>
        <time>2022-09-08T09:36:17Z</time>
      </trkpt>
      <trkpt lat="43.12664" lon="-0.30438">
        <ele>295.4</ele>
        <time>2022-09-08T09:36:22Z</time>
      </trkpt>
      <trkpt lat="43.12663" lon="-0.30439">
        <ele>295.4</ele>
        <time>2022-09-08T09:36:23Z</time>
      </trkpt>
      <trkpt lat="43.12662" lon="-0.30445">
        <ele>295.4</ele>
        <time>2022-09-08T09:36:26Z</time>
      </trkpt>
      <trkpt lat="43.12662" lon="-0.30452">
        <ele>295.4</ele>
        <time>2022-09-08T09:36:28Z</time>
      </trkpt>
      <trkpt lat="43.12663" lon="-0.30486">
        <ele>295.8</ele>
        <time>2022-09-08T09:36:37Z</time>
      </trkpt>
      <trkpt lat="43.12664" lon="-0.30505">
        <ele>296.4</ele>
        <time>2022-09-08T09:36:42Z</time>
      </trkpt>
      <trkpt lat="43.12664" lon="-0.30528">
        <ele>296.8</ele>
        <time>2022-09-08T09:36:48Z</time>
      </trkpt>
      <trkpt lat="43.12665" lon="-0.30547">
        <ele>297.4</ele>
        <time>2022-09-08T09:36:53Z</time>
      </trkpt>
      <trkpt lat="43.12665" lon="-0.30561">
        <ele>297.8</ele>
        <time>2022-09-08T09:36:57Z</time>
      </trkpt>
      <trkpt lat="43.12668" lon="-0.30581">
        <ele>298.4</ele>
        <time>2022-09-08T09:37:03Z</time>
      </trkpt>
      <trkpt lat="43.12669" lon="-0.30584">
        <ele>298.6</ele>
        <time>2022-09-08T09:37:04Z</time>
      </trkpt>
      <trkpt lat="43.12669" lon="-0.30611">
        <ele>299.4</ele>
        <time>2022-09-08T09:37:12Z</time>
      </trkpt>
      <trkpt lat="43.1267" lon="-0.30618">
        <ele>299.6</ele>
        <time>2022-09-08T09:37:14Z</time>
      </trkpt>
      <trkpt lat="43.12674" lon="-0.30641">
        <ele>300</ele>
        <time>2022-09-08T09:37:21Z</time>
      </trkpt>
      <trkpt lat="43.12675" lon="-0.30663">
        <ele>300.6</ele>
        <time>2022-09-08T09:37:27Z</time>
      </trkpt>
      <trkpt lat="43.12677" lon="-0.3068">
        <ele>301</ele>
        <time>2022-09-08T09:37:32Z</time>
      </trkpt>
      <trkpt lat="43.12679" lon="-0.307">
        <ele>301.6</ele>
        <time>2022-09-08T09:37:38Z</time>
      </trkpt>
      <trkpt lat="43.12681" lon="-0.30713">
        <ele>302.4</ele>
        <time>2022-09-08T09:37:42Z</time>
      </trkpt>
      <trkpt lat="43.12682" lon="-0.30726">
        <ele>302.8</ele>
        <time>2022-09-08T09:37:46Z</time>
      </trkpt>
      <trkpt lat="43.12683" lon="-0.30739">
        <ele>303.4</ele>
        <time>2022-09-08T09:37:50Z</time>
      </trkpt>
      <trkpt lat="43.12685" lon="-0.30755">
        <ele>303.8</ele>
        <time>2022-09-08T09:37:55Z</time>
      </trkpt>
      <trkpt lat="43.12686" lon="-0.30764">
        <ele>304.4</ele>
        <time>2022-09-08T09:37:58Z</time>
      </trkpt>
      <trkpt lat="43.12688" lon="-0.30779">
        <ele>305</ele>
        <time>2022-09-08T09:38:03Z</time>
      </trkpt>
      <trkpt lat="43.12691" lon="-0.30793">
        <ele>305.8</ele>
        <time>2022-09-08T09:38:08Z</time>
      </trkpt>
      <trkpt lat="43.12691" lon="-0.30795">
        <ele>305.8</ele>
        <time>2022-09-08T09:38:09Z</time>
      </trkpt>
      <trkpt lat="43.12695" lon="-0.30799">
        <ele>306</ele>
        <time>2022-09-08T09:38:12Z</time>
      </trkpt>
      <trkpt lat="43.12696" lon="-0.30813">
        <ele>306.6</ele>
        <time>2022-09-08T09:38:17Z</time>
      </trkpt>
      <trkpt lat="43.12695" lon="-0.30821">
        <ele>307</ele>
        <time>2022-09-08T09:38:20Z</time>
      </trkpt>
      <trkpt lat="43.12695" lon="-0.30833">
        <ele>307.8</ele>
        <time>2022-09-08T09:38:25Z</time>
      </trkpt>
      <trkpt lat="43.12694" lon="-0.30836">
        <ele>308</ele>
        <time>2022-09-08T09:38:26Z</time>
      </trkpt>
      <trkpt lat="43.12693" lon="-0.30848">
        <ele>309</ele>
        <time>2022-09-08T09:38:31Z</time>
      </trkpt>
      <trkpt lat="43.12692" lon="-0.30854">
        <ele>309.4</ele>
        <time>2022-09-08T09:38:33Z</time>
      </trkpt>
      <trkpt lat="43.12689" lon="-0.30864">
        <ele>310.2</ele>
        <time>2022-09-08T09:38:37Z</time>
      </trkpt>
      <trkpt lat="43.12684" lon="-0.30879">
        <ele>311.4</ele>
        <time>2022-09-08T09:38:43Z</time>
      </trkpt>
      <trkpt lat="43.12682" lon="-0.30893">
        <ele>312.4</ele>
        <time>2022-09-08T09:38:49Z</time>
      </trkpt>
      <trkpt lat="43.12681" lon="-0.30901">
        <ele>313</ele>
        <time>2022-09-08T09:38:52Z</time>
      </trkpt>
      <trkpt lat="43.12681" lon="-0.30906">
        <ele>313.4</ele>
        <time>2022-09-08T09:38:54Z</time>
      </trkpt>
      <trkpt lat="43.1268" lon="-0.30915">
        <ele>314.4</ele>
        <time>2022-09-08T09:38:58Z</time>
      </trkpt>
      <trkpt lat="43.1268" lon="-0.30918">
        <ele>314.6</ele>
        <time>2022-09-08T09:38:59Z</time>
      </trkpt>
      <trkpt lat="43.1268" lon="-0.30933">
        <ele>315.6</ele>
        <time>2022-09-08T09:39:05Z</time>
      </trkpt>
      <trkpt lat="43.12682" lon="-0.30948">
        <ele>316.6</ele>
        <time>2022-09-08T09:39:11Z</time>
      </trkpt>
      <trkpt lat="43.12682" lon="-0.30951">
        <ele>316.8</ele>
        <time>2022-09-08T09:39:12Z</time>
      </trkpt>
      <trkpt lat="43.12688" lon="-0.30972">
        <ele>317.6</ele>
        <time>2022-09-08T09:39:20Z</time>
      </trkpt>
      <trkpt lat="43.12689" lon="-0.30975">
        <ele>317.8</ele>
        <time>2022-09-08T09:39:21Z</time>
      </trkpt>
      <trkpt lat="43.12692" lon="-0.30989">
        <ele>318.2</ele>
        <time>2022-09-08T09:39:26Z</time>
      </trkpt>
      <trkpt lat="43.12696" lon="-0.31013">
        <ele>318.4</ele>
        <time>2022-09-08T09:39:35Z</time>
      </trkpt>
      <trkpt lat="43.12703" lon="-0.31037">
        <ele>318.4</ele>
        <time>2022-09-08T09:39:43Z</time>
      </trkpt>
      <trkpt lat="43.1271" lon="-0.31069">
        <ele>318.6</ele>
        <time>2022-09-08T09:39:52Z</time>
      </trkpt>
      <trkpt lat="43.12717" lon="-0.31095">
        <ele>318.4</ele>
        <time>2022-09-08T09:39:58Z</time>
      </trkpt>
      <trkpt lat="43.12726" lon="-0.31135">
        <ele>318</ele>
        <time>2022-09-08T09:40:07Z</time>
      </trkpt>
      <trkpt lat="43.12735" lon="-0.31171">
        <ele>317.6</ele>
        <time>2022-09-08T09:40:13Z</time>
      </trkpt>
      <trkpt lat="43.12746" lon="-0.31237">
        <ele>317</ele>
        <time>2022-09-08T09:40:23Z</time>
      </trkpt>
      <trkpt lat="43.12748" lon="-0.31249">
        <ele>316.8</ele>
        <time>2022-09-08T09:40:25Z</time>
      </trkpt>
      <trkpt lat="43.12753" lon="-0.31257">
        <ele>316.8</ele>
        <time>2022-09-08T09:40:27Z</time>
      </trkpt>
      <trkpt lat="43.12754" lon="-0.31259">
        <ele>316.6</ele>
        <time>2022-09-08T09:40:28Z</time>
      </trkpt>
      <trkpt lat="43.12753" lon="-0.31265">
        <ele>316.4</ele>
        <time>2022-09-08T09:40:31Z</time>
      </trkpt>
      <trkpt lat="43.12749" lon="-0.31259">
        <ele>316.2</ele>
        <time>2022-09-08T09:40:34Z</time>
      </trkpt>
      <trkpt lat="43.12748" lon="-0.31256">
        <ele>316.2</ele>
        <time>2022-09-08T09:40:35Z</time>
      </trkpt>
      <trkpt lat="43.12745" lon="-0.31228">
        <ele>316.6</ele>
        <time>2022-09-08T09:40:43Z</time>
      </trkpt>
      <trkpt lat="43.12742" lon="-0.31206">
        <ele>316.6</ele>
        <time>2022-09-08T09:40:51Z</time>
      </trkpt>
      <trkpt lat="43.12739" lon="-0.31202">
        <ele>316.8</ele>
        <time>2022-09-08T09:41:09Z</time>
      </trkpt>
      <trkpt lat="43.1274" lon="-0.31208">
        <ele>316.8</ele>
        <time>2022-09-08T09:41:12Z</time>
      </trkpt>
      <trkpt lat="43.12745" lon="-0.31232">
        <ele>316.8</ele>
        <time>2022-09-08T09:41:20Z</time>
      </trkpt>
      <trkpt lat="43.1275" lon="-0.31261">
        <ele>316.4</ele>
        <time>2022-09-08T09:41:29Z</time>
      </trkpt>
      <trkpt lat="43.12751" lon="-0.31292">
        <ele>315.8</ele>
        <time>2022-09-08T09:41:36Z</time>
      </trkpt>
      <trkpt lat="43.12751" lon="-0.31298">
        <ele>315.6</ele>
        <time>2022-09-08T09:41:37Z</time>
      </trkpt>
      <trkpt lat="43.1275" lon="-0.31304">
        <ele>315.6</ele>
        <time>2022-09-08T09:41:38Z</time>
      </trkpt>
      <trkpt lat="43.12745" lon="-0.31325">
        <ele>315</ele>
        <time>2022-09-08T09:41:41Z</time>
      </trkpt>
      <trkpt lat="43.12742" lon="-0.31332">
        <ele>314.4</ele>
        <time>2022-09-08T09:41:42Z</time>
      </trkpt>
      <trkpt lat="43.12738" lon="-0.31339">
        <ele>314.2</ele>
        <time>2022-09-08T09:41:43Z</time>
      </trkpt>
      <trkpt lat="43.12729" lon="-0.31353">
        <ele>313.2</ele>
        <time>2022-09-08T09:41:45Z</time>
      </trkpt>
      <trkpt lat="43.12718" lon="-0.31367">
        <ele>312.2</ele>
        <time>2022-09-08T09:41:47Z</time>
      </trkpt>
      <trkpt lat="43.12699" lon="-0.31386">
        <ele>311</ele>
        <time>2022-09-08T09:41:50Z</time>
      </trkpt>
      <trkpt lat="43.12692" lon="-0.31393">
        <ele>310.8</ele>
        <time>2022-09-08T09:41:51Z</time>
      </trkpt>
      <trkpt lat="43.12672" lon="-0.31412">
        <ele>309.8</ele>
        <time>2022-09-08T09:41:54Z</time>
      </trkpt>
      <trkpt lat="43.1265" lon="-0.31433">
        <ele>308.6</ele>
        <time>2022-09-08T09:41:57Z</time>
      </trkpt>
      <trkpt lat="43.12643" lon="-0.31441">
        <ele>308</ele>
        <time>2022-09-08T09:41:58Z</time>
      </trkpt>
      <trkpt lat="43.12635" lon="-0.31448">
        <ele>307.6</ele>
        <time>2022-09-08T09:41:59Z</time>
      </trkpt>
      <trkpt lat="43.12614" lon="-0.31473">
        <ele>306.2</ele>
        <time>2022-09-08T09:42:02Z</time>
      </trkpt>
      <trkpt lat="43.12601" lon="-0.31492">
        <ele>305</ele>
        <time>2022-09-08T09:42:04Z</time>
      </trkpt>
      <trkpt lat="43.12592" lon="-0.31515">
        <ele>303.4</ele>
        <time>2022-09-08T09:42:06Z</time>
      </trkpt>
      <trkpt lat="43.12586" lon="-0.3154">
        <ele>302.8</ele>
        <time>2022-09-08T09:42:08Z</time>
      </trkpt>
      <trkpt lat="43.12584" lon="-0.31566">
        <ele>302.2</ele>
        <time>2022-09-08T09:42:10Z</time>
      </trkpt>
      <trkpt lat="43.12587" lon="-0.31592">
        <ele>301.6</ele>
        <time>2022-09-08T09:42:12Z</time>
      </trkpt>
      <trkpt lat="43.12589" lon="-0.31604">
        <ele>301.2</ele>
        <time>2022-09-08T09:42:13Z</time>
      </trkpt>
      <trkpt lat="43.12591" lon="-0.31616">
        <ele>301</ele>
        <time>2022-09-08T09:42:14Z</time>
      </trkpt>
      <trkpt lat="43.12601" lon="-0.31661">
        <ele>300.6</ele>
        <time>2022-09-08T09:42:18Z</time>
      </trkpt>
      <trkpt lat="43.12604" lon="-0.317">
        <ele>301</ele>
        <time>2022-09-08T09:42:22Z</time>
      </trkpt>
      <trkpt lat="43.12598" lon="-0.31751">
        <ele>301.4</ele>
        <time>2022-09-08T09:42:28Z</time>
      </trkpt>
      <trkpt lat="43.12583" lon="-0.31808">
        <ele>301.6</ele>
        <time>2022-09-08T09:42:36Z</time>
      </trkpt>
      <trkpt lat="43.12574" lon="-0.31839">
        <ele>301.8</ele>
        <time>2022-09-08T09:42:41Z</time>
      </trkpt>
      <trkpt lat="43.12568" lon="-0.31849">
        <ele>301.8</ele>
        <time>2022-09-08T09:42:43Z</time>
      </trkpt>
      <trkpt lat="43.12557" lon="-0.3187">
        <ele>302</ele>
        <time>2022-09-08T09:42:47Z</time>
      </trkpt>
      <trkpt lat="43.12551" lon="-0.31888">
        <ele>302.2</ele>
        <time>2022-09-08T09:42:50Z</time>
      </trkpt>
      <trkpt lat="43.1255" lon="-0.31894">
        <ele>302</ele>
        <time>2022-09-08T09:42:51Z</time>
      </trkpt>
      <trkpt lat="43.12548" lon="-0.31921">
        <ele>303.2</ele>
        <time>2022-09-08T09:42:56Z</time>
      </trkpt>
      <trkpt lat="43.12548" lon="-0.31925">
        <ele>303.4</ele>
        <time>2022-09-08T09:42:57Z</time>
      </trkpt>
      <trkpt lat="43.12547" lon="-0.3194">
        <ele>304.2</ele>
        <time>2022-09-08T09:43:01Z</time>
      </trkpt>
      <trkpt lat="43.12546" lon="-0.31949">
        <ele>304.8</ele>
        <time>2022-09-08T09:43:04Z</time>
      </trkpt>
      <trkpt lat="43.12546" lon="-0.31959">
        <ele>305.4</ele>
        <time>2022-09-08T09:43:07Z</time>
      </trkpt>
      <trkpt lat="43.12544" lon="-0.31975">
        <ele>306.4</ele>
        <time>2022-09-08T09:43:12Z</time>
      </trkpt>
      <trkpt lat="43.12544" lon="-0.31978">
        <ele>306.6</ele>
        <time>2022-09-08T09:43:13Z</time>
      </trkpt>
      <trkpt lat="43.12542" lon="-0.31985">
        <ele>307</ele>
        <time>2022-09-08T09:43:16Z</time>
      </trkpt>
      <trkpt lat="43.12542" lon="-0.31991">
        <ele>307.6</ele>
        <time>2022-09-08T09:43:18Z</time>
      </trkpt>
      <trkpt lat="43.12542" lon="-0.32015">
        <ele>308.6</ele>
        <time>2022-09-08T09:43:26Z</time>
      </trkpt>
      <trkpt lat="43.12542" lon="-0.32018">
        <ele>308.8</ele>
        <time>2022-09-08T09:43:27Z</time>
      </trkpt>
      <trkpt lat="43.12543" lon="-0.32038">
        <ele>309.6</ele>
        <time>2022-09-08T09:43:34Z</time>
      </trkpt>
      <trkpt lat="43.12543" lon="-0.32042">
        <ele>309.6</ele>
        <time>2022-09-08T09:43:35Z</time>
      </trkpt>
      <trkpt lat="43.12544" lon="-0.32067">
        <ele>310.6</ele>
        <time>2022-09-08T09:43:43Z</time>
      </trkpt>
      <trkpt lat="43.12544" lon="-0.3207">
        <ele>310.8</ele>
        <time>2022-09-08T09:43:44Z</time>
      </trkpt>
      <trkpt lat="43.12546" lon="-0.32092">
        <ele>311.4</ele>
        <time>2022-09-08T09:43:51Z</time>
      </trkpt>
      <trkpt lat="43.12547" lon="-0.32102">
        <ele>311.8</ele>
        <time>2022-09-08T09:43:55Z</time>
      </trkpt>
      <trkpt lat="43.12547" lon="-0.32105">
        <ele>311.8</ele>
        <time>2022-09-08T09:43:56Z</time>
      </trkpt>
      <trkpt lat="43.12549" lon="-0.32133">
        <ele>312.8</ele>
        <time>2022-09-08T09:44:05Z</time>
      </trkpt>
      <trkpt lat="43.12549" lon="-0.3214">
        <ele>312.8</ele>
        <time>2022-09-08T09:44:07Z</time>
      </trkpt>
      <trkpt lat="43.12552" lon="-0.32158">
        <ele>313.6</ele>
        <time>2022-09-08T09:44:13Z</time>
      </trkpt>
      <trkpt lat="43.12553" lon="-0.32171">
        <ele>313.8</ele>
        <time>2022-09-08T09:44:17Z</time>
      </trkpt>
      <trkpt lat="43.12554" lon="-0.3218">
        <ele>314.2</ele>
        <time>2022-09-08T09:44:20Z</time>
      </trkpt>
      <trkpt lat="43.12556" lon="-0.32202">
        <ele>315</ele>
        <time>2022-09-08T09:44:27Z</time>
      </trkpt>
      <trkpt lat="43.12557" lon="-0.32208">
        <ele>315</ele>
        <time>2022-09-08T09:44:29Z</time>
      </trkpt>
      <trkpt lat="43.12562" lon="-0.32236">
        <ele>316</ele>
        <time>2022-09-08T09:44:38Z</time>
      </trkpt>
      <trkpt lat="43.12563" lon="-0.32242">
        <ele>316.2</ele>
        <time>2022-09-08T09:44:40Z</time>
      </trkpt>
      <trkpt lat="43.12563" lon="-0.32249">
        <ele>316.8</ele>
        <time>2022-09-08T09:44:43Z</time>
      </trkpt>
      <trkpt lat="43.12564" lon="-0.32253">
        <ele>317</ele>
        <time>2022-09-08T09:44:45Z</time>
      </trkpt>
      <trkpt lat="43.12566" lon="-0.32259">
        <ele>317.4</ele>
        <time>2022-09-08T09:44:56Z</time>
      </trkpt>
      <trkpt lat="43.12567" lon="-0.32267">
        <ele>318</ele>
        <time>2022-09-08T09:44:59Z</time>
      </trkpt>
      <trkpt lat="43.12568" lon="-0.3228">
        <ele>318.8</ele>
        <time>2022-09-08T09:45:04Z</time>
      </trkpt>
      <trkpt lat="43.12569" lon="-0.32282">
        <ele>319.2</ele>
        <time>2022-09-08T09:45:05Z</time>
      </trkpt>
      <trkpt lat="43.12572" lon="-0.323">
        <ele>320.2</ele>
        <time>2022-09-08T09:45:12Z</time>
      </trkpt>
      <trkpt lat="43.12572" lon="-0.32302">
        <ele>320.2</ele>
        <time>2022-09-08T09:45:13Z</time>
      </trkpt>
      <trkpt lat="43.12573" lon="-0.32312">
        <ele>321.2</ele>
        <time>2022-09-08T09:45:17Z</time>
      </trkpt>
      <trkpt lat="43.12574" lon="-0.32324">
        <ele>322.2</ele>
        <time>2022-09-08T09:45:22Z</time>
      </trkpt>
      <trkpt lat="43.12574" lon="-0.32326">
        <ele>322.4</ele>
        <time>2022-09-08T09:45:23Z</time>
      </trkpt>
      <trkpt lat="43.12576" lon="-0.32344">
        <ele>323.4</ele>
        <time>2022-09-08T09:45:30Z</time>
      </trkpt>
      <trkpt lat="43.12575" lon="-0.32347">
        <ele>323.6</ele>
        <time>2022-09-08T09:45:31Z</time>
      </trkpt>
      <trkpt lat="43.12575" lon="-0.3236">
        <ele>324.6</ele>
        <time>2022-09-08T09:45:37Z</time>
      </trkpt>
      <trkpt lat="43.12575" lon="-0.32363">
        <ele>324.6</ele>
        <time>2022-09-08T09:45:38Z</time>
      </trkpt>
      <trkpt lat="43.12575" lon="-0.32374">
        <ele>325.4</ele>
        <time>2022-09-08T09:45:43Z</time>
      </trkpt>
      <trkpt lat="43.12575" lon="-0.32376">
        <ele>325.6</ele>
        <time>2022-09-08T09:45:44Z</time>
      </trkpt>
      <trkpt lat="43.12575" lon="-0.32378">
        <ele>325.8</ele>
        <time>2022-09-08T09:45:45Z</time>
      </trkpt>
      <trkpt lat="43.12574" lon="-0.3239">
        <ele>326.6</ele>
        <time>2022-09-08T09:45:50Z</time>
      </trkpt>
      <trkpt lat="43.12573" lon="-0.32396">
        <ele>327.2</ele>
        <time>2022-09-08T09:45:53Z</time>
      </trkpt>
      <trkpt lat="43.12573" lon="-0.32398">
        <ele>327.4</ele>
        <time>2022-09-08T09:45:54Z</time>
      </trkpt>
      <trkpt lat="43.12572" lon="-0.32406">
        <ele>327.8</ele>
        <time>2022-09-08T09:45:58Z</time>
      </trkpt>
      <trkpt lat="43.1257" lon="-0.32411">
        <ele>328.4</ele>
        <time>2022-09-08T09:46:00Z</time>
      </trkpt>
      <trkpt lat="43.12571" lon="-0.32417">
        <ele>328.6</ele>
        <time>2022-09-08T09:46:03Z</time>
      </trkpt>
      <trkpt lat="43.1257" lon="-0.32421">
        <ele>329</ele>
        <time>2022-09-08T09:46:05Z</time>
      </trkpt>
      <trkpt lat="43.12569" lon="-0.32428">
        <ele>329.4</ele>
        <time>2022-09-08T09:46:08Z</time>
      </trkpt>
      <trkpt lat="43.12568" lon="-0.32435">
        <ele>329.8</ele>
        <time>2022-09-08T09:46:11Z</time>
      </trkpt>
      <trkpt lat="43.12568" lon="-0.32438">
        <ele>330</ele>
        <time>2022-09-08T09:46:12Z</time>
      </trkpt>
      <trkpt lat="43.12565" lon="-0.32449">
        <ele>330.8</ele>
        <time>2022-09-08T09:46:17Z</time>
      </trkpt>
      <trkpt lat="43.12564" lon="-0.32456">
        <ele>331</ele>
        <time>2022-09-08T09:46:20Z</time>
      </trkpt>
      <trkpt lat="43.12563" lon="-0.32463">
        <ele>331.4</ele>
        <time>2022-09-08T09:46:23Z</time>
      </trkpt>
      <trkpt lat="43.1256" lon="-0.3248">
        <ele>332</ele>
        <time>2022-09-08T09:46:30Z</time>
      </trkpt>
      <trkpt lat="43.1256" lon="-0.32482">
        <ele>332.2</ele>
        <time>2022-09-08T09:46:31Z</time>
      </trkpt>
      <trkpt lat="43.12559" lon="-0.32495">
        <ele>332.8</ele>
        <time>2022-09-08T09:46:38Z</time>
      </trkpt>
      <trkpt lat="43.12558" lon="-0.32501">
        <ele>333</ele>
        <time>2022-09-08T09:49:03Z</time>
      </trkpt>
      <trkpt lat="43.12557" lon="-0.32506">
        <ele>333</ele>
        <time>2022-09-08T09:49:05Z</time>
      </trkpt>
      <trkpt lat="43.12553" lon="-0.32529">
        <ele>332.6</ele>
        <time>2022-09-08T09:49:11Z</time>
      </trkpt>
      <trkpt lat="43.1255" lon="-0.32564">
        <ele>332</ele>
        <time>2022-09-08T09:49:17Z</time>
      </trkpt>
      <trkpt lat="43.12549" lon="-0.32576">
        <ele>331.8</ele>
        <time>2022-09-08T09:49:19Z</time>
      </trkpt>
      <trkpt lat="43.1255" lon="-0.32611">
        <ele>331.2</ele>
        <time>2022-09-08T09:49:24Z</time>
      </trkpt>
      <trkpt lat="43.12554" lon="-0.3264">
        <ele>330.8</ele>
        <time>2022-09-08T09:49:28Z</time>
      </trkpt>
      <trkpt lat="43.12558" lon="-0.32663">
        <ele>330.6</ele>
        <time>2022-09-08T09:49:31Z</time>
      </trkpt>
      <trkpt lat="43.12569" lon="-0.32711">
        <ele>329.8</ele>
        <time>2022-09-08T09:49:37Z</time>
      </trkpt>
      <trkpt lat="43.12574" lon="-0.32737">
        <ele>329.4</ele>
        <time>2022-09-08T09:49:40Z</time>
      </trkpt>
      <trkpt lat="43.1258" lon="-0.32764">
        <ele>328.6</ele>
        <time>2022-09-08T09:49:43Z</time>
      </trkpt>
      <trkpt lat="43.12595" lon="-0.32826">
        <ele>328</ele>
        <time>2022-09-08T09:49:50Z</time>
      </trkpt>
      <trkpt lat="43.12599" lon="-0.32843">
        <ele>327.6</ele>
        <time>2022-09-08T09:49:52Z</time>
      </trkpt>
      <trkpt lat="43.12615" lon="-0.32898">
        <ele>326.8</ele>
        <time>2022-09-08T09:49:59Z</time>
      </trkpt>
      <trkpt lat="43.12623" lon="-0.32919">
        <ele>326.4</ele>
        <time>2022-09-08T09:50:02Z</time>
      </trkpt>
      <trkpt lat="43.12634" lon="-0.32943">
        <ele>326.6</ele>
        <time>2022-09-08T09:50:06Z</time>
      </trkpt>
      <trkpt lat="43.1266" lon="-0.32977">
        <ele>326.8</ele>
        <time>2022-09-08T09:50:13Z</time>
      </trkpt>
      <trkpt lat="43.12667" lon="-0.32988">
        <ele>326.8</ele>
        <time>2022-09-08T09:50:15Z</time>
      </trkpt>
      <trkpt lat="43.12673" lon="-0.32998">
        <ele>326.8</ele>
        <time>2022-09-08T09:50:17Z</time>
      </trkpt>
      <trkpt lat="43.1268" lon="-0.33006">
        <ele>326.6</ele>
        <time>2022-09-08T09:50:19Z</time>
      </trkpt>
      <trkpt lat="43.12704" lon="-0.33039">
        <ele>326.2</ele>
        <time>2022-09-08T09:50:26Z</time>
      </trkpt>
      <trkpt lat="43.12732" lon="-0.33079">
        <ele>326.2</ele>
        <time>2022-09-08T09:50:34Z</time>
      </trkpt>
      <trkpt lat="43.12746" lon="-0.33098">
        <ele>326</ele>
        <time>2022-09-08T09:50:38Z</time>
      </trkpt>
      <trkpt lat="43.12757" lon="-0.33113">
        <ele>326</ele>
        <time>2022-09-08T09:50:41Z</time>
      </trkpt>
      <trkpt lat="43.1277" lon="-0.33134">
        <ele>326.8</ele>
        <time>2022-09-08T09:50:46Z</time>
      </trkpt>
      <trkpt lat="43.12777" lon="-0.33159">
        <ele>327.4</ele>
        <time>2022-09-08T09:50:51Z</time>
      </trkpt>
      <trkpt lat="43.12777" lon="-0.33165">
        <ele>327.4</ele>
        <time>2022-09-08T09:50:52Z</time>
      </trkpt>
      <trkpt lat="43.12775" lon="-0.33183">
        <ele>327.4</ele>
        <time>2022-09-08T09:50:55Z</time>
      </trkpt>
      <trkpt lat="43.12772" lon="-0.33199">
        <ele>328</ele>
        <time>2022-09-08T09:50:58Z</time>
      </trkpt>
      <trkpt lat="43.12769" lon="-0.33212">
        <ele>328.6</ele>
        <time>2022-09-08T09:51:01Z</time>
      </trkpt>
      <trkpt lat="43.12767" lon="-0.33221">
        <ele>329.2</ele>
        <time>2022-09-08T09:51:03Z</time>
      </trkpt>
      <trkpt lat="43.12765" lon="-0.33233">
        <ele>329.8</ele>
        <time>2022-09-08T09:51:06Z</time>
      </trkpt>
      <trkpt lat="43.12762" lon="-0.33244">
        <ele>330</ele>
        <time>2022-09-08T09:51:09Z</time>
      </trkpt>
      <trkpt lat="43.12756" lon="-0.33272">
        <ele>330.4</ele>
        <time>2022-09-08T09:51:16Z</time>
      </trkpt>
      <trkpt lat="43.12752" lon="-0.33292">
        <ele>330.8</ele>
        <time>2022-09-08T09:51:21Z</time>
      </trkpt>
      <trkpt lat="43.12749" lon="-0.33308">
        <ele>331.2</ele>
        <time>2022-09-08T09:51:25Z</time>
      </trkpt>
      <trkpt lat="43.12742" lon="-0.33345">
        <ele>331.2</ele>
        <time>2022-09-08T09:51:34Z</time>
      </trkpt>
      <trkpt lat="43.12733" lon="-0.33383">
        <ele>331</ele>
        <time>2022-09-08T09:51:42Z</time>
      </trkpt>
      <trkpt lat="43.12723" lon="-0.33431">
        <ele>331.2</ele>
        <time>2022-09-08T09:51:51Z</time>
      </trkpt>
      <trkpt lat="43.1272" lon="-0.33473">
        <ele>330.6</ele>
        <time>2022-09-08T09:51:58Z</time>
      </trkpt>
      <trkpt lat="43.12723" lon="-0.33514">
        <ele>329.8</ele>
        <time>2022-09-08T09:52:04Z</time>
      </trkpt>
      <trkpt lat="43.12724" lon="-0.33522">
        <ele>329.8</ele>
        <time>2022-09-08T09:52:05Z</time>
      </trkpt>
      <trkpt lat="43.12735" lon="-0.33582">
        <ele>328.8</ele>
        <time>2022-09-08T09:52:13Z</time>
      </trkpt>
      <trkpt lat="43.12736" lon="-0.33589">
        <ele>328.8</ele>
        <time>2022-09-08T09:52:14Z</time>
      </trkpt>
      <trkpt lat="43.12743" lon="-0.33633">
        <ele>329</ele>
        <time>2022-09-08T09:52:21Z</time>
      </trkpt>
      <trkpt lat="43.12755" lon="-0.33679">
        <ele>329.4</ele>
        <time>2022-09-08T09:52:29Z</time>
      </trkpt>
      <trkpt lat="43.12762" lon="-0.33716">
        <ele>328.2</ele>
        <time>2022-09-08T09:52:35Z</time>
      </trkpt>
      <trkpt lat="43.12766" lon="-0.33738">
        <ele>327.8</ele>
        <time>2022-09-08T09:52:38Z</time>
      </trkpt>
      <trkpt lat="43.1277" lon="-0.33765">
        <ele>326.8</ele>
        <time>2022-09-08T09:52:41Z</time>
      </trkpt>
      <trkpt lat="43.12771" lon="-0.33775">
        <ele>326.2</ele>
        <time>2022-09-08T09:52:42Z</time>
      </trkpt>
      <trkpt lat="43.12772" lon="-0.33786">
        <ele>325.8</ele>
        <time>2022-09-08T09:52:43Z</time>
      </trkpt>
      <trkpt lat="43.1277" lon="-0.33808">
        <ele>325</ele>
        <time>2022-09-08T09:52:45Z</time>
      </trkpt>
      <trkpt lat="43.12765" lon="-0.3384">
        <ele>324</ele>
        <time>2022-09-08T09:52:48Z</time>
      </trkpt>
      <trkpt lat="43.12762" lon="-0.33871">
        <ele>323.8</ele>
        <time>2022-09-08T09:52:51Z</time>
      </trkpt>
      <trkpt lat="43.12761" lon="-0.33909">
        <ele>324.2</ele>
        <time>2022-09-08T09:52:56Z</time>
      </trkpt>
      <trkpt lat="43.12768" lon="-0.33958">
        <ele>324.8</ele>
        <time>2022-09-08T09:53:03Z</time>
      </trkpt>
      <trkpt lat="43.1277" lon="-0.33964">
        <ele>325</ele>
        <time>2022-09-08T09:53:04Z</time>
      </trkpt>
      <trkpt lat="43.12777" lon="-0.33985">
        <ele>325.2</ele>
        <time>2022-09-08T09:53:08Z</time>
      </trkpt>
      <trkpt lat="43.12783" lon="-0.33999">
        <ele>326.2</ele>
        <time>2022-09-08T09:53:11Z</time>
      </trkpt>
      <trkpt lat="43.1279" lon="-0.34014">
        <ele>327</ele>
        <time>2022-09-08T09:53:15Z</time>
      </trkpt>
      <trkpt lat="43.12792" lon="-0.34018">
        <ele>327.2</ele>
        <time>2022-09-08T09:53:16Z</time>
      </trkpt>
      <trkpt lat="43.12799" lon="-0.34041">
        <ele>328.2</ele>
        <time>2022-09-08T09:53:22Z</time>
      </trkpt>
      <trkpt lat="43.128" lon="-0.34045">
        <ele>328.2</ele>
        <time>2022-09-08T09:53:23Z</time>
      </trkpt>
      <trkpt lat="43.12808" lon="-0.34073">
        <ele>328.4</ele>
        <time>2022-09-08T09:53:29Z</time>
      </trkpt>
      <trkpt lat="43.12815" lon="-0.34112">
        <ele>328.4</ele>
        <time>2022-09-08T09:53:37Z</time>
      </trkpt>
      <trkpt lat="43.1282" lon="-0.34165">
        <ele>327.6</ele>
        <time>2022-09-08T09:53:46Z</time>
      </trkpt>
      <trkpt lat="43.12822" lon="-0.34185">
        <ele>327.2</ele>
        <time>2022-09-08T09:53:49Z</time>
      </trkpt>
      <trkpt lat="43.12829" lon="-0.34231">
        <ele>326.8</ele>
        <time>2022-09-08T09:53:56Z</time>
      </trkpt>
      <trkpt lat="43.12836" lon="-0.34263">
        <ele>326.2</ele>
        <time>2022-09-08T09:54:01Z</time>
      </trkpt>
      <trkpt lat="43.1284" lon="-0.34282">
        <ele>326</ele>
        <time>2022-09-08T09:54:04Z</time>
      </trkpt>
      <trkpt lat="43.12849" lon="-0.34315">
        <ele>325</ele>
        <time>2022-09-08T09:54:09Z</time>
      </trkpt>
      <trkpt lat="43.12855" lon="-0.34335">
        <ele>325</ele>
        <time>2022-09-08T09:54:12Z</time>
      </trkpt>
      <trkpt lat="43.12867" lon="-0.34374">
        <ele>324.4</ele>
        <time>2022-09-08T09:54:18Z</time>
      </trkpt>
      <trkpt lat="43.12872" lon="-0.34386">
        <ele>324.6</ele>
        <time>2022-09-08T09:54:20Z</time>
      </trkpt>
      <trkpt lat="43.12898" lon="-0.34444">
        <ele>325.4</ele>
        <time>2022-09-08T09:54:30Z</time>
      </trkpt>
      <trkpt lat="43.129" lon="-0.3445">
        <ele>325.6</ele>
        <time>2022-09-08T09:54:31Z</time>
      </trkpt>
      <trkpt lat="43.12917" lon="-0.34491">
        <ele>326</ele>
        <time>2022-09-08T09:54:39Z</time>
      </trkpt>
      <trkpt lat="43.12921" lon="-0.34498">
        <ele>326</ele>
        <time>2022-09-08T09:54:41Z</time>
      </trkpt>
      <trkpt lat="43.12927" lon="-0.34513">
        <ele>326.2</ele>
        <time>2022-09-08T09:54:46Z</time>
      </trkpt>
      <trkpt lat="43.12937" lon="-0.34535">
        <ele>326.6</ele>
        <time>2022-09-08T09:56:06Z</time>
      </trkpt>
      <trkpt lat="43.1294" lon="-0.34541">
        <ele>327</ele>
        <time>2022-09-08T09:56:08Z</time>
      </trkpt>
      <trkpt lat="43.12943" lon="-0.34548">
        <ele>327.2</ele>
        <time>2022-09-08T09:56:10Z</time>
      </trkpt>
      <trkpt lat="43.12952" lon="-0.34571">
        <ele>327</ele>
        <time>2022-09-08T09:56:16Z</time>
      </trkpt>
      <trkpt lat="43.1297" lon="-0.34612">
        <ele>327.2</ele>
        <time>2022-09-08T09:56:26Z</time>
      </trkpt>
      <trkpt lat="43.12987" lon="-0.34652">
        <ele>327.2</ele>
        <time>2022-09-08T09:56:36Z</time>
      </trkpt>
      <trkpt lat="43.13" lon="-0.34691">
        <ele>326.8</ele>
        <time>2022-09-08T09:56:44Z</time>
      </trkpt>
      <trkpt lat="43.13004" lon="-0.34711">
        <ele>326</ele>
        <time>2022-09-08T09:56:47Z</time>
      </trkpt>
      <trkpt lat="43.13004" lon="-0.34719">
        <ele>325.8</ele>
        <time>2022-09-08T09:56:48Z</time>
      </trkpt>
      <trkpt lat="43.13004" lon="-0.34727">
        <ele>325.4</ele>
        <time>2022-09-08T09:56:49Z</time>
      </trkpt>
      <trkpt lat="43.13002" lon="-0.34736">
        <ele>325</ele>
        <time>2022-09-08T09:56:50Z</time>
      </trkpt>
      <trkpt lat="43.12999" lon="-0.34754">
        <ele>324.6</ele>
        <time>2022-09-08T09:56:52Z</time>
      </trkpt>
      <trkpt lat="43.12995" lon="-0.34771">
        <ele>324.2</ele>
        <time>2022-09-08T09:56:54Z</time>
      </trkpt>
      <trkpt lat="43.12992" lon="-0.34779">
        <ele>323.8</ele>
        <time>2022-09-08T09:56:55Z</time>
      </trkpt>
      <trkpt lat="43.12984" lon="-0.34817">
        <ele>323.8</ele>
        <time>2022-09-08T09:57:00Z</time>
      </trkpt>
      <trkpt lat="43.12984" lon="-0.34854">
        <ele>325.4</ele>
        <time>2022-09-08T09:57:06Z</time>
      </trkpt>
      <trkpt lat="43.12986" lon="-0.34881">
        <ele>326.4</ele>
        <time>2022-09-08T09:57:12Z</time>
      </trkpt>
      <trkpt lat="43.12987" lon="-0.34886">
        <ele>326.6</ele>
        <time>2022-09-08T09:57:13Z</time>
      </trkpt>
      <trkpt lat="43.1299" lon="-0.3492">
        <ele>327.2</ele>
        <time>2022-09-08T09:57:21Z</time>
      </trkpt>
      <trkpt lat="43.12991" lon="-0.34929">
        <ele>327.4</ele>
        <time>2022-09-08T09:57:23Z</time>
      </trkpt>
      <trkpt lat="43.12994" lon="-0.34959">
        <ele>328</ele>
        <time>2022-09-08T09:57:30Z</time>
      </trkpt>
      <trkpt lat="43.12996" lon="-0.34985">
        <ele>328.4</ele>
        <time>2022-09-08T09:57:36Z</time>
      </trkpt>
      <trkpt lat="43.12998" lon="-0.35006">
        <ele>328.8</ele>
        <time>2022-09-08T09:57:41Z</time>
      </trkpt>
      <trkpt lat="43.13" lon="-0.35018">
        <ele>329.4</ele>
        <time>2022-09-08T09:57:44Z</time>
      </trkpt>
      <trkpt lat="43.13001" lon="-0.3504">
        <ele>330.2</ele>
        <time>2022-09-08T09:57:50Z</time>
      </trkpt>
      <trkpt lat="43.13002" lon="-0.35051">
        <ele>330.6</ele>
        <time>2022-09-08T09:57:53Z</time>
      </trkpt>
      <trkpt lat="43.13003" lon="-0.35071">
        <ele>331</ele>
        <time>2022-09-08T09:57:59Z</time>
      </trkpt>
      <trkpt lat="43.13006" lon="-0.35096">
        <ele>331.4</ele>
        <time>2022-09-08T09:58:07Z</time>
      </trkpt>
      <trkpt lat="43.1301" lon="-0.35125">
        <ele>331</ele>
        <time>2022-09-08T09:58:15Z</time>
      </trkpt>
      <trkpt lat="43.13015" lon="-0.35159">
        <ele>330</ele>
        <time>2022-09-08T09:58:21Z</time>
      </trkpt>
      <trkpt lat="43.13017" lon="-0.35165">
        <ele>329.8</ele>
        <time>2022-09-08T09:58:22Z</time>
      </trkpt>
      <trkpt lat="43.13021" lon="-0.35182">
        <ele>329.6</ele>
        <time>2022-09-08T09:58:25Z</time>
      </trkpt>
      <trkpt lat="43.13022" lon="-0.35194">
        <ele>329.2</ele>
        <time>2022-09-08T09:58:27Z</time>
      </trkpt>
      <trkpt lat="43.13028" lon="-0.35229">
        <ele>328.4</ele>
        <time>2022-09-08T09:58:32Z</time>
      </trkpt>
      <trkpt lat="43.1303" lon="-0.35243">
        <ele>328.2</ele>
        <time>2022-09-08T09:58:34Z</time>
      </trkpt>
      <trkpt lat="43.13034" lon="-0.3526">
        <ele>327.8</ele>
        <time>2022-09-08T09:58:38Z</time>
      </trkpt>
      <trkpt lat="43.13039" lon="-0.3527">
        <ele>327.8</ele>
        <time>2022-09-08T09:58:44Z</time>
      </trkpt>
      <trkpt lat="43.1304" lon="-0.35275">
        <ele>327.8</ele>
        <time>2022-09-08T09:58:46Z</time>
      </trkpt>
      <trkpt lat="43.13037" lon="-0.35279">
        <ele>327.8</ele>
        <time>2022-09-08T09:58:48Z</time>
      </trkpt>
      <trkpt lat="43.13028" lon="-0.35282">
        <ele>327.4</ele>
        <time>2022-09-08T09:58:52Z</time>
      </trkpt>
      <trkpt lat="43.13025" lon="-0.35283">
        <ele>327.4</ele>
        <time>2022-09-08T09:58:53Z</time>
      </trkpt>
      <trkpt lat="43.13005" lon="-0.3529">
        <ele>326.6</ele>
        <time>2022-09-08T09:58:58Z</time>
      </trkpt>
      <trkpt lat="43.13" lon="-0.35291">
        <ele>326.4</ele>
        <time>2022-09-08T09:58:59Z</time>
      </trkpt>
      <trkpt lat="43.12973" lon="-0.35297">
        <ele>325.4</ele>
        <time>2022-09-08T09:59:04Z</time>
      </trkpt>
      <trkpt lat="43.12966" lon="-0.35298">
        <ele>325</ele>
        <time>2022-09-08T09:59:05Z</time>
      </trkpt>
      <trkpt lat="43.12947" lon="-0.353">
        <ele>324</ele>
        <time>2022-09-08T09:59:08Z</time>
      </trkpt>
      <trkpt lat="43.12941" lon="-0.353">
        <ele>324</ele>
        <time>2022-09-08T09:59:09Z</time>
      </trkpt>
      <trkpt lat="43.12935" lon="-0.353">
        <ele>323.8</ele>
        <time>2022-09-08T09:59:10Z</time>
      </trkpt>
      <trkpt lat="43.12891" lon="-0.35299">
        <ele>323.6</ele>
        <time>2022-09-08T09:59:18Z</time>
      </trkpt>
      <trkpt lat="43.12869" lon="-0.35303">
        <ele>324</ele>
        <time>2022-09-08T09:59:23Z</time>
      </trkpt>
      <trkpt lat="43.12863" lon="-0.35309">
        <ele>324.2</ele>
        <time>2022-09-08T09:59:25Z</time>
      </trkpt>
      <trkpt lat="43.12859" lon="-0.35316">
        <ele>324.2</ele>
        <time>2022-09-08T09:59:27Z</time>
      </trkpt>
      <trkpt lat="43.12857" lon="-0.35324">
        <ele>324.4</ele>
        <time>2022-09-08T09:59:29Z</time>
      </trkpt>
      <trkpt lat="43.12855" lon="-0.35339">
        <ele>325.2</ele>
        <time>2022-09-08T09:59:33Z</time>
      </trkpt>
      <trkpt lat="43.12853" lon="-0.35348">
        <ele>325.6</ele>
        <time>2022-09-08T09:59:36Z</time>
      </trkpt>
      <trkpt lat="43.12851" lon="-0.35361">
        <ele>326</ele>
        <time>2022-09-08T09:59:43Z</time>
      </trkpt>
      <trkpt lat="43.12849" lon="-0.35388">
        <ele>326.2</ele>
        <time>2022-09-08T10:03:21Z</time>
      </trkpt>
      <trkpt lat="43.12852" lon="-0.35411">
        <ele>326.8</ele>
        <time>2022-09-08T10:03:28Z</time>
      </trkpt>
      <trkpt lat="43.12858" lon="-0.35433">
        <ele>327.2</ele>
        <time>2022-09-08T10:03:35Z</time>
      </trkpt>
      <trkpt lat="43.1286" lon="-0.35437">
        <ele>327.2</ele>
        <time>2022-09-08T10:03:36Z</time>
      </trkpt>
      <trkpt lat="43.12865" lon="-0.35459">
        <ele>327.4</ele>
        <time>2022-09-08T10:03:42Z</time>
      </trkpt>
      <trkpt lat="43.12869" lon="-0.35489">
        <ele>328</ele>
        <time>2022-09-08T10:03:50Z</time>
      </trkpt>
      <trkpt lat="43.12871" lon="-0.35495">
        <ele>328.2</ele>
        <time>2022-09-08T10:03:52Z</time>
      </trkpt>
      <trkpt lat="43.12871" lon="-0.35515">
        <ele>328.8</ele>
        <time>2022-09-08T10:03:57Z</time>
      </trkpt>
      <trkpt lat="43.12872" lon="-0.35549">
        <ele>329.2</ele>
        <time>2022-09-08T10:04:06Z</time>
      </trkpt>
      <trkpt lat="43.12872" lon="-0.35553">
        <ele>329.4</ele>
        <time>2022-09-08T10:04:07Z</time>
      </trkpt>
      <trkpt lat="43.12872" lon="-0.35583">
        <ele>329.6</ele>
        <time>2022-09-08T10:04:14Z</time>
      </trkpt>
      <trkpt lat="43.12872" lon="-0.35617">
        <ele>329.6</ele>
        <time>2022-09-08T10:04:23Z</time>
      </trkpt>
      <trkpt lat="43.1287" lon="-0.3563">
        <ele>329.8</ele>
        <time>2022-09-08T10:04:41Z</time>
      </trkpt>
      <trkpt lat="43.12865" lon="-0.35657">
        <ele>329.8</ele>
        <time>2022-09-08T10:04:48Z</time>
      </trkpt>
      <trkpt lat="43.12856" lon="-0.35695">
        <ele>330.6</ele>
        <time>2022-09-08T10:04:56Z</time>
      </trkpt>
      <trkpt lat="43.12855" lon="-0.357">
        <ele>330.8</ele>
        <time>2022-09-08T10:04:57Z</time>
      </trkpt>
      <trkpt lat="43.12848" lon="-0.35739">
        <ele>331.2</ele>
        <time>2022-09-08T10:05:05Z</time>
      </trkpt>
      <trkpt lat="43.12844" lon="-0.35778">
        <ele>330.4</ele>
        <time>2022-09-08T10:05:12Z</time>
      </trkpt>
      <trkpt lat="43.12838" lon="-0.35803">
        <ele>330.2</ele>
        <time>2022-09-08T10:05:16Z</time>
      </trkpt>
      <trkpt lat="43.12835" lon="-0.35814">
        <ele>330.2</ele>
        <time>2022-09-08T10:05:18Z</time>
      </trkpt>
      <trkpt lat="43.12823" lon="-0.35868">
        <ele>331</ele>
        <time>2022-09-08T10:05:27Z</time>
      </trkpt>
      <trkpt lat="43.12823" lon="-0.35874">
        <ele>331</ele>
        <time>2022-09-08T10:05:28Z</time>
      </trkpt>
      <trkpt lat="43.12828" lon="-0.35898">
        <ele>331.2</ele>
        <time>2022-09-08T10:05:32Z</time>
      </trkpt>
      <trkpt lat="43.12831" lon="-0.35903">
        <ele>331.2</ele>
        <time>2022-09-08T10:05:33Z</time>
      </trkpt>
      <trkpt lat="43.12845" lon="-0.35936">
        <ele>331.2</ele>
        <time>2022-09-08T10:05:39Z</time>
      </trkpt>
      <trkpt lat="43.1285" lon="-0.35946">
        <ele>331.2</ele>
        <time>2022-09-08T10:05:41Z</time>
      </trkpt>
      <trkpt lat="43.12859" lon="-0.35959">
        <ele>331.6</ele>
        <time>2022-09-08T10:05:44Z</time>
      </trkpt>
      <trkpt lat="43.12865" lon="-0.35967">
        <ele>331.8</ele>
        <time>2022-09-08T10:05:46Z</time>
      </trkpt>
      <trkpt lat="43.12873" lon="-0.35987">
        <ele>332.6</ele>
        <time>2022-09-08T10:05:51Z</time>
      </trkpt>
      <trkpt lat="43.12873" lon="-0.35991">
        <ele>332.8</ele>
        <time>2022-09-08T10:05:52Z</time>
      </trkpt>
      <trkpt lat="43.12868" lon="-0.36003">
        <ele>333.2</ele>
        <time>2022-09-08T10:05:55Z</time>
      </trkpt>
      <trkpt lat="43.12859" lon="-0.36022">
        <ele>334</ele>
        <time>2022-09-08T10:06:00Z</time>
      </trkpt>
      <trkpt lat="43.12856" lon="-0.3603">
        <ele>334.2</ele>
        <time>2022-09-08T10:06:02Z</time>
      </trkpt>
      <trkpt lat="43.12851" lon="-0.36049">
        <ele>335</ele>
        <time>2022-09-08T10:06:07Z</time>
      </trkpt>
      <trkpt lat="43.12849" lon="-0.36056">
        <ele>335.6</ele>
        <time>2022-09-08T10:06:09Z</time>
      </trkpt>
      <trkpt lat="43.12846" lon="-0.36068">
        <ele>336</ele>
        <time>2022-09-08T10:06:12Z</time>
      </trkpt>
      <trkpt lat="43.12842" lon="-0.36087">
        <ele>337</ele>
        <time>2022-09-08T10:06:17Z</time>
      </trkpt>
      <trkpt lat="43.12842" lon="-0.36091">
        <ele>337.2</ele>
        <time>2022-09-08T10:06:18Z</time>
      </trkpt>
      <trkpt lat="43.12836" lon="-0.36111">
        <ele>338.2</ele>
        <time>2022-09-08T10:06:24Z</time>
      </trkpt>
      <trkpt lat="43.12836" lon="-0.36115">
        <ele>338.4</ele>
        <time>2022-09-08T10:06:25Z</time>
      </trkpt>
      <trkpt lat="43.12822" lon="-0.36144">
        <ele>339.2</ele>
        <time>2022-09-08T10:06:34Z</time>
      </trkpt>
      <trkpt lat="43.12812" lon="-0.36166">
        <ele>339.6</ele>
        <time>2022-09-08T10:06:41Z</time>
      </trkpt>
      <trkpt lat="43.12806" lon="-0.36187">
        <ele>340.2</ele>
        <time>2022-09-08T10:06:47Z</time>
      </trkpt>
      <trkpt lat="43.12806" lon="-0.36195">
        <ele>340.4</ele>
        <time>2022-09-08T10:06:49Z</time>
      </trkpt>
      <trkpt lat="43.12808" lon="-0.36214">
        <ele>341.2</ele>
        <time>2022-09-08T10:06:54Z</time>
      </trkpt>
      <trkpt lat="43.12807" lon="-0.36229">
        <ele>342</ele>
        <time>2022-09-08T10:06:58Z</time>
      </trkpt>
      <trkpt lat="43.12805" lon="-0.36238">
        <ele>342.4</ele>
        <time>2022-09-08T10:07:01Z</time>
      </trkpt>
      <trkpt lat="43.12802" lon="-0.36255">
        <ele>342.8</ele>
        <time>2022-09-08T10:07:06Z</time>
      </trkpt>
      <trkpt lat="43.12796" lon="-0.36277">
        <ele>342.8</ele>
        <time>2022-09-08T10:07:12Z</time>
      </trkpt>
      <trkpt lat="43.12793" lon="-0.3631">
        <ele>342.4</ele>
        <time>2022-09-08T10:07:19Z</time>
      </trkpt>
      <trkpt lat="43.12793" lon="-0.36344">
        <ele>341.4</ele>
        <time>2022-09-08T10:07:24Z</time>
      </trkpt>
      <trkpt lat="43.12793" lon="-0.36351">
        <ele>341.2</ele>
        <time>2022-09-08T10:07:25Z</time>
      </trkpt>
      <trkpt lat="43.12792" lon="-0.3641">
        <ele>340.6</ele>
        <time>2022-09-08T10:07:32Z</time>
      </trkpt>
      <trkpt lat="43.12791" lon="-0.36417">
        <ele>340.4</ele>
        <time>2022-09-08T10:07:33Z</time>
      </trkpt>
      <trkpt lat="43.12789" lon="-0.36424">
        <ele>340.4</ele>
        <time>2022-09-08T10:07:34Z</time>
      </trkpt>
      <trkpt lat="43.12782" lon="-0.36432">
        <ele>340.6</ele>
        <time>2022-09-08T10:07:36Z</time>
      </trkpt>
      <trkpt lat="43.12778" lon="-0.36436">
        <ele>340.8</ele>
        <time>2022-09-08T10:07:37Z</time>
      </trkpt>
      <trkpt lat="43.12768" lon="-0.36444">
        <ele>341.6</ele>
        <time>2022-09-08T10:07:40Z</time>
      </trkpt>
      <trkpt lat="43.12762" lon="-0.36448">
        <ele>342</ele>
        <time>2022-09-08T10:07:42Z</time>
      </trkpt>
      <trkpt lat="43.12754" lon="-0.36456">
        <ele>342.6</ele>
        <time>2022-09-08T10:07:45Z</time>
      </trkpt>
      <trkpt lat="43.12749" lon="-0.36464">
        <ele>343.2</ele>
        <time>2022-09-08T10:07:48Z</time>
      </trkpt>
      <trkpt lat="43.12745" lon="-0.36474">
        <ele>343.8</ele>
        <time>2022-09-08T10:07:51Z</time>
      </trkpt>
      <trkpt lat="43.12744" lon="-0.36485">
        <ele>344.2</ele>
        <time>2022-09-08T10:07:54Z</time>
      </trkpt>
      <trkpt lat="43.12742" lon="-0.36502">
        <ele>344.8</ele>
        <time>2022-09-08T10:07:59Z</time>
      </trkpt>
      <trkpt lat="43.12742" lon="-0.36506">
        <ele>344.8</ele>
        <time>2022-09-08T10:08:00Z</time>
      </trkpt>
      <trkpt lat="43.12741" lon="-0.36533">
        <ele>345.8</ele>
        <time>2022-09-08T10:08:07Z</time>
      </trkpt>
      <trkpt lat="43.1274" lon="-0.36547">
        <ele>346.4</ele>
        <time>2022-09-08T10:08:11Z</time>
      </trkpt>
      <trkpt lat="43.12739" lon="-0.36558">
        <ele>347</ele>
        <time>2022-09-08T10:08:14Z</time>
      </trkpt>
      <trkpt lat="43.12737" lon="-0.36575">
        <ele>347.8</ele>
        <time>2022-09-08T10:08:19Z</time>
      </trkpt>
      <trkpt lat="43.12735" lon="-0.36577">
        <ele>348</ele>
        <time>2022-09-08T10:08:20Z</time>
      </trkpt>
      <trkpt lat="43.12725" lon="-0.36595">
        <ele>348.2</ele>
        <time>2022-09-08T10:08:26Z</time>
      </trkpt>
      <trkpt lat="43.1271" lon="-0.36626">
        <ele>348.6</ele>
        <time>2022-09-08T10:08:35Z</time>
      </trkpt>
      <trkpt lat="43.12691" lon="-0.36664">
        <ele>348.8</ele>
        <time>2022-09-08T10:08:44Z</time>
      </trkpt>
      <trkpt lat="43.12686" lon="-0.36672">
        <ele>349.2</ele>
        <time>2022-09-08T10:08:46Z</time>
      </trkpt>
      <trkpt lat="43.1267" lon="-0.36695">
        <ele>349.8</ele>
        <time>2022-09-08T10:08:53Z</time>
      </trkpt>
      <trkpt lat="43.12652" lon="-0.36732">
        <ele>349.8</ele>
        <time>2022-09-08T10:09:02Z</time>
      </trkpt>
      <trkpt lat="43.1264" lon="-0.36771">
        <ele>350</ele>
        <time>2022-09-08T10:09:10Z</time>
      </trkpt>
      <trkpt lat="43.12639" lon="-0.36775">
        <ele>350.2</ele>
        <time>2022-09-08T10:09:11Z</time>
      </trkpt>
      <trkpt lat="43.12629" lon="-0.36803">
        <ele>351.2</ele>
        <time>2022-09-08T10:09:18Z</time>
      </trkpt>
      <trkpt lat="43.12628" lon="-0.36805">
        <ele>351.4</ele>
        <time>2022-09-08T10:09:19Z</time>
      </trkpt>
      <trkpt lat="43.12621" lon="-0.36822">
        <ele>352.4</ele>
        <time>2022-09-08T10:09:25Z</time>
      </trkpt>
      <trkpt lat="43.12607" lon="-0.36852">
        <ele>353.4</ele>
        <time>2022-09-08T10:09:35Z</time>
      </trkpt>
      <trkpt lat="43.12605" lon="-0.36855">
        <ele>353.4</ele>
        <time>2022-09-08T10:09:36Z</time>
      </trkpt>
      <trkpt lat="43.12593" lon="-0.36879">
        <ele>354.2</ele>
        <time>2022-09-08T10:09:44Z</time>
      </trkpt>
      <trkpt lat="43.12591" lon="-0.36886">
        <ele>354.4</ele>
        <time>2022-09-08T10:09:46Z</time>
      </trkpt>
      <trkpt lat="43.12581" lon="-0.36908">
        <ele>355.4</ele>
        <time>2022-09-08T10:09:53Z</time>
      </trkpt>
      <trkpt lat="43.1258" lon="-0.36911">
        <ele>355.6</ele>
        <time>2022-09-08T10:09:54Z</time>
      </trkpt>
      <trkpt lat="43.1257" lon="-0.36935">
        <ele>356.4</ele>
        <time>2022-09-08T10:10:02Z</time>
      </trkpt>
      <trkpt lat="43.12568" lon="-0.36942">
        <ele>356.6</ele>
        <time>2022-09-08T10:10:04Z</time>
      </trkpt>
      <trkpt lat="43.12561" lon="-0.36965">
        <ele>356.8</ele>
        <time>2022-09-08T10:10:11Z</time>
      </trkpt>
      <trkpt lat="43.12552" lon="-0.37">
        <ele>356.6</ele>
        <time>2022-09-08T10:10:20Z</time>
      </trkpt>
      <trkpt lat="43.12536" lon="-0.37016">
        <ele>356.8</ele>
        <time>2022-09-08T10:10:26Z</time>
      </trkpt>
      <trkpt lat="43.12511" lon="-0.37031">
        <ele>357.2</ele>
        <time>2022-09-08T10:10:35Z</time>
      </trkpt>
      <trkpt lat="43.12491" lon="-0.37046">
        <ele>356.6</ele>
        <time>2022-09-08T10:10:41Z</time>
      </trkpt>
      <trkpt lat="43.12464" lon="-0.37059">
        <ele>355.4</ele>
        <time>2022-09-08T10:10:46Z</time>
      </trkpt>
      <trkpt lat="43.12444" lon="-0.37073">
        <ele>354.2</ele>
        <time>2022-09-08T10:10:49Z</time>
      </trkpt>
      <trkpt lat="43.12431" lon="-0.37084">
        <ele>353</ele>
        <time>2022-09-08T10:10:51Z</time>
      </trkpt>
      <trkpt lat="43.12415" lon="-0.37103">
        <ele>351.6</ele>
        <time>2022-09-08T10:10:54Z</time>
      </trkpt>
      <trkpt lat="43.12411" lon="-0.3711">
        <ele>351.4</ele>
        <time>2022-09-08T10:10:55Z</time>
      </trkpt>
      <trkpt lat="43.12407" lon="-0.37117">
        <ele>350.8</ele>
        <time>2022-09-08T10:10:56Z</time>
      </trkpt>
      <trkpt lat="43.12405" lon="-0.37126">
        <ele>350</ele>
        <time>2022-09-08T10:10:57Z</time>
      </trkpt>
      <trkpt lat="43.12404" lon="-0.37146">
        <ele>349.4</ele>
        <time>2022-09-08T10:10:59Z</time>
      </trkpt>
      <trkpt lat="43.12404" lon="-0.37156">
        <ele>349</ele>
        <time>2022-09-08T10:11:00Z</time>
      </trkpt>
      <trkpt lat="43.12404" lon="-0.37165">
        <ele>348.6</ele>
        <time>2022-09-08T10:11:01Z</time>
      </trkpt>
      <trkpt lat="43.12402" lon="-0.37182">
        <ele>348</ele>
        <time>2022-09-08T10:11:03Z</time>
      </trkpt>
      <trkpt lat="43.124" lon="-0.37189">
        <ele>348</ele>
        <time>2022-09-08T10:11:04Z</time>
      </trkpt>
      <trkpt lat="43.12396" lon="-0.37201">
        <ele>348</ele>
        <time>2022-09-08T10:11:06Z</time>
      </trkpt>
      <trkpt lat="43.12396" lon="-0.37211">
        <ele>348.4</ele>
        <time>2022-09-08T10:11:08Z</time>
      </trkpt>
      <trkpt lat="43.12399" lon="-0.37216">
        <ele>349.2</ele>
        <time>2022-09-08T10:11:10Z</time>
      </trkpt>
      <trkpt lat="43.12403" lon="-0.37221">
        <ele>349.8</ele>
        <time>2022-09-08T10:11:12Z</time>
      </trkpt>
      <trkpt lat="43.1241" lon="-0.37228">
        <ele>350.4</ele>
        <time>2022-09-08T10:11:16Z</time>
      </trkpt>
      <trkpt lat="43.12416" lon="-0.37235">
        <ele>351.2</ele>
        <time>2022-09-08T10:11:20Z</time>
      </trkpt>
      <trkpt lat="43.12417" lon="-0.37237">
        <ele>351.4</ele>
        <time>2022-09-08T10:11:21Z</time>
      </trkpt>
      <trkpt lat="43.12426" lon="-0.37251">
        <ele>352.6</ele>
        <time>2022-09-08T10:11:28Z</time>
      </trkpt>
      <trkpt lat="43.12428" lon="-0.37257">
        <ele>353.2</ele>
        <time>2022-09-08T10:11:31Z</time>
      </trkpt>
      <trkpt lat="43.12431" lon="-0.37264">
        <ele>353.6</ele>
        <time>2022-09-08T10:11:34Z</time>
      </trkpt>
      <trkpt lat="43.12436" lon="-0.37277">
        <ele>354.8</ele>
        <time>2022-09-08T10:11:40Z</time>
      </trkpt>
      <trkpt lat="43.12436" lon="-0.37279">
        <ele>355</ele>
        <time>2022-09-08T10:11:41Z</time>
      </trkpt>
      <trkpt lat="43.12438" lon="-0.37288">
        <ele>355.8</ele>
        <time>2022-09-08T10:11:45Z</time>
      </trkpt>
      <trkpt lat="43.12441" lon="-0.37294">
        <ele>356.4</ele>
        <time>2022-09-08T10:11:48Z</time>
      </trkpt>
      <trkpt lat="43.12442" lon="-0.37301">
        <ele>357</ele>
        <time>2022-09-08T10:11:51Z</time>
      </trkpt>
      <trkpt lat="43.12445" lon="-0.37311">
        <ele>357.4</ele>
        <time>2022-09-08T10:11:55Z</time>
      </trkpt>
      <trkpt lat="43.12446" lon="-0.3732">
        <ele>358</ele>
        <time>2022-09-08T10:11:59Z</time>
      </trkpt>
      <trkpt lat="43.12448" lon="-0.3733">
        <ele>358.6</ele>
        <time>2022-09-08T10:12:03Z</time>
      </trkpt>
      <trkpt lat="43.12449" lon="-0.37337">
        <ele>359.2</ele>
        <time>2022-09-08T10:12:06Z</time>
      </trkpt>
      <trkpt lat="43.12452" lon="-0.37349">
        <ele>360</ele>
        <time>2022-09-08T10:12:11Z</time>
      </trkpt>
      <trkpt lat="43.12452" lon="-0.37356">
        <ele>360.2</ele>
        <time>2022-09-08T10:12:14Z</time>
      </trkpt>
      <trkpt lat="43.12453" lon="-0.37368">
        <ele>361</ele>
        <time>2022-09-08T10:12:19Z</time>
      </trkpt>
      <trkpt lat="43.12454" lon="-0.37375">
        <ele>361.2</ele>
        <time>2022-09-08T10:12:22Z</time>
      </trkpt>
      <trkpt lat="43.12455" lon="-0.37383">
        <ele>361.8</ele>
        <time>2022-09-08T10:12:26Z</time>
      </trkpt>
      <trkpt lat="43.12456" lon="-0.37385">
        <ele>361.8</ele>
        <time>2022-09-08T10:12:27Z</time>
      </trkpt>
      <trkpt lat="43.12459" lon="-0.37392">
        <ele>362.4</ele>
        <time>2022-09-08T10:12:31Z</time>
      </trkpt>
      <trkpt lat="43.1246" lon="-0.37395">
        <ele>362.8</ele>
        <time>2022-09-08T10:12:33Z</time>
      </trkpt>
      <trkpt lat="43.12462" lon="-0.37404">
        <ele>363.4</ele>
        <time>2022-09-08T10:12:37Z</time>
      </trkpt>
      <trkpt lat="43.12465" lon="-0.37411">
        <ele>364</ele>
        <time>2022-09-08T10:12:41Z</time>
      </trkpt>
      <trkpt lat="43.1247" lon="-0.37423">
        <ele>364.4</ele>
        <time>2022-09-08T10:12:47Z</time>
      </trkpt>
      <trkpt lat="43.12472" lon="-0.3743">
        <ele>364.8</ele>
        <time>2022-09-08T10:12:50Z</time>
      </trkpt>
      <trkpt lat="43.12478" lon="-0.37446">
        <ele>365.6</ele>
        <time>2022-09-08T10:12:57Z</time>
      </trkpt>
      <trkpt lat="43.12482" lon="-0.37465">
        <ele>366.4</ele>
        <time>2022-09-08T10:13:04Z</time>
      </trkpt>
      <trkpt lat="43.12484" lon="-0.37469">
        <ele>366.8</ele>
        <time>2022-09-08T10:13:06Z</time>
      </trkpt>
      <trkpt lat="43.12486" lon="-0.37483">
        <ele>367.4</ele>
        <time>2022-09-08T10:13:12Z</time>
      </trkpt>
      <trkpt lat="43.12488" lon="-0.3749">
        <ele>367.8</ele>
        <time>2022-09-08T10:13:15Z</time>
      </trkpt>
      <trkpt lat="43.12489" lon="-0.37502">
        <ele>368.4</ele>
        <time>2022-09-08T10:13:20Z</time>
      </trkpt>
      <trkpt lat="43.1249" lon="-0.37506">
        <ele>368.8</ele>
        <time>2022-09-08T10:13:22Z</time>
      </trkpt>
      <trkpt lat="43.12493" lon="-0.37517">
        <ele>369.6</ele>
        <time>2022-09-08T10:13:27Z</time>
      </trkpt>
      <trkpt lat="43.12493" lon="-0.3752">
        <ele>369.8</ele>
        <time>2022-09-08T10:13:28Z</time>
      </trkpt>
      <trkpt lat="43.12495" lon="-0.37524">
        <ele>370.2</ele>
        <time>2022-09-08T10:13:30Z</time>
      </trkpt>
      <trkpt lat="43.12498" lon="-0.37529">
        <ele>370.6</ele>
        <time>2022-09-08T10:13:33Z</time>
      </trkpt>
      <trkpt lat="43.125" lon="-0.37534">
        <ele>371</ele>
        <time>2022-09-08T10:13:35Z</time>
      </trkpt>
      <trkpt lat="43.12505" lon="-0.37545">
        <ele>371.8</ele>
        <time>2022-09-08T10:13:40Z</time>
      </trkpt>
      <trkpt lat="43.12506" lon="-0.37547">
        <ele>372</ele>
        <time>2022-09-08T10:13:41Z</time>
      </trkpt>
      <trkpt lat="43.12513" lon="-0.37558">
        <ele>373</ele>
        <time>2022-09-08T10:13:47Z</time>
      </trkpt>
      <trkpt lat="43.12514" lon="-0.37559">
        <ele>373</ele>
        <time>2022-09-08T10:13:48Z</time>
      </trkpt>
      <trkpt lat="43.12519" lon="-0.37568">
        <ele>373.8</ele>
        <time>2022-09-08T10:13:53Z</time>
      </trkpt>
      <trkpt lat="43.1252" lon="-0.3757">
        <ele>374</ele>
        <time>2022-09-08T10:13:54Z</time>
      </trkpt>
      <trkpt lat="43.12525" lon="-0.37584">
        <ele>375</ele>
        <time>2022-09-08T10:14:01Z</time>
      </trkpt>
      <trkpt lat="43.12525" lon="-0.37586">
        <ele>375.2</ele>
        <time>2022-09-08T10:14:02Z</time>
      </trkpt>
      <trkpt lat="43.1253" lon="-0.37594">
        <ele>375.6</ele>
        <time>2022-09-08T10:14:07Z</time>
      </trkpt>
      <trkpt lat="43.12534" lon="-0.37602">
        <ele>376.2</ele>
        <time>2022-09-08T10:14:11Z</time>
      </trkpt>
      <trkpt lat="43.12534" lon="-0.37607">
        <ele>376.4</ele>
        <time>2022-09-08T10:14:13Z</time>
      </trkpt>
      <trkpt lat="43.12537" lon="-0.37622">
        <ele>377.2</ele>
        <time>2022-09-08T10:14:19Z</time>
      </trkpt>
      <trkpt lat="43.12537" lon="-0.3763">
        <ele>377.6</ele>
        <time>2022-09-08T10:14:22Z</time>
      </trkpt>
      <trkpt lat="43.12538" lon="-0.37647">
        <ele>378.4</ele>
        <time>2022-09-08T10:14:28Z</time>
      </trkpt>
      <trkpt lat="43.12538" lon="-0.37651">
        <ele>378.8</ele>
        <time>2022-09-08T10:14:30Z</time>
      </trkpt>
      <trkpt lat="43.12539" lon="-0.37656">
        <ele>379</ele>
        <time>2022-09-08T10:14:32Z</time>
      </trkpt>
      <trkpt lat="43.12539" lon="-0.37662">
        <ele>379.4</ele>
        <time>2022-09-08T10:14:34Z</time>
      </trkpt>
      <trkpt lat="43.12541" lon="-0.37665">
        <ele>379.6</ele>
        <time>2022-09-08T10:14:36Z</time>
      </trkpt>
      <trkpt lat="43.12546" lon="-0.37676">
        <ele>380.6</ele>
        <time>2022-09-08T10:14:42Z</time>
      </trkpt>
      <trkpt lat="43.12546" lon="-0.37677">
        <ele>380.6</ele>
        <time>2022-09-08T10:14:43Z</time>
      </trkpt>
      <trkpt lat="43.12547" lon="-0.37679">
        <ele>380.8</ele>
        <time>2022-09-08T10:14:44Z</time>
      </trkpt>
      <trkpt lat="43.12549" lon="-0.37688">
        <ele>381.6</ele>
        <time>2022-09-08T10:14:49Z</time>
      </trkpt>
      <trkpt lat="43.12549" lon="-0.37691">
        <ele>381.6</ele>
        <time>2022-09-08T10:14:50Z</time>
      </trkpt>
      <trkpt lat="43.1255" lon="-0.37708">
        <ele>382.4</ele>
        <time>2022-09-08T10:14:56Z</time>
      </trkpt>
      <trkpt lat="43.1255" lon="-0.37712">
        <ele>382.8</ele>
        <time>2022-09-08T10:14:58Z</time>
      </trkpt>
      <trkpt lat="43.12552" lon="-0.37726">
        <ele>383.6</ele>
        <time>2022-09-08T10:15:03Z</time>
      </trkpt>
      <trkpt lat="43.12552" lon="-0.37729">
        <ele>383.8</ele>
        <time>2022-09-08T10:15:04Z</time>
      </trkpt>
      <trkpt lat="43.12554" lon="-0.37741">
        <ele>384.6</ele>
        <time>2022-09-08T10:15:09Z</time>
      </trkpt>
      <trkpt lat="43.12554" lon="-0.37744">
        <ele>384.8</ele>
        <time>2022-09-08T10:15:10Z</time>
      </trkpt>
      <trkpt lat="43.12554" lon="-0.37751">
        <ele>385.4</ele>
        <time>2022-09-08T10:15:14Z</time>
      </trkpt>
      <trkpt lat="43.12553" lon="-0.37761">
        <ele>386</ele>
        <time>2022-09-08T10:15:18Z</time>
      </trkpt>
      <trkpt lat="43.12553" lon="-0.37765">
        <ele>386.4</ele>
        <time>2022-09-08T10:15:20Z</time>
      </trkpt>
      <trkpt lat="43.1255" lon="-0.37773">
        <ele>387.2</ele>
        <time>2022-09-08T10:15:24Z</time>
      </trkpt>
      <trkpt lat="43.12549" lon="-0.37777">
        <ele>387.4</ele>
        <time>2022-09-08T10:15:26Z</time>
      </trkpt>
      <trkpt lat="43.12543" lon="-0.37788">
        <ele>388.2</ele>
        <time>2022-09-08T10:15:33Z</time>
      </trkpt>
      <trkpt lat="43.12538" lon="-0.37799">
        <ele>389.4</ele>
        <time>2022-09-08T10:15:40Z</time>
      </trkpt>
      <trkpt lat="43.12538" lon="-0.37802">
        <ele>389.4</ele>
        <time>2022-09-08T10:15:41Z</time>
      </trkpt>
      <trkpt lat="43.12535" lon="-0.37811">
        <ele>390.4</ele>
        <time>2022-09-08T10:15:45Z</time>
      </trkpt>
      <trkpt lat="43.12533" lon="-0.37819">
        <ele>391</ele>
        <time>2022-09-08T10:15:48Z</time>
      </trkpt>
      <trkpt lat="43.1253" lon="-0.37827">
        <ele>391.4</ele>
        <time>2022-09-08T10:15:52Z</time>
      </trkpt>
      <trkpt lat="43.12527" lon="-0.37837">
        <ele>392.2</ele>
        <time>2022-09-08T10:15:56Z</time>
      </trkpt>
      <trkpt lat="43.12524" lon="-0.37844">
        <ele>392.6</ele>
        <time>2022-09-08T10:15:59Z</time>
      </trkpt>
      <trkpt lat="43.1252" lon="-0.37858">
        <ele>393.4</ele>
        <time>2022-09-08T10:16:05Z</time>
      </trkpt>
      <trkpt lat="43.12519" lon="-0.37864">
        <ele>393.6</ele>
        <time>2022-09-08T10:16:07Z</time>
      </trkpt>
      <trkpt lat="43.12519" lon="-0.37867">
        <ele>393.8</ele>
        <time>2022-09-08T10:16:08Z</time>
      </trkpt>
      <trkpt lat="43.1252" lon="-0.37877">
        <ele>394.6</ele>
        <time>2022-09-08T10:16:12Z</time>
      </trkpt>
      <trkpt lat="43.12519" lon="-0.37879">
        <ele>394.8</ele>
        <time>2022-09-08T10:16:13Z</time>
      </trkpt>
      <trkpt lat="43.1252" lon="-0.37892">
        <ele>395.8</ele>
        <time>2022-09-08T10:16:19Z</time>
      </trkpt>
      <trkpt lat="43.1252" lon="-0.37894">
        <ele>396</ele>
        <time>2022-09-08T10:16:20Z</time>
      </trkpt>
      <trkpt lat="43.12519" lon="-0.37907">
        <ele>396.8</ele>
        <time>2022-09-08T10:16:26Z</time>
      </trkpt>
      <trkpt lat="43.12518" lon="-0.3791">
        <ele>397</ele>
        <time>2022-09-08T10:16:27Z</time>
      </trkpt>
      <trkpt lat="43.12513" lon="-0.37921">
        <ele>398</ele>
        <time>2022-09-08T10:16:33Z</time>
      </trkpt>
      <trkpt lat="43.12513" lon="-0.37923">
        <ele>398</ele>
        <time>2022-09-08T10:16:34Z</time>
      </trkpt>
      <trkpt lat="43.12515" lon="-0.3793">
        <ele>398.6</ele>
        <time>2022-09-08T10:16:37Z</time>
      </trkpt>
      <trkpt lat="43.12516" lon="-0.37931">
        <ele>398.6</ele>
        <time>2022-09-08T10:16:38Z</time>
      </trkpt>
      <trkpt lat="43.12562" lon="-0.37964">
        <ele>404.4</ele>
        <time>2022-09-08T10:17:15Z</time>
      </trkpt>
      <trkpt lat="43.12565" lon="-0.37963">
        <ele>404.6</ele>
        <time>2022-09-08T10:17:17Z</time>
      </trkpt>
      <trkpt lat="43.12575" lon="-0.3796">
        <ele>405.6</ele>
        <time>2022-09-08T10:17:22Z</time>
      </trkpt>
      <trkpt lat="43.12581" lon="-0.37958">
        <ele>406</ele>
        <time>2022-09-08T10:17:25Z</time>
      </trkpt>
      <trkpt lat="43.1259" lon="-0.37954">
        <ele>406.6</ele>
        <time>2022-09-08T10:17:30Z</time>
      </trkpt>
      <trkpt lat="43.12596" lon="-0.37952">
        <ele>407</ele>
        <time>2022-09-08T10:17:33Z</time>
      </trkpt>
      <trkpt lat="43.126" lon="-0.37953">
        <ele>407.6</ele>
        <time>2022-09-08T10:17:36Z</time>
      </trkpt>
      <trkpt lat="43.12602" lon="-0.37955">
        <ele>408</ele>
        <time>2022-09-08T10:17:38Z</time>
      </trkpt>
      <trkpt lat="43.12604" lon="-0.37957">
        <ele>408.2</ele>
        <time>2022-09-08T10:17:39Z</time>
      </trkpt>
      <trkpt lat="43.12608" lon="-0.37963">
        <ele>408.6</ele>
        <time>2022-09-08T10:17:43Z</time>
      </trkpt>
      <trkpt lat="43.12609" lon="-0.37964">
        <ele>408.8</ele>
        <time>2022-09-08T10:17:44Z</time>
      </trkpt>
      <trkpt lat="43.12609" lon="-0.37966">
        <ele>409.2</ele>
        <time>2022-09-08T10:17:45Z</time>
      </trkpt>
      <trkpt lat="43.12609" lon="-0.37967">
        <ele>409.2</ele>
        <time>2022-09-08T10:17:46Z</time>
      </trkpt>
      <trkpt lat="43.12608" lon="-0.37972">
        <ele>409.8</ele>
        <time>2022-09-08T10:17:49Z</time>
      </trkpt>
      <trkpt lat="43.12601" lon="-0.37986">
        <ele>410.4</ele>
        <time>2022-09-08T10:17:57Z</time>
      </trkpt>
      <trkpt lat="43.1259" lon="-0.37997">
        <ele>410.8</ele>
        <time>2022-09-08T10:18:04Z</time>
      </trkpt>
      <trkpt lat="43.12588" lon="-0.37999">
        <ele>410.8</ele>
        <time>2022-09-08T10:18:05Z</time>
      </trkpt>
      <trkpt lat="43.1258" lon="-0.38004">
        <ele>412</ele>
        <time>2022-09-08T10:18:10Z</time>
      </trkpt>
      <trkpt lat="43.12577" lon="-0.38004">
        <ele>412.2</ele>
        <time>2022-09-08T10:18:12Z</time>
      </trkpt>
      <trkpt lat="43.12566" lon="-0.38003">
        <ele>413</ele>
        <time>2022-09-08T10:18:18Z</time>
      </trkpt>
      <trkpt lat="43.12564" lon="-0.38003">
        <ele>413.2</ele>
        <time>2022-09-08T10:18:19Z</time>
      </trkpt>
      <trkpt lat="43.12555" lon="-0.38003">
        <ele>414</ele>
        <time>2022-09-08T10:18:25Z</time>
      </trkpt>
      <trkpt lat="43.12551" lon="-0.38003">
        <ele>414.4</ele>
        <time>2022-09-08T10:18:27Z</time>
      </trkpt>
      <trkpt lat="43.12542" lon="-0.38005">
        <ele>415.2</ele>
        <time>2022-09-08T10:18:33Z</time>
      </trkpt>
      <trkpt lat="43.12535" lon="-0.38006">
        <ele>415.8</ele>
        <time>2022-09-08T10:18:37Z</time>
      </trkpt>
      <trkpt lat="43.12529" lon="-0.38008">
        <ele>416.4</ele>
        <time>2022-09-08T10:18:41Z</time>
      </trkpt>
      <trkpt lat="43.12523" lon="-0.3801">
        <ele>416.8</ele>
        <time>2022-09-08T10:18:45Z</time>
      </trkpt>
      <trkpt lat="43.12517" lon="-0.38012">
        <ele>417.4</ele>
        <time>2022-09-08T10:18:49Z</time>
      </trkpt>
      <trkpt lat="43.12511" lon="-0.38015">
        <ele>418</ele>
        <time>2022-09-08T10:18:53Z</time>
      </trkpt>
      <trkpt lat="43.12504" lon="-0.38016">
        <ele>418.4</ele>
        <time>2022-09-08T10:18:57Z</time>
      </trkpt>
      <trkpt lat="43.12498" lon="-0.38019">
        <ele>419</ele>
        <time>2022-09-08T10:19:01Z</time>
      </trkpt>
      <trkpt lat="43.1249" lon="-0.3802">
        <ele>419.6</ele>
        <time>2022-09-08T10:19:06Z</time>
      </trkpt>
      <trkpt lat="43.12485" lon="-0.38019">
        <ele>420</ele>
        <time>2022-09-08T10:19:09Z</time>
      </trkpt>
      <trkpt lat="43.12479" lon="-0.38016">
        <ele>420.6</ele>
        <time>2022-09-08T10:19:13Z</time>
      </trkpt>
      <trkpt lat="43.12476" lon="-0.38015">
        <ele>421</ele>
        <time>2022-09-08T10:19:15Z</time>
      </trkpt>
      <trkpt lat="43.12469" lon="-0.38011">
        <ele>421.6</ele>
        <time>2022-09-08T10:19:20Z</time>
      </trkpt>
      <trkpt lat="43.12465" lon="-0.38009">
        <ele>422</ele>
        <time>2022-09-08T10:19:22Z</time>
      </trkpt>
      <trkpt lat="43.12458" lon="-0.38004">
        <ele>422.6</ele>
        <time>2022-09-08T10:19:26Z</time>
      </trkpt>
      <trkpt lat="43.1245" lon="-0.38005">
        <ele>423.6</ele>
        <time>2022-09-08T10:19:31Z</time>
      </trkpt>
      <trkpt lat="43.12448" lon="-0.38006">
        <ele>423.8</ele>
        <time>2022-09-08T10:19:32Z</time>
      </trkpt>
      <trkpt lat="43.1244" lon="-0.38015">
        <ele>424.8</ele>
        <time>2022-09-08T10:19:38Z</time>
      </trkpt>
      <trkpt lat="43.12438" lon="-0.38016">
        <ele>424.8</ele>
        <time>2022-09-08T10:19:39Z</time>
      </trkpt>
      <trkpt lat="43.1243" lon="-0.38028">
        <ele>425.2</ele>
        <time>2022-09-08T10:19:46Z</time>
      </trkpt>
      <trkpt lat="43.12421" lon="-0.38041">
        <ele>425.8</ele>
        <time>2022-09-08T10:19:53Z</time>
      </trkpt>
      <trkpt lat="43.1242" lon="-0.38043">
        <ele>426</ele>
        <time>2022-09-08T10:19:54Z</time>
      </trkpt>
      <trkpt lat="43.12409" lon="-0.38058">
        <ele>426.8</ele>
        <time>2022-09-08T10:20:02Z</time>
      </trkpt>
      <trkpt lat="43.12408" lon="-0.3806">
        <ele>426.8</ele>
        <time>2022-09-08T10:20:03Z</time>
      </trkpt>
      <trkpt lat="43.12399" lon="-0.38071">
        <ele>427.8</ele>
        <time>2022-09-08T10:20:10Z</time>
      </trkpt>
      <trkpt lat="43.1239" lon="-0.38083">
        <ele>428.8</ele>
        <time>2022-09-08T10:20:17Z</time>
      </trkpt>
      <trkpt lat="43.12389" lon="-0.38085">
        <ele>429</ele>
        <time>2022-09-08T10:20:18Z</time>
      </trkpt>
      <trkpt lat="43.12384" lon="-0.38092">
        <ele>430</ele>
        <time>2022-09-08T10:20:23Z</time>
      </trkpt>
      <trkpt lat="43.12381" lon="-0.38096">
        <ele>430.6</ele>
        <time>2022-09-08T10:20:26Z</time>
      </trkpt>
      <trkpt lat="43.12378" lon="-0.38101">
        <ele>431.2</ele>
        <time>2022-09-08T10:20:29Z</time>
      </trkpt>
      <trkpt lat="43.12374" lon="-0.38106">
        <ele>432</ele>
        <time>2022-09-08T10:20:33Z</time>
      </trkpt>
      <trkpt lat="43.12372" lon="-0.38107">
        <ele>432.2</ele>
        <time>2022-09-08T10:20:34Z</time>
      </trkpt>
      <trkpt lat="43.12371" lon="-0.38111">
        <ele>432.4</ele>
        <time>2022-09-08T10:20:36Z</time>
      </trkpt>
      <trkpt lat="43.12366" lon="-0.38119">
        <ele>433.2</ele>
        <time>2022-09-08T10:20:41Z</time>
      </trkpt>
      <trkpt lat="43.12362" lon="-0.38124">
        <ele>433.4</ele>
        <time>2022-09-08T10:20:44Z</time>
      </trkpt>
      <trkpt lat="43.12359" lon="-0.38132">
        <ele>433.8</ele>
        <time>2022-09-08T10:20:48Z</time>
      </trkpt>
      <trkpt lat="43.12355" lon="-0.38145">
        <ele>434.4</ele>
        <time>2022-09-08T10:20:53Z</time>
      </trkpt>
      <trkpt lat="43.12354" lon="-0.38152">
        <ele>434.6</ele>
        <time>2022-09-08T10:20:56Z</time>
      </trkpt>
      <trkpt lat="43.1235" lon="-0.38178">
        <ele>435.2</ele>
        <time>2022-09-08T10:21:04Z</time>
      </trkpt>
      <trkpt lat="43.12348" lon="-0.38191">
        <ele>435.6</ele>
        <time>2022-09-08T10:21:08Z</time>
      </trkpt>
      <trkpt lat="43.12346" lon="-0.38202">
        <ele>436.2</ele>
        <time>2022-09-08T10:21:11Z</time>
      </trkpt>
      <trkpt lat="43.12345" lon="-0.38209">
        <ele>436.6</ele>
        <time>2022-09-08T10:21:13Z</time>
      </trkpt>
      <trkpt lat="43.12344" lon="-0.38226">
        <ele>437</ele>
        <time>2022-09-08T10:21:19Z</time>
      </trkpt>
      <trkpt lat="43.12341" lon="-0.38243">
        <ele>437</ele>
        <time>2022-09-08T10:21:25Z</time>
      </trkpt>
      <trkpt lat="43.12339" lon="-0.38262">
        <ele>437.4</ele>
        <time>2022-09-08T10:21:31Z</time>
      </trkpt>
      <trkpt lat="43.12339" lon="-0.3827">
        <ele>437.6</ele>
        <time>2022-09-08T10:21:34Z</time>
      </trkpt>
      <trkpt lat="43.12339" lon="-0.38275">
        <ele>438</ele>
        <time>2022-09-08T10:21:36Z</time>
      </trkpt>
      <trkpt lat="43.12336" lon="-0.38282">
        <ele>438.8</ele>
        <time>2022-09-08T10:21:39Z</time>
      </trkpt>
      <trkpt lat="43.12333" lon="-0.38287">
        <ele>438.8</ele>
        <time>2022-09-08T10:21:41Z</time>
      </trkpt>
      <trkpt lat="43.12316" lon="-0.38306">
        <ele>439.6</ele>
        <time>2022-09-08T10:21:50Z</time>
      </trkpt>
      <trkpt lat="43.12314" lon="-0.38308">
        <ele>439.8</ele>
        <time>2022-09-08T10:21:51Z</time>
      </trkpt>
      <trkpt lat="43.12301" lon="-0.38324">
        <ele>440.4</ele>
        <time>2022-09-08T10:21:58Z</time>
      </trkpt>
      <trkpt lat="43.12296" lon="-0.38333">
        <ele>440.8</ele>
        <time>2022-09-08T10:22:01Z</time>
      </trkpt>
      <trkpt lat="43.12289" lon="-0.38348">
        <ele>441.6</ele>
        <time>2022-09-08T10:22:06Z</time>
      </trkpt>
      <trkpt lat="43.12283" lon="-0.38361">
        <ele>442</ele>
        <time>2022-09-08T10:22:10Z</time>
      </trkpt>
      <trkpt lat="43.1228" lon="-0.38372">
        <ele>442.4</ele>
        <time>2022-09-08T10:22:13Z</time>
      </trkpt>
      <trkpt lat="43.12274" lon="-0.3839">
        <ele>443.2</ele>
        <time>2022-09-08T10:22:18Z</time>
      </trkpt>
      <trkpt lat="43.12269" lon="-0.38408">
        <ele>443.8</ele>
        <time>2022-09-08T10:22:23Z</time>
      </trkpt>
      <trkpt lat="43.12261" lon="-0.38431">
        <ele>444.2</ele>
        <time>2022-09-08T10:22:30Z</time>
      </trkpt>
      <trkpt lat="43.1225" lon="-0.3846">
        <ele>444.6</ele>
        <time>2022-09-08T10:22:38Z</time>
      </trkpt>
      <trkpt lat="43.12243" lon="-0.38494">
        <ele>444.8</ele>
        <time>2022-09-08T10:22:45Z</time>
      </trkpt>
      <trkpt lat="43.12245" lon="-0.3853">
        <ele>444.8</ele>
        <time>2022-09-08T10:22:52Z</time>
      </trkpt>
      <trkpt lat="43.1225" lon="-0.38567">
        <ele>445.2</ele>
        <time>2022-09-08T10:22:59Z</time>
      </trkpt>
      <trkpt lat="43.12252" lon="-0.38576">
        <ele>445.4</ele>
        <time>2022-09-08T10:23:01Z</time>
      </trkpt>
      <trkpt lat="43.12259" lon="-0.38612">
        <ele>446</ele>
        <time>2022-09-08T10:23:08Z</time>
      </trkpt>
      <trkpt lat="43.12262" lon="-0.38633">
        <ele>446.4</ele>
        <time>2022-09-08T10:23:12Z</time>
      </trkpt>
      <trkpt lat="43.12265" lon="-0.38653">
        <ele>446.8</ele>
        <time>2022-09-08T10:23:16Z</time>
      </trkpt>
      <trkpt lat="43.12261" lon="-0.38688">
        <ele>447.4</ele>
        <time>2022-09-08T10:23:23Z</time>
      </trkpt>
      <trkpt lat="43.12252" lon="-0.38705">
        <ele>447.4</ele>
        <time>2022-09-08T10:23:27Z</time>
      </trkpt>
      <trkpt lat="43.12249" lon="-0.38708">
        <ele>447.6</ele>
        <time>2022-09-08T10:23:28Z</time>
      </trkpt>
      <trkpt lat="43.1223" lon="-0.38716">
        <ele>448</ele>
        <time>2022-09-08T10:23:33Z</time>
      </trkpt>
      <trkpt lat="43.12204" lon="-0.38717">
        <ele>448.2</ele>
        <time>2022-09-08T10:23:40Z</time>
      </trkpt>
      <trkpt lat="43.12189" lon="-0.38719">
        <ele>448.4</ele>
        <time>2022-09-08T10:23:44Z</time>
      </trkpt>
      <trkpt lat="43.12179" lon="-0.38726">
        <ele>448.8</ele>
        <time>2022-09-08T10:23:47Z</time>
      </trkpt>
      <trkpt lat="43.12168" lon="-0.38744">
        <ele>449.2</ele>
        <time>2022-09-08T10:23:52Z</time>
      </trkpt>
      <trkpt lat="43.12162" lon="-0.3877">
        <ele>449.4</ele>
        <time>2022-09-08T10:23:57Z</time>
      </trkpt>
      <trkpt lat="43.12162" lon="-0.38775">
        <ele>449.6</ele>
        <time>2022-09-08T10:23:58Z</time>
      </trkpt>
      <trkpt lat="43.12165" lon="-0.38807">
        <ele>450.4</ele>
        <time>2022-09-08T10:24:04Z</time>
      </trkpt>
      <trkpt lat="43.12167" lon="-0.38811">
        <ele>450.6</ele>
        <time>2022-09-08T10:24:05Z</time>
      </trkpt>
      <trkpt lat="43.12177" lon="-0.38853">
        <ele>451.6</ele>
        <time>2022-09-08T10:24:14Z</time>
      </trkpt>
      <trkpt lat="43.1219" lon="-0.38871">
        <ele>452</ele>
        <time>2022-09-08T10:24:19Z</time>
      </trkpt>
      <trkpt lat="43.12204" lon="-0.38887">
        <ele>452.6</ele>
        <time>2022-09-08T10:24:25Z</time>
      </trkpt>
      <trkpt lat="43.12209" lon="-0.38895">
        <ele>452.6</ele>
        <time>2022-09-08T10:24:27Z</time>
      </trkpt>
      <trkpt lat="43.12217" lon="-0.38906">
        <ele>453.2</ele>
        <time>2022-09-08T10:24:30Z</time>
      </trkpt>
      <trkpt lat="43.12235" lon="-0.38934">
        <ele>453.6</ele>
        <time>2022-09-08T10:24:38Z</time>
      </trkpt>
      <trkpt lat="43.12237" lon="-0.38938">
        <ele>453.8</ele>
        <time>2022-09-08T10:24:39Z</time>
      </trkpt>
      <trkpt lat="43.1225" lon="-0.38963">
        <ele>454.6</ele>
        <time>2022-09-08T10:24:45Z</time>
      </trkpt>
      <trkpt lat="43.12251" lon="-0.38968">
        <ele>454.8</ele>
        <time>2022-09-08T10:24:46Z</time>
      </trkpt>
      <trkpt lat="43.12254" lon="-0.38991">
        <ele>456</ele>
        <time>2022-09-08T10:24:52Z</time>
      </trkpt>
      <trkpt lat="43.12254" lon="-0.39016">
        <ele>456.8</ele>
        <time>2022-09-08T10:24:58Z</time>
      </trkpt>
      <trkpt lat="43.12254" lon="-0.39024">
        <ele>457</ele>
        <time>2022-09-08T10:25:00Z</time>
      </trkpt>
      <trkpt lat="43.12251" lon="-0.39048">
        <ele>457.8</ele>
        <time>2022-09-08T10:25:06Z</time>
      </trkpt>
      <trkpt lat="43.12243" lon="-0.39076">
        <ele>458</ele>
        <time>2022-09-08T10:25:13Z</time>
      </trkpt>
      <trkpt lat="43.12233" lon="-0.39094">
        <ele>458.2</ele>
        <time>2022-09-08T10:25:19Z</time>
      </trkpt>
      <trkpt lat="43.12213" lon="-0.39105">
        <ele>458.2</ele>
        <time>2022-09-08T10:25:26Z</time>
      </trkpt>
      <trkpt lat="43.12185" lon="-0.39114">
        <ele>458.4</ele>
        <time>2022-09-08T10:25:35Z</time>
      </trkpt>
      <trkpt lat="43.12157" lon="-0.39122">
        <ele>458.4</ele>
        <time>2022-09-08T10:25:42Z</time>
      </trkpt>
      <trkpt lat="43.12131" lon="-0.39129">
        <ele>458.2</ele>
        <time>2022-09-08T10:25:49Z</time>
      </trkpt>
      <trkpt lat="43.12104" lon="-0.39135">
        <ele>458.2</ele>
        <time>2022-09-08T10:25:57Z</time>
      </trkpt>
      <trkpt lat="43.1208" lon="-0.39135">
        <ele>458</ele>
        <time>2022-09-08T10:26:03Z</time>
      </trkpt>
      <trkpt lat="43.12052" lon="-0.39138">
        <ele>457.8</ele>
        <time>2022-09-08T10:26:09Z</time>
      </trkpt>
      <trkpt lat="43.12043" lon="-0.39143">
        <ele>457.4</ele>
        <time>2022-09-08T10:26:11Z</time>
      </trkpt>
      <trkpt lat="43.12035" lon="-0.39151">
        <ele>457.2</ele>
        <time>2022-09-08T10:26:13Z</time>
      </trkpt>
      <trkpt lat="43.12027" lon="-0.39167">
        <ele>457.4</ele>
        <time>2022-09-08T10:26:16Z</time>
      </trkpt>
      <trkpt lat="43.12023" lon="-0.39179">
        <ele>457.4</ele>
        <time>2022-09-08T10:26:18Z</time>
      </trkpt>
      <trkpt lat="43.12015" lon="-0.39208">
        <ele>457.6</ele>
        <time>2022-09-08T10:26:23Z</time>
      </trkpt>
      <trkpt lat="43.12013" lon="-0.3922">
        <ele>457.6</ele>
        <time>2022-09-08T10:26:25Z</time>
      </trkpt>
      <trkpt lat="43.12013" lon="-0.39243">
        <ele>458.2</ele>
        <time>2022-09-08T10:26:29Z</time>
      </trkpt>
      <trkpt lat="43.12004" lon="-0.39267">
        <ele>459.2</ele>
        <time>2022-09-08T10:26:34Z</time>
      </trkpt>
      <trkpt lat="43.11986" lon="-0.3928">
        <ele>459.8</ele>
        <time>2022-09-08T10:26:39Z</time>
      </trkpt>
      <trkpt lat="43.11962" lon="-0.39278">
        <ele>460.2</ele>
        <time>2022-09-08T10:26:45Z</time>
      </trkpt>
      <trkpt lat="43.11955" lon="-0.39277">
        <ele>460.2</ele>
        <time>2022-09-08T10:26:47Z</time>
      </trkpt>
      <trkpt lat="43.11929" lon="-0.39266">
        <ele>461.2</ele>
        <time>2022-09-08T10:26:54Z</time>
      </trkpt>
      <trkpt lat="43.11918" lon="-0.39259">
        <ele>461.4</ele>
        <time>2022-09-08T10:26:57Z</time>
      </trkpt>
      <trkpt lat="43.11901" lon="-0.39246">
        <ele>461.4</ele>
        <time>2022-09-08T10:27:02Z</time>
      </trkpt>
      <trkpt lat="43.11893" lon="-0.39242">
        <ele>461.6</ele>
        <time>2022-09-08T10:27:04Z</time>
      </trkpt>
      <trkpt lat="43.11881" lon="-0.39239">
        <ele>461.6</ele>
        <time>2022-09-08T10:27:07Z</time>
      </trkpt>
      <trkpt lat="43.1186" lon="-0.39243">
        <ele>462</ele>
        <time>2022-09-08T10:27:12Z</time>
      </trkpt>
      <trkpt lat="43.11852" lon="-0.39246">
        <ele>462.4</ele>
        <time>2022-09-08T10:27:14Z</time>
      </trkpt>
      <trkpt lat="43.11821" lon="-0.39255">
        <ele>463.4</ele>
        <time>2022-09-08T10:27:22Z</time>
      </trkpt>
      <trkpt lat="43.1179" lon="-0.39253">
        <ele>464</ele>
        <time>2022-09-08T10:27:30Z</time>
      </trkpt>
      <trkpt lat="43.11764" lon="-0.39245">
        <ele>464.6</ele>
        <time>2022-09-08T10:27:37Z</time>
      </trkpt>
      <trkpt lat="43.1176" lon="-0.39243">
        <ele>464.8</ele>
        <time>2022-09-08T10:27:38Z</time>
      </trkpt>
      <trkpt lat="43.11737" lon="-0.39227">
        <ele>465.4</ele>
        <time>2022-09-08T10:27:45Z</time>
      </trkpt>
      <trkpt lat="43.11726" lon="-0.39213">
        <ele>465.8</ele>
        <time>2022-09-08T10:27:49Z</time>
      </trkpt>
      <trkpt lat="43.11716" lon="-0.39203">
        <ele>465.8</ele>
        <time>2022-09-08T10:27:52Z</time>
      </trkpt>
      <trkpt lat="43.11713" lon="-0.392">
        <ele>465.8</ele>
        <time>2022-09-08T10:27:53Z</time>
      </trkpt>
      <trkpt lat="43.11691" lon="-0.39193">
        <ele>466.4</ele>
        <time>2022-09-08T10:27:59Z</time>
      </trkpt>
      <trkpt lat="43.11675" lon="-0.392">
        <ele>466.8</ele>
        <time>2022-09-08T10:28:04Z</time>
      </trkpt>
      <trkpt lat="43.11658" lon="-0.39217">
        <ele>467</ele>
        <time>2022-09-08T10:28:09Z</time>
      </trkpt>
      <trkpt lat="43.11637" lon="-0.39241">
        <ele>467.8</ele>
        <time>2022-09-08T10:28:16Z</time>
      </trkpt>
      <trkpt lat="43.11634" lon="-0.39244">
        <ele>468</ele>
        <time>2022-09-08T10:28:17Z</time>
      </trkpt>
      <trkpt lat="43.11615" lon="-0.39248">
        <ele>468.4</ele>
        <time>2022-09-08T10:28:22Z</time>
      </trkpt>
      <trkpt lat="43.11599" lon="-0.3924">
        <ele>468.8</ele>
        <time>2022-09-08T10:28:27Z</time>
      </trkpt>
      <trkpt lat="43.11596" lon="-0.39238">
        <ele>468.8</ele>
        <time>2022-09-08T10:28:28Z</time>
      </trkpt>
      <trkpt lat="43.11583" lon="-0.39226">
        <ele>469.4</ele>
        <time>2022-09-08T10:28:35Z</time>
      </trkpt>
      <trkpt lat="43.11568" lon="-0.39216">
        <ele>469.6</ele>
        <time>2022-09-08T10:28:41Z</time>
      </trkpt>
      <trkpt lat="43.11555" lon="-0.39209">
        <ele>470</ele>
        <time>2022-09-08T10:28:46Z</time>
      </trkpt>
      <trkpt lat="43.11543" lon="-0.39205">
        <ele>470.4</ele>
        <time>2022-09-08T10:28:50Z</time>
      </trkpt>
      <trkpt lat="43.11517" lon="-0.39199">
        <ele>471</ele>
        <time>2022-09-08T10:28:58Z</time>
      </trkpt>
      <trkpt lat="43.11487" lon="-0.39199">
        <ele>471.6</ele>
        <time>2022-09-08T10:29:06Z</time>
      </trkpt>
      <trkpt lat="43.11465" lon="-0.39212">
        <ele>472</ele>
        <time>2022-09-08T10:29:12Z</time>
      </trkpt>
      <trkpt lat="43.11461" lon="-0.39216">
        <ele>471.8</ele>
        <time>2022-09-08T10:29:13Z</time>
      </trkpt>
      <trkpt lat="43.11455" lon="-0.39231">
        <ele>471.6</ele>
        <time>2022-09-08T10:29:16Z</time>
      </trkpt>
      <trkpt lat="43.11454" lon="-0.39249">
        <ele>471.6</ele>
        <time>2022-09-08T10:29:19Z</time>
      </trkpt>
      <trkpt lat="43.11453" lon="-0.39255">
        <ele>471.8</ele>
        <time>2022-09-08T10:29:20Z</time>
      </trkpt>
      <trkpt lat="43.11452" lon="-0.39261">
        <ele>471.6</ele>
        <time>2022-09-08T10:29:21Z</time>
      </trkpt>
      <trkpt lat="43.11448" lon="-0.39279">
        <ele>471.4</ele>
        <time>2022-09-08T10:29:24Z</time>
      </trkpt>
      <trkpt lat="43.11443" lon="-0.39289">
        <ele>471.2</ele>
        <time>2022-09-08T10:29:26Z</time>
      </trkpt>
      <trkpt lat="43.11428" lon="-0.39305">
        <ele>471.2</ele>
        <time>2022-09-08T10:29:30Z</time>
      </trkpt>
      <trkpt lat="43.11423" lon="-0.39309">
        <ele>471</ele>
        <time>2022-09-08T10:29:31Z</time>
      </trkpt>
      <trkpt lat="43.11398" lon="-0.39333">
        <ele>470.4</ele>
        <time>2022-09-08T10:29:37Z</time>
      </trkpt>
      <trkpt lat="43.11392" lon="-0.39341">
        <ele>470</ele>
        <time>2022-09-08T10:29:39Z</time>
      </trkpt>
      <trkpt lat="43.11386" lon="-0.39349">
        <ele>469.8</ele>
        <time>2022-09-08T10:29:42Z</time>
      </trkpt>
      <trkpt lat="43.11384" lon="-0.3935">
        <ele>469.8</ele>
        <time>2022-09-08T10:29:43Z</time>
      </trkpt>
      <trkpt lat="43.11381" lon="-0.39349">
        <ele>470.2</ele>
        <time>2022-09-08T10:29:46Z</time>
      </trkpt>
      <trkpt lat="43.11381" lon="-0.39357">
        <ele>470</ele>
        <time>2022-09-08T10:33:53Z</time>
      </trkpt>
      <trkpt lat="43.11381" lon="-0.39361">
        <ele>469.8</ele>
        <time>2022-09-08T10:33:54Z</time>
      </trkpt>
      <trkpt lat="43.11381" lon="-0.39378">
        <ele>469.4</ele>
        <time>2022-09-08T10:33:57Z</time>
      </trkpt>
      <trkpt lat="43.11382" lon="-0.3939">
        <ele>469.2</ele>
        <time>2022-09-08T10:33:59Z</time>
      </trkpt>
      <trkpt lat="43.11385" lon="-0.39402">
        <ele>469</ele>
        <time>2022-09-08T10:34:01Z</time>
      </trkpt>
      <trkpt lat="43.11391" lon="-0.39418">
        <ele>469</ele>
        <time>2022-09-08T10:34:04Z</time>
      </trkpt>
      <trkpt lat="43.11392" lon="-0.39424">
        <ele>469</ele>
        <time>2022-09-08T10:34:05Z</time>
      </trkpt>
      <trkpt lat="43.11393" lon="-0.3943">
        <ele>469</ele>
        <time>2022-09-08T10:34:06Z</time>
      </trkpt>
      <trkpt lat="43.11392" lon="-0.39453">
        <ele>468.6</ele>
        <time>2022-09-08T10:34:10Z</time>
      </trkpt>
      <trkpt lat="43.11391" lon="-0.39481">
        <ele>468</ele>
        <time>2022-09-08T10:34:14Z</time>
      </trkpt>
      <trkpt lat="43.11392" lon="-0.39488">
        <ele>467.8</ele>
        <time>2022-09-08T10:34:15Z</time>
      </trkpt>
      <trkpt lat="43.11403" lon="-0.39512">
        <ele>467.6</ele>
        <time>2022-09-08T10:34:19Z</time>
      </trkpt>
      <trkpt lat="43.11421" lon="-0.39525">
        <ele>467.4</ele>
        <time>2022-09-08T10:34:23Z</time>
      </trkpt>
      <trkpt lat="43.11432" lon="-0.39542">
        <ele>467</ele>
        <time>2022-09-08T10:34:26Z</time>
      </trkpt>
      <trkpt lat="43.11435" lon="-0.39556">
        <ele>466.6</ele>
        <time>2022-09-08T10:34:28Z</time>
      </trkpt>
      <trkpt lat="43.11436" lon="-0.39563">
        <ele>466.4</ele>
        <time>2022-09-08T10:34:29Z</time>
      </trkpt>
      <trkpt lat="43.11437" lon="-0.39571">
        <ele>466.2</ele>
        <time>2022-09-08T10:34:30Z</time>
      </trkpt>
      <trkpt lat="43.11434" lon="-0.39609">
        <ele>465.4</ele>
        <time>2022-09-08T10:34:35Z</time>
      </trkpt>
      <trkpt lat="43.11422" lon="-0.39665">
        <ele>464.6</ele>
        <time>2022-09-08T10:34:42Z</time>
      </trkpt>
      <trkpt lat="43.11421" lon="-0.39674">
        <ele>464.4</ele>
        <time>2022-09-08T10:34:43Z</time>
      </trkpt>
      <trkpt lat="43.1142" lon="-0.39683">
        <ele>464.2</ele>
        <time>2022-09-08T10:34:44Z</time>
      </trkpt>
      <trkpt lat="43.11425" lon="-0.397">
        <ele>463.8</ele>
        <time>2022-09-08T10:34:46Z</time>
      </trkpt>
      <trkpt lat="43.11439" lon="-0.39712">
        <ele>463.4</ele>
        <time>2022-09-08T10:34:49Z</time>
      </trkpt>
      <trkpt lat="43.11445" lon="-0.39714">
        <ele>463.4</ele>
        <time>2022-09-08T10:34:50Z</time>
      </trkpt>
      <trkpt lat="43.11463" lon="-0.39722">
        <ele>463.2</ele>
        <time>2022-09-08T10:34:53Z</time>
      </trkpt>
      <trkpt lat="43.11468" lon="-0.39726">
        <ele>463.2</ele>
        <time>2022-09-08T10:34:54Z</time>
      </trkpt>
      <trkpt lat="43.11473" lon="-0.3973">
        <ele>463.2</ele>
        <time>2022-09-08T10:34:55Z</time>
      </trkpt>
      <trkpt lat="43.11485" lon="-0.39754">
        <ele>463.4</ele>
        <time>2022-09-08T10:34:59Z</time>
      </trkpt>
      <trkpt lat="43.11502" lon="-0.39803">
        <ele>462</ele>
        <time>2022-09-08T10:35:06Z</time>
      </trkpt>
      <trkpt lat="43.11505" lon="-0.39811">
        <ele>461.8</ele>
        <time>2022-09-08T10:35:07Z</time>
      </trkpt>
      <trkpt lat="43.11515" lon="-0.39842">
        <ele>460.8</ele>
        <time>2022-09-08T10:35:11Z</time>
      </trkpt>
      <trkpt lat="43.11527" lon="-0.39881">
        <ele>460.6</ele>
        <time>2022-09-08T10:35:16Z</time>
      </trkpt>
      <trkpt lat="43.11535" lon="-0.39905">
        <ele>459.8</ele>
        <time>2022-09-08T10:35:19Z</time>
      </trkpt>
      <trkpt lat="43.11549" lon="-0.39943">
        <ele>459.2</ele>
        <time>2022-09-08T10:35:24Z</time>
      </trkpt>
      <trkpt lat="43.11566" lon="-0.39973">
        <ele>458.8</ele>
        <time>2022-09-08T10:35:28Z</time>
      </trkpt>
      <trkpt lat="43.11575" lon="-0.39988">
        <ele>458.4</ele>
        <time>2022-09-08T10:35:30Z</time>
      </trkpt>
      <trkpt lat="43.11597" lon="-0.40026">
        <ele>457.8</ele>
        <time>2022-09-08T10:35:35Z</time>
      </trkpt>
      <trkpt lat="43.11601" lon="-0.40034">
        <ele>457.6</ele>
        <time>2022-09-08T10:35:36Z</time>
      </trkpt>
      <trkpt lat="43.11604" lon="-0.40043">
        <ele>457.4</ele>
        <time>2022-09-08T10:35:37Z</time>
      </trkpt>
      <trkpt lat="43.11615" lon="-0.4008">
        <ele>456.8</ele>
        <time>2022-09-08T10:35:41Z</time>
      </trkpt>
      <trkpt lat="43.11616" lon="-0.40099">
        <ele>456.6</ele>
        <time>2022-09-08T10:35:43Z</time>
      </trkpt>
      <trkpt lat="43.11612" lon="-0.40129">
        <ele>456</ele>
        <time>2022-09-08T10:35:46Z</time>
      </trkpt>
      <trkpt lat="43.11609" lon="-0.40138">
        <ele>455.6</ele>
        <time>2022-09-08T10:35:47Z</time>
      </trkpt>
      <trkpt lat="43.11607" lon="-0.40147">
        <ele>455.4</ele>
        <time>2022-09-08T10:35:48Z</time>
      </trkpt>
      <trkpt lat="43.11602" lon="-0.40181">
        <ele>455.4</ele>
        <time>2022-09-08T10:35:52Z</time>
      </trkpt>
      <trkpt lat="43.11593" lon="-0.40225">
        <ele>455.8</ele>
        <time>2022-09-08T10:35:58Z</time>
      </trkpt>
      <trkpt lat="43.11591" lon="-0.40232">
        <ele>455.8</ele>
        <time>2022-09-08T10:35:59Z</time>
      </trkpt>
      <trkpt lat="43.11579" lon="-0.4026">
        <ele>456</ele>
        <time>2022-09-08T10:36:03Z</time>
      </trkpt>
      <trkpt lat="43.11564" lon="-0.40303">
        <ele>455.4</ele>
        <time>2022-09-08T10:36:09Z</time>
      </trkpt>
      <trkpt lat="43.11565" lon="-0.40337">
        <ele>455</ele>
        <time>2022-09-08T10:36:13Z</time>
      </trkpt>
      <trkpt lat="43.11577" lon="-0.40363">
        <ele>454.8</ele>
        <time>2022-09-08T10:36:17Z</time>
      </trkpt>
      <trkpt lat="43.11582" lon="-0.40369">
        <ele>454.6</ele>
        <time>2022-09-08T10:36:18Z</time>
      </trkpt>
      <trkpt lat="43.11598" lon="-0.40391">
        <ele>454.8</ele>
        <time>2022-09-08T10:36:22Z</time>
      </trkpt>
      <trkpt lat="43.11607" lon="-0.40401">
        <ele>454.8</ele>
        <time>2022-09-08T10:36:24Z</time>
      </trkpt>
      <trkpt lat="43.11624" lon="-0.40421">
        <ele>454.4</ele>
        <time>2022-09-08T10:36:28Z</time>
      </trkpt>
      <trkpt lat="43.1164" lon="-0.40443">
        <ele>454.4</ele>
        <time>2022-09-08T10:36:32Z</time>
      </trkpt>
      <trkpt lat="43.11643" lon="-0.40448">
        <ele>454.6</ele>
        <time>2022-09-08T10:36:33Z</time>
      </trkpt>
      <trkpt lat="43.11646" lon="-0.40453">
        <ele>454.6</ele>
        <time>2022-09-08T10:36:34Z</time>
      </trkpt>
      <trkpt lat="43.1165" lon="-0.40462">
        <ele>454.2</ele>
        <time>2022-09-08T10:36:36Z</time>
      </trkpt>
      <trkpt lat="43.11648" lon="-0.40487">
        <ele>453.4</ele>
        <time>2022-09-08T10:36:39Z</time>
      </trkpt>
      <trkpt lat="43.11647" lon="-0.40495">
        <ele>453.4</ele>
        <time>2022-09-08T10:36:40Z</time>
      </trkpt>
      <trkpt lat="43.11648" lon="-0.4052">
        <ele>453.4</ele>
        <time>2022-09-08T10:36:43Z</time>
      </trkpt>
      <trkpt lat="43.11649" lon="-0.40527">
        <ele>453.4</ele>
        <time>2022-09-08T10:36:44Z</time>
      </trkpt>
      <trkpt lat="43.11658" lon="-0.40563">
        <ele>453.6</ele>
        <time>2022-09-08T10:36:49Z</time>
      </trkpt>
      <trkpt lat="43.11657" lon="-0.40571">
        <ele>453.6</ele>
        <time>2022-09-08T10:36:50Z</time>
      </trkpt>
      <trkpt lat="43.11648" lon="-0.406">
        <ele>453.4</ele>
        <time>2022-09-08T10:36:54Z</time>
      </trkpt>
      <trkpt lat="43.11636" lon="-0.40618">
        <ele>453.2</ele>
        <time>2022-09-08T10:36:57Z</time>
      </trkpt>
      <trkpt lat="43.11629" lon="-0.40629">
        <ele>453</ele>
        <time>2022-09-08T10:36:59Z</time>
      </trkpt>
      <trkpt lat="43.11602" lon="-0.4066">
        <ele>452.4</ele>
        <time>2022-09-08T10:37:06Z</time>
      </trkpt>
      <trkpt lat="43.11588" lon="-0.40678">
        <ele>452.4</ele>
        <time>2022-09-08T10:37:10Z</time>
      </trkpt>
      <trkpt lat="43.11582" lon="-0.40687">
        <ele>452.4</ele>
        <time>2022-09-08T10:37:12Z</time>
      </trkpt>
      <trkpt lat="43.11575" lon="-0.40697">
        <ele>452.2</ele>
        <time>2022-09-08T10:37:14Z</time>
      </trkpt>
      <trkpt lat="43.11563" lon="-0.40723">
        <ele>452</ele>
        <time>2022-09-08T10:37:19Z</time>
      </trkpt>
      <trkpt lat="43.11561" lon="-0.40728">
        <ele>452</ele>
        <time>2022-09-08T10:37:20Z</time>
      </trkpt>
      <trkpt lat="43.1154" lon="-0.40763">
        <ele>451.8</ele>
        <time>2022-09-08T10:37:27Z</time>
      </trkpt>
      <trkpt lat="43.11526" lon="-0.40778">
        <ele>451.8</ele>
        <time>2022-09-08T10:37:31Z</time>
      </trkpt>
      <trkpt lat="43.11514" lon="-0.40789">
        <ele>451.6</ele>
        <time>2022-09-08T10:37:34Z</time>
      </trkpt>
      <trkpt lat="43.11499" lon="-0.40806">
        <ele>451.4</ele>
        <time>2022-09-08T10:37:38Z</time>
      </trkpt>
      <trkpt lat="43.11492" lon="-0.40815">
        <ele>451.4</ele>
        <time>2022-09-08T10:37:40Z</time>
      </trkpt>
      <trkpt lat="43.11471" lon="-0.40849">
        <ele>451</ele>
        <time>2022-09-08T10:37:47Z</time>
      </trkpt>
      <trkpt lat="43.11454" lon="-0.40883">
        <ele>450.8</ele>
        <time>2022-09-08T10:37:54Z</time>
      </trkpt>
      <trkpt lat="43.11448" lon="-0.40892">
        <ele>450.8</ele>
        <time>2022-09-08T10:37:56Z</time>
      </trkpt>
      <trkpt lat="43.11436" lon="-0.40903">
        <ele>450.8</ele>
        <time>2022-09-08T10:37:59Z</time>
      </trkpt>
      <trkpt lat="43.11431" lon="-0.40907">
        <ele>450.8</ele>
        <time>2022-09-08T10:38:00Z</time>
      </trkpt>
      <trkpt lat="43.11408" lon="-0.40919">
        <ele>450.6</ele>
        <time>2022-09-08T10:38:05Z</time>
      </trkpt>
      <trkpt lat="43.11403" lon="-0.4092">
        <ele>450.6</ele>
        <time>2022-09-08T10:38:06Z</time>
      </trkpt>
      <trkpt lat="43.11394" lon="-0.40922">
        <ele>450.6</ele>
        <time>2022-09-08T10:38:08Z</time>
      </trkpt>
      <trkpt lat="43.1138" lon="-0.40926">
        <ele>450.4</ele>
        <time>2022-09-08T10:38:11Z</time>
      </trkpt>
      <trkpt lat="43.11371" lon="-0.40928">
        <ele>450.2</ele>
        <time>2022-09-08T10:38:13Z</time>
      </trkpt>
      <trkpt lat="43.11361" lon="-0.40931">
        <ele>450.2</ele>
        <time>2022-09-08T10:38:15Z</time>
      </trkpt>
      <trkpt lat="43.11343" lon="-0.40942">
        <ele>450.4</ele>
        <time>2022-09-08T10:38:19Z</time>
      </trkpt>
      <trkpt lat="43.11314" lon="-0.40964">
        <ele>449.8</ele>
        <time>2022-09-08T10:38:26Z</time>
      </trkpt>
      <trkpt lat="43.11301" lon="-0.40982">
        <ele>449.6</ele>
        <time>2022-09-08T10:38:30Z</time>
      </trkpt>
      <trkpt lat="43.11299" lon="-0.40988">
        <ele>449.6</ele>
        <time>2022-09-08T10:38:31Z</time>
      </trkpt>
      <trkpt lat="43.11295" lon="-0.41013">
        <ele>449.2</ele>
        <time>2022-09-08T10:38:35Z</time>
      </trkpt>
      <trkpt lat="43.11299" lon="-0.41026">
        <ele>448.8</ele>
        <time>2022-09-08T10:38:37Z</time>
      </trkpt>
      <trkpt lat="43.11303" lon="-0.41039">
        <ele>448.6</ele>
        <time>2022-09-08T10:38:39Z</time>
      </trkpt>
      <trkpt lat="43.11321" lon="-0.41095">
        <ele>448.4</ele>
        <time>2022-09-08T10:38:48Z</time>
      </trkpt>
      <trkpt lat="43.11326" lon="-0.41111">
        <ele>448.6</ele>
        <time>2022-09-08T10:38:53Z</time>
      </trkpt>
      <trkpt lat="43.1133" lon="-0.41123">
        <ele>449.2</ele>
        <time>2022-09-08T10:38:58Z</time>
      </trkpt>
      <trkpt lat="43.11328" lon="-0.41138">
        <ele>449.6</ele>
        <time>2022-09-08T10:39:03Z</time>
      </trkpt>
      <trkpt lat="43.1133" lon="-0.41152">
        <ele>449.8</ele>
        <time>2022-09-08T10:39:09Z</time>
      </trkpt>
      <trkpt lat="43.11335" lon="-0.41171">
        <ele>449</ele>
        <time>2022-09-08T10:39:15Z</time>
      </trkpt>
      <trkpt lat="43.11342" lon="-0.41188">
        <ele>447.8</ele>
        <time>2022-09-08T10:39:18Z</time>
      </trkpt>
      <trkpt lat="43.11346" lon="-0.41195">
        <ele>447.4</ele>
        <time>2022-09-08T10:39:19Z</time>
      </trkpt>
      <trkpt lat="43.11353" lon="-0.41209">
        <ele>446.4</ele>
        <time>2022-09-08T10:39:21Z</time>
      </trkpt>
      <trkpt lat="43.11362" lon="-0.41223">
        <ele>444.4</ele>
        <time>2022-09-08T10:39:23Z</time>
      </trkpt>
      <trkpt lat="43.11366" lon="-0.41229">
        <ele>443.6</ele>
        <time>2022-09-08T10:39:24Z</time>
      </trkpt>
      <trkpt lat="43.11371" lon="-0.41236">
        <ele>443</ele>
        <time>2022-09-08T10:39:25Z</time>
      </trkpt>
      <trkpt lat="43.1138" lon="-0.41249">
        <ele>441.4</ele>
        <time>2022-09-08T10:39:27Z</time>
      </trkpt>
      <trkpt lat="43.11384" lon="-0.41255">
        <ele>440.8</ele>
        <time>2022-09-08T10:39:28Z</time>
      </trkpt>
      <trkpt lat="43.11388" lon="-0.41262">
        <ele>440.2</ele>
        <time>2022-09-08T10:39:29Z</time>
      </trkpt>
      <trkpt lat="43.11393" lon="-0.41274">
        <ele>439.4</ele>
        <time>2022-09-08T10:39:31Z</time>
      </trkpt>
      <trkpt lat="43.11395" lon="-0.4128">
        <ele>439</ele>
        <time>2022-09-08T10:39:32Z</time>
      </trkpt>
      <trkpt lat="43.11396" lon="-0.41286">
        <ele>438.6</ele>
        <time>2022-09-08T10:39:33Z</time>
      </trkpt>
      <trkpt lat="43.11394" lon="-0.41304">
        <ele>438</ele>
        <time>2022-09-08T10:39:36Z</time>
      </trkpt>
      <trkpt lat="43.11393" lon="-0.4131">
        <ele>437.6</ele>
        <time>2022-09-08T10:39:37Z</time>
      </trkpt>
      <trkpt lat="43.11394" lon="-0.41325">
        <ele>436.8</ele>
        <time>2022-09-08T10:39:40Z</time>
      </trkpt>
      <trkpt lat="43.11395" lon="-0.41329">
        <ele>436.8</ele>
        <time>2022-09-08T10:39:41Z</time>
      </trkpt>
      <trkpt lat="43.11398" lon="-0.41337">
        <ele>436.4</ele>
        <time>2022-09-08T10:39:43Z</time>
      </trkpt>
      <trkpt lat="43.11407" lon="-0.41359">
        <ele>435.6</ele>
        <time>2022-09-08T10:39:47Z</time>
      </trkpt>
      <trkpt lat="43.11425" lon="-0.41397">
        <ele>435</ele>
        <time>2022-09-08T10:39:53Z</time>
      </trkpt>
      <trkpt lat="43.11432" lon="-0.41409">
        <ele>434.8</ele>
        <time>2022-09-08T10:39:55Z</time>
      </trkpt>
      <trkpt lat="43.1144" lon="-0.4142">
        <ele>434.6</ele>
        <time>2022-09-08T10:39:57Z</time>
      </trkpt>
      <trkpt lat="43.11448" lon="-0.4143">
        <ele>434.4</ele>
        <time>2022-09-08T10:39:59Z</time>
      </trkpt>
      <trkpt lat="43.11472" lon="-0.41454">
        <ele>433.6</ele>
        <time>2022-09-08T10:40:04Z</time>
      </trkpt>
      <trkpt lat="43.11477" lon="-0.41458">
        <ele>433.2</ele>
        <time>2022-09-08T10:40:05Z</time>
      </trkpt>
      <trkpt lat="43.11491" lon="-0.41467">
        <ele>432.4</ele>
        <time>2022-09-08T10:40:08Z</time>
      </trkpt>
      <trkpt lat="43.11502" lon="-0.41471">
        <ele>431.8</ele>
        <time>2022-09-08T10:40:10Z</time>
      </trkpt>
      <trkpt lat="43.11508" lon="-0.41473">
        <ele>431</ele>
        <time>2022-09-08T10:40:11Z</time>
      </trkpt>
      <trkpt lat="43.11527" lon="-0.41481">
        <ele>429.6</ele>
        <time>2022-09-08T10:40:14Z</time>
      </trkpt>
      <trkpt lat="43.11543" lon="-0.41489">
        <ele>429</ele>
        <time>2022-09-08T10:40:16Z</time>
      </trkpt>
      <trkpt lat="43.11558" lon="-0.41499">
        <ele>428.4</ele>
        <time>2022-09-08T10:40:18Z</time>
      </trkpt>
      <trkpt lat="43.11572" lon="-0.41511">
        <ele>428.2</ele>
        <time>2022-09-08T10:40:20Z</time>
      </trkpt>
      <trkpt lat="43.11608" lon="-0.41546">
        <ele>427.4</ele>
        <time>2022-09-08T10:40:26Z</time>
      </trkpt>
      <trkpt lat="43.11619" lon="-0.41557">
        <ele>427.4</ele>
        <time>2022-09-08T10:40:28Z</time>
      </trkpt>
      <trkpt lat="43.1164" lon="-0.41579">
        <ele>427</ele>
        <time>2022-09-08T10:40:32Z</time>
      </trkpt>
      <trkpt lat="43.11645" lon="-0.41585">
        <ele>427</ele>
        <time>2022-09-08T10:40:33Z</time>
      </trkpt>
      <trkpt lat="43.11655" lon="-0.41609">
        <ele>426.8</ele>
        <time>2022-09-08T10:40:36Z</time>
      </trkpt>
      <trkpt lat="43.11658" lon="-0.41618">
        <ele>427</ele>
        <time>2022-09-08T10:40:37Z</time>
      </trkpt>
      <trkpt lat="43.11672" lon="-0.41645">
        <ele>427.6</ele>
        <time>2022-09-08T10:40:41Z</time>
      </trkpt>
      <trkpt lat="43.11694" lon="-0.41673">
        <ele>428.6</ele>
        <time>2022-09-08T10:40:47Z</time>
      </trkpt>
      <trkpt lat="43.11698" lon="-0.41676">
        <ele>428.8</ele>
        <time>2022-09-08T10:40:48Z</time>
      </trkpt>
      <trkpt lat="43.11717" lon="-0.41687">
        <ele>429.2</ele>
        <time>2022-09-08T10:40:53Z</time>
      </trkpt>
      <trkpt lat="43.11729" lon="-0.41692">
        <ele>429.6</ele>
        <time>2022-09-08T10:40:56Z</time>
      </trkpt>
      <trkpt lat="43.11748" lon="-0.41699">
        <ele>430.4</ele>
        <time>2022-09-08T10:41:01Z</time>
      </trkpt>
      <trkpt lat="43.11763" lon="-0.41702">
        <ele>430.6</ele>
        <time>2022-09-08T10:41:05Z</time>
      </trkpt>
      <trkpt lat="43.11767" lon="-0.41702">
        <ele>430.8</ele>
        <time>2022-09-08T10:41:06Z</time>
      </trkpt>
      <trkpt lat="43.11788" lon="-0.41704">
        <ele>431</ele>
        <time>2022-09-08T10:41:12Z</time>
      </trkpt>
      <trkpt lat="43.11798" lon="-0.41707">
        <ele>431.2</ele>
        <time>2022-09-08T10:41:14Z</time>
      </trkpt>
      <trkpt lat="43.11811" lon="-0.41716">
        <ele>431.2</ele>
        <time>2022-09-08T10:41:17Z</time>
      </trkpt>
      <trkpt lat="43.11815" lon="-0.41719">
        <ele>431.2</ele>
        <time>2022-09-08T10:41:18Z</time>
      </trkpt>
      <trkpt lat="43.11832" lon="-0.41732">
        <ele>431.6</ele>
        <time>2022-09-08T10:41:22Z</time>
      </trkpt>
      <trkpt lat="43.11846" lon="-0.41745">
        <ele>432.4</ele>
        <time>2022-09-08T10:41:26Z</time>
      </trkpt>
      <trkpt lat="43.11852" lon="-0.41751">
        <ele>432.8</ele>
        <time>2022-09-08T10:41:28Z</time>
      </trkpt>
      <trkpt lat="43.11861" lon="-0.41763">
        <ele>432.8</ele>
        <time>2022-09-08T10:41:31Z</time>
      </trkpt>
      <trkpt lat="43.11873" lon="-0.41787">
        <ele>433.2</ele>
        <time>2022-09-08T10:41:36Z</time>
      </trkpt>
      <trkpt lat="43.11875" lon="-0.41792">
        <ele>433.4</ele>
        <time>2022-09-08T10:41:37Z</time>
      </trkpt>
      <trkpt lat="43.11886" lon="-0.41829">
        <ele>433</ele>
        <time>2022-09-08T10:41:44Z</time>
      </trkpt>
      <trkpt lat="43.11891" lon="-0.41841">
        <ele>432.8</ele>
        <time>2022-09-08T10:41:46Z</time>
      </trkpt>
      <trkpt lat="43.11902" lon="-0.41859">
        <ele>431.8</ele>
        <time>2022-09-08T10:41:49Z</time>
      </trkpt>
      <trkpt lat="43.11906" lon="-0.41866">
        <ele>431.4</ele>
        <time>2022-09-08T10:41:50Z</time>
      </trkpt>
      <trkpt lat="43.11911" lon="-0.41872">
        <ele>431.2</ele>
        <time>2022-09-08T10:41:51Z</time>
      </trkpt>
      <trkpt lat="43.11922" lon="-0.41883">
        <ele>430.4</ele>
        <time>2022-09-08T10:41:53Z</time>
      </trkpt>
      <trkpt lat="43.11929" lon="-0.41887">
        <ele>430</ele>
        <time>2022-09-08T10:41:54Z</time>
      </trkpt>
      <trkpt lat="43.11943" lon="-0.41893">
        <ele>429</ele>
        <time>2022-09-08T10:41:56Z</time>
      </trkpt>
      <trkpt lat="43.1195" lon="-0.41896">
        <ele>428.2</ele>
        <time>2022-09-08T10:41:57Z</time>
      </trkpt>
      <trkpt lat="43.11957" lon="-0.419">
        <ele>427.4</ele>
        <time>2022-09-08T10:41:58Z</time>
      </trkpt>
      <trkpt lat="43.11973" lon="-0.41911">
        <ele>425.4</ele>
        <time>2022-09-08T10:42:00Z</time>
      </trkpt>
      <trkpt lat="43.1198" lon="-0.41919">
        <ele>424.4</ele>
        <time>2022-09-08T10:42:01Z</time>
      </trkpt>
      <trkpt lat="43.11986" lon="-0.41927">
        <ele>423.2</ele>
        <time>2022-09-08T10:42:02Z</time>
      </trkpt>
      <trkpt lat="43.11993" lon="-0.41944">
        <ele>421.4</ele>
        <time>2022-09-08T10:42:04Z</time>
      </trkpt>
      <trkpt lat="43.11996" lon="-0.41954">
        <ele>420.6</ele>
        <time>2022-09-08T10:42:05Z</time>
      </trkpt>
      <trkpt lat="43.11999" lon="-0.41963">
        <ele>419.8</ele>
        <time>2022-09-08T10:42:06Z</time>
      </trkpt>
      <trkpt lat="43.12002" lon="-0.41973">
        <ele>418.8</ele>
        <time>2022-09-08T10:42:07Z</time>
      </trkpt>
      <trkpt lat="43.12006" lon="-0.41983">
        <ele>418</ele>
        <time>2022-09-08T10:42:08Z</time>
      </trkpt>
      <trkpt lat="43.12011" lon="-0.41993">
        <ele>417.2</ele>
        <time>2022-09-08T10:42:09Z</time>
      </trkpt>
      <trkpt lat="43.12016" lon="-0.42002">
        <ele>416</ele>
        <time>2022-09-08T10:42:10Z</time>
      </trkpt>
      <trkpt lat="43.12021" lon="-0.42012">
        <ele>414</ele>
        <time>2022-09-08T10:42:11Z</time>
      </trkpt>
      <trkpt lat="43.12027" lon="-0.42021">
        <ele>412.8</ele>
        <time>2022-09-08T10:42:12Z</time>
      </trkpt>
      <trkpt lat="43.12032" lon="-0.42031">
        <ele>411.8</ele>
        <time>2022-09-08T10:42:13Z</time>
      </trkpt>
      <trkpt lat="43.12037" lon="-0.42041">
        <ele>410.8</ele>
        <time>2022-09-08T10:42:14Z</time>
      </trkpt>
      <trkpt lat="43.12044" lon="-0.42063">
        <ele>408.8</ele>
        <time>2022-09-08T10:42:16Z</time>
      </trkpt>
      <trkpt lat="43.12048" lon="-0.42073">
        <ele>407.8</ele>
        <time>2022-09-08T10:42:17Z</time>
      </trkpt>
      <trkpt lat="43.12053" lon="-0.42085">
        <ele>407</ele>
        <time>2022-09-08T10:42:18Z</time>
      </trkpt>
      <trkpt lat="43.12058" lon="-0.42097">
        <ele>406.4</ele>
        <time>2022-09-08T10:42:19Z</time>
      </trkpt>
      <trkpt lat="43.12064" lon="-0.42122">
        <ele>404.6</ele>
        <time>2022-09-08T10:42:21Z</time>
      </trkpt>
      <trkpt lat="43.12068" lon="-0.42135">
        <ele>403.4</ele>
        <time>2022-09-08T10:42:22Z</time>
      </trkpt>
      <trkpt lat="43.12072" lon="-0.42147">
        <ele>402.4</ele>
        <time>2022-09-08T10:42:23Z</time>
      </trkpt>
      <trkpt lat="43.12076" lon="-0.42159">
        <ele>401.2</ele>
        <time>2022-09-08T10:42:24Z</time>
      </trkpt>
      <trkpt lat="43.12081" lon="-0.4217">
        <ele>400.2</ele>
        <time>2022-09-08T10:42:25Z</time>
      </trkpt>
      <trkpt lat="43.12087" lon="-0.42181">
        <ele>399</ele>
        <time>2022-09-08T10:42:26Z</time>
      </trkpt>
      <trkpt lat="43.12092" lon="-0.42191">
        <ele>397.8</ele>
        <time>2022-09-08T10:42:27Z</time>
      </trkpt>
      <trkpt lat="43.12099" lon="-0.422">
        <ele>396.6</ele>
        <time>2022-09-08T10:42:28Z</time>
      </trkpt>
      <trkpt lat="43.12105" lon="-0.42208">
        <ele>395.4</ele>
        <time>2022-09-08T10:42:29Z</time>
      </trkpt>
      <trkpt lat="43.12113" lon="-0.42216">
        <ele>394.4</ele>
        <time>2022-09-08T10:42:30Z</time>
      </trkpt>
      <trkpt lat="43.12121" lon="-0.42223">
        <ele>393.6</ele>
        <time>2022-09-08T10:42:31Z</time>
      </trkpt>
      <trkpt lat="43.12138" lon="-0.42233">
        <ele>392.2</ele>
        <time>2022-09-08T10:42:33Z</time>
      </trkpt>
      <trkpt lat="43.12146" lon="-0.42239">
        <ele>392</ele>
        <time>2022-09-08T10:42:34Z</time>
      </trkpt>
      <trkpt lat="43.12153" lon="-0.42246">
        <ele>391.4</ele>
        <time>2022-09-08T10:42:35Z</time>
      </trkpt>
      <trkpt lat="43.12158" lon="-0.42255">
        <ele>391.2</ele>
        <time>2022-09-08T10:42:36Z</time>
      </trkpt>
      <trkpt lat="43.12167" lon="-0.42275">
        <ele>391.2</ele>
        <time>2022-09-08T10:42:38Z</time>
      </trkpt>
      <trkpt lat="43.12189" lon="-0.42308">
        <ele>390.2</ele>
        <time>2022-09-08T10:42:42Z</time>
      </trkpt>
      <trkpt lat="43.12223" lon="-0.42354">
        <ele>389.6</ele>
        <time>2022-09-08T10:42:48Z</time>
      </trkpt>
      <trkpt lat="43.12245" lon="-0.42385">
        <ele>389</ele>
        <time>2022-09-08T10:42:53Z</time>
      </trkpt>
      <trkpt lat="43.1226" lon="-0.42407">
        <ele>389.8</ele>
        <time>2022-09-08T10:42:58Z</time>
      </trkpt>
      <trkpt lat="43.12279" lon="-0.42433">
        <ele>390.2</ele>
        <time>2022-09-08T10:43:05Z</time>
      </trkpt>
      <trkpt lat="43.12281" lon="-0.42437">
        <ele>390.2</ele>
        <time>2022-09-08T10:43:06Z</time>
      </trkpt>
      <trkpt lat="43.12303" lon="-0.42472">
        <ele>391</ele>
        <time>2022-09-08T10:43:15Z</time>
      </trkpt>
      <trkpt lat="43.12307" lon="-0.42478">
        <ele>391.4</ele>
        <time>2022-09-08T10:43:17Z</time>
      </trkpt>
      <trkpt lat="43.12316" lon="-0.42492">
        <ele>392.6</ele>
        <time>2022-09-08T10:43:22Z</time>
      </trkpt>
      <trkpt lat="43.12318" lon="-0.42495">
        <ele>393</ele>
        <time>2022-09-08T10:43:23Z</time>
      </trkpt>
      <trkpt lat="43.12325" lon="-0.42506">
        <ele>393.6</ele>
        <time>2022-09-08T10:43:28Z</time>
      </trkpt>
      <trkpt lat="43.12327" lon="-0.42511">
        <ele>394</ele>
        <time>2022-09-08T10:43:30Z</time>
      </trkpt>
      <trkpt lat="43.12337" lon="-0.42531">
        <ele>394.6</ele>
        <time>2022-09-08T10:43:37Z</time>
      </trkpt>
      <trkpt lat="43.1235" lon="-0.4255">
        <ele>395.6</ele>
        <time>2022-09-08T10:43:45Z</time>
      </trkpt>
      <trkpt lat="43.12351" lon="-0.42552">
        <ele>395.8</ele>
        <time>2022-09-08T10:43:46Z</time>
      </trkpt>
      <trkpt lat="43.1236" lon="-0.42564">
        <ele>396.4</ele>
        <time>2022-09-08T10:43:52Z</time>
      </trkpt>
      <trkpt lat="43.12362" lon="-0.42569">
        <ele>396.8</ele>
        <time>2022-09-08T10:43:54Z</time>
      </trkpt>
      <trkpt lat="43.12369" lon="-0.42579">
        <ele>397.6</ele>
        <time>2022-09-08T10:43:59Z</time>
      </trkpt>
      <trkpt lat="43.12371" lon="-0.42585">
        <ele>398</ele>
        <time>2022-09-08T10:44:02Z</time>
      </trkpt>
      <trkpt lat="43.12373" lon="-0.42592">
        <ele>398.2</ele>
        <time>2022-09-08T10:44:05Z</time>
      </trkpt>
      <trkpt lat="43.1238" lon="-0.42603">
        <ele>399</ele>
        <time>2022-09-08T10:44:11Z</time>
      </trkpt>
      <trkpt lat="43.1238" lon="-0.42606">
        <ele>399.2</ele>
        <time>2022-09-08T10:44:12Z</time>
      </trkpt>
      <trkpt lat="43.12381" lon="-0.42608">
        <ele>399.4</ele>
        <time>2022-09-08T10:44:13Z</time>
      </trkpt>
      <trkpt lat="43.12384" lon="-0.42614">
        <ele>400.2</ele>
        <time>2022-09-08T10:44:16Z</time>
      </trkpt>
      <trkpt lat="43.1239" lon="-0.42625">
        <ele>401</ele>
        <time>2022-09-08T10:44:22Z</time>
      </trkpt>
      <trkpt lat="43.12392" lon="-0.42626">
        <ele>401.2</ele>
        <time>2022-09-08T10:44:23Z</time>
      </trkpt>
      <trkpt lat="43.12401" lon="-0.42639">
        <ele>401.8</ele>
        <time>2022-09-08T10:44:30Z</time>
      </trkpt>
      <trkpt lat="43.12405" lon="-0.42644">
        <ele>402.2</ele>
        <time>2022-09-08T10:44:33Z</time>
      </trkpt>
      <trkpt lat="43.12408" lon="-0.42653">
        <ele>403</ele>
        <time>2022-09-08T10:44:37Z</time>
      </trkpt>
      <trkpt lat="43.1241" lon="-0.42656">
        <ele>403.2</ele>
        <time>2022-09-08T10:44:39Z</time>
      </trkpt>
      <trkpt lat="43.12416" lon="-0.42667">
        <ele>404.4</ele>
        <time>2022-09-08T10:44:45Z</time>
      </trkpt>
      <trkpt lat="43.12423" lon="-0.42676">
        <ele>405.4</ele>
        <time>2022-09-08T10:44:51Z</time>
      </trkpt>
      <trkpt lat="43.12424" lon="-0.42678">
        <ele>405.6</ele>
        <time>2022-09-08T10:44:52Z</time>
      </trkpt>
      <trkpt lat="43.12431" lon="-0.42689">
        <ele>406.8</ele>
        <time>2022-09-08T10:44:59Z</time>
      </trkpt>
      <trkpt lat="43.12437" lon="-0.42701">
        <ele>407.8</ele>
        <time>2022-09-08T10:45:06Z</time>
      </trkpt>
      <trkpt lat="43.12438" lon="-0.42702">
        <ele>407.8</ele>
        <time>2022-09-08T10:45:07Z</time>
      </trkpt>
      <trkpt lat="43.12445" lon="-0.42713">
        <ele>408.8</ele>
        <time>2022-09-08T10:45:14Z</time>
      </trkpt>
      <trkpt lat="43.12447" lon="-0.42713">
        <ele>409</ele>
        <time>2022-09-08T10:45:15Z</time>
      </trkpt>
      <trkpt lat="43.12456" lon="-0.42708">
        <ele>409.8</ele>
        <time>2022-09-08T10:45:21Z</time>
      </trkpt>
      <trkpt lat="43.12456" lon="-0.42706">
        <ele>410</ele>
        <time>2022-09-08T10:45:22Z</time>
      </trkpt>
      <trkpt lat="43.12456" lon="-0.427">
        <ele>410.6</ele>
        <time>2022-09-08T10:45:25Z</time>
      </trkpt>
      <trkpt lat="43.12456" lon="-0.42698">
        <ele>410.6</ele>
        <time>2022-09-08T10:45:26Z</time>
      </trkpt>
      <trkpt lat="43.12456" lon="-0.42694">
        <ele>411</ele>
        <time>2022-09-08T10:45:28Z</time>
      </trkpt>
      <trkpt lat="43.12458" lon="-0.42681">
        <ele>412</ele>
        <time>2022-09-08T10:45:34Z</time>
      </trkpt>
      <trkpt lat="43.12458" lon="-0.42679">
        <ele>412.2</ele>
        <time>2022-09-08T10:45:35Z</time>
      </trkpt>
      <trkpt lat="43.12459" lon="-0.4267">
        <ele>413</ele>
        <time>2022-09-08T10:45:41Z</time>
      </trkpt>
      <trkpt lat="43.1246" lon="-0.42669">
        <ele>413.2</ele>
        <time>2022-09-08T10:45:42Z</time>
      </trkpt>
      <trkpt lat="43.12461" lon="-0.42668">
        <ele>413.4</ele>
        <time>2022-09-08T10:45:43Z</time>
      </trkpt>
      <trkpt lat="43.12465" lon="-0.42671">
        <ele>414</ele>
        <time>2022-09-08T10:45:46Z</time>
      </trkpt>
      <trkpt lat="43.12466" lon="-0.42674">
        <ele>414.2</ele>
        <time>2022-09-08T10:45:48Z</time>
      </trkpt>
      <trkpt lat="43.12468" lon="-0.42682">
        <ele>414.2</ele>
        <time>2022-09-08T10:45:53Z</time>
      </trkpt>
      <trkpt lat="43.12466" lon="-0.42696">
        <ele>413.8</ele>
        <time>2022-09-08T10:46:00Z</time>
      </trkpt>
      <trkpt lat="43.12465" lon="-0.42696">
        <ele>413.8</ele>
        <time>2022-09-08T11:32:25Z</time>
      </trkpt>
      <trkpt lat="43.12466" lon="-0.4269">
        <ele>413.8</ele>
        <time>2022-09-08T11:32:28Z</time>
      </trkpt>
      <trkpt lat="43.12466" lon="-0.42676">
        <ele>414.2</ele>
        <time>2022-09-08T11:32:35Z</time>
      </trkpt>
      <trkpt lat="43.12465" lon="-0.42673">
        <ele>414.2</ele>
        <time>2022-09-08T11:32:37Z</time>
      </trkpt>
      <trkpt lat="43.12461" lon="-0.42669">
        <ele>414.2</ele>
        <time>2022-09-08T11:32:41Z</time>
      </trkpt>
      <trkpt lat="43.12458" lon="-0.42675">
        <ele>413.6</ele>
        <time>2022-09-08T11:32:46Z</time>
      </trkpt>
      <trkpt lat="43.12458" lon="-0.42693">
        <ele>412.2</ele>
        <time>2022-09-08T11:32:51Z</time>
      </trkpt>
      <trkpt lat="43.12455" lon="-0.4271">
        <ele>411</ele>
        <time>2022-09-08T11:32:55Z</time>
      </trkpt>
      <trkpt lat="43.12453" lon="-0.42714">
        <ele>411</ele>
        <time>2022-09-08T11:32:56Z</time>
      </trkpt>
      <trkpt lat="43.12439" lon="-0.42733">
        <ele>410</ele>
        <time>2022-09-08T11:33:01Z</time>
      </trkpt>
      <trkpt lat="43.12437" lon="-0.42737">
        <ele>409.6</ele>
        <time>2022-09-08T11:33:02Z</time>
      </trkpt>
      <trkpt lat="43.12432" lon="-0.42755">
        <ele>408.2</ele>
        <time>2022-09-08T11:33:05Z</time>
      </trkpt>
      <trkpt lat="43.12431" lon="-0.42761">
        <ele>408</ele>
        <time>2022-09-08T11:33:06Z</time>
      </trkpt>
      <trkpt lat="43.1243" lon="-0.42783">
        <ele>407.4</ele>
        <time>2022-09-08T11:33:09Z</time>
      </trkpt>
      <trkpt lat="43.1243" lon="-0.4279">
        <ele>407</ele>
        <time>2022-09-08T11:33:10Z</time>
      </trkpt>
      <trkpt lat="43.12429" lon="-0.4282">
        <ele>405.6</ele>
        <time>2022-09-08T11:33:14Z</time>
      </trkpt>
      <trkpt lat="43.12433" lon="-0.42853">
        <ele>404.2</ele>
        <time>2022-09-08T11:33:18Z</time>
      </trkpt>
      <trkpt lat="43.12443" lon="-0.42877">
        <ele>402.8</ele>
        <time>2022-09-08T11:33:21Z</time>
      </trkpt>
      <trkpt lat="43.12447" lon="-0.42885">
        <ele>402.4</ele>
        <time>2022-09-08T11:33:22Z</time>
      </trkpt>
      <trkpt lat="43.12451" lon="-0.42892">
        <ele>402.2</ele>
        <time>2022-09-08T11:33:23Z</time>
      </trkpt>
      <trkpt lat="43.12456" lon="-0.42899">
        <ele>401.8</ele>
        <time>2022-09-08T11:33:24Z</time>
      </trkpt>
      <trkpt lat="43.12468" lon="-0.42919">
        <ele>400.4</ele>
        <time>2022-09-08T11:33:27Z</time>
      </trkpt>
      <trkpt lat="43.12475" lon="-0.42932">
        <ele>398.6</ele>
        <time>2022-09-08T11:33:29Z</time>
      </trkpt>
      <trkpt lat="43.12481" lon="-0.42943">
        <ele>397.6</ele>
        <time>2022-09-08T11:33:31Z</time>
      </trkpt>
      <trkpt lat="43.12487" lon="-0.42954">
        <ele>396.8</ele>
        <time>2022-09-08T11:33:33Z</time>
      </trkpt>
      <trkpt lat="43.12497" lon="-0.42969">
        <ele>396.4</ele>
        <time>2022-09-08T11:33:36Z</time>
      </trkpt>
      <trkpt lat="43.12501" lon="-0.42974">
        <ele>396.6</ele>
        <time>2022-09-08T11:33:38Z</time>
      </trkpt>
      <trkpt lat="43.12503" lon="-0.42976">
        <ele>396.8</ele>
        <time>2022-09-08T11:33:39Z</time>
      </trkpt>
      <trkpt lat="43.12506" lon="-0.42978">
        <ele>397.6</ele>
        <time>2022-09-08T11:33:41Z</time>
      </trkpt>
      <trkpt lat="43.12508" lon="-0.42982">
        <ele>398</ele>
        <time>2022-09-08T11:33:43Z</time>
      </trkpt>
      <trkpt lat="43.12509" lon="-0.42991">
        <ele>398.4</ele>
        <time>2022-09-08T11:33:49Z</time>
      </trkpt>
      <trkpt lat="43.12507" lon="-0.42987">
        <ele>398.4</ele>
        <time>2022-09-08T11:34:08Z</time>
      </trkpt>
      <trkpt lat="43.12504" lon="-0.42982">
        <ele>398.2</ele>
        <time>2022-09-08T11:34:10Z</time>
      </trkpt>
      <trkpt lat="43.12496" lon="-0.42965">
        <ele>397.4</ele>
        <time>2022-09-08T11:34:14Z</time>
      </trkpt>
      <trkpt lat="43.12486" lon="-0.4296">
        <ele>396.6</ele>
        <time>2022-09-08T11:34:17Z</time>
      </trkpt>
      <trkpt lat="43.12482" lon="-0.42964">
        <ele>396</ele>
        <time>2022-09-08T11:34:18Z</time>
      </trkpt>
      <trkpt lat="43.12478" lon="-0.42978">
        <ele>395</ele>
        <time>2022-09-08T11:34:20Z</time>
      </trkpt>
      <trkpt lat="43.12477" lon="-0.42987">
        <ele>395</ele>
        <time>2022-09-08T11:34:21Z</time>
      </trkpt>
      <trkpt lat="43.12468" lon="-0.43013">
        <ele>393.8</ele>
        <time>2022-09-08T11:34:24Z</time>
      </trkpt>
      <trkpt lat="43.12463" lon="-0.43022">
        <ele>393</ele>
        <time>2022-09-08T11:34:25Z</time>
      </trkpt>
      <trkpt lat="43.12459" lon="-0.43031">
        <ele>392.2</ele>
        <time>2022-09-08T11:34:26Z</time>
      </trkpt>
      <trkpt lat="43.12442" lon="-0.43057">
        <ele>391</ele>
        <time>2022-09-08T11:34:29Z</time>
      </trkpt>
      <trkpt lat="43.12432" lon="-0.43076">
        <ele>390.2</ele>
        <time>2022-09-08T11:34:31Z</time>
      </trkpt>
      <trkpt lat="43.12428" lon="-0.43086">
        <ele>389.6</ele>
        <time>2022-09-08T11:34:32Z</time>
      </trkpt>
      <trkpt lat="43.12427" lon="-0.43096">
        <ele>389</ele>
        <time>2022-09-08T11:34:33Z</time>
      </trkpt>
      <trkpt lat="43.12427" lon="-0.43106">
        <ele>388.4</ele>
        <time>2022-09-08T11:34:34Z</time>
      </trkpt>
      <trkpt lat="43.12433" lon="-0.43121">
        <ele>387.8</ele>
        <time>2022-09-08T11:34:36Z</time>
      </trkpt>
      <trkpt lat="43.12444" lon="-0.43139">
        <ele>387.6</ele>
        <time>2022-09-08T11:34:39Z</time>
      </trkpt>
      <trkpt lat="43.12451" lon="-0.43149">
        <ele>387.6</ele>
        <time>2022-09-08T11:34:41Z</time>
      </trkpt>
      <trkpt lat="43.12468" lon="-0.43178">
        <ele>388</ele>
        <time>2022-09-08T11:34:47Z</time>
      </trkpt>
      <trkpt lat="43.12469" lon="-0.43183">
        <ele>388</ele>
        <time>2022-09-08T11:34:48Z</time>
      </trkpt>
      <trkpt lat="43.12482" lon="-0.43232">
        <ele>388.6</ele>
        <time>2022-09-08T11:34:57Z</time>
      </trkpt>
      <trkpt lat="43.1249" lon="-0.43267">
        <ele>388.6</ele>
        <time>2022-09-08T11:35:04Z</time>
      </trkpt>
      <trkpt lat="43.12495" lon="-0.43282">
        <ele>388.4</ele>
        <time>2022-09-08T11:35:07Z</time>
      </trkpt>
      <trkpt lat="43.12503" lon="-0.43296">
        <ele>388.4</ele>
        <time>2022-09-08T11:35:10Z</time>
      </trkpt>
      <trkpt lat="43.12528" lon="-0.43332">
        <ele>387.8</ele>
        <time>2022-09-08T11:35:18Z</time>
      </trkpt>
      <trkpt lat="43.1253" lon="-0.43338">
        <ele>388</ele>
        <time>2022-09-08T11:35:19Z</time>
      </trkpt>
      <trkpt lat="43.12534" lon="-0.43355">
        <ele>387.8</ele>
        <time>2022-09-08T11:35:22Z</time>
      </trkpt>
      <trkpt lat="43.12542" lon="-0.43397">
        <ele>387.6</ele>
        <time>2022-09-08T11:35:29Z</time>
      </trkpt>
      <trkpt lat="43.12543" lon="-0.43403">
        <ele>387.4</ele>
        <time>2022-09-08T11:35:30Z</time>
      </trkpt>
      <trkpt lat="43.12553" lon="-0.43457">
        <ele>387.4</ele>
        <time>2022-09-08T11:35:39Z</time>
      </trkpt>
      <trkpt lat="43.12562" lon="-0.43503">
        <ele>387.6</ele>
        <time>2022-09-08T11:35:47Z</time>
      </trkpt>
      <trkpt lat="43.1257" lon="-0.43552">
        <ele>388.2</ele>
        <time>2022-09-08T11:35:56Z</time>
      </trkpt>
      <trkpt lat="43.12571" lon="-0.43564">
        <ele>388.2</ele>
        <time>2022-09-08T11:35:58Z</time>
      </trkpt>
      <trkpt lat="43.12567" lon="-0.43609">
        <ele>388</ele>
        <time>2022-09-08T11:36:06Z</time>
      </trkpt>
      <trkpt lat="43.12567" lon="-0.43656">
        <ele>388.2</ele>
        <time>2022-09-08T11:36:14Z</time>
      </trkpt>
      <trkpt lat="43.12578" lon="-0.437">
        <ele>388.2</ele>
        <time>2022-09-08T11:36:22Z</time>
      </trkpt>
      <trkpt lat="43.12583" lon="-0.43736">
        <ele>388.8</ele>
        <time>2022-09-08T11:36:29Z</time>
      </trkpt>
      <trkpt lat="43.12584" lon="-0.43747">
        <ele>389.2</ele>
        <time>2022-09-08T11:36:31Z</time>
      </trkpt>
      <trkpt lat="43.12585" lon="-0.43784">
        <ele>389.4</ele>
        <time>2022-09-08T11:36:38Z</time>
      </trkpt>
      <trkpt lat="43.12585" lon="-0.43817">
        <ele>389.6</ele>
        <time>2022-09-08T11:36:45Z</time>
      </trkpt>
      <trkpt lat="43.12585" lon="-0.43845">
        <ele>390.4</ele>
        <time>2022-09-08T11:36:51Z</time>
      </trkpt>
      <trkpt lat="43.12585" lon="-0.43856">
        <ele>391</ele>
        <time>2022-09-08T11:36:54Z</time>
      </trkpt>
      <trkpt lat="43.12585" lon="-0.43874">
        <ele>391.6</ele>
        <time>2022-09-08T11:36:59Z</time>
      </trkpt>
      <trkpt lat="43.12586" lon="-0.43887">
        <ele>391.8</ele>
        <time>2022-09-08T11:37:03Z</time>
      </trkpt>
      <trkpt lat="43.12586" lon="-0.43901">
        <ele>392.8</ele>
        <time>2022-09-08T11:37:07Z</time>
      </trkpt>
      <trkpt lat="43.12586" lon="-0.43915">
        <ele>393.2</ele>
        <time>2022-09-08T11:37:12Z</time>
      </trkpt>
      <trkpt lat="43.12581" lon="-0.43949">
        <ele>393.4</ele>
        <time>2022-09-08T11:37:21Z</time>
      </trkpt>
      <trkpt lat="43.12581" lon="-0.43953">
        <ele>393.4</ele>
        <time>2022-09-08T11:37:22Z</time>
      </trkpt>
      <trkpt lat="43.12578" lon="-0.43974">
        <ele>393.6</ele>
        <time>2022-09-08T11:37:28Z</time>
      </trkpt>
      <trkpt lat="43.12577" lon="-0.43982">
        <ele>393.8</ele>
        <time>2022-09-08T11:37:30Z</time>
      </trkpt>
      <trkpt lat="43.1258" lon="-0.44003">
        <ele>394.6</ele>
        <time>2022-09-08T11:37:36Z</time>
      </trkpt>
      <trkpt lat="43.12581" lon="-0.44009">
        <ele>395</ele>
        <time>2022-09-08T11:37:38Z</time>
      </trkpt>
      <trkpt lat="43.12584" lon="-0.44027">
        <ele>395.6</ele>
        <time>2022-09-08T11:37:44Z</time>
      </trkpt>
      <trkpt lat="43.12587" lon="-0.44036">
        <ele>396</ele>
        <time>2022-09-08T11:37:47Z</time>
      </trkpt>
      <trkpt lat="43.12592" lon="-0.44053">
        <ele>396.4</ele>
        <time>2022-09-08T11:37:52Z</time>
      </trkpt>
      <trkpt lat="43.12604" lon="-0.44077">
        <ele>396.8</ele>
        <time>2022-09-08T11:38:00Z</time>
      </trkpt>
      <trkpt lat="43.12605" lon="-0.4408">
        <ele>397</ele>
        <time>2022-09-08T11:38:01Z</time>
      </trkpt>
      <trkpt lat="43.12608" lon="-0.44083">
        <ele>397.2</ele>
        <time>2022-09-08T11:38:02Z</time>
      </trkpt>
      <trkpt lat="43.12618" lon="-0.44097">
        <ele>397.4</ele>
        <time>2022-09-08T11:38:07Z</time>
      </trkpt>
      <trkpt lat="43.12634" lon="-0.44121">
        <ele>398.2</ele>
        <time>2022-09-08T11:38:15Z</time>
      </trkpt>
      <trkpt lat="43.12645" lon="-0.44137">
        <ele>399.2</ele>
        <time>2022-09-08T11:38:21Z</time>
      </trkpt>
      <trkpt lat="43.12647" lon="-0.44139">
        <ele>399.4</ele>
        <time>2022-09-08T11:38:22Z</time>
      </trkpt>
      <trkpt lat="43.12661" lon="-0.4416">
        <ele>400.2</ele>
        <time>2022-09-08T11:38:30Z</time>
      </trkpt>
      <trkpt lat="43.12663" lon="-0.44163">
        <ele>400.2</ele>
        <time>2022-09-08T11:38:31Z</time>
      </trkpt>
      <trkpt lat="43.12665" lon="-0.44181">
        <ele>401</ele>
        <time>2022-09-08T11:38:36Z</time>
      </trkpt>
      <trkpt lat="43.12663" lon="-0.44195">
        <ele>401.4</ele>
        <time>2022-09-08T11:38:40Z</time>
      </trkpt>
      <trkpt lat="43.1266" lon="-0.44205">
        <ele>401.4</ele>
        <time>2022-09-08T11:38:43Z</time>
      </trkpt>
      <trkpt lat="43.12655" lon="-0.44229">
        <ele>401.8</ele>
        <time>2022-09-08T11:38:50Z</time>
      </trkpt>
      <trkpt lat="43.12658" lon="-0.44244">
        <ele>402.4</ele>
        <time>2022-09-08T11:38:55Z</time>
      </trkpt>
      <trkpt lat="43.12663" lon="-0.44254">
        <ele>403.6</ele>
        <time>2022-09-08T11:39:00Z</time>
      </trkpt>
      <trkpt lat="43.12664" lon="-0.44256">
        <ele>403.6</ele>
        <time>2022-09-08T11:39:01Z</time>
      </trkpt>
      <trkpt lat="43.12669" lon="-0.44265">
        <ele>404.6</ele>
        <time>2022-09-08T11:39:06Z</time>
      </trkpt>
      <trkpt lat="43.12675" lon="-0.44275">
        <ele>405.4</ele>
        <time>2022-09-08T11:39:11Z</time>
      </trkpt>
      <trkpt lat="43.12677" lon="-0.44278">
        <ele>405.8</ele>
        <time>2022-09-08T11:39:13Z</time>
      </trkpt>
      <trkpt lat="43.12686" lon="-0.4429">
        <ele>406.4</ele>
        <time>2022-09-08T11:39:20Z</time>
      </trkpt>
      <trkpt lat="43.12691" lon="-0.44291">
        <ele>406.6</ele>
        <time>2022-09-08T11:39:26Z</time>
      </trkpt>
      <trkpt lat="43.12695" lon="-0.44296">
        <ele>407</ele>
        <time>2022-09-08T11:42:19Z</time>
      </trkpt>
      <trkpt lat="43.12699" lon="-0.44299">
        <ele>407</ele>
        <time>2022-09-08T11:42:21Z</time>
      </trkpt>
      <trkpt lat="43.12719" lon="-0.44314">
        <ele>406.4</ele>
        <time>2022-09-08T11:42:27Z</time>
      </trkpt>
      <trkpt lat="43.12746" lon="-0.44337">
        <ele>406.2</ele>
        <time>2022-09-08T11:42:34Z</time>
      </trkpt>
      <trkpt lat="43.12772" lon="-0.44357">
        <ele>406.2</ele>
        <time>2022-09-08T11:42:41Z</time>
      </trkpt>
      <trkpt lat="43.12794" lon="-0.44369">
        <ele>406</ele>
        <time>2022-09-08T11:42:47Z</time>
      </trkpt>
      <trkpt lat="43.12798" lon="-0.44371">
        <ele>405.8</ele>
        <time>2022-09-08T11:42:48Z</time>
      </trkpt>
      <trkpt lat="43.12807" lon="-0.44372">
        <ele>405.6</ele>
        <time>2022-09-08T11:42:50Z</time>
      </trkpt>
      <trkpt lat="43.12827" lon="-0.44373">
        <ele>405.4</ele>
        <time>2022-09-08T11:42:54Z</time>
      </trkpt>
      <trkpt lat="43.12854" lon="-0.44372">
        <ele>404.8</ele>
        <time>2022-09-08T11:42:59Z</time>
      </trkpt>
      <trkpt lat="43.12877" lon="-0.44371">
        <ele>404.2</ele>
        <time>2022-09-08T11:43:03Z</time>
      </trkpt>
      <trkpt lat="43.12889" lon="-0.4437">
        <ele>403.8</ele>
        <time>2022-09-08T11:43:05Z</time>
      </trkpt>
      <trkpt lat="43.12909" lon="-0.44376">
        <ele>402.6</ele>
        <time>2022-09-08T11:43:08Z</time>
      </trkpt>
      <trkpt lat="43.12916" lon="-0.4438">
        <ele>402.4</ele>
        <time>2022-09-08T11:43:09Z</time>
      </trkpt>
      <trkpt lat="43.12931" lon="-0.44389">
        <ele>402</ele>
        <time>2022-09-08T11:43:11Z</time>
      </trkpt>
      <trkpt lat="43.12944" lon="-0.44403">
        <ele>401.2</ele>
        <time>2022-09-08T11:43:13Z</time>
      </trkpt>
      <trkpt lat="43.12954" lon="-0.44422">
        <ele>400</ele>
        <time>2022-09-08T11:43:15Z</time>
      </trkpt>
      <trkpt lat="43.1296" lon="-0.44443">
        <ele>399.2</ele>
        <time>2022-09-08T11:43:17Z</time>
      </trkpt>
      <trkpt lat="43.12964" lon="-0.44477">
        <ele>398.8</ele>
        <time>2022-09-08T11:43:20Z</time>
      </trkpt>
      <trkpt lat="43.12964" lon="-0.44488">
        <ele>398.4</ele>
        <time>2022-09-08T11:43:21Z</time>
      </trkpt>
      <trkpt lat="43.12963" lon="-0.44509">
        <ele>397.6</ele>
        <time>2022-09-08T11:43:23Z</time>
      </trkpt>
      <trkpt lat="43.12964" lon="-0.44531">
        <ele>396.4</ele>
        <time>2022-09-08T11:43:25Z</time>
      </trkpt>
      <trkpt lat="43.12967" lon="-0.44554">
        <ele>395</ele>
        <time>2022-09-08T11:43:27Z</time>
      </trkpt>
      <trkpt lat="43.12973" lon="-0.44578">
        <ele>393.8</ele>
        <time>2022-09-08T11:43:29Z</time>
      </trkpt>
      <trkpt lat="43.12982" lon="-0.44603">
        <ele>392</ele>
        <time>2022-09-08T11:43:31Z</time>
      </trkpt>
      <trkpt lat="43.12991" lon="-0.44628">
        <ele>390.4</ele>
        <time>2022-09-08T11:43:33Z</time>
      </trkpt>
      <trkpt lat="43.13001" lon="-0.44654">
        <ele>388.8</ele>
        <time>2022-09-08T11:43:35Z</time>
      </trkpt>
      <trkpt lat="43.1301" lon="-0.44681">
        <ele>387.2</ele>
        <time>2022-09-08T11:43:37Z</time>
      </trkpt>
      <trkpt lat="43.13015" lon="-0.44693">
        <ele>386.6</ele>
        <time>2022-09-08T11:43:38Z</time>
      </trkpt>
      <trkpt lat="43.13019" lon="-0.44706">
        <ele>386.2</ele>
        <time>2022-09-08T11:43:39Z</time>
      </trkpt>
      <trkpt lat="43.13029" lon="-0.44731">
        <ele>385</ele>
        <time>2022-09-08T11:43:41Z</time>
      </trkpt>
      <trkpt lat="43.13047" lon="-0.4478">
        <ele>384.8</ele>
        <time>2022-09-08T11:43:45Z</time>
      </trkpt>
      <trkpt lat="43.13051" lon="-0.44792">
        <ele>384.2</ele>
        <time>2022-09-08T11:43:46Z</time>
      </trkpt>
      <trkpt lat="43.13056" lon="-0.44803">
        <ele>383.6</ele>
        <time>2022-09-08T11:43:47Z</time>
      </trkpt>
      <trkpt lat="43.13068" lon="-0.44837">
        <ele>382.4</ele>
        <time>2022-09-08T11:43:50Z</time>
      </trkpt>
      <trkpt lat="43.13076" lon="-0.44859">
        <ele>381</ele>
        <time>2022-09-08T11:43:52Z</time>
      </trkpt>
      <trkpt lat="43.13085" lon="-0.44882">
        <ele>380</ele>
        <time>2022-09-08T11:43:54Z</time>
      </trkpt>
      <trkpt lat="43.13089" lon="-0.44894">
        <ele>379.4</ele>
        <time>2022-09-08T11:43:55Z</time>
      </trkpt>
      <trkpt lat="43.13102" lon="-0.44931">
        <ele>378</ele>
        <time>2022-09-08T11:43:58Z</time>
      </trkpt>
      <trkpt lat="43.13121" lon="-0.44979">
        <ele>376.8</ele>
        <time>2022-09-08T11:44:02Z</time>
      </trkpt>
      <trkpt lat="43.13126" lon="-0.44991">
        <ele>376</ele>
        <time>2022-09-08T11:44:03Z</time>
      </trkpt>
      <trkpt lat="43.13132" lon="-0.45003">
        <ele>375.8</ele>
        <time>2022-09-08T11:44:04Z</time>
      </trkpt>
      <trkpt lat="43.13146" lon="-0.45038">
        <ele>374.6</ele>
        <time>2022-09-08T11:44:07Z</time>
      </trkpt>
      <trkpt lat="43.1315" lon="-0.4505">
        <ele>374.2</ele>
        <time>2022-09-08T11:44:08Z</time>
      </trkpt>
      <trkpt lat="43.13154" lon="-0.45063">
        <ele>373.4</ele>
        <time>2022-09-08T11:44:09Z</time>
      </trkpt>
      <trkpt lat="43.1316" lon="-0.45089">
        <ele>372.2</ele>
        <time>2022-09-08T11:44:11Z</time>
      </trkpt>
      <trkpt lat="43.13164" lon="-0.45114">
        <ele>371.6</ele>
        <time>2022-09-08T11:44:13Z</time>
      </trkpt>
      <trkpt lat="43.13168" lon="-0.45138">
        <ele>371</ele>
        <time>2022-09-08T11:44:15Z</time>
      </trkpt>
      <trkpt lat="43.13174" lon="-0.45184">
        <ele>370.4</ele>
        <time>2022-09-08T11:44:19Z</time>
      </trkpt>
      <trkpt lat="43.13183" lon="-0.4524">
        <ele>370</ele>
        <time>2022-09-08T11:44:25Z</time>
      </trkpt>
      <trkpt lat="43.13192" lon="-0.45292">
        <ele>370.2</ele>
        <time>2022-09-08T11:44:32Z</time>
      </trkpt>
      <trkpt lat="43.132" lon="-0.45334">
        <ele>370.4</ele>
        <time>2022-09-08T11:44:39Z</time>
      </trkpt>
      <trkpt lat="43.132" lon="-0.45345">
        <ele>370.6</ele>
        <time>2022-09-08T11:44:41Z</time>
      </trkpt>
      <trkpt lat="43.132" lon="-0.45357">
        <ele>370.2</ele>
        <time>2022-09-08T11:44:43Z</time>
      </trkpt>
      <trkpt lat="43.13204" lon="-0.45395">
        <ele>368.8</ele>
        <time>2022-09-08T11:44:48Z</time>
      </trkpt>
      <trkpt lat="43.13208" lon="-0.45424">
        <ele>367.6</ele>
        <time>2022-09-08T11:44:51Z</time>
      </trkpt>
      <trkpt lat="43.13214" lon="-0.45444">
        <ele>367</ele>
        <time>2022-09-08T11:44:53Z</time>
      </trkpt>
      <trkpt lat="43.13223" lon="-0.45463">
        <ele>366.4</ele>
        <time>2022-09-08T11:44:55Z</time>
      </trkpt>
      <trkpt lat="43.13232" lon="-0.45481">
        <ele>365.8</ele>
        <time>2022-09-08T11:44:57Z</time>
      </trkpt>
      <trkpt lat="43.13237" lon="-0.4549">
        <ele>365.6</ele>
        <time>2022-09-08T11:44:58Z</time>
      </trkpt>
      <trkpt lat="43.13241" lon="-0.45499">
        <ele>365.4</ele>
        <time>2022-09-08T11:44:59Z</time>
      </trkpt>
      <trkpt lat="43.13265" lon="-0.45542">
        <ele>364.4</ele>
        <time>2022-09-08T11:45:04Z</time>
      </trkpt>
      <trkpt lat="43.13279" lon="-0.45569">
        <ele>363.2</ele>
        <time>2022-09-08T11:45:07Z</time>
      </trkpt>
      <trkpt lat="43.13291" lon="-0.45594">
        <ele>363</ele>
        <time>2022-09-08T11:45:10Z</time>
      </trkpt>
      <trkpt lat="43.13295" lon="-0.45613">
        <ele>363.2</ele>
        <time>2022-09-08T11:45:12Z</time>
      </trkpt>
      <trkpt lat="43.13303" lon="-0.45653">
        <ele>362.4</ele>
        <time>2022-09-08T11:45:17Z</time>
      </trkpt>
      <trkpt lat="43.13304" lon="-0.45667">
        <ele>361.6</ele>
        <time>2022-09-08T11:45:19Z</time>
      </trkpt>
      <trkpt lat="43.13305" lon="-0.45691">
        <ele>361.2</ele>
        <time>2022-09-08T11:45:23Z</time>
      </trkpt>
      <trkpt lat="43.13303" lon="-0.45703">
        <ele>360.6</ele>
        <time>2022-09-08T11:45:25Z</time>
      </trkpt>
      <trkpt lat="43.13298" lon="-0.45721">
        <ele>359.6</ele>
        <time>2022-09-08T11:45:28Z</time>
      </trkpt>
      <trkpt lat="43.13292" lon="-0.45742">
        <ele>358</ele>
        <time>2022-09-08T11:45:31Z</time>
      </trkpt>
      <trkpt lat="43.1329" lon="-0.45753">
        <ele>357.6</ele>
        <time>2022-09-08T11:45:33Z</time>
      </trkpt>
      <trkpt lat="43.13287" lon="-0.45771">
        <ele>357.2</ele>
        <time>2022-09-08T11:45:36Z</time>
      </trkpt>
      <trkpt lat="43.13285" lon="-0.45785">
        <ele>357</ele>
        <time>2022-09-08T11:45:38Z</time>
      </trkpt>
      <trkpt lat="43.13285" lon="-0.45792">
        <ele>357</ele>
        <time>2022-09-08T11:45:39Z</time>
      </trkpt>
      <trkpt lat="43.13284" lon="-0.45809">
        <ele>356.4</ele>
        <time>2022-09-08T11:45:42Z</time>
      </trkpt>
      <trkpt lat="43.13284" lon="-0.4584">
        <ele>356.2</ele>
        <time>2022-09-08T11:45:48Z</time>
      </trkpt>
      <trkpt lat="43.13281" lon="-0.45855">
        <ele>356</ele>
        <time>2022-09-08T11:45:51Z</time>
      </trkpt>
      <trkpt lat="43.13279" lon="-0.4586">
        <ele>355.8</ele>
        <time>2022-09-08T11:45:52Z</time>
      </trkpt>
      <trkpt lat="43.13276" lon="-0.45864">
        <ele>355.8</ele>
        <time>2022-09-08T11:45:53Z</time>
      </trkpt>
      <trkpt lat="43.13261" lon="-0.45889">
        <ele>355.2</ele>
        <time>2022-09-08T11:45:59Z</time>
      </trkpt>
      <trkpt lat="43.13252" lon="-0.45904">
        <ele>354.8</ele>
        <time>2022-09-08T11:46:03Z</time>
      </trkpt>
      <trkpt lat="43.13251" lon="-0.45907">
        <ele>354.6</ele>
        <time>2022-09-08T11:46:04Z</time>
      </trkpt>
      <trkpt lat="43.13244" lon="-0.45917">
        <ele>354.4</ele>
        <time>2022-09-08T11:46:09Z</time>
      </trkpt>
      <trkpt lat="43.1324" lon="-0.4591">
        <ele>354.2</ele>
        <time>2022-09-08T11:46:34Z</time>
      </trkpt>
      <trkpt lat="43.13238" lon="-0.45906">
        <ele>354.2</ele>
        <time>2022-09-08T11:46:36Z</time>
      </trkpt>
      <trkpt lat="43.13234" lon="-0.45911">
        <ele>354.4</ele>
        <time>2022-09-08T11:46:39Z</time>
      </trkpt>
      <trkpt lat="43.1323" lon="-0.45914">
        <ele>354.2</ele>
        <time>2022-09-08T11:46:41Z</time>
      </trkpt>
      <trkpt lat="43.13223" lon="-0.45919">
        <ele>354.2</ele>
        <time>2022-09-08T11:46:44Z</time>
      </trkpt>
      <trkpt lat="43.13202" lon="-0.45931">
        <ele>354.6</ele>
        <time>2022-09-08T11:46:52Z</time>
      </trkpt>
      <trkpt lat="43.13178" lon="-0.45945">
        <ele>355</ele>
        <time>2022-09-08T11:47:01Z</time>
      </trkpt>
      <trkpt lat="43.13154" lon="-0.45959">
        <ele>355</ele>
        <time>2022-09-08T11:47:09Z</time>
      </trkpt>
      <trkpt lat="43.13128" lon="-0.45976">
        <ele>355.2</ele>
        <time>2022-09-08T11:47:17Z</time>
      </trkpt>
      <trkpt lat="43.13114" lon="-0.45996">
        <ele>355.6</ele>
        <time>2022-09-08T11:47:23Z</time>
      </trkpt>
      <trkpt lat="43.13102" lon="-0.46025">
        <ele>355.6</ele>
        <time>2022-09-08T11:47:30Z</time>
      </trkpt>
      <trkpt lat="43.13094" lon="-0.46036">
        <ele>355.8</ele>
        <time>2022-09-08T11:47:33Z</time>
      </trkpt>
      <trkpt lat="43.13088" lon="-0.46042">
        <ele>356</ele>
        <time>2022-09-08T11:47:35Z</time>
      </trkpt>
      <trkpt lat="43.1306" lon="-0.46063">
        <ele>356</ele>
        <time>2022-09-08T11:47:43Z</time>
      </trkpt>
      <trkpt lat="43.13033" lon="-0.46084">
        <ele>356</ele>
        <time>2022-09-08T11:47:51Z</time>
      </trkpt>
      <trkpt lat="43.13026" lon="-0.46091">
        <ele>355.8</ele>
        <time>2022-09-08T11:47:53Z</time>
      </trkpt>
      <trkpt lat="43.13017" lon="-0.46106">
        <ele>355</ele>
        <time>2022-09-08T11:47:56Z</time>
      </trkpt>
      <trkpt lat="43.13015" lon="-0.46111">
        <ele>354.8</ele>
        <time>2022-09-08T11:47:57Z</time>
      </trkpt>
      <trkpt lat="43.13013" lon="-0.46115">
        <ele>354.8</ele>
        <time>2022-09-08T11:47:58Z</time>
      </trkpt>
      <trkpt lat="43.1301" lon="-0.46125">
        <ele>354.4</ele>
        <time>2022-09-08T11:48:00Z</time>
      </trkpt>
      <trkpt lat="43.13009" lon="-0.46135">
        <ele>354.4</ele>
        <time>2022-09-08T11:48:02Z</time>
      </trkpt>
      <trkpt lat="43.13014" lon="-0.46153">
        <ele>354.4</ele>
        <time>2022-09-08T11:48:07Z</time>
      </trkpt>
      <trkpt lat="43.13029" lon="-0.46184">
        <ele>354</ele>
        <time>2022-09-08T11:48:15Z</time>
      </trkpt>
      <trkpt lat="43.13036" lon="-0.46199">
        <ele>353.6</ele>
        <time>2022-09-08T11:48:18Z</time>
      </trkpt>
      <trkpt lat="43.13039" lon="-0.46203">
        <ele>354</ele>
        <time>2022-09-08T11:48:19Z</time>
      </trkpt>
      <trkpt lat="43.13049" lon="-0.46217">
        <ele>353.4</ele>
        <time>2022-09-08T11:48:22Z</time>
      </trkpt>
      <trkpt lat="43.13052" lon="-0.46221">
        <ele>353.2</ele>
        <time>2022-09-08T11:48:23Z</time>
      </trkpt>
      <trkpt lat="43.13057" lon="-0.46232">
        <ele>352.8</ele>
        <time>2022-09-08T11:48:25Z</time>
      </trkpt>
      <trkpt lat="43.13059" lon="-0.46238">
        <ele>352.6</ele>
        <time>2022-09-08T11:48:26Z</time>
      </trkpt>
      <trkpt lat="43.13063" lon="-0.46249">
        <ele>352.6</ele>
        <time>2022-09-08T11:48:28Z</time>
      </trkpt>
      <trkpt lat="43.13072" lon="-0.46276">
        <ele>352.4</ele>
        <time>2022-09-08T11:48:33Z</time>
      </trkpt>
      <trkpt lat="43.13074" lon="-0.46281">
        <ele>352.4</ele>
        <time>2022-09-08T11:48:34Z</time>
      </trkpt>
      <trkpt lat="43.13087" lon="-0.4631">
        <ele>352</ele>
        <time>2022-09-08T11:48:41Z</time>
      </trkpt>
      <trkpt lat="43.13098" lon="-0.46328">
        <ele>351.6</ele>
        <time>2022-09-08T11:48:46Z</time>
      </trkpt>
      <trkpt lat="43.131" lon="-0.46332">
        <ele>351.4</ele>
        <time>2022-09-08T11:48:47Z</time>
      </trkpt>
      <trkpt lat="43.13122" lon="-0.46351">
        <ele>351.2</ele>
        <time>2022-09-08T11:48:54Z</time>
      </trkpt>
      <trkpt lat="43.13148" lon="-0.46372">
        <ele>350.6</ele>
        <time>2022-09-08T11:49:02Z</time>
      </trkpt>
      <trkpt lat="43.13154" lon="-0.46377">
        <ele>350.6</ele>
        <time>2022-09-08T11:49:04Z</time>
      </trkpt>
      <trkpt lat="43.13166" lon="-0.46388">
        <ele>350.4</ele>
        <time>2022-09-08T11:49:08Z</time>
      </trkpt>
      <trkpt lat="43.13185" lon="-0.46401">
        <ele>350.6</ele>
        <time>2022-09-08T11:49:14Z</time>
      </trkpt>
      <trkpt lat="43.13196" lon="-0.46425">
        <ele>350</ele>
        <time>2022-09-08T11:49:20Z</time>
      </trkpt>
      <trkpt lat="43.13205" lon="-0.46447">
        <ele>349.4</ele>
        <time>2022-09-08T11:49:25Z</time>
      </trkpt>
      <trkpt lat="43.13206" lon="-0.46452">
        <ele>349.4</ele>
        <time>2022-09-08T11:49:26Z</time>
      </trkpt>
      <trkpt lat="43.13214" lon="-0.46475">
        <ele>349</ele>
        <time>2022-09-08T11:49:30Z</time>
      </trkpt>
      <trkpt lat="43.1322" lon="-0.46493">
        <ele>348.4</ele>
        <time>2022-09-08T11:49:33Z</time>
      </trkpt>
      <trkpt lat="43.13222" lon="-0.46498">
        <ele>348.2</ele>
        <time>2022-09-08T11:49:34Z</time>
      </trkpt>
      <trkpt lat="43.13224" lon="-0.46509">
        <ele>348.2</ele>
        <time>2022-09-08T11:49:36Z</time>
      </trkpt>
      <trkpt lat="43.13223" lon="-0.46533">
        <ele>347.8</ele>
        <time>2022-09-08T11:49:40Z</time>
      </trkpt>
      <trkpt lat="43.13223" lon="-0.46539">
        <ele>348</ele>
        <time>2022-09-08T11:49:41Z</time>
      </trkpt>
      <trkpt lat="43.13223" lon="-0.46563">
        <ele>347.8</ele>
        <time>2022-09-08T11:49:45Z</time>
      </trkpt>
      <trkpt lat="43.13225" lon="-0.4658">
        <ele>347.8</ele>
        <time>2022-09-08T11:49:48Z</time>
      </trkpt>
      <trkpt lat="43.13227" lon="-0.46589">
        <ele>347.4</ele>
        <time>2022-09-08T11:49:50Z</time>
      </trkpt>
      <trkpt lat="43.13228" lon="-0.46594">
        <ele>347.4</ele>
        <time>2022-09-08T11:49:51Z</time>
      </trkpt>
      <trkpt lat="43.1323" lon="-0.46608">
        <ele>347.6</ele>
        <time>2022-09-08T11:49:54Z</time>
      </trkpt>
      <trkpt lat="43.13237" lon="-0.46639">
        <ele>347.8</ele>
        <time>2022-09-08T11:50:01Z</time>
      </trkpt>
      <trkpt lat="43.1324" lon="-0.46657">
        <ele>348.4</ele>
        <time>2022-09-08T11:50:07Z</time>
      </trkpt>
      <trkpt lat="43.1324" lon="-0.4666">
        <ele>348.4</ele>
        <time>2022-09-08T11:50:08Z</time>
      </trkpt>
      <trkpt lat="43.13242" lon="-0.46674">
        <ele>349.2</ele>
        <time>2022-09-08T11:50:14Z</time>
      </trkpt>
      <trkpt lat="43.13242" lon="-0.46679">
        <ele>349.4</ele>
        <time>2022-09-08T11:50:16Z</time>
      </trkpt>
      <trkpt lat="43.13242" lon="-0.46684">
        <ele>349.6</ele>
        <time>2022-09-08T11:50:19Z</time>
      </trkpt>
      <trkpt lat="43.13245" lon="-0.46702">
        <ele>349.6</ele>
        <time>2022-09-08T11:50:26Z</time>
      </trkpt>
      <trkpt lat="43.13245" lon="-0.46707">
        <ele>349.4</ele>
        <time>2022-09-08T11:50:28Z</time>
      </trkpt>
      <trkpt lat="43.13246" lon="-0.46714">
        <ele>349.2</ele>
        <time>2022-09-08T11:50:32Z</time>
      </trkpt>
      <trkpt lat="43.1325" lon="-0.46728">
        <ele>349</ele>
        <time>2022-09-08T11:50:40Z</time>
      </trkpt>
      <trkpt lat="43.13251" lon="-0.4673">
        <ele>349</ele>
        <time>2022-09-08T11:50:41Z</time>
      </trkpt>
      <trkpt lat="43.13258" lon="-0.46764">
        <ele>348.8</ele>
        <time>2022-09-08T11:51:12Z</time>
      </trkpt>
      <trkpt lat="43.13259" lon="-0.46766">
        <ele>348.8</ele>
        <time>2022-09-08T11:51:13Z</time>
      </trkpt>
      <trkpt lat="43.13266" lon="-0.46787">
        <ele>348.6</ele>
        <time>2022-09-08T11:51:22Z</time>
      </trkpt>
      <trkpt lat="43.13272" lon="-0.468">
        <ele>348.4</ele>
        <time>2022-09-08T11:51:28Z</time>
      </trkpt>
      <trkpt lat="43.1328" lon="-0.4682">
        <ele>348.2</ele>
        <time>2022-09-08T11:51:34Z</time>
      </trkpt>
      <trkpt lat="43.13287" lon="-0.46843">
        <ele>348.2</ele>
        <time>2022-09-08T11:51:40Z</time>
      </trkpt>
      <trkpt lat="43.13298" lon="-0.46869">
        <ele>347.8</ele>
        <time>2022-09-08T11:51:48Z</time>
      </trkpt>
      <trkpt lat="43.13305" lon="-0.46889">
        <ele>347.6</ele>
        <time>2022-09-08T11:51:55Z</time>
      </trkpt>
      <trkpt lat="43.1331" lon="-0.46907">
        <ele>347.6</ele>
        <time>2022-09-08T11:52:01Z</time>
      </trkpt>
      <trkpt lat="43.13311" lon="-0.46909">
        <ele>347.4</ele>
        <time>2022-09-08T11:52:02Z</time>
      </trkpt>
      <trkpt lat="43.13314" lon="-0.46918">
        <ele>347.2</ele>
        <time>2022-09-08T11:52:06Z</time>
      </trkpt>
      <trkpt lat="43.13315" lon="-0.4692">
        <ele>347.2</ele>
        <time>2022-09-08T11:52:07Z</time>
      </trkpt>
      <trkpt lat="43.13331" lon="-0.46959">
        <ele>346.2</ele>
        <time>2022-09-08T11:53:49Z</time>
      </trkpt>
      <trkpt lat="43.13335" lon="-0.46971">
        <ele>346</ele>
        <time>2022-09-08T11:53:55Z</time>
      </trkpt>
      <trkpt lat="43.13339" lon="-0.46982">
        <ele>346</ele>
        <time>2022-09-08T11:54:01Z</time>
      </trkpt>
      <trkpt lat="43.13345" lon="-0.46993">
        <ele>346</ele>
        <time>2022-09-08T11:54:07Z</time>
      </trkpt>
      <trkpt lat="43.13351" lon="-0.47009">
        <ele>345.6</ele>
        <time>2022-09-08T11:54:15Z</time>
      </trkpt>
      <trkpt lat="43.13358" lon="-0.47019">
        <ele>345.4</ele>
        <time>2022-09-08T11:54:22Z</time>
      </trkpt>
      <trkpt lat="43.13361" lon="-0.47023">
        <ele>345.4</ele>
        <time>2022-09-08T11:54:26Z</time>
      </trkpt>
      <trkpt lat="43.13364" lon="-0.47028">
        <ele>345.2</ele>
        <time>2022-09-08T11:54:29Z</time>
      </trkpt>
      <trkpt lat="43.1337" lon="-0.47037">
        <ele>345.2</ele>
        <time>2022-09-08T11:54:35Z</time>
      </trkpt>
      <trkpt lat="43.13372" lon="-0.47039">
        <ele>345.2</ele>
        <time>2022-09-08T11:54:37Z</time>
      </trkpt>
      <trkpt lat="43.13379" lon="-0.47048">
        <ele>344.8</ele>
        <time>2022-09-08T11:54:43Z</time>
      </trkpt>
      <trkpt lat="43.1339" lon="-0.47062">
        <ele>344.8</ele>
        <time>2022-09-08T11:54:51Z</time>
      </trkpt>
      <trkpt lat="43.13399" lon="-0.47075">
        <ele>344.8</ele>
        <time>2022-09-08T11:54:57Z</time>
      </trkpt>
      <trkpt lat="43.13409" lon="-0.47089">
        <ele>344.4</ele>
        <time>2022-09-08T11:55:03Z</time>
      </trkpt>
      <trkpt lat="43.13415" lon="-0.47098">
        <ele>344.4</ele>
        <time>2022-09-08T11:55:08Z</time>
      </trkpt>
      <trkpt lat="43.1342" lon="-0.47107">
        <ele>344.2</ele>
        <time>2022-09-08T11:55:12Z</time>
      </trkpt>
      <trkpt lat="43.13422" lon="-0.4711">
        <ele>344.2</ele>
        <time>2022-09-08T11:55:14Z</time>
      </trkpt>
      <trkpt lat="43.13429" lon="-0.47123">
        <ele>343.8</ele>
        <time>2022-09-08T11:55:19Z</time>
      </trkpt>
      <trkpt lat="43.1344" lon="-0.47144">
        <ele>343.2</ele>
        <time>2022-09-08T11:55:26Z</time>
      </trkpt>
      <trkpt lat="43.13441" lon="-0.47147">
        <ele>343</ele>
        <time>2022-09-08T11:55:27Z</time>
      </trkpt>
      <trkpt lat="43.13447" lon="-0.47159">
        <ele>342.6</ele>
        <time>2022-09-08T11:55:33Z</time>
      </trkpt>
      <trkpt lat="43.13451" lon="-0.47166">
        <ele>342</ele>
        <time>2022-09-08T11:55:38Z</time>
      </trkpt>
      <trkpt lat="43.13451" lon="-0.47165">
        <ele>342</ele>
        <time>2022-09-08T11:55:39Z</time>
      </trkpt>
      <trkpt lat="43.13485" lon="-0.47259">
        <ele>338.6</ele>
        <time>2022-09-08T11:58:45Z</time>
      </trkpt>
      <trkpt lat="43.13488" lon="-0.47266">
        <ele>338.6</ele>
        <time>2022-09-08T11:58:47Z</time>
      </trkpt>
      <trkpt lat="43.13494" lon="-0.47286">
        <ele>338</ele>
        <time>2022-09-08T11:58:53Z</time>
      </trkpt>
      <trkpt lat="43.13502" lon="-0.47322">
        <ele>338.2</ele>
        <time>2022-09-08T11:59:01Z</time>
      </trkpt>
      <trkpt lat="43.13511" lon="-0.47351">
        <ele>337.6</ele>
        <time>2022-09-08T11:59:08Z</time>
      </trkpt>
      <trkpt lat="43.13522" lon="-0.47377">
        <ele>337.6</ele>
        <time>2022-09-08T11:59:15Z</time>
      </trkpt>
      <trkpt lat="43.13537" lon="-0.47401">
        <ele>337.6</ele>
        <time>2022-09-08T11:59:21Z</time>
      </trkpt>
      <trkpt lat="43.13549" lon="-0.47428">
        <ele>336.8</ele>
        <time>2022-09-08T11:59:27Z</time>
      </trkpt>
      <trkpt lat="43.13552" lon="-0.47433">
        <ele>336.6</ele>
        <time>2022-09-08T11:59:28Z</time>
      </trkpt>
      <trkpt lat="43.13555" lon="-0.47437">
        <ele>336.6</ele>
        <time>2022-09-08T11:59:29Z</time>
      </trkpt>
      <trkpt lat="43.13561" lon="-0.47448">
        <ele>336.6</ele>
        <time>2022-09-08T11:59:32Z</time>
      </trkpt>
      <trkpt lat="43.13568" lon="-0.47464">
        <ele>336.4</ele>
        <time>2022-09-08T11:59:37Z</time>
      </trkpt>
      <trkpt lat="43.13576" lon="-0.47492">
        <ele>336.2</ele>
        <time>2022-09-08T11:59:43Z</time>
      </trkpt>
      <trkpt lat="43.13577" lon="-0.47527">
        <ele>336.4</ele>
        <time>2022-09-08T11:59:49Z</time>
      </trkpt>
      <trkpt lat="43.13576" lon="-0.47557">
        <ele>335.6</ele>
        <time>2022-09-08T11:59:55Z</time>
      </trkpt>
      <trkpt lat="43.13576" lon="-0.47567">
        <ele>335.4</ele>
        <time>2022-09-08T11:59:57Z</time>
      </trkpt>
      <trkpt lat="43.13576" lon="-0.47612">
        <ele>335</ele>
        <time>2022-09-08T12:00:06Z</time>
      </trkpt>
      <trkpt lat="43.13578" lon="-0.47638">
        <ele>334.8</ele>
        <time>2022-09-08T12:00:11Z</time>
      </trkpt>
      <trkpt lat="43.1358" lon="-0.47655">
        <ele>334.4</ele>
        <time>2022-09-08T12:00:14Z</time>
      </trkpt>
      <trkpt lat="43.13582" lon="-0.47665">
        <ele>334.2</ele>
        <time>2022-09-08T12:00:16Z</time>
      </trkpt>
      <trkpt lat="43.1358" lon="-0.47685">
        <ele>334.2</ele>
        <time>2022-09-08T12:00:20Z</time>
      </trkpt>
      <trkpt lat="43.13573" lon="-0.47712">
        <ele>333.4</ele>
        <time>2022-09-08T12:00:25Z</time>
      </trkpt>
      <trkpt lat="43.1357" lon="-0.47726">
        <ele>333.4</ele>
        <time>2022-09-08T12:00:27Z</time>
      </trkpt>
      <trkpt lat="43.13569" lon="-0.47748">
        <ele>331.8</ele>
        <time>2022-09-08T12:00:30Z</time>
      </trkpt>
      <trkpt lat="43.13569" lon="-0.4776">
        <ele>331</ele>
        <time>2022-09-08T12:00:32Z</time>
      </trkpt>
      <trkpt lat="43.1357" lon="-0.47765">
        <ele>330.6</ele>
        <time>2022-09-08T12:00:33Z</time>
      </trkpt>
      <trkpt lat="43.13569" lon="-0.4778">
        <ele>330</ele>
        <time>2022-09-08T12:00:36Z</time>
      </trkpt>
      <trkpt lat="43.13569" lon="-0.47786">
        <ele>330</ele>
        <time>2022-09-08T12:00:37Z</time>
      </trkpt>
      <trkpt lat="43.13568" lon="-0.47793">
        <ele>330</ele>
        <time>2022-09-08T12:00:38Z</time>
      </trkpt>
      <trkpt lat="43.13561" lon="-0.47809">
        <ele>329.8</ele>
        <time>2022-09-08T12:00:41Z</time>
      </trkpt>
      <trkpt lat="43.13558" lon="-0.47814">
        <ele>330</ele>
        <time>2022-09-08T12:00:42Z</time>
      </trkpt>
      <trkpt lat="43.13552" lon="-0.47824">
        <ele>329.4</ele>
        <time>2022-09-08T12:00:44Z</time>
      </trkpt>
      <trkpt lat="43.13543" lon="-0.47839">
        <ele>328.8</ele>
        <time>2022-09-08T12:00:47Z</time>
      </trkpt>
      <trkpt lat="43.13529" lon="-0.47862">
        <ele>328.6</ele>
        <time>2022-09-08T12:00:53Z</time>
      </trkpt>
      <trkpt lat="43.13532" lon="-0.4787">
        <ele>328.2</ele>
        <time>2022-09-08T12:00:55Z</time>
      </trkpt>
      <trkpt lat="43.13534" lon="-0.47873">
        <ele>328.2</ele>
        <time>2022-09-08T12:00:56Z</time>
      </trkpt>
      <trkpt lat="43.13543" lon="-0.47881">
        <ele>328.2</ele>
        <time>2022-09-08T12:01:00Z</time>
      </trkpt>
      <trkpt lat="43.13544" lon="-0.47884">
        <ele>328.2</ele>
        <time>2022-09-08T12:01:01Z</time>
      </trkpt>
      <trkpt lat="43.13552" lon="-0.47903">
        <ele>328.2</ele>
        <time>2022-09-08T12:01:07Z</time>
      </trkpt>
      <trkpt lat="43.13564" lon="-0.47932">
        <ele>328.4</ele>
        <time>2022-09-08T12:01:16Z</time>
      </trkpt>
      <trkpt lat="43.13575" lon="-0.47962">
        <ele>329</ele>
        <time>2022-09-08T12:01:24Z</time>
      </trkpt>
      <trkpt lat="43.13582" lon="-0.47987">
        <ele>329.2</ele>
        <time>2022-09-08T12:01:30Z</time>
      </trkpt>
      <trkpt lat="43.13585" lon="-0.47994">
        <ele>329.4</ele>
        <time>2022-09-08T12:01:32Z</time>
      </trkpt>
      <trkpt lat="43.13593" lon="-0.4802">
        <ele>329.4</ele>
        <time>2022-09-08T12:01:39Z</time>
      </trkpt>
      <trkpt lat="43.13601" lon="-0.48046">
        <ele>330</ele>
        <time>2022-09-08T12:01:47Z</time>
      </trkpt>
      <trkpt lat="43.13605" lon="-0.48072">
        <ele>330.2</ele>
        <time>2022-09-08T12:01:54Z</time>
      </trkpt>
      <trkpt lat="43.13606" lon="-0.48111">
        <ele>330</ele>
        <time>2022-09-08T12:02:02Z</time>
      </trkpt>
      <trkpt lat="43.13604" lon="-0.48141">
        <ele>329.6</ele>
        <time>2022-09-08T12:02:08Z</time>
      </trkpt>
      <trkpt lat="43.13604" lon="-0.48161">
        <ele>329.8</ele>
        <time>2022-09-08T12:02:13Z</time>
      </trkpt>
      <trkpt lat="43.13599" lon="-0.48191">
        <ele>329.4</ele>
        <time>2022-09-08T12:02:20Z</time>
      </trkpt>
      <trkpt lat="43.13597" lon="-0.48208">
        <ele>329.4</ele>
        <time>2022-09-08T12:02:42Z</time>
      </trkpt>
      <trkpt lat="43.13596" lon="-0.48212">
        <ele>329.4</ele>
        <time>2022-09-08T12:02:43Z</time>
      </trkpt>
      <trkpt lat="43.13595" lon="-0.48234">
        <ele>329.2</ele>
        <time>2022-09-08T12:02:49Z</time>
      </trkpt>
      <trkpt lat="43.13597" lon="-0.48255">
        <ele>329.4</ele>
        <time>2022-09-08T12:02:55Z</time>
      </trkpt>
      <trkpt lat="43.13607" lon="-0.48267">
        <ele>329.6</ele>
        <time>2022-09-08T12:02:59Z</time>
      </trkpt>
      <trkpt lat="43.13623" lon="-0.48282">
        <ele>330</ele>
        <time>2022-09-08T12:03:05Z</time>
      </trkpt>
      <trkpt lat="43.1364" lon="-0.48299">
        <ele>330.4</ele>
        <time>2022-09-08T12:03:11Z</time>
      </trkpt>
      <trkpt lat="43.13655" lon="-0.4832">
        <ele>330.4</ele>
        <time>2022-09-08T12:03:17Z</time>
      </trkpt>
      <trkpt lat="43.13668" lon="-0.48346">
        <ele>331</ele>
        <time>2022-09-08T12:03:24Z</time>
      </trkpt>
      <trkpt lat="43.13673" lon="-0.48361">
        <ele>331.4</ele>
        <time>2022-09-08T12:03:27Z</time>
      </trkpt>
      <trkpt lat="43.13677" lon="-0.48373">
        <ele>331</ele>
        <time>2022-09-08T12:03:29Z</time>
      </trkpt>
      <trkpt lat="43.13679" lon="-0.48385">
        <ele>330.6</ele>
        <time>2022-09-08T12:03:31Z</time>
      </trkpt>
      <trkpt lat="43.13683" lon="-0.48402">
        <ele>330.6</ele>
        <time>2022-09-08T12:03:34Z</time>
      </trkpt>
      <trkpt lat="43.13684" lon="-0.48408">
        <ele>330.8</ele>
        <time>2022-09-08T12:03:35Z</time>
      </trkpt>
      <trkpt lat="43.1369" lon="-0.48436">
        <ele>330.4</ele>
        <time>2022-09-08T12:03:40Z</time>
      </trkpt>
      <trkpt lat="43.13693" lon="-0.48453">
        <ele>330.4</ele>
        <time>2022-09-08T12:03:43Z</time>
      </trkpt>
      <trkpt lat="43.13705" lon="-0.48486">
        <ele>329.6</ele>
        <time>2022-09-08T12:03:49Z</time>
      </trkpt>
      <trkpt lat="43.13713" lon="-0.48502">
        <ele>329.2</ele>
        <time>2022-09-08T12:03:52Z</time>
      </trkpt>
      <trkpt lat="43.13718" lon="-0.48514">
        <ele>329</ele>
        <time>2022-09-08T12:03:54Z</time>
      </trkpt>
      <trkpt lat="43.13721" lon="-0.48521">
        <ele>329</ele>
        <time>2022-09-08T12:03:55Z</time>
      </trkpt>
      <trkpt lat="43.13726" lon="-0.48538">
        <ele>328.8</ele>
        <time>2022-09-08T12:03:58Z</time>
      </trkpt>
      <trkpt lat="43.1373" lon="-0.48556">
        <ele>328.8</ele>
        <time>2022-09-08T12:04:01Z</time>
      </trkpt>
      <trkpt lat="43.13734" lon="-0.48582">
        <ele>328.6</ele>
        <time>2022-09-08T12:04:06Z</time>
      </trkpt>
      <trkpt lat="43.13741" lon="-0.48617">
        <ele>328.2</ele>
        <time>2022-09-08T12:04:13Z</time>
      </trkpt>
      <trkpt lat="43.13744" lon="-0.48645">
        <ele>327.8</ele>
        <time>2022-09-08T12:04:18Z</time>
      </trkpt>
      <trkpt lat="43.13751" lon="-0.48661">
        <ele>327.4</ele>
        <time>2022-09-08T12:04:23Z</time>
      </trkpt>
      <trkpt lat="43.13752" lon="-0.48661">
        <ele>327.2</ele>
        <time>2022-09-08T12:04:24Z</time>
      </trkpt>
      <trkpt lat="43.1376" lon="-0.48662">
        <ele>327.4</ele>
        <time>2022-09-08T12:04:28Z</time>
      </trkpt>
      <trkpt lat="43.1377" lon="-0.48661">
        <ele>327.2</ele>
        <time>2022-09-08T12:04:32Z</time>
      </trkpt>
      <trkpt lat="43.13776" lon="-0.48659">
        <ele>327.4</ele>
        <time>2022-09-08T12:04:34Z</time>
      </trkpt>
      <trkpt lat="43.13799" lon="-0.48647">
        <ele>326.8</ele>
        <time>2022-09-08T12:04:42Z</time>
      </trkpt>
      <trkpt lat="43.13812" lon="-0.48643">
        <ele>327</ele>
        <time>2022-09-08T12:04:46Z</time>
      </trkpt>
      <trkpt lat="43.13815" lon="-0.48644">
        <ele>326.8</ele>
        <time>2022-09-08T12:04:47Z</time>
      </trkpt>
      <trkpt lat="43.13823" lon="-0.48656">
        <ele>326.6</ele>
        <time>2022-09-08T12:04:51Z</time>
      </trkpt>
      <trkpt lat="43.13826" lon="-0.48664">
        <ele>326.4</ele>
        <time>2022-09-08T12:04:53Z</time>
      </trkpt>
      <trkpt lat="43.13835" lon="-0.48691">
        <ele>326.6</ele>
        <time>2022-09-08T12:04:59Z</time>
      </trkpt>
      <trkpt lat="43.13847" lon="-0.48717">
        <ele>326.4</ele>
        <time>2022-09-08T12:05:05Z</time>
      </trkpt>
      <trkpt lat="43.13857" lon="-0.48741">
        <ele>326.4</ele>
        <time>2022-09-08T12:05:11Z</time>
      </trkpt>
      <trkpt lat="43.13865" lon="-0.4876">
        <ele>326.2</ele>
        <time>2022-09-08T12:05:17Z</time>
      </trkpt>
      <trkpt lat="43.13875" lon="-0.48773">
        <ele>326</ele>
        <time>2022-09-08T12:05:23Z</time>
      </trkpt>
      <trkpt lat="43.13891" lon="-0.48798">
        <ele>325.4</ele>
        <time>2022-09-08T12:05:30Z</time>
      </trkpt>
      <trkpt lat="43.13911" lon="-0.48828">
        <ele>325.2</ele>
        <time>2022-09-08T12:05:38Z</time>
      </trkpt>
      <trkpt lat="43.13929" lon="-0.48853">
        <ele>325</ele>
        <time>2022-09-08T12:05:45Z</time>
      </trkpt>
      <trkpt lat="43.13934" lon="-0.4886">
        <ele>325.2</ele>
        <time>2022-09-08T12:05:47Z</time>
      </trkpt>
      <trkpt lat="43.13948" lon="-0.48882">
        <ele>325</ele>
        <time>2022-09-08T12:05:53Z</time>
      </trkpt>
      <trkpt lat="43.13961" lon="-0.4891">
        <ele>324.4</ele>
        <time>2022-09-08T12:06:00Z</time>
      </trkpt>
      <trkpt lat="43.13973" lon="-0.48933">
        <ele>324.2</ele>
        <time>2022-09-08T12:06:06Z</time>
      </trkpt>
      <trkpt lat="43.13978" lon="-0.48944">
        <ele>324</ele>
        <time>2022-09-08T12:06:09Z</time>
      </trkpt>
      <trkpt lat="43.13986" lon="-0.48961">
        <ele>324</ele>
        <time>2022-09-08T12:06:13Z</time>
      </trkpt>
      <trkpt lat="43.13995" lon="-0.48987">
        <ele>324</ele>
        <time>2022-09-08T12:06:19Z</time>
      </trkpt>
      <trkpt lat="43.14004" lon="-0.49008">
        <ele>323.8</ele>
        <time>2022-09-08T12:06:24Z</time>
      </trkpt>
      <trkpt lat="43.14015" lon="-0.49035">
        <ele>323.2</ele>
        <time>2022-09-08T12:06:30Z</time>
      </trkpt>
      <trkpt lat="43.14031" lon="-0.4906">
        <ele>323.2</ele>
        <time>2022-09-08T12:06:36Z</time>
      </trkpt>
      <trkpt lat="43.14056" lon="-0.49092">
        <ele>323.2</ele>
        <time>2022-09-08T12:06:44Z</time>
      </trkpt>
      <trkpt lat="43.14062" lon="-0.491">
        <ele>322.8</ele>
        <time>2022-09-08T12:06:46Z</time>
      </trkpt>
      <trkpt lat="43.14084" lon="-0.4913">
        <ele>322.8</ele>
        <time>2022-09-08T12:06:53Z</time>
      </trkpt>
      <trkpt lat="43.14091" lon="-0.49145">
        <ele>322.6</ele>
        <time>2022-09-08T12:06:56Z</time>
      </trkpt>
      <trkpt lat="43.14095" lon="-0.49156">
        <ele>322.6</ele>
        <time>2022-09-08T12:06:58Z</time>
      </trkpt>
      <trkpt lat="43.14097" lon="-0.49161">
        <ele>322.4</ele>
        <time>2022-09-08T12:06:59Z</time>
      </trkpt>
      <trkpt lat="43.14114" lon="-0.49199">
        <ele>322.2</ele>
        <time>2022-09-08T12:07:06Z</time>
      </trkpt>
      <trkpt lat="43.14132" lon="-0.49238">
        <ele>321.8</ele>
        <time>2022-09-08T12:07:13Z</time>
      </trkpt>
      <trkpt lat="43.14148" lon="-0.49267">
        <ele>321.4</ele>
        <time>2022-09-08T12:07:19Z</time>
      </trkpt>
      <trkpt lat="43.14156" lon="-0.49273">
        <ele>321.4</ele>
        <time>2022-09-08T12:07:21Z</time>
      </trkpt>
      <trkpt lat="43.14163" lon="-0.49282">
        <ele>321.4</ele>
        <time>2022-09-08T12:07:23Z</time>
      </trkpt>
      <trkpt lat="43.14173" lon="-0.49295">
        <ele>322</ele>
        <time>2022-09-08T12:07:26Z</time>
      </trkpt>
      <trkpt lat="43.14176" lon="-0.493">
        <ele>321.6</ele>
        <time>2022-09-08T12:07:27Z</time>
      </trkpt>
      <trkpt lat="43.14185" lon="-0.49313">
        <ele>321.2</ele>
        <time>2022-09-08T12:07:30Z</time>
      </trkpt>
      <trkpt lat="43.1419" lon="-0.49322">
        <ele>320.6</ele>
        <time>2022-09-08T12:07:32Z</time>
      </trkpt>
      <trkpt lat="43.14193" lon="-0.49326">
        <ele>320.6</ele>
        <time>2022-09-08T12:07:33Z</time>
      </trkpt>
      <trkpt lat="43.1422" lon="-0.4936">
        <ele>320.2</ele>
        <time>2022-09-08T12:07:41Z</time>
      </trkpt>
      <trkpt lat="43.14239" lon="-0.49381">
        <ele>320.2</ele>
        <time>2022-09-08T12:07:46Z</time>
      </trkpt>
      <trkpt lat="43.14244" lon="-0.4939">
        <ele>319.4</ele>
        <time>2022-09-08T12:07:48Z</time>
      </trkpt>
      <trkpt lat="43.14261" lon="-0.49425">
        <ele>318.8</ele>
        <time>2022-09-08T12:07:55Z</time>
      </trkpt>
      <trkpt lat="43.14264" lon="-0.49429">
        <ele>318.8</ele>
        <time>2022-09-08T12:07:56Z</time>
      </trkpt>
      <trkpt lat="43.14277" lon="-0.49442">
        <ele>319</ele>
        <time>2022-09-08T12:08:00Z</time>
      </trkpt>
      <trkpt lat="43.14306" lon="-0.49474">
        <ele>318.6</ele>
        <time>2022-09-08T12:08:08Z</time>
      </trkpt>
      <trkpt lat="43.14317" lon="-0.49495">
        <ele>318.6</ele>
        <time>2022-09-08T12:08:12Z</time>
      </trkpt>
      <trkpt lat="43.14325" lon="-0.49512">
        <ele>318.4</ele>
        <time>2022-09-08T12:08:15Z</time>
      </trkpt>
      <trkpt lat="43.14336" lon="-0.49535">
        <ele>318.4</ele>
        <time>2022-09-08T12:08:19Z</time>
      </trkpt>
      <trkpt lat="43.14344" lon="-0.4955">
        <ele>318.2</ele>
        <time>2022-09-08T12:08:22Z</time>
      </trkpt>
      <trkpt lat="43.14354" lon="-0.4958">
        <ele>317.8</ele>
        <time>2022-09-08T12:08:27Z</time>
      </trkpt>
      <trkpt lat="43.14366" lon="-0.49614">
        <ele>317.8</ele>
        <time>2022-09-08T12:08:33Z</time>
      </trkpt>
      <trkpt lat="43.14373" lon="-0.49621">
        <ele>318</ele>
        <time>2022-09-08T12:08:35Z</time>
      </trkpt>
      <trkpt lat="43.14384" lon="-0.49633">
        <ele>317.6</ele>
        <time>2022-09-08T12:08:38Z</time>
      </trkpt>
      <trkpt lat="43.14398" lon="-0.49649">
        <ele>317.4</ele>
        <time>2022-09-08T12:08:42Z</time>
      </trkpt>
      <trkpt lat="43.14401" lon="-0.49653">
        <ele>317.4</ele>
        <time>2022-09-08T12:08:43Z</time>
      </trkpt>
      <trkpt lat="43.14415" lon="-0.49679">
        <ele>317.2</ele>
        <time>2022-09-08T12:08:48Z</time>
      </trkpt>
      <trkpt lat="43.14427" lon="-0.49709">
        <ele>316.6</ele>
        <time>2022-09-08T12:08:54Z</time>
      </trkpt>
      <trkpt lat="43.1443" lon="-0.49714">
        <ele>316.6</ele>
        <time>2022-09-08T12:08:55Z</time>
      </trkpt>
      <trkpt lat="43.14442" lon="-0.49741">
        <ele>316.6</ele>
        <time>2022-09-08T12:09:00Z</time>
      </trkpt>
      <trkpt lat="43.1445" lon="-0.49757">
        <ele>316.4</ele>
        <time>2022-09-08T12:09:03Z</time>
      </trkpt>
      <trkpt lat="43.14464" lon="-0.4978">
        <ele>315.8</ele>
        <time>2022-09-08T12:09:08Z</time>
      </trkpt>
      <trkpt lat="43.14478" lon="-0.49797">
        <ele>315.4</ele>
        <time>2022-09-08T12:09:12Z</time>
      </trkpt>
      <trkpt lat="43.14486" lon="-0.49804">
        <ele>315.2</ele>
        <time>2022-09-08T12:09:14Z</time>
      </trkpt>
      <trkpt lat="43.1449" lon="-0.49808">
        <ele>315.2</ele>
        <time>2022-09-08T12:09:15Z</time>
      </trkpt>
      <trkpt lat="43.14505" lon="-0.49825">
        <ele>315</ele>
        <time>2022-09-08T12:09:19Z</time>
      </trkpt>
      <trkpt lat="43.14509" lon="-0.49838">
        <ele>315</ele>
        <time>2022-09-08T12:09:21Z</time>
      </trkpt>
      <trkpt lat="43.14512" lon="-0.49853">
        <ele>314.8</ele>
        <time>2022-09-08T12:09:23Z</time>
      </trkpt>
      <trkpt lat="43.14513" lon="-0.49867">
        <ele>314.2</ele>
        <time>2022-09-08T12:09:25Z</time>
      </trkpt>
      <trkpt lat="43.14514" lon="-0.49874">
        <ele>314</ele>
        <time>2022-09-08T12:09:26Z</time>
      </trkpt>
      <trkpt lat="43.1452" lon="-0.49908">
        <ele>313.6</ele>
        <time>2022-09-08T12:09:31Z</time>
      </trkpt>
      <trkpt lat="43.14526" lon="-0.49926">
        <ele>313.6</ele>
        <time>2022-09-08T12:09:34Z</time>
      </trkpt>
      <trkpt lat="43.14538" lon="-0.49961">
        <ele>313.2</ele>
        <time>2022-09-08T12:09:40Z</time>
      </trkpt>
      <trkpt lat="43.14544" lon="-0.49977">
        <ele>313.6</ele>
        <time>2022-09-08T12:09:43Z</time>
      </trkpt>
      <trkpt lat="43.14566" lon="-0.50029">
        <ele>312.2</ele>
        <time>2022-09-08T12:09:53Z</time>
      </trkpt>
      <trkpt lat="43.14568" lon="-0.50034">
        <ele>312.2</ele>
        <time>2022-09-08T12:09:54Z</time>
      </trkpt>
      <trkpt lat="43.14576" lon="-0.50063">
        <ele>312.4</ele>
        <time>2022-09-08T12:09:59Z</time>
      </trkpt>
      <trkpt lat="43.14581" lon="-0.50097">
        <ele>312</ele>
        <time>2022-09-08T12:10:05Z</time>
      </trkpt>
      <trkpt lat="43.14585" lon="-0.50114">
        <ele>311.8</ele>
        <time>2022-09-08T12:10:08Z</time>
      </trkpt>
      <trkpt lat="43.14589" lon="-0.50124">
        <ele>311.8</ele>
        <time>2022-09-08T12:10:10Z</time>
      </trkpt>
      <trkpt lat="43.14598" lon="-0.50157">
        <ele>311.2</ele>
        <time>2022-09-08T12:10:16Z</time>
      </trkpt>
      <trkpt lat="43.146" lon="-0.50163">
        <ele>311.2</ele>
        <time>2022-09-08T12:10:17Z</time>
      </trkpt>
      <trkpt lat="43.14611" lon="-0.50199">
        <ele>310.6</ele>
        <time>2022-09-08T12:10:24Z</time>
      </trkpt>
      <trkpt lat="43.14622" lon="-0.50222">
        <ele>310.8</ele>
        <time>2022-09-08T12:10:29Z</time>
      </trkpt>
      <trkpt lat="43.14628" lon="-0.50237">
        <ele>310.2</ele>
        <time>2022-09-08T12:10:32Z</time>
      </trkpt>
      <trkpt lat="43.14641" lon="-0.50262">
        <ele>309.8</ele>
        <time>2022-09-08T12:10:37Z</time>
      </trkpt>
      <trkpt lat="43.14649" lon="-0.50279">
        <ele>309</ele>
        <time>2022-09-08T12:10:42Z</time>
      </trkpt>
      <trkpt lat="43.1465" lon="-0.50285">
        <ele>309</ele>
        <time>2022-09-08T12:10:44Z</time>
      </trkpt>
      <trkpt lat="43.14647" lon="-0.50292">
        <ele>309.2</ele>
        <time>2022-09-08T12:10:47Z</time>
      </trkpt>
      <trkpt lat="43.14645" lon="-0.50295">
        <ele>309</ele>
        <time>2022-09-08T12:10:48Z</time>
      </trkpt>
      <trkpt lat="43.14631" lon="-0.50313">
        <ele>309.8</ele>
        <time>2022-09-08T12:10:55Z</time>
      </trkpt>
      <trkpt lat="43.14628" lon="-0.50329">
        <ele>310</ele>
        <time>2022-09-08T12:11:00Z</time>
      </trkpt>
      <trkpt lat="43.14629" lon="-0.50337">
        <ele>310</ele>
        <time>2022-09-08T12:11:02Z</time>
      </trkpt>
      <trkpt lat="43.14629" lon="-0.50359">
        <ele>309.8</ele>
        <time>2022-09-08T12:11:08Z</time>
      </trkpt>
      <trkpt lat="43.14634" lon="-0.50386">
        <ele>310.2</ele>
        <time>2022-09-08T12:11:15Z</time>
      </trkpt>
      <trkpt lat="43.14637" lon="-0.50411">
        <ele>309.8</ele>
        <time>2022-09-08T12:11:21Z</time>
      </trkpt>
      <trkpt lat="43.14641" lon="-0.50439">
        <ele>309.8</ele>
        <time>2022-09-08T12:11:27Z</time>
      </trkpt>
      <trkpt lat="43.14646" lon="-0.50467">
        <ele>309.4</ele>
        <time>2022-09-08T12:11:34Z</time>
      </trkpt>
      <trkpt lat="43.14652" lon="-0.50495">
        <ele>309</ele>
        <time>2022-09-08T12:11:41Z</time>
      </trkpt>
      <trkpt lat="43.14653" lon="-0.50499">
        <ele>309</ele>
        <time>2022-09-08T12:11:42Z</time>
      </trkpt>
      <trkpt lat="43.1466" lon="-0.50513">
        <ele>309</ele>
        <time>2022-09-08T12:11:46Z</time>
      </trkpt>
      <trkpt lat="43.14669" lon="-0.50533">
        <ele>308.4</ele>
        <time>2022-09-08T12:11:52Z</time>
      </trkpt>
      <trkpt lat="43.1468" lon="-0.50565">
        <ele>308.6</ele>
        <time>2022-09-08T12:12:00Z</time>
      </trkpt>
      <trkpt lat="43.14679" lon="-0.50575">
        <ele>308.8</ele>
        <time>2022-09-08T12:12:03Z</time>
      </trkpt>
      <trkpt lat="43.14677" lon="-0.50579">
        <ele>308.8</ele>
        <time>2022-09-08T12:12:04Z</time>
      </trkpt>
      <trkpt lat="43.14657" lon="-0.50608">
        <ele>308.6</ele>
        <time>2022-09-08T12:12:12Z</time>
      </trkpt>
      <trkpt lat="43.14638" lon="-0.50633">
        <ele>308.8</ele>
        <time>2022-09-08T12:12:19Z</time>
      </trkpt>
      <trkpt lat="43.14632" lon="-0.5065">
        <ele>309.2</ele>
        <time>2022-09-08T12:12:24Z</time>
      </trkpt>
      <trkpt lat="43.14628" lon="-0.50668">
        <ele>309.2</ele>
        <time>2022-09-08T12:12:29Z</time>
      </trkpt>
      <trkpt lat="43.14624" lon="-0.50694">
        <ele>308.2</ele>
        <time>2022-09-08T12:12:33Z</time>
      </trkpt>
      <trkpt lat="43.14625" lon="-0.507">
        <ele>308.2</ele>
        <time>2022-09-08T12:12:34Z</time>
      </trkpt>
      <trkpt lat="43.14628" lon="-0.50713">
        <ele>308</ele>
        <time>2022-09-08T12:12:36Z</time>
      </trkpt>
      <trkpt lat="43.14636" lon="-0.50736">
        <ele>307.6</ele>
        <time>2022-09-08T12:12:40Z</time>
      </trkpt>
      <trkpt lat="43.14649" lon="-0.50763">
        <ele>306.8</ele>
        <time>2022-09-08T12:12:45Z</time>
      </trkpt>
      <trkpt lat="43.14655" lon="-0.50772">
        <ele>307</ele>
        <time>2022-09-08T12:12:47Z</time>
      </trkpt>
      <trkpt lat="43.14658" lon="-0.50777">
        <ele>306.8</ele>
        <time>2022-09-08T12:12:48Z</time>
      </trkpt>
      <trkpt lat="43.14668" lon="-0.50798">
        <ele>306.8</ele>
        <time>2022-09-08T12:12:52Z</time>
      </trkpt>
      <trkpt lat="43.14686" lon="-0.50823">
        <ele>306.6</ele>
        <time>2022-09-08T12:12:58Z</time>
      </trkpt>
      <trkpt lat="43.14693" lon="-0.50831">
        <ele>306.4</ele>
        <time>2022-09-08T12:13:00Z</time>
      </trkpt>
      <trkpt lat="43.14699" lon="-0.50839">
        <ele>306.4</ele>
        <time>2022-09-08T12:13:02Z</time>
      </trkpt>
      <trkpt lat="43.14719" lon="-0.50865">
        <ele>306.4</ele>
        <time>2022-09-08T12:13:09Z</time>
      </trkpt>
      <trkpt lat="43.14737" lon="-0.50897">
        <ele>306</ele>
        <time>2022-09-08T12:13:17Z</time>
      </trkpt>
      <trkpt lat="43.14752" lon="-0.50926">
        <ele>305.8</ele>
        <time>2022-09-08T12:13:24Z</time>
      </trkpt>
      <trkpt lat="43.14754" lon="-0.5093">
        <ele>305.8</ele>
        <time>2022-09-08T12:13:25Z</time>
      </trkpt>
      <trkpt lat="43.14773" lon="-0.50973">
        <ele>306.2</ele>
        <time>2022-09-08T12:13:34Z</time>
      </trkpt>
      <trkpt lat="43.14794" lon="-0.51025">
        <ele>306</ele>
        <time>2022-09-08T12:13:44Z</time>
      </trkpt>
      <trkpt lat="43.1481" lon="-0.5107">
        <ele>305.8</ele>
        <time>2022-09-08T12:13:52Z</time>
      </trkpt>
      <trkpt lat="43.14829" lon="-0.51129">
        <ele>305.8</ele>
        <time>2022-09-08T12:14:02Z</time>
      </trkpt>
      <trkpt lat="43.14841" lon="-0.51162">
        <ele>305</ele>
        <time>2022-09-08T12:14:08Z</time>
      </trkpt>
      <trkpt lat="43.14855" lon="-0.51197">
        <ele>305.2</ele>
        <time>2022-09-08T12:14:15Z</time>
      </trkpt>
      <trkpt lat="43.14862" lon="-0.51211">
        <ele>304.6</ele>
        <time>2022-09-08T12:14:18Z</time>
      </trkpt>
      <trkpt lat="43.14878" lon="-0.51244">
        <ele>304.8</ele>
        <time>2022-09-08T12:14:25Z</time>
      </trkpt>
      <trkpt lat="43.14889" lon="-0.51262">
        <ele>304.2</ele>
        <time>2022-09-08T12:14:29Z</time>
      </trkpt>
      <trkpt lat="43.14893" lon="-0.51272">
        <ele>304</ele>
        <time>2022-09-08T12:14:31Z</time>
      </trkpt>
      <trkpt lat="43.14898" lon="-0.51282">
        <ele>303.8</ele>
        <time>2022-09-08T12:14:33Z</time>
      </trkpt>
      <trkpt lat="43.14899" lon="-0.51287">
        <ele>303.6</ele>
        <time>2022-09-08T12:14:34Z</time>
      </trkpt>
      <trkpt lat="43.14902" lon="-0.51299">
        <ele>303.6</ele>
        <time>2022-09-08T12:14:36Z</time>
      </trkpt>
      <trkpt lat="43.14903" lon="-0.51304">
        <ele>303.8</ele>
        <time>2022-09-08T12:14:37Z</time>
      </trkpt>
      <trkpt lat="43.14904" lon="-0.51331">
        <ele>304</ele>
        <time>2022-09-08T12:14:42Z</time>
      </trkpt>
      <trkpt lat="43.14904" lon="-0.51364">
        <ele>303.4</ele>
        <time>2022-09-08T12:14:48Z</time>
      </trkpt>
      <trkpt lat="43.14904" lon="-0.51376">
        <ele>303</ele>
        <time>2022-09-08T12:14:50Z</time>
      </trkpt>
      <trkpt lat="43.14906" lon="-0.51395">
        <ele>302.4</ele>
        <time>2022-09-08T12:14:53Z</time>
      </trkpt>
      <trkpt lat="43.14908" lon="-0.51401">
        <ele>302.4</ele>
        <time>2022-09-08T12:14:54Z</time>
      </trkpt>
      <trkpt lat="43.1491" lon="-0.51407">
        <ele>302.4</ele>
        <time>2022-09-08T12:14:55Z</time>
      </trkpt>
      <trkpt lat="43.14912" lon="-0.51412">
        <ele>302.6</ele>
        <time>2022-09-08T12:14:56Z</time>
      </trkpt>
      <trkpt lat="43.14923" lon="-0.5144">
        <ele>302.6</ele>
        <time>2022-09-08T12:15:01Z</time>
      </trkpt>
      <trkpt lat="43.14928" lon="-0.51451">
        <ele>302.6</ele>
        <time>2022-09-08T12:15:03Z</time>
      </trkpt>
      <trkpt lat="43.14955" lon="-0.51505">
        <ele>301.8</ele>
        <time>2022-09-08T12:15:12Z</time>
      </trkpt>
      <trkpt lat="43.14981" lon="-0.51553">
        <ele>301.8</ele>
        <time>2022-09-08T12:15:20Z</time>
      </trkpt>
      <trkpt lat="43.15003" lon="-0.51596">
        <ele>302.2</ele>
        <time>2022-09-08T12:15:27Z</time>
      </trkpt>
      <trkpt lat="43.15014" lon="-0.5162">
        <ele>301</ele>
        <time>2022-09-08T12:15:31Z</time>
      </trkpt>
      <trkpt lat="43.15023" lon="-0.51642">
        <ele>300.4</ele>
        <time>2022-09-08T12:15:35Z</time>
      </trkpt>
      <trkpt lat="43.15039" lon="-0.51676">
        <ele>300.2</ele>
        <time>2022-09-08T12:15:41Z</time>
      </trkpt>
      <trkpt lat="43.15042" lon="-0.51681">
        <ele>300.2</ele>
        <time>2022-09-08T12:15:42Z</time>
      </trkpt>
      <trkpt lat="43.1505" lon="-0.51691">
        <ele>300</ele>
        <time>2022-09-08T12:15:44Z</time>
      </trkpt>
      <trkpt lat="43.1507" lon="-0.51714">
        <ele>300</ele>
        <time>2022-09-08T12:15:49Z</time>
      </trkpt>
      <trkpt lat="43.15106" lon="-0.51754">
        <ele>299.6</ele>
        <time>2022-09-08T12:15:58Z</time>
      </trkpt>
      <trkpt lat="43.15139" lon="-0.51797">
        <ele>299.6</ele>
        <time>2022-09-08T12:16:07Z</time>
      </trkpt>
      <trkpt lat="43.15152" lon="-0.51816">
        <ele>299</ele>
        <time>2022-09-08T12:16:11Z</time>
      </trkpt>
      <trkpt lat="43.15165" lon="-0.51833">
        <ele>298.8</ele>
        <time>2022-09-08T12:16:15Z</time>
      </trkpt>
      <trkpt lat="43.15191" lon="-0.51864">
        <ele>298.6</ele>
        <time>2022-09-08T12:16:22Z</time>
      </trkpt>
      <trkpt lat="43.15216" lon="-0.51909">
        <ele>298.4</ele>
        <time>2022-09-08T12:16:30Z</time>
      </trkpt>
      <trkpt lat="43.15226" lon="-0.51934">
        <ele>297.8</ele>
        <time>2022-09-08T12:16:34Z</time>
      </trkpt>
      <trkpt lat="43.1523" lon="-0.51947">
        <ele>297.4</ele>
        <time>2022-09-08T12:16:36Z</time>
      </trkpt>
      <trkpt lat="43.15233" lon="-0.51959">
        <ele>297.4</ele>
        <time>2022-09-08T12:16:38Z</time>
      </trkpt>
      <trkpt lat="43.15239" lon="-0.51999">
        <ele>297.2</ele>
        <time>2022-09-08T12:16:44Z</time>
      </trkpt>
      <trkpt lat="43.15247" lon="-0.52052">
        <ele>297.4</ele>
        <time>2022-09-08T12:16:51Z</time>
      </trkpt>
      <trkpt lat="43.15258" lon="-0.52121">
        <ele>297.2</ele>
        <time>2022-09-08T12:17:00Z</time>
      </trkpt>
      <trkpt lat="43.15259" lon="-0.52128">
        <ele>296.6</ele>
        <time>2022-09-08T12:17:01Z</time>
      </trkpt>
      <trkpt lat="43.15268" lon="-0.52171">
        <ele>296</ele>
        <time>2022-09-08T12:17:07Z</time>
      </trkpt>
      <trkpt lat="43.15281" lon="-0.52225">
        <ele>296</ele>
        <time>2022-09-08T12:17:14Z</time>
      </trkpt>
      <trkpt lat="43.15294" lon="-0.52287">
        <ele>295.6</ele>
        <time>2022-09-08T12:17:22Z</time>
      </trkpt>
      <trkpt lat="43.15298" lon="-0.52303">
        <ele>295.6</ele>
        <time>2022-09-08T12:17:24Z</time>
      </trkpt>
      <trkpt lat="43.15311" lon="-0.52348">
        <ele>295.2</ele>
        <time>2022-09-08T12:17:30Z</time>
      </trkpt>
      <trkpt lat="43.15313" lon="-0.52355">
        <ele>295.2</ele>
        <time>2022-09-08T12:17:31Z</time>
      </trkpt>
      <trkpt lat="43.15334" lon="-0.52405">
        <ele>294.8</ele>
        <time>2022-09-08T12:17:38Z</time>
      </trkpt>
      <trkpt lat="43.15353" lon="-0.52442">
        <ele>295</ele>
        <time>2022-09-08T12:17:44Z</time>
      </trkpt>
      <trkpt lat="43.15357" lon="-0.52457">
        <ele>295</ele>
        <time>2022-09-08T12:17:46Z</time>
      </trkpt>
      <trkpt lat="43.15358" lon="-0.52481">
        <ele>294.8</ele>
        <time>2022-09-08T12:17:49Z</time>
      </trkpt>
      <trkpt lat="43.15358" lon="-0.52488">
        <ele>294.6</ele>
        <time>2022-09-08T12:17:50Z</time>
      </trkpt>
      <trkpt lat="43.15359" lon="-0.52495">
        <ele>294.4</ele>
        <time>2022-09-08T12:17:51Z</time>
      </trkpt>
      <trkpt lat="43.1536" lon="-0.52518">
        <ele>295</ele>
        <time>2022-09-08T12:17:54Z</time>
      </trkpt>
      <trkpt lat="43.15358" lon="-0.52534">
        <ele>294.8</ele>
        <time>2022-09-08T12:17:56Z</time>
      </trkpt>
      <trkpt lat="43.15352" lon="-0.52582">
        <ele>294.2</ele>
        <time>2022-09-08T12:18:02Z</time>
      </trkpt>
      <trkpt lat="43.15358" lon="-0.52612">
        <ele>294</ele>
        <time>2022-09-08T12:18:06Z</time>
      </trkpt>
      <trkpt lat="43.1536" lon="-0.52618">
        <ele>294</ele>
        <time>2022-09-08T12:18:07Z</time>
      </trkpt>
      <trkpt lat="43.15365" lon="-0.52638">
        <ele>294</ele>
        <time>2022-09-08T12:18:10Z</time>
      </trkpt>
      <trkpt lat="43.15364" lon="-0.52652">
        <ele>294</ele>
        <time>2022-09-08T12:18:12Z</time>
      </trkpt>
      <trkpt lat="43.15357" lon="-0.52662">
        <ele>293.6</ele>
        <time>2022-09-08T12:18:14Z</time>
      </trkpt>
      <trkpt lat="43.15354" lon="-0.52667">
        <ele>293.4</ele>
        <time>2022-09-08T12:18:15Z</time>
      </trkpt>
      <trkpt lat="43.15323" lon="-0.52704">
        <ele>293</ele>
        <time>2022-09-08T12:18:23Z</time>
      </trkpt>
      <trkpt lat="43.15316" lon="-0.52728">
        <ele>293</ele>
        <time>2022-09-08T12:18:27Z</time>
      </trkpt>
      <trkpt lat="43.15317" lon="-0.52748">
        <ele>292.8</ele>
        <time>2022-09-08T12:18:30Z</time>
      </trkpt>
      <trkpt lat="43.15318" lon="-0.52765">
        <ele>293</ele>
        <time>2022-09-08T12:18:33Z</time>
      </trkpt>
      <trkpt lat="43.1532" lon="-0.5279">
        <ele>294.2</ele>
        <time>2022-09-08T12:18:39Z</time>
      </trkpt>
      <trkpt lat="43.15319" lon="-0.52796">
        <ele>294.6</ele>
        <time>2022-09-08T12:18:41Z</time>
      </trkpt>
      <trkpt lat="43.1532" lon="-0.52805">
        <ele>295.6</ele>
        <time>2022-09-08T12:18:45Z</time>
      </trkpt>
      <trkpt lat="43.1532" lon="-0.52816">
        <ele>296.8</ele>
        <time>2022-09-08T12:18:50Z</time>
      </trkpt>
      <trkpt lat="43.1532" lon="-0.52821">
        <ele>297.2</ele>
        <time>2022-09-08T12:18:52Z</time>
      </trkpt>
      <trkpt lat="43.1532" lon="-0.52827">
        <ele>297.8</ele>
        <time>2022-09-08T12:18:55Z</time>
      </trkpt>
      <trkpt lat="43.1532" lon="-0.52835">
        <ele>298.6</ele>
        <time>2022-09-08T12:18:59Z</time>
      </trkpt>
      <trkpt lat="43.1532" lon="-0.52836">
        <ele>298.8</ele>
        <time>2022-09-08T12:19:00Z</time>
      </trkpt>
      <trkpt lat="43.1532" lon="-0.52845">
        <ele>299.8</ele>
        <time>2022-09-08T12:19:05Z</time>
      </trkpt>
      <trkpt lat="43.1532" lon="-0.52849">
        <ele>300.2</ele>
        <time>2022-09-08T12:19:07Z</time>
      </trkpt>
      <trkpt lat="43.1532" lon="-0.52854">
        <ele>301</ele>
        <time>2022-09-08T12:19:10Z</time>
      </trkpt>
      <trkpt lat="43.1532" lon="-0.52861">
        <ele>301.6</ele>
        <time>2022-09-08T12:19:14Z</time>
      </trkpt>
      <trkpt lat="43.15319" lon="-0.52867">
        <ele>302</ele>
        <time>2022-09-08T12:19:17Z</time>
      </trkpt>
      <trkpt lat="43.15318" lon="-0.52873">
        <ele>302.6</ele>
        <time>2022-09-08T12:19:21Z</time>
      </trkpt>
      <trkpt lat="43.15315" lon="-0.52879">
        <ele>303.2</ele>
        <time>2022-09-08T12:19:25Z</time>
      </trkpt>
      <trkpt lat="43.15313" lon="-0.52886">
        <ele>303.8</ele>
        <time>2022-09-08T12:19:29Z</time>
      </trkpt>
      <trkpt lat="43.15311" lon="-0.52889">
        <ele>304.2</ele>
        <time>2022-09-08T12:19:31Z</time>
      </trkpt>
      <trkpt lat="43.15309" lon="-0.52897">
        <ele>305.2</ele>
        <time>2022-09-08T12:19:36Z</time>
      </trkpt>
      <trkpt lat="43.15308" lon="-0.52898">
        <ele>305.4</ele>
        <time>2022-09-08T12:19:37Z</time>
      </trkpt>
      <trkpt lat="43.15305" lon="-0.52907">
        <ele>306</ele>
        <time>2022-09-08T12:19:42Z</time>
      </trkpt>
      <trkpt lat="43.15304" lon="-0.5291">
        <ele>306.4</ele>
        <time>2022-09-08T12:19:44Z</time>
      </trkpt>
      <trkpt lat="43.15299" lon="-0.52918">
        <ele>307</ele>
        <time>2022-09-08T12:19:49Z</time>
      </trkpt>
      <trkpt lat="43.15294" lon="-0.52924">
        <ele>307.4</ele>
        <time>2022-09-08T12:19:53Z</time>
      </trkpt>
      <trkpt lat="43.1529" lon="-0.52928">
        <ele>308</ele>
        <time>2022-09-08T12:19:56Z</time>
      </trkpt>
      <trkpt lat="43.15286" lon="-0.52938">
        <ele>308.4</ele>
        <time>2022-09-08T12:20:01Z</time>
      </trkpt>
      <trkpt lat="43.15286" lon="-0.52941">
        <ele>308.6</ele>
        <time>2022-09-08T12:20:02Z</time>
      </trkpt>
      <trkpt lat="43.15285" lon="-0.52943">
        <ele>308.8</ele>
        <time>2022-09-08T12:20:03Z</time>
      </trkpt>
      <trkpt lat="43.15285" lon="-0.52955">
        <ele>309</ele>
        <time>2022-09-08T12:20:07Z</time>
      </trkpt>
      <trkpt lat="43.15285" lon="-0.52975">
        <ele>309.4</ele>
        <time>2022-09-08T12:20:14Z</time>
      </trkpt>
      <trkpt lat="43.15288" lon="-0.52991">
        <ele>309.6</ele>
        <time>2022-09-08T12:20:19Z</time>
      </trkpt>
      <trkpt lat="43.15289" lon="-0.52998">
        <ele>310</ele>
        <time>2022-09-08T12:20:21Z</time>
      </trkpt>
      <trkpt lat="43.15293" lon="-0.53024">
        <ele>310.6</ele>
        <time>2022-09-08T12:20:28Z</time>
      </trkpt>
      <trkpt lat="43.15294" lon="-0.53031">
        <ele>310.8</ele>
        <time>2022-09-08T12:20:30Z</time>
      </trkpt>
      <trkpt lat="43.15297" lon="-0.53054">
        <ele>311.6</ele>
        <time>2022-09-08T12:20:36Z</time>
      </trkpt>
      <trkpt lat="43.15296" lon="-0.5308">
        <ele>311.4</ele>
        <time>2022-09-08T12:20:43Z</time>
      </trkpt>
      <trkpt lat="43.15295" lon="-0.53114">
        <ele>311.2</ele>
        <time>2022-09-08T12:20:51Z</time>
      </trkpt>
      <trkpt lat="43.15294" lon="-0.53134">
        <ele>311.2</ele>
        <time>2022-09-08T12:20:55Z</time>
      </trkpt>
      <trkpt lat="43.15293" lon="-0.5314">
        <ele>311.2</ele>
        <time>2022-09-08T12:20:56Z</time>
      </trkpt>
      <trkpt lat="43.15293" lon="-0.53181">
        <ele>311.2</ele>
        <time>2022-09-08T12:21:03Z</time>
      </trkpt>
      <trkpt lat="43.153" lon="-0.53214">
        <ele>311.6</ele>
        <time>2022-09-08T12:21:09Z</time>
      </trkpt>
      <trkpt lat="43.1531" lon="-0.5323">
        <ele>311.8</ele>
        <time>2022-09-08T12:21:13Z</time>
      </trkpt>
      <trkpt lat="43.15313" lon="-0.53233">
        <ele>312</ele>
        <time>2022-09-08T12:21:14Z</time>
      </trkpt>
      <trkpt lat="43.15329" lon="-0.53257">
        <ele>313</ele>
        <time>2022-09-08T12:21:21Z</time>
      </trkpt>
      <trkpt lat="43.15331" lon="-0.5326">
        <ele>313</ele>
        <time>2022-09-08T12:21:22Z</time>
      </trkpt>
      <trkpt lat="43.15357" lon="-0.5329">
        <ele>313.8</ele>
        <time>2022-09-08T12:21:32Z</time>
      </trkpt>
      <trkpt lat="43.15373" lon="-0.53299">
        <ele>314</ele>
        <time>2022-09-08T12:21:37Z</time>
      </trkpt>
      <trkpt lat="43.1538" lon="-0.53303">
        <ele>313.8</ele>
        <time>2022-09-08T12:21:39Z</time>
      </trkpt>
      <trkpt lat="43.1541" lon="-0.53315">
        <ele>314.2</ele>
        <time>2022-09-08T12:21:46Z</time>
      </trkpt>
      <trkpt lat="43.15429" lon="-0.53324">
        <ele>315.2</ele>
        <time>2022-09-08T12:21:50Z</time>
      </trkpt>
      <trkpt lat="43.15454" lon="-0.53336">
        <ele>315</ele>
        <time>2022-09-08T12:21:56Z</time>
      </trkpt>
      <trkpt lat="43.15481" lon="-0.53347">
        <ele>314.6</ele>
        <time>2022-09-08T12:22:02Z</time>
      </trkpt>
      <trkpt lat="43.1551" lon="-0.53354">
        <ele>314</ele>
        <time>2022-09-08T12:22:08Z</time>
      </trkpt>
      <trkpt lat="43.15546" lon="-0.53359">
        <ele>313.2</ele>
        <time>2022-09-08T12:22:15Z</time>
      </trkpt>
      <trkpt lat="43.1557" lon="-0.53362">
        <ele>313</ele>
        <time>2022-09-08T12:22:20Z</time>
      </trkpt>
      <trkpt lat="43.1558" lon="-0.53365">
        <ele>312.4</ele>
        <time>2022-09-08T12:22:22Z</time>
      </trkpt>
      <trkpt lat="43.156" lon="-0.53374">
        <ele>312</ele>
        <time>2022-09-08T12:22:26Z</time>
      </trkpt>
      <trkpt lat="43.15605" lon="-0.53378">
        <ele>311.8</ele>
        <time>2022-09-08T12:22:27Z</time>
      </trkpt>
      <trkpt lat="43.1561" lon="-0.53382">
        <ele>311.6</ele>
        <time>2022-09-08T12:22:28Z</time>
      </trkpt>
      <trkpt lat="43.15632" lon="-0.53402">
        <ele>310.8</ele>
        <time>2022-09-08T12:22:32Z</time>
      </trkpt>
      <trkpt lat="43.15648" lon="-0.53418">
        <ele>310.2</ele>
        <time>2022-09-08T12:22:35Z</time>
      </trkpt>
      <trkpt lat="43.15663" lon="-0.53433">
        <ele>309.8</ele>
        <time>2022-09-08T12:22:38Z</time>
      </trkpt>
      <trkpt lat="43.15681" lon="-0.53451">
        <ele>309.2</ele>
        <time>2022-09-08T12:22:42Z</time>
      </trkpt>
      <trkpt lat="43.15709" lon="-0.53484">
        <ele>309.4</ele>
        <time>2022-09-08T12:22:50Z</time>
      </trkpt>
      <trkpt lat="43.15726" lon="-0.53518">
        <ele>309</ele>
        <time>2022-09-08T12:22:57Z</time>
      </trkpt>
      <trkpt lat="43.15755" lon="-0.53574">
        <ele>309.4</ele>
        <time>2022-09-08T12:23:08Z</time>
      </trkpt>
      <trkpt lat="43.1578" lon="-0.53603">
        <ele>309.6</ele>
        <time>2022-09-08T12:23:15Z</time>
      </trkpt>
      <trkpt lat="43.15816" lon="-0.53624">
        <ele>309.2</ele>
        <time>2022-09-08T12:23:24Z</time>
      </trkpt>
      <trkpt lat="43.15826" lon="-0.53629">
        <ele>308.6</ele>
        <time>2022-09-08T12:23:26Z</time>
      </trkpt>
      <trkpt lat="43.15851" lon="-0.53644">
        <ele>307.8</ele>
        <time>2022-09-08T12:23:31Z</time>
      </trkpt>
      <trkpt lat="43.15867" lon="-0.53653">
        <ele>307.6</ele>
        <time>2022-09-08T12:23:34Z</time>
      </trkpt>
      <trkpt lat="43.15902" lon="-0.53666">
        <ele>306.6</ele>
        <time>2022-09-08T12:23:40Z</time>
      </trkpt>
      <trkpt lat="43.15908" lon="-0.53668">
        <ele>306.4</ele>
        <time>2022-09-08T12:23:41Z</time>
      </trkpt>
      <trkpt lat="43.15945" lon="-0.53684">
        <ele>305.2</ele>
        <time>2022-09-08T12:23:47Z</time>
      </trkpt>
      <trkpt lat="43.15975" lon="-0.53703">
        <ele>305.2</ele>
        <time>2022-09-08T12:23:53Z</time>
      </trkpt>
      <trkpt lat="43.15979" lon="-0.53707">
        <ele>305.4</ele>
        <time>2022-09-08T12:23:54Z</time>
      </trkpt>
      <trkpt lat="43.16008" lon="-0.5374">
        <ele>306.2</ele>
        <time>2022-09-08T12:24:01Z</time>
      </trkpt>
      <trkpt lat="43.16017" lon="-0.53755">
        <ele>306.6</ele>
        <time>2022-09-08T12:24:04Z</time>
      </trkpt>
      <trkpt lat="43.16021" lon="-0.53765">
        <ele>306.8</ele>
        <time>2022-09-08T12:24:06Z</time>
      </trkpt>
      <trkpt lat="43.16036" lon="-0.53796">
        <ele>306.8</ele>
        <time>2022-09-08T12:24:12Z</time>
      </trkpt>
      <trkpt lat="43.16049" lon="-0.53807">
        <ele>306.8</ele>
        <time>2022-09-08T12:24:15Z</time>
      </trkpt>
      <trkpt lat="43.16053" lon="-0.53809">
        <ele>306.8</ele>
        <time>2022-09-08T12:24:16Z</time>
      </trkpt>
      <trkpt lat="43.16064" lon="-0.53813">
        <ele>306.8</ele>
        <time>2022-09-08T12:24:18Z</time>
      </trkpt>
      <trkpt lat="43.16085" lon="-0.53817">
        <ele>307</ele>
        <time>2022-09-08T12:24:22Z</time>
      </trkpt>
      <trkpt lat="43.16112" lon="-0.53821">
        <ele>307.6</ele>
        <time>2022-09-08T12:24:27Z</time>
      </trkpt>
      <trkpt lat="43.16121" lon="-0.53821">
        <ele>307.4</ele>
        <time>2022-09-08T12:24:29Z</time>
      </trkpt>
      <trkpt lat="43.16126" lon="-0.5382">
        <ele>307.4</ele>
        <time>2022-09-08T12:24:30Z</time>
      </trkpt>
      <trkpt lat="43.1614" lon="-0.53811">
        <ele>307.4</ele>
        <time>2022-09-08T12:24:33Z</time>
      </trkpt>
      <trkpt lat="43.16145" lon="-0.53807">
        <ele>307.4</ele>
        <time>2022-09-08T12:24:34Z</time>
      </trkpt>
      <trkpt lat="43.16149" lon="-0.53804">
        <ele>307.4</ele>
        <time>2022-09-08T12:24:35Z</time>
      </trkpt>
      <trkpt lat="43.16173" lon="-0.53791">
        <ele>308</ele>
        <time>2022-09-08T12:24:40Z</time>
      </trkpt>
      <trkpt lat="43.16203" lon="-0.53786">
        <ele>308.6</ele>
        <time>2022-09-08T12:24:46Z</time>
      </trkpt>
      <trkpt lat="43.16212" lon="-0.53785">
        <ele>308.6</ele>
        <time>2022-09-08T12:24:48Z</time>
      </trkpt>
      <trkpt lat="43.16224" lon="-0.53785">
        <ele>309</ele>
        <time>2022-09-08T12:24:51Z</time>
      </trkpt>
      <trkpt lat="43.16246" lon="-0.5379">
        <ele>309.6</ele>
        <time>2022-09-08T12:24:55Z</time>
      </trkpt>
      <trkpt lat="43.16263" lon="-0.53796">
        <ele>309.8</ele>
        <time>2022-09-08T12:24:58Z</time>
      </trkpt>
      <trkpt lat="43.163" lon="-0.53813">
        <ele>310.2</ele>
        <time>2022-09-08T12:25:06Z</time>
      </trkpt>
      <trkpt lat="43.16313" lon="-0.53818">
        <ele>310.8</ele>
        <time>2022-09-08T12:25:09Z</time>
      </trkpt>
      <trkpt lat="43.16338" lon="-0.53829">
        <ele>311.2</ele>
        <time>2022-09-08T12:25:15Z</time>
      </trkpt>
      <trkpt lat="43.16358" lon="-0.53839">
        <ele>312</ele>
        <time>2022-09-08T12:25:20Z</time>
      </trkpt>
      <trkpt lat="43.1637" lon="-0.53846">
        <ele>312.4</ele>
        <time>2022-09-08T12:25:23Z</time>
      </trkpt>
      <trkpt lat="43.16398" lon="-0.53858">
        <ele>313</ele>
        <time>2022-09-08T12:25:30Z</time>
      </trkpt>
      <trkpt lat="43.16406" lon="-0.53859">
        <ele>313.2</ele>
        <time>2022-09-08T12:25:32Z</time>
      </trkpt>
      <trkpt lat="43.16417" lon="-0.53858">
        <ele>314</ele>
        <time>2022-09-08T12:25:36Z</time>
      </trkpt>
      <trkpt lat="43.16419" lon="-0.53857">
        <ele>314.2</ele>
        <time>2022-09-08T12:25:37Z</time>
      </trkpt>
      <trkpt lat="43.1644" lon="-0.53846">
        <ele>314.6</ele>
        <time>2022-09-08T12:25:44Z</time>
      </trkpt>
      <trkpt lat="43.16461" lon="-0.53836">
        <ele>313.6</ele>
        <time>2022-09-08T12:25:49Z</time>
      </trkpt>
      <trkpt lat="43.16472" lon="-0.53829">
        <ele>313</ele>
        <time>2022-09-08T12:25:51Z</time>
      </trkpt>
      <trkpt lat="43.16491" lon="-0.5382">
        <ele>311.6</ele>
        <time>2022-09-08T12:25:54Z</time>
      </trkpt>
      <trkpt lat="43.16498" lon="-0.53818">
        <ele>311.2</ele>
        <time>2022-09-08T12:25:55Z</time>
      </trkpt>
      <trkpt lat="43.16506" lon="-0.53818">
        <ele>310.6</ele>
        <time>2022-09-08T12:25:56Z</time>
      </trkpt>
      <trkpt lat="43.16514" lon="-0.5382">
        <ele>310.4</ele>
        <time>2022-09-08T12:25:57Z</time>
      </trkpt>
      <trkpt lat="43.1653" lon="-0.53825">
        <ele>309.4</ele>
        <time>2022-09-08T12:25:59Z</time>
      </trkpt>
      <trkpt lat="43.1656" lon="-0.53832">
        <ele>309</ele>
        <time>2022-09-08T12:26:03Z</time>
      </trkpt>
      <trkpt lat="43.1659" lon="-0.5384">
        <ele>308.2</ele>
        <time>2022-09-08T12:26:07Z</time>
      </trkpt>
      <trkpt lat="43.16597" lon="-0.53843">
        <ele>308.6</ele>
        <time>2022-09-08T12:26:08Z</time>
      </trkpt>
      <trkpt lat="43.1661" lon="-0.5385">
        <ele>308.4</ele>
        <time>2022-09-08T12:26:10Z</time>
      </trkpt>
      <trkpt lat="43.16641" lon="-0.53874">
        <ele>308.4</ele>
        <time>2022-09-08T12:26:16Z</time>
      </trkpt>
      <trkpt lat="43.16666" lon="-0.53907">
        <ele>307.2</ele>
        <time>2022-09-08T12:26:22Z</time>
      </trkpt>
      <trkpt lat="43.16671" lon="-0.53913">
        <ele>307.2</ele>
        <time>2022-09-08T12:26:23Z</time>
      </trkpt>
      <trkpt lat="43.167" lon="-0.53952">
        <ele>308.2</ele>
        <time>2022-09-08T12:26:31Z</time>
      </trkpt>
      <trkpt lat="43.16726" lon="-0.53976">
        <ele>306.6</ele>
        <time>2022-09-08T12:26:38Z</time>
      </trkpt>
      <trkpt lat="43.16736" lon="-0.53986">
        <ele>306.4</ele>
        <time>2022-09-08T12:26:41Z</time>
      </trkpt>
      <trkpt lat="43.16747" lon="-0.53999">
        <ele>306</ele>
        <time>2022-09-08T12:26:44Z</time>
      </trkpt>
      <trkpt lat="43.1675" lon="-0.54004">
        <ele>306</ele>
        <time>2022-09-08T12:26:45Z</time>
      </trkpt>
      <trkpt lat="43.16765" lon="-0.54029">
        <ele>304.6</ele>
        <time>2022-09-08T12:26:51Z</time>
      </trkpt>
      <trkpt lat="43.16771" lon="-0.54043">
        <ele>304.8</ele>
        <time>2022-09-08T12:26:54Z</time>
      </trkpt>
      <trkpt lat="43.16776" lon="-0.54054">
        <ele>304.6</ele>
        <time>2022-09-08T12:26:56Z</time>
      </trkpt>
      <trkpt lat="43.1679" lon="-0.54091">
        <ele>303.8</ele>
        <time>2022-09-08T12:27:02Z</time>
      </trkpt>
      <trkpt lat="43.16807" lon="-0.54136">
        <ele>303.6</ele>
        <time>2022-09-08T12:27:09Z</time>
      </trkpt>
      <trkpt lat="43.16809" lon="-0.54141">
        <ele>303.6</ele>
        <time>2022-09-08T12:27:10Z</time>
      </trkpt>
      <trkpt lat="43.16822" lon="-0.54176">
        <ele>302.6</ele>
        <time>2022-09-08T12:27:16Z</time>
      </trkpt>
      <trkpt lat="43.16824" lon="-0.54182">
        <ele>302.6</ele>
        <time>2022-09-08T12:27:17Z</time>
      </trkpt>
      <trkpt lat="43.16835" lon="-0.54216">
        <ele>301.8</ele>
        <time>2022-09-08T12:27:22Z</time>
      </trkpt>
      <trkpt lat="43.16839" lon="-0.54239">
        <ele>301.4</ele>
        <time>2022-09-08T12:27:25Z</time>
      </trkpt>
      <trkpt lat="43.16838" lon="-0.54255">
        <ele>300.8</ele>
        <time>2022-09-08T12:27:27Z</time>
      </trkpt>
      <trkpt lat="43.16834" lon="-0.54281">
        <ele>301.2</ele>
        <time>2022-09-08T12:27:31Z</time>
      </trkpt>
      <trkpt lat="43.16833" lon="-0.54287">
        <ele>301.2</ele>
        <time>2022-09-08T12:27:32Z</time>
      </trkpt>
      <trkpt lat="43.16831" lon="-0.54298">
        <ele>301.4</ele>
        <time>2022-09-08T12:27:34Z</time>
      </trkpt>
      <trkpt lat="43.1683" lon="-0.54317">
        <ele>301.2</ele>
        <time>2022-09-08T12:27:37Z</time>
      </trkpt>
      <trkpt lat="43.16831" lon="-0.54359">
        <ele>300.2</ele>
        <time>2022-09-08T12:27:43Z</time>
      </trkpt>
      <trkpt lat="43.16831" lon="-0.54366">
        <ele>300</ele>
        <time>2022-09-08T12:27:44Z</time>
      </trkpt>
      <trkpt lat="43.16833" lon="-0.54403">
        <ele>299.4</ele>
        <time>2022-09-08T12:27:49Z</time>
      </trkpt>
      <trkpt lat="43.16833" lon="-0.54426">
        <ele>299.2</ele>
        <time>2022-09-08T12:27:52Z</time>
      </trkpt>
      <trkpt lat="43.16833" lon="-0.54433">
        <ele>299</ele>
        <time>2022-09-08T12:27:53Z</time>
      </trkpt>
      <trkpt lat="43.16831" lon="-0.54448">
        <ele>298.8</ele>
        <time>2022-09-08T12:27:55Z</time>
      </trkpt>
      <trkpt lat="43.16823" lon="-0.54466">
        <ele>298.4</ele>
        <time>2022-09-08T12:27:58Z</time>
      </trkpt>
      <trkpt lat="43.16819" lon="-0.54471">
        <ele>298.6</ele>
        <time>2022-09-08T12:27:59Z</time>
      </trkpt>
      <trkpt lat="43.16803" lon="-0.54486">
        <ele>298.2</ele>
        <time>2022-09-08T12:28:03Z</time>
      </trkpt>
      <trkpt lat="43.16798" lon="-0.54489">
        <ele>297.8</ele>
        <time>2022-09-08T12:28:04Z</time>
      </trkpt>
      <trkpt lat="43.16767" lon="-0.54521">
        <ele>296.8</ele>
        <time>2022-09-08T12:28:11Z</time>
      </trkpt>
      <trkpt lat="43.16762" lon="-0.54527">
        <ele>296.8</ele>
        <time>2022-09-08T12:28:12Z</time>
      </trkpt>
      <trkpt lat="43.16733" lon="-0.54564">
        <ele>295.8</ele>
        <time>2022-09-08T12:28:18Z</time>
      </trkpt>
      <trkpt lat="43.16724" lon="-0.54577">
        <ele>294.6</ele>
        <time>2022-09-08T12:28:20Z</time>
      </trkpt>
      <trkpt lat="43.16719" lon="-0.54585">
        <ele>294.4</ele>
        <time>2022-09-08T12:28:21Z</time>
      </trkpt>
      <trkpt lat="43.16708" lon="-0.54609">
        <ele>293.6</ele>
        <time>2022-09-08T12:28:24Z</time>
      </trkpt>
      <trkpt lat="43.16684" lon="-0.54657">
        <ele>292.4</ele>
        <time>2022-09-08T12:28:30Z</time>
      </trkpt>
      <trkpt lat="43.16669" lon="-0.54689">
        <ele>293.4</ele>
        <time>2022-09-08T12:28:34Z</time>
      </trkpt>
      <trkpt lat="43.16654" lon="-0.54718">
        <ele>291.4</ele>
        <time>2022-09-08T12:28:38Z</time>
      </trkpt>
      <trkpt lat="43.16642" lon="-0.54737">
        <ele>291.4</ele>
        <time>2022-09-08T12:28:41Z</time>
      </trkpt>
      <trkpt lat="43.16624" lon="-0.54759">
        <ele>290.4</ele>
        <time>2022-09-08T12:28:45Z</time>
      </trkpt>
      <trkpt lat="43.16615" lon="-0.54769">
        <ele>290.2</ele>
        <time>2022-09-08T12:28:47Z</time>
      </trkpt>
      <trkpt lat="43.1659" lon="-0.54807">
        <ele>289.8</ele>
        <time>2022-09-08T12:28:54Z</time>
      </trkpt>
      <trkpt lat="43.16588" lon="-0.54814">
        <ele>289.6</ele>
        <time>2022-09-08T12:28:55Z</time>
      </trkpt>
      <trkpt lat="43.16583" lon="-0.54843">
        <ele>289.6</ele>
        <time>2022-09-08T12:28:59Z</time>
      </trkpt>
      <trkpt lat="43.16583" lon="-0.5485">
        <ele>289.8</ele>
        <time>2022-09-08T12:29:00Z</time>
      </trkpt>
      <trkpt lat="43.16579" lon="-0.54894">
        <ele>289.2</ele>
        <time>2022-09-08T12:29:06Z</time>
      </trkpt>
      <trkpt lat="43.16578" lon="-0.54909">
        <ele>289.2</ele>
        <time>2022-09-08T12:29:08Z</time>
      </trkpt>
      <trkpt lat="43.1658" lon="-0.54954">
        <ele>289</ele>
        <time>2022-09-08T12:29:14Z</time>
      </trkpt>
      <trkpt lat="43.16586" lon="-0.55026">
        <ele>289</ele>
        <time>2022-09-08T12:29:23Z</time>
      </trkpt>
      <trkpt lat="43.1659" lon="-0.55099">
        <ele>289.2</ele>
        <time>2022-09-08T12:29:32Z</time>
      </trkpt>
      <trkpt lat="43.16595" lon="-0.55179">
        <ele>288.4</ele>
        <time>2022-09-08T12:29:42Z</time>
      </trkpt>
      <trkpt lat="43.16598" lon="-0.55194">
        <ele>288</ele>
        <time>2022-09-08T12:29:44Z</time>
      </trkpt>
      <trkpt lat="43.16607" lon="-0.55242">
        <ele>287.6</ele>
        <time>2022-09-08T12:29:50Z</time>
      </trkpt>
      <trkpt lat="43.16622" lon="-0.55313">
        <ele>287.8</ele>
        <time>2022-09-08T12:29:59Z</time>
      </trkpt>
      <trkpt lat="43.16624" lon="-0.55321">
        <ele>287.8</ele>
        <time>2022-09-08T12:30:00Z</time>
      </trkpt>
      <trkpt lat="43.16625" lon="-0.55353">
        <ele>286.8</ele>
        <time>2022-09-08T12:30:04Z</time>
      </trkpt>
      <trkpt lat="43.16625" lon="-0.55369">
        <ele>287.2</ele>
        <time>2022-09-08T12:30:06Z</time>
      </trkpt>
      <trkpt lat="43.16624" lon="-0.55441">
        <ele>286.6</ele>
        <time>2022-09-08T12:30:15Z</time>
      </trkpt>
      <trkpt lat="43.16626" lon="-0.55503">
        <ele>286</ele>
        <time>2022-09-08T12:30:23Z</time>
      </trkpt>
      <trkpt lat="43.16635" lon="-0.55559">
        <ele>286.6</ele>
        <time>2022-09-08T12:30:31Z</time>
      </trkpt>
      <trkpt lat="43.16638" lon="-0.55574">
        <ele>286.2</ele>
        <time>2022-09-08T12:30:33Z</time>
      </trkpt>
      <trkpt lat="43.16641" lon="-0.55595">
        <ele>285.8</ele>
        <time>2022-09-08T12:30:36Z</time>
      </trkpt>
      <trkpt lat="43.16643" lon="-0.55602">
        <ele>285.6</ele>
        <time>2022-09-08T12:30:37Z</time>
      </trkpt>
      <trkpt lat="43.16652" lon="-0.55648">
        <ele>285</ele>
        <time>2022-09-08T12:30:43Z</time>
      </trkpt>
      <trkpt lat="43.16655" lon="-0.55665">
        <ele>284.4</ele>
        <time>2022-09-08T12:30:45Z</time>
      </trkpt>
      <trkpt lat="43.16664" lon="-0.55709">
        <ele>283.6</ele>
        <time>2022-09-08T12:30:50Z</time>
      </trkpt>
      <trkpt lat="43.16666" lon="-0.55718">
        <ele>283.2</ele>
        <time>2022-09-08T12:30:51Z</time>
      </trkpt>
      <trkpt lat="43.16674" lon="-0.55762">
        <ele>282.2</ele>
        <time>2022-09-08T12:30:56Z</time>
      </trkpt>
      <trkpt lat="43.16678" lon="-0.55779">
        <ele>281.8</ele>
        <time>2022-09-08T12:30:58Z</time>
      </trkpt>
      <trkpt lat="43.1669" lon="-0.55835">
        <ele>281.6</ele>
        <time>2022-09-08T12:31:05Z</time>
      </trkpt>
      <trkpt lat="43.167" lon="-0.55861">
        <ele>282</ele>
        <time>2022-09-08T12:31:09Z</time>
      </trkpt>
      <trkpt lat="43.16703" lon="-0.55866">
        <ele>282.2</ele>
        <time>2022-09-08T12:31:10Z</time>
      </trkpt>
      <trkpt lat="43.16714" lon="-0.55881">
        <ele>283</ele>
        <time>2022-09-08T12:31:13Z</time>
      </trkpt>
      <trkpt lat="43.16726" lon="-0.55892">
        <ele>283</ele>
        <time>2022-09-08T12:31:16Z</time>
      </trkpt>
      <trkpt lat="43.16738" lon="-0.55901">
        <ele>283.2</ele>
        <time>2022-09-08T12:31:19Z</time>
      </trkpt>
      <trkpt lat="43.16751" lon="-0.55907">
        <ele>283.6</ele>
        <time>2022-09-08T12:31:22Z</time>
      </trkpt>
      <trkpt lat="43.16782" lon="-0.55915">
        <ele>284</ele>
        <time>2022-09-08T12:31:29Z</time>
      </trkpt>
      <trkpt lat="43.16786" lon="-0.55916">
        <ele>284.2</ele>
        <time>2022-09-08T12:31:30Z</time>
      </trkpt>
      <trkpt lat="43.1679" lon="-0.55916">
        <ele>284.4</ele>
        <time>2022-09-08T12:31:31Z</time>
      </trkpt>
      <trkpt lat="43.16813" lon="-0.55917">
        <ele>284.8</ele>
        <time>2022-09-08T12:31:36Z</time>
      </trkpt>
      <trkpt lat="43.16857" lon="-0.55919">
        <ele>285</ele>
        <time>2022-09-08T12:31:46Z</time>
      </trkpt>
      <trkpt lat="43.16886" lon="-0.5592">
        <ele>284.8</ele>
        <time>2022-09-08T12:31:53Z</time>
      </trkpt>
      <trkpt lat="43.16895" lon="-0.55919">
        <ele>285</ele>
        <time>2022-09-08T12:31:55Z</time>
      </trkpt>
      <trkpt lat="43.16913" lon="-0.55917">
        <ele>284.6</ele>
        <time>2022-09-08T12:31:59Z</time>
      </trkpt>
      <trkpt lat="43.16923" lon="-0.55914">
        <ele>284.6</ele>
        <time>2022-09-08T12:32:01Z</time>
      </trkpt>
      <trkpt lat="43.16942" lon="-0.55911">
        <ele>284.2</ele>
        <time>2022-09-08T12:32:05Z</time>
      </trkpt>
      <trkpt lat="43.16979" lon="-0.55904">
        <ele>283.8</ele>
        <time>2022-09-08T12:32:12Z</time>
      </trkpt>
      <trkpt lat="43.17016" lon="-0.55905">
        <ele>284.2</ele>
        <time>2022-09-08T12:32:20Z</time>
      </trkpt>
      <trkpt lat="43.17021" lon="-0.55907">
        <ele>284.4</ele>
        <time>2022-09-08T12:32:21Z</time>
      </trkpt>
      <trkpt lat="43.17044" lon="-0.55919">
        <ele>284.8</ele>
        <time>2022-09-08T12:32:26Z</time>
      </trkpt>
      <trkpt lat="43.17086" lon="-0.55944">
        <ele>285.4</ele>
        <time>2022-09-08T12:32:36Z</time>
      </trkpt>
      <trkpt lat="43.17094" lon="-0.55949">
        <ele>285.6</ele>
        <time>2022-09-08T12:32:38Z</time>
      </trkpt>
      <trkpt lat="43.17104" lon="-0.55961">
        <ele>285.6</ele>
        <time>2022-09-08T12:32:42Z</time>
      </trkpt>
      <trkpt lat="43.17102" lon="-0.55981">
        <ele>285.4</ele>
        <time>2022-09-08T12:32:46Z</time>
      </trkpt>
      <trkpt lat="43.17096" lon="-0.56026">
        <ele>284.8</ele>
        <time>2022-09-08T12:32:55Z</time>
      </trkpt>
      <trkpt lat="43.17091" lon="-0.5606">
        <ele>284.8</ele>
        <time>2022-09-08T12:33:02Z</time>
      </trkpt>
      <trkpt lat="43.17087" lon="-0.56087">
        <ele>284.8</ele>
        <time>2022-09-08T12:33:08Z</time>
      </trkpt>
      <trkpt lat="43.17084" lon="-0.56109">
        <ele>284.2</ele>
        <time>2022-09-08T12:33:12Z</time>
      </trkpt>
      <trkpt lat="43.17082" lon="-0.56124">
        <ele>284.2</ele>
        <time>2022-09-08T12:33:15Z</time>
      </trkpt>
      <trkpt lat="43.17075" lon="-0.56165">
        <ele>283.8</ele>
        <time>2022-09-08T12:33:23Z</time>
      </trkpt>
      <trkpt lat="43.17069" lon="-0.56204">
        <ele>283.2</ele>
        <time>2022-09-08T12:33:30Z</time>
      </trkpt>
      <trkpt lat="43.17061" lon="-0.56248">
        <ele>282.8</ele>
        <time>2022-09-08T12:33:38Z</time>
      </trkpt>
      <trkpt lat="43.17056" lon="-0.56292">
        <ele>282.2</ele>
        <time>2022-09-08T12:33:46Z</time>
      </trkpt>
      <trkpt lat="43.17055" lon="-0.56297">
        <ele>282.2</ele>
        <time>2022-09-08T12:33:47Z</time>
      </trkpt>
      <trkpt lat="43.17046" lon="-0.56312">
        <ele>282.2</ele>
        <time>2022-09-08T12:33:51Z</time>
      </trkpt>
      <trkpt lat="43.17034" lon="-0.56313">
        <ele>282.2</ele>
        <time>2022-09-08T12:33:55Z</time>
      </trkpt>
      <trkpt lat="43.17024" lon="-0.5631">
        <ele>282</ele>
        <time>2022-09-08T12:34:00Z</time>
      </trkpt>
      <trkpt lat="43.17013" lon="-0.56307">
        <ele>281.8</ele>
        <time>2022-09-08T12:34:06Z</time>
      </trkpt>
      <trkpt lat="43.17008" lon="-0.56305">
        <ele>282</ele>
        <time>2022-09-08T12:34:19Z</time>
      </trkpt>
      <trkpt lat="43.16994" lon="-0.56299">
        <ele>281.6</ele>
        <time>2022-09-08T12:34:25Z</time>
      </trkpt>
      <trkpt lat="43.16987" lon="-0.56302">
        <ele>281.2</ele>
        <time>2022-09-08T12:34:27Z</time>
      </trkpt>
      <trkpt lat="43.16982" lon="-0.5631">
        <ele>281</ele>
        <time>2022-09-08T12:34:29Z</time>
      </trkpt>
      <trkpt lat="43.16979" lon="-0.5633">
        <ele>280.4</ele>
        <time>2022-09-08T12:34:33Z</time>
      </trkpt>
      <trkpt lat="43.16974" lon="-0.56354">
        <ele>280</ele>
        <time>2022-09-08T12:34:38Z</time>
      </trkpt>
      <trkpt lat="43.16971" lon="-0.56367">
        <ele>280</ele>
        <time>2022-09-08T12:34:41Z</time>
      </trkpt>
      <trkpt lat="43.16964" lon="-0.56395">
        <ele>279.8</ele>
        <time>2022-09-08T12:34:48Z</time>
      </trkpt>
      <trkpt lat="43.16958" lon="-0.56425">
        <ele>279.8</ele>
        <time>2022-09-08T12:34:55Z</time>
      </trkpt>
      <trkpt lat="43.16945" lon="-0.56459">
        <ele>279.4</ele>
        <time>2022-09-08T12:35:04Z</time>
      </trkpt>
      <trkpt lat="43.16939" lon="-0.5648">
        <ele>279.4</ele>
        <time>2022-09-08T12:35:10Z</time>
      </trkpt>
      <trkpt lat="43.16936" lon="-0.56503">
        <ele>279.2</ele>
        <time>2022-09-08T12:35:17Z</time>
      </trkpt>
      <trkpt lat="43.16936" lon="-0.56518">
        <ele>279</ele>
        <time>2022-09-08T12:35:24Z</time>
      </trkpt>
      <trkpt lat="43.16936" lon="-0.5652">
        <ele>279</ele>
        <time>2022-09-08T12:35:26Z</time>
      </trkpt>
      <trkpt lat="43.16936" lon="-0.56526">
        <ele>278.8</ele>
        <time>2022-09-08T12:39:24Z</time>
      </trkpt>
      <trkpt lat="43.16935" lon="-0.56537">
        <ele>278.8</ele>
        <time>2022-09-08T12:39:27Z</time>
      </trkpt>
      <trkpt lat="43.16937" lon="-0.56562">
        <ele>278.8</ele>
        <time>2022-09-08T12:39:33Z</time>
      </trkpt>
      <trkpt lat="43.16938" lon="-0.56597">
        <ele>278.6</ele>
        <time>2022-09-08T12:39:42Z</time>
      </trkpt>
      <trkpt lat="43.1694" lon="-0.56628">
        <ele>278.6</ele>
        <time>2022-09-08T12:39:50Z</time>
      </trkpt>
      <trkpt lat="43.16941" lon="-0.56647">
        <ele>278</ele>
        <time>2022-09-08T12:39:54Z</time>
      </trkpt>
      <trkpt lat="43.16942" lon="-0.56665">
        <ele>277.6</ele>
        <time>2022-09-08T12:39:58Z</time>
      </trkpt>
      <trkpt lat="43.16943" lon="-0.56686">
        <ele>276.8</ele>
        <time>2022-09-08T12:40:02Z</time>
      </trkpt>
      <trkpt lat="43.16945" lon="-0.56703">
        <ele>276.4</ele>
        <time>2022-09-08T12:40:05Z</time>
      </trkpt>
      <trkpt lat="43.16946" lon="-0.56739">
        <ele>275.8</ele>
        <time>2022-09-08T12:40:11Z</time>
      </trkpt>
      <trkpt lat="43.16942" lon="-0.56777">
        <ele>275.6</ele>
        <time>2022-09-08T12:40:18Z</time>
      </trkpt>
      <trkpt lat="43.16937" lon="-0.56816">
        <ele>275.2</ele>
        <time>2022-09-08T12:40:26Z</time>
      </trkpt>
      <trkpt lat="43.16937" lon="-0.56849">
        <ele>275.2</ele>
        <time>2022-09-08T12:40:33Z</time>
      </trkpt>
      <trkpt lat="43.1694" lon="-0.56877">
        <ele>275</ele>
        <time>2022-09-08T12:40:40Z</time>
      </trkpt>
      <trkpt lat="43.1694" lon="-0.56892">
        <ele>274.6</ele>
        <time>2022-09-08T12:40:43Z</time>
      </trkpt>
      <trkpt lat="43.1694" lon="-0.56907">
        <ele>274.4</ele>
        <time>2022-09-08T12:40:46Z</time>
      </trkpt>
      <trkpt lat="43.16939" lon="-0.56935">
        <ele>274</ele>
        <time>2022-09-08T12:40:53Z</time>
      </trkpt>
      <trkpt lat="43.16939" lon="-0.56944">
        <ele>273.6</ele>
        <time>2022-09-08T12:40:55Z</time>
      </trkpt>
      <trkpt lat="43.16937" lon="-0.56964">
        <ele>273.4</ele>
        <time>2022-09-08T12:40:59Z</time>
      </trkpt>
      <trkpt lat="43.16929" lon="-0.5699">
        <ele>273.4</ele>
        <time>2022-09-08T12:41:05Z</time>
      </trkpt>
      <trkpt lat="43.16918" lon="-0.57021">
        <ele>273.6</ele>
        <time>2022-09-08T12:41:12Z</time>
      </trkpt>
      <trkpt lat="43.16909" lon="-0.57047">
        <ele>273.4</ele>
        <time>2022-09-08T12:41:19Z</time>
      </trkpt>
      <trkpt lat="43.16905" lon="-0.57065">
        <ele>273.6</ele>
        <time>2022-09-08T12:41:24Z</time>
      </trkpt>
      <trkpt lat="43.1691" lon="-0.57084">
        <ele>273.6</ele>
        <time>2022-09-08T12:41:29Z</time>
      </trkpt>
      <trkpt lat="43.16922" lon="-0.57108">
        <ele>274.2</ele>
        <time>2022-09-08T12:41:36Z</time>
      </trkpt>
      <trkpt lat="43.16933" lon="-0.57133">
        <ele>273.8</ele>
        <time>2022-09-08T12:41:43Z</time>
      </trkpt>
      <trkpt lat="43.16944" lon="-0.57156">
        <ele>273.6</ele>
        <time>2022-09-08T12:41:49Z</time>
      </trkpt>
      <trkpt lat="43.16957" lon="-0.57177">
        <ele>272.6</ele>
        <time>2022-09-08T12:41:55Z</time>
      </trkpt>
      <trkpt lat="43.1696" lon="-0.57181">
        <ele>272.4</ele>
        <time>2022-09-08T12:41:56Z</time>
      </trkpt>
      <trkpt lat="43.16969" lon="-0.57194">
        <ele>271.2</ele>
        <time>2022-09-08T12:42:00Z</time>
      </trkpt>
      <trkpt lat="43.16976" lon="-0.57199">
        <ele>270.6</ele>
        <time>2022-09-08T12:42:03Z</time>
      </trkpt>
      <trkpt lat="43.16981" lon="-0.572">
        <ele>270.4</ele>
        <time>2022-09-08T12:42:07Z</time>
      </trkpt>
      <trkpt lat="43.16981" lon="-0.572">
        <ele>270.4</ele>
        <time>2022-09-08T12:42:08Z</time>
      </trkpt>
      <trkpt lat="43.16981" lon="-0.57207">
        <ele>270.2</ele>
        <time>2022-09-08T12:42:59Z</time>
      </trkpt>
      <trkpt lat="43.16982" lon="-0.57213">
        <ele>269.6</ele>
        <time>2022-09-08T12:43:01Z</time>
      </trkpt>
      <trkpt lat="43.16983" lon="-0.57214">
        <ele>269.4</ele>
        <time>2022-09-08T12:43:02Z</time>
      </trkpt>
      <trkpt lat="43.16983" lon="-0.57221">
        <ele>269.2</ele>
        <time>2022-09-08T12:43:04Z</time>
      </trkpt>
      <trkpt lat="43.16984" lon="-0.57229">
        <ele>268.2</ele>
        <time>2022-09-08T12:43:06Z</time>
      </trkpt>
      <trkpt lat="43.16984" lon="-0.57233">
        <ele>268</ele>
        <time>2022-09-08T12:43:07Z</time>
      </trkpt>
      <trkpt lat="43.16983" lon="-0.57244">
        <ele>266.8</ele>
        <time>2022-09-08T12:43:11Z</time>
      </trkpt>
      <trkpt lat="43.16982" lon="-0.5725">
        <ele>265.6</ele>
        <time>2022-09-08T12:43:14Z</time>
      </trkpt>
      <trkpt lat="43.16982" lon="-0.57251">
        <ele>265.2</ele>
        <time>2022-09-08T12:43:16Z</time>
      </trkpt>
      <trkpt lat="43.16986" lon="-0.57264">
        <ele>262.8</ele>
        <time>2022-09-08T12:43:59Z</time>
      </trkpt>
      <trkpt lat="43.16984" lon="-0.57269">
        <ele>262</ele>
        <time>2022-09-08T12:44:01Z</time>
      </trkpt>
      <trkpt lat="43.16983" lon="-0.57272">
        <ele>261.6</ele>
        <time>2022-09-08T12:44:02Z</time>
      </trkpt>
      <trkpt lat="43.1698" lon="-0.57282">
        <ele>260.6</ele>
        <time>2022-09-08T12:44:06Z</time>
      </trkpt>
      <trkpt lat="43.16977" lon="-0.57287">
        <ele>259.8</ele>
        <time>2022-09-08T12:44:08Z</time>
      </trkpt>
      <trkpt lat="43.16977" lon="-0.57289">
        <ele>259.6</ele>
        <time>2022-09-08T12:44:09Z</time>
      </trkpt>
      <trkpt lat="43.16973" lon="-0.57298">
        <ele>258.4</ele>
        <time>2022-09-08T12:44:13Z</time>
      </trkpt>
      <trkpt lat="43.16967" lon="-0.5731">
        <ele>257.2</ele>
        <time>2022-09-08T12:44:17Z</time>
      </trkpt>
      <trkpt lat="43.16966" lon="-0.57313">
        <ele>257</ele>
        <time>2022-09-08T12:44:18Z</time>
      </trkpt>
      <trkpt lat="43.16962" lon="-0.57323">
        <ele>256</ele>
        <time>2022-09-08T12:44:22Z</time>
      </trkpt>
      <trkpt lat="43.16961" lon="-0.57327">
        <ele>255.6</ele>
        <time>2022-09-08T12:44:24Z</time>
      </trkpt>
      <trkpt lat="43.1696" lon="-0.57332">
        <ele>254.6</ele>
        <time>2022-09-08T12:44:26Z</time>
      </trkpt>
      <trkpt lat="43.16958" lon="-0.57337">
        <ele>254</ele>
        <time>2022-09-08T12:44:28Z</time>
      </trkpt>
      <trkpt lat="43.16957" lon="-0.57339">
        <ele>253.6</ele>
        <time>2022-09-08T12:44:29Z</time>
      </trkpt>
      <trkpt lat="43.16956" lon="-0.57341">
        <ele>253.2</ele>
        <time>2022-09-08T12:44:30Z</time>
      </trkpt>
      <trkpt lat="43.16953" lon="-0.57344">
        <ele>252.6</ele>
        <time>2022-09-08T12:44:32Z</time>
      </trkpt>
      <trkpt lat="43.16949" lon="-0.57349">
        <ele>251.6</ele>
        <time>2022-09-08T12:44:35Z</time>
      </trkpt>
      <trkpt lat="43.16945" lon="-0.57351">
        <ele>250.4</ele>
        <time>2022-09-08T12:44:37Z</time>
      </trkpt>
      <trkpt lat="43.1694" lon="-0.57354">
        <ele>249.2</ele>
        <time>2022-09-08T12:44:40Z</time>
      </trkpt>
      <trkpt lat="43.16937" lon="-0.57357">
        <ele>248.4</ele>
        <time>2022-09-08T12:44:42Z</time>
      </trkpt>
      <trkpt lat="43.16935" lon="-0.57358">
        <ele>248</ele>
        <time>2022-09-08T12:44:43Z</time>
      </trkpt>
      <trkpt lat="43.16934" lon="-0.5736">
        <ele>247.6</ele>
        <time>2022-09-08T12:44:44Z</time>
      </trkpt>
      <trkpt lat="43.16931" lon="-0.57363">
        <ele>246.6</ele>
        <time>2022-09-08T12:44:46Z</time>
      </trkpt>
      <trkpt lat="43.16927" lon="-0.57367">
        <ele>245.2</ele>
        <time>2022-09-08T12:44:49Z</time>
      </trkpt>
      <trkpt lat="43.16925" lon="-0.57368">
        <ele>244.6</ele>
        <time>2022-09-08T12:44:50Z</time>
      </trkpt>
      <trkpt lat="43.1692" lon="-0.57373">
        <ele>243.6</ele>
        <time>2022-09-08T12:44:52Z</time>
      </trkpt>
      <trkpt lat="43.16911" lon="-0.57379">
        <ele>242.4</ele>
        <time>2022-09-08T12:44:55Z</time>
      </trkpt>
      <trkpt lat="43.16899" lon="-0.57386">
        <ele>241</ele>
        <time>2022-09-08T12:44:58Z</time>
      </trkpt>
      <trkpt lat="43.16895" lon="-0.57386">
        <ele>240.6</ele>
        <time>2022-09-08T12:44:59Z</time>
      </trkpt>
      <trkpt lat="43.16887" lon="-0.57389">
        <ele>239.8</ele>
        <time>2022-09-08T12:45:01Z</time>
      </trkpt>
      <trkpt lat="43.16878" lon="-0.57391">
        <ele>238.4</ele>
        <time>2022-09-08T12:45:04Z</time>
      </trkpt>
      <trkpt lat="43.16865" lon="-0.57396">
        <ele>237.4</ele>
        <time>2022-09-08T12:45:07Z</time>
      </trkpt>
      <trkpt lat="43.16861" lon="-0.57399">
        <ele>236.8</ele>
        <time>2022-09-08T12:45:08Z</time>
      </trkpt>
      <trkpt lat="43.16859" lon="-0.57401">
        <ele>236.2</ele>
        <time>2022-09-08T12:45:09Z</time>
      </trkpt>
      <trkpt lat="43.16848" lon="-0.57405">
        <ele>235</ele>
        <time>2022-09-08T12:45:13Z</time>
      </trkpt>
      <trkpt lat="43.16838" lon="-0.57408">
        <ele>234.2</ele>
        <time>2022-09-08T12:45:19Z</time>
      </trkpt>
      <trkpt lat="43.16837" lon="-0.57407">
        <ele>234</ele>
        <time>2022-09-08T12:45:20Z</time>
      </trkpt>
      <trkpt lat="43.16832" lon="-0.57404">
        <ele>233.4</ele>
        <time>2022-09-08T12:45:23Z</time>
      </trkpt>
      <trkpt lat="43.16828" lon="-0.574">
        <ele>232.8</ele>
        <time>2022-09-08T12:45:25Z</time>
      </trkpt>
      <trkpt lat="43.16825" lon="-0.57398">
        <ele>232.2</ele>
        <time>2022-09-08T12:45:27Z</time>
      </trkpt>
      <trkpt lat="43.16824" lon="-0.57396">
        <ele>231.8</ele>
        <time>2022-09-08T12:45:28Z</time>
      </trkpt>
      <trkpt lat="43.16823" lon="-0.57385">
        <ele>231.4</ele>
        <time>2022-09-08T12:45:31Z</time>
      </trkpt>
      <trkpt lat="43.16825" lon="-0.57372">
        <ele>230.8</ele>
        <time>2022-09-08T12:45:34Z</time>
      </trkpt>
      <trkpt lat="43.16828" lon="-0.57358">
        <ele>230.4</ele>
        <time>2022-09-08T12:45:38Z</time>
      </trkpt>
      <trkpt lat="43.16835" lon="-0.57344">
        <ele>230.2</ele>
        <time>2022-09-08T12:45:43Z</time>
      </trkpt>
      <trkpt lat="43.16844" lon="-0.57328">
        <ele>230.4</ele>
        <time>2022-09-08T12:45:49Z</time>
      </trkpt>
      <trkpt lat="43.16853" lon="-0.57314">
        <ele>230.2</ele>
        <time>2022-09-08T12:45:54Z</time>
      </trkpt>
      <trkpt lat="43.16851" lon="-0.5731">
        <ele>230</ele>
        <time>2022-09-08T12:45:55Z</time>
      </trkpt>
      <trkpt lat="43.16848" lon="-0.573">
        <ele>230.4</ele>
        <time>2022-09-08T12:45:59Z</time>
      </trkpt>
      <trkpt lat="43.16842" lon="-0.57294">
        <ele>230</ele>
        <time>2022-09-08T12:46:03Z</time>
      </trkpt>
      <trkpt lat="43.16836" lon="-0.57292">
        <ele>230.4</ele>
        <time>2022-09-08T12:46:05Z</time>
      </trkpt>
      <trkpt lat="43.16818" lon="-0.57288">
        <ele>231.2</ele>
        <time>2022-09-08T12:46:11Z</time>
      </trkpt>
      <trkpt lat="43.16797" lon="-0.57284">
        <ele>230.4</ele>
        <time>2022-09-08T12:46:18Z</time>
      </trkpt>
      <trkpt lat="43.16788" lon="-0.57282">
        <ele>230.6</ele>
        <time>2022-09-08T12:46:22Z</time>
      </trkpt>
      <trkpt lat="43.16777" lon="-0.57277">
        <ele>230.8</ele>
        <time>2022-09-08T12:49:20Z</time>
      </trkpt>
      <trkpt lat="43.16766" lon="-0.5728">
        <ele>231</ele>
        <time>2022-09-08T12:49:26Z</time>
      </trkpt>
      <trkpt lat="43.16761" lon="-0.57292">
        <ele>231.2</ele>
        <time>2022-09-08T12:49:30Z</time>
      </trkpt>
      <trkpt lat="43.16759" lon="-0.57313">
        <ele>231</ele>
        <time>2022-09-08T12:49:36Z</time>
      </trkpt>
      <trkpt lat="43.16758" lon="-0.57342">
        <ele>230</ele>
        <time>2022-09-08T12:49:41Z</time>
      </trkpt>
      <trkpt lat="43.16759" lon="-0.57356">
        <ele>229.6</ele>
        <time>2022-09-08T12:49:43Z</time>
      </trkpt>
      <trkpt lat="43.16758" lon="-0.57376">
        <ele>229.2</ele>
        <time>2022-09-08T12:49:46Z</time>
      </trkpt>
      <trkpt lat="43.16759" lon="-0.57382">
        <ele>229.2</ele>
        <time>2022-09-08T12:49:47Z</time>
      </trkpt>
      <trkpt lat="43.16763" lon="-0.57415">
        <ele>228.8</ele>
        <time>2022-09-08T12:49:52Z</time>
      </trkpt>
      <trkpt lat="43.16763" lon="-0.5743">
        <ele>228.6</ele>
        <time>2022-09-08T12:49:55Z</time>
      </trkpt>
      <trkpt lat="43.16763" lon="-0.57436">
        <ele>228.6</ele>
        <time>2022-09-08T12:49:56Z</time>
      </trkpt>
      <trkpt lat="43.16765" lon="-0.57472">
        <ele>228.6</ele>
        <time>2022-09-08T12:50:03Z</time>
      </trkpt>
      <trkpt lat="43.16767" lon="-0.57494">
        <ele>228.2</ele>
        <time>2022-09-08T12:50:07Z</time>
      </trkpt>
      <trkpt lat="43.16773" lon="-0.57526">
        <ele>228</ele>
        <time>2022-09-08T12:50:13Z</time>
      </trkpt>
      <trkpt lat="43.16779" lon="-0.57554">
        <ele>229.4</ele>
        <time>2022-09-08T12:50:20Z</time>
      </trkpt>
      <trkpt lat="43.1678" lon="-0.57558">
        <ele>229.8</ele>
        <time>2022-09-08T12:50:22Z</time>
      </trkpt>
      <trkpt lat="43.16781" lon="-0.57565">
        <ele>231</ele>
        <time>2022-09-08T12:50:25Z</time>
      </trkpt>
      <trkpt lat="43.16785" lon="-0.57578">
        <ele>232</ele>
        <time>2022-09-08T12:50:30Z</time>
      </trkpt>
      <trkpt lat="43.16787" lon="-0.5758">
        <ele>232.4</ele>
        <time>2022-09-08T12:50:31Z</time>
      </trkpt>
      <trkpt lat="43.16791" lon="-0.57588">
        <ele>233.2</ele>
        <time>2022-09-08T12:50:35Z</time>
      </trkpt>
      <trkpt lat="43.16792" lon="-0.57592">
        <ele>233.6</ele>
        <time>2022-09-08T12:50:37Z</time>
      </trkpt>
      <trkpt lat="43.16796" lon="-0.57602">
        <ele>234.4</ele>
        <time>2022-09-08T12:50:41Z</time>
      </trkpt>
      <trkpt lat="43.16799" lon="-0.57609">
        <ele>234.6</ele>
        <time>2022-09-08T12:50:44Z</time>
      </trkpt>
      <trkpt lat="43.16801" lon="-0.57613">
        <ele>234.8</ele>
        <time>2022-09-08T12:50:46Z</time>
      </trkpt>
      <trkpt lat="43.16804" lon="-0.5762">
        <ele>235.2</ele>
        <time>2022-09-08T12:50:49Z</time>
      </trkpt>
      <trkpt lat="43.16807" lon="-0.57624">
        <ele>235.4</ele>
        <time>2022-09-08T12:50:51Z</time>
      </trkpt>
      <trkpt lat="43.16812" lon="-0.5763">
        <ele>235.6</ele>
        <time>2022-09-08T12:50:54Z</time>
      </trkpt>
      <trkpt lat="43.16815" lon="-0.57634">
        <ele>235.6</ele>
        <time>2022-09-08T12:50:56Z</time>
      </trkpt>
      <trkpt lat="43.16824" lon="-0.57643">
        <ele>236</ele>
        <time>2022-09-08T12:51:02Z</time>
      </trkpt>
      <trkpt lat="43.16833" lon="-0.57648">
        <ele>235.8</ele>
        <time>2022-09-08T12:51:07Z</time>
      </trkpt>
      <trkpt lat="43.16838" lon="-0.5765">
        <ele>235.8</ele>
        <time>2022-09-08T12:51:10Z</time>
      </trkpt>
      <trkpt lat="43.16841" lon="-0.57652">
        <ele>235.8</ele>
        <time>2022-09-08T12:51:12Z</time>
      </trkpt>
      <trkpt lat="43.16858" lon="-0.57661">
        <ele>235.6</ele>
        <time>2022-09-08T12:51:18Z</time>
      </trkpt>
      <trkpt lat="43.16877" lon="-0.57671">
        <ele>234.8</ele>
        <time>2022-09-08T12:51:23Z</time>
      </trkpt>
      <trkpt lat="43.16894" lon="-0.5767">
        <ele>234.2</ele>
        <time>2022-09-08T12:51:26Z</time>
      </trkpt>
      <trkpt lat="43.16899" lon="-0.57669">
        <ele>233.8</ele>
        <time>2022-09-08T12:51:27Z</time>
      </trkpt>
      <trkpt lat="43.16905" lon="-0.57666">
        <ele>233.4</ele>
        <time>2022-09-08T12:51:28Z</time>
      </trkpt>
      <trkpt lat="43.16917" lon="-0.57666">
        <ele>233</ele>
        <time>2022-09-08T12:51:30Z</time>
      </trkpt>
      <trkpt lat="43.16922" lon="-0.57666">
        <ele>233</ele>
        <time>2022-09-08T12:51:31Z</time>
      </trkpt>
      <trkpt lat="43.16943" lon="-0.57668">
        <ele>232</ele>
        <time>2022-09-08T12:51:35Z</time>
      </trkpt>
      <trkpt lat="43.16954" lon="-0.5767">
        <ele>231.6</ele>
        <time>2022-09-08T12:51:37Z</time>
      </trkpt>
      <trkpt lat="43.1696" lon="-0.5767">
        <ele>231.4</ele>
        <time>2022-09-08T12:51:38Z</time>
      </trkpt>
      <trkpt lat="43.16973" lon="-0.5767">
        <ele>231.2</ele>
        <time>2022-09-08T12:51:40Z</time>
      </trkpt>
      <trkpt lat="43.16983" lon="-0.57671">
        <ele>231</ele>
        <time>2022-09-08T12:51:42Z</time>
      </trkpt>
      <trkpt lat="43.16988" lon="-0.57672">
        <ele>230.8</ele>
        <time>2022-09-08T12:51:43Z</time>
      </trkpt>
      <trkpt lat="43.17003" lon="-0.57674">
        <ele>230.4</ele>
        <time>2022-09-08T12:51:47Z</time>
      </trkpt>
      <trkpt lat="43.17027" lon="-0.57673">
        <ele>231</ele>
        <time>2022-09-08T12:51:52Z</time>
      </trkpt>
      <trkpt lat="43.17047" lon="-0.57671">
        <ele>231.6</ele>
        <time>2022-09-08T12:51:57Z</time>
      </trkpt>
      <trkpt lat="43.17054" lon="-0.5767">
        <ele>232.2</ele>
        <time>2022-09-08T12:51:59Z</time>
      </trkpt>
      <trkpt lat="43.17069" lon="-0.57667">
        <ele>232.2</ele>
        <time>2022-09-08T12:52:03Z</time>
      </trkpt>
      <trkpt lat="43.17095" lon="-0.57663">
        <ele>232.8</ele>
        <time>2022-09-08T12:52:09Z</time>
      </trkpt>
      <trkpt lat="43.17104" lon="-0.57661">
        <ele>233.4</ele>
        <time>2022-09-08T12:52:12Z</time>
      </trkpt>
      <trkpt lat="43.17111" lon="-0.57661">
        <ele>233.8</ele>
        <time>2022-09-08T12:52:14Z</time>
      </trkpt>
      <trkpt lat="43.17126" lon="-0.57663">
        <ele>233.6</ele>
        <time>2022-09-08T12:52:19Z</time>
      </trkpt>
      <trkpt lat="43.17144" lon="-0.57673">
        <ele>232.8</ele>
        <time>2022-09-08T12:52:23Z</time>
      </trkpt>
      <trkpt lat="43.17149" lon="-0.57676">
        <ele>232.4</ele>
        <time>2022-09-08T12:52:24Z</time>
      </trkpt>
      <trkpt lat="43.17153" lon="-0.57678">
        <ele>232.4</ele>
        <time>2022-09-08T12:52:25Z</time>
      </trkpt>
      <trkpt lat="43.17165" lon="-0.57685">
        <ele>232.2</ele>
        <time>2022-09-08T12:52:28Z</time>
      </trkpt>
      <trkpt lat="43.1717" lon="-0.57686">
        <ele>232.2</ele>
        <time>2022-09-08T12:52:29Z</time>
      </trkpt>
      <trkpt lat="43.17188" lon="-0.57696">
        <ele>232.4</ele>
        <time>2022-09-08T12:52:34Z</time>
      </trkpt>
      <trkpt lat="43.172" lon="-0.57712">
        <ele>233</ele>
        <time>2022-09-08T12:52:38Z</time>
      </trkpt>
      <trkpt lat="43.17212" lon="-0.57727">
        <ele>233.4</ele>
        <time>2022-09-08T12:52:42Z</time>
      </trkpt>
      <trkpt lat="43.17216" lon="-0.57736">
        <ele>233.4</ele>
        <time>2022-09-08T12:52:44Z</time>
      </trkpt>
      <trkpt lat="43.1723" lon="-0.57761">
        <ele>233.6</ele>
        <time>2022-09-08T12:52:49Z</time>
      </trkpt>
      <trkpt lat="43.1724" lon="-0.57782">
        <ele>234.2</ele>
        <time>2022-09-08T12:52:54Z</time>
      </trkpt>
      <trkpt lat="43.1725" lon="-0.57794">
        <ele>234.4</ele>
        <time>2022-09-08T12:52:58Z</time>
      </trkpt>
      <trkpt lat="43.17254" lon="-0.57801">
        <ele>234.4</ele>
        <time>2022-09-08T12:53:00Z</time>
      </trkpt>
      <trkpt lat="43.17265" lon="-0.57822">
        <ele>234.8</ele>
        <time>2022-09-08T12:53:06Z</time>
      </trkpt>
      <trkpt lat="43.17274" lon="-0.57842">
        <ele>235.4</ele>
        <time>2022-09-08T12:53:11Z</time>
      </trkpt>
      <trkpt lat="43.17285" lon="-0.57881">
        <ele>236.4</ele>
        <time>2022-09-08T12:53:19Z</time>
      </trkpt>
      <trkpt lat="43.17286" lon="-0.57886">
        <ele>236.4</ele>
        <time>2022-09-08T12:53:20Z</time>
      </trkpt>
      <trkpt lat="43.17294" lon="-0.57929">
        <ele>236</ele>
        <time>2022-09-08T12:53:28Z</time>
      </trkpt>
      <trkpt lat="43.17301" lon="-0.57962">
        <ele>236</ele>
        <time>2022-09-08T12:53:34Z</time>
      </trkpt>
      <trkpt lat="43.17309" lon="-0.58001">
        <ele>236.4</ele>
        <time>2022-09-08T12:53:41Z</time>
      </trkpt>
      <trkpt lat="43.1731" lon="-0.58006">
        <ele>236.4</ele>
        <time>2022-09-08T12:53:42Z</time>
      </trkpt>
      <trkpt lat="43.17312" lon="-0.58023">
        <ele>236.8</ele>
        <time>2022-09-08T12:53:46Z</time>
      </trkpt>
      <trkpt lat="43.17319" lon="-0.58049">
        <ele>236.6</ele>
        <time>2022-09-08T12:53:52Z</time>
      </trkpt>
      <trkpt lat="43.17327" lon="-0.58099">
        <ele>235.6</ele>
        <time>2022-09-08T12:54:01Z</time>
      </trkpt>
      <trkpt lat="43.17331" lon="-0.58125">
        <ele>235.4</ele>
        <time>2022-09-08T12:54:06Z</time>
      </trkpt>
      <trkpt lat="43.17335" lon="-0.58142">
        <ele>235.6</ele>
        <time>2022-09-08T12:54:11Z</time>
      </trkpt>
      <trkpt lat="43.17336" lon="-0.5815">
        <ele>235.4</ele>
        <time>2022-09-08T12:54:13Z</time>
      </trkpt>
      <trkpt lat="43.1734" lon="-0.58167">
        <ele>235.2</ele>
        <time>2022-09-08T12:55:52Z</time>
      </trkpt>
      <trkpt lat="43.17342" lon="-0.58173">
        <ele>235</ele>
        <time>2022-09-08T12:55:54Z</time>
      </trkpt>
      <trkpt lat="43.17349" lon="-0.58195">
        <ele>234.2</ele>
        <time>2022-09-08T12:56:00Z</time>
      </trkpt>
      <trkpt lat="43.17355" lon="-0.58211">
        <ele>233.2</ele>
        <time>2022-09-08T12:56:04Z</time>
      </trkpt>
      <trkpt lat="43.17357" lon="-0.58215">
        <ele>233</ele>
        <time>2022-09-08T12:56:05Z</time>
      </trkpt>
      <trkpt lat="43.17362" lon="-0.58228">
        <ele>232.2</ele>
        <time>2022-09-08T12:56:09Z</time>
      </trkpt>
      <trkpt lat="43.17364" lon="-0.58234">
        <ele>231.6</ele>
        <time>2022-09-08T12:56:11Z</time>
      </trkpt>
      <trkpt lat="43.17366" lon="-0.58239">
        <ele>231</ele>
        <time>2022-09-08T12:56:15Z</time>
      </trkpt>
      <trkpt lat="43.17369" lon="-0.58256">
        <ele>230.6</ele>
        <time>2022-09-08T12:56:51Z</time>
      </trkpt>
      <trkpt lat="43.1737" lon="-0.58264">
        <ele>230.4</ele>
        <time>2022-09-08T12:56:53Z</time>
      </trkpt>
      <trkpt lat="43.17376" lon="-0.58293">
        <ele>230.6</ele>
        <time>2022-09-08T12:56:59Z</time>
      </trkpt>
      <trkpt lat="43.17386" lon="-0.58327">
        <ele>230.4</ele>
        <time>2022-09-08T12:57:06Z</time>
      </trkpt>
      <trkpt lat="43.17395" lon="-0.58363">
        <ele>230.2</ele>
        <time>2022-09-08T12:57:13Z</time>
      </trkpt>
      <trkpt lat="43.17399" lon="-0.58379">
        <ele>230</ele>
        <time>2022-09-08T12:57:16Z</time>
      </trkpt>
      <trkpt lat="43.17403" lon="-0.58392">
        <ele>230</ele>
        <time>2022-09-08T12:57:19Z</time>
      </trkpt>
      <trkpt lat="43.17409" lon="-0.58416">
        <ele>230.2</ele>
        <time>2022-09-08T12:57:24Z</time>
      </trkpt>
      <trkpt lat="43.17417" lon="-0.58442">
        <ele>230.4</ele>
        <time>2022-09-08T12:57:30Z</time>
      </trkpt>
      <trkpt lat="43.17426" lon="-0.58469">
        <ele>230</ele>
        <time>2022-09-08T12:57:36Z</time>
      </trkpt>
      <trkpt lat="43.1743" lon="-0.58496">
        <ele>229.6</ele>
        <time>2022-09-08T12:57:41Z</time>
      </trkpt>
      <trkpt lat="43.17429" lon="-0.58529">
        <ele>229.4</ele>
        <time>2022-09-08T12:57:46Z</time>
      </trkpt>
      <trkpt lat="43.17431" lon="-0.58564">
        <ele>231.2</ele>
        <time>2022-09-08T12:57:52Z</time>
      </trkpt>
      <trkpt lat="43.17431" lon="-0.58568">
        <ele>231.4</ele>
        <time>2022-09-08T12:57:53Z</time>
      </trkpt>
      <trkpt lat="43.17432" lon="-0.58591">
        <ele>232.2</ele>
        <time>2022-09-08T12:57:58Z</time>
      </trkpt>
      <trkpt lat="43.17432" lon="-0.58597">
        <ele>232.2</ele>
        <time>2022-09-08T12:57:59Z</time>
      </trkpt>
      <trkpt lat="43.17431" lon="-0.58636">
        <ele>231.6</ele>
        <time>2022-09-08T12:58:05Z</time>
      </trkpt>
      <trkpt lat="43.17429" lon="-0.5865">
        <ele>231.4</ele>
        <time>2022-09-08T12:58:07Z</time>
      </trkpt>
      <trkpt lat="43.17428" lon="-0.5867">
        <ele>231</ele>
        <time>2022-09-08T12:58:10Z</time>
      </trkpt>
      <trkpt lat="43.17428" lon="-0.58684">
        <ele>230.8</ele>
        <time>2022-09-08T12:58:12Z</time>
      </trkpt>
      <trkpt lat="43.17429" lon="-0.58727">
        <ele>230.2</ele>
        <time>2022-09-08T12:58:18Z</time>
      </trkpt>
      <trkpt lat="43.1743" lon="-0.58748">
        <ele>230</ele>
        <time>2022-09-08T12:58:21Z</time>
      </trkpt>
      <trkpt lat="43.17432" lon="-0.58769">
        <ele>230</ele>
        <time>2022-09-08T12:58:24Z</time>
      </trkpt>
      <trkpt lat="43.17433" lon="-0.58788">
        <ele>229.6</ele>
        <time>2022-09-08T12:58:27Z</time>
      </trkpt>
      <trkpt lat="43.17432" lon="-0.58802">
        <ele>229.4</ele>
        <time>2022-09-08T12:58:29Z</time>
      </trkpt>
      <trkpt lat="43.17433" lon="-0.58815">
        <ele>229.6</ele>
        <time>2022-09-08T12:58:31Z</time>
      </trkpt>
      <trkpt lat="43.17432" lon="-0.58835">
        <ele>230</ele>
        <time>2022-09-08T12:58:34Z</time>
      </trkpt>
      <trkpt lat="43.17431" lon="-0.5885">
        <ele>231.2</ele>
        <time>2022-09-08T12:58:38Z</time>
      </trkpt>
      <trkpt lat="43.1743" lon="-0.58852">
        <ele>231.4</ele>
        <time>2022-09-08T12:58:39Z</time>
      </trkpt>
      <trkpt lat="43.17429" lon="-0.58859">
        <ele>232</ele>
        <time>2022-09-08T12:58:42Z</time>
      </trkpt>
      <trkpt lat="43.17428" lon="-0.58866">
        <ele>232.4</ele>
        <time>2022-09-08T12:58:44Z</time>
      </trkpt>
      <trkpt lat="43.17427" lon="-0.58869">
        <ele>232.6</ele>
        <time>2022-09-08T12:58:45Z</time>
      </trkpt>
      <trkpt lat="43.17425" lon="-0.58885">
        <ele>233.8</ele>
        <time>2022-09-08T12:58:50Z</time>
      </trkpt>
      <trkpt lat="43.17426" lon="-0.58911">
        <ele>235</ele>
        <time>2022-09-08T12:58:59Z</time>
      </trkpt>
      <trkpt lat="43.1743" lon="-0.5892">
        <ele>235.6</ele>
        <time>2022-09-08T12:59:04Z</time>
      </trkpt>
      <trkpt lat="43.17432" lon="-0.5893">
        <ele>236</ele>
        <time>2022-09-08T12:59:08Z</time>
      </trkpt>
      <trkpt lat="43.17432" lon="-0.58936">
        <ele>236.2</ele>
        <time>2022-09-08T12:59:10Z</time>
      </trkpt>
      <trkpt lat="43.17435" lon="-0.58951">
        <ele>237</ele>
        <time>2022-09-08T12:59:16Z</time>
      </trkpt>
      <trkpt lat="43.17436" lon="-0.58957">
        <ele>237</ele>
        <time>2022-09-08T12:59:18Z</time>
      </trkpt>
      <trkpt lat="43.17439" lon="-0.58973">
        <ele>237.8</ele>
        <time>2022-09-08T12:59:23Z</time>
      </trkpt>
      <trkpt lat="43.1744" lon="-0.58975">
        <ele>238.2</ele>
        <time>2022-09-08T12:59:24Z</time>
      </trkpt>
      <trkpt lat="43.17444" lon="-0.58987">
        <ele>238.8</ele>
        <time>2022-09-08T12:59:29Z</time>
      </trkpt>
      <trkpt lat="43.17445" lon="-0.58993">
        <ele>239.2</ele>
        <time>2022-09-08T12:59:31Z</time>
      </trkpt>
      <trkpt lat="43.17447" lon="-0.59004">
        <ele>240</ele>
        <time>2022-09-08T12:59:35Z</time>
      </trkpt>
      <trkpt lat="43.17448" lon="-0.59011">
        <ele>240.4</ele>
        <time>2022-09-08T12:59:38Z</time>
      </trkpt>
      <trkpt lat="43.1745" lon="-0.59018">
        <ele>241</ele>
        <time>2022-09-08T12:59:42Z</time>
      </trkpt>
      <trkpt lat="43.17453" lon="-0.59034">
        <ele>241.4</ele>
        <time>2022-09-08T12:59:49Z</time>
      </trkpt>
      <trkpt lat="43.17455" lon="-0.59051">
        <ele>241.2</ele>
        <time>2022-09-08T12:59:55Z</time>
      </trkpt>
      <trkpt lat="43.17458" lon="-0.59076">
        <ele>240.6</ele>
        <time>2022-09-08T13:00:00Z</time>
      </trkpt>
      <trkpt lat="43.17465" lon="-0.59112">
        <ele>239.8</ele>
        <time>2022-09-08T13:00:07Z</time>
      </trkpt>
      <trkpt lat="43.17469" lon="-0.59129">
        <ele>239.4</ele>
        <time>2022-09-08T13:00:10Z</time>
      </trkpt>
      <trkpt lat="43.17472" lon="-0.59143">
        <ele>239.2</ele>
        <time>2022-09-08T13:00:12Z</time>
      </trkpt>
      <trkpt lat="43.17474" lon="-0.5915">
        <ele>239.2</ele>
        <time>2022-09-08T13:00:13Z</time>
      </trkpt>
      <trkpt lat="43.17484" lon="-0.59176">
        <ele>239.2</ele>
        <time>2022-09-08T13:00:17Z</time>
      </trkpt>
      <trkpt lat="43.17494" lon="-0.59186">
        <ele>239.6</ele>
        <time>2022-09-08T13:00:20Z</time>
      </trkpt>
      <trkpt lat="43.17501" lon="-0.59191">
        <ele>240</ele>
        <time>2022-09-08T13:00:22Z</time>
      </trkpt>
      <trkpt lat="43.1751" lon="-0.59196">
        <ele>240.6</ele>
        <time>2022-09-08T13:00:26Z</time>
      </trkpt>
      <trkpt lat="43.17512" lon="-0.59197">
        <ele>240.8</ele>
        <time>2022-09-08T13:00:27Z</time>
      </trkpt>
      <trkpt lat="43.17519" lon="-0.59201">
        <ele>241.8</ele>
        <time>2022-09-08T13:00:31Z</time>
      </trkpt>
      <trkpt lat="43.17524" lon="-0.59205">
        <ele>242</ele>
        <time>2022-09-08T13:00:33Z</time>
      </trkpt>
      <trkpt lat="43.17533" lon="-0.59212">
        <ele>242.8</ele>
        <time>2022-09-08T13:00:37Z</time>
      </trkpt>
      <trkpt lat="43.17537" lon="-0.59216">
        <ele>243.6</ele>
        <time>2022-09-08T13:00:39Z</time>
      </trkpt>
      <trkpt lat="43.17542" lon="-0.59221">
        <ele>244</ele>
        <time>2022-09-08T13:00:42Z</time>
      </trkpt>
      <trkpt lat="43.17546" lon="-0.59226">
        <ele>244.6</ele>
        <time>2022-09-08T13:00:45Z</time>
      </trkpt>
      <trkpt lat="43.17549" lon="-0.59229">
        <ele>245</ele>
        <time>2022-09-08T13:00:47Z</time>
      </trkpt>
      <trkpt lat="43.17555" lon="-0.59236">
        <ele>245.8</ele>
        <time>2022-09-08T13:00:51Z</time>
      </trkpt>
      <trkpt lat="43.17557" lon="-0.59238">
        <ele>246</ele>
        <time>2022-09-08T13:00:52Z</time>
      </trkpt>
      <trkpt lat="43.17565" lon="-0.59249">
        <ele>247.2</ele>
        <time>2022-09-08T13:00:58Z</time>
      </trkpt>
      <trkpt lat="43.17567" lon="-0.59252">
        <ele>247.4</ele>
        <time>2022-09-08T13:00:59Z</time>
      </trkpt>
      <trkpt lat="43.17573" lon="-0.59265">
        <ele>248.4</ele>
        <time>2022-09-08T13:01:05Z</time>
      </trkpt>
      <trkpt lat="43.17575" lon="-0.59269">
        <ele>248.6</ele>
        <time>2022-09-08T13:01:07Z</time>
      </trkpt>
      <trkpt lat="43.17578" lon="-0.59276">
        <ele>249.4</ele>
        <time>2022-09-08T13:01:11Z</time>
      </trkpt>
      <trkpt lat="43.17579" lon="-0.5928">
        <ele>249.6</ele>
        <time>2022-09-08T13:01:13Z</time>
      </trkpt>
      <trkpt lat="43.17582" lon="-0.59292">
        <ele>250.4</ele>
        <time>2022-09-08T13:01:19Z</time>
      </trkpt>
      <trkpt lat="43.17583" lon="-0.59294">
        <ele>250.4</ele>
        <time>2022-09-08T13:01:20Z</time>
      </trkpt>
      <trkpt lat="43.17586" lon="-0.59305">
        <ele>251.4</ele>
        <time>2022-09-08T13:01:26Z</time>
      </trkpt>
      <trkpt lat="43.17587" lon="-0.59307">
        <ele>251.4</ele>
        <time>2022-09-08T13:01:27Z</time>
      </trkpt>
      <trkpt lat="43.17588" lon="-0.59317">
        <ele>252.4</ele>
        <time>2022-09-08T13:01:33Z</time>
      </trkpt>
      <trkpt lat="43.17588" lon="-0.59319">
        <ele>252.6</ele>
        <time>2022-09-08T13:01:34Z</time>
      </trkpt>
      <trkpt lat="43.17589" lon="-0.59325">
        <ele>253</ele>
        <time>2022-09-08T13:01:37Z</time>
      </trkpt>
      <trkpt lat="43.17591" lon="-0.59332">
        <ele>253.6</ele>
        <time>2022-09-08T13:01:41Z</time>
      </trkpt>
      <trkpt lat="43.17592" lon="-0.59336">
        <ele>254.2</ele>
        <time>2022-09-08T13:01:43Z</time>
      </trkpt>
      <trkpt lat="43.17595" lon="-0.59348">
        <ele>254.8</ele>
        <time>2022-09-08T13:01:48Z</time>
      </trkpt>
      <trkpt lat="43.17599" lon="-0.59366">
        <ele>256</ele>
        <time>2022-09-08T13:01:55Z</time>
      </trkpt>
      <trkpt lat="43.17603" lon="-0.59381">
        <ele>257.2</ele>
        <time>2022-09-08T13:02:03Z</time>
      </trkpt>
      <trkpt lat="43.17605" lon="-0.59393">
        <ele>258.4</ele>
        <time>2022-09-08T13:02:10Z</time>
      </trkpt>
      <trkpt lat="43.17606" lon="-0.59395">
        <ele>258.6</ele>
        <time>2022-09-08T13:02:11Z</time>
      </trkpt>
      <trkpt lat="43.17606" lon="-0.59401">
        <ele>259.2</ele>
        <time>2022-09-08T13:02:14Z</time>
      </trkpt>
      <trkpt lat="43.17607" lon="-0.59404">
        <ele>259.6</ele>
        <time>2022-09-08T13:02:16Z</time>
      </trkpt>
      <trkpt lat="43.17607" lon="-0.59407">
        <ele>259.8</ele>
        <time>2022-09-08T13:02:17Z</time>
      </trkpt>
      <trkpt lat="43.17607" lon="-0.59409">
        <ele>259.8</ele>
        <time>2022-09-08T13:02:18Z</time>
      </trkpt>
      <trkpt lat="43.17606" lon="-0.59413">
        <ele>260</ele>
        <time>2022-09-08T13:02:20Z</time>
      </trkpt>
      <trkpt lat="43.17605" lon="-0.59417">
        <ele>260.4</ele>
        <time>2022-09-08T13:02:22Z</time>
      </trkpt>
      <trkpt lat="43.17601" lon="-0.59425">
        <ele>259.8</ele>
        <time>2022-09-08T13:02:27Z</time>
      </trkpt>
      <trkpt lat="43.17599" lon="-0.59427">
        <ele>259.6</ele>
        <time>2022-09-08T13:02:28Z</time>
      </trkpt>
      <trkpt lat="43.17591" lon="-0.59445">
        <ele>259</ele>
        <time>2022-09-08T13:02:32Z</time>
      </trkpt>
      <trkpt lat="43.17589" lon="-0.59469">
        <ele>258.6</ele>
        <time>2022-09-08T13:02:36Z</time>
      </trkpt>
      <trkpt lat="43.17595" lon="-0.59488">
        <ele>258.6</ele>
        <time>2022-09-08T13:02:40Z</time>
      </trkpt>
      <trkpt lat="43.17598" lon="-0.59492">
        <ele>258.6</ele>
        <time>2022-09-08T13:02:41Z</time>
      </trkpt>
      <trkpt lat="43.17604" lon="-0.59499">
        <ele>258.2</ele>
        <time>2022-09-08T13:02:43Z</time>
      </trkpt>
      <trkpt lat="43.17615" lon="-0.59508">
        <ele>258</ele>
        <time>2022-09-08T13:02:46Z</time>
      </trkpt>
      <trkpt lat="43.17631" lon="-0.59524">
        <ele>257.6</ele>
        <time>2022-09-08T13:02:51Z</time>
      </trkpt>
      <trkpt lat="43.1764" lon="-0.5953">
        <ele>257.4</ele>
        <time>2022-09-08T13:02:53Z</time>
      </trkpt>
      <trkpt lat="43.17654" lon="-0.5954">
        <ele>257</ele>
        <time>2022-09-08T13:02:57Z</time>
      </trkpt>
      <trkpt lat="43.17659" lon="-0.59543">
        <ele>256.6</ele>
        <time>2022-09-08T13:03:01Z</time>
      </trkpt>
      <trkpt lat="43.17659" lon="-0.59541">
        <ele>256.8</ele>
        <time>2022-09-08T13:03:08Z</time>
      </trkpt>
      <trkpt lat="43.17656" lon="-0.59541">
        <ele>256.8</ele>
        <time>2022-09-08T13:03:10Z</time>
      </trkpt>
      <trkpt lat="43.17656" lon="-0.5954">
        <ele>257</ele>
        <time>2022-09-08T13:03:58Z</time>
      </trkpt>
      <trkpt lat="43.17661" lon="-0.59543">
        <ele>256.8</ele>
        <time>2022-09-08T13:04:01Z</time>
      </trkpt>
      <trkpt lat="43.17676" lon="-0.59551">
        <ele>256.8</ele>
        <time>2022-09-08T13:04:06Z</time>
      </trkpt>
      <trkpt lat="43.17708" lon="-0.59567">
        <ele>257</ele>
        <time>2022-09-08T13:04:14Z</time>
      </trkpt>
      <trkpt lat="43.17735" lon="-0.59581">
        <ele>256.8</ele>
        <time>2022-09-08T13:04:21Z</time>
      </trkpt>
      <trkpt lat="43.1776" lon="-0.59601">
        <ele>257.4</ele>
        <time>2022-09-08T13:04:28Z</time>
      </trkpt>
      <trkpt lat="43.17781" lon="-0.59627">
        <ele>258.4</ele>
        <time>2022-09-08T13:04:35Z</time>
      </trkpt>
      <trkpt lat="43.17787" lon="-0.59634">
        <ele>258.6</ele>
        <time>2022-09-08T13:04:37Z</time>
      </trkpt>
      <trkpt lat="43.17809" lon="-0.59657">
        <ele>259.6</ele>
        <time>2022-09-08T13:04:45Z</time>
      </trkpt>
      <trkpt lat="43.17827" lon="-0.59675">
        <ele>260.8</ele>
        <time>2022-09-08T13:04:52Z</time>
      </trkpt>
      <trkpt lat="43.17829" lon="-0.59677">
        <ele>260.8</ele>
        <time>2022-09-08T13:04:53Z</time>
      </trkpt>
      <trkpt lat="43.17848" lon="-0.59689">
        <ele>261.8</ele>
        <time>2022-09-08T13:05:00Z</time>
      </trkpt>
      <trkpt lat="43.17851" lon="-0.59691">
        <ele>261.8</ele>
        <time>2022-09-08T13:05:01Z</time>
      </trkpt>
      <trkpt lat="43.17862" lon="-0.59699">
        <ele>262.4</ele>
        <time>2022-09-08T13:05:06Z</time>
      </trkpt>
      <trkpt lat="43.17867" lon="-0.59701">
        <ele>262.8</ele>
        <time>2022-09-08T13:05:08Z</time>
      </trkpt>
      <trkpt lat="43.17879" lon="-0.59708">
        <ele>263.8</ele>
        <time>2022-09-08T13:05:13Z</time>
      </trkpt>
      <trkpt lat="43.1789" lon="-0.59722">
        <ele>264.4</ele>
        <time>2022-09-08T13:05:20Z</time>
      </trkpt>
      <trkpt lat="43.179" lon="-0.59744">
        <ele>263.4</ele>
        <time>2022-09-08T13:05:26Z</time>
      </trkpt>
      <trkpt lat="43.17905" lon="-0.59756">
        <ele>262.8</ele>
        <time>2022-09-08T13:05:31Z</time>
      </trkpt>
      <trkpt lat="43.17908" lon="-0.59761">
        <ele>262.8</ele>
        <time>2022-09-08T13:05:47Z</time>
      </trkpt>
      <trkpt lat="43.17912" lon="-0.59764">
        <ele>263</ele>
        <time>2022-09-08T13:05:49Z</time>
      </trkpt>
      <trkpt lat="43.1792" lon="-0.59768">
        <ele>263.8</ele>
        <time>2022-09-08T13:05:54Z</time>
      </trkpt>
      <trkpt lat="43.17921" lon="-0.59769">
        <ele>264</ele>
        <time>2022-09-08T13:05:55Z</time>
      </trkpt>
      <trkpt lat="43.17932" lon="-0.5978">
        <ele>264.6</ele>
        <time>2022-09-08T13:06:02Z</time>
      </trkpt>
      <trkpt lat="43.17933" lon="-0.59782">
        <ele>265</ele>
        <time>2022-09-08T13:06:03Z</time>
      </trkpt>
      <trkpt lat="43.17941" lon="-0.598">
        <ele>266</ele>
        <time>2022-09-08T13:06:10Z</time>
      </trkpt>
      <trkpt lat="43.17946" lon="-0.59823">
        <ele>267.2</ele>
        <time>2022-09-08T13:06:18Z</time>
      </trkpt>
      <trkpt lat="43.17948" lon="-0.59829">
        <ele>267.8</ele>
        <time>2022-09-08T13:06:20Z</time>
      </trkpt>
      <trkpt lat="43.17957" lon="-0.59844">
        <ele>268.6</ele>
        <time>2022-09-08T13:06:27Z</time>
      </trkpt>
      <trkpt lat="43.17967" lon="-0.59858">
        <ele>269.6</ele>
        <time>2022-09-08T13:06:34Z</time>
      </trkpt>
      <trkpt lat="43.1798" lon="-0.59866">
        <ele>270.8</ele>
        <time>2022-09-08T13:06:41Z</time>
      </trkpt>
      <trkpt lat="43.17982" lon="-0.59867">
        <ele>271</ele>
        <time>2022-09-08T13:06:42Z</time>
      </trkpt>
      <trkpt lat="43.17993" lon="-0.59869">
        <ele>271.8</ele>
        <time>2022-09-08T13:06:48Z</time>
      </trkpt>
      <trkpt lat="43.18" lon="-0.5987">
        <ele>272.8</ele>
        <time>2022-09-08T13:06:52Z</time>
      </trkpt>
      <trkpt lat="43.18004" lon="-0.5987">
        <ele>273.2</ele>
        <time>2022-09-08T13:06:54Z</time>
      </trkpt>
      <trkpt lat="43.18014" lon="-0.59869">
        <ele>274</ele>
        <time>2022-09-08T13:06:59Z</time>
      </trkpt>
      <trkpt lat="43.18018" lon="-0.59868">
        <ele>274.4</ele>
        <time>2022-09-08T13:07:01Z</time>
      </trkpt>
      <trkpt lat="43.18029" lon="-0.59869">
        <ele>275</ele>
        <time>2022-09-08T13:07:07Z</time>
      </trkpt>
      <trkpt lat="43.18043" lon="-0.59869">
        <ele>275.8</ele>
        <time>2022-09-08T13:07:14Z</time>
      </trkpt>
      <trkpt lat="43.18047" lon="-0.59869">
        <ele>276.2</ele>
        <time>2022-09-08T13:07:16Z</time>
      </trkpt>
      <trkpt lat="43.1806" lon="-0.59868">
        <ele>276.8</ele>
        <time>2022-09-08T13:07:22Z</time>
      </trkpt>
      <trkpt lat="43.18066" lon="-0.59867">
        <ele>277.2</ele>
        <time>2022-09-08T13:07:25Z</time>
      </trkpt>
      <trkpt lat="43.18072" lon="-0.59866">
        <ele>277.6</ele>
        <time>2022-09-08T13:07:28Z</time>
      </trkpt>
      <trkpt lat="43.18083" lon="-0.59863">
        <ele>278.4</ele>
        <time>2022-09-08T13:07:33Z</time>
      </trkpt>
      <trkpt lat="43.18101" lon="-0.59858">
        <ele>279.2</ele>
        <time>2022-09-08T13:07:41Z</time>
      </trkpt>
      <trkpt lat="43.18121" lon="-0.59855">
        <ele>278.8</ele>
        <time>2022-09-08T13:07:50Z</time>
      </trkpt>
      <trkpt lat="43.18138" lon="-0.59851">
        <ele>278.2</ele>
        <time>2022-09-08T13:07:56Z</time>
      </trkpt>
      <trkpt lat="43.18148" lon="-0.5985">
        <ele>277.8</ele>
        <time>2022-09-08T13:07:58Z</time>
      </trkpt>
      <trkpt lat="43.1816" lon="-0.59851">
        <ele>277.2</ele>
        <time>2022-09-08T13:08:00Z</time>
      </trkpt>
      <trkpt lat="43.18176" lon="-0.59852">
        <ele>276</ele>
        <time>2022-09-08T13:08:02Z</time>
      </trkpt>
      <trkpt lat="43.18185" lon="-0.59853">
        <ele>274.4</ele>
        <time>2022-09-08T13:08:03Z</time>
      </trkpt>
      <trkpt lat="43.18194" lon="-0.59853">
        <ele>273.8</ele>
        <time>2022-09-08T13:08:04Z</time>
      </trkpt>
      <trkpt lat="43.18203" lon="-0.59855">
        <ele>273.4</ele>
        <time>2022-09-08T13:08:05Z</time>
      </trkpt>
      <trkpt lat="43.18223" lon="-0.59856">
        <ele>272.2</ele>
        <time>2022-09-08T13:08:07Z</time>
      </trkpt>
      <trkpt lat="43.18243" lon="-0.59858">
        <ele>271.6</ele>
        <time>2022-09-08T13:08:09Z</time>
      </trkpt>
      <trkpt lat="43.18262" lon="-0.59859">
        <ele>270.6</ele>
        <time>2022-09-08T13:08:11Z</time>
      </trkpt>
      <trkpt lat="43.18272" lon="-0.5986">
        <ele>270.2</ele>
        <time>2022-09-08T13:08:12Z</time>
      </trkpt>
      <trkpt lat="43.18281" lon="-0.59862">
        <ele>269.6</ele>
        <time>2022-09-08T13:08:13Z</time>
      </trkpt>
      <trkpt lat="43.1829" lon="-0.59865">
        <ele>269.2</ele>
        <time>2022-09-08T13:08:14Z</time>
      </trkpt>
      <trkpt lat="43.18307" lon="-0.5987">
        <ele>268.4</ele>
        <time>2022-09-08T13:08:16Z</time>
      </trkpt>
      <trkpt lat="43.18339" lon="-0.59879">
        <ele>268.4</ele>
        <time>2022-09-08T13:08:20Z</time>
      </trkpt>
      <trkpt lat="43.18388" lon="-0.59894">
        <ele>267.6</ele>
        <time>2022-09-08T13:08:27Z</time>
      </trkpt>
      <trkpt lat="43.18401" lon="-0.59899">
        <ele>267.4</ele>
        <time>2022-09-08T13:08:29Z</time>
      </trkpt>
      <trkpt lat="43.1843" lon="-0.5991">
        <ele>267.4</ele>
        <time>2022-09-08T13:08:34Z</time>
      </trkpt>
      <trkpt lat="43.1845" lon="-0.59929">
        <ele>267.4</ele>
        <time>2022-09-08T13:08:39Z</time>
      </trkpt>
      <trkpt lat="43.18471" lon="-0.59951">
        <ele>268.6</ele>
        <time>2022-09-08T13:08:46Z</time>
      </trkpt>
      <trkpt lat="43.18474" lon="-0.59954">
        <ele>268.8</ele>
        <time>2022-09-08T13:08:47Z</time>
      </trkpt>
      <trkpt lat="43.18485" lon="-0.59964">
        <ele>269.6</ele>
        <time>2022-09-08T13:08:51Z</time>
      </trkpt>
      <trkpt lat="43.1849" lon="-0.59968">
        <ele>269.8</ele>
        <time>2022-09-08T13:08:53Z</time>
      </trkpt>
      <trkpt lat="43.18505" lon="-0.59982">
        <ele>271</ele>
        <time>2022-09-08T13:08:59Z</time>
      </trkpt>
      <trkpt lat="43.1852" lon="-0.59997">
        <ele>271.2</ele>
        <time>2022-09-08T13:09:05Z</time>
      </trkpt>
      <trkpt lat="43.18528" lon="-0.60004">
        <ele>271.4</ele>
        <time>2022-09-08T13:09:08Z</time>
      </trkpt>
      <trkpt lat="43.18539" lon="-0.60017">
        <ele>271.6</ele>
        <time>2022-09-08T13:09:13Z</time>
      </trkpt>
      <trkpt lat="43.18544" lon="-0.60022">
        <ele>272</ele>
        <time>2022-09-08T13:09:15Z</time>
      </trkpt>
      <trkpt lat="43.18554" lon="-0.60034">
        <ele>272.4</ele>
        <time>2022-09-08T13:09:20Z</time>
      </trkpt>
      <trkpt lat="43.18567" lon="-0.60051">
        <ele>273</ele>
        <time>2022-09-08T13:09:27Z</time>
      </trkpt>
      <trkpt lat="43.18583" lon="-0.60071">
        <ele>272.6</ele>
        <time>2022-09-08T13:09:34Z</time>
      </trkpt>
      <trkpt lat="43.18598" lon="-0.60091">
        <ele>272</ele>
        <time>2022-09-08T13:09:39Z</time>
      </trkpt>
      <trkpt lat="43.18613" lon="-0.60108">
        <ele>271</ele>
        <time>2022-09-08T13:09:43Z</time>
      </trkpt>
      <trkpt lat="43.18618" lon="-0.60113">
        <ele>270.8</ele>
        <time>2022-09-08T13:09:44Z</time>
      </trkpt>
      <trkpt lat="43.18623" lon="-0.60118">
        <ele>270.4</ele>
        <time>2022-09-08T13:09:45Z</time>
      </trkpt>
      <trkpt lat="43.18633" lon="-0.60129">
        <ele>269.6</ele>
        <time>2022-09-08T13:09:47Z</time>
      </trkpt>
      <trkpt lat="43.18642" lon="-0.60142">
        <ele>268.4</ele>
        <time>2022-09-08T13:09:49Z</time>
      </trkpt>
      <trkpt lat="43.18651" lon="-0.60154">
        <ele>267.2</ele>
        <time>2022-09-08T13:09:51Z</time>
      </trkpt>
      <trkpt lat="43.18659" lon="-0.60163">
        <ele>265.8</ele>
        <time>2022-09-08T13:09:53Z</time>
      </trkpt>
      <trkpt lat="43.18662" lon="-0.60168">
        <ele>265.4</ele>
        <time>2022-09-08T13:09:54Z</time>
      </trkpt>
      <trkpt lat="43.18669" lon="-0.60176">
        <ele>264.6</ele>
        <time>2022-09-08T13:09:56Z</time>
      </trkpt>
      <trkpt lat="43.18678" lon="-0.60186">
        <ele>263.8</ele>
        <time>2022-09-08T13:09:59Z</time>
      </trkpt>
      <trkpt lat="43.18681" lon="-0.6019">
        <ele>263.4</ele>
        <time>2022-09-08T13:10:00Z</time>
      </trkpt>
      <trkpt lat="43.18684" lon="-0.60193">
        <ele>263.2</ele>
        <time>2022-09-08T13:10:01Z</time>
      </trkpt>
      <trkpt lat="43.18691" lon="-0.602">
        <ele>262.2</ele>
        <time>2022-09-08T13:10:03Z</time>
      </trkpt>
      <trkpt lat="43.18697" lon="-0.60208">
        <ele>261.4</ele>
        <time>2022-09-08T13:10:05Z</time>
      </trkpt>
      <trkpt lat="43.18701" lon="-0.60211">
        <ele>261</ele>
        <time>2022-09-08T13:10:06Z</time>
      </trkpt>
      <trkpt lat="43.18711" lon="-0.60221">
        <ele>260</ele>
        <time>2022-09-08T13:10:10Z</time>
      </trkpt>
      <trkpt lat="43.18716" lon="-0.60226">
        <ele>259.4</ele>
        <time>2022-09-08T13:10:12Z</time>
      </trkpt>
      <trkpt lat="43.18721" lon="-0.6023">
        <ele>258.8</ele>
        <time>2022-09-08T13:10:14Z</time>
      </trkpt>
      <trkpt lat="43.18723" lon="-0.60233">
        <ele>258.6</ele>
        <time>2022-09-08T13:10:15Z</time>
      </trkpt>
      <trkpt lat="43.18735" lon="-0.60245">
        <ele>257.6</ele>
        <time>2022-09-08T13:10:19Z</time>
      </trkpt>
      <trkpt lat="43.18743" lon="-0.60252">
        <ele>257</ele>
        <time>2022-09-08T13:10:21Z</time>
      </trkpt>
      <trkpt lat="43.18747" lon="-0.60256">
        <ele>256.8</ele>
        <time>2022-09-08T13:10:22Z</time>
      </trkpt>
      <trkpt lat="43.18751" lon="-0.60259">
        <ele>256.4</ele>
        <time>2022-09-08T13:10:23Z</time>
      </trkpt>
      <trkpt lat="43.18764" lon="-0.60276">
        <ele>255.4</ele>
        <time>2022-09-08T13:10:27Z</time>
      </trkpt>
      <trkpt lat="43.18771" lon="-0.60284">
        <ele>255.4</ele>
        <time>2022-09-08T13:10:29Z</time>
      </trkpt>
      <trkpt lat="43.18791" lon="-0.60307">
        <ele>254.8</ele>
        <time>2022-09-08T13:10:35Z</time>
      </trkpt>
      <trkpt lat="43.18802" lon="-0.6032">
        <ele>254.4</ele>
        <time>2022-09-08T13:10:38Z</time>
      </trkpt>
      <trkpt lat="43.1881" lon="-0.60327">
        <ele>254.4</ele>
        <time>2022-09-08T13:10:40Z</time>
      </trkpt>
      <trkpt lat="43.18822" lon="-0.60338">
        <ele>254.4</ele>
        <time>2022-09-08T13:10:43Z</time>
      </trkpt>
      <trkpt lat="43.18839" lon="-0.60357">
        <ele>253.2</ele>
        <time>2022-09-08T13:10:48Z</time>
      </trkpt>
      <trkpt lat="43.18855" lon="-0.60374">
        <ele>252.8</ele>
        <time>2022-09-08T13:10:55Z</time>
      </trkpt>
      <trkpt lat="43.18863" lon="-0.60394">
        <ele>252.2</ele>
        <time>2022-09-08T13:11:01Z</time>
      </trkpt>
      <trkpt lat="43.18864" lon="-0.60397">
        <ele>252.2</ele>
        <time>2022-09-08T13:11:02Z</time>
      </trkpt>
      <trkpt lat="43.18868" lon="-0.60419">
        <ele>252.2</ele>
        <time>2022-09-08T13:11:08Z</time>
      </trkpt>
      <trkpt lat="43.18873" lon="-0.60439">
        <ele>252.2</ele>
        <time>2022-09-08T13:11:15Z</time>
      </trkpt>
      <trkpt lat="43.18872" lon="-0.60441">
        <ele>252.4</ele>
        <time>2022-09-08T13:11:16Z</time>
      </trkpt>
      <trkpt lat="43.18869" lon="-0.60444">
        <ele>252.2</ele>
        <time>2022-09-08T13:11:19Z</time>
      </trkpt>
      <trkpt lat="43.1886" lon="-0.60441">
        <ele>251.8</ele>
        <time>2022-09-08T13:13:42Z</time>
      </trkpt>
      <trkpt lat="43.18858" lon="-0.6044">
        <ele>251.8</ele>
        <time>2022-09-08T13:13:43Z</time>
      </trkpt>
      <trkpt lat="43.18852" lon="-0.60433">
        <ele>251.4</ele>
        <time>2022-09-08T13:13:46Z</time>
      </trkpt>
      <trkpt lat="43.18847" lon="-0.60424">
        <ele>251.2</ele>
        <time>2022-09-08T13:13:49Z</time>
      </trkpt>
      <trkpt lat="43.18842" lon="-0.60412">
        <ele>251.2</ele>
        <time>2022-09-08T13:13:54Z</time>
      </trkpt>
      <trkpt lat="43.18842" lon="-0.6041">
        <ele>251</ele>
        <time>2022-09-08T13:13:55Z</time>
      </trkpt>
      <trkpt lat="43.1884" lon="-0.60407">
        <ele>251</ele>
        <time>2022-09-08T13:13:57Z</time>
      </trkpt>
      <trkpt lat="43.18836" lon="-0.60413">
        <ele>250.8</ele>
        <time>2022-09-08T13:14:07Z</time>
      </trkpt>
      <trkpt lat="43.18832" lon="-0.6042">
        <ele>250.6</ele>
        <time>2022-09-08T13:14:10Z</time>
      </trkpt>
      <trkpt lat="43.18833" lon="-0.60425">
        <ele>250.2</ele>
        <time>2022-09-08T13:14:12Z</time>
      </trkpt>
      <trkpt lat="43.1883" lon="-0.60437">
        <ele>250.2</ele>
        <time>2022-09-08T13:14:17Z</time>
      </trkpt>
      <trkpt lat="43.18828" lon="-0.60439">
        <ele>250.2</ele>
        <time>2022-09-08T13:14:18Z</time>
      </trkpt>
      <trkpt lat="43.18825" lon="-0.60443">
        <ele>249.2</ele>
        <time>2022-09-08T13:14:21Z</time>
      </trkpt>
      <trkpt lat="43.18824" lon="-0.60444">
        <ele>249.2</ele>
        <time>2022-09-08T13:14:22Z</time>
      </trkpt>
      <trkpt lat="43.18823" lon="-0.60447">
        <ele>249.2</ele>
        <time>2022-09-08T13:14:24Z</time>
      </trkpt>
      <trkpt lat="43.18824" lon="-0.60449">
        <ele>249</ele>
        <time>2022-09-08T13:14:25Z</time>
      </trkpt>
      <trkpt lat="43.18825" lon="-0.60455">
        <ele>249.2</ele>
        <time>2022-09-08T13:14:27Z</time>
      </trkpt>
      <trkpt lat="43.18826" lon="-0.60464">
        <ele>248.8</ele>
        <time>2022-09-08T13:14:30Z</time>
      </trkpt>
      <trkpt lat="43.18828" lon="-0.60474">
        <ele>248.6</ele>
        <time>2022-09-08T13:14:33Z</time>
      </trkpt>
      <trkpt lat="43.18831" lon="-0.60501">
        <ele>248.8</ele>
        <time>2022-09-08T13:14:40Z</time>
      </trkpt>
      <trkpt lat="43.18832" lon="-0.60516">
        <ele>248</ele>
        <time>2022-09-08T13:14:43Z</time>
      </trkpt>
      <trkpt lat="43.18833" lon="-0.60521">
        <ele>247.8</ele>
        <time>2022-09-08T13:14:44Z</time>
      </trkpt>
      <trkpt lat="43.18836" lon="-0.60541">
        <ele>247.8</ele>
        <time>2022-09-08T13:14:48Z</time>
      </trkpt>
      <trkpt lat="43.18831" lon="-0.60558">
        <ele>246</ele>
        <time>2022-09-08T13:14:51Z</time>
      </trkpt>
      <trkpt lat="43.18825" lon="-0.6057">
        <ele>245.4</ele>
        <time>2022-09-08T13:14:53Z</time>
      </trkpt>
      <trkpt lat="43.18822" lon="-0.60577">
        <ele>245</ele>
        <time>2022-09-08T13:14:54Z</time>
      </trkpt>
      <trkpt lat="43.18817" lon="-0.60588">
        <ele>244</ele>
        <time>2022-09-08T13:14:56Z</time>
      </trkpt>
      <trkpt lat="43.18812" lon="-0.60599">
        <ele>242.8</ele>
        <time>2022-09-08T13:14:58Z</time>
      </trkpt>
      <trkpt lat="43.18805" lon="-0.60618">
        <ele>241.6</ele>
        <time>2022-09-08T13:15:01Z</time>
      </trkpt>
      <trkpt lat="43.18801" lon="-0.60631">
        <ele>240</ele>
        <time>2022-09-08T13:15:03Z</time>
      </trkpt>
      <trkpt lat="43.18798" lon="-0.60644">
        <ele>238.8</ele>
        <time>2022-09-08T13:15:05Z</time>
      </trkpt>
      <trkpt lat="43.18795" lon="-0.60664">
        <ele>237.2</ele>
        <time>2022-09-08T13:15:08Z</time>
      </trkpt>
      <trkpt lat="43.18794" lon="-0.6067">
        <ele>236.4</ele>
        <time>2022-09-08T13:15:09Z</time>
      </trkpt>
      <trkpt lat="43.18793" lon="-0.60677">
        <ele>236</ele>
        <time>2022-09-08T13:15:10Z</time>
      </trkpt>
      <trkpt lat="43.1879" lon="-0.6069">
        <ele>235</ele>
        <time>2022-09-08T13:15:12Z</time>
      </trkpt>
      <trkpt lat="43.18788" lon="-0.60702">
        <ele>233.8</ele>
        <time>2022-09-08T13:15:14Z</time>
      </trkpt>
      <trkpt lat="43.18787" lon="-0.60715">
        <ele>232.2</ele>
        <time>2022-09-08T13:15:16Z</time>
      </trkpt>
      <trkpt lat="43.18787" lon="-0.60727">
        <ele>231.2</ele>
        <time>2022-09-08T13:15:18Z</time>
      </trkpt>
      <trkpt lat="43.18789" lon="-0.60734">
        <ele>230.6</ele>
        <time>2022-09-08T13:15:19Z</time>
      </trkpt>
      <trkpt lat="43.18793" lon="-0.60749">
        <ele>229.8</ele>
        <time>2022-09-08T13:15:21Z</time>
      </trkpt>
      <trkpt lat="43.188" lon="-0.60763">
        <ele>228.6</ele>
        <time>2022-09-08T13:15:23Z</time>
      </trkpt>
      <trkpt lat="43.18809" lon="-0.60784">
        <ele>227.6</ele>
        <time>2022-09-08T13:15:26Z</time>
      </trkpt>
      <trkpt lat="43.18813" lon="-0.60791">
        <ele>226.8</ele>
        <time>2022-09-08T13:15:27Z</time>
      </trkpt>
      <trkpt lat="43.18816" lon="-0.60798">
        <ele>225.8</ele>
        <time>2022-09-08T13:15:28Z</time>
      </trkpt>
      <trkpt lat="43.18818" lon="-0.60805">
        <ele>224.8</ele>
        <time>2022-09-08T13:15:29Z</time>
      </trkpt>
      <trkpt lat="43.1883" lon="-0.60832">
        <ele>223.4</ele>
        <time>2022-09-08T13:15:33Z</time>
      </trkpt>
      <trkpt lat="43.18836" lon="-0.60847">
        <ele>222</ele>
        <time>2022-09-08T13:15:35Z</time>
      </trkpt>
      <trkpt lat="43.18842" lon="-0.60862">
        <ele>220.6</ele>
        <time>2022-09-08T13:15:37Z</time>
      </trkpt>
      <trkpt lat="43.18844" lon="-0.60868">
        <ele>219.4</ele>
        <time>2022-09-08T13:15:38Z</time>
      </trkpt>
      <trkpt lat="43.18847" lon="-0.60875">
        <ele>218.6</ele>
        <time>2022-09-08T13:15:39Z</time>
      </trkpt>
      <trkpt lat="43.1885" lon="-0.60882">
        <ele>217.8</ele>
        <time>2022-09-08T13:15:40Z</time>
      </trkpt>
      <trkpt lat="43.18855" lon="-0.60894">
        <ele>216.6</ele>
        <time>2022-09-08T13:15:42Z</time>
      </trkpt>
      <trkpt lat="43.18862" lon="-0.60909">
        <ele>215.2</ele>
        <time>2022-09-08T13:15:45Z</time>
      </trkpt>
      <trkpt lat="43.18867" lon="-0.60921">
        <ele>214.2</ele>
        <time>2022-09-08T13:15:47Z</time>
      </trkpt>
      <trkpt lat="43.18874" lon="-0.60939">
        <ele>212.6</ele>
        <time>2022-09-08T13:15:50Z</time>
      </trkpt>
      <trkpt lat="43.18876" lon="-0.60945">
        <ele>212.2</ele>
        <time>2022-09-08T13:15:51Z</time>
      </trkpt>
      <trkpt lat="43.18878" lon="-0.6095">
        <ele>211.6</ele>
        <time>2022-09-08T13:15:52Z</time>
      </trkpt>
      <trkpt lat="43.1888" lon="-0.60956">
        <ele>211.4</ele>
        <time>2022-09-08T13:15:53Z</time>
      </trkpt>
      <trkpt lat="43.1888" lon="-0.6097">
        <ele>210.6</ele>
        <time>2022-09-08T13:15:55Z</time>
      </trkpt>
      <trkpt lat="43.18879" lon="-0.60977">
        <ele>210</ele>
        <time>2022-09-08T13:15:56Z</time>
      </trkpt>
      <trkpt lat="43.18874" lon="-0.6099">
        <ele>209.2</ele>
        <time>2022-09-08T13:15:58Z</time>
      </trkpt>
      <trkpt lat="43.18872" lon="-0.60997">
        <ele>208.8</ele>
        <time>2022-09-08T13:15:59Z</time>
      </trkpt>
      <trkpt lat="43.18866" lon="-0.61023">
        <ele>207.4</ele>
        <time>2022-09-08T13:16:04Z</time>
      </trkpt>
      <trkpt lat="43.18872" lon="-0.61028">
        <ele>207</ele>
        <time>2022-09-08T13:16:06Z</time>
      </trkpt>
      <trkpt lat="43.18881" lon="-0.61031">
        <ele>206.8</ele>
        <time>2022-09-08T13:16:09Z</time>
      </trkpt>
      <trkpt lat="43.18885" lon="-0.61032">
        <ele>206.6</ele>
        <time>2022-09-08T13:16:11Z</time>
      </trkpt>
      <trkpt lat="43.18892" lon="-0.61032">
        <ele>206.6</ele>
        <time>2022-09-08T13:16:15Z</time>
      </trkpt>
      <trkpt lat="43.18894" lon="-0.6103">
        <ele>206.4</ele>
        <time>2022-09-08T13:16:16Z</time>
      </trkpt>
      <trkpt lat="43.18898" lon="-0.61025">
        <ele>206.4</ele>
        <time>2022-09-08T13:16:18Z</time>
      </trkpt>
      <trkpt lat="43.18906" lon="-0.61017">
        <ele>206.2</ele>
        <time>2022-09-08T13:16:21Z</time>
      </trkpt>
      <trkpt lat="43.18917" lon="-0.61006">
        <ele>206.2</ele>
        <time>2022-09-08T13:16:26Z</time>
      </trkpt>
      <trkpt lat="43.18931" lon="-0.60996">
        <ele>206</ele>
        <time>2022-09-08T13:16:33Z</time>
      </trkpt>
      <trkpt lat="43.18941" lon="-0.6099">
        <ele>205.8</ele>
        <time>2022-09-08T13:17:10Z</time>
      </trkpt>
      <trkpt lat="43.18943" lon="-0.60971">
        <ele>205.8</ele>
        <time>2022-09-08T13:17:14Z</time>
      </trkpt>
      <trkpt lat="43.18945" lon="-0.60968">
        <ele>205.8</ele>
        <time>2022-09-08T13:17:15Z</time>
      </trkpt>
      <trkpt lat="43.18959" lon="-0.60953">
        <ele>206</ele>
        <time>2022-09-08T13:17:21Z</time>
      </trkpt>
      <trkpt lat="43.18976" lon="-0.60934">
        <ele>205.8</ele>
        <time>2022-09-08T13:17:29Z</time>
      </trkpt>
      <trkpt lat="43.18986" lon="-0.60922">
        <ele>205.8</ele>
        <time>2022-09-08T13:17:34Z</time>
      </trkpt>
      <trkpt lat="43.18994" lon="-0.60913">
        <ele>205.4</ele>
        <time>2022-09-08T13:17:38Z</time>
      </trkpt>
      <trkpt lat="43.18997" lon="-0.60908">
        <ele>205.4</ele>
        <time>2022-09-08T13:17:40Z</time>
      </trkpt>
      <trkpt lat="43.19014" lon="-0.60888">
        <ele>205.6</ele>
        <time>2022-09-08T13:17:47Z</time>
      </trkpt>
      <trkpt lat="43.19032" lon="-0.6087">
        <ele>205.8</ele>
        <time>2022-09-08T13:17:54Z</time>
      </trkpt>
      <trkpt lat="43.19051" lon="-0.60846">
        <ele>206.4</ele>
        <time>2022-09-08T13:18:02Z</time>
      </trkpt>
      <trkpt lat="43.19065" lon="-0.60829">
        <ele>207.4</ele>
        <time>2022-09-08T13:18:08Z</time>
      </trkpt>
      <trkpt lat="43.1907" lon="-0.60824">
        <ele>207.8</ele>
        <time>2022-09-08T13:18:10Z</time>
      </trkpt>
      <trkpt lat="43.19081" lon="-0.60811">
        <ele>208.4</ele>
        <time>2022-09-08T13:18:16Z</time>
      </trkpt>
      <trkpt lat="43.1908" lon="-0.60814">
        <ele>208.8</ele>
        <time>2022-09-08T13:18:19Z</time>
      </trkpt>
      <trkpt lat="43.19072" lon="-0.60825">
        <ele>208.2</ele>
        <time>2022-09-08T13:18:24Z</time>
      </trkpt>
      <trkpt lat="43.19073" lon="-0.60828">
        <ele>208</ele>
        <time>2022-09-08T13:18:26Z</time>
      </trkpt>
      <trkpt lat="43.19075" lon="-0.60833">
        <ele>208</ele>
        <time>2022-09-08T13:18:28Z</time>
      </trkpt>
      <trkpt lat="43.19081" lon="-0.60847">
        <ele>208.4</ele>
        <time>2022-09-08T13:18:34Z</time>
      </trkpt>
      <trkpt lat="43.19089" lon="-0.60858">
        <ele>208.8</ele>
        <time>2022-09-08T13:18:42Z</time>
      </trkpt>
      <trkpt lat="43.19098" lon="-0.60876">
        <ele>209.4</ele>
        <time>2022-09-08T13:20:16Z</time>
      </trkpt>
      <trkpt lat="43.19099" lon="-0.60877">
        <ele>209.4</ele>
        <time>2022-09-08T13:20:17Z</time>
      </trkpt>
      <trkpt lat="43.19105" lon="-0.60886">
        <ele>209</ele>
        <time>2022-09-08T13:20:23Z</time>
      </trkpt>
      <trkpt lat="43.19106" lon="-0.60893">
        <ele>209</ele>
        <time>2022-09-08T13:20:37Z</time>
      </trkpt>
      <trkpt lat="43.19106" lon="-0.60896">
        <ele>209.2</ele>
        <time>2022-09-08T13:20:38Z</time>
      </trkpt>
      <trkpt lat="43.19108" lon="-0.60916">
        <ele>209.6</ele>
        <time>2022-09-08T13:20:45Z</time>
      </trkpt>
      <trkpt lat="43.19108" lon="-0.60918">
        <ele>209.8</ele>
        <time>2022-09-08T13:20:46Z</time>
      </trkpt>
      <trkpt lat="43.19109" lon="-0.60925">
        <ele>210.6</ele>
        <time>2022-09-08T13:20:49Z</time>
      </trkpt>
      <trkpt lat="43.19111" lon="-0.60932">
        <ele>211.6</ele>
        <time>2022-09-08T13:20:53Z</time>
      </trkpt>
      <trkpt lat="43.19111" lon="-0.60933">
        <ele>211.8</ele>
        <time>2022-09-08T13:20:54Z</time>
      </trkpt>
      <trkpt lat="43.19115" lon="-0.60936">
        <ele>212.2</ele>
        <time>2022-09-08T13:20:58Z</time>
      </trkpt>
      <trkpt lat="43.19117" lon="-0.60937">
        <ele>212.4</ele>
        <time>2022-09-08T13:21:00Z</time>
      </trkpt>
      <trkpt lat="43.1912" lon="-0.60939">
        <ele>212.4</ele>
        <time>2022-09-08T13:21:02Z</time>
      </trkpt>
      <trkpt lat="43.19126" lon="-0.60941">
        <ele>212.4</ele>
        <time>2022-09-08T13:21:06Z</time>
      </trkpt>
      <trkpt lat="43.19131" lon="-0.60938">
        <ele>212.4</ele>
        <time>2022-09-08T13:21:11Z</time>
      </trkpt>
      <trkpt lat="43.19132" lon="-0.60937">
        <ele>212.4</ele>
        <time>2022-09-08T13:21:12Z</time>
      </trkpt>
      <trkpt lat="43.19139" lon="-0.60932">
        <ele>212.4</ele>
        <time>2022-09-08T13:21:17Z</time>
      </trkpt>
      <trkpt lat="43.19153" lon="-0.60926">
        <ele>212</ele>
        <time>2022-09-08T13:21:24Z</time>
      </trkpt>
      <trkpt lat="43.19157" lon="-0.60925">
        <ele>212</ele>
        <time>2022-09-08T13:21:26Z</time>
      </trkpt>
      <trkpt lat="43.19172" lon="-0.60925">
        <ele>211.8</ele>
        <time>2022-09-08T13:21:33Z</time>
      </trkpt>
      <trkpt lat="43.19186" lon="-0.60925">
        <ele>211.8</ele>
        <time>2022-09-08T13:21:38Z</time>
      </trkpt>
      <trkpt lat="43.19203" lon="-0.60921">
        <ele>211.8</ele>
        <time>2022-09-08T13:21:44Z</time>
      </trkpt>
      <trkpt lat="43.19216" lon="-0.60925">
        <ele>211.4</ele>
        <time>2022-09-08T13:21:50Z</time>
      </trkpt>
      <trkpt lat="43.19222" lon="-0.60926">
        <ele>211.6</ele>
        <time>2022-09-08T13:21:55Z</time>
      </trkpt>
      <trkpt lat="43.19227" lon="-0.60939">
        <ele>211.6</ele>
        <time>2022-09-08T13:22:00Z</time>
      </trkpt>
      <trkpt lat="43.19234" lon="-0.60961">
        <ele>211.8</ele>
        <time>2022-09-08T13:22:07Z</time>
      </trkpt>
      <trkpt lat="43.19239" lon="-0.60972">
        <ele>211.6</ele>
        <time>2022-09-08T13:22:11Z</time>
      </trkpt>
      <trkpt lat="43.19242" lon="-0.60978">
        <ele>211.8</ele>
        <time>2022-09-08T13:22:13Z</time>
      </trkpt>
      <trkpt lat="43.19257" lon="-0.61008">
        <ele>211.8</ele>
        <time>2022-09-08T13:22:23Z</time>
      </trkpt>
      <trkpt lat="43.19265" lon="-0.61021">
        <ele>212</ele>
        <time>2022-09-08T13:22:30Z</time>
      </trkpt>
      <trkpt lat="43.19267" lon="-0.61032">
        <ele>212</ele>
        <time>2022-09-08T13:22:36Z</time>
      </trkpt>
      <trkpt lat="43.19272" lon="-0.61033">
        <ele>212</ele>
        <time>2022-09-08T13:22:58Z</time>
      </trkpt>
      <trkpt lat="43.19274" lon="-0.61032">
        <ele>212</ele>
        <time>2022-09-08T13:22:59Z</time>
      </trkpt>
      <trkpt lat="43.19285" lon="-0.61026">
        <ele>212.4</ele>
        <time>2022-09-08T13:23:06Z</time>
      </trkpt>
      <trkpt lat="43.19295" lon="-0.61033">
        <ele>212.2</ele>
        <time>2022-09-08T13:23:10Z</time>
      </trkpt>
      <trkpt lat="43.19314" lon="-0.61049">
        <ele>212.4</ele>
        <time>2022-09-08T13:23:17Z</time>
      </trkpt>
      <trkpt lat="43.19328" lon="-0.61062">
        <ele>212.8</ele>
        <time>2022-09-08T13:23:22Z</time>
      </trkpt>
      <trkpt lat="43.19334" lon="-0.61067">
        <ele>212.4</ele>
        <time>2022-09-08T13:23:24Z</time>
      </trkpt>
      <trkpt lat="43.19362" lon="-0.61093">
        <ele>212.6</ele>
        <time>2022-09-08T13:23:34Z</time>
      </trkpt>
      <trkpt lat="43.19379" lon="-0.61109">
        <ele>212.8</ele>
        <time>2022-09-08T13:23:41Z</time>
      </trkpt>
      <trkpt lat="43.19394" lon="-0.61121">
        <ele>212.6</ele>
        <time>2022-09-08T13:23:48Z</time>
      </trkpt>
      <trkpt lat="43.19404" lon="-0.61128">
        <ele>212.6</ele>
        <time>2022-09-08T13:23:54Z</time>
      </trkpt>
    </trkseg>
  </trk>
  <trk>
    <name><![CDATA[J5 - Far west - Odos - Lestelle-Bétharram - Petite journée tranquille 👌]]></name>
    <extensions>
      <line xmlns="http://www.topografix.com/GPX/gpx_style/0/2">
        <color>00FFFF</color>
        <width>4</width>
      </line>
    </extensions>
    <trkseg>
      <trkpt lat="43.19491" lon="0.05494">
        <ele>334.2</ele>
        <time>2022-09-07T09:11:52Z</time>
      </trkpt>
      <trkpt lat="43.19493" lon="0.05486">
        <ele>334.2</ele>
        <time>2022-09-07T09:12:17Z</time>
      </trkpt>
      <trkpt lat="43.19493" lon="0.05478">
        <ele>333.8</ele>
        <time>2022-09-07T09:12:19Z</time>
      </trkpt>
      <trkpt lat="43.19495" lon="0.0547">
        <ele>333.4</ele>
        <time>2022-09-07T09:12:21Z</time>
      </trkpt>
      <trkpt lat="43.19497" lon="0.05459">
        <ele>333</ele>
        <time>2022-09-07T09:12:23Z</time>
      </trkpt>
      <trkpt lat="43.19497" lon="0.05453">
        <ele>332.8</ele>
        <time>2022-09-07T09:12:24Z</time>
      </trkpt>
      <trkpt lat="43.19492" lon="0.05423">
        <ele>332</ele>
        <time>2022-09-07T09:12:28Z</time>
      </trkpt>
      <trkpt lat="43.1949" lon="0.05415">
        <ele>331.8</ele>
        <time>2022-09-07T09:12:29Z</time>
      </trkpt>
      <trkpt lat="43.19483" lon="0.054">
        <ele>331.4</ele>
        <time>2022-09-07T09:12:31Z</time>
      </trkpt>
      <trkpt lat="43.19476" lon="0.05385">
        <ele>330.8</ele>
        <time>2022-09-07T09:12:33Z</time>
      </trkpt>
      <trkpt lat="43.19466" lon="0.05359">
        <ele>329.8</ele>
        <time>2022-09-07T09:12:37Z</time>
      </trkpt>
      <trkpt lat="43.19464" lon="0.05352">
        <ele>329.6</ele>
        <time>2022-09-07T09:12:38Z</time>
      </trkpt>
      <trkpt lat="43.19462" lon="0.05321">
        <ele>329.2</ele>
        <time>2022-09-07T09:12:42Z</time>
      </trkpt>
      <trkpt lat="43.19462" lon="0.05272">
        <ele>329.2</ele>
        <time>2022-09-07T09:12:49Z</time>
      </trkpt>
      <trkpt lat="43.19463" lon="0.05248">
        <ele>328.8</ele>
        <time>2022-09-07T09:12:53Z</time>
      </trkpt>
      <trkpt lat="43.19464" lon="0.0523">
        <ele>329</ele>
        <time>2022-09-07T09:12:56Z</time>
      </trkpt>
      <trkpt lat="43.19469" lon="0.05182">
        <ele>328.6</ele>
        <time>2022-09-07T09:13:05Z</time>
      </trkpt>
      <trkpt lat="43.19476" lon="0.05129">
        <ele>328.6</ele>
        <time>2022-09-07T09:13:15Z</time>
      </trkpt>
      <trkpt lat="43.1948" lon="0.05098">
        <ele>328.8</ele>
        <time>2022-09-07T09:13:21Z</time>
      </trkpt>
      <trkpt lat="43.19484" lon="0.05062">
        <ele>328.8</ele>
        <time>2022-09-07T09:13:28Z</time>
      </trkpt>
      <trkpt lat="43.1949" lon="0.05022">
        <ele>329</ele>
        <time>2022-09-07T09:13:36Z</time>
      </trkpt>
      <trkpt lat="43.19497" lon="0.04966">
        <ele>329.2</ele>
        <time>2022-09-07T09:13:47Z</time>
      </trkpt>
      <trkpt lat="43.19501" lon="0.04935">
        <ele>328.8</ele>
        <time>2022-09-07T09:13:53Z</time>
      </trkpt>
      <trkpt lat="43.19505" lon="0.04897">
        <ele>329.2</ele>
        <time>2022-09-07T09:14:01Z</time>
      </trkpt>
      <trkpt lat="43.19504" lon="0.04853">
        <ele>329</ele>
        <time>2022-09-07T09:14:09Z</time>
      </trkpt>
      <trkpt lat="43.19505" lon="0.04814">
        <ele>329</ele>
        <time>2022-09-07T09:14:16Z</time>
      </trkpt>
      <trkpt lat="43.19505" lon="0.04764">
        <ele>329.6</ele>
        <time>2022-09-07T09:14:25Z</time>
      </trkpt>
      <trkpt lat="43.19503" lon="0.04729">
        <ele>329.6</ele>
        <time>2022-09-07T09:14:32Z</time>
      </trkpt>
      <trkpt lat="43.195" lon="0.04704">
        <ele>329.8</ele>
        <time>2022-09-07T09:14:37Z</time>
      </trkpt>
      <trkpt lat="43.19499" lon="0.04694">
        <ele>329.8</ele>
        <time>2022-09-07T09:14:39Z</time>
      </trkpt>
      <trkpt lat="43.19496" lon="0.04646">
        <ele>330.2</ele>
        <time>2022-09-07T09:14:49Z</time>
      </trkpt>
      <trkpt lat="43.19493" lon="0.04601">
        <ele>330.6</ele>
        <time>2022-09-07T09:14:58Z</time>
      </trkpt>
      <trkpt lat="43.19491" lon="0.04584">
        <ele>330.4</ele>
        <time>2022-09-07T09:15:01Z</time>
      </trkpt>
      <trkpt lat="43.19491" lon="0.04573">
        <ele>330.4</ele>
        <time>2022-09-07T09:15:03Z</time>
      </trkpt>
      <trkpt lat="43.19486" lon="0.04529">
        <ele>330.2</ele>
        <time>2022-09-07T09:15:11Z</time>
      </trkpt>
      <trkpt lat="43.19486" lon="0.04499">
        <ele>330.4</ele>
        <time>2022-09-07T09:15:17Z</time>
      </trkpt>
      <trkpt lat="43.19486" lon="0.04475">
        <ele>330.4</ele>
        <time>2022-09-07T09:15:23Z</time>
      </trkpt>
      <trkpt lat="43.19476" lon="0.04463">
        <ele>330.6</ele>
        <time>2022-09-07T09:15:27Z</time>
      </trkpt>
      <trkpt lat="43.19457" lon="0.04448">
        <ele>330.8</ele>
        <time>2022-09-07T09:15:33Z</time>
      </trkpt>
      <trkpt lat="43.19454" lon="0.04445">
        <ele>330.8</ele>
        <time>2022-09-07T09:15:34Z</time>
      </trkpt>
      <trkpt lat="43.19427" lon="0.04423">
        <ele>331</ele>
        <time>2022-09-07T09:15:42Z</time>
      </trkpt>
      <trkpt lat="43.1939" lon="0.04393">
        <ele>331.4</ele>
        <time>2022-09-07T09:15:53Z</time>
      </trkpt>
      <trkpt lat="43.19371" lon="0.04376">
        <ele>331.8</ele>
        <time>2022-09-07T09:15:59Z</time>
      </trkpt>
      <trkpt lat="43.19364" lon="0.0437">
        <ele>331.8</ele>
        <time>2022-09-07T09:16:01Z</time>
      </trkpt>
      <trkpt lat="43.19344" lon="0.04345">
        <ele>332</ele>
        <time>2022-09-07T09:16:08Z</time>
      </trkpt>
      <trkpt lat="43.19329" lon="0.04318">
        <ele>332</ele>
        <time>2022-09-07T09:16:15Z</time>
      </trkpt>
      <trkpt lat="43.19314" lon="0.04298">
        <ele>332.4</ele>
        <time>2022-09-07T09:16:21Z</time>
      </trkpt>
      <trkpt lat="43.19294" lon="0.04279">
        <ele>332.4</ele>
        <time>2022-09-07T09:16:27Z</time>
      </trkpt>
      <trkpt lat="43.19272" lon="0.04258">
        <ele>332.4</ele>
        <time>2022-09-07T09:16:34Z</time>
      </trkpt>
      <trkpt lat="43.19252" lon="0.04238">
        <ele>332.8</ele>
        <time>2022-09-07T09:16:40Z</time>
      </trkpt>
      <trkpt lat="43.19243" lon="0.04228">
        <ele>332.8</ele>
        <time>2022-09-07T09:16:43Z</time>
      </trkpt>
      <trkpt lat="43.19236" lon="0.04207">
        <ele>332.6</ele>
        <time>2022-09-07T09:16:48Z</time>
      </trkpt>
      <trkpt lat="43.19241" lon="0.0418">
        <ele>333</ele>
        <time>2022-09-07T09:16:54Z</time>
      </trkpt>
      <trkpt lat="43.19242" lon="0.0415">
        <ele>333</ele>
        <time>2022-09-07T09:17:01Z</time>
      </trkpt>
      <trkpt lat="43.1924" lon="0.04147">
        <ele>333</ele>
        <time>2022-09-07T09:17:02Z</time>
      </trkpt>
      <trkpt lat="43.19233" lon="0.04138">
        <ele>333</ele>
        <time>2022-09-07T09:17:05Z</time>
      </trkpt>
      <trkpt lat="43.19225" lon="0.04128">
        <ele>333.2</ele>
        <time>2022-09-07T09:17:08Z</time>
      </trkpt>
      <trkpt lat="43.19198" lon="0.04093">
        <ele>333.6</ele>
        <time>2022-09-07T09:17:18Z</time>
      </trkpt>
      <trkpt lat="43.19187" lon="0.04079">
        <ele>333.8</ele>
        <time>2022-09-07T09:17:22Z</time>
      </trkpt>
      <trkpt lat="43.19175" lon="0.04064">
        <ele>334.2</ele>
        <time>2022-09-07T09:17:26Z</time>
      </trkpt>
      <trkpt lat="43.19147" lon="0.04032">
        <ele>334.6</ele>
        <time>2022-09-07T09:17:35Z</time>
      </trkpt>
      <trkpt lat="43.19117" lon="0.03994">
        <ele>334.8</ele>
        <time>2022-09-07T09:17:45Z</time>
      </trkpt>
      <trkpt lat="43.19114" lon="0.0399">
        <ele>335</ele>
        <time>2022-09-07T09:17:46Z</time>
      </trkpt>
      <trkpt lat="43.19095" lon="0.03966">
        <ele>335.2</ele>
        <time>2022-09-07T09:17:52Z</time>
      </trkpt>
      <trkpt lat="43.19058" lon="0.03921">
        <ele>335.6</ele>
        <time>2022-09-07T09:18:04Z</time>
      </trkpt>
      <trkpt lat="43.19034" lon="0.03891">
        <ele>336</ele>
        <time>2022-09-07T09:18:12Z</time>
      </trkpt>
      <trkpt lat="43.19028" lon="0.03883">
        <ele>336.2</ele>
        <time>2022-09-07T09:18:14Z</time>
      </trkpt>
      <trkpt lat="43.1901" lon="0.03864">
        <ele>337.2</ele>
        <time>2022-09-07T09:18:20Z</time>
      </trkpt>
      <trkpt lat="43.19006" lon="0.03858">
        <ele>337.4</ele>
        <time>2022-09-07T09:18:22Z</time>
      </trkpt>
      <trkpt lat="43.18994" lon="0.03843">
        <ele>338.4</ele>
        <time>2022-09-07T09:18:28Z</time>
      </trkpt>
      <trkpt lat="43.18992" lon="0.03841">
        <ele>338.6</ele>
        <time>2022-09-07T09:18:29Z</time>
      </trkpt>
      <trkpt lat="43.18983" lon="0.0383">
        <ele>339.6</ele>
        <time>2022-09-07T09:18:34Z</time>
      </trkpt>
      <trkpt lat="43.18976" lon="0.03822">
        <ele>340.2</ele>
        <time>2022-09-07T09:18:38Z</time>
      </trkpt>
      <trkpt lat="43.18972" lon="0.03817">
        <ele>340.6</ele>
        <time>2022-09-07T09:18:40Z</time>
      </trkpt>
      <trkpt lat="43.18961" lon="0.03801">
        <ele>341.6</ele>
        <time>2022-09-07T09:18:47Z</time>
      </trkpt>
      <trkpt lat="43.18959" lon="0.03799">
        <ele>341.8</ele>
        <time>2022-09-07T09:18:48Z</time>
      </trkpt>
      <trkpt lat="43.18949" lon="0.03787">
        <ele>342.8</ele>
        <time>2022-09-07T09:18:54Z</time>
      </trkpt>
      <trkpt lat="43.1894" lon="0.03774">
        <ele>343.8</ele>
        <time>2022-09-07T09:19:00Z</time>
      </trkpt>
      <trkpt lat="43.18938" lon="0.03772">
        <ele>344</ele>
        <time>2022-09-07T09:19:01Z</time>
      </trkpt>
      <trkpt lat="43.18928" lon="0.03759">
        <ele>345</ele>
        <time>2022-09-07T09:19:07Z</time>
      </trkpt>
      <trkpt lat="43.18927" lon="0.03757">
        <ele>345</ele>
        <time>2022-09-07T09:19:08Z</time>
      </trkpt>
      <trkpt lat="43.18915" lon="0.03745">
        <ele>346</ele>
        <time>2022-09-07T09:19:15Z</time>
      </trkpt>
      <trkpt lat="43.18913" lon="0.03743">
        <ele>346.2</ele>
        <time>2022-09-07T09:19:16Z</time>
      </trkpt>
      <trkpt lat="43.189" lon="0.03726">
        <ele>347</ele>
        <time>2022-09-07T09:19:24Z</time>
      </trkpt>
      <trkpt lat="43.18894" lon="0.0372">
        <ele>347.2</ele>
        <time>2022-09-07T09:19:27Z</time>
      </trkpt>
      <trkpt lat="43.18887" lon="0.03709">
        <ele>347.8</ele>
        <time>2022-09-07T09:19:32Z</time>
      </trkpt>
      <trkpt lat="43.18879" lon="0.03701">
        <ele>348.2</ele>
        <time>2022-09-07T09:19:36Z</time>
      </trkpt>
      <trkpt lat="43.1887" lon="0.0369">
        <ele>349</ele>
        <time>2022-09-07T09:19:42Z</time>
      </trkpt>
      <trkpt lat="43.18867" lon="0.03686">
        <ele>349.4</ele>
        <time>2022-09-07T09:19:44Z</time>
      </trkpt>
      <trkpt lat="43.18854" lon="0.03671">
        <ele>350.2</ele>
        <time>2022-09-07T09:19:51Z</time>
      </trkpt>
      <trkpt lat="43.18849" lon="0.03664">
        <ele>350.6</ele>
        <time>2022-09-07T09:19:54Z</time>
      </trkpt>
      <trkpt lat="43.18835" lon="0.03647">
        <ele>351</ele>
        <time>2022-09-07T09:20:01Z</time>
      </trkpt>
      <trkpt lat="43.18812" lon="0.03618">
        <ele>351.4</ele>
        <time>2022-09-07T09:20:11Z</time>
      </trkpt>
      <trkpt lat="43.18804" lon="0.03608">
        <ele>351.6</ele>
        <time>2022-09-07T09:20:14Z</time>
      </trkpt>
      <trkpt lat="43.18787" lon="0.03589">
        <ele>351.8</ele>
        <time>2022-09-07T09:20:20Z</time>
      </trkpt>
      <trkpt lat="43.18767" lon="0.03565">
        <ele>352.4</ele>
        <time>2022-09-07T09:20:28Z</time>
      </trkpt>
      <trkpt lat="43.18764" lon="0.03562">
        <ele>352.6</ele>
        <time>2022-09-07T09:20:29Z</time>
      </trkpt>
      <trkpt lat="43.18753" lon="0.03548">
        <ele>353</ele>
        <time>2022-09-07T09:20:35Z</time>
      </trkpt>
      <trkpt lat="43.18747" lon="0.03541">
        <ele>353.8</ele>
        <time>2022-09-07T09:20:38Z</time>
      </trkpt>
      <trkpt lat="43.18741" lon="0.0353">
        <ele>354.6</ele>
        <time>2022-09-07T09:20:43Z</time>
      </trkpt>
      <trkpt lat="43.18737" lon="0.03524">
        <ele>355</ele>
        <time>2022-09-07T09:20:46Z</time>
      </trkpt>
      <trkpt lat="43.18733" lon="0.03516">
        <ele>356</ele>
        <time>2022-09-07T09:20:50Z</time>
      </trkpt>
      <trkpt lat="43.18732" lon="0.03515">
        <ele>356</ele>
        <time>2022-09-07T09:20:51Z</time>
      </trkpt>
      <trkpt lat="43.18726" lon="0.03508">
        <ele>357</ele>
        <time>2022-09-07T09:20:56Z</time>
      </trkpt>
      <trkpt lat="43.18724" lon="0.03506">
        <ele>357.2</ele>
        <time>2022-09-07T09:20:57Z</time>
      </trkpt>
      <trkpt lat="43.18713" lon="0.03493">
        <ele>357.4</ele>
        <time>2022-09-07T09:21:03Z</time>
      </trkpt>
      <trkpt lat="43.18695" lon="0.03485">
        <ele>357.2</ele>
        <time>2022-09-07T09:21:09Z</time>
      </trkpt>
      <trkpt lat="43.18678" lon="0.03485">
        <ele>357.2</ele>
        <time>2022-09-07T09:21:14Z</time>
      </trkpt>
      <trkpt lat="43.18669" lon="0.03497">
        <ele>357.2</ele>
        <time>2022-09-07T09:21:18Z</time>
      </trkpt>
      <trkpt lat="43.18668" lon="0.035">
        <ele>357.2</ele>
        <time>2022-09-07T09:21:19Z</time>
      </trkpt>
      <trkpt lat="43.18663" lon="0.03522">
        <ele>357.6</ele>
        <time>2022-09-07T09:21:25Z</time>
      </trkpt>
      <trkpt lat="43.18657" lon="0.03528">
        <ele>357.6</ele>
        <time>2022-09-07T09:21:28Z</time>
      </trkpt>
      <trkpt lat="43.18654" lon="0.03528">
        <ele>357.8</ele>
        <time>2022-09-07T09:21:29Z</time>
      </trkpt>
      <trkpt lat="43.18646" lon="0.03528">
        <ele>358</ele>
        <time>2022-09-07T09:21:32Z</time>
      </trkpt>
      <trkpt lat="43.18641" lon="0.03525">
        <ele>358.2</ele>
        <time>2022-09-07T09:21:34Z</time>
      </trkpt>
      <trkpt lat="43.18629" lon="0.03524">
        <ele>359</ele>
        <time>2022-09-07T09:21:39Z</time>
      </trkpt>
      <trkpt lat="43.18627" lon="0.03524">
        <ele>359.2</ele>
        <time>2022-09-07T09:21:40Z</time>
      </trkpt>
      <trkpt lat="43.18614" lon="0.03521">
        <ele>360.2</ele>
        <time>2022-09-07T09:21:46Z</time>
      </trkpt>
      <trkpt lat="43.18602" lon="0.03519">
        <ele>361.2</ele>
        <time>2022-09-07T09:21:52Z</time>
      </trkpt>
      <trkpt lat="43.186" lon="0.03519">
        <ele>361.2</ele>
        <time>2022-09-07T09:21:53Z</time>
      </trkpt>
      <trkpt lat="43.18585" lon="0.03515">
        <ele>362.2</ele>
        <time>2022-09-07T09:22:00Z</time>
      </trkpt>
      <trkpt lat="43.18582" lon="0.03514">
        <ele>362.4</ele>
        <time>2022-09-07T09:22:02Z</time>
      </trkpt>
      <trkpt lat="43.18572" lon="0.03509">
        <ele>363.2</ele>
        <time>2022-09-07T09:22:08Z</time>
      </trkpt>
      <trkpt lat="43.1857" lon="0.03508">
        <ele>363.4</ele>
        <time>2022-09-07T09:22:09Z</time>
      </trkpt>
      <trkpt lat="43.18562" lon="0.03505">
        <ele>364.4</ele>
        <time>2022-09-07T09:22:14Z</time>
      </trkpt>
      <trkpt lat="43.18559" lon="0.03505">
        <ele>364.6</ele>
        <time>2022-09-07T09:22:15Z</time>
      </trkpt>
      <trkpt lat="43.18546" lon="0.03503">
        <ele>365.4</ele>
        <time>2022-09-07T09:22:22Z</time>
      </trkpt>
      <trkpt lat="43.18537" lon="0.03499">
        <ele>366.4</ele>
        <time>2022-09-07T09:22:28Z</time>
      </trkpt>
      <trkpt lat="43.18536" lon="0.03499">
        <ele>366.6</ele>
        <time>2022-09-07T09:22:29Z</time>
      </trkpt>
      <trkpt lat="43.18532" lon="0.03498">
        <ele>366.8</ele>
        <time>2022-09-07T09:22:32Z</time>
      </trkpt>
      <trkpt lat="43.18524" lon="0.03495">
        <ele>367.6</ele>
        <time>2022-09-07T09:22:37Z</time>
      </trkpt>
      <trkpt lat="43.18522" lon="0.03495">
        <ele>367.8</ele>
        <time>2022-09-07T09:22:38Z</time>
      </trkpt>
      <trkpt lat="43.18514" lon="0.03494">
        <ele>368.4</ele>
        <time>2022-09-07T09:22:44Z</time>
      </trkpt>
      <trkpt lat="43.18512" lon="0.03494">
        <ele>368.6</ele>
        <time>2022-09-07T09:22:45Z</time>
      </trkpt>
      <trkpt lat="43.185" lon="0.03492">
        <ele>369.6</ele>
        <time>2022-09-07T09:22:53Z</time>
      </trkpt>
      <trkpt lat="43.18498" lon="0.0349">
        <ele>369.8</ele>
        <time>2022-09-07T09:22:55Z</time>
      </trkpt>
      <trkpt lat="43.18493" lon="0.03489">
        <ele>370.4</ele>
        <time>2022-09-07T09:22:58Z</time>
      </trkpt>
      <trkpt lat="43.18491" lon="0.03489">
        <ele>370.4</ele>
        <time>2022-09-07T09:22:59Z</time>
      </trkpt>
      <trkpt lat="43.18487" lon="0.03489">
        <ele>370.8</ele>
        <time>2022-09-07T09:23:01Z</time>
      </trkpt>
      <trkpt lat="43.18482" lon="0.03487">
        <ele>371.4</ele>
        <time>2022-09-07T09:23:04Z</time>
      </trkpt>
      <trkpt lat="43.18476" lon="0.03486">
        <ele>371.8</ele>
        <time>2022-09-07T09:23:08Z</time>
      </trkpt>
      <trkpt lat="43.18471" lon="0.03485">
        <ele>372.2</ele>
        <time>2022-09-07T09:23:11Z</time>
      </trkpt>
      <trkpt lat="43.18467" lon="0.03484">
        <ele>372.4</ele>
        <time>2022-09-07T09:23:13Z</time>
      </trkpt>
      <trkpt lat="43.18461" lon="0.03482">
        <ele>372.8</ele>
        <time>2022-09-07T09:23:16Z</time>
      </trkpt>
      <trkpt lat="43.18454" lon="0.03479">
        <ele>373.4</ele>
        <time>2022-09-07T09:23:19Z</time>
      </trkpt>
      <trkpt lat="43.18446" lon="0.03478">
        <ele>373.8</ele>
        <time>2022-09-07T09:23:23Z</time>
      </trkpt>
      <trkpt lat="43.18439" lon="0.03475">
        <ele>374.4</ele>
        <time>2022-09-07T09:23:27Z</time>
      </trkpt>
      <trkpt lat="43.18428" lon="0.03474">
        <ele>375</ele>
        <time>2022-09-07T09:23:33Z</time>
      </trkpt>
      <trkpt lat="43.18417" lon="0.03471">
        <ele>375.8</ele>
        <time>2022-09-07T09:23:40Z</time>
      </trkpt>
      <trkpt lat="43.18414" lon="0.0347">
        <ele>376</ele>
        <time>2022-09-07T09:23:42Z</time>
      </trkpt>
      <trkpt lat="43.18406" lon="0.03468">
        <ele>376.4</ele>
        <time>2022-09-07T09:23:46Z</time>
      </trkpt>
      <trkpt lat="43.18395" lon="0.03468">
        <ele>377.2</ele>
        <time>2022-09-07T09:23:52Z</time>
      </trkpt>
      <trkpt lat="43.18391" lon="0.03467">
        <ele>377.4</ele>
        <time>2022-09-07T09:23:54Z</time>
      </trkpt>
      <trkpt lat="43.18378" lon="0.03462">
        <ele>378.2</ele>
        <time>2022-09-07T09:24:01Z</time>
      </trkpt>
      <trkpt lat="43.18375" lon="0.0346">
        <ele>378.4</ele>
        <time>2022-09-07T09:24:03Z</time>
      </trkpt>
      <trkpt lat="43.18363" lon="0.03455">
        <ele>379.4</ele>
        <time>2022-09-07T09:24:10Z</time>
      </trkpt>
      <trkpt lat="43.18357" lon="0.03455">
        <ele>379.6</ele>
        <time>2022-09-07T09:24:13Z</time>
      </trkpt>
      <trkpt lat="43.18349" lon="0.03451">
        <ele>380.4</ele>
        <time>2022-09-07T09:24:18Z</time>
      </trkpt>
      <trkpt lat="43.18345" lon="0.03451">
        <ele>380.6</ele>
        <time>2022-09-07T09:24:20Z</time>
      </trkpt>
      <trkpt lat="43.18335" lon="0.0345">
        <ele>381.4</ele>
        <time>2022-09-07T09:24:26Z</time>
      </trkpt>
      <trkpt lat="43.18333" lon="0.0345">
        <ele>381.6</ele>
        <time>2022-09-07T09:24:27Z</time>
      </trkpt>
      <trkpt lat="43.18325" lon="0.03448">
        <ele>382.4</ele>
        <time>2022-09-07T09:24:32Z</time>
      </trkpt>
      <trkpt lat="43.18323" lon="0.03447">
        <ele>382.6</ele>
        <time>2022-09-07T09:24:33Z</time>
      </trkpt>
      <trkpt lat="43.18321" lon="0.03447">
        <ele>382.8</ele>
        <time>2022-09-07T09:24:34Z</time>
      </trkpt>
      <trkpt lat="43.18317" lon="0.03444">
        <ele>383.6</ele>
        <time>2022-09-07T09:24:38Z</time>
      </trkpt>
      <trkpt lat="43.18315" lon="0.03444">
        <ele>383.8</ele>
        <time>2022-09-07T09:24:39Z</time>
      </trkpt>
      <trkpt lat="43.18312" lon="0.03445">
        <ele>384.2</ele>
        <time>2022-09-07T09:24:41Z</time>
      </trkpt>
      <trkpt lat="43.18306" lon="0.03444">
        <ele>384.8</ele>
        <time>2022-09-07T09:24:45Z</time>
      </trkpt>
      <trkpt lat="43.18305" lon="0.03444">
        <ele>385</ele>
        <time>2022-09-07T09:24:46Z</time>
      </trkpt>
      <trkpt lat="43.18298" lon="0.03442">
        <ele>385.8</ele>
        <time>2022-09-07T09:24:51Z</time>
      </trkpt>
      <trkpt lat="43.18297" lon="0.03441">
        <ele>386</ele>
        <time>2022-09-07T09:24:52Z</time>
      </trkpt>
      <trkpt lat="43.18295" lon="0.03441">
        <ele>386.2</ele>
        <time>2022-09-07T09:24:53Z</time>
      </trkpt>
      <trkpt lat="43.18289" lon="0.03438">
        <ele>387</ele>
        <time>2022-09-07T09:24:57Z</time>
      </trkpt>
      <trkpt lat="43.18288" lon="0.03438">
        <ele>387</ele>
        <time>2022-09-07T09:24:58Z</time>
      </trkpt>
      <trkpt lat="43.1828" lon="0.03435">
        <ele>388</ele>
        <time>2022-09-07T09:25:03Z</time>
      </trkpt>
      <trkpt lat="43.18278" lon="0.03435">
        <ele>388.2</ele>
        <time>2022-09-07T09:25:04Z</time>
      </trkpt>
      <trkpt lat="43.18272" lon="0.03432">
        <ele>389</ele>
        <time>2022-09-07T09:25:08Z</time>
      </trkpt>
      <trkpt lat="43.1827" lon="0.03429">
        <ele>389.2</ele>
        <time>2022-09-07T09:25:10Z</time>
      </trkpt>
      <trkpt lat="43.18262" lon="0.03418">
        <ele>390.4</ele>
        <time>2022-09-07T09:25:18Z</time>
      </trkpt>
      <trkpt lat="43.18248" lon="0.03409">
        <ele>391.2</ele>
        <time>2022-09-07T09:25:26Z</time>
      </trkpt>
      <trkpt lat="43.18247" lon="0.03408">
        <ele>391.4</ele>
        <time>2022-09-07T09:25:27Z</time>
      </trkpt>
      <trkpt lat="43.1824" lon="0.03404">
        <ele>391.8</ele>
        <time>2022-09-07T09:25:31Z</time>
      </trkpt>
      <trkpt lat="43.18238" lon="0.03405">
        <ele>392</ele>
        <time>2022-09-07T09:25:32Z</time>
      </trkpt>
      <trkpt lat="43.18233" lon="0.03404">
        <ele>392.4</ele>
        <time>2022-09-07T09:25:35Z</time>
      </trkpt>
      <trkpt lat="43.1823" lon="0.03402">
        <ele>392.8</ele>
        <time>2022-09-07T09:25:37Z</time>
      </trkpt>
      <trkpt lat="43.18228" lon="0.03401">
        <ele>393.2</ele>
        <time>2022-09-07T09:25:38Z</time>
      </trkpt>
      <trkpt lat="43.18224" lon="0.03402">
        <ele>393.4</ele>
        <time>2022-09-07T09:25:41Z</time>
      </trkpt>
      <trkpt lat="43.18221" lon="0.03401">
        <ele>393.6</ele>
        <time>2022-09-07T09:25:43Z</time>
      </trkpt>
      <trkpt lat="43.18212" lon="0.03399">
        <ele>394.2</ele>
        <time>2022-09-07T09:25:49Z</time>
      </trkpt>
      <trkpt lat="43.1821" lon="0.03397">
        <ele>394.6</ele>
        <time>2022-09-07T09:25:51Z</time>
      </trkpt>
      <trkpt lat="43.18205" lon="0.03394">
        <ele>395.2</ele>
        <time>2022-09-07T09:25:54Z</time>
      </trkpt>
      <trkpt lat="43.18198" lon="0.03394">
        <ele>395.8</ele>
        <time>2022-09-07T09:25:59Z</time>
      </trkpt>
      <trkpt lat="43.18186" lon="0.03393">
        <ele>396.8</ele>
        <time>2022-09-07T09:26:06Z</time>
      </trkpt>
      <trkpt lat="43.18185" lon="0.03392">
        <ele>396.8</ele>
        <time>2022-09-07T09:26:07Z</time>
      </trkpt>
      <trkpt lat="43.18177" lon="0.03389">
        <ele>397.4</ele>
        <time>2022-09-07T09:26:12Z</time>
      </trkpt>
      <trkpt lat="43.18162" lon="0.03382">
        <ele>397.8</ele>
        <time>2022-09-07T09:26:19Z</time>
      </trkpt>
      <trkpt lat="43.18155" lon="0.03379">
        <ele>398</ele>
        <time>2022-09-07T09:26:22Z</time>
      </trkpt>
      <trkpt lat="43.18145" lon="0.03372">
        <ele>398.6</ele>
        <time>2022-09-07T09:26:27Z</time>
      </trkpt>
      <trkpt lat="43.1814" lon="0.03368">
        <ele>399</ele>
        <time>2022-09-07T09:26:30Z</time>
      </trkpt>
      <trkpt lat="43.18131" lon="0.0336">
        <ele>399.6</ele>
        <time>2022-09-07T09:26:35Z</time>
      </trkpt>
      <trkpt lat="43.18124" lon="0.03353">
        <ele>400.2</ele>
        <time>2022-09-07T09:26:39Z</time>
      </trkpt>
      <trkpt lat="43.1811" lon="0.03341">
        <ele>400.6</ele>
        <time>2022-09-07T09:26:46Z</time>
      </trkpt>
      <trkpt lat="43.181" lon="0.03332">
        <ele>401.2</ele>
        <time>2022-09-07T09:26:51Z</time>
      </trkpt>
      <trkpt lat="43.18093" lon="0.03325">
        <ele>401.4</ele>
        <time>2022-09-07T09:26:55Z</time>
      </trkpt>
      <trkpt lat="43.18081" lon="0.03316">
        <ele>402.2</ele>
        <time>2022-09-07T09:27:01Z</time>
      </trkpt>
      <trkpt lat="43.18076" lon="0.03312">
        <ele>403</ele>
        <time>2022-09-07T09:27:04Z</time>
      </trkpt>
      <trkpt lat="43.18068" lon="0.03304">
        <ele>403.2</ele>
        <time>2022-09-07T09:27:09Z</time>
      </trkpt>
      <trkpt lat="43.18067" lon="0.03303">
        <ele>403.4</ele>
        <time>2022-09-07T09:27:10Z</time>
      </trkpt>
      <trkpt lat="43.18063" lon="0.03301">
        <ele>403.6</ele>
        <time>2022-09-07T09:27:12Z</time>
      </trkpt>
      <trkpt lat="43.18051" lon="0.033">
        <ele>404</ele>
        <time>2022-09-07T09:27:17Z</time>
      </trkpt>
      <trkpt lat="43.18036" lon="0.03301">
        <ele>404.4</ele>
        <time>2022-09-07T09:27:23Z</time>
      </trkpt>
      <trkpt lat="43.18031" lon="0.03302">
        <ele>404.4</ele>
        <time>2022-09-07T09:27:25Z</time>
      </trkpt>
      <trkpt lat="43.18014" lon="0.03302">
        <ele>405.2</ele>
        <time>2022-09-07T09:27:32Z</time>
      </trkpt>
      <trkpt lat="43.18007" lon="0.03304">
        <ele>405.6</ele>
        <time>2022-09-07T09:27:35Z</time>
      </trkpt>
      <trkpt lat="43.18" lon="0.03306">
        <ele>405.8</ele>
        <time>2022-09-07T09:27:38Z</time>
      </trkpt>
      <trkpt lat="43.17992" lon="0.03307">
        <ele>406.6</ele>
        <time>2022-09-07T09:27:43Z</time>
      </trkpt>
      <trkpt lat="43.1799" lon="0.03307">
        <ele>406.6</ele>
        <time>2022-09-07T09:27:44Z</time>
      </trkpt>
      <trkpt lat="43.1798" lon="0.0331">
        <ele>407.8</ele>
        <time>2022-09-07T09:27:50Z</time>
      </trkpt>
      <trkpt lat="43.17976" lon="0.0331">
        <ele>408</ele>
        <time>2022-09-07T09:27:52Z</time>
      </trkpt>
      <trkpt lat="43.17969" lon="0.03314">
        <ele>408.6</ele>
        <time>2022-09-07T09:27:56Z</time>
      </trkpt>
      <trkpt lat="43.17968" lon="0.03313">
        <ele>408.8</ele>
        <time>2022-09-07T09:27:57Z</time>
      </trkpt>
      <trkpt lat="43.17967" lon="0.03313">
        <ele>409</ele>
        <time>2022-09-07T09:27:58Z</time>
      </trkpt>
      <trkpt lat="43.17957" lon="0.03313">
        <ele>409.4</ele>
        <time>2022-09-07T09:28:03Z</time>
      </trkpt>
      <trkpt lat="43.17944" lon="0.03312">
        <ele>409.8</ele>
        <time>2022-09-07T09:28:09Z</time>
      </trkpt>
      <trkpt lat="43.17932" lon="0.0331">
        <ele>409.8</ele>
        <time>2022-09-07T09:28:15Z</time>
      </trkpt>
      <trkpt lat="43.17922" lon="0.03308">
        <ele>410</ele>
        <time>2022-09-07T09:28:19Z</time>
      </trkpt>
      <trkpt lat="43.17919" lon="0.03306">
        <ele>410.2</ele>
        <time>2022-09-07T09:28:21Z</time>
      </trkpt>
      <trkpt lat="43.17906" lon="0.03304">
        <ele>410.4</ele>
        <time>2022-09-07T09:28:27Z</time>
      </trkpt>
      <trkpt lat="43.17898" lon="0.03303">
        <ele>410.6</ele>
        <time>2022-09-07T09:28:30Z</time>
      </trkpt>
      <trkpt lat="43.1789" lon="0.03302">
        <ele>411</ele>
        <time>2022-09-07T09:28:33Z</time>
      </trkpt>
      <trkpt lat="43.17884" lon="0.03301">
        <ele>411.4</ele>
        <time>2022-09-07T09:28:35Z</time>
      </trkpt>
      <trkpt lat="43.17867" lon="0.03298">
        <ele>411.6</ele>
        <time>2022-09-07T09:28:41Z</time>
      </trkpt>
      <trkpt lat="43.17845" lon="0.03301">
        <ele>411.2</ele>
        <time>2022-09-07T09:28:47Z</time>
      </trkpt>
      <trkpt lat="43.17814" lon="0.03304">
        <ele>410.8</ele>
        <time>2022-09-07T09:28:55Z</time>
      </trkpt>
      <trkpt lat="43.17781" lon="0.03302">
        <ele>410.8</ele>
        <time>2022-09-07T09:29:03Z</time>
      </trkpt>
      <trkpt lat="43.17754" lon="0.03298">
        <ele>410.6</ele>
        <time>2022-09-07T09:29:10Z</time>
      </trkpt>
      <trkpt lat="43.17734" lon="0.03292">
        <ele>410.6</ele>
        <time>2022-09-07T09:29:16Z</time>
      </trkpt>
      <trkpt lat="43.17712" lon="0.03284">
        <ele>411.2</ele>
        <time>2022-09-07T09:29:23Z</time>
      </trkpt>
      <trkpt lat="43.177" lon="0.03278">
        <ele>412</ele>
        <time>2022-09-07T09:29:27Z</time>
      </trkpt>
      <trkpt lat="43.17694" lon="0.03276">
        <ele>412.4</ele>
        <time>2022-09-07T09:29:29Z</time>
      </trkpt>
      <trkpt lat="43.17685" lon="0.03274">
        <ele>413.4</ele>
        <time>2022-09-07T09:29:34Z</time>
      </trkpt>
      <trkpt lat="43.17682" lon="0.03273">
        <ele>413.6</ele>
        <time>2022-09-07T09:29:35Z</time>
      </trkpt>
      <trkpt lat="43.17673" lon="0.0327">
        <ele>414.4</ele>
        <time>2022-09-07T09:29:40Z</time>
      </trkpt>
      <trkpt lat="43.17671" lon="0.0327">
        <ele>414.6</ele>
        <time>2022-09-07T09:29:41Z</time>
      </trkpt>
      <trkpt lat="43.17666" lon="0.03265">
        <ele>415.4</ele>
        <time>2022-09-07T09:29:45Z</time>
      </trkpt>
      <trkpt lat="43.17663" lon="0.03264">
        <ele>415.6</ele>
        <time>2022-09-07T09:29:47Z</time>
      </trkpt>
      <trkpt lat="43.17654" lon="0.03259">
        <ele>416.4</ele>
        <time>2022-09-07T09:29:54Z</time>
      </trkpt>
      <trkpt lat="43.17644" lon="0.03255">
        <ele>416</ele>
        <time>2022-09-07T09:29:59Z</time>
      </trkpt>
      <trkpt lat="43.17629" lon="0.03249">
        <ele>414.8</ele>
        <time>2022-09-07T09:30:03Z</time>
      </trkpt>
      <trkpt lat="43.17624" lon="0.03247">
        <ele>414.4</ele>
        <time>2022-09-07T09:30:04Z</time>
      </trkpt>
      <trkpt lat="43.17613" lon="0.03242">
        <ele>413.8</ele>
        <time>2022-09-07T09:30:06Z</time>
      </trkpt>
      <trkpt lat="43.17607" lon="0.0324">
        <ele>413.4</ele>
        <time>2022-09-07T09:30:07Z</time>
      </trkpt>
      <trkpt lat="43.17602" lon="0.03238">
        <ele>413</ele>
        <time>2022-09-07T09:30:08Z</time>
      </trkpt>
      <trkpt lat="43.17594" lon="0.03234">
        <ele>412.4</ele>
        <time>2022-09-07T09:30:10Z</time>
      </trkpt>
      <trkpt lat="43.17586" lon="0.03234">
        <ele>412.4</ele>
        <time>2022-09-07T09:30:12Z</time>
      </trkpt>
      <trkpt lat="43.17581" lon="0.03238">
        <ele>412.6</ele>
        <time>2022-09-07T09:30:14Z</time>
      </trkpt>
      <trkpt lat="43.17574" lon="0.0325">
        <ele>413.4</ele>
        <time>2022-09-07T09:30:20Z</time>
      </trkpt>
      <trkpt lat="43.17567" lon="0.03262">
        <ele>414.4</ele>
        <time>2022-09-07T09:30:26Z</time>
      </trkpt>
      <trkpt lat="43.17564" lon="0.03271">
        <ele>415.4</ele>
        <time>2022-09-07T09:30:31Z</time>
      </trkpt>
      <trkpt lat="43.17563" lon="0.03273">
        <ele>415.6</ele>
        <time>2022-09-07T09:30:32Z</time>
      </trkpt>
      <trkpt lat="43.17562" lon="0.03275">
        <ele>415.8</ele>
        <time>2022-09-07T09:30:33Z</time>
      </trkpt>
      <trkpt lat="43.17558" lon="0.03283">
        <ele>416.4</ele>
        <time>2022-09-07T09:30:38Z</time>
      </trkpt>
      <trkpt lat="43.17557" lon="0.03285">
        <ele>416.6</ele>
        <time>2022-09-07T09:30:39Z</time>
      </trkpt>
      <trkpt lat="43.17557" lon="0.03286">
        <ele>416.8</ele>
        <time>2022-09-07T09:30:40Z</time>
      </trkpt>
      <trkpt lat="43.17555" lon="0.03292">
        <ele>417.4</ele>
        <time>2022-09-07T09:30:43Z</time>
      </trkpt>
      <trkpt lat="43.17553" lon="0.03297">
        <ele>417.8</ele>
        <time>2022-09-07T09:30:46Z</time>
      </trkpt>
      <trkpt lat="43.17551" lon="0.03301">
        <ele>418.4</ele>
        <time>2022-09-07T09:30:49Z</time>
      </trkpt>
      <trkpt lat="43.17545" lon="0.03319">
        <ele>420</ele>
        <time>2022-09-07T09:30:59Z</time>
      </trkpt>
      <trkpt lat="43.17544" lon="0.03327">
        <ele>420.4</ele>
        <time>2022-09-07T09:31:02Z</time>
      </trkpt>
      <trkpt lat="43.17542" lon="0.03332">
        <ele>421</ele>
        <time>2022-09-07T09:31:05Z</time>
      </trkpt>
      <trkpt lat="43.1754" lon="0.03338">
        <ele>421.6</ele>
        <time>2022-09-07T09:31:08Z</time>
      </trkpt>
      <trkpt lat="43.17537" lon="0.03345">
        <ele>422</ele>
        <time>2022-09-07T09:31:11Z</time>
      </trkpt>
      <trkpt lat="43.17532" lon="0.03356">
        <ele>422.4</ele>
        <time>2022-09-07T09:31:16Z</time>
      </trkpt>
      <trkpt lat="43.17528" lon="0.03364">
        <ele>423</ele>
        <time>2022-09-07T09:31:20Z</time>
      </trkpt>
      <trkpt lat="43.17525" lon="0.03369">
        <ele>423.4</ele>
        <time>2022-09-07T09:31:23Z</time>
      </trkpt>
      <trkpt lat="43.17516" lon="0.03375">
        <ele>424</ele>
        <time>2022-09-07T09:31:29Z</time>
      </trkpt>
      <trkpt lat="43.17508" lon="0.03382">
        <ele>425</ele>
        <time>2022-09-07T09:31:35Z</time>
      </trkpt>
      <trkpt lat="43.17504" lon="0.03385">
        <ele>425.2</ele>
        <time>2022-09-07T09:31:38Z</time>
      </trkpt>
      <trkpt lat="43.17498" lon="0.03388">
        <ele>425.6</ele>
        <time>2022-09-07T09:31:42Z</time>
      </trkpt>
      <trkpt lat="43.17492" lon="0.03391">
        <ele>426.2</ele>
        <time>2022-09-07T09:31:46Z</time>
      </trkpt>
      <trkpt lat="43.17488" lon="0.03394">
        <ele>426.4</ele>
        <time>2022-09-07T09:31:49Z</time>
      </trkpt>
      <trkpt lat="43.17474" lon="0.03401">
        <ele>427.2</ele>
        <time>2022-09-07T09:31:57Z</time>
      </trkpt>
      <trkpt lat="43.17465" lon="0.03408">
        <ele>427.8</ele>
        <time>2022-09-07T09:32:02Z</time>
      </trkpt>
      <trkpt lat="43.17459" lon="0.03411">
        <ele>428</ele>
        <time>2022-09-07T09:32:04Z</time>
      </trkpt>
      <trkpt lat="43.17451" lon="0.03415">
        <ele>428.4</ele>
        <time>2022-09-07T09:32:08Z</time>
      </trkpt>
      <trkpt lat="43.17447" lon="0.03417">
        <ele>428.6</ele>
        <time>2022-09-07T09:32:10Z</time>
      </trkpt>
      <trkpt lat="43.17435" lon="0.03424">
        <ele>428.8</ele>
        <time>2022-09-07T09:32:16Z</time>
      </trkpt>
      <trkpt lat="43.17425" lon="0.03432">
        <ele>429.4</ele>
        <time>2022-09-07T09:32:21Z</time>
      </trkpt>
      <trkpt lat="43.1742" lon="0.03436">
        <ele>429.6</ele>
        <time>2022-09-07T09:32:23Z</time>
      </trkpt>
      <trkpt lat="43.17402" lon="0.0345">
        <ele>430.4</ele>
        <time>2022-09-07T09:32:32Z</time>
      </trkpt>
      <trkpt lat="43.174" lon="0.03451">
        <ele>430.4</ele>
        <time>2022-09-07T09:32:33Z</time>
      </trkpt>
      <trkpt lat="43.17382" lon="0.03462">
        <ele>430.6</ele>
        <time>2022-09-07T09:32:40Z</time>
      </trkpt>
      <trkpt lat="43.17375" lon="0.03467">
        <ele>430.8</ele>
        <time>2022-09-07T09:32:43Z</time>
      </trkpt>
      <trkpt lat="43.17363" lon="0.03475">
        <ele>431</ele>
        <time>2022-09-07T09:32:48Z</time>
      </trkpt>
      <trkpt lat="43.17352" lon="0.03481">
        <ele>431.4</ele>
        <time>2022-09-07T09:32:53Z</time>
      </trkpt>
      <trkpt lat="43.17348" lon="0.03485">
        <ele>431.6</ele>
        <time>2022-09-07T09:32:55Z</time>
      </trkpt>
      <trkpt lat="43.17339" lon="0.03497">
        <ele>432.4</ele>
        <time>2022-09-07T09:33:01Z</time>
      </trkpt>
      <trkpt lat="43.17336" lon="0.03501">
        <ele>432.6</ele>
        <time>2022-09-07T09:33:03Z</time>
      </trkpt>
      <trkpt lat="43.1733" lon="0.03511">
        <ele>432.8</ele>
        <time>2022-09-07T09:33:07Z</time>
      </trkpt>
      <trkpt lat="43.17322" lon="0.03524">
        <ele>433.2</ele>
        <time>2022-09-07T09:33:12Z</time>
      </trkpt>
      <trkpt lat="43.17308" lon="0.03544">
        <ele>433.8</ele>
        <time>2022-09-07T09:33:20Z</time>
      </trkpt>
      <trkpt lat="43.17299" lon="0.0356">
        <ele>434.2</ele>
        <time>2022-09-07T09:33:26Z</time>
      </trkpt>
      <trkpt lat="43.17294" lon="0.03575">
        <ele>434.8</ele>
        <time>2022-09-07T09:33:31Z</time>
      </trkpt>
      <trkpt lat="43.17293" lon="0.03578">
        <ele>434.8</ele>
        <time>2022-09-07T09:33:32Z</time>
      </trkpt>
      <trkpt lat="43.17284" lon="0.03593">
        <ele>435.4</ele>
        <time>2022-09-07T09:33:38Z</time>
      </trkpt>
      <trkpt lat="43.17276" lon="0.03607">
        <ele>435.8</ele>
        <time>2022-09-07T09:33:43Z</time>
      </trkpt>
      <trkpt lat="43.17273" lon="0.03613">
        <ele>436.2</ele>
        <time>2022-09-07T09:33:46Z</time>
      </trkpt>
      <trkpt lat="43.17268" lon="0.03625">
        <ele>437.2</ele>
        <time>2022-09-07T09:33:51Z</time>
      </trkpt>
      <trkpt lat="43.17267" lon="0.03627">
        <ele>437.4</ele>
        <time>2022-09-07T09:33:52Z</time>
      </trkpt>
      <trkpt lat="43.17262" lon="0.03636">
        <ele>438.4</ele>
        <time>2022-09-07T09:33:57Z</time>
      </trkpt>
      <trkpt lat="43.17261" lon="0.03639">
        <ele>438.6</ele>
        <time>2022-09-07T09:33:59Z</time>
      </trkpt>
      <trkpt lat="43.17258" lon="0.03648">
        <ele>439.4</ele>
        <time>2022-09-07T09:34:04Z</time>
      </trkpt>
      <trkpt lat="43.17256" lon="0.03649">
        <ele>439.4</ele>
        <time>2022-09-07T09:34:05Z</time>
      </trkpt>
      <trkpt lat="43.1725" lon="0.0366">
        <ele>440.4</ele>
        <time>2022-09-07T09:34:11Z</time>
      </trkpt>
      <trkpt lat="43.17249" lon="0.03662">
        <ele>440.4</ele>
        <time>2022-09-07T09:34:12Z</time>
      </trkpt>
      <trkpt lat="43.17244" lon="0.0367">
        <ele>441.2</ele>
        <time>2022-09-07T09:34:17Z</time>
      </trkpt>
      <trkpt lat="43.17242" lon="0.03672">
        <ele>441.4</ele>
        <time>2022-09-07T09:34:19Z</time>
      </trkpt>
      <trkpt lat="43.17234" lon="0.03682">
        <ele>442</ele>
        <time>2022-09-07T09:34:25Z</time>
      </trkpt>
      <trkpt lat="43.1723" lon="0.03688">
        <ele>442.6</ele>
        <time>2022-09-07T09:34:29Z</time>
      </trkpt>
      <trkpt lat="43.17224" lon="0.03695">
        <ele>442.8</ele>
        <time>2022-09-07T09:34:34Z</time>
      </trkpt>
      <trkpt lat="43.17217" lon="0.03703">
        <ele>443.6</ele>
        <time>2022-09-07T09:34:40Z</time>
      </trkpt>
      <trkpt lat="43.17215" lon="0.03704">
        <ele>443.8</ele>
        <time>2022-09-07T09:34:41Z</time>
      </trkpt>
      <trkpt lat="43.17203" lon="0.03714">
        <ele>444.2</ele>
        <time>2022-09-07T09:34:49Z</time>
      </trkpt>
      <trkpt lat="43.17192" lon="0.03725">
        <ele>444.6</ele>
        <time>2022-09-07T09:34:56Z</time>
      </trkpt>
      <trkpt lat="43.17182" lon="0.03736">
        <ele>444.6</ele>
        <time>2022-09-07T09:35:02Z</time>
      </trkpt>
      <trkpt lat="43.17173" lon="0.03746">
        <ele>444.6</ele>
        <time>2022-09-07T09:35:08Z</time>
      </trkpt>
      <trkpt lat="43.17172" lon="0.03747">
        <ele>444.8</ele>
        <time>2022-09-07T09:35:09Z</time>
      </trkpt>
      <trkpt lat="43.17168" lon="0.03753">
        <ele>444.8</ele>
        <time>2022-09-07T09:35:14Z</time>
      </trkpt>
      <trkpt lat="43.17159" lon="0.03768">
        <ele>445.2</ele>
        <time>2022-09-07T09:40:04Z</time>
      </trkpt>
      <trkpt lat="43.17154" lon="0.03773">
        <ele>445.4</ele>
        <time>2022-09-07T09:40:06Z</time>
      </trkpt>
      <trkpt lat="43.17137" lon="0.03786">
        <ele>444.8</ele>
        <time>2022-09-07T09:40:11Z</time>
      </trkpt>
      <trkpt lat="43.17113" lon="0.038">
        <ele>445.2</ele>
        <time>2022-09-07T09:40:18Z</time>
      </trkpt>
      <trkpt lat="43.17093" lon="0.03814">
        <ele>445.2</ele>
        <time>2022-09-07T09:40:24Z</time>
      </trkpt>
      <trkpt lat="43.17075" lon="0.03823">
        <ele>445.2</ele>
        <time>2022-09-07T09:40:31Z</time>
      </trkpt>
      <trkpt lat="43.17055" lon="0.03835">
        <ele>445.4</ele>
        <time>2022-09-07T09:40:38Z</time>
      </trkpt>
      <trkpt lat="43.17049" lon="0.03839">
        <ele>445.8</ele>
        <time>2022-09-07T09:40:40Z</time>
      </trkpt>
      <trkpt lat="43.17034" lon="0.0385">
        <ele>445.6</ele>
        <time>2022-09-07T09:40:45Z</time>
      </trkpt>
      <trkpt lat="43.17014" lon="0.03862">
        <ele>445.8</ele>
        <time>2022-09-07T09:40:52Z</time>
      </trkpt>
      <trkpt lat="43.17" lon="0.03872">
        <ele>445.8</ele>
        <time>2022-09-07T09:40:57Z</time>
      </trkpt>
      <trkpt lat="43.1698" lon="0.03888">
        <ele>445.4</ele>
        <time>2022-09-07T09:41:04Z</time>
      </trkpt>
      <trkpt lat="43.16963" lon="0.03905">
        <ele>445</ele>
        <time>2022-09-07T09:41:09Z</time>
      </trkpt>
      <trkpt lat="43.16956" lon="0.0391">
        <ele>444.8</ele>
        <time>2022-09-07T09:41:11Z</time>
      </trkpt>
      <trkpt lat="43.1694" lon="0.03922">
        <ele>444.4</ele>
        <time>2022-09-07T09:41:15Z</time>
      </trkpt>
      <trkpt lat="43.16928" lon="0.0393">
        <ele>443.8</ele>
        <time>2022-09-07T09:41:18Z</time>
      </trkpt>
      <trkpt lat="43.16924" lon="0.03932">
        <ele>443.8</ele>
        <time>2022-09-07T09:41:19Z</time>
      </trkpt>
      <trkpt lat="43.16912" lon="0.03941">
        <ele>443.4</ele>
        <time>2022-09-07T09:41:22Z</time>
      </trkpt>
      <trkpt lat="43.16905" lon="0.03948">
        <ele>443.4</ele>
        <time>2022-09-07T09:41:24Z</time>
      </trkpt>
      <trkpt lat="43.16901" lon="0.03952">
        <ele>443.6</ele>
        <time>2022-09-07T09:41:25Z</time>
      </trkpt>
      <trkpt lat="43.1689" lon="0.03969">
        <ele>443.4</ele>
        <time>2022-09-07T09:41:30Z</time>
      </trkpt>
      <trkpt lat="43.16876" lon="0.03988">
        <ele>443.8</ele>
        <time>2022-09-07T09:41:35Z</time>
      </trkpt>
      <trkpt lat="43.16864" lon="0.0401">
        <ele>443.6</ele>
        <time>2022-09-07T09:41:41Z</time>
      </trkpt>
      <trkpt lat="43.16852" lon="0.04031">
        <ele>443.6</ele>
        <time>2022-09-07T09:41:47Z</time>
      </trkpt>
      <trkpt lat="43.16838" lon="0.04054">
        <ele>443</ele>
        <time>2022-09-07T09:41:54Z</time>
      </trkpt>
      <trkpt lat="43.16827" lon="0.04068">
        <ele>442.6</ele>
        <time>2022-09-07T09:41:58Z</time>
      </trkpt>
      <trkpt lat="43.16821" lon="0.04075">
        <ele>442.2</ele>
        <time>2022-09-07T09:42:00Z</time>
      </trkpt>
      <trkpt lat="43.16798" lon="0.04096">
        <ele>442</ele>
        <time>2022-09-07T09:42:06Z</time>
      </trkpt>
      <trkpt lat="43.16777" lon="0.04115">
        <ele>441.6</ele>
        <time>2022-09-07T09:42:12Z</time>
      </trkpt>
      <trkpt lat="43.16774" lon="0.04118">
        <ele>441.6</ele>
        <time>2022-09-07T09:42:13Z</time>
      </trkpt>
      <trkpt lat="43.16754" lon="0.04144">
        <ele>441.4</ele>
        <time>2022-09-07T09:42:21Z</time>
      </trkpt>
      <trkpt lat="43.16743" lon="0.04163">
        <ele>441.6</ele>
        <time>2022-09-07T09:42:27Z</time>
      </trkpt>
      <trkpt lat="43.1673" lon="0.04188">
        <ele>441.8</ele>
        <time>2022-09-07T09:42:34Z</time>
      </trkpt>
      <trkpt lat="43.16718" lon="0.04211">
        <ele>441.8</ele>
        <time>2022-09-07T09:42:40Z</time>
      </trkpt>
      <trkpt lat="43.16705" lon="0.04236">
        <ele>442.2</ele>
        <time>2022-09-07T09:42:47Z</time>
      </trkpt>
      <trkpt lat="43.16697" lon="0.04251">
        <ele>442.8</ele>
        <time>2022-09-07T09:42:51Z</time>
      </trkpt>
      <trkpt lat="43.16691" lon="0.04262">
        <ele>443.4</ele>
        <time>2022-09-07T09:42:54Z</time>
      </trkpt>
      <trkpt lat="43.16669" lon="0.04295">
        <ele>443.4</ele>
        <time>2022-09-07T09:43:04Z</time>
      </trkpt>
      <trkpt lat="43.16656" lon="0.04321">
        <ele>443.8</ele>
        <time>2022-09-07T09:43:11Z</time>
      </trkpt>
      <trkpt lat="43.16649" lon="0.04335">
        <ele>443.8</ele>
        <time>2022-09-07T09:43:15Z</time>
      </trkpt>
      <trkpt lat="43.16642" lon="0.04344">
        <ele>444</ele>
        <time>2022-09-07T09:43:18Z</time>
      </trkpt>
      <trkpt lat="43.16627" lon="0.04369">
        <ele>444.6</ele>
        <time>2022-09-07T09:43:26Z</time>
      </trkpt>
      <trkpt lat="43.16613" lon="0.04396">
        <ele>444.6</ele>
        <time>2022-09-07T09:43:33Z</time>
      </trkpt>
      <trkpt lat="43.16595" lon="0.04421">
        <ele>445</ele>
        <time>2022-09-07T09:43:41Z</time>
      </trkpt>
      <trkpt lat="43.16574" lon="0.04439">
        <ele>444</ele>
        <time>2022-09-07T09:43:49Z</time>
      </trkpt>
      <trkpt lat="43.16564" lon="0.04443">
        <ele>443.6</ele>
        <time>2022-09-07T09:43:52Z</time>
      </trkpt>
      <trkpt lat="43.16554" lon="0.04445">
        <ele>443.4</ele>
        <time>2022-09-07T09:43:56Z</time>
      </trkpt>
      <trkpt lat="43.16544" lon="0.04436">
        <ele>442.6</ele>
        <time>2022-09-07T09:44:01Z</time>
      </trkpt>
      <trkpt lat="43.16542" lon="0.04435">
        <ele>442.6</ele>
        <time>2022-09-07T09:44:02Z</time>
      </trkpt>
      <trkpt lat="43.16538" lon="0.04431">
        <ele>441.8</ele>
        <time>2022-09-07T09:44:13Z</time>
      </trkpt>
      <trkpt lat="43.16534" lon="0.04425">
        <ele>441.8</ele>
        <time>2022-09-07T09:44:15Z</time>
      </trkpt>
      <trkpt lat="43.16531" lon="0.04421">
        <ele>441.2</ele>
        <time>2022-09-07T09:44:16Z</time>
      </trkpt>
      <trkpt lat="43.1652" lon="0.04405">
        <ele>440.2</ele>
        <time>2022-09-07T09:44:19Z</time>
      </trkpt>
      <trkpt lat="43.16509" lon="0.04379">
        <ele>438.6</ele>
        <time>2022-09-07T09:44:22Z</time>
      </trkpt>
      <trkpt lat="43.16504" lon="0.0437">
        <ele>437.6</ele>
        <time>2022-09-07T09:44:23Z</time>
      </trkpt>
      <trkpt lat="43.165" lon="0.04361">
        <ele>437.2</ele>
        <time>2022-09-07T09:44:24Z</time>
      </trkpt>
      <trkpt lat="43.16492" lon="0.04342">
        <ele>435.6</ele>
        <time>2022-09-07T09:44:26Z</time>
      </trkpt>
      <trkpt lat="43.16488" lon="0.04333">
        <ele>434.4</ele>
        <time>2022-09-07T09:44:27Z</time>
      </trkpt>
      <trkpt lat="43.16481" lon="0.04314">
        <ele>432.6</ele>
        <time>2022-09-07T09:44:29Z</time>
      </trkpt>
      <trkpt lat="43.16476" lon="0.04297">
        <ele>431.4</ele>
        <time>2022-09-07T09:44:31Z</time>
      </trkpt>
      <trkpt lat="43.16474" lon="0.04282">
        <ele>430.2</ele>
        <time>2022-09-07T09:44:33Z</time>
      </trkpt>
      <trkpt lat="43.16472" lon="0.04267">
        <ele>428.8</ele>
        <time>2022-09-07T09:44:35Z</time>
      </trkpt>
      <trkpt lat="43.16472" lon="0.04253">
        <ele>427.6</ele>
        <time>2022-09-07T09:44:37Z</time>
      </trkpt>
      <trkpt lat="43.16471" lon="0.04246">
        <ele>427.2</ele>
        <time>2022-09-07T09:44:38Z</time>
      </trkpt>
      <trkpt lat="43.1647" lon="0.04239">
        <ele>426.6</ele>
        <time>2022-09-07T09:44:39Z</time>
      </trkpt>
      <trkpt lat="43.16468" lon="0.04233">
        <ele>425.8</ele>
        <time>2022-09-07T09:44:40Z</time>
      </trkpt>
      <trkpt lat="43.16466" lon="0.04228">
        <ele>425.2</ele>
        <time>2022-09-07T09:44:41Z</time>
      </trkpt>
      <trkpt lat="43.16463" lon="0.04224">
        <ele>424.6</ele>
        <time>2022-09-07T09:44:42Z</time>
      </trkpt>
      <trkpt lat="43.16461" lon="0.0422">
        <ele>423.8</ele>
        <time>2022-09-07T09:44:43Z</time>
      </trkpt>
      <trkpt lat="43.16453" lon="0.04217">
        <ele>422.6</ele>
        <time>2022-09-07T09:44:45Z</time>
      </trkpt>
      <trkpt lat="43.16448" lon="0.04217">
        <ele>422</ele>
        <time>2022-09-07T09:44:46Z</time>
      </trkpt>
      <trkpt lat="43.16442" lon="0.04217">
        <ele>421.4</ele>
        <time>2022-09-07T09:44:47Z</time>
      </trkpt>
      <trkpt lat="43.1643" lon="0.0422">
        <ele>420.4</ele>
        <time>2022-09-07T09:44:49Z</time>
      </trkpt>
      <trkpt lat="43.16425" lon="0.04222">
        <ele>420.2</ele>
        <time>2022-09-07T09:44:50Z</time>
      </trkpt>
      <trkpt lat="43.16412" lon="0.04226">
        <ele>419</ele>
        <time>2022-09-07T09:44:53Z</time>
      </trkpt>
      <trkpt lat="43.16409" lon="0.04227">
        <ele>418.6</ele>
        <time>2022-09-07T09:44:54Z</time>
      </trkpt>
      <trkpt lat="43.16403" lon="0.04226">
        <ele>417.8</ele>
        <time>2022-09-07T09:44:56Z</time>
      </trkpt>
      <trkpt lat="43.16394" lon="0.04224">
        <ele>417</ele>
        <time>2022-09-07T09:44:58Z</time>
      </trkpt>
      <trkpt lat="43.16388" lon="0.04225">
        <ele>416.8</ele>
        <time>2022-09-07T09:44:59Z</time>
      </trkpt>
      <trkpt lat="43.16376" lon="0.04231">
        <ele>415.8</ele>
        <time>2022-09-07T09:45:01Z</time>
      </trkpt>
      <trkpt lat="43.16369" lon="0.04236">
        <ele>415.4</ele>
        <time>2022-09-07T09:45:02Z</time>
      </trkpt>
      <trkpt lat="43.16362" lon="0.04242">
        <ele>414.8</ele>
        <time>2022-09-07T09:45:03Z</time>
      </trkpt>
      <trkpt lat="43.16355" lon="0.04249">
        <ele>413.2</ele>
        <time>2022-09-07T09:45:04Z</time>
      </trkpt>
      <trkpt lat="43.16348" lon="0.04257">
        <ele>412.6</ele>
        <time>2022-09-07T09:45:05Z</time>
      </trkpt>
      <trkpt lat="43.16341" lon="0.04265">
        <ele>412</ele>
        <time>2022-09-07T09:45:06Z</time>
      </trkpt>
      <trkpt lat="43.16327" lon="0.04281">
        <ele>410.4</ele>
        <time>2022-09-07T09:45:08Z</time>
      </trkpt>
      <trkpt lat="43.16321" lon="0.04291">
        <ele>409.6</ele>
        <time>2022-09-07T09:45:09Z</time>
      </trkpt>
      <trkpt lat="43.16317" lon="0.04302">
        <ele>408.4</ele>
        <time>2022-09-07T09:45:10Z</time>
      </trkpt>
      <trkpt lat="43.16313" lon="0.04314">
        <ele>407.4</ele>
        <time>2022-09-07T09:45:11Z</time>
      </trkpt>
      <trkpt lat="43.16309" lon="0.04326">
        <ele>406.2</ele>
        <time>2022-09-07T09:45:12Z</time>
      </trkpt>
      <trkpt lat="43.16306" lon="0.04338">
        <ele>405.8</ele>
        <time>2022-09-07T09:45:13Z</time>
      </trkpt>
      <trkpt lat="43.16303" lon="0.0435">
        <ele>405.2</ele>
        <time>2022-09-07T09:45:14Z</time>
      </trkpt>
      <trkpt lat="43.16296" lon="0.04369">
        <ele>403.6</ele>
        <time>2022-09-07T09:45:16Z</time>
      </trkpt>
      <trkpt lat="43.16291" lon="0.04376">
        <ele>402.4</ele>
        <time>2022-09-07T09:45:17Z</time>
      </trkpt>
      <trkpt lat="43.16278" lon="0.04378">
        <ele>401</ele>
        <time>2022-09-07T09:45:19Z</time>
      </trkpt>
      <trkpt lat="43.16269" lon="0.04368">
        <ele>399.8</ele>
        <time>2022-09-07T09:45:21Z</time>
      </trkpt>
      <trkpt lat="43.16266" lon="0.04359">
        <ele>398.8</ele>
        <time>2022-09-07T09:45:22Z</time>
      </trkpt>
      <trkpt lat="43.16264" lon="0.0435">
        <ele>398.4</ele>
        <time>2022-09-07T09:45:23Z</time>
      </trkpt>
      <trkpt lat="43.16261" lon="0.04328">
        <ele>396.8</ele>
        <time>2022-09-07T09:45:25Z</time>
      </trkpt>
      <trkpt lat="43.1626" lon="0.04316">
        <ele>396</ele>
        <time>2022-09-07T09:45:26Z</time>
      </trkpt>
      <trkpt lat="43.16259" lon="0.04303">
        <ele>395.2</ele>
        <time>2022-09-07T09:45:27Z</time>
      </trkpt>
      <trkpt lat="43.16258" lon="0.04288">
        <ele>393</ele>
        <time>2022-09-07T09:45:28Z</time>
      </trkpt>
      <trkpt lat="43.16257" lon="0.04274">
        <ele>391.6</ele>
        <time>2022-09-07T09:45:29Z</time>
      </trkpt>
      <trkpt lat="43.16256" lon="0.0426">
        <ele>390.4</ele>
        <time>2022-09-07T09:45:30Z</time>
      </trkpt>
      <trkpt lat="43.16254" lon="0.04244">
        <ele>389.2</ele>
        <time>2022-09-07T09:45:31Z</time>
      </trkpt>
      <trkpt lat="43.16252" lon="0.04215">
        <ele>387.6</ele>
        <time>2022-09-07T09:45:33Z</time>
      </trkpt>
      <trkpt lat="43.16252" lon="0.04201">
        <ele>386.6</ele>
        <time>2022-09-07T09:45:34Z</time>
      </trkpt>
      <trkpt lat="43.16253" lon="0.04187">
        <ele>385.8</ele>
        <time>2022-09-07T09:45:35Z</time>
      </trkpt>
      <trkpt lat="43.16259" lon="0.04161">
        <ele>384.2</ele>
        <time>2022-09-07T09:45:37Z</time>
      </trkpt>
      <trkpt lat="43.16264" lon="0.04148">
        <ele>383.2</ele>
        <time>2022-09-07T09:45:38Z</time>
      </trkpt>
      <trkpt lat="43.16269" lon="0.04136">
        <ele>382.4</ele>
        <time>2022-09-07T09:45:39Z</time>
      </trkpt>
      <trkpt lat="43.16275" lon="0.04124">
        <ele>381.8</ele>
        <time>2022-09-07T09:45:40Z</time>
      </trkpt>
      <trkpt lat="43.16281" lon="0.04112">
        <ele>381.4</ele>
        <time>2022-09-07T09:45:41Z</time>
      </trkpt>
      <trkpt lat="43.16284" lon="0.04098">
        <ele>380.8</ele>
        <time>2022-09-07T09:45:42Z</time>
      </trkpt>
      <trkpt lat="43.16288" lon="0.04069">
        <ele>378.8</ele>
        <time>2022-09-07T09:45:44Z</time>
      </trkpt>
      <trkpt lat="43.16288" lon="0.04055">
        <ele>377.8</ele>
        <time>2022-09-07T09:45:45Z</time>
      </trkpt>
      <trkpt lat="43.16288" lon="0.04041">
        <ele>377</ele>
        <time>2022-09-07T09:45:46Z</time>
      </trkpt>
      <trkpt lat="43.1629" lon="0.04029">
        <ele>376.2</ele>
        <time>2022-09-07T09:45:47Z</time>
      </trkpt>
      <trkpt lat="43.16293" lon="0.04018">
        <ele>375.4</ele>
        <time>2022-09-07T09:45:48Z</time>
      </trkpt>
      <trkpt lat="43.16298" lon="0.04008">
        <ele>374.2</ele>
        <time>2022-09-07T09:45:49Z</time>
      </trkpt>
      <trkpt lat="43.16305" lon="0.03999">
        <ele>373.4</ele>
        <time>2022-09-07T09:45:50Z</time>
      </trkpt>
      <trkpt lat="43.16313" lon="0.03992">
        <ele>372.4</ele>
        <time>2022-09-07T09:45:51Z</time>
      </trkpt>
      <trkpt lat="43.16322" lon="0.03986">
        <ele>370</ele>
        <time>2022-09-07T09:45:52Z</time>
      </trkpt>
      <trkpt lat="43.16331" lon="0.03979">
        <ele>368.8</ele>
        <time>2022-09-07T09:45:53Z</time>
      </trkpt>
      <trkpt lat="43.1634" lon="0.03972">
        <ele>368.2</ele>
        <time>2022-09-07T09:45:54Z</time>
      </trkpt>
      <trkpt lat="43.16349" lon="0.03964">
        <ele>367.8</ele>
        <time>2022-09-07T09:45:55Z</time>
      </trkpt>
      <trkpt lat="43.16367" lon="0.0395">
        <ele>366.6</ele>
        <time>2022-09-07T09:45:57Z</time>
      </trkpt>
      <trkpt lat="43.16376" lon="0.03943">
        <ele>365.8</ele>
        <time>2022-09-07T09:45:58Z</time>
      </trkpt>
      <trkpt lat="43.16383" lon="0.03932">
        <ele>365.2</ele>
        <time>2022-09-07T09:45:59Z</time>
      </trkpt>
      <trkpt lat="43.16389" lon="0.0392">
        <ele>364</ele>
        <time>2022-09-07T09:46:00Z</time>
      </trkpt>
      <trkpt lat="43.16395" lon="0.03894">
        <ele>362.4</ele>
        <time>2022-09-07T09:46:02Z</time>
      </trkpt>
      <trkpt lat="43.16398" lon="0.0388">
        <ele>361.4</ele>
        <time>2022-09-07T09:46:03Z</time>
      </trkpt>
      <trkpt lat="43.16403" lon="0.03867">
        <ele>360</ele>
        <time>2022-09-07T09:46:04Z</time>
      </trkpt>
      <trkpt lat="43.16413" lon="0.03841">
        <ele>358.4</ele>
        <time>2022-09-07T09:46:06Z</time>
      </trkpt>
      <trkpt lat="43.16425" lon="0.03818">
        <ele>357</ele>
        <time>2022-09-07T09:46:08Z</time>
      </trkpt>
      <trkpt lat="43.16431" lon="0.03808">
        <ele>356.4</ele>
        <time>2022-09-07T09:46:09Z</time>
      </trkpt>
      <trkpt lat="43.16438" lon="0.03798">
        <ele>355.2</ele>
        <time>2022-09-07T09:46:10Z</time>
      </trkpt>
      <trkpt lat="43.16445" lon="0.03788">
        <ele>353.8</ele>
        <time>2022-09-07T09:46:11Z</time>
      </trkpt>
      <trkpt lat="43.16452" lon="0.03779">
        <ele>352.6</ele>
        <time>2022-09-07T09:46:12Z</time>
      </trkpt>
      <trkpt lat="43.16466" lon="0.0376">
        <ele>351</ele>
        <time>2022-09-07T09:46:14Z</time>
      </trkpt>
      <trkpt lat="43.16472" lon="0.03749">
        <ele>349.8</ele>
        <time>2022-09-07T09:46:15Z</time>
      </trkpt>
      <trkpt lat="43.16477" lon="0.03739">
        <ele>347.8</ele>
        <time>2022-09-07T09:46:16Z</time>
      </trkpt>
      <trkpt lat="43.16485" lon="0.03715">
        <ele>346.2</ele>
        <time>2022-09-07T09:46:18Z</time>
      </trkpt>
      <trkpt lat="43.16488" lon="0.03702">
        <ele>345.8</ele>
        <time>2022-09-07T09:46:19Z</time>
      </trkpt>
      <trkpt lat="43.1649" lon="0.03689">
        <ele>345.4</ele>
        <time>2022-09-07T09:46:20Z</time>
      </trkpt>
      <trkpt lat="43.16491" lon="0.03677">
        <ele>345.2</ele>
        <time>2022-09-07T09:46:21Z</time>
      </trkpt>
      <trkpt lat="43.16493" lon="0.03654">
        <ele>344</ele>
        <time>2022-09-07T09:46:23Z</time>
      </trkpt>
      <trkpt lat="43.16494" lon="0.03645">
        <ele>343.4</ele>
        <time>2022-09-07T09:46:24Z</time>
      </trkpt>
      <trkpt lat="43.16496" lon="0.0362">
        <ele>342.4</ele>
        <time>2022-09-07T09:46:27Z</time>
      </trkpt>
      <trkpt lat="43.16497" lon="0.03606">
        <ele>341.6</ele>
        <time>2022-09-07T09:46:29Z</time>
      </trkpt>
      <trkpt lat="43.16499" lon="0.03599">
        <ele>341.4</ele>
        <time>2022-09-07T09:46:30Z</time>
      </trkpt>
      <trkpt lat="43.16504" lon="0.03584">
        <ele>341.2</ele>
        <time>2022-09-07T09:46:33Z</time>
      </trkpt>
      <trkpt lat="43.16509" lon="0.03576">
        <ele>341</ele>
        <time>2022-09-07T09:46:37Z</time>
      </trkpt>
      <trkpt lat="43.16509" lon="0.03571">
        <ele>341</ele>
        <time>2022-09-07T09:46:39Z</time>
      </trkpt>
      <trkpt lat="43.16506" lon="0.03567">
        <ele>341</ele>
        <time>2022-09-07T09:46:41Z</time>
      </trkpt>
      <trkpt lat="43.16498" lon="0.0357">
        <ele>340.8</ele>
        <time>2022-09-07T09:46:44Z</time>
      </trkpt>
      <trkpt lat="43.16493" lon="0.03573">
        <ele>340.8</ele>
        <time>2022-09-07T09:46:46Z</time>
      </trkpt>
      <trkpt lat="43.16465" lon="0.03581">
        <ele>341.2</ele>
        <time>2022-09-07T09:46:54Z</time>
      </trkpt>
      <trkpt lat="43.1643" lon="0.03592">
        <ele>341.4</ele>
        <time>2022-09-07T09:47:03Z</time>
      </trkpt>
      <trkpt lat="43.16392" lon="0.03591">
        <ele>342</ele>
        <time>2022-09-07T09:47:13Z</time>
      </trkpt>
      <trkpt lat="43.16369" lon="0.03588">
        <ele>342.4</ele>
        <time>2022-09-07T09:47:19Z</time>
      </trkpt>
      <trkpt lat="43.16358" lon="0.03587">
        <ele>342.6</ele>
        <time>2022-09-07T09:47:22Z</time>
      </trkpt>
      <trkpt lat="43.1634" lon="0.03582">
        <ele>342.4</ele>
        <time>2022-09-07T09:47:28Z</time>
      </trkpt>
      <trkpt lat="43.16322" lon="0.03579">
        <ele>342.4</ele>
        <time>2022-09-07T09:47:35Z</time>
      </trkpt>
      <trkpt lat="43.16309" lon="0.03577">
        <ele>342.2</ele>
        <time>2022-09-07T09:47:41Z</time>
      </trkpt>
      <trkpt lat="43.16287" lon="0.03573">
        <ele>342.4</ele>
        <time>2022-09-07T09:47:49Z</time>
      </trkpt>
      <trkpt lat="43.16265" lon="0.03568">
        <ele>341.8</ele>
        <time>2022-09-07T09:47:56Z</time>
      </trkpt>
      <trkpt lat="43.16255" lon="0.03564">
        <ele>341.4</ele>
        <time>2022-09-07T09:47:59Z</time>
      </trkpt>
      <trkpt lat="43.16241" lon="0.03558">
        <ele>341.4</ele>
        <time>2022-09-07T09:48:03Z</time>
      </trkpt>
      <trkpt lat="43.16209" lon="0.03546">
        <ele>341.6</ele>
        <time>2022-09-07T09:48:11Z</time>
      </trkpt>
      <trkpt lat="43.16173" lon="0.0353">
        <ele>342</ele>
        <time>2022-09-07T09:48:20Z</time>
      </trkpt>
      <trkpt lat="43.16137" lon="0.03509">
        <ele>342.2</ele>
        <time>2022-09-07T09:48:29Z</time>
      </trkpt>
      <trkpt lat="43.16113" lon="0.03498">
        <ele>342.4</ele>
        <time>2022-09-07T09:48:36Z</time>
      </trkpt>
      <trkpt lat="43.16106" lon="0.03495">
        <ele>342.6</ele>
        <time>2022-09-07T09:48:38Z</time>
      </trkpt>
      <trkpt lat="43.16083" lon="0.03485">
        <ele>342.4</ele>
        <time>2022-09-07T09:48:45Z</time>
      </trkpt>
      <trkpt lat="43.16053" lon="0.03474">
        <ele>342</ele>
        <time>2022-09-07T09:48:53Z</time>
      </trkpt>
      <trkpt lat="43.16049" lon="0.03474">
        <ele>342</ele>
        <time>2022-09-07T09:48:54Z</time>
      </trkpt>
      <trkpt lat="43.1603" lon="0.03476">
        <ele>341.8</ele>
        <time>2022-09-07T09:48:59Z</time>
      </trkpt>
      <trkpt lat="43.16018" lon="0.03474">
        <ele>342</ele>
        <time>2022-09-07T09:49:02Z</time>
      </trkpt>
      <trkpt lat="43.16011" lon="0.03469">
        <ele>342.2</ele>
        <time>2022-09-07T09:49:04Z</time>
      </trkpt>
      <trkpt lat="43.16002" lon="0.03458">
        <ele>342.2</ele>
        <time>2022-09-07T09:49:07Z</time>
      </trkpt>
      <trkpt lat="43.15999" lon="0.03454">
        <ele>342.2</ele>
        <time>2022-09-07T09:49:08Z</time>
      </trkpt>
      <trkpt lat="43.15991" lon="0.0345">
        <ele>342</ele>
        <time>2022-09-07T09:49:10Z</time>
      </trkpt>
      <trkpt lat="43.15975" lon="0.0345">
        <ele>342.4</ele>
        <time>2022-09-07T09:49:14Z</time>
      </trkpt>
      <trkpt lat="43.15971" lon="0.03452">
        <ele>342.6</ele>
        <time>2022-09-07T09:49:15Z</time>
      </trkpt>
      <trkpt lat="43.15955" lon="0.03462">
        <ele>342.4</ele>
        <time>2022-09-07T09:49:19Z</time>
      </trkpt>
      <trkpt lat="43.15947" lon="0.03468">
        <ele>342.4</ele>
        <time>2022-09-07T09:49:21Z</time>
      </trkpt>
      <trkpt lat="43.15923" lon="0.0349">
        <ele>343.2</ele>
        <time>2022-09-07T09:49:28Z</time>
      </trkpt>
      <trkpt lat="43.15913" lon="0.03501">
        <ele>343.6</ele>
        <time>2022-09-07T09:49:31Z</time>
      </trkpt>
      <trkpt lat="43.15892" lon="0.03519">
        <ele>344</ele>
        <time>2022-09-07T09:49:37Z</time>
      </trkpt>
      <trkpt lat="43.15872" lon="0.03524">
        <ele>344.6</ele>
        <time>2022-09-07T09:49:42Z</time>
      </trkpt>
      <trkpt lat="43.15863" lon="0.03524">
        <ele>344.8</ele>
        <time>2022-09-07T09:49:44Z</time>
      </trkpt>
      <trkpt lat="43.15835" lon="0.03522">
        <ele>345.6</ele>
        <time>2022-09-07T09:49:51Z</time>
      </trkpt>
      <trkpt lat="43.15832" lon="0.03522">
        <ele>345.8</ele>
        <time>2022-09-07T09:49:52Z</time>
      </trkpt>
      <trkpt lat="43.15807" lon="0.03516">
        <ele>347</ele>
        <time>2022-09-07T09:49:59Z</time>
      </trkpt>
      <trkpt lat="43.15781" lon="0.03511">
        <ele>347.6</ele>
        <time>2022-09-07T09:50:07Z</time>
      </trkpt>
      <trkpt lat="43.15768" lon="0.03508">
        <ele>348</ele>
        <time>2022-09-07T09:50:11Z</time>
      </trkpt>
      <trkpt lat="43.15743" lon="0.03502">
        <ele>348.8</ele>
        <time>2022-09-07T09:50:19Z</time>
      </trkpt>
      <trkpt lat="43.15737" lon="0.035">
        <ele>349.2</ele>
        <time>2022-09-07T09:50:21Z</time>
      </trkpt>
      <trkpt lat="43.15722" lon="0.03496">
        <ele>349.4</ele>
        <time>2022-09-07T09:50:26Z</time>
      </trkpt>
      <trkpt lat="43.157" lon="0.03491">
        <ele>350.2</ele>
        <time>2022-09-07T09:50:33Z</time>
      </trkpt>
      <trkpt lat="43.15677" lon="0.03493">
        <ele>351.2</ele>
        <time>2022-09-07T09:50:41Z</time>
      </trkpt>
      <trkpt lat="43.15674" lon="0.03493">
        <ele>351.2</ele>
        <time>2022-09-07T09:50:42Z</time>
      </trkpt>
      <trkpt lat="43.15662" lon="0.03484">
        <ele>351.4</ele>
        <time>2022-09-07T09:50:47Z</time>
      </trkpt>
      <trkpt lat="43.15658" lon="0.03475">
        <ele>351</ele>
        <time>2022-09-07T09:50:49Z</time>
      </trkpt>
      <trkpt lat="43.15653" lon="0.03457">
        <ele>350.4</ele>
        <time>2022-09-07T09:50:52Z</time>
      </trkpt>
      <trkpt lat="43.15651" lon="0.0345">
        <ele>350.2</ele>
        <time>2022-09-07T09:50:53Z</time>
      </trkpt>
      <trkpt lat="43.15642" lon="0.03408">
        <ele>349.4</ele>
        <time>2022-09-07T09:50:59Z</time>
      </trkpt>
      <trkpt lat="43.15638" lon="0.03396">
        <ele>349</ele>
        <time>2022-09-07T09:51:01Z</time>
      </trkpt>
      <trkpt lat="43.15636" lon="0.0339">
        <ele>349</ele>
        <time>2022-09-07T09:51:02Z</time>
      </trkpt>
      <trkpt lat="43.15628" lon="0.03366">
        <ele>349.4</ele>
        <time>2022-09-07T09:51:06Z</time>
      </trkpt>
      <trkpt lat="43.15608" lon="0.03323">
        <ele>349.2</ele>
        <time>2022-09-07T09:51:14Z</time>
      </trkpt>
      <trkpt lat="43.15585" lon="0.03282">
        <ele>349.4</ele>
        <time>2022-09-07T09:51:22Z</time>
      </trkpt>
      <trkpt lat="43.1556" lon="0.03246">
        <ele>348.6</ele>
        <time>2022-09-07T09:51:30Z</time>
      </trkpt>
      <trkpt lat="43.15542" lon="0.03214">
        <ele>348.8</ele>
        <time>2022-09-07T09:51:37Z</time>
      </trkpt>
      <trkpt lat="43.1554" lon="0.03209">
        <ele>348.8</ele>
        <time>2022-09-07T09:51:38Z</time>
      </trkpt>
      <trkpt lat="43.15536" lon="0.03199">
        <ele>348.6</ele>
        <time>2022-09-07T09:51:40Z</time>
      </trkpt>
      <trkpt lat="43.15531" lon="0.03183">
        <ele>348.2</ele>
        <time>2022-09-07T09:51:43Z</time>
      </trkpt>
      <trkpt lat="43.15528" lon="0.03171">
        <ele>347.8</ele>
        <time>2022-09-07T09:51:45Z</time>
      </trkpt>
      <trkpt lat="43.15517" lon="0.03141">
        <ele>347.4</ele>
        <time>2022-09-07T09:51:50Z</time>
      </trkpt>
      <trkpt lat="43.15512" lon="0.03128">
        <ele>346.8</ele>
        <time>2022-09-07T09:51:52Z</time>
      </trkpt>
      <trkpt lat="43.15499" lon="0.03096">
        <ele>346.8</ele>
        <time>2022-09-07T09:51:57Z</time>
      </trkpt>
      <trkpt lat="43.15478" lon="0.03051">
        <ele>345.8</ele>
        <time>2022-09-07T09:52:06Z</time>
      </trkpt>
      <trkpt lat="43.15473" lon="0.03041">
        <ele>345.6</ele>
        <time>2022-09-07T09:52:08Z</time>
      </trkpt>
      <trkpt lat="43.15463" lon="0.03023">
        <ele>345.8</ele>
        <time>2022-09-07T09:52:12Z</time>
      </trkpt>
      <trkpt lat="43.15445" lon="0.02988">
        <ele>345.8</ele>
        <time>2022-09-07T09:52:19Z</time>
      </trkpt>
      <trkpt lat="43.15443" lon="0.02982">
        <ele>345.8</ele>
        <time>2022-09-07T09:52:20Z</time>
      </trkpt>
      <trkpt lat="43.15433" lon="0.02942">
        <ele>346.2</ele>
        <time>2022-09-07T09:52:27Z</time>
      </trkpt>
      <trkpt lat="43.15432" lon="0.02936">
        <ele>346</ele>
        <time>2022-09-07T09:52:28Z</time>
      </trkpt>
      <trkpt lat="43.15421" lon="0.02891">
        <ele>346</ele>
        <time>2022-09-07T09:52:36Z</time>
      </trkpt>
      <trkpt lat="43.15408" lon="0.0284">
        <ele>346.2</ele>
        <time>2022-09-07T09:52:45Z</time>
      </trkpt>
      <trkpt lat="43.15405" lon="0.02829">
        <ele>346.6</ele>
        <time>2022-09-07T09:52:47Z</time>
      </trkpt>
      <trkpt lat="43.154" lon="0.02807">
        <ele>346.2</ele>
        <time>2022-09-07T09:52:51Z</time>
      </trkpt>
      <trkpt lat="43.15394" lon="0.02755">
        <ele>346.4</ele>
        <time>2022-09-07T09:53:00Z</time>
      </trkpt>
      <trkpt lat="43.15395" lon="0.02722">
        <ele>347</ele>
        <time>2022-09-07T09:53:06Z</time>
      </trkpt>
      <trkpt lat="43.15395" lon="0.02717">
        <ele>347</ele>
        <time>2022-09-07T09:53:07Z</time>
      </trkpt>
      <trkpt lat="43.15391" lon="0.02689">
        <ele>347.6</ele>
        <time>2022-09-07T09:53:13Z</time>
      </trkpt>
      <trkpt lat="43.15387" lon="0.02654">
        <ele>348</ele>
        <time>2022-09-07T09:53:20Z</time>
      </trkpt>
      <trkpt lat="43.15385" lon="0.02639">
        <ele>348</ele>
        <time>2022-09-07T09:53:23Z</time>
      </trkpt>
      <trkpt lat="43.15379" lon="0.02605">
        <ele>348.2</ele>
        <time>2022-09-07T09:53:30Z</time>
      </trkpt>
      <trkpt lat="43.1537" lon="0.0258">
        <ele>348.2</ele>
        <time>2022-09-07T09:53:36Z</time>
      </trkpt>
      <trkpt lat="43.15355" lon="0.02571">
        <ele>348.6</ele>
        <time>2022-09-07T09:53:41Z</time>
      </trkpt>
      <trkpt lat="43.15328" lon="0.02572">
        <ele>348.8</ele>
        <time>2022-09-07T09:53:48Z</time>
      </trkpt>
      <trkpt lat="43.15325" lon="0.02572">
        <ele>349</ele>
        <time>2022-09-07T09:53:49Z</time>
      </trkpt>
      <trkpt lat="43.15314" lon="0.02572">
        <ele>349.4</ele>
        <time>2022-09-07T09:53:53Z</time>
      </trkpt>
      <trkpt lat="43.15309" lon="0.02563">
        <ele>350</ele>
        <time>2022-09-07T09:53:57Z</time>
      </trkpt>
      <trkpt lat="43.1531" lon="0.02555">
        <ele>350</ele>
        <time>2022-09-07T09:53:59Z</time>
      </trkpt>
      <trkpt lat="43.15309" lon="0.02542">
        <ele>350.2</ele>
        <time>2022-09-07T09:54:02Z</time>
      </trkpt>
      <trkpt lat="43.1531" lon="0.02511">
        <ele>349.4</ele>
        <time>2022-09-07T09:54:09Z</time>
      </trkpt>
      <trkpt lat="43.15309" lon="0.025">
        <ele>349</ele>
        <time>2022-09-07T09:54:13Z</time>
      </trkpt>
      <trkpt lat="43.15307" lon="0.02498">
        <ele>349</ele>
        <time>2022-09-07T09:54:14Z</time>
      </trkpt>
      <trkpt lat="43.153" lon="0.02492">
        <ele>349.2</ele>
        <time>2022-09-07T09:54:17Z</time>
      </trkpt>
      <trkpt lat="43.15282" lon="0.02487">
        <ele>349.6</ele>
        <time>2022-09-07T09:54:22Z</time>
      </trkpt>
      <trkpt lat="43.15267" lon="0.02486">
        <ele>350</ele>
        <time>2022-09-07T09:54:26Z</time>
      </trkpt>
      <trkpt lat="43.15256" lon="0.02485">
        <ele>350.2</ele>
        <time>2022-09-07T09:54:29Z</time>
      </trkpt>
      <trkpt lat="43.15235" lon="0.02476">
        <ele>350.2</ele>
        <time>2022-09-07T09:54:35Z</time>
      </trkpt>
      <trkpt lat="43.15222" lon="0.02459">
        <ele>350.4</ele>
        <time>2022-09-07T09:54:40Z</time>
      </trkpt>
      <trkpt lat="43.15203" lon="0.02435">
        <ele>350.8</ele>
        <time>2022-09-07T09:54:47Z</time>
      </trkpt>
      <trkpt lat="43.15183" lon="0.02419">
        <ele>350.8</ele>
        <time>2022-09-07T09:54:53Z</time>
      </trkpt>
      <trkpt lat="43.15172" lon="0.02418">
        <ele>351.2</ele>
        <time>2022-09-07T09:54:56Z</time>
      </trkpt>
      <trkpt lat="43.1516" lon="0.02418">
        <ele>351</ele>
        <time>2022-09-07T09:54:59Z</time>
      </trkpt>
      <trkpt lat="43.15134" lon="0.02421">
        <ele>350.6</ele>
        <time>2022-09-07T09:55:06Z</time>
      </trkpt>
      <trkpt lat="43.151" lon="0.02426">
        <ele>350.6</ele>
        <time>2022-09-07T09:55:15Z</time>
      </trkpt>
      <trkpt lat="43.15073" lon="0.02427">
        <ele>350.8</ele>
        <time>2022-09-07T09:55:22Z</time>
      </trkpt>
      <trkpt lat="43.15041" lon="0.02419">
        <ele>352</ele>
        <time>2022-09-07T09:55:30Z</time>
      </trkpt>
      <trkpt lat="43.15037" lon="0.02419">
        <ele>352.2</ele>
        <time>2022-09-07T09:55:31Z</time>
      </trkpt>
      <trkpt lat="43.15011" lon="0.02415">
        <ele>352.6</ele>
        <time>2022-09-07T09:55:38Z</time>
      </trkpt>
      <trkpt lat="43.14978" lon="0.02411">
        <ele>352.8</ele>
        <time>2022-09-07T09:55:46Z</time>
      </trkpt>
      <trkpt lat="43.14937" lon="0.02405">
        <ele>352.8</ele>
        <time>2022-09-07T09:55:55Z</time>
      </trkpt>
      <trkpt lat="43.14901" lon="0.02403">
        <ele>352.8</ele>
        <time>2022-09-07T09:56:03Z</time>
      </trkpt>
      <trkpt lat="43.14892" lon="0.02405">
        <ele>352.8</ele>
        <time>2022-09-07T09:56:05Z</time>
      </trkpt>
      <trkpt lat="43.14858" lon="0.02416">
        <ele>353</ele>
        <time>2022-09-07T09:56:13Z</time>
      </trkpt>
      <trkpt lat="43.14846" lon="0.02421">
        <ele>353.4</ele>
        <time>2022-09-07T09:56:16Z</time>
      </trkpt>
      <trkpt lat="43.14824" lon="0.02425">
        <ele>353.6</ele>
        <time>2022-09-07T09:56:21Z</time>
      </trkpt>
      <trkpt lat="43.14793" lon="0.02425">
        <ele>354.2</ele>
        <time>2022-09-07T09:56:28Z</time>
      </trkpt>
      <trkpt lat="43.14788" lon="0.02424">
        <ele>354.4</ele>
        <time>2022-09-07T09:56:29Z</time>
      </trkpt>
      <trkpt lat="43.14751" lon="0.02415">
        <ele>354.2</ele>
        <time>2022-09-07T09:56:37Z</time>
      </trkpt>
      <trkpt lat="43.14708" lon="0.02404">
        <ele>354.8</ele>
        <time>2022-09-07T09:56:46Z</time>
      </trkpt>
      <trkpt lat="43.14675" lon="0.02407">
        <ele>354.8</ele>
        <time>2022-09-07T09:56:53Z</time>
      </trkpt>
      <trkpt lat="43.14645" lon="0.02412">
        <ele>354.6</ele>
        <time>2022-09-07T09:57:00Z</time>
      </trkpt>
      <trkpt lat="43.14618" lon="0.02418">
        <ele>354.6</ele>
        <time>2022-09-07T09:57:07Z</time>
      </trkpt>
      <trkpt lat="43.14594" lon="0.02426">
        <ele>354.2</ele>
        <time>2022-09-07T09:57:14Z</time>
      </trkpt>
      <trkpt lat="43.14581" lon="0.02425">
        <ele>354.4</ele>
        <time>2022-09-07T09:57:20Z</time>
      </trkpt>
      <trkpt lat="43.14574" lon="0.02421">
        <ele>354.2</ele>
        <time>2022-09-07T09:57:26Z</time>
      </trkpt>
      <trkpt lat="43.14575" lon="0.0243">
        <ele>354.6</ele>
        <time>2022-09-07T10:01:37Z</time>
      </trkpt>
      <trkpt lat="43.14574" lon="0.02435">
        <ele>354.4</ele>
        <time>2022-09-07T10:01:39Z</time>
      </trkpt>
      <trkpt lat="43.14564" lon="0.02442">
        <ele>354.4</ele>
        <time>2022-09-07T10:01:43Z</time>
      </trkpt>
      <trkpt lat="43.14544" lon="0.02456">
        <ele>354.6</ele>
        <time>2022-09-07T10:01:51Z</time>
      </trkpt>
      <trkpt lat="43.14523" lon="0.02471">
        <ele>354.4</ele>
        <time>2022-09-07T10:01:58Z</time>
      </trkpt>
      <trkpt lat="43.14506" lon="0.02481">
        <ele>354.4</ele>
        <time>2022-09-07T10:02:03Z</time>
      </trkpt>
      <trkpt lat="43.14487" lon="0.02493">
        <ele>354.6</ele>
        <time>2022-09-07T10:02:09Z</time>
      </trkpt>
      <trkpt lat="43.14461" lon="0.02505">
        <ele>354.8</ele>
        <time>2022-09-07T10:02:16Z</time>
      </trkpt>
      <trkpt lat="43.14422" lon="0.02522">
        <ele>355.2</ele>
        <time>2022-09-07T10:02:26Z</time>
      </trkpt>
      <trkpt lat="43.14391" lon="0.02536">
        <ele>355.6</ele>
        <time>2022-09-07T10:02:34Z</time>
      </trkpt>
      <trkpt lat="43.14384" lon="0.0254">
        <ele>355.4</ele>
        <time>2022-09-07T10:02:36Z</time>
      </trkpt>
      <trkpt lat="43.14336" lon="0.02561">
        <ele>355.6</ele>
        <time>2022-09-07T10:02:48Z</time>
      </trkpt>
      <trkpt lat="43.14306" lon="0.02574">
        <ele>355.8</ele>
        <time>2022-09-07T10:02:56Z</time>
      </trkpt>
      <trkpt lat="43.1427" lon="0.02589">
        <ele>355.8</ele>
        <time>2022-09-07T10:03:05Z</time>
      </trkpt>
      <trkpt lat="43.14243" lon="0.02607">
        <ele>356.2</ele>
        <time>2022-09-07T10:03:12Z</time>
      </trkpt>
      <trkpt lat="43.14232" lon="0.02631">
        <ele>356.6</ele>
        <time>2022-09-07T10:03:17Z</time>
      </trkpt>
      <trkpt lat="43.14229" lon="0.02649">
        <ele>356.6</ele>
        <time>2022-09-07T10:03:20Z</time>
      </trkpt>
      <trkpt lat="43.14225" lon="0.02673">
        <ele>356.8</ele>
        <time>2022-09-07T10:03:24Z</time>
      </trkpt>
      <trkpt lat="43.14223" lon="0.02679">
        <ele>357</ele>
        <time>2022-09-07T10:03:25Z</time>
      </trkpt>
      <trkpt lat="43.14214" lon="0.02698">
        <ele>357</ele>
        <time>2022-09-07T10:03:29Z</time>
      </trkpt>
      <trkpt lat="43.14208" lon="0.02705">
        <ele>357.4</ele>
        <time>2022-09-07T10:03:31Z</time>
      </trkpt>
      <trkpt lat="43.14193" lon="0.02717">
        <ele>357.4</ele>
        <time>2022-09-07T10:03:35Z</time>
      </trkpt>
      <trkpt lat="43.14173" lon="0.0273">
        <ele>357.6</ele>
        <time>2022-09-07T10:03:40Z</time>
      </trkpt>
      <trkpt lat="43.1416" lon="0.02736">
        <ele>357.6</ele>
        <time>2022-09-07T10:03:43Z</time>
      </trkpt>
      <trkpt lat="43.14117" lon="0.02757">
        <ele>357.6</ele>
        <time>2022-09-07T10:03:53Z</time>
      </trkpt>
      <trkpt lat="43.1407" lon="0.02778">
        <ele>358.6</ele>
        <time>2022-09-07T10:04:04Z</time>
      </trkpt>
      <trkpt lat="43.14034" lon="0.02802">
        <ele>359.2</ele>
        <time>2022-09-07T10:04:13Z</time>
      </trkpt>
      <trkpt lat="43.14016" lon="0.02817">
        <ele>359.6</ele>
        <time>2022-09-07T10:04:18Z</time>
      </trkpt>
      <trkpt lat="43.13994" lon="0.02829">
        <ele>359.6</ele>
        <time>2022-09-07T10:04:23Z</time>
      </trkpt>
      <trkpt lat="43.13964" lon="0.02841">
        <ele>359.8</ele>
        <time>2022-09-07T10:04:30Z</time>
      </trkpt>
      <trkpt lat="43.13955" lon="0.02846">
        <ele>360</ele>
        <time>2022-09-07T10:04:32Z</time>
      </trkpt>
      <trkpt lat="43.13941" lon="0.02861">
        <ele>360.2</ele>
        <time>2022-09-07T10:04:36Z</time>
      </trkpt>
      <trkpt lat="43.13919" lon="0.02894">
        <ele>360</ele>
        <time>2022-09-07T10:04:43Z</time>
      </trkpt>
      <trkpt lat="43.13894" lon="0.02934">
        <ele>360.2</ele>
        <time>2022-09-07T10:04:51Z</time>
      </trkpt>
      <trkpt lat="43.13869" lon="0.02976">
        <ele>360.2</ele>
        <time>2022-09-07T10:04:59Z</time>
      </trkpt>
      <trkpt lat="43.13845" lon="0.03018">
        <ele>360.6</ele>
        <time>2022-09-07T10:05:07Z</time>
      </trkpt>
      <trkpt lat="43.13836" lon="0.03033">
        <ele>360.8</ele>
        <time>2022-09-07T10:05:10Z</time>
      </trkpt>
      <trkpt lat="43.13818" lon="0.03056">
        <ele>361</ele>
        <time>2022-09-07T10:05:15Z</time>
      </trkpt>
      <trkpt lat="43.13785" lon="0.03095">
        <ele>361</ele>
        <time>2022-09-07T10:05:24Z</time>
      </trkpt>
      <trkpt lat="43.13757" lon="0.03135">
        <ele>360.8</ele>
        <time>2022-09-07T10:05:32Z</time>
      </trkpt>
      <trkpt lat="43.13722" lon="0.03192">
        <ele>360.6</ele>
        <time>2022-09-07T10:05:42Z</time>
      </trkpt>
      <trkpt lat="43.13689" lon="0.03252">
        <ele>360.8</ele>
        <time>2022-09-07T10:05:52Z</time>
      </trkpt>
      <trkpt lat="43.13686" lon="0.03258">
        <ele>360.6</ele>
        <time>2022-09-07T10:05:53Z</time>
      </trkpt>
      <trkpt lat="43.13668" lon="0.0331">
        <ele>361.4</ele>
        <time>2022-09-07T10:06:01Z</time>
      </trkpt>
      <trkpt lat="43.13664" lon="0.03329">
        <ele>361.8</ele>
        <time>2022-09-07T10:06:04Z</time>
      </trkpt>
      <trkpt lat="43.13652" lon="0.03361">
        <ele>362.8</ele>
        <time>2022-09-07T10:06:10Z</time>
      </trkpt>
      <trkpt lat="43.1365" lon="0.03365">
        <ele>363</ele>
        <time>2022-09-07T10:06:11Z</time>
      </trkpt>
      <trkpt lat="43.13637" lon="0.03384">
        <ele>363.8</ele>
        <time>2022-09-07T10:06:16Z</time>
      </trkpt>
      <trkpt lat="43.13631" lon="0.0339">
        <ele>364.2</ele>
        <time>2022-09-07T10:06:18Z</time>
      </trkpt>
      <trkpt lat="43.13614" lon="0.0341">
        <ele>364.2</ele>
        <time>2022-09-07T10:06:24Z</time>
      </trkpt>
      <trkpt lat="43.13591" lon="0.03433">
        <ele>365</ele>
        <time>2022-09-07T10:06:32Z</time>
      </trkpt>
      <trkpt lat="43.13581" lon="0.03441">
        <ele>365.2</ele>
        <time>2022-09-07T10:06:35Z</time>
      </trkpt>
      <trkpt lat="43.13566" lon="0.03453">
        <ele>365.8</ele>
        <time>2022-09-07T10:06:40Z</time>
      </trkpt>
      <trkpt lat="43.13545" lon="0.03467">
        <ele>366.2</ele>
        <time>2022-09-07T10:06:46Z</time>
      </trkpt>
      <trkpt lat="43.13537" lon="0.03471">
        <ele>366.6</ele>
        <time>2022-09-07T10:06:48Z</time>
      </trkpt>
      <trkpt lat="43.13507" lon="0.03489">
        <ele>367</ele>
        <time>2022-09-07T10:06:56Z</time>
      </trkpt>
      <trkpt lat="43.13483" lon="0.03503">
        <ele>367.2</ele>
        <time>2022-09-07T10:07:02Z</time>
      </trkpt>
      <trkpt lat="43.13468" lon="0.03512">
        <ele>367.8</ele>
        <time>2022-09-07T10:07:06Z</time>
      </trkpt>
      <trkpt lat="43.13442" lon="0.03531">
        <ele>368.4</ele>
        <time>2022-09-07T10:07:13Z</time>
      </trkpt>
      <trkpt lat="43.13438" lon="0.03533">
        <ele>368.8</ele>
        <time>2022-09-07T10:07:14Z</time>
      </trkpt>
      <trkpt lat="43.13434" lon="0.03535">
        <ele>368.6</ele>
        <time>2022-09-07T10:07:15Z</time>
      </trkpt>
      <trkpt lat="43.1343" lon="0.03538">
        <ele>368.4</ele>
        <time>2022-09-07T10:07:16Z</time>
      </trkpt>
      <trkpt lat="43.13409" lon="0.03556">
        <ele>367.8</ele>
        <time>2022-09-07T10:07:22Z</time>
      </trkpt>
      <trkpt lat="43.13388" lon="0.03576">
        <ele>367.8</ele>
        <time>2022-09-07T10:07:29Z</time>
      </trkpt>
      <trkpt lat="43.13372" lon="0.03589">
        <ele>367.8</ele>
        <time>2022-09-07T10:07:36Z</time>
      </trkpt>
      <trkpt lat="43.13362" lon="0.03597">
        <ele>367.6</ele>
        <time>2022-09-07T10:07:44Z</time>
      </trkpt>
      <trkpt lat="43.13361" lon="0.03599">
        <ele>367.4</ele>
        <time>2022-09-07T10:08:19Z</time>
      </trkpt>
      <trkpt lat="43.13357" lon="0.03602">
        <ele>367.4</ele>
        <time>2022-09-07T10:08:21Z</time>
      </trkpt>
      <trkpt lat="43.13348" lon="0.03607">
        <ele>367.4</ele>
        <time>2022-09-07T10:08:24Z</time>
      </trkpt>
      <trkpt lat="43.13341" lon="0.03613">
        <ele>367.2</ele>
        <time>2022-09-07T10:08:26Z</time>
      </trkpt>
      <trkpt lat="43.13314" lon="0.03634">
        <ele>367</ele>
        <time>2022-09-07T10:08:34Z</time>
      </trkpt>
      <trkpt lat="43.13276" lon="0.03662">
        <ele>367</ele>
        <time>2022-09-07T10:08:44Z</time>
      </trkpt>
      <trkpt lat="43.13245" lon="0.03686">
        <ele>366.8</ele>
        <time>2022-09-07T10:08:52Z</time>
      </trkpt>
      <trkpt lat="43.13241" lon="0.03689">
        <ele>366.8</ele>
        <time>2022-09-07T10:08:53Z</time>
      </trkpt>
      <trkpt lat="43.13213" lon="0.0371">
        <ele>366.8</ele>
        <time>2022-09-07T10:09:00Z</time>
      </trkpt>
      <trkpt lat="43.13179" lon="0.03731">
        <ele>367</ele>
        <time>2022-09-07T10:09:08Z</time>
      </trkpt>
      <trkpt lat="43.13145" lon="0.03741">
        <ele>368</ele>
        <time>2022-09-07T10:09:16Z</time>
      </trkpt>
      <trkpt lat="43.13129" lon="0.03743">
        <ele>368.4</ele>
        <time>2022-09-07T10:09:20Z</time>
      </trkpt>
      <trkpt lat="43.13118" lon="0.03745">
        <ele>368.6</ele>
        <time>2022-09-07T10:09:23Z</time>
      </trkpt>
      <trkpt lat="43.13096" lon="0.03751">
        <ele>368.6</ele>
        <time>2022-09-07T10:09:30Z</time>
      </trkpt>
      <trkpt lat="43.13089" lon="0.03756">
        <ele>368.8</ele>
        <time>2022-09-07T10:09:32Z</time>
      </trkpt>
      <trkpt lat="43.13081" lon="0.03759">
        <ele>369</ele>
        <time>2022-09-07T10:09:34Z</time>
      </trkpt>
      <trkpt lat="43.13074" lon="0.03764">
        <ele>369</ele>
        <time>2022-09-07T10:09:36Z</time>
      </trkpt>
      <trkpt lat="43.13068" lon="0.03771">
        <ele>369.2</ele>
        <time>2022-09-07T10:09:38Z</time>
      </trkpt>
      <trkpt lat="43.13064" lon="0.03773">
        <ele>369.4</ele>
        <time>2022-09-07T10:09:39Z</time>
      </trkpt>
      <trkpt lat="43.13061" lon="0.03777">
        <ele>369.4</ele>
        <time>2022-09-07T10:09:40Z</time>
      </trkpt>
      <trkpt lat="43.13043" lon="0.03798">
        <ele>369.6</ele>
        <time>2022-09-07T10:09:46Z</time>
      </trkpt>
      <trkpt lat="43.13031" lon="0.03811">
        <ele>369.4</ele>
        <time>2022-09-07T10:09:50Z</time>
      </trkpt>
      <trkpt lat="43.13023" lon="0.03815">
        <ele>369.4</ele>
        <time>2022-09-07T10:09:52Z</time>
      </trkpt>
      <trkpt lat="43.12994" lon="0.03839">
        <ele>369.2</ele>
        <time>2022-09-07T10:10:00Z</time>
      </trkpt>
      <trkpt lat="43.12975" lon="0.03858">
        <ele>369</ele>
        <time>2022-09-07T10:10:06Z</time>
      </trkpt>
      <trkpt lat="43.12952" lon="0.03876">
        <ele>369</ele>
        <time>2022-09-07T10:10:12Z</time>
      </trkpt>
      <trkpt lat="43.12921" lon="0.03892">
        <ele>369.6</ele>
        <time>2022-09-07T10:10:19Z</time>
      </trkpt>
      <trkpt lat="43.12888" lon="0.03909">
        <ele>369.8</ele>
        <time>2022-09-07T10:10:27Z</time>
      </trkpt>
      <trkpt lat="43.12849" lon="0.0392">
        <ele>369.4</ele>
        <time>2022-09-07T10:10:36Z</time>
      </trkpt>
      <trkpt lat="43.12831" lon="0.03922">
        <ele>369.4</ele>
        <time>2022-09-07T10:10:40Z</time>
      </trkpt>
      <trkpt lat="43.12817" lon="0.03923">
        <ele>369.4</ele>
        <time>2022-09-07T10:10:43Z</time>
      </trkpt>
      <trkpt lat="43.12812" lon="0.03924">
        <ele>369.6</ele>
        <time>2022-09-07T10:10:44Z</time>
      </trkpt>
      <trkpt lat="43.12794" lon="0.03927">
        <ele>370.4</ele>
        <time>2022-09-07T10:10:48Z</time>
      </trkpt>
      <trkpt lat="43.12772" lon="0.03929">
        <ele>370.6</ele>
        <time>2022-09-07T10:10:53Z</time>
      </trkpt>
      <trkpt lat="43.12741" lon="0.03933">
        <ele>371.4</ele>
        <time>2022-09-07T10:11:00Z</time>
      </trkpt>
      <trkpt lat="43.12722" lon="0.03935">
        <ele>371.6</ele>
        <time>2022-09-07T10:11:04Z</time>
      </trkpt>
      <trkpt lat="43.12689" lon="0.03934">
        <ele>371.4</ele>
        <time>2022-09-07T10:11:11Z</time>
      </trkpt>
      <trkpt lat="43.12676" lon="0.0394">
        <ele>371.6</ele>
        <time>2022-09-07T10:11:14Z</time>
      </trkpt>
      <trkpt lat="43.12672" lon="0.03944">
        <ele>371.6</ele>
        <time>2022-09-07T10:11:15Z</time>
      </trkpt>
      <trkpt lat="43.12667" lon="0.03959">
        <ele>372</ele>
        <time>2022-09-07T10:11:18Z</time>
      </trkpt>
      <trkpt lat="43.12655" lon="0.0398">
        <ele>372.2</ele>
        <time>2022-09-07T10:11:24Z</time>
      </trkpt>
      <trkpt lat="43.12651" lon="0.03979">
        <ele>372.2</ele>
        <time>2022-09-07T10:11:25Z</time>
      </trkpt>
      <trkpt lat="43.12644" lon="0.03975">
        <ele>372.2</ele>
        <time>2022-09-07T10:11:27Z</time>
      </trkpt>
      <trkpt lat="43.12628" lon="0.03964">
        <ele>372.6</ele>
        <time>2022-09-07T10:11:32Z</time>
      </trkpt>
      <trkpt lat="43.12613" lon="0.03953">
        <ele>373</ele>
        <time>2022-09-07T10:11:36Z</time>
      </trkpt>
      <trkpt lat="43.12609" lon="0.03951">
        <ele>373.2</ele>
        <time>2022-09-07T10:11:37Z</time>
      </trkpt>
      <trkpt lat="43.12586" lon="0.03944">
        <ele>373</ele>
        <time>2022-09-07T10:11:42Z</time>
      </trkpt>
      <trkpt lat="43.12554" lon="0.03936">
        <ele>373</ele>
        <time>2022-09-07T10:11:49Z</time>
      </trkpt>
      <trkpt lat="43.1252" lon="0.03927">
        <ele>372.8</ele>
        <time>2022-09-07T10:11:56Z</time>
      </trkpt>
      <trkpt lat="43.12506" lon="0.03924">
        <ele>372.8</ele>
        <time>2022-09-07T10:11:59Z</time>
      </trkpt>
      <trkpt lat="43.12486" lon="0.03922">
        <ele>372.6</ele>
        <time>2022-09-07T10:12:03Z</time>
      </trkpt>
      <trkpt lat="43.12481" lon="0.03922">
        <ele>372.6</ele>
        <time>2022-09-07T10:12:04Z</time>
      </trkpt>
      <trkpt lat="43.12457" lon="0.03926">
        <ele>372.6</ele>
        <time>2022-09-07T10:12:09Z</time>
      </trkpt>
      <trkpt lat="43.12432" lon="0.0393">
        <ele>372.6</ele>
        <time>2022-09-07T10:12:15Z</time>
      </trkpt>
      <trkpt lat="43.12418" lon="0.03931">
        <ele>372.6</ele>
        <time>2022-09-07T10:12:18Z</time>
      </trkpt>
      <trkpt lat="43.12402" lon="0.0393">
        <ele>372.2</ele>
        <time>2022-09-07T10:12:21Z</time>
      </trkpt>
      <trkpt lat="43.12386" lon="0.03929">
        <ele>371.6</ele>
        <time>2022-09-07T10:12:24Z</time>
      </trkpt>
      <trkpt lat="43.12363" lon="0.03924">
        <ele>371</ele>
        <time>2022-09-07T10:12:28Z</time>
      </trkpt>
      <trkpt lat="43.12338" lon="0.03922">
        <ele>371.2</ele>
        <time>2022-09-07T10:12:32Z</time>
      </trkpt>
      <trkpt lat="43.12325" lon="0.03925">
        <ele>370.8</ele>
        <time>2022-09-07T10:12:34Z</time>
      </trkpt>
      <trkpt lat="43.12314" lon="0.03931">
        <ele>370.6</ele>
        <time>2022-09-07T10:12:36Z</time>
      </trkpt>
      <trkpt lat="43.12298" lon="0.03941">
        <ele>370.6</ele>
        <time>2022-09-07T10:12:39Z</time>
      </trkpt>
      <trkpt lat="43.12292" lon="0.03944">
        <ele>370.6</ele>
        <time>2022-09-07T10:12:40Z</time>
      </trkpt>
      <trkpt lat="43.12286" lon="0.03946">
        <ele>370.4</ele>
        <time>2022-09-07T10:12:41Z</time>
      </trkpt>
      <trkpt lat="43.12269" lon="0.03947">
        <ele>370</ele>
        <time>2022-09-07T10:12:44Z</time>
      </trkpt>
      <trkpt lat="43.12254" lon="0.03942">
        <ele>370.2</ele>
        <time>2022-09-07T10:12:47Z</time>
      </trkpt>
      <trkpt lat="43.12243" lon="0.03937">
        <ele>370.4</ele>
        <time>2022-09-07T10:12:49Z</time>
      </trkpt>
      <trkpt lat="43.12218" lon="0.03922">
        <ele>370.2</ele>
        <time>2022-09-07T10:12:54Z</time>
      </trkpt>
      <trkpt lat="43.12176" lon="0.03889">
        <ele>371</ele>
        <time>2022-09-07T10:13:03Z</time>
      </trkpt>
      <trkpt lat="43.12162" lon="0.0388">
        <ele>371.6</ele>
        <time>2022-09-07T10:13:06Z</time>
      </trkpt>
      <trkpt lat="43.12147" lon="0.0387">
        <ele>372.8</ele>
        <time>2022-09-07T10:13:10Z</time>
      </trkpt>
      <trkpt lat="43.12143" lon="0.03867">
        <ele>373</ele>
        <time>2022-09-07T10:13:11Z</time>
      </trkpt>
      <trkpt lat="43.12126" lon="0.0386">
        <ele>373.8</ele>
        <time>2022-09-07T10:13:16Z</time>
      </trkpt>
      <trkpt lat="43.1212" lon="0.03858">
        <ele>374.2</ele>
        <time>2022-09-07T10:13:18Z</time>
      </trkpt>
      <trkpt lat="43.1211" lon="0.03857">
        <ele>375</ele>
        <time>2022-09-07T10:13:21Z</time>
      </trkpt>
      <trkpt lat="43.121" lon="0.03857">
        <ele>375.4</ele>
        <time>2022-09-07T10:13:24Z</time>
      </trkpt>
      <trkpt lat="43.12092" lon="0.03858">
        <ele>376</ele>
        <time>2022-09-07T10:13:27Z</time>
      </trkpt>
      <trkpt lat="43.12081" lon="0.0386">
        <ele>376.6</ele>
        <time>2022-09-07T10:13:31Z</time>
      </trkpt>
      <trkpt lat="43.12076" lon="0.0386">
        <ele>377.2</ele>
        <time>2022-09-07T10:13:33Z</time>
      </trkpt>
      <trkpt lat="43.12066" lon="0.03864">
        <ele>377.8</ele>
        <time>2022-09-07T10:13:37Z</time>
      </trkpt>
      <trkpt lat="43.12053" lon="0.03868">
        <ele>378.4</ele>
        <time>2022-09-07T10:13:42Z</time>
      </trkpt>
      <trkpt lat="43.12051" lon="0.03868">
        <ele>378.4</ele>
        <time>2022-09-07T10:13:43Z</time>
      </trkpt>
      <trkpt lat="43.12033" lon="0.03875">
        <ele>378.6</ele>
        <time>2022-09-07T10:13:50Z</time>
      </trkpt>
      <trkpt lat="43.12016" lon="0.0388">
        <ele>379.2</ele>
        <time>2022-09-07T10:13:56Z</time>
      </trkpt>
      <trkpt lat="43.11999" lon="0.03885">
        <ele>379.4</ele>
        <time>2022-09-07T10:14:01Z</time>
      </trkpt>
      <trkpt lat="43.11992" lon="0.03886">
        <ele>379.6</ele>
        <time>2022-09-07T10:14:03Z</time>
      </trkpt>
      <trkpt lat="43.11955" lon="0.03893">
        <ele>379.6</ele>
        <time>2022-09-07T10:14:13Z</time>
      </trkpt>
      <trkpt lat="43.11918" lon="0.039">
        <ele>380</ele>
        <time>2022-09-07T10:14:22Z</time>
      </trkpt>
      <trkpt lat="43.11881" lon="0.03905">
        <ele>380.2</ele>
        <time>2022-09-07T10:14:31Z</time>
      </trkpt>
      <trkpt lat="43.11851" lon="0.03906">
        <ele>380.4</ele>
        <time>2022-09-07T10:14:38Z</time>
      </trkpt>
      <trkpt lat="43.11843" lon="0.03904">
        <ele>380.4</ele>
        <time>2022-09-07T10:14:40Z</time>
      </trkpt>
      <trkpt lat="43.11825" lon="0.03888">
        <ele>380.6</ele>
        <time>2022-09-07T10:14:45Z</time>
      </trkpt>
      <trkpt lat="43.11816" lon="0.03867">
        <ele>381</ele>
        <time>2022-09-07T10:14:49Z</time>
      </trkpt>
      <trkpt lat="43.11812" lon="0.03857">
        <ele>381.4</ele>
        <time>2022-09-07T10:14:51Z</time>
      </trkpt>
      <trkpt lat="43.1181" lon="0.03852">
        <ele>381.6</ele>
        <time>2022-09-07T10:14:52Z</time>
      </trkpt>
      <trkpt lat="43.11798" lon="0.03824">
        <ele>382.6</ele>
        <time>2022-09-07T10:14:58Z</time>
      </trkpt>
      <trkpt lat="43.11784" lon="0.03795">
        <ele>383.4</ele>
        <time>2022-09-07T10:15:06Z</time>
      </trkpt>
      <trkpt lat="43.1177" lon="0.03773">
        <ele>383.6</ele>
        <time>2022-09-07T10:15:12Z</time>
      </trkpt>
      <trkpt lat="43.11766" lon="0.03764">
        <ele>383.6</ele>
        <time>2022-09-07T10:15:14Z</time>
      </trkpt>
      <trkpt lat="43.11756" lon="0.03742">
        <ele>383.6</ele>
        <time>2022-09-07T10:15:19Z</time>
      </trkpt>
      <trkpt lat="43.11737" lon="0.03709">
        <ele>383.8</ele>
        <time>2022-09-07T10:15:27Z</time>
      </trkpt>
      <trkpt lat="43.11718" lon="0.03666">
        <ele>384.4</ele>
        <time>2022-09-07T10:15:36Z</time>
      </trkpt>
      <trkpt lat="43.11713" lon="0.03651">
        <ele>384.8</ele>
        <time>2022-09-07T10:15:39Z</time>
      </trkpt>
      <trkpt lat="43.11707" lon="0.03627">
        <ele>385.4</ele>
        <time>2022-09-07T10:15:44Z</time>
      </trkpt>
      <trkpt lat="43.11705" lon="0.03614">
        <ele>385.8</ele>
        <time>2022-09-07T10:15:47Z</time>
      </trkpt>
      <trkpt lat="43.11702" lon="0.03598">
        <ele>386.6</ele>
        <time>2022-09-07T10:15:51Z</time>
      </trkpt>
      <trkpt lat="43.117" lon="0.03586">
        <ele>387</ele>
        <time>2022-09-07T10:15:54Z</time>
      </trkpt>
      <trkpt lat="43.11697" lon="0.03571">
        <ele>387.6</ele>
        <time>2022-09-07T10:15:58Z</time>
      </trkpt>
      <trkpt lat="43.11693" lon="0.03556">
        <ele>387.8</ele>
        <time>2022-09-07T10:16:03Z</time>
      </trkpt>
      <trkpt lat="43.11693" lon="0.03552">
        <ele>388</ele>
        <time>2022-09-07T10:16:04Z</time>
      </trkpt>
      <trkpt lat="43.11686" lon="0.0352">
        <ele>388.8</ele>
        <time>2022-09-07T10:16:13Z</time>
      </trkpt>
      <trkpt lat="43.11685" lon="0.0351">
        <ele>389.2</ele>
        <time>2022-09-07T10:16:16Z</time>
      </trkpt>
      <trkpt lat="43.11683" lon="0.03499">
        <ele>389.4</ele>
        <time>2022-09-07T10:16:19Z</time>
      </trkpt>
      <trkpt lat="43.11677" lon="0.03466">
        <ele>390.2</ele>
        <time>2022-09-07T10:16:28Z</time>
      </trkpt>
      <trkpt lat="43.11672" lon="0.03433">
        <ele>391.2</ele>
        <time>2022-09-07T10:16:37Z</time>
      </trkpt>
      <trkpt lat="43.11671" lon="0.03426">
        <ele>391.4</ele>
        <time>2022-09-07T10:16:39Z</time>
      </trkpt>
      <trkpt lat="43.1167" lon="0.03402">
        <ele>392</ele>
        <time>2022-09-07T10:16:45Z</time>
      </trkpt>
      <trkpt lat="43.11669" lon="0.03387">
        <ele>392.4</ele>
        <time>2022-09-07T10:16:49Z</time>
      </trkpt>
      <trkpt lat="43.11669" lon="0.03363">
        <ele>393</ele>
        <time>2022-09-07T10:16:55Z</time>
      </trkpt>
      <trkpt lat="43.11669" lon="0.03343">
        <ele>393.4</ele>
        <time>2022-09-07T10:17:00Z</time>
      </trkpt>
      <trkpt lat="43.11669" lon="0.03324">
        <ele>394</ele>
        <time>2022-09-07T10:17:05Z</time>
      </trkpt>
      <trkpt lat="43.11669" lon="0.03308">
        <ele>394.4</ele>
        <time>2022-09-07T10:17:09Z</time>
      </trkpt>
      <trkpt lat="43.11669" lon="0.0329">
        <ele>394.6</ele>
        <time>2022-09-07T10:17:13Z</time>
      </trkpt>
      <trkpt lat="43.11666" lon="0.03256">
        <ele>394.4</ele>
        <time>2022-09-07T10:17:20Z</time>
      </trkpt>
      <trkpt lat="43.11661" lon="0.03202">
        <ele>395.8</ele>
        <time>2022-09-07T10:17:30Z</time>
      </trkpt>
      <trkpt lat="43.11658" lon="0.0316">
        <ele>395.2</ele>
        <time>2022-09-07T10:17:39Z</time>
      </trkpt>
      <trkpt lat="43.1166" lon="0.03137">
        <ele>396.4</ele>
        <time>2022-09-07T10:17:44Z</time>
      </trkpt>
      <trkpt lat="43.11659" lon="0.03128">
        <ele>396.8</ele>
        <time>2022-09-07T10:17:46Z</time>
      </trkpt>
      <trkpt lat="43.11659" lon="0.03118">
        <ele>396.8</ele>
        <time>2022-09-07T10:17:48Z</time>
      </trkpt>
      <trkpt lat="43.11658" lon="0.03095">
        <ele>397.8</ele>
        <time>2022-09-07T10:17:53Z</time>
      </trkpt>
      <trkpt lat="43.11657" lon="0.03091">
        <ele>397.8</ele>
        <time>2022-09-07T10:17:54Z</time>
      </trkpt>
      <trkpt lat="43.11654" lon="0.03062">
        <ele>398.8</ele>
        <time>2022-09-07T10:18:01Z</time>
      </trkpt>
      <trkpt lat="43.1165" lon="0.03038">
        <ele>398.4</ele>
        <time>2022-09-07T10:18:07Z</time>
      </trkpt>
      <trkpt lat="43.11643" lon="0.03004">
        <ele>398.6</ele>
        <time>2022-09-07T10:18:15Z</time>
      </trkpt>
      <trkpt lat="43.11641" lon="0.02995">
        <ele>398.8</ele>
        <time>2022-09-07T10:18:17Z</time>
      </trkpt>
      <trkpt lat="43.11634" lon="0.02967">
        <ele>399.4</ele>
        <time>2022-09-07T10:18:24Z</time>
      </trkpt>
      <trkpt lat="43.11624" lon="0.02928">
        <ele>400.2</ele>
        <time>2022-09-07T10:18:33Z</time>
      </trkpt>
      <trkpt lat="43.11624" lon="0.02924">
        <ele>400.6</ele>
        <time>2022-09-07T10:18:34Z</time>
      </trkpt>
      <trkpt lat="43.11614" lon="0.02887">
        <ele>400.4</ele>
        <time>2022-09-07T10:18:42Z</time>
      </trkpt>
      <trkpt lat="43.11611" lon="0.02871">
        <ele>398.8</ele>
        <time>2022-09-07T10:18:45Z</time>
      </trkpt>
      <trkpt lat="43.11605" lon="0.02844">
        <ele>398.2</ele>
        <time>2022-09-07T10:18:50Z</time>
      </trkpt>
      <trkpt lat="43.116" lon="0.0282">
        <ele>399.8</ele>
        <time>2022-09-07T10:18:54Z</time>
      </trkpt>
      <trkpt lat="43.11597" lon="0.02798">
        <ele>398.4</ele>
        <time>2022-09-07T10:18:58Z</time>
      </trkpt>
      <trkpt lat="43.11597" lon="0.02792">
        <ele>398.4</ele>
        <time>2022-09-07T10:18:59Z</time>
      </trkpt>
      <trkpt lat="43.11591" lon="0.02769">
        <ele>397.2</ele>
        <time>2022-09-07T10:19:03Z</time>
      </trkpt>
      <trkpt lat="43.1159" lon="0.02763">
        <ele>397.2</ele>
        <time>2022-09-07T10:19:04Z</time>
      </trkpt>
      <trkpt lat="43.11579" lon="0.0271">
        <ele>396.4</ele>
        <time>2022-09-07T10:19:13Z</time>
      </trkpt>
      <trkpt lat="43.11578" lon="0.02704">
        <ele>396.2</ele>
        <time>2022-09-07T10:19:14Z</time>
      </trkpt>
      <trkpt lat="43.11573" lon="0.02677">
        <ele>396</ele>
        <time>2022-09-07T10:19:19Z</time>
      </trkpt>
      <trkpt lat="43.11571" lon="0.02647">
        <ele>396.4</ele>
        <time>2022-09-07T10:19:25Z</time>
      </trkpt>
      <trkpt lat="43.11572" lon="0.0263">
        <ele>397.2</ele>
        <time>2022-09-07T10:19:29Z</time>
      </trkpt>
      <trkpt lat="43.11576" lon="0.02607">
        <ele>397.4</ele>
        <time>2022-09-07T10:19:34Z</time>
      </trkpt>
      <trkpt lat="43.11582" lon="0.02582">
        <ele>398.4</ele>
        <time>2022-09-07T10:19:40Z</time>
      </trkpt>
      <trkpt lat="43.11584" lon="0.02562">
        <ele>398.8</ele>
        <time>2022-09-07T10:19:46Z</time>
      </trkpt>
      <trkpt lat="43.11584" lon="0.02532">
        <ele>398.8</ele>
        <time>2022-09-07T10:19:52Z</time>
      </trkpt>
      <trkpt lat="43.11576" lon="0.02476">
        <ele>399</ele>
        <time>2022-09-07T10:20:02Z</time>
      </trkpt>
      <trkpt lat="43.11572" lon="0.02459">
        <ele>399.4</ele>
        <time>2022-09-07T10:20:05Z</time>
      </trkpt>
      <trkpt lat="43.11567" lon="0.02428">
        <ele>400.2</ele>
        <time>2022-09-07T10:20:11Z</time>
      </trkpt>
      <trkpt lat="43.11562" lon="0.02397">
        <ele>400.6</ele>
        <time>2022-09-07T10:20:17Z</time>
      </trkpt>
      <trkpt lat="43.1156" lon="0.02387">
        <ele>400.6</ele>
        <time>2022-09-07T10:20:19Z</time>
      </trkpt>
      <trkpt lat="43.11549" lon="0.02337">
        <ele>400.4</ele>
        <time>2022-09-07T10:20:28Z</time>
      </trkpt>
      <trkpt lat="43.11536" lon="0.02273">
        <ele>400.4</ele>
        <time>2022-09-07T10:20:39Z</time>
      </trkpt>
      <trkpt lat="43.11528" lon="0.02228">
        <ele>400.8</ele>
        <time>2022-09-07T10:20:47Z</time>
      </trkpt>
      <trkpt lat="43.11518" lon="0.02185">
        <ele>401</ele>
        <time>2022-09-07T10:20:55Z</time>
      </trkpt>
      <trkpt lat="43.11517" lon="0.02174">
        <ele>400.8</ele>
        <time>2022-09-07T10:20:57Z</time>
      </trkpt>
      <trkpt lat="43.11513" lon="0.02144">
        <ele>400.6</ele>
        <time>2022-09-07T10:21:03Z</time>
      </trkpt>
      <trkpt lat="43.11512" lon="0.02114">
        <ele>399.8</ele>
        <time>2022-09-07T10:21:09Z</time>
      </trkpt>
      <trkpt lat="43.11515" lon="0.02099">
        <ele>399.8</ele>
        <time>2022-09-07T10:21:13Z</time>
      </trkpt>
      <trkpt lat="43.11519" lon="0.02092">
        <ele>400.4</ele>
        <time>2022-09-07T10:21:18Z</time>
      </trkpt>
      <trkpt lat="43.1152" lon="0.02095">
        <ele>400.4</ele>
        <time>2022-09-07T10:23:32Z</time>
      </trkpt>
      <trkpt lat="43.11517" lon="0.021">
        <ele>400.4</ele>
        <time>2022-09-07T10:23:34Z</time>
      </trkpt>
      <trkpt lat="43.11512" lon="0.02106">
        <ele>399.8</ele>
        <time>2022-09-07T10:23:37Z</time>
      </trkpt>
      <trkpt lat="43.11507" lon="0.02105">
        <ele>399.6</ele>
        <time>2022-09-07T10:23:39Z</time>
      </trkpt>
      <trkpt lat="43.11498" lon="0.02089">
        <ele>399.2</ele>
        <time>2022-09-07T10:23:43Z</time>
      </trkpt>
      <trkpt lat="43.11487" lon="0.02072">
        <ele>398.6</ele>
        <time>2022-09-07T10:23:47Z</time>
      </trkpt>
      <trkpt lat="43.11483" lon="0.02069">
        <ele>398.4</ele>
        <time>2022-09-07T10:23:48Z</time>
      </trkpt>
      <trkpt lat="43.11479" lon="0.02065">
        <ele>398.2</ele>
        <time>2022-09-07T10:23:49Z</time>
      </trkpt>
      <trkpt lat="43.11471" lon="0.02058">
        <ele>397.8</ele>
        <time>2022-09-07T10:23:51Z</time>
      </trkpt>
      <trkpt lat="43.11459" lon="0.02047">
        <ele>397.4</ele>
        <time>2022-09-07T10:23:54Z</time>
      </trkpt>
      <trkpt lat="43.11455" lon="0.02044">
        <ele>397.2</ele>
        <time>2022-09-07T10:23:55Z</time>
      </trkpt>
      <trkpt lat="43.11432" lon="0.0202">
        <ele>397.2</ele>
        <time>2022-09-07T10:24:02Z</time>
      </trkpt>
      <trkpt lat="43.11429" lon="0.02017">
        <ele>397</ele>
        <time>2022-09-07T10:24:03Z</time>
      </trkpt>
      <trkpt lat="43.11407" lon="0.01999">
        <ele>397</ele>
        <time>2022-09-07T10:24:10Z</time>
      </trkpt>
      <trkpt lat="43.11384" lon="0.01979">
        <ele>397.8</ele>
        <time>2022-09-07T10:24:18Z</time>
      </trkpt>
      <trkpt lat="43.11375" lon="0.01969">
        <ele>398.4</ele>
        <time>2022-09-07T10:24:22Z</time>
      </trkpt>
      <trkpt lat="43.11369" lon="0.01961">
        <ele>399.2</ele>
        <time>2022-09-07T10:24:26Z</time>
      </trkpt>
      <trkpt lat="43.11367" lon="0.01959">
        <ele>399.4</ele>
        <time>2022-09-07T10:24:27Z</time>
      </trkpt>
      <trkpt lat="43.11361" lon="0.01951">
        <ele>400.6</ele>
        <time>2022-09-07T10:24:32Z</time>
      </trkpt>
      <trkpt lat="43.11359" lon="0.01947">
        <ele>400.8</ele>
        <time>2022-09-07T10:24:34Z</time>
      </trkpt>
      <trkpt lat="43.11352" lon="0.01937">
        <ele>401.6</ele>
        <time>2022-09-07T10:24:39Z</time>
      </trkpt>
      <trkpt lat="43.11348" lon="0.01929">
        <ele>402.4</ele>
        <time>2022-09-07T10:24:43Z</time>
      </trkpt>
      <trkpt lat="43.11347" lon="0.01927">
        <ele>402.6</ele>
        <time>2022-09-07T10:24:44Z</time>
      </trkpt>
      <trkpt lat="43.11339" lon="0.01908">
        <ele>403.4</ele>
        <time>2022-09-07T10:24:52Z</time>
      </trkpt>
      <trkpt lat="43.11337" lon="0.019">
        <ele>403.8</ele>
        <time>2022-09-07T10:24:55Z</time>
      </trkpt>
      <trkpt lat="43.11335" lon="0.01884">
        <ele>404.2</ele>
        <time>2022-09-07T10:25:01Z</time>
      </trkpt>
      <trkpt lat="43.11333" lon="0.01868">
        <ele>404.8</ele>
        <time>2022-09-07T10:25:06Z</time>
      </trkpt>
      <trkpt lat="43.11332" lon="0.01859">
        <ele>405.2</ele>
        <time>2022-09-07T10:25:09Z</time>
      </trkpt>
      <trkpt lat="43.11331" lon="0.01848">
        <ele>405.8</ele>
        <time>2022-09-07T10:25:13Z</time>
      </trkpt>
      <trkpt lat="43.1133" lon="0.01835">
        <ele>406.4</ele>
        <time>2022-09-07T10:25:17Z</time>
      </trkpt>
      <trkpt lat="43.11329" lon="0.01817">
        <ele>407</ele>
        <time>2022-09-07T10:25:23Z</time>
      </trkpt>
      <trkpt lat="43.11328" lon="0.01811">
        <ele>407.2</ele>
        <time>2022-09-07T10:25:25Z</time>
      </trkpt>
      <trkpt lat="43.11327" lon="0.01796">
        <ele>408</ele>
        <time>2022-09-07T10:25:30Z</time>
      </trkpt>
      <trkpt lat="43.11325" lon="0.01782">
        <ele>408.6</ele>
        <time>2022-09-07T10:25:35Z</time>
      </trkpt>
      <trkpt lat="43.11322" lon="0.01766">
        <ele>409</ele>
        <time>2022-09-07T10:25:40Z</time>
      </trkpt>
      <trkpt lat="43.11317" lon="0.01754">
        <ele>409.4</ele>
        <time>2022-09-07T10:25:44Z</time>
      </trkpt>
      <trkpt lat="43.11309" lon="0.01738">
        <ele>410</ele>
        <time>2022-09-07T10:25:50Z</time>
      </trkpt>
      <trkpt lat="43.11308" lon="0.01736">
        <ele>410</ele>
        <time>2022-09-07T10:25:51Z</time>
      </trkpt>
      <trkpt lat="43.11296" lon="0.0172">
        <ele>410.6</ele>
        <time>2022-09-07T10:25:58Z</time>
      </trkpt>
      <trkpt lat="43.11287" lon="0.01706">
        <ele>411.2</ele>
        <time>2022-09-07T10:26:04Z</time>
      </trkpt>
      <trkpt lat="43.11279" lon="0.01691">
        <ele>411.2</ele>
        <time>2022-09-07T10:26:10Z</time>
      </trkpt>
      <trkpt lat="43.11266" lon="0.01667">
        <ele>410.6</ele>
        <time>2022-09-07T10:26:16Z</time>
      </trkpt>
      <trkpt lat="43.11261" lon="0.01657">
        <ele>410</ele>
        <time>2022-09-07T10:26:18Z</time>
      </trkpt>
      <trkpt lat="43.11254" lon="0.01638">
        <ele>409</ele>
        <time>2022-09-07T10:26:21Z</time>
      </trkpt>
      <trkpt lat="43.11244" lon="0.01616">
        <ele>408.4</ele>
        <time>2022-09-07T10:26:24Z</time>
      </trkpt>
      <trkpt lat="43.11236" lon="0.01603">
        <ele>408.2</ele>
        <time>2022-09-07T10:26:26Z</time>
      </trkpt>
      <trkpt lat="43.11229" lon="0.0159">
        <ele>408</ele>
        <time>2022-09-07T10:26:28Z</time>
      </trkpt>
      <trkpt lat="43.1122" lon="0.01573">
        <ele>408.2</ele>
        <time>2022-09-07T10:26:31Z</time>
      </trkpt>
      <trkpt lat="43.11203" lon="0.01537">
        <ele>409</ele>
        <time>2022-09-07T10:26:38Z</time>
      </trkpt>
      <trkpt lat="43.11201" lon="0.01533">
        <ele>409</ele>
        <time>2022-09-07T10:26:39Z</time>
      </trkpt>
      <trkpt lat="43.11188" lon="0.01505">
        <ele>409.8</ele>
        <time>2022-09-07T10:26:45Z</time>
      </trkpt>
      <trkpt lat="43.11178" lon="0.01476">
        <ele>410</ele>
        <time>2022-09-07T10:26:51Z</time>
      </trkpt>
      <trkpt lat="43.11176" lon="0.01465">
        <ele>410</ele>
        <time>2022-09-07T10:26:53Z</time>
      </trkpt>
      <trkpt lat="43.11168" lon="0.01431">
        <ele>410.6</ele>
        <time>2022-09-07T10:27:00Z</time>
      </trkpt>
      <trkpt lat="43.11157" lon="0.01402">
        <ele>410.2</ele>
        <time>2022-09-07T10:27:06Z</time>
      </trkpt>
      <trkpt lat="43.11143" lon="0.01369">
        <ele>409</ele>
        <time>2022-09-07T10:27:12Z</time>
      </trkpt>
      <trkpt lat="43.11141" lon="0.01363">
        <ele>409</ele>
        <time>2022-09-07T10:27:13Z</time>
      </trkpt>
      <trkpt lat="43.1113" lon="0.01341">
        <ele>408.6</ele>
        <time>2022-09-07T10:27:17Z</time>
      </trkpt>
      <trkpt lat="43.11122" lon="0.01329">
        <ele>409</ele>
        <time>2022-09-07T10:27:20Z</time>
      </trkpt>
      <trkpt lat="43.11109" lon="0.01312">
        <ele>410</ele>
        <time>2022-09-07T10:27:26Z</time>
      </trkpt>
      <trkpt lat="43.111" lon="0.01301">
        <ele>411.2</ele>
        <time>2022-09-07T10:27:32Z</time>
      </trkpt>
      <trkpt lat="43.11099" lon="0.01299">
        <ele>411.6</ele>
        <time>2022-09-07T10:27:33Z</time>
      </trkpt>
      <trkpt lat="43.11096" lon="0.01295">
        <ele>412.2</ele>
        <time>2022-09-07T10:27:36Z</time>
      </trkpt>
      <trkpt lat="43.11092" lon="0.01289">
        <ele>413.2</ele>
        <time>2022-09-07T10:27:40Z</time>
      </trkpt>
      <trkpt lat="43.11091" lon="0.01287">
        <ele>413.4</ele>
        <time>2022-09-07T10:27:41Z</time>
      </trkpt>
      <trkpt lat="43.11085" lon="0.01278">
        <ele>414.6</ele>
        <time>2022-09-07T10:27:47Z</time>
      </trkpt>
      <trkpt lat="43.11084" lon="0.01277">
        <ele>414.8</ele>
        <time>2022-09-07T10:27:48Z</time>
      </trkpt>
      <trkpt lat="43.11077" lon="0.01265">
        <ele>415.8</ele>
        <time>2022-09-07T10:27:54Z</time>
      </trkpt>
      <trkpt lat="43.11076" lon="0.01263">
        <ele>416</ele>
        <time>2022-09-07T10:27:55Z</time>
      </trkpt>
      <trkpt lat="43.11071" lon="0.01254">
        <ele>417</ele>
        <time>2022-09-07T10:28:00Z</time>
      </trkpt>
      <trkpt lat="43.11069" lon="0.01251">
        <ele>417.4</ele>
        <time>2022-09-07T10:28:02Z</time>
      </trkpt>
      <trkpt lat="43.11066" lon="0.01241">
        <ele>418.2</ele>
        <time>2022-09-07T10:28:07Z</time>
      </trkpt>
      <trkpt lat="43.11064" lon="0.01235">
        <ele>418.8</ele>
        <time>2022-09-07T10:28:10Z</time>
      </trkpt>
      <trkpt lat="43.11063" lon="0.01232">
        <ele>419.2</ele>
        <time>2022-09-07T10:28:12Z</time>
      </trkpt>
      <trkpt lat="43.11059" lon="0.01219">
        <ele>420</ele>
        <time>2022-09-07T10:28:18Z</time>
      </trkpt>
      <trkpt lat="43.11059" lon="0.01217">
        <ele>420.4</ele>
        <time>2022-09-07T10:28:19Z</time>
      </trkpt>
      <trkpt lat="43.11056" lon="0.01205">
        <ele>421.4</ele>
        <time>2022-09-07T10:28:25Z</time>
      </trkpt>
      <trkpt lat="43.11055" lon="0.01203">
        <ele>421.4</ele>
        <time>2022-09-07T10:28:26Z</time>
      </trkpt>
      <trkpt lat="43.11053" lon="0.0119">
        <ele>422.4</ele>
        <time>2022-09-07T10:28:32Z</time>
      </trkpt>
      <trkpt lat="43.11052" lon="0.01186">
        <ele>422.6</ele>
        <time>2022-09-07T10:28:34Z</time>
      </trkpt>
      <trkpt lat="43.1105" lon="0.01179">
        <ele>423.2</ele>
        <time>2022-09-07T10:28:38Z</time>
      </trkpt>
      <trkpt lat="43.11049" lon="0.01176">
        <ele>423.4</ele>
        <time>2022-09-07T10:28:39Z</time>
      </trkpt>
      <trkpt lat="43.11049" lon="0.01172">
        <ele>423.8</ele>
        <time>2022-09-07T10:28:41Z</time>
      </trkpt>
      <trkpt lat="43.11047" lon="0.01169">
        <ele>424</ele>
        <time>2022-09-07T10:28:43Z</time>
      </trkpt>
      <trkpt lat="43.11042" lon="0.01161">
        <ele>424.8</ele>
        <time>2022-09-07T10:28:47Z</time>
      </trkpt>
      <trkpt lat="43.11041" lon="0.01159">
        <ele>424.8</ele>
        <time>2022-09-07T10:28:48Z</time>
      </trkpt>
      <trkpt lat="43.11037" lon="0.01153">
        <ele>425</ele>
        <time>2022-09-07T10:28:51Z</time>
      </trkpt>
      <trkpt lat="43.11025" lon="0.0114">
        <ele>425</ele>
        <time>2022-09-07T10:28:59Z</time>
      </trkpt>
      <trkpt lat="43.11008" lon="0.01121">
        <ele>424.6</ele>
        <time>2022-09-07T10:29:06Z</time>
      </trkpt>
      <trkpt lat="43.10994" lon="0.011">
        <ele>424.2</ele>
        <time>2022-09-07T10:29:12Z</time>
      </trkpt>
      <trkpt lat="43.10981" lon="0.01069">
        <ele>425.2</ele>
        <time>2022-09-07T10:29:20Z</time>
      </trkpt>
      <trkpt lat="43.10974" lon="0.01046">
        <ele>425.8</ele>
        <time>2022-09-07T10:29:26Z</time>
      </trkpt>
      <trkpt lat="43.1097" lon="0.01038">
        <ele>426</ele>
        <time>2022-09-07T10:29:28Z</time>
      </trkpt>
      <trkpt lat="43.10953" lon="0.01015">
        <ele>425.8</ele>
        <time>2022-09-07T10:29:34Z</time>
      </trkpt>
      <trkpt lat="43.10927" lon="0.00994">
        <ele>426.4</ele>
        <time>2022-09-07T10:29:42Z</time>
      </trkpt>
      <trkpt lat="43.10919" lon="0.00988">
        <ele>426.8</ele>
        <time>2022-09-07T10:29:45Z</time>
      </trkpt>
      <trkpt lat="43.10909" lon="0.00981">
        <ele>427.6</ele>
        <time>2022-09-07T10:29:50Z</time>
      </trkpt>
      <trkpt lat="43.10905" lon="0.00979">
        <ele>427.8</ele>
        <time>2022-09-07T10:29:52Z</time>
      </trkpt>
      <trkpt lat="43.10899" lon="0.00975">
        <ele>428.4</ele>
        <time>2022-09-07T10:29:56Z</time>
      </trkpt>
      <trkpt lat="43.10896" lon="0.00972">
        <ele>429</ele>
        <time>2022-09-07T10:29:58Z</time>
      </trkpt>
      <trkpt lat="43.10892" lon="0.0097">
        <ele>429.2</ele>
        <time>2022-09-07T10:30:00Z</time>
      </trkpt>
      <trkpt lat="43.10889" lon="0.00968">
        <ele>429.4</ele>
        <time>2022-09-07T10:30:02Z</time>
      </trkpt>
      <trkpt lat="43.10886" lon="0.00964">
        <ele>429.6</ele>
        <time>2022-09-07T10:30:04Z</time>
      </trkpt>
      <trkpt lat="43.10882" lon="0.0096">
        <ele>430</ele>
        <time>2022-09-07T10:30:07Z</time>
      </trkpt>
      <trkpt lat="43.10875" lon="0.00951">
        <ele>431</ele>
        <time>2022-09-07T10:30:12Z</time>
      </trkpt>
      <trkpt lat="43.1087" lon="0.00946">
        <ele>431.4</ele>
        <time>2022-09-07T10:30:15Z</time>
      </trkpt>
      <trkpt lat="43.10861" lon="0.00938">
        <ele>432</ele>
        <time>2022-09-07T10:30:20Z</time>
      </trkpt>
      <trkpt lat="43.10857" lon="0.00935">
        <ele>432.8</ele>
        <time>2022-09-07T10:30:23Z</time>
      </trkpt>
      <trkpt lat="43.10854" lon="0.00933">
        <ele>433</ele>
        <time>2022-09-07T10:30:25Z</time>
      </trkpt>
      <trkpt lat="43.10844" lon="0.00928">
        <ele>433.6</ele>
        <time>2022-09-07T10:30:30Z</time>
      </trkpt>
      <trkpt lat="43.10839" lon="0.00924">
        <ele>434.2</ele>
        <time>2022-09-07T10:30:33Z</time>
      </trkpt>
      <trkpt lat="43.10832" lon="0.00918">
        <ele>435</ele>
        <time>2022-09-07T10:30:38Z</time>
      </trkpt>
      <trkpt lat="43.10829" lon="0.00917">
        <ele>435.2</ele>
        <time>2022-09-07T10:30:40Z</time>
      </trkpt>
      <trkpt lat="43.10825" lon="0.00915">
        <ele>435.4</ele>
        <time>2022-09-07T10:30:42Z</time>
      </trkpt>
      <trkpt lat="43.10823" lon="0.00912">
        <ele>435.8</ele>
        <time>2022-09-07T10:30:44Z</time>
      </trkpt>
      <trkpt lat="43.1082" lon="0.00911">
        <ele>436.4</ele>
        <time>2022-09-07T10:30:46Z</time>
      </trkpt>
      <trkpt lat="43.10816" lon="0.00908">
        <ele>436.4</ele>
        <time>2022-09-07T10:30:49Z</time>
      </trkpt>
      <trkpt lat="43.10807" lon="0.00902">
        <ele>437.2</ele>
        <time>2022-09-07T10:30:55Z</time>
      </trkpt>
      <trkpt lat="43.10806" lon="0.009">
        <ele>437.4</ele>
        <time>2022-09-07T10:30:56Z</time>
      </trkpt>
      <trkpt lat="43.10803" lon="0.00898">
        <ele>437.4</ele>
        <time>2022-09-07T10:30:58Z</time>
      </trkpt>
      <trkpt lat="43.10797" lon="0.00893">
        <ele>437.6</ele>
        <time>2022-09-07T10:31:02Z</time>
      </trkpt>
      <trkpt lat="43.10785" lon="0.00886">
        <ele>438.6</ele>
        <time>2022-09-07T10:31:09Z</time>
      </trkpt>
      <trkpt lat="43.10783" lon="0.00885">
        <ele>438.6</ele>
        <time>2022-09-07T10:31:10Z</time>
      </trkpt>
      <trkpt lat="43.10772" lon="0.00877">
        <ele>439.6</ele>
        <time>2022-09-07T10:31:17Z</time>
      </trkpt>
      <trkpt lat="43.1077" lon="0.00875">
        <ele>439.6</ele>
        <time>2022-09-07T10:31:18Z</time>
      </trkpt>
      <trkpt lat="43.10764" lon="0.00867">
        <ele>440</ele>
        <time>2022-09-07T10:31:23Z</time>
      </trkpt>
      <trkpt lat="43.10761" lon="0.00862">
        <ele>440.6</ele>
        <time>2022-09-07T10:31:26Z</time>
      </trkpt>
      <trkpt lat="43.10756" lon="0.00855">
        <ele>441.2</ele>
        <time>2022-09-07T10:31:30Z</time>
      </trkpt>
      <trkpt lat="43.1075" lon="0.00848">
        <ele>441.8</ele>
        <time>2022-09-07T10:31:34Z</time>
      </trkpt>
      <trkpt lat="43.10747" lon="0.00845">
        <ele>442.2</ele>
        <time>2022-09-07T10:31:36Z</time>
      </trkpt>
      <trkpt lat="43.10745" lon="0.00841">
        <ele>442.4</ele>
        <time>2022-09-07T10:31:38Z</time>
      </trkpt>
      <trkpt lat="43.10738" lon="0.00826">
        <ele>442.8</ele>
        <time>2022-09-07T10:31:45Z</time>
      </trkpt>
      <trkpt lat="43.10736" lon="0.00819">
        <ele>443</ele>
        <time>2022-09-07T10:31:48Z</time>
      </trkpt>
      <trkpt lat="43.10734" lon="0.00814">
        <ele>443.2</ele>
        <time>2022-09-07T10:31:50Z</time>
      </trkpt>
      <trkpt lat="43.10728" lon="0.00797">
        <ele>443.4</ele>
        <time>2022-09-07T10:31:56Z</time>
      </trkpt>
      <trkpt lat="43.1072" lon="0.00775">
        <ele>443.2</ele>
        <time>2022-09-07T10:32:03Z</time>
      </trkpt>
      <trkpt lat="43.10714" lon="0.00755">
        <ele>443</ele>
        <time>2022-09-07T10:32:08Z</time>
      </trkpt>
      <trkpt lat="43.10698" lon="0.0072">
        <ele>443.2</ele>
        <time>2022-09-07T10:32:16Z</time>
      </trkpt>
      <trkpt lat="43.10678" lon="0.00696">
        <ele>443.2</ele>
        <time>2022-09-07T10:32:23Z</time>
      </trkpt>
      <trkpt lat="43.10661" lon="0.00679">
        <ele>443.6</ele>
        <time>2022-09-07T10:32:29Z</time>
      </trkpt>
      <trkpt lat="43.10642" lon="0.00653">
        <ele>443.8</ele>
        <time>2022-09-07T10:32:37Z</time>
      </trkpt>
      <trkpt lat="43.1064" lon="0.00649">
        <ele>444</ele>
        <time>2022-09-07T10:32:38Z</time>
      </trkpt>
      <trkpt lat="43.10627" lon="0.00622">
        <ele>444.6</ele>
        <time>2022-09-07T10:32:45Z</time>
      </trkpt>
      <trkpt lat="43.10619" lon="0.00599">
        <ele>444.8</ele>
        <time>2022-09-07T10:32:51Z</time>
      </trkpt>
      <trkpt lat="43.10614" lon="0.00582">
        <ele>445.2</ele>
        <time>2022-09-07T10:32:55Z</time>
      </trkpt>
      <trkpt lat="43.10608" lon="0.00565">
        <ele>445</ele>
        <time>2022-09-07T10:32:59Z</time>
      </trkpt>
      <trkpt lat="43.10597" lon="0.00528">
        <ele>445</ele>
        <time>2022-09-07T10:33:08Z</time>
      </trkpt>
      <trkpt lat="43.1059" lon="0.00501">
        <ele>445.8</ele>
        <time>2022-09-07T10:33:15Z</time>
      </trkpt>
      <trkpt lat="43.10586" lon="0.00493">
        <ele>446.2</ele>
        <time>2022-09-07T10:33:18Z</time>
      </trkpt>
      <trkpt lat="43.10578" lon="0.00481">
        <ele>446.8</ele>
        <time>2022-09-07T10:33:24Z</time>
      </trkpt>
      <trkpt lat="43.10573" lon="0.00473">
        <ele>447.4</ele>
        <time>2022-09-07T10:33:29Z</time>
      </trkpt>
      <trkpt lat="43.10569" lon="0.00472">
        <ele>447.8</ele>
        <time>2022-09-07T10:33:31Z</time>
      </trkpt>
      <trkpt lat="43.10568" lon="0.00472">
        <ele>448.2</ele>
        <time>2022-09-07T10:33:32Z</time>
      </trkpt>
      <trkpt lat="43.10566" lon="0.00469">
        <ele>448.8</ele>
        <time>2022-09-07T10:33:34Z</time>
      </trkpt>
      <trkpt lat="43.10565" lon="0.00466">
        <ele>448.8</ele>
        <time>2022-09-07T10:33:36Z</time>
      </trkpt>
      <trkpt lat="43.10561" lon="0.00463">
        <ele>449.6</ele>
        <time>2022-09-07T10:33:40Z</time>
      </trkpt>
      <trkpt lat="43.1056" lon="0.00461">
        <ele>449.8</ele>
        <time>2022-09-07T10:33:41Z</time>
      </trkpt>
      <trkpt lat="43.10557" lon="0.00457">
        <ele>450.2</ele>
        <time>2022-09-07T10:33:44Z</time>
      </trkpt>
      <trkpt lat="43.10556" lon="0.00456">
        <ele>450.2</ele>
        <time>2022-09-07T10:33:45Z</time>
      </trkpt>
      <trkpt lat="43.10553" lon="0.00453">
        <ele>450.8</ele>
        <time>2022-09-07T10:33:48Z</time>
      </trkpt>
      <trkpt lat="43.10552" lon="0.0045">
        <ele>451</ele>
        <time>2022-09-07T10:33:50Z</time>
      </trkpt>
      <trkpt lat="43.10546" lon="0.00444">
        <ele>451.8</ele>
        <time>2022-09-07T10:33:55Z</time>
      </trkpt>
      <trkpt lat="43.10545" lon="0.00443">
        <ele>452</ele>
        <time>2022-09-07T10:33:56Z</time>
      </trkpt>
      <trkpt lat="43.10543" lon="0.00436">
        <ele>452.6</ele>
        <time>2022-09-07T10:34:01Z</time>
      </trkpt>
      <trkpt lat="43.10542" lon="0.00435">
        <ele>452.6</ele>
        <time>2022-09-07T10:34:02Z</time>
      </trkpt>
      <trkpt lat="43.10539" lon="0.00432">
        <ele>453</ele>
        <time>2022-09-07T10:34:04Z</time>
      </trkpt>
      <trkpt lat="43.10532" lon="0.00421">
        <ele>453.8</ele>
        <time>2022-09-07T10:34:12Z</time>
      </trkpt>
      <trkpt lat="43.10531" lon="0.00419">
        <ele>454</ele>
        <time>2022-09-07T10:34:13Z</time>
      </trkpt>
      <trkpt lat="43.10526" lon="0.0041">
        <ele>454.8</ele>
        <time>2022-09-07T10:34:19Z</time>
      </trkpt>
      <trkpt lat="43.10524" lon="0.00408">
        <ele>455</ele>
        <time>2022-09-07T10:34:20Z</time>
      </trkpt>
      <trkpt lat="43.10518" lon="0.00401">
        <ele>455.4</ele>
        <time>2022-09-07T10:34:25Z</time>
      </trkpt>
      <trkpt lat="43.10515" lon="0.00392">
        <ele>456.2</ele>
        <time>2022-09-07T10:34:30Z</time>
      </trkpt>
      <trkpt lat="43.10514" lon="0.0039">
        <ele>456.4</ele>
        <time>2022-09-07T10:34:31Z</time>
      </trkpt>
      <trkpt lat="43.10508" lon="0.00382">
        <ele>457.2</ele>
        <time>2022-09-07T10:34:37Z</time>
      </trkpt>
      <trkpt lat="43.10507" lon="0.0038">
        <ele>457.4</ele>
        <time>2022-09-07T10:34:38Z</time>
      </trkpt>
      <trkpt lat="43.10504" lon="0.00372">
        <ele>458.2</ele>
        <time>2022-09-07T10:34:43Z</time>
      </trkpt>
      <trkpt lat="43.10503" lon="0.0037">
        <ele>458.4</ele>
        <time>2022-09-07T10:34:44Z</time>
      </trkpt>
      <trkpt lat="43.10497" lon="0.00361">
        <ele>459.6</ele>
        <time>2022-09-07T10:34:50Z</time>
      </trkpt>
      <trkpt lat="43.10491" lon="0.00352">
        <ele>460.8</ele>
        <time>2022-09-07T10:34:56Z</time>
      </trkpt>
      <trkpt lat="43.10486" lon="0.00342">
        <ele>461.6</ele>
        <time>2022-09-07T10:35:02Z</time>
      </trkpt>
      <trkpt lat="43.10484" lon="0.00339">
        <ele>461.8</ele>
        <time>2022-09-07T10:35:04Z</time>
      </trkpt>
      <trkpt lat="43.10479" lon="0.00331">
        <ele>462.4</ele>
        <time>2022-09-07T10:35:09Z</time>
      </trkpt>
      <trkpt lat="43.10478" lon="0.00327">
        <ele>462.8</ele>
        <time>2022-09-07T10:35:11Z</time>
      </trkpt>
      <trkpt lat="43.10474" lon="0.0032">
        <ele>463.2</ele>
        <time>2022-09-07T10:35:15Z</time>
      </trkpt>
      <trkpt lat="43.1047" lon="0.00315">
        <ele>463.4</ele>
        <time>2022-09-07T10:35:18Z</time>
      </trkpt>
      <trkpt lat="43.10464" lon="0.00307">
        <ele>463.8</ele>
        <time>2022-09-07T10:35:23Z</time>
      </trkpt>
      <trkpt lat="43.10463" lon="0.00305">
        <ele>464</ele>
        <time>2022-09-07T10:35:24Z</time>
      </trkpt>
      <trkpt lat="43.10451" lon="0.00288">
        <ele>464.8</ele>
        <time>2022-09-07T10:35:34Z</time>
      </trkpt>
      <trkpt lat="43.1045" lon="0.00286">
        <ele>465</ele>
        <time>2022-09-07T10:35:35Z</time>
      </trkpt>
      <trkpt lat="43.10442" lon="0.00277">
        <ele>465.6</ele>
        <time>2022-09-07T10:35:41Z</time>
      </trkpt>
      <trkpt lat="43.10438" lon="0.00273">
        <ele>466.2</ele>
        <time>2022-09-07T10:35:44Z</time>
      </trkpt>
      <trkpt lat="43.10434" lon="0.00269">
        <ele>466.2</ele>
        <time>2022-09-07T10:35:47Z</time>
      </trkpt>
      <trkpt lat="43.10428" lon="0.00263">
        <ele>467.2</ele>
        <time>2022-09-07T10:35:52Z</time>
      </trkpt>
      <trkpt lat="43.10422" lon="0.00258">
        <ele>467.8</ele>
        <time>2022-09-07T10:35:56Z</time>
      </trkpt>
      <trkpt lat="43.10421" lon="0.00257">
        <ele>468</ele>
        <time>2022-09-07T10:35:57Z</time>
      </trkpt>
      <trkpt lat="43.1042" lon="0.00255">
        <ele>468.4</ele>
        <time>2022-09-07T10:35:58Z</time>
      </trkpt>
      <trkpt lat="43.10418" lon="0.00248">
        <ele>469</ele>
        <time>2022-09-07T10:36:02Z</time>
      </trkpt>
      <trkpt lat="43.10416" lon="0.00243">
        <ele>469.6</ele>
        <time>2022-09-07T10:36:05Z</time>
      </trkpt>
      <trkpt lat="43.10412" lon="0.00236">
        <ele>470.2</ele>
        <time>2022-09-07T10:36:09Z</time>
      </trkpt>
      <trkpt lat="43.10411" lon="0.00233">
        <ele>470.8</ele>
        <time>2022-09-07T10:36:11Z</time>
      </trkpt>
      <trkpt lat="43.10406" lon="0.00226">
        <ele>471.8</ele>
        <time>2022-09-07T10:36:16Z</time>
      </trkpt>
      <trkpt lat="43.10404" lon="0.00225">
        <ele>472</ele>
        <time>2022-09-07T10:36:17Z</time>
      </trkpt>
      <trkpt lat="43.10403" lon="0.00223">
        <ele>472.2</ele>
        <time>2022-09-07T10:36:18Z</time>
      </trkpt>
      <trkpt lat="43.10403" lon="0.00218">
        <ele>472.8</ele>
        <time>2022-09-07T10:36:21Z</time>
      </trkpt>
      <trkpt lat="43.10403" lon="0.00216">
        <ele>473.2</ele>
        <time>2022-09-07T10:36:22Z</time>
      </trkpt>
      <trkpt lat="43.10399" lon="0.00212">
        <ele>473.8</ele>
        <time>2022-09-07T10:36:26Z</time>
      </trkpt>
      <trkpt lat="43.10399" lon="0.00209">
        <ele>474.2</ele>
        <time>2022-09-07T10:36:28Z</time>
      </trkpt>
      <trkpt lat="43.10399" lon="0.00204">
        <ele>474.6</ele>
        <time>2022-09-07T10:36:31Z</time>
      </trkpt>
      <trkpt lat="43.10398" lon="0.00203">
        <ele>474.8</ele>
        <time>2022-09-07T10:36:32Z</time>
      </trkpt>
      <trkpt lat="43.10395" lon="0.002">
        <ele>475.2</ele>
        <time>2022-09-07T10:36:35Z</time>
      </trkpt>
      <trkpt lat="43.10395" lon="0.00199">
        <ele>475.4</ele>
        <time>2022-09-07T10:36:36Z</time>
      </trkpt>
      <trkpt lat="43.10392" lon="0.00191">
        <ele>476.2</ele>
        <time>2022-09-07T10:36:42Z</time>
      </trkpt>
      <trkpt lat="43.10391" lon="0.00186">
        <ele>476.8</ele>
        <time>2022-09-07T10:36:45Z</time>
      </trkpt>
      <trkpt lat="43.10391" lon="0.00184">
        <ele>477</ele>
        <time>2022-09-07T10:36:46Z</time>
      </trkpt>
      <trkpt lat="43.10391" lon="0.00181">
        <ele>477.2</ele>
        <time>2022-09-07T10:36:48Z</time>
      </trkpt>
      <trkpt lat="43.1039" lon="0.0018">
        <ele>477.6</ele>
        <time>2022-09-07T10:36:49Z</time>
      </trkpt>
      <trkpt lat="43.10388" lon="0.00177">
        <ele>478</ele>
        <time>2022-09-07T10:36:51Z</time>
      </trkpt>
      <trkpt lat="43.10386" lon="0.00168">
        <ele>478.6</ele>
        <time>2022-09-07T10:36:57Z</time>
      </trkpt>
      <trkpt lat="43.10385" lon="0.00163">
        <ele>479.2</ele>
        <time>2022-09-07T10:37:01Z</time>
      </trkpt>
      <trkpt lat="43.10385" lon="0.00162">
        <ele>479.4</ele>
        <time>2022-09-07T10:37:02Z</time>
      </trkpt>
      <trkpt lat="43.10385" lon="0.00158">
        <ele>479.6</ele>
        <time>2022-09-07T10:37:04Z</time>
      </trkpt>
      <trkpt lat="43.10383" lon="0.00155">
        <ele>479.8</ele>
        <time>2022-09-07T10:37:06Z</time>
      </trkpt>
      <trkpt lat="43.10383" lon="0.00154">
        <ele>480</ele>
        <time>2022-09-07T10:37:07Z</time>
      </trkpt>
      <trkpt lat="43.10381" lon="0.00152">
        <ele>480.4</ele>
        <time>2022-09-07T10:37:09Z</time>
      </trkpt>
      <trkpt lat="43.1038" lon="0.00147">
        <ele>481</ele>
        <time>2022-09-07T10:37:12Z</time>
      </trkpt>
      <trkpt lat="43.10379" lon="0.00146">
        <ele>481</ele>
        <time>2022-09-07T10:37:13Z</time>
      </trkpt>
      <trkpt lat="43.1037" lon="0.00139">
        <ele>481.6</ele>
        <time>2022-09-07T10:37:20Z</time>
      </trkpt>
      <trkpt lat="43.10359" lon="0.00129">
        <ele>482</ele>
        <time>2022-09-07T10:37:27Z</time>
      </trkpt>
      <trkpt lat="43.10358" lon="0.00128">
        <ele>482</ele>
        <time>2022-09-07T10:37:28Z</time>
      </trkpt>
      <trkpt lat="43.10348" lon="0.00122">
        <ele>482.4</ele>
        <time>2022-09-07T10:37:33Z</time>
      </trkpt>
      <trkpt lat="43.10346" lon="0.00121">
        <ele>482.8</ele>
        <time>2022-09-07T10:37:34Z</time>
      </trkpt>
      <trkpt lat="43.10339" lon="0.00118">
        <ele>483</ele>
        <time>2022-09-07T10:37:38Z</time>
      </trkpt>
      <trkpt lat="43.10336" lon="0.00117">
        <ele>483.2</ele>
        <time>2022-09-07T10:37:40Z</time>
      </trkpt>
      <trkpt lat="43.10327" lon="0.00114">
        <ele>484</ele>
        <time>2022-09-07T10:37:45Z</time>
      </trkpt>
      <trkpt lat="43.10322" lon="0.00114">
        <ele>484.6</ele>
        <time>2022-09-07T10:37:48Z</time>
      </trkpt>
      <trkpt lat="43.10314" lon="0.00115">
        <ele>484.6</ele>
        <time>2022-09-07T10:37:54Z</time>
      </trkpt>
      <trkpt lat="43.10307" lon="0.00113">
        <ele>485.2</ele>
        <time>2022-09-07T10:37:58Z</time>
      </trkpt>
      <trkpt lat="43.103" lon="0.00111">
        <ele>485.6</ele>
        <time>2022-09-07T10:38:01Z</time>
      </trkpt>
      <trkpt lat="43.10289" lon="0.00109">
        <ele>486.4</ele>
        <time>2022-09-07T10:38:06Z</time>
      </trkpt>
      <trkpt lat="43.10285" lon="0.00108">
        <ele>486.6</ele>
        <time>2022-09-07T10:38:08Z</time>
      </trkpt>
      <trkpt lat="43.10273" lon="0.00107">
        <ele>487.4</ele>
        <time>2022-09-07T10:38:15Z</time>
      </trkpt>
      <trkpt lat="43.1027" lon="0.00108">
        <ele>488</ele>
        <time>2022-09-07T10:38:17Z</time>
      </trkpt>
      <trkpt lat="43.10267" lon="0.00107">
        <ele>488.4</ele>
        <time>2022-09-07T10:38:19Z</time>
      </trkpt>
      <trkpt lat="43.10261" lon="0.00107">
        <ele>489.2</ele>
        <time>2022-09-07T10:38:23Z</time>
      </trkpt>
      <trkpt lat="43.10256" lon="0.00106">
        <ele>489.4</ele>
        <time>2022-09-07T10:38:26Z</time>
      </trkpt>
      <trkpt lat="43.10246" lon="0.00102">
        <ele>490.6</ele>
        <time>2022-09-07T10:38:32Z</time>
      </trkpt>
      <trkpt lat="43.10234" lon="0.00097">
        <ele>489.6</ele>
        <time>2022-09-07T10:38:39Z</time>
      </trkpt>
      <trkpt lat="43.10231" lon="0.00096">
        <ele>489.4</ele>
        <time>2022-09-07T10:38:40Z</time>
      </trkpt>
      <trkpt lat="43.10227" lon="0.00095">
        <ele>488.8</ele>
        <time>2022-09-07T10:38:44Z</time>
      </trkpt>
      <trkpt lat="43.10225" lon="0.00092">
        <ele>489.8</ele>
        <time>2022-09-07T10:39:54Z</time>
      </trkpt>
      <trkpt lat="43.10223" lon="0.00086">
        <ele>489.6</ele>
        <time>2022-09-07T10:39:56Z</time>
      </trkpt>
      <trkpt lat="43.10219" lon="0.00067">
        <ele>489.6</ele>
        <time>2022-09-07T10:40:01Z</time>
      </trkpt>
      <trkpt lat="43.10219" lon="0.00037">
        <ele>488.8</ele>
        <time>2022-09-07T10:40:06Z</time>
      </trkpt>
      <trkpt lat="43.10221" lon="0.00014">
        <ele>488.4</ele>
        <time>2022-09-07T10:40:09Z</time>
      </trkpt>
      <trkpt lat="43.10222" lon="-0.00012">
        <ele>487</ele>
        <time>2022-09-07T10:40:12Z</time>
      </trkpt>
      <trkpt lat="43.10226" lon="-0.00073">
        <ele>486.8</ele>
        <time>2022-09-07T10:40:19Z</time>
      </trkpt>
      <trkpt lat="43.10228" lon="-0.001">
        <ele>485.2</ele>
        <time>2022-09-07T10:40:22Z</time>
      </trkpt>
      <trkpt lat="43.10231" lon="-0.00128">
        <ele>484.4</ele>
        <time>2022-09-07T10:40:25Z</time>
      </trkpt>
      <trkpt lat="43.10232" lon="-0.00137">
        <ele>484.2</ele>
        <time>2022-09-07T10:40:26Z</time>
      </trkpt>
      <trkpt lat="43.10235" lon="-0.00171">
        <ele>483.4</ele>
        <time>2022-09-07T10:40:30Z</time>
      </trkpt>
      <trkpt lat="43.10238" lon="-0.00198">
        <ele>483.8</ele>
        <time>2022-09-07T10:40:35Z</time>
      </trkpt>
      <trkpt lat="43.10237" lon="-0.00203">
        <ele>483.6</ele>
        <time>2022-09-07T10:40:36Z</time>
      </trkpt>
      <trkpt lat="43.1023" lon="-0.00207">
        <ele>482.8</ele>
        <time>2022-09-07T10:40:38Z</time>
      </trkpt>
      <trkpt lat="43.10225" lon="-0.00204">
        <ele>482.2</ele>
        <time>2022-09-07T10:40:39Z</time>
      </trkpt>
      <trkpt lat="43.1022" lon="-0.00198">
        <ele>481.6</ele>
        <time>2022-09-07T10:40:40Z</time>
      </trkpt>
      <trkpt lat="43.10216" lon="-0.00192">
        <ele>480.8</ele>
        <time>2022-09-07T10:40:41Z</time>
      </trkpt>
      <trkpt lat="43.10213" lon="-0.00188">
        <ele>479.8</ele>
        <time>2022-09-07T10:40:42Z</time>
      </trkpt>
      <trkpt lat="43.10211" lon="-0.00184">
        <ele>478.8</ele>
        <time>2022-09-07T10:40:43Z</time>
      </trkpt>
      <trkpt lat="43.10209" lon="-0.0018">
        <ele>477.4</ele>
        <time>2022-09-07T10:40:45Z</time>
      </trkpt>
      <trkpt lat="43.10207" lon="-0.00176">
        <ele>476.6</ele>
        <time>2022-09-07T10:40:47Z</time>
      </trkpt>
      <trkpt lat="43.10205" lon="-0.00173">
        <ele>476.8</ele>
        <time>2022-09-07T10:41:31Z</time>
      </trkpt>
      <trkpt lat="43.10204" lon="-0.00169">
        <ele>476.6</ele>
        <time>2022-09-07T10:41:32Z</time>
      </trkpt>
      <trkpt lat="43.10201" lon="-0.00164">
        <ele>476.4</ele>
        <time>2022-09-07T10:41:33Z</time>
      </trkpt>
      <trkpt lat="43.10193" lon="-0.00152">
        <ele>475.4</ele>
        <time>2022-09-07T10:41:35Z</time>
      </trkpt>
      <trkpt lat="43.10188" lon="-0.00145">
        <ele>474.8</ele>
        <time>2022-09-07T10:41:36Z</time>
      </trkpt>
      <trkpt lat="43.1018" lon="-0.00126">
        <ele>473</ele>
        <time>2022-09-07T10:41:38Z</time>
      </trkpt>
      <trkpt lat="43.10175" lon="-0.00115">
        <ele>472</ele>
        <time>2022-09-07T10:41:39Z</time>
      </trkpt>
      <trkpt lat="43.10171" lon="-0.00103">
        <ele>471.4</ele>
        <time>2022-09-07T10:41:40Z</time>
      </trkpt>
      <trkpt lat="43.10164" lon="-0.00077">
        <ele>469.6</ele>
        <time>2022-09-07T10:41:42Z</time>
      </trkpt>
      <trkpt lat="43.1016" lon="-0.00063">
        <ele>468.8</ele>
        <time>2022-09-07T10:41:43Z</time>
      </trkpt>
      <trkpt lat="43.10155" lon="-0.00049">
        <ele>467.4</ele>
        <time>2022-09-07T10:41:44Z</time>
      </trkpt>
      <trkpt lat="43.1015" lon="-0.00035">
        <ele>466.4</ele>
        <time>2022-09-07T10:41:45Z</time>
      </trkpt>
      <trkpt lat="43.10145" lon="-0.00022">
        <ele>465.2</ele>
        <time>2022-09-07T10:41:46Z</time>
      </trkpt>
      <trkpt lat="43.10133" lon="5.0E-5">
        <ele>464.2</ele>
        <time>2022-09-07T10:41:48Z</time>
      </trkpt>
      <trkpt lat="43.10121" lon="0.00031">
        <ele>461.4</ele>
        <time>2022-09-07T10:41:50Z</time>
      </trkpt>
      <trkpt lat="43.10116" lon="0.00044">
        <ele>459.6</ele>
        <time>2022-09-07T10:41:51Z</time>
      </trkpt>
      <trkpt lat="43.1011" lon="0.00056">
        <ele>457.8</ele>
        <time>2022-09-07T10:41:52Z</time>
      </trkpt>
      <trkpt lat="43.10104" lon="0.00067">
        <ele>456.8</ele>
        <time>2022-09-07T10:41:53Z</time>
      </trkpt>
      <trkpt lat="43.10098" lon="0.00079">
        <ele>455.4</ele>
        <time>2022-09-07T10:41:54Z</time>
      </trkpt>
      <trkpt lat="43.10092" lon="0.00091">
        <ele>454.2</ele>
        <time>2022-09-07T10:41:55Z</time>
      </trkpt>
      <trkpt lat="43.10086" lon="0.00102">
        <ele>453</ele>
        <time>2022-09-07T10:41:56Z</time>
      </trkpt>
      <trkpt lat="43.10081" lon="0.00112">
        <ele>452</ele>
        <time>2022-09-07T10:41:57Z</time>
      </trkpt>
      <trkpt lat="43.10076" lon="0.00121">
        <ele>450.2</ele>
        <time>2022-09-07T10:41:58Z</time>
      </trkpt>
      <trkpt lat="43.1007" lon="0.00131">
        <ele>449</ele>
        <time>2022-09-07T10:41:59Z</time>
      </trkpt>
      <trkpt lat="43.10066" lon="0.0014">
        <ele>448</ele>
        <time>2022-09-07T10:42:00Z</time>
      </trkpt>
      <trkpt lat="43.10062" lon="0.00149">
        <ele>446.6</ele>
        <time>2022-09-07T10:42:01Z</time>
      </trkpt>
      <trkpt lat="43.10055" lon="0.00169">
        <ele>444.8</ele>
        <time>2022-09-07T10:42:03Z</time>
      </trkpt>
      <trkpt lat="43.10053" lon="0.00178">
        <ele>444</ele>
        <time>2022-09-07T10:42:04Z</time>
      </trkpt>
      <trkpt lat="43.10052" lon="0.00187">
        <ele>443.2</ele>
        <time>2022-09-07T10:42:05Z</time>
      </trkpt>
      <trkpt lat="43.10049" lon="0.00193">
        <ele>442.4</ele>
        <time>2022-09-07T10:42:06Z</time>
      </trkpt>
      <trkpt lat="43.10045" lon="0.00196">
        <ele>441.6</ele>
        <time>2022-09-07T10:42:07Z</time>
      </trkpt>
      <trkpt lat="43.10036" lon="0.00191">
        <ele>441</ele>
        <time>2022-09-07T10:42:09Z</time>
      </trkpt>
      <trkpt lat="43.10035" lon="0.00181">
        <ele>440.4</ele>
        <time>2022-09-07T10:42:10Z</time>
      </trkpt>
      <trkpt lat="43.10036" lon="0.00171">
        <ele>439.6</ele>
        <time>2022-09-07T10:42:11Z</time>
      </trkpt>
      <trkpt lat="43.10037" lon="0.00161">
        <ele>438.6</ele>
        <time>2022-09-07T10:42:12Z</time>
      </trkpt>
      <trkpt lat="43.10038" lon="0.0015">
        <ele>438</ele>
        <time>2022-09-07T10:42:13Z</time>
      </trkpt>
      <trkpt lat="43.10041" lon="0.0014">
        <ele>437.6</ele>
        <time>2022-09-07T10:42:14Z</time>
      </trkpt>
      <trkpt lat="43.10044" lon="0.00128">
        <ele>436.8</ele>
        <time>2022-09-07T10:42:15Z</time>
      </trkpt>
      <trkpt lat="43.10046" lon="0.00117">
        <ele>436.2</ele>
        <time>2022-09-07T10:42:16Z</time>
      </trkpt>
      <trkpt lat="43.10051" lon="0.00091">
        <ele>434.6</ele>
        <time>2022-09-07T10:42:18Z</time>
      </trkpt>
      <trkpt lat="43.10053" lon="0.00077">
        <ele>434</ele>
        <time>2022-09-07T10:42:19Z</time>
      </trkpt>
      <trkpt lat="43.10056" lon="0.00064">
        <ele>433.4</ele>
        <time>2022-09-07T10:42:20Z</time>
      </trkpt>
      <trkpt lat="43.10064" lon="0.00035">
        <ele>431.4</ele>
        <time>2022-09-07T10:42:22Z</time>
      </trkpt>
      <trkpt lat="43.10071" lon="6.0E-5">
        <ele>429.6</ele>
        <time>2022-09-07T10:42:24Z</time>
      </trkpt>
      <trkpt lat="43.10077" lon="-0.00024">
        <ele>428.4</ele>
        <time>2022-09-07T10:42:26Z</time>
      </trkpt>
      <trkpt lat="43.1008" lon="-0.0004">
        <ele>427.2</ele>
        <time>2022-09-07T10:42:27Z</time>
      </trkpt>
      <trkpt lat="43.10085" lon="-0.0007">
        <ele>425.6</ele>
        <time>2022-09-07T10:42:29Z</time>
      </trkpt>
      <trkpt lat="43.10088" lon="-0.00085">
        <ele>425.4</ele>
        <time>2022-09-07T10:42:30Z</time>
      </trkpt>
      <trkpt lat="43.10096" lon="-0.0014">
        <ele>424.4</ele>
        <time>2022-09-07T10:42:35Z</time>
      </trkpt>
      <trkpt lat="43.10097" lon="-0.00154">
        <ele>424.2</ele>
        <time>2022-09-07T10:42:36Z</time>
      </trkpt>
      <trkpt lat="43.10096" lon="-0.00203">
        <ele>423.6</ele>
        <time>2022-09-07T10:42:40Z</time>
      </trkpt>
      <trkpt lat="43.10095" lon="-0.00225">
        <ele>423.2</ele>
        <time>2022-09-07T10:42:42Z</time>
      </trkpt>
      <trkpt lat="43.10093" lon="-0.00255">
        <ele>421.6</ele>
        <time>2022-09-07T10:42:45Z</time>
      </trkpt>
      <trkpt lat="43.10093" lon="-0.00265">
        <ele>420.8</ele>
        <time>2022-09-07T10:42:46Z</time>
      </trkpt>
      <trkpt lat="43.1009" lon="-0.00297">
        <ele>419.6</ele>
        <time>2022-09-07T10:42:49Z</time>
      </trkpt>
      <trkpt lat="43.10089" lon="-0.00308">
        <ele>418.6</ele>
        <time>2022-09-07T10:42:50Z</time>
      </trkpt>
      <trkpt lat="43.10087" lon="-0.00319">
        <ele>418</ele>
        <time>2022-09-07T10:42:51Z</time>
      </trkpt>
      <trkpt lat="43.10085" lon="-0.00339">
        <ele>417.2</ele>
        <time>2022-09-07T10:42:53Z</time>
      </trkpt>
      <trkpt lat="43.10083" lon="-0.00348">
        <ele>416</ele>
        <time>2022-09-07T10:42:54Z</time>
      </trkpt>
      <trkpt lat="43.10081" lon="-0.00357">
        <ele>414.2</ele>
        <time>2022-09-07T10:42:55Z</time>
      </trkpt>
      <trkpt lat="43.1008" lon="-0.00364">
        <ele>412.4</ele>
        <time>2022-09-07T10:42:56Z</time>
      </trkpt>
      <trkpt lat="43.10078" lon="-0.00371">
        <ele>411.4</ele>
        <time>2022-09-07T10:42:57Z</time>
      </trkpt>
      <trkpt lat="43.10072" lon="-0.00383">
        <ele>409.6</ele>
        <time>2022-09-07T10:42:59Z</time>
      </trkpt>
      <trkpt lat="43.10069" lon="-0.00388">
        <ele>409</ele>
        <time>2022-09-07T10:43:00Z</time>
      </trkpt>
      <trkpt lat="43.10066" lon="-0.00392">
        <ele>408.4</ele>
        <time>2022-09-07T10:43:01Z</time>
      </trkpt>
      <trkpt lat="43.10063" lon="-0.004">
        <ele>407.2</ele>
        <time>2022-09-07T10:43:03Z</time>
      </trkpt>
      <trkpt lat="43.10062" lon="-0.00405">
        <ele>406.8</ele>
        <time>2022-09-07T10:43:04Z</time>
      </trkpt>
      <trkpt lat="43.10063" lon="-0.00409">
        <ele>406.6</ele>
        <time>2022-09-07T10:43:05Z</time>
      </trkpt>
      <trkpt lat="43.10065" lon="-0.00415">
        <ele>406.2</ele>
        <time>2022-09-07T10:43:06Z</time>
      </trkpt>
      <trkpt lat="43.10069" lon="-0.00424">
        <ele>406.2</ele>
        <time>2022-09-07T10:43:08Z</time>
      </trkpt>
      <trkpt lat="43.10073" lon="-0.00434">
        <ele>406.6</ele>
        <time>2022-09-07T10:43:10Z</time>
      </trkpt>
      <trkpt lat="43.10085" lon="-0.00477">
        <ele>405.8</ele>
        <time>2022-09-07T10:43:18Z</time>
      </trkpt>
      <trkpt lat="43.10086" lon="-0.00482">
        <ele>405.8</ele>
        <time>2022-09-07T10:43:19Z</time>
      </trkpt>
      <trkpt lat="43.10092" lon="-0.0051">
        <ele>405.8</ele>
        <time>2022-09-07T10:43:24Z</time>
      </trkpt>
      <trkpt lat="43.101" lon="-0.00543">
        <ele>405.8</ele>
        <time>2022-09-07T10:43:30Z</time>
      </trkpt>
      <trkpt lat="43.10103" lon="-0.00559">
        <ele>406</ele>
        <time>2022-09-07T10:43:33Z</time>
      </trkpt>
      <trkpt lat="43.10105" lon="-0.00592">
        <ele>406.6</ele>
        <time>2022-09-07T10:43:39Z</time>
      </trkpt>
      <trkpt lat="43.10105" lon="-0.00628">
        <ele>406.6</ele>
        <time>2022-09-07T10:43:46Z</time>
      </trkpt>
      <trkpt lat="43.10101" lon="-0.00659">
        <ele>406</ele>
        <time>2022-09-07T10:43:52Z</time>
      </trkpt>
      <trkpt lat="43.10096" lon="-0.00701">
        <ele>405.8</ele>
        <time>2022-09-07T10:44:00Z</time>
      </trkpt>
      <trkpt lat="43.10096" lon="-0.00743">
        <ele>405.6</ele>
        <time>2022-09-07T10:44:07Z</time>
      </trkpt>
      <trkpt lat="43.10096" lon="-0.00749">
        <ele>405.6</ele>
        <time>2022-09-07T10:44:08Z</time>
      </trkpt>
      <trkpt lat="43.10097" lon="-0.00761">
        <ele>406</ele>
        <time>2022-09-07T10:44:10Z</time>
      </trkpt>
      <trkpt lat="43.10097" lon="-0.00772">
        <ele>405.8</ele>
        <time>2022-09-07T10:44:12Z</time>
      </trkpt>
      <trkpt lat="43.10095" lon="-0.00792">
        <ele>405.8</ele>
        <time>2022-09-07T10:44:17Z</time>
      </trkpt>
      <trkpt lat="43.10094" lon="-0.00802">
        <ele>405.4</ele>
        <time>2022-09-07T10:44:22Z</time>
      </trkpt>
      <trkpt lat="43.10095" lon="-0.00807">
        <ele>405.6</ele>
        <time>2022-09-07T10:44:39Z</time>
      </trkpt>
      <trkpt lat="43.10095" lon="-0.00809">
        <ele>405.6</ele>
        <time>2022-09-07T10:44:40Z</time>
      </trkpt>
      <trkpt lat="43.10096" lon="-0.00831">
        <ele>406</ele>
        <time>2022-09-07T10:44:46Z</time>
      </trkpt>
      <trkpt lat="43.10094" lon="-0.00862">
        <ele>406.4</ele>
        <time>2022-09-07T10:44:53Z</time>
      </trkpt>
      <trkpt lat="43.10092" lon="-0.009">
        <ele>406</ele>
        <time>2022-09-07T10:45:01Z</time>
      </trkpt>
      <trkpt lat="43.10081" lon="-0.00933">
        <ele>406</ele>
        <time>2022-09-07T10:45:08Z</time>
      </trkpt>
      <trkpt lat="43.10067" lon="-0.00966">
        <ele>405.6</ele>
        <time>2022-09-07T10:45:15Z</time>
      </trkpt>
      <trkpt lat="43.10062" lon="-0.00994">
        <ele>405.6</ele>
        <time>2022-09-07T10:45:20Z</time>
      </trkpt>
      <trkpt lat="43.10061" lon="-0.01">
        <ele>405.6</ele>
        <time>2022-09-07T10:45:21Z</time>
      </trkpt>
      <trkpt lat="43.10059" lon="-0.01011">
        <ele>405.6</ele>
        <time>2022-09-07T10:45:23Z</time>
      </trkpt>
      <trkpt lat="43.10052" lon="-0.01031">
        <ele>405.6</ele>
        <time>2022-09-07T10:45:27Z</time>
      </trkpt>
      <trkpt lat="43.10039" lon="-0.01061">
        <ele>406.8</ele>
        <time>2022-09-07T10:45:34Z</time>
      </trkpt>
      <trkpt lat="43.10032" lon="-0.01088">
        <ele>406.4</ele>
        <time>2022-09-07T10:45:40Z</time>
      </trkpt>
      <trkpt lat="43.10035" lon="-0.01119">
        <ele>406.2</ele>
        <time>2022-09-07T10:45:46Z</time>
      </trkpt>
      <trkpt lat="43.10037" lon="-0.0114">
        <ele>407</ele>
        <time>2022-09-07T10:45:50Z</time>
      </trkpt>
      <trkpt lat="43.10039" lon="-0.01159">
        <ele>406.6</ele>
        <time>2022-09-07T10:45:54Z</time>
      </trkpt>
      <trkpt lat="43.10042" lon="-0.0119">
        <ele>407.4</ele>
        <time>2022-09-07T10:46:00Z</time>
      </trkpt>
      <trkpt lat="43.10048" lon="-0.01231">
        <ele>407.6</ele>
        <time>2022-09-07T10:46:08Z</time>
      </trkpt>
      <trkpt lat="43.1005" lon="-0.01256">
        <ele>407.8</ele>
        <time>2022-09-07T10:46:13Z</time>
      </trkpt>
      <trkpt lat="43.10049" lon="-0.01288">
        <ele>408</ele>
        <time>2022-09-07T10:46:19Z</time>
      </trkpt>
      <trkpt lat="43.10046" lon="-0.01332">
        <ele>407.8</ele>
        <time>2022-09-07T10:46:27Z</time>
      </trkpt>
      <trkpt lat="43.10046" lon="-0.01347">
        <ele>408.4</ele>
        <time>2022-09-07T10:46:30Z</time>
      </trkpt>
      <trkpt lat="43.10049" lon="-0.0138">
        <ele>408.8</ele>
        <time>2022-09-07T10:46:36Z</time>
      </trkpt>
      <trkpt lat="43.10046" lon="-0.01415">
        <ele>408.4</ele>
        <time>2022-09-07T10:46:43Z</time>
      </trkpt>
      <trkpt lat="43.10034" lon="-0.01457">
        <ele>409.2</ele>
        <time>2022-09-07T10:46:52Z</time>
      </trkpt>
      <trkpt lat="43.10029" lon="-0.01491">
        <ele>408.8</ele>
        <time>2022-09-07T10:46:59Z</time>
      </trkpt>
      <trkpt lat="43.10035" lon="-0.01527">
        <ele>409.8</ele>
        <time>2022-09-07T10:47:06Z</time>
      </trkpt>
      <trkpt lat="43.10043" lon="-0.0156">
        <ele>408.6</ele>
        <time>2022-09-07T10:47:13Z</time>
      </trkpt>
      <trkpt lat="43.10045" lon="-0.01565">
        <ele>408.6</ele>
        <time>2022-09-07T10:47:14Z</time>
      </trkpt>
      <trkpt lat="43.10056" lon="-0.01611">
        <ele>409.2</ele>
        <time>2022-09-07T10:47:23Z</time>
      </trkpt>
      <trkpt lat="43.10067" lon="-0.01656">
        <ele>409</ele>
        <time>2022-09-07T10:47:32Z</time>
      </trkpt>
      <trkpt lat="43.10073" lon="-0.01694">
        <ele>409.2</ele>
        <time>2022-09-07T10:47:39Z</time>
      </trkpt>
      <trkpt lat="43.10081" lon="-0.01732">
        <ele>409.4</ele>
        <time>2022-09-07T10:47:46Z</time>
      </trkpt>
      <trkpt lat="43.10082" lon="-0.01737">
        <ele>409.4</ele>
        <time>2022-09-07T10:47:47Z</time>
      </trkpt>
      <trkpt lat="43.10085" lon="-0.01754">
        <ele>409.6</ele>
        <time>2022-09-07T10:47:50Z</time>
      </trkpt>
      <trkpt lat="43.10091" lon="-0.01783">
        <ele>410</ele>
        <time>2022-09-07T10:47:56Z</time>
      </trkpt>
      <trkpt lat="43.10097" lon="-0.01816">
        <ele>409.6</ele>
        <time>2022-09-07T10:48:02Z</time>
      </trkpt>
      <trkpt lat="43.10098" lon="-0.01827">
        <ele>409.8</ele>
        <time>2022-09-07T10:48:04Z</time>
      </trkpt>
      <trkpt lat="43.10099" lon="-0.01846">
        <ele>409.8</ele>
        <time>2022-09-07T10:48:07Z</time>
      </trkpt>
      <trkpt lat="43.10098" lon="-0.01864">
        <ele>409.6</ele>
        <time>2022-09-07T10:48:10Z</time>
      </trkpt>
      <trkpt lat="43.10097" lon="-0.0187">
        <ele>409.6</ele>
        <time>2022-09-07T10:48:11Z</time>
      </trkpt>
      <trkpt lat="43.10091" lon="-0.01891">
        <ele>409</ele>
        <time>2022-09-07T10:48:15Z</time>
      </trkpt>
      <trkpt lat="43.10087" lon="-0.01901">
        <ele>409</ele>
        <time>2022-09-07T10:48:17Z</time>
      </trkpt>
      <trkpt lat="43.10072" lon="-0.01947">
        <ele>409.4</ele>
        <time>2022-09-07T10:48:25Z</time>
      </trkpt>
      <trkpt lat="43.10071" lon="-0.01953">
        <ele>409.6</ele>
        <time>2022-09-07T10:48:26Z</time>
      </trkpt>
      <trkpt lat="43.10072" lon="-0.01969">
        <ele>409.6</ele>
        <time>2022-09-07T10:48:29Z</time>
      </trkpt>
      <trkpt lat="43.10082" lon="-0.01996">
        <ele>410.2</ele>
        <time>2022-09-07T10:48:35Z</time>
      </trkpt>
      <trkpt lat="43.10089" lon="-0.02024">
        <ele>410.6</ele>
        <time>2022-09-07T10:48:41Z</time>
      </trkpt>
      <trkpt lat="43.10093" lon="-0.02039">
        <ele>410.8</ele>
        <time>2022-09-07T10:48:44Z</time>
      </trkpt>
      <trkpt lat="43.10104" lon="-0.02076">
        <ele>410.2</ele>
        <time>2022-09-07T10:48:51Z</time>
      </trkpt>
      <trkpt lat="43.1011" lon="-0.02097">
        <ele>409.8</ele>
        <time>2022-09-07T10:48:55Z</time>
      </trkpt>
      <trkpt lat="43.10113" lon="-0.02106">
        <ele>410</ele>
        <time>2022-09-07T10:48:57Z</time>
      </trkpt>
      <trkpt lat="43.10121" lon="-0.02129">
        <ele>409.6</ele>
        <time>2022-09-07T10:49:02Z</time>
      </trkpt>
      <trkpt lat="43.10122" lon="-0.02134">
        <ele>409.4</ele>
        <time>2022-09-07T10:49:03Z</time>
      </trkpt>
      <trkpt lat="43.10127" lon="-0.0215">
        <ele>409.6</ele>
        <time>2022-09-07T10:49:06Z</time>
      </trkpt>
      <trkpt lat="43.10132" lon="-0.02167">
        <ele>409</ele>
        <time>2022-09-07T10:49:09Z</time>
      </trkpt>
      <trkpt lat="43.10142" lon="-0.02198">
        <ele>409.4</ele>
        <time>2022-09-07T10:49:15Z</time>
      </trkpt>
      <trkpt lat="43.10153" lon="-0.02234">
        <ele>409.4</ele>
        <time>2022-09-07T10:49:22Z</time>
      </trkpt>
      <trkpt lat="43.10162" lon="-0.02262">
        <ele>409.6</ele>
        <time>2022-09-07T10:49:28Z</time>
      </trkpt>
      <trkpt lat="43.10168" lon="-0.02277">
        <ele>409</ele>
        <time>2022-09-07T10:49:33Z</time>
      </trkpt>
      <trkpt lat="43.1017" lon="-0.02278">
        <ele>409.2</ele>
        <time>2022-09-07T10:49:34Z</time>
      </trkpt>
      <trkpt lat="43.10179" lon="-0.02281">
        <ele>410</ele>
        <time>2022-09-07T10:49:38Z</time>
      </trkpt>
      <trkpt lat="43.10184" lon="-0.02281">
        <ele>410.4</ele>
        <time>2022-09-07T10:49:40Z</time>
      </trkpt>
      <trkpt lat="43.10186" lon="-0.02283">
        <ele>410.8</ele>
        <time>2022-09-07T10:49:41Z</time>
      </trkpt>
      <trkpt lat="43.10188" lon="-0.02285">
        <ele>411.2</ele>
        <time>2022-09-07T10:49:42Z</time>
      </trkpt>
      <trkpt lat="43.10192" lon="-0.02294">
        <ele>411.4</ele>
        <time>2022-09-07T10:49:45Z</time>
      </trkpt>
      <trkpt lat="43.10193" lon="-0.02302">
        <ele>411.4</ele>
        <time>2022-09-07T10:49:47Z</time>
      </trkpt>
      <trkpt lat="43.10196" lon="-0.02336">
        <ele>411.2</ele>
        <time>2022-09-07T10:49:55Z</time>
      </trkpt>
      <trkpt lat="43.10198" lon="-0.02369">
        <ele>411</ele>
        <time>2022-09-07T10:50:02Z</time>
      </trkpt>
      <trkpt lat="43.102" lon="-0.02384">
        <ele>410.6</ele>
        <time>2022-09-07T10:50:05Z</time>
      </trkpt>
      <trkpt lat="43.10202" lon="-0.02396">
        <ele>410.2</ele>
        <time>2022-09-07T10:50:07Z</time>
      </trkpt>
      <trkpt lat="43.10212" lon="-0.02445">
        <ele>410.6</ele>
        <time>2022-09-07T10:50:15Z</time>
      </trkpt>
      <trkpt lat="43.10218" lon="-0.02472">
        <ele>409.8</ele>
        <time>2022-09-07T10:50:19Z</time>
      </trkpt>
      <trkpt lat="43.10228" lon="-0.02514">
        <ele>409.4</ele>
        <time>2022-09-07T10:50:25Z</time>
      </trkpt>
      <trkpt lat="43.10243" lon="-0.02567">
        <ele>409</ele>
        <time>2022-09-07T10:50:33Z</time>
      </trkpt>
      <trkpt lat="43.10256" lon="-0.0262">
        <ele>409</ele>
        <time>2022-09-07T10:50:42Z</time>
      </trkpt>
      <trkpt lat="43.10265" lon="-0.0266">
        <ele>409.2</ele>
        <time>2022-09-07T10:50:50Z</time>
      </trkpt>
      <trkpt lat="43.10275" lon="-0.02705">
        <ele>409</ele>
        <time>2022-09-07T10:50:59Z</time>
      </trkpt>
      <trkpt lat="43.10279" lon="-0.0272">
        <ele>408.6</ele>
        <time>2022-09-07T10:51:02Z</time>
      </trkpt>
      <trkpt lat="43.10282" lon="-0.02739">
        <ele>408.2</ele>
        <time>2022-09-07T10:51:06Z</time>
      </trkpt>
      <trkpt lat="43.10285" lon="-0.02765">
        <ele>408.6</ele>
        <time>2022-09-07T10:51:12Z</time>
      </trkpt>
      <trkpt lat="43.10285" lon="-0.02792">
        <ele>408.8</ele>
        <time>2022-09-07T10:51:17Z</time>
      </trkpt>
      <trkpt lat="43.10281" lon="-0.02827">
        <ele>409.6</ele>
        <time>2022-09-07T10:51:24Z</time>
      </trkpt>
      <trkpt lat="43.10275" lon="-0.02863">
        <ele>410</ele>
        <time>2022-09-07T10:51:31Z</time>
      </trkpt>
      <trkpt lat="43.10274" lon="-0.02873">
        <ele>410</ele>
        <time>2022-09-07T10:51:33Z</time>
      </trkpt>
      <trkpt lat="43.10268" lon="-0.02901">
        <ele>410.8</ele>
        <time>2022-09-07T10:51:39Z</time>
      </trkpt>
      <trkpt lat="43.10266" lon="-0.0291">
        <ele>411</ele>
        <time>2022-09-07T10:51:41Z</time>
      </trkpt>
      <trkpt lat="43.10263" lon="-0.02927">
        <ele>411.6</ele>
        <time>2022-09-07T10:51:45Z</time>
      </trkpt>
      <trkpt lat="43.10261" lon="-0.02939">
        <ele>412</ele>
        <time>2022-09-07T10:51:48Z</time>
      </trkpt>
      <trkpt lat="43.10257" lon="-0.02959">
        <ele>412.2</ele>
        <time>2022-09-07T10:51:53Z</time>
      </trkpt>
      <trkpt lat="43.10251" lon="-0.02984">
        <ele>412.2</ele>
        <time>2022-09-07T10:52:01Z</time>
      </trkpt>
      <trkpt lat="43.10244" lon="-0.03003">
        <ele>412.4</ele>
        <time>2022-09-07T10:52:08Z</time>
      </trkpt>
      <trkpt lat="43.10239" lon="-0.03012">
        <ele>412.2</ele>
        <time>2022-09-07T10:52:12Z</time>
      </trkpt>
      <trkpt lat="43.10233" lon="-0.03015">
        <ele>412.6</ele>
        <time>2022-09-07T10:52:58Z</time>
      </trkpt>
      <trkpt lat="43.10228" lon="-0.03019">
        <ele>412.4</ele>
        <time>2022-09-07T10:53:01Z</time>
      </trkpt>
      <trkpt lat="43.10217" lon="-0.03028">
        <ele>412.4</ele>
        <time>2022-09-07T10:53:07Z</time>
      </trkpt>
      <trkpt lat="43.10197" lon="-0.03042">
        <ele>412</ele>
        <time>2022-09-07T10:53:14Z</time>
      </trkpt>
      <trkpt lat="43.10179" lon="-0.0305">
        <ele>410.8</ele>
        <time>2022-09-07T10:53:18Z</time>
      </trkpt>
      <trkpt lat="43.10175" lon="-0.03051">
        <ele>410.6</ele>
        <time>2022-09-07T10:53:19Z</time>
      </trkpt>
      <trkpt lat="43.10151" lon="-0.03053">
        <ele>409.6</ele>
        <time>2022-09-07T10:53:24Z</time>
      </trkpt>
      <trkpt lat="43.10146" lon="-0.03053">
        <ele>409.6</ele>
        <time>2022-09-07T10:53:25Z</time>
      </trkpt>
      <trkpt lat="43.10135" lon="-0.03051">
        <ele>409.4</ele>
        <time>2022-09-07T10:53:27Z</time>
      </trkpt>
      <trkpt lat="43.10116" lon="-0.03049">
        <ele>408.8</ele>
        <time>2022-09-07T10:53:30Z</time>
      </trkpt>
      <trkpt lat="43.1011" lon="-0.03048">
        <ele>408</ele>
        <time>2022-09-07T10:53:31Z</time>
      </trkpt>
      <trkpt lat="43.10095" lon="-0.03049">
        <ele>408</ele>
        <time>2022-09-07T10:53:33Z</time>
      </trkpt>
      <trkpt lat="43.10081" lon="-0.03053">
        <ele>408.2</ele>
        <time>2022-09-07T10:53:35Z</time>
      </trkpt>
      <trkpt lat="43.10073" lon="-0.03055">
        <ele>407</ele>
        <time>2022-09-07T10:53:36Z</time>
      </trkpt>
      <trkpt lat="43.10059" lon="-0.03062">
        <ele>406.6</ele>
        <time>2022-09-07T10:53:38Z</time>
      </trkpt>
      <trkpt lat="43.10045" lon="-0.03072">
        <ele>406</ele>
        <time>2022-09-07T10:53:40Z</time>
      </trkpt>
      <trkpt lat="43.10039" lon="-0.03077">
        <ele>405.4</ele>
        <time>2022-09-07T10:53:41Z</time>
      </trkpt>
      <trkpt lat="43.1002" lon="-0.03092">
        <ele>405.2</ele>
        <time>2022-09-07T10:53:44Z</time>
      </trkpt>
      <trkpt lat="43.10009" lon="-0.03103">
        <ele>404.6</ele>
        <time>2022-09-07T10:53:46Z</time>
      </trkpt>
      <trkpt lat="43.10002" lon="-0.03107">
        <ele>404.6</ele>
        <time>2022-09-07T10:53:47Z</time>
      </trkpt>
      <trkpt lat="43.0999" lon="-0.03115">
        <ele>404.4</ele>
        <time>2022-09-07T10:53:49Z</time>
      </trkpt>
      <trkpt lat="43.09984" lon="-0.03118">
        <ele>404</ele>
        <time>2022-09-07T10:53:50Z</time>
      </trkpt>
      <trkpt lat="43.09955" lon="-0.03137">
        <ele>403.2</ele>
        <time>2022-09-07T10:53:55Z</time>
      </trkpt>
      <trkpt lat="43.09949" lon="-0.0314">
        <ele>403</ele>
        <time>2022-09-07T10:53:56Z</time>
      </trkpt>
      <trkpt lat="43.09944" lon="-0.03143">
        <ele>403</ele>
        <time>2022-09-07T10:53:57Z</time>
      </trkpt>
      <trkpt lat="43.09902" lon="-0.03167">
        <ele>403.2</ele>
        <time>2022-09-07T10:54:05Z</time>
      </trkpt>
      <trkpt lat="43.09867" lon="-0.03187">
        <ele>402</ele>
        <time>2022-09-07T10:54:12Z</time>
      </trkpt>
      <trkpt lat="43.09862" lon="-0.0319">
        <ele>401.8</ele>
        <time>2022-09-07T10:54:13Z</time>
      </trkpt>
      <trkpt lat="43.09833" lon="-0.03206">
        <ele>401.4</ele>
        <time>2022-09-07T10:54:19Z</time>
      </trkpt>
      <trkpt lat="43.0983" lon="-0.03212">
        <ele>401.4</ele>
        <time>2022-09-07T10:54:20Z</time>
      </trkpt>
      <trkpt lat="43.09825" lon="-0.03232">
        <ele>401</ele>
        <time>2022-09-07T10:54:23Z</time>
      </trkpt>
      <trkpt lat="43.09822" lon="-0.03238">
        <ele>400.8</ele>
        <time>2022-09-07T10:54:24Z</time>
      </trkpt>
      <trkpt lat="43.09809" lon="-0.0325">
        <ele>400.8</ele>
        <time>2022-09-07T10:54:27Z</time>
      </trkpt>
      <trkpt lat="43.09794" lon="-0.03248">
        <ele>401.2</ele>
        <time>2022-09-07T10:54:30Z</time>
      </trkpt>
      <trkpt lat="43.09786" lon="-0.03241">
        <ele>401</ele>
        <time>2022-09-07T10:54:32Z</time>
      </trkpt>
      <trkpt lat="43.0978" lon="-0.03239">
        <ele>400.8</ele>
        <time>2022-09-07T10:54:33Z</time>
      </trkpt>
      <trkpt lat="43.09775" lon="-0.03238">
        <ele>400.6</ele>
        <time>2022-09-07T10:54:34Z</time>
      </trkpt>
      <trkpt lat="43.09759" lon="-0.03246">
        <ele>400.4</ele>
        <time>2022-09-07T10:54:37Z</time>
      </trkpt>
      <trkpt lat="43.09719" lon="-0.03267">
        <ele>400.2</ele>
        <time>2022-09-07T10:54:45Z</time>
      </trkpt>
      <trkpt lat="43.09704" lon="-0.03276">
        <ele>399.6</ele>
        <time>2022-09-07T10:54:48Z</time>
      </trkpt>
      <trkpt lat="43.09686" lon="-0.03289">
        <ele>400.6</ele>
        <time>2022-09-07T10:54:52Z</time>
      </trkpt>
      <trkpt lat="43.09682" lon="-0.03293">
        <ele>400.4</ele>
        <time>2022-09-07T10:54:53Z</time>
      </trkpt>
      <trkpt lat="43.09673" lon="-0.03301">
        <ele>399.6</ele>
        <time>2022-09-07T10:54:55Z</time>
      </trkpt>
      <trkpt lat="43.09653" lon="-0.03321">
        <ele>398.8</ele>
        <time>2022-09-07T10:55:00Z</time>
      </trkpt>
      <trkpt lat="43.09626" lon="-0.03362">
        <ele>398.8</ele>
        <time>2022-09-07T10:55:08Z</time>
      </trkpt>
      <trkpt lat="43.09623" lon="-0.03367">
        <ele>398.6</ele>
        <time>2022-09-07T10:55:09Z</time>
      </trkpt>
      <trkpt lat="43.09608" lon="-0.03399">
        <ele>398.4</ele>
        <time>2022-09-07T10:55:15Z</time>
      </trkpt>
      <trkpt lat="43.09593" lon="-0.03442">
        <ele>397.4</ele>
        <time>2022-09-07T10:55:23Z</time>
      </trkpt>
      <trkpt lat="43.09587" lon="-0.03472">
        <ele>397.4</ele>
        <time>2022-09-07T10:55:29Z</time>
      </trkpt>
      <trkpt lat="43.09582" lon="-0.03507">
        <ele>397</ele>
        <time>2022-09-07T10:55:37Z</time>
      </trkpt>
      <trkpt lat="43.09581" lon="-0.03548">
        <ele>397</ele>
        <time>2022-09-07T10:55:45Z</time>
      </trkpt>
      <trkpt lat="43.09585" lon="-0.03599">
        <ele>396.4</ele>
        <time>2022-09-07T10:55:54Z</time>
      </trkpt>
      <trkpt lat="43.09593" lon="-0.03648">
        <ele>396.2</ele>
        <time>2022-09-07T10:56:03Z</time>
      </trkpt>
      <trkpt lat="43.09603" lon="-0.03697">
        <ele>396.8</ele>
        <time>2022-09-07T10:56:12Z</time>
      </trkpt>
      <trkpt lat="43.09611" lon="-0.03732">
        <ele>396.4</ele>
        <time>2022-09-07T10:56:19Z</time>
      </trkpt>
      <trkpt lat="43.09616" lon="-0.03747">
        <ele>396</ele>
        <time>2022-09-07T10:56:22Z</time>
      </trkpt>
      <trkpt lat="43.09625" lon="-0.03758">
        <ele>395.8</ele>
        <time>2022-09-07T10:56:25Z</time>
      </trkpt>
      <trkpt lat="43.09628" lon="-0.03762">
        <ele>395.8</ele>
        <time>2022-09-07T10:56:26Z</time>
      </trkpt>
      <trkpt lat="43.09647" lon="-0.0378">
        <ele>395.8</ele>
        <time>2022-09-07T10:56:32Z</time>
      </trkpt>
      <trkpt lat="43.09683" lon="-0.03811">
        <ele>395.8</ele>
        <time>2022-09-07T10:56:42Z</time>
      </trkpt>
      <trkpt lat="43.09711" lon="-0.03836">
        <ele>395.8</ele>
        <time>2022-09-07T10:56:52Z</time>
      </trkpt>
      <trkpt lat="43.09728" lon="-0.03851">
        <ele>397</ele>
        <time>2022-09-07T10:56:59Z</time>
      </trkpt>
      <trkpt lat="43.09746" lon="-0.03867">
        <ele>395.6</ele>
        <time>2022-09-07T10:57:05Z</time>
      </trkpt>
      <trkpt lat="43.09755" lon="-0.03876">
        <ele>395.6</ele>
        <time>2022-09-07T10:57:08Z</time>
      </trkpt>
      <trkpt lat="43.09761" lon="-0.03882">
        <ele>395.4</ele>
        <time>2022-09-07T10:57:10Z</time>
      </trkpt>
      <trkpt lat="43.09767" lon="-0.03888">
        <ele>395.2</ele>
        <time>2022-09-07T10:57:12Z</time>
      </trkpt>
      <trkpt lat="43.09785" lon="-0.03914">
        <ele>394.8</ele>
        <time>2022-09-07T10:57:18Z</time>
      </trkpt>
      <trkpt lat="43.09803" lon="-0.03944">
        <ele>394.4</ele>
        <time>2022-09-07T10:57:24Z</time>
      </trkpt>
      <trkpt lat="43.09812" lon="-0.03959">
        <ele>394.2</ele>
        <time>2022-09-07T10:57:27Z</time>
      </trkpt>
      <trkpt lat="43.09834" lon="-0.03995">
        <ele>393.8</ele>
        <time>2022-09-07T10:57:34Z</time>
      </trkpt>
      <trkpt lat="43.09841" lon="-0.04006">
        <ele>393.2</ele>
        <time>2022-09-07T10:57:36Z</time>
      </trkpt>
      <trkpt lat="43.09853" lon="-0.04028">
        <ele>392.8</ele>
        <time>2022-09-07T10:57:40Z</time>
      </trkpt>
      <trkpt lat="43.09857" lon="-0.04041">
        <ele>393.2</ele>
        <time>2022-09-07T10:57:42Z</time>
      </trkpt>
      <trkpt lat="43.09859" lon="-0.04054">
        <ele>392.6</ele>
        <time>2022-09-07T10:57:44Z</time>
      </trkpt>
      <trkpt lat="43.09859" lon="-0.04074">
        <ele>392.4</ele>
        <time>2022-09-07T10:57:47Z</time>
      </trkpt>
      <trkpt lat="43.09857" lon="-0.04087">
        <ele>392</ele>
        <time>2022-09-07T10:57:49Z</time>
      </trkpt>
      <trkpt lat="43.09856" lon="-0.04094">
        <ele>392</ele>
        <time>2022-09-07T10:57:50Z</time>
      </trkpt>
      <trkpt lat="43.09852" lon="-0.04113">
        <ele>391.6</ele>
        <time>2022-09-07T10:57:53Z</time>
      </trkpt>
      <trkpt lat="43.0984" lon="-0.04166">
        <ele>391.6</ele>
        <time>2022-09-07T10:58:02Z</time>
      </trkpt>
      <trkpt lat="43.09839" lon="-0.04172">
        <ele>391.4</ele>
        <time>2022-09-07T10:58:03Z</time>
      </trkpt>
      <trkpt lat="43.09837" lon="-0.04182">
        <ele>391.4</ele>
        <time>2022-09-07T10:58:05Z</time>
      </trkpt>
      <trkpt lat="43.09837" lon="-0.04199">
        <ele>391</ele>
        <time>2022-09-07T10:58:08Z</time>
      </trkpt>
      <trkpt lat="43.0984" lon="-0.0425">
        <ele>391.4</ele>
        <time>2022-09-07T10:58:17Z</time>
      </trkpt>
      <trkpt lat="43.09841" lon="-0.04282">
        <ele>392.4</ele>
        <time>2022-09-07T10:58:23Z</time>
      </trkpt>
      <trkpt lat="43.09841" lon="-0.04287">
        <ele>392.8</ele>
        <time>2022-09-07T10:58:24Z</time>
      </trkpt>
      <trkpt lat="43.09842" lon="-0.04329">
        <ele>393.2</ele>
        <time>2022-09-07T10:58:33Z</time>
      </trkpt>
      <trkpt lat="43.09843" lon="-0.04364">
        <ele>392.4</ele>
        <time>2022-09-07T10:58:40Z</time>
      </trkpt>
      <trkpt lat="43.09844" lon="-0.04395">
        <ele>391.4</ele>
        <time>2022-09-07T10:58:45Z</time>
      </trkpt>
      <trkpt lat="43.09843" lon="-0.04401">
        <ele>391.4</ele>
        <time>2022-09-07T10:58:46Z</time>
      </trkpt>
      <trkpt lat="43.09842" lon="-0.04407">
        <ele>391.4</ele>
        <time>2022-09-07T10:58:47Z</time>
      </trkpt>
      <trkpt lat="43.09834" lon="-0.04423">
        <ele>390.6</ele>
        <time>2022-09-07T10:58:50Z</time>
      </trkpt>
      <trkpt lat="43.09831" lon="-0.04429">
        <ele>390.2</ele>
        <time>2022-09-07T10:58:51Z</time>
      </trkpt>
      <trkpt lat="43.09822" lon="-0.04447">
        <ele>389.8</ele>
        <time>2022-09-07T10:58:54Z</time>
      </trkpt>
      <trkpt lat="43.09814" lon="-0.04468">
        <ele>389.4</ele>
        <time>2022-09-07T10:58:57Z</time>
      </trkpt>
      <trkpt lat="43.09812" lon="-0.04476">
        <ele>389.4</ele>
        <time>2022-09-07T10:58:58Z</time>
      </trkpt>
      <trkpt lat="43.0981" lon="-0.04483">
        <ele>389.2</ele>
        <time>2022-09-07T10:58:59Z</time>
      </trkpt>
      <trkpt lat="43.09808" lon="-0.04498">
        <ele>388.8</ele>
        <time>2022-09-07T10:59:01Z</time>
      </trkpt>
      <trkpt lat="43.09807" lon="-0.04512">
        <ele>389.2</ele>
        <time>2022-09-07T10:59:03Z</time>
      </trkpt>
      <trkpt lat="43.0981" lon="-0.04546">
        <ele>389.2</ele>
        <time>2022-09-07T10:59:08Z</time>
      </trkpt>
      <trkpt lat="43.0981" lon="-0.04558">
        <ele>389.2</ele>
        <time>2022-09-07T10:59:10Z</time>
      </trkpt>
      <trkpt lat="43.09809" lon="-0.04574">
        <ele>389.2</ele>
        <time>2022-09-07T10:59:13Z</time>
      </trkpt>
      <trkpt lat="43.09812" lon="-0.04607">
        <ele>388.6</ele>
        <time>2022-09-07T10:59:19Z</time>
      </trkpt>
      <trkpt lat="43.09809" lon="-0.04638">
        <ele>388.4</ele>
        <time>2022-09-07T10:59:25Z</time>
      </trkpt>
      <trkpt lat="43.09809" lon="-0.04641">
        <ele>388</ele>
        <time>2022-09-07T10:59:26Z</time>
      </trkpt>
      <trkpt lat="43.0981" lon="-0.04659">
        <ele>387.6</ele>
        <time>2022-09-07T10:59:30Z</time>
      </trkpt>
      <trkpt lat="43.09807" lon="-0.04678">
        <ele>387</ele>
        <time>2022-09-07T10:59:36Z</time>
      </trkpt>
      <trkpt lat="43.09807" lon="-0.04688">
        <ele>387</ele>
        <time>2022-09-07T10:59:39Z</time>
      </trkpt>
      <trkpt lat="43.09808" lon="-0.04697">
        <ele>387</ele>
        <time>2022-09-07T10:59:42Z</time>
      </trkpt>
      <trkpt lat="43.0981" lon="-0.04716">
        <ele>386.4</ele>
        <time>2022-09-07T10:59:50Z</time>
      </trkpt>
      <trkpt lat="43.0981" lon="-0.04728">
        <ele>386.8</ele>
        <time>2022-09-07T11:00:01Z</time>
      </trkpt>
      <trkpt lat="43.0981" lon="-0.04735">
        <ele>386.6</ele>
        <time>2022-09-07T11:00:05Z</time>
      </trkpt>
      <trkpt lat="43.09812" lon="-0.04751">
        <ele>387</ele>
        <time>2022-09-07T11:00:50Z</time>
      </trkpt>
      <trkpt lat="43.09813" lon="-0.04754">
        <ele>387</ele>
        <time>2022-09-07T11:00:51Z</time>
      </trkpt>
      <trkpt lat="43.09821" lon="-0.04773">
        <ele>386.6</ele>
        <time>2022-09-07T11:01:00Z</time>
      </trkpt>
      <trkpt lat="43.09825" lon="-0.04782">
        <ele>386.6</ele>
        <time>2022-09-07T11:01:05Z</time>
      </trkpt>
      <trkpt lat="43.09829" lon="-0.04794">
        <ele>386.6</ele>
        <time>2022-09-07T11:01:12Z</time>
      </trkpt>
      <trkpt lat="43.09825" lon="-0.04798">
        <ele>386.8</ele>
        <time>2022-09-07T11:01:36Z</time>
      </trkpt>
      <trkpt lat="43.09814" lon="-0.04806">
        <ele>387.4</ele>
        <time>2022-09-07T11:01:43Z</time>
      </trkpt>
      <trkpt lat="43.09811" lon="-0.04811">
        <ele>387.8</ele>
        <time>2022-09-07T11:01:46Z</time>
      </trkpt>
      <trkpt lat="43.09809" lon="-0.04815">
        <ele>388.2</ele>
        <time>2022-09-07T11:01:48Z</time>
      </trkpt>
      <trkpt lat="43.09808" lon="-0.04819">
        <ele>388.4</ele>
        <time>2022-09-07T11:01:50Z</time>
      </trkpt>
      <trkpt lat="43.09808" lon="-0.04823">
        <ele>388.6</ele>
        <time>2022-09-07T11:01:52Z</time>
      </trkpt>
      <trkpt lat="43.09808" lon="-0.04831">
        <ele>389.2</ele>
        <time>2022-09-07T11:01:56Z</time>
      </trkpt>
      <trkpt lat="43.09808" lon="-0.04833">
        <ele>389.4</ele>
        <time>2022-09-07T11:01:57Z</time>
      </trkpt>
      <trkpt lat="43.09809" lon="-0.0484">
        <ele>389.8</ele>
        <time>2022-09-07T11:02:00Z</time>
      </trkpt>
      <trkpt lat="43.09807" lon="-0.04843">
        <ele>390</ele>
        <time>2022-09-07T11:02:02Z</time>
      </trkpt>
      <trkpt lat="43.09806" lon="-0.04844">
        <ele>390</ele>
        <time>2022-09-07T11:02:03Z</time>
      </trkpt>
      <trkpt lat="43.09801" lon="-0.04832">
        <ele>390</ele>
        <time>2022-09-07T11:02:59Z</time>
      </trkpt>
      <trkpt lat="43.09801" lon="-0.04824">
        <ele>389.8</ele>
        <time>2022-09-07T11:03:01Z</time>
      </trkpt>
      <trkpt lat="43.09808" lon="-0.04809">
        <ele>388.8</ele>
        <time>2022-09-07T11:03:06Z</time>
      </trkpt>
      <trkpt lat="43.09811" lon="-0.04809">
        <ele>388</ele>
        <time>2022-09-07T11:03:08Z</time>
      </trkpt>
      <trkpt lat="43.09813" lon="-0.04809">
        <ele>387.4</ele>
        <time>2022-09-07T11:03:09Z</time>
      </trkpt>
      <trkpt lat="43.09815" lon="-0.04808">
        <ele>386.8</ele>
        <time>2022-09-07T11:03:11Z</time>
      </trkpt>
      <trkpt lat="43.09817" lon="-0.04799">
        <ele>386.2</ele>
        <time>2022-09-07T11:03:45Z</time>
      </trkpt>
      <trkpt lat="43.09816" lon="-0.04797">
        <ele>386.4</ele>
        <time>2022-09-07T11:03:46Z</time>
      </trkpt>
      <trkpt lat="43.09814" lon="-0.04785">
        <ele>386.4</ele>
        <time>2022-09-07T11:03:50Z</time>
      </trkpt>
      <trkpt lat="43.09815" lon="-0.04775">
        <ele>386.4</ele>
        <time>2022-09-07T11:03:53Z</time>
      </trkpt>
      <trkpt lat="43.09816" lon="-0.04768">
        <ele>386.6</ele>
        <time>2022-09-07T11:03:58Z</time>
      </trkpt>
      <trkpt lat="43.09815" lon="-0.0478">
        <ele>392.6</ele>
        <time>2022-09-07T12:10:52Z</time>
      </trkpt>
      <trkpt lat="43.09817" lon="-0.04784">
        <ele>392.4</ele>
        <time>2022-09-07T12:10:54Z</time>
      </trkpt>
      <trkpt lat="43.09821" lon="-0.04796">
        <ele>392.4</ele>
        <time>2022-09-07T12:11:00Z</time>
      </trkpt>
      <trkpt lat="43.09822" lon="-0.048">
        <ele>392.2</ele>
        <time>2022-09-07T12:11:02Z</time>
      </trkpt>
      <trkpt lat="43.09825" lon="-0.04804">
        <ele>392.2</ele>
        <time>2022-09-07T12:11:04Z</time>
      </trkpt>
      <trkpt lat="43.09829" lon="-0.04811">
        <ele>392.2</ele>
        <time>2022-09-07T12:11:08Z</time>
      </trkpt>
      <trkpt lat="43.09832" lon="-0.04827">
        <ele>391.8</ele>
        <time>2022-09-07T12:11:14Z</time>
      </trkpt>
      <trkpt lat="43.09832" lon="-0.0483">
        <ele>391.6</ele>
        <time>2022-09-07T12:11:15Z</time>
      </trkpt>
      <trkpt lat="43.09839" lon="-0.04851">
        <ele>391.8</ele>
        <time>2022-09-07T12:11:21Z</time>
      </trkpt>
      <trkpt lat="43.09842" lon="-0.04875">
        <ele>391</ele>
        <time>2022-09-07T12:11:27Z</time>
      </trkpt>
      <trkpt lat="43.09844" lon="-0.04881">
        <ele>390.4</ele>
        <time>2022-09-07T12:11:29Z</time>
      </trkpt>
      <trkpt lat="43.09846" lon="-0.04897">
        <ele>389.8</ele>
        <time>2022-09-07T12:11:34Z</time>
      </trkpt>
      <trkpt lat="43.09849" lon="-0.04908">
        <ele>389.4</ele>
        <time>2022-09-07T12:11:37Z</time>
      </trkpt>
      <trkpt lat="43.09851" lon="-0.04922">
        <ele>388.8</ele>
        <time>2022-09-07T12:11:41Z</time>
      </trkpt>
      <trkpt lat="43.0985" lon="-0.0493">
        <ele>388.2</ele>
        <time>2022-09-07T12:11:43Z</time>
      </trkpt>
      <trkpt lat="43.09849" lon="-0.04941">
        <ele>387.6</ele>
        <time>2022-09-07T12:11:47Z</time>
      </trkpt>
      <trkpt lat="43.09846" lon="-0.0495">
        <ele>387.2</ele>
        <time>2022-09-07T12:11:53Z</time>
      </trkpt>
      <trkpt lat="43.09845" lon="-0.04958">
        <ele>387</ele>
        <time>2022-09-07T12:12:01Z</time>
      </trkpt>
      <trkpt lat="43.09844" lon="-0.04963">
        <ele>387</ele>
        <time>2022-09-07T12:12:03Z</time>
      </trkpt>
      <trkpt lat="43.09838" lon="-0.04979">
        <ele>386.6</ele>
        <time>2022-09-07T12:12:09Z</time>
      </trkpt>
      <trkpt lat="43.09834" lon="-0.04986">
        <ele>386</ele>
        <time>2022-09-07T12:12:12Z</time>
      </trkpt>
      <trkpt lat="43.09829" lon="-0.04994">
        <ele>385.8</ele>
        <time>2022-09-07T12:12:16Z</time>
      </trkpt>
      <trkpt lat="43.09819" lon="-0.05">
        <ele>385.4</ele>
        <time>2022-09-07T12:21:27Z</time>
      </trkpt>
      <trkpt lat="43.09822" lon="-0.05032">
        <ele>384.4</ele>
        <time>2022-09-07T12:21:35Z</time>
      </trkpt>
      <trkpt lat="43.09821" lon="-0.0504">
        <ele>384</ele>
        <time>2022-09-07T12:21:37Z</time>
      </trkpt>
      <trkpt lat="43.09819" lon="-0.0506">
        <ele>384</ele>
        <time>2022-09-07T12:21:42Z</time>
      </trkpt>
      <trkpt lat="43.09818" lon="-0.05086">
        <ele>383.8</ele>
        <time>2022-09-07T12:21:49Z</time>
      </trkpt>
      <trkpt lat="43.09815" lon="-0.05113">
        <ele>384</ele>
        <time>2022-09-07T12:21:57Z</time>
      </trkpt>
      <trkpt lat="43.09815" lon="-0.05136">
        <ele>384.2</ele>
        <time>2022-09-07T12:22:05Z</time>
      </trkpt>
      <trkpt lat="43.09813" lon="-0.05158">
        <ele>384</ele>
        <time>2022-09-07T12:22:12Z</time>
      </trkpt>
      <trkpt lat="43.09812" lon="-0.05172">
        <ele>383.4</ele>
        <time>2022-09-07T12:22:18Z</time>
      </trkpt>
      <trkpt lat="43.0981" lon="-0.05175">
        <ele>383</ele>
        <time>2022-09-07T12:22:20Z</time>
      </trkpt>
      <trkpt lat="43.09809" lon="-0.05177">
        <ele>383</ele>
        <time>2022-09-07T12:22:21Z</time>
      </trkpt>
      <trkpt lat="43.0981" lon="-0.05179">
        <ele>383</ele>
        <time>2022-09-07T12:22:24Z</time>
      </trkpt>
      <trkpt lat="43.09807" lon="-0.05172">
        <ele>383.6</ele>
        <time>2022-09-07T12:23:40Z</time>
      </trkpt>
      <trkpt lat="43.09802" lon="-0.05172">
        <ele>383.6</ele>
        <time>2022-09-07T12:23:43Z</time>
      </trkpt>
      <trkpt lat="43.09799" lon="-0.05176">
        <ele>383.4</ele>
        <time>2022-09-07T12:23:46Z</time>
      </trkpt>
      <trkpt lat="43.09795" lon="-0.05181">
        <ele>383.6</ele>
        <time>2022-09-07T12:23:49Z</time>
      </trkpt>
      <trkpt lat="43.0978" lon="-0.05185">
        <ele>382.8</ele>
        <time>2022-09-07T12:23:55Z</time>
      </trkpt>
      <trkpt lat="43.09763" lon="-0.05185">
        <ele>381.8</ele>
        <time>2022-09-07T12:24:00Z</time>
      </trkpt>
      <trkpt lat="43.09752" lon="-0.05185">
        <ele>381.2</ele>
        <time>2022-09-07T12:24:05Z</time>
      </trkpt>
      <trkpt lat="43.09745" lon="-0.05186">
        <ele>380.6</ele>
        <time>2022-09-07T12:24:09Z</time>
      </trkpt>
      <trkpt lat="43.09737" lon="-0.05189">
        <ele>380.8</ele>
        <time>2022-09-07T12:24:13Z</time>
      </trkpt>
      <trkpt lat="43.09722" lon="-0.05197">
        <ele>379.8</ele>
        <time>2022-09-07T12:24:20Z</time>
      </trkpt>
      <trkpt lat="43.09716" lon="-0.05204">
        <ele>379.6</ele>
        <time>2022-09-07T12:24:24Z</time>
      </trkpt>
      <trkpt lat="43.09714" lon="-0.05209">
        <ele>379.6</ele>
        <time>2022-09-07T12:24:26Z</time>
      </trkpt>
      <trkpt lat="43.09706" lon="-0.05224">
        <ele>379.8</ele>
        <time>2022-09-07T12:24:31Z</time>
      </trkpt>
      <trkpt lat="43.09695" lon="-0.05246">
        <ele>379.2</ele>
        <time>2022-09-07T12:24:38Z</time>
      </trkpt>
      <trkpt lat="43.0969" lon="-0.05268">
        <ele>379.4</ele>
        <time>2022-09-07T12:24:46Z</time>
      </trkpt>
      <trkpt lat="43.09687" lon="-0.05293">
        <ele>380</ele>
        <time>2022-09-07T12:24:55Z</time>
      </trkpt>
      <trkpt lat="43.09684" lon="-0.05314">
        <ele>380.6</ele>
        <time>2022-09-07T12:25:03Z</time>
      </trkpt>
      <trkpt lat="43.09683" lon="-0.05317">
        <ele>380.6</ele>
        <time>2022-09-07T12:25:04Z</time>
      </trkpt>
      <trkpt lat="43.09683" lon="-0.05338">
        <ele>381.4</ele>
        <time>2022-09-07T12:25:11Z</time>
      </trkpt>
      <trkpt lat="43.09684" lon="-0.05349">
        <ele>382</ele>
        <time>2022-09-07T12:25:14Z</time>
      </trkpt>
      <trkpt lat="43.09685" lon="-0.05361">
        <ele>382.2</ele>
        <time>2022-09-07T12:25:17Z</time>
      </trkpt>
      <trkpt lat="43.09686" lon="-0.05373">
        <ele>381.6</ele>
        <time>2022-09-07T12:25:21Z</time>
      </trkpt>
      <trkpt lat="43.0969" lon="-0.05393">
        <ele>382.2</ele>
        <time>2022-09-07T12:25:29Z</time>
      </trkpt>
      <trkpt lat="43.09685" lon="-0.05407">
        <ele>382.2</ele>
        <time>2022-09-07T12:25:35Z</time>
      </trkpt>
      <trkpt lat="43.09679" lon="-0.05414">
        <ele>382.4</ele>
        <time>2022-09-07T12:25:40Z</time>
      </trkpt>
      <trkpt lat="43.09678" lon="-0.05417">
        <ele>382.4</ele>
        <time>2022-09-07T12:25:41Z</time>
      </trkpt>
      <trkpt lat="43.09673" lon="-0.05435">
        <ele>382.8</ele>
        <time>2022-09-07T12:25:48Z</time>
      </trkpt>
      <trkpt lat="43.09672" lon="-0.0544">
        <ele>383</ele>
        <time>2022-09-07T12:25:50Z</time>
      </trkpt>
      <trkpt lat="43.0967" lon="-0.05454">
        <ele>383</ele>
        <time>2022-09-07T12:25:56Z</time>
      </trkpt>
      <trkpt lat="43.09665" lon="-0.05474">
        <ele>383</ele>
        <time>2022-09-07T12:26:04Z</time>
      </trkpt>
      <trkpt lat="43.09662" lon="-0.05503">
        <ele>383.2</ele>
        <time>2022-09-07T12:26:13Z</time>
      </trkpt>
      <trkpt lat="43.09664" lon="-0.05522">
        <ele>383.4</ele>
        <time>2022-09-07T12:26:19Z</time>
      </trkpt>
      <trkpt lat="43.09665" lon="-0.05538">
        <ele>383.8</ele>
        <time>2022-09-07T12:26:26Z</time>
      </trkpt>
      <trkpt lat="43.09666" lon="-0.0554">
        <ele>383.8</ele>
        <time>2022-09-07T12:26:27Z</time>
      </trkpt>
      <trkpt lat="43.09667" lon="-0.05542">
        <ele>384</ele>
        <time>2022-09-07T12:26:28Z</time>
      </trkpt>
      <trkpt lat="43.09667" lon="-0.05543">
        <ele>384</ele>
        <time>2022-09-07T12:26:29Z</time>
      </trkpt>
      <trkpt lat="43.09667" lon="-0.05552">
        <ele>384.4</ele>
        <time>2022-09-07T12:26:33Z</time>
      </trkpt>
      <trkpt lat="43.09668" lon="-0.05557">
        <ele>384.4</ele>
        <time>2022-09-07T12:26:35Z</time>
      </trkpt>
      <trkpt lat="43.09669" lon="-0.05572">
        <ele>385</ele>
        <time>2022-09-07T12:26:41Z</time>
      </trkpt>
      <trkpt lat="43.09672" lon="-0.05589">
        <ele>386.2</ele>
        <time>2022-09-07T12:26:48Z</time>
      </trkpt>
      <trkpt lat="43.09672" lon="-0.05594">
        <ele>386.4</ele>
        <time>2022-09-07T12:26:50Z</time>
      </trkpt>
      <trkpt lat="43.09673" lon="-0.05605">
        <ele>387</ele>
        <time>2022-09-07T12:26:55Z</time>
      </trkpt>
      <trkpt lat="43.09674" lon="-0.0561">
        <ele>387.4</ele>
        <time>2022-09-07T12:26:57Z</time>
      </trkpt>
      <trkpt lat="43.09676" lon="-0.05618">
        <ele>387.4</ele>
        <time>2022-09-07T12:27:00Z</time>
      </trkpt>
      <trkpt lat="43.09677" lon="-0.05632">
        <ele>388</ele>
        <time>2022-09-07T12:27:08Z</time>
      </trkpt>
      <trkpt lat="43.09678" lon="-0.05638">
        <ele>388.4</ele>
        <time>2022-09-07T12:27:11Z</time>
      </trkpt>
      <trkpt lat="43.0968" lon="-0.05646">
        <ele>388.8</ele>
        <time>2022-09-07T12:27:15Z</time>
      </trkpt>
      <trkpt lat="43.09682" lon="-0.05658">
        <ele>389.4</ele>
        <time>2022-09-07T12:27:21Z</time>
      </trkpt>
      <trkpt lat="43.09682" lon="-0.0566">
        <ele>389.6</ele>
        <time>2022-09-07T12:27:22Z</time>
      </trkpt>
      <trkpt lat="43.09685" lon="-0.05674">
        <ele>390</ele>
        <time>2022-09-07T12:27:30Z</time>
      </trkpt>
      <trkpt lat="43.09687" lon="-0.05683">
        <ele>390.6</ele>
        <time>2022-09-07T12:27:34Z</time>
      </trkpt>
      <trkpt lat="43.0969" lon="-0.05693">
        <ele>390.6</ele>
        <time>2022-09-07T12:27:39Z</time>
      </trkpt>
      <trkpt lat="43.09697" lon="-0.05709">
        <ele>391.4</ele>
        <time>2022-09-07T12:27:47Z</time>
      </trkpt>
      <trkpt lat="43.09699" lon="-0.05713">
        <ele>391.6</ele>
        <time>2022-09-07T12:27:49Z</time>
      </trkpt>
      <trkpt lat="43.09704" lon="-0.05726">
        <ele>392.4</ele>
        <time>2022-09-07T12:27:55Z</time>
      </trkpt>
      <trkpt lat="43.09707" lon="-0.05733">
        <ele>392.8</ele>
        <time>2022-09-07T12:27:58Z</time>
      </trkpt>
      <trkpt lat="43.0971" lon="-0.05741">
        <ele>393.2</ele>
        <time>2022-09-07T12:28:02Z</time>
      </trkpt>
      <trkpt lat="43.09713" lon="-0.05751">
        <ele>393.8</ele>
        <time>2022-09-07T12:28:07Z</time>
      </trkpt>
      <trkpt lat="43.09715" lon="-0.05758">
        <ele>394.4</ele>
        <time>2022-09-07T12:28:10Z</time>
      </trkpt>
      <trkpt lat="43.09718" lon="-0.05764">
        <ele>394.8</ele>
        <time>2022-09-07T12:28:13Z</time>
      </trkpt>
      <trkpt lat="43.09722" lon="-0.05776">
        <ele>395.6</ele>
        <time>2022-09-07T12:28:18Z</time>
      </trkpt>
      <trkpt lat="43.09725" lon="-0.0579">
        <ele>396</ele>
        <time>2022-09-07T12:28:24Z</time>
      </trkpt>
      <trkpt lat="43.09725" lon="-0.05796">
        <ele>396.2</ele>
        <time>2022-09-07T12:28:26Z</time>
      </trkpt>
      <trkpt lat="43.09724" lon="-0.0582">
        <ele>397</ele>
        <time>2022-09-07T12:28:35Z</time>
      </trkpt>
      <trkpt lat="43.09722" lon="-0.05832">
        <ele>398</ele>
        <time>2022-09-07T12:28:40Z</time>
      </trkpt>
      <trkpt lat="43.09721" lon="-0.05837">
        <ele>398.2</ele>
        <time>2022-09-07T12:28:42Z</time>
      </trkpt>
      <trkpt lat="43.09721" lon="-0.05861">
        <ele>398.8</ele>
        <time>2022-09-07T12:28:51Z</time>
      </trkpt>
      <trkpt lat="43.09721" lon="-0.05872">
        <ele>399</ele>
        <time>2022-09-07T12:28:55Z</time>
      </trkpt>
      <trkpt lat="43.0972" lon="-0.05881">
        <ele>399.6</ele>
        <time>2022-09-07T12:28:59Z</time>
      </trkpt>
      <trkpt lat="43.09719" lon="-0.05895">
        <ele>400.2</ele>
        <time>2022-09-07T12:29:05Z</time>
      </trkpt>
      <trkpt lat="43.09719" lon="-0.05898">
        <ele>400.4</ele>
        <time>2022-09-07T12:29:06Z</time>
      </trkpt>
      <trkpt lat="43.09718" lon="-0.05916">
        <ele>401</ele>
        <time>2022-09-07T12:29:14Z</time>
      </trkpt>
      <trkpt lat="43.09717" lon="-0.05921">
        <ele>401.2</ele>
        <time>2022-09-07T12:29:16Z</time>
      </trkpt>
      <trkpt lat="43.09718" lon="-0.05943">
        <ele>402</ele>
        <time>2022-09-07T12:29:24Z</time>
      </trkpt>
      <trkpt lat="43.09718" lon="-0.05946">
        <ele>402.2</ele>
        <time>2022-09-07T12:29:25Z</time>
      </trkpt>
      <trkpt lat="43.09718" lon="-0.05949">
        <ele>402.4</ele>
        <time>2022-09-07T12:29:26Z</time>
      </trkpt>
      <trkpt lat="43.09719" lon="-0.05964">
        <ele>402.8</ele>
        <time>2022-09-07T12:29:32Z</time>
      </trkpt>
      <trkpt lat="43.09721" lon="-0.05978">
        <ele>403.4</ele>
        <time>2022-09-07T12:29:37Z</time>
      </trkpt>
      <trkpt lat="43.09721" lon="-0.05983">
        <ele>404</ele>
        <time>2022-09-07T12:29:39Z</time>
      </trkpt>
      <trkpt lat="43.09723" lon="-0.06003">
        <ele>404.6</ele>
        <time>2022-09-07T12:29:46Z</time>
      </trkpt>
      <trkpt lat="43.09724" lon="-0.06009">
        <ele>404.6</ele>
        <time>2022-09-07T12:29:48Z</time>
      </trkpt>
      <trkpt lat="43.09725" lon="-0.06038">
        <ele>405.4</ele>
        <time>2022-09-07T12:29:57Z</time>
      </trkpt>
      <trkpt lat="43.09726" lon="-0.06057">
        <ele>405.6</ele>
        <time>2022-09-07T12:30:03Z</time>
      </trkpt>
      <trkpt lat="43.09725" lon="-0.06064">
        <ele>405.6</ele>
        <time>2022-09-07T12:30:05Z</time>
      </trkpt>
      <trkpt lat="43.09725" lon="-0.06088">
        <ele>406.2</ele>
        <time>2022-09-07T12:30:12Z</time>
      </trkpt>
      <trkpt lat="43.09725" lon="-0.06108">
        <ele>406.6</ele>
        <time>2022-09-07T12:30:18Z</time>
      </trkpt>
      <trkpt lat="43.09725" lon="-0.06111">
        <ele>406.6</ele>
        <time>2022-09-07T12:30:19Z</time>
      </trkpt>
      <trkpt lat="43.09726" lon="-0.06138">
        <ele>407.6</ele>
        <time>2022-09-07T12:30:27Z</time>
      </trkpt>
      <trkpt lat="43.09726" lon="-0.06141">
        <ele>407.6</ele>
        <time>2022-09-07T12:30:28Z</time>
      </trkpt>
      <trkpt lat="43.09729" lon="-0.06162">
        <ele>408</ele>
        <time>2022-09-07T12:30:34Z</time>
      </trkpt>
      <trkpt lat="43.09732" lon="-0.06189">
        <ele>408.8</ele>
        <time>2022-09-07T12:30:42Z</time>
      </trkpt>
      <trkpt lat="43.09732" lon="-0.06193">
        <ele>408.8</ele>
        <time>2022-09-07T12:30:43Z</time>
      </trkpt>
      <trkpt lat="43.09736" lon="-0.06216">
        <ele>409.8</ele>
        <time>2022-09-07T12:30:50Z</time>
      </trkpt>
      <trkpt lat="43.09736" lon="-0.06219">
        <ele>409.8</ele>
        <time>2022-09-07T12:30:51Z</time>
      </trkpt>
      <trkpt lat="43.0974" lon="-0.06242">
        <ele>411</ele>
        <time>2022-09-07T12:30:58Z</time>
      </trkpt>
      <trkpt lat="43.09746" lon="-0.06274">
        <ele>411.8</ele>
        <time>2022-09-07T12:31:07Z</time>
      </trkpt>
      <trkpt lat="43.09749" lon="-0.06288">
        <ele>412</ele>
        <time>2022-09-07T12:31:11Z</time>
      </trkpt>
      <trkpt lat="43.0975" lon="-0.06296">
        <ele>412.2</ele>
        <time>2022-09-07T12:31:13Z</time>
      </trkpt>
      <trkpt lat="43.09757" lon="-0.06323">
        <ele>412.4</ele>
        <time>2022-09-07T12:31:20Z</time>
      </trkpt>
      <trkpt lat="43.09762" lon="-0.06348">
        <ele>413</ele>
        <time>2022-09-07T12:31:27Z</time>
      </trkpt>
      <trkpt lat="43.09765" lon="-0.06359">
        <ele>413.2</ele>
        <time>2022-09-07T12:31:30Z</time>
      </trkpt>
      <trkpt lat="43.09767" lon="-0.06372">
        <ele>413.4</ele>
        <time>2022-09-07T12:31:34Z</time>
      </trkpt>
      <trkpt lat="43.09772" lon="-0.06398">
        <ele>412.8</ele>
        <time>2022-09-07T12:31:41Z</time>
      </trkpt>
      <trkpt lat="43.09779" lon="-0.06424">
        <ele>412.4</ele>
        <time>2022-09-07T12:31:46Z</time>
      </trkpt>
      <trkpt lat="43.09784" lon="-0.06449">
        <ele>412</ele>
        <time>2022-09-07T12:31:50Z</time>
      </trkpt>
      <trkpt lat="43.09789" lon="-0.0647">
        <ele>411.2</ele>
        <time>2022-09-07T12:31:53Z</time>
      </trkpt>
      <trkpt lat="43.09793" lon="-0.06477">
        <ele>410.8</ele>
        <time>2022-09-07T12:31:54Z</time>
      </trkpt>
      <trkpt lat="43.09806" lon="-0.06497">
        <ele>409.8</ele>
        <time>2022-09-07T12:31:57Z</time>
      </trkpt>
      <trkpt lat="43.09811" lon="-0.06504">
        <ele>409.6</ele>
        <time>2022-09-07T12:31:58Z</time>
      </trkpt>
      <trkpt lat="43.09828" lon="-0.06523">
        <ele>408.6</ele>
        <time>2022-09-07T12:32:01Z</time>
      </trkpt>
      <trkpt lat="43.09839" lon="-0.06538">
        <ele>408.2</ele>
        <time>2022-09-07T12:32:03Z</time>
      </trkpt>
      <trkpt lat="43.09844" lon="-0.06546">
        <ele>408</ele>
        <time>2022-09-07T12:32:04Z</time>
      </trkpt>
      <trkpt lat="43.09847" lon="-0.06555">
        <ele>407.4</ele>
        <time>2022-09-07T12:32:05Z</time>
      </trkpt>
      <trkpt lat="43.09854" lon="-0.06576">
        <ele>406.6</ele>
        <time>2022-09-07T12:32:07Z</time>
      </trkpt>
      <trkpt lat="43.09856" lon="-0.06587">
        <ele>406.2</ele>
        <time>2022-09-07T12:32:08Z</time>
      </trkpt>
      <trkpt lat="43.09859" lon="-0.06609">
        <ele>405.2</ele>
        <time>2022-09-07T12:32:10Z</time>
      </trkpt>
      <trkpt lat="43.0986" lon="-0.0662">
        <ele>405</ele>
        <time>2022-09-07T12:32:11Z</time>
      </trkpt>
      <trkpt lat="43.09861" lon="-0.06631">
        <ele>404.6</ele>
        <time>2022-09-07T12:32:12Z</time>
      </trkpt>
      <trkpt lat="43.09862" lon="-0.06655">
        <ele>403.6</ele>
        <time>2022-09-07T12:32:14Z</time>
      </trkpt>
      <trkpt lat="43.09862" lon="-0.06691">
        <ele>402.6</ele>
        <time>2022-09-07T12:32:17Z</time>
      </trkpt>
      <trkpt lat="43.09861" lon="-0.06702">
        <ele>402.4</ele>
        <time>2022-09-07T12:32:18Z</time>
      </trkpt>
      <trkpt lat="43.09856" lon="-0.0673">
        <ele>401.2</ele>
        <time>2022-09-07T12:32:21Z</time>
      </trkpt>
      <trkpt lat="43.09844" lon="-0.06779">
        <ele>400</ele>
        <time>2022-09-07T12:32:27Z</time>
      </trkpt>
      <trkpt lat="43.09838" lon="-0.06803">
        <ele>399.2</ele>
        <time>2022-09-07T12:32:30Z</time>
      </trkpt>
      <trkpt lat="43.09827" lon="-0.06834">
        <ele>398.6</ele>
        <time>2022-09-07T12:32:34Z</time>
      </trkpt>
      <trkpt lat="43.09821" lon="-0.06847">
        <ele>398.6</ele>
        <time>2022-09-07T12:32:36Z</time>
      </trkpt>
      <trkpt lat="43.0981" lon="-0.06868">
        <ele>397.4</ele>
        <time>2022-09-07T12:32:40Z</time>
      </trkpt>
      <trkpt lat="43.09799" lon="-0.06889">
        <ele>397.4</ele>
        <time>2022-09-07T12:32:46Z</time>
      </trkpt>
      <trkpt lat="43.09783" lon="-0.06908">
        <ele>396.4</ele>
        <time>2022-09-07T12:32:51Z</time>
      </trkpt>
      <trkpt lat="43.09779" lon="-0.06912">
        <ele>396.2</ele>
        <time>2022-09-07T12:32:52Z</time>
      </trkpt>
      <trkpt lat="43.09774" lon="-0.06915">
        <ele>396</ele>
        <time>2022-09-07T12:32:53Z</time>
      </trkpt>
      <trkpt lat="43.09754" lon="-0.06927">
        <ele>395.8</ele>
        <time>2022-09-07T12:32:57Z</time>
      </trkpt>
      <trkpt lat="43.09748" lon="-0.06928">
        <ele>395.4</ele>
        <time>2022-09-07T12:32:58Z</time>
      </trkpt>
      <trkpt lat="43.09733" lon="-0.06928">
        <ele>395.2</ele>
        <time>2022-09-07T12:33:01Z</time>
      </trkpt>
      <trkpt lat="43.09713" lon="-0.06918">
        <ele>395</ele>
        <time>2022-09-07T12:33:05Z</time>
      </trkpt>
      <trkpt lat="43.09707" lon="-0.06918">
        <ele>394.6</ele>
        <time>2022-09-07T12:33:06Z</time>
      </trkpt>
      <trkpt lat="43.09701" lon="-0.0692">
        <ele>394.4</ele>
        <time>2022-09-07T12:33:07Z</time>
      </trkpt>
      <trkpt lat="43.09694" lon="-0.06925">
        <ele>394</ele>
        <time>2022-09-07T12:33:09Z</time>
      </trkpt>
      <trkpt lat="43.09679" lon="-0.06933">
        <ele>393.6</ele>
        <time>2022-09-07T12:33:14Z</time>
      </trkpt>
      <trkpt lat="43.09668" lon="-0.06946">
        <ele>394.4</ele>
        <time>2022-09-07T12:33:18Z</time>
      </trkpt>
      <trkpt lat="43.09667" lon="-0.06969">
        <ele>394.8</ele>
        <time>2022-09-07T12:33:23Z</time>
      </trkpt>
      <trkpt lat="43.09668" lon="-0.06984">
        <ele>395.4</ele>
        <time>2022-09-07T12:33:27Z</time>
      </trkpt>
      <trkpt lat="43.09669" lon="-0.06989">
        <ele>395.4</ele>
        <time>2022-09-07T12:33:29Z</time>
      </trkpt>
      <trkpt lat="43.09667" lon="-0.06986">
        <ele>395.2</ele>
        <time>2022-09-07T12:36:01Z</time>
      </trkpt>
      <trkpt lat="43.09665" lon="-0.06967">
        <ele>394.6</ele>
        <time>2022-09-07T12:36:06Z</time>
      </trkpt>
      <trkpt lat="43.09664" lon="-0.06962">
        <ele>394.6</ele>
        <time>2022-09-07T12:36:07Z</time>
      </trkpt>
      <trkpt lat="43.09664" lon="-0.06948">
        <ele>394.2</ele>
        <time>2022-09-07T12:36:10Z</time>
      </trkpt>
      <trkpt lat="43.09665" lon="-0.0694">
        <ele>394</ele>
        <time>2022-09-07T12:36:12Z</time>
      </trkpt>
      <trkpt lat="43.09667" lon="-0.06936">
        <ele>394</ele>
        <time>2022-09-07T12:36:13Z</time>
      </trkpt>
      <trkpt lat="43.09673" lon="-0.06931">
        <ele>394</ele>
        <time>2022-09-07T12:36:15Z</time>
      </trkpt>
      <trkpt lat="43.0969" lon="-0.06935">
        <ele>393.8</ele>
        <time>2022-09-07T12:36:19Z</time>
      </trkpt>
      <trkpt lat="43.09698" lon="-0.06943">
        <ele>393.4</ele>
        <time>2022-09-07T12:36:21Z</time>
      </trkpt>
      <trkpt lat="43.09707" lon="-0.06951">
        <ele>393.2</ele>
        <time>2022-09-07T12:36:23Z</time>
      </trkpt>
      <trkpt lat="43.09713" lon="-0.06954">
        <ele>392.8</ele>
        <time>2022-09-07T12:36:24Z</time>
      </trkpt>
      <trkpt lat="43.09726" lon="-0.0696">
        <ele>391.8</ele>
        <time>2022-09-07T12:36:26Z</time>
      </trkpt>
      <trkpt lat="43.0974" lon="-0.06963">
        <ele>390.8</ele>
        <time>2022-09-07T12:36:28Z</time>
      </trkpt>
      <trkpt lat="43.09747" lon="-0.06964">
        <ele>390.4</ele>
        <time>2022-09-07T12:36:29Z</time>
      </trkpt>
      <trkpt lat="43.09777" lon="-0.0697">
        <ele>389</ele>
        <time>2022-09-07T12:36:33Z</time>
      </trkpt>
      <trkpt lat="43.09783" lon="-0.0697">
        <ele>387.8</ele>
        <time>2022-09-07T12:36:34Z</time>
      </trkpt>
      <trkpt lat="43.09793" lon="-0.06971">
        <ele>386.8</ele>
        <time>2022-09-07T12:36:36Z</time>
      </trkpt>
      <trkpt lat="43.09799" lon="-0.06972">
        <ele>385.6</ele>
        <time>2022-09-07T12:36:38Z</time>
      </trkpt>
      <trkpt lat="43.09809" lon="-0.06972">
        <ele>384.6</ele>
        <time>2022-09-07T12:36:43Z</time>
      </trkpt>
      <trkpt lat="43.09811" lon="-0.06977">
        <ele>384.6</ele>
        <time>2022-09-07T12:36:45Z</time>
      </trkpt>
      <trkpt lat="43.09808" lon="-0.0698">
        <ele>385</ele>
        <time>2022-09-07T12:36:47Z</time>
      </trkpt>
      <trkpt lat="43.098" lon="-0.06981">
        <ele>385.6</ele>
        <time>2022-09-07T12:36:52Z</time>
      </trkpt>
      <trkpt lat="43.09795" lon="-0.06984">
        <ele>385.4</ele>
        <time>2022-09-07T12:37:01Z</time>
      </trkpt>
      <trkpt lat="43.09793" lon="-0.06986">
        <ele>385.6</ele>
        <time>2022-09-07T12:37:02Z</time>
      </trkpt>
      <trkpt lat="43.09779" lon="-0.07007">
        <ele>384.4</ele>
        <time>2022-09-07T12:37:08Z</time>
      </trkpt>
      <trkpt lat="43.09761" lon="-0.07033">
        <ele>383.4</ele>
        <time>2022-09-07T12:37:14Z</time>
      </trkpt>
      <trkpt lat="43.09758" lon="-0.07038">
        <ele>383.6</ele>
        <time>2022-09-07T12:37:15Z</time>
      </trkpt>
      <trkpt lat="43.09746" lon="-0.07062">
        <ele>383</ele>
        <time>2022-09-07T12:37:20Z</time>
      </trkpt>
      <trkpt lat="43.09741" lon="-0.07072">
        <ele>383.2</ele>
        <time>2022-09-07T12:37:22Z</time>
      </trkpt>
      <trkpt lat="43.09739" lon="-0.07078">
        <ele>382.4</ele>
        <time>2022-09-07T12:37:23Z</time>
      </trkpt>
      <trkpt lat="43.09733" lon="-0.07093">
        <ele>382</ele>
        <time>2022-09-07T12:37:25Z</time>
      </trkpt>
      <trkpt lat="43.09728" lon="-0.07112">
        <ele>380.6</ele>
        <time>2022-09-07T12:37:27Z</time>
      </trkpt>
      <trkpt lat="43.09728" lon="-0.07131">
        <ele>380.6</ele>
        <time>2022-09-07T12:37:29Z</time>
      </trkpt>
      <trkpt lat="43.09727" lon="-0.07152">
        <ele>381.4</ele>
        <time>2022-09-07T12:37:32Z</time>
      </trkpt>
      <trkpt lat="43.09727" lon="-0.0717">
        <ele>380.4</ele>
        <time>2022-09-07T12:37:35Z</time>
      </trkpt>
      <trkpt lat="43.09727" lon="-0.07185">
        <ele>379.6</ele>
        <time>2022-09-07T12:37:37Z</time>
      </trkpt>
      <trkpt lat="43.09726" lon="-0.07193">
        <ele>379.6</ele>
        <time>2022-09-07T12:37:38Z</time>
      </trkpt>
      <trkpt lat="43.09724" lon="-0.07202">
        <ele>380</ele>
        <time>2022-09-07T12:37:39Z</time>
      </trkpt>
      <trkpt lat="43.09721" lon="-0.0722">
        <ele>380.6</ele>
        <time>2022-09-07T12:37:41Z</time>
      </trkpt>
      <trkpt lat="43.09718" lon="-0.07237">
        <ele>378.4</ele>
        <time>2022-09-07T12:37:43Z</time>
      </trkpt>
      <trkpt lat="43.09709" lon="-0.07279">
        <ele>378</ele>
        <time>2022-09-07T12:37:48Z</time>
      </trkpt>
      <trkpt lat="43.09707" lon="-0.07287">
        <ele>377.4</ele>
        <time>2022-09-07T12:37:49Z</time>
      </trkpt>
      <trkpt lat="43.09704" lon="-0.07303">
        <ele>376.6</ele>
        <time>2022-09-07T12:37:51Z</time>
      </trkpt>
      <trkpt lat="43.09702" lon="-0.07336">
        <ele>376.4</ele>
        <time>2022-09-07T12:37:55Z</time>
      </trkpt>
      <trkpt lat="43.09702" lon="-0.07344">
        <ele>376.2</ele>
        <time>2022-09-07T12:37:56Z</time>
      </trkpt>
      <trkpt lat="43.09702" lon="-0.07381">
        <ele>375.2</ele>
        <time>2022-09-07T12:38:01Z</time>
      </trkpt>
      <trkpt lat="43.09706" lon="-0.07431">
        <ele>374.8</ele>
        <time>2022-09-07T12:38:09Z</time>
      </trkpt>
      <trkpt lat="43.0971" lon="-0.07468">
        <ele>374.8</ele>
        <time>2022-09-07T12:38:16Z</time>
      </trkpt>
      <trkpt lat="43.09714" lon="-0.07497">
        <ele>374.6</ele>
        <time>2022-09-07T12:38:22Z</time>
      </trkpt>
      <trkpt lat="43.09723" lon="-0.07529">
        <ele>375</ele>
        <time>2022-09-07T12:38:29Z</time>
      </trkpt>
      <trkpt lat="43.09733" lon="-0.07567">
        <ele>374.6</ele>
        <time>2022-09-07T12:38:37Z</time>
      </trkpt>
      <trkpt lat="43.09737" lon="-0.07601">
        <ele>375</ele>
        <time>2022-09-07T12:38:45Z</time>
      </trkpt>
      <trkpt lat="43.09743" lon="-0.07628">
        <ele>374.2</ele>
        <time>2022-09-07T12:38:50Z</time>
      </trkpt>
      <trkpt lat="43.09745" lon="-0.07636">
        <ele>374</ele>
        <time>2022-09-07T12:38:51Z</time>
      </trkpt>
      <trkpt lat="43.09751" lon="-0.07659">
        <ele>373</ele>
        <time>2022-09-07T12:38:54Z</time>
      </trkpt>
      <trkpt lat="43.09753" lon="-0.07666">
        <ele>373</ele>
        <time>2022-09-07T12:38:55Z</time>
      </trkpt>
      <trkpt lat="43.09758" lon="-0.07693">
        <ele>373.6</ele>
        <time>2022-09-07T12:39:00Z</time>
      </trkpt>
      <trkpt lat="43.09764" lon="-0.07728">
        <ele>373.6</ele>
        <time>2022-09-07T12:39:07Z</time>
      </trkpt>
      <trkpt lat="43.09764" lon="-0.0775">
        <ele>374</ele>
        <time>2022-09-07T12:39:12Z</time>
      </trkpt>
      <trkpt lat="43.09764" lon="-0.07753">
        <ele>374.4</ele>
        <time>2022-09-07T12:39:13Z</time>
      </trkpt>
      <trkpt lat="43.09765" lon="-0.07768">
        <ele>375</ele>
        <time>2022-09-07T12:39:19Z</time>
      </trkpt>
      <trkpt lat="43.09765" lon="-0.07771">
        <ele>375.2</ele>
        <time>2022-09-07T12:39:20Z</time>
      </trkpt>
      <trkpt lat="43.09764" lon="-0.07774">
        <ele>375.6</ele>
        <time>2022-09-07T12:39:23Z</time>
      </trkpt>
      <trkpt lat="43.09779" lon="-0.0779">
        <ele>374.4</ele>
        <time>2022-09-07T12:39:53Z</time>
      </trkpt>
      <trkpt lat="43.09782" lon="-0.07797">
        <ele>374.2</ele>
        <time>2022-09-07T12:39:55Z</time>
      </trkpt>
      <trkpt lat="43.09784" lon="-0.078">
        <ele>374</ele>
        <time>2022-09-07T12:39:56Z</time>
      </trkpt>
      <trkpt lat="43.0979" lon="-0.07811">
        <ele>373.4</ele>
        <time>2022-09-07T12:40:00Z</time>
      </trkpt>
      <trkpt lat="43.09794" lon="-0.07824">
        <ele>373</ele>
        <time>2022-09-07T12:40:04Z</time>
      </trkpt>
      <trkpt lat="43.09795" lon="-0.07827">
        <ele>372.8</ele>
        <time>2022-09-07T12:40:05Z</time>
      </trkpt>
      <trkpt lat="43.09797" lon="-0.07847">
        <ele>372.8</ele>
        <time>2022-09-07T12:40:10Z</time>
      </trkpt>
      <trkpt lat="43.09799" lon="-0.07871">
        <ele>373.8</ele>
        <time>2022-09-07T12:40:17Z</time>
      </trkpt>
      <trkpt lat="43.09803" lon="-0.0789">
        <ele>374</ele>
        <time>2022-09-07T12:40:23Z</time>
      </trkpt>
      <trkpt lat="43.09806" lon="-0.07903">
        <ele>374.2</ele>
        <time>2022-09-07T12:40:27Z</time>
      </trkpt>
      <trkpt lat="43.09808" lon="-0.07915">
        <ele>374.6</ele>
        <time>2022-09-07T12:40:30Z</time>
      </trkpt>
      <trkpt lat="43.09809" lon="-0.0793">
        <ele>375</ele>
        <time>2022-09-07T12:40:33Z</time>
      </trkpt>
      <trkpt lat="43.09812" lon="-0.07945">
        <ele>375</ele>
        <time>2022-09-07T12:40:37Z</time>
      </trkpt>
      <trkpt lat="43.09817" lon="-0.07964">
        <ele>375</ele>
        <time>2022-09-07T12:40:42Z</time>
      </trkpt>
      <trkpt lat="43.0982" lon="-0.07977">
        <ele>375.6</ele>
        <time>2022-09-07T12:40:46Z</time>
      </trkpt>
      <trkpt lat="43.09827" lon="-0.07991">
        <ele>376.2</ele>
        <time>2022-09-07T12:40:51Z</time>
      </trkpt>
      <trkpt lat="43.09828" lon="-0.07994">
        <ele>376.2</ele>
        <time>2022-09-07T12:40:52Z</time>
      </trkpt>
      <trkpt lat="43.09831" lon="-0.08013">
        <ele>376.6</ele>
        <time>2022-09-07T12:40:58Z</time>
      </trkpt>
      <trkpt lat="43.09835" lon="-0.08028">
        <ele>377</ele>
        <time>2022-09-07T12:41:04Z</time>
      </trkpt>
      <trkpt lat="43.09838" lon="-0.08035">
        <ele>377.2</ele>
        <time>2022-09-07T12:41:06Z</time>
      </trkpt>
      <trkpt lat="43.09844" lon="-0.08051">
        <ele>377.4</ele>
        <time>2022-09-07T12:41:12Z</time>
      </trkpt>
      <trkpt lat="43.09854" lon="-0.08061">
        <ele>377</ele>
        <time>2022-09-07T12:41:17Z</time>
      </trkpt>
      <trkpt lat="43.09865" lon="-0.08076">
        <ele>377</ele>
        <time>2022-09-07T12:41:22Z</time>
      </trkpt>
      <trkpt lat="43.09875" lon="-0.08091">
        <ele>377.4</ele>
        <time>2022-09-07T12:41:28Z</time>
      </trkpt>
      <trkpt lat="43.09887" lon="-0.08109">
        <ele>376.6</ele>
        <time>2022-09-07T12:41:35Z</time>
      </trkpt>
      <trkpt lat="43.09891" lon="-0.08129">
        <ele>376.2</ele>
        <time>2022-09-07T12:41:41Z</time>
      </trkpt>
      <trkpt lat="43.09902" lon="-0.0815">
        <ele>375.6</ele>
        <time>2022-09-07T12:41:48Z</time>
      </trkpt>
      <trkpt lat="43.09907" lon="-0.08157">
        <ele>375</ele>
        <time>2022-09-07T12:41:50Z</time>
      </trkpt>
      <trkpt lat="43.09916" lon="-0.08172">
        <ele>374.8</ele>
        <time>2022-09-07T12:41:54Z</time>
      </trkpt>
      <trkpt lat="43.09924" lon="-0.08192">
        <ele>374</ele>
        <time>2022-09-07T12:41:58Z</time>
      </trkpt>
      <trkpt lat="43.09926" lon="-0.08196">
        <ele>374</ele>
        <time>2022-09-07T12:41:59Z</time>
      </trkpt>
      <trkpt lat="43.09932" lon="-0.08211">
        <ele>374.2</ele>
        <time>2022-09-07T12:42:04Z</time>
      </trkpt>
      <trkpt lat="43.09932" lon="-0.08218">
        <ele>374.6</ele>
        <time>2022-09-07T12:42:06Z</time>
      </trkpt>
      <trkpt lat="43.09933" lon="-0.08223">
        <ele>374.8</ele>
        <time>2022-09-07T12:42:10Z</time>
      </trkpt>
      <trkpt lat="43.09939" lon="-0.08242">
        <ele>376.2</ele>
        <time>2022-09-07T12:43:22Z</time>
      </trkpt>
      <trkpt lat="43.09941" lon="-0.08246">
        <ele>376.4</ele>
        <time>2022-09-07T12:43:24Z</time>
      </trkpt>
      <trkpt lat="43.09944" lon="-0.08255">
        <ele>377.2</ele>
        <time>2022-09-07T12:43:28Z</time>
      </trkpt>
      <trkpt lat="43.09946" lon="-0.08259">
        <ele>377.4</ele>
        <time>2022-09-07T12:43:30Z</time>
      </trkpt>
      <trkpt lat="43.09949" lon="-0.08272">
        <ele>377.6</ele>
        <time>2022-09-07T12:43:35Z</time>
      </trkpt>
      <trkpt lat="43.09952" lon="-0.08287">
        <ele>377.6</ele>
        <time>2022-09-07T12:43:41Z</time>
      </trkpt>
      <trkpt lat="43.09956" lon="-0.08306">
        <ele>377.4</ele>
        <time>2022-09-07T12:43:48Z</time>
      </trkpt>
      <trkpt lat="43.0996" lon="-0.08331">
        <ele>377.2</ele>
        <time>2022-09-07T12:43:56Z</time>
      </trkpt>
      <trkpt lat="43.09963" lon="-0.08351">
        <ele>376.8</ele>
        <time>2022-09-07T12:44:03Z</time>
      </trkpt>
      <trkpt lat="43.09965" lon="-0.08356">
        <ele>376.8</ele>
        <time>2022-09-07T12:44:06Z</time>
      </trkpt>
      <trkpt lat="43.09967" lon="-0.08362">
        <ele>376.6</ele>
        <time>2022-09-07T12:44:08Z</time>
      </trkpt>
      <trkpt lat="43.0997" lon="-0.0838">
        <ele>376.2</ele>
        <time>2022-09-07T12:44:13Z</time>
      </trkpt>
      <trkpt lat="43.09969" lon="-0.08387">
        <ele>375.8</ele>
        <time>2022-09-07T12:44:14Z</time>
      </trkpt>
      <trkpt lat="43.0997" lon="-0.084">
        <ele>375.2</ele>
        <time>2022-09-07T12:44:16Z</time>
      </trkpt>
      <trkpt lat="43.09971" lon="-0.08415">
        <ele>374.4</ele>
        <time>2022-09-07T12:44:18Z</time>
      </trkpt>
      <trkpt lat="43.09972" lon="-0.08421">
        <ele>374</ele>
        <time>2022-09-07T12:44:19Z</time>
      </trkpt>
      <trkpt lat="43.09975" lon="-0.08434">
        <ele>373.4</ele>
        <time>2022-09-07T12:44:21Z</time>
      </trkpt>
      <trkpt lat="43.09977" lon="-0.0844">
        <ele>373</ele>
        <time>2022-09-07T12:44:22Z</time>
      </trkpt>
      <trkpt lat="43.09981" lon="-0.0845">
        <ele>372.4</ele>
        <time>2022-09-07T12:44:24Z</time>
      </trkpt>
      <trkpt lat="43.09982" lon="-0.08455">
        <ele>372</ele>
        <time>2022-09-07T12:44:26Z</time>
      </trkpt>
      <trkpt lat="43.09984" lon="-0.08457">
        <ele>371.4</ele>
        <time>2022-09-07T12:44:28Z</time>
      </trkpt>
      <trkpt lat="43.09983" lon="-0.08476">
        <ele>371.2</ele>
        <time>2022-09-07T12:47:14Z</time>
      </trkpt>
      <trkpt lat="43.09983" lon="-0.08479">
        <ele>371.4</ele>
        <time>2022-09-07T12:47:15Z</time>
      </trkpt>
      <trkpt lat="43.09984" lon="-0.08501">
        <ele>371</ele>
        <time>2022-09-07T12:47:22Z</time>
      </trkpt>
      <trkpt lat="43.09985" lon="-0.08516">
        <ele>371</ele>
        <time>2022-09-07T12:47:27Z</time>
      </trkpt>
      <trkpt lat="43.09985" lon="-0.0852">
        <ele>371</ele>
        <time>2022-09-07T12:47:29Z</time>
      </trkpt>
      <trkpt lat="43.09985" lon="-0.08522">
        <ele>370.8</ele>
        <time>2022-09-07T12:47:30Z</time>
      </trkpt>
      <trkpt lat="43.09987" lon="-0.08537">
        <ele>370.6</ele>
        <time>2022-09-07T12:47:34Z</time>
      </trkpt>
      <trkpt lat="43.09994" lon="-0.0856">
        <ele>370.4</ele>
        <time>2022-09-07T12:47:40Z</time>
      </trkpt>
      <trkpt lat="43.09999" lon="-0.08585">
        <ele>370.4</ele>
        <time>2022-09-07T12:47:47Z</time>
      </trkpt>
      <trkpt lat="43.09996" lon="-0.08605">
        <ele>370.2</ele>
        <time>2022-09-07T12:47:52Z</time>
      </trkpt>
      <trkpt lat="43.0999" lon="-0.0863">
        <ele>370</ele>
        <time>2022-09-07T12:47:58Z</time>
      </trkpt>
      <trkpt lat="43.0999" lon="-0.08636">
        <ele>370</ele>
        <time>2022-09-07T12:47:59Z</time>
      </trkpt>
      <trkpt lat="43.09991" lon="-0.08646">
        <ele>369.8</ele>
        <time>2022-09-07T12:48:02Z</time>
      </trkpt>
      <trkpt lat="43.0999" lon="-0.08665">
        <ele>369.6</ele>
        <time>2022-09-07T12:48:07Z</time>
      </trkpt>
      <trkpt lat="43.09987" lon="-0.08692">
        <ele>369.4</ele>
        <time>2022-09-07T12:48:13Z</time>
      </trkpt>
      <trkpt lat="43.09984" lon="-0.08718">
        <ele>369.4</ele>
        <time>2022-09-07T12:48:19Z</time>
      </trkpt>
      <trkpt lat="43.09983" lon="-0.0874">
        <ele>369.6</ele>
        <time>2022-09-07T12:48:25Z</time>
      </trkpt>
      <trkpt lat="43.09985" lon="-0.08764">
        <ele>369.4</ele>
        <time>2022-09-07T12:48:31Z</time>
      </trkpt>
      <trkpt lat="43.09985" lon="-0.0877">
        <ele>369.4</ele>
        <time>2022-09-07T12:48:33Z</time>
      </trkpt>
      <trkpt lat="43.09986" lon="-0.08775">
        <ele>369.4</ele>
        <time>2022-09-07T12:48:35Z</time>
      </trkpt>
      <trkpt lat="43.09987" lon="-0.08792">
        <ele>369.4</ele>
        <time>2022-09-07T12:48:39Z</time>
      </trkpt>
      <trkpt lat="43.09987" lon="-0.08801">
        <ele>369.4</ele>
        <time>2022-09-07T12:48:41Z</time>
      </trkpt>
      <trkpt lat="43.09986" lon="-0.08827">
        <ele>369.4</ele>
        <time>2022-09-07T12:48:47Z</time>
      </trkpt>
      <trkpt lat="43.09983" lon="-0.08843">
        <ele>369.4</ele>
        <time>2022-09-07T12:48:51Z</time>
      </trkpt>
      <trkpt lat="43.09982" lon="-0.08848">
        <ele>369.2</ele>
        <time>2022-09-07T12:48:52Z</time>
      </trkpt>
      <trkpt lat="43.0998" lon="-0.08854">
        <ele>368.8</ele>
        <time>2022-09-07T12:48:53Z</time>
      </trkpt>
      <trkpt lat="43.09976" lon="-0.08873">
        <ele>368.6</ele>
        <time>2022-09-07T12:48:57Z</time>
      </trkpt>
      <trkpt lat="43.09968" lon="-0.08897">
        <ele>368.2</ele>
        <time>2022-09-07T12:49:02Z</time>
      </trkpt>
      <trkpt lat="43.09962" lon="-0.0891">
        <ele>368.4</ele>
        <time>2022-09-07T12:49:07Z</time>
      </trkpt>
      <trkpt lat="43.09957" lon="-0.08931">
        <ele>369</ele>
        <time>2022-09-07T12:49:12Z</time>
      </trkpt>
      <trkpt lat="43.09957" lon="-0.08944">
        <ele>369.2</ele>
        <time>2022-09-07T12:49:15Z</time>
      </trkpt>
      <trkpt lat="43.09958" lon="-0.08953">
        <ele>369</ele>
        <time>2022-09-07T12:49:17Z</time>
      </trkpt>
      <trkpt lat="43.09958" lon="-0.08967">
        <ele>369.6</ele>
        <time>2022-09-07T12:49:20Z</time>
      </trkpt>
      <trkpt lat="43.09957" lon="-0.08974">
        <ele>369.8</ele>
        <time>2022-09-07T12:49:22Z</time>
      </trkpt>
      <trkpt lat="43.09957" lon="-0.0898">
        <ele>369.8</ele>
        <time>2022-09-07T12:49:24Z</time>
      </trkpt>
      <trkpt lat="43.09957" lon="-0.08995">
        <ele>370.2</ele>
        <time>2022-09-07T12:49:28Z</time>
      </trkpt>
      <trkpt lat="43.09956" lon="-0.09018">
        <ele>369.8</ele>
        <time>2022-09-07T12:49:35Z</time>
      </trkpt>
      <trkpt lat="43.09957" lon="-0.09036">
        <ele>369.8</ele>
        <time>2022-09-07T12:49:41Z</time>
      </trkpt>
      <trkpt lat="43.09957" lon="-0.09065">
        <ele>369.6</ele>
        <time>2022-09-07T12:49:48Z</time>
      </trkpt>
      <trkpt lat="43.09955" lon="-0.09088">
        <ele>369.4</ele>
        <time>2022-09-07T12:49:54Z</time>
      </trkpt>
      <trkpt lat="43.09954" lon="-0.09113">
        <ele>369.2</ele>
        <time>2022-09-07T12:50:01Z</time>
      </trkpt>
      <trkpt lat="43.09949" lon="-0.0913">
        <ele>369.2</ele>
        <time>2022-09-07T12:50:06Z</time>
      </trkpt>
      <trkpt lat="43.09942" lon="-0.09153">
        <ele>369.8</ele>
        <time>2022-09-07T12:50:13Z</time>
      </trkpt>
      <trkpt lat="43.0994" lon="-0.09172">
        <ele>369.6</ele>
        <time>2022-09-07T12:50:18Z</time>
      </trkpt>
      <trkpt lat="43.09935" lon="-0.09196">
        <ele>369.4</ele>
        <time>2022-09-07T12:50:25Z</time>
      </trkpt>
      <trkpt lat="43.09931" lon="-0.09221">
        <ele>369.2</ele>
        <time>2022-09-07T12:50:32Z</time>
      </trkpt>
      <trkpt lat="43.09927" lon="-0.09238">
        <ele>368.6</ele>
        <time>2022-09-07T12:50:36Z</time>
      </trkpt>
      <trkpt lat="43.09925" lon="-0.09252">
        <ele>368.4</ele>
        <time>2022-09-07T12:50:39Z</time>
      </trkpt>
      <trkpt lat="43.09918" lon="-0.09295">
        <ele>367.8</ele>
        <time>2022-09-07T12:50:48Z</time>
      </trkpt>
      <trkpt lat="43.09915" lon="-0.09319">
        <ele>368.2</ele>
        <time>2022-09-07T12:50:54Z</time>
      </trkpt>
      <trkpt lat="43.09915" lon="-0.09341">
        <ele>368.4</ele>
        <time>2022-09-07T12:51:00Z</time>
      </trkpt>
      <trkpt lat="43.09912" lon="-0.09362">
        <ele>368</ele>
        <time>2022-09-07T12:51:06Z</time>
      </trkpt>
      <trkpt lat="43.09909" lon="-0.09389">
        <ele>368.2</ele>
        <time>2022-09-07T12:51:13Z</time>
      </trkpt>
      <trkpt lat="43.09904" lon="-0.09404">
        <ele>368.4</ele>
        <time>2022-09-07T12:51:18Z</time>
      </trkpt>
      <trkpt lat="43.09901" lon="-0.09423">
        <ele>369.6</ele>
        <time>2022-09-07T12:51:25Z</time>
      </trkpt>
      <trkpt lat="43.09901" lon="-0.09426">
        <ele>369.8</ele>
        <time>2022-09-07T12:51:26Z</time>
      </trkpt>
      <trkpt lat="43.09899" lon="-0.09444">
        <ele>370.6</ele>
        <time>2022-09-07T12:51:32Z</time>
      </trkpt>
      <trkpt lat="43.09899" lon="-0.09446">
        <ele>370.8</ele>
        <time>2022-09-07T12:51:33Z</time>
      </trkpt>
      <trkpt lat="43.09899" lon="-0.09451">
        <ele>371.2</ele>
        <time>2022-09-07T12:51:35Z</time>
      </trkpt>
      <trkpt lat="43.09899" lon="-0.09457">
        <ele>371.4</ele>
        <time>2022-09-07T12:51:38Z</time>
      </trkpt>
      <trkpt lat="43.099" lon="-0.09459">
        <ele>371.4</ele>
        <time>2022-09-07T12:51:39Z</time>
      </trkpt>
      <trkpt lat="43.099" lon="-0.0947">
        <ele>371.8</ele>
        <time>2022-09-07T12:51:43Z</time>
      </trkpt>
      <trkpt lat="43.099" lon="-0.09475">
        <ele>372</ele>
        <time>2022-09-07T12:51:45Z</time>
      </trkpt>
      <trkpt lat="43.09901" lon="-0.09481">
        <ele>373</ele>
        <time>2022-09-07T12:51:49Z</time>
      </trkpt>
      <trkpt lat="43.09901" lon="-0.09484">
        <ele>373</ele>
        <time>2022-09-07T12:51:50Z</time>
      </trkpt>
      <trkpt lat="43.09904" lon="-0.09504">
        <ele>373.8</ele>
        <time>2022-09-07T12:51:59Z</time>
      </trkpt>
      <trkpt lat="43.09904" lon="-0.0951">
        <ele>373.8</ele>
        <time>2022-09-07T12:52:01Z</time>
      </trkpt>
      <trkpt lat="43.09904" lon="-0.09515">
        <ele>374</ele>
        <time>2022-09-07T12:52:03Z</time>
      </trkpt>
      <trkpt lat="43.09905" lon="-0.09534">
        <ele>374.8</ele>
        <time>2022-09-07T12:52:11Z</time>
      </trkpt>
      <trkpt lat="43.09904" lon="-0.09543">
        <ele>375.2</ele>
        <time>2022-09-07T12:52:15Z</time>
      </trkpt>
      <trkpt lat="43.09904" lon="-0.09548">
        <ele>375.4</ele>
        <time>2022-09-07T12:52:17Z</time>
      </trkpt>
      <trkpt lat="43.09905" lon="-0.09555">
        <ele>375.2</ele>
        <time>2022-09-07T12:52:20Z</time>
      </trkpt>
      <trkpt lat="43.09906" lon="-0.09565">
        <ele>375.4</ele>
        <time>2022-09-07T12:52:24Z</time>
      </trkpt>
      <trkpt lat="43.09911" lon="-0.09578">
        <ele>375.2</ele>
        <time>2022-09-07T12:52:29Z</time>
      </trkpt>
      <trkpt lat="43.09913" lon="-0.09598">
        <ele>375</ele>
        <time>2022-09-07T12:52:35Z</time>
      </trkpt>
      <trkpt lat="43.09914" lon="-0.09619">
        <ele>375</ele>
        <time>2022-09-07T12:52:42Z</time>
      </trkpt>
      <trkpt lat="43.09915" lon="-0.09637">
        <ele>375</ele>
        <time>2022-09-07T12:52:48Z</time>
      </trkpt>
      <trkpt lat="43.09916" lon="-0.0964">
        <ele>375.2</ele>
        <time>2022-09-07T12:52:49Z</time>
      </trkpt>
      <trkpt lat="43.09918" lon="-0.09653">
        <ele>375.4</ele>
        <time>2022-09-07T12:52:54Z</time>
      </trkpt>
      <trkpt lat="43.09921" lon="-0.09671">
        <ele>375.4</ele>
        <time>2022-09-07T12:53:00Z</time>
      </trkpt>
      <trkpt lat="43.09923" lon="-0.09681">
        <ele>375.2</ele>
        <time>2022-09-07T12:53:04Z</time>
      </trkpt>
      <trkpt lat="43.09923" lon="-0.09683">
        <ele>375.2</ele>
        <time>2022-09-07T12:53:05Z</time>
      </trkpt>
      <trkpt lat="43.09929" lon="-0.09698">
        <ele>375.4</ele>
        <time>2022-09-07T12:53:10Z</time>
      </trkpt>
      <trkpt lat="43.09934" lon="-0.09717">
        <ele>375</ele>
        <time>2022-09-07T12:53:16Z</time>
      </trkpt>
      <trkpt lat="43.09941" lon="-0.09738">
        <ele>374.6</ele>
        <time>2022-09-07T12:53:21Z</time>
      </trkpt>
      <trkpt lat="43.09942" lon="-0.09744">
        <ele>374.2</ele>
        <time>2022-09-07T12:53:24Z</time>
      </trkpt>
      <trkpt lat="43.09943" lon="-0.09746">
        <ele>374.2</ele>
        <time>2022-09-07T12:53:25Z</time>
      </trkpt>
      <trkpt lat="43.09947" lon="-0.09756">
        <ele>374.4</ele>
        <time>2022-09-07T12:53:37Z</time>
      </trkpt>
      <trkpt lat="43.09952" lon="-0.0977">
        <ele>374.4</ele>
        <time>2022-09-07T12:53:42Z</time>
      </trkpt>
      <trkpt lat="43.09962" lon="-0.09787">
        <ele>374.2</ele>
        <time>2022-09-07T12:53:48Z</time>
      </trkpt>
      <trkpt lat="43.09964" lon="-0.0979">
        <ele>374</ele>
        <time>2022-09-07T12:53:49Z</time>
      </trkpt>
      <trkpt lat="43.09971" lon="-0.09807">
        <ele>373.6</ele>
        <time>2022-09-07T12:53:53Z</time>
      </trkpt>
      <trkpt lat="43.0998" lon="-0.09828">
        <ele>372.8</ele>
        <time>2022-09-07T12:53:57Z</time>
      </trkpt>
      <trkpt lat="43.09986" lon="-0.0984">
        <ele>372.2</ele>
        <time>2022-09-07T12:53:59Z</time>
      </trkpt>
      <trkpt lat="43.09988" lon="-0.09847">
        <ele>372</ele>
        <time>2022-09-07T12:54:00Z</time>
      </trkpt>
      <trkpt lat="43.09993" lon="-0.09859">
        <ele>372.2</ele>
        <time>2022-09-07T12:54:02Z</time>
      </trkpt>
      <trkpt lat="43.09998" lon="-0.0987">
        <ele>372</ele>
        <time>2022-09-07T12:54:04Z</time>
      </trkpt>
      <trkpt lat="43.1" lon="-0.09876">
        <ele>371.6</ele>
        <time>2022-09-07T12:54:05Z</time>
      </trkpt>
      <trkpt lat="43.1001" lon="-0.09904">
        <ele>370.8</ele>
        <time>2022-09-07T12:54:10Z</time>
      </trkpt>
      <trkpt lat="43.10011" lon="-0.09907">
        <ele>370.6</ele>
        <time>2022-09-07T12:54:11Z</time>
      </trkpt>
      <trkpt lat="43.10012" lon="-0.09913">
        <ele>369.8</ele>
        <time>2022-09-07T12:54:14Z</time>
      </trkpt>
      <trkpt lat="43.10019" lon="-0.09935">
        <ele>369.6</ele>
        <time>2022-09-07T12:54:49Z</time>
      </trkpt>
      <trkpt lat="43.1002" lon="-0.09937">
        <ele>369.6</ele>
        <time>2022-09-07T12:54:50Z</time>
      </trkpt>
      <trkpt lat="43.10025" lon="-0.09944">
        <ele>369.4</ele>
        <time>2022-09-07T12:54:53Z</time>
      </trkpt>
      <trkpt lat="43.10029" lon="-0.09954">
        <ele>369.4</ele>
        <time>2022-09-07T12:54:57Z</time>
      </trkpt>
      <trkpt lat="43.10035" lon="-0.09964">
        <ele>369.8</ele>
        <time>2022-09-07T12:55:02Z</time>
      </trkpt>
      <trkpt lat="43.10044" lon="-0.09983">
        <ele>369.6</ele>
        <time>2022-09-07T12:55:08Z</time>
      </trkpt>
      <trkpt lat="43.1005" lon="-0.10001">
        <ele>369</ele>
        <time>2022-09-07T12:55:13Z</time>
      </trkpt>
      <trkpt lat="43.10057" lon="-0.10033">
        <ele>369</ele>
        <time>2022-09-07T12:55:21Z</time>
      </trkpt>
      <trkpt lat="43.10063" lon="-0.10053">
        <ele>368.8</ele>
        <time>2022-09-07T12:55:26Z</time>
      </trkpt>
      <trkpt lat="43.1007" lon="-0.10075">
        <ele>369</ele>
        <time>2022-09-07T12:55:31Z</time>
      </trkpt>
      <trkpt lat="43.10075" lon="-0.10103">
        <ele>369</ele>
        <time>2022-09-07T12:55:37Z</time>
      </trkpt>
      <trkpt lat="43.10077" lon="-0.10124">
        <ele>368.6</ele>
        <time>2022-09-07T12:55:42Z</time>
      </trkpt>
      <trkpt lat="43.10079" lon="-0.1013">
        <ele>368.4</ele>
        <time>2022-09-07T12:55:44Z</time>
      </trkpt>
      <trkpt lat="43.1008" lon="-0.10136">
        <ele>368.4</ele>
        <time>2022-09-07T12:55:46Z</time>
      </trkpt>
      <trkpt lat="43.10083" lon="-0.10146">
        <ele>368.8</ele>
        <time>2022-09-07T12:55:52Z</time>
      </trkpt>
      <trkpt lat="43.10085" lon="-0.10152">
        <ele>368.6</ele>
        <time>2022-09-07T12:55:54Z</time>
      </trkpt>
      <trkpt lat="43.10094" lon="-0.10168">
        <ele>368.6</ele>
        <time>2022-09-07T12:56:00Z</time>
      </trkpt>
      <trkpt lat="43.10099" lon="-0.10188">
        <ele>368.6</ele>
        <time>2022-09-07T12:56:05Z</time>
      </trkpt>
      <trkpt lat="43.10102" lon="-0.10205">
        <ele>368.6</ele>
        <time>2022-09-07T12:56:10Z</time>
      </trkpt>
      <trkpt lat="43.10105" lon="-0.10227">
        <ele>368.6</ele>
        <time>2022-09-07T12:56:15Z</time>
      </trkpt>
      <trkpt lat="43.10109" lon="-0.10249">
        <ele>368.6</ele>
        <time>2022-09-07T12:56:20Z</time>
      </trkpt>
      <trkpt lat="43.10112" lon="-0.1027">
        <ele>368.6</ele>
        <time>2022-09-07T12:56:25Z</time>
      </trkpt>
      <trkpt lat="43.10117" lon="-0.10295">
        <ele>369.2</ele>
        <time>2022-09-07T12:56:32Z</time>
      </trkpt>
      <trkpt lat="43.10118" lon="-0.10299">
        <ele>369.2</ele>
        <time>2022-09-07T12:56:33Z</time>
      </trkpt>
      <trkpt lat="43.10118" lon="-0.10307">
        <ele>369.4</ele>
        <time>2022-09-07T12:56:35Z</time>
      </trkpt>
      <trkpt lat="43.10118" lon="-0.10313">
        <ele>370.2</ele>
        <time>2022-09-07T12:56:37Z</time>
      </trkpt>
      <trkpt lat="43.10117" lon="-0.10321">
        <ele>370.4</ele>
        <time>2022-09-07T12:56:40Z</time>
      </trkpt>
      <trkpt lat="43.10117" lon="-0.10323">
        <ele>370.6</ele>
        <time>2022-09-07T12:56:41Z</time>
      </trkpt>
      <trkpt lat="43.10118" lon="-0.10328">
        <ele>370.8</ele>
        <time>2022-09-07T12:56:43Z</time>
      </trkpt>
      <trkpt lat="43.10118" lon="-0.10331">
        <ele>371</ele>
        <time>2022-09-07T12:56:44Z</time>
      </trkpt>
      <trkpt lat="43.10119" lon="-0.10341">
        <ele>371.6</ele>
        <time>2022-09-07T12:56:48Z</time>
      </trkpt>
      <trkpt lat="43.10122" lon="-0.10353">
        <ele>372.6</ele>
        <time>2022-09-07T12:56:52Z</time>
      </trkpt>
      <trkpt lat="43.10122" lon="-0.10356">
        <ele>372.8</ele>
        <time>2022-09-07T12:56:53Z</time>
      </trkpt>
      <trkpt lat="43.10121" lon="-0.10365">
        <ele>374</ele>
        <time>2022-09-07T12:56:57Z</time>
      </trkpt>
      <trkpt lat="43.10121" lon="-0.1037">
        <ele>375</ele>
        <time>2022-09-07T12:57:00Z</time>
      </trkpt>
      <trkpt lat="43.10121" lon="-0.10371">
        <ele>375.2</ele>
        <time>2022-09-07T12:57:01Z</time>
      </trkpt>
      <trkpt lat="43.10121" lon="-0.10371">
        <ele>375.4</ele>
        <time>2022-09-07T12:57:02Z</time>
      </trkpt>
      <trkpt lat="43.10126" lon="-0.10463">
        <ele>386.8</ele>
        <time>2022-09-07T12:59:36Z</time>
      </trkpt>
      <trkpt lat="43.10127" lon="-0.10469">
        <ele>386.6</ele>
        <time>2022-09-07T12:59:38Z</time>
      </trkpt>
      <trkpt lat="43.1013" lon="-0.10482">
        <ele>386.2</ele>
        <time>2022-09-07T12:59:44Z</time>
      </trkpt>
      <trkpt lat="43.1013" lon="-0.10484">
        <ele>386.2</ele>
        <time>2022-09-07T12:59:45Z</time>
      </trkpt>
      <trkpt lat="43.10131" lon="-0.10495">
        <ele>386</ele>
        <time>2022-09-07T12:59:49Z</time>
      </trkpt>
      <trkpt lat="43.10132" lon="-0.10505">
        <ele>386</ele>
        <time>2022-09-07T12:59:52Z</time>
      </trkpt>
      <trkpt lat="43.10135" lon="-0.10522">
        <ele>385.8</ele>
        <time>2022-09-07T12:59:57Z</time>
      </trkpt>
      <trkpt lat="43.10138" lon="-0.10544">
        <ele>386.2</ele>
        <time>2022-09-07T13:01:02Z</time>
      </trkpt>
      <trkpt lat="43.10141" lon="-0.10561">
        <ele>386.4</ele>
        <time>2022-09-07T13:01:06Z</time>
      </trkpt>
      <trkpt lat="43.10146" lon="-0.1058">
        <ele>385.8</ele>
        <time>2022-09-07T13:01:10Z</time>
      </trkpt>
      <trkpt lat="43.10148" lon="-0.10585">
        <ele>385.6</ele>
        <time>2022-09-07T13:01:11Z</time>
      </trkpt>
      <trkpt lat="43.10158" lon="-0.10616">
        <ele>385.4</ele>
        <time>2022-09-07T13:01:18Z</time>
      </trkpt>
      <trkpt lat="43.10162" lon="-0.10645">
        <ele>385.4</ele>
        <time>2022-09-07T13:01:23Z</time>
      </trkpt>
      <trkpt lat="43.10166" lon="-0.10683">
        <ele>384.8</ele>
        <time>2022-09-07T13:01:29Z</time>
      </trkpt>
      <trkpt lat="43.10168" lon="-0.10696">
        <ele>384.6</ele>
        <time>2022-09-07T13:01:31Z</time>
      </trkpt>
      <trkpt lat="43.10175" lon="-0.10726">
        <ele>384</ele>
        <time>2022-09-07T13:01:36Z</time>
      </trkpt>
      <trkpt lat="43.10177" lon="-0.10733">
        <ele>383.6</ele>
        <time>2022-09-07T13:01:37Z</time>
      </trkpt>
      <trkpt lat="43.10185" lon="-0.10775">
        <ele>383.2</ele>
        <time>2022-09-07T13:01:43Z</time>
      </trkpt>
      <trkpt lat="43.10192" lon="-0.1081">
        <ele>382.6</ele>
        <time>2022-09-07T13:01:48Z</time>
      </trkpt>
      <trkpt lat="43.10195" lon="-0.10823">
        <ele>382</ele>
        <time>2022-09-07T13:01:50Z</time>
      </trkpt>
      <trkpt lat="43.10204" lon="-0.10878">
        <ele>381.8</ele>
        <time>2022-09-07T13:01:58Z</time>
      </trkpt>
      <trkpt lat="43.10206" lon="-0.10908">
        <ele>381.2</ele>
        <time>2022-09-07T13:02:02Z</time>
      </trkpt>
      <trkpt lat="43.10209" lon="-0.10932">
        <ele>380.2</ele>
        <time>2022-09-07T13:02:05Z</time>
      </trkpt>
      <trkpt lat="43.10211" lon="-0.10948">
        <ele>380</ele>
        <time>2022-09-07T13:02:07Z</time>
      </trkpt>
      <trkpt lat="43.10218" lon="-0.10979">
        <ele>380</ele>
        <time>2022-09-07T13:02:11Z</time>
      </trkpt>
      <trkpt lat="43.10223" lon="-0.10995">
        <ele>379</ele>
        <time>2022-09-07T13:02:13Z</time>
      </trkpt>
      <trkpt lat="43.10228" lon="-0.11021">
        <ele>377.8</ele>
        <time>2022-09-07T13:02:16Z</time>
      </trkpt>
      <trkpt lat="43.1023" lon="-0.1103">
        <ele>377.2</ele>
        <time>2022-09-07T13:02:17Z</time>
      </trkpt>
      <trkpt lat="43.10234" lon="-0.11048">
        <ele>376.6</ele>
        <time>2022-09-07T13:02:19Z</time>
      </trkpt>
      <trkpt lat="43.10242" lon="-0.11084">
        <ele>376</ele>
        <time>2022-09-07T13:02:23Z</time>
      </trkpt>
      <trkpt lat="43.10248" lon="-0.11111">
        <ele>375.4</ele>
        <time>2022-09-07T13:02:26Z</time>
      </trkpt>
      <trkpt lat="43.10253" lon="-0.11139">
        <ele>374.2</ele>
        <time>2022-09-07T13:02:29Z</time>
      </trkpt>
      <trkpt lat="43.10255" lon="-0.11148">
        <ele>373.6</ele>
        <time>2022-09-07T13:02:30Z</time>
      </trkpt>
      <trkpt lat="43.10258" lon="-0.11166">
        <ele>373</ele>
        <time>2022-09-07T13:02:32Z</time>
      </trkpt>
      <trkpt lat="43.10258" lon="-0.11175">
        <ele>372.6</ele>
        <time>2022-09-07T13:02:33Z</time>
      </trkpt>
      <trkpt lat="43.10258" lon="-0.11185">
        <ele>372.4</ele>
        <time>2022-09-07T13:02:34Z</time>
      </trkpt>
      <trkpt lat="43.10257" lon="-0.11213">
        <ele>371.6</ele>
        <time>2022-09-07T13:02:37Z</time>
      </trkpt>
      <trkpt lat="43.10254" lon="-0.11248">
        <ele>371.2</ele>
        <time>2022-09-07T13:02:41Z</time>
      </trkpt>
      <trkpt lat="43.10251" lon="-0.11288">
        <ele>371</ele>
        <time>2022-09-07T13:02:46Z</time>
      </trkpt>
      <trkpt lat="43.10252" lon="-0.11311">
        <ele>370.6</ele>
        <time>2022-09-07T13:02:49Z</time>
      </trkpt>
      <trkpt lat="43.10254" lon="-0.11326">
        <ele>370.4</ele>
        <time>2022-09-07T13:02:51Z</time>
      </trkpt>
      <trkpt lat="43.10256" lon="-0.1135">
        <ele>369.2</ele>
        <time>2022-09-07T13:02:54Z</time>
      </trkpt>
      <trkpt lat="43.10257" lon="-0.11359">
        <ele>369.2</ele>
        <time>2022-09-07T13:02:55Z</time>
      </trkpt>
      <trkpt lat="43.1026" lon="-0.11376">
        <ele>368.8</ele>
        <time>2022-09-07T13:02:57Z</time>
      </trkpt>
      <trkpt lat="43.10261" lon="-0.11385">
        <ele>368.2</ele>
        <time>2022-09-07T13:02:58Z</time>
      </trkpt>
      <trkpt lat="43.10262" lon="-0.11412">
        <ele>366.6</ele>
        <time>2022-09-07T13:03:01Z</time>
      </trkpt>
      <trkpt lat="43.10261" lon="-0.11432">
        <ele>366.8</ele>
        <time>2022-09-07T13:03:03Z</time>
      </trkpt>
      <trkpt lat="43.10259" lon="-0.11467">
        <ele>366.6</ele>
        <time>2022-09-07T13:03:07Z</time>
      </trkpt>
      <trkpt lat="43.10258" lon="-0.11474">
        <ele>366.6</ele>
        <time>2022-09-07T13:03:08Z</time>
      </trkpt>
      <trkpt lat="43.10255" lon="-0.11491">
        <ele>366.4</ele>
        <time>2022-09-07T13:03:10Z</time>
      </trkpt>
      <trkpt lat="43.10251" lon="-0.11516">
        <ele>366.4</ele>
        <time>2022-09-07T13:03:13Z</time>
      </trkpt>
      <trkpt lat="43.10249" lon="-0.11525">
        <ele>366.4</ele>
        <time>2022-09-07T13:03:14Z</time>
      </trkpt>
      <trkpt lat="43.10246" lon="-0.11547">
        <ele>365.4</ele>
        <time>2022-09-07T13:03:17Z</time>
      </trkpt>
      <trkpt lat="43.10245" lon="-0.11554">
        <ele>365.8</ele>
        <time>2022-09-07T13:03:18Z</time>
      </trkpt>
      <trkpt lat="43.10241" lon="-0.11576">
        <ele>365.4</ele>
        <time>2022-09-07T13:03:21Z</time>
      </trkpt>
      <trkpt lat="43.10238" lon="-0.11593">
        <ele>365.2</ele>
        <time>2022-09-07T13:03:24Z</time>
      </trkpt>
      <trkpt lat="43.10234" lon="-0.11615">
        <ele>364.4</ele>
        <time>2022-09-07T13:03:27Z</time>
      </trkpt>
      <trkpt lat="43.10232" lon="-0.11628">
        <ele>364.8</ele>
        <time>2022-09-07T13:03:29Z</time>
      </trkpt>
      <trkpt lat="43.10231" lon="-0.11633">
        <ele>365</ele>
        <time>2022-09-07T13:03:30Z</time>
      </trkpt>
      <trkpt lat="43.10227" lon="-0.11655">
        <ele>364.6</ele>
        <time>2022-09-07T13:03:34Z</time>
      </trkpt>
      <trkpt lat="43.10221" lon="-0.11687">
        <ele>363.8</ele>
        <time>2022-09-07T13:03:40Z</time>
      </trkpt>
      <trkpt lat="43.1022" lon="-0.11693">
        <ele>363.8</ele>
        <time>2022-09-07T13:03:41Z</time>
      </trkpt>
      <trkpt lat="43.10217" lon="-0.11713">
        <ele>364</ele>
        <time>2022-09-07T13:03:45Z</time>
      </trkpt>
      <trkpt lat="43.10213" lon="-0.11736">
        <ele>363.4</ele>
        <time>2022-09-07T13:03:50Z</time>
      </trkpt>
      <trkpt lat="43.10212" lon="-0.11741">
        <ele>363.2</ele>
        <time>2022-09-07T13:03:51Z</time>
      </trkpt>
      <trkpt lat="43.1021" lon="-0.11763">
        <ele>363.4</ele>
        <time>2022-09-07T13:03:56Z</time>
      </trkpt>
      <trkpt lat="43.1021" lon="-0.11791">
        <ele>363</ele>
        <time>2022-09-07T13:04:01Z</time>
      </trkpt>
      <trkpt lat="43.10209" lon="-0.11829">
        <ele>362.4</ele>
        <time>2022-09-07T13:04:07Z</time>
      </trkpt>
      <trkpt lat="43.10207" lon="-0.11842">
        <ele>362.4</ele>
        <time>2022-09-07T13:04:09Z</time>
      </trkpt>
      <trkpt lat="43.10202" lon="-0.1189">
        <ele>361.6</ele>
        <time>2022-09-07T13:04:16Z</time>
      </trkpt>
      <trkpt lat="43.10195" lon="-0.1192">
        <ele>361.4</ele>
        <time>2022-09-07T13:04:21Z</time>
      </trkpt>
      <trkpt lat="43.10192" lon="-0.11931">
        <ele>361.2</ele>
        <time>2022-09-07T13:04:23Z</time>
      </trkpt>
      <trkpt lat="43.1019" lon="-0.11936">
        <ele>361.2</ele>
        <time>2022-09-07T13:04:24Z</time>
      </trkpt>
      <trkpt lat="43.10182" lon="-0.11968">
        <ele>360.8</ele>
        <time>2022-09-07T13:04:30Z</time>
      </trkpt>
      <trkpt lat="43.10176" lon="-0.11983">
        <ele>360.8</ele>
        <time>2022-09-07T13:04:33Z</time>
      </trkpt>
      <trkpt lat="43.10171" lon="-0.11993">
        <ele>360.8</ele>
        <time>2022-09-07T13:04:35Z</time>
      </trkpt>
      <trkpt lat="43.1016" lon="-0.12011">
        <ele>360.8</ele>
        <time>2022-09-07T13:04:39Z</time>
      </trkpt>
      <trkpt lat="43.10154" lon="-0.1202">
        <ele>360.8</ele>
        <time>2022-09-07T13:04:41Z</time>
      </trkpt>
      <trkpt lat="43.10144" lon="-0.12037">
        <ele>360.4</ele>
        <time>2022-09-07T13:04:45Z</time>
      </trkpt>
      <trkpt lat="43.10141" lon="-0.12042">
        <ele>360.2</ele>
        <time>2022-09-07T13:04:46Z</time>
      </trkpt>
      <trkpt lat="43.10138" lon="-0.12047">
        <ele>360.2</ele>
        <time>2022-09-07T13:04:47Z</time>
      </trkpt>
      <trkpt lat="43.10126" lon="-0.12078">
        <ele>360.6</ele>
        <time>2022-09-07T13:04:53Z</time>
      </trkpt>
      <trkpt lat="43.10124" lon="-0.12088">
        <ele>360.4</ele>
        <time>2022-09-07T13:04:55Z</time>
      </trkpt>
      <trkpt lat="43.1012" lon="-0.12104">
        <ele>360.4</ele>
        <time>2022-09-07T13:04:58Z</time>
      </trkpt>
      <trkpt lat="43.10114" lon="-0.12131">
        <ele>360.8</ele>
        <time>2022-09-07T13:05:04Z</time>
      </trkpt>
      <trkpt lat="43.10113" lon="-0.12141">
        <ele>361.4</ele>
        <time>2022-09-07T13:05:07Z</time>
      </trkpt>
      <trkpt lat="43.10112" lon="-0.1215">
        <ele>361.8</ele>
        <time>2022-09-07T13:05:10Z</time>
      </trkpt>
      <trkpt lat="43.10112" lon="-0.12159">
        <ele>362.4</ele>
        <time>2022-09-07T13:05:14Z</time>
      </trkpt>
      <trkpt lat="43.1011" lon="-0.12163">
        <ele>362.6</ele>
        <time>2022-09-07T13:05:16Z</time>
      </trkpt>
      <trkpt lat="43.1011" lon="-0.12166">
        <ele>362.8</ele>
        <time>2022-09-07T13:05:18Z</time>
      </trkpt>
      <trkpt lat="43.1011" lon="-0.12173">
        <ele>363.2</ele>
        <time>2022-09-07T13:05:22Z</time>
      </trkpt>
      <trkpt lat="43.10109" lon="-0.12174">
        <ele>363.2</ele>
        <time>2022-09-07T13:05:23Z</time>
      </trkpt>
      <trkpt lat="43.10109" lon="-0.12176">
        <ele>363.4</ele>
        <time>2022-09-07T13:05:24Z</time>
      </trkpt>
      <trkpt lat="43.10109" lon="-0.12182">
        <ele>364</ele>
        <time>2022-09-07T13:05:27Z</time>
      </trkpt>
      <trkpt lat="43.10108" lon="-0.12183">
        <ele>364.2</ele>
        <time>2022-09-07T13:05:28Z</time>
      </trkpt>
      <trkpt lat="43.10106" lon="-0.12189">
        <ele>364.4</ele>
        <time>2022-09-07T13:05:31Z</time>
      </trkpt>
      <trkpt lat="43.10105" lon="-0.12193">
        <ele>364.6</ele>
        <time>2022-09-07T13:05:33Z</time>
      </trkpt>
      <trkpt lat="43.10103" lon="-0.12201">
        <ele>365.2</ele>
        <time>2022-09-07T13:05:37Z</time>
      </trkpt>
      <trkpt lat="43.10102" lon="-0.12204">
        <ele>365.4</ele>
        <time>2022-09-07T13:05:39Z</time>
      </trkpt>
      <trkpt lat="43.10102" lon="-0.12206">
        <ele>365.4</ele>
        <time>2022-09-07T13:05:40Z</time>
      </trkpt>
      <trkpt lat="43.101" lon="-0.1221">
        <ele>365.8</ele>
        <time>2022-09-07T13:05:42Z</time>
      </trkpt>
      <trkpt lat="43.10097" lon="-0.12217">
        <ele>366.4</ele>
        <time>2022-09-07T13:05:46Z</time>
      </trkpt>
      <trkpt lat="43.10097" lon="-0.12222">
        <ele>366.6</ele>
        <time>2022-09-07T13:05:48Z</time>
      </trkpt>
      <trkpt lat="43.10096" lon="-0.12228">
        <ele>366.8</ele>
        <time>2022-09-07T13:05:51Z</time>
      </trkpt>
      <trkpt lat="43.10096" lon="-0.12232">
        <ele>367.2</ele>
        <time>2022-09-07T13:05:53Z</time>
      </trkpt>
      <trkpt lat="43.10096" lon="-0.12242">
        <ele>367.6</ele>
        <time>2022-09-07T13:05:58Z</time>
      </trkpt>
      <trkpt lat="43.10096" lon="-0.12244">
        <ele>367.8</ele>
        <time>2022-09-07T13:05:59Z</time>
      </trkpt>
      <trkpt lat="43.10095" lon="-0.12254">
        <ele>368.2</ele>
        <time>2022-09-07T13:06:04Z</time>
      </trkpt>
      <trkpt lat="43.10094" lon="-0.12259">
        <ele>368.6</ele>
        <time>2022-09-07T13:06:07Z</time>
      </trkpt>
      <trkpt lat="43.10092" lon="-0.1227">
        <ele>369.2</ele>
        <time>2022-09-07T13:06:12Z</time>
      </trkpt>
      <trkpt lat="43.10092" lon="-0.12274">
        <ele>369.4</ele>
        <time>2022-09-07T13:06:14Z</time>
      </trkpt>
      <trkpt lat="43.10091" lon="-0.12284">
        <ele>369.6</ele>
        <time>2022-09-07T13:06:18Z</time>
      </trkpt>
      <trkpt lat="43.10088" lon="-0.12293">
        <ele>370</ele>
        <time>2022-09-07T13:06:22Z</time>
      </trkpt>
      <trkpt lat="43.10079" lon="-0.12318">
        <ele>370</ele>
        <time>2022-09-07T13:06:30Z</time>
      </trkpt>
      <trkpt lat="43.10067" lon="-0.12338">
        <ele>370.2</ele>
        <time>2022-09-07T13:06:36Z</time>
      </trkpt>
      <trkpt lat="43.10058" lon="-0.12354">
        <ele>370.6</ele>
        <time>2022-09-07T13:06:40Z</time>
      </trkpt>
      <trkpt lat="43.10054" lon="-0.12362">
        <ele>370.4</ele>
        <time>2022-09-07T13:06:42Z</time>
      </trkpt>
      <trkpt lat="43.10043" lon="-0.12384">
        <ele>370</ele>
        <time>2022-09-07T13:06:48Z</time>
      </trkpt>
      <trkpt lat="43.10037" lon="-0.12397">
        <ele>369.8</ele>
        <time>2022-09-07T13:06:51Z</time>
      </trkpt>
      <trkpt lat="43.10033" lon="-0.12407">
        <ele>369.6</ele>
        <time>2022-09-07T13:06:53Z</time>
      </trkpt>
      <trkpt lat="43.10027" lon="-0.12416">
        <ele>369.6</ele>
        <time>2022-09-07T13:06:55Z</time>
      </trkpt>
      <trkpt lat="43.10015" lon="-0.12433">
        <ele>369.2</ele>
        <time>2022-09-07T13:06:59Z</time>
      </trkpt>
      <trkpt lat="43.10001" lon="-0.12457">
        <ele>369.2</ele>
        <time>2022-09-07T13:07:04Z</time>
      </trkpt>
      <trkpt lat="43.09995" lon="-0.12466">
        <ele>369.2</ele>
        <time>2022-09-07T13:07:06Z</time>
      </trkpt>
      <trkpt lat="43.09985" lon="-0.12479">
        <ele>368.8</ele>
        <time>2022-09-07T13:07:09Z</time>
      </trkpt>
      <trkpt lat="43.09974" lon="-0.12487">
        <ele>369</ele>
        <time>2022-09-07T13:07:12Z</time>
      </trkpt>
      <trkpt lat="43.09945" lon="-0.1251">
        <ele>369.2</ele>
        <time>2022-09-07T13:07:20Z</time>
      </trkpt>
      <trkpt lat="43.09932" lon="-0.12522">
        <ele>368.6</ele>
        <time>2022-09-07T13:07:24Z</time>
      </trkpt>
      <trkpt lat="43.09925" lon="-0.12527">
        <ele>368.6</ele>
        <time>2022-09-07T13:07:26Z</time>
      </trkpt>
      <trkpt lat="43.09909" lon="-0.12542">
        <ele>368.2</ele>
        <time>2022-09-07T13:07:31Z</time>
      </trkpt>
      <trkpt lat="43.09901" lon="-0.12546">
        <ele>368.2</ele>
        <time>2022-09-07T13:07:33Z</time>
      </trkpt>
      <trkpt lat="43.09891" lon="-0.12554">
        <ele>368.2</ele>
        <time>2022-09-07T13:07:36Z</time>
      </trkpt>
      <trkpt lat="43.09887" lon="-0.12556">
        <ele>368</ele>
        <time>2022-09-07T13:07:37Z</time>
      </trkpt>
      <trkpt lat="43.09859" lon="-0.12575">
        <ele>368.4</ele>
        <time>2022-09-07T13:07:45Z</time>
      </trkpt>
      <trkpt lat="43.09844" lon="-0.12584">
        <ele>368.6</ele>
        <time>2022-09-07T13:07:50Z</time>
      </trkpt>
      <trkpt lat="43.09826" lon="-0.12598">
        <ele>368.8</ele>
        <time>2022-09-07T13:07:56Z</time>
      </trkpt>
      <trkpt lat="43.09817" lon="-0.12621">
        <ele>369.4</ele>
        <time>2022-09-07T13:08:02Z</time>
      </trkpt>
      <trkpt lat="43.09815" lon="-0.12624">
        <ele>369.6</ele>
        <time>2022-09-07T13:08:03Z</time>
      </trkpt>
      <trkpt lat="43.09812" lon="-0.12634">
        <ele>370.8</ele>
        <time>2022-09-07T13:08:07Z</time>
      </trkpt>
      <trkpt lat="43.09811" lon="-0.12636">
        <ele>371</ele>
        <time>2022-09-07T13:08:08Z</time>
      </trkpt>
      <trkpt lat="43.09808" lon="-0.12647">
        <ele>372.2</ele>
        <time>2022-09-07T13:08:13Z</time>
      </trkpt>
      <trkpt lat="43.09807" lon="-0.1265">
        <ele>372.2</ele>
        <time>2022-09-07T13:08:16Z</time>
      </trkpt>
      <trkpt lat="43.09804" lon="-0.1266">
        <ele>372.2</ele>
        <time>2022-09-07T13:11:38Z</time>
      </trkpt>
      <trkpt lat="43.09803" lon="-0.12664">
        <ele>372</ele>
        <time>2022-09-07T13:11:39Z</time>
      </trkpt>
      <trkpt lat="43.09799" lon="-0.12686">
        <ele>371</ele>
        <time>2022-09-07T13:11:44Z</time>
      </trkpt>
      <trkpt lat="43.09796" lon="-0.12696">
        <ele>370.6</ele>
        <time>2022-09-07T13:11:46Z</time>
      </trkpt>
      <trkpt lat="43.09794" lon="-0.12706">
        <ele>369.8</ele>
        <time>2022-09-07T13:11:48Z</time>
      </trkpt>
      <trkpt lat="43.09793" lon="-0.12722">
        <ele>369</ele>
        <time>2022-09-07T13:11:51Z</time>
      </trkpt>
      <trkpt lat="43.09793" lon="-0.12729">
        <ele>368.8</ele>
        <time>2022-09-07T13:11:52Z</time>
      </trkpt>
      <trkpt lat="43.09793" lon="-0.12735">
        <ele>368.6</ele>
        <time>2022-09-07T13:11:53Z</time>
      </trkpt>
      <trkpt lat="43.09798" lon="-0.12767">
        <ele>368.8</ele>
        <time>2022-09-07T13:11:59Z</time>
      </trkpt>
      <trkpt lat="43.09798" lon="-0.12787">
        <ele>369</ele>
        <time>2022-09-07T13:12:04Z</time>
      </trkpt>
      <trkpt lat="43.09787" lon="-0.12807">
        <ele>369.4</ele>
        <time>2022-09-07T13:12:10Z</time>
      </trkpt>
      <trkpt lat="43.09781" lon="-0.12814">
        <ele>370</ele>
        <time>2022-09-07T13:12:13Z</time>
      </trkpt>
      <trkpt lat="43.09775" lon="-0.12823">
        <ele>370</ele>
        <time>2022-09-07T13:12:17Z</time>
      </trkpt>
      <trkpt lat="43.09779" lon="-0.12834">
        <ele>370.4</ele>
        <time>2022-09-07T13:12:21Z</time>
      </trkpt>
      <trkpt lat="43.09781" lon="-0.12836">
        <ele>370.4</ele>
        <time>2022-09-07T13:12:22Z</time>
      </trkpt>
      <trkpt lat="43.09791" lon="-0.12853">
        <ele>371</ele>
        <time>2022-09-07T13:12:28Z</time>
      </trkpt>
      <trkpt lat="43.09792" lon="-0.12859">
        <ele>371.4</ele>
        <time>2022-09-07T13:12:30Z</time>
      </trkpt>
      <trkpt lat="43.09794" lon="-0.12872">
        <ele>372</ele>
        <time>2022-09-07T13:12:35Z</time>
      </trkpt>
      <trkpt lat="43.09794" lon="-0.12874">
        <ele>372.2</ele>
        <time>2022-09-07T13:12:36Z</time>
      </trkpt>
      <trkpt lat="43.09794" lon="-0.12887">
        <ele>373.2</ele>
        <time>2022-09-07T13:12:41Z</time>
      </trkpt>
      <trkpt lat="43.09794" lon="-0.12896">
        <ele>373.4</ele>
        <time>2022-09-07T13:12:45Z</time>
      </trkpt>
      <trkpt lat="43.09793" lon="-0.1291">
        <ele>374.2</ele>
        <time>2022-09-07T13:12:51Z</time>
      </trkpt>
      <trkpt lat="43.09793" lon="-0.12912">
        <ele>374.2</ele>
        <time>2022-09-07T13:12:52Z</time>
      </trkpt>
      <trkpt lat="43.09795" lon="-0.12931">
        <ele>374.8</ele>
        <time>2022-09-07T13:13:00Z</time>
      </trkpt>
      <trkpt lat="43.09795" lon="-0.12934">
        <ele>375.2</ele>
        <time>2022-09-07T13:13:01Z</time>
      </trkpt>
      <trkpt lat="43.09795" lon="-0.12952">
        <ele>375.6</ele>
        <time>2022-09-07T13:13:08Z</time>
      </trkpt>
      <trkpt lat="43.09795" lon="-0.12971">
        <ele>376.2</ele>
        <time>2022-09-07T13:13:15Z</time>
      </trkpt>
      <trkpt lat="43.09795" lon="-0.12974">
        <ele>376.2</ele>
        <time>2022-09-07T13:13:16Z</time>
      </trkpt>
      <trkpt lat="43.09795" lon="-0.12996">
        <ele>376</ele>
        <time>2022-09-07T13:13:22Z</time>
      </trkpt>
      <trkpt lat="43.09802" lon="-0.13028">
        <ele>375.4</ele>
        <time>2022-09-07T13:13:29Z</time>
      </trkpt>
      <trkpt lat="43.09813" lon="-0.13054">
        <ele>375.2</ele>
        <time>2022-09-07T13:13:35Z</time>
      </trkpt>
      <trkpt lat="43.09817" lon="-0.13065">
        <ele>375.2</ele>
        <time>2022-09-07T13:13:37Z</time>
      </trkpt>
      <trkpt lat="43.09826" lon="-0.13088">
        <ele>374.2</ele>
        <time>2022-09-07T13:13:41Z</time>
      </trkpt>
      <trkpt lat="43.09833" lon="-0.13108">
        <ele>373.6</ele>
        <time>2022-09-07T13:13:44Z</time>
      </trkpt>
      <trkpt lat="43.09836" lon="-0.13114">
        <ele>373.6</ele>
        <time>2022-09-07T13:13:45Z</time>
      </trkpt>
      <trkpt lat="43.09847" lon="-0.13132">
        <ele>373.2</ele>
        <time>2022-09-07T13:13:48Z</time>
      </trkpt>
      <trkpt lat="43.09855" lon="-0.13147">
        <ele>372</ele>
        <time>2022-09-07T13:13:50Z</time>
      </trkpt>
      <trkpt lat="43.09873" lon="-0.1318">
        <ele>370.6</ele>
        <time>2022-09-07T13:13:54Z</time>
      </trkpt>
      <trkpt lat="43.09879" lon="-0.13189">
        <ele>370</ele>
        <time>2022-09-07T13:13:55Z</time>
      </trkpt>
      <trkpt lat="43.0989" lon="-0.13206">
        <ele>369.4</ele>
        <time>2022-09-07T13:13:57Z</time>
      </trkpt>
      <trkpt lat="43.09909" lon="-0.13229">
        <ele>367.8</ele>
        <time>2022-09-07T13:14:00Z</time>
      </trkpt>
      <trkpt lat="43.09921" lon="-0.13246">
        <ele>366.6</ele>
        <time>2022-09-07T13:14:02Z</time>
      </trkpt>
      <trkpt lat="43.09926" lon="-0.13255">
        <ele>366.4</ele>
        <time>2022-09-07T13:14:03Z</time>
      </trkpt>
      <trkpt lat="43.09936" lon="-0.13275">
        <ele>365.4</ele>
        <time>2022-09-07T13:14:05Z</time>
      </trkpt>
      <trkpt lat="43.09956" lon="-0.13319">
        <ele>364.6</ele>
        <time>2022-09-07T13:14:10Z</time>
      </trkpt>
      <trkpt lat="43.09958" lon="-0.13328">
        <ele>364.4</ele>
        <time>2022-09-07T13:14:11Z</time>
      </trkpt>
      <trkpt lat="43.09963" lon="-0.1335">
        <ele>364.8</ele>
        <time>2022-09-07T13:14:14Z</time>
      </trkpt>
      <trkpt lat="43.09969" lon="-0.13375">
        <ele>365.6</ele>
        <time>2022-09-07T13:14:19Z</time>
      </trkpt>
      <trkpt lat="43.09978" lon="-0.13407">
        <ele>366</ele>
        <time>2022-09-07T13:14:26Z</time>
      </trkpt>
      <trkpt lat="43.09984" lon="-0.13424">
        <ele>366.6</ele>
        <time>2022-09-07T13:14:30Z</time>
      </trkpt>
      <trkpt lat="43.09989" lon="-0.13436">
        <ele>366.6</ele>
        <time>2022-09-07T13:14:33Z</time>
      </trkpt>
      <trkpt lat="43.10004" lon="-0.13467">
        <ele>366.4</ele>
        <time>2022-09-07T13:14:40Z</time>
      </trkpt>
      <trkpt lat="43.10008" lon="-0.13482">
        <ele>367</ele>
        <time>2022-09-07T13:14:43Z</time>
      </trkpt>
      <trkpt lat="43.1001" lon="-0.13498">
        <ele>366.6</ele>
        <time>2022-09-07T13:14:46Z</time>
      </trkpt>
      <trkpt lat="43.10009" lon="-0.13534">
        <ele>367</ele>
        <time>2022-09-07T13:14:53Z</time>
      </trkpt>
      <trkpt lat="43.10004" lon="-0.13551">
        <ele>367.8</ele>
        <time>2022-09-07T13:14:57Z</time>
      </trkpt>
      <trkpt lat="43.1" lon="-0.13558">
        <ele>368</ele>
        <time>2022-09-07T13:14:59Z</time>
      </trkpt>
      <trkpt lat="43.09991" lon="-0.13587">
        <ele>368</ele>
        <time>2022-09-07T13:15:07Z</time>
      </trkpt>
      <trkpt lat="43.09982" lon="-0.13622">
        <ele>368.2</ele>
        <time>2022-09-07T13:15:15Z</time>
      </trkpt>
      <trkpt lat="43.09973" lon="-0.13662">
        <ele>367.8</ele>
        <time>2022-09-07T13:15:23Z</time>
      </trkpt>
      <trkpt lat="43.09963" lon="-0.13705">
        <ele>367.6</ele>
        <time>2022-09-07T13:15:31Z</time>
      </trkpt>
      <trkpt lat="43.09962" lon="-0.1371">
        <ele>367.6</ele>
        <time>2022-09-07T13:15:32Z</time>
      </trkpt>
      <trkpt lat="43.09959" lon="-0.13734">
        <ele>367</ele>
        <time>2022-09-07T13:15:36Z</time>
      </trkpt>
      <trkpt lat="43.09952" lon="-0.13785">
        <ele>366.6</ele>
        <time>2022-09-07T13:15:44Z</time>
      </trkpt>
      <trkpt lat="43.09951" lon="-0.13791">
        <ele>366.6</ele>
        <time>2022-09-07T13:15:45Z</time>
      </trkpt>
      <trkpt lat="43.09949" lon="-0.1382">
        <ele>366.6</ele>
        <time>2022-09-07T13:15:50Z</time>
      </trkpt>
      <trkpt lat="43.0995" lon="-0.13825">
        <ele>366.4</ele>
        <time>2022-09-07T13:15:51Z</time>
      </trkpt>
      <trkpt lat="43.09958" lon="-0.13835">
        <ele>366.4</ele>
        <time>2022-09-07T13:15:54Z</time>
      </trkpt>
      <trkpt lat="43.0997" lon="-0.13839">
        <ele>366.6</ele>
        <time>2022-09-07T13:15:57Z</time>
      </trkpt>
      <trkpt lat="43.09979" lon="-0.1384">
        <ele>366.4</ele>
        <time>2022-09-07T13:15:59Z</time>
      </trkpt>
      <trkpt lat="43.10008" lon="-0.13842">
        <ele>367.4</ele>
        <time>2022-09-07T13:16:07Z</time>
      </trkpt>
      <trkpt lat="43.10015" lon="-0.13845">
        <ele>368</ele>
        <time>2022-09-07T13:16:09Z</time>
      </trkpt>
      <trkpt lat="43.10023" lon="-0.13855">
        <ele>368</ele>
        <time>2022-09-07T13:16:12Z</time>
      </trkpt>
      <trkpt lat="43.10026" lon="-0.13878">
        <ele>367.8</ele>
        <time>2022-09-07T13:16:17Z</time>
      </trkpt>
      <trkpt lat="43.10022" lon="-0.13907">
        <ele>367.6</ele>
        <time>2022-09-07T13:16:23Z</time>
      </trkpt>
      <trkpt lat="43.10022" lon="-0.13948">
        <ele>367.2</ele>
        <time>2022-09-07T13:16:31Z</time>
      </trkpt>
      <trkpt lat="43.10021" lon="-0.13979">
        <ele>367</ele>
        <time>2022-09-07T13:16:37Z</time>
      </trkpt>
      <trkpt lat="43.10021" lon="-0.13984">
        <ele>366.8</ele>
        <time>2022-09-07T13:16:38Z</time>
      </trkpt>
      <trkpt lat="43.10024" lon="-0.13999">
        <ele>366.4</ele>
        <time>2022-09-07T13:16:42Z</time>
      </trkpt>
      <trkpt lat="43.10024" lon="-0.14008">
        <ele>365.6</ele>
        <time>2022-09-07T13:17:19Z</time>
      </trkpt>
      <trkpt lat="43.10024" lon="-0.14015">
        <ele>365.6</ele>
        <time>2022-09-07T13:17:21Z</time>
      </trkpt>
      <trkpt lat="43.10024" lon="-0.14023">
        <ele>365.4</ele>
        <time>2022-09-07T13:17:23Z</time>
      </trkpt>
      <trkpt lat="43.10024" lon="-0.1404">
        <ele>365.4</ele>
        <time>2022-09-07T13:17:27Z</time>
      </trkpt>
      <trkpt lat="43.10028" lon="-0.14063">
        <ele>365</ele>
        <time>2022-09-07T13:17:33Z</time>
      </trkpt>
      <trkpt lat="43.1003" lon="-0.14069">
        <ele>365</ele>
        <time>2022-09-07T13:17:36Z</time>
      </trkpt>
      <trkpt lat="43.10028" lon="-0.14071">
        <ele>364.8</ele>
        <time>2022-09-07T13:17:38Z</time>
      </trkpt>
      <trkpt lat="43.10024" lon="-0.14062">
        <ele>364.6</ele>
        <time>2022-09-07T13:19:45Z</time>
      </trkpt>
      <trkpt lat="43.10023" lon="-0.14058">
        <ele>364.6</ele>
        <time>2022-09-07T13:19:46Z</time>
      </trkpt>
      <trkpt lat="43.10019" lon="-0.14042">
        <ele>363.4</ele>
        <time>2022-09-07T13:19:49Z</time>
      </trkpt>
      <trkpt lat="43.10018" lon="-0.14037">
        <ele>362.6</ele>
        <time>2022-09-07T13:19:50Z</time>
      </trkpt>
      <trkpt lat="43.10016" lon="-0.14033">
        <ele>361.2</ele>
        <time>2022-09-07T13:19:51Z</time>
      </trkpt>
      <trkpt lat="43.10009" lon="-0.14027">
        <ele>360</ele>
        <time>2022-09-07T13:19:53Z</time>
      </trkpt>
      <trkpt lat="43.1" lon="-0.1403">
        <ele>359</ele>
        <time>2022-09-07T13:19:55Z</time>
      </trkpt>
      <trkpt lat="43.09996" lon="-0.14033">
        <ele>358.8</ele>
        <time>2022-09-07T13:19:56Z</time>
      </trkpt>
      <trkpt lat="43.09988" lon="-0.14043">
        <ele>358.6</ele>
        <time>2022-09-07T13:19:59Z</time>
      </trkpt>
      <trkpt lat="43.09986" lon="-0.14047">
        <ele>358.4</ele>
        <time>2022-09-07T13:20:00Z</time>
      </trkpt>
      <trkpt lat="43.09986" lon="-0.14051">
        <ele>358.2</ele>
        <time>2022-09-07T13:20:01Z</time>
      </trkpt>
      <trkpt lat="43.09987" lon="-0.14054">
        <ele>358</ele>
        <time>2022-09-07T13:20:02Z</time>
      </trkpt>
      <trkpt lat="43.09987" lon="-0.1406">
        <ele>358.2</ele>
        <time>2022-09-07T13:20:04Z</time>
      </trkpt>
      <trkpt lat="43.09985" lon="-0.14068">
        <ele>359</ele>
        <time>2022-09-07T13:20:07Z</time>
      </trkpt>
      <trkpt lat="43.09985" lon="-0.14074">
        <ele>359.8</ele>
        <time>2022-09-07T13:20:10Z</time>
      </trkpt>
      <trkpt lat="43.09984" lon="-0.14077">
        <ele>360.2</ele>
        <time>2022-09-07T13:20:11Z</time>
      </trkpt>
      <trkpt lat="43.09951" lon="-0.14119">
        <ele>364.4</ele>
        <time>2022-09-07T13:20:40Z</time>
      </trkpt>
      <trkpt lat="43.09948" lon="-0.14127">
        <ele>364.4</ele>
        <time>2022-09-07T13:20:43Z</time>
      </trkpt>
      <trkpt lat="43.09945" lon="-0.1414">
        <ele>364.8</ele>
        <time>2022-09-07T13:20:49Z</time>
      </trkpt>
      <trkpt lat="43.09945" lon="-0.14142">
        <ele>365</ele>
        <time>2022-09-07T13:20:50Z</time>
      </trkpt>
      <trkpt lat="43.09944" lon="-0.14152">
        <ele>365.4</ele>
        <time>2022-09-07T13:20:54Z</time>
      </trkpt>
      <trkpt lat="43.09942" lon="-0.14155">
        <ele>365.6</ele>
        <time>2022-09-07T13:20:55Z</time>
      </trkpt>
      <trkpt lat="43.09942" lon="-0.14158">
        <ele>365.6</ele>
        <time>2022-09-07T13:20:56Z</time>
      </trkpt>
      <trkpt lat="43.09938" lon="-0.14175">
        <ele>366.4</ele>
        <time>2022-09-07T13:21:02Z</time>
      </trkpt>
      <trkpt lat="43.09937" lon="-0.1418">
        <ele>366.8</ele>
        <time>2022-09-07T13:21:04Z</time>
      </trkpt>
      <trkpt lat="43.09933" lon="-0.14193">
        <ele>367.6</ele>
        <time>2022-09-07T13:21:09Z</time>
      </trkpt>
      <trkpt lat="43.09932" lon="-0.14195">
        <ele>367.6</ele>
        <time>2022-09-07T13:21:10Z</time>
      </trkpt>
      <trkpt lat="43.09928" lon="-0.14208">
        <ele>368.6</ele>
        <time>2022-09-07T13:21:15Z</time>
      </trkpt>
      <trkpt lat="43.09928" lon="-0.14207">
        <ele>368.8</ele>
        <time>2022-09-07T13:21:16Z</time>
      </trkpt>
      <trkpt lat="43.09905" lon="-0.14272">
        <ele>372.8</ele>
        <time>2022-09-07T13:21:47Z</time>
      </trkpt>
      <trkpt lat="43.09904" lon="-0.14276">
        <ele>373</ele>
        <time>2022-09-07T13:21:49Z</time>
      </trkpt>
      <trkpt lat="43.09903" lon="-0.14287">
        <ele>373.8</ele>
        <time>2022-09-07T13:21:54Z</time>
      </trkpt>
      <trkpt lat="43.09902" lon="-0.14288">
        <ele>373.8</ele>
        <time>2022-09-07T13:21:55Z</time>
      </trkpt>
      <trkpt lat="43.09901" lon="-0.14291">
        <ele>374</ele>
        <time>2022-09-07T13:21:56Z</time>
      </trkpt>
      <trkpt lat="43.099" lon="-0.14295">
        <ele>374.2</ele>
        <time>2022-09-07T13:21:58Z</time>
      </trkpt>
      <trkpt lat="43.09899" lon="-0.14303">
        <ele>375</ele>
        <time>2022-09-07T13:22:02Z</time>
      </trkpt>
      <trkpt lat="43.09897" lon="-0.14313">
        <ele>375.6</ele>
        <time>2022-09-07T13:22:07Z</time>
      </trkpt>
      <trkpt lat="43.09896" lon="-0.14315">
        <ele>375.8</ele>
        <time>2022-09-07T13:22:08Z</time>
      </trkpt>
      <trkpt lat="43.09896" lon="-0.14317">
        <ele>376</ele>
        <time>2022-09-07T13:22:09Z</time>
      </trkpt>
      <trkpt lat="43.09895" lon="-0.14324">
        <ele>376.2</ele>
        <time>2022-09-07T13:22:12Z</time>
      </trkpt>
      <trkpt lat="43.09894" lon="-0.14326">
        <ele>376.4</ele>
        <time>2022-09-07T13:22:13Z</time>
      </trkpt>
      <trkpt lat="43.09892" lon="-0.14335">
        <ele>377</ele>
        <time>2022-09-07T13:22:17Z</time>
      </trkpt>
      <trkpt lat="43.09892" lon="-0.14338">
        <ele>377.2</ele>
        <time>2022-09-07T13:22:18Z</time>
      </trkpt>
      <trkpt lat="43.09892" lon="-0.14341">
        <ele>377.4</ele>
        <time>2022-09-07T13:22:20Z</time>
      </trkpt>
      <trkpt lat="43.09892" lon="-0.14357">
        <ele>378.2</ele>
        <time>2022-09-07T13:22:26Z</time>
      </trkpt>
      <trkpt lat="43.09891" lon="-0.14359">
        <ele>378.4</ele>
        <time>2022-09-07T13:22:27Z</time>
      </trkpt>
      <trkpt lat="43.09888" lon="-0.14376">
        <ele>378.8</ele>
        <time>2022-09-07T13:22:33Z</time>
      </trkpt>
      <trkpt lat="43.09878" lon="-0.144">
        <ele>378.4</ele>
        <time>2022-09-07T13:22:39Z</time>
      </trkpt>
      <trkpt lat="43.09866" lon="-0.14418">
        <ele>377.6</ele>
        <time>2022-09-07T13:22:44Z</time>
      </trkpt>
      <trkpt lat="43.09862" lon="-0.14426">
        <ele>377.2</ele>
        <time>2022-09-07T13:22:46Z</time>
      </trkpt>
      <trkpt lat="43.0986" lon="-0.14434">
        <ele>375.8</ele>
        <time>2022-09-07T13:22:48Z</time>
      </trkpt>
      <trkpt lat="43.09858" lon="-0.14437">
        <ele>375.4</ele>
        <time>2022-09-07T13:22:49Z</time>
      </trkpt>
      <trkpt lat="43.09852" lon="-0.14452">
        <ele>374.6</ele>
        <time>2022-09-07T13:22:52Z</time>
      </trkpt>
      <trkpt lat="43.09849" lon="-0.14463">
        <ele>373.6</ele>
        <time>2022-09-07T13:22:54Z</time>
      </trkpt>
      <trkpt lat="43.09847" lon="-0.14474">
        <ele>372.2</ele>
        <time>2022-09-07T13:22:56Z</time>
      </trkpt>
      <trkpt lat="43.09845" lon="-0.14479">
        <ele>371.4</ele>
        <time>2022-09-07T13:22:57Z</time>
      </trkpt>
      <trkpt lat="43.09842" lon="-0.14486">
        <ele>370.4</ele>
        <time>2022-09-07T13:22:58Z</time>
      </trkpt>
      <trkpt lat="43.09839" lon="-0.14494">
        <ele>370</ele>
        <time>2022-09-07T13:22:59Z</time>
      </trkpt>
      <trkpt lat="43.0983" lon="-0.14516">
        <ele>372</ele>
        <time>2022-09-07T13:23:03Z</time>
      </trkpt>
      <trkpt lat="43.0982" lon="-0.1453">
        <ele>373</ele>
        <time>2022-09-07T13:23:07Z</time>
      </trkpt>
      <trkpt lat="43.09818" lon="-0.14534">
        <ele>373</ele>
        <time>2022-09-07T13:23:08Z</time>
      </trkpt>
      <trkpt lat="43.09811" lon="-0.14558">
        <ele>371.6</ele>
        <time>2022-09-07T13:23:12Z</time>
      </trkpt>
      <trkpt lat="43.09806" lon="-0.14565">
        <ele>371</ele>
        <time>2022-09-07T13:23:13Z</time>
      </trkpt>
      <trkpt lat="43.09801" lon="-0.14573">
        <ele>370.4</ele>
        <time>2022-09-07T13:23:14Z</time>
      </trkpt>
      <trkpt lat="43.09796" lon="-0.14581">
        <ele>369.8</ele>
        <time>2022-09-07T13:23:15Z</time>
      </trkpt>
      <trkpt lat="43.09791" lon="-0.14587">
        <ele>369.2</ele>
        <time>2022-09-07T13:23:16Z</time>
      </trkpt>
      <trkpt lat="43.09778" lon="-0.14605">
        <ele>367.8</ele>
        <time>2022-09-07T13:23:19Z</time>
      </trkpt>
      <trkpt lat="43.0977" lon="-0.14621">
        <ele>366.4</ele>
        <time>2022-09-07T13:23:21Z</time>
      </trkpt>
      <trkpt lat="43.09765" lon="-0.1463">
        <ele>365.6</ele>
        <time>2022-09-07T13:23:22Z</time>
      </trkpt>
      <trkpt lat="43.09761" lon="-0.14638">
        <ele>364.6</ele>
        <time>2022-09-07T13:23:23Z</time>
      </trkpt>
      <trkpt lat="43.09754" lon="-0.14647">
        <ele>363.8</ele>
        <time>2022-09-07T13:23:24Z</time>
      </trkpt>
      <trkpt lat="43.09748" lon="-0.14655">
        <ele>363.4</ele>
        <time>2022-09-07T13:23:25Z</time>
      </trkpt>
      <trkpt lat="43.09735" lon="-0.14669">
        <ele>363</ele>
        <time>2022-09-07T13:23:27Z</time>
      </trkpt>
      <trkpt lat="43.09716" lon="-0.14698">
        <ele>363</ele>
        <time>2022-09-07T13:23:31Z</time>
      </trkpt>
      <trkpt lat="43.09712" lon="-0.14706">
        <ele>363.2</ele>
        <time>2022-09-07T13:23:32Z</time>
      </trkpt>
      <trkpt lat="43.09707" lon="-0.1472">
        <ele>363.6</ele>
        <time>2022-09-07T13:23:34Z</time>
      </trkpt>
      <trkpt lat="43.09704" lon="-0.14728">
        <ele>364.2</ele>
        <time>2022-09-07T13:23:36Z</time>
      </trkpt>
      <trkpt lat="43.09701" lon="-0.14736">
        <ele>364.6</ele>
        <time>2022-09-07T13:23:38Z</time>
      </trkpt>
      <trkpt lat="43.09698" lon="-0.14744">
        <ele>364.6</ele>
        <time>2022-09-07T13:23:40Z</time>
      </trkpt>
      <trkpt lat="43.09692" lon="-0.14764">
        <ele>364.6</ele>
        <time>2022-09-07T13:23:44Z</time>
      </trkpt>
      <trkpt lat="43.09687" lon="-0.1478">
        <ele>365</ele>
        <time>2022-09-07T13:23:47Z</time>
      </trkpt>
      <trkpt lat="43.09682" lon="-0.14801">
        <ele>365.6</ele>
        <time>2022-09-07T13:23:51Z</time>
      </trkpt>
      <trkpt lat="43.09679" lon="-0.14817">
        <ele>366</ele>
        <time>2022-09-07T13:23:54Z</time>
      </trkpt>
      <trkpt lat="43.09677" lon="-0.14835">
        <ele>366.4</ele>
        <time>2022-09-07T13:23:58Z</time>
      </trkpt>
      <trkpt lat="43.09675" lon="-0.14856">
        <ele>366.6</ele>
        <time>2022-09-07T13:24:02Z</time>
      </trkpt>
      <trkpt lat="43.09674" lon="-0.14862">
        <ele>366.8</ele>
        <time>2022-09-07T13:24:03Z</time>
      </trkpt>
      <trkpt lat="43.09674" lon="-0.14868">
        <ele>366.8</ele>
        <time>2022-09-07T13:24:04Z</time>
      </trkpt>
      <trkpt lat="43.09674" lon="-0.14876">
        <ele>367.4</ele>
        <time>2022-09-07T13:24:06Z</time>
      </trkpt>
      <trkpt lat="43.09673" lon="-0.14883">
        <ele>368</ele>
        <time>2022-09-07T13:24:08Z</time>
      </trkpt>
      <trkpt lat="43.09673" lon="-0.14898">
        <ele>368.6</ele>
        <time>2022-09-07T13:24:13Z</time>
      </trkpt>
      <trkpt lat="43.09673" lon="-0.14919">
        <ele>368</ele>
        <time>2022-09-07T13:24:18Z</time>
      </trkpt>
      <trkpt lat="43.09674" lon="-0.14925">
        <ele>368</ele>
        <time>2022-09-07T13:24:19Z</time>
      </trkpt>
      <trkpt lat="43.09676" lon="-0.14944">
        <ele>367.6</ele>
        <time>2022-09-07T13:24:22Z</time>
      </trkpt>
      <trkpt lat="43.09679" lon="-0.14958">
        <ele>367.2</ele>
        <time>2022-09-07T13:24:24Z</time>
      </trkpt>
      <trkpt lat="43.09681" lon="-0.14965">
        <ele>367</ele>
        <time>2022-09-07T13:24:25Z</time>
      </trkpt>
      <trkpt lat="43.09683" lon="-0.14973">
        <ele>366.6</ele>
        <time>2022-09-07T13:24:26Z</time>
      </trkpt>
      <trkpt lat="43.09685" lon="-0.1498">
        <ele>365.8</ele>
        <time>2022-09-07T13:24:27Z</time>
      </trkpt>
      <trkpt lat="43.09689" lon="-0.14996">
        <ele>365</ele>
        <time>2022-09-07T13:24:29Z</time>
      </trkpt>
      <trkpt lat="43.09691" lon="-0.15004">
        <ele>364.6</ele>
        <time>2022-09-07T13:24:30Z</time>
      </trkpt>
      <trkpt lat="43.09697" lon="-0.15024">
        <ele>363.2</ele>
        <time>2022-09-07T13:24:32Z</time>
      </trkpt>
      <trkpt lat="43.09705" lon="-0.15044">
        <ele>361.8</ele>
        <time>2022-09-07T13:24:34Z</time>
      </trkpt>
      <trkpt lat="43.09715" lon="-0.15063">
        <ele>360.6</ele>
        <time>2022-09-07T13:24:36Z</time>
      </trkpt>
      <trkpt lat="43.09731" lon="-0.15097">
        <ele>361.4</ele>
        <time>2022-09-07T13:24:40Z</time>
      </trkpt>
      <trkpt lat="43.09734" lon="-0.15105">
        <ele>361.4</ele>
        <time>2022-09-07T13:24:41Z</time>
      </trkpt>
      <trkpt lat="43.09736" lon="-0.15113">
        <ele>361.2</ele>
        <time>2022-09-07T13:24:42Z</time>
      </trkpt>
      <trkpt lat="43.09739" lon="-0.15125">
        <ele>361.4</ele>
        <time>2022-09-07T13:24:44Z</time>
      </trkpt>
      <trkpt lat="43.09741" lon="-0.15166">
        <ele>361.2</ele>
        <time>2022-09-07T13:24:50Z</time>
      </trkpt>
      <trkpt lat="43.09745" lon="-0.15196">
        <ele>360.6</ele>
        <time>2022-09-07T13:24:54Z</time>
      </trkpt>
      <trkpt lat="43.09747" lon="-0.15203">
        <ele>360.4</ele>
        <time>2022-09-07T13:24:55Z</time>
      </trkpt>
      <trkpt lat="43.0975" lon="-0.1524">
        <ele>360.2</ele>
        <time>2022-09-07T13:25:00Z</time>
      </trkpt>
      <trkpt lat="43.09748" lon="-0.15278">
        <ele>360.8</ele>
        <time>2022-09-07T13:25:06Z</time>
      </trkpt>
      <trkpt lat="43.09749" lon="-0.15313">
        <ele>360.8</ele>
        <time>2022-09-07T13:25:13Z</time>
      </trkpt>
      <trkpt lat="43.09752" lon="-0.15335">
        <ele>361</ele>
        <time>2022-09-07T13:25:18Z</time>
      </trkpt>
      <trkpt lat="43.09759" lon="-0.15359">
        <ele>360.6</ele>
        <time>2022-09-07T13:25:23Z</time>
      </trkpt>
      <trkpt lat="43.09762" lon="-0.15372">
        <ele>360.4</ele>
        <time>2022-09-07T13:25:25Z</time>
      </trkpt>
      <trkpt lat="43.09765" lon="-0.15387">
        <ele>359.4</ele>
        <time>2022-09-07T13:25:27Z</time>
      </trkpt>
      <trkpt lat="43.09766" lon="-0.15396">
        <ele>359.2</ele>
        <time>2022-09-07T13:25:28Z</time>
      </trkpt>
      <trkpt lat="43.09768" lon="-0.15421">
        <ele>358.8</ele>
        <time>2022-09-07T13:25:31Z</time>
      </trkpt>
      <trkpt lat="43.09768" lon="-0.15471">
        <ele>358.2</ele>
        <time>2022-09-07T13:25:37Z</time>
      </trkpt>
      <trkpt lat="43.09768" lon="-0.15487">
        <ele>358.4</ele>
        <time>2022-09-07T13:25:39Z</time>
      </trkpt>
      <trkpt lat="43.09771" lon="-0.15505">
        <ele>357.8</ele>
        <time>2022-09-07T13:25:41Z</time>
      </trkpt>
      <trkpt lat="43.09777" lon="-0.15525">
        <ele>357</ele>
        <time>2022-09-07T13:25:43Z</time>
      </trkpt>
      <trkpt lat="43.09787" lon="-0.15543">
        <ele>355.8</ele>
        <time>2022-09-07T13:25:45Z</time>
      </trkpt>
      <trkpt lat="43.09798" lon="-0.1556">
        <ele>355</ele>
        <time>2022-09-07T13:25:47Z</time>
      </trkpt>
      <trkpt lat="43.09804" lon="-0.15567">
        <ele>354.4</ele>
        <time>2022-09-07T13:25:48Z</time>
      </trkpt>
      <trkpt lat="43.09829" lon="-0.15596">
        <ele>353.8</ele>
        <time>2022-09-07T13:25:52Z</time>
      </trkpt>
      <trkpt lat="43.09834" lon="-0.15604">
        <ele>353.2</ele>
        <time>2022-09-07T13:25:53Z</time>
      </trkpt>
      <trkpt lat="43.09846" lon="-0.15622">
        <ele>351.8</ele>
        <time>2022-09-07T13:25:55Z</time>
      </trkpt>
      <trkpt lat="43.09856" lon="-0.15643">
        <ele>351.2</ele>
        <time>2022-09-07T13:25:57Z</time>
      </trkpt>
      <trkpt lat="43.09861" lon="-0.15664">
        <ele>350.4</ele>
        <time>2022-09-07T13:25:59Z</time>
      </trkpt>
      <trkpt lat="43.09864" lon="-0.15686">
        <ele>349.4</ele>
        <time>2022-09-07T13:26:01Z</time>
      </trkpt>
      <trkpt lat="43.09868" lon="-0.15742">
        <ele>348.6</ele>
        <time>2022-09-07T13:26:07Z</time>
      </trkpt>
      <trkpt lat="43.09866" lon="-0.15791">
        <ele>348.8</ele>
        <time>2022-09-07T13:26:13Z</time>
      </trkpt>
      <trkpt lat="43.09865" lon="-0.15827">
        <ele>349.2</ele>
        <time>2022-09-07T13:26:18Z</time>
      </trkpt>
      <trkpt lat="43.09864" lon="-0.15856">
        <ele>350.4</ele>
        <time>2022-09-07T13:26:23Z</time>
      </trkpt>
      <trkpt lat="43.09863" lon="-0.1586">
        <ele>350.8</ele>
        <time>2022-09-07T13:26:24Z</time>
      </trkpt>
      <trkpt lat="43.09863" lon="-0.15873">
        <ele>351.4</ele>
        <time>2022-09-07T13:26:27Z</time>
      </trkpt>
      <trkpt lat="43.09862" lon="-0.15883">
        <ele>352</ele>
        <time>2022-09-07T13:26:30Z</time>
      </trkpt>
      <trkpt lat="43.09861" lon="-0.15894">
        <ele>352.6</ele>
        <time>2022-09-07T13:26:34Z</time>
      </trkpt>
      <trkpt lat="43.09861" lon="-0.15902">
        <ele>353.6</ele>
        <time>2022-09-07T13:26:39Z</time>
      </trkpt>
      <trkpt lat="43.09859" lon="-0.15916">
        <ele>354</ele>
        <time>2022-09-07T13:26:46Z</time>
      </trkpt>
      <trkpt lat="43.09859" lon="-0.15936">
        <ele>354.6</ele>
        <time>2022-09-07T13:26:53Z</time>
      </trkpt>
      <trkpt lat="43.0986" lon="-0.15966">
        <ele>354.6</ele>
        <time>2022-09-07T13:26:59Z</time>
      </trkpt>
      <trkpt lat="43.09864" lon="-0.16001">
        <ele>354.4</ele>
        <time>2022-09-07T13:27:06Z</time>
      </trkpt>
      <trkpt lat="43.09867" lon="-0.16035">
        <ele>354.4</ele>
        <time>2022-09-07T13:27:12Z</time>
      </trkpt>
      <trkpt lat="43.09859" lon="-0.1606">
        <ele>354.4</ele>
        <time>2022-09-07T13:27:17Z</time>
      </trkpt>
      <trkpt lat="43.09838" lon="-0.16109">
        <ele>355</ele>
        <time>2022-09-07T13:27:27Z</time>
      </trkpt>
      <trkpt lat="43.09823" lon="-0.16152">
        <ele>355.4</ele>
        <time>2022-09-07T13:27:36Z</time>
      </trkpt>
      <trkpt lat="43.09819" lon="-0.16166">
        <ele>355.8</ele>
        <time>2022-09-07T13:27:39Z</time>
      </trkpt>
      <trkpt lat="43.09818" lon="-0.16181">
        <ele>356</ele>
        <time>2022-09-07T13:27:42Z</time>
      </trkpt>
      <trkpt lat="43.09819" lon="-0.16196">
        <ele>356.4</ele>
        <time>2022-09-07T13:27:46Z</time>
      </trkpt>
      <trkpt lat="43.0982" lon="-0.16203">
        <ele>356.8</ele>
        <time>2022-09-07T13:27:48Z</time>
      </trkpt>
      <trkpt lat="43.0982" lon="-0.16207">
        <ele>357</ele>
        <time>2022-09-07T13:27:49Z</time>
      </trkpt>
      <trkpt lat="43.09823" lon="-0.16222">
        <ele>357.8</ele>
        <time>2022-09-07T13:27:54Z</time>
      </trkpt>
      <trkpt lat="43.09823" lon="-0.16225">
        <ele>358</ele>
        <time>2022-09-07T13:27:55Z</time>
      </trkpt>
      <trkpt lat="43.09826" lon="-0.16241">
        <ele>359</ele>
        <time>2022-09-07T13:28:01Z</time>
      </trkpt>
      <trkpt lat="43.09827" lon="-0.16245">
        <ele>359.4</ele>
        <time>2022-09-07T13:28:03Z</time>
      </trkpt>
      <trkpt lat="43.09837" lon="-0.16262">
        <ele>359</ele>
        <time>2022-09-07T13:28:09Z</time>
      </trkpt>
      <trkpt lat="43.09852" lon="-0.16284">
        <ele>358.2</ele>
        <time>2022-09-07T13:28:13Z</time>
      </trkpt>
      <trkpt lat="43.09857" lon="-0.16292">
        <ele>358</ele>
        <time>2022-09-07T13:28:14Z</time>
      </trkpt>
      <trkpt lat="43.09861" lon="-0.163">
        <ele>357.2</ele>
        <time>2022-09-07T13:28:15Z</time>
      </trkpt>
      <trkpt lat="43.09869" lon="-0.16317">
        <ele>356.2</ele>
        <time>2022-09-07T13:28:17Z</time>
      </trkpt>
      <trkpt lat="43.09872" lon="-0.16327">
        <ele>356</ele>
        <time>2022-09-07T13:28:18Z</time>
      </trkpt>
      <trkpt lat="43.09884" lon="-0.16367">
        <ele>356</ele>
        <time>2022-09-07T13:28:22Z</time>
      </trkpt>
      <trkpt lat="43.09888" lon="-0.16376">
        <ele>354.8</ele>
        <time>2022-09-07T13:28:23Z</time>
      </trkpt>
      <trkpt lat="43.09894" lon="-0.16384">
        <ele>353.6</ele>
        <time>2022-09-07T13:28:24Z</time>
      </trkpt>
      <trkpt lat="43.09899" lon="-0.16393">
        <ele>352.6</ele>
        <time>2022-09-07T13:28:25Z</time>
      </trkpt>
      <trkpt lat="43.09904" lon="-0.16402">
        <ele>351.8</ele>
        <time>2022-09-07T13:28:26Z</time>
      </trkpt>
      <trkpt lat="43.09907" lon="-0.16412">
        <ele>351.6</ele>
        <time>2022-09-07T13:28:27Z</time>
      </trkpt>
      <trkpt lat="43.09909" lon="-0.16424">
        <ele>350.8</ele>
        <time>2022-09-07T13:28:28Z</time>
      </trkpt>
      <trkpt lat="43.09911" lon="-0.16435">
        <ele>350</ele>
        <time>2022-09-07T13:28:29Z</time>
      </trkpt>
      <trkpt lat="43.09913" lon="-0.16447">
        <ele>349</ele>
        <time>2022-09-07T13:28:30Z</time>
      </trkpt>
      <trkpt lat="43.09916" lon="-0.16479">
        <ele>349.6</ele>
        <time>2022-09-07T13:28:33Z</time>
      </trkpt>
      <trkpt lat="43.09917" lon="-0.16488">
        <ele>349.6</ele>
        <time>2022-09-07T13:28:34Z</time>
      </trkpt>
      <trkpt lat="43.09918" lon="-0.16495">
        <ele>350.2</ele>
        <time>2022-09-07T13:28:35Z</time>
      </trkpt>
      <trkpt lat="43.09925" lon="-0.16502">
        <ele>350.2</ele>
        <time>2022-09-07T13:28:37Z</time>
      </trkpt>
      <trkpt lat="43.09929" lon="-0.16504">
        <ele>350</ele>
        <time>2022-09-07T13:28:38Z</time>
      </trkpt>
      <trkpt lat="43.09945" lon="-0.16514">
        <ele>350.6</ele>
        <time>2022-09-07T13:28:43Z</time>
      </trkpt>
      <trkpt lat="43.0996" lon="-0.16522">
        <ele>351.2</ele>
        <time>2022-09-07T13:28:48Z</time>
      </trkpt>
      <trkpt lat="43.09976" lon="-0.1653">
        <ele>351.4</ele>
        <time>2022-09-07T13:28:53Z</time>
      </trkpt>
      <trkpt lat="43.09993" lon="-0.16536">
        <ele>350.8</ele>
        <time>2022-09-07T13:28:58Z</time>
      </trkpt>
      <trkpt lat="43.1001" lon="-0.16537">
        <ele>351.6</ele>
        <time>2022-09-07T13:29:04Z</time>
      </trkpt>
      <trkpt lat="43.10018" lon="-0.16536">
        <ele>351.8</ele>
        <time>2022-09-07T13:29:08Z</time>
      </trkpt>
      <trkpt lat="43.10019" lon="-0.16546">
        <ele>351.8</ele>
        <time>2022-09-07T13:29:11Z</time>
      </trkpt>
      <trkpt lat="43.1002" lon="-0.16548">
        <ele>351.8</ele>
        <time>2022-09-07T13:29:12Z</time>
      </trkpt>
      <trkpt lat="43.10022" lon="-0.1655">
        <ele>352</ele>
        <time>2022-09-07T13:29:13Z</time>
      </trkpt>
      <trkpt lat="43.10024" lon="-0.1655">
        <ele>352.4</ele>
        <time>2022-09-07T13:29:14Z</time>
      </trkpt>
      <trkpt lat="43.10029" lon="-0.16553">
        <ele>352.4</ele>
        <time>2022-09-07T13:29:16Z</time>
      </trkpt>
      <trkpt lat="43.10035" lon="-0.16568">
        <ele>352.4</ele>
        <time>2022-09-07T13:29:21Z</time>
      </trkpt>
      <trkpt lat="43.10046" lon="-0.16585">
        <ele>352</ele>
        <time>2022-09-07T13:29:27Z</time>
      </trkpt>
      <trkpt lat="43.10057" lon="-0.1659">
        <ele>352</ele>
        <time>2022-09-07T13:29:31Z</time>
      </trkpt>
      <trkpt lat="43.1007" lon="-0.16597">
        <ele>351</ele>
        <time>2022-09-07T13:29:36Z</time>
      </trkpt>
      <trkpt lat="43.10071" lon="-0.16599">
        <ele>350.8</ele>
        <time>2022-09-07T13:29:37Z</time>
      </trkpt>
      <trkpt lat="43.10082" lon="-0.16606">
        <ele>350.4</ele>
        <time>2022-09-07T13:29:42Z</time>
      </trkpt>
      <trkpt lat="43.10085" lon="-0.16605">
        <ele>350</ele>
        <time>2022-09-07T13:29:43Z</time>
      </trkpt>
      <trkpt lat="43.10092" lon="-0.166">
        <ele>349.2</ele>
        <time>2022-09-07T13:29:45Z</time>
      </trkpt>
      <trkpt lat="43.10095" lon="-0.16597">
        <ele>349</ele>
        <time>2022-09-07T13:29:46Z</time>
      </trkpt>
      <trkpt lat="43.10097" lon="-0.16595">
        <ele>348.6</ele>
        <time>2022-09-07T13:29:47Z</time>
      </trkpt>
      <trkpt lat="43.10105" lon="-0.16588">
        <ele>347.6</ele>
        <time>2022-09-07T13:29:50Z</time>
      </trkpt>
      <trkpt lat="43.10109" lon="-0.16583">
        <ele>346.8</ele>
        <time>2022-09-07T13:29:52Z</time>
      </trkpt>
      <trkpt lat="43.10111" lon="-0.16581">
        <ele>346.4</ele>
        <time>2022-09-07T13:29:53Z</time>
      </trkpt>
      <trkpt lat="43.1012" lon="-0.16579">
        <ele>345.6</ele>
        <time>2022-09-07T13:29:57Z</time>
      </trkpt>
      <trkpt lat="43.10122" lon="-0.16581">
        <ele>345.4</ele>
        <time>2022-09-07T13:29:58Z</time>
      </trkpt>
      <trkpt lat="43.10122" lon="-0.16585">
        <ele>345</ele>
        <time>2022-09-07T13:30:00Z</time>
      </trkpt>
      <trkpt lat="43.10116" lon="-0.16591">
        <ele>345.4</ele>
        <time>2022-09-07T13:30:03Z</time>
      </trkpt>
      <trkpt lat="43.10114" lon="-0.16593">
        <ele>345.4</ele>
        <time>2022-09-07T13:30:04Z</time>
      </trkpt>
      <trkpt lat="43.10098" lon="-0.1661">
        <ele>346.6</ele>
        <time>2022-09-07T13:30:12Z</time>
      </trkpt>
      <trkpt lat="43.10096" lon="-0.16613">
        <ele>346.6</ele>
        <time>2022-09-07T13:30:13Z</time>
      </trkpt>
      <trkpt lat="43.10088" lon="-0.1664">
        <ele>347.2</ele>
        <time>2022-09-07T13:30:20Z</time>
      </trkpt>
      <trkpt lat="43.10079" lon="-0.16678">
        <ele>346.8</ele>
        <time>2022-09-07T13:30:28Z</time>
      </trkpt>
      <trkpt lat="43.10069" lon="-0.16715">
        <ele>346</ele>
        <time>2022-09-07T13:30:35Z</time>
      </trkpt>
      <trkpt lat="43.10059" lon="-0.16749">
        <ele>345.4</ele>
        <time>2022-09-07T13:30:41Z</time>
      </trkpt>
      <trkpt lat="43.10056" lon="-0.1676">
        <ele>345.4</ele>
        <time>2022-09-07T13:30:43Z</time>
      </trkpt>
      <trkpt lat="43.1004" lon="-0.16813">
        <ele>344.6</ele>
        <time>2022-09-07T13:30:53Z</time>
      </trkpt>
      <trkpt lat="43.10026" lon="-0.16855">
        <ele>344.4</ele>
        <time>2022-09-07T13:31:00Z</time>
      </trkpt>
      <trkpt lat="43.10023" lon="-0.16862">
        <ele>344.2</ele>
        <time>2022-09-07T13:31:01Z</time>
      </trkpt>
      <trkpt lat="43.10007" lon="-0.16892">
        <ele>343.6</ele>
        <time>2022-09-07T13:31:06Z</time>
      </trkpt>
      <trkpt lat="43.09993" lon="-0.16916">
        <ele>343.2</ele>
        <time>2022-09-07T13:31:10Z</time>
      </trkpt>
      <trkpt lat="43.09981" lon="-0.16934">
        <ele>343</ele>
        <time>2022-09-07T13:31:13Z</time>
      </trkpt>
      <trkpt lat="43.09963" lon="-0.16974">
        <ele>342.4</ele>
        <time>2022-09-07T13:31:19Z</time>
      </trkpt>
      <trkpt lat="43.09955" lon="-0.17">
        <ele>342</ele>
        <time>2022-09-07T13:31:23Z</time>
      </trkpt>
      <trkpt lat="43.0995" lon="-0.1702">
        <ele>341.4</ele>
        <time>2022-09-07T13:31:26Z</time>
      </trkpt>
      <trkpt lat="43.09946" lon="-0.17044">
        <ele>341</ele>
        <time>2022-09-07T13:31:30Z</time>
      </trkpt>
      <trkpt lat="43.09944" lon="-0.17062">
        <ele>341.2</ele>
        <time>2022-09-07T13:31:33Z</time>
      </trkpt>
      <trkpt lat="43.09942" lon="-0.17075">
        <ele>341.4</ele>
        <time>2022-09-07T13:31:35Z</time>
      </trkpt>
      <trkpt lat="43.09939" lon="-0.17108">
        <ele>340.6</ele>
        <time>2022-09-07T13:31:40Z</time>
      </trkpt>
      <trkpt lat="43.09934" lon="-0.17152">
        <ele>340.4</ele>
        <time>2022-09-07T13:31:47Z</time>
      </trkpt>
      <trkpt lat="43.09931" lon="-0.17184">
        <ele>339.6</ele>
        <time>2022-09-07T13:31:52Z</time>
      </trkpt>
      <trkpt lat="43.09929" lon="-0.17209">
        <ele>339.2</ele>
        <time>2022-09-07T13:31:56Z</time>
      </trkpt>
      <trkpt lat="43.0992" lon="-0.17262">
        <ele>338.6</ele>
        <time>2022-09-07T13:32:04Z</time>
      </trkpt>
      <trkpt lat="43.09918" lon="-0.17268">
        <ele>338.4</ele>
        <time>2022-09-07T13:32:05Z</time>
      </trkpt>
      <trkpt lat="43.09909" lon="-0.17311">
        <ele>337.6</ele>
        <time>2022-09-07T13:32:11Z</time>
      </trkpt>
      <trkpt lat="43.09909" lon="-0.17319">
        <ele>337.4</ele>
        <time>2022-09-07T13:32:12Z</time>
      </trkpt>
      <trkpt lat="43.09911" lon="-0.17341">
        <ele>337.2</ele>
        <time>2022-09-07T13:32:15Z</time>
      </trkpt>
      <trkpt lat="43.09918" lon="-0.17396">
        <ele>336.6</ele>
        <time>2022-09-07T13:32:23Z</time>
      </trkpt>
      <trkpt lat="43.0992" lon="-0.1741">
        <ele>336.4</ele>
        <time>2022-09-07T13:32:25Z</time>
      </trkpt>
      <trkpt lat="43.09924" lon="-0.17424">
        <ele>336</ele>
        <time>2022-09-07T13:32:28Z</time>
      </trkpt>
      <trkpt lat="43.0993" lon="-0.17432">
        <ele>336.2</ele>
        <time>2022-09-07T13:32:32Z</time>
      </trkpt>
      <trkpt lat="43.09931" lon="-0.1744">
        <ele>336</ele>
        <time>2022-09-07T13:34:05Z</time>
      </trkpt>
      <trkpt lat="43.0994" lon="-0.17458">
        <ele>336.4</ele>
        <time>2022-09-07T13:34:11Z</time>
      </trkpt>
      <trkpt lat="43.09955" lon="-0.17478">
        <ele>336.6</ele>
        <time>2022-09-07T13:34:18Z</time>
      </trkpt>
      <trkpt lat="43.09966" lon="-0.17489">
        <ele>336.8</ele>
        <time>2022-09-07T13:34:24Z</time>
      </trkpt>
      <trkpt lat="43.09978" lon="-0.175">
        <ele>337</ele>
        <time>2022-09-07T13:34:31Z</time>
      </trkpt>
      <trkpt lat="43.09991" lon="-0.17511">
        <ele>337.4</ele>
        <time>2022-09-07T13:34:39Z</time>
      </trkpt>
      <trkpt lat="43.10002" lon="-0.1752">
        <ele>337.8</ele>
        <time>2022-09-07T13:34:45Z</time>
      </trkpt>
      <trkpt lat="43.10019" lon="-0.17536">
        <ele>338</ele>
        <time>2022-09-07T13:34:52Z</time>
      </trkpt>
      <trkpt lat="43.10023" lon="-0.17541">
        <ele>338.4</ele>
        <time>2022-09-07T13:34:54Z</time>
      </trkpt>
      <trkpt lat="43.10033" lon="-0.17559">
        <ele>339.4</ele>
        <time>2022-09-07T13:35:00Z</time>
      </trkpt>
      <trkpt lat="43.10034" lon="-0.17565">
        <ele>339.8</ele>
        <time>2022-09-07T13:35:02Z</time>
      </trkpt>
      <trkpt lat="43.10035" lon="-0.17578">
        <ele>340.4</ele>
        <time>2022-09-07T13:35:06Z</time>
      </trkpt>
      <trkpt lat="43.10034" lon="-0.17595">
        <ele>340.8</ele>
        <time>2022-09-07T13:35:11Z</time>
      </trkpt>
      <trkpt lat="43.10034" lon="-0.17598">
        <ele>340.8</ele>
        <time>2022-09-07T13:35:12Z</time>
      </trkpt>
      <trkpt lat="43.10029" lon="-0.1762">
        <ele>341.8</ele>
        <time>2022-09-07T13:35:19Z</time>
      </trkpt>
      <trkpt lat="43.10028" lon="-0.17626">
        <ele>341.8</ele>
        <time>2022-09-07T13:35:21Z</time>
      </trkpt>
      <trkpt lat="43.10025" lon="-0.17644">
        <ele>342.6</ele>
        <time>2022-09-07T13:35:27Z</time>
      </trkpt>
      <trkpt lat="43.10025" lon="-0.17646">
        <ele>342.8</ele>
        <time>2022-09-07T13:35:28Z</time>
      </trkpt>
      <trkpt lat="43.10021" lon="-0.17663">
        <ele>343</ele>
        <time>2022-09-07T13:35:33Z</time>
      </trkpt>
      <trkpt lat="43.10021" lon="-0.17688">
        <ele>343.4</ele>
        <time>2022-09-07T13:35:40Z</time>
      </trkpt>
      <trkpt lat="43.10027" lon="-0.1771">
        <ele>343.6</ele>
        <time>2022-09-07T13:35:46Z</time>
      </trkpt>
      <trkpt lat="43.10034" lon="-0.17729">
        <ele>343.8</ele>
        <time>2022-09-07T13:35:51Z</time>
      </trkpt>
      <trkpt lat="43.10039" lon="-0.17741">
        <ele>344</ele>
        <time>2022-09-07T13:35:54Z</time>
      </trkpt>
      <trkpt lat="43.10047" lon="-0.17761">
        <ele>344</ele>
        <time>2022-09-07T13:35:59Z</time>
      </trkpt>
      <trkpt lat="43.10056" lon="-0.17797">
        <ele>344.8</ele>
        <time>2022-09-07T13:36:07Z</time>
      </trkpt>
      <trkpt lat="43.10058" lon="-0.17802">
        <ele>344.8</ele>
        <time>2022-09-07T13:36:08Z</time>
      </trkpt>
      <trkpt lat="43.10061" lon="-0.17829">
        <ele>345.2</ele>
        <time>2022-09-07T13:36:14Z</time>
      </trkpt>
      <trkpt lat="43.10066" lon="-0.17863">
        <ele>345.6</ele>
        <time>2022-09-07T13:36:21Z</time>
      </trkpt>
      <trkpt lat="43.1007" lon="-0.17881">
        <ele>346</ele>
        <time>2022-09-07T13:36:25Z</time>
      </trkpt>
      <trkpt lat="43.10071" lon="-0.17885">
        <ele>346.2</ele>
        <time>2022-09-07T13:36:26Z</time>
      </trkpt>
      <trkpt lat="43.10083" lon="-0.17923">
        <ele>346.8</ele>
        <time>2022-09-07T13:36:35Z</time>
      </trkpt>
      <trkpt lat="43.10086" lon="-0.17931">
        <ele>347</ele>
        <time>2022-09-07T13:36:37Z</time>
      </trkpt>
      <trkpt lat="43.10095" lon="-0.17951">
        <ele>346.8</ele>
        <time>2022-09-07T13:36:42Z</time>
      </trkpt>
      <trkpt lat="43.1011" lon="-0.17987">
        <ele>346.2</ele>
        <time>2022-09-07T13:36:49Z</time>
      </trkpt>
      <trkpt lat="43.10114" lon="-0.17994">
        <ele>345.8</ele>
        <time>2022-09-07T13:36:50Z</time>
      </trkpt>
      <trkpt lat="43.10126" lon="-0.18018">
        <ele>344.4</ele>
        <time>2022-09-07T13:36:53Z</time>
      </trkpt>
      <trkpt lat="43.10137" lon="-0.18037">
        <ele>343</ele>
        <time>2022-09-07T13:36:55Z</time>
      </trkpt>
      <trkpt lat="43.1015" lon="-0.18055">
        <ele>341.6</ele>
        <time>2022-09-07T13:36:57Z</time>
      </trkpt>
      <trkpt lat="43.10164" lon="-0.18074">
        <ele>340.2</ele>
        <time>2022-09-07T13:36:59Z</time>
      </trkpt>
      <trkpt lat="43.102" lon="-0.18117">
        <ele>339.2</ele>
        <time>2022-09-07T13:37:04Z</time>
      </trkpt>
      <trkpt lat="43.10207" lon="-0.18126">
        <ele>339</ele>
        <time>2022-09-07T13:37:05Z</time>
      </trkpt>
      <trkpt lat="43.10225" lon="-0.18155">
        <ele>338.6</ele>
        <time>2022-09-07T13:37:08Z</time>
      </trkpt>
      <trkpt lat="43.10229" lon="-0.18166">
        <ele>338.4</ele>
        <time>2022-09-07T13:37:09Z</time>
      </trkpt>
      <trkpt lat="43.10234" lon="-0.18177">
        <ele>338.2</ele>
        <time>2022-09-07T13:37:10Z</time>
      </trkpt>
      <trkpt lat="43.10245" lon="-0.18221">
        <ele>337.6</ele>
        <time>2022-09-07T13:37:14Z</time>
      </trkpt>
      <trkpt lat="43.10249" lon="-0.18266">
        <ele>336.8</ele>
        <time>2022-09-07T13:37:18Z</time>
      </trkpt>
      <trkpt lat="43.10249" lon="-0.18278">
        <ele>336.2</ele>
        <time>2022-09-07T13:37:19Z</time>
      </trkpt>
      <trkpt lat="43.10249" lon="-0.18289">
        <ele>335.4</ele>
        <time>2022-09-07T13:37:20Z</time>
      </trkpt>
      <trkpt lat="43.10249" lon="-0.18345">
        <ele>334.2</ele>
        <time>2022-09-07T13:37:25Z</time>
      </trkpt>
      <trkpt lat="43.10248" lon="-0.18356">
        <ele>334</ele>
        <time>2022-09-07T13:37:26Z</time>
      </trkpt>
      <trkpt lat="43.10247" lon="-0.18412">
        <ele>333.4</ele>
        <time>2022-09-07T13:37:32Z</time>
      </trkpt>
      <trkpt lat="43.10246" lon="-0.1846">
        <ele>334.8</ele>
        <time>2022-09-07T13:37:38Z</time>
      </trkpt>
      <trkpt lat="43.10245" lon="-0.18467">
        <ele>335</ele>
        <time>2022-09-07T13:37:39Z</time>
      </trkpt>
      <trkpt lat="43.10241" lon="-0.18494">
        <ele>334.4</ele>
        <time>2022-09-07T13:37:43Z</time>
      </trkpt>
      <trkpt lat="43.10229" lon="-0.18556">
        <ele>333.6</ele>
        <time>2022-09-07T13:37:52Z</time>
      </trkpt>
      <trkpt lat="43.10226" lon="-0.18577">
        <ele>333.2</ele>
        <time>2022-09-07T13:37:55Z</time>
      </trkpt>
      <trkpt lat="43.10227" lon="-0.186">
        <ele>333.2</ele>
        <time>2022-09-07T13:37:58Z</time>
      </trkpt>
      <trkpt lat="43.10227" lon="-0.18608">
        <ele>333</ele>
        <time>2022-09-07T13:37:59Z</time>
      </trkpt>
      <trkpt lat="43.10239" lon="-0.18655">
        <ele>332.2</ele>
        <time>2022-09-07T13:38:05Z</time>
      </trkpt>
      <trkpt lat="43.1024" lon="-0.18662">
        <ele>332.2</ele>
        <time>2022-09-07T13:38:06Z</time>
      </trkpt>
      <trkpt lat="43.10245" lon="-0.18677">
        <ele>333.2</ele>
        <time>2022-09-07T13:38:08Z</time>
      </trkpt>
      <trkpt lat="43.10251" lon="-0.187">
        <ele>332</ele>
        <time>2022-09-07T13:38:11Z</time>
      </trkpt>
      <trkpt lat="43.10253" lon="-0.18708">
        <ele>331.8</ele>
        <time>2022-09-07T13:38:12Z</time>
      </trkpt>
      <trkpt lat="43.10272" lon="-0.1876">
        <ele>331.2</ele>
        <time>2022-09-07T13:38:19Z</time>
      </trkpt>
      <trkpt lat="43.103" lon="-0.1881">
        <ele>331.2</ele>
        <time>2022-09-07T13:38:27Z</time>
      </trkpt>
      <trkpt lat="43.1032" lon="-0.18846">
        <ele>331.6</ele>
        <time>2022-09-07T13:38:33Z</time>
      </trkpt>
      <trkpt lat="43.10336" lon="-0.18879">
        <ele>331</ele>
        <time>2022-09-07T13:38:38Z</time>
      </trkpt>
      <trkpt lat="43.10345" lon="-0.18891">
        <ele>330.2</ele>
        <time>2022-09-07T13:38:40Z</time>
      </trkpt>
      <trkpt lat="43.10354" lon="-0.18901">
        <ele>330</ele>
        <time>2022-09-07T13:38:42Z</time>
      </trkpt>
      <trkpt lat="43.10359" lon="-0.18905">
        <ele>329.8</ele>
        <time>2022-09-07T13:38:43Z</time>
      </trkpt>
      <trkpt lat="43.10369" lon="-0.18913">
        <ele>329.6</ele>
        <time>2022-09-07T13:38:45Z</time>
      </trkpt>
      <trkpt lat="43.10397" lon="-0.18945">
        <ele>329.6</ele>
        <time>2022-09-07T13:38:51Z</time>
      </trkpt>
      <trkpt lat="43.10413" lon="-0.18968">
        <ele>330</ele>
        <time>2022-09-07T13:38:55Z</time>
      </trkpt>
      <trkpt lat="43.10417" lon="-0.18981">
        <ele>330.4</ele>
        <time>2022-09-07T13:38:57Z</time>
      </trkpt>
      <trkpt lat="43.10426" lon="-0.19015">
        <ele>330.4</ele>
        <time>2022-09-07T13:39:02Z</time>
      </trkpt>
      <trkpt lat="43.10428" lon="-0.19023">
        <ele>330.4</ele>
        <time>2022-09-07T13:39:03Z</time>
      </trkpt>
      <trkpt lat="43.10438" lon="-0.19048">
        <ele>330.4</ele>
        <time>2022-09-07T13:39:07Z</time>
      </trkpt>
      <trkpt lat="43.10442" lon="-0.19054">
        <ele>330.2</ele>
        <time>2022-09-07T13:39:08Z</time>
      </trkpt>
      <trkpt lat="43.10465" lon="-0.19099">
        <ele>329.8</ele>
        <time>2022-09-07T13:39:15Z</time>
      </trkpt>
      <trkpt lat="43.10468" lon="-0.19106">
        <ele>329.8</ele>
        <time>2022-09-07T13:39:16Z</time>
      </trkpt>
      <trkpt lat="43.1047" lon="-0.19113">
        <ele>329.8</ele>
        <time>2022-09-07T13:39:17Z</time>
      </trkpt>
      <trkpt lat="43.10475" lon="-0.19137">
        <ele>330.4</ele>
        <time>2022-09-07T13:39:21Z</time>
      </trkpt>
      <trkpt lat="43.10478" lon="-0.19157">
        <ele>331</ele>
        <time>2022-09-07T13:39:25Z</time>
      </trkpt>
      <trkpt lat="43.1048" lon="-0.19162">
        <ele>331.2</ele>
        <time>2022-09-07T13:39:26Z</time>
      </trkpt>
      <trkpt lat="43.10493" lon="-0.19186">
        <ele>331.6</ele>
        <time>2022-09-07T13:39:32Z</time>
      </trkpt>
      <trkpt lat="43.10502" lon="-0.19197">
        <ele>331.2</ele>
        <time>2022-09-07T13:39:36Z</time>
      </trkpt>
      <trkpt lat="43.10517" lon="-0.19203">
        <ele>331</ele>
        <time>2022-09-07T13:39:40Z</time>
      </trkpt>
      <trkpt lat="43.10532" lon="-0.19207">
        <ele>332</ele>
        <time>2022-09-07T13:39:43Z</time>
      </trkpt>
      <trkpt lat="43.10548" lon="-0.19211">
        <ele>331</ele>
        <time>2022-09-07T13:39:46Z</time>
      </trkpt>
      <trkpt lat="43.10554" lon="-0.19212">
        <ele>330.8</ele>
        <time>2022-09-07T13:39:47Z</time>
      </trkpt>
      <trkpt lat="43.10583" lon="-0.19221">
        <ele>330.4</ele>
        <time>2022-09-07T13:39:52Z</time>
      </trkpt>
      <trkpt lat="43.10592" lon="-0.19224">
        <ele>329.8</ele>
        <time>2022-09-07T13:39:54Z</time>
      </trkpt>
      <trkpt lat="43.10608" lon="-0.19228">
        <ele>329.4</ele>
        <time>2022-09-07T13:39:57Z</time>
      </trkpt>
      <trkpt lat="43.1065" lon="-0.19231">
        <ele>329.2</ele>
        <time>2022-09-07T13:40:04Z</time>
      </trkpt>
      <trkpt lat="43.10697" lon="-0.19233">
        <ele>328.8</ele>
        <time>2022-09-07T13:40:12Z</time>
      </trkpt>
      <trkpt lat="43.10737" lon="-0.19236">
        <ele>328.6</ele>
        <time>2022-09-07T13:40:19Z</time>
      </trkpt>
      <trkpt lat="43.10776" lon="-0.19238">
        <ele>328.8</ele>
        <time>2022-09-07T13:40:26Z</time>
      </trkpt>
      <trkpt lat="43.10804" lon="-0.19241">
        <ele>329.2</ele>
        <time>2022-09-07T13:40:32Z</time>
      </trkpt>
      <trkpt lat="43.10808" lon="-0.19242">
        <ele>329.2</ele>
        <time>2022-09-07T13:40:33Z</time>
      </trkpt>
      <trkpt lat="43.10821" lon="-0.19254">
        <ele>329.6</ele>
        <time>2022-09-07T13:40:37Z</time>
      </trkpt>
      <trkpt lat="43.10823" lon="-0.19257">
        <ele>329.8</ele>
        <time>2022-09-07T13:40:38Z</time>
      </trkpt>
      <trkpt lat="43.10826" lon="-0.1926">
        <ele>330</ele>
        <time>2022-09-07T13:40:39Z</time>
      </trkpt>
      <trkpt lat="43.10845" lon="-0.19276">
        <ele>331</ele>
        <time>2022-09-07T13:40:45Z</time>
      </trkpt>
      <trkpt lat="43.10861" lon="-0.1928">
        <ele>331.4</ele>
        <time>2022-09-07T13:40:50Z</time>
      </trkpt>
      <trkpt lat="43.10884" lon="-0.19286">
        <ele>331.8</ele>
        <time>2022-09-07T13:40:57Z</time>
      </trkpt>
      <trkpt lat="43.10895" lon="-0.19289">
        <ele>332</ele>
        <time>2022-09-07T13:41:00Z</time>
      </trkpt>
      <trkpt lat="43.10915" lon="-0.19292">
        <ele>332.4</ele>
        <time>2022-09-07T13:41:05Z</time>
      </trkpt>
      <trkpt lat="43.10957" lon="-0.19303">
        <ele>332.8</ele>
        <time>2022-09-07T13:41:16Z</time>
      </trkpt>
      <trkpt lat="43.11" lon="-0.19314">
        <ele>332.6</ele>
        <time>2022-09-07T13:41:26Z</time>
      </trkpt>
      <trkpt lat="43.11043" lon="-0.19324">
        <ele>332.6</ele>
        <time>2022-09-07T13:41:35Z</time>
      </trkpt>
      <trkpt lat="43.11078" lon="-0.19331">
        <ele>332</ele>
        <time>2022-09-07T13:41:42Z</time>
      </trkpt>
      <trkpt lat="43.11126" lon="-0.19338">
        <ele>331.8</ele>
        <time>2022-09-07T13:41:51Z</time>
      </trkpt>
      <trkpt lat="43.11181" lon="-0.19347">
        <ele>331.2</ele>
        <time>2022-09-07T13:42:01Z</time>
      </trkpt>
      <trkpt lat="43.11226" lon="-0.19363">
        <ele>331.6</ele>
        <time>2022-09-07T13:42:09Z</time>
      </trkpt>
      <trkpt lat="43.11231" lon="-0.19367">
        <ele>331.8</ele>
        <time>2022-09-07T13:42:10Z</time>
      </trkpt>
      <trkpt lat="43.11242" lon="-0.19375">
        <ele>331.4</ele>
        <time>2022-09-07T13:42:12Z</time>
      </trkpt>
      <trkpt lat="43.11251" lon="-0.19385">
        <ele>330.6</ele>
        <time>2022-09-07T13:42:14Z</time>
      </trkpt>
      <trkpt lat="43.11287" lon="-0.19422">
        <ele>330.4</ele>
        <time>2022-09-07T13:42:22Z</time>
      </trkpt>
      <trkpt lat="43.11296" lon="-0.19431">
        <ele>329.4</ele>
        <time>2022-09-07T13:42:24Z</time>
      </trkpt>
      <trkpt lat="43.11301" lon="-0.19434">
        <ele>329.6</ele>
        <time>2022-09-07T13:42:25Z</time>
      </trkpt>
      <trkpt lat="43.1132" lon="-0.19448">
        <ele>330</ele>
        <time>2022-09-07T13:42:29Z</time>
      </trkpt>
      <trkpt lat="43.11352" lon="-0.19468">
        <ele>329.6</ele>
        <time>2022-09-07T13:42:36Z</time>
      </trkpt>
      <trkpt lat="43.11393" lon="-0.19484">
        <ele>328.4</ele>
        <time>2022-09-07T13:42:44Z</time>
      </trkpt>
      <trkpt lat="43.11421" lon="-0.19493">
        <ele>327.4</ele>
        <time>2022-09-07T13:42:49Z</time>
      </trkpt>
      <trkpt lat="43.11443" lon="-0.19501">
        <ele>327.4</ele>
        <time>2022-09-07T13:42:53Z</time>
      </trkpt>
      <trkpt lat="43.11472" lon="-0.1951">
        <ele>327.6</ele>
        <time>2022-09-07T13:42:59Z</time>
      </trkpt>
      <trkpt lat="43.11477" lon="-0.19512">
        <ele>327.4</ele>
        <time>2022-09-07T13:43:00Z</time>
      </trkpt>
      <trkpt lat="43.11511" lon="-0.19523">
        <ele>327.2</ele>
        <time>2022-09-07T13:43:07Z</time>
      </trkpt>
      <trkpt lat="43.11552" lon="-0.19537">
        <ele>326.8</ele>
        <time>2022-09-07T13:43:16Z</time>
      </trkpt>
      <trkpt lat="43.11556" lon="-0.19539">
        <ele>326.8</ele>
        <time>2022-09-07T13:43:17Z</time>
      </trkpt>
      <trkpt lat="43.11581" lon="-0.19549">
        <ele>326.4</ele>
        <time>2022-09-07T13:43:23Z</time>
      </trkpt>
      <trkpt lat="43.11603" lon="-0.19564">
        <ele>326</ele>
        <time>2022-09-07T13:43:28Z</time>
      </trkpt>
      <trkpt lat="43.11607" lon="-0.19567">
        <ele>325.8</ele>
        <time>2022-09-07T13:43:29Z</time>
      </trkpt>
      <trkpt lat="43.11639" lon="-0.19599">
        <ele>325.6</ele>
        <time>2022-09-07T13:43:37Z</time>
      </trkpt>
      <trkpt lat="43.11656" lon="-0.19627">
        <ele>325.6</ele>
        <time>2022-09-07T13:43:44Z</time>
      </trkpt>
      <trkpt lat="43.11664" lon="-0.1964">
        <ele>325.8</ele>
        <time>2022-09-07T13:43:48Z</time>
      </trkpt>
      <trkpt lat="43.11671" lon="-0.1965">
        <ele>325.8</ele>
        <time>2022-09-07T13:43:51Z</time>
      </trkpt>
      <trkpt lat="43.11686" lon="-0.19675">
        <ele>325.8</ele>
        <time>2022-09-07T13:43:58Z</time>
      </trkpt>
      <trkpt lat="43.11706" lon="-0.19708">
        <ele>325.6</ele>
        <time>2022-09-07T13:44:06Z</time>
      </trkpt>
      <trkpt lat="43.1171" lon="-0.19712">
        <ele>325.4</ele>
        <time>2022-09-07T13:44:07Z</time>
      </trkpt>
      <trkpt lat="43.1172" lon="-0.19729">
        <ele>325.4</ele>
        <time>2022-09-07T13:44:11Z</time>
      </trkpt>
      <trkpt lat="43.11723" lon="-0.19733">
        <ele>325</ele>
        <time>2022-09-07T13:44:12Z</time>
      </trkpt>
      <trkpt lat="43.11744" lon="-0.19763">
        <ele>325.2</ele>
        <time>2022-09-07T13:44:19Z</time>
      </trkpt>
      <trkpt lat="43.11772" lon="-0.19804">
        <ele>324.8</ele>
        <time>2022-09-07T13:44:28Z</time>
      </trkpt>
      <trkpt lat="43.11783" lon="-0.19818">
        <ele>324.8</ele>
        <time>2022-09-07T13:44:31Z</time>
      </trkpt>
      <trkpt lat="43.11791" lon="-0.19825">
        <ele>325.2</ele>
        <time>2022-09-07T13:44:33Z</time>
      </trkpt>
      <trkpt lat="43.11798" lon="-0.19833">
        <ele>325.2</ele>
        <time>2022-09-07T13:44:35Z</time>
      </trkpt>
      <trkpt lat="43.11809" lon="-0.1985">
        <ele>325</ele>
        <time>2022-09-07T13:44:39Z</time>
      </trkpt>
      <trkpt lat="43.11825" lon="-0.19888">
        <ele>324</ele>
        <time>2022-09-07T13:44:46Z</time>
      </trkpt>
      <trkpt lat="43.11827" lon="-0.19896">
        <ele>323.8</ele>
        <time>2022-09-07T13:44:47Z</time>
      </trkpt>
      <trkpt lat="43.11836" lon="-0.19924">
        <ele>323</ele>
        <time>2022-09-07T13:44:51Z</time>
      </trkpt>
      <trkpt lat="43.11844" lon="-0.19952">
        <ele>322.6</ele>
        <time>2022-09-07T13:44:55Z</time>
      </trkpt>
      <trkpt lat="43.11847" lon="-0.19976">
        <ele>323</ele>
        <time>2022-09-07T13:44:58Z</time>
      </trkpt>
      <trkpt lat="43.11853" lon="-0.20015">
        <ele>320.8</ele>
        <time>2022-09-07T13:45:02Z</time>
      </trkpt>
      <trkpt lat="43.11855" lon="-0.20025">
        <ele>321.2</ele>
        <time>2022-09-07T13:45:03Z</time>
      </trkpt>
      <trkpt lat="43.11859" lon="-0.20044">
        <ele>320.8</ele>
        <time>2022-09-07T13:45:05Z</time>
      </trkpt>
      <trkpt lat="43.1187" lon="-0.20072">
        <ele>319.8</ele>
        <time>2022-09-07T13:45:08Z</time>
      </trkpt>
      <trkpt lat="43.11885" lon="-0.20122">
        <ele>318.8</ele>
        <time>2022-09-07T13:45:13Z</time>
      </trkpt>
      <trkpt lat="43.11888" lon="-0.20131">
        <ele>318.6</ele>
        <time>2022-09-07T13:45:14Z</time>
      </trkpt>
      <trkpt lat="43.11895" lon="-0.20164">
        <ele>318</ele>
        <time>2022-09-07T13:45:18Z</time>
      </trkpt>
      <trkpt lat="43.11898" lon="-0.20179">
        <ele>318.2</ele>
        <time>2022-09-07T13:45:20Z</time>
      </trkpt>
      <trkpt lat="43.11903" lon="-0.20199">
        <ele>318.6</ele>
        <time>2022-09-07T13:45:23Z</time>
      </trkpt>
      <trkpt lat="43.11906" lon="-0.20206">
        <ele>318.6</ele>
        <time>2022-09-07T13:45:24Z</time>
      </trkpt>
      <trkpt lat="43.11915" lon="-0.2023">
        <ele>319.2</ele>
        <time>2022-09-07T13:45:28Z</time>
      </trkpt>
      <trkpt lat="43.11917" lon="-0.20235">
        <ele>319.4</ele>
        <time>2022-09-07T13:45:29Z</time>
      </trkpt>
      <trkpt lat="43.11932" lon="-0.20273">
        <ele>319.2</ele>
        <time>2022-09-07T13:45:35Z</time>
      </trkpt>
      <trkpt lat="43.11948" lon="-0.20301">
        <ele>318.8</ele>
        <time>2022-09-07T13:45:40Z</time>
      </trkpt>
      <trkpt lat="43.11967" lon="-0.20313">
        <ele>319</ele>
        <time>2022-09-07T13:45:44Z</time>
      </trkpt>
      <trkpt lat="43.11975" lon="-0.2032">
        <ele>319.2</ele>
        <time>2022-09-07T13:45:46Z</time>
      </trkpt>
      <trkpt lat="43.11982" lon="-0.20328">
        <ele>319.4</ele>
        <time>2022-09-07T13:45:48Z</time>
      </trkpt>
      <trkpt lat="43.12004" lon="-0.20352">
        <ele>319.6</ele>
        <time>2022-09-07T13:45:54Z</time>
      </trkpt>
      <trkpt lat="43.12005" lon="-0.20356">
        <ele>319.6</ele>
        <time>2022-09-07T13:45:55Z</time>
      </trkpt>
      <trkpt lat="43.12009" lon="-0.2036">
        <ele>319.6</ele>
        <time>2022-09-07T13:45:56Z</time>
      </trkpt>
      <trkpt lat="43.12016" lon="-0.20369">
        <ele>319.8</ele>
        <time>2022-09-07T13:45:58Z</time>
      </trkpt>
      <trkpt lat="43.12041" lon="-0.20399">
        <ele>319.8</ele>
        <time>2022-09-07T13:46:05Z</time>
      </trkpt>
      <trkpt lat="43.1206" lon="-0.20423">
        <ele>320.6</ele>
        <time>2022-09-07T13:46:11Z</time>
      </trkpt>
      <trkpt lat="43.12075" lon="-0.20441">
        <ele>320</ele>
        <time>2022-09-07T13:46:16Z</time>
      </trkpt>
      <trkpt lat="43.12083" lon="-0.20449">
        <ele>319.8</ele>
        <time>2022-09-07T13:46:18Z</time>
      </trkpt>
      <trkpt lat="43.12107" lon="-0.2047">
        <ele>319.8</ele>
        <time>2022-09-07T13:46:23Z</time>
      </trkpt>
      <trkpt lat="43.12129" lon="-0.20492">
        <ele>320</ele>
        <time>2022-09-07T13:46:28Z</time>
      </trkpt>
      <trkpt lat="43.12133" lon="-0.20497">
        <ele>320</ele>
        <time>2022-09-07T13:46:29Z</time>
      </trkpt>
      <trkpt lat="43.12155" lon="-0.20524">
        <ele>320.6</ele>
        <time>2022-09-07T13:46:35Z</time>
      </trkpt>
      <trkpt lat="43.12161" lon="-0.20532">
        <ele>320.8</ele>
        <time>2022-09-07T13:46:37Z</time>
      </trkpt>
      <trkpt lat="43.12182" lon="-0.20558">
        <ele>320.6</ele>
        <time>2022-09-07T13:46:44Z</time>
      </trkpt>
      <trkpt lat="43.12203" lon="-0.20585">
        <ele>320.2</ele>
        <time>2022-09-07T13:46:50Z</time>
      </trkpt>
      <trkpt lat="43.1221" lon="-0.20597">
        <ele>319.6</ele>
        <time>2022-09-07T13:46:52Z</time>
      </trkpt>
      <trkpt lat="43.12231" lon="-0.20625">
        <ele>318.4</ele>
        <time>2022-09-07T13:46:57Z</time>
      </trkpt>
      <trkpt lat="43.1226" lon="-0.20659">
        <ele>317.6</ele>
        <time>2022-09-07T13:47:04Z</time>
      </trkpt>
      <trkpt lat="43.12275" lon="-0.20676">
        <ele>318.6</ele>
        <time>2022-09-07T13:47:09Z</time>
      </trkpt>
      <trkpt lat="43.12292" lon="-0.20686">
        <ele>319</ele>
        <time>2022-09-07T13:47:15Z</time>
      </trkpt>
      <trkpt lat="43.12302" lon="-0.20683">
        <ele>319.8</ele>
        <time>2022-09-07T13:47:20Z</time>
      </trkpt>
      <trkpt lat="43.12312" lon="-0.2068">
        <ele>320.6</ele>
        <time>2022-09-07T13:47:25Z</time>
      </trkpt>
      <trkpt lat="43.12313" lon="-0.20679">
        <ele>320.8</ele>
        <time>2022-09-07T13:47:26Z</time>
      </trkpt>
      <trkpt lat="43.1232" lon="-0.20677">
        <ele>321.6</ele>
        <time>2022-09-07T13:47:31Z</time>
      </trkpt>
      <trkpt lat="43.1233" lon="-0.20677">
        <ele>322</ele>
        <time>2022-09-07T13:48:30Z</time>
      </trkpt>
      <trkpt lat="43.12335" lon="-0.20675">
        <ele>322.2</ele>
        <time>2022-09-07T13:48:32Z</time>
      </trkpt>
      <trkpt lat="43.12339" lon="-0.20673">
        <ele>322.2</ele>
        <time>2022-09-07T13:48:34Z</time>
      </trkpt>
      <trkpt lat="43.12345" lon="-0.20669">
        <ele>322.4</ele>
        <time>2022-09-07T13:49:01Z</time>
      </trkpt>
      <trkpt lat="43.12349" lon="-0.20668">
        <ele>322.2</ele>
        <time>2022-09-07T13:49:04Z</time>
      </trkpt>
      <trkpt lat="43.1236" lon="-0.20666">
        <ele>322</ele>
        <time>2022-09-07T13:49:10Z</time>
      </trkpt>
      <trkpt lat="43.12371" lon="-0.20678">
        <ele>321.4</ele>
        <time>2022-09-07T13:49:14Z</time>
      </trkpt>
      <trkpt lat="43.1238" lon="-0.20687">
        <ele>320.6</ele>
        <time>2022-09-07T13:49:16Z</time>
      </trkpt>
      <trkpt lat="43.12395" lon="-0.20704">
        <ele>319.8</ele>
        <time>2022-09-07T13:49:19Z</time>
      </trkpt>
      <trkpt lat="43.124" lon="-0.2071">
        <ele>318.8</ele>
        <time>2022-09-07T13:49:20Z</time>
      </trkpt>
      <trkpt lat="43.12412" lon="-0.20722">
        <ele>318.2</ele>
        <time>2022-09-07T13:49:22Z</time>
      </trkpt>
      <trkpt lat="43.12427" lon="-0.20732">
        <ele>317.6</ele>
        <time>2022-09-07T13:49:24Z</time>
      </trkpt>
      <trkpt lat="43.12442" lon="-0.20736">
        <ele>317</ele>
        <time>2022-09-07T13:49:26Z</time>
      </trkpt>
      <trkpt lat="43.12456" lon="-0.20739">
        <ele>316.6</ele>
        <time>2022-09-07T13:49:28Z</time>
      </trkpt>
      <trkpt lat="43.12463" lon="-0.2074">
        <ele>316.4</ele>
        <time>2022-09-07T13:49:29Z</time>
      </trkpt>
      <trkpt lat="43.12494" lon="-0.20744">
        <ele>316.6</ele>
        <time>2022-09-07T13:49:34Z</time>
      </trkpt>
      <trkpt lat="43.12523" lon="-0.20746">
        <ele>316.8</ele>
        <time>2022-09-07T13:49:40Z</time>
      </trkpt>
      <trkpt lat="43.12548" lon="-0.20746">
        <ele>317</ele>
        <time>2022-09-07T13:49:47Z</time>
      </trkpt>
      <trkpt lat="43.12564" lon="-0.20746">
        <ele>317.6</ele>
        <time>2022-09-07T13:49:52Z</time>
      </trkpt>
      <trkpt lat="43.1257" lon="-0.20746">
        <ele>317.8</ele>
        <time>2022-09-07T13:49:54Z</time>
      </trkpt>
      <trkpt lat="43.12592" lon="-0.20748">
        <ele>318.2</ele>
        <time>2022-09-07T13:50:01Z</time>
      </trkpt>
      <trkpt lat="43.12618" lon="-0.2075">
        <ele>318</ele>
        <time>2022-09-07T13:50:09Z</time>
      </trkpt>
      <trkpt lat="43.1264" lon="-0.2075">
        <ele>318</ele>
        <time>2022-09-07T13:50:16Z</time>
      </trkpt>
      <trkpt lat="43.12653" lon="-0.20751">
        <ele>318.6</ele>
        <time>2022-09-07T13:50:20Z</time>
      </trkpt>
      <trkpt lat="43.12663" lon="-0.20752">
        <ele>318.6</ele>
        <time>2022-09-07T13:50:23Z</time>
      </trkpt>
      <trkpt lat="43.12675" lon="-0.20751">
        <ele>319</ele>
        <time>2022-09-07T13:50:27Z</time>
      </trkpt>
      <trkpt lat="43.12696" lon="-0.20752">
        <ele>319.4</ele>
        <time>2022-09-07T13:50:34Z</time>
      </trkpt>
      <trkpt lat="43.1272" lon="-0.20752">
        <ele>319.6</ele>
        <time>2022-09-07T13:50:43Z</time>
      </trkpt>
      <trkpt lat="43.12729" lon="-0.20758">
        <ele>319.8</ele>
        <time>2022-09-07T13:50:47Z</time>
      </trkpt>
      <trkpt lat="43.12732" lon="-0.20761">
        <ele>319.8</ele>
        <time>2022-09-07T13:50:48Z</time>
      </trkpt>
      <trkpt lat="43.12734" lon="-0.20762">
        <ele>319.8</ele>
        <time>2022-09-07T13:50:49Z</time>
      </trkpt>
      <trkpt lat="43.12741" lon="-0.20763">
        <ele>320.2</ele>
        <time>2022-09-07T13:50:52Z</time>
      </trkpt>
      <trkpt lat="43.12743" lon="-0.20763">
        <ele>320.4</ele>
        <time>2022-09-07T13:50:53Z</time>
      </trkpt>
      <trkpt lat="43.1275" lon="-0.20763">
        <ele>320</ele>
        <time>2022-09-07T13:50:57Z</time>
      </trkpt>
      <trkpt lat="43.12759" lon="-0.20767">
        <ele>320</ele>
        <time>2022-09-07T13:51:03Z</time>
      </trkpt>
    </trkseg>
  </trk>
  <trk>
    <name><![CDATA[J4 - Far west - Montréjeau - Odos - superbe panorama sur les Pyrénées ☀️]]></name>
    <extensions>
      <line xmlns="http://www.topografix.com/GPX/gpx_style/0/2">
        <color>FFFF00</color>
        <width>4</width>
      </line>
    </extensions>
    <trkseg>
      <trkpt lat="43.08542" lon="0.56802">
        <ele>418</ele>
        <time>2022-09-06T07:19:48Z</time>
      </trkpt>
      <trkpt lat="43.08539" lon="0.56799">
        <ele>418</ele>
        <time>2022-09-06T07:20:01Z</time>
      </trkpt>
      <trkpt lat="43.08538" lon="0.56799">
        <ele>417.8</ele>
        <time>2022-09-06T07:20:03Z</time>
      </trkpt>
      <trkpt lat="43.08529" lon="0.56793">
        <ele>417.6</ele>
        <time>2022-09-06T07:20:09Z</time>
      </trkpt>
      <trkpt lat="43.08527" lon="0.5679">
        <ele>417.6</ele>
        <time>2022-09-06T07:20:11Z</time>
      </trkpt>
      <trkpt lat="43.08519" lon="0.56779">
        <ele>417.4</ele>
        <time>2022-09-06T07:20:15Z</time>
      </trkpt>
      <trkpt lat="43.08518" lon="0.56775">
        <ele>417.4</ele>
        <time>2022-09-06T07:20:16Z</time>
      </trkpt>
      <trkpt lat="43.08521" lon="0.56765">
        <ele>417.6</ele>
        <time>2022-09-06T07:20:20Z</time>
      </trkpt>
      <trkpt lat="43.08524" lon="0.56759">
        <ele>417.4</ele>
        <time>2022-09-06T07:20:22Z</time>
      </trkpt>
      <trkpt lat="43.08529" lon="0.56745">
        <ele>417</ele>
        <time>2022-09-06T07:20:27Z</time>
      </trkpt>
      <trkpt lat="43.08531" lon="0.56738">
        <ele>417</ele>
        <time>2022-09-06T07:20:29Z</time>
      </trkpt>
      <trkpt lat="43.08534" lon="0.56721">
        <ele>416.8</ele>
        <time>2022-09-06T07:20:34Z</time>
      </trkpt>
      <trkpt lat="43.08542" lon="0.5669">
        <ele>416.6</ele>
        <time>2022-09-06T07:20:43Z</time>
      </trkpt>
      <trkpt lat="43.08545" lon="0.56677">
        <ele>416.4</ele>
        <time>2022-09-06T07:20:48Z</time>
      </trkpt>
      <trkpt lat="43.08543" lon="0.56669">
        <ele>416.2</ele>
        <time>2022-09-06T07:20:52Z</time>
      </trkpt>
      <trkpt lat="43.08538" lon="0.56668">
        <ele>416.2</ele>
        <time>2022-09-06T07:20:54Z</time>
      </trkpt>
      <trkpt lat="43.08529" lon="0.56663">
        <ele>416</ele>
        <time>2022-09-06T07:20:57Z</time>
      </trkpt>
      <trkpt lat="43.08524" lon="0.56658">
        <ele>415.6</ele>
        <time>2022-09-06T07:20:59Z</time>
      </trkpt>
      <trkpt lat="43.08523" lon="0.56655">
        <ele>415.6</ele>
        <time>2022-09-06T07:21:00Z</time>
      </trkpt>
      <trkpt lat="43.08518" lon="0.56638">
        <ele>415</ele>
        <time>2022-09-06T07:21:06Z</time>
      </trkpt>
      <trkpt lat="43.08519" lon="0.56615">
        <ele>414.8</ele>
        <time>2022-09-06T07:21:12Z</time>
      </trkpt>
      <trkpt lat="43.0852" lon="0.56591">
        <ele>414.8</ele>
        <time>2022-09-06T07:21:18Z</time>
      </trkpt>
      <trkpt lat="43.08514" lon="0.5656">
        <ele>414.8</ele>
        <time>2022-09-06T07:21:26Z</time>
      </trkpt>
      <trkpt lat="43.08501" lon="0.56526">
        <ele>414.6</ele>
        <time>2022-09-06T07:21:35Z</time>
      </trkpt>
      <trkpt lat="43.08493" lon="0.56499">
        <ele>414.6</ele>
        <time>2022-09-06T07:21:43Z</time>
      </trkpt>
      <trkpt lat="43.08488" lon="0.56477">
        <ele>414.6</ele>
        <time>2022-09-06T07:21:51Z</time>
      </trkpt>
      <trkpt lat="43.08484" lon="0.56459">
        <ele>414.6</ele>
        <time>2022-09-06T07:21:57Z</time>
      </trkpt>
      <trkpt lat="43.08481" lon="0.56437">
        <ele>414.8</ele>
        <time>2022-09-06T07:22:04Z</time>
      </trkpt>
      <trkpt lat="43.08479" lon="0.56414">
        <ele>414.8</ele>
        <time>2022-09-06T07:22:10Z</time>
      </trkpt>
      <trkpt lat="43.08472" lon="0.56398">
        <ele>414.6</ele>
        <time>2022-09-06T07:22:16Z</time>
      </trkpt>
      <trkpt lat="43.08471" lon="0.56391">
        <ele>414.6</ele>
        <time>2022-09-06T07:22:19Z</time>
      </trkpt>
      <trkpt lat="43.08469" lon="0.56385">
        <ele>414.6</ele>
        <time>2022-09-06T07:22:21Z</time>
      </trkpt>
      <trkpt lat="43.0847" lon="0.5637">
        <ele>415.4</ele>
        <time>2022-09-06T07:22:27Z</time>
      </trkpt>
      <trkpt lat="43.08467" lon="0.56358">
        <ele>416</ele>
        <time>2022-09-06T07:22:32Z</time>
      </trkpt>
      <trkpt lat="43.08459" lon="0.5634">
        <ele>417</ele>
        <time>2022-09-06T07:22:40Z</time>
      </trkpt>
      <trkpt lat="43.08451" lon="0.5632">
        <ele>418</ele>
        <time>2022-09-06T07:22:48Z</time>
      </trkpt>
      <trkpt lat="43.08448" lon="0.56315">
        <ele>418.2</ele>
        <time>2022-09-06T07:22:50Z</time>
      </trkpt>
      <trkpt lat="43.08439" lon="0.56299">
        <ele>418.4</ele>
        <time>2022-09-06T07:22:56Z</time>
      </trkpt>
      <trkpt lat="43.08427" lon="0.56279">
        <ele>418.8</ele>
        <time>2022-09-06T07:23:04Z</time>
      </trkpt>
      <trkpt lat="43.08418" lon="0.56259">
        <ele>419.2</ele>
        <time>2022-09-06T07:23:11Z</time>
      </trkpt>
      <trkpt lat="43.08415" lon="0.56253">
        <ele>419.2</ele>
        <time>2022-09-06T07:23:13Z</time>
      </trkpt>
      <trkpt lat="43.08406" lon="0.56233">
        <ele>419.4</ele>
        <time>2022-09-06T07:23:20Z</time>
      </trkpt>
      <trkpt lat="43.08396" lon="0.56224">
        <ele>419.8</ele>
        <time>2022-09-06T07:23:26Z</time>
      </trkpt>
      <trkpt lat="43.08377" lon="0.56226">
        <ele>419.8</ele>
        <time>2022-09-06T07:23:33Z</time>
      </trkpt>
      <trkpt lat="43.08349" lon="0.56231">
        <ele>419.6</ele>
        <time>2022-09-06T07:23:42Z</time>
      </trkpt>
      <trkpt lat="43.08336" lon="0.56231">
        <ele>419.6</ele>
        <time>2022-09-06T07:23:47Z</time>
      </trkpt>
      <trkpt lat="43.08335" lon="0.56228">
        <ele>419.6</ele>
        <time>2022-09-06T07:23:48Z</time>
      </trkpt>
      <trkpt lat="43.08332" lon="0.56209">
        <ele>420.2</ele>
        <time>2022-09-06T07:23:53Z</time>
      </trkpt>
      <trkpt lat="43.08331" lon="0.56206">
        <ele>420.2</ele>
        <time>2022-09-06T07:23:54Z</time>
      </trkpt>
      <trkpt lat="43.08331" lon="0.56202">
        <ele>420.4</ele>
        <time>2022-09-06T07:23:55Z</time>
      </trkpt>
      <trkpt lat="43.08325" lon="0.56171">
        <ele>421</ele>
        <time>2022-09-06T07:24:03Z</time>
      </trkpt>
      <trkpt lat="43.08323" lon="0.56159">
        <ele>421.4</ele>
        <time>2022-09-06T07:24:06Z</time>
      </trkpt>
      <trkpt lat="43.0832" lon="0.56144">
        <ele>421.6</ele>
        <time>2022-09-06T07:24:10Z</time>
      </trkpt>
      <trkpt lat="43.08317" lon="0.56129">
        <ele>421.8</ele>
        <time>2022-09-06T07:24:17Z</time>
      </trkpt>
      <trkpt lat="43.08315" lon="0.56132">
        <ele>421.8</ele>
        <time>2022-09-06T07:24:20Z</time>
      </trkpt>
      <trkpt lat="43.08316" lon="0.5614">
        <ele>421.8</ele>
        <time>2022-09-06T07:24:23Z</time>
      </trkpt>
      <trkpt lat="43.08318" lon="0.56149">
        <ele>421.8</ele>
        <time>2022-09-06T07:24:26Z</time>
      </trkpt>
      <trkpt lat="43.08319" lon="0.56169">
        <ele>421.4</ele>
        <time>2022-09-06T07:24:31Z</time>
      </trkpt>
      <trkpt lat="43.08316" lon="0.56172">
        <ele>421.4</ele>
        <time>2022-09-06T07:24:32Z</time>
      </trkpt>
      <trkpt lat="43.08304" lon="0.56178">
        <ele>421.6</ele>
        <time>2022-09-06T07:24:36Z</time>
      </trkpt>
      <trkpt lat="43.08298" lon="0.5618">
        <ele>421.4</ele>
        <time>2022-09-06T07:24:38Z</time>
      </trkpt>
      <trkpt lat="43.0829" lon="0.56182">
        <ele>421</ele>
        <time>2022-09-06T07:24:41Z</time>
      </trkpt>
      <trkpt lat="43.08279" lon="0.56185">
        <ele>420.2</ele>
        <time>2022-09-06T07:24:45Z</time>
      </trkpt>
      <trkpt lat="43.08277" lon="0.56184">
        <ele>420</ele>
        <time>2022-09-06T07:24:46Z</time>
      </trkpt>
      <trkpt lat="43.08274" lon="0.56175">
        <ele>420</ele>
        <time>2022-09-06T07:24:49Z</time>
      </trkpt>
      <trkpt lat="43.0827" lon="0.56151">
        <ele>420.2</ele>
        <time>2022-09-06T07:24:55Z</time>
      </trkpt>
      <trkpt lat="43.08262" lon="0.56111">
        <ele>420.6</ele>
        <time>2022-09-06T07:25:04Z</time>
      </trkpt>
      <trkpt lat="43.08254" lon="0.56073">
        <ele>421.2</ele>
        <time>2022-09-06T07:25:12Z</time>
      </trkpt>
      <trkpt lat="43.08247" lon="0.56045">
        <ele>421.2</ele>
        <time>2022-09-06T07:25:18Z</time>
      </trkpt>
      <trkpt lat="43.08242" lon="0.56027">
        <ele>421.2</ele>
        <time>2022-09-06T07:25:22Z</time>
      </trkpt>
      <trkpt lat="43.08229" lon="0.55981">
        <ele>421.4</ele>
        <time>2022-09-06T07:25:32Z</time>
      </trkpt>
      <trkpt lat="43.08217" lon="0.55934">
        <ele>421.8</ele>
        <time>2022-09-06T07:25:42Z</time>
      </trkpt>
      <trkpt lat="43.08205" lon="0.55892">
        <ele>422.4</ele>
        <time>2022-09-06T07:25:51Z</time>
      </trkpt>
      <trkpt lat="43.08203" lon="0.55887">
        <ele>422.4</ele>
        <time>2022-09-06T07:25:52Z</time>
      </trkpt>
      <trkpt lat="43.08184" lon="0.55835">
        <ele>422.4</ele>
        <time>2022-09-06T07:26:04Z</time>
      </trkpt>
      <trkpt lat="43.08168" lon="0.55805">
        <ele>422.6</ele>
        <time>2022-09-06T07:26:12Z</time>
      </trkpt>
      <trkpt lat="43.08153" lon="0.55776">
        <ele>422.8</ele>
        <time>2022-09-06T07:26:20Z</time>
      </trkpt>
      <trkpt lat="43.08143" lon="0.55754">
        <ele>423</ele>
        <time>2022-09-06T07:26:26Z</time>
      </trkpt>
      <trkpt lat="43.08128" lon="0.55717">
        <ele>423.2</ele>
        <time>2022-09-06T07:26:35Z</time>
      </trkpt>
      <trkpt lat="43.08118" lon="0.55676">
        <ele>423.2</ele>
        <time>2022-09-06T07:26:44Z</time>
      </trkpt>
      <trkpt lat="43.08112" lon="0.55642">
        <ele>423.4</ele>
        <time>2022-09-06T07:26:51Z</time>
      </trkpt>
      <trkpt lat="43.0811" lon="0.55633">
        <ele>423.6</ele>
        <time>2022-09-06T07:26:53Z</time>
      </trkpt>
      <trkpt lat="43.08105" lon="0.55601">
        <ele>423.6</ele>
        <time>2022-09-06T07:27:01Z</time>
      </trkpt>
      <trkpt lat="43.081" lon="0.55578">
        <ele>423.8</ele>
        <time>2022-09-06T07:27:08Z</time>
      </trkpt>
      <trkpt lat="43.08097" lon="0.55562">
        <ele>423.6</ele>
        <time>2022-09-06T07:27:14Z</time>
      </trkpt>
      <trkpt lat="43.08098" lon="0.55547">
        <ele>423.6</ele>
        <time>2022-09-06T07:27:19Z</time>
      </trkpt>
      <trkpt lat="43.08095" lon="0.55531">
        <ele>423.6</ele>
        <time>2022-09-06T07:27:23Z</time>
      </trkpt>
      <trkpt lat="43.08094" lon="0.55523">
        <ele>423.8</ele>
        <time>2022-09-06T07:27:25Z</time>
      </trkpt>
      <trkpt lat="43.08089" lon="0.5549">
        <ele>424</ele>
        <time>2022-09-06T07:27:33Z</time>
      </trkpt>
      <trkpt lat="43.08085" lon="0.5545">
        <ele>424</ele>
        <time>2022-09-06T07:27:43Z</time>
      </trkpt>
      <trkpt lat="43.08083" lon="0.55426">
        <ele>423.8</ele>
        <time>2022-09-06T07:27:50Z</time>
      </trkpt>
      <trkpt lat="43.08081" lon="0.55412">
        <ele>423.6</ele>
        <time>2022-09-06T07:27:56Z</time>
      </trkpt>
      <trkpt lat="43.08079" lon="0.55398">
        <ele>423.6</ele>
        <time>2022-09-06T07:28:02Z</time>
      </trkpt>
      <trkpt lat="43.0808" lon="0.55374">
        <ele>423.2</ele>
        <time>2022-09-06T07:28:09Z</time>
      </trkpt>
      <trkpt lat="43.08082" lon="0.55353">
        <ele>423.4</ele>
        <time>2022-09-06T07:28:16Z</time>
      </trkpt>
      <trkpt lat="43.08085" lon="0.55325">
        <ele>423.4</ele>
        <time>2022-09-06T07:28:23Z</time>
      </trkpt>
      <trkpt lat="43.08088" lon="0.55294">
        <ele>423.4</ele>
        <time>2022-09-06T07:28:29Z</time>
      </trkpt>
      <trkpt lat="43.08092" lon="0.55262">
        <ele>423.6</ele>
        <time>2022-09-06T07:28:36Z</time>
      </trkpt>
      <trkpt lat="43.08094" lon="0.55229">
        <ele>424</ele>
        <time>2022-09-06T07:28:43Z</time>
      </trkpt>
      <trkpt lat="43.08094" lon="0.55195">
        <ele>424</ele>
        <time>2022-09-06T07:28:52Z</time>
      </trkpt>
      <trkpt lat="43.08094" lon="0.55174">
        <ele>424.2</ele>
        <time>2022-09-06T07:28:59Z</time>
      </trkpt>
      <trkpt lat="43.08094" lon="0.55165">
        <ele>424</ele>
        <time>2022-09-06T07:29:04Z</time>
      </trkpt>
      <trkpt lat="43.08094" lon="0.55157">
        <ele>424</ele>
        <time>2022-09-06T07:31:08Z</time>
      </trkpt>
      <trkpt lat="43.08095" lon="0.5515">
        <ele>424.2</ele>
        <time>2022-09-06T07:31:10Z</time>
      </trkpt>
      <trkpt lat="43.08096" lon="0.55134">
        <ele>424.4</ele>
        <time>2022-09-06T07:31:14Z</time>
      </trkpt>
      <trkpt lat="43.08097" lon="0.55124">
        <ele>424.2</ele>
        <time>2022-09-06T07:31:16Z</time>
      </trkpt>
      <trkpt lat="43.081" lon="0.55095">
        <ele>424</ele>
        <time>2022-09-06T07:31:22Z</time>
      </trkpt>
      <trkpt lat="43.08103" lon="0.55063">
        <ele>423.8</ele>
        <time>2022-09-06T07:31:29Z</time>
      </trkpt>
      <trkpt lat="43.08105" lon="0.55035">
        <ele>424.2</ele>
        <time>2022-09-06T07:31:35Z</time>
      </trkpt>
      <trkpt lat="43.08108" lon="0.55001">
        <ele>424</ele>
        <time>2022-09-06T07:31:42Z</time>
      </trkpt>
      <trkpt lat="43.08111" lon="0.5497">
        <ele>424</ele>
        <time>2022-09-06T07:31:48Z</time>
      </trkpt>
      <trkpt lat="43.08113" lon="0.54942">
        <ele>424.2</ele>
        <time>2022-09-06T07:31:54Z</time>
      </trkpt>
      <trkpt lat="43.08117" lon="0.54911">
        <ele>424.6</ele>
        <time>2022-09-06T07:32:01Z</time>
      </trkpt>
      <trkpt lat="43.08121" lon="0.54866">
        <ele>425.4</ele>
        <time>2022-09-06T07:32:10Z</time>
      </trkpt>
      <trkpt lat="43.08121" lon="0.54861">
        <ele>425.4</ele>
        <time>2022-09-06T07:32:11Z</time>
      </trkpt>
      <trkpt lat="43.08123" lon="0.54827">
        <ele>425.6</ele>
        <time>2022-09-06T07:32:18Z</time>
      </trkpt>
      <trkpt lat="43.08125" lon="0.54794">
        <ele>426</ele>
        <time>2022-09-06T07:32:26Z</time>
      </trkpt>
      <trkpt lat="43.08127" lon="0.54755">
        <ele>426</ele>
        <time>2022-09-06T07:32:34Z</time>
      </trkpt>
      <trkpt lat="43.08129" lon="0.54718">
        <ele>425.6</ele>
        <time>2022-09-06T07:32:41Z</time>
      </trkpt>
      <trkpt lat="43.08131" lon="0.54683">
        <ele>425.4</ele>
        <time>2022-09-06T07:32:48Z</time>
      </trkpt>
      <trkpt lat="43.08132" lon="0.54672">
        <ele>425.4</ele>
        <time>2022-09-06T07:32:50Z</time>
      </trkpt>
      <trkpt lat="43.08136" lon="0.54623">
        <ele>425.2</ele>
        <time>2022-09-06T07:32:59Z</time>
      </trkpt>
      <trkpt lat="43.08137" lon="0.54605">
        <ele>425</ele>
        <time>2022-09-06T07:33:02Z</time>
      </trkpt>
      <trkpt lat="43.08139" lon="0.5459">
        <ele>425</ele>
        <time>2022-09-06T07:33:05Z</time>
      </trkpt>
      <trkpt lat="43.08137" lon="0.54558">
        <ele>424.6</ele>
        <time>2022-09-06T07:33:12Z</time>
      </trkpt>
      <trkpt lat="43.08129" lon="0.5454">
        <ele>425.4</ele>
        <time>2022-09-06T07:33:17Z</time>
      </trkpt>
      <trkpt lat="43.08125" lon="0.54528">
        <ele>426.4</ele>
        <time>2022-09-06T07:33:22Z</time>
      </trkpt>
      <trkpt lat="43.08123" lon="0.54523">
        <ele>427</ele>
        <time>2022-09-06T07:33:24Z</time>
      </trkpt>
      <trkpt lat="43.08121" lon="0.54516">
        <ele>427.6</ele>
        <time>2022-09-06T07:33:27Z</time>
      </trkpt>
      <trkpt lat="43.08117" lon="0.54506">
        <ele>428.4</ele>
        <time>2022-09-06T07:33:31Z</time>
      </trkpt>
      <trkpt lat="43.08114" lon="0.54496">
        <ele>428.8</ele>
        <time>2022-09-06T07:33:35Z</time>
      </trkpt>
      <trkpt lat="43.08109" lon="0.54485">
        <ele>429.2</ele>
        <time>2022-09-06T07:33:39Z</time>
      </trkpt>
      <trkpt lat="43.08099" lon="0.54461">
        <ele>429.6</ele>
        <time>2022-09-06T07:33:48Z</time>
      </trkpt>
      <trkpt lat="43.08096" lon="0.54455">
        <ele>429.8</ele>
        <time>2022-09-06T07:33:50Z</time>
      </trkpt>
      <trkpt lat="43.08091" lon="0.54447">
        <ele>430.2</ele>
        <time>2022-09-06T07:33:54Z</time>
      </trkpt>
      <trkpt lat="43.08086" lon="0.54431">
        <ele>430.6</ele>
        <time>2022-09-06T07:34:02Z</time>
      </trkpt>
      <trkpt lat="43.08078" lon="0.54413">
        <ele>430.6</ele>
        <time>2022-09-06T07:34:09Z</time>
      </trkpt>
      <trkpt lat="43.08067" lon="0.54391">
        <ele>430.6</ele>
        <time>2022-09-06T07:34:18Z</time>
      </trkpt>
      <trkpt lat="43.08064" lon="0.54384">
        <ele>430.8</ele>
        <time>2022-09-06T07:34:21Z</time>
      </trkpt>
      <trkpt lat="43.08057" lon="0.5437">
        <ele>431</ele>
        <time>2022-09-06T07:34:26Z</time>
      </trkpt>
      <trkpt lat="43.08042" lon="0.54339">
        <ele>431.8</ele>
        <time>2022-09-06T07:34:36Z</time>
      </trkpt>
      <trkpt lat="43.08036" lon="0.54327">
        <ele>431.8</ele>
        <time>2022-09-06T07:34:40Z</time>
      </trkpt>
      <trkpt lat="43.08028" lon="0.54313">
        <ele>432.2</ele>
        <time>2022-09-06T07:34:45Z</time>
      </trkpt>
      <trkpt lat="43.08017" lon="0.5429">
        <ele>432.4</ele>
        <time>2022-09-06T07:34:53Z</time>
      </trkpt>
      <trkpt lat="43.08007" lon="0.54269">
        <ele>432.6</ele>
        <time>2022-09-06T07:35:01Z</time>
      </trkpt>
      <trkpt lat="43.08002" lon="0.54259">
        <ele>433</ele>
        <time>2022-09-06T07:35:05Z</time>
      </trkpt>
      <trkpt lat="43.07997" lon="0.54251">
        <ele>432.8</ele>
        <time>2022-09-06T07:35:09Z</time>
      </trkpt>
      <trkpt lat="43.07986" lon="0.54231">
        <ele>433</ele>
        <time>2022-09-06T07:35:17Z</time>
      </trkpt>
      <trkpt lat="43.07974" lon="0.54209">
        <ele>432.8</ele>
        <time>2022-09-06T07:35:24Z</time>
      </trkpt>
      <trkpt lat="43.07955" lon="0.54172">
        <ele>432</ele>
        <time>2022-09-06T07:35:34Z</time>
      </trkpt>
      <trkpt lat="43.07949" lon="0.54157">
        <ele>431.8</ele>
        <time>2022-09-06T07:35:38Z</time>
      </trkpt>
      <trkpt lat="43.07944" lon="0.54149">
        <ele>431.8</ele>
        <time>2022-09-06T07:35:40Z</time>
      </trkpt>
      <trkpt lat="43.07931" lon="0.54115">
        <ele>431</ele>
        <time>2022-09-06T07:35:48Z</time>
      </trkpt>
      <trkpt lat="43.07927" lon="0.54105">
        <ele>430.8</ele>
        <time>2022-09-06T07:35:50Z</time>
      </trkpt>
      <trkpt lat="43.07916" lon="0.54075">
        <ele>430</ele>
        <time>2022-09-06T07:35:56Z</time>
      </trkpt>
      <trkpt lat="43.07913" lon="0.54071">
        <ele>429.8</ele>
        <time>2022-09-06T07:35:57Z</time>
      </trkpt>
      <trkpt lat="43.07908" lon="0.54061">
        <ele>429.6</ele>
        <time>2022-09-06T07:35:59Z</time>
      </trkpt>
      <trkpt lat="43.07902" lon="0.54044">
        <ele>429.2</ele>
        <time>2022-09-06T07:36:02Z</time>
      </trkpt>
      <trkpt lat="43.07896" lon="0.54019">
        <ele>428.6</ele>
        <time>2022-09-06T07:36:06Z</time>
      </trkpt>
      <trkpt lat="43.07891" lon="0.53993">
        <ele>428.4</ele>
        <time>2022-09-06T07:36:10Z</time>
      </trkpt>
      <trkpt lat="43.07884" lon="0.53956">
        <ele>428</ele>
        <time>2022-09-06T07:36:17Z</time>
      </trkpt>
      <trkpt lat="43.07881" lon="0.5395">
        <ele>427.6</ele>
        <time>2022-09-06T07:36:19Z</time>
      </trkpt>
      <trkpt lat="43.07878" lon="0.53947">
        <ele>427.6</ele>
        <time>2022-09-06T07:36:21Z</time>
      </trkpt>
      <trkpt lat="43.07874" lon="0.53941">
        <ele>427.4</ele>
        <time>2022-09-06T07:36:47Z</time>
      </trkpt>
      <trkpt lat="43.07874" lon="0.53935">
        <ele>427.4</ele>
        <time>2022-09-06T07:36:49Z</time>
      </trkpt>
      <trkpt lat="43.07876" lon="0.5393">
        <ele>427.2</ele>
        <time>2022-09-06T07:36:51Z</time>
      </trkpt>
      <trkpt lat="43.07875" lon="0.53917">
        <ele>427.4</ele>
        <time>2022-09-06T07:36:55Z</time>
      </trkpt>
      <trkpt lat="43.0787" lon="0.53892">
        <ele>427.4</ele>
        <time>2022-09-06T07:37:02Z</time>
      </trkpt>
      <trkpt lat="43.07866" lon="0.53874">
        <ele>427</ele>
        <time>2022-09-06T07:37:09Z</time>
      </trkpt>
      <trkpt lat="43.07864" lon="0.53864">
        <ele>426.6</ele>
        <time>2022-09-06T07:37:15Z</time>
      </trkpt>
      <trkpt lat="43.07864" lon="0.53859">
        <ele>426.6</ele>
        <time>2022-09-06T07:37:53Z</time>
      </trkpt>
      <trkpt lat="43.07863" lon="0.53855">
        <ele>426.6</ele>
        <time>2022-09-06T07:37:55Z</time>
      </trkpt>
      <trkpt lat="43.07861" lon="0.53844">
        <ele>426.6</ele>
        <time>2022-09-06T07:38:00Z</time>
      </trkpt>
      <trkpt lat="43.0786" lon="0.5384">
        <ele>426.6</ele>
        <time>2022-09-06T07:38:02Z</time>
      </trkpt>
      <trkpt lat="43.0786" lon="0.53836">
        <ele>426.4</ele>
        <time>2022-09-06T07:38:04Z</time>
      </trkpt>
      <trkpt lat="43.07859" lon="0.53821">
        <ele>426.4</ele>
        <time>2022-09-06T07:38:10Z</time>
      </trkpt>
      <trkpt lat="43.07858" lon="0.53807">
        <ele>426.2</ele>
        <time>2022-09-06T07:38:16Z</time>
      </trkpt>
      <trkpt lat="43.07856" lon="0.53788">
        <ele>426</ele>
        <time>2022-09-06T07:38:23Z</time>
      </trkpt>
      <trkpt lat="43.07855" lon="0.53762">
        <ele>425.6</ele>
        <time>2022-09-06T07:38:31Z</time>
      </trkpt>
      <trkpt lat="43.07854" lon="0.53753">
        <ele>425.4</ele>
        <time>2022-09-06T07:38:34Z</time>
      </trkpt>
      <trkpt lat="43.07852" lon="0.53733">
        <ele>425.2</ele>
        <time>2022-09-06T07:38:40Z</time>
      </trkpt>
      <trkpt lat="43.07849" lon="0.537">
        <ele>424.6</ele>
        <time>2022-09-06T07:38:49Z</time>
      </trkpt>
      <trkpt lat="43.07848" lon="0.53678">
        <ele>424.4</ele>
        <time>2022-09-06T07:38:54Z</time>
      </trkpt>
      <trkpt lat="43.07848" lon="0.53666">
        <ele>424</ele>
        <time>2022-09-06T07:38:57Z</time>
      </trkpt>
      <trkpt lat="43.07848" lon="0.53661">
        <ele>424</ele>
        <time>2022-09-06T07:38:59Z</time>
      </trkpt>
      <trkpt lat="43.07849" lon="0.53653">
        <ele>423.6</ele>
        <time>2022-09-06T07:39:02Z</time>
      </trkpt>
      <trkpt lat="43.0785" lon="0.53647">
        <ele>423.2</ele>
        <time>2022-09-06T07:39:04Z</time>
      </trkpt>
      <trkpt lat="43.07852" lon="0.53639">
        <ele>423</ele>
        <time>2022-09-06T07:39:07Z</time>
      </trkpt>
      <trkpt lat="43.07857" lon="0.53626">
        <ele>422.2</ele>
        <time>2022-09-06T07:39:12Z</time>
      </trkpt>
      <trkpt lat="43.07858" lon="0.53623">
        <ele>421.6</ele>
        <time>2022-09-06T07:39:13Z</time>
      </trkpt>
      <trkpt lat="43.07859" lon="0.5362">
        <ele>421.2</ele>
        <time>2022-09-06T07:39:14Z</time>
      </trkpt>
      <trkpt lat="43.07868" lon="0.53604">
        <ele>420</ele>
        <time>2022-09-06T07:39:19Z</time>
      </trkpt>
      <trkpt lat="43.07876" lon="0.53586">
        <ele>419</ele>
        <time>2022-09-06T07:39:23Z</time>
      </trkpt>
      <trkpt lat="43.07879" lon="0.53576">
        <ele>418.2</ele>
        <time>2022-09-06T07:39:25Z</time>
      </trkpt>
      <trkpt lat="43.0788" lon="0.53572">
        <ele>417.6</ele>
        <time>2022-09-06T07:39:26Z</time>
      </trkpt>
      <trkpt lat="43.07884" lon="0.53559">
        <ele>416.8</ele>
        <time>2022-09-06T07:39:29Z</time>
      </trkpt>
      <trkpt lat="43.07887" lon="0.53556">
        <ele>416.4</ele>
        <time>2022-09-06T07:39:30Z</time>
      </trkpt>
      <trkpt lat="43.07894" lon="0.53546">
        <ele>415.2</ele>
        <time>2022-09-06T07:39:33Z</time>
      </trkpt>
      <trkpt lat="43.07896" lon="0.53542">
        <ele>414.8</ele>
        <time>2022-09-06T07:39:34Z</time>
      </trkpt>
      <trkpt lat="43.07901" lon="0.53535">
        <ele>413.8</ele>
        <time>2022-09-06T07:39:36Z</time>
      </trkpt>
      <trkpt lat="43.07909" lon="0.53523">
        <ele>412.4</ele>
        <time>2022-09-06T07:39:40Z</time>
      </trkpt>
      <trkpt lat="43.07919" lon="0.53513">
        <ele>411.4</ele>
        <time>2022-09-06T07:39:45Z</time>
      </trkpt>
      <trkpt lat="43.07919" lon="0.53511">
        <ele>411.2</ele>
        <time>2022-09-06T07:39:46Z</time>
      </trkpt>
      <trkpt lat="43.07837" lon="0.53389">
        <ele>422</ele>
        <time>2022-09-06T07:41:12Z</time>
      </trkpt>
      <trkpt lat="43.07833" lon="0.53373">
        <ele>422.2</ele>
        <time>2022-09-06T07:41:19Z</time>
      </trkpt>
      <trkpt lat="43.07831" lon="0.5337">
        <ele>422.2</ele>
        <time>2022-09-06T07:41:20Z</time>
      </trkpt>
      <trkpt lat="43.07827" lon="0.53357">
        <ele>422.4</ele>
        <time>2022-09-06T07:41:25Z</time>
      </trkpt>
      <trkpt lat="43.07823" lon="0.53347">
        <ele>422.4</ele>
        <time>2022-09-06T07:41:29Z</time>
      </trkpt>
      <trkpt lat="43.0782" lon="0.53339">
        <ele>422.4</ele>
        <time>2022-09-06T07:41:32Z</time>
      </trkpt>
      <trkpt lat="43.07816" lon="0.53318">
        <ele>422</ele>
        <time>2022-09-06T07:41:39Z</time>
      </trkpt>
      <trkpt lat="43.07813" lon="0.53297">
        <ele>421.6</ele>
        <time>2022-09-06T07:41:45Z</time>
      </trkpt>
      <trkpt lat="43.07809" lon="0.53276">
        <ele>421.4</ele>
        <time>2022-09-06T07:41:50Z</time>
      </trkpt>
      <trkpt lat="43.07806" lon="0.53254">
        <ele>421</ele>
        <time>2022-09-06T07:41:55Z</time>
      </trkpt>
      <trkpt lat="43.07803" lon="0.53224">
        <ele>420.8</ele>
        <time>2022-09-06T07:42:01Z</time>
      </trkpt>
      <trkpt lat="43.07801" lon="0.53195">
        <ele>420.2</ele>
        <time>2022-09-06T07:42:08Z</time>
      </trkpt>
      <trkpt lat="43.07799" lon="0.5318">
        <ele>419.8</ele>
        <time>2022-09-06T07:42:13Z</time>
      </trkpt>
      <trkpt lat="43.07798" lon="0.53177">
        <ele>419.6</ele>
        <time>2022-09-06T07:42:14Z</time>
      </trkpt>
      <trkpt lat="43.07793" lon="0.53172">
        <ele>419.4</ele>
        <time>2022-09-06T07:42:16Z</time>
      </trkpt>
      <trkpt lat="43.07786" lon="0.53174">
        <ele>419.2</ele>
        <time>2022-09-06T07:42:18Z</time>
      </trkpt>
      <trkpt lat="43.07779" lon="0.53177">
        <ele>418.8</ele>
        <time>2022-09-06T07:42:20Z</time>
      </trkpt>
      <trkpt lat="43.07765" lon="0.53184">
        <ele>418</ele>
        <time>2022-09-06T07:42:23Z</time>
      </trkpt>
      <trkpt lat="43.07759" lon="0.53188">
        <ele>417.6</ele>
        <time>2022-09-06T07:42:24Z</time>
      </trkpt>
      <trkpt lat="43.07746" lon="0.53193">
        <ele>416.4</ele>
        <time>2022-09-06T07:42:26Z</time>
      </trkpt>
      <trkpt lat="43.0774" lon="0.53195">
        <ele>416</ele>
        <time>2022-09-06T07:42:27Z</time>
      </trkpt>
      <trkpt lat="43.07726" lon="0.53198">
        <ele>415.2</ele>
        <time>2022-09-06T07:42:29Z</time>
      </trkpt>
      <trkpt lat="43.07712" lon="0.532">
        <ele>414</ele>
        <time>2022-09-06T07:42:31Z</time>
      </trkpt>
      <trkpt lat="43.07705" lon="0.53199">
        <ele>413.6</ele>
        <time>2022-09-06T07:42:32Z</time>
      </trkpt>
      <trkpt lat="43.07692" lon="0.53194">
        <ele>413</ele>
        <time>2022-09-06T07:42:34Z</time>
      </trkpt>
      <trkpt lat="43.07687" lon="0.53189">
        <ele>412.6</ele>
        <time>2022-09-06T07:42:35Z</time>
      </trkpt>
      <trkpt lat="43.07679" lon="0.53175">
        <ele>411.6</ele>
        <time>2022-09-06T07:42:37Z</time>
      </trkpt>
      <trkpt lat="43.07677" lon="0.53168">
        <ele>411</ele>
        <time>2022-09-06T07:42:38Z</time>
      </trkpt>
      <trkpt lat="43.07673" lon="0.53157">
        <ele>410.4</ele>
        <time>2022-09-06T07:42:40Z</time>
      </trkpt>
      <trkpt lat="43.07669" lon="0.53154">
        <ele>410.2</ele>
        <time>2022-09-06T07:42:41Z</time>
      </trkpt>
      <trkpt lat="43.07656" lon="0.53152">
        <ele>409.2</ele>
        <time>2022-09-06T07:42:44Z</time>
      </trkpt>
      <trkpt lat="43.07651" lon="0.5315">
        <ele>409</ele>
        <time>2022-09-06T07:42:45Z</time>
      </trkpt>
      <trkpt lat="43.07644" lon="0.53141">
        <ele>408</ele>
        <time>2022-09-06T07:42:47Z</time>
      </trkpt>
      <trkpt lat="43.07642" lon="0.53135">
        <ele>407.6</ele>
        <time>2022-09-06T07:42:48Z</time>
      </trkpt>
      <trkpt lat="43.0764" lon="0.53119">
        <ele>406.6</ele>
        <time>2022-09-06T07:42:50Z</time>
      </trkpt>
      <trkpt lat="43.07639" lon="0.53112">
        <ele>406.2</ele>
        <time>2022-09-06T07:42:51Z</time>
      </trkpt>
      <trkpt lat="43.07637" lon="0.53104">
        <ele>405.8</ele>
        <time>2022-09-06T07:42:52Z</time>
      </trkpt>
      <trkpt lat="43.07633" lon="0.5308">
        <ele>405.6</ele>
        <time>2022-09-06T07:42:55Z</time>
      </trkpt>
      <trkpt lat="43.07631" lon="0.53061">
        <ele>405.2</ele>
        <time>2022-09-06T07:42:57Z</time>
      </trkpt>
      <trkpt lat="43.0763" lon="0.5303">
        <ele>404.4</ele>
        <time>2022-09-06T07:43:00Z</time>
      </trkpt>
      <trkpt lat="43.07628" lon="0.52991">
        <ele>404</ele>
        <time>2022-09-06T07:43:04Z</time>
      </trkpt>
      <trkpt lat="43.07625" lon="0.52949">
        <ele>403.2</ele>
        <time>2022-09-06T07:43:08Z</time>
      </trkpt>
      <trkpt lat="43.07624" lon="0.52938">
        <ele>402.8</ele>
        <time>2022-09-06T07:43:09Z</time>
      </trkpt>
      <trkpt lat="43.07619" lon="0.52905">
        <ele>402</ele>
        <time>2022-09-06T07:43:12Z</time>
      </trkpt>
      <trkpt lat="43.07613" lon="0.52884">
        <ele>401.2</ele>
        <time>2022-09-06T07:43:14Z</time>
      </trkpt>
      <trkpt lat="43.07611" lon="0.52874">
        <ele>401</ele>
        <time>2022-09-06T07:43:15Z</time>
      </trkpt>
      <trkpt lat="43.07594" lon="0.52837">
        <ele>400</ele>
        <time>2022-09-06T07:43:19Z</time>
      </trkpt>
      <trkpt lat="43.0759" lon="0.52829">
        <ele>400</ele>
        <time>2022-09-06T07:43:20Z</time>
      </trkpt>
      <trkpt lat="43.07573" lon="0.52797">
        <ele>400</ele>
        <time>2022-09-06T07:43:24Z</time>
      </trkpt>
      <trkpt lat="43.07569" lon="0.5279">
        <ele>399.8</ele>
        <time>2022-09-06T07:43:25Z</time>
      </trkpt>
      <trkpt lat="43.07547" lon="0.52752">
        <ele>399.6</ele>
        <time>2022-09-06T07:43:31Z</time>
      </trkpt>
      <trkpt lat="43.07528" lon="0.52716">
        <ele>399.6</ele>
        <time>2022-09-06T07:43:37Z</time>
      </trkpt>
      <trkpt lat="43.07503" lon="0.52677">
        <ele>399.2</ele>
        <time>2022-09-06T07:43:45Z</time>
      </trkpt>
      <trkpt lat="43.07491" lon="0.52666">
        <ele>399.2</ele>
        <time>2022-09-06T07:43:48Z</time>
      </trkpt>
      <trkpt lat="43.07476" lon="0.5265">
        <ele>399</ele>
        <time>2022-09-06T07:43:52Z</time>
      </trkpt>
      <trkpt lat="43.07456" lon="0.52625">
        <ele>398.8</ele>
        <time>2022-09-06T07:43:58Z</time>
      </trkpt>
      <trkpt lat="43.07451" lon="0.52616">
        <ele>398.8</ele>
        <time>2022-09-06T07:44:00Z</time>
      </trkpt>
      <trkpt lat="43.07431" lon="0.52581">
        <ele>398.6</ele>
        <time>2022-09-06T07:44:08Z</time>
      </trkpt>
      <trkpt lat="43.07418" lon="0.5255">
        <ele>398.4</ele>
        <time>2022-09-06T07:44:15Z</time>
      </trkpt>
      <trkpt lat="43.07404" lon="0.52514">
        <ele>397.8</ele>
        <time>2022-09-06T07:44:23Z</time>
      </trkpt>
      <trkpt lat="43.07401" lon="0.5251">
        <ele>397.8</ele>
        <time>2022-09-06T07:44:24Z</time>
      </trkpt>
      <trkpt lat="43.07396" lon="0.52499">
        <ele>397.8</ele>
        <time>2022-09-06T07:44:27Z</time>
      </trkpt>
      <trkpt lat="43.07392" lon="0.52491">
        <ele>397.4</ele>
        <time>2022-09-06T07:44:29Z</time>
      </trkpt>
      <trkpt lat="43.07385" lon="0.52475">
        <ele>396.8</ele>
        <time>2022-09-06T07:44:32Z</time>
      </trkpt>
      <trkpt lat="43.07377" lon="0.52463">
        <ele>396.6</ele>
        <time>2022-09-06T07:44:34Z</time>
      </trkpt>
      <trkpt lat="43.07363" lon="0.52446">
        <ele>395.4</ele>
        <time>2022-09-06T07:44:37Z</time>
      </trkpt>
      <trkpt lat="43.07354" lon="0.52437">
        <ele>394.4</ele>
        <time>2022-09-06T07:44:39Z</time>
      </trkpt>
      <trkpt lat="43.0735" lon="0.52432">
        <ele>394</ele>
        <time>2022-09-06T07:44:40Z</time>
      </trkpt>
      <trkpt lat="43.07346" lon="0.52423">
        <ele>394</ele>
        <time>2022-09-06T07:44:42Z</time>
      </trkpt>
      <trkpt lat="43.07331" lon="0.52404">
        <ele>394.2</ele>
        <time>2022-09-06T07:44:48Z</time>
      </trkpt>
      <trkpt lat="43.07312" lon="0.52385">
        <ele>394.2</ele>
        <time>2022-09-06T07:44:56Z</time>
      </trkpt>
      <trkpt lat="43.07292" lon="0.52366">
        <ele>393.8</ele>
        <time>2022-09-06T07:45:04Z</time>
      </trkpt>
      <trkpt lat="43.07282" lon="0.52358">
        <ele>393.2</ele>
        <time>2022-09-06T07:45:08Z</time>
      </trkpt>
      <trkpt lat="43.07275" lon="0.52352">
        <ele>393</ele>
        <time>2022-09-06T07:45:11Z</time>
      </trkpt>
      <trkpt lat="43.07272" lon="0.52342">
        <ele>392.6</ele>
        <time>2022-09-06T07:45:15Z</time>
      </trkpt>
      <trkpt lat="43.07269" lon="0.52335">
        <ele>391.8</ele>
        <time>2022-09-06T07:45:17Z</time>
      </trkpt>
      <trkpt lat="43.07264" lon="0.52329">
        <ele>391</ele>
        <time>2022-09-06T07:45:19Z</time>
      </trkpt>
      <trkpt lat="43.07262" lon="0.52326">
        <ele>390.6</ele>
        <time>2022-09-06T07:45:20Z</time>
      </trkpt>
      <trkpt lat="43.07261" lon="0.5232">
        <ele>390</ele>
        <time>2022-09-06T07:45:23Z</time>
      </trkpt>
      <trkpt lat="43.07262" lon="0.52318">
        <ele>390</ele>
        <time>2022-09-06T07:45:24Z</time>
      </trkpt>
      <trkpt lat="43.07266" lon="0.52315">
        <ele>390</ele>
        <time>2022-09-06T07:45:27Z</time>
      </trkpt>
      <trkpt lat="43.07271" lon="0.52309">
        <ele>390.2</ele>
        <time>2022-09-06T07:45:30Z</time>
      </trkpt>
      <trkpt lat="43.07276" lon="0.52304">
        <ele>390</ele>
        <time>2022-09-06T07:45:33Z</time>
      </trkpt>
      <trkpt lat="43.07287" lon="0.52291">
        <ele>389.8</ele>
        <time>2022-09-06T07:45:40Z</time>
      </trkpt>
      <trkpt lat="43.0729" lon="0.52285">
        <ele>390.2</ele>
        <time>2022-09-06T07:45:44Z</time>
      </trkpt>
      <trkpt lat="43.0729" lon="0.52282">
        <ele>390.2</ele>
        <time>2022-09-06T07:45:45Z</time>
      </trkpt>
      <trkpt lat="43.07296" lon="0.52264">
        <ele>390.8</ele>
        <time>2022-09-06T07:45:52Z</time>
      </trkpt>
      <trkpt lat="43.07302" lon="0.52236">
        <ele>390.6</ele>
        <time>2022-09-06T07:46:00Z</time>
      </trkpt>
      <trkpt lat="43.07305" lon="0.52213">
        <ele>390.6</ele>
        <time>2022-09-06T07:46:07Z</time>
      </trkpt>
      <trkpt lat="43.07306" lon="0.52187">
        <ele>390.6</ele>
        <time>2022-09-06T07:46:15Z</time>
      </trkpt>
      <trkpt lat="43.07307" lon="0.52157">
        <ele>390.6</ele>
        <time>2022-09-06T07:46:23Z</time>
      </trkpt>
      <trkpt lat="43.07307" lon="0.52142">
        <ele>390.6</ele>
        <time>2022-09-06T07:46:28Z</time>
      </trkpt>
      <trkpt lat="43.07304" lon="0.52117">
        <ele>390.6</ele>
        <time>2022-09-06T07:46:35Z</time>
      </trkpt>
      <trkpt lat="43.07307" lon="0.5209">
        <ele>391</ele>
        <time>2022-09-06T07:46:42Z</time>
      </trkpt>
      <trkpt lat="43.07313" lon="0.52058">
        <ele>390.8</ele>
        <time>2022-09-06T07:46:50Z</time>
      </trkpt>
      <trkpt lat="43.07319" lon="0.52029">
        <ele>391</ele>
        <time>2022-09-06T07:46:59Z</time>
      </trkpt>
      <trkpt lat="43.07324" lon="0.52">
        <ele>391.6</ele>
        <time>2022-09-06T07:47:09Z</time>
      </trkpt>
      <trkpt lat="43.07324" lon="0.51986">
        <ele>392</ele>
        <time>2022-09-06T07:47:15Z</time>
      </trkpt>
      <trkpt lat="43.07325" lon="0.51975">
        <ele>391.8</ele>
        <time>2022-09-06T07:47:20Z</time>
      </trkpt>
      <trkpt lat="43.07325" lon="0.51964">
        <ele>392.2</ele>
        <time>2022-09-06T07:47:24Z</time>
      </trkpt>
      <trkpt lat="43.07327" lon="0.51958">
        <ele>392.2</ele>
        <time>2022-09-06T07:47:26Z</time>
      </trkpt>
      <trkpt lat="43.07335" lon="0.51942">
        <ele>392.4</ele>
        <time>2022-09-06T07:47:32Z</time>
      </trkpt>
      <trkpt lat="43.07341" lon="0.51921">
        <ele>392.4</ele>
        <time>2022-09-06T07:47:38Z</time>
      </trkpt>
      <trkpt lat="43.07345" lon="0.51892">
        <ele>392.4</ele>
        <time>2022-09-06T07:47:44Z</time>
      </trkpt>
      <trkpt lat="43.07346" lon="0.51863">
        <ele>392.4</ele>
        <time>2022-09-06T07:47:50Z</time>
      </trkpt>
      <trkpt lat="43.07345" lon="0.51845">
        <ele>392.2</ele>
        <time>2022-09-06T07:47:57Z</time>
      </trkpt>
      <trkpt lat="43.07345" lon="0.51827">
        <ele>392.6</ele>
        <time>2022-09-06T07:49:34Z</time>
      </trkpt>
      <trkpt lat="43.07344" lon="0.5182">
        <ele>392.6</ele>
        <time>2022-09-06T07:49:36Z</time>
      </trkpt>
      <trkpt lat="43.07345" lon="0.51811">
        <ele>392.6</ele>
        <time>2022-09-06T07:49:39Z</time>
      </trkpt>
      <trkpt lat="43.07345" lon="0.51798">
        <ele>392.8</ele>
        <time>2022-09-06T07:49:43Z</time>
      </trkpt>
      <trkpt lat="43.07349" lon="0.51776">
        <ele>393.2</ele>
        <time>2022-09-06T07:49:49Z</time>
      </trkpt>
      <trkpt lat="43.07352" lon="0.51756">
        <ele>393.2</ele>
        <time>2022-09-06T07:49:54Z</time>
      </trkpt>
      <trkpt lat="43.07354" lon="0.51733">
        <ele>393.6</ele>
        <time>2022-09-06T07:50:00Z</time>
      </trkpt>
      <trkpt lat="43.07356" lon="0.51703">
        <ele>393.6</ele>
        <time>2022-09-06T07:50:07Z</time>
      </trkpt>
      <trkpt lat="43.07358" lon="0.51675">
        <ele>393.8</ele>
        <time>2022-09-06T07:50:14Z</time>
      </trkpt>
      <trkpt lat="43.07354" lon="0.51663">
        <ele>394.2</ele>
        <time>2022-09-06T07:50:18Z</time>
      </trkpt>
      <trkpt lat="43.07335" lon="0.51646">
        <ele>394.4</ele>
        <time>2022-09-06T07:50:26Z</time>
      </trkpt>
      <trkpt lat="43.0732" lon="0.51631">
        <ele>394.6</ele>
        <time>2022-09-06T07:50:32Z</time>
      </trkpt>
      <trkpt lat="43.07304" lon="0.51623">
        <ele>394.6</ele>
        <time>2022-09-06T07:50:37Z</time>
      </trkpt>
      <trkpt lat="43.07272" lon="0.51626">
        <ele>394.6</ele>
        <time>2022-09-06T07:50:46Z</time>
      </trkpt>
      <trkpt lat="43.07251" lon="0.51631">
        <ele>394.4</ele>
        <time>2022-09-06T07:50:53Z</time>
      </trkpt>
      <trkpt lat="43.07241" lon="0.51633">
        <ele>394.8</ele>
        <time>2022-09-06T07:50:57Z</time>
      </trkpt>
      <trkpt lat="43.0723" lon="0.51634">
        <ele>394.6</ele>
        <time>2022-09-06T07:51:02Z</time>
      </trkpt>
      <trkpt lat="43.07227" lon="0.51635">
        <ele>394.6</ele>
        <time>2022-09-06T07:51:04Z</time>
      </trkpt>
      <trkpt lat="43.07223" lon="0.51642">
        <ele>394.4</ele>
        <time>2022-09-06T07:51:07Z</time>
      </trkpt>
      <trkpt lat="43.07216" lon="0.51665">
        <ele>394</ele>
        <time>2022-09-06T07:51:13Z</time>
      </trkpt>
      <trkpt lat="43.07211" lon="0.51691">
        <ele>394.2</ele>
        <time>2022-09-06T07:51:19Z</time>
      </trkpt>
      <trkpt lat="43.07198" lon="0.5171">
        <ele>394.4</ele>
        <time>2022-09-06T07:51:24Z</time>
      </trkpt>
      <trkpt lat="43.07179" lon="0.51731">
        <ele>394.2</ele>
        <time>2022-09-06T07:51:31Z</time>
      </trkpt>
      <trkpt lat="43.07165" lon="0.51748">
        <ele>394.2</ele>
        <time>2022-09-06T07:51:38Z</time>
      </trkpt>
      <trkpt lat="43.07161" lon="0.5175">
        <ele>394.2</ele>
        <time>2022-09-06T07:51:40Z</time>
      </trkpt>
      <trkpt lat="43.0716" lon="0.5175">
        <ele>394.2</ele>
        <time>2022-09-06T07:51:42Z</time>
      </trkpt>
      <trkpt lat="43.07156" lon="0.51744">
        <ele>394.4</ele>
        <time>2022-09-06T07:51:58Z</time>
      </trkpt>
      <trkpt lat="43.07152" lon="0.51739">
        <ele>394.6</ele>
        <time>2022-09-06T07:52:00Z</time>
      </trkpt>
      <trkpt lat="43.07137" lon="0.51716">
        <ele>394.6</ele>
        <time>2022-09-06T07:52:07Z</time>
      </trkpt>
      <trkpt lat="43.07112" lon="0.51687">
        <ele>394.6</ele>
        <time>2022-09-06T07:52:16Z</time>
      </trkpt>
      <trkpt lat="43.07095" lon="0.51662">
        <ele>394.8</ele>
        <time>2022-09-06T07:52:23Z</time>
      </trkpt>
      <trkpt lat="43.07078" lon="0.51631">
        <ele>395.4</ele>
        <time>2022-09-06T07:52:31Z</time>
      </trkpt>
      <trkpt lat="43.0706" lon="0.516">
        <ele>395.4</ele>
        <time>2022-09-06T07:52:39Z</time>
      </trkpt>
      <trkpt lat="43.0705" lon="0.51581">
        <ele>395.8</ele>
        <time>2022-09-06T07:52:44Z</time>
      </trkpt>
      <trkpt lat="43.07046" lon="0.5157">
        <ele>396.2</ele>
        <time>2022-09-06T07:52:47Z</time>
      </trkpt>
      <trkpt lat="43.07046" lon="0.51548">
        <ele>396.2</ele>
        <time>2022-09-06T07:52:52Z</time>
      </trkpt>
      <trkpt lat="43.0705" lon="0.51512">
        <ele>396.6</ele>
        <time>2022-09-06T07:53:00Z</time>
      </trkpt>
      <trkpt lat="43.07053" lon="0.5147">
        <ele>396.8</ele>
        <time>2022-09-06T07:53:08Z</time>
      </trkpt>
      <trkpt lat="43.07054" lon="0.5146">
        <ele>396.8</ele>
        <time>2022-09-06T07:53:10Z</time>
      </trkpt>
      <trkpt lat="43.07057" lon="0.51401">
        <ele>397</ele>
        <time>2022-09-06T07:53:22Z</time>
      </trkpt>
      <trkpt lat="43.07061" lon="0.51367">
        <ele>397.4</ele>
        <time>2022-09-06T07:53:29Z</time>
      </trkpt>
      <trkpt lat="43.07063" lon="0.51343">
        <ele>397.6</ele>
        <time>2022-09-06T07:53:34Z</time>
      </trkpt>
      <trkpt lat="43.07066" lon="0.51305">
        <ele>397.6</ele>
        <time>2022-09-06T07:53:41Z</time>
      </trkpt>
      <trkpt lat="43.07068" lon="0.51267">
        <ele>397.8</ele>
        <time>2022-09-06T07:53:48Z</time>
      </trkpt>
      <trkpt lat="43.07069" lon="0.51262">
        <ele>397.8</ele>
        <time>2022-09-06T07:53:49Z</time>
      </trkpt>
      <trkpt lat="43.07071" lon="0.51234">
        <ele>398.4</ele>
        <time>2022-09-06T07:53:54Z</time>
      </trkpt>
      <trkpt lat="43.07075" lon="0.51192">
        <ele>398.2</ele>
        <time>2022-09-06T07:54:02Z</time>
      </trkpt>
      <trkpt lat="43.07083" lon="0.51145">
        <ele>398.8</ele>
        <time>2022-09-06T07:54:11Z</time>
      </trkpt>
      <trkpt lat="43.07094" lon="0.51098">
        <ele>398.8</ele>
        <time>2022-09-06T07:54:20Z</time>
      </trkpt>
      <trkpt lat="43.07097" lon="0.51087">
        <ele>398.8</ele>
        <time>2022-09-06T07:54:22Z</time>
      </trkpt>
      <trkpt lat="43.07103" lon="0.51067">
        <ele>398.8</ele>
        <time>2022-09-06T07:54:26Z</time>
      </trkpt>
      <trkpt lat="43.07115" lon="0.51022">
        <ele>399.2</ele>
        <time>2022-09-06T07:54:35Z</time>
      </trkpt>
      <trkpt lat="43.07129" lon="0.50992">
        <ele>399.2</ele>
        <time>2022-09-06T07:54:42Z</time>
      </trkpt>
      <trkpt lat="43.07149" lon="0.50951">
        <ele>399.8</ele>
        <time>2022-09-06T07:54:51Z</time>
      </trkpt>
      <trkpt lat="43.07157" lon="0.5092">
        <ele>399.6</ele>
        <time>2022-09-06T07:54:57Z</time>
      </trkpt>
      <trkpt lat="43.07165" lon="0.50884">
        <ele>399.8</ele>
        <time>2022-09-06T07:55:04Z</time>
      </trkpt>
      <trkpt lat="43.07169" lon="0.50858">
        <ele>400</ele>
        <time>2022-09-06T07:55:09Z</time>
      </trkpt>
      <trkpt lat="43.07171" lon="0.50841">
        <ele>400</ele>
        <time>2022-09-06T07:55:12Z</time>
      </trkpt>
      <trkpt lat="43.07177" lon="0.50788">
        <ele>400</ele>
        <time>2022-09-06T07:55:22Z</time>
      </trkpt>
      <trkpt lat="43.07181" lon="0.50729">
        <ele>400.4</ele>
        <time>2022-09-06T07:55:33Z</time>
      </trkpt>
      <trkpt lat="43.0718" lon="0.50683">
        <ele>400.8</ele>
        <time>2022-09-06T07:55:42Z</time>
      </trkpt>
      <trkpt lat="43.07175" lon="0.50641">
        <ele>400.8</ele>
        <time>2022-09-06T07:55:50Z</time>
      </trkpt>
      <trkpt lat="43.07168" lon="0.506">
        <ele>400.8</ele>
        <time>2022-09-06T07:55:58Z</time>
      </trkpt>
      <trkpt lat="43.07162" lon="0.50569">
        <ele>401</ele>
        <time>2022-09-06T07:56:04Z</time>
      </trkpt>
      <trkpt lat="43.07158" lon="0.50548">
        <ele>400.8</ele>
        <time>2022-09-06T07:56:08Z</time>
      </trkpt>
      <trkpt lat="43.07148" lon="0.50486">
        <ele>400.8</ele>
        <time>2022-09-06T07:56:20Z</time>
      </trkpt>
      <trkpt lat="43.07143" lon="0.50464">
        <ele>401</ele>
        <time>2022-09-06T07:56:26Z</time>
      </trkpt>
      <trkpt lat="43.07139" lon="0.50461">
        <ele>401.4</ele>
        <time>2022-09-06T07:56:28Z</time>
      </trkpt>
      <trkpt lat="43.07133" lon="0.50461">
        <ele>401.4</ele>
        <time>2022-09-06T07:56:30Z</time>
      </trkpt>
      <trkpt lat="43.07126" lon="0.50462">
        <ele>401.2</ele>
        <time>2022-09-06T07:56:32Z</time>
      </trkpt>
      <trkpt lat="43.07113" lon="0.50466">
        <ele>401.2</ele>
        <time>2022-09-06T07:56:36Z</time>
      </trkpt>
      <trkpt lat="43.07091" lon="0.5047">
        <ele>401.4</ele>
        <time>2022-09-06T07:56:43Z</time>
      </trkpt>
      <trkpt lat="43.07078" lon="0.50465">
        <ele>402</ele>
        <time>2022-09-06T07:56:48Z</time>
      </trkpt>
      <trkpt lat="43.07076" lon="0.50463">
        <ele>402.2</ele>
        <time>2022-09-06T07:56:49Z</time>
      </trkpt>
      <trkpt lat="43.07071" lon="0.50453">
        <ele>403.2</ele>
        <time>2022-09-06T07:56:54Z</time>
      </trkpt>
      <trkpt lat="43.07066" lon="0.50439">
        <ele>404.2</ele>
        <time>2022-09-06T07:57:00Z</time>
      </trkpt>
      <trkpt lat="43.07065" lon="0.50436">
        <ele>404.4</ele>
        <time>2022-09-06T07:57:01Z</time>
      </trkpt>
      <trkpt lat="43.0706" lon="0.50422">
        <ele>405.4</ele>
        <time>2022-09-06T07:57:07Z</time>
      </trkpt>
      <trkpt lat="43.07059" lon="0.50419">
        <ele>405.6</ele>
        <time>2022-09-06T07:57:08Z</time>
      </trkpt>
      <trkpt lat="43.07052" lon="0.50397">
        <ele>405.8</ele>
        <time>2022-09-06T07:57:15Z</time>
      </trkpt>
      <trkpt lat="43.07045" lon="0.50375">
        <ele>405.6</ele>
        <time>2022-09-06T07:57:22Z</time>
      </trkpt>
      <trkpt lat="43.07039" lon="0.5034">
        <ele>405.8</ele>
        <time>2022-09-06T07:57:30Z</time>
      </trkpt>
      <trkpt lat="43.07034" lon="0.50308">
        <ele>405.8</ele>
        <time>2022-09-06T07:57:37Z</time>
      </trkpt>
      <trkpt lat="43.07028" lon="0.50277">
        <ele>405.6</ele>
        <time>2022-09-06T07:57:44Z</time>
      </trkpt>
      <trkpt lat="43.07021" lon="0.50244">
        <ele>405.6</ele>
        <time>2022-09-06T07:57:51Z</time>
      </trkpt>
      <trkpt lat="43.07011" lon="0.5021">
        <ele>405.4</ele>
        <time>2022-09-06T07:57:58Z</time>
      </trkpt>
      <trkpt lat="43.07004" lon="0.50182">
        <ele>405.2</ele>
        <time>2022-09-06T07:58:04Z</time>
      </trkpt>
      <trkpt lat="43.06994" lon="0.50144">
        <ele>405.2</ele>
        <time>2022-09-06T07:58:11Z</time>
      </trkpt>
      <trkpt lat="43.06991" lon="0.50113">
        <ele>405.6</ele>
        <time>2022-09-06T07:58:17Z</time>
      </trkpt>
      <trkpt lat="43.06993" lon="0.50086">
        <ele>406.4</ele>
        <time>2022-09-06T07:58:24Z</time>
      </trkpt>
      <trkpt lat="43.06993" lon="0.50083">
        <ele>406.6</ele>
        <time>2022-09-06T07:58:25Z</time>
      </trkpt>
      <trkpt lat="43.06994" lon="0.50072">
        <ele>407.6</ele>
        <time>2022-09-06T07:58:30Z</time>
      </trkpt>
      <trkpt lat="43.07002" lon="0.50061">
        <ele>407.4</ele>
        <time>2022-09-06T07:58:35Z</time>
      </trkpt>
      <trkpt lat="43.07018" lon="0.50053">
        <ele>406.6</ele>
        <time>2022-09-06T07:58:39Z</time>
      </trkpt>
      <trkpt lat="43.07046" lon="0.50046">
        <ele>405.4</ele>
        <time>2022-09-06T07:58:44Z</time>
      </trkpt>
      <trkpt lat="43.07051" lon="0.50044">
        <ele>405.2</ele>
        <time>2022-09-06T07:58:45Z</time>
      </trkpt>
      <trkpt lat="43.07072" lon="0.50024">
        <ele>405</ele>
        <time>2022-09-06T07:58:50Z</time>
      </trkpt>
      <trkpt lat="43.07083" lon="0.49997">
        <ele>404.8</ele>
        <time>2022-09-06T07:58:55Z</time>
      </trkpt>
      <trkpt lat="43.07084" lon="0.49987">
        <ele>404.6</ele>
        <time>2022-09-06T07:58:57Z</time>
      </trkpt>
      <trkpt lat="43.07085" lon="0.49968">
        <ele>404.8</ele>
        <time>2022-09-06T07:59:01Z</time>
      </trkpt>
      <trkpt lat="43.07082" lon="0.49924">
        <ele>405.4</ele>
        <time>2022-09-06T07:59:09Z</time>
      </trkpt>
      <trkpt lat="43.07074" lon="0.49874">
        <ele>405.4</ele>
        <time>2022-09-06T07:59:18Z</time>
      </trkpt>
      <trkpt lat="43.07065" lon="0.49829">
        <ele>405.6</ele>
        <time>2022-09-06T07:59:26Z</time>
      </trkpt>
      <trkpt lat="43.07059" lon="0.4979">
        <ele>405.6</ele>
        <time>2022-09-06T07:59:34Z</time>
      </trkpt>
      <trkpt lat="43.07056" lon="0.49783">
        <ele>405.4</ele>
        <time>2022-09-06T07:59:38Z</time>
      </trkpt>
      <trkpt lat="43.07055" lon="0.49786">
        <ele>405.4</ele>
        <time>2022-09-06T07:59:43Z</time>
      </trkpt>
      <trkpt lat="43.07056" lon="0.49787">
        <ele>405.4</ele>
        <time>2022-09-06T07:59:44Z</time>
      </trkpt>
      <trkpt lat="43.07059" lon="0.49796">
        <ele>405.4</ele>
        <time>2022-09-06T07:59:48Z</time>
      </trkpt>
      <trkpt lat="43.07059" lon="0.49803">
        <ele>405.4</ele>
        <time>2022-09-06T07:59:53Z</time>
      </trkpt>
      <trkpt lat="43.0705" lon="0.49793">
        <ele>407</ele>
        <time>2022-09-06T08:00:30Z</time>
      </trkpt>
      <trkpt lat="43.0704" lon="0.49768">
        <ele>406</ele>
        <time>2022-09-06T08:00:35Z</time>
      </trkpt>
      <trkpt lat="43.07036" lon="0.49762">
        <ele>405.8</ele>
        <time>2022-09-06T08:00:37Z</time>
      </trkpt>
      <trkpt lat="43.07034" lon="0.49763">
        <ele>405.6</ele>
        <time>2022-09-06T08:00:38Z</time>
      </trkpt>
      <trkpt lat="43.07031" lon="0.4977">
        <ele>405.4</ele>
        <time>2022-09-06T08:00:41Z</time>
      </trkpt>
      <trkpt lat="43.0703" lon="0.49773">
        <ele>405.4</ele>
        <time>2022-09-06T08:00:42Z</time>
      </trkpt>
      <trkpt lat="43.07021" lon="0.49788">
        <ele>405.6</ele>
        <time>2022-09-06T08:00:48Z</time>
      </trkpt>
      <trkpt lat="43.07001" lon="0.49794">
        <ele>405.6</ele>
        <time>2022-09-06T08:00:55Z</time>
      </trkpt>
      <trkpt lat="43.06982" lon="0.49788">
        <ele>406</ele>
        <time>2022-09-06T08:01:01Z</time>
      </trkpt>
      <trkpt lat="43.06961" lon="0.49778">
        <ele>405.8</ele>
        <time>2022-09-06T08:01:08Z</time>
      </trkpt>
      <trkpt lat="43.06936" lon="0.49765">
        <ele>406.2</ele>
        <time>2022-09-06T08:01:16Z</time>
      </trkpt>
      <trkpt lat="43.0691" lon="0.49739">
        <ele>406.2</ele>
        <time>2022-09-06T08:01:25Z</time>
      </trkpt>
      <trkpt lat="43.0689" lon="0.4972">
        <ele>406.2</ele>
        <time>2022-09-06T08:01:32Z</time>
      </trkpt>
      <trkpt lat="43.06877" lon="0.49706">
        <ele>406.2</ele>
        <time>2022-09-06T08:01:37Z</time>
      </trkpt>
      <trkpt lat="43.0686" lon="0.49683">
        <ele>406.6</ele>
        <time>2022-09-06T08:01:44Z</time>
      </trkpt>
      <trkpt lat="43.06849" lon="0.49661">
        <ele>406.6</ele>
        <time>2022-09-06T08:01:50Z</time>
      </trkpt>
      <trkpt lat="43.06842" lon="0.49631">
        <ele>406.8</ele>
        <time>2022-09-06T08:01:56Z</time>
      </trkpt>
      <trkpt lat="43.06841" lon="0.49625">
        <ele>407</ele>
        <time>2022-09-06T08:01:57Z</time>
      </trkpt>
      <trkpt lat="43.06838" lon="0.49596">
        <ele>407</ele>
        <time>2022-09-06T08:02:03Z</time>
      </trkpt>
      <trkpt lat="43.06827" lon="0.49551">
        <ele>407.4</ele>
        <time>2022-09-06T08:02:12Z</time>
      </trkpt>
      <trkpt lat="43.06818" lon="0.49513">
        <ele>407.6</ele>
        <time>2022-09-06T08:02:19Z</time>
      </trkpt>
      <trkpt lat="43.06811" lon="0.49481">
        <ele>408</ele>
        <time>2022-09-06T08:02:25Z</time>
      </trkpt>
      <trkpt lat="43.06809" lon="0.49465">
        <ele>408</ele>
        <time>2022-09-06T08:02:28Z</time>
      </trkpt>
      <trkpt lat="43.06805" lon="0.49425">
        <ele>408</ele>
        <time>2022-09-06T08:02:35Z</time>
      </trkpt>
      <trkpt lat="43.06803" lon="0.49386">
        <ele>408</ele>
        <time>2022-09-06T08:02:42Z</time>
      </trkpt>
      <trkpt lat="43.06801" lon="0.4934">
        <ele>408.4</ele>
        <time>2022-09-06T08:02:51Z</time>
      </trkpt>
      <trkpt lat="43.06801" lon="0.4931">
        <ele>409</ele>
        <time>2022-09-06T08:02:57Z</time>
      </trkpt>
      <trkpt lat="43.06801" lon="0.4929">
        <ele>408.8</ele>
        <time>2022-09-06T08:03:01Z</time>
      </trkpt>
      <trkpt lat="43.06805" lon="0.49247">
        <ele>408.2</ele>
        <time>2022-09-06T08:03:10Z</time>
      </trkpt>
      <trkpt lat="43.06805" lon="0.49219">
        <ele>408.2</ele>
        <time>2022-09-06T08:03:16Z</time>
      </trkpt>
      <trkpt lat="43.06796" lon="0.49192">
        <ele>408.4</ele>
        <time>2022-09-06T08:03:22Z</time>
      </trkpt>
      <trkpt lat="43.0678" lon="0.49163">
        <ele>409.2</ele>
        <time>2022-09-06T08:03:30Z</time>
      </trkpt>
      <trkpt lat="43.06775" lon="0.49142">
        <ele>409.4</ele>
        <time>2022-09-06T08:03:35Z</time>
      </trkpt>
      <trkpt lat="43.06779" lon="0.49122">
        <ele>409.6</ele>
        <time>2022-09-06T08:03:40Z</time>
      </trkpt>
      <trkpt lat="43.06791" lon="0.49103">
        <ele>409.4</ele>
        <time>2022-09-06T08:03:46Z</time>
      </trkpt>
      <trkpt lat="43.06812" lon="0.49074">
        <ele>409.2</ele>
        <time>2022-09-06T08:03:54Z</time>
      </trkpt>
      <trkpt lat="43.06822" lon="0.49057">
        <ele>410.4</ele>
        <time>2022-09-06T08:03:59Z</time>
      </trkpt>
      <trkpt lat="43.06825" lon="0.49047">
        <ele>411.4</ele>
        <time>2022-09-06T08:04:03Z</time>
      </trkpt>
      <trkpt lat="43.06826" lon="0.49044">
        <ele>411.8</ele>
        <time>2022-09-06T08:04:04Z</time>
      </trkpt>
      <trkpt lat="43.0683" lon="0.49025">
        <ele>412.2</ele>
        <time>2022-09-06T08:04:11Z</time>
      </trkpt>
      <trkpt lat="43.06835" lon="0.48996">
        <ele>411.8</ele>
        <time>2022-09-06T08:04:17Z</time>
      </trkpt>
      <trkpt lat="43.06836" lon="0.48969">
        <ele>412.2</ele>
        <time>2022-09-06T08:04:23Z</time>
      </trkpt>
      <trkpt lat="43.06836" lon="0.48962">
        <ele>412.4</ele>
        <time>2022-09-06T08:04:25Z</time>
      </trkpt>
      <trkpt lat="43.06835" lon="0.4895">
        <ele>412.6</ele>
        <time>2022-09-06T08:04:28Z</time>
      </trkpt>
      <trkpt lat="43.06833" lon="0.48929">
        <ele>412.8</ele>
        <time>2022-09-06T08:04:33Z</time>
      </trkpt>
      <trkpt lat="43.0683" lon="0.48914">
        <ele>413</ele>
        <time>2022-09-06T08:04:37Z</time>
      </trkpt>
      <trkpt lat="43.0683" lon="0.4891">
        <ele>413</ele>
        <time>2022-09-06T08:04:38Z</time>
      </trkpt>
      <trkpt lat="43.06828" lon="0.48886">
        <ele>412.8</ele>
        <time>2022-09-06T08:04:44Z</time>
      </trkpt>
      <trkpt lat="43.06839" lon="0.48874">
        <ele>412.2</ele>
        <time>2022-09-06T08:04:48Z</time>
      </trkpt>
      <trkpt lat="43.0685" lon="0.48869">
        <ele>412.2</ele>
        <time>2022-09-06T08:04:51Z</time>
      </trkpt>
      <trkpt lat="43.06859" lon="0.48864">
        <ele>412</ele>
        <time>2022-09-06T08:04:53Z</time>
      </trkpt>
      <trkpt lat="43.06872" lon="0.48856">
        <ele>411.8</ele>
        <time>2022-09-06T08:04:56Z</time>
      </trkpt>
      <trkpt lat="43.06883" lon="0.48849">
        <ele>411.6</ele>
        <time>2022-09-06T08:04:59Z</time>
      </trkpt>
      <trkpt lat="43.06886" lon="0.48848">
        <ele>411.6</ele>
        <time>2022-09-06T08:05:00Z</time>
      </trkpt>
      <trkpt lat="43.06903" lon="0.48841">
        <ele>411.4</ele>
        <time>2022-09-06T08:05:05Z</time>
      </trkpt>
      <trkpt lat="43.06914" lon="0.48834">
        <ele>411.4</ele>
        <time>2022-09-06T08:05:09Z</time>
      </trkpt>
      <trkpt lat="43.06919" lon="0.48832">
        <ele>411.2</ele>
        <time>2022-09-06T08:05:11Z</time>
      </trkpt>
      <trkpt lat="43.06925" lon="0.48827">
        <ele>411.2</ele>
        <time>2022-09-06T08:05:14Z</time>
      </trkpt>
      <trkpt lat="43.06925" lon="0.48822">
        <ele>411.2</ele>
        <time>2022-09-06T08:05:16Z</time>
      </trkpt>
      <trkpt lat="43.06924" lon="0.48815">
        <ele>411</ele>
        <time>2022-09-06T08:05:20Z</time>
      </trkpt>
      <trkpt lat="43.06929" lon="0.48805">
        <ele>411.4</ele>
        <time>2022-09-06T08:05:25Z</time>
      </trkpt>
      <trkpt lat="43.06931" lon="0.48784">
        <ele>411.4</ele>
        <time>2022-09-06T08:05:30Z</time>
      </trkpt>
      <trkpt lat="43.06937" lon="0.48736">
        <ele>411.6</ele>
        <time>2022-09-06T08:05:40Z</time>
      </trkpt>
      <trkpt lat="43.06948" lon="0.48693">
        <ele>412</ele>
        <time>2022-09-06T08:05:48Z</time>
      </trkpt>
      <trkpt lat="43.06962" lon="0.48652">
        <ele>412</ele>
        <time>2022-09-06T08:05:56Z</time>
      </trkpt>
      <trkpt lat="43.06979" lon="0.48612">
        <ele>412.4</ele>
        <time>2022-09-06T08:06:05Z</time>
      </trkpt>
      <trkpt lat="43.06981" lon="0.4861">
        <ele>412.4</ele>
        <time>2022-09-06T08:06:06Z</time>
      </trkpt>
      <trkpt lat="43.06993" lon="0.48605">
        <ele>412.6</ele>
        <time>2022-09-06T08:06:10Z</time>
      </trkpt>
      <trkpt lat="43.0702" lon="0.48609">
        <ele>413</ele>
        <time>2022-09-06T08:06:17Z</time>
      </trkpt>
      <trkpt lat="43.0704" lon="0.48613">
        <ele>413.4</ele>
        <time>2022-09-06T08:06:22Z</time>
      </trkpt>
      <trkpt lat="43.07053" lon="0.48615">
        <ele>413.4</ele>
        <time>2022-09-06T08:06:25Z</time>
      </trkpt>
      <trkpt lat="43.07107" lon="0.48616">
        <ele>413.2</ele>
        <time>2022-09-06T08:06:36Z</time>
      </trkpt>
      <trkpt lat="43.07152" lon="0.48612">
        <ele>414.2</ele>
        <time>2022-09-06T08:06:46Z</time>
      </trkpt>
      <trkpt lat="43.0716" lon="0.48611">
        <ele>414.6</ele>
        <time>2022-09-06T08:06:48Z</time>
      </trkpt>
      <trkpt lat="43.07172" lon="0.48609">
        <ele>415.6</ele>
        <time>2022-09-06T08:06:52Z</time>
      </trkpt>
      <trkpt lat="43.07175" lon="0.48608">
        <ele>415.8</ele>
        <time>2022-09-06T08:06:53Z</time>
      </trkpt>
      <trkpt lat="43.07197" lon="0.48599">
        <ele>416.2</ele>
        <time>2022-09-06T08:07:01Z</time>
      </trkpt>
      <trkpt lat="43.07227" lon="0.48585">
        <ele>415.8</ele>
        <time>2022-09-06T08:07:10Z</time>
      </trkpt>
      <trkpt lat="43.0726" lon="0.48566">
        <ele>415</ele>
        <time>2022-09-06T08:07:18Z</time>
      </trkpt>
      <trkpt lat="43.07269" lon="0.48559">
        <ele>414.6</ele>
        <time>2022-09-06T08:07:20Z</time>
      </trkpt>
      <trkpt lat="43.07295" lon="0.48543">
        <ele>414.2</ele>
        <time>2022-09-06T08:07:25Z</time>
      </trkpt>
      <trkpt lat="43.0731" lon="0.48533">
        <ele>413.6</ele>
        <time>2022-09-06T08:07:28Z</time>
      </trkpt>
      <trkpt lat="43.07345" lon="0.48511">
        <ele>413.6</ele>
        <time>2022-09-06T08:07:35Z</time>
      </trkpt>
      <trkpt lat="43.07375" lon="0.48489">
        <ele>413</ele>
        <time>2022-09-06T08:07:42Z</time>
      </trkpt>
      <trkpt lat="43.07382" lon="0.48482">
        <ele>413</ele>
        <time>2022-09-06T08:07:44Z</time>
      </trkpt>
      <trkpt lat="43.07382" lon="0.48471">
        <ele>413.4</ele>
        <time>2022-09-06T08:07:46Z</time>
      </trkpt>
      <trkpt lat="43.07378" lon="0.48456">
        <ele>413</ele>
        <time>2022-09-06T08:07:49Z</time>
      </trkpt>
      <trkpt lat="43.07375" lon="0.48445">
        <ele>413</ele>
        <time>2022-09-06T08:07:51Z</time>
      </trkpt>
      <trkpt lat="43.07364" lon="0.48408">
        <ele>413.4</ele>
        <time>2022-09-06T08:07:58Z</time>
      </trkpt>
      <trkpt lat="43.07352" lon="0.48354">
        <ele>413.8</ele>
        <time>2022-09-06T08:08:08Z</time>
      </trkpt>
      <trkpt lat="43.07343" lon="0.48314">
        <ele>414.4</ele>
        <time>2022-09-06T08:08:16Z</time>
      </trkpt>
      <trkpt lat="43.07335" lon="0.4828">
        <ele>414.4</ele>
        <time>2022-09-06T08:08:23Z</time>
      </trkpt>
      <trkpt lat="43.07332" lon="0.48262">
        <ele>414.6</ele>
        <time>2022-09-06T08:08:27Z</time>
      </trkpt>
      <trkpt lat="43.07329" lon="0.48248">
        <ele>414.8</ele>
        <time>2022-09-06T08:08:30Z</time>
      </trkpt>
      <trkpt lat="43.07323" lon="0.48208">
        <ele>415</ele>
        <time>2022-09-06T08:08:38Z</time>
      </trkpt>
      <trkpt lat="43.07321" lon="0.4816">
        <ele>415.2</ele>
        <time>2022-09-06T08:08:47Z</time>
      </trkpt>
      <trkpt lat="43.0732" lon="0.48117">
        <ele>415.6</ele>
        <time>2022-09-06T08:08:55Z</time>
      </trkpt>
      <trkpt lat="43.0732" lon="0.48106">
        <ele>415.8</ele>
        <time>2022-09-06T08:08:57Z</time>
      </trkpt>
      <trkpt lat="43.07322" lon="0.48057">
        <ele>416.2</ele>
        <time>2022-09-06T08:09:06Z</time>
      </trkpt>
      <trkpt lat="43.07327" lon="0.48009">
        <ele>416.6</ele>
        <time>2022-09-06T08:09:15Z</time>
      </trkpt>
      <trkpt lat="43.07331" lon="0.47975">
        <ele>416.6</ele>
        <time>2022-09-06T08:09:21Z</time>
      </trkpt>
      <trkpt lat="43.07332" lon="0.47951">
        <ele>417.2</ele>
        <time>2022-09-06T08:09:25Z</time>
      </trkpt>
      <trkpt lat="43.07334" lon="0.47904">
        <ele>417.8</ele>
        <time>2022-09-06T08:09:33Z</time>
      </trkpt>
      <trkpt lat="43.07333" lon="0.47892">
        <ele>417.8</ele>
        <time>2022-09-06T08:09:35Z</time>
      </trkpt>
      <trkpt lat="43.07327" lon="0.47859">
        <ele>417.8</ele>
        <time>2022-09-06T08:09:41Z</time>
      </trkpt>
      <trkpt lat="43.07319" lon="0.47809">
        <ele>418</ele>
        <time>2022-09-06T08:09:50Z</time>
      </trkpt>
      <trkpt lat="43.07311" lon="0.47764">
        <ele>418</ele>
        <time>2022-09-06T08:09:59Z</time>
      </trkpt>
      <trkpt lat="43.07303" lon="0.47717">
        <ele>418.2</ele>
        <time>2022-09-06T08:10:08Z</time>
      </trkpt>
      <trkpt lat="43.07302" lon="0.47706">
        <ele>418</ele>
        <time>2022-09-06T08:10:10Z</time>
      </trkpt>
      <trkpt lat="43.073" lon="0.47672">
        <ele>418.4</ele>
        <time>2022-09-06T08:10:16Z</time>
      </trkpt>
      <trkpt lat="43.07299" lon="0.47633">
        <ele>418.6</ele>
        <time>2022-09-06T08:10:23Z</time>
      </trkpt>
      <trkpt lat="43.07299" lon="0.4762">
        <ele>418.8</ele>
        <time>2022-09-06T08:10:25Z</time>
      </trkpt>
      <trkpt lat="43.073" lon="0.47597">
        <ele>420</ele>
        <time>2022-09-06T08:10:29Z</time>
      </trkpt>
      <trkpt lat="43.073" lon="0.47592">
        <ele>420.4</ele>
        <time>2022-09-06T08:10:30Z</time>
      </trkpt>
      <trkpt lat="43.073" lon="0.47585">
        <ele>421.2</ele>
        <time>2022-09-06T08:10:32Z</time>
      </trkpt>
      <trkpt lat="43.073" lon="0.47576">
        <ele>422.2</ele>
        <time>2022-09-06T08:10:35Z</time>
      </trkpt>
      <trkpt lat="43.073" lon="0.47563">
        <ele>423.2</ele>
        <time>2022-09-06T08:10:38Z</time>
      </trkpt>
      <trkpt lat="43.07301" lon="0.47551">
        <ele>424</ele>
        <time>2022-09-06T08:10:41Z</time>
      </trkpt>
      <trkpt lat="43.07301" lon="0.47546">
        <ele>424.4</ele>
        <time>2022-09-06T08:10:42Z</time>
      </trkpt>
      <trkpt lat="43.073" lon="0.47525">
        <ele>424.6</ele>
        <time>2022-09-06T08:10:46Z</time>
      </trkpt>
      <trkpt lat="43.07297" lon="0.47475">
        <ele>425.4</ele>
        <time>2022-09-06T08:10:56Z</time>
      </trkpt>
      <trkpt lat="43.07296" lon="0.47471">
        <ele>425.4</ele>
        <time>2022-09-06T08:10:57Z</time>
      </trkpt>
      <trkpt lat="43.07295" lon="0.47454">
        <ele>425.8</ele>
        <time>2022-09-06T08:11:02Z</time>
      </trkpt>
      <trkpt lat="43.07293" lon="0.47438">
        <ele>425.8</ele>
        <time>2022-09-06T08:11:09Z</time>
      </trkpt>
      <trkpt lat="43.07296" lon="0.47427">
        <ele>425.6</ele>
        <time>2022-09-06T08:11:13Z</time>
      </trkpt>
      <trkpt lat="43.07292" lon="0.47413">
        <ele>426</ele>
        <time>2022-09-06T08:11:17Z</time>
      </trkpt>
      <trkpt lat="43.0729" lon="0.47409">
        <ele>425.8</ele>
        <time>2022-09-06T08:11:18Z</time>
      </trkpt>
      <trkpt lat="43.07272" lon="0.47371">
        <ele>426.2</ele>
        <time>2022-09-06T08:11:27Z</time>
      </trkpt>
      <trkpt lat="43.0726" lon="0.47351">
        <ele>426.6</ele>
        <time>2022-09-06T08:11:32Z</time>
      </trkpt>
      <trkpt lat="43.07258" lon="0.47347">
        <ele>426.6</ele>
        <time>2022-09-06T08:11:33Z</time>
      </trkpt>
      <trkpt lat="43.07253" lon="0.47323">
        <ele>426.8</ele>
        <time>2022-09-06T08:11:38Z</time>
      </trkpt>
      <trkpt lat="43.07248" lon="0.4729">
        <ele>427.6</ele>
        <time>2022-09-06T08:11:45Z</time>
      </trkpt>
      <trkpt lat="43.07244" lon="0.47261">
        <ele>428.6</ele>
        <time>2022-09-06T08:11:52Z</time>
      </trkpt>
      <trkpt lat="43.07244" lon="0.47258">
        <ele>428.6</ele>
        <time>2022-09-06T08:11:53Z</time>
      </trkpt>
      <trkpt lat="43.07239" lon="0.47239">
        <ele>429.8</ele>
        <time>2022-09-06T08:11:59Z</time>
      </trkpt>
      <trkpt lat="43.07234" lon="0.47224">
        <ele>430.8</ele>
        <time>2022-09-06T08:12:04Z</time>
      </trkpt>
      <trkpt lat="43.07232" lon="0.47219">
        <ele>431.2</ele>
        <time>2022-09-06T08:12:06Z</time>
      </trkpt>
      <trkpt lat="43.0723" lon="0.47208">
        <ele>432</ele>
        <time>2022-09-06T08:12:10Z</time>
      </trkpt>
      <trkpt lat="43.07228" lon="0.47202">
        <ele>432.4</ele>
        <time>2022-09-06T08:12:12Z</time>
      </trkpt>
      <trkpt lat="43.07228" lon="0.47187">
        <ele>433.2</ele>
        <time>2022-09-06T08:12:18Z</time>
      </trkpt>
      <trkpt lat="43.07226" lon="0.47169">
        <ele>434.2</ele>
        <time>2022-09-06T08:12:24Z</time>
      </trkpt>
      <trkpt lat="43.07228" lon="0.47149">
        <ele>434.8</ele>
        <time>2022-09-06T08:12:30Z</time>
      </trkpt>
      <trkpt lat="43.07229" lon="0.47133">
        <ele>435.2</ele>
        <time>2022-09-06T08:12:35Z</time>
      </trkpt>
      <trkpt lat="43.0723" lon="0.47118">
        <ele>435.6</ele>
        <time>2022-09-06T08:12:39Z</time>
      </trkpt>
      <trkpt lat="43.07234" lon="0.47074">
        <ele>435.8</ele>
        <time>2022-09-06T08:12:49Z</time>
      </trkpt>
      <trkpt lat="43.07238" lon="0.47041">
        <ele>436</ele>
        <time>2022-09-06T08:12:56Z</time>
      </trkpt>
      <trkpt lat="43.07242" lon="0.47002">
        <ele>436.2</ele>
        <time>2022-09-06T08:13:03Z</time>
      </trkpt>
      <trkpt lat="43.07242" lon="0.46991">
        <ele>436.4</ele>
        <time>2022-09-06T08:13:05Z</time>
      </trkpt>
      <trkpt lat="43.07245" lon="0.46934">
        <ele>436.4</ele>
        <time>2022-09-06T08:13:15Z</time>
      </trkpt>
      <trkpt lat="43.07248" lon="0.46881">
        <ele>436.6</ele>
        <time>2022-09-06T08:13:24Z</time>
      </trkpt>
      <trkpt lat="43.07249" lon="0.46816">
        <ele>437</ele>
        <time>2022-09-06T08:13:35Z</time>
      </trkpt>
      <trkpt lat="43.0725" lon="0.46787">
        <ele>437.4</ele>
        <time>2022-09-06T08:13:40Z</time>
      </trkpt>
      <trkpt lat="43.07251" lon="0.46752">
        <ele>437.8</ele>
        <time>2022-09-06T08:13:46Z</time>
      </trkpt>
      <trkpt lat="43.07253" lon="0.46698">
        <ele>438</ele>
        <time>2022-09-06T08:13:55Z</time>
      </trkpt>
      <trkpt lat="43.07253" lon="0.4664">
        <ele>438.4</ele>
        <time>2022-09-06T08:14:05Z</time>
      </trkpt>
      <trkpt lat="43.07253" lon="0.46618">
        <ele>438.4</ele>
        <time>2022-09-06T08:14:09Z</time>
      </trkpt>
      <trkpt lat="43.07252" lon="0.46604">
        <ele>438.4</ele>
        <time>2022-09-06T08:14:12Z</time>
      </trkpt>
      <trkpt lat="43.07252" lon="0.46561">
        <ele>438.8</ele>
        <time>2022-09-06T08:14:20Z</time>
      </trkpt>
      <trkpt lat="43.07255" lon="0.46523">
        <ele>438.8</ele>
        <time>2022-09-06T08:14:27Z</time>
      </trkpt>
      <trkpt lat="43.07259" lon="0.46481">
        <ele>439.4</ele>
        <time>2022-09-06T08:14:35Z</time>
      </trkpt>
      <trkpt lat="43.07259" lon="0.46477">
        <ele>439.6</ele>
        <time>2022-09-06T08:14:36Z</time>
      </trkpt>
      <trkpt lat="43.07261" lon="0.46468">
        <ele>439.2</ele>
        <time>2022-09-06T08:14:39Z</time>
      </trkpt>
      <trkpt lat="43.07261" lon="0.46468">
        <ele>439.2</ele>
        <time>2022-09-06T08:14:40Z</time>
      </trkpt>
      <trkpt lat="43.07261" lon="0.46457">
        <ele>439.4</ele>
        <time>2022-09-06T08:14:56Z</time>
      </trkpt>
      <trkpt lat="43.07262" lon="0.46454">
        <ele>439.6</ele>
        <time>2022-09-06T08:14:57Z</time>
      </trkpt>
      <trkpt lat="43.07265" lon="0.46442">
        <ele>439.6</ele>
        <time>2022-09-06T08:15:00Z</time>
      </trkpt>
      <trkpt lat="43.07267" lon="0.46426">
        <ele>440</ele>
        <time>2022-09-06T08:15:03Z</time>
      </trkpt>
      <trkpt lat="43.07271" lon="0.46386">
        <ele>440</ele>
        <time>2022-09-06T08:15:10Z</time>
      </trkpt>
      <trkpt lat="43.07274" lon="0.46346">
        <ele>440.6</ele>
        <time>2022-09-06T08:15:17Z</time>
      </trkpt>
      <trkpt lat="43.07277" lon="0.46307">
        <ele>440.6</ele>
        <time>2022-09-06T08:15:24Z</time>
      </trkpt>
      <trkpt lat="43.0728" lon="0.46247">
        <ele>441</ele>
        <time>2022-09-06T08:15:34Z</time>
      </trkpt>
      <trkpt lat="43.07281" lon="0.46193">
        <ele>440.2</ele>
        <time>2022-09-06T08:15:42Z</time>
      </trkpt>
      <trkpt lat="43.07278" lon="0.46148">
        <ele>440.4</ele>
        <time>2022-09-06T08:15:49Z</time>
      </trkpt>
      <trkpt lat="43.0727" lon="0.46109">
        <ele>440.4</ele>
        <time>2022-09-06T08:15:56Z</time>
      </trkpt>
      <trkpt lat="43.0726" lon="0.46052">
        <ele>441</ele>
        <time>2022-09-06T08:16:06Z</time>
      </trkpt>
      <trkpt lat="43.07253" lon="0.46008">
        <ele>441.2</ele>
        <time>2022-09-06T08:16:14Z</time>
      </trkpt>
      <trkpt lat="43.07247" lon="0.45958">
        <ele>441.2</ele>
        <time>2022-09-06T08:16:23Z</time>
      </trkpt>
      <trkpt lat="43.07245" lon="0.45924">
        <ele>441.2</ele>
        <time>2022-09-06T08:16:30Z</time>
      </trkpt>
      <trkpt lat="43.07244" lon="0.45887">
        <ele>441.6</ele>
        <time>2022-09-06T08:16:37Z</time>
      </trkpt>
      <trkpt lat="43.07243" lon="0.45871">
        <ele>441.8</ele>
        <time>2022-09-06T08:16:40Z</time>
      </trkpt>
      <trkpt lat="43.07239" lon="0.45832">
        <ele>442.4</ele>
        <time>2022-09-06T08:16:47Z</time>
      </trkpt>
      <trkpt lat="43.07231" lon="0.45776">
        <ele>442.2</ele>
        <time>2022-09-06T08:16:57Z</time>
      </trkpt>
      <trkpt lat="43.07221" lon="0.45719">
        <ele>442.8</ele>
        <time>2022-09-06T08:17:07Z</time>
      </trkpt>
      <trkpt lat="43.0722" lon="0.45714">
        <ele>442.8</ele>
        <time>2022-09-06T08:17:08Z</time>
      </trkpt>
      <trkpt lat="43.07219" lon="0.45666">
        <ele>443.4</ele>
        <time>2022-09-06T08:17:17Z</time>
      </trkpt>
      <trkpt lat="43.0722" lon="0.45655">
        <ele>443.8</ele>
        <time>2022-09-06T08:17:19Z</time>
      </trkpt>
      <trkpt lat="43.07224" lon="0.45608">
        <ele>444.4</ele>
        <time>2022-09-06T08:17:28Z</time>
      </trkpt>
      <trkpt lat="43.07234" lon="0.45561">
        <ele>443.8</ele>
        <time>2022-09-06T08:17:37Z</time>
      </trkpt>
      <trkpt lat="43.07244" lon="0.45515">
        <ele>443</ele>
        <time>2022-09-06T08:17:44Z</time>
      </trkpt>
      <trkpt lat="43.07246" lon="0.45508">
        <ele>442.8</ele>
        <time>2022-09-06T08:17:45Z</time>
      </trkpt>
      <trkpt lat="43.07256" lon="0.45468">
        <ele>442.2</ele>
        <time>2022-09-06T08:17:51Z</time>
      </trkpt>
      <trkpt lat="43.07276" lon="0.454">
        <ele>442</ele>
        <time>2022-09-06T08:18:01Z</time>
      </trkpt>
      <trkpt lat="43.07289" lon="0.45354">
        <ele>441.8</ele>
        <time>2022-09-06T08:18:08Z</time>
      </trkpt>
      <trkpt lat="43.07291" lon="0.45348">
        <ele>441.8</ele>
        <time>2022-09-06T08:18:09Z</time>
      </trkpt>
      <trkpt lat="43.07303" lon="0.45303">
        <ele>441.8</ele>
        <time>2022-09-06T08:18:16Z</time>
      </trkpt>
      <trkpt lat="43.07315" lon="0.45251">
        <ele>442</ele>
        <time>2022-09-06T08:18:24Z</time>
      </trkpt>
      <trkpt lat="43.07329" lon="0.45193">
        <ele>442.2</ele>
        <time>2022-09-06T08:18:33Z</time>
      </trkpt>
      <trkpt lat="43.07349" lon="0.45133">
        <ele>442.6</ele>
        <time>2022-09-06T08:18:43Z</time>
      </trkpt>
      <trkpt lat="43.07366" lon="0.45084">
        <ele>442.8</ele>
        <time>2022-09-06T08:18:51Z</time>
      </trkpt>
      <trkpt lat="43.07372" lon="0.45065">
        <ele>443</ele>
        <time>2022-09-06T08:18:54Z</time>
      </trkpt>
      <trkpt lat="43.07395" lon="0.44999">
        <ele>443.6</ele>
        <time>2022-09-06T08:19:05Z</time>
      </trkpt>
      <trkpt lat="43.07411" lon="0.44951">
        <ele>443.2</ele>
        <time>2022-09-06T08:19:13Z</time>
      </trkpt>
      <trkpt lat="43.07431" lon="0.44892">
        <ele>443.6</ele>
        <time>2022-09-06T08:19:23Z</time>
      </trkpt>
      <trkpt lat="43.07435" lon="0.44879">
        <ele>443.8</ele>
        <time>2022-09-06T08:19:25Z</time>
      </trkpt>
      <trkpt lat="43.07451" lon="0.44825">
        <ele>444.2</ele>
        <time>2022-09-06T08:19:34Z</time>
      </trkpt>
      <trkpt lat="43.07467" lon="0.44768">
        <ele>444.4</ele>
        <time>2022-09-06T08:19:44Z</time>
      </trkpt>
      <trkpt lat="43.07479" lon="0.4471">
        <ele>444.4</ele>
        <time>2022-09-06T08:19:55Z</time>
      </trkpt>
      <trkpt lat="43.07487" lon="0.44683">
        <ele>444.2</ele>
        <time>2022-09-06T08:20:01Z</time>
      </trkpt>
      <trkpt lat="43.07488" lon="0.44674">
        <ele>444.2</ele>
        <time>2022-09-06T08:20:04Z</time>
      </trkpt>
      <trkpt lat="43.07486" lon="0.44672">
        <ele>444.2</ele>
        <time>2022-09-06T08:20:05Z</time>
      </trkpt>
      <trkpt lat="43.0747" lon="0.44665">
        <ele>443.2</ele>
        <time>2022-09-06T08:20:09Z</time>
      </trkpt>
      <trkpt lat="43.07459" lon="0.44659">
        <ele>442.8</ele>
        <time>2022-09-06T08:20:11Z</time>
      </trkpt>
      <trkpt lat="43.07442" lon="0.4465">
        <ele>442.2</ele>
        <time>2022-09-06T08:20:14Z</time>
      </trkpt>
      <trkpt lat="43.0743" lon="0.44644">
        <ele>441.6</ele>
        <time>2022-09-06T08:20:16Z</time>
      </trkpt>
      <trkpt lat="43.07392" lon="0.44624">
        <ele>441.2</ele>
        <time>2022-09-06T08:20:23Z</time>
      </trkpt>
      <trkpt lat="43.07358" lon="0.44607">
        <ele>441</ele>
        <time>2022-09-06T08:20:30Z</time>
      </trkpt>
      <trkpt lat="43.07319" lon="0.44585">
        <ele>440.4</ele>
        <time>2022-09-06T08:20:38Z</time>
      </trkpt>
      <trkpt lat="43.07315" lon="0.44583">
        <ele>440.4</ele>
        <time>2022-09-06T08:20:39Z</time>
      </trkpt>
      <trkpt lat="43.07278" lon="0.44564">
        <ele>439.6</ele>
        <time>2022-09-06T08:20:47Z</time>
      </trkpt>
      <trkpt lat="43.07258" lon="0.44554">
        <ele>439.4</ele>
        <time>2022-09-06T08:20:52Z</time>
      </trkpt>
      <trkpt lat="43.07238" lon="0.44543">
        <ele>439.4</ele>
        <time>2022-09-06T08:20:57Z</time>
      </trkpt>
      <trkpt lat="43.072" lon="0.44523">
        <ele>439</ele>
        <time>2022-09-06T08:21:07Z</time>
      </trkpt>
      <trkpt lat="43.07184" lon="0.44515">
        <ele>438.6</ele>
        <time>2022-09-06T08:21:13Z</time>
      </trkpt>
      <trkpt lat="43.07174" lon="0.44506">
        <ele>438.4</ele>
        <time>2022-09-06T08:21:17Z</time>
      </trkpt>
      <trkpt lat="43.07174" lon="0.44501">
        <ele>438.2</ele>
        <time>2022-09-06T08:21:18Z</time>
      </trkpt>
      <trkpt lat="43.07178" lon="0.44485">
        <ele>438</ele>
        <time>2022-09-06T08:21:21Z</time>
      </trkpt>
      <trkpt lat="43.0718" lon="0.44474">
        <ele>438</ele>
        <time>2022-09-06T08:21:23Z</time>
      </trkpt>
      <trkpt lat="43.0719" lon="0.44438">
        <ele>438.4</ele>
        <time>2022-09-06T08:21:29Z</time>
      </trkpt>
      <trkpt lat="43.0721" lon="0.44389">
        <ele>438.8</ele>
        <time>2022-09-06T08:21:38Z</time>
      </trkpt>
      <trkpt lat="43.07226" lon="0.44359">
        <ele>439.2</ele>
        <time>2022-09-06T08:21:44Z</time>
      </trkpt>
      <trkpt lat="43.07234" lon="0.44345">
        <ele>439.2</ele>
        <time>2022-09-06T08:21:47Z</time>
      </trkpt>
      <trkpt lat="43.07269" lon="0.4429">
        <ele>439.8</ele>
        <time>2022-09-06T08:21:59Z</time>
      </trkpt>
      <trkpt lat="43.07288" lon="0.44259">
        <ele>439.8</ele>
        <time>2022-09-06T08:22:06Z</time>
      </trkpt>
      <trkpt lat="43.07297" lon="0.44245">
        <ele>440.4</ele>
        <time>2022-09-06T08:22:09Z</time>
      </trkpt>
      <trkpt lat="43.07323" lon="0.44204">
        <ele>440.4</ele>
        <time>2022-09-06T08:22:18Z</time>
      </trkpt>
      <trkpt lat="43.07349" lon="0.44164">
        <ele>440.6</ele>
        <time>2022-09-06T08:22:27Z</time>
      </trkpt>
      <trkpt lat="43.07378" lon="0.44128">
        <ele>441.4</ele>
        <time>2022-09-06T08:22:36Z</time>
      </trkpt>
      <trkpt lat="43.07384" lon="0.44121">
        <ele>441.4</ele>
        <time>2022-09-06T08:22:38Z</time>
      </trkpt>
      <trkpt lat="43.07407" lon="0.44096">
        <ele>442</ele>
        <time>2022-09-06T08:22:45Z</time>
      </trkpt>
      <trkpt lat="43.07423" lon="0.44072">
        <ele>442.2</ele>
        <time>2022-09-06T08:22:51Z</time>
      </trkpt>
      <trkpt lat="43.0743" lon="0.4406">
        <ele>442.6</ele>
        <time>2022-09-06T08:22:54Z</time>
      </trkpt>
      <trkpt lat="43.07432" lon="0.44051">
        <ele>442.6</ele>
        <time>2022-09-06T08:22:56Z</time>
      </trkpt>
      <trkpt lat="43.07433" lon="0.44025">
        <ele>442.6</ele>
        <time>2022-09-06T08:23:02Z</time>
      </trkpt>
      <trkpt lat="43.07431" lon="0.44022">
        <ele>442.6</ele>
        <time>2022-09-06T08:23:03Z</time>
      </trkpt>
      <trkpt lat="43.07425" lon="0.4402">
        <ele>442.6</ele>
        <time>2022-09-06T08:23:05Z</time>
      </trkpt>
      <trkpt lat="43.07418" lon="0.44019">
        <ele>442.6</ele>
        <time>2022-09-06T08:23:07Z</time>
      </trkpt>
      <trkpt lat="43.07402" lon="0.44019">
        <ele>442.6</ele>
        <time>2022-09-06T08:23:11Z</time>
      </trkpt>
      <trkpt lat="43.07365" lon="0.44016">
        <ele>442</ele>
        <time>2022-09-06T08:23:19Z</time>
      </trkpt>
      <trkpt lat="43.07345" lon="0.44011">
        <ele>441.6</ele>
        <time>2022-09-06T08:23:23Z</time>
      </trkpt>
      <trkpt lat="43.0733" lon="0.44008">
        <ele>441.2</ele>
        <time>2022-09-06T08:23:26Z</time>
      </trkpt>
      <trkpt lat="43.07293" lon="0.44001">
        <ele>440.8</ele>
        <time>2022-09-06T08:23:34Z</time>
      </trkpt>
      <trkpt lat="43.07283" lon="0.44001">
        <ele>440.6</ele>
        <time>2022-09-06T08:23:36Z</time>
      </trkpt>
      <trkpt lat="43.07278" lon="0.44003">
        <ele>440.6</ele>
        <time>2022-09-06T08:23:37Z</time>
      </trkpt>
      <trkpt lat="43.07268" lon="0.44006">
        <ele>440.4</ele>
        <time>2022-09-06T08:23:39Z</time>
      </trkpt>
      <trkpt lat="43.07263" lon="0.44008">
        <ele>440.4</ele>
        <time>2022-09-06T08:23:40Z</time>
      </trkpt>
      <trkpt lat="43.07258" lon="0.4401">
        <ele>440.4</ele>
        <time>2022-09-06T08:23:41Z</time>
      </trkpt>
      <trkpt lat="43.07229" lon="0.44023">
        <ele>439.8</ele>
        <time>2022-09-06T08:23:47Z</time>
      </trkpt>
      <trkpt lat="43.0718" lon="0.44044">
        <ele>439.8</ele>
        <time>2022-09-06T08:23:57Z</time>
      </trkpt>
      <trkpt lat="43.07166" lon="0.4405">
        <ele>439.4</ele>
        <time>2022-09-06T08:24:00Z</time>
      </trkpt>
      <trkpt lat="43.07154" lon="0.44055">
        <ele>440</ele>
        <time>2022-09-06T08:24:03Z</time>
      </trkpt>
      <trkpt lat="43.07143" lon="0.44061">
        <ele>440.8</ele>
        <time>2022-09-06T08:24:06Z</time>
      </trkpt>
      <trkpt lat="43.07126" lon="0.44068">
        <ele>441.2</ele>
        <time>2022-09-06T08:24:11Z</time>
      </trkpt>
      <trkpt lat="43.07099" lon="0.44077">
        <ele>441</ele>
        <time>2022-09-06T08:24:18Z</time>
      </trkpt>
      <trkpt lat="43.0707" lon="0.44091">
        <ele>440.6</ele>
        <time>2022-09-06T08:24:25Z</time>
      </trkpt>
      <trkpt lat="43.07037" lon="0.44115">
        <ele>439.4</ele>
        <time>2022-09-06T08:24:32Z</time>
      </trkpt>
      <trkpt lat="43.07023" lon="0.44128">
        <ele>438.6</ele>
        <time>2022-09-06T08:24:37Z</time>
      </trkpt>
      <trkpt lat="43.07021" lon="0.44128">
        <ele>438.4</ele>
        <time>2022-09-06T08:24:38Z</time>
      </trkpt>
      <trkpt lat="43.07016" lon="0.44137">
        <ele>437.6</ele>
        <time>2022-09-06T08:27:01Z</time>
      </trkpt>
      <trkpt lat="43.07011" lon="0.44142">
        <ele>437.6</ele>
        <time>2022-09-06T08:27:03Z</time>
      </trkpt>
      <trkpt lat="43.07006" lon="0.44146">
        <ele>437.4</ele>
        <time>2022-09-06T08:27:05Z</time>
      </trkpt>
      <trkpt lat="43.06993" lon="0.44161">
        <ele>437.2</ele>
        <time>2022-09-06T08:27:10Z</time>
      </trkpt>
      <trkpt lat="43.06969" lon="0.44186">
        <ele>436.8</ele>
        <time>2022-09-06T08:27:19Z</time>
      </trkpt>
      <trkpt lat="43.06954" lon="0.44204">
        <ele>436.6</ele>
        <time>2022-09-06T08:27:25Z</time>
      </trkpt>
      <trkpt lat="43.06938" lon="0.4421">
        <ele>436.2</ele>
        <time>2022-09-06T08:27:30Z</time>
      </trkpt>
      <trkpt lat="43.06935" lon="0.4421">
        <ele>436.2</ele>
        <time>2022-09-06T08:27:31Z</time>
      </trkpt>
      <trkpt lat="43.06916" lon="0.44202">
        <ele>436.6</ele>
        <time>2022-09-06T08:27:38Z</time>
      </trkpt>
      <trkpt lat="43.069" lon="0.44195">
        <ele>436.6</ele>
        <time>2022-09-06T08:27:45Z</time>
      </trkpt>
      <trkpt lat="43.06895" lon="0.44192">
        <ele>437</ele>
        <time>2022-09-06T08:27:48Z</time>
      </trkpt>
      <trkpt lat="43.06895" lon="0.44189">
        <ele>437</ele>
        <time>2022-09-06T08:27:49Z</time>
      </trkpt>
      <trkpt lat="43.06898" lon="0.4417">
        <ele>437.2</ele>
        <time>2022-09-06T08:27:54Z</time>
      </trkpt>
      <trkpt lat="43.06901" lon="0.44163">
        <ele>437.4</ele>
        <time>2022-09-06T08:27:56Z</time>
      </trkpt>
      <trkpt lat="43.06908" lon="0.4415">
        <ele>437.8</ele>
        <time>2022-09-06T08:28:00Z</time>
      </trkpt>
      <trkpt lat="43.06924" lon="0.44125">
        <ele>437.8</ele>
        <time>2022-09-06T08:28:08Z</time>
      </trkpt>
      <trkpt lat="43.06944" lon="0.44109">
        <ele>437.6</ele>
        <time>2022-09-06T08:28:15Z</time>
      </trkpt>
      <trkpt lat="43.06964" lon="0.44094">
        <ele>437.6</ele>
        <time>2022-09-06T08:28:22Z</time>
      </trkpt>
      <trkpt lat="43.06977" lon="0.44073">
        <ele>438</ele>
        <time>2022-09-06T08:28:28Z</time>
      </trkpt>
      <trkpt lat="43.06982" lon="0.44061">
        <ele>438.4</ele>
        <time>2022-09-06T08:28:31Z</time>
      </trkpt>
      <trkpt lat="43.06987" lon="0.44045">
        <ele>438.6</ele>
        <time>2022-09-06T08:28:35Z</time>
      </trkpt>
      <trkpt lat="43.06995" lon="0.44021">
        <ele>439</ele>
        <time>2022-09-06T08:28:41Z</time>
      </trkpt>
      <trkpt lat="43.07" lon="0.44">
        <ele>439.4</ele>
        <time>2022-09-06T08:28:46Z</time>
      </trkpt>
      <trkpt lat="43.07" lon="0.43991">
        <ele>439.6</ele>
        <time>2022-09-06T08:28:48Z</time>
      </trkpt>
      <trkpt lat="43.06997" lon="0.43965">
        <ele>439.8</ele>
        <time>2022-09-06T08:28:53Z</time>
      </trkpt>
      <trkpt lat="43.06992" lon="0.43941">
        <ele>439.6</ele>
        <time>2022-09-06T08:28:57Z</time>
      </trkpt>
      <trkpt lat="43.06992" lon="0.43936">
        <ele>439.6</ele>
        <time>2022-09-06T08:28:58Z</time>
      </trkpt>
      <trkpt lat="43.0699" lon="0.43919">
        <ele>439.8</ele>
        <time>2022-09-06T08:29:01Z</time>
      </trkpt>
      <trkpt lat="43.06989" lon="0.43906">
        <ele>439.8</ele>
        <time>2022-09-06T08:29:03Z</time>
      </trkpt>
      <trkpt lat="43.06988" lon="0.43866">
        <ele>440</ele>
        <time>2022-09-06T08:29:10Z</time>
      </trkpt>
      <trkpt lat="43.06985" lon="0.43832">
        <ele>440.4</ele>
        <time>2022-09-06T08:29:16Z</time>
      </trkpt>
      <trkpt lat="43.06988" lon="0.43798">
        <ele>440.2</ele>
        <time>2022-09-06T08:29:22Z</time>
      </trkpt>
      <trkpt lat="43.0699" lon="0.43788">
        <ele>440.6</ele>
        <time>2022-09-06T08:29:24Z</time>
      </trkpt>
      <trkpt lat="43.06993" lon="0.43755">
        <ele>440.8</ele>
        <time>2022-09-06T08:29:30Z</time>
      </trkpt>
      <trkpt lat="43.07001" lon="0.43727">
        <ele>441</ele>
        <time>2022-09-06T08:29:36Z</time>
      </trkpt>
      <trkpt lat="43.07012" lon="0.43701">
        <ele>441.4</ele>
        <time>2022-09-06T08:29:43Z</time>
      </trkpt>
      <trkpt lat="43.07014" lon="0.4369">
        <ele>441.6</ele>
        <time>2022-09-06T08:29:46Z</time>
      </trkpt>
      <trkpt lat="43.07013" lon="0.43684">
        <ele>441.8</ele>
        <time>2022-09-06T08:29:48Z</time>
      </trkpt>
      <trkpt lat="43.07009" lon="0.4368">
        <ele>442.2</ele>
        <time>2022-09-06T08:29:50Z</time>
      </trkpt>
      <trkpt lat="43.07003" lon="0.4367">
        <ele>442.2</ele>
        <time>2022-09-06T08:29:53Z</time>
      </trkpt>
      <trkpt lat="43.06981" lon="0.4364">
        <ele>442.2</ele>
        <time>2022-09-06T08:30:02Z</time>
      </trkpt>
      <trkpt lat="43.06959" lon="0.43604">
        <ele>442.6</ele>
        <time>2022-09-06T08:30:11Z</time>
      </trkpt>
      <trkpt lat="43.06957" lon="0.43599">
        <ele>442.6</ele>
        <time>2022-09-06T08:30:12Z</time>
      </trkpt>
      <trkpt lat="43.06941" lon="0.43564">
        <ele>442.8</ele>
        <time>2022-09-06T08:30:20Z</time>
      </trkpt>
      <trkpt lat="43.06931" lon="0.43524">
        <ele>443.6</ele>
        <time>2022-09-06T08:30:29Z</time>
      </trkpt>
      <trkpt lat="43.0693" lon="0.4352">
        <ele>443.8</ele>
        <time>2022-09-06T08:30:30Z</time>
      </trkpt>
      <trkpt lat="43.06928" lon="0.43503">
        <ele>444.4</ele>
        <time>2022-09-06T08:30:35Z</time>
      </trkpt>
      <trkpt lat="43.06926" lon="0.43489">
        <ele>445</ele>
        <time>2022-09-06T08:30:39Z</time>
      </trkpt>
      <trkpt lat="43.06924" lon="0.43482">
        <ele>445.2</ele>
        <time>2022-09-06T08:30:41Z</time>
      </trkpt>
      <trkpt lat="43.06922" lon="0.43466">
        <ele>446</ele>
        <time>2022-09-06T08:30:45Z</time>
      </trkpt>
      <trkpt lat="43.06919" lon="0.43443">
        <ele>447.2</ele>
        <time>2022-09-06T08:30:51Z</time>
      </trkpt>
      <trkpt lat="43.06919" lon="0.43439">
        <ele>447.4</ele>
        <time>2022-09-06T08:30:52Z</time>
      </trkpt>
      <trkpt lat="43.06918" lon="0.43428">
        <ele>448.2</ele>
        <time>2022-09-06T08:30:55Z</time>
      </trkpt>
      <trkpt lat="43.06917" lon="0.43411">
        <ele>449.2</ele>
        <time>2022-09-06T08:31:00Z</time>
      </trkpt>
      <trkpt lat="43.06916" lon="0.43407">
        <ele>449.4</ele>
        <time>2022-09-06T08:31:01Z</time>
      </trkpt>
      <trkpt lat="43.06916" lon="0.43386">
        <ele>450.4</ele>
        <time>2022-09-06T08:31:07Z</time>
      </trkpt>
      <trkpt lat="43.06916" lon="0.43382">
        <ele>450.6</ele>
        <time>2022-09-06T08:31:08Z</time>
      </trkpt>
      <trkpt lat="43.06917" lon="0.43363">
        <ele>451.4</ele>
        <time>2022-09-06T08:31:14Z</time>
      </trkpt>
      <trkpt lat="43.06917" lon="0.43361">
        <ele>451.6</ele>
        <time>2022-09-06T08:31:15Z</time>
      </trkpt>
      <trkpt lat="43.06917" lon="0.43346">
        <ele>452.6</ele>
        <time>2022-09-06T08:31:20Z</time>
      </trkpt>
      <trkpt lat="43.06917" lon="0.43344">
        <ele>452.8</ele>
        <time>2022-09-06T08:31:21Z</time>
      </trkpt>
      <trkpt lat="43.06917" lon="0.43332">
        <ele>453.6</ele>
        <time>2022-09-06T08:31:26Z</time>
      </trkpt>
      <trkpt lat="43.06917" lon="0.4333">
        <ele>454</ele>
        <time>2022-09-06T08:31:27Z</time>
      </trkpt>
      <trkpt lat="43.06918" lon="0.43317">
        <ele>454.6</ele>
        <time>2022-09-06T08:31:32Z</time>
      </trkpt>
      <trkpt lat="43.06918" lon="0.43309">
        <ele>455.4</ele>
        <time>2022-09-06T08:31:35Z</time>
      </trkpt>
      <trkpt lat="43.06919" lon="0.43304">
        <ele>455.8</ele>
        <time>2022-09-06T08:31:37Z</time>
      </trkpt>
      <trkpt lat="43.06918" lon="0.43292">
        <ele>457.2</ele>
        <time>2022-09-06T08:31:42Z</time>
      </trkpt>
      <trkpt lat="43.06915" lon="0.43279">
        <ele>458.2</ele>
        <time>2022-09-06T08:31:47Z</time>
      </trkpt>
      <trkpt lat="43.06915" lon="0.43275">
        <ele>458.6</ele>
        <time>2022-09-06T08:31:49Z</time>
      </trkpt>
      <trkpt lat="43.06914" lon="0.43269">
        <ele>459.4</ele>
        <time>2022-09-06T08:31:52Z</time>
      </trkpt>
      <trkpt lat="43.0691" lon="0.43256">
        <ele>460.4</ele>
        <time>2022-09-06T08:31:57Z</time>
      </trkpt>
      <trkpt lat="43.06908" lon="0.43251">
        <ele>460.8</ele>
        <time>2022-09-06T08:31:59Z</time>
      </trkpt>
      <trkpt lat="43.06905" lon="0.43242">
        <ele>461.4</ele>
        <time>2022-09-06T08:32:03Z</time>
      </trkpt>
      <trkpt lat="43.069" lon="0.43233">
        <ele>462.2</ele>
        <time>2022-09-06T08:32:07Z</time>
      </trkpt>
      <trkpt lat="43.069" lon="0.4323">
        <ele>462.4</ele>
        <time>2022-09-06T08:32:08Z</time>
      </trkpt>
      <trkpt lat="43.06894" lon="0.43217">
        <ele>463.6</ele>
        <time>2022-09-06T08:32:14Z</time>
      </trkpt>
      <trkpt lat="43.06891" lon="0.43213">
        <ele>464</ele>
        <time>2022-09-06T08:32:16Z</time>
      </trkpt>
      <trkpt lat="43.06888" lon="0.43206">
        <ele>464.6</ele>
        <time>2022-09-06T08:32:19Z</time>
      </trkpt>
      <trkpt lat="43.06882" lon="0.43196">
        <ele>465.8</ele>
        <time>2022-09-06T08:32:24Z</time>
      </trkpt>
      <trkpt lat="43.06881" lon="0.43194">
        <ele>465.8</ele>
        <time>2022-09-06T08:32:25Z</time>
      </trkpt>
      <trkpt lat="43.06876" lon="0.43186">
        <ele>467</ele>
        <time>2022-09-06T08:32:29Z</time>
      </trkpt>
      <trkpt lat="43.06872" lon="0.4318">
        <ele>467.6</ele>
        <time>2022-09-06T08:32:32Z</time>
      </trkpt>
      <trkpt lat="43.06869" lon="0.43174">
        <ele>468</ele>
        <time>2022-09-06T08:32:36Z</time>
      </trkpt>
      <trkpt lat="43.06865" lon="0.4317">
        <ele>468.2</ele>
        <time>2022-09-06T08:32:40Z</time>
      </trkpt>
      <trkpt lat="43.06862" lon="0.43163">
        <ele>468.4</ele>
        <time>2022-09-06T08:32:44Z</time>
      </trkpt>
      <trkpt lat="43.06862" lon="0.43161">
        <ele>468.4</ele>
        <time>2022-09-06T08:32:45Z</time>
      </trkpt>
      <trkpt lat="43.06853" lon="0.43148">
        <ele>469</ele>
        <time>2022-09-06T08:32:52Z</time>
      </trkpt>
      <trkpt lat="43.0685" lon="0.43143">
        <ele>469.2</ele>
        <time>2022-09-06T08:32:54Z</time>
      </trkpt>
      <trkpt lat="43.06841" lon="0.43126">
        <ele>469.4</ele>
        <time>2022-09-06T08:33:02Z</time>
      </trkpt>
      <trkpt lat="43.06831" lon="0.43109">
        <ele>469.8</ele>
        <time>2022-09-06T08:33:10Z</time>
      </trkpt>
      <trkpt lat="43.0682" lon="0.4309">
        <ele>470.2</ele>
        <time>2022-09-06T08:33:18Z</time>
      </trkpt>
      <trkpt lat="43.0681" lon="0.43073">
        <ele>470.2</ele>
        <time>2022-09-06T08:33:26Z</time>
      </trkpt>
      <trkpt lat="43.06803" lon="0.4306">
        <ele>470.2</ele>
        <time>2022-09-06T08:33:33Z</time>
      </trkpt>
      <trkpt lat="43.06796" lon="0.43046">
        <ele>470.2</ele>
        <time>2022-09-06T08:33:42Z</time>
      </trkpt>
      <trkpt lat="43.06793" lon="0.43045">
        <ele>469.8</ele>
        <time>2022-09-06T08:36:25Z</time>
      </trkpt>
      <trkpt lat="43.06785" lon="0.43033">
        <ele>470</ele>
        <time>2022-09-06T08:36:30Z</time>
      </trkpt>
      <trkpt lat="43.0677" lon="0.43007">
        <ele>470.2</ele>
        <time>2022-09-06T08:36:38Z</time>
      </trkpt>
      <trkpt lat="43.0674" lon="0.42957">
        <ele>470.4</ele>
        <time>2022-09-06T08:36:52Z</time>
      </trkpt>
      <trkpt lat="43.06716" lon="0.42915">
        <ele>470.6</ele>
        <time>2022-09-06T08:37:02Z</time>
      </trkpt>
      <trkpt lat="43.06695" lon="0.4288">
        <ele>470.8</ele>
        <time>2022-09-06T08:37:10Z</time>
      </trkpt>
      <trkpt lat="43.06672" lon="0.4284">
        <ele>470.4</ele>
        <time>2022-09-06T08:37:20Z</time>
      </trkpt>
      <trkpt lat="43.06647" lon="0.42796">
        <ele>470.4</ele>
        <time>2022-09-06T08:37:30Z</time>
      </trkpt>
      <trkpt lat="43.06625" lon="0.42757">
        <ele>470.4</ele>
        <time>2022-09-06T08:37:38Z</time>
      </trkpt>
      <trkpt lat="43.06606" lon="0.42723">
        <ele>470.4</ele>
        <time>2022-09-06T08:37:45Z</time>
      </trkpt>
      <trkpt lat="43.06593" lon="0.42691">
        <ele>470.4</ele>
        <time>2022-09-06T08:37:52Z</time>
      </trkpt>
      <trkpt lat="43.06596" lon="0.42671">
        <ele>470.4</ele>
        <time>2022-09-06T08:37:56Z</time>
      </trkpt>
      <trkpt lat="43.066" lon="0.4264">
        <ele>470.2</ele>
        <time>2022-09-06T08:38:02Z</time>
      </trkpt>
      <trkpt lat="43.06601" lon="0.42635">
        <ele>470.2</ele>
        <time>2022-09-06T08:38:03Z</time>
      </trkpt>
      <trkpt lat="43.06606" lon="0.42581">
        <ele>470.4</ele>
        <time>2022-09-06T08:38:13Z</time>
      </trkpt>
      <trkpt lat="43.06609" lon="0.42546">
        <ele>470.6</ele>
        <time>2022-09-06T08:38:20Z</time>
      </trkpt>
      <trkpt lat="43.06607" lon="0.42512">
        <ele>471</ele>
        <time>2022-09-06T08:38:27Z</time>
      </trkpt>
      <trkpt lat="43.06607" lon="0.42507">
        <ele>471.2</ele>
        <time>2022-09-06T08:38:28Z</time>
      </trkpt>
      <trkpt lat="43.06604" lon="0.42485">
        <ele>471.4</ele>
        <time>2022-09-06T08:38:34Z</time>
      </trkpt>
      <trkpt lat="43.066" lon="0.4246">
        <ele>471.8</ele>
        <time>2022-09-06T08:38:41Z</time>
      </trkpt>
      <trkpt lat="43.06597" lon="0.42437">
        <ele>471.8</ele>
        <time>2022-09-06T08:38:48Z</time>
      </trkpt>
      <trkpt lat="43.06592" lon="0.42422">
        <ele>472</ele>
        <time>2022-09-06T08:38:54Z</time>
      </trkpt>
      <trkpt lat="43.06589" lon="0.42415">
        <ele>472.2</ele>
        <time>2022-09-06T08:38:57Z</time>
      </trkpt>
      <trkpt lat="43.06587" lon="0.42406">
        <ele>472.6</ele>
        <time>2022-09-06T08:39:00Z</time>
      </trkpt>
      <trkpt lat="43.06584" lon="0.4239">
        <ele>473</ele>
        <time>2022-09-06T08:39:07Z</time>
      </trkpt>
      <trkpt lat="43.06584" lon="0.42388">
        <ele>473.2</ele>
        <time>2022-09-06T08:39:08Z</time>
      </trkpt>
      <trkpt lat="43.06585" lon="0.42386">
        <ele>473.2</ele>
        <time>2022-09-06T08:39:09Z</time>
      </trkpt>
      <trkpt lat="43.06586" lon="0.42382">
        <ele>473.6</ele>
        <time>2022-09-06T08:39:11Z</time>
      </trkpt>
      <trkpt lat="43.06587" lon="0.4238">
        <ele>473.6</ele>
        <time>2022-09-06T08:39:12Z</time>
      </trkpt>
      <trkpt lat="43.06594" lon="0.42363">
        <ele>473.6</ele>
        <time>2022-09-06T08:39:19Z</time>
      </trkpt>
      <trkpt lat="43.066" lon="0.4234">
        <ele>473.6</ele>
        <time>2022-09-06T08:39:27Z</time>
      </trkpt>
      <trkpt lat="43.06607" lon="0.42313">
        <ele>473.8</ele>
        <time>2022-09-06T08:39:36Z</time>
      </trkpt>
      <trkpt lat="43.06615" lon="0.4228">
        <ele>474</ele>
        <time>2022-09-06T08:39:46Z</time>
      </trkpt>
      <trkpt lat="43.06621" lon="0.42258">
        <ele>474</ele>
        <time>2022-09-06T08:39:53Z</time>
      </trkpt>
      <trkpt lat="43.06625" lon="0.42235">
        <ele>474.4</ele>
        <time>2022-09-06T08:40:00Z</time>
      </trkpt>
      <trkpt lat="43.06629" lon="0.42221">
        <ele>474.4</ele>
        <time>2022-09-06T08:40:04Z</time>
      </trkpt>
      <trkpt lat="43.06635" lon="0.42187">
        <ele>474.8</ele>
        <time>2022-09-06T08:40:13Z</time>
      </trkpt>
      <trkpt lat="43.06643" lon="0.42147">
        <ele>475.2</ele>
        <time>2022-09-06T08:40:23Z</time>
      </trkpt>
      <trkpt lat="43.06644" lon="0.42143">
        <ele>475.4</ele>
        <time>2022-09-06T08:40:24Z</time>
      </trkpt>
      <trkpt lat="43.0665" lon="0.42114">
        <ele>475.6</ele>
        <time>2022-09-06T08:40:31Z</time>
      </trkpt>
      <trkpt lat="43.06652" lon="0.42106">
        <ele>475.8</ele>
        <time>2022-09-06T08:40:33Z</time>
      </trkpt>
      <trkpt lat="43.06659" lon="0.42071">
        <ele>476.2</ele>
        <time>2022-09-06T08:40:42Z</time>
      </trkpt>
      <trkpt lat="43.06661" lon="0.42059">
        <ele>476.6</ele>
        <time>2022-09-06T08:40:45Z</time>
      </trkpt>
      <trkpt lat="43.06666" lon="0.42029">
        <ele>477.4</ele>
        <time>2022-09-06T08:40:53Z</time>
      </trkpt>
      <trkpt lat="43.06668" lon="0.42021">
        <ele>477.8</ele>
        <time>2022-09-06T08:40:55Z</time>
      </trkpt>
      <trkpt lat="43.06671" lon="0.41992">
        <ele>478.2</ele>
        <time>2022-09-06T08:41:03Z</time>
      </trkpt>
      <trkpt lat="43.06672" lon="0.41973">
        <ele>478.8</ele>
        <time>2022-09-06T08:41:09Z</time>
      </trkpt>
      <trkpt lat="43.06672" lon="0.41965">
        <ele>479.4</ele>
        <time>2022-09-06T08:41:12Z</time>
      </trkpt>
      <trkpt lat="43.06672" lon="0.41957">
        <ele>479.8</ele>
        <time>2022-09-06T08:41:15Z</time>
      </trkpt>
      <trkpt lat="43.06672" lon="0.41946">
        <ele>480.6</ele>
        <time>2022-09-06T08:41:19Z</time>
      </trkpt>
      <trkpt lat="43.06673" lon="0.41938">
        <ele>481</ele>
        <time>2022-09-06T08:41:22Z</time>
      </trkpt>
      <trkpt lat="43.06674" lon="0.41927">
        <ele>481.6</ele>
        <time>2022-09-06T08:41:26Z</time>
      </trkpt>
      <trkpt lat="43.06675" lon="0.41913">
        <ele>482.2</ele>
        <time>2022-09-06T08:41:31Z</time>
      </trkpt>
      <trkpt lat="43.06676" lon="0.41908">
        <ele>482.4</ele>
        <time>2022-09-06T08:41:33Z</time>
      </trkpt>
      <trkpt lat="43.06678" lon="0.41894">
        <ele>483.4</ele>
        <time>2022-09-06T08:41:39Z</time>
      </trkpt>
      <trkpt lat="43.06679" lon="0.41892">
        <ele>483.4</ele>
        <time>2022-09-06T08:41:40Z</time>
      </trkpt>
      <trkpt lat="43.06681" lon="0.41881">
        <ele>484.4</ele>
        <time>2022-09-06T08:41:46Z</time>
      </trkpt>
      <trkpt lat="43.06682" lon="0.41879">
        <ele>484.4</ele>
        <time>2022-09-06T08:41:47Z</time>
      </trkpt>
      <trkpt lat="43.06687" lon="0.41868">
        <ele>485</ele>
        <time>2022-09-06T08:41:53Z</time>
      </trkpt>
      <trkpt lat="43.06694" lon="0.41856">
        <ele>485.4</ele>
        <time>2022-09-06T08:41:59Z</time>
      </trkpt>
      <trkpt lat="43.06698" lon="0.41848">
        <ele>485.4</ele>
        <time>2022-09-06T08:42:02Z</time>
      </trkpt>
      <trkpt lat="43.06702" lon="0.4184">
        <ele>485.6</ele>
        <time>2022-09-06T08:42:05Z</time>
      </trkpt>
      <trkpt lat="43.06706" lon="0.41828">
        <ele>485.8</ele>
        <time>2022-09-06T08:42:09Z</time>
      </trkpt>
      <trkpt lat="43.06708" lon="0.41823">
        <ele>486</ele>
        <time>2022-09-06T08:42:11Z</time>
      </trkpt>
      <trkpt lat="43.0672" lon="0.41805">
        <ele>486.2</ele>
        <time>2022-09-06T08:42:18Z</time>
      </trkpt>
      <trkpt lat="43.06724" lon="0.418">
        <ele>486.4</ele>
        <time>2022-09-06T08:42:20Z</time>
      </trkpt>
      <trkpt lat="43.06728" lon="0.41792">
        <ele>486.4</ele>
        <time>2022-09-06T08:42:23Z</time>
      </trkpt>
      <trkpt lat="43.06739" lon="0.41774">
        <ele>486.6</ele>
        <time>2022-09-06T08:42:30Z</time>
      </trkpt>
      <trkpt lat="43.06747" lon="0.41759">
        <ele>486.8</ele>
        <time>2022-09-06T08:42:36Z</time>
      </trkpt>
      <trkpt lat="43.06758" lon="0.41735">
        <ele>486.4</ele>
        <time>2022-09-06T08:42:45Z</time>
      </trkpt>
      <trkpt lat="43.06763" lon="0.41717">
        <ele>486.4</ele>
        <time>2022-09-06T08:42:51Z</time>
      </trkpt>
      <trkpt lat="43.06763" lon="0.41692">
        <ele>487.4</ele>
        <time>2022-09-06T08:42:59Z</time>
      </trkpt>
      <trkpt lat="43.06762" lon="0.41688">
        <ele>487.6</ele>
        <time>2022-09-06T08:43:00Z</time>
      </trkpt>
      <trkpt lat="43.06764" lon="0.4167">
        <ele>488.6</ele>
        <time>2022-09-06T08:43:06Z</time>
      </trkpt>
      <trkpt lat="43.06764" lon="0.4166">
        <ele>489</ele>
        <time>2022-09-06T08:43:09Z</time>
      </trkpt>
      <trkpt lat="43.06766" lon="0.41651">
        <ele>489.6</ele>
        <time>2022-09-06T08:43:13Z</time>
      </trkpt>
      <trkpt lat="43.06768" lon="0.41643">
        <ele>490</ele>
        <time>2022-09-06T08:43:16Z</time>
      </trkpt>
      <trkpt lat="43.06768" lon="0.41635">
        <ele>490.8</ele>
        <time>2022-09-06T08:43:19Z</time>
      </trkpt>
      <trkpt lat="43.06767" lon="0.41616">
        <ele>491.6</ele>
        <time>2022-09-06T08:43:26Z</time>
      </trkpt>
      <trkpt lat="43.06767" lon="0.41613">
        <ele>491.8</ele>
        <time>2022-09-06T08:43:27Z</time>
      </trkpt>
      <trkpt lat="43.06768" lon="0.41599">
        <ele>492.8</ele>
        <time>2022-09-06T08:43:32Z</time>
      </trkpt>
      <trkpt lat="43.06768" lon="0.41593">
        <ele>493.2</ele>
        <time>2022-09-06T08:43:34Z</time>
      </trkpt>
      <trkpt lat="43.06768" lon="0.41586">
        <ele>493.8</ele>
        <time>2022-09-06T08:43:37Z</time>
      </trkpt>
      <trkpt lat="43.06769" lon="0.41583">
        <ele>494.2</ele>
        <time>2022-09-06T08:43:38Z</time>
      </trkpt>
      <trkpt lat="43.0677" lon="0.41578">
        <ele>494.6</ele>
        <time>2022-09-06T08:43:40Z</time>
      </trkpt>
      <trkpt lat="43.0677" lon="0.41576">
        <ele>494.8</ele>
        <time>2022-09-06T08:43:41Z</time>
      </trkpt>
      <trkpt lat="43.06771" lon="0.41569">
        <ele>496</ele>
        <time>2022-09-06T08:43:44Z</time>
      </trkpt>
      <trkpt lat="43.06771" lon="0.41565">
        <ele>496.4</ele>
        <time>2022-09-06T08:43:46Z</time>
      </trkpt>
      <trkpt lat="43.06771" lon="0.41563">
        <ele>496.6</ele>
        <time>2022-09-06T08:43:47Z</time>
      </trkpt>
      <trkpt lat="43.06772" lon="0.41558">
        <ele>497</ele>
        <time>2022-09-06T08:43:49Z</time>
      </trkpt>
      <trkpt lat="43.06774" lon="0.41546">
        <ele>498</ele>
        <time>2022-09-06T08:43:54Z</time>
      </trkpt>
      <trkpt lat="43.06781" lon="0.41525">
        <ele>497.6</ele>
        <time>2022-09-06T08:44:02Z</time>
      </trkpt>
      <trkpt lat="43.06794" lon="0.415">
        <ele>496.6</ele>
        <time>2022-09-06T08:44:08Z</time>
      </trkpt>
      <trkpt lat="43.06797" lon="0.41494">
        <ele>496.4</ele>
        <time>2022-09-06T08:44:09Z</time>
      </trkpt>
      <trkpt lat="43.06805" lon="0.41482">
        <ele>496</ele>
        <time>2022-09-06T08:44:11Z</time>
      </trkpt>
      <trkpt lat="43.06809" lon="0.41476">
        <ele>495.6</ele>
        <time>2022-09-06T08:44:12Z</time>
      </trkpt>
      <trkpt lat="43.06822" lon="0.41452">
        <ele>494.6</ele>
        <time>2022-09-06T08:44:15Z</time>
      </trkpt>
      <trkpt lat="43.06832" lon="0.41435">
        <ele>493.6</ele>
        <time>2022-09-06T08:44:17Z</time>
      </trkpt>
      <trkpt lat="43.06837" lon="0.41426">
        <ele>493.4</ele>
        <time>2022-09-06T08:44:18Z</time>
      </trkpt>
      <trkpt lat="43.06854" lon="0.41399">
        <ele>492</ele>
        <time>2022-09-06T08:44:21Z</time>
      </trkpt>
      <trkpt lat="43.0687" lon="0.4137">
        <ele>491.6</ele>
        <time>2022-09-06T08:44:24Z</time>
      </trkpt>
      <trkpt lat="43.0689" lon="0.41338">
        <ele>490.4</ele>
        <time>2022-09-06T08:44:27Z</time>
      </trkpt>
      <trkpt lat="43.06904" lon="0.41317">
        <ele>488.6</ele>
        <time>2022-09-06T08:44:29Z</time>
      </trkpt>
      <trkpt lat="43.06911" lon="0.41307">
        <ele>488</ele>
        <time>2022-09-06T08:44:30Z</time>
      </trkpt>
      <trkpt lat="43.06918" lon="0.41296">
        <ele>487</ele>
        <time>2022-09-06T08:44:31Z</time>
      </trkpt>
      <trkpt lat="43.06929" lon="0.41275">
        <ele>485.4</ele>
        <time>2022-09-06T08:44:33Z</time>
      </trkpt>
      <trkpt lat="43.06934" lon="0.41264">
        <ele>484.6</ele>
        <time>2022-09-06T08:44:34Z</time>
      </trkpt>
      <trkpt lat="43.06936" lon="0.41252">
        <ele>484.2</ele>
        <time>2022-09-06T08:44:35Z</time>
      </trkpt>
      <trkpt lat="43.06936" lon="0.41229">
        <ele>483.8</ele>
        <time>2022-09-06T08:44:37Z</time>
      </trkpt>
      <trkpt lat="43.06938" lon="0.41179">
        <ele>483.8</ele>
        <time>2022-09-06T08:44:42Z</time>
      </trkpt>
      <trkpt lat="43.06938" lon="0.41123">
        <ele>484.2</ele>
        <time>2022-09-06T08:44:49Z</time>
      </trkpt>
      <trkpt lat="43.06937" lon="0.41068">
        <ele>485</ele>
        <time>2022-09-06T08:44:57Z</time>
      </trkpt>
      <trkpt lat="43.06937" lon="0.41061">
        <ele>485.2</ele>
        <time>2022-09-06T08:44:58Z</time>
      </trkpt>
      <trkpt lat="43.06933" lon="0.41027">
        <ele>485.4</ele>
        <time>2022-09-06T08:45:04Z</time>
      </trkpt>
      <trkpt lat="43.06928" lon="0.40993">
        <ele>486.2</ele>
        <time>2022-09-06T08:45:11Z</time>
      </trkpt>
      <trkpt lat="43.06927" lon="0.40988">
        <ele>486.4</ele>
        <time>2022-09-06T08:45:12Z</time>
      </trkpt>
      <trkpt lat="43.06924" lon="0.40968">
        <ele>487</ele>
        <time>2022-09-06T08:45:17Z</time>
      </trkpt>
      <trkpt lat="43.06922" lon="0.40959">
        <ele>487.2</ele>
        <time>2022-09-06T08:45:19Z</time>
      </trkpt>
      <trkpt lat="43.06917" lon="0.40925">
        <ele>488</ele>
        <time>2022-09-06T08:45:27Z</time>
      </trkpt>
      <trkpt lat="43.06916" lon="0.40917">
        <ele>488.2</ele>
        <time>2022-09-06T08:45:29Z</time>
      </trkpt>
      <trkpt lat="43.06914" lon="0.40895">
        <ele>489.2</ele>
        <time>2022-09-06T08:45:35Z</time>
      </trkpt>
      <trkpt lat="43.06913" lon="0.40892">
        <ele>489.2</ele>
        <time>2022-09-06T08:45:36Z</time>
      </trkpt>
      <trkpt lat="43.06913" lon="0.40872">
        <ele>490.4</ele>
        <time>2022-09-06T08:45:42Z</time>
      </trkpt>
      <trkpt lat="43.06912" lon="0.40865">
        <ele>491</ele>
        <time>2022-09-06T08:45:44Z</time>
      </trkpt>
      <trkpt lat="43.06912" lon="0.40849">
        <ele>491.6</ele>
        <time>2022-09-06T08:45:49Z</time>
      </trkpt>
      <trkpt lat="43.06912" lon="0.40838">
        <ele>492.4</ele>
        <time>2022-09-06T08:45:53Z</time>
      </trkpt>
      <trkpt lat="43.06912" lon="0.40834">
        <ele>492.6</ele>
        <time>2022-09-06T08:45:54Z</time>
      </trkpt>
      <trkpt lat="43.06916" lon="0.4081">
        <ele>493</ele>
        <time>2022-09-06T08:46:01Z</time>
      </trkpt>
      <trkpt lat="43.06922" lon="0.40789">
        <ele>493.6</ele>
        <time>2022-09-06T08:46:07Z</time>
      </trkpt>
      <trkpt lat="43.06925" lon="0.40782">
        <ele>493.8</ele>
        <time>2022-09-06T08:46:09Z</time>
      </trkpt>
      <trkpt lat="43.06934" lon="0.40754">
        <ele>493.8</ele>
        <time>2022-09-06T08:46:17Z</time>
      </trkpt>
      <trkpt lat="43.06942" lon="0.40718">
        <ele>493.2</ele>
        <time>2022-09-06T08:46:24Z</time>
      </trkpt>
      <trkpt lat="43.06945" lon="0.4069">
        <ele>492.8</ele>
        <time>2022-09-06T08:46:29Z</time>
      </trkpt>
      <trkpt lat="43.06945" lon="0.40678">
        <ele>492.8</ele>
        <time>2022-09-06T08:46:31Z</time>
      </trkpt>
      <trkpt lat="43.06945" lon="0.40645">
        <ele>493.6</ele>
        <time>2022-09-06T08:46:37Z</time>
      </trkpt>
      <trkpt lat="43.06946" lon="0.40608">
        <ele>494.4</ele>
        <time>2022-09-06T08:46:44Z</time>
      </trkpt>
      <trkpt lat="43.06944" lon="0.40587">
        <ele>494.6</ele>
        <time>2022-09-06T08:46:48Z</time>
      </trkpt>
      <trkpt lat="43.06944" lon="0.40578">
        <ele>494.8</ele>
        <time>2022-09-06T08:46:50Z</time>
      </trkpt>
      <trkpt lat="43.06943" lon="0.40545">
        <ele>494</ele>
        <time>2022-09-06T08:46:56Z</time>
      </trkpt>
      <trkpt lat="43.06942" lon="0.40531">
        <ele>493.6</ele>
        <time>2022-09-06T08:46:58Z</time>
      </trkpt>
      <trkpt lat="43.06941" lon="0.40507">
        <ele>493.4</ele>
        <time>2022-09-06T08:47:01Z</time>
      </trkpt>
      <trkpt lat="43.06941" lon="0.40481">
        <ele>492.6</ele>
        <time>2022-09-06T08:47:04Z</time>
      </trkpt>
      <trkpt lat="43.06941" lon="0.40443">
        <ele>491.4</ele>
        <time>2022-09-06T08:47:08Z</time>
      </trkpt>
      <trkpt lat="43.06942" lon="0.40433">
        <ele>491.2</ele>
        <time>2022-09-06T08:47:09Z</time>
      </trkpt>
      <trkpt lat="43.06946" lon="0.40381">
        <ele>490.4</ele>
        <time>2022-09-06T08:47:14Z</time>
      </trkpt>
      <trkpt lat="43.0695" lon="0.40335">
        <ele>490</ele>
        <time>2022-09-06T08:47:19Z</time>
      </trkpt>
      <trkpt lat="43.06954" lon="0.40303">
        <ele>490.6</ele>
        <time>2022-09-06T08:47:24Z</time>
      </trkpt>
      <trkpt lat="43.06961" lon="0.40266">
        <ele>490.2</ele>
        <time>2022-09-06T08:47:30Z</time>
      </trkpt>
      <trkpt lat="43.06962" lon="0.40259">
        <ele>490</ele>
        <time>2022-09-06T08:47:31Z</time>
      </trkpt>
      <trkpt lat="43.06963" lon="0.40238">
        <ele>489.8</ele>
        <time>2022-09-06T08:47:34Z</time>
      </trkpt>
      <trkpt lat="43.06962" lon="0.40231">
        <ele>489.8</ele>
        <time>2022-09-06T08:47:35Z</time>
      </trkpt>
      <trkpt lat="43.06961" lon="0.40217">
        <ele>489.4</ele>
        <time>2022-09-06T08:47:37Z</time>
      </trkpt>
      <trkpt lat="43.06959" lon="0.40182">
        <ele>488.6</ele>
        <time>2022-09-06T08:47:42Z</time>
      </trkpt>
      <trkpt lat="43.0696" lon="0.40176">
        <ele>488.8</ele>
        <time>2022-09-06T08:47:43Z</time>
      </trkpt>
      <trkpt lat="43.06962" lon="0.40165">
        <ele>489</ele>
        <time>2022-09-06T08:47:45Z</time>
      </trkpt>
      <trkpt lat="43.06968" lon="0.40151">
        <ele>488.8</ele>
        <time>2022-09-06T08:47:48Z</time>
      </trkpt>
      <trkpt lat="43.06986" lon="0.40117">
        <ele>488.8</ele>
        <time>2022-09-06T08:47:57Z</time>
      </trkpt>
      <trkpt lat="43.07" lon="0.40095">
        <ele>488.2</ele>
        <time>2022-09-06T08:48:02Z</time>
      </trkpt>
      <trkpt lat="43.07004" lon="0.4009">
        <ele>488</ele>
        <time>2022-09-06T08:48:03Z</time>
      </trkpt>
      <trkpt lat="43.07014" lon="0.40074">
        <ele>487.4</ele>
        <time>2022-09-06T08:48:06Z</time>
      </trkpt>
      <trkpt lat="43.07018" lon="0.40069">
        <ele>486.4</ele>
        <time>2022-09-06T08:48:07Z</time>
      </trkpt>
      <trkpt lat="43.07028" lon="0.40059">
        <ele>485.6</ele>
        <time>2022-09-06T08:48:09Z</time>
      </trkpt>
      <trkpt lat="43.07034" lon="0.40054">
        <ele>485.6</ele>
        <time>2022-09-06T08:48:10Z</time>
      </trkpt>
      <trkpt lat="43.0704" lon="0.4005">
        <ele>485.2</ele>
        <time>2022-09-06T08:48:11Z</time>
      </trkpt>
      <trkpt lat="43.07052" lon="0.40041">
        <ele>484</ele>
        <time>2022-09-06T08:48:13Z</time>
      </trkpt>
      <trkpt lat="43.07065" lon="0.40032">
        <ele>483</ele>
        <time>2022-09-06T08:48:15Z</time>
      </trkpt>
      <trkpt lat="43.07083" lon="0.40009">
        <ele>481.6</ele>
        <time>2022-09-06T08:48:18Z</time>
      </trkpt>
      <trkpt lat="43.07089" lon="0.4">
        <ele>481.2</ele>
        <time>2022-09-06T08:48:19Z</time>
      </trkpt>
      <trkpt lat="43.07093" lon="0.3999">
        <ele>480.6</ele>
        <time>2022-09-06T08:48:20Z</time>
      </trkpt>
      <trkpt lat="43.07101" lon="0.39967">
        <ele>479.6</ele>
        <time>2022-09-06T08:48:22Z</time>
      </trkpt>
      <trkpt lat="43.07105" lon="0.39954">
        <ele>479.2</ele>
        <time>2022-09-06T08:48:23Z</time>
      </trkpt>
      <trkpt lat="43.07112" lon="0.39927">
        <ele>478.2</ele>
        <time>2022-09-06T08:48:25Z</time>
      </trkpt>
      <trkpt lat="43.07117" lon="0.399">
        <ele>476.8</ele>
        <time>2022-09-06T08:48:27Z</time>
      </trkpt>
      <trkpt lat="43.07119" lon="0.39886">
        <ele>476</ele>
        <time>2022-09-06T08:48:28Z</time>
      </trkpt>
      <trkpt lat="43.07119" lon="0.39872">
        <ele>475.2</ele>
        <time>2022-09-06T08:48:29Z</time>
      </trkpt>
      <trkpt lat="43.07119" lon="0.39843">
        <ele>474</ele>
        <time>2022-09-06T08:48:31Z</time>
      </trkpt>
      <trkpt lat="43.07118" lon="0.3983">
        <ele>473.6</ele>
        <time>2022-09-06T08:48:32Z</time>
      </trkpt>
      <trkpt lat="43.07117" lon="0.39817">
        <ele>473</ele>
        <time>2022-09-06T08:48:33Z</time>
      </trkpt>
      <trkpt lat="43.07118" lon="0.39805">
        <ele>472.2</ele>
        <time>2022-09-06T08:48:34Z</time>
      </trkpt>
      <trkpt lat="43.0712" lon="0.39794">
        <ele>471.6</ele>
        <time>2022-09-06T08:48:35Z</time>
      </trkpt>
      <trkpt lat="43.07133" lon="0.39779">
        <ele>470.8</ele>
        <time>2022-09-06T08:48:37Z</time>
      </trkpt>
      <trkpt lat="43.07141" lon="0.39774">
        <ele>470.4</ele>
        <time>2022-09-06T08:48:38Z</time>
      </trkpt>
      <trkpt lat="43.07149" lon="0.3977">
        <ele>470.2</ele>
        <time>2022-09-06T08:48:39Z</time>
      </trkpt>
      <trkpt lat="43.07179" lon="0.39753">
        <ele>469.8</ele>
        <time>2022-09-06T08:48:43Z</time>
      </trkpt>
      <trkpt lat="43.07221" lon="0.39728">
        <ele>469.4</ele>
        <time>2022-09-06T08:48:49Z</time>
      </trkpt>
      <trkpt lat="43.07241" lon="0.39716">
        <ele>469.2</ele>
        <time>2022-09-06T08:48:52Z</time>
      </trkpt>
      <trkpt lat="43.07253" lon="0.39707">
        <ele>469.4</ele>
        <time>2022-09-06T08:48:54Z</time>
      </trkpt>
      <trkpt lat="43.07262" lon="0.39696">
        <ele>469.4</ele>
        <time>2022-09-06T08:48:56Z</time>
      </trkpt>
      <trkpt lat="43.07274" lon="0.39669">
        <ele>470.4</ele>
        <time>2022-09-06T08:49:01Z</time>
      </trkpt>
      <trkpt lat="43.07288" lon="0.39639">
        <ele>469.8</ele>
        <time>2022-09-06T08:49:08Z</time>
      </trkpt>
      <trkpt lat="43.07302" lon="0.39612">
        <ele>470</ele>
        <time>2022-09-06T08:49:15Z</time>
      </trkpt>
      <trkpt lat="43.07322" lon="0.39582">
        <ele>470.6</ele>
        <time>2022-09-06T08:49:23Z</time>
      </trkpt>
      <trkpt lat="43.07332" lon="0.39562">
        <ele>471.6</ele>
        <time>2022-09-06T08:49:29Z</time>
      </trkpt>
      <trkpt lat="43.07333" lon="0.39558">
        <ele>471.6</ele>
        <time>2022-09-06T08:49:30Z</time>
      </trkpt>
      <trkpt lat="43.07337" lon="0.39539">
        <ele>472.4</ele>
        <time>2022-09-06T08:49:36Z</time>
      </trkpt>
      <trkpt lat="43.07338" lon="0.39532">
        <ele>472.8</ele>
        <time>2022-09-06T08:49:38Z</time>
      </trkpt>
      <trkpt lat="43.07339" lon="0.39518">
        <ele>473.8</ele>
        <time>2022-09-06T08:49:43Z</time>
      </trkpt>
      <trkpt lat="43.0734" lon="0.39512">
        <ele>474.2</ele>
        <time>2022-09-06T08:49:45Z</time>
      </trkpt>
      <trkpt lat="43.07342" lon="0.395">
        <ele>474.8</ele>
        <time>2022-09-06T08:49:49Z</time>
      </trkpt>
      <trkpt lat="43.07343" lon="0.39481">
        <ele>475.8</ele>
        <time>2022-09-06T08:49:55Z</time>
      </trkpt>
      <trkpt lat="43.07344" lon="0.39462">
        <ele>476.8</ele>
        <time>2022-09-06T08:50:01Z</time>
      </trkpt>
      <trkpt lat="43.07344" lon="0.39459">
        <ele>476.8</ele>
        <time>2022-09-06T08:50:02Z</time>
      </trkpt>
      <trkpt lat="43.07344" lon="0.39444">
        <ele>478</ele>
        <time>2022-09-06T08:50:07Z</time>
      </trkpt>
      <trkpt lat="43.07343" lon="0.39441">
        <ele>478</ele>
        <time>2022-09-06T08:50:08Z</time>
      </trkpt>
      <trkpt lat="43.07341" lon="0.39421">
        <ele>479.2</ele>
        <time>2022-09-06T08:50:15Z</time>
      </trkpt>
      <trkpt lat="43.0734" lon="0.39415">
        <ele>479.6</ele>
        <time>2022-09-06T08:50:17Z</time>
      </trkpt>
      <trkpt lat="43.07337" lon="0.39402">
        <ele>480.4</ele>
        <time>2022-09-06T08:50:22Z</time>
      </trkpt>
      <trkpt lat="43.07337" lon="0.39393">
        <ele>480.6</ele>
        <time>2022-09-06T08:50:25Z</time>
      </trkpt>
      <trkpt lat="43.07339" lon="0.3937">
        <ele>481.4</ele>
        <time>2022-09-06T08:50:33Z</time>
      </trkpt>
      <trkpt lat="43.07339" lon="0.39367">
        <ele>481.4</ele>
        <time>2022-09-06T08:50:34Z</time>
      </trkpt>
      <trkpt lat="43.07345" lon="0.39345">
        <ele>482.4</ele>
        <time>2022-09-06T08:50:42Z</time>
      </trkpt>
      <trkpt lat="43.07353" lon="0.39324">
        <ele>483</ele>
        <time>2022-09-06T08:50:49Z</time>
      </trkpt>
      <trkpt lat="43.07367" lon="0.3929">
        <ele>483.2</ele>
        <time>2022-09-06T08:50:59Z</time>
      </trkpt>
      <trkpt lat="43.0737" lon="0.39278">
        <ele>483.4</ele>
        <time>2022-09-06T08:51:02Z</time>
      </trkpt>
      <trkpt lat="43.07377" lon="0.39253">
        <ele>483.6</ele>
        <time>2022-09-06T08:51:08Z</time>
      </trkpt>
      <trkpt lat="43.07388" lon="0.39207">
        <ele>483.6</ele>
        <time>2022-09-06T08:51:18Z</time>
      </trkpt>
      <trkpt lat="43.07391" lon="0.39166">
        <ele>484</ele>
        <time>2022-09-06T08:51:26Z</time>
      </trkpt>
      <trkpt lat="43.07391" lon="0.39119">
        <ele>484.2</ele>
        <time>2022-09-06T08:51:35Z</time>
      </trkpt>
      <trkpt lat="43.07392" lon="0.39094">
        <ele>484.4</ele>
        <time>2022-09-06T08:51:40Z</time>
      </trkpt>
      <trkpt lat="43.07393" lon="0.39068">
        <ele>484.8</ele>
        <time>2022-09-06T08:51:45Z</time>
      </trkpt>
      <trkpt lat="43.07399" lon="0.39034">
        <ele>485.6</ele>
        <time>2022-09-06T08:51:52Z</time>
      </trkpt>
      <trkpt lat="43.074" lon="0.39029">
        <ele>485.6</ele>
        <time>2022-09-06T08:51:53Z</time>
      </trkpt>
      <trkpt lat="43.07412" lon="0.38987">
        <ele>486.4</ele>
        <time>2022-09-06T08:52:02Z</time>
      </trkpt>
      <trkpt lat="43.07418" lon="0.38974">
        <ele>486.6</ele>
        <time>2022-09-06T08:52:05Z</time>
      </trkpt>
      <trkpt lat="43.0743" lon="0.3895">
        <ele>487.8</ele>
        <time>2022-09-06T08:52:11Z</time>
      </trkpt>
      <trkpt lat="43.07444" lon="0.38926">
        <ele>488.8</ele>
        <time>2022-09-06T08:52:18Z</time>
      </trkpt>
      <trkpt lat="43.07445" lon="0.38923">
        <ele>489</ele>
        <time>2022-09-06T08:52:19Z</time>
      </trkpt>
      <trkpt lat="43.07464" lon="0.38897">
        <ele>490</ele>
        <time>2022-09-06T08:52:28Z</time>
      </trkpt>
      <trkpt lat="43.07466" lon="0.38894">
        <ele>490</ele>
        <time>2022-09-06T08:52:29Z</time>
      </trkpt>
      <trkpt lat="43.07481" lon="0.38873">
        <ele>491</ele>
        <time>2022-09-06T08:52:36Z</time>
      </trkpt>
      <trkpt lat="43.07483" lon="0.3887">
        <ele>491</ele>
        <time>2022-09-06T08:52:37Z</time>
      </trkpt>
      <trkpt lat="43.075" lon="0.38844">
        <ele>492</ele>
        <time>2022-09-06T08:52:46Z</time>
      </trkpt>
      <trkpt lat="43.07509" lon="0.38828">
        <ele>493</ele>
        <time>2022-09-06T08:52:52Z</time>
      </trkpt>
      <trkpt lat="43.07512" lon="0.38823">
        <ele>493.4</ele>
        <time>2022-09-06T08:52:54Z</time>
      </trkpt>
      <trkpt lat="43.07516" lon="0.38813">
        <ele>494.2</ele>
        <time>2022-09-06T08:52:58Z</time>
      </trkpt>
      <trkpt lat="43.07523" lon="0.38797">
        <ele>495</ele>
        <time>2022-09-06T08:53:04Z</time>
      </trkpt>
      <trkpt lat="43.07525" lon="0.38792">
        <ele>495.2</ele>
        <time>2022-09-06T08:53:06Z</time>
      </trkpt>
      <trkpt lat="43.07531" lon="0.38777">
        <ele>496</ele>
        <time>2022-09-06T08:53:12Z</time>
      </trkpt>
      <trkpt lat="43.07531" lon="0.38775">
        <ele>496.2</ele>
        <time>2022-09-06T08:53:13Z</time>
      </trkpt>
      <trkpt lat="43.07534" lon="0.38759">
        <ele>497.6</ele>
        <time>2022-09-06T08:53:20Z</time>
      </trkpt>
      <trkpt lat="43.07532" lon="0.38746">
        <ele>498.2</ele>
        <time>2022-09-06T08:53:25Z</time>
      </trkpt>
      <trkpt lat="43.07532" lon="0.38744">
        <ele>498.4</ele>
        <time>2022-09-06T08:53:26Z</time>
      </trkpt>
      <trkpt lat="43.07533" lon="0.38739">
        <ele>498.8</ele>
        <time>2022-09-06T08:53:28Z</time>
      </trkpt>
      <trkpt lat="43.07533" lon="0.38737">
        <ele>498.8</ele>
        <time>2022-09-06T08:53:29Z</time>
      </trkpt>
      <trkpt lat="43.07533" lon="0.3873">
        <ele>499.2</ele>
        <time>2022-09-06T08:53:32Z</time>
      </trkpt>
      <trkpt lat="43.07531" lon="0.38721">
        <ele>499.8</ele>
        <time>2022-09-06T08:53:36Z</time>
      </trkpt>
      <trkpt lat="43.07529" lon="0.38717">
        <ele>499.8</ele>
        <time>2022-09-06T08:53:38Z</time>
      </trkpt>
      <trkpt lat="43.07529" lon="0.38704">
        <ele>500.8</ele>
        <time>2022-09-06T08:53:44Z</time>
      </trkpt>
      <trkpt lat="43.07529" lon="0.38703">
        <ele>501</ele>
        <time>2022-09-06T08:53:45Z</time>
      </trkpt>
      <trkpt lat="43.07533" lon="0.38691">
        <ele>502</ele>
        <time>2022-09-06T08:53:51Z</time>
      </trkpt>
      <trkpt lat="43.07533" lon="0.38689">
        <ele>502.2</ele>
        <time>2022-09-06T08:53:52Z</time>
      </trkpt>
      <trkpt lat="43.07536" lon="0.38678">
        <ele>503.2</ele>
        <time>2022-09-06T08:53:57Z</time>
      </trkpt>
      <trkpt lat="43.0754" lon="0.38668">
        <ele>504.2</ele>
        <time>2022-09-06T08:54:02Z</time>
      </trkpt>
      <trkpt lat="43.0754" lon="0.38667">
        <ele>504.4</ele>
        <time>2022-09-06T08:54:03Z</time>
      </trkpt>
      <trkpt lat="43.07543" lon="0.38655">
        <ele>505.6</ele>
        <time>2022-09-06T08:54:09Z</time>
      </trkpt>
      <trkpt lat="43.07544" lon="0.38643">
        <ele>506.6</ele>
        <time>2022-09-06T08:54:15Z</time>
      </trkpt>
      <trkpt lat="43.07545" lon="0.38642">
        <ele>506.8</ele>
        <time>2022-09-06T08:54:16Z</time>
      </trkpt>
      <trkpt lat="43.07549" lon="0.38636">
        <ele>507.6</ele>
        <time>2022-09-06T08:54:20Z</time>
      </trkpt>
      <trkpt lat="43.0755" lon="0.38632">
        <ele>508</ele>
        <time>2022-09-06T08:54:22Z</time>
      </trkpt>
      <trkpt lat="43.0755" lon="0.3863">
        <ele>508.2</ele>
        <time>2022-09-06T08:54:23Z</time>
      </trkpt>
      <trkpt lat="43.0755" lon="0.38628">
        <ele>508.2</ele>
        <time>2022-09-06T08:54:24Z</time>
      </trkpt>
      <trkpt lat="43.07553" lon="0.38624">
        <ele>508.6</ele>
        <time>2022-09-06T08:54:27Z</time>
      </trkpt>
      <trkpt lat="43.07555" lon="0.38621">
        <ele>509</ele>
        <time>2022-09-06T08:54:29Z</time>
      </trkpt>
      <trkpt lat="43.07559" lon="0.38608">
        <ele>510</ele>
        <time>2022-09-06T08:54:35Z</time>
      </trkpt>
      <trkpt lat="43.0756" lon="0.38606">
        <ele>510</ele>
        <time>2022-09-06T08:54:36Z</time>
      </trkpt>
      <trkpt lat="43.07561" lon="0.38593">
        <ele>511.2</ele>
        <time>2022-09-06T08:54:42Z</time>
      </trkpt>
      <trkpt lat="43.07561" lon="0.38591">
        <ele>511.4</ele>
        <time>2022-09-06T08:54:43Z</time>
      </trkpt>
      <trkpt lat="43.07561" lon="0.38587">
        <ele>511.6</ele>
        <time>2022-09-06T08:54:45Z</time>
      </trkpt>
      <trkpt lat="43.07564" lon="0.38579">
        <ele>512</ele>
        <time>2022-09-06T08:54:49Z</time>
      </trkpt>
      <trkpt lat="43.07564" lon="0.38577">
        <ele>512.2</ele>
        <time>2022-09-06T08:54:50Z</time>
      </trkpt>
      <trkpt lat="43.07565" lon="0.38573">
        <ele>512.4</ele>
        <time>2022-09-06T08:54:52Z</time>
      </trkpt>
      <trkpt lat="43.07567" lon="0.38564">
        <ele>513.2</ele>
        <time>2022-09-06T08:54:56Z</time>
      </trkpt>
      <trkpt lat="43.07568" lon="0.38551">
        <ele>514.2</ele>
        <time>2022-09-06T08:55:02Z</time>
      </trkpt>
      <trkpt lat="43.07568" lon="0.38549">
        <ele>514.4</ele>
        <time>2022-09-06T08:55:03Z</time>
      </trkpt>
      <trkpt lat="43.0757" lon="0.38535">
        <ele>515.4</ele>
        <time>2022-09-06T08:55:09Z</time>
      </trkpt>
      <trkpt lat="43.07571" lon="0.38533">
        <ele>515.4</ele>
        <time>2022-09-06T08:55:10Z</time>
      </trkpt>
      <trkpt lat="43.07568" lon="0.38522">
        <ele>516.2</ele>
        <time>2022-09-06T08:55:15Z</time>
      </trkpt>
      <trkpt lat="43.07569" lon="0.3852">
        <ele>516.2</ele>
        <time>2022-09-06T08:55:16Z</time>
      </trkpt>
      <trkpt lat="43.0757" lon="0.38519">
        <ele>516.4</ele>
        <time>2022-09-06T08:55:17Z</time>
      </trkpt>
      <trkpt lat="43.07572" lon="0.38515">
        <ele>516.8</ele>
        <time>2022-09-06T08:55:19Z</time>
      </trkpt>
      <trkpt lat="43.07571" lon="0.38508">
        <ele>517</ele>
        <time>2022-09-06T08:55:22Z</time>
      </trkpt>
      <trkpt lat="43.07572" lon="0.38501">
        <ele>517.4</ele>
        <time>2022-09-06T08:55:25Z</time>
      </trkpt>
      <trkpt lat="43.0758" lon="0.38493">
        <ele>518.2</ele>
        <time>2022-09-06T08:55:31Z</time>
      </trkpt>
      <trkpt lat="43.07584" lon="0.38494">
        <ele>518.4</ele>
        <time>2022-09-06T08:55:33Z</time>
      </trkpt>
      <trkpt lat="43.07586" lon="0.38495">
        <ele>518.4</ele>
        <time>2022-09-06T08:55:34Z</time>
      </trkpt>
      <trkpt lat="43.0759" lon="0.38498">
        <ele>518.6</ele>
        <time>2022-09-06T08:55:36Z</time>
      </trkpt>
      <trkpt lat="43.07608" lon="0.3851">
        <ele>519.4</ele>
        <time>2022-09-06T08:55:44Z</time>
      </trkpt>
      <trkpt lat="43.0761" lon="0.38513">
        <ele>519.6</ele>
        <time>2022-09-06T08:55:45Z</time>
      </trkpt>
      <trkpt lat="43.07627" lon="0.38525">
        <ele>520.6</ele>
        <time>2022-09-06T08:55:52Z</time>
      </trkpt>
      <trkpt lat="43.0764" lon="0.38533">
        <ele>521</ele>
        <time>2022-09-06T08:55:58Z</time>
      </trkpt>
      <trkpt lat="43.07653" lon="0.38546">
        <ele>521.6</ele>
        <time>2022-09-06T08:56:04Z</time>
      </trkpt>
      <trkpt lat="43.07677" lon="0.38565">
        <ele>522.4</ele>
        <time>2022-09-06T08:56:14Z</time>
      </trkpt>
      <trkpt lat="43.07688" lon="0.38573">
        <ele>522.6</ele>
        <time>2022-09-06T08:56:18Z</time>
      </trkpt>
      <trkpt lat="43.07703" lon="0.38583">
        <ele>522.8</ele>
        <time>2022-09-06T08:56:24Z</time>
      </trkpt>
      <trkpt lat="43.07725" lon="0.3859">
        <ele>523.6</ele>
        <time>2022-09-06T08:56:32Z</time>
      </trkpt>
      <trkpt lat="43.07744" lon="0.38583">
        <ele>524</ele>
        <time>2022-09-06T08:56:39Z</time>
      </trkpt>
      <trkpt lat="43.07765" lon="0.38564">
        <ele>524.6</ele>
        <time>2022-09-06T08:56:47Z</time>
      </trkpt>
      <trkpt lat="43.0777" lon="0.38559">
        <ele>524.8</ele>
        <time>2022-09-06T08:56:49Z</time>
      </trkpt>
      <trkpt lat="43.07789" lon="0.38546">
        <ele>525.2</ele>
        <time>2022-09-06T08:56:56Z</time>
      </trkpt>
      <trkpt lat="43.07807" lon="0.38536">
        <ele>525.4</ele>
        <time>2022-09-06T08:57:02Z</time>
      </trkpt>
      <trkpt lat="43.07829" lon="0.38538">
        <ele>525</ele>
        <time>2022-09-06T08:57:09Z</time>
      </trkpt>
      <trkpt lat="43.07848" lon="0.38549">
        <ele>524.2</ele>
        <time>2022-09-06T08:57:16Z</time>
      </trkpt>
      <trkpt lat="43.07859" lon="0.38548">
        <ele>523.6</ele>
        <time>2022-09-06T08:58:52Z</time>
      </trkpt>
      <trkpt lat="43.07865" lon="0.38536">
        <ele>523.6</ele>
        <time>2022-09-06T08:58:56Z</time>
      </trkpt>
      <trkpt lat="43.07866" lon="0.38532">
        <ele>523.8</ele>
        <time>2022-09-06T08:58:57Z</time>
      </trkpt>
      <trkpt lat="43.07877" lon="0.38517">
        <ele>523.8</ele>
        <time>2022-09-06T08:59:02Z</time>
      </trkpt>
      <trkpt lat="43.07892" lon="0.38499">
        <ele>523.8</ele>
        <time>2022-09-06T08:59:08Z</time>
      </trkpt>
      <trkpt lat="43.07909" lon="0.38486">
        <ele>523.6</ele>
        <time>2022-09-06T08:59:14Z</time>
      </trkpt>
      <trkpt lat="43.07934" lon="0.3847">
        <ele>523.2</ele>
        <time>2022-09-06T08:59:22Z</time>
      </trkpt>
      <trkpt lat="43.07961" lon="0.38452">
        <ele>522.8</ele>
        <time>2022-09-06T08:59:31Z</time>
      </trkpt>
      <trkpt lat="43.07984" lon="0.38437">
        <ele>523</ele>
        <time>2022-09-06T08:59:39Z</time>
      </trkpt>
      <trkpt lat="43.08007" lon="0.3842">
        <ele>522.8</ele>
        <time>2022-09-06T08:59:46Z</time>
      </trkpt>
      <trkpt lat="43.08033" lon="0.38403">
        <ele>522.4</ele>
        <time>2022-09-06T08:59:53Z</time>
      </trkpt>
      <trkpt lat="43.08042" lon="0.38397">
        <ele>522.4</ele>
        <time>2022-09-06T08:59:56Z</time>
      </trkpt>
      <trkpt lat="43.08071" lon="0.38377">
        <ele>522.2</ele>
        <time>2022-09-06T09:00:05Z</time>
      </trkpt>
      <trkpt lat="43.08103" lon="0.38353">
        <ele>521.8</ele>
        <time>2022-09-06T09:00:16Z</time>
      </trkpt>
      <trkpt lat="43.08111" lon="0.38349">
        <ele>521.4</ele>
        <time>2022-09-06T09:00:21Z</time>
      </trkpt>
      <trkpt lat="43.08112" lon="0.3835">
        <ele>521.4</ele>
        <time>2022-09-06T09:00:22Z</time>
      </trkpt>
      <trkpt lat="43.08116" lon="0.38359">
        <ele>521.4</ele>
        <time>2022-09-06T09:00:25Z</time>
      </trkpt>
      <trkpt lat="43.08129" lon="0.38394">
        <ele>521.2</ele>
        <time>2022-09-06T09:00:35Z</time>
      </trkpt>
      <trkpt lat="43.08132" lon="0.38403">
        <ele>521.2</ele>
        <time>2022-09-06T09:00:38Z</time>
      </trkpt>
      <trkpt lat="43.08132" lon="0.38406">
        <ele>521.2</ele>
        <time>2022-09-06T09:00:39Z</time>
      </trkpt>
      <trkpt lat="43.0813" lon="0.38412">
        <ele>521</ele>
        <time>2022-09-06T09:00:44Z</time>
      </trkpt>
      <trkpt lat="43.08137" lon="0.3841">
        <ele>520.4</ele>
        <time>2022-09-06T09:12:04Z</time>
      </trkpt>
      <trkpt lat="43.08137" lon="0.38405">
        <ele>520.4</ele>
        <time>2022-09-06T09:12:06Z</time>
      </trkpt>
      <trkpt lat="43.08138" lon="0.384">
        <ele>520.4</ele>
        <time>2022-09-06T09:12:08Z</time>
      </trkpt>
      <trkpt lat="43.08137" lon="0.3839">
        <ele>520.6</ele>
        <time>2022-09-06T09:12:11Z</time>
      </trkpt>
      <trkpt lat="43.08136" lon="0.38387">
        <ele>520.6</ele>
        <time>2022-09-06T09:12:12Z</time>
      </trkpt>
      <trkpt lat="43.08125" lon="0.3837">
        <ele>520.8</ele>
        <time>2022-09-06T09:12:17Z</time>
      </trkpt>
      <trkpt lat="43.08123" lon="0.38366">
        <ele>521</ele>
        <time>2022-09-06T09:12:18Z</time>
      </trkpt>
      <trkpt lat="43.08105" lon="0.3832">
        <ele>520.8</ele>
        <time>2022-09-06T09:12:29Z</time>
      </trkpt>
      <trkpt lat="43.08096" lon="0.38295">
        <ele>521.4</ele>
        <time>2022-09-06T09:12:35Z</time>
      </trkpt>
      <trkpt lat="43.08093" lon="0.38287">
        <ele>521.4</ele>
        <time>2022-09-06T09:12:37Z</time>
      </trkpt>
      <trkpt lat="43.08075" lon="0.38247">
        <ele>521.6</ele>
        <time>2022-09-06T09:12:47Z</time>
      </trkpt>
      <trkpt lat="43.08062" lon="0.38221">
        <ele>521.8</ele>
        <time>2022-09-06T09:12:54Z</time>
      </trkpt>
      <trkpt lat="43.08044" lon="0.38187">
        <ele>521.8</ele>
        <time>2022-09-06T09:13:03Z</time>
      </trkpt>
      <trkpt lat="43.08027" lon="0.3816">
        <ele>521.8</ele>
        <time>2022-09-06T09:13:11Z</time>
      </trkpt>
      <trkpt lat="43.08013" lon="0.38147">
        <ele>522.2</ele>
        <time>2022-09-06T09:13:17Z</time>
      </trkpt>
      <trkpt lat="43.07997" lon="0.38131">
        <ele>522.4</ele>
        <time>2022-09-06T09:13:23Z</time>
      </trkpt>
      <trkpt lat="43.07994" lon="0.38129">
        <ele>522.6</ele>
        <time>2022-09-06T09:13:24Z</time>
      </trkpt>
      <trkpt lat="43.07967" lon="0.38108">
        <ele>523</ele>
        <time>2022-09-06T09:13:33Z</time>
      </trkpt>
      <trkpt lat="43.07946" lon="0.38094">
        <ele>523</ele>
        <time>2022-09-06T09:13:40Z</time>
      </trkpt>
      <trkpt lat="43.07934" lon="0.38085">
        <ele>523.2</ele>
        <time>2022-09-06T09:13:44Z</time>
      </trkpt>
      <trkpt lat="43.07926" lon="0.38078">
        <ele>523.2</ele>
        <time>2022-09-06T09:13:47Z</time>
      </trkpt>
      <trkpt lat="43.07919" lon="0.38065">
        <ele>523.4</ele>
        <time>2022-09-06T09:13:52Z</time>
      </trkpt>
      <trkpt lat="43.07919" lon="0.38047">
        <ele>523.4</ele>
        <time>2022-09-06T09:13:56Z</time>
      </trkpt>
      <trkpt lat="43.07924" lon="0.38027">
        <ele>523.6</ele>
        <time>2022-09-06T09:14:00Z</time>
      </trkpt>
      <trkpt lat="43.07926" lon="0.38022">
        <ele>523.6</ele>
        <time>2022-09-06T09:14:01Z</time>
      </trkpt>
      <trkpt lat="43.07946" lon="0.37984">
        <ele>523.4</ele>
        <time>2022-09-06T09:14:09Z</time>
      </trkpt>
      <trkpt lat="43.07965" lon="0.37955">
        <ele>523.4</ele>
        <time>2022-09-06T09:14:16Z</time>
      </trkpt>
      <trkpt lat="43.07969" lon="0.37951">
        <ele>523.4</ele>
        <time>2022-09-06T09:14:17Z</time>
      </trkpt>
      <trkpt lat="43.07983" lon="0.37928">
        <ele>523.4</ele>
        <time>2022-09-06T09:14:22Z</time>
      </trkpt>
      <trkpt lat="43.08009" lon="0.37887">
        <ele>524</ele>
        <time>2022-09-06T09:14:31Z</time>
      </trkpt>
      <trkpt lat="43.08033" lon="0.3785">
        <ele>524.2</ele>
        <time>2022-09-06T09:14:39Z</time>
      </trkpt>
      <trkpt lat="43.08054" lon="0.37817">
        <ele>524.4</ele>
        <time>2022-09-06T09:14:46Z</time>
      </trkpt>
      <trkpt lat="43.08071" lon="0.37788">
        <ele>524.6</ele>
        <time>2022-09-06T09:14:52Z</time>
      </trkpt>
      <trkpt lat="43.08077" lon="0.37779">
        <ele>524.4</ele>
        <time>2022-09-06T09:14:54Z</time>
      </trkpt>
      <trkpt lat="43.08096" lon="0.3775">
        <ele>525.6</ele>
        <time>2022-09-06T09:15:02Z</time>
      </trkpt>
      <trkpt lat="43.08114" lon="0.37721">
        <ele>526.8</ele>
        <time>2022-09-06T09:15:10Z</time>
      </trkpt>
      <trkpt lat="43.08118" lon="0.37715">
        <ele>527.2</ele>
        <time>2022-09-06T09:15:12Z</time>
      </trkpt>
      <trkpt lat="43.08127" lon="0.37701">
        <ele>527.8</ele>
        <time>2022-09-06T09:15:17Z</time>
      </trkpt>
      <trkpt lat="43.08133" lon="0.3769">
        <ele>528.4</ele>
        <time>2022-09-06T09:15:21Z</time>
      </trkpt>
      <trkpt lat="43.08137" lon="0.37684">
        <ele>528.8</ele>
        <time>2022-09-06T09:15:23Z</time>
      </trkpt>
      <trkpt lat="43.08148" lon="0.37664">
        <ele>529.6</ele>
        <time>2022-09-06T09:15:30Z</time>
      </trkpt>
      <trkpt lat="43.08149" lon="0.37662">
        <ele>529.8</ele>
        <time>2022-09-06T09:15:31Z</time>
      </trkpt>
      <trkpt lat="43.08161" lon="0.37644">
        <ele>531</ele>
        <time>2022-09-06T09:15:38Z</time>
      </trkpt>
      <trkpt lat="43.08171" lon="0.37627">
        <ele>532</ele>
        <time>2022-09-06T09:15:45Z</time>
      </trkpt>
      <trkpt lat="43.08174" lon="0.37622">
        <ele>532.2</ele>
        <time>2022-09-06T09:15:47Z</time>
      </trkpt>
      <trkpt lat="43.08184" lon="0.37607">
        <ele>533</ele>
        <time>2022-09-06T09:15:53Z</time>
      </trkpt>
      <trkpt lat="43.08187" lon="0.37602">
        <ele>533.4</ele>
        <time>2022-09-06T09:15:55Z</time>
      </trkpt>
      <trkpt lat="43.08196" lon="0.37587">
        <ele>534</ele>
        <time>2022-09-06T09:16:01Z</time>
      </trkpt>
      <trkpt lat="43.08199" lon="0.37582">
        <ele>534.4</ele>
        <time>2022-09-06T09:16:03Z</time>
      </trkpt>
      <trkpt lat="43.08208" lon="0.37568">
        <ele>535.2</ele>
        <time>2022-09-06T09:16:09Z</time>
      </trkpt>
      <trkpt lat="43.08213" lon="0.3756">
        <ele>535.8</ele>
        <time>2022-09-06T09:16:12Z</time>
      </trkpt>
      <trkpt lat="43.08217" lon="0.37552">
        <ele>536.2</ele>
        <time>2022-09-06T09:16:15Z</time>
      </trkpt>
      <trkpt lat="43.08223" lon="0.37537">
        <ele>536.8</ele>
        <time>2022-09-06T09:16:20Z</time>
      </trkpt>
      <trkpt lat="43.08227" lon="0.37528">
        <ele>537.4</ele>
        <time>2022-09-06T09:16:23Z</time>
      </trkpt>
      <trkpt lat="43.08232" lon="0.37513">
        <ele>537.8</ele>
        <time>2022-09-06T09:16:28Z</time>
      </trkpt>
      <trkpt lat="43.08236" lon="0.37497">
        <ele>538.4</ele>
        <time>2022-09-06T09:16:33Z</time>
      </trkpt>
      <trkpt lat="43.0824" lon="0.37481">
        <ele>538.8</ele>
        <time>2022-09-06T09:16:38Z</time>
      </trkpt>
      <trkpt lat="43.08241" lon="0.37467">
        <ele>539.6</ele>
        <time>2022-09-06T09:16:42Z</time>
      </trkpt>
      <trkpt lat="43.08245" lon="0.37452">
        <ele>540</ele>
        <time>2022-09-06T09:16:47Z</time>
      </trkpt>
      <trkpt lat="43.08247" lon="0.37434">
        <ele>540.6</ele>
        <time>2022-09-06T09:16:52Z</time>
      </trkpt>
      <trkpt lat="43.0825" lon="0.37415">
        <ele>541.4</ele>
        <time>2022-09-06T09:16:57Z</time>
      </trkpt>
      <trkpt lat="43.08253" lon="0.37399">
        <ele>541.8</ele>
        <time>2022-09-06T09:17:01Z</time>
      </trkpt>
      <trkpt lat="43.08255" lon="0.3738">
        <ele>542.2</ele>
        <time>2022-09-06T09:17:06Z</time>
      </trkpt>
      <trkpt lat="43.08259" lon="0.37352">
        <ele>542.8</ele>
        <time>2022-09-06T09:17:13Z</time>
      </trkpt>
      <trkpt lat="43.08259" lon="0.37343">
        <ele>543.2</ele>
        <time>2022-09-06T09:17:15Z</time>
      </trkpt>
      <trkpt lat="43.08263" lon="0.37312">
        <ele>543.4</ele>
        <time>2022-09-06T09:17:23Z</time>
      </trkpt>
      <trkpt lat="43.08268" lon="0.37286">
        <ele>544</ele>
        <time>2022-09-06T09:17:30Z</time>
      </trkpt>
      <trkpt lat="43.08271" lon="0.37279">
        <ele>544</ele>
        <time>2022-09-06T09:17:32Z</time>
      </trkpt>
      <trkpt lat="43.08286" lon="0.37267">
        <ele>544.8</ele>
        <time>2022-09-06T09:17:38Z</time>
      </trkpt>
      <trkpt lat="43.08288" lon="0.37267">
        <ele>545</ele>
        <time>2022-09-06T09:17:39Z</time>
      </trkpt>
      <trkpt lat="43.08304" lon="0.37269">
        <ele>545.4</ele>
        <time>2022-09-06T09:17:44Z</time>
      </trkpt>
      <trkpt lat="43.08318" lon="0.37261">
        <ele>545.4</ele>
        <time>2022-09-06T09:17:48Z</time>
      </trkpt>
      <trkpt lat="43.08323" lon="0.37252">
        <ele>545.4</ele>
        <time>2022-09-06T09:17:50Z</time>
      </trkpt>
      <trkpt lat="43.08325" lon="0.37242">
        <ele>545.6</ele>
        <time>2022-09-06T09:17:52Z</time>
      </trkpt>
      <trkpt lat="43.08322" lon="0.37223">
        <ele>545.8</ele>
        <time>2022-09-06T09:17:56Z</time>
      </trkpt>
      <trkpt lat="43.08315" lon="0.37213">
        <ele>546.2</ele>
        <time>2022-09-06T09:17:59Z</time>
      </trkpt>
      <trkpt lat="43.08309" lon="0.37208">
        <ele>546.2</ele>
        <time>2022-09-06T09:18:01Z</time>
      </trkpt>
      <trkpt lat="43.08296" lon="0.37187">
        <ele>547.2</ele>
        <time>2022-09-06T09:18:08Z</time>
      </trkpt>
      <trkpt lat="43.0829" lon="0.3717">
        <ele>548.2</ele>
        <time>2022-09-06T09:18:13Z</time>
      </trkpt>
      <trkpt lat="43.08287" lon="0.37163">
        <ele>548.4</ele>
        <time>2022-09-06T09:18:15Z</time>
      </trkpt>
      <trkpt lat="43.08279" lon="0.37132">
        <ele>549</ele>
        <time>2022-09-06T09:18:24Z</time>
      </trkpt>
      <trkpt lat="43.08278" lon="0.37126">
        <ele>549.4</ele>
        <time>2022-09-06T09:18:26Z</time>
      </trkpt>
      <trkpt lat="43.08273" lon="0.37104">
        <ele>550.2</ele>
        <time>2022-09-06T09:18:33Z</time>
      </trkpt>
      <trkpt lat="43.08272" lon="0.37101">
        <ele>550.6</ele>
        <time>2022-09-06T09:18:34Z</time>
      </trkpt>
      <trkpt lat="43.0827" lon="0.37091">
        <ele>551.6</ele>
        <time>2022-09-06T09:18:37Z</time>
      </trkpt>
      <trkpt lat="43.08267" lon="0.37076">
        <ele>552.2</ele>
        <time>2022-09-06T09:18:42Z</time>
      </trkpt>
      <trkpt lat="43.08266" lon="0.37068">
        <ele>552.8</ele>
        <time>2022-09-06T09:18:45Z</time>
      </trkpt>
      <trkpt lat="43.08263" lon="0.37051">
        <ele>554</ele>
        <time>2022-09-06T09:18:51Z</time>
      </trkpt>
      <trkpt lat="43.08263" lon="0.37048">
        <ele>554.2</ele>
        <time>2022-09-06T09:18:52Z</time>
      </trkpt>
      <trkpt lat="43.08261" lon="0.37032">
        <ele>555.2</ele>
        <time>2022-09-06T09:18:58Z</time>
      </trkpt>
      <trkpt lat="43.0826" lon="0.37024">
        <ele>555.4</ele>
        <time>2022-09-06T09:19:01Z</time>
      </trkpt>
      <trkpt lat="43.08257" lon="0.37009">
        <ele>556.2</ele>
        <time>2022-09-06T09:19:06Z</time>
      </trkpt>
      <trkpt lat="43.08255" lon="0.36998">
        <ele>556.6</ele>
        <time>2022-09-06T09:19:10Z</time>
      </trkpt>
      <trkpt lat="43.08254" lon="0.36989">
        <ele>557.2</ele>
        <time>2022-09-06T09:19:13Z</time>
      </trkpt>
      <trkpt lat="43.08252" lon="0.36969">
        <ele>558.2</ele>
        <time>2022-09-06T09:19:20Z</time>
      </trkpt>
      <trkpt lat="43.08251" lon="0.36966">
        <ele>558.4</ele>
        <time>2022-09-06T09:19:21Z</time>
      </trkpt>
      <trkpt lat="43.0825" lon="0.36958">
        <ele>558.8</ele>
        <time>2022-09-06T09:19:24Z</time>
      </trkpt>
      <trkpt lat="43.08249" lon="0.36947">
        <ele>559.4</ele>
        <time>2022-09-06T09:19:28Z</time>
      </trkpt>
      <trkpt lat="43.08248" lon="0.36938">
        <ele>559.8</ele>
        <time>2022-09-06T09:19:31Z</time>
      </trkpt>
      <trkpt lat="43.08245" lon="0.36918">
        <ele>560.6</ele>
        <time>2022-09-06T09:19:38Z</time>
      </trkpt>
      <trkpt lat="43.08244" lon="0.3691">
        <ele>561</ele>
        <time>2022-09-06T09:19:41Z</time>
      </trkpt>
      <trkpt lat="43.08242" lon="0.36901">
        <ele>561.6</ele>
        <time>2022-09-06T09:19:44Z</time>
      </trkpt>
      <trkpt lat="43.0824" lon="0.36883">
        <ele>562.2</ele>
        <time>2022-09-06T09:19:50Z</time>
      </trkpt>
      <trkpt lat="43.08236" lon="0.36863">
        <ele>562.6</ele>
        <time>2022-09-06T09:19:57Z</time>
      </trkpt>
      <trkpt lat="43.08235" lon="0.36854">
        <ele>562.8</ele>
        <time>2022-09-06T09:20:00Z</time>
      </trkpt>
      <trkpt lat="43.08231" lon="0.3683">
        <ele>563.6</ele>
        <time>2022-09-06T09:20:07Z</time>
      </trkpt>
      <trkpt lat="43.08231" lon="0.36826">
        <ele>563.6</ele>
        <time>2022-09-06T09:20:08Z</time>
      </trkpt>
      <trkpt lat="43.08227" lon="0.36796">
        <ele>564.8</ele>
        <time>2022-09-06T09:20:16Z</time>
      </trkpt>
      <trkpt lat="43.08227" lon="0.36792">
        <ele>565</ele>
        <time>2022-09-06T09:20:17Z</time>
      </trkpt>
      <trkpt lat="43.08221" lon="0.36765">
        <ele>565.6</ele>
        <time>2022-09-06T09:20:24Z</time>
      </trkpt>
      <trkpt lat="43.08219" lon="0.36757">
        <ele>566</ele>
        <time>2022-09-06T09:20:26Z</time>
      </trkpt>
      <trkpt lat="43.08211" lon="0.3673">
        <ele>566.4</ele>
        <time>2022-09-06T09:20:33Z</time>
      </trkpt>
      <trkpt lat="43.08204" lon="0.36711">
        <ele>567</ele>
        <time>2022-09-06T09:20:38Z</time>
      </trkpt>
      <trkpt lat="43.08199" lon="0.36701">
        <ele>567.2</ele>
        <time>2022-09-06T09:20:41Z</time>
      </trkpt>
      <trkpt lat="43.08188" lon="0.36679">
        <ele>568</ele>
        <time>2022-09-06T09:20:47Z</time>
      </trkpt>
      <trkpt lat="43.0818" lon="0.36665">
        <ele>568.2</ele>
        <time>2022-09-06T09:20:51Z</time>
      </trkpt>
      <trkpt lat="43.08166" lon="0.36642">
        <ele>569</ele>
        <time>2022-09-06T09:20:58Z</time>
      </trkpt>
      <trkpt lat="43.08149" lon="0.36615">
        <ele>569.8</ele>
        <time>2022-09-06T09:21:06Z</time>
      </trkpt>
      <trkpt lat="43.08142" lon="0.36605">
        <ele>570.4</ele>
        <time>2022-09-06T09:21:09Z</time>
      </trkpt>
      <trkpt lat="43.08126" lon="0.3658">
        <ele>570.8</ele>
        <time>2022-09-06T09:21:16Z</time>
      </trkpt>
      <trkpt lat="43.08117" lon="0.36566">
        <ele>571.4</ele>
        <time>2022-09-06T09:21:20Z</time>
      </trkpt>
      <trkpt lat="43.08107" lon="0.36548">
        <ele>572.2</ele>
        <time>2022-09-06T09:21:25Z</time>
      </trkpt>
      <trkpt lat="43.08102" lon="0.36542">
        <ele>572.6</ele>
        <time>2022-09-06T09:21:27Z</time>
      </trkpt>
      <trkpt lat="43.08086" lon="0.36515">
        <ele>572.8</ele>
        <time>2022-09-06T09:21:35Z</time>
      </trkpt>
      <trkpt lat="43.08074" lon="0.36495">
        <ele>573.6</ele>
        <time>2022-09-06T09:21:41Z</time>
      </trkpt>
      <trkpt lat="43.08073" lon="0.36492">
        <ele>573.6</ele>
        <time>2022-09-06T09:21:42Z</time>
      </trkpt>
      <trkpt lat="43.08063" lon="0.36467">
        <ele>574.6</ele>
        <time>2022-09-06T09:21:49Z</time>
      </trkpt>
      <trkpt lat="43.08061" lon="0.36464">
        <ele>574.4</ele>
        <time>2022-09-06T09:21:50Z</time>
      </trkpt>
      <trkpt lat="43.08059" lon="0.36456">
        <ele>574.6</ele>
        <time>2022-09-06T09:21:52Z</time>
      </trkpt>
      <trkpt lat="43.08054" lon="0.36434">
        <ele>575.4</ele>
        <time>2022-09-06T09:21:58Z</time>
      </trkpt>
      <trkpt lat="43.08051" lon="0.36427">
        <ele>575.6</ele>
        <time>2022-09-06T09:22:00Z</time>
      </trkpt>
      <trkpt lat="43.08047" lon="0.36401">
        <ele>576.8</ele>
        <time>2022-09-06T09:22:07Z</time>
      </trkpt>
      <trkpt lat="43.08043" lon="0.3638">
        <ele>577.8</ele>
        <time>2022-09-06T09:22:13Z</time>
      </trkpt>
      <trkpt lat="43.08043" lon="0.36369">
        <ele>578.8</ele>
        <time>2022-09-06T09:22:16Z</time>
      </trkpt>
      <trkpt lat="43.08043" lon="0.36366">
        <ele>579.2</ele>
        <time>2022-09-06T09:22:17Z</time>
      </trkpt>
      <trkpt lat="43.08044" lon="0.36338">
        <ele>578.8</ele>
        <time>2022-09-06T09:22:25Z</time>
      </trkpt>
      <trkpt lat="43.08053" lon="0.36321">
        <ele>579.4</ele>
        <time>2022-09-06T09:22:31Z</time>
      </trkpt>
      <trkpt lat="43.08066" lon="0.36307">
        <ele>579.8</ele>
        <time>2022-09-06T09:22:37Z</time>
      </trkpt>
      <trkpt lat="43.08067" lon="0.36304">
        <ele>579.8</ele>
        <time>2022-09-06T09:22:38Z</time>
      </trkpt>
      <trkpt lat="43.08069" lon="0.36288">
        <ele>580</ele>
        <time>2022-09-06T09:22:42Z</time>
      </trkpt>
      <trkpt lat="43.08063" lon="0.36267">
        <ele>580</ele>
        <time>2022-09-06T09:22:47Z</time>
      </trkpt>
      <trkpt lat="43.08052" lon="0.36258">
        <ele>580.2</ele>
        <time>2022-09-06T09:22:51Z</time>
      </trkpt>
      <trkpt lat="43.08032" lon="0.36239">
        <ele>580.6</ele>
        <time>2022-09-06T09:22:58Z</time>
      </trkpt>
      <trkpt lat="43.08025" lon="0.36223">
        <ele>581</ele>
        <time>2022-09-06T09:23:02Z</time>
      </trkpt>
      <trkpt lat="43.08023" lon="0.36213">
        <ele>581.6</ele>
        <time>2022-09-06T09:23:05Z</time>
      </trkpt>
      <trkpt lat="43.08022" lon="0.36195">
        <ele>582.2</ele>
        <time>2022-09-06T09:23:10Z</time>
      </trkpt>
      <trkpt lat="43.08021" lon="0.36188">
        <ele>582.6</ele>
        <time>2022-09-06T09:23:12Z</time>
      </trkpt>
      <trkpt lat="43.0802" lon="0.36171">
        <ele>583.4</ele>
        <time>2022-09-06T09:23:17Z</time>
      </trkpt>
      <trkpt lat="43.08021" lon="0.36161">
        <ele>583.4</ele>
        <time>2022-09-06T09:23:20Z</time>
      </trkpt>
      <trkpt lat="43.08025" lon="0.36141">
        <ele>584.4</ele>
        <time>2022-09-06T09:23:26Z</time>
      </trkpt>
      <trkpt lat="43.08026" lon="0.36135">
        <ele>584.4</ele>
        <time>2022-09-06T09:23:28Z</time>
      </trkpt>
      <trkpt lat="43.08029" lon="0.36119">
        <ele>585.4</ele>
        <time>2022-09-06T09:23:33Z</time>
      </trkpt>
      <trkpt lat="43.08032" lon="0.36108">
        <ele>586</ele>
        <time>2022-09-06T09:23:37Z</time>
      </trkpt>
      <trkpt lat="43.08038" lon="0.361">
        <ele>586.6</ele>
        <time>2022-09-06T09:23:41Z</time>
      </trkpt>
      <trkpt lat="43.08043" lon="0.3609">
        <ele>587</ele>
        <time>2022-09-06T09:23:45Z</time>
      </trkpt>
      <trkpt lat="43.08049" lon="0.36083">
        <ele>587.6</ele>
        <time>2022-09-06T09:23:49Z</time>
      </trkpt>
      <trkpt lat="43.08054" lon="0.3608">
        <ele>588.2</ele>
        <time>2022-09-06T09:23:52Z</time>
      </trkpt>
      <trkpt lat="43.08058" lon="0.36082">
        <ele>588.2</ele>
        <time>2022-09-06T09:23:57Z</time>
      </trkpt>
      <trkpt lat="43.08062" lon="0.36076">
        <ele>588.6</ele>
        <time>2022-09-06T09:25:01Z</time>
      </trkpt>
      <trkpt lat="43.08063" lon="0.36071">
        <ele>589</ele>
        <time>2022-09-06T09:25:03Z</time>
      </trkpt>
      <trkpt lat="43.08068" lon="0.36056">
        <ele>589.2</ele>
        <time>2022-09-06T09:25:07Z</time>
      </trkpt>
      <trkpt lat="43.08069" lon="0.36052">
        <ele>589.2</ele>
        <time>2022-09-06T09:25:08Z</time>
      </trkpt>
      <trkpt lat="43.0808" lon="0.36019">
        <ele>589.8</ele>
        <time>2022-09-06T09:25:16Z</time>
      </trkpt>
      <trkpt lat="43.08083" lon="0.35984">
        <ele>590.6</ele>
        <time>2022-09-06T09:25:23Z</time>
      </trkpt>
      <trkpt lat="43.08081" lon="0.35958">
        <ele>590.8</ele>
        <time>2022-09-06T09:25:28Z</time>
      </trkpt>
      <trkpt lat="43.08076" lon="0.35943">
        <ele>591</ele>
        <time>2022-09-06T09:25:31Z</time>
      </trkpt>
      <trkpt lat="43.08062" lon="0.35909">
        <ele>591.8</ele>
        <time>2022-09-06T09:25:39Z</time>
      </trkpt>
      <trkpt lat="43.0806" lon="0.35905">
        <ele>592</ele>
        <time>2022-09-06T09:25:40Z</time>
      </trkpt>
      <trkpt lat="43.08042" lon="0.35875">
        <ele>592.8</ele>
        <time>2022-09-06T09:25:48Z</time>
      </trkpt>
      <trkpt lat="43.0804" lon="0.35872">
        <ele>593</ele>
        <time>2022-09-06T09:25:49Z</time>
      </trkpt>
      <trkpt lat="43.08028" lon="0.35843">
        <ele>593.4</ele>
        <time>2022-09-06T09:25:56Z</time>
      </trkpt>
      <trkpt lat="43.08021" lon="0.358">
        <ele>593.8</ele>
        <time>2022-09-06T09:26:05Z</time>
      </trkpt>
      <trkpt lat="43.08021" lon="0.35785">
        <ele>594</ele>
        <time>2022-09-06T09:26:08Z</time>
      </trkpt>
      <trkpt lat="43.08021" lon="0.35764">
        <ele>595</ele>
        <time>2022-09-06T09:26:12Z</time>
      </trkpt>
      <trkpt lat="43.08023" lon="0.35716">
        <ele>596</ele>
        <time>2022-09-06T09:26:22Z</time>
      </trkpt>
      <trkpt lat="43.08023" lon="0.35711">
        <ele>596.2</ele>
        <time>2022-09-06T09:26:23Z</time>
      </trkpt>
      <trkpt lat="43.08024" lon="0.35674">
        <ele>597</ele>
        <time>2022-09-06T09:26:31Z</time>
      </trkpt>
      <trkpt lat="43.08024" lon="0.35669">
        <ele>597.2</ele>
        <time>2022-09-06T09:26:32Z</time>
      </trkpt>
      <trkpt lat="43.08025" lon="0.35637">
        <ele>597.8</ele>
        <time>2022-09-06T09:26:39Z</time>
      </trkpt>
      <trkpt lat="43.08025" lon="0.35598">
        <ele>598.2</ele>
        <time>2022-09-06T09:26:47Z</time>
      </trkpt>
      <trkpt lat="43.08025" lon="0.35589">
        <ele>598.6</ele>
        <time>2022-09-06T09:26:49Z</time>
      </trkpt>
      <trkpt lat="43.08026" lon="0.35556">
        <ele>599.4</ele>
        <time>2022-09-06T09:26:56Z</time>
      </trkpt>
      <trkpt lat="43.08025" lon="0.35536">
        <ele>599.2</ele>
        <time>2022-09-06T09:27:00Z</time>
      </trkpt>
      <trkpt lat="43.08027" lon="0.35496">
        <ele>599.8</ele>
        <time>2022-09-06T09:27:08Z</time>
      </trkpt>
      <trkpt lat="43.08032" lon="0.35446">
        <ele>600.2</ele>
        <time>2022-09-06T09:27:18Z</time>
      </trkpt>
      <trkpt lat="43.08033" lon="0.35421">
        <ele>600.4</ele>
        <time>2022-09-06T09:27:24Z</time>
      </trkpt>
      <trkpt lat="43.08032" lon="0.35412">
        <ele>600.6</ele>
        <time>2022-09-06T09:27:26Z</time>
      </trkpt>
      <trkpt lat="43.08025" lon="0.35387">
        <ele>600.8</ele>
        <time>2022-09-06T09:27:33Z</time>
      </trkpt>
      <trkpt lat="43.08019" lon="0.35363">
        <ele>600.2</ele>
        <time>2022-09-06T09:27:40Z</time>
      </trkpt>
      <trkpt lat="43.08012" lon="0.35332">
        <ele>600.2</ele>
        <time>2022-09-06T09:27:48Z</time>
      </trkpt>
      <trkpt lat="43.08008" lon="0.35309">
        <ele>599.8</ele>
        <time>2022-09-06T09:27:54Z</time>
      </trkpt>
      <trkpt lat="43.08001" lon="0.35277">
        <ele>599.6</ele>
        <time>2022-09-06T09:28:01Z</time>
      </trkpt>
      <trkpt lat="43.07998" lon="0.35264">
        <ele>599.4</ele>
        <time>2022-09-06T09:28:04Z</time>
      </trkpt>
      <trkpt lat="43.07996" lon="0.35248">
        <ele>599.4</ele>
        <time>2022-09-06T09:28:07Z</time>
      </trkpt>
      <trkpt lat="43.07987" lon="0.35207">
        <ele>598.8</ele>
        <time>2022-09-06T09:28:15Z</time>
      </trkpt>
      <trkpt lat="43.0798" lon="0.35175">
        <ele>598.4</ele>
        <time>2022-09-06T09:28:21Z</time>
      </trkpt>
      <trkpt lat="43.07971" lon="0.35133">
        <ele>598</ele>
        <time>2022-09-06T09:28:28Z</time>
      </trkpt>
      <trkpt lat="43.07962" lon="0.35086">
        <ele>597</ele>
        <time>2022-09-06T09:28:35Z</time>
      </trkpt>
      <trkpt lat="43.07956" lon="0.35057">
        <ele>596</ele>
        <time>2022-09-06T09:28:40Z</time>
      </trkpt>
      <trkpt lat="43.07955" lon="0.3505">
        <ele>595.8</ele>
        <time>2022-09-06T09:28:41Z</time>
      </trkpt>
      <trkpt lat="43.07945" lon="0.35016">
        <ele>595</ele>
        <time>2022-09-06T09:28:46Z</time>
      </trkpt>
      <trkpt lat="43.07943" lon="0.35007">
        <ele>594.8</ele>
        <time>2022-09-06T09:28:47Z</time>
      </trkpt>
      <trkpt lat="43.07938" lon="0.34983">
        <ele>594</ele>
        <time>2022-09-06T09:28:50Z</time>
      </trkpt>
      <trkpt lat="43.0793" lon="0.34949">
        <ele>592.8</ele>
        <time>2022-09-06T09:28:54Z</time>
      </trkpt>
      <trkpt lat="43.07922" lon="0.34909">
        <ele>591.8</ele>
        <time>2022-09-06T09:28:58Z</time>
      </trkpt>
      <trkpt lat="43.07918" lon="0.34888">
        <ele>591</ele>
        <time>2022-09-06T09:29:00Z</time>
      </trkpt>
      <trkpt lat="43.07916" lon="0.34877">
        <ele>590.4</ele>
        <time>2022-09-06T09:29:01Z</time>
      </trkpt>
      <trkpt lat="43.07911" lon="0.3485">
        <ele>589.4</ele>
        <time>2022-09-06T09:29:04Z</time>
      </trkpt>
      <trkpt lat="43.0791" lon="0.34843">
        <ele>588.8</ele>
        <time>2022-09-06T09:29:05Z</time>
      </trkpt>
      <trkpt lat="43.07909" lon="0.34831">
        <ele>588.2</ele>
        <time>2022-09-06T09:29:07Z</time>
      </trkpt>
      <trkpt lat="43.07909" lon="0.3482">
        <ele>587.4</ele>
        <time>2022-09-06T09:29:09Z</time>
      </trkpt>
      <trkpt lat="43.0791" lon="0.3481">
        <ele>587</ele>
        <time>2022-09-06T09:29:11Z</time>
      </trkpt>
      <trkpt lat="43.0791" lon="0.34795">
        <ele>586.2</ele>
        <time>2022-09-06T09:29:14Z</time>
      </trkpt>
      <trkpt lat="43.0791" lon="0.34792">
        <ele>586</ele>
        <time>2022-09-06T09:29:15Z</time>
      </trkpt>
      <trkpt lat="43.0791" lon="0.34786">
        <ele>585.8</ele>
        <time>2022-09-06T09:29:16Z</time>
      </trkpt>
      <trkpt lat="43.07911" lon="0.3477">
        <ele>584.8</ele>
        <time>2022-09-06T09:29:21Z</time>
      </trkpt>
      <trkpt lat="43.0791" lon="0.34767">
        <ele>585</ele>
        <time>2022-09-06T09:30:18Z</time>
      </trkpt>
      <trkpt lat="43.07909" lon="0.34771">
        <ele>585.2</ele>
        <time>2022-09-06T09:30:20Z</time>
      </trkpt>
      <trkpt lat="43.07908" lon="0.34782">
        <ele>585.8</ele>
        <time>2022-09-06T09:30:25Z</time>
      </trkpt>
      <trkpt lat="43.07908" lon="0.34792">
        <ele>586.2</ele>
        <time>2022-09-06T09:30:29Z</time>
      </trkpt>
      <trkpt lat="43.07908" lon="0.34805">
        <ele>587</ele>
        <time>2022-09-06T09:30:35Z</time>
      </trkpt>
      <trkpt lat="43.07909" lon="0.34806">
        <ele>587</ele>
        <time>2022-09-06T09:30:36Z</time>
      </trkpt>
      <trkpt lat="43.07909" lon="0.34808">
        <ele>587.2</ele>
        <time>2022-09-06T09:30:37Z</time>
      </trkpt>
      <trkpt lat="43.07912" lon="0.34808">
        <ele>587</ele>
        <time>2022-09-06T09:30:40Z</time>
      </trkpt>
      <trkpt lat="43.07913" lon="0.34808">
        <ele>586.8</ele>
        <time>2022-09-06T09:30:41Z</time>
      </trkpt>
      <trkpt lat="43.07916" lon="0.34805">
        <ele>586.8</ele>
        <time>2022-09-06T09:30:44Z</time>
      </trkpt>
      <trkpt lat="43.07919" lon="0.34803">
        <ele>586.6</ele>
        <time>2022-09-06T09:30:46Z</time>
      </trkpt>
      <trkpt lat="43.0792" lon="0.34801">
        <ele>586.4</ele>
        <time>2022-09-06T09:30:47Z</time>
      </trkpt>
      <trkpt lat="43.07922" lon="0.34794">
        <ele>586.2</ele>
        <time>2022-09-06T09:30:50Z</time>
      </trkpt>
      <trkpt lat="43.07923" lon="0.34789">
        <ele>585.8</ele>
        <time>2022-09-06T09:30:52Z</time>
      </trkpt>
      <trkpt lat="43.07924" lon="0.34787">
        <ele>585.6</ele>
        <time>2022-09-06T09:30:53Z</time>
      </trkpt>
      <trkpt lat="43.07929" lon="0.34773">
        <ele>584.6</ele>
        <time>2022-09-06T09:30:58Z</time>
      </trkpt>
      <trkpt lat="43.07932" lon="0.34767">
        <ele>584</ele>
        <time>2022-09-06T09:31:00Z</time>
      </trkpt>
      <trkpt lat="43.07938" lon="0.3476">
        <ele>583.6</ele>
        <time>2022-09-06T09:31:03Z</time>
      </trkpt>
      <trkpt lat="43.07941" lon="0.34753">
        <ele>583.2</ele>
        <time>2022-09-06T09:31:05Z</time>
      </trkpt>
      <trkpt lat="43.07949" lon="0.34737">
        <ele>582.8</ele>
        <time>2022-09-06T09:31:09Z</time>
      </trkpt>
      <trkpt lat="43.07954" lon="0.3473">
        <ele>582.2</ele>
        <time>2022-09-06T09:31:11Z</time>
      </trkpt>
      <trkpt lat="43.07963" lon="0.34717">
        <ele>581.2</ele>
        <time>2022-09-06T09:31:15Z</time>
      </trkpt>
      <trkpt lat="43.07971" lon="0.34705">
        <ele>580.2</ele>
        <time>2022-09-06T09:31:19Z</time>
      </trkpt>
      <trkpt lat="43.07973" lon="0.34702">
        <ele>580</ele>
        <time>2022-09-06T09:31:20Z</time>
      </trkpt>
      <trkpt lat="43.07982" lon="0.34694">
        <ele>578.8</ele>
        <time>2022-09-06T09:31:26Z</time>
      </trkpt>
      <trkpt lat="43.07984" lon="0.34691">
        <ele>578.4</ele>
        <time>2022-09-06T09:31:27Z</time>
      </trkpt>
      <trkpt lat="43.07994" lon="0.34683">
        <ele>578</ele>
        <time>2022-09-06T09:31:32Z</time>
      </trkpt>
      <trkpt lat="43.07999" lon="0.34677">
        <ele>577.6</ele>
        <time>2022-09-06T09:31:36Z</time>
      </trkpt>
      <trkpt lat="43.08" lon="0.34675">
        <ele>577.6</ele>
        <time>2022-09-06T09:31:37Z</time>
      </trkpt>
      <trkpt lat="43.08008" lon="0.34659">
        <ele>576.6</ele>
        <time>2022-09-06T09:31:43Z</time>
      </trkpt>
      <trkpt lat="43.08009" lon="0.34657">
        <ele>576.2</ele>
        <time>2022-09-06T09:31:44Z</time>
      </trkpt>
      <trkpt lat="43.08011" lon="0.34646">
        <ele>575.4</ele>
        <time>2022-09-06T09:31:47Z</time>
      </trkpt>
      <trkpt lat="43.08012" lon="0.34639">
        <ele>574.2</ele>
        <time>2022-09-06T09:31:49Z</time>
      </trkpt>
      <trkpt lat="43.08014" lon="0.34631">
        <ele>573.4</ele>
        <time>2022-09-06T09:31:51Z</time>
      </trkpt>
      <trkpt lat="43.08015" lon="0.34626">
        <ele>572.8</ele>
        <time>2022-09-06T09:31:52Z</time>
      </trkpt>
      <trkpt lat="43.08016" lon="0.34617">
        <ele>571.4</ele>
        <time>2022-09-06T09:31:55Z</time>
      </trkpt>
      <trkpt lat="43.08017" lon="0.34614">
        <ele>571</ele>
        <time>2022-09-06T09:31:56Z</time>
      </trkpt>
      <trkpt lat="43.08018" lon="0.34611">
        <ele>570.4</ele>
        <time>2022-09-06T09:31:57Z</time>
      </trkpt>
      <trkpt lat="43.08019" lon="0.34604">
        <ele>569.4</ele>
        <time>2022-09-06T09:31:59Z</time>
      </trkpt>
      <trkpt lat="43.08019" lon="0.34601">
        <ele>569.2</ele>
        <time>2022-09-06T09:32:00Z</time>
      </trkpt>
      <trkpt lat="43.08019" lon="0.34598">
        <ele>568.6</ele>
        <time>2022-09-06T09:32:01Z</time>
      </trkpt>
      <trkpt lat="43.08019" lon="0.34592">
        <ele>567.8</ele>
        <time>2022-09-06T09:32:03Z</time>
      </trkpt>
      <trkpt lat="43.0802" lon="0.34584">
        <ele>566.8</ele>
        <time>2022-09-06T09:32:05Z</time>
      </trkpt>
      <trkpt lat="43.0802" lon="0.34576">
        <ele>566</ele>
        <time>2022-09-06T09:32:07Z</time>
      </trkpt>
      <trkpt lat="43.0802" lon="0.34573">
        <ele>565.6</ele>
        <time>2022-09-06T09:32:08Z</time>
      </trkpt>
      <trkpt lat="43.08021" lon="0.34564">
        <ele>564.4</ele>
        <time>2022-09-06T09:32:10Z</time>
      </trkpt>
      <trkpt lat="43.08023" lon="0.34558">
        <ele>563</ele>
        <time>2022-09-06T09:32:12Z</time>
      </trkpt>
      <trkpt lat="43.08024" lon="0.34556">
        <ele>562.6</ele>
        <time>2022-09-06T09:32:13Z</time>
      </trkpt>
      <trkpt lat="43.08043" lon="0.34536">
        <ele>562.8</ele>
        <time>2022-09-06T09:32:21Z</time>
      </trkpt>
      <trkpt lat="43.0806" lon="0.34528">
        <ele>562.8</ele>
        <time>2022-09-06T09:32:28Z</time>
      </trkpt>
      <trkpt lat="43.08073" lon="0.34523">
        <ele>563</ele>
        <time>2022-09-06T09:32:34Z</time>
      </trkpt>
      <trkpt lat="43.08086" lon="0.34521">
        <ele>563.4</ele>
        <time>2022-09-06T09:32:41Z</time>
      </trkpt>
      <trkpt lat="43.0809" lon="0.3452">
        <ele>564</ele>
        <time>2022-09-06T09:32:45Z</time>
      </trkpt>
      <trkpt lat="43.08091" lon="0.34528">
        <ele>564.6</ele>
        <time>2022-09-06T09:33:26Z</time>
      </trkpt>
      <trkpt lat="43.08091" lon="0.34534">
        <ele>565.2</ele>
        <time>2022-09-06T09:33:29Z</time>
      </trkpt>
      <trkpt lat="43.08091" lon="0.34541">
        <ele>565.6</ele>
        <time>2022-09-06T09:33:32Z</time>
      </trkpt>
      <trkpt lat="43.08092" lon="0.34546">
        <ele>566.2</ele>
        <time>2022-09-06T09:33:35Z</time>
      </trkpt>
      <trkpt lat="43.08092" lon="0.3455">
        <ele>566.6</ele>
        <time>2022-09-06T09:33:38Z</time>
      </trkpt>
      <trkpt lat="43.08092" lon="0.34554">
        <ele>567.2</ele>
        <time>2022-09-06T09:33:42Z</time>
      </trkpt>
      <trkpt lat="43.08152" lon="0.34646">
        <ele>578</ele>
        <time>2022-09-06T09:43:35Z</time>
      </trkpt>
      <trkpt lat="43.0816" lon="0.34654">
        <ele>578.8</ele>
        <time>2022-09-06T09:43:42Z</time>
      </trkpt>
      <trkpt lat="43.08162" lon="0.34658">
        <ele>579</ele>
        <time>2022-09-06T09:43:44Z</time>
      </trkpt>
      <trkpt lat="43.08167" lon="0.34664">
        <ele>579.8</ele>
        <time>2022-09-06T09:43:49Z</time>
      </trkpt>
      <trkpt lat="43.0817" lon="0.34669">
        <ele>580.2</ele>
        <time>2022-09-06T09:43:53Z</time>
      </trkpt>
      <trkpt lat="43.08174" lon="0.34674">
        <ele>580.6</ele>
        <time>2022-09-06T09:43:57Z</time>
      </trkpt>
      <trkpt lat="43.08177" lon="0.34684">
        <ele>581.2</ele>
        <time>2022-09-06T09:44:03Z</time>
      </trkpt>
      <trkpt lat="43.08178" lon="0.34686">
        <ele>581.4</ele>
        <time>2022-09-06T09:44:04Z</time>
      </trkpt>
      <trkpt lat="43.08185" lon="0.34697">
        <ele>582</ele>
        <time>2022-09-06T09:44:11Z</time>
      </trkpt>
      <trkpt lat="43.08187" lon="0.34698">
        <ele>582.2</ele>
        <time>2022-09-06T09:44:12Z</time>
      </trkpt>
      <trkpt lat="43.08194" lon="0.3471">
        <ele>582.8</ele>
        <time>2022-09-06T09:44:18Z</time>
      </trkpt>
      <trkpt lat="43.082" lon="0.34719">
        <ele>583.4</ele>
        <time>2022-09-06T09:44:22Z</time>
      </trkpt>
      <trkpt lat="43.08202" lon="0.34722">
        <ele>583.6</ele>
        <time>2022-09-06T09:44:24Z</time>
      </trkpt>
      <trkpt lat="43.08213" lon="0.3473">
        <ele>584.2</ele>
        <time>2022-09-06T09:44:31Z</time>
      </trkpt>
      <trkpt lat="43.08216" lon="0.34733">
        <ele>584.4</ele>
        <time>2022-09-06T09:44:33Z</time>
      </trkpt>
      <trkpt lat="43.08224" lon="0.34738">
        <ele>585.2</ele>
        <time>2022-09-06T09:44:38Z</time>
      </trkpt>
      <trkpt lat="43.08225" lon="0.34738">
        <ele>585.4</ele>
        <time>2022-09-06T09:44:39Z</time>
      </trkpt>
      <trkpt lat="43.08236" lon="0.34746">
        <ele>586.4</ele>
        <time>2022-09-06T09:44:46Z</time>
      </trkpt>
      <trkpt lat="43.08237" lon="0.34746">
        <ele>586.6</ele>
        <time>2022-09-06T09:44:47Z</time>
      </trkpt>
      <trkpt lat="43.08247" lon="0.34751">
        <ele>587.4</ele>
        <time>2022-09-06T09:44:53Z</time>
      </trkpt>
      <trkpt lat="43.08248" lon="0.34752">
        <ele>587.6</ele>
        <time>2022-09-06T09:44:54Z</time>
      </trkpt>
      <trkpt lat="43.08257" lon="0.34756">
        <ele>588.4</ele>
        <time>2022-09-06T09:45:00Z</time>
      </trkpt>
      <trkpt lat="43.0826" lon="0.34756">
        <ele>588.8</ele>
        <time>2022-09-06T09:45:03Z</time>
      </trkpt>
      <trkpt lat="43.08268" lon="0.34755">
        <ele>589.2</ele>
        <time>2022-09-06T09:45:08Z</time>
      </trkpt>
      <trkpt lat="43.08275" lon="0.34751">
        <ele>589.6</ele>
        <time>2022-09-06T09:45:13Z</time>
      </trkpt>
      <trkpt lat="43.08275" lon="0.34749">
        <ele>589.6</ele>
        <time>2022-09-06T09:45:14Z</time>
      </trkpt>
      <trkpt lat="43.08279" lon="0.34745">
        <ele>589.8</ele>
        <time>2022-09-06T09:45:17Z</time>
      </trkpt>
      <trkpt lat="43.0828" lon="0.34744">
        <ele>589.6</ele>
        <time>2022-09-06T09:45:18Z</time>
      </trkpt>
      <trkpt lat="43.08283" lon="0.34738">
        <ele>589.6</ele>
        <time>2022-09-06T09:45:20Z</time>
      </trkpt>
      <trkpt lat="43.08293" lon="0.34721">
        <ele>590.2</ele>
        <time>2022-09-06T09:45:26Z</time>
      </trkpt>
      <trkpt lat="43.08303" lon="0.34702">
        <ele>590.2</ele>
        <time>2022-09-06T09:45:32Z</time>
      </trkpt>
      <trkpt lat="43.0831" lon="0.34684">
        <ele>590.6</ele>
        <time>2022-09-06T09:45:37Z</time>
      </trkpt>
      <trkpt lat="43.08312" lon="0.34679">
        <ele>590.8</ele>
        <time>2022-09-06T09:45:39Z</time>
      </trkpt>
      <trkpt lat="43.08318" lon="0.34663">
        <ele>591</ele>
        <time>2022-09-06T09:45:44Z</time>
      </trkpt>
      <trkpt lat="43.08327" lon="0.34641">
        <ele>591.4</ele>
        <time>2022-09-06T09:45:50Z</time>
      </trkpt>
      <trkpt lat="43.08337" lon="0.3462">
        <ele>591.6</ele>
        <time>2022-09-06T09:45:56Z</time>
      </trkpt>
      <trkpt lat="43.08344" lon="0.34604">
        <ele>591.6</ele>
        <time>2022-09-06T09:46:03Z</time>
      </trkpt>
      <trkpt lat="43.08355" lon="0.34576">
        <ele>592</ele>
        <time>2022-09-06T09:47:10Z</time>
      </trkpt>
      <trkpt lat="43.08357" lon="0.34573">
        <ele>592</ele>
        <time>2022-09-06T09:47:11Z</time>
      </trkpt>
      <trkpt lat="43.08365" lon="0.34546">
        <ele>592</ele>
        <time>2022-09-06T09:47:18Z</time>
      </trkpt>
      <trkpt lat="43.08374" lon="0.34515">
        <ele>592.2</ele>
        <time>2022-09-06T09:47:25Z</time>
      </trkpt>
      <trkpt lat="43.08385" lon="0.34483">
        <ele>592.2</ele>
        <time>2022-09-06T09:47:32Z</time>
      </trkpt>
      <trkpt lat="43.084" lon="0.34442">
        <ele>592.2</ele>
        <time>2022-09-06T09:47:41Z</time>
      </trkpt>
      <trkpt lat="43.08409" lon="0.3441">
        <ele>591.8</ele>
        <time>2022-09-06T09:47:49Z</time>
      </trkpt>
      <trkpt lat="43.08411" lon="0.34396">
        <ele>591.4</ele>
        <time>2022-09-06T09:47:53Z</time>
      </trkpt>
      <trkpt lat="43.08418" lon="0.34378">
        <ele>591.6</ele>
        <time>2022-09-06T09:47:59Z</time>
      </trkpt>
      <trkpt lat="43.08431" lon="0.3435">
        <ele>591.4</ele>
        <time>2022-09-06T09:48:06Z</time>
      </trkpt>
      <trkpt lat="43.08443" lon="0.34326">
        <ele>591</ele>
        <time>2022-09-06T09:48:12Z</time>
      </trkpt>
      <trkpt lat="43.08451" lon="0.34314">
        <ele>590.8</ele>
        <time>2022-09-06T09:48:15Z</time>
      </trkpt>
      <trkpt lat="43.08464" lon="0.34293">
        <ele>590.4</ele>
        <time>2022-09-06T09:48:20Z</time>
      </trkpt>
      <trkpt lat="43.08467" lon="0.34289">
        <ele>590.4</ele>
        <time>2022-09-06T09:48:21Z</time>
      </trkpt>
      <trkpt lat="43.08479" lon="0.3427">
        <ele>590</ele>
        <time>2022-09-06T09:48:25Z</time>
      </trkpt>
      <trkpt lat="43.08495" lon="0.3424">
        <ele>589.8</ele>
        <time>2022-09-06T09:48:31Z</time>
      </trkpt>
      <trkpt lat="43.08498" lon="0.34236">
        <ele>589.6</ele>
        <time>2022-09-06T09:48:32Z</time>
      </trkpt>
      <trkpt lat="43.08515" lon="0.34208">
        <ele>588.8</ele>
        <time>2022-09-06T09:48:38Z</time>
      </trkpt>
      <trkpt lat="43.08517" lon="0.34203">
        <ele>588.4</ele>
        <time>2022-09-06T09:48:39Z</time>
      </trkpt>
      <trkpt lat="43.08535" lon="0.3417">
        <ele>588</ele>
        <time>2022-09-06T09:48:46Z</time>
      </trkpt>
      <trkpt lat="43.08549" lon="0.34133">
        <ele>588.4</ele>
        <time>2022-09-06T09:48:54Z</time>
      </trkpt>
      <trkpt lat="43.08562" lon="0.34102">
        <ele>588</ele>
        <time>2022-09-06T09:49:01Z</time>
      </trkpt>
      <trkpt lat="43.08565" lon="0.34093">
        <ele>587.8</ele>
        <time>2022-09-06T09:49:03Z</time>
      </trkpt>
      <trkpt lat="43.08572" lon="0.34075">
        <ele>587.8</ele>
        <time>2022-09-06T09:49:07Z</time>
      </trkpt>
      <trkpt lat="43.08576" lon="0.34052">
        <ele>587.8</ele>
        <time>2022-09-06T09:49:12Z</time>
      </trkpt>
      <trkpt lat="43.08585" lon="0.34029">
        <ele>588.4</ele>
        <time>2022-09-06T09:49:17Z</time>
      </trkpt>
      <trkpt lat="43.08594" lon="0.33993">
        <ele>588</ele>
        <time>2022-09-06T09:49:24Z</time>
      </trkpt>
      <trkpt lat="43.08603" lon="0.33955">
        <ele>588.2</ele>
        <time>2022-09-06T09:49:31Z</time>
      </trkpt>
      <trkpt lat="43.08613" lon="0.33924">
        <ele>587.8</ele>
        <time>2022-09-06T09:49:37Z</time>
      </trkpt>
      <trkpt lat="43.08614" lon="0.33918">
        <ele>587.6</ele>
        <time>2022-09-06T09:49:38Z</time>
      </trkpt>
      <trkpt lat="43.08621" lon="0.33886">
        <ele>587.4</ele>
        <time>2022-09-06T09:49:44Z</time>
      </trkpt>
      <trkpt lat="43.08622" lon="0.3388">
        <ele>587.4</ele>
        <time>2022-09-06T09:49:45Z</time>
      </trkpt>
      <trkpt lat="43.08632" lon="0.33838">
        <ele>586.8</ele>
        <time>2022-09-06T09:49:53Z</time>
      </trkpt>
      <trkpt lat="43.08639" lon="0.33812">
        <ele>586.6</ele>
        <time>2022-09-06T09:49:58Z</time>
      </trkpt>
      <trkpt lat="43.08644" lon="0.3379">
        <ele>585.6</ele>
        <time>2022-09-06T09:50:02Z</time>
      </trkpt>
      <trkpt lat="43.08647" lon="0.33771">
        <ele>585.4</ele>
        <time>2022-09-06T09:50:05Z</time>
      </trkpt>
      <trkpt lat="43.08654" lon="0.33734">
        <ele>584.8</ele>
        <time>2022-09-06T09:50:11Z</time>
      </trkpt>
      <trkpt lat="43.08655" lon="0.33728">
        <ele>584.6</ele>
        <time>2022-09-06T09:50:12Z</time>
      </trkpt>
      <trkpt lat="43.08664" lon="0.33686">
        <ele>583.8</ele>
        <time>2022-09-06T09:50:18Z</time>
      </trkpt>
      <trkpt lat="43.08667" lon="0.33671">
        <ele>583.4</ele>
        <time>2022-09-06T09:50:20Z</time>
      </trkpt>
      <trkpt lat="43.08675" lon="0.33623">
        <ele>582.4</ele>
        <time>2022-09-06T09:50:26Z</time>
      </trkpt>
      <trkpt lat="43.08684" lon="0.33574">
        <ele>581.4</ele>
        <time>2022-09-06T09:50:32Z</time>
      </trkpt>
      <trkpt lat="43.08688" lon="0.33548">
        <ele>580.6</ele>
        <time>2022-09-06T09:50:35Z</time>
      </trkpt>
      <trkpt lat="43.0869" lon="0.33531">
        <ele>580.2</ele>
        <time>2022-09-06T09:50:37Z</time>
      </trkpt>
      <trkpt lat="43.08696" lon="0.33503">
        <ele>579.2</ele>
        <time>2022-09-06T09:50:41Z</time>
      </trkpt>
      <trkpt lat="43.08711" lon="0.3349">
        <ele>578.8</ele>
        <time>2022-09-06T09:50:45Z</time>
      </trkpt>
      <trkpt lat="43.08719" lon="0.3349">
        <ele>578.8</ele>
        <time>2022-09-06T09:50:47Z</time>
      </trkpt>
      <trkpt lat="43.0873" lon="0.33492">
        <ele>579</ele>
        <time>2022-09-06T09:50:50Z</time>
      </trkpt>
      <trkpt lat="43.08747" lon="0.33495">
        <ele>579.2</ele>
        <time>2022-09-06T09:50:56Z</time>
      </trkpt>
      <trkpt lat="43.08754" lon="0.3349">
        <ele>579.4</ele>
        <time>2022-09-06T09:51:00Z</time>
      </trkpt>
      <trkpt lat="43.08755" lon="0.33487">
        <ele>579.4</ele>
        <time>2022-09-06T09:51:01Z</time>
      </trkpt>
      <trkpt lat="43.08757" lon="0.33467">
        <ele>579</ele>
        <time>2022-09-06T09:51:06Z</time>
      </trkpt>
      <trkpt lat="43.08758" lon="0.33427">
        <ele>578.6</ele>
        <time>2022-09-06T09:51:13Z</time>
      </trkpt>
      <trkpt lat="43.08759" lon="0.33399">
        <ele>578.2</ele>
        <time>2022-09-06T09:51:17Z</time>
      </trkpt>
      <trkpt lat="43.08759" lon="0.33376">
        <ele>577.4</ele>
        <time>2022-09-06T09:51:20Z</time>
      </trkpt>
      <trkpt lat="43.0876" lon="0.33351">
        <ele>577</ele>
        <time>2022-09-06T09:51:23Z</time>
      </trkpt>
      <trkpt lat="43.08761" lon="0.33316">
        <ele>575.8</ele>
        <time>2022-09-06T09:51:27Z</time>
      </trkpt>
      <trkpt lat="43.08761" lon="0.33299">
        <ele>575.2</ele>
        <time>2022-09-06T09:51:29Z</time>
      </trkpt>
      <trkpt lat="43.08762" lon="0.33271">
        <ele>574.6</ele>
        <time>2022-09-06T09:51:32Z</time>
      </trkpt>
      <trkpt lat="43.08763" lon="0.33213">
        <ele>573.4</ele>
        <time>2022-09-06T09:51:38Z</time>
      </trkpt>
      <trkpt lat="43.08766" lon="0.33149">
        <ele>572.6</ele>
        <time>2022-09-06T09:51:46Z</time>
      </trkpt>
      <trkpt lat="43.08768" lon="0.33108">
        <ele>572.4</ele>
        <time>2022-09-06T09:51:51Z</time>
      </trkpt>
      <trkpt lat="43.0877" lon="0.33094">
        <ele>572.2</ele>
        <time>2022-09-06T09:51:53Z</time>
      </trkpt>
      <trkpt lat="43.08772" lon="0.33057">
        <ele>572.2</ele>
        <time>2022-09-06T09:51:59Z</time>
      </trkpt>
      <trkpt lat="43.08775" lon="0.33024">
        <ele>571.8</ele>
        <time>2022-09-06T09:52:05Z</time>
      </trkpt>
      <trkpt lat="43.08775" lon="0.33019">
        <ele>571.8</ele>
        <time>2022-09-06T09:52:06Z</time>
      </trkpt>
      <trkpt lat="43.08777" lon="0.32989">
        <ele>571.4</ele>
        <time>2022-09-06T09:52:11Z</time>
      </trkpt>
      <trkpt lat="43.08777" lon="0.32983">
        <ele>571.2</ele>
        <time>2022-09-06T09:52:12Z</time>
      </trkpt>
      <trkpt lat="43.0878" lon="0.32942">
        <ele>571</ele>
        <time>2022-09-06T09:52:19Z</time>
      </trkpt>
      <trkpt lat="43.08782" lon="0.32912">
        <ele>570.2</ele>
        <time>2022-09-06T09:52:24Z</time>
      </trkpt>
      <trkpt lat="43.08785" lon="0.32893">
        <ele>569.8</ele>
        <time>2022-09-06T09:52:27Z</time>
      </trkpt>
      <trkpt lat="43.0879" lon="0.32848">
        <ele>569.2</ele>
        <time>2022-09-06T09:52:33Z</time>
      </trkpt>
      <trkpt lat="43.08791" lon="0.32825">
        <ele>568.8</ele>
        <time>2022-09-06T09:52:36Z</time>
      </trkpt>
      <trkpt lat="43.08792" lon="0.32804">
        <ele>568.6</ele>
        <time>2022-09-06T09:52:39Z</time>
      </trkpt>
      <trkpt lat="43.08791" lon="0.32782">
        <ele>568.2</ele>
        <time>2022-09-06T09:52:42Z</time>
      </trkpt>
      <trkpt lat="43.0879" lon="0.32774">
        <ele>568</ele>
        <time>2022-09-06T09:52:43Z</time>
      </trkpt>
      <trkpt lat="43.08786" lon="0.32721">
        <ele>567.4</ele>
        <time>2022-09-06T09:52:51Z</time>
      </trkpt>
      <trkpt lat="43.08783" lon="0.32696">
        <ele>567</ele>
        <time>2022-09-06T09:52:55Z</time>
      </trkpt>
      <trkpt lat="43.08782" lon="0.32674">
        <ele>566.8</ele>
        <time>2022-09-06T09:52:59Z</time>
      </trkpt>
      <trkpt lat="43.08784" lon="0.32644">
        <ele>566.6</ele>
        <time>2022-09-06T09:53:05Z</time>
      </trkpt>
      <trkpt lat="43.08788" lon="0.32602">
        <ele>566</ele>
        <time>2022-09-06T09:53:14Z</time>
      </trkpt>
      <trkpt lat="43.0879" lon="0.32591">
        <ele>566</ele>
        <time>2022-09-06T09:53:16Z</time>
      </trkpt>
      <trkpt lat="43.08796" lon="0.32564">
        <ele>565.2</ele>
        <time>2022-09-06T09:53:21Z</time>
      </trkpt>
      <trkpt lat="43.08802" lon="0.32539">
        <ele>565</ele>
        <time>2022-09-06T09:53:25Z</time>
      </trkpt>
      <trkpt lat="43.08807" lon="0.32519">
        <ele>564.6</ele>
        <time>2022-09-06T09:53:28Z</time>
      </trkpt>
      <trkpt lat="43.08811" lon="0.32507">
        <ele>563.6</ele>
        <time>2022-09-06T09:53:31Z</time>
      </trkpt>
      <trkpt lat="43.08811" lon="0.32504">
        <ele>563.2</ele>
        <time>2022-09-06T09:53:32Z</time>
      </trkpt>
      <trkpt lat="43.08813" lon="0.32492">
        <ele>562.8</ele>
        <time>2022-09-06T09:54:23Z</time>
      </trkpt>
      <trkpt lat="43.08815" lon="0.32486">
        <ele>562.8</ele>
        <time>2022-09-06T09:54:25Z</time>
      </trkpt>
      <trkpt lat="43.08816" lon="0.32482">
        <ele>562.6</ele>
        <time>2022-09-06T09:54:26Z</time>
      </trkpt>
      <trkpt lat="43.08819" lon="0.32462">
        <ele>562.2</ele>
        <time>2022-09-06T09:54:30Z</time>
      </trkpt>
      <trkpt lat="43.08823" lon="0.32448">
        <ele>561.4</ele>
        <time>2022-09-06T09:54:34Z</time>
      </trkpt>
      <trkpt lat="43.08823" lon="0.32446">
        <ele>561.2</ele>
        <time>2022-09-06T09:54:35Z</time>
      </trkpt>
      <trkpt lat="43.08823" lon="0.3244">
        <ele>560.6</ele>
        <time>2022-09-06T09:56:44Z</time>
      </trkpt>
      <trkpt lat="43.08825" lon="0.32427">
        <ele>560.2</ele>
        <time>2022-09-06T09:56:47Z</time>
      </trkpt>
      <trkpt lat="43.08825" lon="0.32422">
        <ele>560</ele>
        <time>2022-09-06T09:56:48Z</time>
      </trkpt>
      <trkpt lat="43.08828" lon="0.32391">
        <ele>559.4</ele>
        <time>2022-09-06T09:56:52Z</time>
      </trkpt>
      <trkpt lat="43.08828" lon="0.32382">
        <ele>559</ele>
        <time>2022-09-06T09:56:53Z</time>
      </trkpt>
      <trkpt lat="43.08828" lon="0.32353">
        <ele>557.8</ele>
        <time>2022-09-06T09:56:56Z</time>
      </trkpt>
      <trkpt lat="43.08828" lon="0.32343">
        <ele>557.6</ele>
        <time>2022-09-06T09:56:57Z</time>
      </trkpt>
      <trkpt lat="43.08828" lon="0.32321">
        <ele>556.6</ele>
        <time>2022-09-06T09:56:59Z</time>
      </trkpt>
      <trkpt lat="43.08825" lon="0.32286">
        <ele>555.4</ele>
        <time>2022-09-06T09:57:02Z</time>
      </trkpt>
      <trkpt lat="43.08825" lon="0.32274">
        <ele>554.2</ele>
        <time>2022-09-06T09:57:03Z</time>
      </trkpt>
      <trkpt lat="43.08823" lon="0.32237">
        <ele>553</ele>
        <time>2022-09-06T09:57:06Z</time>
      </trkpt>
      <trkpt lat="43.08822" lon="0.32198">
        <ele>552</ele>
        <time>2022-09-06T09:57:09Z</time>
      </trkpt>
      <trkpt lat="43.08822" lon="0.32185">
        <ele>551.6</ele>
        <time>2022-09-06T09:57:10Z</time>
      </trkpt>
      <trkpt lat="43.08822" lon="0.32159">
        <ele>550.6</ele>
        <time>2022-09-06T09:57:12Z</time>
      </trkpt>
      <trkpt lat="43.08821" lon="0.32108">
        <ele>549.4</ele>
        <time>2022-09-06T09:57:16Z</time>
      </trkpt>
      <trkpt lat="43.08822" lon="0.32082">
        <ele>549</ele>
        <time>2022-09-06T09:57:18Z</time>
      </trkpt>
      <trkpt lat="43.08821" lon="0.32043">
        <ele>548</ele>
        <time>2022-09-06T09:57:21Z</time>
      </trkpt>
      <trkpt lat="43.08821" lon="0.31992">
        <ele>546.8</ele>
        <time>2022-09-06T09:57:25Z</time>
      </trkpt>
      <trkpt lat="43.08821" lon="0.31979">
        <ele>546.2</ele>
        <time>2022-09-06T09:57:26Z</time>
      </trkpt>
      <trkpt lat="43.08821" lon="0.31966">
        <ele>545</ele>
        <time>2022-09-06T09:57:27Z</time>
      </trkpt>
      <trkpt lat="43.08821" lon="0.3194">
        <ele>544</ele>
        <time>2022-09-06T09:57:29Z</time>
      </trkpt>
      <trkpt lat="43.08821" lon="0.31889">
        <ele>542.8</ele>
        <time>2022-09-06T09:57:33Z</time>
      </trkpt>
      <trkpt lat="43.0882" lon="0.31849">
        <ele>541</ele>
        <time>2022-09-06T09:57:36Z</time>
      </trkpt>
      <trkpt lat="43.0882" lon="0.31823">
        <ele>539.6</ele>
        <time>2022-09-06T09:57:38Z</time>
      </trkpt>
      <trkpt lat="43.08822" lon="0.31798">
        <ele>538.2</ele>
        <time>2022-09-06T09:57:40Z</time>
      </trkpt>
      <trkpt lat="43.08827" lon="0.31773">
        <ele>536.8</ele>
        <time>2022-09-06T09:57:42Z</time>
      </trkpt>
      <trkpt lat="43.08833" lon="0.31748">
        <ele>535.4</ele>
        <time>2022-09-06T09:57:44Z</time>
      </trkpt>
      <trkpt lat="43.08839" lon="0.31723">
        <ele>534</ele>
        <time>2022-09-06T09:57:46Z</time>
      </trkpt>
      <trkpt lat="43.08843" lon="0.31696">
        <ele>532.6</ele>
        <time>2022-09-06T09:57:48Z</time>
      </trkpt>
      <trkpt lat="43.08843" lon="0.31683">
        <ele>531.4</ele>
        <time>2022-09-06T09:57:49Z</time>
      </trkpt>
      <trkpt lat="43.08841" lon="0.31657">
        <ele>529</ele>
        <time>2022-09-06T09:57:51Z</time>
      </trkpt>
      <trkpt lat="43.08837" lon="0.31632">
        <ele>527.6</ele>
        <time>2022-09-06T09:57:53Z</time>
      </trkpt>
      <trkpt lat="43.08833" lon="0.31608">
        <ele>526.2</ele>
        <time>2022-09-06T09:57:55Z</time>
      </trkpt>
      <trkpt lat="43.08831" lon="0.31584">
        <ele>525</ele>
        <time>2022-09-06T09:57:57Z</time>
      </trkpt>
      <trkpt lat="43.0883" lon="0.31563">
        <ele>523.4</ele>
        <time>2022-09-06T09:57:59Z</time>
      </trkpt>
      <trkpt lat="43.0883" lon="0.3153">
        <ele>522.2</ele>
        <time>2022-09-06T09:58:02Z</time>
      </trkpt>
      <trkpt lat="43.08831" lon="0.31506">
        <ele>521.2</ele>
        <time>2022-09-06T09:58:04Z</time>
      </trkpt>
      <trkpt lat="43.08833" lon="0.31471">
        <ele>520.2</ele>
        <time>2022-09-06T09:58:07Z</time>
      </trkpt>
      <trkpt lat="43.08834" lon="0.31459">
        <ele>519.6</ele>
        <time>2022-09-06T09:58:08Z</time>
      </trkpt>
      <trkpt lat="43.08836" lon="0.31435">
        <ele>519.2</ele>
        <time>2022-09-06T09:58:10Z</time>
      </trkpt>
      <trkpt lat="43.08838" lon="0.31386">
        <ele>517.6</ele>
        <time>2022-09-06T09:58:14Z</time>
      </trkpt>
      <trkpt lat="43.08837" lon="0.3135">
        <ele>516.6</ele>
        <time>2022-09-06T09:58:17Z</time>
      </trkpt>
      <trkpt lat="43.08834" lon="0.31329">
        <ele>516</ele>
        <time>2022-09-06T09:58:19Z</time>
      </trkpt>
      <trkpt lat="43.08832" lon="0.31313">
        <ele>515.4</ele>
        <time>2022-09-06T09:58:21Z</time>
      </trkpt>
      <trkpt lat="43.08831" lon="0.313">
        <ele>515</ele>
        <time>2022-09-06T09:58:23Z</time>
      </trkpt>
      <trkpt lat="43.08833" lon="0.3129">
        <ele>514.8</ele>
        <time>2022-09-06T09:58:26Z</time>
      </trkpt>
      <trkpt lat="43.08835" lon="0.3129">
        <ele>514.8</ele>
        <time>2022-09-06T09:58:27Z</time>
      </trkpt>
      <trkpt lat="43.08843" lon="0.31289">
        <ele>514.4</ele>
        <time>2022-09-06T09:58:31Z</time>
      </trkpt>
      <trkpt lat="43.08848" lon="0.3129">
        <ele>514.4</ele>
        <time>2022-09-06T09:58:33Z</time>
      </trkpt>
      <trkpt lat="43.08853" lon="0.31294">
        <ele>514.2</ele>
        <time>2022-09-06T09:58:35Z</time>
      </trkpt>
      <trkpt lat="43.08863" lon="0.31303">
        <ele>513.6</ele>
        <time>2022-09-06T09:58:38Z</time>
      </trkpt>
      <trkpt lat="43.08866" lon="0.31306">
        <ele>513</ele>
        <time>2022-09-06T09:58:39Z</time>
      </trkpt>
      <trkpt lat="43.08878" lon="0.31318">
        <ele>511.8</ele>
        <time>2022-09-06T09:58:42Z</time>
      </trkpt>
      <trkpt lat="43.08881" lon="0.31324">
        <ele>511.2</ele>
        <time>2022-09-06T09:58:43Z</time>
      </trkpt>
      <trkpt lat="43.08884" lon="0.31332">
        <ele>510.8</ele>
        <time>2022-09-06T09:58:44Z</time>
      </trkpt>
      <trkpt lat="43.08886" lon="0.31341">
        <ele>510.6</ele>
        <time>2022-09-06T09:58:45Z</time>
      </trkpt>
      <trkpt lat="43.08892" lon="0.31369">
        <ele>510.2</ele>
        <time>2022-09-06T09:58:48Z</time>
      </trkpt>
      <trkpt lat="43.08901" lon="0.31394">
        <ele>509.4</ele>
        <time>2022-09-06T09:58:51Z</time>
      </trkpt>
      <trkpt lat="43.08906" lon="0.31411">
        <ele>509</ele>
        <time>2022-09-06T09:58:53Z</time>
      </trkpt>
      <trkpt lat="43.08914" lon="0.31441">
        <ele>508.2</ele>
        <time>2022-09-06T09:58:56Z</time>
      </trkpt>
      <trkpt lat="43.0892" lon="0.31463">
        <ele>507.2</ele>
        <time>2022-09-06T09:58:58Z</time>
      </trkpt>
      <trkpt lat="43.08925" lon="0.31487">
        <ele>505.8</ele>
        <time>2022-09-06T09:59:00Z</time>
      </trkpt>
      <trkpt lat="43.08928" lon="0.31513">
        <ele>504.8</ele>
        <time>2022-09-06T09:59:02Z</time>
      </trkpt>
      <trkpt lat="43.0893" lon="0.31527">
        <ele>503.2</ele>
        <time>2022-09-06T09:59:03Z</time>
      </trkpt>
      <trkpt lat="43.08936" lon="0.31554">
        <ele>501.8</ele>
        <time>2022-09-06T09:59:05Z</time>
      </trkpt>
      <trkpt lat="43.08942" lon="0.31583">
        <ele>500.8</ele>
        <time>2022-09-06T09:59:07Z</time>
      </trkpt>
      <trkpt lat="43.08951" lon="0.31611">
        <ele>499</ele>
        <time>2022-09-06T09:59:09Z</time>
      </trkpt>
      <trkpt lat="43.08962" lon="0.31638">
        <ele>497.6</ele>
        <time>2022-09-06T09:59:11Z</time>
      </trkpt>
      <trkpt lat="43.0898" lon="0.31678">
        <ele>496</ele>
        <time>2022-09-06T09:59:14Z</time>
      </trkpt>
      <trkpt lat="43.08996" lon="0.31715">
        <ele>494.8</ele>
        <time>2022-09-06T09:59:17Z</time>
      </trkpt>
      <trkpt lat="43.09007" lon="0.31735">
        <ele>493</ele>
        <time>2022-09-06T09:59:19Z</time>
      </trkpt>
      <trkpt lat="43.09011" lon="0.31744">
        <ele>491.8</ele>
        <time>2022-09-06T09:59:20Z</time>
      </trkpt>
      <trkpt lat="43.09015" lon="0.31752">
        <ele>491</ele>
        <time>2022-09-06T09:59:21Z</time>
      </trkpt>
      <trkpt lat="43.09019" lon="0.31759">
        <ele>490.2</ele>
        <time>2022-09-06T09:59:22Z</time>
      </trkpt>
      <trkpt lat="43.09023" lon="0.31765">
        <ele>489.6</ele>
        <time>2022-09-06T09:59:23Z</time>
      </trkpt>
      <trkpt lat="43.09028" lon="0.31767">
        <ele>489</ele>
        <time>2022-09-06T09:59:24Z</time>
      </trkpt>
      <trkpt lat="43.09037" lon="0.31761">
        <ele>488.4</ele>
        <time>2022-09-06T09:59:26Z</time>
      </trkpt>
      <trkpt lat="43.09042" lon="0.31749">
        <ele>488.8</ele>
        <time>2022-09-06T09:59:29Z</time>
      </trkpt>
      <trkpt lat="43.09046" lon="0.31735">
        <ele>489.8</ele>
        <time>2022-09-06T09:59:34Z</time>
      </trkpt>
      <trkpt lat="43.09049" lon="0.31728">
        <ele>490.2</ele>
        <time>2022-09-06T09:59:37Z</time>
      </trkpt>
      <trkpt lat="43.09053" lon="0.31718">
        <ele>490.8</ele>
        <time>2022-09-06T09:59:41Z</time>
      </trkpt>
      <trkpt lat="43.09055" lon="0.31713">
        <ele>491.4</ele>
        <time>2022-09-06T09:59:43Z</time>
      </trkpt>
      <trkpt lat="43.09063" lon="0.31698">
        <ele>492.4</ele>
        <time>2022-09-06T09:59:49Z</time>
      </trkpt>
      <trkpt lat="43.09066" lon="0.31693">
        <ele>493</ele>
        <time>2022-09-06T09:59:51Z</time>
      </trkpt>
      <trkpt lat="43.0907" lon="0.31687">
        <ele>493.6</ele>
        <time>2022-09-06T09:59:54Z</time>
      </trkpt>
      <trkpt lat="43.09076" lon="0.3168">
        <ele>494</ele>
        <time>2022-09-06T09:59:58Z</time>
      </trkpt>
      <trkpt lat="43.09087" lon="0.31659">
        <ele>494.4</ele>
        <time>2022-09-06T10:00:06Z</time>
      </trkpt>
      <trkpt lat="43.09094" lon="0.31649">
        <ele>494.6</ele>
        <time>2022-09-06T10:00:10Z</time>
      </trkpt>
      <trkpt lat="43.09105" lon="0.31632">
        <ele>495.2</ele>
        <time>2022-09-06T10:00:17Z</time>
      </trkpt>
      <trkpt lat="43.09114" lon="0.31617">
        <ele>495.8</ele>
        <time>2022-09-06T10:00:23Z</time>
      </trkpt>
      <trkpt lat="43.09118" lon="0.3161">
        <ele>495.8</ele>
        <time>2022-09-06T10:00:26Z</time>
      </trkpt>
      <trkpt lat="43.09131" lon="0.31592">
        <ele>496.8</ele>
        <time>2022-09-06T10:00:33Z</time>
      </trkpt>
      <trkpt lat="43.09147" lon="0.31575">
        <ele>497.4</ele>
        <time>2022-09-06T10:00:40Z</time>
      </trkpt>
      <trkpt lat="43.09168" lon="0.31554">
        <ele>497.6</ele>
        <time>2022-09-06T10:00:47Z</time>
      </trkpt>
      <trkpt lat="43.09179" lon="0.3154">
        <ele>497.8</ele>
        <time>2022-09-06T10:00:51Z</time>
      </trkpt>
      <trkpt lat="43.09186" lon="0.31528">
        <ele>498</ele>
        <time>2022-09-06T10:00:54Z</time>
      </trkpt>
      <trkpt lat="43.09198" lon="0.31495">
        <ele>498.6</ele>
        <time>2022-09-06T10:01:02Z</time>
      </trkpt>
      <trkpt lat="43.09199" lon="0.31485">
        <ele>498.8</ele>
        <time>2022-09-06T10:01:04Z</time>
      </trkpt>
      <trkpt lat="43.09203" lon="0.31462">
        <ele>499.2</ele>
        <time>2022-09-06T10:01:09Z</time>
      </trkpt>
      <trkpt lat="43.09208" lon="0.31429">
        <ele>500</ele>
        <time>2022-09-06T10:01:16Z</time>
      </trkpt>
      <trkpt lat="43.09209" lon="0.31416">
        <ele>500</ele>
        <time>2022-09-06T10:01:19Z</time>
      </trkpt>
      <trkpt lat="43.09216" lon="0.31383">
        <ele>500</ele>
        <time>2022-09-06T10:01:26Z</time>
      </trkpt>
      <trkpt lat="43.09225" lon="0.31353">
        <ele>499.6</ele>
        <time>2022-09-06T10:01:33Z</time>
      </trkpt>
      <trkpt lat="43.09237" lon="0.3132">
        <ele>498.8</ele>
        <time>2022-09-06T10:01:39Z</time>
      </trkpt>
      <trkpt lat="43.0924" lon="0.31313">
        <ele>498.6</ele>
        <time>2022-09-06T10:01:40Z</time>
      </trkpt>
      <trkpt lat="43.09254" lon="0.31277">
        <ele>497.6</ele>
        <time>2022-09-06T10:01:45Z</time>
      </trkpt>
      <trkpt lat="43.09258" lon="0.3127">
        <ele>497.4</ele>
        <time>2022-09-06T10:01:46Z</time>
      </trkpt>
      <trkpt lat="43.09272" lon="0.31246">
        <ele>496.4</ele>
        <time>2022-09-06T10:01:49Z</time>
      </trkpt>
      <trkpt lat="43.09284" lon="0.31223">
        <ele>495.8</ele>
        <time>2022-09-06T10:01:52Z</time>
      </trkpt>
      <trkpt lat="43.09302" lon="0.31191">
        <ele>495.2</ele>
        <time>2022-09-06T10:01:57Z</time>
      </trkpt>
      <trkpt lat="43.09306" lon="0.31185">
        <ele>495</ele>
        <time>2022-09-06T10:01:58Z</time>
      </trkpt>
      <trkpt lat="43.09315" lon="0.31174">
        <ele>494.6</ele>
        <time>2022-09-06T10:02:00Z</time>
      </trkpt>
      <trkpt lat="43.09334" lon="0.31148">
        <ele>493.8</ele>
        <time>2022-09-06T10:02:04Z</time>
      </trkpt>
      <trkpt lat="43.09338" lon="0.31141">
        <ele>493.4</ele>
        <time>2022-09-06T10:02:05Z</time>
      </trkpt>
      <trkpt lat="43.09351" lon="0.31116">
        <ele>492.8</ele>
        <time>2022-09-06T10:02:08Z</time>
      </trkpt>
      <trkpt lat="43.09355" lon="0.31107">
        <ele>492.2</ele>
        <time>2022-09-06T10:02:09Z</time>
      </trkpt>
      <trkpt lat="43.09363" lon="0.31087">
        <ele>491.2</ele>
        <time>2022-09-06T10:02:11Z</time>
      </trkpt>
      <trkpt lat="43.09372" lon="0.31067">
        <ele>490</ele>
        <time>2022-09-06T10:02:13Z</time>
      </trkpt>
      <trkpt lat="43.09377" lon="0.31057">
        <ele>489.8</ele>
        <time>2022-09-06T10:02:14Z</time>
      </trkpt>
      <trkpt lat="43.09388" lon="0.31039">
        <ele>489</ele>
        <time>2022-09-06T10:02:16Z</time>
      </trkpt>
      <trkpt lat="43.09402" lon="0.31012">
        <ele>488.6</ele>
        <time>2022-09-06T10:02:19Z</time>
      </trkpt>
      <trkpt lat="43.0942" lon="0.30973">
        <ele>488.4</ele>
        <time>2022-09-06T10:02:24Z</time>
      </trkpt>
      <trkpt lat="43.09428" lon="0.30952">
        <ele>489.2</ele>
        <time>2022-09-06T10:02:28Z</time>
      </trkpt>
      <trkpt lat="43.09437" lon="0.30929">
        <ele>490</ele>
        <time>2022-09-06T10:02:33Z</time>
      </trkpt>
      <trkpt lat="43.09439" lon="0.30919">
        <ele>490.2</ele>
        <time>2022-09-06T10:02:35Z</time>
      </trkpt>
      <trkpt lat="43.09446" lon="0.30896">
        <ele>491</ele>
        <time>2022-09-06T10:02:40Z</time>
      </trkpt>
      <trkpt lat="43.0945" lon="0.30888">
        <ele>491.2</ele>
        <time>2022-09-06T10:02:42Z</time>
      </trkpt>
      <trkpt lat="43.09457" lon="0.30868">
        <ele>491.6</ele>
        <time>2022-09-06T10:02:47Z</time>
      </trkpt>
      <trkpt lat="43.09464" lon="0.30851">
        <ele>492</ele>
        <time>2022-09-06T10:02:52Z</time>
      </trkpt>
      <trkpt lat="43.09465" lon="0.30847">
        <ele>492.2</ele>
        <time>2022-09-06T10:02:53Z</time>
      </trkpt>
      <trkpt lat="43.09473" lon="0.30825">
        <ele>492.6</ele>
        <time>2022-09-06T10:02:59Z</time>
      </trkpt>
      <trkpt lat="43.09484" lon="0.30792">
        <ele>492.6</ele>
        <time>2022-09-06T10:03:06Z</time>
      </trkpt>
      <trkpt lat="43.09495" lon="0.30769">
        <ele>492.4</ele>
        <time>2022-09-06T10:03:11Z</time>
      </trkpt>
      <trkpt lat="43.09511" lon="0.3074">
        <ele>492.6</ele>
        <time>2022-09-06T10:03:17Z</time>
      </trkpt>
      <trkpt lat="43.09526" lon="0.30715">
        <ele>492.6</ele>
        <time>2022-09-06T10:03:22Z</time>
      </trkpt>
      <trkpt lat="43.09535" lon="0.307">
        <ele>492.6</ele>
        <time>2022-09-06T10:03:25Z</time>
      </trkpt>
      <trkpt lat="43.09542" lon="0.30689">
        <ele>492.4</ele>
        <time>2022-09-06T10:03:27Z</time>
      </trkpt>
      <trkpt lat="43.09555" lon="0.30668">
        <ele>492.2</ele>
        <time>2022-09-06T10:03:31Z</time>
      </trkpt>
      <trkpt lat="43.09567" lon="0.30646">
        <ele>492</ele>
        <time>2022-09-06T10:03:35Z</time>
      </trkpt>
      <trkpt lat="43.09572" lon="0.30635">
        <ele>491.8</ele>
        <time>2022-09-06T10:03:37Z</time>
      </trkpt>
      <trkpt lat="43.09587" lon="0.30606">
        <ele>491.4</ele>
        <time>2022-09-06T10:03:43Z</time>
      </trkpt>
      <trkpt lat="43.09604" lon="0.30576">
        <ele>491.4</ele>
        <time>2022-09-06T10:03:49Z</time>
      </trkpt>
      <trkpt lat="43.09622" lon="0.3056">
        <ele>491.2</ele>
        <time>2022-09-06T10:03:54Z</time>
      </trkpt>
      <trkpt lat="43.09631" lon="0.30553">
        <ele>490.8</ele>
        <time>2022-09-06T10:03:56Z</time>
      </trkpt>
      <trkpt lat="43.0964" lon="0.30546">
        <ele>489.6</ele>
        <time>2022-09-06T10:03:58Z</time>
      </trkpt>
      <trkpt lat="43.09643" lon="0.30542">
        <ele>489</ele>
        <time>2022-09-06T10:03:59Z</time>
      </trkpt>
      <trkpt lat="43.09646" lon="0.30539">
        <ele>488.2</ele>
        <time>2022-09-06T10:04:00Z</time>
      </trkpt>
      <trkpt lat="43.0965" lon="0.30535">
        <ele>487.6</ele>
        <time>2022-09-06T10:04:01Z</time>
      </trkpt>
      <trkpt lat="43.09652" lon="0.30532">
        <ele>486.8</ele>
        <time>2022-09-06T10:04:02Z</time>
      </trkpt>
      <trkpt lat="43.09656" lon="0.30526">
        <ele>486</ele>
        <time>2022-09-06T10:04:04Z</time>
      </trkpt>
      <trkpt lat="43.09658" lon="0.30523">
        <ele>485.4</ele>
        <time>2022-09-06T10:04:05Z</time>
      </trkpt>
      <trkpt lat="43.09659" lon="0.30518">
        <ele>484.2</ele>
        <time>2022-09-06T10:04:07Z</time>
      </trkpt>
      <trkpt lat="43.0966" lon="0.30516">
        <ele>483.8</ele>
        <time>2022-09-06T10:04:08Z</time>
      </trkpt>
      <trkpt lat="43.09662" lon="0.30511">
        <ele>483.2</ele>
        <time>2022-09-06T10:04:10Z</time>
      </trkpt>
      <trkpt lat="43.09664" lon="0.30498">
        <ele>481.8</ele>
        <time>2022-09-06T10:06:11Z</time>
      </trkpt>
      <trkpt lat="43.09672" lon="0.30479">
        <ele>481.4</ele>
        <time>2022-09-06T10:06:14Z</time>
      </trkpt>
      <trkpt lat="43.09673" lon="0.3047">
        <ele>480.8</ele>
        <time>2022-09-06T10:06:15Z</time>
      </trkpt>
      <trkpt lat="43.09677" lon="0.30452">
        <ele>480.4</ele>
        <time>2022-09-06T10:06:17Z</time>
      </trkpt>
      <trkpt lat="43.09683" lon="0.30414">
        <ele>479.6</ele>
        <time>2022-09-06T10:06:21Z</time>
      </trkpt>
      <trkpt lat="43.09686" lon="0.30396">
        <ele>479.4</ele>
        <time>2022-09-06T10:06:23Z</time>
      </trkpt>
      <trkpt lat="43.0969" lon="0.30365">
        <ele>478.6</ele>
        <time>2022-09-06T10:06:26Z</time>
      </trkpt>
      <trkpt lat="43.09691" lon="0.30342">
        <ele>477.8</ele>
        <time>2022-09-06T10:06:28Z</time>
      </trkpt>
      <trkpt lat="43.09691" lon="0.30331">
        <ele>477.4</ele>
        <time>2022-09-06T10:06:29Z</time>
      </trkpt>
      <trkpt lat="43.09688" lon="0.30303">
        <ele>476.4</ele>
        <time>2022-09-06T10:06:32Z</time>
      </trkpt>
      <trkpt lat="43.09686" lon="0.30273">
        <ele>476.2</ele>
        <time>2022-09-06T10:06:35Z</time>
      </trkpt>
      <trkpt lat="43.09685" lon="0.3025">
        <ele>475.2</ele>
        <time>2022-09-06T10:06:37Z</time>
      </trkpt>
      <trkpt lat="43.09686" lon="0.30239">
        <ele>474.6</ele>
        <time>2022-09-06T10:06:38Z</time>
      </trkpt>
      <trkpt lat="43.09687" lon="0.30191">
        <ele>473.6</ele>
        <time>2022-09-06T10:06:42Z</time>
      </trkpt>
      <trkpt lat="43.09688" lon="0.30166">
        <ele>471.8</ele>
        <time>2022-09-06T10:06:44Z</time>
      </trkpt>
      <trkpt lat="43.09689" lon="0.30142">
        <ele>470.2</ele>
        <time>2022-09-06T10:06:46Z</time>
      </trkpt>
      <trkpt lat="43.0969" lon="0.30118">
        <ele>468.8</ele>
        <time>2022-09-06T10:06:48Z</time>
      </trkpt>
      <trkpt lat="43.09688" lon="0.30081">
        <ele>467.2</ele>
        <time>2022-09-06T10:06:51Z</time>
      </trkpt>
      <trkpt lat="43.09687" lon="0.30069">
        <ele>466</ele>
        <time>2022-09-06T10:06:52Z</time>
      </trkpt>
      <trkpt lat="43.09686" lon="0.30057">
        <ele>464.6</ele>
        <time>2022-09-06T10:06:53Z</time>
      </trkpt>
      <trkpt lat="43.09686" lon="0.30045">
        <ele>463.6</ele>
        <time>2022-09-06T10:06:54Z</time>
      </trkpt>
      <trkpt lat="43.09687" lon="0.30021">
        <ele>461.6</ele>
        <time>2022-09-06T10:06:56Z</time>
      </trkpt>
      <trkpt lat="43.09688" lon="0.3001">
        <ele>460.6</ele>
        <time>2022-09-06T10:06:57Z</time>
      </trkpt>
      <trkpt lat="43.09691" lon="0.29999">
        <ele>460.2</ele>
        <time>2022-09-06T10:06:58Z</time>
      </trkpt>
      <trkpt lat="43.09698" lon="0.29978">
        <ele>459</ele>
        <time>2022-09-06T10:07:00Z</time>
      </trkpt>
      <trkpt lat="43.09702" lon="0.29969">
        <ele>458.4</ele>
        <time>2022-09-06T10:07:01Z</time>
      </trkpt>
      <trkpt lat="43.09706" lon="0.2996">
        <ele>458</ele>
        <time>2022-09-06T10:07:02Z</time>
      </trkpt>
      <trkpt lat="43.09712" lon="0.29943">
        <ele>456.8</ele>
        <time>2022-09-06T10:07:04Z</time>
      </trkpt>
      <trkpt lat="43.0972" lon="0.29918">
        <ele>456.4</ele>
        <time>2022-09-06T10:07:07Z</time>
      </trkpt>
      <trkpt lat="43.09722" lon="0.29911">
        <ele>455.8</ele>
        <time>2022-09-06T10:07:08Z</time>
      </trkpt>
      <trkpt lat="43.09734" lon="0.29877">
        <ele>454.4</ele>
        <time>2022-09-06T10:07:13Z</time>
      </trkpt>
      <trkpt lat="43.09739" lon="0.29862">
        <ele>453.2</ele>
        <time>2022-09-06T10:07:15Z</time>
      </trkpt>
      <trkpt lat="43.09747" lon="0.29838">
        <ele>452</ele>
        <time>2022-09-06T10:07:18Z</time>
      </trkpt>
      <trkpt lat="43.09752" lon="0.29822">
        <ele>451</ele>
        <time>2022-09-06T10:07:20Z</time>
      </trkpt>
      <trkpt lat="43.09755" lon="0.29813">
        <ele>450.6</ele>
        <time>2022-09-06T10:07:21Z</time>
      </trkpt>
      <trkpt lat="43.0976" lon="0.29795">
        <ele>449.6</ele>
        <time>2022-09-06T10:07:23Z</time>
      </trkpt>
      <trkpt lat="43.09762" lon="0.29785">
        <ele>449.2</ele>
        <time>2022-09-06T10:07:24Z</time>
      </trkpt>
      <trkpt lat="43.09764" lon="0.29769">
        <ele>448.6</ele>
        <time>2022-09-06T10:07:26Z</time>
      </trkpt>
      <trkpt lat="43.09764" lon="0.29763">
        <ele>448.2</ele>
        <time>2022-09-06T10:07:27Z</time>
      </trkpt>
      <trkpt lat="43.09763" lon="0.29755">
        <ele>447.8</ele>
        <time>2022-09-06T10:07:29Z</time>
      </trkpt>
      <trkpt lat="43.09763" lon="0.29753">
        <ele>447.6</ele>
        <time>2022-09-06T10:07:32Z</time>
      </trkpt>
      <trkpt lat="43.09759" lon="0.29744">
        <ele>447.6</ele>
        <time>2022-09-06T10:07:52Z</time>
      </trkpt>
      <trkpt lat="43.09757" lon="0.29741">
        <ele>447.6</ele>
        <time>2022-09-06T10:07:53Z</time>
      </trkpt>
      <trkpt lat="43.09756" lon="0.29738">
        <ele>447.6</ele>
        <time>2022-09-06T10:07:54Z</time>
      </trkpt>
      <trkpt lat="43.09744" lon="0.29709">
        <ele>447.4</ele>
        <time>2022-09-06T10:08:02Z</time>
      </trkpt>
      <trkpt lat="43.09733" lon="0.29687">
        <ele>447.4</ele>
        <time>2022-09-06T10:08:07Z</time>
      </trkpt>
      <trkpt lat="43.09729" lon="0.29678">
        <ele>447.2</ele>
        <time>2022-09-06T10:08:09Z</time>
      </trkpt>
      <trkpt lat="43.09715" lon="0.2965">
        <ele>447.4</ele>
        <time>2022-09-06T10:08:16Z</time>
      </trkpt>
      <trkpt lat="43.09708" lon="0.29625">
        <ele>447.2</ele>
        <time>2022-09-06T10:08:22Z</time>
      </trkpt>
      <trkpt lat="43.09709" lon="0.29602">
        <ele>447</ele>
        <time>2022-09-06T10:08:27Z</time>
      </trkpt>
      <trkpt lat="43.09709" lon="0.29588">
        <ele>446.6</ele>
        <time>2022-09-06T10:08:32Z</time>
      </trkpt>
      <trkpt lat="43.0971" lon="0.29577">
        <ele>446.4</ele>
        <time>2022-09-06T10:10:24Z</time>
      </trkpt>
      <trkpt lat="43.09711" lon="0.29573">
        <ele>446.4</ele>
        <time>2022-09-06T10:10:25Z</time>
      </trkpt>
      <trkpt lat="43.09721" lon="0.29545">
        <ele>446.6</ele>
        <time>2022-09-06T10:10:32Z</time>
      </trkpt>
      <trkpt lat="43.09733" lon="0.29502">
        <ele>446</ele>
        <time>2022-09-06T10:10:40Z</time>
      </trkpt>
      <trkpt lat="43.09739" lon="0.29477">
        <ele>445.6</ele>
        <time>2022-09-06T10:10:44Z</time>
      </trkpt>
      <trkpt lat="43.09741" lon="0.29464">
        <ele>445.6</ele>
        <time>2022-09-06T10:10:46Z</time>
      </trkpt>
      <trkpt lat="43.09741" lon="0.29458">
        <ele>445.4</ele>
        <time>2022-09-06T10:10:47Z</time>
      </trkpt>
      <trkpt lat="43.09739" lon="0.29425">
        <ele>445</ele>
        <time>2022-09-06T10:10:52Z</time>
      </trkpt>
      <trkpt lat="43.09737" lon="0.29389">
        <ele>444.4</ele>
        <time>2022-09-06T10:10:57Z</time>
      </trkpt>
      <trkpt lat="43.09738" lon="0.29382">
        <ele>444.2</ele>
        <time>2022-09-06T10:10:58Z</time>
      </trkpt>
      <trkpt lat="43.09741" lon="0.29367">
        <ele>444.2</ele>
        <time>2022-09-06T10:11:00Z</time>
      </trkpt>
      <trkpt lat="43.09742" lon="0.2936">
        <ele>444.4</ele>
        <time>2022-09-06T10:11:01Z</time>
      </trkpt>
      <trkpt lat="43.09748" lon="0.29339">
        <ele>443</ele>
        <time>2022-09-06T10:11:04Z</time>
      </trkpt>
      <trkpt lat="43.09757" lon="0.29309">
        <ele>442.4</ele>
        <time>2022-09-06T10:11:08Z</time>
      </trkpt>
      <trkpt lat="43.0976" lon="0.29302">
        <ele>442</ele>
        <time>2022-09-06T10:11:09Z</time>
      </trkpt>
      <trkpt lat="43.09773" lon="0.29278">
        <ele>441</ele>
        <time>2022-09-06T10:11:12Z</time>
      </trkpt>
      <trkpt lat="43.09779" lon="0.2927">
        <ele>440.2</ele>
        <time>2022-09-06T10:11:13Z</time>
      </trkpt>
      <trkpt lat="43.09784" lon="0.29262">
        <ele>439.6</ele>
        <time>2022-09-06T10:11:14Z</time>
      </trkpt>
      <trkpt lat="43.09796" lon="0.29245">
        <ele>438.6</ele>
        <time>2022-09-06T10:11:16Z</time>
      </trkpt>
      <trkpt lat="43.0981" lon="0.29231">
        <ele>438</ele>
        <time>2022-09-06T10:11:18Z</time>
      </trkpt>
      <trkpt lat="43.09825" lon="0.29218">
        <ele>437.4</ele>
        <time>2022-09-06T10:11:20Z</time>
      </trkpt>
      <trkpt lat="43.09846" lon="0.29197">
        <ele>436.2</ele>
        <time>2022-09-06T10:11:23Z</time>
      </trkpt>
      <trkpt lat="43.09853" lon="0.29189">
        <ele>435.8</ele>
        <time>2022-09-06T10:11:24Z</time>
      </trkpt>
      <trkpt lat="43.09865" lon="0.29173">
        <ele>435.2</ele>
        <time>2022-09-06T10:11:26Z</time>
      </trkpt>
      <trkpt lat="43.09869" lon="0.29163">
        <ele>435</ele>
        <time>2022-09-06T10:11:27Z</time>
      </trkpt>
      <trkpt lat="43.09873" lon="0.29151">
        <ele>434.4</ele>
        <time>2022-09-06T10:11:28Z</time>
      </trkpt>
      <trkpt lat="43.09875" lon="0.29139">
        <ele>434</ele>
        <time>2022-09-06T10:11:29Z</time>
      </trkpt>
      <trkpt lat="43.09876" lon="0.29114">
        <ele>433.6</ele>
        <time>2022-09-06T10:11:31Z</time>
      </trkpt>
      <trkpt lat="43.09876" lon="0.29102">
        <ele>433.4</ele>
        <time>2022-09-06T10:11:32Z</time>
      </trkpt>
      <trkpt lat="43.09874" lon="0.2908">
        <ele>432.8</ele>
        <time>2022-09-06T10:11:34Z</time>
      </trkpt>
      <trkpt lat="43.09872" lon="0.29069">
        <ele>432.6</ele>
        <time>2022-09-06T10:11:35Z</time>
      </trkpt>
      <trkpt lat="43.09866" lon="0.29043">
        <ele>431.4</ele>
        <time>2022-09-06T10:11:38Z</time>
      </trkpt>
      <trkpt lat="43.09863" lon="0.2903">
        <ele>430.6</ele>
        <time>2022-09-06T10:11:40Z</time>
      </trkpt>
      <trkpt lat="43.0986" lon="0.29026">
        <ele>430.2</ele>
        <time>2022-09-06T10:11:41Z</time>
      </trkpt>
      <trkpt lat="43.09857" lon="0.29019">
        <ele>429.6</ele>
        <time>2022-09-06T10:11:43Z</time>
      </trkpt>
      <trkpt lat="43.09857" lon="0.29019">
        <ele>429</ele>
        <time>2022-09-06T10:11:45Z</time>
      </trkpt>
      <trkpt lat="43.09854" lon="0.29004">
        <ele>429</ele>
        <time>2022-09-06T10:13:13Z</time>
      </trkpt>
      <trkpt lat="43.09855" lon="0.28981">
        <ele>428.8</ele>
        <time>2022-09-06T10:13:18Z</time>
      </trkpt>
      <trkpt lat="43.09863" lon="0.28951">
        <ele>428</ele>
        <time>2022-09-06T10:13:23Z</time>
      </trkpt>
      <trkpt lat="43.09876" lon="0.28922">
        <ele>427</ele>
        <time>2022-09-06T10:13:27Z</time>
      </trkpt>
      <trkpt lat="43.09883" lon="0.28905">
        <ele>426</ele>
        <time>2022-09-06T10:13:29Z</time>
      </trkpt>
      <trkpt lat="43.09886" lon="0.28896">
        <ele>425.8</ele>
        <time>2022-09-06T10:13:30Z</time>
      </trkpt>
      <trkpt lat="43.09895" lon="0.28868">
        <ele>425.2</ele>
        <time>2022-09-06T10:13:33Z</time>
      </trkpt>
      <trkpt lat="43.09899" lon="0.28849">
        <ele>424.8</ele>
        <time>2022-09-06T10:13:35Z</time>
      </trkpt>
      <trkpt lat="43.09897" lon="0.2883">
        <ele>424.4</ele>
        <time>2022-09-06T10:13:37Z</time>
      </trkpt>
      <trkpt lat="43.09895" lon="0.28821">
        <ele>424.6</ele>
        <time>2022-09-06T10:13:38Z</time>
      </trkpt>
      <trkpt lat="43.09891" lon="0.28805">
        <ele>424.6</ele>
        <time>2022-09-06T10:13:40Z</time>
      </trkpt>
      <trkpt lat="43.09885" lon="0.28785">
        <ele>425</ele>
        <time>2022-09-06T10:13:43Z</time>
      </trkpt>
      <trkpt lat="43.09876" lon="0.28759">
        <ele>424.6</ele>
        <time>2022-09-06T10:13:48Z</time>
      </trkpt>
      <trkpt lat="43.09875" lon="0.28753">
        <ele>424.6</ele>
        <time>2022-09-06T10:13:49Z</time>
      </trkpt>
      <trkpt lat="43.09872" lon="0.28741">
        <ele>424</ele>
        <time>2022-09-06T10:13:51Z</time>
      </trkpt>
      <trkpt lat="43.09861" lon="0.28732">
        <ele>423.8</ele>
        <time>2022-09-06T10:13:54Z</time>
      </trkpt>
      <trkpt lat="43.0985" lon="0.28729">
        <ele>423.2</ele>
        <time>2022-09-06T10:13:56Z</time>
      </trkpt>
      <trkpt lat="43.09838" lon="0.28725">
        <ele>422.6</ele>
        <time>2022-09-06T10:13:58Z</time>
      </trkpt>
      <trkpt lat="43.09818" lon="0.28715">
        <ele>422.2</ele>
        <time>2022-09-06T10:14:01Z</time>
      </trkpt>
      <trkpt lat="43.09803" lon="0.2871">
        <ele>421.8</ele>
        <time>2022-09-06T10:14:03Z</time>
      </trkpt>
      <trkpt lat="43.09788" lon="0.28707">
        <ele>420.8</ele>
        <time>2022-09-06T10:14:05Z</time>
      </trkpt>
      <trkpt lat="43.09771" lon="0.28705">
        <ele>419.8</ele>
        <time>2022-09-06T10:14:07Z</time>
      </trkpt>
      <trkpt lat="43.09764" lon="0.28705">
        <ele>419.4</ele>
        <time>2022-09-06T10:14:08Z</time>
      </trkpt>
      <trkpt lat="43.0975" lon="0.28706">
        <ele>418.8</ele>
        <time>2022-09-06T10:14:10Z</time>
      </trkpt>
      <trkpt lat="43.09731" lon="0.28709">
        <ele>418</ele>
        <time>2022-09-06T10:14:13Z</time>
      </trkpt>
      <trkpt lat="43.09726" lon="0.28707">
        <ele>417.4</ele>
        <time>2022-09-06T10:14:14Z</time>
      </trkpt>
      <trkpt lat="43.09716" lon="0.28702">
        <ele>416.2</ele>
        <time>2022-09-06T10:14:16Z</time>
      </trkpt>
      <trkpt lat="43.09712" lon="0.28698">
        <ele>416</ele>
        <time>2022-09-06T10:14:17Z</time>
      </trkpt>
      <trkpt lat="43.09702" lon="0.28683">
        <ele>415.2</ele>
        <time>2022-09-06T10:14:20Z</time>
      </trkpt>
      <trkpt lat="43.097" lon="0.28679">
        <ele>414.6</ele>
        <time>2022-09-06T10:14:21Z</time>
      </trkpt>
      <trkpt lat="43.09697" lon="0.28675">
        <ele>414</ele>
        <time>2022-09-06T10:14:22Z</time>
      </trkpt>
      <trkpt lat="43.09686" lon="0.28664">
        <ele>412.6</ele>
        <time>2022-09-06T10:14:25Z</time>
      </trkpt>
      <trkpt lat="43.09683" lon="0.28658">
        <ele>412.2</ele>
        <time>2022-09-06T10:14:26Z</time>
      </trkpt>
      <trkpt lat="43.09677" lon="0.28644">
        <ele>411.6</ele>
        <time>2022-09-06T10:14:28Z</time>
      </trkpt>
      <trkpt lat="43.09674" lon="0.28637">
        <ele>411.2</ele>
        <time>2022-09-06T10:14:29Z</time>
      </trkpt>
      <trkpt lat="43.0967" lon="0.28622">
        <ele>410.4</ele>
        <time>2022-09-06T10:14:31Z</time>
      </trkpt>
      <trkpt lat="43.09663" lon="0.28605">
        <ele>409.2</ele>
        <time>2022-09-06T10:14:34Z</time>
      </trkpt>
      <trkpt lat="43.09664" lon="0.286">
        <ele>408.8</ele>
        <time>2022-09-06T10:14:35Z</time>
      </trkpt>
      <trkpt lat="43.09673" lon="0.28584">
        <ele>408</ele>
        <time>2022-09-06T10:14:38Z</time>
      </trkpt>
      <trkpt lat="43.09684" lon="0.28573">
        <ele>407</ele>
        <time>2022-09-06T10:14:40Z</time>
      </trkpt>
      <trkpt lat="43.09691" lon="0.28567">
        <ele>406.6</ele>
        <time>2022-09-06T10:14:41Z</time>
      </trkpt>
      <trkpt lat="43.09698" lon="0.28561">
        <ele>406.2</ele>
        <time>2022-09-06T10:14:42Z</time>
      </trkpt>
      <trkpt lat="43.09712" lon="0.28547">
        <ele>405.4</ele>
        <time>2022-09-06T10:14:44Z</time>
      </trkpt>
      <trkpt lat="43.09726" lon="0.28531">
        <ele>404</ele>
        <time>2022-09-06T10:14:46Z</time>
      </trkpt>
      <trkpt lat="43.09733" lon="0.28523">
        <ele>403</ele>
        <time>2022-09-06T10:14:47Z</time>
      </trkpt>
      <trkpt lat="43.09741" lon="0.28514">
        <ele>402.2</ele>
        <time>2022-09-06T10:14:48Z</time>
      </trkpt>
      <trkpt lat="43.09757" lon="0.28496">
        <ele>400.8</ele>
        <time>2022-09-06T10:14:50Z</time>
      </trkpt>
      <trkpt lat="43.09773" lon="0.28478">
        <ele>399.2</ele>
        <time>2022-09-06T10:14:52Z</time>
      </trkpt>
      <trkpt lat="43.09797" lon="0.28454">
        <ele>397.6</ele>
        <time>2022-09-06T10:14:55Z</time>
      </trkpt>
      <trkpt lat="43.09812" lon="0.28435">
        <ele>396</ele>
        <time>2022-09-06T10:14:57Z</time>
      </trkpt>
      <trkpt lat="43.09819" lon="0.28424">
        <ele>395</ele>
        <time>2022-09-06T10:14:58Z</time>
      </trkpt>
      <trkpt lat="43.09826" lon="0.28412">
        <ele>393.8</ele>
        <time>2022-09-06T10:14:59Z</time>
      </trkpt>
      <trkpt lat="43.09839" lon="0.28386">
        <ele>392.4</ele>
        <time>2022-09-06T10:15:01Z</time>
      </trkpt>
      <trkpt lat="43.09852" lon="0.28361">
        <ele>390.8</ele>
        <time>2022-09-06T10:15:03Z</time>
      </trkpt>
      <trkpt lat="43.09859" lon="0.28348">
        <ele>389</ele>
        <time>2022-09-06T10:15:04Z</time>
      </trkpt>
      <trkpt lat="43.09866" lon="0.28336">
        <ele>388</ele>
        <time>2022-09-06T10:15:05Z</time>
      </trkpt>
      <trkpt lat="43.09872" lon="0.28323">
        <ele>386.8</ele>
        <time>2022-09-06T10:15:06Z</time>
      </trkpt>
      <trkpt lat="43.09877" lon="0.2831">
        <ele>385.6</ele>
        <time>2022-09-06T10:15:07Z</time>
      </trkpt>
      <trkpt lat="43.09881" lon="0.28297">
        <ele>384.6</ele>
        <time>2022-09-06T10:15:08Z</time>
      </trkpt>
      <trkpt lat="43.09885" lon="0.28285">
        <ele>383.6</ele>
        <time>2022-09-06T10:15:09Z</time>
      </trkpt>
      <trkpt lat="43.09887" lon="0.28271">
        <ele>382.8</ele>
        <time>2022-09-06T10:15:10Z</time>
      </trkpt>
      <trkpt lat="43.0989" lon="0.28259">
        <ele>381.6</ele>
        <time>2022-09-06T10:15:11Z</time>
      </trkpt>
      <trkpt lat="43.09893" lon="0.28248">
        <ele>380.6</ele>
        <time>2022-09-06T10:15:12Z</time>
      </trkpt>
      <trkpt lat="43.09895" lon="0.28236">
        <ele>379.8</ele>
        <time>2022-09-06T10:15:13Z</time>
      </trkpt>
      <trkpt lat="43.09902" lon="0.28211">
        <ele>378.4</ele>
        <time>2022-09-06T10:15:15Z</time>
      </trkpt>
      <trkpt lat="43.09911" lon="0.28187">
        <ele>376.6</ele>
        <time>2022-09-06T10:15:17Z</time>
      </trkpt>
      <trkpt lat="43.09916" lon="0.28176">
        <ele>375.4</ele>
        <time>2022-09-06T10:15:18Z</time>
      </trkpt>
      <trkpt lat="43.0992" lon="0.28164">
        <ele>374.4</ele>
        <time>2022-09-06T10:15:19Z</time>
      </trkpt>
      <trkpt lat="43.09925" lon="0.28154">
        <ele>373.4</ele>
        <time>2022-09-06T10:15:20Z</time>
      </trkpt>
      <trkpt lat="43.09929" lon="0.28144">
        <ele>372.2</ele>
        <time>2022-09-06T10:15:21Z</time>
      </trkpt>
      <trkpt lat="43.09932" lon="0.28135">
        <ele>371.2</ele>
        <time>2022-09-06T10:15:22Z</time>
      </trkpt>
      <trkpt lat="43.09934" lon="0.28125">
        <ele>370.4</ele>
        <time>2022-09-06T10:15:23Z</time>
      </trkpt>
      <trkpt lat="43.09935" lon="0.28113">
        <ele>369.8</ele>
        <time>2022-09-06T10:15:24Z</time>
      </trkpt>
      <trkpt lat="43.09935" lon="0.28089">
        <ele>368.4</ele>
        <time>2022-09-06T10:15:26Z</time>
      </trkpt>
      <trkpt lat="43.09934" lon="0.28063">
        <ele>366.4</ele>
        <time>2022-09-06T10:15:28Z</time>
      </trkpt>
      <trkpt lat="43.09932" lon="0.28037">
        <ele>364.6</ele>
        <time>2022-09-06T10:15:30Z</time>
      </trkpt>
      <trkpt lat="43.09931" lon="0.28024">
        <ele>363.6</ele>
        <time>2022-09-06T10:15:31Z</time>
      </trkpt>
      <trkpt lat="43.0993" lon="0.2801">
        <ele>362.6</ele>
        <time>2022-09-06T10:15:32Z</time>
      </trkpt>
      <trkpt lat="43.09927" lon="0.27983">
        <ele>360.8</ele>
        <time>2022-09-06T10:15:34Z</time>
      </trkpt>
      <trkpt lat="43.09921" lon="0.27958">
        <ele>359.2</ele>
        <time>2022-09-06T10:15:36Z</time>
      </trkpt>
      <trkpt lat="43.09916" lon="0.27946">
        <ele>358</ele>
        <time>2022-09-06T10:15:37Z</time>
      </trkpt>
      <trkpt lat="43.09912" lon="0.27935">
        <ele>357</ele>
        <time>2022-09-06T10:15:38Z</time>
      </trkpt>
      <trkpt lat="43.09902" lon="0.2791">
        <ele>355.2</ele>
        <time>2022-09-06T10:15:40Z</time>
      </trkpt>
      <trkpt lat="43.099" lon="0.27898">
        <ele>354</ele>
        <time>2022-09-06T10:15:41Z</time>
      </trkpt>
      <trkpt lat="43.09897" lon="0.27887">
        <ele>352.8</ele>
        <time>2022-09-06T10:15:42Z</time>
      </trkpt>
      <trkpt lat="43.09896" lon="0.27876">
        <ele>351.8</ele>
        <time>2022-09-06T10:15:43Z</time>
      </trkpt>
      <trkpt lat="43.09893" lon="0.27853">
        <ele>350.2</ele>
        <time>2022-09-06T10:15:45Z</time>
      </trkpt>
      <trkpt lat="43.09894" lon="0.27827">
        <ele>348.8</ele>
        <time>2022-09-06T10:15:47Z</time>
      </trkpt>
      <trkpt lat="43.09898" lon="0.27802">
        <ele>347.4</ele>
        <time>2022-09-06T10:15:49Z</time>
      </trkpt>
      <trkpt lat="43.09903" lon="0.27777">
        <ele>345.6</ele>
        <time>2022-09-06T10:15:51Z</time>
      </trkpt>
      <trkpt lat="43.09908" lon="0.27766">
        <ele>344.4</ele>
        <time>2022-09-06T10:15:52Z</time>
      </trkpt>
      <trkpt lat="43.09921" lon="0.27742">
        <ele>343</ele>
        <time>2022-09-06T10:15:54Z</time>
      </trkpt>
      <trkpt lat="43.09935" lon="0.27718">
        <ele>341.2</ele>
        <time>2022-09-06T10:15:56Z</time>
      </trkpt>
      <trkpt lat="43.09942" lon="0.27708">
        <ele>339.8</ele>
        <time>2022-09-06T10:15:57Z</time>
      </trkpt>
      <trkpt lat="43.09948" lon="0.27699">
        <ele>338.6</ele>
        <time>2022-09-06T10:15:58Z</time>
      </trkpt>
      <trkpt lat="43.09953" lon="0.27692">
        <ele>337.2</ele>
        <time>2022-09-06T10:15:59Z</time>
      </trkpt>
      <trkpt lat="43.09958" lon="0.27686">
        <ele>336.2</ele>
        <time>2022-09-06T10:16:00Z</time>
      </trkpt>
      <trkpt lat="43.09966" lon="0.27677">
        <ele>334.8</ele>
        <time>2022-09-06T10:16:02Z</time>
      </trkpt>
      <trkpt lat="43.09979" lon="0.27668">
        <ele>333.6</ele>
        <time>2022-09-06T10:16:05Z</time>
      </trkpt>
      <trkpt lat="43.09982" lon="0.27666">
        <ele>333</ele>
        <time>2022-09-06T10:16:06Z</time>
      </trkpt>
      <trkpt lat="43.09985" lon="0.27663">
        <ele>332.4</ele>
        <time>2022-09-06T10:16:07Z</time>
      </trkpt>
      <trkpt lat="43.09985" lon="0.27661">
        <ele>331.8</ele>
        <time>2022-09-06T10:16:08Z</time>
      </trkpt>
      <trkpt lat="43.09983" lon="0.27656">
        <ele>331.2</ele>
        <time>2022-09-06T10:16:09Z</time>
      </trkpt>
      <trkpt lat="43.09978" lon="0.27649">
        <ele>330</ele>
        <time>2022-09-06T10:16:12Z</time>
      </trkpt>
      <trkpt lat="43.09977" lon="0.27648">
        <ele>329.4</ele>
        <time>2022-09-06T10:16:13Z</time>
      </trkpt>
      <trkpt lat="43.09972" lon="0.27649">
        <ele>329</ele>
        <time>2022-09-06T10:16:23Z</time>
      </trkpt>
      <trkpt lat="43.09969" lon="0.27652">
        <ele>328.8</ele>
        <time>2022-09-06T10:16:24Z</time>
      </trkpt>
      <trkpt lat="43.09949" lon="0.2767">
        <ele>327.6</ele>
        <time>2022-09-06T10:16:29Z</time>
      </trkpt>
      <trkpt lat="43.09939" lon="0.27677">
        <ele>327</ele>
        <time>2022-09-06T10:16:31Z</time>
      </trkpt>
      <trkpt lat="43.0993" lon="0.27682">
        <ele>326.2</ele>
        <time>2022-09-06T10:16:33Z</time>
      </trkpt>
      <trkpt lat="43.09926" lon="0.27683">
        <ele>325.6</ele>
        <time>2022-09-06T10:16:34Z</time>
      </trkpt>
      <trkpt lat="43.09923" lon="0.27683">
        <ele>324.8</ele>
        <time>2022-09-06T10:16:35Z</time>
      </trkpt>
      <trkpt lat="43.0992" lon="0.2768">
        <ele>324.2</ele>
        <time>2022-09-06T10:16:36Z</time>
      </trkpt>
      <trkpt lat="43.0992" lon="0.27679">
        <ele>323.6</ele>
        <time>2022-09-06T10:16:37Z</time>
      </trkpt>
      <trkpt lat="43.09921" lon="0.27668">
        <ele>322.4</ele>
        <time>2022-09-06T10:16:39Z</time>
      </trkpt>
      <trkpt lat="43.09927" lon="0.27662">
        <ele>321.2</ele>
        <time>2022-09-06T10:16:41Z</time>
      </trkpt>
      <trkpt lat="43.09931" lon="0.27656">
        <ele>320.8</ele>
        <time>2022-09-06T10:16:42Z</time>
      </trkpt>
      <trkpt lat="43.09935" lon="0.2765">
        <ele>320.2</ele>
        <time>2022-09-06T10:16:43Z</time>
      </trkpt>
      <trkpt lat="43.09939" lon="0.27643">
        <ele>320</ele>
        <time>2022-09-06T10:16:44Z</time>
      </trkpt>
      <trkpt lat="43.09957" lon="0.27622">
        <ele>318.4</ele>
        <time>2022-09-06T10:16:47Z</time>
      </trkpt>
      <trkpt lat="43.0997" lon="0.27609">
        <ele>316.8</ele>
        <time>2022-09-06T10:16:49Z</time>
      </trkpt>
      <trkpt lat="43.09987" lon="0.27594">
        <ele>314.8</ele>
        <time>2022-09-06T10:16:51Z</time>
      </trkpt>
      <trkpt lat="43.09997" lon="0.27585">
        <ele>314</ele>
        <time>2022-09-06T10:16:52Z</time>
      </trkpt>
      <trkpt lat="43.10006" lon="0.27577">
        <ele>313.2</ele>
        <time>2022-09-06T10:16:53Z</time>
      </trkpt>
      <trkpt lat="43.10025" lon="0.27561">
        <ele>311.2</ele>
        <time>2022-09-06T10:16:55Z</time>
      </trkpt>
      <trkpt lat="43.10033" lon="0.27555">
        <ele>310</ele>
        <time>2022-09-06T10:16:56Z</time>
      </trkpt>
      <trkpt lat="43.10041" lon="0.27548">
        <ele>309</ele>
        <time>2022-09-06T10:16:57Z</time>
      </trkpt>
      <trkpt lat="43.10049" lon="0.27541">
        <ele>308</ele>
        <time>2022-09-06T10:16:58Z</time>
      </trkpt>
      <trkpt lat="43.10057" lon="0.27535">
        <ele>307</ele>
        <time>2022-09-06T10:16:59Z</time>
      </trkpt>
      <trkpt lat="43.10072" lon="0.27523">
        <ele>305.4</ele>
        <time>2022-09-06T10:17:01Z</time>
      </trkpt>
      <trkpt lat="43.1008" lon="0.27517">
        <ele>304.8</ele>
        <time>2022-09-06T10:17:02Z</time>
      </trkpt>
      <trkpt lat="43.10088" lon="0.27512">
        <ele>304</ele>
        <time>2022-09-06T10:17:03Z</time>
      </trkpt>
      <trkpt lat="43.10096" lon="0.27508">
        <ele>301.8</ele>
        <time>2022-09-06T10:17:04Z</time>
      </trkpt>
      <trkpt lat="43.10112" lon="0.27501">
        <ele>300</ele>
        <time>2022-09-06T10:17:06Z</time>
      </trkpt>
      <trkpt lat="43.10119" lon="0.27497">
        <ele>299.2</ele>
        <time>2022-09-06T10:17:07Z</time>
      </trkpt>
      <trkpt lat="43.10126" lon="0.27495">
        <ele>298</ele>
        <time>2022-09-06T10:17:08Z</time>
      </trkpt>
      <trkpt lat="43.10142" lon="0.27483">
        <ele>296.2</ele>
        <time>2022-09-06T10:17:10Z</time>
      </trkpt>
      <trkpt lat="43.1015" lon="0.27473">
        <ele>295.6</ele>
        <time>2022-09-06T10:17:11Z</time>
      </trkpt>
      <trkpt lat="43.10158" lon="0.27465">
        <ele>294.8</ele>
        <time>2022-09-06T10:17:12Z</time>
      </trkpt>
      <trkpt lat="43.10172" lon="0.27449">
        <ele>292.8</ele>
        <time>2022-09-06T10:17:14Z</time>
      </trkpt>
      <trkpt lat="43.10179" lon="0.27442">
        <ele>291.6</ele>
        <time>2022-09-06T10:17:15Z</time>
      </trkpt>
      <trkpt lat="43.10185" lon="0.27436">
        <ele>290.8</ele>
        <time>2022-09-06T10:17:16Z</time>
      </trkpt>
      <trkpt lat="43.1019" lon="0.2743">
        <ele>290</ele>
        <time>2022-09-06T10:17:17Z</time>
      </trkpt>
      <trkpt lat="43.10199" lon="0.2742">
        <ele>288.4</ele>
        <time>2022-09-06T10:17:19Z</time>
      </trkpt>
      <trkpt lat="43.10205" lon="0.27414">
        <ele>287.6</ele>
        <time>2022-09-06T10:17:20Z</time>
      </trkpt>
      <trkpt lat="43.10211" lon="0.27408">
        <ele>287</ele>
        <time>2022-09-06T10:17:21Z</time>
      </trkpt>
      <trkpt lat="43.10225" lon="0.27395">
        <ele>285.6</ele>
        <time>2022-09-06T10:17:23Z</time>
      </trkpt>
      <trkpt lat="43.10237" lon="0.27381">
        <ele>284.4</ele>
        <time>2022-09-06T10:17:25Z</time>
      </trkpt>
      <trkpt lat="43.10241" lon="0.27375">
        <ele>283.8</ele>
        <time>2022-09-06T10:17:26Z</time>
      </trkpt>
      <trkpt lat="43.10244" lon="0.27368">
        <ele>283</ele>
        <time>2022-09-06T10:17:27Z</time>
      </trkpt>
      <trkpt lat="43.10246" lon="0.27362">
        <ele>282.2</ele>
        <time>2022-09-06T10:17:28Z</time>
      </trkpt>
      <trkpt lat="43.10246" lon="0.27355">
        <ele>281.8</ele>
        <time>2022-09-06T10:17:29Z</time>
      </trkpt>
      <trkpt lat="43.10244" lon="0.27342">
        <ele>281.4</ele>
        <time>2022-09-06T10:17:31Z</time>
      </trkpt>
      <trkpt lat="43.10239" lon="0.27331">
        <ele>281.6</ele>
        <time>2022-09-06T10:17:33Z</time>
      </trkpt>
      <trkpt lat="43.10236" lon="0.27323">
        <ele>282</ele>
        <time>2022-09-06T10:17:35Z</time>
      </trkpt>
      <trkpt lat="43.10232" lon="0.27309">
        <ele>282.6</ele>
        <time>2022-09-06T10:17:40Z</time>
      </trkpt>
      <trkpt lat="43.10233" lon="0.27302">
        <ele>282.8</ele>
        <time>2022-09-06T10:17:43Z</time>
      </trkpt>
      <trkpt lat="43.10233" lon="0.27295">
        <ele>283</ele>
        <time>2022-09-06T10:17:46Z</time>
      </trkpt>
      <trkpt lat="43.10232" lon="0.27293">
        <ele>282.8</ele>
        <time>2022-09-06T10:17:48Z</time>
      </trkpt>
      <trkpt lat="43.1023" lon="0.27293">
        <ele>282.8</ele>
        <time>2022-09-06T10:17:50Z</time>
      </trkpt>
      <trkpt lat="43.10235" lon="0.27287">
        <ele>283</ele>
        <time>2022-09-06T10:18:46Z</time>
      </trkpt>
      <trkpt lat="43.10236" lon="0.27284">
        <ele>283</ele>
        <time>2022-09-06T10:18:47Z</time>
      </trkpt>
      <trkpt lat="43.10246" lon="0.27266">
        <ele>283.2</ele>
        <time>2022-09-06T10:18:54Z</time>
      </trkpt>
      <trkpt lat="43.10255" lon="0.27246">
        <ele>282.8</ele>
        <time>2022-09-06T10:18:59Z</time>
      </trkpt>
      <trkpt lat="43.10266" lon="0.27221">
        <ele>282.2</ele>
        <time>2022-09-06T10:19:04Z</time>
      </trkpt>
      <trkpt lat="43.10271" lon="0.27213">
        <ele>282.2</ele>
        <time>2022-09-06T10:19:06Z</time>
      </trkpt>
      <trkpt lat="43.10295" lon="0.27179">
        <ele>282.4</ele>
        <time>2022-09-06T10:19:15Z</time>
      </trkpt>
      <trkpt lat="43.10323" lon="0.27155">
        <ele>282.6</ele>
        <time>2022-09-06T10:19:24Z</time>
      </trkpt>
      <trkpt lat="43.10342" lon="0.27138">
        <ele>283.2</ele>
        <time>2022-09-06T10:19:31Z</time>
      </trkpt>
      <trkpt lat="43.10348" lon="0.27125">
        <ele>283.8</ele>
        <time>2022-09-06T10:19:35Z</time>
      </trkpt>
      <trkpt lat="43.10348" lon="0.27121">
        <ele>284</ele>
        <time>2022-09-06T10:19:36Z</time>
      </trkpt>
      <trkpt lat="43.10343" lon="0.27095">
        <ele>285</ele>
        <time>2022-09-06T10:19:43Z</time>
      </trkpt>
      <trkpt lat="43.10342" lon="0.27091">
        <ele>285.2</ele>
        <time>2022-09-06T10:19:44Z</time>
      </trkpt>
      <trkpt lat="43.10338" lon="0.27068">
        <ele>286.2</ele>
        <time>2022-09-06T10:19:51Z</time>
      </trkpt>
      <trkpt lat="43.10337" lon="0.27065">
        <ele>286.4</ele>
        <time>2022-09-06T10:19:52Z</time>
      </trkpt>
      <trkpt lat="43.10335" lon="0.27038">
        <ele>287.2</ele>
        <time>2022-09-06T10:20:01Z</time>
      </trkpt>
      <trkpt lat="43.10335" lon="0.27017">
        <ele>287.6</ele>
        <time>2022-09-06T10:20:08Z</time>
      </trkpt>
      <trkpt lat="43.10335" lon="0.27009">
        <ele>287.8</ele>
        <time>2022-09-06T10:20:11Z</time>
      </trkpt>
      <trkpt lat="43.10332" lon="0.26994">
        <ele>288.6</ele>
        <time>2022-09-06T10:20:17Z</time>
      </trkpt>
      <trkpt lat="43.10329" lon="0.26981">
        <ele>289</ele>
        <time>2022-09-06T10:20:22Z</time>
      </trkpt>
      <trkpt lat="43.10329" lon="0.26979">
        <ele>289</ele>
        <time>2022-09-06T10:20:23Z</time>
      </trkpt>
      <trkpt lat="43.10333" lon="0.26975">
        <ele>289.4</ele>
        <time>2022-09-06T10:20:26Z</time>
      </trkpt>
      <trkpt lat="43.10338" lon="0.26972">
        <ele>289.8</ele>
        <time>2022-09-06T10:20:29Z</time>
      </trkpt>
      <trkpt lat="43.10343" lon="0.26969">
        <ele>290</ele>
        <time>2022-09-06T10:20:32Z</time>
      </trkpt>
      <trkpt lat="43.10359" lon="0.26963">
        <ele>289.8</ele>
        <time>2022-09-06T10:20:39Z</time>
      </trkpt>
      <trkpt lat="43.10381" lon="0.26954">
        <ele>289.6</ele>
        <time>2022-09-06T10:20:45Z</time>
      </trkpt>
      <trkpt lat="43.10392" lon="0.26949">
        <ele>288.2</ele>
        <time>2022-09-06T10:20:48Z</time>
      </trkpt>
      <trkpt lat="43.10397" lon="0.26947">
        <ele>287.4</ele>
        <time>2022-09-06T10:20:50Z</time>
      </trkpt>
      <trkpt lat="43.10399" lon="0.26946">
        <ele>287.2</ele>
        <time>2022-09-06T10:20:51Z</time>
      </trkpt>
      <trkpt lat="43.10403" lon="0.26945">
        <ele>286.4</ele>
        <time>2022-09-06T10:21:26Z</time>
      </trkpt>
      <trkpt lat="43.10416" lon="0.26936">
        <ele>286</ele>
        <time>2022-09-06T10:21:31Z</time>
      </trkpt>
      <trkpt lat="43.1044" lon="0.26924">
        <ele>285</ele>
        <time>2022-09-06T10:21:36Z</time>
      </trkpt>
      <trkpt lat="43.10446" lon="0.26922">
        <ele>285</ele>
        <time>2022-09-06T10:21:37Z</time>
      </trkpt>
      <trkpt lat="43.10476" lon="0.2691">
        <ele>283.8</ele>
        <time>2022-09-06T10:21:41Z</time>
      </trkpt>
      <trkpt lat="43.105" lon="0.26899">
        <ele>282.6</ele>
        <time>2022-09-06T10:21:44Z</time>
      </trkpt>
      <trkpt lat="43.10518" lon="0.26888">
        <ele>281.8</ele>
        <time>2022-09-06T10:21:46Z</time>
      </trkpt>
      <trkpt lat="43.10527" lon="0.26882">
        <ele>281.4</ele>
        <time>2022-09-06T10:21:47Z</time>
      </trkpt>
      <trkpt lat="43.10544" lon="0.26866">
        <ele>280.2</ele>
        <time>2022-09-06T10:21:49Z</time>
      </trkpt>
      <trkpt lat="43.10551" lon="0.26855">
        <ele>279.4</ele>
        <time>2022-09-06T10:21:50Z</time>
      </trkpt>
      <trkpt lat="43.10563" lon="0.26832">
        <ele>278.6</ele>
        <time>2022-09-06T10:21:52Z</time>
      </trkpt>
      <trkpt lat="43.10566" lon="0.26821">
        <ele>278.2</ele>
        <time>2022-09-06T10:21:53Z</time>
      </trkpt>
      <trkpt lat="43.10569" lon="0.26809">
        <ele>278</ele>
        <time>2022-09-06T10:21:54Z</time>
      </trkpt>
      <trkpt lat="43.10573" lon="0.26783">
        <ele>277.2</ele>
        <time>2022-09-06T10:21:56Z</time>
      </trkpt>
      <trkpt lat="43.10576" lon="0.26757">
        <ele>276.4</ele>
        <time>2022-09-06T10:21:58Z</time>
      </trkpt>
      <trkpt lat="43.10578" lon="0.26744">
        <ele>276</ele>
        <time>2022-09-06T10:21:59Z</time>
      </trkpt>
      <trkpt lat="43.10589" lon="0.26689">
        <ele>276.2</ele>
        <time>2022-09-06T10:22:04Z</time>
      </trkpt>
      <trkpt lat="43.10598" lon="0.26644">
        <ele>276</ele>
        <time>2022-09-06T10:22:09Z</time>
      </trkpt>
      <trkpt lat="43.10607" lon="0.26603">
        <ele>275.8</ele>
        <time>2022-09-06T10:22:15Z</time>
      </trkpt>
      <trkpt lat="43.1062" lon="0.26544">
        <ele>276</ele>
        <time>2022-09-06T10:22:24Z</time>
      </trkpt>
      <trkpt lat="43.1063" lon="0.26504">
        <ele>276.8</ele>
        <time>2022-09-06T10:22:32Z</time>
      </trkpt>
      <trkpt lat="43.10632" lon="0.26495">
        <ele>277</ele>
        <time>2022-09-06T10:22:34Z</time>
      </trkpt>
      <trkpt lat="43.10643" lon="0.26476">
        <ele>277.6</ele>
        <time>2022-09-06T10:22:40Z</time>
      </trkpt>
      <trkpt lat="43.10648" lon="0.26471">
        <ele>278.2</ele>
        <time>2022-09-06T10:22:42Z</time>
      </trkpt>
      <trkpt lat="43.10658" lon="0.26464">
        <ele>279.2</ele>
        <time>2022-09-06T10:22:46Z</time>
      </trkpt>
      <trkpt lat="43.1066" lon="0.26462">
        <ele>279.4</ele>
        <time>2022-09-06T10:22:47Z</time>
      </trkpt>
      <trkpt lat="43.10676" lon="0.26454">
        <ele>280.4</ele>
        <time>2022-09-06T10:22:55Z</time>
      </trkpt>
      <trkpt lat="43.10678" lon="0.26453">
        <ele>280.6</ele>
        <time>2022-09-06T10:22:56Z</time>
      </trkpt>
      <trkpt lat="43.10689" lon="0.26446">
        <ele>281.4</ele>
        <time>2022-09-06T10:23:02Z</time>
      </trkpt>
      <trkpt lat="43.10691" lon="0.26445">
        <ele>281.6</ele>
        <time>2022-09-06T10:23:03Z</time>
      </trkpt>
      <trkpt lat="43.10703" lon="0.26439">
        <ele>282.6</ele>
        <time>2022-09-06T10:23:09Z</time>
      </trkpt>
      <trkpt lat="43.10705" lon="0.26438">
        <ele>282.8</ele>
        <time>2022-09-06T10:23:10Z</time>
      </trkpt>
      <trkpt lat="43.10723" lon="0.26427">
        <ele>283.8</ele>
        <time>2022-09-06T10:23:19Z</time>
      </trkpt>
      <trkpt lat="43.10726" lon="0.26426">
        <ele>283.8</ele>
        <time>2022-09-06T10:23:20Z</time>
      </trkpt>
      <trkpt lat="43.10737" lon="0.26421">
        <ele>284.4</ele>
        <time>2022-09-06T10:23:25Z</time>
      </trkpt>
      <trkpt lat="43.10751" lon="0.26415">
        <ele>285</ele>
        <time>2022-09-06T10:23:31Z</time>
      </trkpt>
      <trkpt lat="43.10756" lon="0.26413">
        <ele>285</ele>
        <time>2022-09-06T10:23:33Z</time>
      </trkpt>
      <trkpt lat="43.1078" lon="0.26409">
        <ele>285.6</ele>
        <time>2022-09-06T10:23:42Z</time>
      </trkpt>
      <trkpt lat="43.10799" lon="0.26408">
        <ele>286</ele>
        <time>2022-09-06T10:23:49Z</time>
      </trkpt>
      <trkpt lat="43.10819" lon="0.26407">
        <ele>286.6</ele>
        <time>2022-09-06T10:23:56Z</time>
      </trkpt>
      <trkpt lat="43.10833" lon="0.26406">
        <ele>287</ele>
        <time>2022-09-06T10:24:01Z</time>
      </trkpt>
      <trkpt lat="43.10839" lon="0.26406">
        <ele>287.2</ele>
        <time>2022-09-06T10:24:03Z</time>
      </trkpt>
      <trkpt lat="43.10856" lon="0.26404">
        <ele>287.6</ele>
        <time>2022-09-06T10:24:10Z</time>
      </trkpt>
      <trkpt lat="43.10871" lon="0.26401">
        <ele>288.2</ele>
        <time>2022-09-06T10:24:17Z</time>
      </trkpt>
      <trkpt lat="43.10872" lon="0.26401">
        <ele>288.2</ele>
        <time>2022-09-06T10:24:18Z</time>
      </trkpt>
      <trkpt lat="43.1088" lon="0.26403">
        <ele>288.6</ele>
        <time>2022-09-06T10:24:32Z</time>
      </trkpt>
      <trkpt lat="43.10883" lon="0.26403">
        <ele>288.6</ele>
        <time>2022-09-06T10:24:33Z</time>
      </trkpt>
      <trkpt lat="43.10885" lon="0.26402">
        <ele>288.8</ele>
        <time>2022-09-06T10:24:34Z</time>
      </trkpt>
      <trkpt lat="43.10896" lon="0.26396">
        <ele>288.6</ele>
        <time>2022-09-06T10:24:38Z</time>
      </trkpt>
      <trkpt lat="43.10921" lon="0.26381">
        <ele>288.2</ele>
        <time>2022-09-06T10:24:45Z</time>
      </trkpt>
      <trkpt lat="43.10952" lon="0.26364">
        <ele>287.4</ele>
        <time>2022-09-06T10:24:52Z</time>
      </trkpt>
      <trkpt lat="43.10968" lon="0.26357">
        <ele>287</ele>
        <time>2022-09-06T10:24:55Z</time>
      </trkpt>
      <trkpt lat="43.10989" lon="0.26346">
        <ele>286.4</ele>
        <time>2022-09-06T10:24:59Z</time>
      </trkpt>
      <trkpt lat="43.10993" lon="0.26343">
        <ele>286.4</ele>
        <time>2022-09-06T10:25:00Z</time>
      </trkpt>
      <trkpt lat="43.10999" lon="0.2633">
        <ele>286</ele>
        <time>2022-09-06T10:25:02Z</time>
      </trkpt>
      <trkpt lat="43.11002" lon="0.26303">
        <ele>284.6</ele>
        <time>2022-09-06T10:25:05Z</time>
      </trkpt>
      <trkpt lat="43.11002" lon="0.26292">
        <ele>284.2</ele>
        <time>2022-09-06T10:25:06Z</time>
      </trkpt>
      <trkpt lat="43.11001" lon="0.26268">
        <ele>283.4</ele>
        <time>2022-09-06T10:25:08Z</time>
      </trkpt>
      <trkpt lat="43.11" lon="0.26244">
        <ele>282.2</ele>
        <time>2022-09-06T10:25:10Z</time>
      </trkpt>
      <trkpt lat="43.10999" lon="0.2622">
        <ele>281.2</ele>
        <time>2022-09-06T10:25:12Z</time>
      </trkpt>
      <trkpt lat="43.10998" lon="0.26208">
        <ele>280.8</ele>
        <time>2022-09-06T10:25:13Z</time>
      </trkpt>
      <trkpt lat="43.10995" lon="0.26181">
        <ele>279.6</ele>
        <time>2022-09-06T10:25:15Z</time>
      </trkpt>
      <trkpt lat="43.10993" lon="0.26154">
        <ele>278.2</ele>
        <time>2022-09-06T10:25:17Z</time>
      </trkpt>
      <trkpt lat="43.10992" lon="0.2614">
        <ele>277.6</ele>
        <time>2022-09-06T10:25:18Z</time>
      </trkpt>
      <trkpt lat="43.1099" lon="0.26125">
        <ele>276.8</ele>
        <time>2022-09-06T10:25:19Z</time>
      </trkpt>
      <trkpt lat="43.10988" lon="0.26095">
        <ele>275.6</ele>
        <time>2022-09-06T10:25:21Z</time>
      </trkpt>
      <trkpt lat="43.10985" lon="0.26064">
        <ele>274.4</ele>
        <time>2022-09-06T10:25:23Z</time>
      </trkpt>
      <trkpt lat="43.10984" lon="0.26049">
        <ele>273.6</ele>
        <time>2022-09-06T10:25:24Z</time>
      </trkpt>
      <trkpt lat="43.10983" lon="0.26034">
        <ele>272.6</ele>
        <time>2022-09-06T10:25:25Z</time>
      </trkpt>
      <trkpt lat="43.10979" lon="0.25979">
        <ele>271.2</ele>
        <time>2022-09-06T10:25:29Z</time>
      </trkpt>
      <trkpt lat="43.10978" lon="0.25965">
        <ele>271.2</ele>
        <time>2022-09-06T10:25:30Z</time>
      </trkpt>
      <trkpt lat="43.10972" lon="0.25897">
        <ele>271</ele>
        <time>2022-09-06T10:25:36Z</time>
      </trkpt>
      <trkpt lat="43.10967" lon="0.25854">
        <ele>270.6</ele>
        <time>2022-09-06T10:25:41Z</time>
      </trkpt>
      <trkpt lat="43.10964" lon="0.25809">
        <ele>270.8</ele>
        <time>2022-09-06T10:25:48Z</time>
      </trkpt>
      <trkpt lat="43.10964" lon="0.25769">
        <ele>270.8</ele>
        <time>2022-09-06T10:25:56Z</time>
      </trkpt>
      <trkpt lat="43.10964" lon="0.25744">
        <ele>270.8</ele>
        <time>2022-09-06T10:26:02Z</time>
      </trkpt>
      <trkpt lat="43.10964" lon="0.25731">
        <ele>270.8</ele>
        <time>2022-09-06T10:26:05Z</time>
      </trkpt>
      <trkpt lat="43.10966" lon="0.25695">
        <ele>271.2</ele>
        <time>2022-09-06T10:26:13Z</time>
      </trkpt>
      <trkpt lat="43.10967" lon="0.2566">
        <ele>271.4</ele>
        <time>2022-09-06T10:26:22Z</time>
      </trkpt>
      <trkpt lat="43.10971" lon="0.25644">
        <ele>271.6</ele>
        <time>2022-09-06T10:26:29Z</time>
      </trkpt>
      <trkpt lat="43.10979" lon="0.25643">
        <ele>271.2</ele>
        <time>2022-09-06T10:26:34Z</time>
      </trkpt>
      <trkpt lat="43.10993" lon="0.25644">
        <ele>271</ele>
        <time>2022-09-06T10:26:41Z</time>
      </trkpt>
      <trkpt lat="43.11009" lon="0.25646">
        <ele>270.6</ele>
        <time>2022-09-06T10:26:49Z</time>
      </trkpt>
      <trkpt lat="43.11002" lon="0.25644">
        <ele>271.4</ele>
        <time>2022-09-06T10:32:05Z</time>
      </trkpt>
      <trkpt lat="43.11" lon="0.25644">
        <ele>271.4</ele>
        <time>2022-09-06T10:32:06Z</time>
      </trkpt>
      <trkpt lat="43.10994" lon="0.25644">
        <ele>271.6</ele>
        <time>2022-09-06T10:32:09Z</time>
      </trkpt>
      <trkpt lat="43.10987" lon="0.25645">
        <ele>271.6</ele>
        <time>2022-09-06T10:32:14Z</time>
      </trkpt>
      <trkpt lat="43.10981" lon="0.25643">
        <ele>272</ele>
        <time>2022-09-06T10:32:41Z</time>
      </trkpt>
      <trkpt lat="43.10979" lon="0.25643">
        <ele>272</ele>
        <time>2022-09-06T10:32:42Z</time>
      </trkpt>
      <trkpt lat="43.10977" lon="0.25642">
        <ele>272.2</ele>
        <time>2022-09-06T10:32:44Z</time>
      </trkpt>
      <trkpt lat="43.1097" lon="0.25645">
        <ele>272.4</ele>
        <time>2022-09-06T10:32:49Z</time>
      </trkpt>
      <trkpt lat="43.10965" lon="0.25657">
        <ele>272.6</ele>
        <time>2022-09-06T10:32:55Z</time>
      </trkpt>
      <trkpt lat="43.10964" lon="0.25682">
        <ele>272.4</ele>
        <time>2022-09-06T10:33:03Z</time>
      </trkpt>
      <trkpt lat="43.10964" lon="0.25711">
        <ele>272</ele>
        <time>2022-09-06T10:33:11Z</time>
      </trkpt>
      <trkpt lat="43.10963" lon="0.25744">
        <ele>272.2</ele>
        <time>2022-09-06T10:33:19Z</time>
      </trkpt>
      <trkpt lat="43.10965" lon="0.25767">
        <ele>272</ele>
        <time>2022-09-06T10:33:26Z</time>
      </trkpt>
      <trkpt lat="43.10968" lon="0.25777">
        <ele>271.4</ele>
        <time>2022-09-06T10:33:31Z</time>
      </trkpt>
      <trkpt lat="43.10964" lon="0.25784">
        <ele>272</ele>
        <time>2022-09-06T10:34:49Z</time>
      </trkpt>
      <trkpt lat="43.10962" lon="0.2579">
        <ele>272</ele>
        <time>2022-09-06T10:34:51Z</time>
      </trkpt>
      <trkpt lat="43.10961" lon="0.25807">
        <ele>272</ele>
        <time>2022-09-06T10:34:56Z</time>
      </trkpt>
      <trkpt lat="43.10963" lon="0.25842">
        <ele>272.2</ele>
        <time>2022-09-06T10:35:06Z</time>
      </trkpt>
      <trkpt lat="43.10966" lon="0.25876">
        <ele>271.6</ele>
        <time>2022-09-06T10:35:14Z</time>
      </trkpt>
      <trkpt lat="43.10967" lon="0.25886">
        <ele>271.4</ele>
        <time>2022-09-06T10:35:16Z</time>
      </trkpt>
      <trkpt lat="43.10969" lon="0.25904">
        <ele>271.2</ele>
        <time>2022-09-06T10:35:19Z</time>
      </trkpt>
      <trkpt lat="43.1097" lon="0.2591">
        <ele>271</ele>
        <time>2022-09-06T10:35:20Z</time>
      </trkpt>
      <trkpt lat="43.10975" lon="0.25957">
        <ele>270.8</ele>
        <time>2022-09-06T10:35:28Z</time>
      </trkpt>
      <trkpt lat="43.10978" lon="0.25994">
        <ele>271</ele>
        <time>2022-09-06T10:35:35Z</time>
      </trkpt>
      <trkpt lat="43.10981" lon="0.26034">
        <ele>271.8</ele>
        <time>2022-09-06T10:35:43Z</time>
      </trkpt>
      <trkpt lat="43.10983" lon="0.26071">
        <ele>272</ele>
        <time>2022-09-06T10:35:51Z</time>
      </trkpt>
      <trkpt lat="43.10984" lon="0.26079">
        <ele>272.2</ele>
        <time>2022-09-06T10:35:53Z</time>
      </trkpt>
      <trkpt lat="43.10986" lon="0.26104">
        <ele>273.2</ele>
        <time>2022-09-06T10:36:00Z</time>
      </trkpt>
      <trkpt lat="43.10988" lon="0.26125">
        <ele>274.4</ele>
        <time>2022-09-06T10:36:07Z</time>
      </trkpt>
      <trkpt lat="43.10989" lon="0.2613">
        <ele>274.8</ele>
        <time>2022-09-06T10:36:09Z</time>
      </trkpt>
      <trkpt lat="43.1099" lon="0.26138">
        <ele>275.4</ele>
        <time>2022-09-06T10:36:12Z</time>
      </trkpt>
      <trkpt lat="43.1099" lon="0.26152">
        <ele>276.2</ele>
        <time>2022-09-06T10:36:17Z</time>
      </trkpt>
      <trkpt lat="43.1099" lon="0.26155">
        <ele>276.4</ele>
        <time>2022-09-06T10:36:18Z</time>
      </trkpt>
      <trkpt lat="43.10992" lon="0.26173">
        <ele>277.4</ele>
        <time>2022-09-06T10:36:25Z</time>
      </trkpt>
      <trkpt lat="43.10992" lon="0.26175">
        <ele>277.8</ele>
        <time>2022-09-06T10:36:26Z</time>
      </trkpt>
      <trkpt lat="43.10994" lon="0.26191">
        <ele>278.6</ele>
        <time>2022-09-06T10:36:32Z</time>
      </trkpt>
      <trkpt lat="43.10994" lon="0.26196">
        <ele>278.8</ele>
        <time>2022-09-06T10:36:34Z</time>
      </trkpt>
      <trkpt lat="43.10996" lon="0.26214">
        <ele>279.8</ele>
        <time>2022-09-06T10:36:41Z</time>
      </trkpt>
      <trkpt lat="43.10996" lon="0.26216">
        <ele>280</ele>
        <time>2022-09-06T10:36:42Z</time>
      </trkpt>
      <trkpt lat="43.10997" lon="0.2623">
        <ele>281</ele>
        <time>2022-09-06T10:36:47Z</time>
      </trkpt>
      <trkpt lat="43.10998" lon="0.26242">
        <ele>281.4</ele>
        <time>2022-09-06T10:36:51Z</time>
      </trkpt>
      <trkpt lat="43.10999" lon="0.26256">
        <ele>282</ele>
        <time>2022-09-06T10:36:56Z</time>
      </trkpt>
      <trkpt lat="43.10999" lon="0.26268">
        <ele>282.4</ele>
        <time>2022-09-06T10:37:00Z</time>
      </trkpt>
      <trkpt lat="43.10999" lon="0.26282">
        <ele>283.2</ele>
        <time>2022-09-06T10:37:05Z</time>
      </trkpt>
      <trkpt lat="43.10999" lon="0.26292">
        <ele>283.8</ele>
        <time>2022-09-06T10:37:09Z</time>
      </trkpt>
      <trkpt lat="43.10999" lon="0.26304">
        <ele>284.2</ele>
        <time>2022-09-06T10:37:13Z</time>
      </trkpt>
      <trkpt lat="43.10999" lon="0.26316">
        <ele>284.8</ele>
        <time>2022-09-06T10:37:18Z</time>
      </trkpt>
      <trkpt lat="43.10999" lon="0.26323">
        <ele>285.2</ele>
        <time>2022-09-06T10:37:21Z</time>
      </trkpt>
      <trkpt lat="43.11" lon="0.26329">
        <ele>286</ele>
        <time>2022-09-06T10:37:24Z</time>
      </trkpt>
      <trkpt lat="43.11002" lon="0.26333">
        <ele>286.2</ele>
        <time>2022-09-06T10:37:26Z</time>
      </trkpt>
      <trkpt lat="43.11009" lon="0.26338">
        <ele>287</ele>
        <time>2022-09-06T10:37:30Z</time>
      </trkpt>
      <trkpt lat="43.11018" lon="0.26335">
        <ele>287</ele>
        <time>2022-09-06T10:37:35Z</time>
      </trkpt>
      <trkpt lat="43.11038" lon="0.26326">
        <ele>286.8</ele>
        <time>2022-09-06T10:37:42Z</time>
      </trkpt>
      <trkpt lat="43.11041" lon="0.26324">
        <ele>286.8</ele>
        <time>2022-09-06T10:37:43Z</time>
      </trkpt>
      <trkpt lat="43.11062" lon="0.26314">
        <ele>286.6</ele>
        <time>2022-09-06T10:37:49Z</time>
      </trkpt>
      <trkpt lat="43.11084" lon="0.26299">
        <ele>287</ele>
        <time>2022-09-06T10:37:56Z</time>
      </trkpt>
      <trkpt lat="43.11092" lon="0.26295">
        <ele>287.4</ele>
        <time>2022-09-06T10:37:58Z</time>
      </trkpt>
      <trkpt lat="43.11117" lon="0.26278">
        <ele>287.6</ele>
        <time>2022-09-06T10:38:05Z</time>
      </trkpt>
      <trkpt lat="43.11144" lon="0.26256">
        <ele>287.4</ele>
        <time>2022-09-06T10:38:12Z</time>
      </trkpt>
      <trkpt lat="43.11171" lon="0.26235">
        <ele>286.4</ele>
        <time>2022-09-06T10:38:18Z</time>
      </trkpt>
      <trkpt lat="43.11175" lon="0.26232">
        <ele>286.2</ele>
        <time>2022-09-06T10:38:19Z</time>
      </trkpt>
      <trkpt lat="43.1122" lon="0.26197">
        <ele>285.8</ele>
        <time>2022-09-06T10:38:28Z</time>
      </trkpt>
      <trkpt lat="43.1124" lon="0.26181">
        <ele>285.8</ele>
        <time>2022-09-06T10:38:32Z</time>
      </trkpt>
      <trkpt lat="43.11256" lon="0.26169">
        <ele>285.2</ele>
        <time>2022-09-06T10:38:35Z</time>
      </trkpt>
      <trkpt lat="43.11293" lon="0.26151">
        <ele>284</ele>
        <time>2022-09-06T10:38:41Z</time>
      </trkpt>
      <trkpt lat="43.11307" lon="0.26147">
        <ele>283</ele>
        <time>2022-09-06T10:38:43Z</time>
      </trkpt>
      <trkpt lat="43.11337" lon="0.26138">
        <ele>282</ele>
        <time>2022-09-06T10:38:47Z</time>
      </trkpt>
      <trkpt lat="43.11354" lon="0.26133">
        <ele>281.2</ele>
        <time>2022-09-06T10:38:49Z</time>
      </trkpt>
      <trkpt lat="43.11362" lon="0.26131">
        <ele>280.8</ele>
        <time>2022-09-06T10:38:50Z</time>
      </trkpt>
      <trkpt lat="43.11388" lon="0.26124">
        <ele>279.6</ele>
        <time>2022-09-06T10:38:53Z</time>
      </trkpt>
      <trkpt lat="43.11415" lon="0.26115">
        <ele>278.2</ele>
        <time>2022-09-06T10:38:56Z</time>
      </trkpt>
      <trkpt lat="43.11424" lon="0.26112">
        <ele>277.8</ele>
        <time>2022-09-06T10:38:57Z</time>
      </trkpt>
      <trkpt lat="43.11442" lon="0.26106">
        <ele>277.2</ele>
        <time>2022-09-06T10:38:59Z</time>
      </trkpt>
      <trkpt lat="43.11486" lon="0.26085">
        <ele>276.2</ele>
        <time>2022-09-06T10:39:04Z</time>
      </trkpt>
      <trkpt lat="43.11503" lon="0.26074">
        <ele>274.4</ele>
        <time>2022-09-06T10:39:06Z</time>
      </trkpt>
      <trkpt lat="43.11542" lon="0.26048">
        <ele>273.4</ele>
        <time>2022-09-06T10:39:11Z</time>
      </trkpt>
      <trkpt lat="43.11583" lon="0.26022">
        <ele>272.6</ele>
        <time>2022-09-06T10:39:17Z</time>
      </trkpt>
      <trkpt lat="43.11616" lon="0.26">
        <ele>273.4</ele>
        <time>2022-09-06T10:39:23Z</time>
      </trkpt>
      <trkpt lat="43.11633" lon="0.25988">
        <ele>274.6</ele>
        <time>2022-09-06T10:39:27Z</time>
      </trkpt>
      <trkpt lat="43.11637" lon="0.25986">
        <ele>274.8</ele>
        <time>2022-09-06T10:39:28Z</time>
      </trkpt>
      <trkpt lat="43.11657" lon="0.25974">
        <ele>275</ele>
        <time>2022-09-06T10:39:34Z</time>
      </trkpt>
      <trkpt lat="43.1166" lon="0.25972">
        <ele>275</ele>
        <time>2022-09-06T10:39:35Z</time>
      </trkpt>
      <trkpt lat="43.11672" lon="0.25964">
        <ele>274.4</ele>
        <time>2022-09-06T10:39:39Z</time>
      </trkpt>
      <trkpt lat="43.11699" lon="0.25952">
        <ele>273.8</ele>
        <time>2022-09-06T10:39:44Z</time>
      </trkpt>
      <trkpt lat="43.11706" lon="0.25949">
        <ele>273.2</ele>
        <time>2022-09-06T10:39:45Z</time>
      </trkpt>
      <trkpt lat="43.1172" lon="0.25944">
        <ele>272</ele>
        <time>2022-09-06T10:39:47Z</time>
      </trkpt>
      <trkpt lat="43.11742" lon="0.25935">
        <ele>271.6</ele>
        <time>2022-09-06T10:39:50Z</time>
      </trkpt>
      <trkpt lat="43.11764" lon="0.25925">
        <ele>270.6</ele>
        <time>2022-09-06T10:39:53Z</time>
      </trkpt>
      <trkpt lat="43.11799" lon="0.25912">
        <ele>269.4</ele>
        <time>2022-09-06T10:39:58Z</time>
      </trkpt>
      <trkpt lat="43.11836" lon="0.25904">
        <ele>268.6</ele>
        <time>2022-09-06T10:40:04Z</time>
      </trkpt>
      <trkpt lat="43.11842" lon="0.25903">
        <ele>268.6</ele>
        <time>2022-09-06T10:40:05Z</time>
      </trkpt>
      <trkpt lat="43.11848" lon="0.25903">
        <ele>268.4</ele>
        <time>2022-09-06T10:40:06Z</time>
      </trkpt>
      <trkpt lat="43.11889" lon="0.25902">
        <ele>268</ele>
        <time>2022-09-06T10:40:13Z</time>
      </trkpt>
      <trkpt lat="43.11927" lon="0.25902">
        <ele>268.2</ele>
        <time>2022-09-06T10:40:20Z</time>
      </trkpt>
      <trkpt lat="43.11969" lon="0.25903">
        <ele>267.8</ele>
        <time>2022-09-06T10:40:28Z</time>
      </trkpt>
      <trkpt lat="43.11997" lon="0.25906">
        <ele>267.8</ele>
        <time>2022-09-06T10:40:34Z</time>
      </trkpt>
      <trkpt lat="43.12006" lon="0.25909">
        <ele>268</ele>
        <time>2022-09-06T10:40:36Z</time>
      </trkpt>
      <trkpt lat="43.12021" lon="0.25914">
        <ele>268.2</ele>
        <time>2022-09-06T10:40:39Z</time>
      </trkpt>
      <trkpt lat="43.12036" lon="0.25924">
        <ele>268.4</ele>
        <time>2022-09-06T10:40:42Z</time>
      </trkpt>
      <trkpt lat="43.12059" lon="0.25948">
        <ele>268.8</ele>
        <time>2022-09-06T10:40:48Z</time>
      </trkpt>
      <trkpt lat="43.12062" lon="0.25953">
        <ele>269</ele>
        <time>2022-09-06T10:40:49Z</time>
      </trkpt>
      <trkpt lat="43.12074" lon="0.25974">
        <ele>269.4</ele>
        <time>2022-09-06T10:40:54Z</time>
      </trkpt>
      <trkpt lat="43.12078" lon="0.25983">
        <ele>269.6</ele>
        <time>2022-09-06T10:40:56Z</time>
      </trkpt>
      <trkpt lat="43.12087" lon="0.26008">
        <ele>270.2</ele>
        <time>2022-09-06T10:41:02Z</time>
      </trkpt>
      <trkpt lat="43.1209" lon="0.26017">
        <ele>270.6</ele>
        <time>2022-09-06T10:41:04Z</time>
      </trkpt>
      <trkpt lat="43.12093" lon="0.26029">
        <ele>271</ele>
        <time>2022-09-06T10:41:07Z</time>
      </trkpt>
      <trkpt lat="43.12096" lon="0.26046">
        <ele>271.6</ele>
        <time>2022-09-06T10:41:11Z</time>
      </trkpt>
      <trkpt lat="43.12099" lon="0.26059">
        <ele>272</ele>
        <time>2022-09-06T10:41:14Z</time>
      </trkpt>
      <trkpt lat="43.12106" lon="0.26078">
        <ele>272.6</ele>
        <time>2022-09-06T10:41:19Z</time>
      </trkpt>
      <trkpt lat="43.12111" lon="0.26085">
        <ele>272.8</ele>
        <time>2022-09-06T10:41:21Z</time>
      </trkpt>
      <trkpt lat="43.12129" lon="0.26103">
        <ele>272.6</ele>
        <time>2022-09-06T10:41:27Z</time>
      </trkpt>
      <trkpt lat="43.12164" lon="0.26122">
        <ele>272.2</ele>
        <time>2022-09-06T10:41:34Z</time>
      </trkpt>
      <trkpt lat="43.12209" lon="0.26145">
        <ele>272.2</ele>
        <time>2022-09-06T10:41:43Z</time>
      </trkpt>
      <trkpt lat="43.1223" lon="0.26157">
        <ele>271.6</ele>
        <time>2022-09-06T10:41:47Z</time>
      </trkpt>
      <trkpt lat="43.12241" lon="0.26163">
        <ele>271.4</ele>
        <time>2022-09-06T10:41:49Z</time>
      </trkpt>
      <trkpt lat="43.12279" lon="0.26184">
        <ele>270.6</ele>
        <time>2022-09-06T10:41:56Z</time>
      </trkpt>
      <trkpt lat="43.1232" lon="0.26207">
        <ele>270</ele>
        <time>2022-09-06T10:42:04Z</time>
      </trkpt>
      <trkpt lat="43.12353" lon="0.26226">
        <ele>270.2</ele>
        <time>2022-09-06T10:42:11Z</time>
      </trkpt>
      <trkpt lat="43.12382" lon="0.26243">
        <ele>270.6</ele>
        <time>2022-09-06T10:42:18Z</time>
      </trkpt>
      <trkpt lat="43.12394" lon="0.26251">
        <ele>270.8</ele>
        <time>2022-09-06T10:42:21Z</time>
      </trkpt>
      <trkpt lat="43.12406" lon="0.26259">
        <ele>271</ele>
        <time>2022-09-06T10:42:24Z</time>
      </trkpt>
      <trkpt lat="43.12423" lon="0.26268">
        <ele>271.8</ele>
        <time>2022-09-06T10:42:29Z</time>
      </trkpt>
      <trkpt lat="43.12427" lon="0.2627">
        <ele>272.2</ele>
        <time>2022-09-06T10:42:30Z</time>
      </trkpt>
      <trkpt lat="43.12444" lon="0.26274">
        <ele>273</ele>
        <time>2022-09-06T10:42:35Z</time>
      </trkpt>
      <trkpt lat="43.12451" lon="0.26274">
        <ele>273.2</ele>
        <time>2022-09-06T10:42:37Z</time>
      </trkpt>
      <trkpt lat="43.12468" lon="0.26272">
        <ele>274</ele>
        <time>2022-09-06T10:42:42Z</time>
      </trkpt>
      <trkpt lat="43.12475" lon="0.2627">
        <ele>274.2</ele>
        <time>2022-09-06T10:42:44Z</time>
      </trkpt>
      <trkpt lat="43.12496" lon="0.2626">
        <ele>274.8</ele>
        <time>2022-09-06T10:42:52Z</time>
      </trkpt>
      <trkpt lat="43.12502" lon="0.26258">
        <ele>274.8</ele>
        <time>2022-09-06T10:42:54Z</time>
      </trkpt>
      <trkpt lat="43.12509" lon="0.26255">
        <ele>274.8</ele>
        <time>2022-09-06T10:42:56Z</time>
      </trkpt>
      <trkpt lat="43.12538" lon="0.26234">
        <ele>274.4</ele>
        <time>2022-09-06T10:43:04Z</time>
      </trkpt>
      <trkpt lat="43.12566" lon="0.26215">
        <ele>273.4</ele>
        <time>2022-09-06T10:43:11Z</time>
      </trkpt>
      <trkpt lat="43.12571" lon="0.26212">
        <ele>273.4</ele>
        <time>2022-09-06T10:43:12Z</time>
      </trkpt>
      <trkpt lat="43.12581" lon="0.26206">
        <ele>273</ele>
        <time>2022-09-06T10:43:14Z</time>
      </trkpt>
      <trkpt lat="43.12591" lon="0.26202">
        <ele>272.4</ele>
        <time>2022-09-06T10:43:16Z</time>
      </trkpt>
      <trkpt lat="43.12602" lon="0.26199">
        <ele>272</ele>
        <time>2022-09-06T10:43:18Z</time>
      </trkpt>
      <trkpt lat="43.12634" lon="0.26191">
        <ele>271</ele>
        <time>2022-09-06T10:43:23Z</time>
      </trkpt>
      <trkpt lat="43.1264" lon="0.2619">
        <ele>270.8</ele>
        <time>2022-09-06T10:43:24Z</time>
      </trkpt>
      <trkpt lat="43.1267" lon="0.26184">
        <ele>269.8</ele>
        <time>2022-09-06T10:43:28Z</time>
      </trkpt>
      <trkpt lat="43.12678" lon="0.26182">
        <ele>269.4</ele>
        <time>2022-09-06T10:43:29Z</time>
      </trkpt>
      <trkpt lat="43.12686" lon="0.26181">
        <ele>269.2</ele>
        <time>2022-09-06T10:43:30Z</time>
      </trkpt>
      <trkpt lat="43.12709" lon="0.26178">
        <ele>268.2</ele>
        <time>2022-09-06T10:43:33Z</time>
      </trkpt>
      <trkpt lat="43.12739" lon="0.26173">
        <ele>267.2</ele>
        <time>2022-09-06T10:43:37Z</time>
      </trkpt>
      <trkpt lat="43.1276" lon="0.26171">
        <ele>267</ele>
        <time>2022-09-06T10:43:40Z</time>
      </trkpt>
      <trkpt lat="43.12806" lon="0.26168">
        <ele>266.4</ele>
        <time>2022-09-06T10:43:47Z</time>
      </trkpt>
      <trkpt lat="43.12817" lon="0.26166">
        <ele>266</ele>
        <time>2022-09-06T10:43:49Z</time>
      </trkpt>
      <trkpt lat="43.12848" lon="0.26165">
        <ele>265.2</ele>
        <time>2022-09-06T10:43:54Z</time>
      </trkpt>
      <trkpt lat="43.12896" lon="0.2616">
        <ele>265.4</ele>
        <time>2022-09-06T10:44:02Z</time>
      </trkpt>
      <trkpt lat="43.1292" lon="0.26156">
        <ele>265.2</ele>
        <time>2022-09-06T10:44:06Z</time>
      </trkpt>
      <trkpt lat="43.12932" lon="0.26155">
        <ele>265.2</ele>
        <time>2022-09-06T10:44:08Z</time>
      </trkpt>
      <trkpt lat="43.12948" lon="0.26155">
        <ele>265</ele>
        <time>2022-09-06T10:44:11Z</time>
      </trkpt>
      <trkpt lat="43.12966" lon="0.26158">
        <ele>264.8</ele>
        <time>2022-09-06T10:44:14Z</time>
      </trkpt>
      <trkpt lat="43.13007" lon="0.26161">
        <ele>264</ele>
        <time>2022-09-06T10:44:21Z</time>
      </trkpt>
      <trkpt lat="43.13022" lon="0.26161">
        <ele>263.6</ele>
        <time>2022-09-06T10:44:24Z</time>
      </trkpt>
      <trkpt lat="43.13033" lon="0.26161">
        <ele>263.4</ele>
        <time>2022-09-06T10:44:26Z</time>
      </trkpt>
      <trkpt lat="43.13075" lon="0.26165">
        <ele>263.6</ele>
        <time>2022-09-06T10:44:33Z</time>
      </trkpt>
      <trkpt lat="43.13107" lon="0.26175">
        <ele>264.2</ele>
        <time>2022-09-06T10:44:39Z</time>
      </trkpt>
      <trkpt lat="43.13144" lon="0.26194">
        <ele>264.8</ele>
        <time>2022-09-06T10:44:46Z</time>
      </trkpt>
      <trkpt lat="43.13176" lon="0.26208">
        <ele>265</ele>
        <time>2022-09-06T10:44:52Z</time>
      </trkpt>
      <trkpt lat="43.13182" lon="0.2621">
        <ele>265</ele>
        <time>2022-09-06T10:44:53Z</time>
      </trkpt>
      <trkpt lat="43.1321" lon="0.26218">
        <ele>265</ele>
        <time>2022-09-06T10:44:58Z</time>
      </trkpt>
      <trkpt lat="43.13249" lon="0.26221">
        <ele>265</ele>
        <time>2022-09-06T10:45:05Z</time>
      </trkpt>
      <trkpt lat="43.13281" lon="0.26222">
        <ele>266.2</ele>
        <time>2022-09-06T10:45:12Z</time>
      </trkpt>
      <trkpt lat="43.13298" lon="0.26219">
        <ele>266.6</ele>
        <time>2022-09-06T10:45:17Z</time>
      </trkpt>
      <trkpt lat="43.13315" lon="0.26215">
        <ele>267.2</ele>
        <time>2022-09-06T10:45:23Z</time>
      </trkpt>
      <trkpt lat="43.13321" lon="0.26214">
        <ele>267.4</ele>
        <time>2022-09-06T10:45:25Z</time>
      </trkpt>
      <trkpt lat="43.13339" lon="0.26211">
        <ele>268.2</ele>
        <time>2022-09-06T10:45:31Z</time>
      </trkpt>
      <trkpt lat="43.13345" lon="0.26209">
        <ele>268.8</ele>
        <time>2022-09-06T10:45:33Z</time>
      </trkpt>
      <trkpt lat="43.13359" lon="0.26206">
        <ele>269.4</ele>
        <time>2022-09-06T10:45:38Z</time>
      </trkpt>
      <trkpt lat="43.13374" lon="0.26204">
        <ele>270</ele>
        <time>2022-09-06T10:45:43Z</time>
      </trkpt>
      <trkpt lat="43.13382" lon="0.26201">
        <ele>270.4</ele>
        <time>2022-09-06T10:45:46Z</time>
      </trkpt>
      <trkpt lat="43.13398" lon="0.26198">
        <ele>271</ele>
        <time>2022-09-06T10:45:52Z</time>
      </trkpt>
      <trkpt lat="43.13403" lon="0.26197">
        <ele>271.6</ele>
        <time>2022-09-06T10:45:54Z</time>
      </trkpt>
      <trkpt lat="43.13417" lon="0.26193">
        <ele>272.4</ele>
        <time>2022-09-06T10:46:00Z</time>
      </trkpt>
      <trkpt lat="43.13424" lon="0.26191">
        <ele>272.8</ele>
        <time>2022-09-06T10:46:03Z</time>
      </trkpt>
      <trkpt lat="43.13435" lon="0.26185">
        <ele>273.4</ele>
        <time>2022-09-06T10:46:08Z</time>
      </trkpt>
      <trkpt lat="43.13439" lon="0.26183">
        <ele>273.8</ele>
        <time>2022-09-06T10:46:10Z</time>
      </trkpt>
      <trkpt lat="43.13446" lon="0.26179">
        <ele>274.6</ele>
        <time>2022-09-06T10:46:15Z</time>
      </trkpt>
      <trkpt lat="43.13449" lon="0.26176">
        <ele>275</ele>
        <time>2022-09-06T10:46:17Z</time>
      </trkpt>
      <trkpt lat="43.13456" lon="0.26171">
        <ele>275.6</ele>
        <time>2022-09-06T10:46:22Z</time>
      </trkpt>
      <trkpt lat="43.13459" lon="0.26171">
        <ele>276</ele>
        <time>2022-09-06T10:46:24Z</time>
      </trkpt>
      <trkpt lat="43.13468" lon="0.26167">
        <ele>276.4</ele>
        <time>2022-09-06T10:46:29Z</time>
      </trkpt>
      <trkpt lat="43.13477" lon="0.26164">
        <ele>277</ele>
        <time>2022-09-06T10:46:34Z</time>
      </trkpt>
      <trkpt lat="43.13485" lon="0.26164">
        <ele>277.8</ele>
        <time>2022-09-06T10:46:38Z</time>
      </trkpt>
      <trkpt lat="43.13496" lon="0.26162">
        <ele>278.2</ele>
        <time>2022-09-06T10:46:44Z</time>
      </trkpt>
      <trkpt lat="43.135" lon="0.26162">
        <ele>278.4</ele>
        <time>2022-09-06T10:46:46Z</time>
      </trkpt>
      <trkpt lat="43.13508" lon="0.26162">
        <ele>279.2</ele>
        <time>2022-09-06T10:46:50Z</time>
      </trkpt>
      <trkpt lat="43.13514" lon="0.26161">
        <ele>279.2</ele>
        <time>2022-09-06T10:46:53Z</time>
      </trkpt>
      <trkpt lat="43.13526" lon="0.26161">
        <ele>280.4</ele>
        <time>2022-09-06T10:46:59Z</time>
      </trkpt>
      <trkpt lat="43.1353" lon="0.2616">
        <ele>280.6</ele>
        <time>2022-09-06T10:47:01Z</time>
      </trkpt>
      <trkpt lat="43.13544" lon="0.26158">
        <ele>281.4</ele>
        <time>2022-09-06T10:47:08Z</time>
      </trkpt>
      <trkpt lat="43.13548" lon="0.26157">
        <ele>281.4</ele>
        <time>2022-09-06T10:47:10Z</time>
      </trkpt>
      <trkpt lat="43.13561" lon="0.26154">
        <ele>281.6</ele>
        <time>2022-09-06T10:47:15Z</time>
      </trkpt>
      <trkpt lat="43.13582" lon="0.26151">
        <ele>281</ele>
        <time>2022-09-06T10:47:21Z</time>
      </trkpt>
      <trkpt lat="43.13605" lon="0.26151">
        <ele>280.2</ele>
        <time>2022-09-06T10:47:28Z</time>
      </trkpt>
      <trkpt lat="43.13607" lon="0.26151">
        <ele>279.8</ele>
        <time>2022-09-06T10:48:29Z</time>
      </trkpt>
      <trkpt lat="43.13619" lon="0.26151">
        <ele>279.6</ele>
        <time>2022-09-06T10:48:33Z</time>
      </trkpt>
      <trkpt lat="43.13637" lon="0.2615">
        <ele>279.2</ele>
        <time>2022-09-06T10:48:37Z</time>
      </trkpt>
      <trkpt lat="43.13642" lon="0.2615">
        <ele>279</ele>
        <time>2022-09-06T10:48:38Z</time>
      </trkpt>
      <trkpt lat="43.13661" lon="0.26149">
        <ele>278</ele>
        <time>2022-09-06T10:48:41Z</time>
      </trkpt>
      <trkpt lat="43.13668" lon="0.26151">
        <ele>277.8</ele>
        <time>2022-09-06T10:48:42Z</time>
      </trkpt>
      <trkpt lat="43.13675" lon="0.26153">
        <ele>277.4</ele>
        <time>2022-09-06T10:48:43Z</time>
      </trkpt>
      <trkpt lat="43.13696" lon="0.26162">
        <ele>276.8</ele>
        <time>2022-09-06T10:48:46Z</time>
      </trkpt>
      <trkpt lat="43.13716" lon="0.26172">
        <ele>276</ele>
        <time>2022-09-06T10:48:49Z</time>
      </trkpt>
      <trkpt lat="43.13737" lon="0.26183">
        <ele>275.6</ele>
        <time>2022-09-06T10:48:52Z</time>
      </trkpt>
      <trkpt lat="43.13752" lon="0.26191">
        <ele>274.2</ele>
        <time>2022-09-06T10:48:54Z</time>
      </trkpt>
      <trkpt lat="43.13769" lon="0.26197">
        <ele>273.4</ele>
        <time>2022-09-06T10:48:56Z</time>
      </trkpt>
      <trkpt lat="43.13778" lon="0.26198">
        <ele>273</ele>
        <time>2022-09-06T10:48:57Z</time>
      </trkpt>
      <trkpt lat="43.13795" lon="0.26195">
        <ele>272</ele>
        <time>2022-09-06T10:48:59Z</time>
      </trkpt>
      <trkpt lat="43.13803" lon="0.26191">
        <ele>271.8</ele>
        <time>2022-09-06T10:49:00Z</time>
      </trkpt>
      <trkpt lat="43.13811" lon="0.26187">
        <ele>271.4</ele>
        <time>2022-09-06T10:49:01Z</time>
      </trkpt>
      <trkpt lat="43.13819" lon="0.26185">
        <ele>271</ele>
        <time>2022-09-06T10:49:02Z</time>
      </trkpt>
      <trkpt lat="43.13828" lon="0.26184">
        <ele>270.4</ele>
        <time>2022-09-06T10:49:03Z</time>
      </trkpt>
      <trkpt lat="43.13855" lon="0.2618">
        <ele>269</ele>
        <time>2022-09-06T10:49:06Z</time>
      </trkpt>
      <trkpt lat="43.13864" lon="0.26179">
        <ele>267.8</ele>
        <time>2022-09-06T10:49:07Z</time>
      </trkpt>
      <trkpt lat="43.13874" lon="0.26177">
        <ele>267.2</ele>
        <time>2022-09-06T10:49:08Z</time>
      </trkpt>
      <trkpt lat="43.13885" lon="0.26176">
        <ele>266.4</ele>
        <time>2022-09-06T10:49:09Z</time>
      </trkpt>
      <trkpt lat="43.13905" lon="0.26177">
        <ele>265.6</ele>
        <time>2022-09-06T10:49:11Z</time>
      </trkpt>
      <trkpt lat="43.13916" lon="0.26179">
        <ele>265.2</ele>
        <time>2022-09-06T10:49:12Z</time>
      </trkpt>
      <trkpt lat="43.13938" lon="0.26185">
        <ele>263.8</ele>
        <time>2022-09-06T10:49:14Z</time>
      </trkpt>
      <trkpt lat="43.1396" lon="0.2619">
        <ele>262.8</ele>
        <time>2022-09-06T10:49:16Z</time>
      </trkpt>
      <trkpt lat="43.13971" lon="0.26191">
        <ele>262.2</ele>
        <time>2022-09-06T10:49:17Z</time>
      </trkpt>
      <trkpt lat="43.13981" lon="0.26191">
        <ele>261.4</ele>
        <time>2022-09-06T10:49:18Z</time>
      </trkpt>
      <trkpt lat="43.14003" lon="0.26188">
        <ele>259.8</ele>
        <time>2022-09-06T10:49:20Z</time>
      </trkpt>
      <trkpt lat="43.14013" lon="0.26187">
        <ele>259.4</ele>
        <time>2022-09-06T10:49:21Z</time>
      </trkpt>
      <trkpt lat="43.14033" lon="0.26185">
        <ele>258.6</ele>
        <time>2022-09-06T10:49:23Z</time>
      </trkpt>
      <trkpt lat="43.14062" lon="0.26183">
        <ele>257.6</ele>
        <time>2022-09-06T10:49:26Z</time>
      </trkpt>
      <trkpt lat="43.14081" lon="0.26182">
        <ele>256.8</ele>
        <time>2022-09-06T10:49:28Z</time>
      </trkpt>
      <trkpt lat="43.14107" lon="0.26181">
        <ele>256.4</ele>
        <time>2022-09-06T10:49:31Z</time>
      </trkpt>
      <trkpt lat="43.14131" lon="0.26181">
        <ele>256</ele>
        <time>2022-09-06T10:49:34Z</time>
      </trkpt>
      <trkpt lat="43.14167" lon="0.26187">
        <ele>255.4</ele>
        <time>2022-09-06T10:49:39Z</time>
      </trkpt>
      <trkpt lat="43.14174" lon="0.26189">
        <ele>255.2</ele>
        <time>2022-09-06T10:49:40Z</time>
      </trkpt>
      <trkpt lat="43.14209" lon="0.262">
        <ele>254.8</ele>
        <time>2022-09-06T10:49:46Z</time>
      </trkpt>
      <trkpt lat="43.14238" lon="0.26207">
        <ele>254.6</ele>
        <time>2022-09-06T10:49:52Z</time>
      </trkpt>
      <trkpt lat="43.14248" lon="0.26207">
        <ele>254.4</ele>
        <time>2022-09-06T10:49:55Z</time>
      </trkpt>
      <trkpt lat="43.14251" lon="0.26209">
        <ele>254.4</ele>
        <time>2022-09-06T10:49:56Z</time>
      </trkpt>
      <trkpt lat="43.14265" lon="0.26211">
        <ele>254.8</ele>
        <time>2022-09-06T10:50:01Z</time>
      </trkpt>
      <trkpt lat="43.14285" lon="0.26204">
        <ele>254.4</ele>
        <time>2022-09-06T10:50:08Z</time>
      </trkpt>
      <trkpt lat="43.14289" lon="0.26204">
        <ele>254.4</ele>
        <time>2022-09-06T10:50:10Z</time>
      </trkpt>
      <trkpt lat="43.14291" lon="0.26204">
        <ele>254.2</ele>
        <time>2022-09-06T10:50:11Z</time>
      </trkpt>
      <trkpt lat="43.14293" lon="0.26205">
        <ele>254</ele>
        <time>2022-09-06T10:50:13Z</time>
      </trkpt>
      <trkpt lat="43.14294" lon="0.26205">
        <ele>254</ele>
        <time>2022-09-06T10:50:14Z</time>
      </trkpt>
      <trkpt lat="43.14297" lon="0.26207">
        <ele>253.8</ele>
        <time>2022-09-06T10:50:18Z</time>
      </trkpt>
      <trkpt lat="43.14305" lon="0.26213">
        <ele>254.2</ele>
        <time>2022-09-06T10:54:21Z</time>
      </trkpt>
      <trkpt lat="43.14308" lon="0.26215">
        <ele>254.4</ele>
        <time>2022-09-06T10:54:22Z</time>
      </trkpt>
      <trkpt lat="43.14328" lon="0.26223">
        <ele>254.4</ele>
        <time>2022-09-06T10:54:28Z</time>
      </trkpt>
      <trkpt lat="43.14347" lon="0.26236">
        <ele>255</ele>
        <time>2022-09-06T10:54:34Z</time>
      </trkpt>
      <trkpt lat="43.14356" lon="0.26244">
        <ele>255.2</ele>
        <time>2022-09-06T10:54:37Z</time>
      </trkpt>
      <trkpt lat="43.1437" lon="0.26261">
        <ele>255.6</ele>
        <time>2022-09-06T10:54:42Z</time>
      </trkpt>
      <trkpt lat="43.14385" lon="0.26282">
        <ele>256</ele>
        <time>2022-09-06T10:54:48Z</time>
      </trkpt>
      <trkpt lat="43.14393" lon="0.26293">
        <ele>256.4</ele>
        <time>2022-09-06T10:54:51Z</time>
      </trkpt>
      <trkpt lat="43.14413" lon="0.26317">
        <ele>257</ele>
        <time>2022-09-06T10:54:58Z</time>
      </trkpt>
      <trkpt lat="43.14422" lon="0.26324">
        <ele>257.4</ele>
        <time>2022-09-06T10:55:01Z</time>
      </trkpt>
      <trkpt lat="43.14438" lon="0.26334">
        <ele>258</ele>
        <time>2022-09-06T10:55:06Z</time>
      </trkpt>
      <trkpt lat="43.14466" lon="0.26349">
        <ele>258.4</ele>
        <time>2022-09-06T10:55:14Z</time>
      </trkpt>
      <trkpt lat="43.14469" lon="0.26351">
        <ele>258.6</ele>
        <time>2022-09-06T10:55:15Z</time>
      </trkpt>
      <trkpt lat="43.14507" lon="0.2637">
        <ele>259.2</ele>
        <time>2022-09-06T10:55:26Z</time>
      </trkpt>
      <trkpt lat="43.14536" lon="0.26381">
        <ele>258.8</ele>
        <time>2022-09-06T10:55:33Z</time>
      </trkpt>
      <trkpt lat="43.14563" lon="0.26386">
        <ele>258.8</ele>
        <time>2022-09-06T10:55:38Z</time>
      </trkpt>
      <trkpt lat="43.14568" lon="0.26387">
        <ele>258.8</ele>
        <time>2022-09-06T10:55:39Z</time>
      </trkpt>
      <trkpt lat="43.14601" lon="0.26392">
        <ele>258.2</ele>
        <time>2022-09-06T10:55:45Z</time>
      </trkpt>
      <trkpt lat="43.14636" lon="0.26402">
        <ele>257.6</ele>
        <time>2022-09-06T10:55:51Z</time>
      </trkpt>
      <trkpt lat="43.14643" lon="0.26404">
        <ele>257.4</ele>
        <time>2022-09-06T10:55:52Z</time>
      </trkpt>
      <trkpt lat="43.14657" lon="0.26404">
        <ele>257.2</ele>
        <time>2022-09-06T10:55:54Z</time>
      </trkpt>
      <trkpt lat="43.14664" lon="0.26402">
        <ele>257</ele>
        <time>2022-09-06T10:55:55Z</time>
      </trkpt>
      <trkpt lat="43.14671" lon="0.264">
        <ele>256.2</ele>
        <time>2022-09-06T10:55:56Z</time>
      </trkpt>
      <trkpt lat="43.14694" lon="0.26386">
        <ele>255.2</ele>
        <time>2022-09-06T10:55:59Z</time>
      </trkpt>
      <trkpt lat="43.14701" lon="0.26382">
        <ele>255</ele>
        <time>2022-09-06T10:56:00Z</time>
      </trkpt>
      <trkpt lat="43.14737" lon="0.26361">
        <ele>254</ele>
        <time>2022-09-06T10:56:05Z</time>
      </trkpt>
      <trkpt lat="43.14744" lon="0.26358">
        <ele>254</ele>
        <time>2022-09-06T10:56:06Z</time>
      </trkpt>
      <trkpt lat="43.14781" lon="0.26344">
        <ele>254.4</ele>
        <time>2022-09-06T10:56:12Z</time>
      </trkpt>
      <trkpt lat="43.14812" lon="0.2633">
        <ele>254.6</ele>
        <time>2022-09-06T10:56:18Z</time>
      </trkpt>
      <trkpt lat="43.14853" lon="0.26307">
        <ele>253</ele>
        <time>2022-09-06T10:56:25Z</time>
      </trkpt>
      <trkpt lat="43.14859" lon="0.26304">
        <ele>252.8</ele>
        <time>2022-09-06T10:56:26Z</time>
      </trkpt>
      <trkpt lat="43.14894" lon="0.26291">
        <ele>252</ele>
        <time>2022-09-06T10:56:31Z</time>
      </trkpt>
      <trkpt lat="43.14901" lon="0.26289">
        <ele>251.8</ele>
        <time>2022-09-06T10:56:32Z</time>
      </trkpt>
      <trkpt lat="43.14947" lon="0.26278">
        <ele>250.8</ele>
        <time>2022-09-06T10:56:39Z</time>
      </trkpt>
      <trkpt lat="43.14954" lon="0.26277">
        <ele>250.6</ele>
        <time>2022-09-06T10:56:40Z</time>
      </trkpt>
      <trkpt lat="43.15006" lon="0.26265">
        <ele>250.8</ele>
        <time>2022-09-06T10:56:48Z</time>
      </trkpt>
      <trkpt lat="43.15042" lon="0.26254">
        <ele>250.6</ele>
        <time>2022-09-06T10:56:54Z</time>
      </trkpt>
      <trkpt lat="43.15083" lon="0.26242">
        <ele>250.8</ele>
        <time>2022-09-06T10:57:01Z</time>
      </trkpt>
      <trkpt lat="43.15123" lon="0.26221">
        <ele>250.4</ele>
        <time>2022-09-06T10:57:08Z</time>
      </trkpt>
      <trkpt lat="43.1517" lon="0.26181">
        <ele>250.2</ele>
        <time>2022-09-06T10:57:17Z</time>
      </trkpt>
      <trkpt lat="43.15192" lon="0.26153">
        <ele>249.6</ele>
        <time>2022-09-06T10:57:22Z</time>
      </trkpt>
      <trkpt lat="43.152" lon="0.26141">
        <ele>249.4</ele>
        <time>2022-09-06T10:57:24Z</time>
      </trkpt>
      <trkpt lat="43.15239" lon="0.26085">
        <ele>249</ele>
        <time>2022-09-06T10:57:33Z</time>
      </trkpt>
      <trkpt lat="43.15243" lon="0.26079">
        <ele>249</ele>
        <time>2022-09-06T10:57:34Z</time>
      </trkpt>
      <trkpt lat="43.15283" lon="0.26023">
        <ele>249</ele>
        <time>2022-09-06T10:57:43Z</time>
      </trkpt>
      <trkpt lat="43.15288" lon="0.26017">
        <ele>249</ele>
        <time>2022-09-06T10:57:44Z</time>
      </trkpt>
      <trkpt lat="43.15312" lon="0.25991">
        <ele>248.6</ele>
        <time>2022-09-06T10:57:49Z</time>
      </trkpt>
      <trkpt lat="43.1533" lon="0.25972">
        <ele>248.4</ele>
        <time>2022-09-06T10:57:53Z</time>
      </trkpt>
      <trkpt lat="43.15367" lon="0.25933">
        <ele>248</ele>
        <time>2022-09-06T10:58:01Z</time>
      </trkpt>
      <trkpt lat="43.15381" lon="0.25918">
        <ele>247.4</ele>
        <time>2022-09-06T10:58:04Z</time>
      </trkpt>
      <trkpt lat="43.15404" lon="0.25894">
        <ele>247</ele>
        <time>2022-09-06T10:58:09Z</time>
      </trkpt>
      <trkpt lat="43.15448" lon="0.25848">
        <ele>247.6</ele>
        <time>2022-09-06T10:58:18Z</time>
      </trkpt>
      <trkpt lat="43.15453" lon="0.25843">
        <ele>247.4</ele>
        <time>2022-09-06T10:58:19Z</time>
      </trkpt>
      <trkpt lat="43.15498" lon="0.25795">
        <ele>247.2</ele>
        <time>2022-09-06T10:58:28Z</time>
      </trkpt>
      <trkpt lat="43.15503" lon="0.2579">
        <ele>247.2</ele>
        <time>2022-09-06T10:58:29Z</time>
      </trkpt>
      <trkpt lat="43.15551" lon="0.25742">
        <ele>246.8</ele>
        <time>2022-09-06T10:58:38Z</time>
      </trkpt>
      <trkpt lat="43.15556" lon="0.25737">
        <ele>247</ele>
        <time>2022-09-06T10:58:39Z</time>
      </trkpt>
      <trkpt lat="43.15607" lon="0.25698">
        <ele>246.8</ele>
        <time>2022-09-06T10:58:48Z</time>
      </trkpt>
      <trkpt lat="43.15651" lon="0.25667">
        <ele>246.6</ele>
        <time>2022-09-06T10:58:56Z</time>
      </trkpt>
      <trkpt lat="43.15682" lon="0.25655">
        <ele>247</ele>
        <time>2022-09-06T10:59:02Z</time>
      </trkpt>
      <trkpt lat="43.15704" lon="0.25646">
        <ele>247.4</ele>
        <time>2022-09-06T10:59:08Z</time>
      </trkpt>
      <trkpt lat="43.15719" lon="0.25639">
        <ele>247.4</ele>
        <time>2022-09-06T10:59:14Z</time>
      </trkpt>
      <trkpt lat="43.15733" lon="0.25628">
        <ele>247.6</ele>
        <time>2022-09-06T10:59:20Z</time>
      </trkpt>
      <trkpt lat="43.15756" lon="0.25604">
        <ele>248</ele>
        <time>2022-09-06T10:59:27Z</time>
      </trkpt>
      <trkpt lat="43.15775" lon="0.25584">
        <ele>248.6</ele>
        <time>2022-09-06T10:59:32Z</time>
      </trkpt>
      <trkpt lat="43.15796" lon="0.25561">
        <ele>249.2</ele>
        <time>2022-09-06T10:59:38Z</time>
      </trkpt>
      <trkpt lat="43.15812" lon="0.25549">
        <ele>249.6</ele>
        <time>2022-09-06T10:59:42Z</time>
      </trkpt>
      <trkpt lat="43.15828" lon="0.2554">
        <ele>250</ele>
        <time>2022-09-06T10:59:46Z</time>
      </trkpt>
      <trkpt lat="43.15865" lon="0.25525">
        <ele>250.4</ele>
        <time>2022-09-06T10:59:55Z</time>
      </trkpt>
      <trkpt lat="43.15891" lon="0.25519">
        <ele>250.8</ele>
        <time>2022-09-06T11:00:01Z</time>
      </trkpt>
      <trkpt lat="43.15901" lon="0.25519">
        <ele>250.8</ele>
        <time>2022-09-06T11:00:03Z</time>
      </trkpt>
      <trkpt lat="43.15937" lon="0.25521">
        <ele>249.6</ele>
        <time>2022-09-06T11:00:11Z</time>
      </trkpt>
      <trkpt lat="43.15964" lon="0.25524">
        <ele>249.4</ele>
        <time>2022-09-06T11:00:17Z</time>
      </trkpt>
      <trkpt lat="43.15977" lon="0.25524">
        <ele>250.8</ele>
        <time>2022-09-06T11:00:20Z</time>
      </trkpt>
      <trkpt lat="43.16008" lon="0.25525">
        <ele>251.4</ele>
        <time>2022-09-06T11:00:27Z</time>
      </trkpt>
      <trkpt lat="43.16042" lon="0.25522">
        <ele>251.8</ele>
        <time>2022-09-06T11:00:35Z</time>
      </trkpt>
      <trkpt lat="43.1605" lon="0.25521">
        <ele>251.6</ele>
        <time>2022-09-06T11:00:37Z</time>
      </trkpt>
      <trkpt lat="43.1608" lon="0.25513">
        <ele>251.8</ele>
        <time>2022-09-06T11:00:44Z</time>
      </trkpt>
      <trkpt lat="43.16114" lon="0.25504">
        <ele>252.4</ele>
        <time>2022-09-06T11:00:52Z</time>
      </trkpt>
      <trkpt lat="43.16141" lon="0.25497">
        <ele>252.8</ele>
        <time>2022-09-06T11:00:59Z</time>
      </trkpt>
      <trkpt lat="43.16144" lon="0.25496">
        <ele>253</ele>
        <time>2022-09-06T11:01:00Z</time>
      </trkpt>
      <trkpt lat="43.1615" lon="0.25488">
        <ele>253.6</ele>
        <time>2022-09-06T11:01:04Z</time>
      </trkpt>
      <trkpt lat="43.16149" lon="0.2548">
        <ele>254</ele>
        <time>2022-09-06T11:01:07Z</time>
      </trkpt>
      <trkpt lat="43.16148" lon="0.25474">
        <ele>254</ele>
        <time>2022-09-06T11:01:09Z</time>
      </trkpt>
      <trkpt lat="43.16142" lon="0.25446">
        <ele>253.4</ele>
        <time>2022-09-06T11:01:16Z</time>
      </trkpt>
      <trkpt lat="43.16135" lon="0.25407">
        <ele>253.2</ele>
        <time>2022-09-06T11:01:24Z</time>
      </trkpt>
      <trkpt lat="43.16133" lon="0.25396">
        <ele>253</ele>
        <time>2022-09-06T11:01:26Z</time>
      </trkpt>
      <trkpt lat="43.16128" lon="0.25361">
        <ele>251.8</ele>
        <time>2022-09-06T11:01:32Z</time>
      </trkpt>
      <trkpt lat="43.16123" lon="0.25332">
        <ele>250.8</ele>
        <time>2022-09-06T11:01:37Z</time>
      </trkpt>
      <trkpt lat="43.16119" lon="0.25329">
        <ele>250.6</ele>
        <time>2022-09-06T11:01:38Z</time>
      </trkpt>
      <trkpt lat="43.16105" lon="0.25333">
        <ele>250.2</ele>
        <time>2022-09-06T11:01:41Z</time>
      </trkpt>
      <trkpt lat="43.16092" lon="0.25338">
        <ele>249.8</ele>
        <time>2022-09-06T11:01:44Z</time>
      </trkpt>
      <trkpt lat="43.16088" lon="0.25337">
        <ele>249.6</ele>
        <time>2022-09-06T11:01:45Z</time>
      </trkpt>
      <trkpt lat="43.16085" lon="0.25332">
        <ele>249.6</ele>
        <time>2022-09-06T11:01:46Z</time>
      </trkpt>
      <trkpt lat="43.16086" lon="0.25319">
        <ele>249.4</ele>
        <time>2022-09-06T11:01:48Z</time>
      </trkpt>
      <trkpt lat="43.16086" lon="0.25313">
        <ele>249.4</ele>
        <time>2022-09-06T11:01:49Z</time>
      </trkpt>
      <trkpt lat="43.16084" lon="0.25263">
        <ele>248.6</ele>
        <time>2022-09-06T11:01:57Z</time>
      </trkpt>
      <trkpt lat="43.16083" lon="0.25243">
        <ele>247.4</ele>
        <time>2022-09-06T11:02:00Z</time>
      </trkpt>
      <trkpt lat="43.1608" lon="0.25223">
        <ele>246.4</ele>
        <time>2022-09-06T11:02:03Z</time>
      </trkpt>
      <trkpt lat="43.16078" lon="0.25218">
        <ele>246</ele>
        <time>2022-09-06T11:02:04Z</time>
      </trkpt>
      <trkpt lat="43.16076" lon="0.25213">
        <ele>245.8</ele>
        <time>2022-09-06T11:02:05Z</time>
      </trkpt>
      <trkpt lat="43.16073" lon="0.25206">
        <ele>245.2</ele>
        <time>2022-09-06T11:02:07Z</time>
      </trkpt>
      <trkpt lat="43.16071" lon="0.252">
        <ele>244.8</ele>
        <time>2022-09-06T11:02:09Z</time>
      </trkpt>
      <trkpt lat="43.16068" lon="0.25196">
        <ele>244.2</ele>
        <time>2022-09-06T11:02:11Z</time>
      </trkpt>
      <trkpt lat="43.16064" lon="0.25193">
        <ele>243.8</ele>
        <time>2022-09-06T11:02:14Z</time>
      </trkpt>
      <trkpt lat="43.16065" lon="0.25194">
        <ele>244</ele>
        <time>2022-09-06T11:06:12Z</time>
      </trkpt>
      <trkpt lat="43.16075" lon="0.25208">
        <ele>244.8</ele>
        <time>2022-09-06T11:06:18Z</time>
      </trkpt>
      <trkpt lat="43.16078" lon="0.25216">
        <ele>245.2</ele>
        <time>2022-09-06T11:06:21Z</time>
      </trkpt>
      <trkpt lat="43.16082" lon="0.25229">
        <ele>245.8</ele>
        <time>2022-09-06T11:06:25Z</time>
      </trkpt>
      <trkpt lat="43.16084" lon="0.25241">
        <ele>246.4</ele>
        <time>2022-09-06T11:06:29Z</time>
      </trkpt>
      <trkpt lat="43.16085" lon="0.25256">
        <ele>247.2</ele>
        <time>2022-09-06T11:06:34Z</time>
      </trkpt>
      <trkpt lat="43.16085" lon="0.25262">
        <ele>247.4</ele>
        <time>2022-09-06T11:06:36Z</time>
      </trkpt>
      <trkpt lat="43.16086" lon="0.25286">
        <ele>248.2</ele>
        <time>2022-09-06T11:06:44Z</time>
      </trkpt>
      <trkpt lat="43.16087" lon="0.25299">
        <ele>248.4</ele>
        <time>2022-09-06T11:06:48Z</time>
      </trkpt>
      <trkpt lat="43.16088" lon="0.25312">
        <ele>248.8</ele>
        <time>2022-09-06T11:06:52Z</time>
      </trkpt>
      <trkpt lat="43.16089" lon="0.25337">
        <ele>249.4</ele>
        <time>2022-09-06T11:07:00Z</time>
      </trkpt>
      <trkpt lat="43.1609" lon="0.25339">
        <ele>249.4</ele>
        <time>2022-09-06T11:07:01Z</time>
      </trkpt>
      <trkpt lat="43.16095" lon="0.2534">
        <ele>249.4</ele>
        <time>2022-09-06T11:07:03Z</time>
      </trkpt>
      <trkpt lat="43.16097" lon="0.25339">
        <ele>249.6</ele>
        <time>2022-09-06T11:07:04Z</time>
      </trkpt>
      <trkpt lat="43.16102" lon="0.25337">
        <ele>249.6</ele>
        <time>2022-09-06T11:07:06Z</time>
      </trkpt>
      <trkpt lat="43.16114" lon="0.25332">
        <ele>250</ele>
        <time>2022-09-06T11:07:11Z</time>
      </trkpt>
      <trkpt lat="43.16121" lon="0.25331">
        <ele>250.4</ele>
        <time>2022-09-06T11:07:14Z</time>
      </trkpt>
      <trkpt lat="43.16124" lon="0.25335">
        <ele>250.6</ele>
        <time>2022-09-06T11:07:16Z</time>
      </trkpt>
      <trkpt lat="43.16126" lon="0.25338">
        <ele>250.4</ele>
        <time>2022-09-06T11:07:17Z</time>
      </trkpt>
      <trkpt lat="43.16127" lon="0.25348">
        <ele>250.6</ele>
        <time>2022-09-06T11:07:20Z</time>
      </trkpt>
      <trkpt lat="43.16129" lon="0.25355">
        <ele>250.6</ele>
        <time>2022-09-06T11:07:22Z</time>
      </trkpt>
      <trkpt lat="43.1613" lon="0.25371">
        <ele>251.6</ele>
        <time>2022-09-06T11:07:27Z</time>
      </trkpt>
      <trkpt lat="43.16132" lon="0.25381">
        <ele>252.2</ele>
        <time>2022-09-06T11:07:30Z</time>
      </trkpt>
      <trkpt lat="43.16134" lon="0.25396">
        <ele>252.6</ele>
        <time>2022-09-06T11:07:35Z</time>
      </trkpt>
      <trkpt lat="43.16135" lon="0.25399">
        <ele>252.8</ele>
        <time>2022-09-06T11:07:36Z</time>
      </trkpt>
      <trkpt lat="43.16139" lon="0.25428">
        <ele>253.4</ele>
        <time>2022-09-06T11:07:45Z</time>
      </trkpt>
      <trkpt lat="43.16141" lon="0.2544">
        <ele>253.6</ele>
        <time>2022-09-06T11:07:49Z</time>
      </trkpt>
      <trkpt lat="43.16144" lon="0.25453">
        <ele>253.6</ele>
        <time>2022-09-06T11:07:53Z</time>
      </trkpt>
      <trkpt lat="43.16149" lon="0.25477">
        <ele>254.4</ele>
        <time>2022-09-06T11:08:01Z</time>
      </trkpt>
      <trkpt lat="43.1615" lon="0.25482">
        <ele>254.8</ele>
        <time>2022-09-06T11:08:03Z</time>
      </trkpt>
      <trkpt lat="43.16153" lon="0.25488">
        <ele>254.8</ele>
        <time>2022-09-06T11:08:06Z</time>
      </trkpt>
      <trkpt lat="43.16156" lon="0.25489">
        <ele>254.8</ele>
        <time>2022-09-06T11:08:07Z</time>
      </trkpt>
      <trkpt lat="43.1617" lon="0.25491">
        <ele>255.4</ele>
        <time>2022-09-06T11:08:12Z</time>
      </trkpt>
      <trkpt lat="43.16194" lon="0.25491">
        <ele>255.8</ele>
        <time>2022-09-06T11:08:19Z</time>
      </trkpt>
      <trkpt lat="43.16198" lon="0.25491">
        <ele>255.8</ele>
        <time>2022-09-06T11:08:20Z</time>
      </trkpt>
      <trkpt lat="43.16231" lon="0.25493">
        <ele>256.6</ele>
        <time>2022-09-06T11:08:28Z</time>
      </trkpt>
      <trkpt lat="43.16243" lon="0.25494">
        <ele>256.8</ele>
        <time>2022-09-06T11:08:31Z</time>
      </trkpt>
      <trkpt lat="43.16264" lon="0.255">
        <ele>257.2</ele>
        <time>2022-09-06T11:08:36Z</time>
      </trkpt>
      <trkpt lat="43.16288" lon="0.25506">
        <ele>257.8</ele>
        <time>2022-09-06T11:08:42Z</time>
      </trkpt>
      <trkpt lat="43.16296" lon="0.25509">
        <ele>258</ele>
        <time>2022-09-06T11:08:44Z</time>
      </trkpt>
      <trkpt lat="43.16324" lon="0.25518">
        <ele>259</ele>
        <time>2022-09-06T11:08:51Z</time>
      </trkpt>
      <trkpt lat="43.16328" lon="0.25519">
        <ele>259.2</ele>
        <time>2022-09-06T11:08:52Z</time>
      </trkpt>
      <trkpt lat="43.16367" lon="0.25534">
        <ele>258.8</ele>
        <time>2022-09-06T11:09:02Z</time>
      </trkpt>
      <trkpt lat="43.16381" lon="0.25528">
        <ele>258.2</ele>
        <time>2022-09-06T11:09:06Z</time>
      </trkpt>
      <trkpt lat="43.16383" lon="0.25524">
        <ele>258.2</ele>
        <time>2022-09-06T11:09:07Z</time>
      </trkpt>
      <trkpt lat="43.16383" lon="0.25513">
        <ele>257.8</ele>
        <time>2022-09-06T11:09:09Z</time>
      </trkpt>
      <trkpt lat="43.16383" lon="0.25506">
        <ele>257.8</ele>
        <time>2022-09-06T11:09:10Z</time>
      </trkpt>
      <trkpt lat="43.16385" lon="0.25494">
        <ele>258</ele>
        <time>2022-09-06T11:09:12Z</time>
      </trkpt>
      <trkpt lat="43.16391" lon="0.25469">
        <ele>257.6</ele>
        <time>2022-09-06T11:09:16Z</time>
      </trkpt>
      <trkpt lat="43.16402" lon="0.25441">
        <ele>257.4</ele>
        <time>2022-09-06T11:09:21Z</time>
      </trkpt>
      <trkpt lat="43.16403" lon="0.25435">
        <ele>257.4</ele>
        <time>2022-09-06T11:09:22Z</time>
      </trkpt>
      <trkpt lat="43.16408" lon="0.25425">
        <ele>257.2</ele>
        <time>2022-09-06T11:09:24Z</time>
      </trkpt>
      <trkpt lat="43.16415" lon="0.25407">
        <ele>257.2</ele>
        <time>2022-09-06T11:09:27Z</time>
      </trkpt>
      <trkpt lat="43.1642" lon="0.25396">
        <ele>257</ele>
        <time>2022-09-06T11:09:29Z</time>
      </trkpt>
      <trkpt lat="43.16425" lon="0.25386">
        <ele>256.8</ele>
        <time>2022-09-06T11:09:31Z</time>
      </trkpt>
      <trkpt lat="43.1643" lon="0.25376">
        <ele>256.6</ele>
        <time>2022-09-06T11:09:33Z</time>
      </trkpt>
      <trkpt lat="43.16438" lon="0.2536">
        <ele>256.4</ele>
        <time>2022-09-06T11:09:36Z</time>
      </trkpt>
      <trkpt lat="43.16455" lon="0.25325">
        <ele>256</ele>
        <time>2022-09-06T11:09:42Z</time>
      </trkpt>
      <trkpt lat="43.16459" lon="0.2532">
        <ele>255.4</ele>
        <time>2022-09-06T11:09:43Z</time>
      </trkpt>
      <trkpt lat="43.16463" lon="0.25316">
        <ele>255.2</ele>
        <time>2022-09-06T11:09:44Z</time>
      </trkpt>
      <trkpt lat="43.1648" lon="0.25305">
        <ele>254.2</ele>
        <time>2022-09-06T11:09:47Z</time>
      </trkpt>
      <trkpt lat="43.16492" lon="0.25301">
        <ele>254.8</ele>
        <time>2022-09-06T11:09:49Z</time>
      </trkpt>
      <trkpt lat="43.16507" lon="0.25299">
        <ele>254.6</ele>
        <time>2022-09-06T11:09:51Z</time>
      </trkpt>
      <trkpt lat="43.16527" lon="0.25291">
        <ele>253</ele>
        <time>2022-09-06T11:09:54Z</time>
      </trkpt>
      <trkpt lat="43.16534" lon="0.25286">
        <ele>252.8</ele>
        <time>2022-09-06T11:09:55Z</time>
      </trkpt>
      <trkpt lat="43.16547" lon="0.25274">
        <ele>251.4</ele>
        <time>2022-09-06T11:09:57Z</time>
      </trkpt>
      <trkpt lat="43.1656" lon="0.25259">
        <ele>250.2</ele>
        <time>2022-09-06T11:09:59Z</time>
      </trkpt>
      <trkpt lat="43.16566" lon="0.25251">
        <ele>249.2</ele>
        <time>2022-09-06T11:10:00Z</time>
      </trkpt>
      <trkpt lat="43.16578" lon="0.25234">
        <ele>248.2</ele>
        <time>2022-09-06T11:10:02Z</time>
      </trkpt>
      <trkpt lat="43.16596" lon="0.25209">
        <ele>246.4</ele>
        <time>2022-09-06T11:10:05Z</time>
      </trkpt>
      <trkpt lat="43.16602" lon="0.25202">
        <ele>245.6</ele>
        <time>2022-09-06T11:10:06Z</time>
      </trkpt>
      <trkpt lat="43.16608" lon="0.25194">
        <ele>244.8</ele>
        <time>2022-09-06T11:10:07Z</time>
      </trkpt>
      <trkpt lat="43.16633" lon="0.25163">
        <ele>243.6</ele>
        <time>2022-09-06T11:10:11Z</time>
      </trkpt>
      <trkpt lat="43.1664" lon="0.25155">
        <ele>243.6</ele>
        <time>2022-09-06T11:10:12Z</time>
      </trkpt>
      <trkpt lat="43.16673" lon="0.25114">
        <ele>242.8</ele>
        <time>2022-09-06T11:10:18Z</time>
      </trkpt>
      <trkpt lat="43.16683" lon="0.25103">
        <ele>242.6</ele>
        <time>2022-09-06T11:10:20Z</time>
      </trkpt>
      <trkpt lat="43.16688" lon="0.25098">
        <ele>241</ele>
        <time>2022-09-06T11:10:21Z</time>
      </trkpt>
      <trkpt lat="43.16706" lon="0.25076">
        <ele>241.2</ele>
        <time>2022-09-06T11:10:25Z</time>
      </trkpt>
      <trkpt lat="43.16735" lon="0.25043">
        <ele>240.8</ele>
        <time>2022-09-06T11:10:32Z</time>
      </trkpt>
      <trkpt lat="43.1676" lon="0.25012">
        <ele>240.6</ele>
        <time>2022-09-06T11:10:39Z</time>
      </trkpt>
      <trkpt lat="43.16791" lon="0.24976">
        <ele>240</ele>
        <time>2022-09-06T11:10:47Z</time>
      </trkpt>
      <trkpt lat="43.16794" lon="0.24972">
        <ele>240</ele>
        <time>2022-09-06T11:10:48Z</time>
      </trkpt>
      <trkpt lat="43.16798" lon="0.24968">
        <ele>240</ele>
        <time>2022-09-06T11:10:49Z</time>
      </trkpt>
      <trkpt lat="43.16817" lon="0.24948">
        <ele>240</ele>
        <time>2022-09-06T11:10:55Z</time>
      </trkpt>
      <trkpt lat="43.16831" lon="0.2494">
        <ele>239.4</ele>
        <time>2022-09-06T11:11:00Z</time>
      </trkpt>
      <trkpt lat="43.16834" lon="0.24936">
        <ele>238.8</ele>
        <time>2022-09-06T11:11:02Z</time>
      </trkpt>
      <trkpt lat="43.16838" lon="0.24933">
        <ele>238.6</ele>
        <time>2022-09-06T11:11:05Z</time>
      </trkpt>
      <trkpt lat="43.16841" lon="0.24927">
        <ele>237.8</ele>
        <time>2022-09-06T11:11:09Z</time>
      </trkpt>
      <trkpt lat="43.16844" lon="0.24922">
        <ele>237.2</ele>
        <time>2022-09-06T11:11:12Z</time>
      </trkpt>
      <trkpt lat="43.16846" lon="0.24919">
        <ele>236.8</ele>
        <time>2022-09-06T11:11:14Z</time>
      </trkpt>
      <trkpt lat="43.1685" lon="0.24913">
        <ele>236.4</ele>
        <time>2022-09-06T11:11:18Z</time>
      </trkpt>
      <trkpt lat="43.16851" lon="0.24912">
        <ele>236.4</ele>
        <time>2022-09-06T11:11:19Z</time>
      </trkpt>
      <trkpt lat="43.16862" lon="0.24902">
        <ele>236.2</ele>
        <time>2022-09-06T11:11:27Z</time>
      </trkpt>
      <trkpt lat="43.16866" lon="0.24899">
        <ele>236.6</ele>
        <time>2022-09-06T11:11:30Z</time>
      </trkpt>
      <trkpt lat="43.16869" lon="0.24898">
        <ele>237</ele>
        <time>2022-09-06T11:11:32Z</time>
      </trkpt>
      <trkpt lat="43.16875" lon="0.24897">
        <ele>237.8</ele>
        <time>2022-09-06T11:11:36Z</time>
      </trkpt>
      <trkpt lat="43.16877" lon="0.24897">
        <ele>238</ele>
        <time>2022-09-06T11:11:37Z</time>
      </trkpt>
      <trkpt lat="43.16878" lon="0.24896">
        <ele>238.2</ele>
        <time>2022-09-06T11:11:38Z</time>
      </trkpt>
      <trkpt lat="43.16886" lon="0.24889">
        <ele>239</ele>
        <time>2022-09-06T11:11:44Z</time>
      </trkpt>
      <trkpt lat="43.16887" lon="0.24887">
        <ele>239.2</ele>
        <time>2022-09-06T11:11:45Z</time>
      </trkpt>
      <trkpt lat="43.16892" lon="0.24878">
        <ele>240.2</ele>
        <time>2022-09-06T11:11:49Z</time>
      </trkpt>
      <trkpt lat="43.16895" lon="0.24873">
        <ele>240.4</ele>
        <time>2022-09-06T11:11:52Z</time>
      </trkpt>
      <trkpt lat="43.16904" lon="0.24858">
        <ele>240.8</ele>
        <time>2022-09-06T11:12:00Z</time>
      </trkpt>
      <trkpt lat="43.16921" lon="0.2484">
        <ele>241.2</ele>
        <time>2022-09-06T11:12:09Z</time>
      </trkpt>
      <trkpt lat="43.16934" lon="0.24825">
        <ele>241.2</ele>
        <time>2022-09-06T11:12:16Z</time>
      </trkpt>
      <trkpt lat="43.1694" lon="0.24818">
        <ele>241.2</ele>
        <time>2022-09-06T11:12:19Z</time>
      </trkpt>
      <trkpt lat="43.16952" lon="0.24804">
        <ele>241.2</ele>
        <time>2022-09-06T11:12:25Z</time>
      </trkpt>
      <trkpt lat="43.16967" lon="0.2479">
        <ele>241.2</ele>
        <time>2022-09-06T11:12:32Z</time>
      </trkpt>
      <trkpt lat="43.16978" lon="0.24777">
        <ele>241.4</ele>
        <time>2022-09-06T11:12:38Z</time>
      </trkpt>
      <trkpt lat="43.16994" lon="0.24758">
        <ele>241.4</ele>
        <time>2022-09-06T11:12:45Z</time>
      </trkpt>
      <trkpt lat="43.17008" lon="0.24742">
        <ele>241.8</ele>
        <time>2022-09-06T11:12:51Z</time>
      </trkpt>
      <trkpt lat="43.17024" lon="0.24722">
        <ele>241.8</ele>
        <time>2022-09-06T11:12:58Z</time>
      </trkpt>
      <trkpt lat="43.17036" lon="0.24709">
        <ele>241.8</ele>
        <time>2022-09-06T11:13:03Z</time>
      </trkpt>
      <trkpt lat="43.17046" lon="0.24694">
        <ele>241.8</ele>
        <time>2022-09-06T11:13:08Z</time>
      </trkpt>
      <trkpt lat="43.17068" lon="0.24665">
        <ele>241.4</ele>
        <time>2022-09-06T11:13:16Z</time>
      </trkpt>
      <trkpt lat="43.17089" lon="0.24638">
        <ele>241.4</ele>
        <time>2022-09-06T11:13:23Z</time>
      </trkpt>
      <trkpt lat="43.17102" lon="0.24611">
        <ele>241.2</ele>
        <time>2022-09-06T11:13:29Z</time>
      </trkpt>
      <trkpt lat="43.171" lon="0.24584">
        <ele>241</ele>
        <time>2022-09-06T11:13:34Z</time>
      </trkpt>
      <trkpt lat="43.17093" lon="0.24544">
        <ele>241.2</ele>
        <time>2022-09-06T11:13:42Z</time>
      </trkpt>
      <trkpt lat="43.17086" lon="0.24503">
        <ele>241.6</ele>
        <time>2022-09-06T11:13:50Z</time>
      </trkpt>
      <trkpt lat="43.1708" lon="0.24462">
        <ele>242.2</ele>
        <time>2022-09-06T11:13:59Z</time>
      </trkpt>
      <trkpt lat="43.17085" lon="0.24458">
        <ele>242.2</ele>
        <time>2022-09-06T11:14:01Z</time>
      </trkpt>
      <trkpt lat="43.17088" lon="0.24457">
        <ele>242.4</ele>
        <time>2022-09-06T11:14:02Z</time>
      </trkpt>
      <trkpt lat="43.17106" lon="0.24448">
        <ele>243</ele>
        <time>2022-09-06T11:14:07Z</time>
      </trkpt>
      <trkpt lat="43.1711" lon="0.24445">
        <ele>242.8</ele>
        <time>2022-09-06T11:14:08Z</time>
      </trkpt>
      <trkpt lat="43.17123" lon="0.24428">
        <ele>242.6</ele>
        <time>2022-09-06T11:14:12Z</time>
      </trkpt>
      <trkpt lat="43.17148" lon="0.24387">
        <ele>242.2</ele>
        <time>2022-09-06T11:14:20Z</time>
      </trkpt>
      <trkpt lat="43.17174" lon="0.24339">
        <ele>242.6</ele>
        <time>2022-09-06T11:14:29Z</time>
      </trkpt>
      <trkpt lat="43.1718" lon="0.24329">
        <ele>242.8</ele>
        <time>2022-09-06T11:14:31Z</time>
      </trkpt>
      <trkpt lat="43.17199" lon="0.24298">
        <ele>243.4</ele>
        <time>2022-09-06T11:14:37Z</time>
      </trkpt>
      <trkpt lat="43.17212" lon="0.24278">
        <ele>243.6</ele>
        <time>2022-09-06T11:14:41Z</time>
      </trkpt>
      <trkpt lat="43.17244" lon="0.2423">
        <ele>244.2</ele>
        <time>2022-09-06T11:14:51Z</time>
      </trkpt>
      <trkpt lat="43.17267" lon="0.24198">
        <ele>244.4</ele>
        <time>2022-09-06T11:14:58Z</time>
      </trkpt>
      <trkpt lat="43.17284" lon="0.24167">
        <ele>244.4</ele>
        <time>2022-09-06T11:15:04Z</time>
      </trkpt>
      <trkpt lat="43.17286" lon="0.24161">
        <ele>244.2</ele>
        <time>2022-09-06T11:15:05Z</time>
      </trkpt>
      <trkpt lat="43.17287" lon="0.24156">
        <ele>244.4</ele>
        <time>2022-09-06T11:15:06Z</time>
      </trkpt>
      <trkpt lat="43.17292" lon="0.24138">
        <ele>245.6</ele>
        <time>2022-09-06T11:15:10Z</time>
      </trkpt>
      <trkpt lat="43.17294" lon="0.24133">
        <ele>245.8</ele>
        <time>2022-09-06T11:15:11Z</time>
      </trkpt>
      <trkpt lat="43.173" lon="0.2412">
        <ele>246.4</ele>
        <time>2022-09-06T11:15:16Z</time>
      </trkpt>
      <trkpt lat="43.17302" lon="0.24116">
        <ele>246.6</ele>
        <time>2022-09-06T11:15:18Z</time>
      </trkpt>
      <trkpt lat="43.17304" lon="0.24112">
        <ele>246.8</ele>
        <time>2022-09-06T11:15:20Z</time>
      </trkpt>
      <trkpt lat="43.17308" lon="0.24107">
        <ele>246.8</ele>
        <time>2022-09-06T11:15:22Z</time>
      </trkpt>
      <trkpt lat="43.17312" lon="0.24089">
        <ele>246.4</ele>
        <time>2022-09-06T11:15:26Z</time>
      </trkpt>
      <trkpt lat="43.17314" lon="0.24039">
        <ele>246.2</ele>
        <time>2022-09-06T11:15:34Z</time>
      </trkpt>
      <trkpt lat="43.17314" lon="0.24001">
        <ele>247.2</ele>
        <time>2022-09-06T11:15:41Z</time>
      </trkpt>
      <trkpt lat="43.17312" lon="0.23965">
        <ele>247</ele>
        <time>2022-09-06T11:15:48Z</time>
      </trkpt>
      <trkpt lat="43.17309" lon="0.23938">
        <ele>247</ele>
        <time>2022-09-06T11:15:53Z</time>
      </trkpt>
      <trkpt lat="43.17316" lon="0.23912">
        <ele>247.4</ele>
        <time>2022-09-06T11:15:58Z</time>
      </trkpt>
      <trkpt lat="43.17322" lon="0.23892">
        <ele>247.8</ele>
        <time>2022-09-06T11:16:02Z</time>
      </trkpt>
      <trkpt lat="43.17328" lon="0.23872">
        <ele>248.6</ele>
        <time>2022-09-06T11:16:06Z</time>
      </trkpt>
      <trkpt lat="43.17333" lon="0.23849">
        <ele>248.6</ele>
        <time>2022-09-06T11:16:10Z</time>
      </trkpt>
      <trkpt lat="43.17333" lon="0.23843">
        <ele>248.6</ele>
        <time>2022-09-06T11:16:11Z</time>
      </trkpt>
      <trkpt lat="43.17329" lon="0.23825">
        <ele>248.6</ele>
        <time>2022-09-06T11:16:14Z</time>
      </trkpt>
      <trkpt lat="43.17324" lon="0.23808">
        <ele>248.8</ele>
        <time>2022-09-06T11:16:17Z</time>
      </trkpt>
      <trkpt lat="43.1732" lon="0.23778">
        <ele>249.6</ele>
        <time>2022-09-06T11:16:23Z</time>
      </trkpt>
      <trkpt lat="43.17321" lon="0.23759">
        <ele>250</ele>
        <time>2022-09-06T11:16:27Z</time>
      </trkpt>
      <trkpt lat="43.17323" lon="0.23744">
        <ele>250.2</ele>
        <time>2022-09-06T11:16:30Z</time>
      </trkpt>
      <trkpt lat="43.17331" lon="0.23714">
        <ele>250.4</ele>
        <time>2022-09-06T11:16:37Z</time>
      </trkpt>
      <trkpt lat="43.17348" lon="0.23688">
        <ele>250.8</ele>
        <time>2022-09-06T11:16:44Z</time>
      </trkpt>
      <trkpt lat="43.17366" lon="0.23661">
        <ele>250.8</ele>
        <time>2022-09-06T11:16:51Z</time>
      </trkpt>
      <trkpt lat="43.1738" lon="0.2364">
        <ele>251</ele>
        <time>2022-09-06T11:16:56Z</time>
      </trkpt>
      <trkpt lat="43.17387" lon="0.23627">
        <ele>251</ele>
        <time>2022-09-06T11:16:59Z</time>
      </trkpt>
      <trkpt lat="43.17407" lon="0.23588">
        <ele>251</ele>
        <time>2022-09-06T11:17:08Z</time>
      </trkpt>
      <trkpt lat="43.17419" lon="0.23563">
        <ele>252</ele>
        <time>2022-09-06T11:17:14Z</time>
      </trkpt>
      <trkpt lat="43.17424" lon="0.23552">
        <ele>252.6</ele>
        <time>2022-09-06T11:17:17Z</time>
      </trkpt>
      <trkpt lat="43.17427" lon="0.23545">
        <ele>253</ele>
        <time>2022-09-06T11:17:19Z</time>
      </trkpt>
      <trkpt lat="43.17435" lon="0.23528">
        <ele>254.2</ele>
        <time>2022-09-06T11:17:25Z</time>
      </trkpt>
      <trkpt lat="43.17436" lon="0.23525">
        <ele>254.2</ele>
        <time>2022-09-06T11:17:26Z</time>
      </trkpt>
      <trkpt lat="43.17443" lon="0.23511">
        <ele>255.2</ele>
        <time>2022-09-06T11:17:33Z</time>
      </trkpt>
      <trkpt lat="43.17444" lon="0.23504">
        <ele>255.6</ele>
        <time>2022-09-06T11:17:54Z</time>
      </trkpt>
      <trkpt lat="43.17445" lon="0.23501">
        <ele>255.8</ele>
        <time>2022-09-06T11:17:55Z</time>
      </trkpt>
      <trkpt lat="43.17447" lon="0.23496">
        <ele>256.2</ele>
        <time>2022-09-06T11:17:57Z</time>
      </trkpt>
      <trkpt lat="43.17454" lon="0.23484">
        <ele>256.8</ele>
        <time>2022-09-06T11:18:02Z</time>
      </trkpt>
      <trkpt lat="43.17457" lon="0.23477">
        <ele>257.2</ele>
        <time>2022-09-06T11:18:05Z</time>
      </trkpt>
      <trkpt lat="43.17463" lon="0.23463">
        <ele>258.2</ele>
        <time>2022-09-06T11:18:11Z</time>
      </trkpt>
      <trkpt lat="43.17464" lon="0.23461">
        <ele>258.4</ele>
        <time>2022-09-06T11:18:12Z</time>
      </trkpt>
      <trkpt lat="43.17469" lon="0.23449">
        <ele>259.2</ele>
        <time>2022-09-06T11:18:17Z</time>
      </trkpt>
      <trkpt lat="43.1747" lon="0.23447">
        <ele>259.4</ele>
        <time>2022-09-06T11:18:18Z</time>
      </trkpt>
      <trkpt lat="43.17474" lon="0.23438">
        <ele>260.8</ele>
        <time>2022-09-06T11:18:22Z</time>
      </trkpt>
      <trkpt lat="43.17477" lon="0.23432">
        <ele>261.2</ele>
        <time>2022-09-06T11:18:25Z</time>
      </trkpt>
      <trkpt lat="43.17479" lon="0.23428">
        <ele>261.8</ele>
        <time>2022-09-06T11:18:27Z</time>
      </trkpt>
      <trkpt lat="43.17483" lon="0.23417">
        <ele>263</ele>
        <time>2022-09-06T11:18:32Z</time>
      </trkpt>
      <trkpt lat="43.17484" lon="0.23415">
        <ele>263</ele>
        <time>2022-09-06T11:18:33Z</time>
      </trkpt>
      <trkpt lat="43.17488" lon="0.23405">
        <ele>264.2</ele>
        <time>2022-09-06T11:18:38Z</time>
      </trkpt>
      <trkpt lat="43.17489" lon="0.23401">
        <ele>264.4</ele>
        <time>2022-09-06T11:18:40Z</time>
      </trkpt>
      <trkpt lat="43.17491" lon="0.2339">
        <ele>265.4</ele>
        <time>2022-09-06T11:18:46Z</time>
      </trkpt>
      <trkpt lat="43.17493" lon="0.23385">
        <ele>266</ele>
        <time>2022-09-06T11:18:49Z</time>
      </trkpt>
      <trkpt lat="43.17494" lon="0.23379">
        <ele>266.4</ele>
        <time>2022-09-06T11:18:52Z</time>
      </trkpt>
      <trkpt lat="43.17495" lon="0.23373">
        <ele>267</ele>
        <time>2022-09-06T11:18:55Z</time>
      </trkpt>
      <trkpt lat="43.17496" lon="0.23366">
        <ele>267.6</ele>
        <time>2022-09-06T11:18:58Z</time>
      </trkpt>
      <trkpt lat="43.17499" lon="0.23357">
        <ele>268.8</ele>
        <time>2022-09-06T11:19:03Z</time>
      </trkpt>
      <trkpt lat="43.175" lon="0.23353">
        <ele>269.2</ele>
        <time>2022-09-06T11:19:05Z</time>
      </trkpt>
      <trkpt lat="43.17502" lon="0.23347">
        <ele>270</ele>
        <time>2022-09-06T11:19:08Z</time>
      </trkpt>
      <trkpt lat="43.17506" lon="0.23336">
        <ele>271</ele>
        <time>2022-09-06T11:19:14Z</time>
      </trkpt>
      <trkpt lat="43.17509" lon="0.23325">
        <ele>271.4</ele>
        <time>2022-09-06T11:19:19Z</time>
      </trkpt>
      <trkpt lat="43.17515" lon="0.23304">
        <ele>271.6</ele>
        <time>2022-09-06T11:19:27Z</time>
      </trkpt>
      <trkpt lat="43.17523" lon="0.23281">
        <ele>270.8</ele>
        <time>2022-09-06T11:19:33Z</time>
      </trkpt>
      <trkpt lat="43.17526" lon="0.23271">
        <ele>269.8</ele>
        <time>2022-09-06T11:19:36Z</time>
      </trkpt>
      <trkpt lat="43.17526" lon="0.23265">
        <ele>269.8</ele>
        <time>2022-09-06T11:19:38Z</time>
      </trkpt>
      <trkpt lat="43.17525" lon="0.23262">
        <ele>269.6</ele>
        <time>2022-09-06T11:19:39Z</time>
      </trkpt>
      <trkpt lat="43.17519" lon="0.23253">
        <ele>269.6</ele>
        <time>2022-09-06T11:19:42Z</time>
      </trkpt>
      <trkpt lat="43.17513" lon="0.23245">
        <ele>270</ele>
        <time>2022-09-06T11:19:45Z</time>
      </trkpt>
      <trkpt lat="43.175" lon="0.23235">
        <ele>271</ele>
        <time>2022-09-06T11:19:50Z</time>
      </trkpt>
      <trkpt lat="43.17492" lon="0.2323">
        <ele>271.6</ele>
        <time>2022-09-06T11:19:53Z</time>
      </trkpt>
      <trkpt lat="43.17485" lon="0.23224">
        <ele>272.2</ele>
        <time>2022-09-06T11:19:56Z</time>
      </trkpt>
      <trkpt lat="43.17475" lon="0.23217">
        <ele>273.2</ele>
        <time>2022-09-06T11:20:00Z</time>
      </trkpt>
      <trkpt lat="43.1747" lon="0.23213">
        <ele>273.6</ele>
        <time>2022-09-06T11:20:02Z</time>
      </trkpt>
      <trkpt lat="43.17468" lon="0.23211">
        <ele>273.8</ele>
        <time>2022-09-06T11:20:03Z</time>
      </trkpt>
      <trkpt lat="43.17461" lon="0.23206">
        <ele>274.4</ele>
        <time>2022-09-06T11:20:06Z</time>
      </trkpt>
      <trkpt lat="43.17452" lon="0.23199">
        <ele>275</ele>
        <time>2022-09-06T11:20:10Z</time>
      </trkpt>
      <trkpt lat="43.17445" lon="0.23193">
        <ele>275.6</ele>
        <time>2022-09-06T11:20:13Z</time>
      </trkpt>
      <trkpt lat="43.17436" lon="0.23186">
        <ele>276</ele>
        <time>2022-09-06T11:20:17Z</time>
      </trkpt>
      <trkpt lat="43.17422" lon="0.23174">
        <ele>276.6</ele>
        <time>2022-09-06T11:20:23Z</time>
      </trkpt>
      <trkpt lat="43.17415" lon="0.23167">
        <ele>277</ele>
        <time>2022-09-06T11:20:26Z</time>
      </trkpt>
      <trkpt lat="43.17391" lon="0.23144">
        <ele>277.4</ele>
        <time>2022-09-06T11:20:36Z</time>
      </trkpt>
      <trkpt lat="43.1738" lon="0.23133">
        <ele>277.6</ele>
        <time>2022-09-06T11:20:41Z</time>
      </trkpt>
      <trkpt lat="43.17374" lon="0.23125">
        <ele>277.8</ele>
        <time>2022-09-06T11:20:44Z</time>
      </trkpt>
      <trkpt lat="43.17357" lon="0.23102">
        <ele>278.6</ele>
        <time>2022-09-06T11:20:52Z</time>
      </trkpt>
      <trkpt lat="43.17355" lon="0.23099">
        <ele>278.6</ele>
        <time>2022-09-06T11:20:53Z</time>
      </trkpt>
      <trkpt lat="43.17337" lon="0.23068">
        <ele>279.4</ele>
        <time>2022-09-06T11:21:02Z</time>
      </trkpt>
      <trkpt lat="43.17332" lon="0.23052">
        <ele>279.8</ele>
        <time>2022-09-06T11:21:06Z</time>
      </trkpt>
      <trkpt lat="43.17327" lon="0.23037">
        <ele>280.6</ele>
        <time>2022-09-06T11:21:10Z</time>
      </trkpt>
      <trkpt lat="43.17325" lon="0.23029">
        <ele>280.8</ele>
        <time>2022-09-06T11:21:12Z</time>
      </trkpt>
      <trkpt lat="43.17315" lon="0.23005">
        <ele>281.8</ele>
        <time>2022-09-06T11:21:19Z</time>
      </trkpt>
      <trkpt lat="43.17315" lon="0.23002">
        <ele>282</ele>
        <time>2022-09-06T11:21:20Z</time>
      </trkpt>
      <trkpt lat="43.17311" lon="0.22991">
        <ele>282.4</ele>
        <time>2022-09-06T11:21:25Z</time>
      </trkpt>
      <trkpt lat="43.17311" lon="0.22989">
        <ele>282.4</ele>
        <time>2022-09-06T11:21:26Z</time>
      </trkpt>
      <trkpt lat="43.17295" lon="0.22962">
        <ele>286.4</ele>
        <time>2022-09-06T12:20:26Z</time>
      </trkpt>
      <trkpt lat="43.17288" lon="0.22954">
        <ele>286.6</ele>
        <time>2022-09-06T12:20:31Z</time>
      </trkpt>
      <trkpt lat="43.17277" lon="0.22941">
        <ele>287</ele>
        <time>2022-09-06T12:20:39Z</time>
      </trkpt>
      <trkpt lat="43.17267" lon="0.22932">
        <ele>287.4</ele>
        <time>2022-09-06T12:20:46Z</time>
      </trkpt>
      <trkpt lat="43.17265" lon="0.22931">
        <ele>287.4</ele>
        <time>2022-09-06T12:20:47Z</time>
      </trkpt>
      <trkpt lat="43.17253" lon="0.22922">
        <ele>287.8</ele>
        <time>2022-09-06T12:20:55Z</time>
      </trkpt>
      <trkpt lat="43.17244" lon="0.22916">
        <ele>288.4</ele>
        <time>2022-09-06T12:21:01Z</time>
      </trkpt>
      <trkpt lat="43.17242" lon="0.22915">
        <ele>288.4</ele>
        <time>2022-09-06T12:21:02Z</time>
      </trkpt>
      <trkpt lat="43.17227" lon="0.22904">
        <ele>289.2</ele>
        <time>2022-09-06T12:21:11Z</time>
      </trkpt>
      <trkpt lat="43.17219" lon="0.22897">
        <ele>289.4</ele>
        <time>2022-09-06T12:21:15Z</time>
      </trkpt>
      <trkpt lat="43.17213" lon="0.2289">
        <ele>289.8</ele>
        <time>2022-09-06T12:21:18Z</time>
      </trkpt>
      <trkpt lat="43.17208" lon="0.2288">
        <ele>290.6</ele>
        <time>2022-09-06T12:21:22Z</time>
      </trkpt>
      <trkpt lat="43.172" lon="0.22865">
        <ele>291.4</ele>
        <time>2022-09-06T12:21:28Z</time>
      </trkpt>
      <trkpt lat="43.17198" lon="0.2286">
        <ele>291.6</ele>
        <time>2022-09-06T12:21:30Z</time>
      </trkpt>
      <trkpt lat="43.17185" lon="0.22841">
        <ele>292.4</ele>
        <time>2022-09-06T12:21:38Z</time>
      </trkpt>
      <trkpt lat="43.17183" lon="0.22836">
        <ele>292.8</ele>
        <time>2022-09-06T12:21:40Z</time>
      </trkpt>
      <trkpt lat="43.17172" lon="0.22819">
        <ele>293.8</ele>
        <time>2022-09-06T12:21:47Z</time>
      </trkpt>
      <trkpt lat="43.17169" lon="0.22814">
        <ele>294.2</ele>
        <time>2022-09-06T12:21:49Z</time>
      </trkpt>
      <trkpt lat="43.1716" lon="0.228">
        <ele>294.8</ele>
        <time>2022-09-06T12:21:55Z</time>
      </trkpt>
      <trkpt lat="43.17157" lon="0.22795">
        <ele>295.2</ele>
        <time>2022-09-06T12:21:57Z</time>
      </trkpt>
      <trkpt lat="43.17146" lon="0.22781">
        <ele>296</ele>
        <time>2022-09-06T12:22:03Z</time>
      </trkpt>
      <trkpt lat="43.17141" lon="0.22775">
        <ele>296.4</ele>
        <time>2022-09-06T12:22:06Z</time>
      </trkpt>
      <trkpt lat="43.1714" lon="0.22773">
        <ele>296.6</ele>
        <time>2022-09-06T12:22:07Z</time>
      </trkpt>
      <trkpt lat="43.17131" lon="0.22762">
        <ele>297</ele>
        <time>2022-09-06T12:22:12Z</time>
      </trkpt>
      <trkpt lat="43.17125" lon="0.22755">
        <ele>297.4</ele>
        <time>2022-09-06T12:22:15Z</time>
      </trkpt>
      <trkpt lat="43.17114" lon="0.2274">
        <ele>298</ele>
        <time>2022-09-06T12:22:21Z</time>
      </trkpt>
      <trkpt lat="43.17106" lon="0.22731">
        <ele>298.2</ele>
        <time>2022-09-06T12:22:25Z</time>
      </trkpt>
      <trkpt lat="43.17088" lon="0.22707">
        <ele>299.2</ele>
        <time>2022-09-06T12:22:34Z</time>
      </trkpt>
      <trkpt lat="43.17086" lon="0.22704">
        <ele>299.4</ele>
        <time>2022-09-06T12:22:35Z</time>
      </trkpt>
      <trkpt lat="43.1707" lon="0.22674">
        <ele>299.4</ele>
        <time>2022-09-06T12:22:45Z</time>
      </trkpt>
      <trkpt lat="43.1706" lon="0.22648">
        <ele>299.6</ele>
        <time>2022-09-06T12:22:53Z</time>
      </trkpt>
      <trkpt lat="43.17053" lon="0.2263">
        <ele>299.8</ele>
        <time>2022-09-06T12:22:58Z</time>
      </trkpt>
      <trkpt lat="43.17048" lon="0.22619">
        <ele>299.8</ele>
        <time>2022-09-06T12:23:01Z</time>
      </trkpt>
      <trkpt lat="43.17039" lon="0.22597">
        <ele>300.4</ele>
        <time>2022-09-06T12:23:07Z</time>
      </trkpt>
      <trkpt lat="43.17037" lon="0.22593">
        <ele>300.4</ele>
        <time>2022-09-06T12:23:08Z</time>
      </trkpt>
      <trkpt lat="43.17022" lon="0.22565">
        <ele>301.2</ele>
        <time>2022-09-06T12:23:16Z</time>
      </trkpt>
      <trkpt lat="43.17019" lon="0.22557">
        <ele>301.4</ele>
        <time>2022-09-06T12:23:18Z</time>
      </trkpt>
      <trkpt lat="43.1701" lon="0.2254">
        <ele>301.6</ele>
        <time>2022-09-06T12:23:23Z</time>
      </trkpt>
      <trkpt lat="43.16994" lon="0.2252">
        <ele>302</ele>
        <time>2022-09-06T12:23:30Z</time>
      </trkpt>
      <trkpt lat="43.16985" lon="0.22508">
        <ele>302.4</ele>
        <time>2022-09-06T12:23:34Z</time>
      </trkpt>
      <trkpt lat="43.16983" lon="0.22505">
        <ele>302.4</ele>
        <time>2022-09-06T12:23:35Z</time>
      </trkpt>
      <trkpt lat="43.16977" lon="0.22498">
        <ele>302.6</ele>
        <time>2022-09-06T12:23:37Z</time>
      </trkpt>
      <trkpt lat="43.16964" lon="0.22468">
        <ele>303.4</ele>
        <time>2022-09-06T12:23:44Z</time>
      </trkpt>
      <trkpt lat="43.16963" lon="0.22463">
        <ele>303.4</ele>
        <time>2022-09-06T12:23:45Z</time>
      </trkpt>
      <trkpt lat="43.16959" lon="0.22439">
        <ele>304.2</ele>
        <time>2022-09-06T12:23:50Z</time>
      </trkpt>
      <trkpt lat="43.16957" lon="0.2243">
        <ele>304.6</ele>
        <time>2022-09-06T12:23:52Z</time>
      </trkpt>
      <trkpt lat="43.1695" lon="0.22403">
        <ele>305.2</ele>
        <time>2022-09-06T12:23:58Z</time>
      </trkpt>
      <trkpt lat="43.16942" lon="0.22386">
        <ele>305.6</ele>
        <time>2022-09-06T12:24:02Z</time>
      </trkpt>
      <trkpt lat="43.16924" lon="0.2236">
        <ele>306.2</ele>
        <time>2022-09-06T12:24:09Z</time>
      </trkpt>
      <trkpt lat="43.16917" lon="0.22347">
        <ele>306.6</ele>
        <time>2022-09-06T12:24:12Z</time>
      </trkpt>
      <trkpt lat="43.1691" lon="0.22336">
        <ele>306.6</ele>
        <time>2022-09-06T12:24:15Z</time>
      </trkpt>
      <trkpt lat="43.16906" lon="0.22328">
        <ele>307</ele>
        <time>2022-09-06T12:24:17Z</time>
      </trkpt>
      <trkpt lat="43.16895" lon="0.22312">
        <ele>307.6</ele>
        <time>2022-09-06T12:24:21Z</time>
      </trkpt>
      <trkpt lat="43.16888" lon="0.223">
        <ele>307.6</ele>
        <time>2022-09-06T12:24:24Z</time>
      </trkpt>
      <trkpt lat="43.16872" lon="0.2228">
        <ele>307.8</ele>
        <time>2022-09-06T12:24:31Z</time>
      </trkpt>
      <trkpt lat="43.1686" lon="0.22256">
        <ele>307.4</ele>
        <time>2022-09-06T12:24:37Z</time>
      </trkpt>
      <trkpt lat="43.16854" lon="0.22222">
        <ele>306.6</ele>
        <time>2022-09-06T12:24:42Z</time>
      </trkpt>
      <trkpt lat="43.16848" lon="0.22197">
        <ele>306.2</ele>
        <time>2022-09-06T12:24:45Z</time>
      </trkpt>
      <trkpt lat="43.16843" lon="0.22176">
        <ele>305.6</ele>
        <time>2022-09-06T12:24:47Z</time>
      </trkpt>
      <trkpt lat="43.16836" lon="0.22145">
        <ele>304.2</ele>
        <time>2022-09-06T12:24:51Z</time>
      </trkpt>
      <trkpt lat="43.16832" lon="0.22125">
        <ele>302.8</ele>
        <time>2022-09-06T12:24:53Z</time>
      </trkpt>
      <trkpt lat="43.16829" lon="0.22116">
        <ele>302.4</ele>
        <time>2022-09-06T12:24:54Z</time>
      </trkpt>
      <trkpt lat="43.16818" lon="0.221">
        <ele>301.8</ele>
        <time>2022-09-06T12:24:56Z</time>
      </trkpt>
      <trkpt lat="43.16801" lon="0.22091">
        <ele>300.2</ele>
        <time>2022-09-06T12:24:59Z</time>
      </trkpt>
      <trkpt lat="43.16789" lon="0.22087">
        <ele>299</ele>
        <time>2022-09-06T12:25:01Z</time>
      </trkpt>
      <trkpt lat="43.16785" lon="0.2208">
        <ele>298.4</ele>
        <time>2022-09-06T12:25:02Z</time>
      </trkpt>
      <trkpt lat="43.16785" lon="0.22064">
        <ele>297.8</ele>
        <time>2022-09-06T12:25:04Z</time>
      </trkpt>
      <trkpt lat="43.16791" lon="0.22048">
        <ele>297.2</ele>
        <time>2022-09-06T12:25:06Z</time>
      </trkpt>
      <trkpt lat="43.16795" lon="0.22028">
        <ele>296.6</ele>
        <time>2022-09-06T12:25:08Z</time>
      </trkpt>
      <trkpt lat="43.16792" lon="0.21992">
        <ele>295.6</ele>
        <time>2022-09-06T12:25:11Z</time>
      </trkpt>
      <trkpt lat="43.16783" lon="0.21953">
        <ele>294.4</ele>
        <time>2022-09-06T12:25:14Z</time>
      </trkpt>
      <trkpt lat="43.16778" lon="0.2194">
        <ele>294.4</ele>
        <time>2022-09-06T12:25:15Z</time>
      </trkpt>
      <trkpt lat="43.16767" lon="0.21914">
        <ele>292.4</ele>
        <time>2022-09-06T12:25:17Z</time>
      </trkpt>
      <trkpt lat="43.16757" lon="0.21887">
        <ele>291.2</ele>
        <time>2022-09-06T12:25:19Z</time>
      </trkpt>
      <trkpt lat="43.16747" lon="0.2186">
        <ele>290</ele>
        <time>2022-09-06T12:25:21Z</time>
      </trkpt>
      <trkpt lat="43.16737" lon="0.21831">
        <ele>288.6</ele>
        <time>2022-09-06T12:25:23Z</time>
      </trkpt>
      <trkpt lat="43.16731" lon="0.21805">
        <ele>287</ele>
        <time>2022-09-06T12:25:25Z</time>
      </trkpt>
      <trkpt lat="43.16728" lon="0.21793">
        <ele>286.4</ele>
        <time>2022-09-06T12:25:26Z</time>
      </trkpt>
      <trkpt lat="43.16726" lon="0.21769">
        <ele>285.4</ele>
        <time>2022-09-06T12:25:28Z</time>
      </trkpt>
      <trkpt lat="43.16726" lon="0.21757">
        <ele>285</ele>
        <time>2022-09-06T12:25:29Z</time>
      </trkpt>
      <trkpt lat="43.16726" lon="0.21744">
        <ele>284.4</ele>
        <time>2022-09-06T12:25:30Z</time>
      </trkpt>
      <trkpt lat="43.16733" lon="0.21717">
        <ele>282.8</ele>
        <time>2022-09-06T12:25:32Z</time>
      </trkpt>
      <trkpt lat="43.16744" lon="0.21692">
        <ele>281</ele>
        <time>2022-09-06T12:25:34Z</time>
      </trkpt>
      <trkpt lat="43.16751" lon="0.2168">
        <ele>280.6</ele>
        <time>2022-09-06T12:25:35Z</time>
      </trkpt>
      <trkpt lat="43.16767" lon="0.21658">
        <ele>279.6</ele>
        <time>2022-09-06T12:25:37Z</time>
      </trkpt>
      <trkpt lat="43.16791" lon="0.21625">
        <ele>278.2</ele>
        <time>2022-09-06T12:25:40Z</time>
      </trkpt>
      <trkpt lat="43.16807" lon="0.21602">
        <ele>277</ele>
        <time>2022-09-06T12:25:42Z</time>
      </trkpt>
      <trkpt lat="43.16823" lon="0.2158">
        <ele>276</ele>
        <time>2022-09-06T12:25:44Z</time>
      </trkpt>
      <trkpt lat="43.16845" lon="0.21549">
        <ele>274.8</ele>
        <time>2022-09-06T12:25:47Z</time>
      </trkpt>
      <trkpt lat="43.16869" lon="0.21512">
        <ele>274.6</ele>
        <time>2022-09-06T12:25:51Z</time>
      </trkpt>
      <trkpt lat="43.16873" lon="0.21503">
        <ele>274.6</ele>
        <time>2022-09-06T12:25:52Z</time>
      </trkpt>
      <trkpt lat="43.16879" lon="0.21475">
        <ele>274.6</ele>
        <time>2022-09-06T12:25:55Z</time>
      </trkpt>
      <trkpt lat="43.16879" lon="0.21449">
        <ele>275</ele>
        <time>2022-09-06T12:25:58Z</time>
      </trkpt>
      <trkpt lat="43.16878" lon="0.21441">
        <ele>275.4</ele>
        <time>2022-09-06T12:25:59Z</time>
      </trkpt>
      <trkpt lat="43.16869" lon="0.21408">
        <ele>275.4</ele>
        <time>2022-09-06T12:26:04Z</time>
      </trkpt>
      <trkpt lat="43.16868" lon="0.21402">
        <ele>275.8</ele>
        <time>2022-09-06T12:26:05Z</time>
      </trkpt>
      <trkpt lat="43.16867" lon="0.21397">
        <ele>276</ele>
        <time>2022-09-06T12:26:06Z</time>
      </trkpt>
      <trkpt lat="43.1686" lon="0.21371">
        <ele>276.4</ele>
        <time>2022-09-06T12:26:11Z</time>
      </trkpt>
      <trkpt lat="43.16855" lon="0.21352">
        <ele>277</ele>
        <time>2022-09-06T12:26:15Z</time>
      </trkpt>
      <trkpt lat="43.16848" lon="0.21331">
        <ele>277.6</ele>
        <time>2022-09-06T12:26:20Z</time>
      </trkpt>
      <trkpt lat="43.16846" lon="0.21324">
        <ele>278</ele>
        <time>2022-09-06T12:26:22Z</time>
      </trkpt>
      <trkpt lat="43.16841" lon="0.21305">
        <ele>278.4</ele>
        <time>2022-09-06T12:26:27Z</time>
      </trkpt>
      <trkpt lat="43.16837" lon="0.21286">
        <ele>279</ele>
        <time>2022-09-06T12:26:32Z</time>
      </trkpt>
      <trkpt lat="43.16834" lon="0.21263">
        <ele>279.4</ele>
        <time>2022-09-06T12:26:38Z</time>
      </trkpt>
      <trkpt lat="43.1683" lon="0.21241">
        <ele>279.8</ele>
        <time>2022-09-06T12:26:45Z</time>
      </trkpt>
      <trkpt lat="43.16829" lon="0.21233">
        <ele>280.2</ele>
        <time>2022-09-06T12:26:49Z</time>
      </trkpt>
      <trkpt lat="43.16828" lon="0.21229">
        <ele>280.2</ele>
        <time>2022-09-06T12:26:51Z</time>
      </trkpt>
      <trkpt lat="43.16823" lon="0.21212">
        <ele>281</ele>
        <time>2022-09-06T12:26:58Z</time>
      </trkpt>
      <trkpt lat="43.16822" lon="0.2121">
        <ele>281.2</ele>
        <time>2022-09-06T12:26:59Z</time>
      </trkpt>
      <trkpt lat="43.16816" lon="0.21191">
        <ele>282.2</ele>
        <time>2022-09-06T12:27:07Z</time>
      </trkpt>
      <trkpt lat="43.16814" lon="0.21188">
        <ele>282.2</ele>
        <time>2022-09-06T12:27:08Z</time>
      </trkpt>
      <trkpt lat="43.16807" lon="0.21177">
        <ele>283</ele>
        <time>2022-09-06T12:27:14Z</time>
      </trkpt>
      <trkpt lat="43.16805" lon="0.21172">
        <ele>283.4</ele>
        <time>2022-09-06T12:27:16Z</time>
      </trkpt>
      <trkpt lat="43.16798" lon="0.21162">
        <ele>284.4</ele>
        <time>2022-09-06T12:27:21Z</time>
      </trkpt>
      <trkpt lat="43.16783" lon="0.21144">
        <ele>285.4</ele>
        <time>2022-09-06T12:27:31Z</time>
      </trkpt>
      <trkpt lat="43.16781" lon="0.2114">
        <ele>285.4</ele>
        <time>2022-09-06T12:27:33Z</time>
      </trkpt>
      <trkpt lat="43.16776" lon="0.21131">
        <ele>286</ele>
        <time>2022-09-06T12:27:37Z</time>
      </trkpt>
      <trkpt lat="43.1677" lon="0.21123">
        <ele>286.6</ele>
        <time>2022-09-06T12:27:41Z</time>
      </trkpt>
      <trkpt lat="43.16763" lon="0.21116">
        <ele>286.8</ele>
        <time>2022-09-06T12:27:45Z</time>
      </trkpt>
      <trkpt lat="43.16755" lon="0.21105">
        <ele>287.8</ele>
        <time>2022-09-06T12:27:51Z</time>
      </trkpt>
      <trkpt lat="43.1675" lon="0.21099">
        <ele>287.8</ele>
        <time>2022-09-06T12:27:54Z</time>
      </trkpt>
      <trkpt lat="43.16741" lon="0.21088">
        <ele>288.8</ele>
        <time>2022-09-06T12:28:00Z</time>
      </trkpt>
      <trkpt lat="43.16737" lon="0.21083">
        <ele>289</ele>
        <time>2022-09-06T12:28:03Z</time>
      </trkpt>
      <trkpt lat="43.16729" lon="0.21073">
        <ele>289.8</ele>
        <time>2022-09-06T12:28:08Z</time>
      </trkpt>
      <trkpt lat="43.16724" lon="0.21065">
        <ele>290.4</ele>
        <time>2022-09-06T12:28:12Z</time>
      </trkpt>
      <trkpt lat="43.16714" lon="0.21051">
        <ele>291</ele>
        <time>2022-09-06T12:28:19Z</time>
      </trkpt>
      <trkpt lat="43.16713" lon="0.21049">
        <ele>291</ele>
        <time>2022-09-06T12:28:20Z</time>
      </trkpt>
      <trkpt lat="43.16702" lon="0.21038">
        <ele>291.8</ele>
        <time>2022-09-06T12:28:26Z</time>
      </trkpt>
      <trkpt lat="43.16701" lon="0.21036">
        <ele>292</ele>
        <time>2022-09-06T12:28:27Z</time>
      </trkpt>
      <trkpt lat="43.16695" lon="0.21023">
        <ele>293.2</ele>
        <time>2022-09-06T12:28:32Z</time>
      </trkpt>
      <trkpt lat="43.16687" lon="0.21007">
        <ele>294.4</ele>
        <time>2022-09-06T12:28:39Z</time>
      </trkpt>
      <trkpt lat="43.16676" lon="0.20995">
        <ele>295.2</ele>
        <time>2022-09-06T12:28:46Z</time>
      </trkpt>
      <trkpt lat="43.16674" lon="0.2099">
        <ele>295.4</ele>
        <time>2022-09-06T12:28:48Z</time>
      </trkpt>
      <trkpt lat="43.16667" lon="0.20981">
        <ele>296</ele>
        <time>2022-09-06T12:28:53Z</time>
      </trkpt>
      <trkpt lat="43.16662" lon="0.20974">
        <ele>296.6</ele>
        <time>2022-09-06T12:28:57Z</time>
      </trkpt>
      <trkpt lat="43.16654" lon="0.20967">
        <ele>297</ele>
        <time>2022-09-06T12:29:02Z</time>
      </trkpt>
      <trkpt lat="43.16646" lon="0.20961">
        <ele>297.6</ele>
        <time>2022-09-06T12:29:07Z</time>
      </trkpt>
      <trkpt lat="43.16643" lon="0.20958">
        <ele>297.8</ele>
        <time>2022-09-06T12:29:09Z</time>
      </trkpt>
      <trkpt lat="43.16635" lon="0.20953">
        <ele>298.6</ele>
        <time>2022-09-06T12:29:14Z</time>
      </trkpt>
      <trkpt lat="43.16627" lon="0.20947">
        <ele>299.2</ele>
        <time>2022-09-06T12:29:18Z</time>
      </trkpt>
      <trkpt lat="43.16624" lon="0.20944">
        <ele>299.6</ele>
        <time>2022-09-06T12:29:20Z</time>
      </trkpt>
      <trkpt lat="43.16616" lon="0.20931">
        <ele>300</ele>
        <time>2022-09-06T12:29:26Z</time>
      </trkpt>
      <trkpt lat="43.16606" lon="0.20921">
        <ele>300.8</ele>
        <time>2022-09-06T12:29:32Z</time>
      </trkpt>
      <trkpt lat="43.16604" lon="0.2092">
        <ele>301</ele>
        <time>2022-09-06T12:29:33Z</time>
      </trkpt>
      <trkpt lat="43.16588" lon="0.20906">
        <ele>301.8</ele>
        <time>2022-09-06T12:29:42Z</time>
      </trkpt>
      <trkpt lat="43.16586" lon="0.20904">
        <ele>301.8</ele>
        <time>2022-09-06T12:29:43Z</time>
      </trkpt>
      <trkpt lat="43.16572" lon="0.20894">
        <ele>302.8</ele>
        <time>2022-09-06T12:29:51Z</time>
      </trkpt>
      <trkpt lat="43.1657" lon="0.20893">
        <ele>302.8</ele>
        <time>2022-09-06T12:29:52Z</time>
      </trkpt>
      <trkpt lat="43.16559" lon="0.20881">
        <ele>303.8</ele>
        <time>2022-09-06T12:29:59Z</time>
      </trkpt>
      <trkpt lat="43.16556" lon="0.20877">
        <ele>304</ele>
        <time>2022-09-06T12:30:01Z</time>
      </trkpt>
      <trkpt lat="43.16552" lon="0.20865">
        <ele>304.6</ele>
        <time>2022-09-06T12:30:06Z</time>
      </trkpt>
      <trkpt lat="43.16552" lon="0.20857">
        <ele>305</ele>
        <time>2022-09-06T12:30:09Z</time>
      </trkpt>
      <trkpt lat="43.16552" lon="0.20846">
        <ele>305.6</ele>
        <time>2022-09-06T12:30:13Z</time>
      </trkpt>
      <trkpt lat="43.16554" lon="0.20835">
        <ele>306</ele>
        <time>2022-09-06T12:30:17Z</time>
      </trkpt>
      <trkpt lat="43.16554" lon="0.2083">
        <ele>306.4</ele>
        <time>2022-09-06T12:30:19Z</time>
      </trkpt>
      <trkpt lat="43.16557" lon="0.2082">
        <ele>307.2</ele>
        <time>2022-09-06T12:30:23Z</time>
      </trkpt>
      <trkpt lat="43.16558" lon="0.20818">
        <ele>307.4</ele>
        <time>2022-09-06T12:30:24Z</time>
      </trkpt>
      <trkpt lat="43.16562" lon="0.20801">
        <ele>308</ele>
        <time>2022-09-06T12:30:30Z</time>
      </trkpt>
      <trkpt lat="43.16562" lon="0.20799">
        <ele>308.2</ele>
        <time>2022-09-06T12:30:31Z</time>
      </trkpt>
      <trkpt lat="43.16568" lon="0.20784">
        <ele>309.2</ele>
        <time>2022-09-06T12:30:37Z</time>
      </trkpt>
      <trkpt lat="43.16569" lon="0.20782">
        <ele>309.4</ele>
        <time>2022-09-06T12:30:38Z</time>
      </trkpt>
      <trkpt lat="43.16571" lon="0.20774">
        <ele>309.6</ele>
        <time>2022-09-06T12:30:42Z</time>
      </trkpt>
      <trkpt lat="43.16572" lon="0.2077">
        <ele>310</ele>
        <time>2022-09-06T12:30:44Z</time>
      </trkpt>
      <trkpt lat="43.16574" lon="0.20764">
        <ele>310.4</ele>
        <time>2022-09-06T12:30:47Z</time>
      </trkpt>
      <trkpt lat="43.16575" lon="0.20762">
        <ele>310.4</ele>
        <time>2022-09-06T12:30:48Z</time>
      </trkpt>
      <trkpt lat="43.16578" lon="0.20755">
        <ele>310.6</ele>
        <time>2022-09-06T12:30:51Z</time>
      </trkpt>
      <trkpt lat="43.16582" lon="0.2074">
        <ele>311.4</ele>
        <time>2022-09-06T12:30:57Z</time>
      </trkpt>
      <trkpt lat="43.16584" lon="0.20733">
        <ele>311.8</ele>
        <time>2022-09-06T12:31:00Z</time>
      </trkpt>
      <trkpt lat="43.16588" lon="0.20718">
        <ele>312.6</ele>
        <time>2022-09-06T12:31:06Z</time>
      </trkpt>
      <trkpt lat="43.16589" lon="0.20715">
        <ele>312.6</ele>
        <time>2022-09-06T12:31:07Z</time>
      </trkpt>
      <trkpt lat="43.16593" lon="0.20694">
        <ele>313.6</ele>
        <time>2022-09-06T12:31:15Z</time>
      </trkpt>
      <trkpt lat="43.16596" lon="0.20675">
        <ele>314.6</ele>
        <time>2022-09-06T12:31:22Z</time>
      </trkpt>
      <trkpt lat="43.16596" lon="0.2066">
        <ele>315.8</ele>
        <time>2022-09-06T12:31:28Z</time>
      </trkpt>
      <trkpt lat="43.16597" lon="0.20654">
        <ele>316</ele>
        <time>2022-09-06T12:31:30Z</time>
      </trkpt>
      <trkpt lat="43.16599" lon="0.20634">
        <ele>316.8</ele>
        <time>2022-09-06T12:31:37Z</time>
      </trkpt>
      <trkpt lat="43.16599" lon="0.20631">
        <ele>317</ele>
        <time>2022-09-06T12:31:38Z</time>
      </trkpt>
      <trkpt lat="43.16602" lon="0.20616">
        <ele>318</ele>
        <time>2022-09-06T12:31:43Z</time>
      </trkpt>
      <trkpt lat="43.16602" lon="0.20611">
        <ele>318.4</ele>
        <time>2022-09-06T12:31:45Z</time>
      </trkpt>
      <trkpt lat="43.16603" lon="0.206">
        <ele>318.8</ele>
        <time>2022-09-06T12:31:49Z</time>
      </trkpt>
      <trkpt lat="43.16605" lon="0.20596">
        <ele>319</ele>
        <time>2022-09-06T12:31:51Z</time>
      </trkpt>
      <trkpt lat="43.16605" lon="0.20593">
        <ele>319.2</ele>
        <time>2022-09-06T12:31:52Z</time>
      </trkpt>
      <trkpt lat="43.16605" lon="0.20583">
        <ele>319.8</ele>
        <time>2022-09-06T12:31:56Z</time>
      </trkpt>
      <trkpt lat="43.16607" lon="0.20576">
        <ele>320.2</ele>
        <time>2022-09-06T12:31:59Z</time>
      </trkpt>
      <trkpt lat="43.1661" lon="0.20566">
        <ele>320.8</ele>
        <time>2022-09-06T12:32:03Z</time>
      </trkpt>
      <trkpt lat="43.16612" lon="0.20555">
        <ele>321.2</ele>
        <time>2022-09-06T12:32:07Z</time>
      </trkpt>
      <trkpt lat="43.16613" lon="0.20547">
        <ele>321.6</ele>
        <time>2022-09-06T12:32:10Z</time>
      </trkpt>
      <trkpt lat="43.16618" lon="0.20532">
        <ele>322.2</ele>
        <time>2022-09-06T12:32:16Z</time>
      </trkpt>
      <trkpt lat="43.16618" lon="0.20529">
        <ele>322.4</ele>
        <time>2022-09-06T12:32:17Z</time>
      </trkpt>
      <trkpt lat="43.1662" lon="0.20514">
        <ele>323.4</ele>
        <time>2022-09-06T12:32:23Z</time>
      </trkpt>
      <trkpt lat="43.1662" lon="0.20512">
        <ele>323.4</ele>
        <time>2022-09-06T12:32:24Z</time>
      </trkpt>
      <trkpt lat="43.16621" lon="0.20511">
        <ele>323.6</ele>
        <time>2022-09-06T12:32:25Z</time>
      </trkpt>
      <trkpt lat="43.16623" lon="0.20502">
        <ele>324.4</ele>
        <time>2022-09-06T12:32:29Z</time>
      </trkpt>
      <trkpt lat="43.16624" lon="0.205">
        <ele>324.8</ele>
        <time>2022-09-06T12:32:30Z</time>
      </trkpt>
      <trkpt lat="43.16625" lon="0.20486">
        <ele>325.8</ele>
        <time>2022-09-06T12:32:36Z</time>
      </trkpt>
      <trkpt lat="43.16625" lon="0.20484">
        <ele>326</ele>
        <time>2022-09-06T12:32:37Z</time>
      </trkpt>
      <trkpt lat="43.16625" lon="0.20468">
        <ele>326.6</ele>
        <time>2022-09-06T12:32:44Z</time>
      </trkpt>
      <trkpt lat="43.16626" lon="0.2046">
        <ele>327</ele>
        <time>2022-09-06T12:32:47Z</time>
      </trkpt>
      <trkpt lat="43.16627" lon="0.20446">
        <ele>327.4</ele>
        <time>2022-09-06T12:32:52Z</time>
      </trkpt>
      <trkpt lat="43.16628" lon="0.20428">
        <ele>328</ele>
        <time>2022-09-06T12:32:58Z</time>
      </trkpt>
      <trkpt lat="43.16632" lon="0.20406">
        <ele>329</ele>
        <time>2022-09-06T12:33:06Z</time>
      </trkpt>
      <trkpt lat="43.16633" lon="0.20401">
        <ele>329</ele>
        <time>2022-09-06T12:33:08Z</time>
      </trkpt>
      <trkpt lat="43.16634" lon="0.20385">
        <ele>329.8</ele>
        <time>2022-09-06T12:33:14Z</time>
      </trkpt>
      <trkpt lat="43.16633" lon="0.20381">
        <ele>330</ele>
        <time>2022-09-06T12:33:16Z</time>
      </trkpt>
      <trkpt lat="43.16628" lon="0.20371">
        <ele>330.4</ele>
        <time>2022-09-06T12:33:20Z</time>
      </trkpt>
      <trkpt lat="43.16618" lon="0.20369">
        <ele>330.8</ele>
        <time>2022-09-06T12:33:26Z</time>
      </trkpt>
      <trkpt lat="43.16613" lon="0.20383">
        <ele>331.2</ele>
        <time>2022-09-06T12:33:31Z</time>
      </trkpt>
      <trkpt lat="43.1661" lon="0.204">
        <ele>332.2</ele>
        <time>2022-09-06T12:33:37Z</time>
      </trkpt>
      <trkpt lat="43.16609" lon="0.20403">
        <ele>332.2</ele>
        <time>2022-09-06T12:33:38Z</time>
      </trkpt>
      <trkpt lat="43.16603" lon="0.20417">
        <ele>333</ele>
        <time>2022-09-06T12:33:44Z</time>
      </trkpt>
      <trkpt lat="43.16603" lon="0.20418">
        <ele>333.2</ele>
        <time>2022-09-06T12:33:45Z</time>
      </trkpt>
      <trkpt lat="43.16602" lon="0.20421">
        <ele>333.4</ele>
        <time>2022-09-06T12:33:46Z</time>
      </trkpt>
      <trkpt lat="43.16599" lon="0.20435">
        <ele>333.8</ele>
        <time>2022-09-06T12:33:51Z</time>
      </trkpt>
      <trkpt lat="43.16595" lon="0.20447">
        <ele>334.2</ele>
        <time>2022-09-06T12:33:55Z</time>
      </trkpt>
      <trkpt lat="43.16594" lon="0.20449">
        <ele>334.4</ele>
        <time>2022-09-06T12:33:56Z</time>
      </trkpt>
      <trkpt lat="43.16592" lon="0.20454">
        <ele>334.6</ele>
        <time>2022-09-06T12:33:58Z</time>
      </trkpt>
      <trkpt lat="43.16584" lon="0.20469">
        <ele>335.4</ele>
        <time>2022-09-06T12:34:04Z</time>
      </trkpt>
      <trkpt lat="43.16583" lon="0.20471">
        <ele>335.4</ele>
        <time>2022-09-06T12:34:05Z</time>
      </trkpt>
      <trkpt lat="43.16576" lon="0.20484">
        <ele>336.2</ele>
        <time>2022-09-06T12:34:11Z</time>
      </trkpt>
      <trkpt lat="43.16572" lon="0.20489">
        <ele>336.6</ele>
        <time>2022-09-06T12:34:14Z</time>
      </trkpt>
      <trkpt lat="43.16568" lon="0.20497">
        <ele>337.2</ele>
        <time>2022-09-06T12:34:18Z</time>
      </trkpt>
      <trkpt lat="43.16565" lon="0.20503">
        <ele>337.6</ele>
        <time>2022-09-06T12:34:21Z</time>
      </trkpt>
      <trkpt lat="43.16559" lon="0.2051">
        <ele>338</ele>
        <time>2022-09-06T12:34:25Z</time>
      </trkpt>
      <trkpt lat="43.16554" lon="0.20521">
        <ele>338.6</ele>
        <time>2022-09-06T12:34:30Z</time>
      </trkpt>
      <trkpt lat="43.16553" lon="0.20523">
        <ele>338.8</ele>
        <time>2022-09-06T12:34:31Z</time>
      </trkpt>
      <trkpt lat="43.16547" lon="0.20534">
        <ele>339.4</ele>
        <time>2022-09-06T12:34:37Z</time>
      </trkpt>
      <trkpt lat="43.16545" lon="0.20538">
        <ele>339.6</ele>
        <time>2022-09-06T12:34:39Z</time>
      </trkpt>
      <trkpt lat="43.16542" lon="0.20545">
        <ele>340.2</ele>
        <time>2022-09-06T12:34:43Z</time>
      </trkpt>
      <trkpt lat="43.1654" lon="0.20554">
        <ele>340.8</ele>
        <time>2022-09-06T12:34:47Z</time>
      </trkpt>
      <trkpt lat="43.16538" lon="0.20555">
        <ele>341</ele>
        <time>2022-09-06T12:34:48Z</time>
      </trkpt>
      <trkpt lat="43.16536" lon="0.20557">
        <ele>341</ele>
        <time>2022-09-06T12:34:49Z</time>
      </trkpt>
      <trkpt lat="43.16528" lon="0.20573">
        <ele>341.8</ele>
        <time>2022-09-06T12:34:56Z</time>
      </trkpt>
      <trkpt lat="43.16527" lon="0.20575">
        <ele>342</ele>
        <time>2022-09-06T12:34:57Z</time>
      </trkpt>
      <trkpt lat="43.16525" lon="0.2058">
        <ele>342.2</ele>
        <time>2022-09-06T12:34:59Z</time>
      </trkpt>
      <trkpt lat="43.16521" lon="0.20587">
        <ele>342.4</ele>
        <time>2022-09-06T12:35:03Z</time>
      </trkpt>
      <trkpt lat="43.16516" lon="0.20596">
        <ele>343</ele>
        <time>2022-09-06T12:35:08Z</time>
      </trkpt>
      <trkpt lat="43.16513" lon="0.206">
        <ele>343.4</ele>
        <time>2022-09-06T12:35:10Z</time>
      </trkpt>
      <trkpt lat="43.16507" lon="0.2061">
        <ele>344.2</ele>
        <time>2022-09-06T12:35:16Z</time>
      </trkpt>
      <trkpt lat="43.16505" lon="0.20612">
        <ele>344.6</ele>
        <time>2022-09-06T12:35:18Z</time>
      </trkpt>
      <trkpt lat="43.16501" lon="0.20615">
        <ele>345</ele>
        <time>2022-09-06T12:35:21Z</time>
      </trkpt>
      <trkpt lat="43.16498" lon="0.20616">
        <ele>345.2</ele>
        <time>2022-09-06T12:35:23Z</time>
      </trkpt>
      <trkpt lat="43.16495" lon="0.20617">
        <ele>345.4</ele>
        <time>2022-09-06T12:35:24Z</time>
      </trkpt>
      <trkpt lat="43.1649" lon="0.20616">
        <ele>345.8</ele>
        <time>2022-09-06T12:35:27Z</time>
      </trkpt>
      <trkpt lat="43.16483" lon="0.20611">
        <ele>346.4</ele>
        <time>2022-09-06T12:35:31Z</time>
      </trkpt>
      <trkpt lat="43.16482" lon="0.2061">
        <ele>346.6</ele>
        <time>2022-09-06T12:35:32Z</time>
      </trkpt>
      <trkpt lat="43.16474" lon="0.20597">
        <ele>347.2</ele>
        <time>2022-09-06T12:35:39Z</time>
      </trkpt>
      <trkpt lat="43.16474" lon="0.20595">
        <ele>347.4</ele>
        <time>2022-09-06T12:35:40Z</time>
      </trkpt>
      <trkpt lat="43.16472" lon="0.20583">
        <ele>347.8</ele>
        <time>2022-09-06T12:35:45Z</time>
      </trkpt>
      <trkpt lat="43.16472" lon="0.2057">
        <ele>348.4</ele>
        <time>2022-09-06T12:35:50Z</time>
      </trkpt>
      <trkpt lat="43.16472" lon="0.20567">
        <ele>348.6</ele>
        <time>2022-09-06T12:35:51Z</time>
      </trkpt>
      <trkpt lat="43.16471" lon="0.20558">
        <ele>349</ele>
        <time>2022-09-06T12:35:54Z</time>
      </trkpt>
      <trkpt lat="43.16471" lon="0.20549">
        <ele>349.2</ele>
        <time>2022-09-06T12:35:57Z</time>
      </trkpt>
      <trkpt lat="43.1647" lon="0.20546">
        <ele>349.2</ele>
        <time>2022-09-06T12:35:58Z</time>
      </trkpt>
      <trkpt lat="43.16469" lon="0.20537">
        <ele>349.6</ele>
        <time>2022-09-06T12:36:01Z</time>
      </trkpt>
      <trkpt lat="43.16467" lon="0.20525">
        <ele>349.8</ele>
        <time>2022-09-06T12:36:05Z</time>
      </trkpt>
      <trkpt lat="43.16468" lon="0.20507">
        <ele>350.6</ele>
        <time>2022-09-06T12:36:11Z</time>
      </trkpt>
      <trkpt lat="43.16467" lon="0.20504">
        <ele>350.8</ele>
        <time>2022-09-06T12:36:12Z</time>
      </trkpt>
      <trkpt lat="43.16466" lon="0.20495">
        <ele>351.2</ele>
        <time>2022-09-06T12:36:15Z</time>
      </trkpt>
      <trkpt lat="43.16467" lon="0.20487">
        <ele>351.2</ele>
        <time>2022-09-06T12:36:18Z</time>
      </trkpt>
      <trkpt lat="43.16465" lon="0.20475">
        <ele>351.8</ele>
        <time>2022-09-06T12:36:22Z</time>
      </trkpt>
      <trkpt lat="43.16463" lon="0.20463">
        <ele>352.2</ele>
        <time>2022-09-06T12:36:26Z</time>
      </trkpt>
      <trkpt lat="43.16462" lon="0.20448">
        <ele>352.8</ele>
        <time>2022-09-06T12:36:31Z</time>
      </trkpt>
      <trkpt lat="43.1646" lon="0.20439">
        <ele>353.2</ele>
        <time>2022-09-06T12:36:34Z</time>
      </trkpt>
      <trkpt lat="43.16458" lon="0.20423">
        <ele>354</ele>
        <time>2022-09-06T12:36:40Z</time>
      </trkpt>
      <trkpt lat="43.16455" lon="0.20414">
        <ele>354.4</ele>
        <time>2022-09-06T12:36:43Z</time>
      </trkpt>
      <trkpt lat="43.16452" lon="0.20401">
        <ele>355</ele>
        <time>2022-09-06T12:36:48Z</time>
      </trkpt>
      <trkpt lat="43.1645" lon="0.20394">
        <ele>355.4</ele>
        <time>2022-09-06T12:36:51Z</time>
      </trkpt>
      <trkpt lat="43.16447" lon="0.20382">
        <ele>356</ele>
        <time>2022-09-06T12:36:56Z</time>
      </trkpt>
      <trkpt lat="43.16445" lon="0.20377">
        <ele>356.2</ele>
        <time>2022-09-06T12:36:58Z</time>
      </trkpt>
      <trkpt lat="43.16437" lon="0.20354">
        <ele>357.2</ele>
        <time>2022-09-06T12:37:08Z</time>
      </trkpt>
      <trkpt lat="43.16434" lon="0.20346">
        <ele>357.6</ele>
        <time>2022-09-06T12:37:12Z</time>
      </trkpt>
      <trkpt lat="43.16433" lon="0.20343">
        <ele>357.6</ele>
        <time>2022-09-06T12:37:14Z</time>
      </trkpt>
      <trkpt lat="43.16429" lon="0.20333">
        <ele>358.2</ele>
        <time>2022-09-06T12:37:18Z</time>
      </trkpt>
      <trkpt lat="43.16427" lon="0.20329">
        <ele>358.4</ele>
        <time>2022-09-06T12:37:20Z</time>
      </trkpt>
      <trkpt lat="43.16422" lon="0.20316">
        <ele>359.2</ele>
        <time>2022-09-06T12:37:27Z</time>
      </trkpt>
      <trkpt lat="43.16419" lon="0.20301">
        <ele>359.8</ele>
        <time>2022-09-06T12:37:33Z</time>
      </trkpt>
      <trkpt lat="43.16416" lon="0.2029">
        <ele>360.2</ele>
        <time>2022-09-06T12:37:38Z</time>
      </trkpt>
      <trkpt lat="43.16416" lon="0.20288">
        <ele>360.4</ele>
        <time>2022-09-06T12:37:39Z</time>
      </trkpt>
      <trkpt lat="43.16412" lon="0.20279">
        <ele>360.8</ele>
        <time>2022-09-06T12:37:43Z</time>
      </trkpt>
      <trkpt lat="43.16412" lon="0.20272">
        <ele>361</ele>
        <time>2022-09-06T12:37:46Z</time>
      </trkpt>
      <trkpt lat="43.16411" lon="0.20267">
        <ele>361.4</ele>
        <time>2022-09-06T12:37:48Z</time>
      </trkpt>
      <trkpt lat="43.1641" lon="0.20264">
        <ele>361.4</ele>
        <time>2022-09-06T12:37:49Z</time>
      </trkpt>
      <trkpt lat="43.16406" lon="0.20245">
        <ele>362</ele>
        <time>2022-09-06T12:37:56Z</time>
      </trkpt>
      <trkpt lat="43.16404" lon="0.20229">
        <ele>362.6</ele>
        <time>2022-09-06T12:38:02Z</time>
      </trkpt>
      <trkpt lat="43.16404" lon="0.20226">
        <ele>362.6</ele>
        <time>2022-09-06T12:38:03Z</time>
      </trkpt>
      <trkpt lat="43.16409" lon="0.20212">
        <ele>363.6</ele>
        <time>2022-09-06T12:38:10Z</time>
      </trkpt>
      <trkpt lat="43.16412" lon="0.20211">
        <ele>363.8</ele>
        <time>2022-09-06T12:38:12Z</time>
      </trkpt>
      <trkpt lat="43.16417" lon="0.20212">
        <ele>364.2</ele>
        <time>2022-09-06T12:38:15Z</time>
      </trkpt>
      <trkpt lat="43.16419" lon="0.20213">
        <ele>364.8</ele>
        <time>2022-09-06T12:38:17Z</time>
      </trkpt>
      <trkpt lat="43.1642" lon="0.20217">
        <ele>365.2</ele>
        <time>2022-09-06T12:38:20Z</time>
      </trkpt>
      <trkpt lat="43.16421" lon="0.20219">
        <ele>365.4</ele>
        <time>2022-09-06T12:38:21Z</time>
      </trkpt>
      <trkpt lat="43.16423" lon="0.20227">
        <ele>365.8</ele>
        <time>2022-09-06T12:38:25Z</time>
      </trkpt>
      <trkpt lat="43.16423" lon="0.20228">
        <ele>365.8</ele>
        <time>2022-09-06T12:38:26Z</time>
      </trkpt>
      <trkpt lat="43.16425" lon="0.20235">
        <ele>366.2</ele>
        <time>2022-09-06T12:38:29Z</time>
      </trkpt>
      <trkpt lat="43.16427" lon="0.2024">
        <ele>366.4</ele>
        <time>2022-09-06T12:38:32Z</time>
      </trkpt>
      <trkpt lat="43.16431" lon="0.20248">
        <ele>366.8</ele>
        <time>2022-09-06T12:38:36Z</time>
      </trkpt>
      <trkpt lat="43.16433" lon="0.20252">
        <ele>367.2</ele>
        <time>2022-09-06T12:38:38Z</time>
      </trkpt>
      <trkpt lat="43.16439" lon="0.20272">
        <ele>368</ele>
        <time>2022-09-06T12:38:45Z</time>
      </trkpt>
      <trkpt lat="43.16446" lon="0.20294">
        <ele>369</ele>
        <time>2022-09-06T12:38:53Z</time>
      </trkpt>
      <trkpt lat="43.16447" lon="0.20297">
        <ele>369</ele>
        <time>2022-09-06T12:38:54Z</time>
      </trkpt>
      <trkpt lat="43.16453" lon="0.20314">
        <ele>369.8</ele>
        <time>2022-09-06T12:39:00Z</time>
      </trkpt>
      <trkpt lat="43.16455" lon="0.2032">
        <ele>370.2</ele>
        <time>2022-09-06T12:39:02Z</time>
      </trkpt>
      <trkpt lat="43.16458" lon="0.20333">
        <ele>370.8</ele>
        <time>2022-09-06T12:39:07Z</time>
      </trkpt>
      <trkpt lat="43.16463" lon="0.20344">
        <ele>371.2</ele>
        <time>2022-09-06T12:39:11Z</time>
      </trkpt>
      <trkpt lat="43.16469" lon="0.20353">
        <ele>371.8</ele>
        <time>2022-09-06T12:39:15Z</time>
      </trkpt>
      <trkpt lat="43.16478" lon="0.20361">
        <ele>372.4</ele>
        <time>2022-09-06T12:39:19Z</time>
      </trkpt>
      <trkpt lat="43.16482" lon="0.20362">
        <ele>372.8</ele>
        <time>2022-09-06T12:39:21Z</time>
      </trkpt>
      <trkpt lat="43.16496" lon="0.20363">
        <ele>373.6</ele>
        <time>2022-09-06T12:39:27Z</time>
      </trkpt>
      <trkpt lat="43.16499" lon="0.20361">
        <ele>373.8</ele>
        <time>2022-09-06T12:39:28Z</time>
      </trkpt>
      <trkpt lat="43.16514" lon="0.20344">
        <ele>373.6</ele>
        <time>2022-09-06T12:39:36Z</time>
      </trkpt>
      <trkpt lat="43.16524" lon="0.20323">
        <ele>374.4</ele>
        <time>2022-09-06T12:39:45Z</time>
      </trkpt>
      <trkpt lat="43.16525" lon="0.20321">
        <ele>374.6</ele>
        <time>2022-09-06T12:39:46Z</time>
      </trkpt>
      <trkpt lat="43.16528" lon="0.20314">
        <ele>375</ele>
        <time>2022-09-06T12:39:49Z</time>
      </trkpt>
      <trkpt lat="43.1653" lon="0.20309">
        <ele>375.2</ele>
        <time>2022-09-06T12:39:51Z</time>
      </trkpt>
      <trkpt lat="43.16534" lon="0.203">
        <ele>375.8</ele>
        <time>2022-09-06T12:39:55Z</time>
      </trkpt>
      <trkpt lat="43.16538" lon="0.20289">
        <ele>376.2</ele>
        <time>2022-09-06T12:39:59Z</time>
      </trkpt>
      <trkpt lat="43.16544" lon="0.20274">
        <ele>376.8</ele>
        <time>2022-09-06T12:40:05Z</time>
      </trkpt>
      <trkpt lat="43.16546" lon="0.20268">
        <ele>377</ele>
        <time>2022-09-06T12:40:07Z</time>
      </trkpt>
      <trkpt lat="43.16555" lon="0.20245">
        <ele>378</ele>
        <time>2022-09-06T12:40:15Z</time>
      </trkpt>
      <trkpt lat="43.16556" lon="0.20242">
        <ele>378</ele>
        <time>2022-09-06T12:40:16Z</time>
      </trkpt>
      <trkpt lat="43.16564" lon="0.20215">
        <ele>378.8</ele>
        <time>2022-09-06T12:40:25Z</time>
      </trkpt>
      <trkpt lat="43.16565" lon="0.20212">
        <ele>379</ele>
        <time>2022-09-06T12:40:26Z</time>
      </trkpt>
      <trkpt lat="43.16571" lon="0.20195">
        <ele>379.8</ele>
        <time>2022-09-06T12:40:32Z</time>
      </trkpt>
      <trkpt lat="43.16573" lon="0.20189">
        <ele>380</ele>
        <time>2022-09-06T12:40:34Z</time>
      </trkpt>
      <trkpt lat="43.16578" lon="0.20173">
        <ele>381.2</ele>
        <time>2022-09-06T12:40:40Z</time>
      </trkpt>
      <trkpt lat="43.16582" lon="0.20153">
        <ele>382.2</ele>
        <time>2022-09-06T12:40:47Z</time>
      </trkpt>
      <trkpt lat="43.16583" lon="0.20151">
        <ele>382.2</ele>
        <time>2022-09-06T12:40:48Z</time>
      </trkpt>
      <trkpt lat="43.16585" lon="0.20132">
        <ele>382.8</ele>
        <time>2022-09-06T12:40:55Z</time>
      </trkpt>
      <trkpt lat="43.16585" lon="0.20124">
        <ele>382.8</ele>
        <time>2022-09-06T12:40:58Z</time>
      </trkpt>
      <trkpt lat="43.16587" lon="0.2012">
        <ele>383.2</ele>
        <time>2022-09-06T12:41:00Z</time>
      </trkpt>
      <trkpt lat="43.16587" lon="0.20117">
        <ele>383.4</ele>
        <time>2022-09-06T12:41:01Z</time>
      </trkpt>
      <trkpt lat="43.16587" lon="0.20109">
        <ele>383.6</ele>
        <time>2022-09-06T12:41:04Z</time>
      </trkpt>
      <trkpt lat="43.16589" lon="0.20097">
        <ele>383.8</ele>
        <time>2022-09-06T12:41:08Z</time>
      </trkpt>
      <trkpt lat="43.16589" lon="0.20089">
        <ele>384.4</ele>
        <time>2022-09-06T12:41:11Z</time>
      </trkpt>
      <trkpt lat="43.16589" lon="0.2008">
        <ele>384.6</ele>
        <time>2022-09-06T12:41:14Z</time>
      </trkpt>
      <trkpt lat="43.16589" lon="0.20071">
        <ele>385.4</ele>
        <time>2022-09-06T12:41:17Z</time>
      </trkpt>
      <trkpt lat="43.16589" lon="0.20056">
        <ele>385.6</ele>
        <time>2022-09-06T12:41:22Z</time>
      </trkpt>
      <trkpt lat="43.16589" lon="0.20032">
        <ele>386.6</ele>
        <time>2022-09-06T12:41:30Z</time>
      </trkpt>
      <trkpt lat="43.1659" lon="0.20021">
        <ele>387</ele>
        <time>2022-09-06T12:41:34Z</time>
      </trkpt>
      <trkpt lat="43.1659" lon="0.20012">
        <ele>387.4</ele>
        <time>2022-09-06T12:41:37Z</time>
      </trkpt>
      <trkpt lat="43.16588" lon="0.20004">
        <ele>387.6</ele>
        <time>2022-09-06T12:41:40Z</time>
      </trkpt>
      <trkpt lat="43.16588" lon="0.20001">
        <ele>387.6</ele>
        <time>2022-09-06T12:41:41Z</time>
      </trkpt>
      <trkpt lat="43.1659" lon="0.19996">
        <ele>388</ele>
        <time>2022-09-06T12:41:43Z</time>
      </trkpt>
      <trkpt lat="43.16589" lon="0.19982">
        <ele>388.6</ele>
        <time>2022-09-06T12:41:48Z</time>
      </trkpt>
      <trkpt lat="43.16588" lon="0.19979">
        <ele>388.8</ele>
        <time>2022-09-06T12:41:49Z</time>
      </trkpt>
      <trkpt lat="43.16589" lon="0.19974">
        <ele>389</ele>
        <time>2022-09-06T12:41:51Z</time>
      </trkpt>
      <trkpt lat="43.1659" lon="0.19965">
        <ele>389.4</ele>
        <time>2022-09-06T12:41:54Z</time>
      </trkpt>
      <trkpt lat="43.16589" lon="0.19957">
        <ele>389.6</ele>
        <time>2022-09-06T12:41:57Z</time>
      </trkpt>
      <trkpt lat="43.16589" lon="0.19949">
        <ele>390</ele>
        <time>2022-09-06T12:42:00Z</time>
      </trkpt>
      <trkpt lat="43.16586" lon="0.19931">
        <ele>390.8</ele>
        <time>2022-09-06T12:42:07Z</time>
      </trkpt>
      <trkpt lat="43.16586" lon="0.19918">
        <ele>391.4</ele>
        <time>2022-09-06T12:42:12Z</time>
      </trkpt>
      <trkpt lat="43.16585" lon="0.19915">
        <ele>391.4</ele>
        <time>2022-09-06T12:42:13Z</time>
      </trkpt>
      <trkpt lat="43.16584" lon="0.19905">
        <ele>392</ele>
        <time>2022-09-06T12:42:17Z</time>
      </trkpt>
      <trkpt lat="43.16582" lon="0.19897">
        <ele>392</ele>
        <time>2022-09-06T12:42:20Z</time>
      </trkpt>
      <trkpt lat="43.16578" lon="0.19879">
        <ele>392.8</ele>
        <time>2022-09-06T12:42:27Z</time>
      </trkpt>
      <trkpt lat="43.16576" lon="0.19868">
        <ele>393.2</ele>
        <time>2022-09-06T12:42:31Z</time>
      </trkpt>
      <trkpt lat="43.16574" lon="0.19864">
        <ele>393.4</ele>
        <time>2022-09-06T12:42:33Z</time>
      </trkpt>
      <trkpt lat="43.16569" lon="0.19842">
        <ele>394.2</ele>
        <time>2022-09-06T12:42:41Z</time>
      </trkpt>
      <trkpt lat="43.16568" lon="0.1984">
        <ele>394.4</ele>
        <time>2022-09-06T12:42:42Z</time>
      </trkpt>
      <trkpt lat="43.16564" lon="0.19821">
        <ele>395.4</ele>
        <time>2022-09-06T12:42:49Z</time>
      </trkpt>
      <trkpt lat="43.16564" lon="0.19805">
        <ele>396</ele>
        <time>2022-09-06T12:42:55Z</time>
      </trkpt>
      <trkpt lat="43.16563" lon="0.19795">
        <ele>396.6</ele>
        <time>2022-09-06T12:42:59Z</time>
      </trkpt>
      <trkpt lat="43.16564" lon="0.19781">
        <ele>397.2</ele>
        <time>2022-09-06T12:43:04Z</time>
      </trkpt>
      <trkpt lat="43.16566" lon="0.1977">
        <ele>397.6</ele>
        <time>2022-09-06T12:43:08Z</time>
      </trkpt>
      <trkpt lat="43.16567" lon="0.19762">
        <ele>398</ele>
        <time>2022-09-06T12:43:11Z</time>
      </trkpt>
      <trkpt lat="43.16568" lon="0.19749">
        <ele>398.8</ele>
        <time>2022-09-06T12:43:16Z</time>
      </trkpt>
      <trkpt lat="43.16567" lon="0.19745">
        <ele>399</ele>
        <time>2022-09-06T12:43:18Z</time>
      </trkpt>
      <trkpt lat="43.16568" lon="0.19743">
        <ele>399.2</ele>
        <time>2022-09-06T12:43:19Z</time>
      </trkpt>
      <trkpt lat="43.16571" lon="0.19736">
        <ele>399.6</ele>
        <time>2022-09-06T12:43:22Z</time>
      </trkpt>
      <trkpt lat="43.16572" lon="0.19734">
        <ele>399.6</ele>
        <time>2022-09-06T12:43:23Z</time>
      </trkpt>
      <trkpt lat="43.16572" lon="0.19731">
        <ele>399.8</ele>
        <time>2022-09-06T12:43:24Z</time>
      </trkpt>
      <trkpt lat="43.16575" lon="0.19713">
        <ele>400.8</ele>
        <time>2022-09-06T12:43:31Z</time>
      </trkpt>
      <trkpt lat="43.16575" lon="0.1971">
        <ele>400.8</ele>
        <time>2022-09-06T12:43:32Z</time>
      </trkpt>
      <trkpt lat="43.16578" lon="0.19689">
        <ele>401.6</ele>
        <time>2022-09-06T12:43:39Z</time>
      </trkpt>
      <trkpt lat="43.16578" lon="0.19683">
        <ele>402</ele>
        <time>2022-09-06T12:43:41Z</time>
      </trkpt>
      <trkpt lat="43.16579" lon="0.19662">
        <ele>403</ele>
        <time>2022-09-06T12:43:48Z</time>
      </trkpt>
      <trkpt lat="43.16579" lon="0.1964">
        <ele>404</ele>
        <time>2022-09-06T12:43:56Z</time>
      </trkpt>
      <trkpt lat="43.1658" lon="0.19624">
        <ele>404.6</ele>
        <time>2022-09-06T12:44:02Z</time>
      </trkpt>
      <trkpt lat="43.16578" lon="0.19613">
        <ele>405</ele>
        <time>2022-09-06T12:44:06Z</time>
      </trkpt>
      <trkpt lat="43.16578" lon="0.19601">
        <ele>405.6</ele>
        <time>2022-09-06T12:44:10Z</time>
      </trkpt>
      <trkpt lat="43.16577" lon="0.1959">
        <ele>406.2</ele>
        <time>2022-09-06T12:44:14Z</time>
      </trkpt>
      <trkpt lat="43.16575" lon="0.1957">
        <ele>406.8</ele>
        <time>2022-09-06T12:44:21Z</time>
      </trkpt>
      <trkpt lat="43.16572" lon="0.19559">
        <ele>407.2</ele>
        <time>2022-09-06T12:44:25Z</time>
      </trkpt>
      <trkpt lat="43.16569" lon="0.19554">
        <ele>407.6</ele>
        <time>2022-09-06T12:44:27Z</time>
      </trkpt>
      <trkpt lat="43.16562" lon="0.19537">
        <ele>408.4</ele>
        <time>2022-09-06T12:44:34Z</time>
      </trkpt>
      <trkpt lat="43.16559" lon="0.19535">
        <ele>408.4</ele>
        <time>2022-09-06T12:44:35Z</time>
      </trkpt>
      <trkpt lat="43.16549" lon="0.19538">
        <ele>409</ele>
        <time>2022-09-06T12:44:40Z</time>
      </trkpt>
      <trkpt lat="43.16544" lon="0.19544">
        <ele>409.4</ele>
        <time>2022-09-06T12:44:43Z</time>
      </trkpt>
      <trkpt lat="43.16543" lon="0.1955">
        <ele>409.8</ele>
        <time>2022-09-06T12:44:45Z</time>
      </trkpt>
      <trkpt lat="43.16539" lon="0.1956">
        <ele>410.6</ele>
        <time>2022-09-06T12:44:49Z</time>
      </trkpt>
      <trkpt lat="43.16539" lon="0.19563">
        <ele>410.8</ele>
        <time>2022-09-06T12:44:50Z</time>
      </trkpt>
      <trkpt lat="43.16539" lon="0.1959">
        <ele>411.6</ele>
        <time>2022-09-06T12:44:58Z</time>
      </trkpt>
      <trkpt lat="43.16539" lon="0.19595">
        <ele>411.8</ele>
        <time>2022-09-06T12:44:59Z</time>
      </trkpt>
      <trkpt lat="43.16535" lon="0.19612">
        <ele>412</ele>
        <time>2022-09-06T12:45:04Z</time>
      </trkpt>
      <trkpt lat="43.16532" lon="0.19638">
        <ele>412.6</ele>
        <time>2022-09-06T12:45:12Z</time>
      </trkpt>
      <trkpt lat="43.16531" lon="0.19644">
        <ele>413</ele>
        <time>2022-09-06T12:45:14Z</time>
      </trkpt>
      <trkpt lat="43.16527" lon="0.19661">
        <ele>413.8</ele>
        <time>2022-09-06T12:45:20Z</time>
      </trkpt>
      <trkpt lat="43.16526" lon="0.19667">
        <ele>414</ele>
        <time>2022-09-06T12:45:22Z</time>
      </trkpt>
      <trkpt lat="43.16522" lon="0.19686">
        <ele>414.4</ele>
        <time>2022-09-06T12:45:28Z</time>
      </trkpt>
      <trkpt lat="43.16515" lon="0.19705">
        <ele>415</ele>
        <time>2022-09-06T12:45:35Z</time>
      </trkpt>
      <trkpt lat="43.16513" lon="0.19707">
        <ele>415</ele>
        <time>2022-09-06T12:45:36Z</time>
      </trkpt>
      <trkpt lat="43.16502" lon="0.19709">
        <ele>415.4</ele>
        <time>2022-09-06T12:45:41Z</time>
      </trkpt>
      <trkpt lat="43.165" lon="0.19707">
        <ele>415.6</ele>
        <time>2022-09-06T12:45:42Z</time>
      </trkpt>
      <trkpt lat="43.16495" lon="0.19701">
        <ele>416.2</ele>
        <time>2022-09-06T12:45:45Z</time>
      </trkpt>
      <trkpt lat="43.16494" lon="0.19698">
        <ele>416.4</ele>
        <time>2022-09-06T12:45:46Z</time>
      </trkpt>
      <trkpt lat="43.16489" lon="0.19682">
        <ele>416.8</ele>
        <time>2022-09-06T12:45:52Z</time>
      </trkpt>
      <trkpt lat="43.16488" lon="0.19674">
        <ele>417.2</ele>
        <time>2022-09-06T12:45:55Z</time>
      </trkpt>
      <trkpt lat="43.16488" lon="0.19666">
        <ele>417.4</ele>
        <time>2022-09-06T12:45:58Z</time>
      </trkpt>
      <trkpt lat="43.16483" lon="0.19649">
        <ele>418.2</ele>
        <time>2022-09-06T12:46:04Z</time>
      </trkpt>
      <trkpt lat="43.16482" lon="0.19643">
        <ele>418.4</ele>
        <time>2022-09-06T12:46:06Z</time>
      </trkpt>
      <trkpt lat="43.16478" lon="0.19625">
        <ele>419.4</ele>
        <time>2022-09-06T12:46:12Z</time>
      </trkpt>
      <trkpt lat="43.16476" lon="0.19619">
        <ele>419.6</ele>
        <time>2022-09-06T12:46:14Z</time>
      </trkpt>
      <trkpt lat="43.1647" lon="0.19605">
        <ele>420.4</ele>
        <time>2022-09-06T12:46:19Z</time>
      </trkpt>
      <trkpt lat="43.16468" lon="0.19597">
        <ele>421</ele>
        <time>2022-09-06T12:46:22Z</time>
      </trkpt>
      <trkpt lat="43.16465" lon="0.19588">
        <ele>421.6</ele>
        <time>2022-09-06T12:46:25Z</time>
      </trkpt>
      <trkpt lat="43.16458" lon="0.19571">
        <ele>422.8</ele>
        <time>2022-09-06T12:46:31Z</time>
      </trkpt>
      <trkpt lat="43.16457" lon="0.19569">
        <ele>423</ele>
        <time>2022-09-06T12:46:32Z</time>
      </trkpt>
      <trkpt lat="43.1645" lon="0.19551">
        <ele>423.8</ele>
        <time>2022-09-06T12:46:39Z</time>
      </trkpt>
      <trkpt lat="43.16449" lon="0.19549">
        <ele>423.8</ele>
        <time>2022-09-06T12:46:40Z</time>
      </trkpt>
      <trkpt lat="43.16442" lon="0.19534">
        <ele>424.8</ele>
        <time>2022-09-06T12:46:47Z</time>
      </trkpt>
      <trkpt lat="43.16434" lon="0.19524">
        <ele>425.2</ele>
        <time>2022-09-06T12:46:53Z</time>
      </trkpt>
      <trkpt lat="43.16431" lon="0.19517">
        <ele>425.8</ele>
        <time>2022-09-06T12:46:56Z</time>
      </trkpt>
      <trkpt lat="43.16427" lon="0.19511">
        <ele>426.2</ele>
        <time>2022-09-06T12:46:59Z</time>
      </trkpt>
      <trkpt lat="43.16425" lon="0.19504">
        <ele>426.8</ele>
        <time>2022-09-06T12:47:02Z</time>
      </trkpt>
      <trkpt lat="43.1642" lon="0.19494">
        <ele>427.6</ele>
        <time>2022-09-06T12:47:07Z</time>
      </trkpt>
      <trkpt lat="43.16419" lon="0.19487">
        <ele>428</ele>
        <time>2022-09-06T12:47:10Z</time>
      </trkpt>
      <trkpt lat="43.16418" lon="0.1948">
        <ele>428.4</ele>
        <time>2022-09-06T12:47:13Z</time>
      </trkpt>
      <trkpt lat="43.16413" lon="0.19471">
        <ele>429</ele>
        <time>2022-09-06T12:47:18Z</time>
      </trkpt>
      <trkpt lat="43.16408" lon="0.19458">
        <ele>429.6</ele>
        <time>2022-09-06T12:47:24Z</time>
      </trkpt>
      <trkpt lat="43.16406" lon="0.19451">
        <ele>430</ele>
        <time>2022-09-06T12:47:27Z</time>
      </trkpt>
      <trkpt lat="43.16405" lon="0.19445">
        <ele>430.4</ele>
        <time>2022-09-06T12:47:30Z</time>
      </trkpt>
      <trkpt lat="43.16405" lon="0.19442">
        <ele>430.6</ele>
        <time>2022-09-06T12:47:31Z</time>
      </trkpt>
      <trkpt lat="43.16404" lon="0.19432">
        <ele>431.2</ele>
        <time>2022-09-06T12:47:35Z</time>
      </trkpt>
      <trkpt lat="43.16403" lon="0.19424">
        <ele>431.4</ele>
        <time>2022-09-06T12:47:38Z</time>
      </trkpt>
      <trkpt lat="43.16402" lon="0.19417">
        <ele>432.2</ele>
        <time>2022-09-06T12:47:41Z</time>
      </trkpt>
      <trkpt lat="43.16402" lon="0.19405">
        <ele>432.6</ele>
        <time>2022-09-06T12:47:46Z</time>
      </trkpt>
      <trkpt lat="43.16401" lon="0.19388">
        <ele>433</ele>
        <time>2022-09-06T12:47:54Z</time>
      </trkpt>
      <trkpt lat="43.16401" lon="0.19386">
        <ele>433.2</ele>
        <time>2022-09-06T12:47:55Z</time>
      </trkpt>
      <trkpt lat="43.16399" lon="0.19365">
        <ele>434</ele>
        <time>2022-09-06T12:48:03Z</time>
      </trkpt>
      <trkpt lat="43.16399" lon="0.19362">
        <ele>434.2</ele>
        <time>2022-09-06T12:48:04Z</time>
      </trkpt>
      <trkpt lat="43.16397" lon="0.19352">
        <ele>435</ele>
        <time>2022-09-06T12:48:09Z</time>
      </trkpt>
      <trkpt lat="43.16396" lon="0.19346">
        <ele>435.4</ele>
        <time>2022-09-06T12:48:12Z</time>
      </trkpt>
      <trkpt lat="43.16395" lon="0.19333">
        <ele>435.8</ele>
        <time>2022-09-06T12:48:17Z</time>
      </trkpt>
      <trkpt lat="43.16392" lon="0.19312">
        <ele>436.6</ele>
        <time>2022-09-06T12:48:24Z</time>
      </trkpt>
      <trkpt lat="43.1639" lon="0.19285">
        <ele>437</ele>
        <time>2022-09-06T12:48:32Z</time>
      </trkpt>
      <trkpt lat="43.16387" lon="0.19269">
        <ele>437.6</ele>
        <time>2022-09-06T12:48:37Z</time>
      </trkpt>
      <trkpt lat="43.16386" lon="0.1926">
        <ele>437.8</ele>
        <time>2022-09-06T12:48:40Z</time>
      </trkpt>
      <trkpt lat="43.16384" lon="0.19238">
        <ele>438.6</ele>
        <time>2022-09-06T12:48:47Z</time>
      </trkpt>
      <trkpt lat="43.16382" lon="0.19221">
        <ele>438.6</ele>
        <time>2022-09-06T12:48:52Z</time>
      </trkpt>
      <trkpt lat="43.16382" lon="0.19208">
        <ele>439.2</ele>
        <time>2022-09-06T12:48:56Z</time>
      </trkpt>
      <trkpt lat="43.16379" lon="0.19183">
        <ele>439.4</ele>
        <time>2022-09-06T12:49:03Z</time>
      </trkpt>
      <trkpt lat="43.16377" lon="0.19165">
        <ele>439.8</ele>
        <time>2022-09-06T12:49:08Z</time>
      </trkpt>
      <trkpt lat="43.16376" lon="0.19158">
        <ele>439.8</ele>
        <time>2022-09-06T12:49:10Z</time>
      </trkpt>
      <trkpt lat="43.16369" lon="0.19128">
        <ele>440.2</ele>
        <time>2022-09-06T12:49:18Z</time>
      </trkpt>
      <trkpt lat="43.16366" lon="0.19121">
        <ele>440.8</ele>
        <time>2022-09-06T12:49:20Z</time>
      </trkpt>
      <trkpt lat="43.16354" lon="0.19099">
        <ele>441</ele>
        <time>2022-09-06T12:49:26Z</time>
      </trkpt>
      <trkpt lat="43.16336" lon="0.19083">
        <ele>441.4</ele>
        <time>2022-09-06T12:49:33Z</time>
      </trkpt>
      <trkpt lat="43.16311" lon="0.19069">
        <ele>441.6</ele>
        <time>2022-09-06T12:49:41Z</time>
      </trkpt>
      <trkpt lat="43.16303" lon="0.19064">
        <ele>441.8</ele>
        <time>2022-09-06T12:49:44Z</time>
      </trkpt>
      <trkpt lat="43.16282" lon="0.19052">
        <ele>442.8</ele>
        <time>2022-09-06T12:49:51Z</time>
      </trkpt>
      <trkpt lat="43.16259" lon="0.19035">
        <ele>443</ele>
        <time>2022-09-06T12:49:59Z</time>
      </trkpt>
      <trkpt lat="43.16255" lon="0.1903">
        <ele>443</ele>
        <time>2022-09-06T12:50:01Z</time>
      </trkpt>
      <trkpt lat="43.16239" lon="0.19006">
        <ele>443.8</ele>
        <time>2022-09-06T12:50:09Z</time>
      </trkpt>
      <trkpt lat="43.16238" lon="0.18999">
        <ele>444</ele>
        <time>2022-09-06T12:50:11Z</time>
      </trkpt>
      <trkpt lat="43.16237" lon="0.18997">
        <ele>444</ele>
        <time>2022-09-06T12:50:12Z</time>
      </trkpt>
      <trkpt lat="43.16235" lon="0.18996">
        <ele>444</ele>
        <time>2022-09-06T12:50:13Z</time>
      </trkpt>
      <trkpt lat="43.1623" lon="0.18994">
        <ele>444.2</ele>
        <time>2022-09-06T12:50:16Z</time>
      </trkpt>
      <trkpt lat="43.16227" lon="0.18992">
        <ele>444</ele>
        <time>2022-09-06T12:50:20Z</time>
      </trkpt>
      <trkpt lat="43.1623" lon="0.18994">
        <ele>445</ele>
        <time>2022-09-06T12:57:16Z</time>
      </trkpt>
      <trkpt lat="43.16234" lon="0.18996">
        <ele>445</ele>
        <time>2022-09-06T12:57:18Z</time>
      </trkpt>
      <trkpt lat="43.16237" lon="0.18997">
        <ele>445</ele>
        <time>2022-09-06T12:57:20Z</time>
      </trkpt>
      <trkpt lat="43.16242" lon="0.18994">
        <ele>445.4</ele>
        <time>2022-09-06T12:57:23Z</time>
      </trkpt>
      <trkpt lat="43.16244" lon="0.18989">
        <ele>445.2</ele>
        <time>2022-09-06T12:57:26Z</time>
      </trkpt>
      <trkpt lat="43.16247" lon="0.18983">
        <ele>445.2</ele>
        <time>2022-09-06T12:57:39Z</time>
      </trkpt>
      <trkpt lat="43.16248" lon="0.18979">
        <ele>445.2</ele>
        <time>2022-09-06T12:57:41Z</time>
      </trkpt>
      <trkpt lat="43.16254" lon="0.18961">
        <ele>446.2</ele>
        <time>2022-09-06T12:57:48Z</time>
      </trkpt>
      <trkpt lat="43.16255" lon="0.18955">
        <ele>446.4</ele>
        <time>2022-09-06T12:57:50Z</time>
      </trkpt>
      <trkpt lat="43.16259" lon="0.1893">
        <ele>446.6</ele>
        <time>2022-09-06T12:57:58Z</time>
      </trkpt>
      <trkpt lat="43.16252" lon="0.18912">
        <ele>446.6</ele>
        <time>2022-09-06T12:58:04Z</time>
      </trkpt>
      <trkpt lat="43.16234" lon="0.18903">
        <ele>446.2</ele>
        <time>2022-09-06T12:58:11Z</time>
      </trkpt>
      <trkpt lat="43.16207" lon="0.18893">
        <ele>446.6</ele>
        <time>2022-09-06T12:58:21Z</time>
      </trkpt>
      <trkpt lat="43.16191" lon="0.18886">
        <ele>447.2</ele>
        <time>2022-09-06T12:58:27Z</time>
      </trkpt>
      <trkpt lat="43.16186" lon="0.18883">
        <ele>447.2</ele>
        <time>2022-09-06T12:58:29Z</time>
      </trkpt>
      <trkpt lat="43.16172" lon="0.18876">
        <ele>447.6</ele>
        <time>2022-09-06T12:58:34Z</time>
      </trkpt>
      <trkpt lat="43.16147" lon="0.18859">
        <ele>447.8</ele>
        <time>2022-09-06T12:58:43Z</time>
      </trkpt>
      <trkpt lat="43.1614" lon="0.18853">
        <ele>448.2</ele>
        <time>2022-09-06T12:58:46Z</time>
      </trkpt>
      <trkpt lat="43.16127" lon="0.18843">
        <ele>449</ele>
        <time>2022-09-06T12:58:51Z</time>
      </trkpt>
      <trkpt lat="43.16105" lon="0.18822">
        <ele>449.4</ele>
        <time>2022-09-06T12:59:01Z</time>
      </trkpt>
      <trkpt lat="43.16106" lon="0.18806">
        <ele>449.2</ele>
        <time>2022-09-06T12:59:06Z</time>
      </trkpt>
      <trkpt lat="43.16117" lon="0.18777">
        <ele>448.2</ele>
        <time>2022-09-06T12:59:13Z</time>
      </trkpt>
      <trkpt lat="43.1613" lon="0.18744">
        <ele>447.4</ele>
        <time>2022-09-06T12:59:18Z</time>
      </trkpt>
      <trkpt lat="43.16134" lon="0.18735">
        <ele>447.2</ele>
        <time>2022-09-06T12:59:19Z</time>
      </trkpt>
      <trkpt lat="43.16141" lon="0.18715">
        <ele>445.8</ele>
        <time>2022-09-06T12:59:21Z</time>
      </trkpt>
      <trkpt lat="43.16145" lon="0.18705">
        <ele>445.6</ele>
        <time>2022-09-06T12:59:22Z</time>
      </trkpt>
      <trkpt lat="43.16153" lon="0.18683">
        <ele>444.2</ele>
        <time>2022-09-06T12:59:24Z</time>
      </trkpt>
      <trkpt lat="43.16157" lon="0.18672">
        <ele>443</ele>
        <time>2022-09-06T12:59:25Z</time>
      </trkpt>
      <trkpt lat="43.16165" lon="0.18651">
        <ele>442</ele>
        <time>2022-09-06T12:59:27Z</time>
      </trkpt>
      <trkpt lat="43.16174" lon="0.18629">
        <ele>440.4</ele>
        <time>2022-09-06T12:59:29Z</time>
      </trkpt>
      <trkpt lat="43.16178" lon="0.18617">
        <ele>439.8</ele>
        <time>2022-09-06T12:59:30Z</time>
      </trkpt>
      <trkpt lat="43.16189" lon="0.18592">
        <ele>439</ele>
        <time>2022-09-06T12:59:32Z</time>
      </trkpt>
      <trkpt lat="43.16196" lon="0.18581">
        <ele>437.8</ele>
        <time>2022-09-06T12:59:33Z</time>
      </trkpt>
      <trkpt lat="43.16202" lon="0.18569">
        <ele>436.2</ele>
        <time>2022-09-06T12:59:34Z</time>
      </trkpt>
      <trkpt lat="43.16208" lon="0.18558">
        <ele>434.8</ele>
        <time>2022-09-06T12:59:35Z</time>
      </trkpt>
      <trkpt lat="43.16214" lon="0.18547">
        <ele>433.6</ele>
        <time>2022-09-06T12:59:36Z</time>
      </trkpt>
      <trkpt lat="43.1622" lon="0.18536">
        <ele>432.4</ele>
        <time>2022-09-06T12:59:37Z</time>
      </trkpt>
      <trkpt lat="43.16226" lon="0.18526">
        <ele>431.4</ele>
        <time>2022-09-06T12:59:38Z</time>
      </trkpt>
      <trkpt lat="43.16232" lon="0.18517">
        <ele>430</ele>
        <time>2022-09-06T12:59:39Z</time>
      </trkpt>
      <trkpt lat="43.16237" lon="0.18509">
        <ele>428.8</ele>
        <time>2022-09-06T12:59:40Z</time>
      </trkpt>
      <trkpt lat="43.16242" lon="0.18503">
        <ele>427.4</ele>
        <time>2022-09-06T12:59:41Z</time>
      </trkpt>
      <trkpt lat="43.16246" lon="0.18498">
        <ele>425.8</ele>
        <time>2022-09-06T12:59:42Z</time>
      </trkpt>
      <trkpt lat="43.1625" lon="0.18492">
        <ele>424.6</ele>
        <time>2022-09-06T12:59:43Z</time>
      </trkpt>
      <trkpt lat="43.16254" lon="0.18487">
        <ele>422.8</ele>
        <time>2022-09-06T12:59:44Z</time>
      </trkpt>
      <trkpt lat="43.16261" lon="0.1848">
        <ele>421.2</ele>
        <time>2022-09-06T12:59:46Z</time>
      </trkpt>
      <trkpt lat="43.16265" lon="0.18477">
        <ele>420.6</ele>
        <time>2022-09-06T12:59:47Z</time>
      </trkpt>
      <trkpt lat="43.16268" lon="0.18474">
        <ele>420</ele>
        <time>2022-09-06T12:59:48Z</time>
      </trkpt>
      <trkpt lat="43.16274" lon="0.18467">
        <ele>418.8</ele>
        <time>2022-09-06T12:59:50Z</time>
      </trkpt>
      <trkpt lat="43.16275" lon="0.18462">
        <ele>418.2</ele>
        <time>2022-09-06T12:59:51Z</time>
      </trkpt>
      <trkpt lat="43.16272" lon="0.18448">
        <ele>417.4</ele>
        <time>2022-09-06T12:59:53Z</time>
      </trkpt>
      <trkpt lat="43.16269" lon="0.18442">
        <ele>417</ele>
        <time>2022-09-06T12:59:54Z</time>
      </trkpt>
      <trkpt lat="43.16266" lon="0.18436">
        <ele>416.4</ele>
        <time>2022-09-06T12:59:55Z</time>
      </trkpt>
      <trkpt lat="43.16263" lon="0.18425">
        <ele>415.6</ele>
        <time>2022-09-06T12:59:57Z</time>
      </trkpt>
      <trkpt lat="43.16262" lon="0.1842">
        <ele>415.2</ele>
        <time>2022-09-06T12:59:58Z</time>
      </trkpt>
      <trkpt lat="43.16263" lon="0.18414">
        <ele>414.6</ele>
        <time>2022-09-06T12:59:59Z</time>
      </trkpt>
      <trkpt lat="43.16267" lon="0.18404">
        <ele>414</ele>
        <time>2022-09-06T13:00:01Z</time>
      </trkpt>
      <trkpt lat="43.1627" lon="0.18401">
        <ele>413.8</ele>
        <time>2022-09-06T13:00:02Z</time>
      </trkpt>
      <trkpt lat="43.16281" lon="0.18399">
        <ele>413.6</ele>
        <time>2022-09-06T13:00:05Z</time>
      </trkpt>
      <trkpt lat="43.16284" lon="0.184">
        <ele>413.8</ele>
        <time>2022-09-06T13:00:06Z</time>
      </trkpt>
      <trkpt lat="43.16299" lon="0.18408">
        <ele>414</ele>
        <time>2022-09-06T13:00:11Z</time>
      </trkpt>
      <trkpt lat="43.16321" lon="0.18409">
        <ele>414.4</ele>
        <time>2022-09-06T13:00:17Z</time>
      </trkpt>
      <trkpt lat="43.16333" lon="0.18398">
        <ele>415</ele>
        <time>2022-09-06T13:00:21Z</time>
      </trkpt>
      <trkpt lat="43.16334" lon="0.18394">
        <ele>415</ele>
        <time>2022-09-06T13:00:22Z</time>
      </trkpt>
      <trkpt lat="43.16338" lon="0.18377">
        <ele>415.8</ele>
        <time>2022-09-06T13:00:26Z</time>
      </trkpt>
      <trkpt lat="43.16338" lon="0.18359">
        <ele>416.2</ele>
        <time>2022-09-06T13:00:31Z</time>
      </trkpt>
      <trkpt lat="43.16337" lon="0.18352">
        <ele>416.6</ele>
        <time>2022-09-06T13:00:33Z</time>
      </trkpt>
      <trkpt lat="43.16335" lon="0.18335">
        <ele>417.2</ele>
        <time>2022-09-06T13:00:38Z</time>
      </trkpt>
      <trkpt lat="43.16335" lon="0.18326">
        <ele>417.8</ele>
        <time>2022-09-06T13:00:41Z</time>
      </trkpt>
      <trkpt lat="43.16332" lon="0.1831">
        <ele>418.2</ele>
        <time>2022-09-06T13:00:47Z</time>
      </trkpt>
      <trkpt lat="43.16332" lon="0.18304">
        <ele>418.4</ele>
        <time>2022-09-06T13:00:49Z</time>
      </trkpt>
      <trkpt lat="43.1633" lon="0.18282">
        <ele>419.4</ele>
        <time>2022-09-06T13:00:57Z</time>
      </trkpt>
      <trkpt lat="43.1633" lon="0.18276">
        <ele>419.6</ele>
        <time>2022-09-06T13:00:59Z</time>
      </trkpt>
      <trkpt lat="43.16329" lon="0.18259">
        <ele>420.4</ele>
        <time>2022-09-06T13:01:06Z</time>
      </trkpt>
      <trkpt lat="43.16329" lon="0.18257">
        <ele>420.4</ele>
        <time>2022-09-06T13:01:07Z</time>
      </trkpt>
      <trkpt lat="43.16328" lon="0.18243">
        <ele>421.2</ele>
        <time>2022-09-06T13:01:13Z</time>
      </trkpt>
      <trkpt lat="43.16327" lon="0.18235">
        <ele>421.6</ele>
        <time>2022-09-06T13:01:16Z</time>
      </trkpt>
      <trkpt lat="43.16328" lon="0.18223">
        <ele>422.2</ele>
        <time>2022-09-06T13:01:21Z</time>
      </trkpt>
      <trkpt lat="43.1633" lon="0.18216">
        <ele>422.6</ele>
        <time>2022-09-06T13:01:24Z</time>
      </trkpt>
      <trkpt lat="43.16329" lon="0.18206">
        <ele>423</ele>
        <time>2022-09-06T13:01:28Z</time>
      </trkpt>
      <trkpt lat="43.16332" lon="0.18194">
        <ele>423.4</ele>
        <time>2022-09-06T13:01:33Z</time>
      </trkpt>
      <trkpt lat="43.16333" lon="0.18186">
        <ele>423.8</ele>
        <time>2022-09-06T13:01:36Z</time>
      </trkpt>
      <trkpt lat="43.16333" lon="0.18179">
        <ele>424.2</ele>
        <time>2022-09-06T13:01:39Z</time>
      </trkpt>
      <trkpt lat="43.16336" lon="0.18166">
        <ele>424.8</ele>
        <time>2022-09-06T13:01:44Z</time>
      </trkpt>
      <trkpt lat="43.16336" lon="0.18164">
        <ele>424.8</ele>
        <time>2022-09-06T13:01:45Z</time>
      </trkpt>
      <trkpt lat="43.16334" lon="0.18148">
        <ele>425.4</ele>
        <time>2022-09-06T13:01:51Z</time>
      </trkpt>
      <trkpt lat="43.16334" lon="0.18136">
        <ele>425.8</ele>
        <time>2022-09-06T13:01:56Z</time>
      </trkpt>
      <trkpt lat="43.16332" lon="0.18131">
        <ele>426</ele>
        <time>2022-09-06T13:01:58Z</time>
      </trkpt>
      <trkpt lat="43.16332" lon="0.18116">
        <ele>426.8</ele>
        <time>2022-09-06T13:02:04Z</time>
      </trkpt>
      <trkpt lat="43.16329" lon="0.18109">
        <ele>427</ele>
        <time>2022-09-06T13:02:07Z</time>
      </trkpt>
      <trkpt lat="43.16328" lon="0.18102">
        <ele>427.4</ele>
        <time>2022-09-06T13:02:10Z</time>
      </trkpt>
      <trkpt lat="43.16326" lon="0.18085">
        <ele>428</ele>
        <time>2022-09-06T13:02:16Z</time>
      </trkpt>
      <trkpt lat="43.16324" lon="0.18081">
        <ele>428.4</ele>
        <time>2022-09-06T13:02:18Z</time>
      </trkpt>
      <trkpt lat="43.16322" lon="0.18064">
        <ele>429.2</ele>
        <time>2022-09-06T13:02:24Z</time>
      </trkpt>
      <trkpt lat="43.16317" lon="0.18043">
        <ele>430.2</ele>
        <time>2022-09-06T13:02:32Z</time>
      </trkpt>
      <trkpt lat="43.16316" lon="0.18038">
        <ele>430.4</ele>
        <time>2022-09-06T13:02:34Z</time>
      </trkpt>
      <trkpt lat="43.16313" lon="0.18023">
        <ele>431.4</ele>
        <time>2022-09-06T13:02:40Z</time>
      </trkpt>
      <trkpt lat="43.16313" lon="0.18018">
        <ele>431.6</ele>
        <time>2022-09-06T13:02:42Z</time>
      </trkpt>
      <trkpt lat="43.16316" lon="0.18005">
        <ele>432.6</ele>
        <time>2022-09-06T13:02:47Z</time>
      </trkpt>
      <trkpt lat="43.16317" lon="0.18003">
        <ele>432.8</ele>
        <time>2022-09-06T13:02:48Z</time>
      </trkpt>
      <trkpt lat="43.16326" lon="0.17991">
        <ele>433.6</ele>
        <time>2022-09-06T13:02:54Z</time>
      </trkpt>
      <trkpt lat="43.16329" lon="0.17988">
        <ele>434</ele>
        <time>2022-09-06T13:02:56Z</time>
      </trkpt>
      <trkpt lat="43.16341" lon="0.17981">
        <ele>434.6</ele>
        <time>2022-09-06T13:03:02Z</time>
      </trkpt>
      <trkpt lat="43.16345" lon="0.17978">
        <ele>434.8</ele>
        <time>2022-09-06T13:03:04Z</time>
      </trkpt>
      <trkpt lat="43.16363" lon="0.17965">
        <ele>435.6</ele>
        <time>2022-09-06T13:03:13Z</time>
      </trkpt>
      <trkpt lat="43.16385" lon="0.17952">
        <ele>436.2</ele>
        <time>2022-09-06T13:03:22Z</time>
      </trkpt>
      <trkpt lat="43.16408" lon="0.17938">
        <ele>436.2</ele>
        <time>2022-09-06T13:03:31Z</time>
      </trkpt>
      <trkpt lat="43.16432" lon="0.17922">
        <ele>435.8</ele>
        <time>2022-09-06T13:03:39Z</time>
      </trkpt>
      <trkpt lat="43.16458" lon="0.17905">
        <ele>436</ele>
        <time>2022-09-06T13:03:46Z</time>
      </trkpt>
      <trkpt lat="43.16478" lon="0.17895">
        <ele>435.4</ele>
        <time>2022-09-06T13:03:51Z</time>
      </trkpt>
      <trkpt lat="43.16489" lon="0.1789">
        <ele>435.4</ele>
        <time>2022-09-06T13:03:54Z</time>
      </trkpt>
      <trkpt lat="43.1652" lon="0.17878">
        <ele>435.2</ele>
        <time>2022-09-06T13:04:01Z</time>
      </trkpt>
      <trkpt lat="43.16564" lon="0.17867">
        <ele>435.8</ele>
        <time>2022-09-06T13:04:10Z</time>
      </trkpt>
      <trkpt lat="43.16596" lon="0.17863">
        <ele>436.4</ele>
        <time>2022-09-06T13:04:18Z</time>
      </trkpt>
      <trkpt lat="43.16603" lon="0.17862">
        <ele>436.6</ele>
        <time>2022-09-06T13:04:20Z</time>
      </trkpt>
      <trkpt lat="43.1662" lon="0.17859">
        <ele>437</ele>
        <time>2022-09-06T13:04:25Z</time>
      </trkpt>
      <trkpt lat="43.16648" lon="0.17852">
        <ele>436.6</ele>
        <time>2022-09-06T13:04:33Z</time>
      </trkpt>
      <trkpt lat="43.1666" lon="0.1785">
        <ele>436.6</ele>
        <time>2022-09-06T13:04:36Z</time>
      </trkpt>
      <trkpt lat="43.16672" lon="0.17844">
        <ele>436.2</ele>
        <time>2022-09-06T13:04:39Z</time>
      </trkpt>
      <trkpt lat="43.16675" lon="0.17841">
        <ele>436.2</ele>
        <time>2022-09-06T13:04:40Z</time>
      </trkpt>
      <trkpt lat="43.16689" lon="0.1782">
        <ele>435.8</ele>
        <time>2022-09-06T13:04:45Z</time>
      </trkpt>
      <trkpt lat="43.16691" lon="0.17815">
        <ele>435.8</ele>
        <time>2022-09-06T13:04:46Z</time>
      </trkpt>
      <trkpt lat="43.16696" lon="0.17801">
        <ele>435.8</ele>
        <time>2022-09-06T13:04:50Z</time>
      </trkpt>
      <trkpt lat="43.16706" lon="0.17784">
        <ele>435.8</ele>
        <time>2022-09-06T13:04:57Z</time>
      </trkpt>
      <trkpt lat="43.16716" lon="0.17774">
        <ele>435.6</ele>
        <time>2022-09-06T13:05:02Z</time>
      </trkpt>
      <trkpt lat="43.16719" lon="0.1777">
        <ele>435.4</ele>
        <time>2022-09-06T13:05:04Z</time>
      </trkpt>
      <trkpt lat="43.16729" lon="0.17764">
        <ele>435</ele>
        <time>2022-09-06T13:05:08Z</time>
      </trkpt>
      <trkpt lat="43.16752" lon="0.17753">
        <ele>435</ele>
        <time>2022-09-06T13:05:13Z</time>
      </trkpt>
      <trkpt lat="43.16764" lon="0.17751">
        <ele>434.4</ele>
        <time>2022-09-06T13:05:15Z</time>
      </trkpt>
      <trkpt lat="43.16783" lon="0.17751">
        <ele>433.4</ele>
        <time>2022-09-06T13:05:18Z</time>
      </trkpt>
      <trkpt lat="43.16789" lon="0.17751">
        <ele>433.2</ele>
        <time>2022-09-06T13:05:19Z</time>
      </trkpt>
      <trkpt lat="43.16816" lon="0.17751">
        <ele>432.2</ele>
        <time>2022-09-06T13:05:23Z</time>
      </trkpt>
      <trkpt lat="43.16823" lon="0.1775">
        <ele>431.6</ele>
        <time>2022-09-06T13:05:24Z</time>
      </trkpt>
      <trkpt lat="43.16829" lon="0.1775">
        <ele>431.2</ele>
        <time>2022-09-06T13:05:25Z</time>
      </trkpt>
      <trkpt lat="43.16836" lon="0.17751">
        <ele>430.8</ele>
        <time>2022-09-06T13:05:26Z</time>
      </trkpt>
      <trkpt lat="43.16859" lon="0.17749">
        <ele>429.8</ele>
        <time>2022-09-06T13:05:30Z</time>
      </trkpt>
      <trkpt lat="43.16863" lon="0.17748">
        <ele>429.6</ele>
        <time>2022-09-06T13:05:31Z</time>
      </trkpt>
      <trkpt lat="43.16881" lon="0.17748">
        <ele>429</ele>
        <time>2022-09-06T13:05:36Z</time>
      </trkpt>
      <trkpt lat="43.16886" lon="0.17749">
        <ele>428.6</ele>
        <time>2022-09-06T13:05:38Z</time>
      </trkpt>
      <trkpt lat="43.16889" lon="0.17753">
        <ele>428.6</ele>
        <time>2022-09-06T13:05:40Z</time>
      </trkpt>
      <trkpt lat="43.16898" lon="0.17758">
        <ele>428.4</ele>
        <time>2022-09-06T13:05:46Z</time>
      </trkpt>
      <trkpt lat="43.16901" lon="0.17746">
        <ele>428.6</ele>
        <time>2022-09-06T13:13:43Z</time>
      </trkpt>
      <trkpt lat="43.16899" lon="0.1774">
        <ele>428.6</ele>
        <time>2022-09-06T13:13:45Z</time>
      </trkpt>
      <trkpt lat="43.16899" lon="0.1772">
        <ele>428.2</ele>
        <time>2022-09-06T13:13:49Z</time>
      </trkpt>
      <trkpt lat="43.16897" lon="0.1769">
        <ele>427.2</ele>
        <time>2022-09-06T13:13:53Z</time>
      </trkpt>
      <trkpt lat="43.16896" lon="0.17682">
        <ele>427</ele>
        <time>2022-09-06T13:13:54Z</time>
      </trkpt>
      <trkpt lat="43.16893" lon="0.17665">
        <ele>426.2</ele>
        <time>2022-09-06T13:13:56Z</time>
      </trkpt>
      <trkpt lat="43.1689" lon="0.17656">
        <ele>425.6</ele>
        <time>2022-09-06T13:13:57Z</time>
      </trkpt>
      <trkpt lat="43.16882" lon="0.1764">
        <ele>425</ele>
        <time>2022-09-06T13:13:59Z</time>
      </trkpt>
      <trkpt lat="43.16872" lon="0.17625">
        <ele>423.8</ele>
        <time>2022-09-06T13:14:01Z</time>
      </trkpt>
      <trkpt lat="43.16866" lon="0.17617">
        <ele>423.2</ele>
        <time>2022-09-06T13:14:02Z</time>
      </trkpt>
      <trkpt lat="43.16859" lon="0.17608">
        <ele>422.8</ele>
        <time>2022-09-06T13:14:03Z</time>
      </trkpt>
      <trkpt lat="43.16848" lon="0.1759">
        <ele>421.8</ele>
        <time>2022-09-06T13:14:05Z</time>
      </trkpt>
      <trkpt lat="43.16843" lon="0.1758">
        <ele>421.6</ele>
        <time>2022-09-06T13:14:06Z</time>
      </trkpt>
      <trkpt lat="43.16839" lon="0.17568">
        <ele>421.2</ele>
        <time>2022-09-06T13:14:07Z</time>
      </trkpt>
      <trkpt lat="43.16832" lon="0.17544">
        <ele>420.2</ele>
        <time>2022-09-06T13:14:09Z</time>
      </trkpt>
      <trkpt lat="43.16831" lon="0.17517">
        <ele>419</ele>
        <time>2022-09-06T13:14:11Z</time>
      </trkpt>
      <trkpt lat="43.16831" lon="0.17503">
        <ele>417.8</ele>
        <time>2022-09-06T13:14:12Z</time>
      </trkpt>
      <trkpt lat="43.16831" lon="0.17489">
        <ele>417.2</ele>
        <time>2022-09-06T13:14:13Z</time>
      </trkpt>
      <trkpt lat="43.16834" lon="0.1746">
        <ele>416.8</ele>
        <time>2022-09-06T13:14:15Z</time>
      </trkpt>
      <trkpt lat="43.16836" lon="0.17445">
        <ele>416</ele>
        <time>2022-09-06T13:14:16Z</time>
      </trkpt>
      <trkpt lat="43.16839" lon="0.1743">
        <ele>415</ele>
        <time>2022-09-06T13:14:17Z</time>
      </trkpt>
      <trkpt lat="43.16846" lon="0.17401">
        <ele>413.6</ele>
        <time>2022-09-06T13:14:19Z</time>
      </trkpt>
      <trkpt lat="43.1685" lon="0.17386">
        <ele>412.6</ele>
        <time>2022-09-06T13:14:20Z</time>
      </trkpt>
      <trkpt lat="43.16855" lon="0.17372">
        <ele>411.6</ele>
        <time>2022-09-06T13:14:21Z</time>
      </trkpt>
      <trkpt lat="43.16864" lon="0.17343">
        <ele>410.2</ele>
        <time>2022-09-06T13:14:23Z</time>
      </trkpt>
      <trkpt lat="43.16873" lon="0.17314">
        <ele>408.6</ele>
        <time>2022-09-06T13:14:25Z</time>
      </trkpt>
      <trkpt lat="43.16877" lon="0.173">
        <ele>408.2</ele>
        <time>2022-09-06T13:14:26Z</time>
      </trkpt>
      <trkpt lat="43.16881" lon="0.17286">
        <ele>407.2</ele>
        <time>2022-09-06T13:14:27Z</time>
      </trkpt>
      <trkpt lat="43.16888" lon="0.17257">
        <ele>405.6</ele>
        <time>2022-09-06T13:14:29Z</time>
      </trkpt>
      <trkpt lat="43.1689" lon="0.17242">
        <ele>404.4</ele>
        <time>2022-09-06T13:14:30Z</time>
      </trkpt>
      <trkpt lat="43.16891" lon="0.17226">
        <ele>403.4</ele>
        <time>2022-09-06T13:14:31Z</time>
      </trkpt>
      <trkpt lat="43.16891" lon="0.17211">
        <ele>402.4</ele>
        <time>2022-09-06T13:14:32Z</time>
      </trkpt>
      <trkpt lat="43.16887" lon="0.17179">
        <ele>400</ele>
        <time>2022-09-06T13:14:34Z</time>
      </trkpt>
      <trkpt lat="43.16885" lon="0.17163">
        <ele>398.8</ele>
        <time>2022-09-06T13:14:35Z</time>
      </trkpt>
      <trkpt lat="43.16882" lon="0.17149">
        <ele>397.4</ele>
        <time>2022-09-06T13:14:36Z</time>
      </trkpt>
      <trkpt lat="43.1688" lon="0.17135">
        <ele>395.8</ele>
        <time>2022-09-06T13:14:37Z</time>
      </trkpt>
      <trkpt lat="43.16878" lon="0.17122">
        <ele>394.6</ele>
        <time>2022-09-06T13:14:38Z</time>
      </trkpt>
      <trkpt lat="43.16873" lon="0.17109">
        <ele>393.8</ele>
        <time>2022-09-06T13:14:39Z</time>
      </trkpt>
      <trkpt lat="43.16867" lon="0.17098">
        <ele>393.4</ele>
        <time>2022-09-06T13:14:40Z</time>
      </trkpt>
      <trkpt lat="43.16851" lon="0.17078">
        <ele>392.6</ele>
        <time>2022-09-06T13:14:42Z</time>
      </trkpt>
      <trkpt lat="43.16842" lon="0.17069">
        <ele>392.4</ele>
        <time>2022-09-06T13:14:43Z</time>
      </trkpt>
      <trkpt lat="43.16825" lon="0.17056">
        <ele>390.8</ele>
        <time>2022-09-06T13:14:45Z</time>
      </trkpt>
      <trkpt lat="43.16817" lon="0.17051">
        <ele>389.6</ele>
        <time>2022-09-06T13:14:46Z</time>
      </trkpt>
      <trkpt lat="43.1681" lon="0.17045">
        <ele>388.6</ele>
        <time>2022-09-06T13:14:47Z</time>
      </trkpt>
      <trkpt lat="43.16803" lon="0.17038">
        <ele>387.8</ele>
        <time>2022-09-06T13:14:48Z</time>
      </trkpt>
      <trkpt lat="43.16799" lon="0.1703">
        <ele>387</ele>
        <time>2022-09-06T13:14:49Z</time>
      </trkpt>
      <trkpt lat="43.16796" lon="0.17014">
        <ele>385.6</ele>
        <time>2022-09-06T13:14:51Z</time>
      </trkpt>
      <trkpt lat="43.16798" lon="0.17005">
        <ele>385</ele>
        <time>2022-09-06T13:14:52Z</time>
      </trkpt>
      <trkpt lat="43.168" lon="0.16997">
        <ele>384.6</ele>
        <time>2022-09-06T13:14:53Z</time>
      </trkpt>
      <trkpt lat="43.16812" lon="0.16976">
        <ele>383.6</ele>
        <time>2022-09-06T13:14:55Z</time>
      </trkpt>
      <trkpt lat="43.16821" lon="0.16965">
        <ele>383</ele>
        <time>2022-09-06T13:14:56Z</time>
      </trkpt>
      <trkpt lat="43.16844" lon="0.16954">
        <ele>381.2</ele>
        <time>2022-09-06T13:14:58Z</time>
      </trkpt>
      <trkpt lat="43.16868" lon="0.16947">
        <ele>379.6</ele>
        <time>2022-09-06T13:15:00Z</time>
      </trkpt>
      <trkpt lat="43.1688" lon="0.16946">
        <ele>378.8</ele>
        <time>2022-09-06T13:15:01Z</time>
      </trkpt>
      <trkpt lat="43.16891" lon="0.16945">
        <ele>378</ele>
        <time>2022-09-06T13:15:02Z</time>
      </trkpt>
      <trkpt lat="43.16901" lon="0.16943">
        <ele>377.4</ele>
        <time>2022-09-06T13:15:03Z</time>
      </trkpt>
      <trkpt lat="43.16912" lon="0.16939">
        <ele>377</ele>
        <time>2022-09-06T13:15:04Z</time>
      </trkpt>
      <trkpt lat="43.16922" lon="0.16933">
        <ele>376.4</ele>
        <time>2022-09-06T13:15:05Z</time>
      </trkpt>
      <trkpt lat="43.16932" lon="0.16924">
        <ele>375.8</ele>
        <time>2022-09-06T13:15:06Z</time>
      </trkpt>
      <trkpt lat="43.1695" lon="0.16905">
        <ele>375</ele>
        <time>2022-09-06T13:15:08Z</time>
      </trkpt>
      <trkpt lat="43.16959" lon="0.16896">
        <ele>374</ele>
        <time>2022-09-06T13:15:09Z</time>
      </trkpt>
      <trkpt lat="43.16967" lon="0.16888">
        <ele>373</ele>
        <time>2022-09-06T13:15:10Z</time>
      </trkpt>
      <trkpt lat="43.16974" lon="0.1688">
        <ele>371.8</ele>
        <time>2022-09-06T13:15:11Z</time>
      </trkpt>
      <trkpt lat="43.16981" lon="0.16872">
        <ele>371</ele>
        <time>2022-09-06T13:15:12Z</time>
      </trkpt>
      <trkpt lat="43.16986" lon="0.16865">
        <ele>370.4</ele>
        <time>2022-09-06T13:15:13Z</time>
      </trkpt>
      <trkpt lat="43.16989" lon="0.16849">
        <ele>369.2</ele>
        <time>2022-09-06T13:15:15Z</time>
      </trkpt>
      <trkpt lat="43.16984" lon="0.16828">
        <ele>367.8</ele>
        <time>2022-09-06T13:15:18Z</time>
      </trkpt>
      <trkpt lat="43.16979" lon="0.16808">
        <ele>366.6</ele>
        <time>2022-09-06T13:15:20Z</time>
      </trkpt>
      <trkpt lat="43.16977" lon="0.16794">
        <ele>366</ele>
        <time>2022-09-06T13:15:22Z</time>
      </trkpt>
      <trkpt lat="43.16974" lon="0.1678">
        <ele>364.6</ele>
        <time>2022-09-06T13:15:23Z</time>
      </trkpt>
      <trkpt lat="43.1697" lon="0.16765">
        <ele>364.2</ele>
        <time>2022-09-06T13:15:24Z</time>
      </trkpt>
      <trkpt lat="43.16963" lon="0.1675">
        <ele>363.4</ele>
        <time>2022-09-06T13:15:25Z</time>
      </trkpt>
      <trkpt lat="43.16949" lon="0.16723">
        <ele>362</ele>
        <time>2022-09-06T13:15:27Z</time>
      </trkpt>
      <trkpt lat="43.16936" lon="0.16699">
        <ele>360.4</ele>
        <time>2022-09-06T13:15:29Z</time>
      </trkpt>
      <trkpt lat="43.16931" lon="0.16688">
        <ele>359.2</ele>
        <time>2022-09-06T13:15:30Z</time>
      </trkpt>
      <trkpt lat="43.16927" lon="0.16679">
        <ele>358.2</ele>
        <time>2022-09-06T13:15:31Z</time>
      </trkpt>
      <trkpt lat="43.16926" lon="0.16668">
        <ele>357.2</ele>
        <time>2022-09-06T13:15:32Z</time>
      </trkpt>
      <trkpt lat="43.16928" lon="0.16657">
        <ele>356.4</ele>
        <time>2022-09-06T13:15:33Z</time>
      </trkpt>
      <trkpt lat="43.16932" lon="0.16646">
        <ele>355.8</ele>
        <time>2022-09-06T13:15:34Z</time>
      </trkpt>
      <trkpt lat="43.16938" lon="0.16636">
        <ele>355.4</ele>
        <time>2022-09-06T13:15:35Z</time>
      </trkpt>
      <trkpt lat="43.16955" lon="0.16625">
        <ele>355</ele>
        <time>2022-09-06T13:15:37Z</time>
      </trkpt>
      <trkpt lat="43.16965" lon="0.16621">
        <ele>355</ele>
        <time>2022-09-06T13:15:38Z</time>
      </trkpt>
      <trkpt lat="43.16983" lon="0.1661">
        <ele>354.4</ele>
        <time>2022-09-06T13:15:40Z</time>
      </trkpt>
      <trkpt lat="43.16991" lon="0.16602">
        <ele>353.4</ele>
        <time>2022-09-06T13:15:41Z</time>
      </trkpt>
      <trkpt lat="43.16999" lon="0.16593">
        <ele>352</ele>
        <time>2022-09-06T13:15:42Z</time>
      </trkpt>
      <trkpt lat="43.17007" lon="0.16584">
        <ele>350.8</ele>
        <time>2022-09-06T13:15:43Z</time>
      </trkpt>
      <trkpt lat="43.1702" lon="0.16564">
        <ele>349.4</ele>
        <time>2022-09-06T13:15:45Z</time>
      </trkpt>
      <trkpt lat="43.17025" lon="0.16553">
        <ele>348.4</ele>
        <time>2022-09-06T13:15:46Z</time>
      </trkpt>
      <trkpt lat="43.17028" lon="0.16541">
        <ele>347</ele>
        <time>2022-09-06T13:15:47Z</time>
      </trkpt>
      <trkpt lat="43.17025" lon="0.16519">
        <ele>345.8</ele>
        <time>2022-09-06T13:15:49Z</time>
      </trkpt>
      <trkpt lat="43.17013" lon="0.16503">
        <ele>344.6</ele>
        <time>2022-09-06T13:15:51Z</time>
      </trkpt>
      <trkpt lat="43.16994" lon="0.16489">
        <ele>343.2</ele>
        <time>2022-09-06T13:15:54Z</time>
      </trkpt>
      <trkpt lat="43.16989" lon="0.16484">
        <ele>342.6</ele>
        <time>2022-09-06T13:15:55Z</time>
      </trkpt>
      <trkpt lat="43.16988" lon="0.16477">
        <ele>342</ele>
        <time>2022-09-06T13:15:56Z</time>
      </trkpt>
      <trkpt lat="43.16989" lon="0.16469">
        <ele>341.4</ele>
        <time>2022-09-06T13:15:57Z</time>
      </trkpt>
      <trkpt lat="43.16991" lon="0.16461">
        <ele>341</ele>
        <time>2022-09-06T13:15:58Z</time>
      </trkpt>
      <trkpt lat="43.16995" lon="0.16449">
        <ele>340</ele>
        <time>2022-09-06T13:16:00Z</time>
      </trkpt>
      <trkpt lat="43.16998" lon="0.16445">
        <ele>339.8</ele>
        <time>2022-09-06T13:16:01Z</time>
      </trkpt>
      <trkpt lat="43.1701" lon="0.1644">
        <ele>338.8</ele>
        <time>2022-09-06T13:16:04Z</time>
      </trkpt>
      <trkpt lat="43.17026" lon="0.1645">
        <ele>338.2</ele>
        <time>2022-09-06T13:16:06Z</time>
      </trkpt>
      <trkpt lat="43.17035" lon="0.16457">
        <ele>337.6</ele>
        <time>2022-09-06T13:16:07Z</time>
      </trkpt>
      <trkpt lat="43.17055" lon="0.16472">
        <ele>336.6</ele>
        <time>2022-09-06T13:16:09Z</time>
      </trkpt>
      <trkpt lat="43.17066" lon="0.16478">
        <ele>335.8</ele>
        <time>2022-09-06T13:16:10Z</time>
      </trkpt>
      <trkpt lat="43.17077" lon="0.16484">
        <ele>335</ele>
        <time>2022-09-06T13:16:11Z</time>
      </trkpt>
      <trkpt lat="43.17121" lon="0.16503">
        <ele>333.6</ele>
        <time>2022-09-06T13:16:15Z</time>
      </trkpt>
      <trkpt lat="43.17156" lon="0.16524">
        <ele>332.4</ele>
        <time>2022-09-06T13:16:18Z</time>
      </trkpt>
      <trkpt lat="43.17167" lon="0.16531">
        <ele>331.2</ele>
        <time>2022-09-06T13:16:19Z</time>
      </trkpt>
      <trkpt lat="43.17179" lon="0.16538">
        <ele>330</ele>
        <time>2022-09-06T13:16:20Z</time>
      </trkpt>
      <trkpt lat="43.17203" lon="0.16551">
        <ele>328.6</ele>
        <time>2022-09-06T13:16:22Z</time>
      </trkpt>
      <trkpt lat="43.17227" lon="0.16566">
        <ele>327</ele>
        <time>2022-09-06T13:16:24Z</time>
      </trkpt>
      <trkpt lat="43.17237" lon="0.16573">
        <ele>326.6</ele>
        <time>2022-09-06T13:16:25Z</time>
      </trkpt>
      <trkpt lat="43.17255" lon="0.16591">
        <ele>326.6</ele>
        <time>2022-09-06T13:16:27Z</time>
      </trkpt>
      <trkpt lat="43.17263" lon="0.16599">
        <ele>326.4</ele>
        <time>2022-09-06T13:16:28Z</time>
      </trkpt>
      <trkpt lat="43.17269" lon="0.16608">
        <ele>326.4</ele>
        <time>2022-09-06T13:16:29Z</time>
      </trkpt>
      <trkpt lat="43.1728" lon="0.16627">
        <ele>326.8</ele>
        <time>2022-09-06T13:16:31Z</time>
      </trkpt>
      <trkpt lat="43.17307" lon="0.16675">
        <ele>327</ele>
        <time>2022-09-06T13:16:37Z</time>
      </trkpt>
      <trkpt lat="43.17335" lon="0.16723">
        <ele>327</ele>
        <time>2022-09-06T13:16:44Z</time>
      </trkpt>
      <trkpt lat="43.17363" lon="0.16773">
        <ele>327.2</ele>
        <time>2022-09-06T13:16:52Z</time>
      </trkpt>
      <trkpt lat="43.17393" lon="0.16814">
        <ele>327.4</ele>
        <time>2022-09-06T13:17:00Z</time>
      </trkpt>
      <trkpt lat="43.17427" lon="0.16853">
        <ele>326.8</ele>
        <time>2022-09-06T13:17:08Z</time>
      </trkpt>
      <trkpt lat="43.17447" lon="0.16881">
        <ele>326.4</ele>
        <time>2022-09-06T13:17:13Z</time>
      </trkpt>
      <trkpt lat="43.17457" lon="0.16898">
        <ele>326.4</ele>
        <time>2022-09-06T13:17:16Z</time>
      </trkpt>
      <trkpt lat="43.17484" lon="0.16947">
        <ele>326.6</ele>
        <time>2022-09-06T13:17:24Z</time>
      </trkpt>
      <trkpt lat="43.17497" lon="0.1697">
        <ele>327.2</ele>
        <time>2022-09-06T13:17:29Z</time>
      </trkpt>
      <trkpt lat="43.17509" lon="0.16987">
        <ele>328</ele>
        <time>2022-09-06T13:17:34Z</time>
      </trkpt>
      <trkpt lat="43.17519" lon="0.17">
        <ele>328.8</ele>
        <time>2022-09-06T13:17:38Z</time>
      </trkpt>
      <trkpt lat="43.17524" lon="0.17006">
        <ele>329</ele>
        <time>2022-09-06T13:17:40Z</time>
      </trkpt>
      <trkpt lat="43.17539" lon="0.17023">
        <ele>330.2</ele>
        <time>2022-09-06T13:17:46Z</time>
      </trkpt>
      <trkpt lat="43.17549" lon="0.17031">
        <ele>331.4</ele>
        <time>2022-09-06T13:17:50Z</time>
      </trkpt>
      <trkpt lat="43.17559" lon="0.17037">
        <ele>331.6</ele>
        <time>2022-09-06T13:17:54Z</time>
      </trkpt>
      <trkpt lat="43.17574" lon="0.17043">
        <ele>332.4</ele>
        <time>2022-09-06T13:18:00Z</time>
      </trkpt>
      <trkpt lat="43.17577" lon="0.17044">
        <ele>332.6</ele>
        <time>2022-09-06T13:18:01Z</time>
      </trkpt>
      <trkpt lat="43.17584" lon="0.17047">
        <ele>333.4</ele>
        <time>2022-09-06T13:18:04Z</time>
      </trkpt>
      <trkpt lat="43.17595" lon="0.17049">
        <ele>333.4</ele>
        <time>2022-09-06T13:18:08Z</time>
      </trkpt>
      <trkpt lat="43.17613" lon="0.17053">
        <ele>334.4</ele>
        <time>2022-09-06T13:18:15Z</time>
      </trkpt>
      <trkpt lat="43.17615" lon="0.17053">
        <ele>334.6</ele>
        <time>2022-09-06T13:18:16Z</time>
      </trkpt>
      <trkpt lat="43.17621" lon="0.17054">
        <ele>335.6</ele>
        <time>2022-09-06T13:18:19Z</time>
      </trkpt>
      <trkpt lat="43.17629" lon="0.17055">
        <ele>335.8</ele>
        <time>2022-09-06T13:18:23Z</time>
      </trkpt>
      <trkpt lat="43.17644" lon="0.17056">
        <ele>336.6</ele>
        <time>2022-09-06T13:18:30Z</time>
      </trkpt>
      <trkpt lat="43.17658" lon="0.17056">
        <ele>337.4</ele>
        <time>2022-09-06T13:18:37Z</time>
      </trkpt>
      <trkpt lat="43.17665" lon="0.17055">
        <ele>337.8</ele>
        <time>2022-09-06T13:18:40Z</time>
      </trkpt>
      <trkpt lat="43.17674" lon="0.17054">
        <ele>338</ele>
        <time>2022-09-06T13:18:44Z</time>
      </trkpt>
      <trkpt lat="43.17683" lon="0.17052">
        <ele>338.8</ele>
        <time>2022-09-06T13:18:48Z</time>
      </trkpt>
      <trkpt lat="43.17689" lon="0.1705">
        <ele>339</ele>
        <time>2022-09-06T13:18:51Z</time>
      </trkpt>
      <trkpt lat="43.17706" lon="0.17048">
        <ele>339.4</ele>
        <time>2022-09-06T13:18:58Z</time>
      </trkpt>
      <trkpt lat="43.17727" lon="0.17044">
        <ele>339.8</ele>
        <time>2022-09-06T13:19:06Z</time>
      </trkpt>
      <trkpt lat="43.17755" lon="0.17039">
        <ele>339.8</ele>
        <time>2022-09-06T13:19:15Z</time>
      </trkpt>
      <trkpt lat="43.17779" lon="0.17035">
        <ele>339.6</ele>
        <time>2022-09-06T13:19:22Z</time>
      </trkpt>
      <trkpt lat="43.17806" lon="0.1703">
        <ele>339.4</ele>
        <time>2022-09-06T13:19:29Z</time>
      </trkpt>
      <trkpt lat="43.17826" lon="0.17025">
        <ele>339.2</ele>
        <time>2022-09-06T13:19:34Z</time>
      </trkpt>
      <trkpt lat="43.17834" lon="0.17024">
        <ele>338.6</ele>
        <time>2022-09-06T13:19:36Z</time>
      </trkpt>
      <trkpt lat="43.1786" lon="0.1702">
        <ele>337.6</ele>
        <time>2022-09-06T13:19:42Z</time>
      </trkpt>
      <trkpt lat="43.17865" lon="0.17019">
        <ele>337.6</ele>
        <time>2022-09-06T13:19:43Z</time>
      </trkpt>
      <trkpt lat="43.1789" lon="0.17015">
        <ele>336.6</ele>
        <time>2022-09-06T13:19:48Z</time>
      </trkpt>
      <trkpt lat="43.17901" lon="0.17014">
        <ele>336.4</ele>
        <time>2022-09-06T13:19:50Z</time>
      </trkpt>
      <trkpt lat="43.17906" lon="0.17015">
        <ele>336.2</ele>
        <time>2022-09-06T13:19:51Z</time>
      </trkpt>
      <trkpt lat="43.17928" lon="0.17019">
        <ele>336</ele>
        <time>2022-09-06T13:19:55Z</time>
      </trkpt>
      <trkpt lat="43.17938" lon="0.17023">
        <ele>336</ele>
        <time>2022-09-06T13:19:57Z</time>
      </trkpt>
      <trkpt lat="43.17959" lon="0.17032">
        <ele>335.6</ele>
        <time>2022-09-06T13:20:01Z</time>
      </trkpt>
      <trkpt lat="43.17979" lon="0.17041">
        <ele>335.2</ele>
        <time>2022-09-06T13:20:05Z</time>
      </trkpt>
      <trkpt lat="43.18001" lon="0.17049">
        <ele>334.4</ele>
        <time>2022-09-06T13:20:09Z</time>
      </trkpt>
      <trkpt lat="43.18024" lon="0.17059">
        <ele>334</ele>
        <time>2022-09-06T13:20:13Z</time>
      </trkpt>
      <trkpt lat="43.18071" lon="0.17078">
        <ele>333.4</ele>
        <time>2022-09-06T13:20:21Z</time>
      </trkpt>
      <trkpt lat="43.18124" lon="0.17101">
        <ele>332.8</ele>
        <time>2022-09-06T13:20:30Z</time>
      </trkpt>
      <trkpt lat="43.18153" lon="0.17116">
        <ele>332</ele>
        <time>2022-09-06T13:20:35Z</time>
      </trkpt>
      <trkpt lat="43.18181" lon="0.1713">
        <ele>331.4</ele>
        <time>2022-09-06T13:20:40Z</time>
      </trkpt>
      <trkpt lat="43.18197" lon="0.17139">
        <ele>331</ele>
        <time>2022-09-06T13:20:43Z</time>
      </trkpt>
      <trkpt lat="43.18224" lon="0.17153">
        <ele>331</ele>
        <time>2022-09-06T13:20:48Z</time>
      </trkpt>
      <trkpt lat="43.18279" lon="0.1718">
        <ele>330.2</ele>
        <time>2022-09-06T13:20:58Z</time>
      </trkpt>
      <trkpt lat="43.18284" lon="0.17183">
        <ele>330</ele>
        <time>2022-09-06T13:20:59Z</time>
      </trkpt>
      <trkpt lat="43.1829" lon="0.17185">
        <ele>330</ele>
        <time>2022-09-06T13:21:00Z</time>
      </trkpt>
      <trkpt lat="43.18328" lon="0.17202">
        <ele>329.2</ele>
        <time>2022-09-06T13:21:07Z</time>
      </trkpt>
      <trkpt lat="43.18362" lon="0.17204">
        <ele>329</ele>
        <time>2022-09-06T13:21:13Z</time>
      </trkpt>
      <trkpt lat="43.18401" lon="0.17204">
        <ele>329</ele>
        <time>2022-09-06T13:21:20Z</time>
      </trkpt>
      <trkpt lat="43.18413" lon="0.17205">
        <ele>329</ele>
        <time>2022-09-06T13:21:22Z</time>
      </trkpt>
      <trkpt lat="43.18436" lon="0.17209">
        <ele>328.4</ele>
        <time>2022-09-06T13:21:26Z</time>
      </trkpt>
      <trkpt lat="43.18453" lon="0.17215">
        <ele>328</ele>
        <time>2022-09-06T13:21:29Z</time>
      </trkpt>
      <trkpt lat="43.18464" lon="0.17219">
        <ele>327.8</ele>
        <time>2022-09-06T13:21:31Z</time>
      </trkpt>
      <trkpt lat="43.1848" lon="0.17226">
        <ele>327.8</ele>
        <time>2022-09-06T13:21:34Z</time>
      </trkpt>
      <trkpt lat="43.18513" lon="0.17249">
        <ele>327.2</ele>
        <time>2022-09-06T13:21:41Z</time>
      </trkpt>
      <trkpt lat="43.18525" lon="0.17257">
        <ele>327.2</ele>
        <time>2022-09-06T13:21:44Z</time>
      </trkpt>
      <trkpt lat="43.18534" lon="0.1726">
        <ele>327.2</ele>
        <time>2022-09-06T13:21:46Z</time>
      </trkpt>
      <trkpt lat="43.18538" lon="0.17262">
        <ele>327.2</ele>
        <time>2022-09-06T13:21:47Z</time>
      </trkpt>
      <trkpt lat="43.18564" lon="0.17264">
        <ele>327.6</ele>
        <time>2022-09-06T13:21:53Z</time>
      </trkpt>
      <trkpt lat="43.18603" lon="0.17263">
        <ele>327.8</ele>
        <time>2022-09-06T13:22:02Z</time>
      </trkpt>
      <trkpt lat="43.18633" lon="0.17252">
        <ele>328.2</ele>
        <time>2022-09-06T13:22:09Z</time>
      </trkpt>
      <trkpt lat="43.18653" lon="0.1724">
        <ele>329</ele>
        <time>2022-09-06T13:22:14Z</time>
      </trkpt>
      <trkpt lat="43.18664" lon="0.17236">
        <ele>329.4</ele>
        <time>2022-09-06T13:22:17Z</time>
      </trkpt>
      <trkpt lat="43.18679" lon="0.1723">
        <ele>330</ele>
        <time>2022-09-06T13:22:21Z</time>
      </trkpt>
      <trkpt lat="43.18693" lon="0.17228">
        <ele>330.8</ele>
        <time>2022-09-06T13:22:25Z</time>
      </trkpt>
      <trkpt lat="43.18724" lon="0.17225">
        <ele>331</ele>
        <time>2022-09-06T13:22:34Z</time>
      </trkpt>
      <trkpt lat="43.18756" lon="0.17225">
        <ele>331.4</ele>
        <time>2022-09-06T13:22:43Z</time>
      </trkpt>
      <trkpt lat="43.18778" lon="0.17222">
        <ele>331.2</ele>
        <time>2022-09-06T13:22:48Z</time>
      </trkpt>
      <trkpt lat="43.18783" lon="0.17224">
        <ele>331</ele>
        <time>2022-09-06T13:22:49Z</time>
      </trkpt>
      <trkpt lat="43.18799" lon="0.17224">
        <ele>330.8</ele>
        <time>2022-09-06T13:22:52Z</time>
      </trkpt>
      <trkpt lat="43.1881" lon="0.17223">
        <ele>330.6</ele>
        <time>2022-09-06T13:22:54Z</time>
      </trkpt>
      <trkpt lat="43.18851" lon="0.17214">
        <ele>330.8</ele>
        <time>2022-09-06T13:23:02Z</time>
      </trkpt>
      <trkpt lat="43.18866" lon="0.1721">
        <ele>330</ele>
        <time>2022-09-06T13:23:05Z</time>
      </trkpt>
      <trkpt lat="43.1889" lon="0.17201">
        <ele>330.2</ele>
        <time>2022-09-06T13:23:10Z</time>
      </trkpt>
      <trkpt lat="43.18928" lon="0.1718">
        <ele>329.4</ele>
        <time>2022-09-06T13:23:18Z</time>
      </trkpt>
      <trkpt lat="43.18959" lon="0.17174">
        <ele>329.8</ele>
        <time>2022-09-06T13:23:24Z</time>
      </trkpt>
      <trkpt lat="43.18993" lon="0.17178">
        <ele>330</ele>
        <time>2022-09-06T13:23:31Z</time>
      </trkpt>
      <trkpt lat="43.19023" lon="0.17183">
        <ele>330</ele>
        <time>2022-09-06T13:23:38Z</time>
      </trkpt>
      <trkpt lat="43.19036" lon="0.17181">
        <ele>330</ele>
        <time>2022-09-06T13:23:42Z</time>
      </trkpt>
      <trkpt lat="43.19038" lon="0.17177">
        <ele>330</ele>
        <time>2022-09-06T13:23:43Z</time>
      </trkpt>
      <trkpt lat="43.19035" lon="0.17161">
        <ele>329.6</ele>
        <time>2022-09-06T13:23:47Z</time>
      </trkpt>
      <trkpt lat="43.19032" lon="0.17152">
        <ele>329.8</ele>
        <time>2022-09-06T13:23:50Z</time>
      </trkpt>
      <trkpt lat="43.19034" lon="0.17146">
        <ele>330.2</ele>
        <time>2022-09-06T13:23:52Z</time>
      </trkpt>
      <trkpt lat="43.19036" lon="0.17148">
        <ele>330.2</ele>
        <time>2022-09-06T13:23:55Z</time>
      </trkpt>
      <trkpt lat="43.19037" lon="0.17157">
        <ele>330.4</ele>
        <time>2022-09-06T13:30:53Z</time>
      </trkpt>
      <trkpt lat="43.1904" lon="0.17175">
        <ele>330</ele>
        <time>2022-09-06T13:30:57Z</time>
      </trkpt>
      <trkpt lat="43.19049" lon="0.17187">
        <ele>330</ele>
        <time>2022-09-06T13:31:02Z</time>
      </trkpt>
      <trkpt lat="43.19066" lon="0.17194">
        <ele>329.8</ele>
        <time>2022-09-06T13:31:07Z</time>
      </trkpt>
      <trkpt lat="43.19087" lon="0.17213">
        <ele>329.4</ele>
        <time>2022-09-06T13:31:14Z</time>
      </trkpt>
      <trkpt lat="43.19115" lon="0.17242">
        <ele>329</ele>
        <time>2022-09-06T13:31:22Z</time>
      </trkpt>
      <trkpt lat="43.19118" lon="0.17247">
        <ele>329</ele>
        <time>2022-09-06T13:31:23Z</time>
      </trkpt>
      <trkpt lat="43.1914" lon="0.17282">
        <ele>328.2</ele>
        <time>2022-09-06T13:31:30Z</time>
      </trkpt>
      <trkpt lat="43.19154" lon="0.17304">
        <ele>328</ele>
        <time>2022-09-06T13:31:34Z</time>
      </trkpt>
      <trkpt lat="43.19166" lon="0.17328">
        <ele>327.8</ele>
        <time>2022-09-06T13:31:38Z</time>
      </trkpt>
      <trkpt lat="43.19169" lon="0.17333">
        <ele>327.6</ele>
        <time>2022-09-06T13:31:39Z</time>
      </trkpt>
      <trkpt lat="43.19196" lon="0.17377">
        <ele>327.4</ele>
        <time>2022-09-06T13:31:47Z</time>
      </trkpt>
      <trkpt lat="43.1921" lon="0.17397">
        <ele>327</ele>
        <time>2022-09-06T13:31:51Z</time>
      </trkpt>
      <trkpt lat="43.1922" lon="0.17413">
        <ele>326.8</ele>
        <time>2022-09-06T13:31:54Z</time>
      </trkpt>
      <trkpt lat="43.19235" lon="0.17433">
        <ele>325.8</ele>
        <time>2022-09-06T13:31:58Z</time>
      </trkpt>
      <trkpt lat="43.1925" lon="0.17455">
        <ele>325.6</ele>
        <time>2022-09-06T13:32:02Z</time>
      </trkpt>
      <trkpt lat="43.19254" lon="0.1746">
        <ele>325.4</ele>
        <time>2022-09-06T13:32:03Z</time>
      </trkpt>
      <trkpt lat="43.1927" lon="0.17466">
        <ele>325.2</ele>
        <time>2022-09-06T13:32:06Z</time>
      </trkpt>
      <trkpt lat="43.19276" lon="0.17467">
        <ele>325</ele>
        <time>2022-09-06T13:32:07Z</time>
      </trkpt>
      <trkpt lat="43.19281" lon="0.17469">
        <ele>324.8</ele>
        <time>2022-09-06T13:32:08Z</time>
      </trkpt>
      <trkpt lat="43.19296" lon="0.17477">
        <ele>324.6</ele>
        <time>2022-09-06T13:32:11Z</time>
      </trkpt>
      <trkpt lat="43.19338" lon="0.1749">
        <ele>324.4</ele>
        <time>2022-09-06T13:32:19Z</time>
      </trkpt>
      <trkpt lat="43.19365" lon="0.17492">
        <ele>323.8</ele>
        <time>2022-09-06T13:32:24Z</time>
      </trkpt>
      <trkpt lat="43.19381" lon="0.17493">
        <ele>323.6</ele>
        <time>2022-09-06T13:32:27Z</time>
      </trkpt>
      <trkpt lat="43.19435" lon="0.17495">
        <ele>323.2</ele>
        <time>2022-09-06T13:32:37Z</time>
      </trkpt>
      <trkpt lat="43.1947" lon="0.17496">
        <ele>322.6</ele>
        <time>2022-09-06T13:32:44Z</time>
      </trkpt>
      <trkpt lat="43.1948" lon="0.17497">
        <ele>322.6</ele>
        <time>2022-09-06T13:32:46Z</time>
      </trkpt>
      <trkpt lat="43.19515" lon="0.17504">
        <ele>322.2</ele>
        <time>2022-09-06T13:32:54Z</time>
      </trkpt>
      <trkpt lat="43.19524" lon="0.17506">
        <ele>322.6</ele>
        <time>2022-09-06T13:32:58Z</time>
      </trkpt>
      <trkpt lat="43.19543" lon="0.17501">
        <ele>322.2</ele>
        <time>2022-09-06T13:33:04Z</time>
      </trkpt>
      <trkpt lat="43.19548" lon="0.175">
        <ele>322</ele>
        <time>2022-09-06T13:33:05Z</time>
      </trkpt>
      <trkpt lat="43.19557" lon="0.175">
        <ele>321.6</ele>
        <time>2022-09-06T13:33:07Z</time>
      </trkpt>
      <trkpt lat="43.19568" lon="0.17499">
        <ele>321</ele>
        <time>2022-09-06T13:33:09Z</time>
      </trkpt>
      <trkpt lat="43.1959" lon="0.17497">
        <ele>320.6</ele>
        <time>2022-09-06T13:33:13Z</time>
      </trkpt>
      <trkpt lat="43.19601" lon="0.17497">
        <ele>320.6</ele>
        <time>2022-09-06T13:33:15Z</time>
      </trkpt>
      <trkpt lat="43.19617" lon="0.17496">
        <ele>320</ele>
        <time>2022-09-06T13:33:18Z</time>
      </trkpt>
      <trkpt lat="43.19638" lon="0.17496">
        <ele>319.6</ele>
        <time>2022-09-06T13:33:22Z</time>
      </trkpt>
      <trkpt lat="43.19666" lon="0.17495">
        <ele>319.4</ele>
        <time>2022-09-06T13:33:28Z</time>
      </trkpt>
      <trkpt lat="43.19671" lon="0.17495">
        <ele>319.4</ele>
        <time>2022-09-06T13:33:29Z</time>
      </trkpt>
      <trkpt lat="43.19718" lon="0.17494">
        <ele>318.8</ele>
        <time>2022-09-06T13:33:39Z</time>
      </trkpt>
      <trkpt lat="43.19723" lon="0.17494">
        <ele>318.6</ele>
        <time>2022-09-06T13:33:40Z</time>
      </trkpt>
      <trkpt lat="43.19763" lon="0.17491">
        <ele>318.4</ele>
        <time>2022-09-06T13:33:48Z</time>
      </trkpt>
      <trkpt lat="43.19779" lon="0.17485">
        <ele>318</ele>
        <time>2022-09-06T13:33:51Z</time>
      </trkpt>
      <trkpt lat="43.19789" lon="0.17478">
        <ele>318</ele>
        <time>2022-09-06T13:33:53Z</time>
      </trkpt>
      <trkpt lat="43.19798" lon="0.17468">
        <ele>317.8</ele>
        <time>2022-09-06T13:33:55Z</time>
      </trkpt>
      <trkpt lat="43.19809" lon="0.1745">
        <ele>317.6</ele>
        <time>2022-09-06T13:33:58Z</time>
      </trkpt>
      <trkpt lat="43.19811" lon="0.17442">
        <ele>317.4</ele>
        <time>2022-09-06T13:33:59Z</time>
      </trkpt>
      <trkpt lat="43.19818" lon="0.17419">
        <ele>317</ele>
        <time>2022-09-06T13:34:02Z</time>
      </trkpt>
      <trkpt lat="43.19821" lon="0.17403">
        <ele>316.4</ele>
        <time>2022-09-06T13:34:04Z</time>
      </trkpt>
      <trkpt lat="43.19827" lon="0.17376">
        <ele>315.4</ele>
        <time>2022-09-06T13:34:07Z</time>
      </trkpt>
      <trkpt lat="43.19828" lon="0.17366">
        <ele>315</ele>
        <time>2022-09-06T13:34:08Z</time>
      </trkpt>
      <trkpt lat="43.19833" lon="0.17346">
        <ele>314.6</ele>
        <time>2022-09-06T13:34:10Z</time>
      </trkpt>
      <trkpt lat="43.19837" lon="0.17336">
        <ele>314.4</ele>
        <time>2022-09-06T13:34:11Z</time>
      </trkpt>
      <trkpt lat="43.19844" lon="0.17317">
        <ele>313.8</ele>
        <time>2022-09-06T13:34:13Z</time>
      </trkpt>
      <trkpt lat="43.19851" lon="0.17296">
        <ele>313.2</ele>
        <time>2022-09-06T13:34:15Z</time>
      </trkpt>
      <trkpt lat="43.19863" lon="0.17259">
        <ele>312</ele>
        <time>2022-09-06T13:34:19Z</time>
      </trkpt>
      <trkpt lat="43.19881" lon="0.17221">
        <ele>310.8</ele>
        <time>2022-09-06T13:34:24Z</time>
      </trkpt>
      <trkpt lat="43.19885" lon="0.17215">
        <ele>310.6</ele>
        <time>2022-09-06T13:34:25Z</time>
      </trkpt>
      <trkpt lat="43.19892" lon="0.17206">
        <ele>310.4</ele>
        <time>2022-09-06T13:34:27Z</time>
      </trkpt>
      <trkpt lat="43.19897" lon="0.17199">
        <ele>310</ele>
        <time>2022-09-06T13:34:29Z</time>
      </trkpt>
      <trkpt lat="43.19902" lon="0.17194">
        <ele>309.8</ele>
        <time>2022-09-06T13:34:31Z</time>
      </trkpt>
      <trkpt lat="43.19903" lon="0.17189">
        <ele>309.8</ele>
        <time>2022-09-06T13:34:33Z</time>
      </trkpt>
      <trkpt lat="43.19896" lon="0.17192">
        <ele>310</ele>
        <time>2022-09-06T13:34:36Z</time>
      </trkpt>
      <trkpt lat="43.19894" lon="0.17195">
        <ele>310</ele>
        <time>2022-09-06T13:34:37Z</time>
      </trkpt>
      <trkpt lat="43.19883" lon="0.17209">
        <ele>310</ele>
        <time>2022-09-06T13:34:41Z</time>
      </trkpt>
      <trkpt lat="43.19871" lon="0.17231">
        <ele>310</ele>
        <time>2022-09-06T13:34:47Z</time>
      </trkpt>
      <trkpt lat="43.19864" lon="0.17244">
        <ele>310.2</ele>
        <time>2022-09-06T13:34:53Z</time>
      </trkpt>
      <trkpt lat="43.19863" lon="0.17236">
        <ele>308.4</ele>
        <time>2022-09-06T13:36:39Z</time>
      </trkpt>
      <trkpt lat="43.19869" lon="0.17209">
        <ele>307.8</ele>
        <time>2022-09-06T13:36:44Z</time>
      </trkpt>
      <trkpt lat="43.1987" lon="0.17204">
        <ele>307.4</ele>
        <time>2022-09-06T13:36:45Z</time>
      </trkpt>
      <trkpt lat="43.19875" lon="0.17182">
        <ele>306.4</ele>
        <time>2022-09-06T13:36:50Z</time>
      </trkpt>
      <trkpt lat="43.19876" lon="0.17177">
        <ele>306.2</ele>
        <time>2022-09-06T13:36:51Z</time>
      </trkpt>
      <trkpt lat="43.19881" lon="0.17161">
        <ele>305.8</ele>
        <time>2022-09-06T13:36:55Z</time>
      </trkpt>
      <trkpt lat="43.19888" lon="0.17151">
        <ele>305.2</ele>
        <time>2022-09-06T13:36:58Z</time>
      </trkpt>
      <trkpt lat="43.19898" lon="0.17144">
        <ele>304.8</ele>
        <time>2022-09-06T13:37:01Z</time>
      </trkpt>
      <trkpt lat="43.19913" lon="0.17134">
        <ele>304.6</ele>
        <time>2022-09-06T13:37:06Z</time>
      </trkpt>
      <trkpt lat="43.19929" lon="0.17124">
        <ele>305</ele>
        <time>2022-09-06T13:37:13Z</time>
      </trkpt>
      <trkpt lat="43.19939" lon="0.17119">
        <ele>305.6</ele>
        <time>2022-09-06T13:37:19Z</time>
      </trkpt>
      <trkpt lat="43.19946" lon="0.17116">
        <ele>306</ele>
        <time>2022-09-06T13:37:23Z</time>
      </trkpt>
      <trkpt lat="43.1995" lon="0.17114">
        <ele>306.2</ele>
        <time>2022-09-06T13:37:25Z</time>
      </trkpt>
      <trkpt lat="43.19951" lon="0.17113">
        <ele>306.2</ele>
        <time>2022-09-06T13:37:26Z</time>
      </trkpt>
      <trkpt lat="43.19961" lon="0.17103">
        <ele>307.4</ele>
        <time>2022-09-06T13:37:33Z</time>
      </trkpt>
      <trkpt lat="43.19967" lon="0.17087">
        <ele>308.4</ele>
        <time>2022-09-06T13:37:40Z</time>
      </trkpt>
      <trkpt lat="43.19968" lon="0.17085">
        <ele>308.6</ele>
        <time>2022-09-06T13:37:41Z</time>
      </trkpt>
      <trkpt lat="43.19973" lon="0.17068">
        <ele>309</ele>
        <time>2022-09-06T13:37:48Z</time>
      </trkpt>
      <trkpt lat="43.19974" lon="0.17054">
        <ele>309.2</ele>
        <time>2022-09-06T13:37:55Z</time>
      </trkpt>
      <trkpt lat="43.1998" lon="0.17046">
        <ele>309.6</ele>
        <time>2022-09-06T13:38:00Z</time>
      </trkpt>
      <trkpt lat="43.19984" lon="0.17025">
        <ele>310.2</ele>
        <time>2022-09-06T13:38:07Z</time>
      </trkpt>
      <trkpt lat="43.19982" lon="0.17005">
        <ele>310.6</ele>
        <time>2022-09-06T13:38:13Z</time>
      </trkpt>
      <trkpt lat="43.19979" lon="0.16983">
        <ele>311.6</ele>
        <time>2022-09-06T13:38:20Z</time>
      </trkpt>
      <trkpt lat="43.19978" lon="0.16973">
        <ele>311.8</ele>
        <time>2022-09-06T13:38:23Z</time>
      </trkpt>
      <trkpt lat="43.19977" lon="0.16959">
        <ele>312</ele>
        <time>2022-09-06T13:38:27Z</time>
      </trkpt>
      <trkpt lat="43.19976" lon="0.16936">
        <ele>312.6</ele>
        <time>2022-09-06T13:38:33Z</time>
      </trkpt>
      <trkpt lat="43.19975" lon="0.16927">
        <ele>312.8</ele>
        <time>2022-09-06T13:38:35Z</time>
      </trkpt>
      <trkpt lat="43.19969" lon="0.16898">
        <ele>312.8</ele>
        <time>2022-09-06T13:38:42Z</time>
      </trkpt>
      <trkpt lat="43.19955" lon="0.16868">
        <ele>313.4</ele>
        <time>2022-09-06T13:38:51Z</time>
      </trkpt>
      <trkpt lat="43.19949" lon="0.16853">
        <ele>313.8</ele>
        <time>2022-09-06T13:38:55Z</time>
      </trkpt>
      <trkpt lat="43.19938" lon="0.16828">
        <ele>314.2</ele>
        <time>2022-09-06T13:39:02Z</time>
      </trkpt>
      <trkpt lat="43.19927" lon="0.16803">
        <ele>314.6</ele>
        <time>2022-09-06T13:39:09Z</time>
      </trkpt>
      <trkpt lat="43.19913" lon="0.16769">
        <ele>314.6</ele>
        <time>2022-09-06T13:39:18Z</time>
      </trkpt>
      <trkpt lat="43.19901" lon="0.16743">
        <ele>314.6</ele>
        <time>2022-09-06T13:39:25Z</time>
      </trkpt>
      <trkpt lat="43.19888" lon="0.16716">
        <ele>314.8</ele>
        <time>2022-09-06T13:39:32Z</time>
      </trkpt>
      <trkpt lat="43.19886" lon="0.16712">
        <ele>315</ele>
        <time>2022-09-06T13:39:33Z</time>
      </trkpt>
      <trkpt lat="43.19869" lon="0.16673">
        <ele>315.2</ele>
        <time>2022-09-06T13:39:43Z</time>
      </trkpt>
      <trkpt lat="43.1985" lon="0.16636">
        <ele>315.6</ele>
        <time>2022-09-06T13:39:53Z</time>
      </trkpt>
      <trkpt lat="43.19842" lon="0.16624">
        <ele>316</ele>
        <time>2022-09-06T13:39:57Z</time>
      </trkpt>
      <trkpt lat="43.19831" lon="0.16608">
        <ele>316.4</ele>
        <time>2022-09-06T13:40:02Z</time>
      </trkpt>
      <trkpt lat="43.19815" lon="0.16582">
        <ele>316.8</ele>
        <time>2022-09-06T13:40:10Z</time>
      </trkpt>
      <trkpt lat="43.19813" lon="0.16579">
        <ele>317.2</ele>
        <time>2022-09-06T13:40:11Z</time>
      </trkpt>
      <trkpt lat="43.19805" lon="0.16567">
        <ele>317.6</ele>
        <time>2022-09-06T13:40:16Z</time>
      </trkpt>
      <trkpt lat="43.19801" lon="0.1656">
        <ele>318.2</ele>
        <time>2022-09-06T13:40:19Z</time>
      </trkpt>
      <trkpt lat="43.19792" lon="0.1654">
        <ele>319</ele>
        <time>2022-09-06T13:40:27Z</time>
      </trkpt>
      <trkpt lat="43.19789" lon="0.16531">
        <ele>319.2</ele>
        <time>2022-09-06T13:40:30Z</time>
      </trkpt>
      <trkpt lat="43.19787" lon="0.16514">
        <ele>319.4</ele>
        <time>2022-09-06T13:40:34Z</time>
      </trkpt>
      <trkpt lat="43.19779" lon="0.16474">
        <ele>319.8</ele>
        <time>2022-09-06T13:40:44Z</time>
      </trkpt>
      <trkpt lat="43.19778" lon="0.1647">
        <ele>320.2</ele>
        <time>2022-09-06T13:40:45Z</time>
      </trkpt>
      <trkpt lat="43.19774" lon="0.16441">
        <ele>321</ele>
        <time>2022-09-06T13:40:52Z</time>
      </trkpt>
      <trkpt lat="43.19771" lon="0.16422">
        <ele>321.4</ele>
        <time>2022-09-06T13:40:57Z</time>
      </trkpt>
      <trkpt lat="43.19769" lon="0.16411">
        <ele>321.6</ele>
        <time>2022-09-06T13:41:00Z</time>
      </trkpt>
      <trkpt lat="43.19764" lon="0.16381">
        <ele>322.4</ele>
        <time>2022-09-06T13:41:08Z</time>
      </trkpt>
      <trkpt lat="43.19762" lon="0.16367">
        <ele>322.4</ele>
        <time>2022-09-06T13:41:12Z</time>
      </trkpt>
      <trkpt lat="43.19759" lon="0.16353">
        <ele>322.4</ele>
        <time>2022-09-06T13:41:16Z</time>
      </trkpt>
      <trkpt lat="43.19755" lon="0.16328">
        <ele>322.8</ele>
        <time>2022-09-06T13:41:23Z</time>
      </trkpt>
      <trkpt lat="43.1975" lon="0.16301">
        <ele>323.4</ele>
        <time>2022-09-06T13:41:31Z</time>
      </trkpt>
      <trkpt lat="43.19747" lon="0.1628">
        <ele>324</ele>
        <time>2022-09-06T13:41:37Z</time>
      </trkpt>
      <trkpt lat="43.19743" lon="0.16251">
        <ele>324</ele>
        <time>2022-09-06T13:41:45Z</time>
      </trkpt>
      <trkpt lat="43.1974" lon="0.16238">
        <ele>324.4</ele>
        <time>2022-09-06T13:41:49Z</time>
      </trkpt>
      <trkpt lat="43.19737" lon="0.16229">
        <ele>324.8</ele>
        <time>2022-09-06T13:41:52Z</time>
      </trkpt>
      <trkpt lat="43.19731" lon="0.16197">
        <ele>325.4</ele>
        <time>2022-09-06T13:42:01Z</time>
      </trkpt>
      <trkpt lat="43.19731" lon="0.16193">
        <ele>325.4</ele>
        <time>2022-09-06T13:42:02Z</time>
      </trkpt>
      <trkpt lat="43.19725" lon="0.16158">
        <ele>326.2</ele>
        <time>2022-09-06T13:42:12Z</time>
      </trkpt>
      <trkpt lat="43.19721" lon="0.16141">
        <ele>326.6</ele>
        <time>2022-09-06T13:42:17Z</time>
      </trkpt>
      <trkpt lat="43.19719" lon="0.16131">
        <ele>326.8</ele>
        <time>2022-09-06T13:42:20Z</time>
      </trkpt>
      <trkpt lat="43.19711" lon="0.16116">
        <ele>327.2</ele>
        <time>2022-09-06T13:42:26Z</time>
      </trkpt>
      <trkpt lat="43.19695" lon="0.16108">
        <ele>327.4</ele>
        <time>2022-09-06T13:42:34Z</time>
      </trkpt>
      <trkpt lat="43.19687" lon="0.16105">
        <ele>327.6</ele>
        <time>2022-09-06T13:42:38Z</time>
      </trkpt>
      <trkpt lat="43.19678" lon="0.16101">
        <ele>327.6</ele>
        <time>2022-09-06T13:42:42Z</time>
      </trkpt>
      <trkpt lat="43.1967" lon="0.16097">
        <ele>328.2</ele>
        <time>2022-09-06T13:42:47Z</time>
      </trkpt>
      <trkpt lat="43.19662" lon="0.16091">
        <ele>328.8</ele>
        <time>2022-09-06T13:43:15Z</time>
      </trkpt>
      <trkpt lat="43.19649" lon="0.16079">
        <ele>328.6</ele>
        <time>2022-09-06T13:43:21Z</time>
      </trkpt>
      <trkpt lat="43.19644" lon="0.16074">
        <ele>328.6</ele>
        <time>2022-09-06T13:43:23Z</time>
      </trkpt>
      <trkpt lat="43.19628" lon="0.16059">
        <ele>328.6</ele>
        <time>2022-09-06T13:43:29Z</time>
      </trkpt>
      <trkpt lat="43.19602" lon="0.16035">
        <ele>329</ele>
        <time>2022-09-06T13:43:38Z</time>
      </trkpt>
      <trkpt lat="43.19571" lon="0.16005">
        <ele>329.6</ele>
        <time>2022-09-06T13:43:49Z</time>
      </trkpt>
      <trkpt lat="43.19563" lon="0.15996">
        <ele>329.8</ele>
        <time>2022-09-06T13:43:52Z</time>
      </trkpt>
      <trkpt lat="43.1955" lon="0.15978">
        <ele>330.4</ele>
        <time>2022-09-06T13:43:57Z</time>
      </trkpt>
      <trkpt lat="43.19533" lon="0.15952">
        <ele>330.8</ele>
        <time>2022-09-06T13:44:04Z</time>
      </trkpt>
      <trkpt lat="43.19526" lon="0.15941">
        <ele>331</ele>
        <time>2022-09-06T13:44:07Z</time>
      </trkpt>
      <trkpt lat="43.19502" lon="0.15904">
        <ele>332</ele>
        <time>2022-09-06T13:44:17Z</time>
      </trkpt>
      <trkpt lat="43.19486" lon="0.15879">
        <ele>333</ele>
        <time>2022-09-06T13:44:24Z</time>
      </trkpt>
      <trkpt lat="43.19475" lon="0.15861">
        <ele>333.4</ele>
        <time>2022-09-06T13:44:29Z</time>
      </trkpt>
      <trkpt lat="43.19461" lon="0.15836">
        <ele>334.2</ele>
        <time>2022-09-06T13:44:36Z</time>
      </trkpt>
      <trkpt lat="43.19457" lon="0.15828">
        <ele>334.2</ele>
        <time>2022-09-06T13:44:38Z</time>
      </trkpt>
      <trkpt lat="43.19444" lon="0.158">
        <ele>335</ele>
        <time>2022-09-06T13:44:46Z</time>
      </trkpt>
      <trkpt lat="43.19441" lon="0.15793">
        <ele>335.2</ele>
        <time>2022-09-06T13:44:48Z</time>
      </trkpt>
      <trkpt lat="43.19429" lon="0.15769">
        <ele>335.6</ele>
        <time>2022-09-06T13:44:55Z</time>
      </trkpt>
      <trkpt lat="43.19419" lon="0.15748">
        <ele>336.2</ele>
        <time>2022-09-06T13:45:01Z</time>
      </trkpt>
      <trkpt lat="43.19412" lon="0.15734">
        <ele>336.2</ele>
        <time>2022-09-06T13:45:05Z</time>
      </trkpt>
      <trkpt lat="43.19406" lon="0.1571">
        <ele>337</ele>
        <time>2022-09-06T13:45:12Z</time>
      </trkpt>
      <trkpt lat="43.19407" lon="0.15701">
        <ele>337.2</ele>
        <time>2022-09-06T13:45:16Z</time>
      </trkpt>
      <trkpt lat="43.19406" lon="0.15699">
        <ele>337.4</ele>
        <time>2022-09-06T13:45:17Z</time>
      </trkpt>
      <trkpt lat="43.19398" lon="0.15685">
        <ele>337.6</ele>
        <time>2022-09-06T13:45:23Z</time>
      </trkpt>
      <trkpt lat="43.19397" lon="0.15665">
        <ele>337.8</ele>
        <time>2022-09-06T13:45:30Z</time>
      </trkpt>
      <trkpt lat="43.19399" lon="0.15647">
        <ele>338.2</ele>
        <time>2022-09-06T13:45:35Z</time>
      </trkpt>
      <trkpt lat="43.194" lon="0.15636">
        <ele>338.2</ele>
        <time>2022-09-06T13:45:38Z</time>
      </trkpt>
      <trkpt lat="43.19403" lon="0.15599">
        <ele>339</ele>
        <time>2022-09-06T13:45:48Z</time>
      </trkpt>
      <trkpt lat="43.19404" lon="0.15588">
        <ele>339.4</ele>
        <time>2022-09-06T13:45:51Z</time>
      </trkpt>
      <trkpt lat="43.19407" lon="0.15565">
        <ele>339.8</ele>
        <time>2022-09-06T13:45:57Z</time>
      </trkpt>
      <trkpt lat="43.19408" lon="0.15552">
        <ele>340.4</ele>
        <time>2022-09-06T13:46:00Z</time>
      </trkpt>
      <trkpt lat="43.19411" lon="0.15524">
        <ele>341</ele>
        <time>2022-09-06T13:46:07Z</time>
      </trkpt>
      <trkpt lat="43.19413" lon="0.15495">
        <ele>341.4</ele>
        <time>2022-09-06T13:46:14Z</time>
      </trkpt>
      <trkpt lat="43.19415" lon="0.15483">
        <ele>341.6</ele>
        <time>2022-09-06T13:46:17Z</time>
      </trkpt>
      <trkpt lat="43.19418" lon="0.15449">
        <ele>342.6</ele>
        <time>2022-09-06T13:46:25Z</time>
      </trkpt>
      <trkpt lat="43.19418" lon="0.15444">
        <ele>342.6</ele>
        <time>2022-09-06T13:46:26Z</time>
      </trkpt>
      <trkpt lat="43.19422" lon="0.15406">
        <ele>343.6</ele>
        <time>2022-09-06T13:46:35Z</time>
      </trkpt>
      <trkpt lat="43.19423" lon="0.15402">
        <ele>343.8</ele>
        <time>2022-09-06T13:46:36Z</time>
      </trkpt>
      <trkpt lat="43.19424" lon="0.15371">
        <ele>344.8</ele>
        <time>2022-09-06T13:46:44Z</time>
      </trkpt>
      <trkpt lat="43.1942" lon="0.15345">
        <ele>345.8</ele>
        <time>2022-09-06T13:46:52Z</time>
      </trkpt>
      <trkpt lat="43.19415" lon="0.15328">
        <ele>346.8</ele>
        <time>2022-09-06T13:46:58Z</time>
      </trkpt>
      <trkpt lat="43.19414" lon="0.15313">
        <ele>347.2</ele>
        <time>2022-09-06T13:47:03Z</time>
      </trkpt>
      <trkpt lat="43.19411" lon="0.15298">
        <ele>347.8</ele>
        <time>2022-09-06T13:47:08Z</time>
      </trkpt>
      <trkpt lat="43.1941" lon="0.15296">
        <ele>348</ele>
        <time>2022-09-06T13:47:09Z</time>
      </trkpt>
      <trkpt lat="43.19407" lon="0.15284">
        <ele>349</ele>
        <time>2022-09-06T13:47:14Z</time>
      </trkpt>
      <trkpt lat="43.19405" lon="0.15277">
        <ele>349.2</ele>
        <time>2022-09-06T13:47:17Z</time>
      </trkpt>
      <trkpt lat="43.19403" lon="0.15264">
        <ele>350</ele>
        <time>2022-09-06T13:47:22Z</time>
      </trkpt>
      <trkpt lat="43.19403" lon="0.15255">
        <ele>350.6</ele>
        <time>2022-09-06T13:47:26Z</time>
      </trkpt>
      <trkpt lat="43.19402" lon="0.15246">
        <ele>351.2</ele>
        <time>2022-09-06T13:47:30Z</time>
      </trkpt>
      <trkpt lat="43.19402" lon="0.15239">
        <ele>351.8</ele>
        <time>2022-09-06T13:47:33Z</time>
      </trkpt>
      <trkpt lat="43.19403" lon="0.15233">
        <ele>352.2</ele>
        <time>2022-09-06T13:47:36Z</time>
      </trkpt>
      <trkpt lat="43.19404" lon="0.15221">
        <ele>353.2</ele>
        <time>2022-09-06T13:47:41Z</time>
      </trkpt>
      <trkpt lat="43.19404" lon="0.15218">
        <ele>353.4</ele>
        <time>2022-09-06T13:47:42Z</time>
      </trkpt>
      <trkpt lat="43.19404" lon="0.15204">
        <ele>354.4</ele>
        <time>2022-09-06T13:47:48Z</time>
      </trkpt>
      <trkpt lat="43.19404" lon="0.15202">
        <ele>354.4</ele>
        <time>2022-09-06T13:47:49Z</time>
      </trkpt>
      <trkpt lat="43.19404" lon="0.15185">
        <ele>355.6</ele>
        <time>2022-09-06T13:47:56Z</time>
      </trkpt>
      <trkpt lat="43.19404" lon="0.15167">
        <ele>356.4</ele>
        <time>2022-09-06T13:48:03Z</time>
      </trkpt>
      <trkpt lat="43.19404" lon="0.15165">
        <ele>356.6</ele>
        <time>2022-09-06T13:48:04Z</time>
      </trkpt>
      <trkpt lat="43.19405" lon="0.15152">
        <ele>357</ele>
        <time>2022-09-06T13:48:09Z</time>
      </trkpt>
      <trkpt lat="43.19405" lon="0.15142">
        <ele>357.6</ele>
        <time>2022-09-06T13:48:13Z</time>
      </trkpt>
      <trkpt lat="43.19406" lon="0.15135">
        <ele>358.2</ele>
        <time>2022-09-06T13:48:16Z</time>
      </trkpt>
      <trkpt lat="43.19406" lon="0.15123">
        <ele>358.8</ele>
        <time>2022-09-06T13:48:21Z</time>
      </trkpt>
      <trkpt lat="43.19406" lon="0.15117">
        <ele>359.6</ele>
        <time>2022-09-06T13:48:23Z</time>
      </trkpt>
      <trkpt lat="43.19407" lon="0.1511">
        <ele>359.8</ele>
        <time>2022-09-06T13:48:26Z</time>
      </trkpt>
      <trkpt lat="43.19407" lon="0.15105">
        <ele>360</ele>
        <time>2022-09-06T13:48:28Z</time>
      </trkpt>
      <trkpt lat="43.19403" lon="0.15094">
        <ele>360.8</ele>
        <time>2022-09-06T13:48:33Z</time>
      </trkpt>
      <trkpt lat="43.19395" lon="0.15079">
        <ele>361.8</ele>
        <time>2022-09-06T13:48:40Z</time>
      </trkpt>
      <trkpt lat="43.19393" lon="0.15075">
        <ele>362</ele>
        <time>2022-09-06T13:48:42Z</time>
      </trkpt>
      <trkpt lat="43.19388" lon="0.15065">
        <ele>362.2</ele>
        <time>2022-09-06T13:48:47Z</time>
      </trkpt>
      <trkpt lat="43.19381" lon="0.15048">
        <ele>363</ele>
        <time>2022-09-06T13:48:54Z</time>
      </trkpt>
      <trkpt lat="43.1938" lon="0.15045">
        <ele>363</ele>
        <time>2022-09-06T13:48:55Z</time>
      </trkpt>
      <trkpt lat="43.19373" lon="0.15028">
        <ele>363.2</ele>
        <time>2022-09-06T13:49:01Z</time>
      </trkpt>
      <trkpt lat="43.1936" lon="0.15004">
        <ele>363.8</ele>
        <time>2022-09-06T13:49:10Z</time>
      </trkpt>
      <trkpt lat="43.1935" lon="0.14985">
        <ele>363.8</ele>
        <time>2022-09-06T13:49:17Z</time>
      </trkpt>
      <trkpt lat="43.19346" lon="0.1498">
        <ele>364</ele>
        <time>2022-09-06T13:49:19Z</time>
      </trkpt>
      <trkpt lat="43.19332" lon="0.14964">
        <ele>363.4</ele>
        <time>2022-09-06T13:49:24Z</time>
      </trkpt>
      <trkpt lat="43.19323" lon="0.14956">
        <ele>362.8</ele>
        <time>2022-09-06T13:49:26Z</time>
      </trkpt>
      <trkpt lat="43.19309" lon="0.1494">
        <ele>362.4</ele>
        <time>2022-09-06T13:49:29Z</time>
      </trkpt>
      <trkpt lat="43.19298" lon="0.14931">
        <ele>361.8</ele>
        <time>2022-09-06T13:49:31Z</time>
      </trkpt>
      <trkpt lat="43.19279" lon="0.14916">
        <ele>360.4</ele>
        <time>2022-09-06T13:49:34Z</time>
      </trkpt>
      <trkpt lat="43.19254" lon="0.14886">
        <ele>360.2</ele>
        <time>2022-09-06T13:49:39Z</time>
      </trkpt>
      <trkpt lat="43.19238" lon="0.14862">
        <ele>361.2</ele>
        <time>2022-09-06T13:49:44Z</time>
      </trkpt>
      <trkpt lat="43.19236" lon="0.14858">
        <ele>361.6</ele>
        <time>2022-09-06T13:49:45Z</time>
      </trkpt>
      <trkpt lat="43.19226" lon="0.14837">
        <ele>362.6</ele>
        <time>2022-09-06T13:49:51Z</time>
      </trkpt>
      <trkpt lat="43.19216" lon="0.14809">
        <ele>363.6</ele>
        <time>2022-09-06T13:49:59Z</time>
      </trkpt>
      <trkpt lat="43.19214" lon="0.14802">
        <ele>363.8</ele>
        <time>2022-09-06T13:50:01Z</time>
      </trkpt>
      <trkpt lat="43.19206" lon="0.14781">
        <ele>364.8</ele>
        <time>2022-09-06T13:50:07Z</time>
      </trkpt>
      <trkpt lat="43.19205" lon="0.14777">
        <ele>365</ele>
        <time>2022-09-06T13:50:08Z</time>
      </trkpt>
      <trkpt lat="43.19199" lon="0.14757">
        <ele>365.8</ele>
        <time>2022-09-06T13:50:14Z</time>
      </trkpt>
      <trkpt lat="43.19196" lon="0.14746">
        <ele>366</ele>
        <time>2022-09-06T13:50:17Z</time>
      </trkpt>
      <trkpt lat="43.1919" lon="0.14708">
        <ele>366.4</ele>
        <time>2022-09-06T13:50:27Z</time>
      </trkpt>
      <trkpt lat="43.19187" lon="0.14676">
        <ele>366.8</ele>
        <time>2022-09-06T13:50:36Z</time>
      </trkpt>
      <trkpt lat="43.19186" lon="0.14672">
        <ele>366.8</ele>
        <time>2022-09-06T13:50:37Z</time>
      </trkpt>
      <trkpt lat="43.1918" lon="0.14662">
        <ele>366.6</ele>
        <time>2022-09-06T13:50:40Z</time>
      </trkpt>
      <trkpt lat="43.19177" lon="0.14658">
        <ele>366.4</ele>
        <time>2022-09-06T13:50:41Z</time>
      </trkpt>
      <trkpt lat="43.19165" lon="0.14643">
        <ele>365.8</ele>
        <time>2022-09-06T13:50:44Z</time>
      </trkpt>
      <trkpt lat="43.1916" lon="0.14636">
        <ele>365.4</ele>
        <time>2022-09-06T13:50:45Z</time>
      </trkpt>
      <trkpt lat="43.19151" lon="0.14623">
        <ele>364.4</ele>
        <time>2022-09-06T13:50:47Z</time>
      </trkpt>
      <trkpt lat="43.19134" lon="0.14598">
        <ele>363.8</ele>
        <time>2022-09-06T13:50:51Z</time>
      </trkpt>
      <trkpt lat="43.19131" lon="0.14582">
        <ele>363.4</ele>
        <time>2022-09-06T13:50:54Z</time>
      </trkpt>
      <trkpt lat="43.19135" lon="0.14571">
        <ele>364.2</ele>
        <time>2022-09-06T13:50:58Z</time>
      </trkpt>
      <trkpt lat="43.19136" lon="0.14569">
        <ele>364.4</ele>
        <time>2022-09-06T13:50:59Z</time>
      </trkpt>
      <trkpt lat="43.19146" lon="0.14556">
        <ele>365</ele>
        <time>2022-09-06T13:51:05Z</time>
      </trkpt>
      <trkpt lat="43.1915" lon="0.14552">
        <ele>365.6</ele>
        <time>2022-09-06T13:51:07Z</time>
      </trkpt>
      <trkpt lat="43.19158" lon="0.14542">
        <ele>365.8</ele>
        <time>2022-09-06T13:51:11Z</time>
      </trkpt>
      <trkpt lat="43.19174" lon="0.14521">
        <ele>366.6</ele>
        <time>2022-09-06T13:51:18Z</time>
      </trkpt>
      <trkpt lat="43.19176" lon="0.14518">
        <ele>366.8</ele>
        <time>2022-09-06T13:51:19Z</time>
      </trkpt>
      <trkpt lat="43.19186" lon="0.14504">
        <ele>367.6</ele>
        <time>2022-09-06T13:51:24Z</time>
      </trkpt>
      <trkpt lat="43.1919" lon="0.14497">
        <ele>368</ele>
        <time>2022-09-06T13:51:27Z</time>
      </trkpt>
      <trkpt lat="43.19201" lon="0.14482">
        <ele>368.8</ele>
        <time>2022-09-06T13:51:33Z</time>
      </trkpt>
      <trkpt lat="43.19206" lon="0.14477">
        <ele>369.2</ele>
        <time>2022-09-06T13:51:35Z</time>
      </trkpt>
      <trkpt lat="43.19215" lon="0.14465">
        <ele>369.8</ele>
        <time>2022-09-06T13:51:39Z</time>
      </trkpt>
      <trkpt lat="43.19224" lon="0.14454">
        <ele>370.8</ele>
        <time>2022-09-06T13:51:43Z</time>
      </trkpt>
      <trkpt lat="43.1923" lon="0.14446">
        <ele>371</ele>
        <time>2022-09-06T13:51:46Z</time>
      </trkpt>
      <trkpt lat="43.19238" lon="0.14436">
        <ele>371.4</ele>
        <time>2022-09-06T13:51:50Z</time>
      </trkpt>
      <trkpt lat="43.1925" lon="0.1442">
        <ele>372</ele>
        <time>2022-09-06T13:51:56Z</time>
      </trkpt>
      <trkpt lat="43.19256" lon="0.14411">
        <ele>372.4</ele>
        <time>2022-09-06T13:51:59Z</time>
      </trkpt>
      <trkpt lat="43.19272" lon="0.14389">
        <ele>373</ele>
        <time>2022-09-06T13:52:07Z</time>
      </trkpt>
      <trkpt lat="43.19281" lon="0.14379">
        <ele>373.2</ele>
        <time>2022-09-06T13:52:11Z</time>
      </trkpt>
      <trkpt lat="43.19289" lon="0.1437">
        <ele>373.4</ele>
        <time>2022-09-06T13:52:15Z</time>
      </trkpt>
      <trkpt lat="43.19297" lon="0.14361">
        <ele>374.2</ele>
        <time>2022-09-06T13:52:19Z</time>
      </trkpt>
      <trkpt lat="43.19305" lon="0.14353">
        <ele>374.6</ele>
        <time>2022-09-06T13:52:23Z</time>
      </trkpt>
      <trkpt lat="43.1932" lon="0.14336">
        <ele>375.6</ele>
        <time>2022-09-06T13:52:30Z</time>
      </trkpt>
      <trkpt lat="43.19327" lon="0.14329">
        <ele>375</ele>
        <time>2022-09-06T13:52:33Z</time>
      </trkpt>
      <trkpt lat="43.1935" lon="0.14306">
        <ele>375.2</ele>
        <time>2022-09-06T13:52:43Z</time>
      </trkpt>
      <trkpt lat="43.19373" lon="0.14288">
        <ele>375.8</ele>
        <time>2022-09-06T13:52:52Z</time>
      </trkpt>
      <trkpt lat="43.19387" lon="0.1427">
        <ele>376.2</ele>
        <time>2022-09-06T13:52:59Z</time>
      </trkpt>
      <trkpt lat="43.19392" lon="0.1426">
        <ele>376.6</ele>
        <time>2022-09-06T13:53:02Z</time>
      </trkpt>
      <trkpt lat="43.19402" lon="0.14242">
        <ele>376.8</ele>
        <time>2022-09-06T13:53:08Z</time>
      </trkpt>
      <trkpt lat="43.19419" lon="0.14208">
        <ele>377.6</ele>
        <time>2022-09-06T13:53:19Z</time>
      </trkpt>
      <trkpt lat="43.19421" lon="0.14205">
        <ele>377.8</ele>
        <time>2022-09-06T13:53:20Z</time>
      </trkpt>
      <trkpt lat="43.19432" lon="0.14182">
        <ele>378.2</ele>
        <time>2022-09-06T13:53:27Z</time>
      </trkpt>
      <trkpt lat="43.19443" lon="0.14166">
        <ele>378.4</ele>
        <time>2022-09-06T13:53:33Z</time>
      </trkpt>
      <trkpt lat="43.19454" lon="0.1415">
        <ele>378.8</ele>
        <time>2022-09-06T13:53:39Z</time>
      </trkpt>
      <trkpt lat="43.19459" lon="0.14144">
        <ele>379.2</ele>
        <time>2022-09-06T13:53:42Z</time>
      </trkpt>
      <trkpt lat="43.19469" lon="0.14128">
        <ele>380</ele>
        <time>2022-09-06T13:53:49Z</time>
      </trkpt>
      <trkpt lat="43.1947" lon="0.14126">
        <ele>380</ele>
        <time>2022-09-06T13:53:50Z</time>
      </trkpt>
      <trkpt lat="43.19477" lon="0.14107">
        <ele>381</ele>
        <time>2022-09-06T13:53:57Z</time>
      </trkpt>
      <trkpt lat="43.19478" lon="0.14101">
        <ele>381.4</ele>
        <time>2022-09-06T13:53:59Z</time>
      </trkpt>
      <trkpt lat="43.19483" lon="0.14087">
        <ele>382</ele>
        <time>2022-09-06T13:54:05Z</time>
      </trkpt>
      <trkpt lat="43.19486" lon="0.14082">
        <ele>382.4</ele>
        <time>2022-09-06T13:54:07Z</time>
      </trkpt>
      <trkpt lat="43.19491" lon="0.14074">
        <ele>383.2</ele>
        <time>2022-09-06T13:54:11Z</time>
      </trkpt>
      <trkpt lat="43.19495" lon="0.14065">
        <ele>383.8</ele>
        <time>2022-09-06T13:54:15Z</time>
      </trkpt>
      <trkpt lat="43.19501" lon="0.14054">
        <ele>384.2</ele>
        <time>2022-09-06T13:54:19Z</time>
      </trkpt>
      <trkpt lat="43.19506" lon="0.14044">
        <ele>384.8</ele>
        <time>2022-09-06T13:54:23Z</time>
      </trkpt>
      <trkpt lat="43.19518" lon="0.14018">
        <ele>385.2</ele>
        <time>2022-09-06T13:54:32Z</time>
      </trkpt>
      <trkpt lat="43.19519" lon="0.14015">
        <ele>385.2</ele>
        <time>2022-09-06T13:54:33Z</time>
      </trkpt>
      <trkpt lat="43.19528" lon="0.13994">
        <ele>385.8</ele>
        <time>2022-09-06T13:54:40Z</time>
      </trkpt>
      <trkpt lat="43.19538" lon="0.13973">
        <ele>386.2</ele>
        <time>2022-09-06T13:54:47Z</time>
      </trkpt>
      <trkpt lat="43.19539" lon="0.1397">
        <ele>386.4</ele>
        <time>2022-09-06T13:54:48Z</time>
      </trkpt>
      <trkpt lat="43.19547" lon="0.1395">
        <ele>387.2</ele>
        <time>2022-09-06T13:54:55Z</time>
      </trkpt>
      <trkpt lat="43.19549" lon="0.1394">
        <ele>387.4</ele>
        <time>2022-09-06T13:54:58Z</time>
      </trkpt>
      <trkpt lat="43.19557" lon="0.13913">
        <ele>388</ele>
        <time>2022-09-06T13:55:06Z</time>
      </trkpt>
      <trkpt lat="43.19566" lon="0.13887">
        <ele>387.8</ele>
        <time>2022-09-06T13:55:14Z</time>
      </trkpt>
      <trkpt lat="43.19581" lon="0.13848">
        <ele>388.4</ele>
        <time>2022-09-06T13:55:25Z</time>
      </trkpt>
      <trkpt lat="43.19594" lon="0.13829">
        <ele>389.2</ele>
        <time>2022-09-06T13:55:32Z</time>
      </trkpt>
      <trkpt lat="43.19602" lon="0.13823">
        <ele>389.8</ele>
        <time>2022-09-06T13:55:36Z</time>
      </trkpt>
      <trkpt lat="43.19605" lon="0.13821">
        <ele>390</ele>
        <time>2022-09-06T13:55:38Z</time>
      </trkpt>
      <trkpt lat="43.19621" lon="0.13812">
        <ele>390.8</ele>
        <time>2022-09-06T13:55:46Z</time>
      </trkpt>
      <trkpt lat="43.19632" lon="0.13806">
        <ele>391.8</ele>
        <time>2022-09-06T13:55:53Z</time>
      </trkpt>
      <trkpt lat="43.19634" lon="0.13805">
        <ele>392</ele>
        <time>2022-09-06T13:55:54Z</time>
      </trkpt>
      <trkpt lat="43.19637" lon="0.13804">
        <ele>392.4</ele>
        <time>2022-09-06T13:55:56Z</time>
      </trkpt>
      <trkpt lat="43.19641" lon="0.13802">
        <ele>392.8</ele>
        <time>2022-09-06T13:55:59Z</time>
      </trkpt>
      <trkpt lat="43.19643" lon="0.13801">
        <ele>393</ele>
        <time>2022-09-06T13:56:00Z</time>
      </trkpt>
      <trkpt lat="43.19644" lon="0.138">
        <ele>393</ele>
        <time>2022-09-06T13:56:01Z</time>
      </trkpt>
      <trkpt lat="43.19656" lon="0.13793">
        <ele>393.8</ele>
        <time>2022-09-06T13:56:07Z</time>
      </trkpt>
      <trkpt lat="43.19659" lon="0.13791">
        <ele>394</ele>
        <time>2022-09-06T13:56:09Z</time>
      </trkpt>
      <trkpt lat="43.19666" lon="0.13783">
        <ele>394.4</ele>
        <time>2022-09-06T13:56:14Z</time>
      </trkpt>
      <trkpt lat="43.19677" lon="0.13771">
        <ele>395.2</ele>
        <time>2022-09-06T13:56:21Z</time>
      </trkpt>
      <trkpt lat="43.19681" lon="0.13766">
        <ele>395.2</ele>
        <time>2022-09-06T13:56:23Z</time>
      </trkpt>
      <trkpt lat="43.19694" lon="0.13753">
        <ele>396.2</ele>
        <time>2022-09-06T13:56:30Z</time>
      </trkpt>
      <trkpt lat="43.19697" lon="0.13749">
        <ele>396.4</ele>
        <time>2022-09-06T13:56:32Z</time>
      </trkpt>
      <trkpt lat="43.19713" lon="0.13727">
        <ele>397</ele>
        <time>2022-09-06T13:56:41Z</time>
      </trkpt>
      <trkpt lat="43.19716" lon="0.13721">
        <ele>397.2</ele>
        <time>2022-09-06T13:56:43Z</time>
      </trkpt>
      <trkpt lat="43.19731" lon="0.13696">
        <ele>398</ele>
        <time>2022-09-06T13:56:52Z</time>
      </trkpt>
      <trkpt lat="43.19733" lon="0.13693">
        <ele>398.2</ele>
        <time>2022-09-06T13:56:53Z</time>
      </trkpt>
      <trkpt lat="43.19746" lon="0.13669">
        <ele>398</ele>
        <time>2022-09-06T13:57:01Z</time>
      </trkpt>
      <trkpt lat="43.19761" lon="0.13642">
        <ele>398.6</ele>
        <time>2022-09-06T13:57:10Z</time>
      </trkpt>
      <trkpt lat="43.19769" lon="0.13625">
        <ele>399.4</ele>
        <time>2022-09-06T13:57:16Z</time>
      </trkpt>
      <trkpt lat="43.19772" lon="0.13618">
        <ele>399.4</ele>
        <time>2022-09-06T13:57:18Z</time>
      </trkpt>
      <trkpt lat="43.19785" lon="0.13587">
        <ele>400.4</ele>
        <time>2022-09-06T13:57:28Z</time>
      </trkpt>
      <trkpt lat="43.19787" lon="0.13584">
        <ele>400.6</ele>
        <time>2022-09-06T13:57:29Z</time>
      </trkpt>
      <trkpt lat="43.19799" lon="0.13557">
        <ele>400.6</ele>
        <time>2022-09-06T13:57:37Z</time>
      </trkpt>
      <trkpt lat="43.19808" lon="0.13536">
        <ele>400.8</ele>
        <time>2022-09-06T13:57:43Z</time>
      </trkpt>
      <trkpt lat="43.19824" lon="0.13516">
        <ele>401</ele>
        <time>2022-09-06T13:57:50Z</time>
      </trkpt>
      <trkpt lat="43.1984" lon="0.13519">
        <ele>401.2</ele>
        <time>2022-09-06T13:57:55Z</time>
      </trkpt>
      <trkpt lat="43.19851" lon="0.13524">
        <ele>401.6</ele>
        <time>2022-09-06T13:57:59Z</time>
      </trkpt>
      <trkpt lat="43.19859" lon="0.13527">
        <ele>402.2</ele>
        <time>2022-09-06T13:58:02Z</time>
      </trkpt>
      <trkpt lat="43.19868" lon="0.13529">
        <ele>402.6</ele>
        <time>2022-09-06T13:58:06Z</time>
      </trkpt>
      <trkpt lat="43.19874" lon="0.13528">
        <ele>403.2</ele>
        <time>2022-09-06T13:58:09Z</time>
      </trkpt>
      <trkpt lat="43.1988" lon="0.13525">
        <ele>403.8</ele>
        <time>2022-09-06T13:58:12Z</time>
      </trkpt>
      <trkpt lat="43.1989" lon="0.13517">
        <ele>404.4</ele>
        <time>2022-09-06T13:58:17Z</time>
      </trkpt>
      <trkpt lat="43.19897" lon="0.13509">
        <ele>404.8</ele>
        <time>2022-09-06T13:58:21Z</time>
      </trkpt>
      <trkpt lat="43.19905" lon="0.13494">
        <ele>405.8</ele>
        <time>2022-09-06T13:58:27Z</time>
      </trkpt>
      <trkpt lat="43.19907" lon="0.13488">
        <ele>406</ele>
        <time>2022-09-06T13:58:29Z</time>
      </trkpt>
      <trkpt lat="43.19913" lon="0.13472">
        <ele>406.4</ele>
        <time>2022-09-06T13:58:35Z</time>
      </trkpt>
      <trkpt lat="43.19925" lon="0.13445">
        <ele>407</ele>
        <time>2022-09-06T13:58:44Z</time>
      </trkpt>
      <trkpt lat="43.19939" lon="0.13409">
        <ele>407.4</ele>
        <time>2022-09-06T13:58:55Z</time>
      </trkpt>
      <trkpt lat="43.19953" lon="0.13375">
        <ele>407.2</ele>
        <time>2022-09-06T13:59:04Z</time>
      </trkpt>
      <trkpt lat="43.19961" lon="0.13355">
        <ele>407.2</ele>
        <time>2022-09-06T13:59:09Z</time>
      </trkpt>
      <trkpt lat="43.19974" lon="0.13318">
        <ele>407</ele>
        <time>2022-09-06T13:59:17Z</time>
      </trkpt>
      <trkpt lat="43.19982" lon="0.13278">
        <ele>406</ele>
        <time>2022-09-06T13:59:25Z</time>
      </trkpt>
      <trkpt lat="43.19987" lon="0.13238">
        <ele>406</ele>
        <time>2022-09-06T13:59:32Z</time>
      </trkpt>
      <trkpt lat="43.19993" lon="0.13198">
        <ele>406</ele>
        <time>2022-09-06T13:59:39Z</time>
      </trkpt>
      <trkpt lat="43.19996" lon="0.13176">
        <ele>406.2</ele>
        <time>2022-09-06T13:59:44Z</time>
      </trkpt>
      <trkpt lat="43.20001" lon="0.13152">
        <ele>406.4</ele>
        <time>2022-09-06T13:59:50Z</time>
      </trkpt>
      <trkpt lat="43.20006" lon="0.1313">
        <ele>406.4</ele>
        <time>2022-09-06T13:59:56Z</time>
      </trkpt>
      <trkpt lat="43.2001" lon="0.1312">
        <ele>406</ele>
        <time>2022-09-06T14:00:28Z</time>
      </trkpt>
      <trkpt lat="43.20014" lon="0.13114">
        <ele>405.8</ele>
        <time>2022-09-06T14:00:30Z</time>
      </trkpt>
      <trkpt lat="43.20022" lon="0.13096">
        <ele>405</ele>
        <time>2022-09-06T14:00:34Z</time>
      </trkpt>
      <trkpt lat="43.20023" lon="0.13091">
        <ele>404.8</ele>
        <time>2022-09-06T14:00:35Z</time>
      </trkpt>
      <trkpt lat="43.20025" lon="0.13085">
        <ele>404.6</ele>
        <time>2022-09-06T14:00:39Z</time>
      </trkpt>
      <trkpt lat="43.20025" lon="0.13099">
        <ele>404.6</ele>
        <time>2022-09-06T14:05:06Z</time>
      </trkpt>
      <trkpt lat="43.20026" lon="0.13101">
        <ele>404.6</ele>
        <time>2022-09-06T14:05:07Z</time>
      </trkpt>
      <trkpt lat="43.20036" lon="0.131">
        <ele>404.2</ele>
        <time>2022-09-06T14:05:10Z</time>
      </trkpt>
      <trkpt lat="43.2004" lon="0.13099">
        <ele>404</ele>
        <time>2022-09-06T14:05:11Z</time>
      </trkpt>
      <trkpt lat="43.20044" lon="0.13098">
        <ele>403.8</ele>
        <time>2022-09-06T14:05:12Z</time>
      </trkpt>
      <trkpt lat="43.20055" lon="0.13095">
        <ele>402.6</ele>
        <time>2022-09-06T14:05:15Z</time>
      </trkpt>
      <trkpt lat="43.20067" lon="0.13097">
        <ele>402</ele>
        <time>2022-09-06T14:05:20Z</time>
      </trkpt>
      <trkpt lat="43.20082" lon="0.13096">
        <ele>402</ele>
        <time>2022-09-06T14:05:25Z</time>
      </trkpt>
      <trkpt lat="43.20106" lon="0.13098">
        <ele>402.8</ele>
        <time>2022-09-06T14:05:33Z</time>
      </trkpt>
      <trkpt lat="43.20127" lon="0.13098">
        <ele>403.6</ele>
        <time>2022-09-06T14:05:41Z</time>
      </trkpt>
      <trkpt lat="43.20139" lon="0.1309">
        <ele>404</ele>
        <time>2022-09-06T14:05:47Z</time>
      </trkpt>
      <trkpt lat="43.20152" lon="0.13076">
        <ele>403.6</ele>
        <time>2022-09-06T14:05:53Z</time>
      </trkpt>
      <trkpt lat="43.20164" lon="0.13058">
        <ele>402.6</ele>
        <time>2022-09-06T14:05:57Z</time>
      </trkpt>
      <trkpt lat="43.20167" lon="0.13053">
        <ele>402.2</ele>
        <time>2022-09-06T14:05:58Z</time>
      </trkpt>
      <trkpt lat="43.20174" lon="0.13043">
        <ele>401.4</ele>
        <time>2022-09-06T14:06:00Z</time>
      </trkpt>
      <trkpt lat="43.2018" lon="0.13034">
        <ele>400</ele>
        <time>2022-09-06T14:06:02Z</time>
      </trkpt>
      <trkpt lat="43.20183" lon="0.1303">
        <ele>399.2</ele>
        <time>2022-09-06T14:06:03Z</time>
      </trkpt>
      <trkpt lat="43.20185" lon="0.13027">
        <ele>398.6</ele>
        <time>2022-09-06T14:06:04Z</time>
      </trkpt>
      <trkpt lat="43.20189" lon="0.13023">
        <ele>398</ele>
        <time>2022-09-06T14:06:06Z</time>
      </trkpt>
      <trkpt lat="43.20192" lon="0.13021">
        <ele>397.6</ele>
        <time>2022-09-06T14:06:07Z</time>
      </trkpt>
      <trkpt lat="43.20201" lon="0.13016">
        <ele>396.6</ele>
        <time>2022-09-06T14:06:11Z</time>
      </trkpt>
      <trkpt lat="43.20202" lon="0.13015">
        <ele>396.4</ele>
        <time>2022-09-06T14:06:12Z</time>
      </trkpt>
      <trkpt lat="43.20207" lon="0.13012">
        <ele>396</ele>
        <time>2022-09-06T14:06:16Z</time>
      </trkpt>
      <trkpt lat="43.20216" lon="0.13012">
        <ele>395.6</ele>
        <time>2022-09-06T14:06:20Z</time>
      </trkpt>
      <trkpt lat="43.2022" lon="0.13012">
        <ele>395.4</ele>
        <time>2022-09-06T14:06:21Z</time>
      </trkpt>
      <trkpt lat="43.20235" lon="0.13014">
        <ele>395</ele>
        <time>2022-09-06T14:06:24Z</time>
      </trkpt>
      <trkpt lat="43.20241" lon="0.13016">
        <ele>394.8</ele>
        <time>2022-09-06T14:06:25Z</time>
      </trkpt>
      <trkpt lat="43.20257" lon="0.13022">
        <ele>394.2</ele>
        <time>2022-09-06T14:06:28Z</time>
      </trkpt>
      <trkpt lat="43.20272" lon="0.13026">
        <ele>393</ele>
        <time>2022-09-06T14:06:30Z</time>
      </trkpt>
      <trkpt lat="43.20287" lon="0.1303">
        <ele>391.6</ele>
        <time>2022-09-06T14:06:32Z</time>
      </trkpt>
      <trkpt lat="43.20303" lon="0.13033">
        <ele>390.4</ele>
        <time>2022-09-06T14:06:34Z</time>
      </trkpt>
      <trkpt lat="43.20319" lon="0.13033">
        <ele>389</ele>
        <time>2022-09-06T14:06:36Z</time>
      </trkpt>
      <trkpt lat="43.20333" lon="0.1303">
        <ele>387.8</ele>
        <time>2022-09-06T14:06:38Z</time>
      </trkpt>
      <trkpt lat="43.20346" lon="0.13022">
        <ele>386.2</ele>
        <time>2022-09-06T14:06:40Z</time>
      </trkpt>
      <trkpt lat="43.20357" lon="0.13011">
        <ele>384.6</ele>
        <time>2022-09-06T14:06:42Z</time>
      </trkpt>
      <trkpt lat="43.20366" lon="0.12994">
        <ele>383.4</ele>
        <time>2022-09-06T14:06:44Z</time>
      </trkpt>
      <trkpt lat="43.20374" lon="0.12965">
        <ele>382</ele>
        <time>2022-09-06T14:06:47Z</time>
      </trkpt>
      <trkpt lat="43.20377" lon="0.12954">
        <ele>381.6</ele>
        <time>2022-09-06T14:06:48Z</time>
      </trkpt>
      <trkpt lat="43.20379" lon="0.12942">
        <ele>381</ele>
        <time>2022-09-06T14:06:49Z</time>
      </trkpt>
      <trkpt lat="43.20381" lon="0.1293">
        <ele>379.6</ele>
        <time>2022-09-06T14:06:50Z</time>
      </trkpt>
      <trkpt lat="43.20385" lon="0.12904">
        <ele>378.2</ele>
        <time>2022-09-06T14:06:52Z</time>
      </trkpt>
      <trkpt lat="43.20386" lon="0.12891">
        <ele>377</ele>
        <time>2022-09-06T14:06:53Z</time>
      </trkpt>
      <trkpt lat="43.20388" lon="0.12877">
        <ele>376.4</ele>
        <time>2022-09-06T14:06:54Z</time>
      </trkpt>
      <trkpt lat="43.2039" lon="0.12864">
        <ele>375.2</ele>
        <time>2022-09-06T14:06:55Z</time>
      </trkpt>
      <trkpt lat="43.20393" lon="0.1284">
        <ele>373.2</ele>
        <time>2022-09-06T14:06:57Z</time>
      </trkpt>
      <trkpt lat="43.20396" lon="0.12817">
        <ele>371.4</ele>
        <time>2022-09-06T14:06:59Z</time>
      </trkpt>
      <trkpt lat="43.20397" lon="0.12806">
        <ele>370.4</ele>
        <time>2022-09-06T14:07:00Z</time>
      </trkpt>
      <trkpt lat="43.20398" lon="0.12785">
        <ele>369</ele>
        <time>2022-09-06T14:07:02Z</time>
      </trkpt>
      <trkpt lat="43.20398" lon="0.12774">
        <ele>368.6</ele>
        <time>2022-09-06T14:07:03Z</time>
      </trkpt>
      <trkpt lat="43.20396" lon="0.12755">
        <ele>367.4</ele>
        <time>2022-09-06T14:07:05Z</time>
      </trkpt>
      <trkpt lat="43.20394" lon="0.12736">
        <ele>366</ele>
        <time>2022-09-06T14:07:07Z</time>
      </trkpt>
      <trkpt lat="43.20393" lon="0.12716">
        <ele>364.8</ele>
        <time>2022-09-06T14:07:09Z</time>
      </trkpt>
      <trkpt lat="43.20393" lon="0.12696">
        <ele>363.8</ele>
        <time>2022-09-06T14:07:11Z</time>
      </trkpt>
      <trkpt lat="43.20394" lon="0.12686">
        <ele>363.4</ele>
        <time>2022-09-06T14:07:12Z</time>
      </trkpt>
      <trkpt lat="43.20395" lon="0.12676">
        <ele>362.8</ele>
        <time>2022-09-06T14:07:13Z</time>
      </trkpt>
      <trkpt lat="43.20396" lon="0.12664">
        <ele>361.2</ele>
        <time>2022-09-06T14:07:14Z</time>
      </trkpt>
      <trkpt lat="43.20397" lon="0.12641">
        <ele>359.6</ele>
        <time>2022-09-06T14:07:16Z</time>
      </trkpt>
      <trkpt lat="43.20397" lon="0.1263">
        <ele>358.8</ele>
        <time>2022-09-06T14:07:17Z</time>
      </trkpt>
      <trkpt lat="43.20398" lon="0.12618">
        <ele>358</ele>
        <time>2022-09-06T14:07:18Z</time>
      </trkpt>
      <trkpt lat="43.20399" lon="0.12597">
        <ele>356.2</ele>
        <time>2022-09-06T14:07:20Z</time>
      </trkpt>
      <trkpt lat="43.20401" lon="0.12578">
        <ele>354.6</ele>
        <time>2022-09-06T14:07:22Z</time>
      </trkpt>
      <trkpt lat="43.20403" lon="0.1256">
        <ele>353.2</ele>
        <time>2022-09-06T14:07:24Z</time>
      </trkpt>
      <trkpt lat="43.20404" lon="0.12542">
        <ele>351.8</ele>
        <time>2022-09-06T14:07:26Z</time>
      </trkpt>
      <trkpt lat="43.20404" lon="0.12533">
        <ele>350.8</ele>
        <time>2022-09-06T14:07:27Z</time>
      </trkpt>
      <trkpt lat="43.20404" lon="0.12523">
        <ele>350</ele>
        <time>2022-09-06T14:07:28Z</time>
      </trkpt>
      <trkpt lat="43.20404" lon="0.12504">
        <ele>348.6</ele>
        <time>2022-09-06T14:07:30Z</time>
      </trkpt>
      <trkpt lat="43.20404" lon="0.12487">
        <ele>347.4</ele>
        <time>2022-09-06T14:07:32Z</time>
      </trkpt>
      <trkpt lat="43.20404" lon="0.12472">
        <ele>346.2</ele>
        <time>2022-09-06T14:07:34Z</time>
      </trkpt>
      <trkpt lat="43.20405" lon="0.12459">
        <ele>345</ele>
        <time>2022-09-06T14:07:36Z</time>
      </trkpt>
      <trkpt lat="43.20405" lon="0.12446">
        <ele>343.4</ele>
        <time>2022-09-06T14:07:38Z</time>
      </trkpt>
      <trkpt lat="43.20406" lon="0.12439">
        <ele>342.8</ele>
        <time>2022-09-06T14:07:39Z</time>
      </trkpt>
      <trkpt lat="43.20406" lon="0.12425">
        <ele>342</ele>
        <time>2022-09-06T14:07:41Z</time>
      </trkpt>
      <trkpt lat="43.20407" lon="0.12411">
        <ele>341</ele>
        <time>2022-09-06T14:07:43Z</time>
      </trkpt>
      <trkpt lat="43.2041" lon="0.124">
        <ele>340</ele>
        <time>2022-09-06T14:07:45Z</time>
      </trkpt>
      <trkpt lat="43.20412" lon="0.12395">
        <ele>339.6</ele>
        <time>2022-09-06T14:07:46Z</time>
      </trkpt>
      <trkpt lat="43.20415" lon="0.12381">
        <ele>338.8</ele>
        <time>2022-09-06T14:07:49Z</time>
      </trkpt>
      <trkpt lat="43.20418" lon="0.12375">
        <ele>338.6</ele>
        <time>2022-09-06T14:07:50Z</time>
      </trkpt>
      <trkpt lat="43.20421" lon="0.1237">
        <ele>338.2</ele>
        <time>2022-09-06T14:07:51Z</time>
      </trkpt>
      <trkpt lat="43.2043" lon="0.12355">
        <ele>337.6</ele>
        <time>2022-09-06T14:07:54Z</time>
      </trkpt>
      <trkpt lat="43.20432" lon="0.12351">
        <ele>337.2</ele>
        <time>2022-09-06T14:07:55Z</time>
      </trkpt>
      <trkpt lat="43.20435" lon="0.12347">
        <ele>336.6</ele>
        <time>2022-09-06T14:07:57Z</time>
      </trkpt>
      <trkpt lat="43.20436" lon="0.12345">
        <ele>336.2</ele>
        <time>2022-09-06T14:07:58Z</time>
      </trkpt>
      <trkpt lat="43.20443" lon="0.12333">
        <ele>336</ele>
        <time>2022-09-06T14:08:03Z</time>
      </trkpt>
      <trkpt lat="43.20454" lon="0.12322">
        <ele>335.2</ele>
        <time>2022-09-06T14:08:07Z</time>
      </trkpt>
      <trkpt lat="43.20459" lon="0.12316">
        <ele>335</ele>
        <time>2022-09-06T14:08:09Z</time>
      </trkpt>
      <trkpt lat="43.20462" lon="0.12308">
        <ele>334.6</ele>
        <time>2022-09-06T14:08:11Z</time>
      </trkpt>
      <trkpt lat="43.20461" lon="0.12298">
        <ele>334.8</ele>
        <time>2022-09-06T14:08:13Z</time>
      </trkpt>
      <trkpt lat="43.2046" lon="0.12279">
        <ele>334</ele>
        <time>2022-09-06T14:08:16Z</time>
      </trkpt>
      <trkpt lat="43.20461" lon="0.12271">
        <ele>333.8</ele>
        <time>2022-09-06T14:08:17Z</time>
      </trkpt>
      <trkpt lat="43.20462" lon="0.12262">
        <ele>333.6</ele>
        <time>2022-09-06T14:08:18Z</time>
      </trkpt>
      <trkpt lat="43.20464" lon="0.12245">
        <ele>333</ele>
        <time>2022-09-06T14:08:20Z</time>
      </trkpt>
      <trkpt lat="43.20468" lon="0.12216">
        <ele>332</ele>
        <time>2022-09-06T14:08:23Z</time>
      </trkpt>
      <trkpt lat="43.2047" lon="0.12207">
        <ele>331.8</ele>
        <time>2022-09-06T14:08:24Z</time>
      </trkpt>
      <trkpt lat="43.20472" lon="0.12191">
        <ele>330.2</ele>
        <time>2022-09-06T14:08:26Z</time>
      </trkpt>
      <trkpt lat="43.20475" lon="0.12179">
        <ele>329.8</ele>
        <time>2022-09-06T14:08:28Z</time>
      </trkpt>
      <trkpt lat="43.20478" lon="0.12153">
        <ele>329.6</ele>
        <time>2022-09-06T14:08:32Z</time>
      </trkpt>
      <trkpt lat="43.2048" lon="0.12146">
        <ele>329.2</ele>
        <time>2022-09-06T14:08:33Z</time>
      </trkpt>
      <trkpt lat="43.20492" lon="0.12097">
        <ele>328.4</ele>
        <time>2022-09-06T14:08:40Z</time>
      </trkpt>
      <trkpt lat="43.20496" lon="0.12083">
        <ele>328</ele>
        <time>2022-09-06T14:08:42Z</time>
      </trkpt>
      <trkpt lat="43.20507" lon="0.12041">
        <ele>327.2</ele>
        <time>2022-09-06T14:08:48Z</time>
      </trkpt>
      <trkpt lat="43.2051" lon="0.12026">
        <ele>327</ele>
        <time>2022-09-06T14:08:50Z</time>
      </trkpt>
      <trkpt lat="43.20525" lon="0.11964">
        <ele>326.4</ele>
        <time>2022-09-06T14:08:58Z</time>
      </trkpt>
      <trkpt lat="43.20534" lon="0.11931">
        <ele>326</ele>
        <time>2022-09-06T14:09:02Z</time>
      </trkpt>
      <trkpt lat="43.20546" lon="0.11879">
        <ele>325.4</ele>
        <time>2022-09-06T14:09:08Z</time>
      </trkpt>
      <trkpt lat="43.20553" lon="0.11853">
        <ele>325</ele>
        <time>2022-09-06T14:09:11Z</time>
      </trkpt>
      <trkpt lat="43.20568" lon="0.11787">
        <ele>324.2</ele>
        <time>2022-09-06T14:09:19Z</time>
      </trkpt>
      <trkpt lat="43.20572" lon="0.11729">
        <ele>323.8</ele>
        <time>2022-09-06T14:09:26Z</time>
      </trkpt>
      <trkpt lat="43.20571" lon="0.11712">
        <ele>323.6</ele>
        <time>2022-09-06T14:09:28Z</time>
      </trkpt>
      <trkpt lat="43.20568" lon="0.11689">
        <ele>324.2</ele>
        <time>2022-09-06T14:09:31Z</time>
      </trkpt>
      <trkpt lat="43.20554" lon="0.11637">
        <ele>323.2</ele>
        <time>2022-09-06T14:09:38Z</time>
      </trkpt>
      <trkpt lat="43.20547" lon="0.11624">
        <ele>323.2</ele>
        <time>2022-09-06T14:09:40Z</time>
      </trkpt>
      <trkpt lat="43.20536" lon="0.11607">
        <ele>323.4</ele>
        <time>2022-09-06T14:09:43Z</time>
      </trkpt>
      <trkpt lat="43.20512" lon="0.11558">
        <ele>323.6</ele>
        <time>2022-09-06T14:09:51Z</time>
      </trkpt>
      <trkpt lat="43.20504" lon="0.1153">
        <ele>323.6</ele>
        <time>2022-09-06T14:09:55Z</time>
      </trkpt>
      <trkpt lat="43.205" lon="0.11509">
        <ele>323.2</ele>
        <time>2022-09-06T14:09:58Z</time>
      </trkpt>
      <trkpt lat="43.20498" lon="0.11495">
        <ele>322.8</ele>
        <time>2022-09-06T14:10:00Z</time>
      </trkpt>
      <trkpt lat="43.20496" lon="0.11474">
        <ele>323.4</ele>
        <time>2022-09-06T14:10:03Z</time>
      </trkpt>
      <trkpt lat="43.20499" lon="0.11462">
        <ele>323.4</ele>
        <time>2022-09-06T14:10:05Z</time>
      </trkpt>
      <trkpt lat="43.20497" lon="0.11443">
        <ele>322.8</ele>
        <time>2022-09-06T14:10:08Z</time>
      </trkpt>
      <trkpt lat="43.20491" lon="0.11433">
        <ele>322.8</ele>
        <time>2022-09-06T14:10:10Z</time>
      </trkpt>
      <trkpt lat="43.20488" lon="0.11427">
        <ele>323</ele>
        <time>2022-09-06T14:10:11Z</time>
      </trkpt>
      <trkpt lat="43.20486" lon="0.11421">
        <ele>323.2</ele>
        <time>2022-09-06T14:10:12Z</time>
      </trkpt>
      <trkpt lat="43.20479" lon="0.11373">
        <ele>323</ele>
        <time>2022-09-06T14:10:19Z</time>
      </trkpt>
      <trkpt lat="43.20469" lon="0.11307">
        <ele>323.2</ele>
        <time>2022-09-06T14:10:29Z</time>
      </trkpt>
      <trkpt lat="43.20458" lon="0.11242">
        <ele>323.4</ele>
        <time>2022-09-06T14:10:38Z</time>
      </trkpt>
      <trkpt lat="43.20449" lon="0.11184">
        <ele>323.8</ele>
        <time>2022-09-06T14:10:46Z</time>
      </trkpt>
      <trkpt lat="43.20442" lon="0.11106">
        <ele>323.4</ele>
        <time>2022-09-06T14:10:57Z</time>
      </trkpt>
      <trkpt lat="43.20443" lon="0.11091">
        <ele>323.6</ele>
        <time>2022-09-06T14:10:59Z</time>
      </trkpt>
      <trkpt lat="43.20445" lon="0.11077">
        <ele>323.4</ele>
        <time>2022-09-06T14:11:01Z</time>
      </trkpt>
      <trkpt lat="43.20448" lon="0.11072">
        <ele>323.2</ele>
        <time>2022-09-06T14:11:02Z</time>
      </trkpt>
      <trkpt lat="43.20463" lon="0.11058">
        <ele>323</ele>
        <time>2022-09-06T14:11:06Z</time>
      </trkpt>
      <trkpt lat="43.20464" lon="0.11048">
        <ele>323</ele>
        <time>2022-09-06T14:11:08Z</time>
      </trkpt>
      <trkpt lat="43.20464" lon="0.11043">
        <ele>323.2</ele>
        <time>2022-09-06T14:11:09Z</time>
      </trkpt>
      <trkpt lat="43.20462" lon="0.11033">
        <ele>323</ele>
        <time>2022-09-06T14:11:11Z</time>
      </trkpt>
      <trkpt lat="43.2046" lon="0.11029">
        <ele>322.8</ele>
        <time>2022-09-06T14:11:12Z</time>
      </trkpt>
      <trkpt lat="43.20456" lon="0.11026">
        <ele>322.6</ele>
        <time>2022-09-06T14:11:13Z</time>
      </trkpt>
      <trkpt lat="43.20437" lon="0.1101">
        <ele>322.8</ele>
        <time>2022-09-06T14:11:20Z</time>
      </trkpt>
      <trkpt lat="43.20434" lon="0.11005">
        <ele>322.6</ele>
        <time>2022-09-06T14:11:37Z</time>
      </trkpt>
      <trkpt lat="43.20433" lon="0.10999">
        <ele>323</ele>
        <time>2022-09-06T14:11:39Z</time>
      </trkpt>
      <trkpt lat="43.20429" lon="0.10976">
        <ele>323.8</ele>
        <time>2022-09-06T14:11:44Z</time>
      </trkpt>
      <trkpt lat="43.20423" lon="0.10951">
        <ele>324</ele>
        <time>2022-09-06T14:11:49Z</time>
      </trkpt>
      <trkpt lat="43.20422" lon="0.1094">
        <ele>323.8</ele>
        <time>2022-09-06T14:11:51Z</time>
      </trkpt>
      <trkpt lat="43.20414" lon="0.10875">
        <ele>323.6</ele>
        <time>2022-09-06T14:12:01Z</time>
      </trkpt>
      <trkpt lat="43.20406" lon="0.10806">
        <ele>323.6</ele>
        <time>2022-09-06T14:12:11Z</time>
      </trkpt>
      <trkpt lat="43.20398" lon="0.10732">
        <ele>323.4</ele>
        <time>2022-09-06T14:12:21Z</time>
      </trkpt>
      <trkpt lat="43.20391" lon="0.10671">
        <ele>323.4</ele>
        <time>2022-09-06T14:12:29Z</time>
      </trkpt>
      <trkpt lat="43.20383" lon="0.10604">
        <ele>324</ele>
        <time>2022-09-06T14:12:38Z</time>
      </trkpt>
      <trkpt lat="43.20375" lon="0.10529">
        <ele>323.6</ele>
        <time>2022-09-06T14:12:48Z</time>
      </trkpt>
      <trkpt lat="43.20367" lon="0.10451">
        <ele>323.6</ele>
        <time>2022-09-06T14:12:58Z</time>
      </trkpt>
      <trkpt lat="43.20361" lon="0.10377">
        <ele>323.2</ele>
        <time>2022-09-06T14:13:08Z</time>
      </trkpt>
      <trkpt lat="43.20361" lon="0.10336">
        <ele>323.6</ele>
        <time>2022-09-06T14:13:14Z</time>
      </trkpt>
      <trkpt lat="43.20363" lon="0.1033">
        <ele>323.2</ele>
        <time>2022-09-06T14:13:15Z</time>
      </trkpt>
      <trkpt lat="43.20365" lon="0.10317">
        <ele>323.2</ele>
        <time>2022-09-06T14:13:17Z</time>
      </trkpt>
      <trkpt lat="43.20365" lon="0.10295">
        <ele>323.4</ele>
        <time>2022-09-06T14:13:20Z</time>
      </trkpt>
      <trkpt lat="43.20363" lon="0.10236">
        <ele>323.4</ele>
        <time>2022-09-06T14:13:28Z</time>
      </trkpt>
      <trkpt lat="43.20358" lon="0.10171">
        <ele>323.4</ele>
        <time>2022-09-06T14:13:37Z</time>
      </trkpt>
      <trkpt lat="43.20354" lon="0.10108">
        <ele>323.2</ele>
        <time>2022-09-06T14:13:46Z</time>
      </trkpt>
      <trkpt lat="43.20353" lon="0.10074">
        <ele>323.6</ele>
        <time>2022-09-06T14:13:52Z</time>
      </trkpt>
      <trkpt lat="43.20351" lon="0.10039">
        <ele>323.4</ele>
        <time>2022-09-06T14:13:58Z</time>
      </trkpt>
      <trkpt lat="43.20351" lon="0.10027">
        <ele>323.2</ele>
        <time>2022-09-06T14:14:00Z</time>
      </trkpt>
      <trkpt lat="43.20355" lon="0.10011">
        <ele>322.6</ele>
        <time>2022-09-06T14:14:03Z</time>
      </trkpt>
      <trkpt lat="43.20369" lon="0.09997">
        <ele>323</ele>
        <time>2022-09-06T14:14:07Z</time>
      </trkpt>
      <trkpt lat="43.20373" lon="0.09994">
        <ele>323</ele>
        <time>2022-09-06T14:14:08Z</time>
      </trkpt>
      <trkpt lat="43.20377" lon="0.09992">
        <ele>322.8</ele>
        <time>2022-09-06T14:14:09Z</time>
      </trkpt>
      <trkpt lat="43.20393" lon="0.09984">
        <ele>322.2</ele>
        <time>2022-09-06T14:14:13Z</time>
      </trkpt>
      <trkpt lat="43.20407" lon="0.09978">
        <ele>322</ele>
        <time>2022-09-06T14:14:18Z</time>
      </trkpt>
      <trkpt lat="43.20414" lon="0.09962">
        <ele>321.8</ele>
        <time>2022-09-06T14:14:23Z</time>
      </trkpt>
      <trkpt lat="43.20413" lon="0.09956">
        <ele>321.6</ele>
        <time>2022-09-06T14:14:27Z</time>
      </trkpt>
      <trkpt lat="43.20409" lon="0.09952">
        <ele>322</ele>
        <time>2022-09-06T14:14:34Z</time>
      </trkpt>
      <trkpt lat="43.20407" lon="0.09946">
        <ele>322.2</ele>
        <time>2022-09-06T14:14:36Z</time>
      </trkpt>
      <trkpt lat="43.20403" lon="0.09935">
        <ele>322.4</ele>
        <time>2022-09-06T14:14:39Z</time>
      </trkpt>
      <trkpt lat="43.20398" lon="0.09922">
        <ele>322.6</ele>
        <time>2022-09-06T14:14:42Z</time>
      </trkpt>
      <trkpt lat="43.20398" lon="0.09901">
        <ele>322.4</ele>
        <time>2022-09-06T14:14:46Z</time>
      </trkpt>
      <trkpt lat="43.20396" lon="0.09851">
        <ele>322</ele>
        <time>2022-09-06T14:14:54Z</time>
      </trkpt>
      <trkpt lat="43.20397" lon="0.09831">
        <ele>321.6</ele>
        <time>2022-09-06T14:14:57Z</time>
      </trkpt>
      <trkpt lat="43.204" lon="0.0981">
        <ele>321.2</ele>
        <time>2022-09-06T14:15:00Z</time>
      </trkpt>
      <trkpt lat="43.20405" lon="0.09786">
        <ele>320.4</ele>
        <time>2022-09-06T14:15:03Z</time>
      </trkpt>
      <trkpt lat="43.20409" lon="0.09767">
        <ele>319.8</ele>
        <time>2022-09-06T14:15:05Z</time>
      </trkpt>
      <trkpt lat="43.20414" lon="0.09747">
        <ele>319</ele>
        <time>2022-09-06T14:15:07Z</time>
      </trkpt>
      <trkpt lat="43.20424" lon="0.09703">
        <ele>318.6</ele>
        <time>2022-09-06T14:15:12Z</time>
      </trkpt>
      <trkpt lat="43.20427" lon="0.09687">
        <ele>318</ele>
        <time>2022-09-06T14:15:14Z</time>
      </trkpt>
      <trkpt lat="43.20431" lon="0.0966">
        <ele>317.8</ele>
        <time>2022-09-06T14:15:18Z</time>
      </trkpt>
      <trkpt lat="43.20438" lon="0.09629">
        <ele>318.2</ele>
        <time>2022-09-06T14:15:23Z</time>
      </trkpt>
      <trkpt lat="43.20438" lon="0.09623">
        <ele>318.4</ele>
        <time>2022-09-06T14:15:24Z</time>
      </trkpt>
      <trkpt lat="43.2043" lon="0.096">
        <ele>317.6</ele>
        <time>2022-09-06T14:15:28Z</time>
      </trkpt>
      <trkpt lat="43.20418" lon="0.09569">
        <ele>317.2</ele>
        <time>2022-09-06T14:15:33Z</time>
      </trkpt>
      <trkpt lat="43.20416" lon="0.09555">
        <ele>317.2</ele>
        <time>2022-09-06T14:15:35Z</time>
      </trkpt>
      <trkpt lat="43.20414" lon="0.09534">
        <ele>317.6</ele>
        <time>2022-09-06T14:15:38Z</time>
      </trkpt>
      <trkpt lat="43.2041" lon="0.09521">
        <ele>317.8</ele>
        <time>2022-09-06T14:15:40Z</time>
      </trkpt>
      <trkpt lat="43.20403" lon="0.09495">
        <ele>317.8</ele>
        <time>2022-09-06T14:15:44Z</time>
      </trkpt>
      <trkpt lat="43.20389" lon="0.09448">
        <ele>318</ele>
        <time>2022-09-06T14:15:52Z</time>
      </trkpt>
      <trkpt lat="43.20382" lon="0.09414">
        <ele>318.2</ele>
        <time>2022-09-06T14:15:59Z</time>
      </trkpt>
      <trkpt lat="43.20379" lon="0.09401">
        <ele>317</ele>
        <time>2022-09-06T14:16:03Z</time>
      </trkpt>
      <trkpt lat="43.20379" lon="0.09399">
        <ele>316.8</ele>
        <time>2022-09-06T14:16:04Z</time>
      </trkpt>
      <trkpt lat="43.20386" lon="0.09398">
        <ele>316.8</ele>
        <time>2022-09-06T14:17:35Z</time>
      </trkpt>
      <trkpt lat="43.20399" lon="0.09403">
        <ele>316</ele>
        <time>2022-09-06T14:17:39Z</time>
      </trkpt>
      <trkpt lat="43.20402" lon="0.09403">
        <ele>315.8</ele>
        <time>2022-09-06T14:17:40Z</time>
      </trkpt>
      <trkpt lat="43.20425" lon="0.09408">
        <ele>315.6</ele>
        <time>2022-09-06T14:17:46Z</time>
      </trkpt>
      <trkpt lat="43.20449" lon="0.09412">
        <ele>315.4</ele>
        <time>2022-09-06T14:17:53Z</time>
      </trkpt>
      <trkpt lat="43.20465" lon="0.09408">
        <ele>315.2</ele>
        <time>2022-09-06T14:17:59Z</time>
      </trkpt>
      <trkpt lat="43.20473" lon="0.09399">
        <ele>314.8</ele>
        <time>2022-09-06T14:18:05Z</time>
      </trkpt>
      <trkpt lat="43.20474" lon="0.09398">
        <ele>314.8</ele>
        <time>2022-09-06T14:18:06Z</time>
      </trkpt>
      <trkpt lat="43.20479" lon="0.094">
        <ele>314.8</ele>
        <time>2022-09-06T14:20:49Z</time>
      </trkpt>
      <trkpt lat="43.20481" lon="0.09401">
        <ele>314.8</ele>
        <time>2022-09-06T14:20:50Z</time>
      </trkpt>
      <trkpt lat="43.205" lon="0.09419">
        <ele>314.8</ele>
        <time>2022-09-06T14:20:59Z</time>
      </trkpt>
      <trkpt lat="43.20519" lon="0.09424">
        <ele>314.4</ele>
        <time>2022-09-06T14:21:05Z</time>
      </trkpt>
      <trkpt lat="43.20546" lon="0.09428">
        <ele>314.2</ele>
        <time>2022-09-06T14:21:13Z</time>
      </trkpt>
      <trkpt lat="43.20576" lon="0.09431">
        <ele>314.2</ele>
        <time>2022-09-06T14:21:21Z</time>
      </trkpt>
      <trkpt lat="43.20586" lon="0.09431">
        <ele>313.8</ele>
        <time>2022-09-06T14:21:24Z</time>
      </trkpt>
      <trkpt lat="43.20595" lon="0.09435">
        <ele>313.8</ele>
        <time>2022-09-06T14:21:27Z</time>
      </trkpt>
      <trkpt lat="43.20621" lon="0.09443">
        <ele>313.8</ele>
        <time>2022-09-06T14:21:35Z</time>
      </trkpt>
      <trkpt lat="43.20647" lon="0.09449">
        <ele>313.2</ele>
        <time>2022-09-06T14:21:44Z</time>
      </trkpt>
      <trkpt lat="43.20654" lon="0.09446">
        <ele>313.2</ele>
        <time>2022-09-06T14:21:48Z</time>
      </trkpt>
      <trkpt lat="43.20655" lon="0.09446">
        <ele>313.2</ele>
        <time>2022-09-06T14:21:49Z</time>
      </trkpt>
      <trkpt lat="43.2066" lon="0.09441">
        <ele>313.4</ele>
        <time>2022-09-06T14:21:54Z</time>
      </trkpt>
      <trkpt lat="43.20672" lon="0.09436">
        <ele>313.2</ele>
        <time>2022-09-06T14:22:00Z</time>
      </trkpt>
      <trkpt lat="43.20685" lon="0.0944">
        <ele>312.8</ele>
        <time>2022-09-06T14:22:06Z</time>
      </trkpt>
      <trkpt lat="43.20705" lon="0.09444">
        <ele>312.8</ele>
        <time>2022-09-06T14:22:12Z</time>
      </trkpt>
      <trkpt lat="43.20731" lon="0.09448">
        <ele>313</ele>
        <time>2022-09-06T14:22:19Z</time>
      </trkpt>
      <trkpt lat="43.20762" lon="0.09455">
        <ele>312.8</ele>
        <time>2022-09-06T14:22:28Z</time>
      </trkpt>
      <trkpt lat="43.20773" lon="0.09473">
        <ele>312.6</ele>
        <time>2022-09-06T14:22:33Z</time>
      </trkpt>
      <trkpt lat="43.20772" lon="0.09495">
        <ele>312.8</ele>
        <time>2022-09-06T14:22:38Z</time>
      </trkpt>
      <trkpt lat="43.20773" lon="0.09516">
        <ele>313.4</ele>
        <time>2022-09-06T14:22:44Z</time>
      </trkpt>
      <trkpt lat="43.20781" lon="0.09525">
        <ele>313.6</ele>
        <time>2022-09-06T14:22:49Z</time>
      </trkpt>
      <trkpt lat="43.20795" lon="0.09522">
        <ele>313.4</ele>
        <time>2022-09-06T14:22:53Z</time>
      </trkpt>
      <trkpt lat="43.2083" lon="0.09512">
        <ele>313</ele>
        <time>2022-09-06T14:23:01Z</time>
      </trkpt>
      <trkpt lat="43.20872" lon="0.09503">
        <ele>313</ele>
        <time>2022-09-06T14:23:09Z</time>
      </trkpt>
      <trkpt lat="43.20917" lon="0.09489">
        <ele>312.6</ele>
        <time>2022-09-06T14:23:18Z</time>
      </trkpt>
      <trkpt lat="43.20958" lon="0.09476">
        <ele>312.4</ele>
        <time>2022-09-06T14:23:26Z</time>
      </trkpt>
      <trkpt lat="43.21015" lon="0.09461">
        <ele>312</ele>
        <time>2022-09-06T14:23:37Z</time>
      </trkpt>
      <trkpt lat="43.21033" lon="0.09454">
        <ele>311.8</ele>
        <time>2022-09-06T14:23:41Z</time>
      </trkpt>
      <trkpt lat="43.21047" lon="0.0945">
        <ele>311.8</ele>
        <time>2022-09-06T14:23:44Z</time>
      </trkpt>
      <trkpt lat="43.21065" lon="0.09447">
        <ele>311.4</ele>
        <time>2022-09-06T14:23:48Z</time>
      </trkpt>
      <trkpt lat="43.2107" lon="0.09438">
        <ele>311.4</ele>
        <time>2022-09-06T14:23:50Z</time>
      </trkpt>
      <trkpt lat="43.2108" lon="0.09422">
        <ele>311.2</ele>
        <time>2022-09-06T14:23:54Z</time>
      </trkpt>
      <trkpt lat="43.21084" lon="0.09401">
        <ele>311</ele>
        <time>2022-09-06T14:23:59Z</time>
      </trkpt>
      <trkpt lat="43.21088" lon="0.09376">
        <ele>310.6</ele>
        <time>2022-09-06T14:24:05Z</time>
      </trkpt>
      <trkpt lat="43.21089" lon="0.09372">
        <ele>310.6</ele>
        <time>2022-09-06T14:24:06Z</time>
      </trkpt>
      <trkpt lat="43.2109" lon="0.09348">
        <ele>310.2</ele>
        <time>2022-09-06T14:24:12Z</time>
      </trkpt>
      <trkpt lat="43.2109" lon="0.09325">
        <ele>310</ele>
        <time>2022-09-06T14:24:19Z</time>
      </trkpt>
      <trkpt lat="43.21093" lon="0.09306">
        <ele>309.6</ele>
        <time>2022-09-06T14:24:26Z</time>
      </trkpt>
      <trkpt lat="43.21089" lon="0.0929">
        <ele>309.6</ele>
        <time>2022-09-06T14:24:32Z</time>
      </trkpt>
      <trkpt lat="43.21095" lon="0.09282">
        <ele>309.2</ele>
        <time>2022-09-06T14:24:36Z</time>
      </trkpt>
      <trkpt lat="43.21098" lon="0.0928">
        <ele>309.2</ele>
        <time>2022-09-06T14:24:37Z</time>
      </trkpt>
      <trkpt lat="43.21111" lon="0.09276">
        <ele>309.4</ele>
        <time>2022-09-06T14:24:42Z</time>
      </trkpt>
      <trkpt lat="43.21124" lon="0.09277">
        <ele>309.2</ele>
        <time>2022-09-06T14:24:47Z</time>
      </trkpt>
      <trkpt lat="43.21133" lon="0.0928">
        <ele>309</ele>
        <time>2022-09-06T14:24:52Z</time>
      </trkpt>
      <trkpt lat="43.21144" lon="0.09285">
        <ele>308.8</ele>
        <time>2022-09-06T14:24:58Z</time>
      </trkpt>
      <trkpt lat="43.21156" lon="0.09282">
        <ele>309.2</ele>
        <time>2022-09-06T14:25:04Z</time>
      </trkpt>
      <trkpt lat="43.21166" lon="0.09267">
        <ele>309.6</ele>
        <time>2022-09-06T14:25:09Z</time>
      </trkpt>
      <trkpt lat="43.21172" lon="0.09252">
        <ele>308.6</ele>
        <time>2022-09-06T14:25:12Z</time>
      </trkpt>
      <trkpt lat="43.21173" lon="0.09246">
        <ele>308.4</ele>
        <time>2022-09-06T14:25:13Z</time>
      </trkpt>
      <trkpt lat="43.21177" lon="0.09229">
        <ele>307.6</ele>
        <time>2022-09-06T14:25:16Z</time>
      </trkpt>
      <trkpt lat="43.21179" lon="0.09224">
        <ele>307.6</ele>
        <time>2022-09-06T14:25:17Z</time>
      </trkpt>
      <trkpt lat="43.21184" lon="0.09216">
        <ele>308</ele>
        <time>2022-09-06T14:25:19Z</time>
      </trkpt>
      <trkpt lat="43.21193" lon="0.09207">
        <ele>307.8</ele>
        <time>2022-09-06T14:25:22Z</time>
      </trkpt>
      <trkpt lat="43.21202" lon="0.09199">
        <ele>308.6</ele>
        <time>2022-09-06T14:25:25Z</time>
      </trkpt>
      <trkpt lat="43.21221" lon="0.09187">
        <ele>308</ele>
        <time>2022-09-06T14:25:31Z</time>
      </trkpt>
      <trkpt lat="43.21237" lon="0.09175">
        <ele>307.6</ele>
        <time>2022-09-06T14:25:36Z</time>
      </trkpt>
      <trkpt lat="43.21241" lon="0.09173">
        <ele>307.2</ele>
        <time>2022-09-06T14:25:37Z</time>
      </trkpt>
      <trkpt lat="43.2125" lon="0.09173">
        <ele>306.4</ele>
        <time>2022-09-06T14:25:39Z</time>
      </trkpt>
      <trkpt lat="43.21264" lon="0.09172">
        <ele>306.2</ele>
        <time>2022-09-06T14:25:42Z</time>
      </trkpt>
      <trkpt lat="43.21297" lon="0.0917">
        <ele>306</ele>
        <time>2022-09-06T14:25:49Z</time>
      </trkpt>
      <trkpt lat="43.21328" lon="0.09164">
        <ele>305.6</ele>
        <time>2022-09-06T14:25:55Z</time>
      </trkpt>
      <trkpt lat="43.21333" lon="0.09164">
        <ele>305.4</ele>
        <time>2022-09-06T14:25:56Z</time>
      </trkpt>
      <trkpt lat="43.21342" lon="0.09163">
        <ele>305.4</ele>
        <time>2022-09-06T14:25:58Z</time>
      </trkpt>
      <trkpt lat="43.21357" lon="0.09165">
        <ele>305.4</ele>
        <time>2022-09-06T14:26:01Z</time>
      </trkpt>
      <trkpt lat="43.21361" lon="0.09167">
        <ele>305.4</ele>
        <time>2022-09-06T14:26:02Z</time>
      </trkpt>
      <trkpt lat="43.21387" lon="0.09175">
        <ele>304.6</ele>
        <time>2022-09-06T14:26:07Z</time>
      </trkpt>
      <trkpt lat="43.21414" lon="0.09185">
        <ele>304.8</ele>
        <time>2022-09-06T14:26:13Z</time>
      </trkpt>
      <trkpt lat="43.21422" lon="0.09191">
        <ele>304.6</ele>
        <time>2022-09-06T14:26:15Z</time>
      </trkpt>
      <trkpt lat="43.21426" lon="0.09195">
        <ele>304.4</ele>
        <time>2022-09-06T14:26:16Z</time>
      </trkpt>
      <trkpt lat="43.21464" lon="0.09223">
        <ele>303.8</ele>
        <time>2022-09-06T14:26:25Z</time>
      </trkpt>
      <trkpt lat="43.2149" lon="0.09251">
        <ele>303.8</ele>
        <time>2022-09-06T14:26:32Z</time>
      </trkpt>
      <trkpt lat="43.21502" lon="0.0926">
        <ele>303.8</ele>
        <time>2022-09-06T14:26:35Z</time>
      </trkpt>
      <trkpt lat="43.21511" lon="0.09265">
        <ele>303.6</ele>
        <time>2022-09-06T14:26:37Z</time>
      </trkpt>
      <trkpt lat="43.21515" lon="0.09268">
        <ele>303.6</ele>
        <time>2022-09-06T14:26:38Z</time>
      </trkpt>
      <trkpt lat="43.21527" lon="0.09278">
        <ele>303.4</ele>
        <time>2022-09-06T14:26:41Z</time>
      </trkpt>
      <trkpt lat="43.21531" lon="0.0928">
        <ele>303.4</ele>
        <time>2022-09-06T14:26:42Z</time>
      </trkpt>
      <trkpt lat="43.21546" lon="0.09297">
        <ele>303.2</ele>
        <time>2022-09-06T14:26:46Z</time>
      </trkpt>
      <trkpt lat="43.21559" lon="0.09312">
        <ele>303.4</ele>
        <time>2022-09-06T14:26:50Z</time>
      </trkpt>
      <trkpt lat="43.2157" lon="0.09321">
        <ele>303.6</ele>
        <time>2022-09-06T14:26:53Z</time>
      </trkpt>
      <trkpt lat="43.21599" lon="0.09345">
        <ele>303.6</ele>
        <time>2022-09-06T14:27:01Z</time>
      </trkpt>
      <trkpt lat="43.21621" lon="0.09357">
        <ele>304</ele>
        <time>2022-09-06T14:27:07Z</time>
      </trkpt>
      <trkpt lat="43.21644" lon="0.09374">
        <ele>303.8</ele>
        <time>2022-09-06T14:27:13Z</time>
      </trkpt>
      <trkpt lat="43.21679" lon="0.09394">
        <ele>303</ele>
        <time>2022-09-06T14:27:20Z</time>
      </trkpt>
      <trkpt lat="43.21689" lon="0.09399">
        <ele>303.2</ele>
        <time>2022-09-06T14:27:22Z</time>
      </trkpt>
      <trkpt lat="43.21706" lon="0.09403">
        <ele>303.4</ele>
        <time>2022-09-06T14:27:25Z</time>
      </trkpt>
      <trkpt lat="43.21711" lon="0.09403">
        <ele>303.4</ele>
        <time>2022-09-06T14:27:26Z</time>
      </trkpt>
      <trkpt lat="43.21742" lon="0.0941">
        <ele>304.2</ele>
        <time>2022-09-06T14:27:32Z</time>
      </trkpt>
      <trkpt lat="43.2176" lon="0.09414">
        <ele>304.4</ele>
        <time>2022-09-06T14:27:36Z</time>
      </trkpt>
      <trkpt lat="43.21777" lon="0.09416">
        <ele>305.2</ele>
        <time>2022-09-06T14:27:40Z</time>
      </trkpt>
      <trkpt lat="43.21785" lon="0.09415">
        <ele>305.4</ele>
        <time>2022-09-06T14:27:42Z</time>
      </trkpt>
      <trkpt lat="43.21799" lon="0.09415">
        <ele>305.4</ele>
        <time>2022-09-06T14:27:46Z</time>
      </trkpt>
      <trkpt lat="43.21825" lon="0.09415">
        <ele>305.2</ele>
        <time>2022-09-06T14:27:54Z</time>
      </trkpt>
      <trkpt lat="43.2185" lon="0.09417">
        <ele>304.8</ele>
        <time>2022-09-06T14:28:00Z</time>
      </trkpt>
      <trkpt lat="43.21864" lon="0.09416">
        <ele>304.4</ele>
        <time>2022-09-06T14:28:03Z</time>
      </trkpt>
      <trkpt lat="43.21879" lon="0.09416">
        <ele>303.8</ele>
        <time>2022-09-06T14:28:06Z</time>
      </trkpt>
      <trkpt lat="43.21909" lon="0.09422">
        <ele>303.2</ele>
        <time>2022-09-06T14:28:11Z</time>
      </trkpt>
      <trkpt lat="43.21934" lon="0.09425">
        <ele>302.4</ele>
        <time>2022-09-06T14:28:15Z</time>
      </trkpt>
      <trkpt lat="43.2194" lon="0.09424">
        <ele>302</ele>
        <time>2022-09-06T14:28:16Z</time>
      </trkpt>
      <trkpt lat="43.21972" lon="0.09418">
        <ele>300.8</ele>
        <time>2022-09-06T14:28:21Z</time>
      </trkpt>
      <trkpt lat="43.21986" lon="0.09415">
        <ele>299.6</ele>
        <time>2022-09-06T14:28:24Z</time>
      </trkpt>
      <trkpt lat="43.21995" lon="0.09414">
        <ele>299.2</ele>
        <time>2022-09-06T14:28:26Z</time>
      </trkpt>
      <trkpt lat="43.22017" lon="0.09404">
        <ele>299</ele>
        <time>2022-09-06T14:28:33Z</time>
      </trkpt>
      <trkpt lat="43.22028" lon="0.09398">
        <ele>299</ele>
        <time>2022-09-06T14:28:40Z</time>
      </trkpt>
      <trkpt lat="43.22024" lon="0.094">
        <ele>298.8</ele>
        <time>2022-09-06T14:29:32Z</time>
      </trkpt>
      <trkpt lat="43.22011" lon="0.09408">
        <ele>299</ele>
        <time>2022-09-06T14:29:38Z</time>
      </trkpt>
      <trkpt lat="43.21986" lon="0.09415">
        <ele>299.4</ele>
        <time>2022-09-06T14:29:46Z</time>
      </trkpt>
      <trkpt lat="43.21971" lon="0.09419">
        <ele>299.8</ele>
        <time>2022-09-06T14:29:52Z</time>
      </trkpt>
      <trkpt lat="43.21954" lon="0.09427">
        <ele>300.4</ele>
        <time>2022-09-06T14:34:51Z</time>
      </trkpt>
      <trkpt lat="43.21949" lon="0.09427">
        <ele>300.6</ele>
        <time>2022-09-06T14:34:53Z</time>
      </trkpt>
      <trkpt lat="43.21933" lon="0.09429">
        <ele>301.2</ele>
        <time>2022-09-06T14:34:59Z</time>
      </trkpt>
      <trkpt lat="43.21924" lon="0.09428">
        <ele>301.8</ele>
        <time>2022-09-06T14:35:02Z</time>
      </trkpt>
      <trkpt lat="43.21913" lon="0.09426">
        <ele>302.2</ele>
        <time>2022-09-06T14:35:06Z</time>
      </trkpt>
      <trkpt lat="43.21899" lon="0.09423">
        <ele>302.8</ele>
        <time>2022-09-06T14:35:11Z</time>
      </trkpt>
      <trkpt lat="43.21894" lon="0.09422">
        <ele>303</ele>
        <time>2022-09-06T14:35:13Z</time>
      </trkpt>
      <trkpt lat="43.21875" lon="0.09418">
        <ele>303.8</ele>
        <time>2022-09-06T14:35:20Z</time>
      </trkpt>
      <trkpt lat="43.21872" lon="0.09417">
        <ele>303.8</ele>
        <time>2022-09-06T14:35:21Z</time>
      </trkpt>
      <trkpt lat="43.21856" lon="0.09419">
        <ele>304.8</ele>
        <time>2022-09-06T14:35:27Z</time>
      </trkpt>
      <trkpt lat="43.21853" lon="0.09419">
        <ele>304.8</ele>
        <time>2022-09-06T14:35:28Z</time>
      </trkpt>
      <trkpt lat="43.21834" lon="0.09416">
        <ele>305.2</ele>
        <time>2022-09-06T14:35:35Z</time>
      </trkpt>
      <trkpt lat="43.21824" lon="0.09415">
        <ele>306</ele>
        <time>2022-09-06T14:35:39Z</time>
      </trkpt>
      <trkpt lat="43.21814" lon="0.09414">
        <ele>306</ele>
        <time>2022-09-06T14:35:43Z</time>
      </trkpt>
      <trkpt lat="43.21794" lon="0.09415">
        <ele>305.8</ele>
        <time>2022-09-06T14:35:50Z</time>
      </trkpt>
      <trkpt lat="43.21765" lon="0.09415">
        <ele>305.6</ele>
        <time>2022-09-06T14:35:58Z</time>
      </trkpt>
      <trkpt lat="43.21746" lon="0.09411">
        <ele>305</ele>
        <time>2022-09-06T14:36:02Z</time>
      </trkpt>
      <trkpt lat="43.21736" lon="0.09408">
        <ele>304.6</ele>
        <time>2022-09-06T14:36:04Z</time>
      </trkpt>
      <trkpt lat="43.217" lon="0.09399">
        <ele>303.8</ele>
        <time>2022-09-06T14:36:11Z</time>
      </trkpt>
      <trkpt lat="43.21666" lon="0.09386">
        <ele>304</ele>
        <time>2022-09-06T14:36:18Z</time>
      </trkpt>
      <trkpt lat="43.2164" lon="0.09369">
        <ele>303.8</ele>
        <time>2022-09-06T14:36:24Z</time>
      </trkpt>
      <trkpt lat="43.21631" lon="0.09361">
        <ele>304.2</ele>
        <time>2022-09-06T14:36:28Z</time>
      </trkpt>
      <trkpt lat="43.21633" lon="0.09364">
        <ele>304.4</ele>
        <time>2022-09-06T14:36:38Z</time>
      </trkpt>
      <trkpt lat="43.21641" lon="0.09374">
        <ele>304.2</ele>
        <time>2022-09-06T14:36:42Z</time>
      </trkpt>
      <trkpt lat="43.21641" lon="0.09376">
        <ele>304.2</ele>
        <time>2022-09-06T14:36:43Z</time>
      </trkpt>
      <trkpt lat="43.21641" lon="0.09381">
        <ele>303.6</ele>
        <time>2022-09-06T14:36:47Z</time>
      </trkpt>
      <trkpt lat="43.21643" lon="0.09378">
        <ele>303.6</ele>
        <time>2022-09-06T14:37:16Z</time>
      </trkpt>
      <trkpt lat="43.21641" lon="0.09373">
        <ele>303.6</ele>
        <time>2022-09-06T14:37:18Z</time>
      </trkpt>
      <trkpt lat="43.21635" lon="0.09366">
        <ele>304</ele>
        <time>2022-09-06T14:37:21Z</time>
      </trkpt>
      <trkpt lat="43.21631" lon="0.09362">
        <ele>304.2</ele>
        <time>2022-09-06T14:37:23Z</time>
      </trkpt>
      <trkpt lat="43.21621" lon="0.09355">
        <ele>304.6</ele>
        <time>2022-09-06T14:37:28Z</time>
      </trkpt>
      <trkpt lat="43.21603" lon="0.09346">
        <ele>304.2</ele>
        <time>2022-09-06T14:37:34Z</time>
      </trkpt>
      <trkpt lat="43.21581" lon="0.09328">
        <ele>304.4</ele>
        <time>2022-09-06T14:37:41Z</time>
      </trkpt>
      <trkpt lat="43.21557" lon="0.09309">
        <ele>304.2</ele>
        <time>2022-09-06T14:37:49Z</time>
      </trkpt>
      <trkpt lat="43.21537" lon="0.09288">
        <ele>304</ele>
        <time>2022-09-06T14:37:56Z</time>
      </trkpt>
      <trkpt lat="43.21521" lon="0.09266">
        <ele>304</ele>
        <time>2022-09-06T14:38:03Z</time>
      </trkpt>
      <trkpt lat="43.21515" lon="0.09264">
        <ele>304</ele>
        <time>2022-09-06T14:38:04Z</time>
      </trkpt>
      <trkpt lat="43.21507" lon="0.09263">
        <ele>303.8</ele>
        <time>2022-09-06T14:38:06Z</time>
      </trkpt>
      <trkpt lat="43.21499" lon="0.09273">
        <ele>304</ele>
        <time>2022-09-06T14:38:10Z</time>
      </trkpt>
      <trkpt lat="43.21497" lon="0.09278">
        <ele>304.2</ele>
        <time>2022-09-06T14:38:12Z</time>
      </trkpt>
      <trkpt lat="43.21489" lon="0.0929">
        <ele>304.4</ele>
        <time>2022-09-06T14:38:16Z</time>
      </trkpt>
      <trkpt lat="43.21482" lon="0.09307">
        <ele>304.8</ele>
        <time>2022-09-06T14:38:21Z</time>
      </trkpt>
      <trkpt lat="43.21481" lon="0.0931">
        <ele>305</ele>
        <time>2022-09-06T14:38:22Z</time>
      </trkpt>
      <trkpt lat="43.21472" lon="0.09326">
        <ele>305.4</ele>
        <time>2022-09-06T14:38:27Z</time>
      </trkpt>
      <trkpt lat="43.2146" lon="0.09352">
        <ele>305.6</ele>
        <time>2022-09-06T14:38:34Z</time>
      </trkpt>
      <trkpt lat="43.21456" lon="0.09372">
        <ele>306</ele>
        <time>2022-09-06T14:38:38Z</time>
      </trkpt>
      <trkpt lat="43.21455" lon="0.09381">
        <ele>306.2</ele>
        <time>2022-09-06T14:38:40Z</time>
      </trkpt>
      <trkpt lat="43.21454" lon="0.09385">
        <ele>306.2</ele>
        <time>2022-09-06T14:38:41Z</time>
      </trkpt>
      <trkpt lat="43.21454" lon="0.09387">
        <ele>306.6</ele>
        <time>2022-09-06T14:38:42Z</time>
      </trkpt>
      <trkpt lat="43.21452" lon="0.09396">
        <ele>306.8</ele>
        <time>2022-09-06T14:38:45Z</time>
      </trkpt>
      <trkpt lat="43.21451" lon="0.09399">
        <ele>306.8</ele>
        <time>2022-09-06T14:38:46Z</time>
      </trkpt>
      <trkpt lat="43.21447" lon="0.09412">
        <ele>306.8</ele>
        <time>2022-09-06T14:38:51Z</time>
      </trkpt>
      <trkpt lat="43.21445" lon="0.09414">
        <ele>306.6</ele>
        <time>2022-09-06T14:38:52Z</time>
      </trkpt>
      <trkpt lat="43.21438" lon="0.09415">
        <ele>306.6</ele>
        <time>2022-09-06T14:38:55Z</time>
      </trkpt>
      <trkpt lat="43.21435" lon="0.09416">
        <ele>306.8</ele>
        <time>2022-09-06T14:38:56Z</time>
      </trkpt>
      <trkpt lat="43.21434" lon="0.09419">
        <ele>307</ele>
        <time>2022-09-06T14:38:57Z</time>
      </trkpt>
      <trkpt lat="43.21433" lon="0.09423">
        <ele>307</ele>
        <time>2022-09-06T14:38:58Z</time>
      </trkpt>
      <trkpt lat="43.21431" lon="0.09431">
        <ele>307</ele>
        <time>2022-09-06T14:39:00Z</time>
      </trkpt>
      <trkpt lat="43.21428" lon="0.09452">
        <ele>307</ele>
        <time>2022-09-06T14:39:04Z</time>
      </trkpt>
      <trkpt lat="43.21417" lon="0.09484">
        <ele>307.6</ele>
        <time>2022-09-06T14:39:11Z</time>
      </trkpt>
      <trkpt lat="43.21408" lon="0.095">
        <ele>308.4</ele>
        <time>2022-09-06T14:39:16Z</time>
      </trkpt>
      <trkpt lat="43.21406" lon="0.09503">
        <ele>308.6</ele>
        <time>2022-09-06T14:39:17Z</time>
      </trkpt>
      <trkpt lat="43.21397" lon="0.09516">
        <ele>309.2</ele>
        <time>2022-09-06T14:39:23Z</time>
      </trkpt>
      <trkpt lat="43.21397" lon="0.09517">
        <ele>309.4</ele>
        <time>2022-09-06T14:39:24Z</time>
      </trkpt>
      <trkpt lat="43.21397" lon="0.09522">
        <ele>309.4</ele>
        <time>2022-09-06T14:39:26Z</time>
      </trkpt>
      <trkpt lat="43.21396" lon="0.09534">
        <ele>309.4</ele>
        <time>2022-09-06T14:39:30Z</time>
      </trkpt>
      <trkpt lat="43.21393" lon="0.09538">
        <ele>309.6</ele>
        <time>2022-09-06T14:39:32Z</time>
      </trkpt>
      <trkpt lat="43.21389" lon="0.09539">
        <ele>309.6</ele>
        <time>2022-09-06T14:39:34Z</time>
      </trkpt>
      <trkpt lat="43.21385" lon="0.09539">
        <ele>309.6</ele>
        <time>2022-09-06T14:39:36Z</time>
      </trkpt>
      <trkpt lat="43.21378" lon="0.09539">
        <ele>309.8</ele>
        <time>2022-09-06T14:39:40Z</time>
      </trkpt>
      <trkpt lat="43.21369" lon="0.09539">
        <ele>310.4</ele>
        <time>2022-09-06T14:39:43Z</time>
      </trkpt>
      <trkpt lat="43.21367" lon="0.09541">
        <ele>310.4</ele>
        <time>2022-09-06T14:39:44Z</time>
      </trkpt>
      <trkpt lat="43.21364" lon="0.09545">
        <ele>310.4</ele>
        <time>2022-09-06T14:39:45Z</time>
      </trkpt>
      <trkpt lat="43.21365" lon="0.09559">
        <ele>310.4</ele>
        <time>2022-09-06T14:39:48Z</time>
      </trkpt>
      <trkpt lat="43.21374" lon="0.09568">
        <ele>310.4</ele>
        <time>2022-09-06T14:39:51Z</time>
      </trkpt>
      <trkpt lat="43.21378" lon="0.09571">
        <ele>310.2</ele>
        <time>2022-09-06T14:39:52Z</time>
      </trkpt>
      <trkpt lat="43.21384" lon="0.0958">
        <ele>310</ele>
        <time>2022-09-06T14:39:54Z</time>
      </trkpt>
      <trkpt lat="43.21406" lon="0.09632">
        <ele>311.2</ele>
        <time>2022-09-06T14:40:03Z</time>
      </trkpt>
      <trkpt lat="43.21411" lon="0.09643">
        <ele>312</ele>
        <time>2022-09-06T14:40:05Z</time>
      </trkpt>
      <trkpt lat="43.21424" lon="0.09672">
        <ele>312.2</ele>
        <time>2022-09-06T14:40:11Z</time>
      </trkpt>
      <trkpt lat="43.21433" lon="0.09699">
        <ele>313.2</ele>
        <time>2022-09-06T14:40:17Z</time>
      </trkpt>
      <trkpt lat="43.21434" lon="0.09704">
        <ele>313.4</ele>
        <time>2022-09-06T14:40:18Z</time>
      </trkpt>
      <trkpt lat="43.21444" lon="0.09719">
        <ele>313.6</ele>
        <time>2022-09-06T14:40:22Z</time>
      </trkpt>
      <trkpt lat="43.21447" lon="0.09721">
        <ele>313.6</ele>
        <time>2022-09-06T14:40:23Z</time>
      </trkpt>
      <trkpt lat="43.2146" lon="0.09722">
        <ele>314</ele>
        <time>2022-09-06T14:40:26Z</time>
      </trkpt>
      <trkpt lat="43.21468" lon="0.0972">
        <ele>313.6</ele>
        <time>2022-09-06T14:40:28Z</time>
      </trkpt>
      <trkpt lat="43.21495" lon="0.09711">
        <ele>313.4</ele>
        <time>2022-09-06T14:40:34Z</time>
      </trkpt>
      <trkpt lat="43.21541" lon="0.09699">
        <ele>313.2</ele>
        <time>2022-09-06T14:40:44Z</time>
      </trkpt>
      <trkpt lat="43.21569" lon="0.09688">
        <ele>313.2</ele>
        <time>2022-09-06T14:40:51Z</time>
      </trkpt>
      <trkpt lat="43.21599" lon="0.09676">
        <ele>313.8</ele>
        <time>2022-09-06T14:40:57Z</time>
      </trkpt>
      <trkpt lat="43.2165" lon="0.09646">
        <ele>312.8</ele>
        <time>2022-09-06T14:41:06Z</time>
      </trkpt>
      <trkpt lat="43.21684" lon="0.09626">
        <ele>312.2</ele>
        <time>2022-09-06T14:41:12Z</time>
      </trkpt>
      <trkpt lat="43.21712" lon="0.09611">
        <ele>311.8</ele>
        <time>2022-09-06T14:41:17Z</time>
      </trkpt>
      <trkpt lat="43.21747" lon="0.09596">
        <ele>311.8</ele>
        <time>2022-09-06T14:41:23Z</time>
      </trkpt>
      <trkpt lat="43.21784" lon="0.09586">
        <ele>311</ele>
        <time>2022-09-06T14:41:29Z</time>
      </trkpt>
      <trkpt lat="43.21796" lon="0.09583">
        <ele>310.6</ele>
        <time>2022-09-06T14:41:31Z</time>
      </trkpt>
      <trkpt lat="43.21845" lon="0.09578">
        <ele>310.4</ele>
        <time>2022-09-06T14:41:39Z</time>
      </trkpt>
      <trkpt lat="43.21858" lon="0.09577">
        <ele>309.6</ele>
        <time>2022-09-06T14:41:41Z</time>
      </trkpt>
      <trkpt lat="43.21907" lon="0.09574">
        <ele>309.4</ele>
        <time>2022-09-06T14:41:49Z</time>
      </trkpt>
      <trkpt lat="43.21925" lon="0.09582">
        <ele>309.6</ele>
        <time>2022-09-06T14:41:52Z</time>
      </trkpt>
      <trkpt lat="43.21937" lon="0.09582">
        <ele>309</ele>
        <time>2022-09-06T14:41:54Z</time>
      </trkpt>
      <trkpt lat="43.21954" lon="0.09569">
        <ele>308.6</ele>
        <time>2022-09-06T14:41:57Z</time>
      </trkpt>
      <trkpt lat="43.21965" lon="0.0956">
        <ele>308.4</ele>
        <time>2022-09-06T14:41:59Z</time>
      </trkpt>
      <trkpt lat="43.21986" lon="0.09553">
        <ele>307.4</ele>
        <time>2022-09-06T14:42:02Z</time>
      </trkpt>
      <trkpt lat="43.21993" lon="0.09552">
        <ele>307.8</ele>
        <time>2022-09-06T14:42:03Z</time>
      </trkpt>
      <trkpt lat="43.22029" lon="0.09539">
        <ele>306.8</ele>
        <time>2022-09-06T14:42:08Z</time>
      </trkpt>
      <trkpt lat="43.22043" lon="0.09534">
        <ele>306.4</ele>
        <time>2022-09-06T14:42:10Z</time>
      </trkpt>
      <trkpt lat="43.22079" lon="0.09522">
        <ele>306</ele>
        <time>2022-09-06T14:42:15Z</time>
      </trkpt>
      <trkpt lat="43.22093" lon="0.09517">
        <ele>305.2</ele>
        <time>2022-09-06T14:42:17Z</time>
      </trkpt>
      <trkpt lat="43.22141" lon="0.09502">
        <ele>304.6</ele>
        <time>2022-09-06T14:42:24Z</time>
      </trkpt>
      <trkpt lat="43.22166" lon="0.09493">
        <ele>304.2</ele>
        <time>2022-09-06T14:42:28Z</time>
      </trkpt>
      <trkpt lat="43.22185" lon="0.09486">
        <ele>303.6</ele>
        <time>2022-09-06T14:42:31Z</time>
      </trkpt>
      <trkpt lat="43.22228" lon="0.09473">
        <ele>303.8</ele>
        <time>2022-09-06T14:42:38Z</time>
      </trkpt>
      <trkpt lat="43.22284" lon="0.09454">
        <ele>303.8</ele>
        <time>2022-09-06T14:42:47Z</time>
      </trkpt>
      <trkpt lat="43.22289" lon="0.09452">
        <ele>303.8</ele>
        <time>2022-09-06T14:42:48Z</time>
      </trkpt>
      <trkpt lat="43.22324" lon="0.09442">
        <ele>303</ele>
        <time>2022-09-06T14:42:54Z</time>
      </trkpt>
      <trkpt lat="43.22334" lon="0.0944">
        <ele>303.2</ele>
        <time>2022-09-06T14:42:56Z</time>
      </trkpt>
      <trkpt lat="43.22354" lon="0.09436">
        <ele>303</ele>
        <time>2022-09-06T14:43:00Z</time>
      </trkpt>
      <trkpt lat="43.22364" lon="0.09436">
        <ele>303</ele>
        <time>2022-09-06T14:43:02Z</time>
      </trkpt>
      <trkpt lat="43.22387" lon="0.09441">
        <ele>303.4</ele>
        <time>2022-09-06T14:43:07Z</time>
      </trkpt>
      <trkpt lat="43.22391" lon="0.0944">
        <ele>303.4</ele>
        <time>2022-09-06T14:43:08Z</time>
      </trkpt>
      <trkpt lat="43.224" lon="0.09427">
        <ele>303.8</ele>
        <time>2022-09-06T14:43:11Z</time>
      </trkpt>
      <trkpt lat="43.22396" lon="0.09408">
        <ele>303.2</ele>
        <time>2022-09-06T14:43:14Z</time>
      </trkpt>
      <trkpt lat="43.22389" lon="0.09377">
        <ele>302.8</ele>
        <time>2022-09-06T14:43:18Z</time>
      </trkpt>
      <trkpt lat="43.22387" lon="0.09369">
        <ele>302.6</ele>
        <time>2022-09-06T14:43:19Z</time>
      </trkpt>
      <trkpt lat="43.22375" lon="0.09331">
        <ele>302</ele>
        <time>2022-09-06T14:43:24Z</time>
      </trkpt>
      <trkpt lat="43.22372" lon="0.09323">
        <ele>301.8</ele>
        <time>2022-09-06T14:43:25Z</time>
      </trkpt>
      <trkpt lat="43.22352" lon="0.09274">
        <ele>301.6</ele>
        <time>2022-09-06T14:43:32Z</time>
      </trkpt>
      <trkpt lat="43.22332" lon="0.09224">
        <ele>301.2</ele>
        <time>2022-09-06T14:43:40Z</time>
      </trkpt>
      <trkpt lat="43.22317" lon="0.09187">
        <ele>301.4</ele>
        <time>2022-09-06T14:43:47Z</time>
      </trkpt>
      <trkpt lat="43.22317" lon="0.09182">
        <ele>301.2</ele>
        <time>2022-09-06T14:43:48Z</time>
      </trkpt>
      <trkpt lat="43.22319" lon="0.09179">
        <ele>300.8</ele>
        <time>2022-09-06T14:43:49Z</time>
      </trkpt>
      <trkpt lat="43.22322" lon="0.09178">
        <ele>300.4</ele>
        <time>2022-09-06T14:43:50Z</time>
      </trkpt>
      <trkpt lat="43.22329" lon="0.09184">
        <ele>299.8</ele>
        <time>2022-09-06T14:43:53Z</time>
      </trkpt>
      <trkpt lat="43.22339" lon="0.0918">
        <ele>299.6</ele>
        <time>2022-09-06T14:43:57Z</time>
      </trkpt>
      <trkpt lat="43.22357" lon="0.09173">
        <ele>299.6</ele>
        <time>2022-09-06T14:49:38Z</time>
      </trkpt>
      <trkpt lat="43.22361" lon="0.09169">
        <ele>299.6</ele>
        <time>2022-09-06T14:49:40Z</time>
      </trkpt>
      <trkpt lat="43.22373" lon="0.09162">
        <ele>300</ele>
        <time>2022-09-06T14:49:44Z</time>
      </trkpt>
      <trkpt lat="43.22397" lon="0.09156">
        <ele>299.6</ele>
        <time>2022-09-06T14:49:51Z</time>
      </trkpt>
      <trkpt lat="43.22413" lon="0.0915">
        <ele>299.4</ele>
        <time>2022-09-06T14:49:56Z</time>
      </trkpt>
      <trkpt lat="43.22432" lon="0.09143">
        <ele>299.2</ele>
        <time>2022-09-06T14:50:02Z</time>
      </trkpt>
      <trkpt lat="43.22449" lon="0.09136">
        <ele>299.6</ele>
        <time>2022-09-06T14:50:08Z</time>
      </trkpt>
      <trkpt lat="43.2247" lon="0.09127">
        <ele>299.4</ele>
        <time>2022-09-06T14:50:15Z</time>
      </trkpt>
      <trkpt lat="43.2249" lon="0.09118">
        <ele>298.8</ele>
        <time>2022-09-06T14:50:21Z</time>
      </trkpt>
      <trkpt lat="43.22512" lon="0.09109">
        <ele>298.6</ele>
        <time>2022-09-06T14:50:27Z</time>
      </trkpt>
      <trkpt lat="43.2252" lon="0.09106">
        <ele>298.6</ele>
        <time>2022-09-06T14:50:29Z</time>
      </trkpt>
      <trkpt lat="43.22548" lon="0.09093">
        <ele>298.6</ele>
        <time>2022-09-06T14:50:37Z</time>
      </trkpt>
      <trkpt lat="43.22581" lon="0.09079">
        <ele>298.2</ele>
        <time>2022-09-06T14:50:46Z</time>
      </trkpt>
      <trkpt lat="43.22604" lon="0.0907">
        <ele>298.4</ele>
        <time>2022-09-06T14:50:52Z</time>
      </trkpt>
      <trkpt lat="43.22631" lon="0.09059">
        <ele>298.2</ele>
        <time>2022-09-06T14:50:59Z</time>
      </trkpt>
      <trkpt lat="43.22661" lon="0.09045">
        <ele>297.8</ele>
        <time>2022-09-06T14:51:07Z</time>
      </trkpt>
      <trkpt lat="43.22674" lon="0.09039">
        <ele>297.4</ele>
        <time>2022-09-06T14:51:11Z</time>
      </trkpt>
      <trkpt lat="43.22683" lon="0.09034">
        <ele>297.2</ele>
        <time>2022-09-06T14:51:14Z</time>
      </trkpt>
      <trkpt lat="43.22697" lon="0.09028">
        <ele>297</ele>
        <time>2022-09-06T14:51:20Z</time>
      </trkpt>
      <trkpt lat="43.22708" lon="0.09023">
        <ele>297.2</ele>
        <time>2022-09-06T14:51:26Z</time>
      </trkpt>
      <trkpt lat="43.22722" lon="0.09016">
        <ele>297.2</ele>
        <time>2022-09-06T14:51:32Z</time>
      </trkpt>
      <trkpt lat="43.22745" lon="0.09008">
        <ele>297</ele>
        <time>2022-09-06T14:51:39Z</time>
      </trkpt>
      <trkpt lat="43.22758" lon="0.09004">
        <ele>296.4</ele>
        <time>2022-09-06T14:51:42Z</time>
      </trkpt>
      <trkpt lat="43.22762" lon="0.09002">
        <ele>296</ele>
        <time>2022-09-06T14:51:43Z</time>
      </trkpt>
      <trkpt lat="43.22772" lon="0.08997">
        <ele>296</ele>
        <time>2022-09-06T14:51:45Z</time>
      </trkpt>
      <trkpt lat="43.22797" lon="0.08987">
        <ele>295.4</ele>
        <time>2022-09-06T14:51:50Z</time>
      </trkpt>
      <trkpt lat="43.22808" lon="0.08984">
        <ele>295.4</ele>
        <time>2022-09-06T14:51:52Z</time>
      </trkpt>
      <trkpt lat="43.22847" lon="0.08972">
        <ele>294.8</ele>
        <time>2022-09-06T14:51:59Z</time>
      </trkpt>
      <trkpt lat="43.22869" lon="0.08966">
        <ele>294.4</ele>
        <time>2022-09-06T14:52:03Z</time>
      </trkpt>
      <trkpt lat="43.22889" lon="0.0896">
        <ele>293.8</ele>
        <time>2022-09-06T14:52:07Z</time>
      </trkpt>
      <trkpt lat="43.22918" lon="0.08943">
        <ele>293.8</ele>
        <time>2022-09-06T14:52:13Z</time>
      </trkpt>
      <trkpt lat="43.2293" lon="0.08931">
        <ele>293.6</ele>
        <time>2022-09-06T14:52:16Z</time>
      </trkpt>
      <trkpt lat="43.22944" lon="0.08915">
        <ele>293.8</ele>
        <time>2022-09-06T14:52:20Z</time>
      </trkpt>
      <trkpt lat="43.22958" lon="0.08882">
        <ele>293.8</ele>
        <time>2022-09-06T14:52:27Z</time>
      </trkpt>
      <trkpt lat="43.22959" lon="0.08857">
        <ele>293.8</ele>
        <time>2022-09-06T14:52:32Z</time>
      </trkpt>
      <trkpt lat="43.22957" lon="0.0885">
        <ele>293.6</ele>
        <time>2022-09-06T14:52:36Z</time>
      </trkpt>
      <trkpt lat="43.22956" lon="0.08859">
        <ele>293.8</ele>
        <time>2022-09-06T14:52:40Z</time>
      </trkpt>
      <trkpt lat="43.22967" lon="0.08869">
        <ele>293.8</ele>
        <time>2022-09-06T14:52:45Z</time>
      </trkpt>
      <trkpt lat="43.22974" lon="0.08855">
        <ele>294</ele>
        <time>2022-09-06T14:52:49Z</time>
      </trkpt>
      <trkpt lat="43.22985" lon="0.08828">
        <ele>294</ele>
        <time>2022-09-06T14:52:56Z</time>
      </trkpt>
      <trkpt lat="43.22988" lon="0.08819">
        <ele>294</ele>
        <time>2022-09-06T14:52:59Z</time>
      </trkpt>
      <trkpt lat="43.22987" lon="0.08813">
        <ele>294.4</ele>
        <time>2022-09-06T14:53:01Z</time>
      </trkpt>
      <trkpt lat="43.22983" lon="0.08806">
        <ele>294.4</ele>
        <time>2022-09-06T14:53:06Z</time>
      </trkpt>
      <trkpt lat="43.22981" lon="0.08802">
        <ele>294.4</ele>
        <time>2022-09-06T14:53:15Z</time>
      </trkpt>
      <trkpt lat="43.2298" lon="0.08796">
        <ele>294.6</ele>
        <time>2022-09-06T14:53:17Z</time>
      </trkpt>
      <trkpt lat="43.22978" lon="0.08792">
        <ele>294.8</ele>
        <time>2022-09-06T14:53:19Z</time>
      </trkpt>
      <trkpt lat="43.22972" lon="0.08792">
        <ele>294.8</ele>
        <time>2022-09-06T14:53:21Z</time>
      </trkpt>
      <trkpt lat="43.22966" lon="0.08794">
        <ele>294.8</ele>
        <time>2022-09-06T14:53:23Z</time>
      </trkpt>
      <trkpt lat="43.22951" lon="0.088">
        <ele>295</ele>
        <time>2022-09-06T14:53:27Z</time>
      </trkpt>
      <trkpt lat="43.22927" lon="0.08815">
        <ele>295.4</ele>
        <time>2022-09-06T14:53:34Z</time>
      </trkpt>
      <trkpt lat="43.22924" lon="0.08818">
        <ele>295.4</ele>
        <time>2022-09-06T14:53:35Z</time>
      </trkpt>
      <trkpt lat="43.22902" lon="0.08834">
        <ele>296.6</ele>
        <time>2022-09-06T14:53:42Z</time>
      </trkpt>
      <trkpt lat="43.22899" lon="0.08835">
        <ele>296.6</ele>
        <time>2022-09-06T14:53:43Z</time>
      </trkpt>
      <trkpt lat="43.22885" lon="0.0883">
        <ele>296.8</ele>
        <time>2022-09-06T14:53:48Z</time>
      </trkpt>
      <trkpt lat="43.22872" lon="0.08817">
        <ele>297.2</ele>
        <time>2022-09-06T14:53:52Z</time>
      </trkpt>
      <trkpt lat="43.22868" lon="0.08807">
        <ele>297</ele>
        <time>2022-09-06T14:53:54Z</time>
      </trkpt>
      <trkpt lat="43.22864" lon="0.08784">
        <ele>297</ele>
        <time>2022-09-06T14:53:58Z</time>
      </trkpt>
      <trkpt lat="43.22863" lon="0.08778">
        <ele>297</ele>
        <time>2022-09-06T14:53:59Z</time>
      </trkpt>
      <trkpt lat="43.2286" lon="0.08727">
        <ele>297.4</ele>
        <time>2022-09-06T14:54:07Z</time>
      </trkpt>
      <trkpt lat="43.2286" lon="0.08679">
        <ele>296.8</ele>
        <time>2022-09-06T14:54:16Z</time>
      </trkpt>
      <trkpt lat="43.22862" lon="0.08646">
        <ele>296.8</ele>
        <time>2022-09-06T14:54:23Z</time>
      </trkpt>
      <trkpt lat="43.22865" lon="0.08606">
        <ele>297</ele>
        <time>2022-09-06T14:54:29Z</time>
      </trkpt>
      <trkpt lat="43.22869" lon="0.08577">
        <ele>296.8</ele>
        <time>2022-09-06T14:54:33Z</time>
      </trkpt>
      <trkpt lat="43.22872" lon="0.08563">
        <ele>296.4</ele>
        <time>2022-09-06T14:54:35Z</time>
      </trkpt>
      <trkpt lat="43.22884" lon="0.08526">
        <ele>296.4</ele>
        <time>2022-09-06T14:54:41Z</time>
      </trkpt>
      <trkpt lat="43.22894" lon="0.08506">
        <ele>296.2</ele>
        <time>2022-09-06T14:54:46Z</time>
      </trkpt>
      <trkpt lat="43.22902" lon="0.08498">
        <ele>296</ele>
        <time>2022-09-06T14:54:51Z</time>
      </trkpt>
      <trkpt lat="43.22912" lon="0.08492">
        <ele>295.8</ele>
        <time>2022-09-06T14:54:56Z</time>
      </trkpt>
      <trkpt lat="43.22917" lon="0.08488">
        <ele>295.6</ele>
        <time>2022-09-06T14:54:59Z</time>
      </trkpt>
      <trkpt lat="43.2292" lon="0.08486">
        <ele>295.4</ele>
        <time>2022-09-06T14:55:00Z</time>
      </trkpt>
      <trkpt lat="43.22928" lon="0.0847">
        <ele>295.8</ele>
        <time>2022-09-06T14:55:04Z</time>
      </trkpt>
      <trkpt lat="43.22929" lon="0.08464">
        <ele>296</ele>
        <time>2022-09-06T14:55:05Z</time>
      </trkpt>
      <trkpt lat="43.22925" lon="0.08445">
        <ele>296</ele>
        <time>2022-09-06T14:55:08Z</time>
      </trkpt>
      <trkpt lat="43.22923" lon="0.08438">
        <ele>296.4</ele>
        <time>2022-09-06T14:55:09Z</time>
      </trkpt>
      <trkpt lat="43.2292" lon="0.08426">
        <ele>296.8</ele>
        <time>2022-09-06T14:55:11Z</time>
      </trkpt>
      <trkpt lat="43.2291" lon="0.08394">
        <ele>296.6</ele>
        <time>2022-09-06T14:55:16Z</time>
      </trkpt>
      <trkpt lat="43.22897" lon="0.08351">
        <ele>296.4</ele>
        <time>2022-09-06T14:55:23Z</time>
      </trkpt>
      <trkpt lat="43.22886" lon="0.08315">
        <ele>296.8</ele>
        <time>2022-09-06T14:55:29Z</time>
      </trkpt>
      <trkpt lat="43.22885" lon="0.0831">
        <ele>296.8</ele>
        <time>2022-09-06T14:55:30Z</time>
      </trkpt>
      <trkpt lat="43.22885" lon="0.08291">
        <ele>296.8</ele>
        <time>2022-09-06T14:55:33Z</time>
      </trkpt>
      <trkpt lat="43.22886" lon="0.08278">
        <ele>297</ele>
        <time>2022-09-06T14:55:35Z</time>
      </trkpt>
      <trkpt lat="43.22887" lon="0.08272">
        <ele>297</ele>
        <time>2022-09-06T14:55:36Z</time>
      </trkpt>
      <trkpt lat="43.22888" lon="0.08252">
        <ele>296.6</ele>
        <time>2022-09-06T14:55:39Z</time>
      </trkpt>
      <trkpt lat="43.22891" lon="0.08234">
        <ele>296.4</ele>
        <time>2022-09-06T14:55:42Z</time>
      </trkpt>
      <trkpt lat="43.22894" lon="0.08199">
        <ele>296.8</ele>
        <time>2022-09-06T14:55:48Z</time>
      </trkpt>
      <trkpt lat="43.22894" lon="0.08193">
        <ele>296.6</ele>
        <time>2022-09-06T14:55:49Z</time>
      </trkpt>
      <trkpt lat="43.22895" lon="0.08168">
        <ele>296.4</ele>
        <time>2022-09-06T14:55:53Z</time>
      </trkpt>
      <trkpt lat="43.22896" lon="0.0815">
        <ele>296.4</ele>
        <time>2022-09-06T14:55:56Z</time>
      </trkpt>
      <trkpt lat="43.22898" lon="0.08136">
        <ele>296</ele>
        <time>2022-09-06T14:55:59Z</time>
      </trkpt>
      <trkpt lat="43.22898" lon="0.08133">
        <ele>295.8</ele>
        <time>2022-09-06T14:56:00Z</time>
      </trkpt>
      <trkpt lat="43.22899" lon="0.08132">
        <ele>295.4</ele>
        <time>2022-09-06T14:56:02Z</time>
      </trkpt>
      <trkpt lat="43.22898" lon="0.08127">
        <ele>295.6</ele>
        <time>2022-09-06T14:56:25Z</time>
      </trkpt>
      <trkpt lat="43.22898" lon="0.0812">
        <ele>295.8</ele>
        <time>2022-09-06T14:56:27Z</time>
      </trkpt>
      <trkpt lat="43.22896" lon="0.08093">
        <ele>295.8</ele>
        <time>2022-09-06T14:56:32Z</time>
      </trkpt>
      <trkpt lat="43.22897" lon="0.08059">
        <ele>296</ele>
        <time>2022-09-06T14:56:38Z</time>
      </trkpt>
      <trkpt lat="43.22897" lon="0.08053">
        <ele>296</ele>
        <time>2022-09-06T14:56:39Z</time>
      </trkpt>
      <trkpt lat="43.22899" lon="0.08028">
        <ele>296</ele>
        <time>2022-09-06T14:56:44Z</time>
      </trkpt>
      <trkpt lat="43.22898" lon="0.08021">
        <ele>296</ele>
        <time>2022-09-06T14:56:45Z</time>
      </trkpt>
      <trkpt lat="43.229" lon="0.07977">
        <ele>296</ele>
        <time>2022-09-06T14:56:52Z</time>
      </trkpt>
      <trkpt lat="43.229" lon="0.07947">
        <ele>296.8</ele>
        <time>2022-09-06T14:56:57Z</time>
      </trkpt>
      <trkpt lat="43.22899" lon="0.07942">
        <ele>297</ele>
        <time>2022-09-06T14:56:58Z</time>
      </trkpt>
      <trkpt lat="43.22897" lon="0.07936">
        <ele>296.8</ele>
        <time>2022-09-06T14:56:59Z</time>
      </trkpt>
      <trkpt lat="43.22891" lon="0.07919">
        <ele>295.8</ele>
        <time>2022-09-06T14:57:02Z</time>
      </trkpt>
      <trkpt lat="43.22881" lon="0.07898">
        <ele>295.4</ele>
        <time>2022-09-06T14:57:06Z</time>
      </trkpt>
      <trkpt lat="43.2287" lon="0.07872">
        <ele>295.2</ele>
        <time>2022-09-06T14:57:12Z</time>
      </trkpt>
      <trkpt lat="43.22868" lon="0.07866">
        <ele>295</ele>
        <time>2022-09-06T14:57:17Z</time>
      </trkpt>
      <trkpt lat="43.22865" lon="0.07861">
        <ele>295</ele>
        <time>2022-09-06T14:57:22Z</time>
      </trkpt>
      <trkpt lat="43.22861" lon="0.07863">
        <ele>295</ele>
        <time>2022-09-06T14:57:24Z</time>
      </trkpt>
      <trkpt lat="43.22855" lon="0.07861">
        <ele>295.2</ele>
        <time>2022-09-06T14:57:28Z</time>
      </trkpt>
      <trkpt lat="43.22852" lon="0.07855">
        <ele>295</ele>
        <time>2022-09-06T14:57:31Z</time>
      </trkpt>
      <trkpt lat="43.22851" lon="0.07856">
        <ele>295</ele>
        <time>2022-09-06T14:57:34Z</time>
      </trkpt>
      <trkpt lat="43.2285" lon="0.07853">
        <ele>295.2</ele>
        <time>2022-09-06T14:57:37Z</time>
      </trkpt>
      <trkpt lat="43.2285" lon="0.07852">
        <ele>295.2</ele>
        <time>2022-09-06T14:57:38Z</time>
      </trkpt>
      <trkpt lat="43.22847" lon="0.07841">
        <ele>295</ele>
        <time>2022-09-06T14:57:42Z</time>
      </trkpt>
      <trkpt lat="43.22845" lon="0.0783">
        <ele>295</ele>
        <time>2022-09-06T14:57:46Z</time>
      </trkpt>
      <trkpt lat="43.22841" lon="0.07812">
        <ele>295</ele>
        <time>2022-09-06T14:57:53Z</time>
      </trkpt>
      <trkpt lat="43.22836" lon="0.07791">
        <ele>294.8</ele>
        <time>2022-09-06T14:58:00Z</time>
      </trkpt>
      <trkpt lat="43.22833" lon="0.07769">
        <ele>295.6</ele>
        <time>2022-09-06T15:18:09Z</time>
      </trkpt>
      <trkpt lat="43.22833" lon="0.07767">
        <ele>295.6</ele>
        <time>2022-09-06T15:18:10Z</time>
      </trkpt>
      <trkpt lat="43.22833" lon="0.07755">
        <ele>295.6</ele>
        <time>2022-09-06T15:18:15Z</time>
      </trkpt>
      <trkpt lat="43.22834" lon="0.0774">
        <ele>295.8</ele>
        <time>2022-09-06T15:18:20Z</time>
      </trkpt>
      <trkpt lat="43.22835" lon="0.07729">
        <ele>295.8</ele>
        <time>2022-09-06T15:18:25Z</time>
      </trkpt>
      <trkpt lat="43.22836" lon="0.07722">
        <ele>295.8</ele>
        <time>2022-09-06T15:18:27Z</time>
      </trkpt>
      <trkpt lat="43.22836" lon="0.07713">
        <ele>295.6</ele>
        <time>2022-09-06T15:18:29Z</time>
      </trkpt>
      <trkpt lat="43.22834" lon="0.077">
        <ele>295.6</ele>
        <time>2022-09-06T15:18:32Z</time>
      </trkpt>
      <trkpt lat="43.22835" lon="0.07691">
        <ele>295.8</ele>
        <time>2022-09-06T15:18:34Z</time>
      </trkpt>
      <trkpt lat="43.22835" lon="0.07666">
        <ele>295.8</ele>
        <time>2022-09-06T15:18:41Z</time>
      </trkpt>
      <trkpt lat="43.22834" lon="0.0765">
        <ele>295.8</ele>
        <time>2022-09-06T15:18:46Z</time>
      </trkpt>
      <trkpt lat="43.22832" lon="0.07623">
        <ele>295.6</ele>
        <time>2022-09-06T15:18:54Z</time>
      </trkpt>
      <trkpt lat="43.2283" lon="0.07601">
        <ele>295.6</ele>
        <time>2022-09-06T15:19:01Z</time>
      </trkpt>
      <trkpt lat="43.22823" lon="0.0759">
        <ele>295.6</ele>
        <time>2022-09-06T15:19:06Z</time>
      </trkpt>
      <trkpt lat="43.22808" lon="0.07578">
        <ele>295.6</ele>
        <time>2022-09-06T15:19:13Z</time>
      </trkpt>
      <trkpt lat="43.22798" lon="0.07581">
        <ele>295.6</ele>
        <time>2022-09-06T15:19:18Z</time>
      </trkpt>
      <trkpt lat="43.22793" lon="0.07573">
        <ele>295.6</ele>
        <time>2022-09-06T15:19:31Z</time>
      </trkpt>
      <trkpt lat="43.22791" lon="0.07567">
        <ele>295.6</ele>
        <time>2022-09-06T15:19:33Z</time>
      </trkpt>
      <trkpt lat="43.22789" lon="0.07558">
        <ele>295.8</ele>
        <time>2022-09-06T15:19:37Z</time>
      </trkpt>
      <trkpt lat="43.22789" lon="0.07558">
        <ele>295.6</ele>
        <time>2022-09-06T15:19:38Z</time>
      </trkpt>
      <trkpt lat="43.22789" lon="0.07551">
        <ele>295.8</ele>
        <time>2022-09-06T15:19:45Z</time>
      </trkpt>
      <trkpt lat="43.22786" lon="0.07548">
        <ele>295.8</ele>
        <time>2022-09-06T15:19:46Z</time>
      </trkpt>
      <trkpt lat="43.2277" lon="0.07531">
        <ele>295.8</ele>
        <time>2022-09-06T15:19:52Z</time>
      </trkpt>
      <trkpt lat="43.22745" lon="0.07504">
        <ele>296</ele>
        <time>2022-09-06T15:20:00Z</time>
      </trkpt>
      <trkpt lat="43.22741" lon="0.07502">
        <ele>296</ele>
        <time>2022-09-06T15:20:01Z</time>
      </trkpt>
      <trkpt lat="43.22718" lon="0.07495">
        <ele>296</ele>
        <time>2022-09-06T15:20:07Z</time>
      </trkpt>
      <trkpt lat="43.22675" lon="0.07488">
        <ele>296.6</ele>
        <time>2022-09-06T15:20:18Z</time>
      </trkpt>
      <trkpt lat="43.22652" lon="0.07484">
        <ele>296.8</ele>
        <time>2022-09-06T15:20:24Z</time>
      </trkpt>
      <trkpt lat="43.22637" lon="0.07481">
        <ele>297</ele>
        <time>2022-09-06T15:20:28Z</time>
      </trkpt>
      <trkpt lat="43.22615" lon="0.0747">
        <ele>297.4</ele>
        <time>2022-09-06T15:20:34Z</time>
      </trkpt>
      <trkpt lat="43.22607" lon="0.07451">
        <ele>297.6</ele>
        <time>2022-09-06T15:20:38Z</time>
      </trkpt>
      <trkpt lat="43.22605" lon="0.0744">
        <ele>297.8</ele>
        <time>2022-09-06T15:20:40Z</time>
      </trkpt>
      <trkpt lat="43.22603" lon="0.07418">
        <ele>297.8</ele>
        <time>2022-09-06T15:20:44Z</time>
      </trkpt>
      <trkpt lat="43.22602" lon="0.07407">
        <ele>297.8</ele>
        <time>2022-09-06T15:20:46Z</time>
      </trkpt>
      <trkpt lat="43.22598" lon="0.07371">
        <ele>298.2</ele>
        <time>2022-09-06T15:20:52Z</time>
      </trkpt>
      <trkpt lat="43.22594" lon="0.07354">
        <ele>298.2</ele>
        <time>2022-09-06T15:20:55Z</time>
      </trkpt>
      <trkpt lat="43.22586" lon="0.07339">
        <ele>298.4</ele>
        <time>2022-09-06T15:20:58Z</time>
      </trkpt>
      <trkpt lat="43.22579" lon="0.07322">
        <ele>298</ele>
        <time>2022-09-06T15:21:01Z</time>
      </trkpt>
      <trkpt lat="43.22569" lon="0.073">
        <ele>298.2</ele>
        <time>2022-09-06T15:21:05Z</time>
      </trkpt>
      <trkpt lat="43.22548" lon="0.07246">
        <ele>298.4</ele>
        <time>2022-09-06T15:21:15Z</time>
      </trkpt>
      <trkpt lat="43.2253" lon="0.07201">
        <ele>298.2</ele>
        <time>2022-09-06T15:21:23Z</time>
      </trkpt>
      <trkpt lat="43.2251" lon="0.07161">
        <ele>298.2</ele>
        <time>2022-09-06T15:21:30Z</time>
      </trkpt>
      <trkpt lat="43.22488" lon="0.07115">
        <ele>298.2</ele>
        <time>2022-09-06T15:21:38Z</time>
      </trkpt>
      <trkpt lat="43.22464" lon="0.0707">
        <ele>298.2</ele>
        <time>2022-09-06T15:21:46Z</time>
      </trkpt>
      <trkpt lat="43.22456" lon="0.07054">
        <ele>298.4</ele>
        <time>2022-09-06T15:21:49Z</time>
      </trkpt>
      <trkpt lat="43.2245" lon="0.07046">
        <ele>298.2</ele>
        <time>2022-09-06T15:21:51Z</time>
      </trkpt>
      <trkpt lat="43.22432" lon="0.07021">
        <ele>298</ele>
        <time>2022-09-06T15:21:58Z</time>
      </trkpt>
      <trkpt lat="43.22419" lon="0.07002">
        <ele>298.2</ele>
        <time>2022-09-06T15:22:05Z</time>
      </trkpt>
      <trkpt lat="43.22409" lon="0.0699">
        <ele>298.2</ele>
        <time>2022-09-06T15:22:11Z</time>
      </trkpt>
      <trkpt lat="43.22407" lon="0.06974">
        <ele>298.6</ele>
        <time>2022-09-06T15:22:15Z</time>
      </trkpt>
      <trkpt lat="43.22406" lon="0.06952">
        <ele>298.8</ele>
        <time>2022-09-06T15:22:19Z</time>
      </trkpt>
      <trkpt lat="43.22407" lon="0.0694">
        <ele>298.8</ele>
        <time>2022-09-06T15:22:21Z</time>
      </trkpt>
      <trkpt lat="43.22407" lon="0.06934">
        <ele>299</ele>
        <time>2022-09-06T15:22:22Z</time>
      </trkpt>
      <trkpt lat="43.22409" lon="0.06905">
        <ele>299.2</ele>
        <time>2022-09-06T15:22:27Z</time>
      </trkpt>
      <trkpt lat="43.22413" lon="0.06867">
        <ele>299</ele>
        <time>2022-09-06T15:22:33Z</time>
      </trkpt>
      <trkpt lat="43.22417" lon="0.06834">
        <ele>298.4</ele>
        <time>2022-09-06T15:22:39Z</time>
      </trkpt>
      <trkpt lat="43.22417" lon="0.06827">
        <ele>298.4</ele>
        <time>2022-09-06T15:22:43Z</time>
      </trkpt>
      <trkpt lat="43.22415" lon="0.06824">
        <ele>298.4</ele>
        <time>2022-09-06T15:22:44Z</time>
      </trkpt>
      <trkpt lat="43.22408" lon="0.06824">
        <ele>298.8</ele>
        <time>2022-09-06T15:22:46Z</time>
      </trkpt>
      <trkpt lat="43.22393" lon="0.06816">
        <ele>298.8</ele>
        <time>2022-09-06T15:22:50Z</time>
      </trkpt>
      <trkpt lat="43.22355" lon="0.0679">
        <ele>299.2</ele>
        <time>2022-09-06T15:22:59Z</time>
      </trkpt>
      <trkpt lat="43.22329" lon="0.06767">
        <ele>299.2</ele>
        <time>2022-09-06T15:23:06Z</time>
      </trkpt>
      <trkpt lat="43.22326" lon="0.06762">
        <ele>299.2</ele>
        <time>2022-09-06T15:23:07Z</time>
      </trkpt>
      <trkpt lat="43.22314" lon="0.06734">
        <ele>299.2</ele>
        <time>2022-09-06T15:23:12Z</time>
      </trkpt>
      <trkpt lat="43.22309" lon="0.06723">
        <ele>299.6</ele>
        <time>2022-09-06T15:23:14Z</time>
      </trkpt>
      <trkpt lat="43.22304" lon="0.06713">
        <ele>299.2</ele>
        <time>2022-09-06T15:23:16Z</time>
      </trkpt>
      <trkpt lat="43.22293" lon="0.06693">
        <ele>299.4</ele>
        <time>2022-09-06T15:23:20Z</time>
      </trkpt>
      <trkpt lat="43.22286" lon="0.06684">
        <ele>299.2</ele>
        <time>2022-09-06T15:23:22Z</time>
      </trkpt>
      <trkpt lat="43.22279" lon="0.06674">
        <ele>299.4</ele>
        <time>2022-09-06T15:23:24Z</time>
      </trkpt>
      <trkpt lat="43.22275" lon="0.06669">
        <ele>299.6</ele>
        <time>2022-09-06T15:23:25Z</time>
      </trkpt>
      <trkpt lat="43.22245" lon="0.06638">
        <ele>299.6</ele>
        <time>2022-09-06T15:23:32Z</time>
      </trkpt>
      <trkpt lat="43.22205" lon="0.06598">
        <ele>299.6</ele>
        <time>2022-09-06T15:23:41Z</time>
      </trkpt>
      <trkpt lat="43.22171" lon="0.06564">
        <ele>299.8</ele>
        <time>2022-09-06T15:23:49Z</time>
      </trkpt>
      <trkpt lat="43.2214" lon="0.06535">
        <ele>299.6</ele>
        <time>2022-09-06T15:23:56Z</time>
      </trkpt>
      <trkpt lat="43.22113" lon="0.06507">
        <ele>299.6</ele>
        <time>2022-09-06T15:24:03Z</time>
      </trkpt>
      <trkpt lat="43.22075" lon="0.06472">
        <ele>299.8</ele>
        <time>2022-09-06T15:24:12Z</time>
      </trkpt>
      <trkpt lat="43.22068" lon="0.06462">
        <ele>300.2</ele>
        <time>2022-09-06T15:24:14Z</time>
      </trkpt>
      <trkpt lat="43.22049" lon="0.06438">
        <ele>300.2</ele>
        <time>2022-09-06T15:24:19Z</time>
      </trkpt>
      <trkpt lat="43.22022" lon="0.06401">
        <ele>299.6</ele>
        <time>2022-09-06T15:24:27Z</time>
      </trkpt>
      <trkpt lat="43.21994" lon="0.0636">
        <ele>300.4</ele>
        <time>2022-09-06T15:24:35Z</time>
      </trkpt>
      <trkpt lat="43.21984" lon="0.06343">
        <ele>300.4</ele>
        <time>2022-09-06T15:24:38Z</time>
      </trkpt>
      <trkpt lat="43.21971" lon="0.06321">
        <ele>300.6</ele>
        <time>2022-09-06T15:24:42Z</time>
      </trkpt>
      <trkpt lat="43.21946" lon="0.06276">
        <ele>300.6</ele>
        <time>2022-09-06T15:24:50Z</time>
      </trkpt>
      <trkpt lat="43.21918" lon="0.06228">
        <ele>300.6</ele>
        <time>2022-09-06T15:24:58Z</time>
      </trkpt>
      <trkpt lat="43.21893" lon="0.06187">
        <ele>300.6</ele>
        <time>2022-09-06T15:25:05Z</time>
      </trkpt>
      <trkpt lat="43.21862" lon="0.06145">
        <ele>300.4</ele>
        <time>2022-09-06T15:25:13Z</time>
      </trkpt>
      <trkpt lat="43.21849" lon="0.06129">
        <ele>300.8</ele>
        <time>2022-09-06T15:25:16Z</time>
      </trkpt>
      <trkpt lat="43.21837" lon="0.06114">
        <ele>300.6</ele>
        <time>2022-09-06T15:25:19Z</time>
      </trkpt>
      <trkpt lat="43.21828" lon="0.06105">
        <ele>301.2</ele>
        <time>2022-09-06T15:25:21Z</time>
      </trkpt>
      <trkpt lat="43.21801" lon="0.06079">
        <ele>301</ele>
        <time>2022-09-06T15:25:27Z</time>
      </trkpt>
      <trkpt lat="43.21792" lon="0.06072">
        <ele>301.2</ele>
        <time>2022-09-06T15:25:29Z</time>
      </trkpt>
      <trkpt lat="43.21754" lon="0.06044">
        <ele>301</ele>
        <time>2022-09-06T15:25:37Z</time>
      </trkpt>
      <trkpt lat="43.21721" lon="0.06026">
        <ele>301.4</ele>
        <time>2022-09-06T15:25:44Z</time>
      </trkpt>
      <trkpt lat="43.21692" lon="0.06011">
        <ele>301.6</ele>
        <time>2022-09-06T15:25:50Z</time>
      </trkpt>
      <trkpt lat="43.21655" lon="0.05993">
        <ele>301.8</ele>
        <time>2022-09-06T15:25:58Z</time>
      </trkpt>
      <trkpt lat="43.21634" lon="0.0598">
        <ele>302.4</ele>
        <time>2022-09-06T15:26:03Z</time>
      </trkpt>
      <trkpt lat="43.21619" lon="0.05969">
        <ele>302.6</ele>
        <time>2022-09-06T15:26:07Z</time>
      </trkpt>
      <trkpt lat="43.21591" lon="0.05944">
        <ele>303.2</ele>
        <time>2022-09-06T15:26:16Z</time>
      </trkpt>
      <trkpt lat="43.21567" lon="0.05921">
        <ele>303.6</ele>
        <time>2022-09-06T15:26:23Z</time>
      </trkpt>
      <trkpt lat="43.2156" lon="0.05915">
        <ele>303.8</ele>
        <time>2022-09-06T15:26:25Z</time>
      </trkpt>
      <trkpt lat="43.2153" lon="0.0589">
        <ele>304</ele>
        <time>2022-09-06T15:26:33Z</time>
      </trkpt>
      <trkpt lat="43.2151" lon="0.05877">
        <ele>304.6</ele>
        <time>2022-09-06T15:26:38Z</time>
      </trkpt>
      <trkpt lat="43.21502" lon="0.05873">
        <ele>304.6</ele>
        <time>2022-09-06T15:26:40Z</time>
      </trkpt>
      <trkpt lat="43.21463" lon="0.05857">
        <ele>304.6</ele>
        <time>2022-09-06T15:26:49Z</time>
      </trkpt>
      <trkpt lat="43.21426" lon="0.05851">
        <ele>304.8</ele>
        <time>2022-09-06T15:26:57Z</time>
      </trkpt>
      <trkpt lat="43.21385" lon="0.05851">
        <ele>305.2</ele>
        <time>2022-09-06T15:27:06Z</time>
      </trkpt>
      <trkpt lat="43.21353" lon="0.05855">
        <ele>305.6</ele>
        <time>2022-09-06T15:27:13Z</time>
      </trkpt>
      <trkpt lat="43.21348" lon="0.05856">
        <ele>305.6</ele>
        <time>2022-09-06T15:27:14Z</time>
      </trkpt>
      <trkpt lat="43.21311" lon="0.05858">
        <ele>306</ele>
        <time>2022-09-06T15:27:22Z</time>
      </trkpt>
      <trkpt lat="43.21277" lon="0.05856">
        <ele>306.4</ele>
        <time>2022-09-06T15:27:29Z</time>
      </trkpt>
      <trkpt lat="43.21267" lon="0.05855">
        <ele>306.6</ele>
        <time>2022-09-06T15:27:31Z</time>
      </trkpt>
      <trkpt lat="43.21233" lon="0.05853">
        <ele>306.8</ele>
        <time>2022-09-06T15:27:38Z</time>
      </trkpt>
      <trkpt lat="43.21214" lon="0.05852">
        <ele>307.8</ele>
        <time>2022-09-06T15:27:42Z</time>
      </trkpt>
      <trkpt lat="43.21201" lon="0.05852">
        <ele>308</ele>
        <time>2022-09-06T15:27:45Z</time>
      </trkpt>
      <trkpt lat="43.2118" lon="0.05853">
        <ele>309</ele>
        <time>2022-09-06T15:27:50Z</time>
      </trkpt>
      <trkpt lat="43.21168" lon="0.05854">
        <ele>309.6</ele>
        <time>2022-09-06T15:27:53Z</time>
      </trkpt>
      <trkpt lat="43.21139" lon="0.05857">
        <ele>310.2</ele>
        <time>2022-09-06T15:28:02Z</time>
      </trkpt>
      <trkpt lat="43.21119" lon="0.05861">
        <ele>311.2</ele>
        <time>2022-09-06T15:28:09Z</time>
      </trkpt>
      <trkpt lat="43.21116" lon="0.05862">
        <ele>311.4</ele>
        <time>2022-09-06T15:28:10Z</time>
      </trkpt>
      <trkpt lat="43.21095" lon="0.05866">
        <ele>312.2</ele>
        <time>2022-09-06T15:28:17Z</time>
      </trkpt>
      <trkpt lat="43.21071" lon="0.0587">
        <ele>313.2</ele>
        <time>2022-09-06T15:28:26Z</time>
      </trkpt>
      <trkpt lat="43.21047" lon="0.05875">
        <ele>314.4</ele>
        <time>2022-09-06T15:28:34Z</time>
      </trkpt>
      <trkpt lat="43.21024" lon="0.05878">
        <ele>314.8</ele>
        <time>2022-09-06T15:28:42Z</time>
      </trkpt>
      <trkpt lat="43.20997" lon="0.05883">
        <ele>315.4</ele>
        <time>2022-09-06T15:28:50Z</time>
      </trkpt>
      <trkpt lat="43.20993" lon="0.05884">
        <ele>315.4</ele>
        <time>2022-09-06T15:28:51Z</time>
      </trkpt>
      <trkpt lat="43.20962" lon="0.05888">
        <ele>314.8</ele>
        <time>2022-09-06T15:28:59Z</time>
      </trkpt>
      <trkpt lat="43.20931" lon="0.05894">
        <ele>314.2</ele>
        <time>2022-09-06T15:29:06Z</time>
      </trkpt>
      <trkpt lat="43.20901" lon="0.05899">
        <ele>313.2</ele>
        <time>2022-09-06T15:29:11Z</time>
      </trkpt>
      <trkpt lat="43.20895" lon="0.059">
        <ele>313</ele>
        <time>2022-09-06T15:29:12Z</time>
      </trkpt>
      <trkpt lat="43.2086" lon="0.05904">
        <ele>312.2</ele>
        <time>2022-09-06T15:29:17Z</time>
      </trkpt>
      <trkpt lat="43.20852" lon="0.05905">
        <ele>312.4</ele>
        <time>2022-09-06T15:29:18Z</time>
      </trkpt>
      <trkpt lat="43.20801" lon="0.05904">
        <ele>311.2</ele>
        <time>2022-09-06T15:29:25Z</time>
      </trkpt>
      <trkpt lat="43.20793" lon="0.05903">
        <ele>310.8</ele>
        <time>2022-09-06T15:29:26Z</time>
      </trkpt>
      <trkpt lat="43.20755" lon="0.05892">
        <ele>310.8</ele>
        <time>2022-09-06T15:29:32Z</time>
      </trkpt>
      <trkpt lat="43.20707" lon="0.0588">
        <ele>311.2</ele>
        <time>2022-09-06T15:29:40Z</time>
      </trkpt>
      <trkpt lat="43.20658" lon="0.05872">
        <ele>311.4</ele>
        <time>2022-09-06T15:29:49Z</time>
      </trkpt>
      <trkpt lat="43.20617" lon="0.0587">
        <ele>311.6</ele>
        <time>2022-09-06T15:29:57Z</time>
      </trkpt>
      <trkpt lat="43.20612" lon="0.0587">
        <ele>312</ele>
        <time>2022-09-06T15:29:58Z</time>
      </trkpt>
      <trkpt lat="43.20587" lon="0.05868">
        <ele>311.8</ele>
        <time>2022-09-06T15:30:03Z</time>
      </trkpt>
      <trkpt lat="43.20572" lon="0.05866">
        <ele>312.2</ele>
        <time>2022-09-06T15:30:06Z</time>
      </trkpt>
      <trkpt lat="43.20543" lon="0.05863">
        <ele>312.6</ele>
        <time>2022-09-06T15:30:12Z</time>
      </trkpt>
      <trkpt lat="43.20511" lon="0.05861">
        <ele>312.8</ele>
        <time>2022-09-06T15:30:19Z</time>
      </trkpt>
      <trkpt lat="43.20473" lon="0.05851">
        <ele>312.8</ele>
        <time>2022-09-06T15:30:27Z</time>
      </trkpt>
      <trkpt lat="43.2044" lon="0.05842">
        <ele>313.2</ele>
        <time>2022-09-06T15:30:34Z</time>
      </trkpt>
      <trkpt lat="43.20435" lon="0.05841">
        <ele>313.2</ele>
        <time>2022-09-06T15:30:35Z</time>
      </trkpt>
      <trkpt lat="43.20398" lon="0.05835">
        <ele>314</ele>
        <time>2022-09-06T15:30:43Z</time>
      </trkpt>
      <trkpt lat="43.2039" lon="0.05835">
        <ele>314.4</ele>
        <time>2022-09-06T15:30:45Z</time>
      </trkpt>
      <trkpt lat="43.20349" lon="0.05834">
        <ele>314.6</ele>
        <time>2022-09-06T15:30:54Z</time>
      </trkpt>
      <trkpt lat="43.20319" lon="0.05834">
        <ele>314.8</ele>
        <time>2022-09-06T15:31:01Z</time>
      </trkpt>
      <trkpt lat="43.20287" lon="0.05835">
        <ele>315</ele>
        <time>2022-09-06T15:31:08Z</time>
      </trkpt>
      <trkpt lat="43.20267" lon="0.05834">
        <ele>315</ele>
        <time>2022-09-06T15:31:13Z</time>
      </trkpt>
      <trkpt lat="43.20251" lon="0.05832">
        <ele>315.4</ele>
        <time>2022-09-06T15:31:19Z</time>
      </trkpt>
      <trkpt lat="43.20245" lon="0.05832">
        <ele>315.6</ele>
        <time>2022-09-06T15:31:22Z</time>
      </trkpt>
      <trkpt lat="43.20244" lon="0.05831">
        <ele>315.8</ele>
        <time>2022-09-06T15:31:23Z</time>
      </trkpt>
      <trkpt lat="43.20241" lon="0.05829">
        <ele>315.6</ele>
        <time>2022-09-06T15:31:25Z</time>
      </trkpt>
      <trkpt lat="43.20237" lon="0.05816">
        <ele>315.8</ele>
        <time>2022-09-06T15:31:30Z</time>
      </trkpt>
      <trkpt lat="43.20229" lon="0.05793">
        <ele>316</ele>
        <time>2022-09-06T15:31:35Z</time>
      </trkpt>
      <trkpt lat="43.20212" lon="0.05787">
        <ele>316</ele>
        <time>2022-09-06T15:31:39Z</time>
      </trkpt>
      <trkpt lat="43.2019" lon="0.05788">
        <ele>315.6</ele>
        <time>2022-09-06T15:31:44Z</time>
      </trkpt>
      <trkpt lat="43.20164" lon="0.0578">
        <ele>315.4</ele>
        <time>2022-09-06T15:31:50Z</time>
      </trkpt>
      <trkpt lat="43.20145" lon="0.05772">
        <ele>315.4</ele>
        <time>2022-09-06T15:31:56Z</time>
      </trkpt>
      <trkpt lat="43.20122" lon="0.05762">
        <ele>315.4</ele>
        <time>2022-09-06T15:32:03Z</time>
      </trkpt>
      <trkpt lat="43.20099" lon="0.0575">
        <ele>315.2</ele>
        <time>2022-09-06T15:32:09Z</time>
      </trkpt>
      <trkpt lat="43.20082" lon="0.05741">
        <ele>315.2</ele>
        <time>2022-09-06T15:32:13Z</time>
      </trkpt>
      <trkpt lat="43.20068" lon="0.05735">
        <ele>315.2</ele>
        <time>2022-09-06T15:32:16Z</time>
      </trkpt>
      <trkpt lat="43.20045" lon="0.05724">
        <ele>314.8</ele>
        <time>2022-09-06T15:32:21Z</time>
      </trkpt>
      <trkpt lat="43.20037" lon="0.0572">
        <ele>315</ele>
        <time>2022-09-06T15:32:23Z</time>
      </trkpt>
      <trkpt lat="43.20028" lon="0.05718">
        <ele>315</ele>
        <time>2022-09-06T15:32:25Z</time>
      </trkpt>
      <trkpt lat="43.20018" lon="0.05718">
        <ele>315</ele>
        <time>2022-09-06T15:32:27Z</time>
      </trkpt>
      <trkpt lat="43.20008" lon="0.05718">
        <ele>314.6</ele>
        <time>2022-09-06T15:32:29Z</time>
      </trkpt>
      <trkpt lat="43.19984" lon="0.05717">
        <ele>314.2</ele>
        <time>2022-09-06T15:32:34Z</time>
      </trkpt>
      <trkpt lat="43.1995" lon="0.05717">
        <ele>313.8</ele>
        <time>2022-09-06T15:32:41Z</time>
      </trkpt>
      <trkpt lat="43.19922" lon="0.05716">
        <ele>313.8</ele>
        <time>2022-09-06T15:32:47Z</time>
      </trkpt>
      <trkpt lat="43.19911" lon="0.05715">
        <ele>313.6</ele>
        <time>2022-09-06T15:32:51Z</time>
      </trkpt>
      <trkpt lat="43.19896" lon="0.05725">
        <ele>314</ele>
        <time>2022-09-06T15:32:56Z</time>
      </trkpt>
      <trkpt lat="43.19885" lon="0.05733">
        <ele>313.6</ele>
        <time>2022-09-06T15:32:59Z</time>
      </trkpt>
      <trkpt lat="43.19867" lon="0.05745">
        <ele>313.8</ele>
        <time>2022-09-06T15:33:04Z</time>
      </trkpt>
      <trkpt lat="43.19837" lon="0.05764">
        <ele>313.8</ele>
        <time>2022-09-06T15:33:12Z</time>
      </trkpt>
      <trkpt lat="43.19817" lon="0.05777">
        <ele>314.2</ele>
        <time>2022-09-06T15:33:18Z</time>
      </trkpt>
      <trkpt lat="43.19813" lon="0.05777">
        <ele>314.2</ele>
        <time>2022-09-06T15:33:19Z</time>
      </trkpt>
      <trkpt lat="43.19789" lon="0.05781">
        <ele>314.6</ele>
        <time>2022-09-06T15:33:26Z</time>
      </trkpt>
      <trkpt lat="43.19785" lon="0.05783">
        <ele>314.6</ele>
        <time>2022-09-06T15:33:27Z</time>
      </trkpt>
      <trkpt lat="43.19759" lon="0.058">
        <ele>315</ele>
        <time>2022-09-06T15:33:35Z</time>
      </trkpt>
      <trkpt lat="43.19751" lon="0.05804">
        <ele>315.2</ele>
        <time>2022-09-06T15:33:38Z</time>
      </trkpt>
      <trkpt lat="43.19749" lon="0.05802">
        <ele>315.4</ele>
        <time>2022-09-06T15:33:39Z</time>
      </trkpt>
      <trkpt lat="43.19745" lon="0.05796">
        <ele>315.8</ele>
        <time>2022-09-06T15:33:41Z</time>
      </trkpt>
      <trkpt lat="43.19738" lon="0.05791">
        <ele>315.8</ele>
        <time>2022-09-06T15:33:44Z</time>
      </trkpt>
      <trkpt lat="43.19735" lon="0.05789">
        <ele>316</ele>
        <time>2022-09-06T15:33:45Z</time>
      </trkpt>
      <trkpt lat="43.19722" lon="0.0578">
        <ele>316.8</ele>
        <time>2022-09-06T15:33:50Z</time>
      </trkpt>
      <trkpt lat="43.19715" lon="0.05776">
        <ele>316.8</ele>
        <time>2022-09-06T15:33:53Z</time>
      </trkpt>
      <trkpt lat="43.19691" lon="0.05768">
        <ele>317.4</ele>
        <time>2022-09-06T15:34:02Z</time>
      </trkpt>
      <trkpt lat="43.19685" lon="0.05767">
        <ele>317.8</ele>
        <time>2022-09-06T15:34:04Z</time>
      </trkpt>
      <trkpt lat="43.19668" lon="0.05764">
        <ele>318.4</ele>
        <time>2022-09-06T15:34:10Z</time>
      </trkpt>
      <trkpt lat="43.19654" lon="0.05761">
        <ele>319</ele>
        <time>2022-09-06T15:34:15Z</time>
      </trkpt>
      <trkpt lat="43.19652" lon="0.0576">
        <ele>319</ele>
        <time>2022-09-06T15:34:16Z</time>
      </trkpt>
      <trkpt lat="43.19634" lon="0.05755">
        <ele>319.4</ele>
        <time>2022-09-06T15:34:22Z</time>
      </trkpt>
      <trkpt lat="43.19622" lon="0.05752">
        <ele>320</ele>
        <time>2022-09-06T15:34:26Z</time>
      </trkpt>
      <trkpt lat="43.19613" lon="0.05752">
        <ele>320.2</ele>
        <time>2022-09-06T15:34:29Z</time>
      </trkpt>
      <trkpt lat="43.19593" lon="0.05748">
        <ele>321</ele>
        <time>2022-09-06T15:34:37Z</time>
      </trkpt>
      <trkpt lat="43.19588" lon="0.05747">
        <ele>321</ele>
        <time>2022-09-06T15:34:39Z</time>
      </trkpt>
      <trkpt lat="43.19569" lon="0.05746">
        <ele>321.4</ele>
        <time>2022-09-06T15:34:45Z</time>
      </trkpt>
      <trkpt lat="43.19541" lon="0.05739">
        <ele>321.8</ele>
        <time>2022-09-06T15:34:53Z</time>
      </trkpt>
      <trkpt lat="43.19529" lon="0.05731">
        <ele>322.2</ele>
        <time>2022-09-06T15:34:57Z</time>
      </trkpt>
      <trkpt lat="43.19521" lon="0.05723">
        <ele>322.4</ele>
        <time>2022-09-06T15:35:00Z</time>
      </trkpt>
      <trkpt lat="43.19497" lon="0.05707">
        <ele>322.4</ele>
        <time>2022-09-06T15:35:08Z</time>
      </trkpt>
      <trkpt lat="43.19486" lon="0.05701">
        <ele>322.8</ele>
        <time>2022-09-06T15:35:13Z</time>
      </trkpt>
      <trkpt lat="43.19471" lon="0.05705">
        <ele>323.2</ele>
        <time>2022-09-06T15:35:18Z</time>
      </trkpt>
      <trkpt lat="43.19455" lon="0.05726">
        <ele>323.8</ele>
        <time>2022-09-06T15:35:24Z</time>
      </trkpt>
      <trkpt lat="43.19444" lon="0.05744">
        <ele>323.8</ele>
        <time>2022-09-06T15:35:30Z</time>
      </trkpt>
      <trkpt lat="43.1944" lon="0.05741">
        <ele>324</ele>
        <time>2022-09-06T15:35:33Z</time>
      </trkpt>
      <trkpt lat="43.19436" lon="0.05737">
        <ele>324.4</ele>
        <time>2022-09-06T15:35:37Z</time>
      </trkpt>
    </trkseg>
  </trk>
  <trk>
    <name><![CDATA[J3 Far west - Saint-Lizier - Montréjeau 😍☀️]]></name>
    <extensions>
      <line xmlns="http://www.topografix.com/GPX/gpx_style/0/2">
        <color>FF00FF</color>
        <width>4</width>
      </line>
    </extensions>
    <trkseg>
      <trkpt lat="43.01402" lon="1.11065">
        <ele>384.6</ele>
        <time>2022-09-04T07:51:56Z</time>
      </trkpt>
      <trkpt lat="43.0141" lon="1.11055">
        <ele>384.6</ele>
        <time>2022-09-04T07:52:02Z</time>
      </trkpt>
      <trkpt lat="43.0142" lon="1.11041">
        <ele>384.4</ele>
        <time>2022-09-04T07:52:09Z</time>
      </trkpt>
      <trkpt lat="43.01428" lon="1.11024">
        <ele>384.2</ele>
        <time>2022-09-04T07:52:15Z</time>
      </trkpt>
      <trkpt lat="43.01437" lon="1.11025">
        <ele>384</ele>
        <time>2022-09-04T07:52:18Z</time>
      </trkpt>
      <trkpt lat="43.01444" lon="1.1103">
        <ele>383.8</ele>
        <time>2022-09-04T07:52:23Z</time>
      </trkpt>
      <trkpt lat="43.01446" lon="1.11031">
        <ele>384</ele>
        <time>2022-09-04T07:52:24Z</time>
      </trkpt>
      <trkpt lat="43.01448" lon="1.11032">
        <ele>384</ele>
        <time>2022-09-04T07:52:25Z</time>
      </trkpt>
      <trkpt lat="43.01454" lon="1.1103">
        <ele>384</ele>
        <time>2022-09-04T07:52:27Z</time>
      </trkpt>
      <trkpt lat="43.01461" lon="1.11021">
        <ele>384</ele>
        <time>2022-09-04T07:52:30Z</time>
      </trkpt>
      <trkpt lat="43.01465" lon="1.11014">
        <ele>384</ele>
        <time>2022-09-04T07:52:32Z</time>
      </trkpt>
      <trkpt lat="43.0148" lon="1.10989">
        <ele>384</ele>
        <time>2022-09-04T07:52:39Z</time>
      </trkpt>
      <trkpt lat="43.01496" lon="1.10978">
        <ele>383.8</ele>
        <time>2022-09-04T07:52:44Z</time>
      </trkpt>
      <trkpt lat="43.01518" lon="1.10965">
        <ele>383.6</ele>
        <time>2022-09-04T07:52:50Z</time>
      </trkpt>
      <trkpt lat="43.01522" lon="1.10964">
        <ele>383.6</ele>
        <time>2022-09-04T07:52:51Z</time>
      </trkpt>
      <trkpt lat="43.01533" lon="1.10971">
        <ele>383.4</ele>
        <time>2022-09-04T07:52:54Z</time>
      </trkpt>
      <trkpt lat="43.01538" lon="1.10978">
        <ele>383.6</ele>
        <time>2022-09-04T07:52:56Z</time>
      </trkpt>
      <trkpt lat="43.01548" lon="1.10992">
        <ele>383.2</ele>
        <time>2022-09-04T07:53:00Z</time>
      </trkpt>
      <trkpt lat="43.01569" lon="1.1102">
        <ele>383</ele>
        <time>2022-09-04T07:53:09Z</time>
      </trkpt>
      <trkpt lat="43.01586" lon="1.11043">
        <ele>383.2</ele>
        <time>2022-09-04T07:53:17Z</time>
      </trkpt>
      <trkpt lat="43.01601" lon="1.11062">
        <ele>383</ele>
        <time>2022-09-04T07:53:24Z</time>
      </trkpt>
      <trkpt lat="43.01606" lon="1.11063">
        <ele>383</ele>
        <time>2022-09-04T07:53:26Z</time>
      </trkpt>
      <trkpt lat="43.01612" lon="1.1106">
        <ele>382.8</ele>
        <time>2022-09-04T07:53:28Z</time>
      </trkpt>
      <trkpt lat="43.01621" lon="1.11057">
        <ele>382.8</ele>
        <time>2022-09-04T07:53:31Z</time>
      </trkpt>
      <trkpt lat="43.01624" lon="1.1106">
        <ele>382.8</ele>
        <time>2022-09-04T07:53:32Z</time>
      </trkpt>
      <trkpt lat="43.01637" lon="1.11077">
        <ele>382.6</ele>
        <time>2022-09-04T07:53:38Z</time>
      </trkpt>
      <trkpt lat="43.01653" lon="1.11101">
        <ele>382.8</ele>
        <time>2022-09-04T07:53:46Z</time>
      </trkpt>
      <trkpt lat="43.01664" lon="1.11118">
        <ele>382.4</ele>
        <time>2022-09-04T07:53:51Z</time>
      </trkpt>
      <trkpt lat="43.0167" lon="1.11128">
        <ele>382.4</ele>
        <time>2022-09-04T07:53:54Z</time>
      </trkpt>
      <trkpt lat="43.01673" lon="1.11135">
        <ele>382.2</ele>
        <time>2022-09-04T07:53:56Z</time>
      </trkpt>
      <trkpt lat="43.01671" lon="1.11141">
        <ele>382.2</ele>
        <time>2022-09-04T07:53:58Z</time>
      </trkpt>
      <trkpt lat="43.01667" lon="1.11146">
        <ele>382.4</ele>
        <time>2022-09-04T07:54:00Z</time>
      </trkpt>
      <trkpt lat="43.01661" lon="1.11155">
        <ele>382.4</ele>
        <time>2022-09-04T07:54:03Z</time>
      </trkpt>
      <trkpt lat="43.01658" lon="1.11174">
        <ele>381.8</ele>
        <time>2022-09-04T07:54:07Z</time>
      </trkpt>
      <trkpt lat="43.01661" lon="1.11184">
        <ele>381.2</ele>
        <time>2022-09-04T07:54:09Z</time>
      </trkpt>
      <trkpt lat="43.01666" lon="1.11192">
        <ele>380.4</ele>
        <time>2022-09-04T07:54:11Z</time>
      </trkpt>
      <trkpt lat="43.01675" lon="1.11201">
        <ele>380.4</ele>
        <time>2022-09-04T07:54:15Z</time>
      </trkpt>
      <trkpt lat="43.01684" lon="1.11194">
        <ele>380.4</ele>
        <time>2022-09-04T07:54:19Z</time>
      </trkpt>
      <trkpt lat="43.01704" lon="1.11172">
        <ele>380.4</ele>
        <time>2022-09-04T07:54:26Z</time>
      </trkpt>
      <trkpt lat="43.01723" lon="1.11151">
        <ele>380.2</ele>
        <time>2022-09-04T07:54:32Z</time>
      </trkpt>
      <trkpt lat="43.01754" lon="1.11116">
        <ele>380.2</ele>
        <time>2022-09-04T07:54:42Z</time>
      </trkpt>
      <trkpt lat="43.01776" lon="1.11093">
        <ele>380.2</ele>
        <time>2022-09-04T07:54:50Z</time>
      </trkpt>
      <trkpt lat="43.01781" lon="1.11087">
        <ele>380.2</ele>
        <time>2022-09-04T07:54:52Z</time>
      </trkpt>
      <trkpt lat="43.0179" lon="1.11077">
        <ele>380.2</ele>
        <time>2022-09-04T07:54:56Z</time>
      </trkpt>
      <trkpt lat="43.018" lon="1.11067">
        <ele>380</ele>
        <time>2022-09-04T07:55:03Z</time>
      </trkpt>
      <trkpt lat="43.01804" lon="1.11062">
        <ele>380</ele>
        <time>2022-09-04T07:55:46Z</time>
      </trkpt>
      <trkpt lat="43.01808" lon="1.11057">
        <ele>380</ele>
        <time>2022-09-04T07:55:48Z</time>
      </trkpt>
      <trkpt lat="43.01826" lon="1.11036">
        <ele>380</ele>
        <time>2022-09-04T07:55:55Z</time>
      </trkpt>
      <trkpt lat="43.01851" lon="1.11008">
        <ele>379.8</ele>
        <time>2022-09-04T07:56:03Z</time>
      </trkpt>
      <trkpt lat="43.01893" lon="1.10961">
        <ele>379.4</ele>
        <time>2022-09-04T07:56:15Z</time>
      </trkpt>
      <trkpt lat="43.01919" lon="1.10933">
        <ele>379</ele>
        <time>2022-09-04T07:56:23Z</time>
      </trkpt>
      <trkpt lat="43.01942" lon="1.10907">
        <ele>378.8</ele>
        <time>2022-09-04T07:56:30Z</time>
      </trkpt>
      <trkpt lat="43.01972" lon="1.10875">
        <ele>378.6</ele>
        <time>2022-09-04T07:56:38Z</time>
      </trkpt>
      <trkpt lat="43.02006" lon="1.10837">
        <ele>378.4</ele>
        <time>2022-09-04T07:56:47Z</time>
      </trkpt>
      <trkpt lat="43.02031" lon="1.10808">
        <ele>378</ele>
        <time>2022-09-04T07:56:54Z</time>
      </trkpt>
      <trkpt lat="43.02064" lon="1.10773">
        <ele>377.8</ele>
        <time>2022-09-04T07:57:03Z</time>
      </trkpt>
      <trkpt lat="43.02089" lon="1.10748">
        <ele>377.6</ele>
        <time>2022-09-04T07:57:10Z</time>
      </trkpt>
      <trkpt lat="43.02107" lon="1.10726">
        <ele>377.2</ele>
        <time>2022-09-04T07:57:16Z</time>
      </trkpt>
      <trkpt lat="43.0211" lon="1.10722">
        <ele>377.2</ele>
        <time>2022-09-04T07:57:17Z</time>
      </trkpt>
      <trkpt lat="43.02127" lon="1.10707">
        <ele>377.2</ele>
        <time>2022-09-04T07:57:22Z</time>
      </trkpt>
      <trkpt lat="43.0213" lon="1.10704">
        <ele>377</ele>
        <time>2022-09-04T07:57:23Z</time>
      </trkpt>
      <trkpt lat="43.02151" lon="1.10679">
        <ele>377</ele>
        <time>2022-09-04T07:57:29Z</time>
      </trkpt>
      <trkpt lat="43.02174" lon="1.10651">
        <ele>377</ele>
        <time>2022-09-04T07:57:35Z</time>
      </trkpt>
      <trkpt lat="43.02177" lon="1.10647">
        <ele>377</ele>
        <time>2022-09-04T07:57:36Z</time>
      </trkpt>
      <trkpt lat="43.02195" lon="1.10623">
        <ele>376.8</ele>
        <time>2022-09-04T07:57:41Z</time>
      </trkpt>
      <trkpt lat="43.02227" lon="1.10588">
        <ele>376.2</ele>
        <time>2022-09-04T07:57:49Z</time>
      </trkpt>
      <trkpt lat="43.0224" lon="1.1057">
        <ele>376</ele>
        <time>2022-09-04T07:57:53Z</time>
      </trkpt>
      <trkpt lat="43.02248" lon="1.10561">
        <ele>375.8</ele>
        <time>2022-09-04T07:57:55Z</time>
      </trkpt>
      <trkpt lat="43.02259" lon="1.10548">
        <ele>375.8</ele>
        <time>2022-09-04T07:57:58Z</time>
      </trkpt>
      <trkpt lat="43.02269" lon="1.10535">
        <ele>375.8</ele>
        <time>2022-09-04T07:58:01Z</time>
      </trkpt>
      <trkpt lat="43.02288" lon="1.10509">
        <ele>375.6</ele>
        <time>2022-09-04T07:58:07Z</time>
      </trkpt>
      <trkpt lat="43.02314" lon="1.10469">
        <ele>375.4</ele>
        <time>2022-09-04T07:58:15Z</time>
      </trkpt>
      <trkpt lat="43.02331" lon="1.10439">
        <ele>375.4</ele>
        <time>2022-09-04T07:58:21Z</time>
      </trkpt>
      <trkpt lat="43.02337" lon="1.10429">
        <ele>375.2</ele>
        <time>2022-09-04T07:58:23Z</time>
      </trkpt>
      <trkpt lat="43.02346" lon="1.10415">
        <ele>375</ele>
        <time>2022-09-04T07:58:26Z</time>
      </trkpt>
      <trkpt lat="43.02363" lon="1.10384">
        <ele>374.8</ele>
        <time>2022-09-04T07:58:32Z</time>
      </trkpt>
      <trkpt lat="43.02381" lon="1.10347">
        <ele>374.6</ele>
        <time>2022-09-04T07:58:39Z</time>
      </trkpt>
      <trkpt lat="43.02396" lon="1.10312">
        <ele>374</ele>
        <time>2022-09-04T07:58:46Z</time>
      </trkpt>
      <trkpt lat="43.0241" lon="1.10275">
        <ele>374.4</ele>
        <time>2022-09-04T07:58:53Z</time>
      </trkpt>
      <trkpt lat="43.02414" lon="1.10238">
        <ele>374.2</ele>
        <time>2022-09-04T07:58:59Z</time>
      </trkpt>
      <trkpt lat="43.02419" lon="1.10195">
        <ele>373.8</ele>
        <time>2022-09-04T07:59:06Z</time>
      </trkpt>
      <trkpt lat="43.02421" lon="1.1019">
        <ele>373.6</ele>
        <time>2022-09-04T07:59:07Z</time>
      </trkpt>
      <trkpt lat="43.02427" lon="1.10166">
        <ele>373.2</ele>
        <time>2022-09-04T07:59:13Z</time>
      </trkpt>
      <trkpt lat="43.02438" lon="1.10132">
        <ele>373.2</ele>
        <time>2022-09-04T07:59:19Z</time>
      </trkpt>
      <trkpt lat="43.02455" lon="1.10068">
        <ele>372.8</ele>
        <time>2022-09-04T07:59:29Z</time>
      </trkpt>
      <trkpt lat="43.02467" lon="1.10022">
        <ele>372.6</ele>
        <time>2022-09-04T07:59:36Z</time>
      </trkpt>
      <trkpt lat="43.02474" lon="1.09989">
        <ele>372.2</ele>
        <time>2022-09-04T07:59:41Z</time>
      </trkpt>
      <trkpt lat="43.02476" lon="1.09984">
        <ele>372.2</ele>
        <time>2022-09-04T07:59:42Z</time>
      </trkpt>
      <trkpt lat="43.02481" lon="1.09968">
        <ele>372.2</ele>
        <time>2022-09-04T07:59:45Z</time>
      </trkpt>
      <trkpt lat="43.02484" lon="1.09956">
        <ele>372</ele>
        <time>2022-09-04T07:59:47Z</time>
      </trkpt>
      <trkpt lat="43.02485" lon="1.0995">
        <ele>372</ele>
        <time>2022-09-04T07:59:48Z</time>
      </trkpt>
      <trkpt lat="43.02491" lon="1.09915">
        <ele>371.8</ele>
        <time>2022-09-04T07:59:54Z</time>
      </trkpt>
      <trkpt lat="43.02499" lon="1.09879">
        <ele>371.6</ele>
        <time>2022-09-04T08:00:00Z</time>
      </trkpt>
      <trkpt lat="43.02499" lon="1.09873">
        <ele>371.4</ele>
        <time>2022-09-04T08:00:01Z</time>
      </trkpt>
      <trkpt lat="43.02506" lon="1.09837">
        <ele>371.2</ele>
        <time>2022-09-04T08:00:07Z</time>
      </trkpt>
      <trkpt lat="43.02509" lon="1.09826">
        <ele>371.2</ele>
        <time>2022-09-04T08:00:09Z</time>
      </trkpt>
      <trkpt lat="43.02515" lon="1.09796">
        <ele>371.2</ele>
        <time>2022-09-04T08:00:14Z</time>
      </trkpt>
      <trkpt lat="43.0252" lon="1.09764">
        <ele>370.8</ele>
        <time>2022-09-04T08:00:19Z</time>
      </trkpt>
      <trkpt lat="43.02521" lon="1.09757">
        <ele>370.8</ele>
        <time>2022-09-04T08:00:20Z</time>
      </trkpt>
      <trkpt lat="43.02524" lon="1.09729">
        <ele>370.8</ele>
        <time>2022-09-04T08:00:24Z</time>
      </trkpt>
      <trkpt lat="43.02527" lon="1.09708">
        <ele>370.8</ele>
        <time>2022-09-04T08:00:27Z</time>
      </trkpt>
      <trkpt lat="43.0253" lon="1.09695">
        <ele>370.6</ele>
        <time>2022-09-04T08:00:29Z</time>
      </trkpt>
      <trkpt lat="43.02535" lon="1.09667">
        <ele>370.4</ele>
        <time>2022-09-04T08:00:33Z</time>
      </trkpt>
      <trkpt lat="43.02537" lon="1.09652">
        <ele>370.2</ele>
        <time>2022-09-04T08:00:35Z</time>
      </trkpt>
      <trkpt lat="43.02541" lon="1.09616">
        <ele>369.8</ele>
        <time>2022-09-04T08:00:40Z</time>
      </trkpt>
      <trkpt lat="43.02543" lon="1.09594">
        <ele>369.6</ele>
        <time>2022-09-04T08:00:43Z</time>
      </trkpt>
      <trkpt lat="43.02548" lon="1.09567">
        <ele>369.6</ele>
        <time>2022-09-04T08:00:47Z</time>
      </trkpt>
      <trkpt lat="43.02559" lon="1.09503">
        <ele>369.2</ele>
        <time>2022-09-04T08:00:56Z</time>
      </trkpt>
      <trkpt lat="43.02561" lon="1.09496">
        <ele>369.4</ele>
        <time>2022-09-04T08:00:57Z</time>
      </trkpt>
      <trkpt lat="43.02569" lon="1.09462">
        <ele>369</ele>
        <time>2022-09-04T08:01:02Z</time>
      </trkpt>
      <trkpt lat="43.02582" lon="1.09416">
        <ele>368.8</ele>
        <time>2022-09-04T08:01:09Z</time>
      </trkpt>
      <trkpt lat="43.02592" lon="1.09384">
        <ele>368.6</ele>
        <time>2022-09-04T08:01:14Z</time>
      </trkpt>
      <trkpt lat="43.02598" lon="1.09365">
        <ele>368.6</ele>
        <time>2022-09-04T08:01:17Z</time>
      </trkpt>
      <trkpt lat="43.02609" lon="1.09337">
        <ele>368.2</ele>
        <time>2022-09-04T08:01:22Z</time>
      </trkpt>
      <trkpt lat="43.02612" lon="1.09332">
        <ele>368.2</ele>
        <time>2022-09-04T08:01:23Z</time>
      </trkpt>
      <trkpt lat="43.02613" lon="1.09327">
        <ele>368.2</ele>
        <time>2022-09-04T08:01:24Z</time>
      </trkpt>
      <trkpt lat="43.02621" lon="1.09305">
        <ele>368</ele>
        <time>2022-09-04T08:01:28Z</time>
      </trkpt>
      <trkpt lat="43.02638" lon="1.09265">
        <ele>367.8</ele>
        <time>2022-09-04T08:01:36Z</time>
      </trkpt>
      <trkpt lat="43.02641" lon="1.09256">
        <ele>367.6</ele>
        <time>2022-09-04T08:01:38Z</time>
      </trkpt>
      <trkpt lat="43.02646" lon="1.09236">
        <ele>367.6</ele>
        <time>2022-09-04T08:01:42Z</time>
      </trkpt>
      <trkpt lat="43.02659" lon="1.09208">
        <ele>367.6</ele>
        <time>2022-09-04T08:01:48Z</time>
      </trkpt>
      <trkpt lat="43.02683" lon="1.09154">
        <ele>367.4</ele>
        <time>2022-09-04T08:01:58Z</time>
      </trkpt>
      <trkpt lat="43.02702" lon="1.09117">
        <ele>367.2</ele>
        <time>2022-09-04T08:02:05Z</time>
      </trkpt>
      <trkpt lat="43.02719" lon="1.09084">
        <ele>366.8</ele>
        <time>2022-09-04T08:02:11Z</time>
      </trkpt>
      <trkpt lat="43.02726" lon="1.09069">
        <ele>366.6</ele>
        <time>2022-09-04T08:02:14Z</time>
      </trkpt>
      <trkpt lat="43.02735" lon="1.09053">
        <ele>366.6</ele>
        <time>2022-09-04T08:02:17Z</time>
      </trkpt>
      <trkpt lat="43.02757" lon="1.09016">
        <ele>366.4</ele>
        <time>2022-09-04T08:02:24Z</time>
      </trkpt>
      <trkpt lat="43.02778" lon="1.08975">
        <ele>366</ele>
        <time>2022-09-04T08:02:31Z</time>
      </trkpt>
      <trkpt lat="43.02804" lon="1.08928">
        <ele>365.4</ele>
        <time>2022-09-04T08:02:39Z</time>
      </trkpt>
      <trkpt lat="43.02807" lon="1.08922">
        <ele>365.4</ele>
        <time>2022-09-04T08:02:40Z</time>
      </trkpt>
      <trkpt lat="43.02823" lon="1.08896">
        <ele>365.2</ele>
        <time>2022-09-04T08:02:45Z</time>
      </trkpt>
      <trkpt lat="43.02839" lon="1.0887">
        <ele>365</ele>
        <time>2022-09-04T08:02:50Z</time>
      </trkpt>
      <trkpt lat="43.02861" lon="1.08833">
        <ele>365</ele>
        <time>2022-09-04T08:02:57Z</time>
      </trkpt>
      <trkpt lat="43.02882" lon="1.08801">
        <ele>364.8</ele>
        <time>2022-09-04T08:03:04Z</time>
      </trkpt>
      <trkpt lat="43.02894" lon="1.08781">
        <ele>364.6</ele>
        <time>2022-09-04T08:03:08Z</time>
      </trkpt>
      <trkpt lat="43.02899" lon="1.08772">
        <ele>364.6</ele>
        <time>2022-09-04T08:03:10Z</time>
      </trkpt>
      <trkpt lat="43.02905" lon="1.08762">
        <ele>364.4</ele>
        <time>2022-09-04T08:03:12Z</time>
      </trkpt>
      <trkpt lat="43.02922" lon="1.08733">
        <ele>364</ele>
        <time>2022-09-04T08:03:18Z</time>
      </trkpt>
      <trkpt lat="43.02941" lon="1.08699">
        <ele>363.8</ele>
        <time>2022-09-04T08:03:25Z</time>
      </trkpt>
      <trkpt lat="43.02967" lon="1.08652">
        <ele>363.8</ele>
        <time>2022-09-04T08:03:34Z</time>
      </trkpt>
      <trkpt lat="43.02985" lon="1.08622">
        <ele>363.4</ele>
        <time>2022-09-04T08:03:40Z</time>
      </trkpt>
      <trkpt lat="43.02991" lon="1.08611">
        <ele>363.4</ele>
        <time>2022-09-04T08:03:42Z</time>
      </trkpt>
      <trkpt lat="43.03011" lon="1.08577">
        <ele>363.4</ele>
        <time>2022-09-04T08:03:49Z</time>
      </trkpt>
      <trkpt lat="43.03036" lon="1.08534">
        <ele>363</ele>
        <time>2022-09-04T08:03:58Z</time>
      </trkpt>
      <trkpt lat="43.03053" lon="1.08507">
        <ele>363.2</ele>
        <time>2022-09-04T08:04:05Z</time>
      </trkpt>
      <trkpt lat="43.03078" lon="1.08464">
        <ele>363</ele>
        <time>2022-09-04T08:04:14Z</time>
      </trkpt>
      <trkpt lat="43.03104" lon="1.0842">
        <ele>363</ele>
        <time>2022-09-04T08:04:23Z</time>
      </trkpt>
      <trkpt lat="43.03115" lon="1.08402">
        <ele>363</ele>
        <time>2022-09-04T08:04:27Z</time>
      </trkpt>
      <trkpt lat="43.03123" lon="1.08388">
        <ele>362.8</ele>
        <time>2022-09-04T08:04:30Z</time>
      </trkpt>
      <trkpt lat="43.03146" lon="1.08348">
        <ele>362.6</ele>
        <time>2022-09-04T08:04:39Z</time>
      </trkpt>
      <trkpt lat="43.03154" lon="1.08336">
        <ele>362.4</ele>
        <time>2022-09-04T08:04:43Z</time>
      </trkpt>
      <trkpt lat="43.03155" lon="1.08332">
        <ele>362.4</ele>
        <time>2022-09-04T08:04:45Z</time>
      </trkpt>
      <trkpt lat="43.0316" lon="1.0832">
        <ele>362.4</ele>
        <time>2022-09-04T08:04:49Z</time>
      </trkpt>
      <trkpt lat="43.03178" lon="1.0829">
        <ele>362</ele>
        <time>2022-09-04T08:04:56Z</time>
      </trkpt>
      <trkpt lat="43.03201" lon="1.08252">
        <ele>361.8</ele>
        <time>2022-09-04T08:05:04Z</time>
      </trkpt>
      <trkpt lat="43.03222" lon="1.08203">
        <ele>361.4</ele>
        <time>2022-09-04T08:05:13Z</time>
      </trkpt>
      <trkpt lat="43.03233" lon="1.08175">
        <ele>361.4</ele>
        <time>2022-09-04T08:05:18Z</time>
      </trkpt>
      <trkpt lat="43.03239" lon="1.08158">
        <ele>361.2</ele>
        <time>2022-09-04T08:05:21Z</time>
      </trkpt>
      <trkpt lat="43.03251" lon="1.08126">
        <ele>360.8</ele>
        <time>2022-09-04T08:05:27Z</time>
      </trkpt>
      <trkpt lat="43.0326" lon="1.08104">
        <ele>361</ele>
        <time>2022-09-04T08:05:31Z</time>
      </trkpt>
      <trkpt lat="43.03266" lon="1.08088">
        <ele>360.8</ele>
        <time>2022-09-04T08:05:34Z</time>
      </trkpt>
      <trkpt lat="43.03278" lon="1.08048">
        <ele>360.6</ele>
        <time>2022-09-04T08:05:41Z</time>
      </trkpt>
      <trkpt lat="43.03285" lon="1.08027">
        <ele>360.4</ele>
        <time>2022-09-04T08:05:45Z</time>
      </trkpt>
      <trkpt lat="43.03288" lon="1.08021">
        <ele>360.6</ele>
        <time>2022-09-04T08:05:46Z</time>
      </trkpt>
      <trkpt lat="43.0329" lon="1.08017">
        <ele>360.6</ele>
        <time>2022-09-04T08:05:47Z</time>
      </trkpt>
      <trkpt lat="43.03297" lon="1.08">
        <ele>360.6</ele>
        <time>2022-09-04T08:05:50Z</time>
      </trkpt>
      <trkpt lat="43.03298" lon="1.07994">
        <ele>360.6</ele>
        <time>2022-09-04T08:05:51Z</time>
      </trkpt>
      <trkpt lat="43.03304" lon="1.07977">
        <ele>360.6</ele>
        <time>2022-09-04T08:05:54Z</time>
      </trkpt>
      <trkpt lat="43.03306" lon="1.0797">
        <ele>360.4</ele>
        <time>2022-09-04T08:05:55Z</time>
      </trkpt>
      <trkpt lat="43.03307" lon="1.07964">
        <ele>360.4</ele>
        <time>2022-09-04T08:05:56Z</time>
      </trkpt>
      <trkpt lat="43.03314" lon="1.07927">
        <ele>360.2</ele>
        <time>2022-09-04T08:06:02Z</time>
      </trkpt>
      <trkpt lat="43.03317" lon="1.07905">
        <ele>360</ele>
        <time>2022-09-04T08:06:06Z</time>
      </trkpt>
      <trkpt lat="43.03327" lon="1.07858">
        <ele>359.8</ele>
        <time>2022-09-04T08:06:14Z</time>
      </trkpt>
      <trkpt lat="43.03336" lon="1.07825">
        <ele>359.6</ele>
        <time>2022-09-04T08:06:21Z</time>
      </trkpt>
      <trkpt lat="43.03345" lon="1.07789">
        <ele>359.8</ele>
        <time>2022-09-04T08:06:28Z</time>
      </trkpt>
      <trkpt lat="43.03354" lon="1.07751">
        <ele>359.4</ele>
        <time>2022-09-04T08:06:35Z</time>
      </trkpt>
      <trkpt lat="43.0336" lon="1.07726">
        <ele>359.4</ele>
        <time>2022-09-04T08:06:39Z</time>
      </trkpt>
      <trkpt lat="43.03361" lon="1.07719">
        <ele>359.4</ele>
        <time>2022-09-04T08:06:40Z</time>
      </trkpt>
      <trkpt lat="43.03364" lon="1.07707">
        <ele>359.2</ele>
        <time>2022-09-04T08:06:42Z</time>
      </trkpt>
      <trkpt lat="43.03378" lon="1.07657">
        <ele>359</ele>
        <time>2022-09-04T08:06:50Z</time>
      </trkpt>
      <trkpt lat="43.03391" lon="1.07601">
        <ele>358.6</ele>
        <time>2022-09-04T08:06:59Z</time>
      </trkpt>
      <trkpt lat="43.03404" lon="1.07544">
        <ele>358.4</ele>
        <time>2022-09-04T08:07:08Z</time>
      </trkpt>
      <trkpt lat="43.03413" lon="1.07512">
        <ele>358.2</ele>
        <time>2022-09-04T08:07:13Z</time>
      </trkpt>
      <trkpt lat="43.03417" lon="1.07501">
        <ele>358</ele>
        <time>2022-09-04T08:07:15Z</time>
      </trkpt>
      <trkpt lat="43.03418" lon="1.07495">
        <ele>358</ele>
        <time>2022-09-04T08:07:16Z</time>
      </trkpt>
      <trkpt lat="43.03431" lon="1.07438">
        <ele>357.8</ele>
        <time>2022-09-04T08:07:25Z</time>
      </trkpt>
      <trkpt lat="43.03441" lon="1.07394">
        <ele>357.8</ele>
        <time>2022-09-04T08:07:32Z</time>
      </trkpt>
      <trkpt lat="43.03444" lon="1.07375">
        <ele>357.6</ele>
        <time>2022-09-04T08:07:35Z</time>
      </trkpt>
      <trkpt lat="43.03449" lon="1.07356">
        <ele>357.8</ele>
        <time>2022-09-04T08:07:38Z</time>
      </trkpt>
      <trkpt lat="43.03464" lon="1.07293">
        <ele>357.6</ele>
        <time>2022-09-04T08:07:48Z</time>
      </trkpt>
      <trkpt lat="43.0348" lon="1.07228">
        <ele>357.4</ele>
        <time>2022-09-04T08:07:58Z</time>
      </trkpt>
      <trkpt lat="43.03488" lon="1.07194">
        <ele>357.2</ele>
        <time>2022-09-04T08:08:03Z</time>
      </trkpt>
      <trkpt lat="43.03493" lon="1.07176">
        <ele>357.2</ele>
        <time>2022-09-04T08:08:06Z</time>
      </trkpt>
      <trkpt lat="43.03495" lon="1.07169">
        <ele>357.2</ele>
        <time>2022-09-04T08:08:07Z</time>
      </trkpt>
      <trkpt lat="43.03498" lon="1.07157">
        <ele>357.2</ele>
        <time>2022-09-04T08:08:09Z</time>
      </trkpt>
      <trkpt lat="43.03506" lon="1.07133">
        <ele>357.2</ele>
        <time>2022-09-04T08:08:13Z</time>
      </trkpt>
      <trkpt lat="43.03526" lon="1.07088">
        <ele>357</ele>
        <time>2022-09-04T08:08:21Z</time>
      </trkpt>
      <trkpt lat="43.03544" lon="1.07041">
        <ele>356.8</ele>
        <time>2022-09-04T08:08:29Z</time>
      </trkpt>
      <trkpt lat="43.03563" lon="1.06998">
        <ele>356.6</ele>
        <time>2022-09-04T08:08:36Z</time>
      </trkpt>
      <trkpt lat="43.03589" lon="1.06944">
        <ele>356.4</ele>
        <time>2022-09-04T08:08:45Z</time>
      </trkpt>
      <trkpt lat="43.0362" lon="1.0688">
        <ele>356.2</ele>
        <time>2022-09-04T08:08:56Z</time>
      </trkpt>
      <trkpt lat="43.03628" lon="1.06862">
        <ele>356.2</ele>
        <time>2022-09-04T08:08:59Z</time>
      </trkpt>
      <trkpt lat="43.03646" lon="1.0682">
        <ele>356.2</ele>
        <time>2022-09-04T08:09:06Z</time>
      </trkpt>
      <trkpt lat="43.03651" lon="1.06807">
        <ele>356</ele>
        <time>2022-09-04T08:09:08Z</time>
      </trkpt>
      <trkpt lat="43.03662" lon="1.06776">
        <ele>356</ele>
        <time>2022-09-04T08:09:13Z</time>
      </trkpt>
      <trkpt lat="43.03682" lon="1.06722">
        <ele>355.8</ele>
        <time>2022-09-04T08:09:22Z</time>
      </trkpt>
      <trkpt lat="43.03704" lon="1.06677">
        <ele>355.6</ele>
        <time>2022-09-04T08:09:30Z</time>
      </trkpt>
      <trkpt lat="43.03725" lon="1.0663">
        <ele>355.4</ele>
        <time>2022-09-04T08:09:38Z</time>
      </trkpt>
      <trkpt lat="43.03736" lon="1.0661">
        <ele>355.2</ele>
        <time>2022-09-04T08:09:42Z</time>
      </trkpt>
      <trkpt lat="43.03748" lon="1.06589">
        <ele>355.2</ele>
        <time>2022-09-04T08:09:46Z</time>
      </trkpt>
      <trkpt lat="43.03772" lon="1.06548">
        <ele>355</ele>
        <time>2022-09-04T08:09:54Z</time>
      </trkpt>
      <trkpt lat="43.03799" lon="1.06503">
        <ele>354.8</ele>
        <time>2022-09-04T08:10:03Z</time>
      </trkpt>
      <trkpt lat="43.03823" lon="1.06456">
        <ele>354.6</ele>
        <time>2022-09-04T08:10:12Z</time>
      </trkpt>
      <trkpt lat="43.03845" lon="1.0642">
        <ele>354.4</ele>
        <time>2022-09-04T08:10:20Z</time>
      </trkpt>
      <trkpt lat="43.03853" lon="1.06401">
        <ele>354</ele>
        <time>2022-09-04T08:10:24Z</time>
      </trkpt>
      <trkpt lat="43.03859" lon="1.06382">
        <ele>353.6</ele>
        <time>2022-09-04T08:10:27Z</time>
      </trkpt>
      <trkpt lat="43.03867" lon="1.06355">
        <ele>353.8</ele>
        <time>2022-09-04T08:10:31Z</time>
      </trkpt>
      <trkpt lat="43.03869" lon="1.06341">
        <ele>353.4</ele>
        <time>2022-09-04T08:10:33Z</time>
      </trkpt>
      <trkpt lat="43.03869" lon="1.06327">
        <ele>353</ele>
        <time>2022-09-04T08:10:35Z</time>
      </trkpt>
      <trkpt lat="43.03868" lon="1.06312">
        <ele>352.8</ele>
        <time>2022-09-04T08:10:37Z</time>
      </trkpt>
      <trkpt lat="43.03869" lon="1.06304">
        <ele>352.6</ele>
        <time>2022-09-04T08:10:38Z</time>
      </trkpt>
      <trkpt lat="43.03877" lon="1.06261">
        <ele>352</ele>
        <time>2022-09-04T08:10:44Z</time>
      </trkpt>
      <trkpt lat="43.03879" lon="1.06254">
        <ele>352</ele>
        <time>2022-09-04T08:10:45Z</time>
      </trkpt>
      <trkpt lat="43.03885" lon="1.06207">
        <ele>351.8</ele>
        <time>2022-09-04T08:10:52Z</time>
      </trkpt>
      <trkpt lat="43.03888" lon="1.06162">
        <ele>351.8</ele>
        <time>2022-09-04T08:10:59Z</time>
      </trkpt>
      <trkpt lat="43.03889" lon="1.06149">
        <ele>351.8</ele>
        <time>2022-09-04T08:11:01Z</time>
      </trkpt>
      <trkpt lat="43.0389" lon="1.06127">
        <ele>351.6</ele>
        <time>2022-09-04T08:11:04Z</time>
      </trkpt>
      <trkpt lat="43.03889" lon="1.06082">
        <ele>351.4</ele>
        <time>2022-09-04T08:11:10Z</time>
      </trkpt>
      <trkpt lat="43.03885" lon="1.06033">
        <ele>350.8</ele>
        <time>2022-09-04T08:11:17Z</time>
      </trkpt>
      <trkpt lat="43.03879" lon="1.05989">
        <ele>350.4</ele>
        <time>2022-09-04T08:11:24Z</time>
      </trkpt>
      <trkpt lat="43.03869" lon="1.05943">
        <ele>350</ele>
        <time>2022-09-04T08:11:32Z</time>
      </trkpt>
      <trkpt lat="43.03861" lon="1.05917">
        <ele>349.8</ele>
        <time>2022-09-04T08:11:37Z</time>
      </trkpt>
      <trkpt lat="43.03858" lon="1.05908">
        <ele>349.8</ele>
        <time>2022-09-04T08:11:39Z</time>
      </trkpt>
      <trkpt lat="43.03847" lon="1.05897">
        <ele>349.6</ele>
        <time>2022-09-04T08:11:43Z</time>
      </trkpt>
      <trkpt lat="43.03843" lon="1.05897">
        <ele>349.6</ele>
        <time>2022-09-04T08:11:44Z</time>
      </trkpt>
      <trkpt lat="43.03834" lon="1.05901">
        <ele>348.8</ele>
        <time>2022-09-04T08:11:48Z</time>
      </trkpt>
      <trkpt lat="43.03832" lon="1.05903">
        <ele>348.8</ele>
        <time>2022-09-04T08:11:49Z</time>
      </trkpt>
      <trkpt lat="43.03821" lon="1.05907">
        <ele>348.6</ele>
        <time>2022-09-04T08:11:51Z</time>
      </trkpt>
      <trkpt lat="43.03814" lon="1.05906">
        <ele>348.6</ele>
        <time>2022-09-04T08:11:52Z</time>
      </trkpt>
      <trkpt lat="43.03802" lon="1.059">
        <ele>348.6</ele>
        <time>2022-09-04T08:11:55Z</time>
      </trkpt>
      <trkpt lat="43.03799" lon="1.05899">
        <ele>348.8</ele>
        <time>2022-09-04T08:11:56Z</time>
      </trkpt>
      <trkpt lat="43.03787" lon="1.0589">
        <ele>349.8</ele>
        <time>2022-09-04T08:12:01Z</time>
      </trkpt>
      <trkpt lat="43.03777" lon="1.0588">
        <ele>351</ele>
        <time>2022-09-04T08:12:06Z</time>
      </trkpt>
      <trkpt lat="43.03774" lon="1.05877">
        <ele>351.4</ele>
        <time>2022-09-04T08:12:08Z</time>
      </trkpt>
      <trkpt lat="43.03768" lon="1.05872">
        <ele>352</ele>
        <time>2022-09-04T08:12:11Z</time>
      </trkpt>
      <trkpt lat="43.03758" lon="1.05863">
        <ele>353</ele>
        <time>2022-09-04T08:12:17Z</time>
      </trkpt>
      <trkpt lat="43.03756" lon="1.05861">
        <ele>353.2</ele>
        <time>2022-09-04T08:12:18Z</time>
      </trkpt>
      <trkpt lat="43.03746" lon="1.0585">
        <ele>353.6</ele>
        <time>2022-09-04T08:12:24Z</time>
      </trkpt>
      <trkpt lat="43.03731" lon="1.05835">
        <ele>353.8</ele>
        <time>2022-09-04T08:12:31Z</time>
      </trkpt>
      <trkpt lat="43.03715" lon="1.05822">
        <ele>354</ele>
        <time>2022-09-04T08:12:38Z</time>
      </trkpt>
      <trkpt lat="43.03696" lon="1.05804">
        <ele>354</ele>
        <time>2022-09-04T08:12:45Z</time>
      </trkpt>
      <trkpt lat="43.03674" lon="1.05775">
        <ele>354</ele>
        <time>2022-09-04T08:12:53Z</time>
      </trkpt>
      <trkpt lat="43.03657" lon="1.05751">
        <ele>353.8</ele>
        <time>2022-09-04T08:13:00Z</time>
      </trkpt>
      <trkpt lat="43.03631" lon="1.05716">
        <ele>353.4</ele>
        <time>2022-09-04T08:13:09Z</time>
      </trkpt>
      <trkpt lat="43.03609" lon="1.05684">
        <ele>353.2</ele>
        <time>2022-09-04T08:13:16Z</time>
      </trkpt>
      <trkpt lat="43.03585" lon="1.05641">
        <ele>352.4</ele>
        <time>2022-09-04T08:13:23Z</time>
      </trkpt>
      <trkpt lat="43.03567" lon="1.05591">
        <ele>352</ele>
        <time>2022-09-04T08:13:30Z</time>
      </trkpt>
      <trkpt lat="43.03565" lon="1.05583">
        <ele>352</ele>
        <time>2022-09-04T08:13:31Z</time>
      </trkpt>
      <trkpt lat="43.03555" lon="1.05532">
        <ele>351.8</ele>
        <time>2022-09-04T08:13:38Z</time>
      </trkpt>
      <trkpt lat="43.03548" lon="1.05472">
        <ele>352</ele>
        <time>2022-09-04T08:13:46Z</time>
      </trkpt>
      <trkpt lat="43.0354" lon="1.05407">
        <ele>352</ele>
        <time>2022-09-04T08:13:55Z</time>
      </trkpt>
      <trkpt lat="43.03528" lon="1.05331">
        <ele>352.2</ele>
        <time>2022-09-04T08:14:06Z</time>
      </trkpt>
      <trkpt lat="43.03516" lon="1.05253">
        <ele>352.2</ele>
        <time>2022-09-04T08:14:17Z</time>
      </trkpt>
      <trkpt lat="43.03507" lon="1.0518">
        <ele>352</ele>
        <time>2022-09-04T08:14:27Z</time>
      </trkpt>
      <trkpt lat="43.035" lon="1.0511">
        <ele>351.6</ele>
        <time>2022-09-04T08:14:36Z</time>
      </trkpt>
      <trkpt lat="43.03494" lon="1.05062">
        <ele>351</ele>
        <time>2022-09-04T08:14:42Z</time>
      </trkpt>
      <trkpt lat="43.03492" lon="1.05037">
        <ele>351</ele>
        <time>2022-09-04T08:14:45Z</time>
      </trkpt>
      <trkpt lat="43.03484" lon="1.04961">
        <ele>350.4</ele>
        <time>2022-09-04T08:14:54Z</time>
      </trkpt>
      <trkpt lat="43.0348" lon="1.04936">
        <ele>350</ele>
        <time>2022-09-04T08:14:57Z</time>
      </trkpt>
      <trkpt lat="43.03479" lon="1.04927">
        <ele>350</ele>
        <time>2022-09-04T08:14:58Z</time>
      </trkpt>
      <trkpt lat="43.0347" lon="1.04849">
        <ele>349.2</ele>
        <time>2022-09-04T08:15:07Z</time>
      </trkpt>
      <trkpt lat="43.03468" lon="1.04832">
        <ele>349</ele>
        <time>2022-09-04T08:15:09Z</time>
      </trkpt>
      <trkpt lat="43.03467" lon="1.04824">
        <ele>348.8</ele>
        <time>2022-09-04T08:15:10Z</time>
      </trkpt>
      <trkpt lat="43.03459" lon="1.04756">
        <ele>348.4</ele>
        <time>2022-09-04T08:15:18Z</time>
      </trkpt>
      <trkpt lat="43.0345" lon="1.04681">
        <ele>348.2</ele>
        <time>2022-09-04T08:15:27Z</time>
      </trkpt>
      <trkpt lat="43.03446" lon="1.04647">
        <ele>347.8</ele>
        <time>2022-09-04T08:15:31Z</time>
      </trkpt>
      <trkpt lat="43.03437" lon="1.04576">
        <ele>347.8</ele>
        <time>2022-09-04T08:15:40Z</time>
      </trkpt>
      <trkpt lat="43.03436" lon="1.04568">
        <ele>347.8</ele>
        <time>2022-09-04T08:15:41Z</time>
      </trkpt>
      <trkpt lat="43.03426" lon="1.04491">
        <ele>347.8</ele>
        <time>2022-09-04T08:15:51Z</time>
      </trkpt>
      <trkpt lat="43.03424" lon="1.04475">
        <ele>347.8</ele>
        <time>2022-09-04T08:15:53Z</time>
      </trkpt>
      <trkpt lat="43.03414" lon="1.04399">
        <ele>347.8</ele>
        <time>2022-09-04T08:16:03Z</time>
      </trkpt>
      <trkpt lat="43.03412" lon="1.04384">
        <ele>348</ele>
        <time>2022-09-04T08:16:05Z</time>
      </trkpt>
      <trkpt lat="43.03405" lon="1.04327">
        <ele>348</ele>
        <time>2022-09-04T08:16:13Z</time>
      </trkpt>
      <trkpt lat="43.03396" lon="1.04257">
        <ele>347.6</ele>
        <time>2022-09-04T08:16:23Z</time>
      </trkpt>
      <trkpt lat="43.03389" lon="1.04191">
        <ele>347.4</ele>
        <time>2022-09-04T08:16:32Z</time>
      </trkpt>
      <trkpt lat="43.03381" lon="1.04117">
        <ele>347.2</ele>
        <time>2022-09-04T08:16:42Z</time>
      </trkpt>
      <trkpt lat="43.03374" lon="1.04058">
        <ele>347</ele>
        <time>2022-09-04T08:16:50Z</time>
      </trkpt>
      <trkpt lat="43.03368" lon="1.04006">
        <ele>346.8</ele>
        <time>2022-09-04T08:16:57Z</time>
      </trkpt>
      <trkpt lat="43.03366" lon="1.03991">
        <ele>346.8</ele>
        <time>2022-09-04T08:16:59Z</time>
      </trkpt>
      <trkpt lat="43.03357" lon="1.03915">
        <ele>346.6</ele>
        <time>2022-09-04T08:17:09Z</time>
      </trkpt>
      <trkpt lat="43.03356" lon="1.03908">
        <ele>346.6</ele>
        <time>2022-09-04T08:17:10Z</time>
      </trkpt>
      <trkpt lat="43.03347" lon="1.03831">
        <ele>346.2</ele>
        <time>2022-09-04T08:17:20Z</time>
      </trkpt>
      <trkpt lat="43.0334" lon="1.03777">
        <ele>345.8</ele>
        <time>2022-09-04T08:17:27Z</time>
      </trkpt>
      <trkpt lat="43.03338" lon="1.03754">
        <ele>345.6</ele>
        <time>2022-09-04T08:17:30Z</time>
      </trkpt>
      <trkpt lat="43.03331" lon="1.0368">
        <ele>345</ele>
        <time>2022-09-04T08:17:40Z</time>
      </trkpt>
      <trkpt lat="43.03333" lon="1.03676">
        <ele>344.8</ele>
        <time>2022-09-04T08:17:41Z</time>
      </trkpt>
      <trkpt lat="43.03333" lon="1.03668">
        <ele>344.4</ele>
        <time>2022-09-04T08:17:43Z</time>
      </trkpt>
      <trkpt lat="43.03331" lon="1.03644">
        <ele>344.2</ele>
        <time>2022-09-04T08:17:48Z</time>
      </trkpt>
      <trkpt lat="43.03328" lon="1.03616">
        <ele>343.8</ele>
        <time>2022-09-04T08:17:53Z</time>
      </trkpt>
      <trkpt lat="43.03325" lon="1.03591">
        <ele>343.8</ele>
        <time>2022-09-04T08:17:57Z</time>
      </trkpt>
      <trkpt lat="43.03319" lon="1.03543">
        <ele>343.4</ele>
        <time>2022-09-04T08:18:04Z</time>
      </trkpt>
      <trkpt lat="43.03311" lon="1.03476">
        <ele>343.2</ele>
        <time>2022-09-04T08:18:13Z</time>
      </trkpt>
      <trkpt lat="43.03307" lon="1.03445">
        <ele>343</ele>
        <time>2022-09-04T08:18:17Z</time>
      </trkpt>
      <trkpt lat="43.03306" lon="1.03437">
        <ele>342.8</ele>
        <time>2022-09-04T08:18:18Z</time>
      </trkpt>
      <trkpt lat="43.03304" lon="1.03422">
        <ele>342.6</ele>
        <time>2022-09-04T08:18:20Z</time>
      </trkpt>
      <trkpt lat="43.03298" lon="1.03375">
        <ele>342.2</ele>
        <time>2022-09-04T08:18:26Z</time>
      </trkpt>
      <trkpt lat="43.0329" lon="1.03316">
        <ele>342</ele>
        <time>2022-09-04T08:18:34Z</time>
      </trkpt>
      <trkpt lat="43.03285" lon="1.03272">
        <ele>341.8</ele>
        <time>2022-09-04T08:18:40Z</time>
      </trkpt>
      <trkpt lat="43.0328" lon="1.03231">
        <ele>341.6</ele>
        <time>2022-09-04T08:18:46Z</time>
      </trkpt>
      <trkpt lat="43.03279" lon="1.03224">
        <ele>341.6</ele>
        <time>2022-09-04T08:18:47Z</time>
      </trkpt>
      <trkpt lat="43.03271" lon="1.03168">
        <ele>342</ele>
        <time>2022-09-04T08:18:55Z</time>
      </trkpt>
      <trkpt lat="43.03265" lon="1.03121">
        <ele>341.8</ele>
        <time>2022-09-04T08:19:02Z</time>
      </trkpt>
      <trkpt lat="43.03259" lon="1.03075">
        <ele>341.8</ele>
        <time>2022-09-04T08:19:10Z</time>
      </trkpt>
      <trkpt lat="43.03257" lon="1.03051">
        <ele>342.6</ele>
        <time>2022-09-04T08:19:15Z</time>
      </trkpt>
      <trkpt lat="43.03256" lon="1.03038">
        <ele>343</ele>
        <time>2022-09-04T08:19:18Z</time>
      </trkpt>
      <trkpt lat="43.03256" lon="1.03006">
        <ele>342.8</ele>
        <time>2022-09-04T08:19:26Z</time>
      </trkpt>
      <trkpt lat="43.03256" lon="1.02989">
        <ele>342.6</ele>
        <time>2022-09-04T08:19:31Z</time>
      </trkpt>
      <trkpt lat="43.03248" lon="1.02985">
        <ele>342.8</ele>
        <time>2022-09-04T08:19:35Z</time>
      </trkpt>
      <trkpt lat="43.03249" lon="1.02972">
        <ele>342.6</ele>
        <time>2022-09-04T08:19:39Z</time>
      </trkpt>
      <trkpt lat="43.03248" lon="1.02941">
        <ele>342.8</ele>
        <time>2022-09-04T08:19:45Z</time>
      </trkpt>
      <trkpt lat="43.03243" lon="1.02884">
        <ele>342.8</ele>
        <time>2022-09-04T08:19:55Z</time>
      </trkpt>
      <trkpt lat="43.03238" lon="1.02862">
        <ele>342.8</ele>
        <time>2022-09-04T08:19:59Z</time>
      </trkpt>
      <trkpt lat="43.03233" lon="1.02853">
        <ele>343</ele>
        <time>2022-09-04T08:20:01Z</time>
      </trkpt>
      <trkpt lat="43.03217" lon="1.02819">
        <ele>343</ele>
        <time>2022-09-04T08:20:09Z</time>
      </trkpt>
      <trkpt lat="43.03219" lon="1.02807">
        <ele>342.6</ele>
        <time>2022-09-04T08:20:13Z</time>
      </trkpt>
      <trkpt lat="43.03227" lon="1.02793">
        <ele>342.8</ele>
        <time>2022-09-04T08:20:18Z</time>
      </trkpt>
      <trkpt lat="43.03243" lon="1.0279">
        <ele>342.8</ele>
        <time>2022-09-04T08:20:23Z</time>
      </trkpt>
      <trkpt lat="43.0326" lon="1.02775">
        <ele>342.6</ele>
        <time>2022-09-04T08:20:30Z</time>
      </trkpt>
      <trkpt lat="43.03258" lon="1.02754">
        <ele>342.6</ele>
        <time>2022-09-04T08:20:34Z</time>
      </trkpt>
      <trkpt lat="43.03254" lon="1.02721">
        <ele>342.6</ele>
        <time>2022-09-04T08:20:40Z</time>
      </trkpt>
      <trkpt lat="43.03253" lon="1.02715">
        <ele>342.6</ele>
        <time>2022-09-04T08:20:41Z</time>
      </trkpt>
      <trkpt lat="43.03246" lon="1.02656">
        <ele>342.6</ele>
        <time>2022-09-04T08:20:51Z</time>
      </trkpt>
      <trkpt lat="43.03242" lon="1.02619">
        <ele>342.4</ele>
        <time>2022-09-04T08:20:58Z</time>
      </trkpt>
      <trkpt lat="43.03236" lon="1.02562">
        <ele>342.2</ele>
        <time>2022-09-04T08:21:08Z</time>
      </trkpt>
      <trkpt lat="43.03232" lon="1.02524">
        <ele>342.4</ele>
        <time>2022-09-04T08:21:15Z</time>
      </trkpt>
      <trkpt lat="43.03226" lon="1.02472">
        <ele>342.4</ele>
        <time>2022-09-04T08:21:23Z</time>
      </trkpt>
      <trkpt lat="43.03217" lon="1.02398">
        <ele>342.4</ele>
        <time>2022-09-04T08:21:34Z</time>
      </trkpt>
      <trkpt lat="43.03216" lon="1.02392">
        <ele>342.2</ele>
        <time>2022-09-04T08:21:35Z</time>
      </trkpt>
      <trkpt lat="43.03209" lon="1.02328">
        <ele>342</ele>
        <time>2022-09-04T08:21:45Z</time>
      </trkpt>
      <trkpt lat="43.03208" lon="1.02312">
        <ele>341.6</ele>
        <time>2022-09-04T08:21:48Z</time>
      </trkpt>
      <trkpt lat="43.03205" lon="1.02289">
        <ele>341.8</ele>
        <time>2022-09-04T08:21:52Z</time>
      </trkpt>
      <trkpt lat="43.032" lon="1.02241">
        <ele>341.2</ele>
        <time>2022-09-04T08:22:00Z</time>
      </trkpt>
      <trkpt lat="43.03194" lon="1.02195">
        <ele>341.4</ele>
        <time>2022-09-04T08:22:08Z</time>
      </trkpt>
      <trkpt lat="43.0319" lon="1.02153">
        <ele>341.2</ele>
        <time>2022-09-04T08:22:17Z</time>
      </trkpt>
      <trkpt lat="43.03185" lon="1.02113">
        <ele>340.8</ele>
        <time>2022-09-04T08:22:26Z</time>
      </trkpt>
      <trkpt lat="43.03182" lon="1.02091">
        <ele>340.6</ele>
        <time>2022-09-04T08:22:31Z</time>
      </trkpt>
      <trkpt lat="43.03182" lon="1.0208">
        <ele>340.4</ele>
        <time>2022-09-04T08:22:33Z</time>
      </trkpt>
      <trkpt lat="43.03181" lon="1.02073">
        <ele>340.4</ele>
        <time>2022-09-04T08:22:34Z</time>
      </trkpt>
      <trkpt lat="43.03179" lon="1.02055">
        <ele>339.2</ele>
        <time>2022-09-04T08:22:37Z</time>
      </trkpt>
      <trkpt lat="43.03178" lon="1.02046">
        <ele>338.8</ele>
        <time>2022-09-04T08:22:39Z</time>
      </trkpt>
      <trkpt lat="43.03176" lon="1.02027">
        <ele>338.4</ele>
        <time>2022-09-04T08:22:44Z</time>
      </trkpt>
      <trkpt lat="43.03176" lon="1.02022">
        <ele>338.2</ele>
        <time>2022-09-04T08:22:45Z</time>
      </trkpt>
      <trkpt lat="43.03171" lon="1.01998">
        <ele>338.2</ele>
        <time>2022-09-04T08:22:52Z</time>
      </trkpt>
      <trkpt lat="43.03171" lon="1.0199">
        <ele>338</ele>
        <time>2022-09-04T08:27:55Z</time>
      </trkpt>
      <trkpt lat="43.0317" lon="1.01981">
        <ele>337.8</ele>
        <time>2022-09-04T08:27:58Z</time>
      </trkpt>
      <trkpt lat="43.0317" lon="1.01978">
        <ele>338</ele>
        <time>2022-09-04T08:27:59Z</time>
      </trkpt>
      <trkpt lat="43.03168" lon="1.01955">
        <ele>338.2</ele>
        <time>2022-09-04T08:28:06Z</time>
      </trkpt>
      <trkpt lat="43.03164" lon="1.01922">
        <ele>338.8</ele>
        <time>2022-09-04T08:28:15Z</time>
      </trkpt>
      <trkpt lat="43.0316" lon="1.01887">
        <ele>339</ele>
        <time>2022-09-04T08:28:23Z</time>
      </trkpt>
      <trkpt lat="43.03158" lon="1.01837">
        <ele>338.8</ele>
        <time>2022-09-04T08:28:32Z</time>
      </trkpt>
      <trkpt lat="43.03157" lon="1.01778">
        <ele>338.6</ele>
        <time>2022-09-04T08:28:42Z</time>
      </trkpt>
      <trkpt lat="43.03158" lon="1.0173">
        <ele>338.4</ele>
        <time>2022-09-04T08:28:50Z</time>
      </trkpt>
      <trkpt lat="43.03164" lon="1.01657">
        <ele>338.2</ele>
        <time>2022-09-04T08:29:02Z</time>
      </trkpt>
      <trkpt lat="43.03168" lon="1.01618">
        <ele>338</ele>
        <time>2022-09-04T08:29:10Z</time>
      </trkpt>
      <trkpt lat="43.03166" lon="1.01617">
        <ele>337.8</ele>
        <time>2022-09-04T08:29:14Z</time>
      </trkpt>
      <trkpt lat="43.03165" lon="1.01617">
        <ele>337.8</ele>
        <time>2022-09-04T08:29:15Z</time>
      </trkpt>
      <trkpt lat="43.03152" lon="1.01616">
        <ele>337.6</ele>
        <time>2022-09-04T08:29:20Z</time>
      </trkpt>
      <trkpt lat="43.03133" lon="1.01613">
        <ele>338</ele>
        <time>2022-09-04T08:29:27Z</time>
      </trkpt>
      <trkpt lat="43.03118" lon="1.01611">
        <ele>338</ele>
        <time>2022-09-04T08:29:34Z</time>
      </trkpt>
      <trkpt lat="43.03109" lon="1.01612">
        <ele>338.2</ele>
        <time>2022-09-04T08:29:39Z</time>
      </trkpt>
      <trkpt lat="43.03105" lon="1.016">
        <ele>338</ele>
        <time>2022-09-04T08:30:32Z</time>
      </trkpt>
      <trkpt lat="43.03108" lon="1.01586">
        <ele>338.2</ele>
        <time>2022-09-04T08:30:36Z</time>
      </trkpt>
      <trkpt lat="43.03118" lon="1.01557">
        <ele>338.2</ele>
        <time>2022-09-04T08:30:42Z</time>
      </trkpt>
      <trkpt lat="43.03135" lon="1.01506">
        <ele>338.2</ele>
        <time>2022-09-04T08:30:51Z</time>
      </trkpt>
      <trkpt lat="43.03146" lon="1.01458">
        <ele>338</ele>
        <time>2022-09-04T08:30:59Z</time>
      </trkpt>
      <trkpt lat="43.03153" lon="1.01398">
        <ele>337.8</ele>
        <time>2022-09-04T08:31:08Z</time>
      </trkpt>
      <trkpt lat="43.03163" lon="1.0132">
        <ele>337.6</ele>
        <time>2022-09-04T08:31:19Z</time>
      </trkpt>
      <trkpt lat="43.03165" lon="1.01306">
        <ele>337.6</ele>
        <time>2022-09-04T08:31:21Z</time>
      </trkpt>
      <trkpt lat="43.03176" lon="1.0123">
        <ele>337.6</ele>
        <time>2022-09-04T08:31:32Z</time>
      </trkpt>
      <trkpt lat="43.03177" lon="1.01223">
        <ele>337.8</ele>
        <time>2022-09-04T08:31:33Z</time>
      </trkpt>
      <trkpt lat="43.03188" lon="1.01157">
        <ele>337.8</ele>
        <time>2022-09-04T08:31:43Z</time>
      </trkpt>
      <trkpt lat="43.03196" lon="1.01102">
        <ele>338</ele>
        <time>2022-09-04T08:31:51Z</time>
      </trkpt>
      <trkpt lat="43.03203" lon="1.0104">
        <ele>338</ele>
        <time>2022-09-04T08:32:00Z</time>
      </trkpt>
      <trkpt lat="43.03211" lon="1.00978">
        <ele>337.8</ele>
        <time>2022-09-04T08:32:09Z</time>
      </trkpt>
      <trkpt lat="43.03215" lon="1.00941">
        <ele>337.2</ele>
        <time>2022-09-04T08:32:14Z</time>
      </trkpt>
      <trkpt lat="43.03219" lon="1.00911">
        <ele>336.8</ele>
        <time>2022-09-04T08:32:18Z</time>
      </trkpt>
      <trkpt lat="43.03231" lon="1.00832">
        <ele>336.8</ele>
        <time>2022-09-04T08:32:28Z</time>
      </trkpt>
      <trkpt lat="43.0324" lon="1.00768">
        <ele>336.2</ele>
        <time>2022-09-04T08:32:36Z</time>
      </trkpt>
      <trkpt lat="43.03244" lon="1.00737">
        <ele>336</ele>
        <time>2022-09-04T08:32:40Z</time>
      </trkpt>
      <trkpt lat="43.03255" lon="1.00659">
        <ele>335.8</ele>
        <time>2022-09-04T08:32:50Z</time>
      </trkpt>
      <trkpt lat="43.03265" lon="1.00583">
        <ele>335.4</ele>
        <time>2022-09-04T08:33:00Z</time>
      </trkpt>
      <trkpt lat="43.03266" lon="1.00575">
        <ele>335.4</ele>
        <time>2022-09-04T08:33:01Z</time>
      </trkpt>
      <trkpt lat="43.0327" lon="1.00553">
        <ele>335.2</ele>
        <time>2022-09-04T08:33:04Z</time>
      </trkpt>
      <trkpt lat="43.03276" lon="1.005">
        <ele>334.8</ele>
        <time>2022-09-04T08:33:11Z</time>
      </trkpt>
      <trkpt lat="43.03281" lon="1.00442">
        <ele>335.4</ele>
        <time>2022-09-04T08:33:19Z</time>
      </trkpt>
      <trkpt lat="43.03277" lon="1.00393">
        <ele>335.2</ele>
        <time>2022-09-04T08:33:26Z</time>
      </trkpt>
      <trkpt lat="43.03267" lon="1.00347">
        <ele>335.4</ele>
        <time>2022-09-04T08:33:33Z</time>
      </trkpt>
      <trkpt lat="43.03264" lon="1.0034">
        <ele>335.4</ele>
        <time>2022-09-04T08:33:34Z</time>
      </trkpt>
      <trkpt lat="43.03249" lon="1.00304">
        <ele>335.6</ele>
        <time>2022-09-04T08:33:40Z</time>
      </trkpt>
      <trkpt lat="43.03233" lon="1.00271">
        <ele>336</ele>
        <time>2022-09-04T08:33:46Z</time>
      </trkpt>
      <trkpt lat="43.0322" lon="1.00241">
        <ele>335.8</ele>
        <time>2022-09-04T08:33:51Z</time>
      </trkpt>
      <trkpt lat="43.03217" lon="1.00229">
        <ele>336</ele>
        <time>2022-09-04T08:33:53Z</time>
      </trkpt>
      <trkpt lat="43.03214" lon="1.00217">
        <ele>336.2</ele>
        <time>2022-09-04T08:33:55Z</time>
      </trkpt>
      <trkpt lat="43.03204" lon="1.00184">
        <ele>336.6</ele>
        <time>2022-09-04T08:34:01Z</time>
      </trkpt>
      <trkpt lat="43.03202" lon="1.00164">
        <ele>337.2</ele>
        <time>2022-09-04T08:34:05Z</time>
      </trkpt>
      <trkpt lat="43.03202" lon="1.00154">
        <ele>337.2</ele>
        <time>2022-09-04T08:34:07Z</time>
      </trkpt>
      <trkpt lat="43.03202" lon="1.00145">
        <ele>337.4</ele>
        <time>2022-09-04T08:34:09Z</time>
      </trkpt>
      <trkpt lat="43.032" lon="1.00137">
        <ele>337.6</ele>
        <time>2022-09-04T08:34:11Z</time>
      </trkpt>
      <trkpt lat="43.03191" lon="1.00129">
        <ele>338</ele>
        <time>2022-09-04T08:34:15Z</time>
      </trkpt>
      <trkpt lat="43.03187" lon="1.00127">
        <ele>338.4</ele>
        <time>2022-09-04T08:34:17Z</time>
      </trkpt>
      <trkpt lat="43.03178" lon="1.00118">
        <ele>338.8</ele>
        <time>2022-09-04T08:34:22Z</time>
      </trkpt>
      <trkpt lat="43.0317" lon="1.00111">
        <ele>339.4</ele>
        <time>2022-09-04T08:34:27Z</time>
      </trkpt>
      <trkpt lat="43.03165" lon="1.00107">
        <ele>339.8</ele>
        <time>2022-09-04T08:34:30Z</time>
      </trkpt>
      <trkpt lat="43.03157" lon="1.001">
        <ele>340.6</ele>
        <time>2022-09-04T08:34:35Z</time>
      </trkpt>
      <trkpt lat="43.03153" lon="1.00097">
        <ele>341</ele>
        <time>2022-09-04T08:34:37Z</time>
      </trkpt>
      <trkpt lat="43.03147" lon="1.00094">
        <ele>341.6</ele>
        <time>2022-09-04T08:34:41Z</time>
      </trkpt>
      <trkpt lat="43.0314" lon="1.00091">
        <ele>342.2</ele>
        <time>2022-09-04T08:34:45Z</time>
      </trkpt>
      <trkpt lat="43.03133" lon="1.00088">
        <ele>342.8</ele>
        <time>2022-09-04T08:34:49Z</time>
      </trkpt>
      <trkpt lat="43.03125" lon="1.00087">
        <ele>343.6</ele>
        <time>2022-09-04T08:34:54Z</time>
      </trkpt>
      <trkpt lat="43.03123" lon="1.00086">
        <ele>343.8</ele>
        <time>2022-09-04T08:34:55Z</time>
      </trkpt>
      <trkpt lat="43.03111" lon="1.00084">
        <ele>344.8</ele>
        <time>2022-09-04T08:35:02Z</time>
      </trkpt>
      <trkpt lat="43.03109" lon="1.00083">
        <ele>345</ele>
        <time>2022-09-04T08:35:03Z</time>
      </trkpt>
      <trkpt lat="43.03097" lon="1.00081">
        <ele>345.8</ele>
        <time>2022-09-04T08:35:09Z</time>
      </trkpt>
      <trkpt lat="43.03093" lon="1.0008">
        <ele>346.2</ele>
        <time>2022-09-04T08:35:12Z</time>
      </trkpt>
      <trkpt lat="43.03081" lon="1.00082">
        <ele>346.8</ele>
        <time>2022-09-04T08:35:18Z</time>
      </trkpt>
      <trkpt lat="43.03077" lon="1.00084">
        <ele>347</ele>
        <time>2022-09-04T08:35:20Z</time>
      </trkpt>
      <trkpt lat="43.03069" lon="1.00089">
        <ele>347.8</ele>
        <time>2022-09-04T08:35:25Z</time>
      </trkpt>
      <trkpt lat="43.03064" lon="1.00093">
        <ele>348.4</ele>
        <time>2022-09-04T08:35:28Z</time>
      </trkpt>
      <trkpt lat="43.03059" lon="1.00103">
        <ele>349</ele>
        <time>2022-09-04T08:35:33Z</time>
      </trkpt>
      <trkpt lat="43.03057" lon="1.00107">
        <ele>349.4</ele>
        <time>2022-09-04T08:35:35Z</time>
      </trkpt>
      <trkpt lat="43.03051" lon="1.0012">
        <ele>350</ele>
        <time>2022-09-04T08:35:41Z</time>
      </trkpt>
      <trkpt lat="43.03041" lon="1.00134">
        <ele>351.2</ele>
        <time>2022-09-04T08:35:49Z</time>
      </trkpt>
      <trkpt lat="43.03037" lon="1.00136">
        <ele>351.2</ele>
        <time>2022-09-04T08:35:51Z</time>
      </trkpt>
      <trkpt lat="43.03029" lon="1.0014">
        <ele>352</ele>
        <time>2022-09-04T08:35:56Z</time>
      </trkpt>
      <trkpt lat="43.03025" lon="1.0014">
        <ele>352.2</ele>
        <time>2022-09-04T08:35:58Z</time>
      </trkpt>
      <trkpt lat="43.03023" lon="1.00141">
        <ele>352.4</ele>
        <time>2022-09-04T08:35:59Z</time>
      </trkpt>
      <trkpt lat="43.03011" lon="1.00141">
        <ele>353.2</ele>
        <time>2022-09-04T08:36:06Z</time>
      </trkpt>
      <trkpt lat="43.02998" lon="1.0014">
        <ele>354</ele>
        <time>2022-09-04T08:36:13Z</time>
      </trkpt>
      <trkpt lat="43.02995" lon="1.00138">
        <ele>354.2</ele>
        <time>2022-09-04T08:36:15Z</time>
      </trkpt>
      <trkpt lat="43.02986" lon="1.00132">
        <ele>355</ele>
        <time>2022-09-04T08:36:20Z</time>
      </trkpt>
      <trkpt lat="43.02982" lon="1.00128">
        <ele>355.4</ele>
        <time>2022-09-04T08:36:23Z</time>
      </trkpt>
      <trkpt lat="43.0298" lon="1.00123">
        <ele>355.6</ele>
        <time>2022-09-04T08:36:26Z</time>
      </trkpt>
      <trkpt lat="43.02979" lon="1.00121">
        <ele>355.8</ele>
        <time>2022-09-04T08:36:27Z</time>
      </trkpt>
      <trkpt lat="43.02977" lon="1.00112">
        <ele>356.4</ele>
        <time>2022-09-04T08:36:31Z</time>
      </trkpt>
      <trkpt lat="43.02975" lon="1.00096">
        <ele>357.4</ele>
        <time>2022-09-04T08:36:37Z</time>
      </trkpt>
      <trkpt lat="43.02975" lon="1.00094">
        <ele>357.4</ele>
        <time>2022-09-04T08:36:38Z</time>
      </trkpt>
      <trkpt lat="43.02976" lon="1.00078">
        <ele>357.8</ele>
        <time>2022-09-04T08:36:44Z</time>
      </trkpt>
      <trkpt lat="43.02977" lon="1.00058">
        <ele>358.6</ele>
        <time>2022-09-04T08:36:51Z</time>
      </trkpt>
      <trkpt lat="43.02978" lon="1.00055">
        <ele>358.6</ele>
        <time>2022-09-04T08:36:52Z</time>
      </trkpt>
      <trkpt lat="43.0298" lon="1.00029">
        <ele>359.8</ele>
        <time>2022-09-04T08:37:01Z</time>
      </trkpt>
      <trkpt lat="43.02982" lon="1.00005">
        <ele>360.6</ele>
        <time>2022-09-04T08:37:09Z</time>
      </trkpt>
      <trkpt lat="43.02983" lon="1">
        <ele>360.8</ele>
        <time>2022-09-04T08:37:11Z</time>
      </trkpt>
      <trkpt lat="43.02985" lon="0.99975">
        <ele>361.6</ele>
        <time>2022-09-04T08:37:19Z</time>
      </trkpt>
      <trkpt lat="43.02986" lon="0.99972">
        <ele>361.8</ele>
        <time>2022-09-04T08:37:20Z</time>
      </trkpt>
      <trkpt lat="43.02988" lon="0.99951">
        <ele>362.6</ele>
        <time>2022-09-04T08:37:27Z</time>
      </trkpt>
      <trkpt lat="43.02988" lon="0.99942">
        <ele>363</ele>
        <time>2022-09-04T08:37:30Z</time>
      </trkpt>
      <trkpt lat="43.0299" lon="0.99926">
        <ele>363.6</ele>
        <time>2022-09-04T08:37:35Z</time>
      </trkpt>
      <trkpt lat="43.02991" lon="0.9991">
        <ele>364</ele>
        <time>2022-09-04T08:37:40Z</time>
      </trkpt>
      <trkpt lat="43.02993" lon="0.99895">
        <ele>364.8</ele>
        <time>2022-09-04T08:37:45Z</time>
      </trkpt>
      <trkpt lat="43.02994" lon="0.99883">
        <ele>365.2</ele>
        <time>2022-09-04T08:37:49Z</time>
      </trkpt>
      <trkpt lat="43.02995" lon="0.99871">
        <ele>365.6</ele>
        <time>2022-09-04T08:37:53Z</time>
      </trkpt>
      <trkpt lat="43.02997" lon="0.99857">
        <ele>366.2</ele>
        <time>2022-09-04T08:37:58Z</time>
      </trkpt>
      <trkpt lat="43.02999" lon="0.99844">
        <ele>366.8</ele>
        <time>2022-09-04T08:38:02Z</time>
      </trkpt>
      <trkpt lat="43.03001" lon="0.99829">
        <ele>367.4</ele>
        <time>2022-09-04T08:38:07Z</time>
      </trkpt>
      <trkpt lat="43.03005" lon="0.99817">
        <ele>367.6</ele>
        <time>2022-09-04T08:38:11Z</time>
      </trkpt>
      <trkpt lat="43.03009" lon="0.99807">
        <ele>368.4</ele>
        <time>2022-09-04T08:38:15Z</time>
      </trkpt>
      <trkpt lat="43.03017" lon="0.99795">
        <ele>368.8</ele>
        <time>2022-09-04T08:38:20Z</time>
      </trkpt>
      <trkpt lat="43.03025" lon="0.99786">
        <ele>369.6</ele>
        <time>2022-09-04T08:38:25Z</time>
      </trkpt>
      <trkpt lat="43.03028" lon="0.99782">
        <ele>370</ele>
        <time>2022-09-04T08:38:27Z</time>
      </trkpt>
      <trkpt lat="43.03035" lon="0.99775">
        <ele>370.6</ele>
        <time>2022-09-04T08:38:31Z</time>
      </trkpt>
      <trkpt lat="43.03046" lon="0.99765">
        <ele>371.2</ele>
        <time>2022-09-04T08:38:37Z</time>
      </trkpt>
      <trkpt lat="43.03054" lon="0.99758">
        <ele>371.6</ele>
        <time>2022-09-04T08:38:41Z</time>
      </trkpt>
      <trkpt lat="43.03066" lon="0.99748">
        <ele>372.4</ele>
        <time>2022-09-04T08:38:47Z</time>
      </trkpt>
      <trkpt lat="43.03072" lon="0.99742">
        <ele>372.6</ele>
        <time>2022-09-04T08:38:50Z</time>
      </trkpt>
      <trkpt lat="43.03084" lon="0.99729">
        <ele>373.4</ele>
        <time>2022-09-04T08:38:57Z</time>
      </trkpt>
      <trkpt lat="43.0309" lon="0.99724">
        <ele>373.8</ele>
        <time>2022-09-04T08:39:00Z</time>
      </trkpt>
      <trkpt lat="43.03099" lon="0.99711">
        <ele>374.2</ele>
        <time>2022-09-04T08:39:06Z</time>
      </trkpt>
      <trkpt lat="43.03101" lon="0.99691">
        <ele>374.6</ele>
        <time>2022-09-04T08:39:13Z</time>
      </trkpt>
      <trkpt lat="43.03098" lon="0.99658">
        <ele>374.6</ele>
        <time>2022-09-04T08:39:23Z</time>
      </trkpt>
      <trkpt lat="43.03096" lon="0.99637">
        <ele>374.8</ele>
        <time>2022-09-04T08:39:29Z</time>
      </trkpt>
      <trkpt lat="43.03095" lon="0.9963">
        <ele>374.8</ele>
        <time>2022-09-04T08:39:31Z</time>
      </trkpt>
      <trkpt lat="43.03093" lon="0.99598">
        <ele>375.2</ele>
        <time>2022-09-04T08:39:39Z</time>
      </trkpt>
      <trkpt lat="43.03087" lon="0.99566">
        <ele>375.6</ele>
        <time>2022-09-04T08:39:48Z</time>
      </trkpt>
      <trkpt lat="43.03084" lon="0.99557">
        <ele>375.8</ele>
        <time>2022-09-04T08:39:51Z</time>
      </trkpt>
      <trkpt lat="43.03078" lon="0.99538">
        <ele>376.4</ele>
        <time>2022-09-04T08:39:57Z</time>
      </trkpt>
      <trkpt lat="43.03076" lon="0.99531">
        <ele>376.8</ele>
        <time>2022-09-04T08:40:00Z</time>
      </trkpt>
      <trkpt lat="43.03073" lon="0.99518">
        <ele>377.6</ele>
        <time>2022-09-04T08:40:05Z</time>
      </trkpt>
      <trkpt lat="43.03069" lon="0.99508">
        <ele>378</ele>
        <time>2022-09-04T08:40:09Z</time>
      </trkpt>
      <trkpt lat="43.03066" lon="0.99494">
        <ele>378.6</ele>
        <time>2022-09-04T08:40:14Z</time>
      </trkpt>
      <trkpt lat="43.03063" lon="0.99482">
        <ele>379</ele>
        <time>2022-09-04T08:40:18Z</time>
      </trkpt>
      <trkpt lat="43.03059" lon="0.99463">
        <ele>379.6</ele>
        <time>2022-09-04T08:40:24Z</time>
      </trkpt>
      <trkpt lat="43.03056" lon="0.99452">
        <ele>380</ele>
        <time>2022-09-04T08:40:28Z</time>
      </trkpt>
      <trkpt lat="43.03053" lon="0.99434">
        <ele>380.8</ele>
        <time>2022-09-04T08:40:34Z</time>
      </trkpt>
      <trkpt lat="43.0305" lon="0.99425">
        <ele>381.4</ele>
        <time>2022-09-04T08:40:37Z</time>
      </trkpt>
      <trkpt lat="43.03047" lon="0.9941">
        <ele>381.8</ele>
        <time>2022-09-04T08:40:42Z</time>
      </trkpt>
      <trkpt lat="43.03044" lon="0.99396">
        <ele>382.6</ele>
        <time>2022-09-04T08:40:47Z</time>
      </trkpt>
      <trkpt lat="43.03042" lon="0.99388">
        <ele>382.8</ele>
        <time>2022-09-04T08:40:50Z</time>
      </trkpt>
      <trkpt lat="43.03039" lon="0.99373">
        <ele>383.6</ele>
        <time>2022-09-04T08:40:55Z</time>
      </trkpt>
      <trkpt lat="43.03037" lon="0.99365">
        <ele>384</ele>
        <time>2022-09-04T08:40:58Z</time>
      </trkpt>
      <trkpt lat="43.03034" lon="0.9935">
        <ele>384.6</ele>
        <time>2022-09-04T08:41:03Z</time>
      </trkpt>
      <trkpt lat="43.03031" lon="0.99338">
        <ele>385.2</ele>
        <time>2022-09-04T08:41:07Z</time>
      </trkpt>
      <trkpt lat="43.03029" lon="0.99326">
        <ele>385.8</ele>
        <time>2022-09-04T08:41:11Z</time>
      </trkpt>
      <trkpt lat="43.03026" lon="0.99315">
        <ele>386</ele>
        <time>2022-09-04T08:41:15Z</time>
      </trkpt>
      <trkpt lat="43.03022" lon="0.99294">
        <ele>386.8</ele>
        <time>2022-09-04T08:41:22Z</time>
      </trkpt>
      <trkpt lat="43.03019" lon="0.99285">
        <ele>387.2</ele>
        <time>2022-09-04T08:41:25Z</time>
      </trkpt>
      <trkpt lat="43.03016" lon="0.9927">
        <ele>388</ele>
        <time>2022-09-04T08:41:30Z</time>
      </trkpt>
      <trkpt lat="43.03012" lon="0.99257">
        <ele>388.4</ele>
        <time>2022-09-04T08:41:35Z</time>
      </trkpt>
      <trkpt lat="43.0301" lon="0.99244">
        <ele>389</ele>
        <time>2022-09-04T08:41:40Z</time>
      </trkpt>
      <trkpt lat="43.03008" lon="0.99236">
        <ele>389.4</ele>
        <time>2022-09-04T08:41:43Z</time>
      </trkpt>
      <trkpt lat="43.03004" lon="0.99219">
        <ele>390.2</ele>
        <time>2022-09-04T08:41:49Z</time>
      </trkpt>
      <trkpt lat="43.03002" lon="0.99211">
        <ele>390.4</ele>
        <time>2022-09-04T08:41:52Z</time>
      </trkpt>
      <trkpt lat="43.02997" lon="0.99192">
        <ele>391.2</ele>
        <time>2022-09-04T08:41:59Z</time>
      </trkpt>
      <trkpt lat="43.02996" lon="0.99186">
        <ele>391.4</ele>
        <time>2022-09-04T08:42:01Z</time>
      </trkpt>
      <trkpt lat="43.02991" lon="0.99167">
        <ele>392.4</ele>
        <time>2022-09-04T08:42:08Z</time>
      </trkpt>
      <trkpt lat="43.02989" lon="0.9916">
        <ele>392.8</ele>
        <time>2022-09-04T08:42:11Z</time>
      </trkpt>
      <trkpt lat="43.02987" lon="0.99152">
        <ele>393.4</ele>
        <time>2022-09-04T08:42:14Z</time>
      </trkpt>
      <trkpt lat="43.02983" lon="0.99138">
        <ele>394.4</ele>
        <time>2022-09-04T08:42:20Z</time>
      </trkpt>
      <trkpt lat="43.02982" lon="0.99135">
        <ele>394.6</ele>
        <time>2022-09-04T08:42:21Z</time>
      </trkpt>
      <trkpt lat="43.02979" lon="0.99121">
        <ele>395.4</ele>
        <time>2022-09-04T08:42:27Z</time>
      </trkpt>
      <trkpt lat="43.02977" lon="0.99113">
        <ele>395.6</ele>
        <time>2022-09-04T08:42:30Z</time>
      </trkpt>
      <trkpt lat="43.02974" lon="0.99101">
        <ele>396.4</ele>
        <time>2022-09-04T08:42:35Z</time>
      </trkpt>
      <trkpt lat="43.02973" lon="0.99096">
        <ele>396.8</ele>
        <time>2022-09-04T08:42:37Z</time>
      </trkpt>
      <trkpt lat="43.0297" lon="0.99086">
        <ele>397.4</ele>
        <time>2022-09-04T08:42:41Z</time>
      </trkpt>
      <trkpt lat="43.02967" lon="0.99076">
        <ele>398</ele>
        <time>2022-09-04T08:42:45Z</time>
      </trkpt>
      <trkpt lat="43.02965" lon="0.99066">
        <ele>398.4</ele>
        <time>2022-09-04T08:42:49Z</time>
      </trkpt>
      <trkpt lat="43.02962" lon="0.99055">
        <ele>399</ele>
        <time>2022-09-04T08:42:53Z</time>
      </trkpt>
      <trkpt lat="43.02959" lon="0.99041">
        <ele>400</ele>
        <time>2022-09-04T08:42:59Z</time>
      </trkpt>
      <trkpt lat="43.02958" lon="0.99038">
        <ele>400.2</ele>
        <time>2022-09-04T08:43:00Z</time>
      </trkpt>
      <trkpt lat="43.02954" lon="0.99022">
        <ele>401.4</ele>
        <time>2022-09-04T08:43:07Z</time>
      </trkpt>
      <trkpt lat="43.02953" lon="0.9902">
        <ele>401.4</ele>
        <time>2022-09-04T08:43:08Z</time>
      </trkpt>
      <trkpt lat="43.02952" lon="0.99018">
        <ele>401.6</ele>
        <time>2022-09-04T08:43:09Z</time>
      </trkpt>
      <trkpt lat="43.02952" lon="0.99012">
        <ele>402</ele>
        <time>2022-09-04T08:43:12Z</time>
      </trkpt>
      <trkpt lat="43.02949" lon="0.99004">
        <ele>402.4</ele>
        <time>2022-09-04T08:43:15Z</time>
      </trkpt>
      <trkpt lat="43.02947" lon="0.98995">
        <ele>403</ele>
        <time>2022-09-04T08:43:19Z</time>
      </trkpt>
      <trkpt lat="43.02947" lon="0.98992">
        <ele>403</ele>
        <time>2022-09-04T08:43:20Z</time>
      </trkpt>
      <trkpt lat="43.02945" lon="0.98988">
        <ele>403.4</ele>
        <time>2022-09-04T08:43:22Z</time>
      </trkpt>
      <trkpt lat="43.02943" lon="0.98981">
        <ele>404.2</ele>
        <time>2022-09-04T08:43:25Z</time>
      </trkpt>
      <trkpt lat="43.02943" lon="0.98976">
        <ele>404.4</ele>
        <time>2022-09-04T08:43:27Z</time>
      </trkpt>
      <trkpt lat="43.02942" lon="0.98971">
        <ele>404.8</ele>
        <time>2022-09-04T08:43:29Z</time>
      </trkpt>
      <trkpt lat="43.02938" lon="0.98957">
        <ele>405.6</ele>
        <time>2022-09-04T08:43:35Z</time>
      </trkpt>
      <trkpt lat="43.02938" lon="0.98953">
        <ele>406</ele>
        <time>2022-09-04T08:43:37Z</time>
      </trkpt>
      <trkpt lat="43.02937" lon="0.9894">
        <ele>406.8</ele>
        <time>2022-09-04T08:43:43Z</time>
      </trkpt>
      <trkpt lat="43.02935" lon="0.98933">
        <ele>407.2</ele>
        <time>2022-09-04T08:43:46Z</time>
      </trkpt>
      <trkpt lat="43.02933" lon="0.98925">
        <ele>407.8</ele>
        <time>2022-09-04T08:43:50Z</time>
      </trkpt>
      <trkpt lat="43.02933" lon="0.98923">
        <ele>408</ele>
        <time>2022-09-04T08:43:51Z</time>
      </trkpt>
      <trkpt lat="43.02932" lon="0.98921">
        <ele>408</ele>
        <time>2022-09-04T08:43:52Z</time>
      </trkpt>
      <trkpt lat="43.02928" lon="0.98911">
        <ele>408.8</ele>
        <time>2022-09-04T08:43:57Z</time>
      </trkpt>
      <trkpt lat="43.02928" lon="0.98909">
        <ele>409</ele>
        <time>2022-09-04T08:43:58Z</time>
      </trkpt>
      <trkpt lat="43.02923" lon="0.98895">
        <ele>409.8</ele>
        <time>2022-09-04T08:44:05Z</time>
      </trkpt>
      <trkpt lat="43.02922" lon="0.98893">
        <ele>410</ele>
        <time>2022-09-04T08:44:06Z</time>
      </trkpt>
      <trkpt lat="43.02915" lon="0.98884">
        <ele>410.8</ele>
        <time>2022-09-04T08:44:11Z</time>
      </trkpt>
      <trkpt lat="43.02913" lon="0.98881">
        <ele>411.2</ele>
        <time>2022-09-04T08:44:13Z</time>
      </trkpt>
      <trkpt lat="43.02908" lon="0.98871">
        <ele>412</ele>
        <time>2022-09-04T08:44:18Z</time>
      </trkpt>
      <trkpt lat="43.02908" lon="0.98868">
        <ele>412.2</ele>
        <time>2022-09-04T08:44:19Z</time>
      </trkpt>
      <trkpt lat="43.02907" lon="0.98866">
        <ele>412.2</ele>
        <time>2022-09-04T08:44:20Z</time>
      </trkpt>
      <trkpt lat="43.02909" lon="0.98859">
        <ele>412.8</ele>
        <time>2022-09-04T08:44:23Z</time>
      </trkpt>
      <trkpt lat="43.02914" lon="0.98857">
        <ele>413.2</ele>
        <time>2022-09-04T08:44:27Z</time>
      </trkpt>
      <trkpt lat="43.02916" lon="0.98858">
        <ele>413.4</ele>
        <time>2022-09-04T08:44:28Z</time>
      </trkpt>
      <trkpt lat="43.02923" lon="0.98867">
        <ele>414</ele>
        <time>2022-09-04T08:44:34Z</time>
      </trkpt>
      <trkpt lat="43.02924" lon="0.98868">
        <ele>414.2</ele>
        <time>2022-09-04T08:44:35Z</time>
      </trkpt>
      <trkpt lat="43.02925" lon="0.98869">
        <ele>414.4</ele>
        <time>2022-09-04T08:44:36Z</time>
      </trkpt>
      <trkpt lat="43.02933" lon="0.98876">
        <ele>414.8</ele>
        <time>2022-09-04T08:44:41Z</time>
      </trkpt>
      <trkpt lat="43.02944" lon="0.98885">
        <ele>415.6</ele>
        <time>2022-09-04T08:44:48Z</time>
      </trkpt>
      <trkpt lat="43.02957" lon="0.98898">
        <ele>416.4</ele>
        <time>2022-09-04T08:44:56Z</time>
      </trkpt>
      <trkpt lat="43.0296" lon="0.98902">
        <ele>416.6</ele>
        <time>2022-09-04T08:44:58Z</time>
      </trkpt>
      <trkpt lat="43.02969" lon="0.98913">
        <ele>417.4</ele>
        <time>2022-09-04T08:45:04Z</time>
      </trkpt>
      <trkpt lat="43.02973" lon="0.98916">
        <ele>417.8</ele>
        <time>2022-09-04T08:45:06Z</time>
      </trkpt>
      <trkpt lat="43.02981" lon="0.98915">
        <ele>418.2</ele>
        <time>2022-09-04T08:45:11Z</time>
      </trkpt>
      <trkpt lat="43.02982" lon="0.98913">
        <ele>418.4</ele>
        <time>2022-09-04T08:45:12Z</time>
      </trkpt>
      <trkpt lat="43.02982" lon="0.98906">
        <ele>418.8</ele>
        <time>2022-09-04T08:45:15Z</time>
      </trkpt>
      <trkpt lat="43.02981" lon="0.98903">
        <ele>418.8</ele>
        <time>2022-09-04T08:45:16Z</time>
      </trkpt>
      <trkpt lat="43.02979" lon="0.98899">
        <ele>419.2</ele>
        <time>2022-09-04T08:45:18Z</time>
      </trkpt>
      <trkpt lat="43.02976" lon="0.98894">
        <ele>419.6</ele>
        <time>2022-09-04T08:45:21Z</time>
      </trkpt>
      <trkpt lat="43.0297" lon="0.98887">
        <ele>420.2</ele>
        <time>2022-09-04T08:45:25Z</time>
      </trkpt>
      <trkpt lat="43.02966" lon="0.98882">
        <ele>420.6</ele>
        <time>2022-09-04T08:45:28Z</time>
      </trkpt>
      <trkpt lat="43.02963" lon="0.98871">
        <ele>421.2</ele>
        <time>2022-09-04T08:45:33Z</time>
      </trkpt>
      <trkpt lat="43.02962" lon="0.98861">
        <ele>421.8</ele>
        <time>2022-09-04T08:45:39Z</time>
      </trkpt>
      <trkpt lat="43.02959" lon="0.98855">
        <ele>422.2</ele>
        <time>2022-09-04T08:45:42Z</time>
      </trkpt>
      <trkpt lat="43.0296" lon="0.9885">
        <ele>422.6</ele>
        <time>2022-09-04T08:45:44Z</time>
      </trkpt>
      <trkpt lat="43.02961" lon="0.98841">
        <ele>423</ele>
        <time>2022-09-04T08:45:48Z</time>
      </trkpt>
      <trkpt lat="43.0296" lon="0.98838">
        <ele>423.2</ele>
        <time>2022-09-04T08:45:49Z</time>
      </trkpt>
      <trkpt lat="43.0296" lon="0.98835">
        <ele>423.4</ele>
        <time>2022-09-04T08:45:50Z</time>
      </trkpt>
      <trkpt lat="43.02962" lon="0.98824">
        <ele>424</ele>
        <time>2022-09-04T08:45:55Z</time>
      </trkpt>
      <trkpt lat="43.02961" lon="0.98815">
        <ele>424.2</ele>
        <time>2022-09-04T08:45:58Z</time>
      </trkpt>
      <trkpt lat="43.02963" lon="0.9881">
        <ele>424.6</ele>
        <time>2022-09-04T08:46:00Z</time>
      </trkpt>
      <trkpt lat="43.02969" lon="0.98794">
        <ele>425.4</ele>
        <time>2022-09-04T08:46:07Z</time>
      </trkpt>
      <trkpt lat="43.02975" lon="0.98784">
        <ele>426.2</ele>
        <time>2022-09-04T08:46:12Z</time>
      </trkpt>
      <trkpt lat="43.02976" lon="0.98779">
        <ele>426.4</ele>
        <time>2022-09-04T08:46:14Z</time>
      </trkpt>
      <trkpt lat="43.02979" lon="0.98772">
        <ele>426.8</ele>
        <time>2022-09-04T08:46:17Z</time>
      </trkpt>
      <trkpt lat="43.02983" lon="0.98761">
        <ele>427.4</ele>
        <time>2022-09-04T08:46:22Z</time>
      </trkpt>
      <trkpt lat="43.02987" lon="0.98749">
        <ele>427.8</ele>
        <time>2022-09-04T08:46:27Z</time>
      </trkpt>
      <trkpt lat="43.02988" lon="0.98747">
        <ele>428</ele>
        <time>2022-09-04T08:46:28Z</time>
      </trkpt>
      <trkpt lat="43.02987" lon="0.98739">
        <ele>428.4</ele>
        <time>2022-09-04T08:46:31Z</time>
      </trkpt>
      <trkpt lat="43.02986" lon="0.98736">
        <ele>428.6</ele>
        <time>2022-09-04T08:46:32Z</time>
      </trkpt>
      <trkpt lat="43.02983" lon="0.98719">
        <ele>429.6</ele>
        <time>2022-09-04T08:46:39Z</time>
      </trkpt>
      <trkpt lat="43.02981" lon="0.98717">
        <ele>429.6</ele>
        <time>2022-09-04T08:46:40Z</time>
      </trkpt>
      <trkpt lat="43.02974" lon="0.98706">
        <ele>430</ele>
        <time>2022-09-04T08:46:46Z</time>
      </trkpt>
      <trkpt lat="43.02969" lon="0.98701">
        <ele>430.6</ele>
        <time>2022-09-04T08:46:49Z</time>
      </trkpt>
      <trkpt lat="43.02963" lon="0.98699">
        <ele>431</ele>
        <time>2022-09-04T08:46:53Z</time>
      </trkpt>
      <trkpt lat="43.02954" lon="0.98698">
        <ele>431.6</ele>
        <time>2022-09-04T08:46:58Z</time>
      </trkpt>
      <trkpt lat="43.02949" lon="0.98701">
        <ele>432.2</ele>
        <time>2022-09-04T08:47:01Z</time>
      </trkpt>
      <trkpt lat="43.02943" lon="0.98704">
        <ele>432.8</ele>
        <time>2022-09-04T08:47:05Z</time>
      </trkpt>
      <trkpt lat="43.02937" lon="0.98707">
        <ele>433.2</ele>
        <time>2022-09-04T08:47:08Z</time>
      </trkpt>
      <trkpt lat="43.02927" lon="0.98714">
        <ele>434</ele>
        <time>2022-09-04T08:47:14Z</time>
      </trkpt>
      <trkpt lat="43.02926" lon="0.98715">
        <ele>434</ele>
        <time>2022-09-04T08:47:15Z</time>
      </trkpt>
      <trkpt lat="43.02918" lon="0.98719">
        <ele>434.6</ele>
        <time>2022-09-04T08:47:20Z</time>
      </trkpt>
      <trkpt lat="43.02911" lon="0.9872">
        <ele>435</ele>
        <time>2022-09-04T08:47:24Z</time>
      </trkpt>
      <trkpt lat="43.02905" lon="0.98721">
        <ele>435.6</ele>
        <time>2022-09-04T08:47:28Z</time>
      </trkpt>
      <trkpt lat="43.02897" lon="0.98718">
        <ele>436</ele>
        <time>2022-09-04T08:48:03Z</time>
      </trkpt>
      <trkpt lat="43.02891" lon="0.98717">
        <ele>436.2</ele>
        <time>2022-09-04T08:48:06Z</time>
      </trkpt>
      <trkpt lat="43.02883" lon="0.98717">
        <ele>436.6</ele>
        <time>2022-09-04T08:48:10Z</time>
      </trkpt>
      <trkpt lat="43.02872" lon="0.98717">
        <ele>437.2</ele>
        <time>2022-09-04T08:48:15Z</time>
      </trkpt>
      <trkpt lat="43.02859" lon="0.98714">
        <ele>438</ele>
        <time>2022-09-04T08:48:21Z</time>
      </trkpt>
      <trkpt lat="43.02855" lon="0.98712">
        <ele>438.2</ele>
        <time>2022-09-04T08:48:23Z</time>
      </trkpt>
      <trkpt lat="43.02841" lon="0.98705">
        <ele>439.2</ele>
        <time>2022-09-04T08:48:29Z</time>
      </trkpt>
      <trkpt lat="43.02839" lon="0.98703">
        <ele>439.4</ele>
        <time>2022-09-04T08:48:30Z</time>
      </trkpt>
      <trkpt lat="43.02834" lon="0.98691">
        <ele>440.2</ele>
        <time>2022-09-04T08:48:34Z</time>
      </trkpt>
      <trkpt lat="43.02834" lon="0.98688">
        <ele>440.4</ele>
        <time>2022-09-04T08:48:35Z</time>
      </trkpt>
      <trkpt lat="43.02834" lon="0.98676">
        <ele>441.4</ele>
        <time>2022-09-04T08:48:39Z</time>
      </trkpt>
      <trkpt lat="43.02834" lon="0.9867">
        <ele>441.8</ele>
        <time>2022-09-04T08:48:41Z</time>
      </trkpt>
      <trkpt lat="43.02835" lon="0.98659">
        <ele>442.4</ele>
        <time>2022-09-04T08:48:45Z</time>
      </trkpt>
      <trkpt lat="43.02836" lon="0.98656">
        <ele>442.6</ele>
        <time>2022-09-04T08:48:46Z</time>
      </trkpt>
      <trkpt lat="43.02838" lon="0.9864">
        <ele>443.4</ele>
        <time>2022-09-04T08:48:52Z</time>
      </trkpt>
      <trkpt lat="43.02838" lon="0.98622">
        <ele>444.4</ele>
        <time>2022-09-04T08:48:58Z</time>
      </trkpt>
      <trkpt lat="43.02837" lon="0.98619">
        <ele>444.4</ele>
        <time>2022-09-04T08:48:59Z</time>
      </trkpt>
      <trkpt lat="43.02834" lon="0.98602">
        <ele>445.2</ele>
        <time>2022-09-04T08:49:05Z</time>
      </trkpt>
      <trkpt lat="43.0283" lon="0.98587">
        <ele>445.4</ele>
        <time>2022-09-04T08:49:10Z</time>
      </trkpt>
      <trkpt lat="43.02828" lon="0.98577">
        <ele>445.8</ele>
        <time>2022-09-04T08:49:14Z</time>
      </trkpt>
      <trkpt lat="43.02823" lon="0.98562">
        <ele>445.8</ele>
        <time>2022-09-04T08:49:22Z</time>
      </trkpt>
      <trkpt lat="43.02821" lon="0.98554">
        <ele>445.6</ele>
        <time>2022-09-04T08:51:09Z</time>
      </trkpt>
      <trkpt lat="43.02821" lon="0.98552">
        <ele>445.4</ele>
        <time>2022-09-04T08:51:10Z</time>
      </trkpt>
      <trkpt lat="43.02818" lon="0.98541">
        <ele>445.4</ele>
        <time>2022-09-04T08:51:13Z</time>
      </trkpt>
      <trkpt lat="43.02816" lon="0.98533">
        <ele>445.4</ele>
        <time>2022-09-04T08:51:15Z</time>
      </trkpt>
      <trkpt lat="43.0281" lon="0.98513">
        <ele>445</ele>
        <time>2022-09-04T08:51:19Z</time>
      </trkpt>
      <trkpt lat="43.02807" lon="0.98502">
        <ele>444.6</ele>
        <time>2022-09-04T08:51:21Z</time>
      </trkpt>
      <trkpt lat="43.02805" lon="0.98496">
        <ele>444.4</ele>
        <time>2022-09-04T08:51:22Z</time>
      </trkpt>
      <trkpt lat="43.02793" lon="0.9846">
        <ele>443.4</ele>
        <time>2022-09-04T08:51:27Z</time>
      </trkpt>
      <trkpt lat="43.02783" lon="0.98427">
        <ele>442.2</ele>
        <time>2022-09-04T08:51:31Z</time>
      </trkpt>
      <trkpt lat="43.02775" lon="0.98398">
        <ele>441.2</ele>
        <time>2022-09-04T08:51:34Z</time>
      </trkpt>
      <trkpt lat="43.02762" lon="0.98357">
        <ele>439.8</ele>
        <time>2022-09-04T08:51:38Z</time>
      </trkpt>
      <trkpt lat="43.02755" lon="0.98335">
        <ele>439.2</ele>
        <time>2022-09-04T08:51:40Z</time>
      </trkpt>
      <trkpt lat="43.02747" lon="0.98312">
        <ele>438.6</ele>
        <time>2022-09-04T08:51:42Z</time>
      </trkpt>
      <trkpt lat="43.02736" lon="0.98277">
        <ele>437.4</ele>
        <time>2022-09-04T08:51:45Z</time>
      </trkpt>
      <trkpt lat="43.02727" lon="0.98252">
        <ele>436.2</ele>
        <time>2022-09-04T08:51:47Z</time>
      </trkpt>
      <trkpt lat="43.02719" lon="0.98226">
        <ele>435</ele>
        <time>2022-09-04T08:51:49Z</time>
      </trkpt>
      <trkpt lat="43.02715" lon="0.98214">
        <ele>434</ele>
        <time>2022-09-04T08:51:50Z</time>
      </trkpt>
      <trkpt lat="43.02706" lon="0.98188">
        <ele>432.8</ele>
        <time>2022-09-04T08:51:52Z</time>
      </trkpt>
      <trkpt lat="43.02703" lon="0.98174">
        <ele>432.2</ele>
        <time>2022-09-04T08:51:53Z</time>
      </trkpt>
      <trkpt lat="43.027" lon="0.9816">
        <ele>431.4</ele>
        <time>2022-09-04T08:51:54Z</time>
      </trkpt>
      <trkpt lat="43.02699" lon="0.98131">
        <ele>429.8</ele>
        <time>2022-09-04T08:51:56Z</time>
      </trkpt>
      <trkpt lat="43.02712" lon="0.98092">
        <ele>428.6</ele>
        <time>2022-09-04T08:51:59Z</time>
      </trkpt>
      <trkpt lat="43.02725" lon="0.98068">
        <ele>427.6</ele>
        <time>2022-09-04T08:52:01Z</time>
      </trkpt>
      <trkpt lat="43.02735" lon="0.98042">
        <ele>426.2</ele>
        <time>2022-09-04T08:52:03Z</time>
      </trkpt>
      <trkpt lat="43.02738" lon="0.98014">
        <ele>425</ele>
        <time>2022-09-04T08:52:05Z</time>
      </trkpt>
      <trkpt lat="43.02737" lon="0.98001">
        <ele>424.6</ele>
        <time>2022-09-04T08:52:06Z</time>
      </trkpt>
      <trkpt lat="43.02731" lon="0.97978">
        <ele>423.8</ele>
        <time>2022-09-04T08:52:08Z</time>
      </trkpt>
      <trkpt lat="43.02726" lon="0.97967">
        <ele>423.4</ele>
        <time>2022-09-04T08:52:09Z</time>
      </trkpt>
      <trkpt lat="43.02705" lon="0.97941">
        <ele>422.6</ele>
        <time>2022-09-04T08:52:12Z</time>
      </trkpt>
      <trkpt lat="43.02697" lon="0.97933">
        <ele>422.2</ele>
        <time>2022-09-04T08:52:13Z</time>
      </trkpt>
      <trkpt lat="43.02689" lon="0.97926">
        <ele>421.4</ele>
        <time>2022-09-04T08:52:14Z</time>
      </trkpt>
      <trkpt lat="43.02674" lon="0.97909">
        <ele>420.4</ele>
        <time>2022-09-04T08:52:16Z</time>
      </trkpt>
      <trkpt lat="43.02651" lon="0.97883">
        <ele>419.2</ele>
        <time>2022-09-04T08:52:19Z</time>
      </trkpt>
      <trkpt lat="43.0263" lon="0.97859">
        <ele>418</ele>
        <time>2022-09-04T08:52:22Z</time>
      </trkpt>
      <trkpt lat="43.02608" lon="0.97835">
        <ele>416.6</ele>
        <time>2022-09-04T08:52:25Z</time>
      </trkpt>
      <trkpt lat="43.02589" lon="0.97808">
        <ele>415.6</ele>
        <time>2022-09-04T08:52:28Z</time>
      </trkpt>
      <trkpt lat="43.02583" lon="0.97796">
        <ele>415</ele>
        <time>2022-09-04T08:52:29Z</time>
      </trkpt>
      <trkpt lat="43.02576" lon="0.9777">
        <ele>414.2</ele>
        <time>2022-09-04T08:52:31Z</time>
      </trkpt>
      <trkpt lat="43.02574" lon="0.97756">
        <ele>413.8</ele>
        <time>2022-09-04T08:52:32Z</time>
      </trkpt>
      <trkpt lat="43.02567" lon="0.97693">
        <ele>413</ele>
        <time>2022-09-04T08:52:37Z</time>
      </trkpt>
      <trkpt lat="43.02564" lon="0.97638">
        <ele>413</ele>
        <time>2022-09-04T08:52:42Z</time>
      </trkpt>
      <trkpt lat="43.02562" lon="0.97607">
        <ele>412.6</ele>
        <time>2022-09-04T08:52:46Z</time>
      </trkpt>
      <trkpt lat="43.0256" lon="0.97579">
        <ele>412.8</ele>
        <time>2022-09-04T08:52:52Z</time>
      </trkpt>
      <trkpt lat="43.02557" lon="0.97549">
        <ele>413.4</ele>
        <time>2022-09-04T08:52:59Z</time>
      </trkpt>
      <trkpt lat="43.02553" lon="0.97518">
        <ele>414</ele>
        <time>2022-09-04T08:53:06Z</time>
      </trkpt>
      <trkpt lat="43.02552" lon="0.97513">
        <ele>414.2</ele>
        <time>2022-09-04T08:53:07Z</time>
      </trkpt>
      <trkpt lat="43.02549" lon="0.97485">
        <ele>414.6</ele>
        <time>2022-09-04T08:53:14Z</time>
      </trkpt>
      <trkpt lat="43.02547" lon="0.9746">
        <ele>415</ele>
        <time>2022-09-04T08:53:21Z</time>
      </trkpt>
      <trkpt lat="43.02547" lon="0.97457">
        <ele>415.2</ele>
        <time>2022-09-04T08:53:22Z</time>
      </trkpt>
      <trkpt lat="43.02547" lon="0.97432">
        <ele>415.4</ele>
        <time>2022-09-04T08:53:28Z</time>
      </trkpt>
      <trkpt lat="43.0255" lon="0.9739">
        <ele>416</ele>
        <time>2022-09-04T08:53:37Z</time>
      </trkpt>
      <trkpt lat="43.02551" lon="0.97358">
        <ele>416</ele>
        <time>2022-09-04T08:53:44Z</time>
      </trkpt>
      <trkpt lat="43.02553" lon="0.97327">
        <ele>416.2</ele>
        <time>2022-09-04T08:53:51Z</time>
      </trkpt>
      <trkpt lat="43.02557" lon="0.97295">
        <ele>416</ele>
        <time>2022-09-04T08:53:58Z</time>
      </trkpt>
      <trkpt lat="43.02558" lon="0.97268">
        <ele>416</ele>
        <time>2022-09-04T08:54:04Z</time>
      </trkpt>
      <trkpt lat="43.0256" lon="0.97237">
        <ele>416</ele>
        <time>2022-09-04T08:54:11Z</time>
      </trkpt>
      <trkpt lat="43.02562" lon="0.97218">
        <ele>415.8</ele>
        <time>2022-09-04T08:54:15Z</time>
      </trkpt>
      <trkpt lat="43.02564" lon="0.972">
        <ele>415.8</ele>
        <time>2022-09-04T08:54:19Z</time>
      </trkpt>
      <trkpt lat="43.02575" lon="0.97176">
        <ele>415.6</ele>
        <time>2022-09-04T08:54:25Z</time>
      </trkpt>
      <trkpt lat="43.02599" lon="0.97155">
        <ele>414.6</ele>
        <time>2022-09-04T08:54:31Z</time>
      </trkpt>
      <trkpt lat="43.02617" lon="0.97138">
        <ele>414</ele>
        <time>2022-09-04T08:54:35Z</time>
      </trkpt>
      <trkpt lat="43.02626" lon="0.97128">
        <ele>413.4</ele>
        <time>2022-09-04T08:54:37Z</time>
      </trkpt>
      <trkpt lat="43.02631" lon="0.97124">
        <ele>412.8</ele>
        <time>2022-09-04T08:54:38Z</time>
      </trkpt>
      <trkpt lat="43.02664" lon="0.97093">
        <ele>411.6</ele>
        <time>2022-09-04T08:54:44Z</time>
      </trkpt>
      <trkpt lat="43.0267" lon="0.97088">
        <ele>411.4</ele>
        <time>2022-09-04T08:54:45Z</time>
      </trkpt>
      <trkpt lat="43.02693" lon="0.97066">
        <ele>410.4</ele>
        <time>2022-09-04T08:54:49Z</time>
      </trkpt>
      <trkpt lat="43.027" lon="0.97059">
        <ele>409.6</ele>
        <time>2022-09-04T08:54:51Z</time>
      </trkpt>
      <trkpt lat="43.02703" lon="0.97057">
        <ele>409.4</ele>
        <time>2022-09-04T08:54:52Z</time>
      </trkpt>
      <trkpt lat="43.02711" lon="0.97047">
        <ele>409</ele>
        <time>2022-09-04T08:54:55Z</time>
      </trkpt>
      <trkpt lat="43.02737" lon="0.97022">
        <ele>408.6</ele>
        <time>2022-09-04T08:55:02Z</time>
      </trkpt>
      <trkpt lat="43.02746" lon="0.97014">
        <ele>408.2</ele>
        <time>2022-09-04T08:55:04Z</time>
      </trkpt>
      <trkpt lat="43.0277" lon="0.96991">
        <ele>407.4</ele>
        <time>2022-09-04T08:55:09Z</time>
      </trkpt>
      <trkpt lat="43.02775" lon="0.96986">
        <ele>407.2</ele>
        <time>2022-09-04T08:55:10Z</time>
      </trkpt>
      <trkpt lat="43.02792" lon="0.96966">
        <ele>406.6</ele>
        <time>2022-09-04T08:55:14Z</time>
      </trkpt>
      <trkpt lat="43.02798" lon="0.96952">
        <ele>406.4</ele>
        <time>2022-09-04T08:55:16Z</time>
      </trkpt>
      <trkpt lat="43.02805" lon="0.96929">
        <ele>406</ele>
        <time>2022-09-04T08:55:19Z</time>
      </trkpt>
      <trkpt lat="43.02808" lon="0.96923">
        <ele>406</ele>
        <time>2022-09-04T08:55:20Z</time>
      </trkpt>
      <trkpt lat="43.02828" lon="0.96902">
        <ele>405.2</ele>
        <time>2022-09-04T08:55:24Z</time>
      </trkpt>
      <trkpt lat="43.02838" lon="0.96892">
        <ele>404.8</ele>
        <time>2022-09-04T08:55:26Z</time>
      </trkpt>
      <trkpt lat="43.02873" lon="0.96863">
        <ele>403.6</ele>
        <time>2022-09-04T08:55:32Z</time>
      </trkpt>
      <trkpt lat="43.0291" lon="0.96833">
        <ele>402.8</ele>
        <time>2022-09-04T08:55:39Z</time>
      </trkpt>
      <trkpt lat="43.02942" lon="0.96806">
        <ele>402.6</ele>
        <time>2022-09-04T08:55:46Z</time>
      </trkpt>
      <trkpt lat="43.0297" lon="0.96781">
        <ele>403.4</ele>
        <time>2022-09-04T08:55:54Z</time>
      </trkpt>
      <trkpt lat="43.02978" lon="0.96774">
        <ele>403.8</ele>
        <time>2022-09-04T08:55:57Z</time>
      </trkpt>
      <trkpt lat="43.02991" lon="0.96763">
        <ele>404.4</ele>
        <time>2022-09-04T08:56:02Z</time>
      </trkpt>
      <trkpt lat="43.02998" lon="0.96757">
        <ele>404.8</ele>
        <time>2022-09-04T08:56:05Z</time>
      </trkpt>
      <trkpt lat="43.03008" lon="0.96749">
        <ele>405.6</ele>
        <time>2022-09-04T08:56:10Z</time>
      </trkpt>
      <trkpt lat="43.03016" lon="0.96742">
        <ele>406.2</ele>
        <time>2022-09-04T08:56:14Z</time>
      </trkpt>
      <trkpt lat="43.03024" lon="0.96731">
        <ele>406.6</ele>
        <time>2022-09-04T08:56:19Z</time>
      </trkpt>
      <trkpt lat="43.0303" lon="0.96718">
        <ele>407.2</ele>
        <time>2022-09-04T08:56:24Z</time>
      </trkpt>
      <trkpt lat="43.03037" lon="0.96704">
        <ele>407.8</ele>
        <time>2022-09-04T08:56:29Z</time>
      </trkpt>
      <trkpt lat="43.03042" lon="0.96694">
        <ele>408.4</ele>
        <time>2022-09-04T08:56:33Z</time>
      </trkpt>
      <trkpt lat="43.03047" lon="0.96681">
        <ele>409</ele>
        <time>2022-09-04T08:56:38Z</time>
      </trkpt>
      <trkpt lat="43.03051" lon="0.96673">
        <ele>409.4</ele>
        <time>2022-09-04T08:56:41Z</time>
      </trkpt>
      <trkpt lat="43.03057" lon="0.96656">
        <ele>410</ele>
        <time>2022-09-04T08:56:47Z</time>
      </trkpt>
      <trkpt lat="43.03061" lon="0.96631">
        <ele>410.6</ele>
        <time>2022-09-04T08:56:54Z</time>
      </trkpt>
      <trkpt lat="43.03062" lon="0.96624">
        <ele>410.8</ele>
        <time>2022-09-04T08:56:56Z</time>
      </trkpt>
      <trkpt lat="43.03064" lon="0.96595">
        <ele>411</ele>
        <time>2022-09-04T08:57:04Z</time>
      </trkpt>
      <trkpt lat="43.03067" lon="0.96565">
        <ele>411.2</ele>
        <time>2022-09-04T08:57:12Z</time>
      </trkpt>
      <trkpt lat="43.03069" lon="0.96538">
        <ele>411.4</ele>
        <time>2022-09-04T08:57:20Z</time>
      </trkpt>
      <trkpt lat="43.03071" lon="0.96526">
        <ele>411.6</ele>
        <time>2022-09-04T08:57:23Z</time>
      </trkpt>
      <trkpt lat="43.03076" lon="0.96503">
        <ele>411.6</ele>
        <time>2022-09-04T08:57:29Z</time>
      </trkpt>
      <trkpt lat="43.03075" lon="0.96475">
        <ele>412.4</ele>
        <time>2022-09-04T08:57:37Z</time>
      </trkpt>
      <trkpt lat="43.03065" lon="0.96464">
        <ele>412.8</ele>
        <time>2022-09-04T08:57:42Z</time>
      </trkpt>
      <trkpt lat="43.03062" lon="0.96462">
        <ele>413</ele>
        <time>2022-09-04T08:57:43Z</time>
      </trkpt>
      <trkpt lat="43.03046" lon="0.96448">
        <ele>413.8</ele>
        <time>2022-09-04T08:57:50Z</time>
      </trkpt>
      <trkpt lat="43.03039" lon="0.96442">
        <ele>414.2</ele>
        <time>2022-09-04T08:57:53Z</time>
      </trkpt>
      <trkpt lat="43.03017" lon="0.96422">
        <ele>414.8</ele>
        <time>2022-09-04T08:58:02Z</time>
      </trkpt>
      <trkpt lat="43.03013" lon="0.96418">
        <ele>415</ele>
        <time>2022-09-04T08:58:04Z</time>
      </trkpt>
      <trkpt lat="43.0299" lon="0.96395">
        <ele>415.4</ele>
        <time>2022-09-04T08:58:13Z</time>
      </trkpt>
      <trkpt lat="43.02967" lon="0.96366">
        <ele>415.6</ele>
        <time>2022-09-04T08:58:23Z</time>
      </trkpt>
      <trkpt lat="43.02958" lon="0.96354">
        <ele>415.8</ele>
        <time>2022-09-04T08:58:27Z</time>
      </trkpt>
      <trkpt lat="43.02951" lon="0.96345">
        <ele>416</ele>
        <time>2022-09-04T08:58:30Z</time>
      </trkpt>
      <trkpt lat="43.02925" lon="0.96308">
        <ele>416.2</ele>
        <time>2022-09-04T08:58:42Z</time>
      </trkpt>
      <trkpt lat="43.02902" lon="0.96265">
        <ele>416.4</ele>
        <time>2022-09-04T08:58:54Z</time>
      </trkpt>
      <trkpt lat="43.02885" lon="0.96234">
        <ele>416.6</ele>
        <time>2022-09-04T08:59:03Z</time>
      </trkpt>
      <trkpt lat="43.0287" lon="0.96208">
        <ele>416.6</ele>
        <time>2022-09-04T08:59:11Z</time>
      </trkpt>
      <trkpt lat="43.02859" lon="0.96193">
        <ele>417</ele>
        <time>2022-09-04T08:59:16Z</time>
      </trkpt>
      <trkpt lat="43.02847" lon="0.96175">
        <ele>417.2</ele>
        <time>2022-09-04T08:59:22Z</time>
      </trkpt>
      <trkpt lat="43.02831" lon="0.96153">
        <ele>418</ele>
        <time>2022-09-04T08:59:30Z</time>
      </trkpt>
      <trkpt lat="43.02828" lon="0.96147">
        <ele>418.2</ele>
        <time>2022-09-04T08:59:32Z</time>
      </trkpt>
      <trkpt lat="43.02816" lon="0.96132">
        <ele>419</ele>
        <time>2022-09-04T08:59:39Z</time>
      </trkpt>
      <trkpt lat="43.02807" lon="0.9612">
        <ele>420</ele>
        <time>2022-09-04T08:59:45Z</time>
      </trkpt>
      <trkpt lat="43.02806" lon="0.96118">
        <ele>420.2</ele>
        <time>2022-09-04T08:59:46Z</time>
      </trkpt>
      <trkpt lat="43.02799" lon="0.96108">
        <ele>420.8</ele>
        <time>2022-09-04T08:59:51Z</time>
      </trkpt>
      <trkpt lat="43.02797" lon="0.96103">
        <ele>421.2</ele>
        <time>2022-09-04T08:59:53Z</time>
      </trkpt>
      <trkpt lat="43.02796" lon="0.96101">
        <ele>421.4</ele>
        <time>2022-09-04T08:59:54Z</time>
      </trkpt>
      <trkpt lat="43.0279" lon="0.96085">
        <ele>422.4</ele>
        <time>2022-09-04T09:00:01Z</time>
      </trkpt>
      <trkpt lat="43.02785" lon="0.96073">
        <ele>423.2</ele>
        <time>2022-09-04T09:00:07Z</time>
      </trkpt>
      <trkpt lat="43.02784" lon="0.96069">
        <ele>423.4</ele>
        <time>2022-09-04T09:00:09Z</time>
      </trkpt>
      <trkpt lat="43.02783" lon="0.96067">
        <ele>423.6</ele>
        <time>2022-09-04T09:00:10Z</time>
      </trkpt>
      <trkpt lat="43.02782" lon="0.96063">
        <ele>424</ele>
        <time>2022-09-04T09:00:12Z</time>
      </trkpt>
      <trkpt lat="43.0278" lon="0.96059">
        <ele>424.2</ele>
        <time>2022-09-04T09:00:14Z</time>
      </trkpt>
      <trkpt lat="43.02779" lon="0.96057">
        <ele>424.4</ele>
        <time>2022-09-04T09:00:15Z</time>
      </trkpt>
      <trkpt lat="43.02777" lon="0.96047">
        <ele>425.4</ele>
        <time>2022-09-04T09:00:20Z</time>
      </trkpt>
      <trkpt lat="43.02776" lon="0.96043">
        <ele>425.6</ele>
        <time>2022-09-04T09:00:22Z</time>
      </trkpt>
      <trkpt lat="43.02772" lon="0.96031">
        <ele>426.6</ele>
        <time>2022-09-04T09:00:28Z</time>
      </trkpt>
      <trkpt lat="43.02771" lon="0.96029">
        <ele>426.8</ele>
        <time>2022-09-04T09:00:29Z</time>
      </trkpt>
      <trkpt lat="43.02767" lon="0.96017">
        <ele>427.8</ele>
        <time>2022-09-04T09:00:35Z</time>
      </trkpt>
      <trkpt lat="43.02767" lon="0.96016">
        <ele>428</ele>
        <time>2022-09-04T09:00:36Z</time>
      </trkpt>
      <trkpt lat="43.02766" lon="0.96009">
        <ele>428.6</ele>
        <time>2022-09-04T09:00:39Z</time>
      </trkpt>
      <trkpt lat="43.02765" lon="0.96006">
        <ele>428.8</ele>
        <time>2022-09-04T09:00:41Z</time>
      </trkpt>
      <trkpt lat="43.02763" lon="0.96001">
        <ele>429.4</ele>
        <time>2022-09-04T09:00:44Z</time>
      </trkpt>
      <trkpt lat="43.02762" lon="0.95995">
        <ele>430</ele>
        <time>2022-09-04T09:00:47Z</time>
      </trkpt>
      <trkpt lat="43.02761" lon="0.95989">
        <ele>430.4</ele>
        <time>2022-09-04T09:00:50Z</time>
      </trkpt>
      <trkpt lat="43.0276" lon="0.95987">
        <ele>430.6</ele>
        <time>2022-09-04T09:00:51Z</time>
      </trkpt>
      <trkpt lat="43.02759" lon="0.95981">
        <ele>431.2</ele>
        <time>2022-09-04T09:00:54Z</time>
      </trkpt>
      <trkpt lat="43.02757" lon="0.95971">
        <ele>432</ele>
        <time>2022-09-04T09:00:59Z</time>
      </trkpt>
      <trkpt lat="43.02756" lon="0.95969">
        <ele>432.2</ele>
        <time>2022-09-04T09:01:00Z</time>
      </trkpt>
      <trkpt lat="43.02755" lon="0.95958">
        <ele>433.4</ele>
        <time>2022-09-04T09:01:05Z</time>
      </trkpt>
      <trkpt lat="43.02754" lon="0.95956">
        <ele>433.6</ele>
        <time>2022-09-04T09:01:06Z</time>
      </trkpt>
      <trkpt lat="43.02752" lon="0.95946">
        <ele>434.4</ele>
        <time>2022-09-04T09:01:11Z</time>
      </trkpt>
      <trkpt lat="43.0275" lon="0.95938">
        <ele>435</ele>
        <time>2022-09-04T09:01:15Z</time>
      </trkpt>
      <trkpt lat="43.02749" lon="0.95929">
        <ele>435.4</ele>
        <time>2022-09-04T09:01:19Z</time>
      </trkpt>
      <trkpt lat="43.02748" lon="0.95923">
        <ele>435.6</ele>
        <time>2022-09-04T09:01:22Z</time>
      </trkpt>
      <trkpt lat="43.02746" lon="0.9591">
        <ele>436.4</ele>
        <time>2022-09-04T09:01:28Z</time>
      </trkpt>
      <trkpt lat="43.02745" lon="0.95904">
        <ele>436.4</ele>
        <time>2022-09-04T09:01:31Z</time>
      </trkpt>
      <trkpt lat="43.02742" lon="0.95895">
        <ele>436.6</ele>
        <time>2022-09-04T09:01:35Z</time>
      </trkpt>
      <trkpt lat="43.02737" lon="0.95875">
        <ele>436.6</ele>
        <time>2022-09-04T09:01:43Z</time>
      </trkpt>
      <trkpt lat="43.02735" lon="0.95855">
        <ele>436.2</ele>
        <time>2022-09-04T09:01:49Z</time>
      </trkpt>
      <trkpt lat="43.02739" lon="0.95833">
        <ele>436.8</ele>
        <time>2022-09-04T09:01:56Z</time>
      </trkpt>
      <trkpt lat="43.02745" lon="0.95808">
        <ele>437.4</ele>
        <time>2022-09-04T09:02:05Z</time>
      </trkpt>
      <trkpt lat="43.02748" lon="0.95796">
        <ele>437.6</ele>
        <time>2022-09-04T09:02:09Z</time>
      </trkpt>
      <trkpt lat="43.02751" lon="0.95788">
        <ele>438</ele>
        <time>2022-09-04T09:02:12Z</time>
      </trkpt>
      <trkpt lat="43.02752" lon="0.95781">
        <ele>438.6</ele>
        <time>2022-09-04T09:02:15Z</time>
      </trkpt>
      <trkpt lat="43.02753" lon="0.95771">
        <ele>439.4</ele>
        <time>2022-09-04T09:02:19Z</time>
      </trkpt>
      <trkpt lat="43.02754" lon="0.95767">
        <ele>439.6</ele>
        <time>2022-09-04T09:02:21Z</time>
      </trkpt>
      <trkpt lat="43.0276" lon="0.95756">
        <ele>440.6</ele>
        <time>2022-09-04T09:02:27Z</time>
      </trkpt>
      <trkpt lat="43.02765" lon="0.95739">
        <ele>441.8</ele>
        <time>2022-09-04T09:02:35Z</time>
      </trkpt>
      <trkpt lat="43.02765" lon="0.95722">
        <ele>442.6</ele>
        <time>2022-09-04T09:02:42Z</time>
      </trkpt>
      <trkpt lat="43.02766" lon="0.9572">
        <ele>442.8</ele>
        <time>2022-09-04T09:02:43Z</time>
      </trkpt>
      <trkpt lat="43.02772" lon="0.95712">
        <ele>443.6</ele>
        <time>2022-09-04T09:02:48Z</time>
      </trkpt>
      <trkpt lat="43.02771" lon="0.95709">
        <ele>444</ele>
        <time>2022-09-04T09:02:49Z</time>
      </trkpt>
      <trkpt lat="43.02776" lon="0.95701">
        <ele>445</ele>
        <time>2022-09-04T09:02:54Z</time>
      </trkpt>
      <trkpt lat="43.02778" lon="0.95699">
        <ele>445.2</ele>
        <time>2022-09-04T09:02:55Z</time>
      </trkpt>
      <trkpt lat="43.02777" lon="0.95696">
        <ele>445.6</ele>
        <time>2022-09-04T09:02:57Z</time>
      </trkpt>
      <trkpt lat="43.02777" lon="0.95694">
        <ele>445.8</ele>
        <time>2022-09-04T09:02:58Z</time>
      </trkpt>
      <trkpt lat="43.02779" lon="0.95692">
        <ele>446</ele>
        <time>2022-09-04T09:02:59Z</time>
      </trkpt>
      <trkpt lat="43.02781" lon="0.9569">
        <ele>446.4</ele>
        <time>2022-09-04T09:03:01Z</time>
      </trkpt>
      <trkpt lat="43.02782" lon="0.95689">
        <ele>446.8</ele>
        <time>2022-09-04T09:03:02Z</time>
      </trkpt>
      <trkpt lat="43.02783" lon="0.95687">
        <ele>447.2</ele>
        <time>2022-09-04T09:03:03Z</time>
      </trkpt>
      <trkpt lat="43.02782" lon="0.95683">
        <ele>447.6</ele>
        <time>2022-09-04T09:03:05Z</time>
      </trkpt>
      <trkpt lat="43.02783" lon="0.95681">
        <ele>447.6</ele>
        <time>2022-09-04T09:03:06Z</time>
      </trkpt>
      <trkpt lat="43.02784" lon="0.95679">
        <ele>447.8</ele>
        <time>2022-09-04T09:03:07Z</time>
      </trkpt>
      <trkpt lat="43.02787" lon="0.95678">
        <ele>448.6</ele>
        <time>2022-09-04T09:03:10Z</time>
      </trkpt>
      <trkpt lat="43.02788" lon="0.95672">
        <ele>449.2</ele>
        <time>2022-09-04T09:03:14Z</time>
      </trkpt>
      <trkpt lat="43.02789" lon="0.95668">
        <ele>449.6</ele>
        <time>2022-09-04T09:03:16Z</time>
      </trkpt>
      <trkpt lat="43.02792" lon="0.95666">
        <ele>450.2</ele>
        <time>2022-09-04T09:03:19Z</time>
      </trkpt>
      <trkpt lat="43.02795" lon="0.95671">
        <ele>450.6</ele>
        <time>2022-09-04T09:03:23Z</time>
      </trkpt>
      <trkpt lat="43.02796" lon="0.95672">
        <ele>450.6</ele>
        <time>2022-09-04T09:03:24Z</time>
      </trkpt>
      <trkpt lat="43.02799" lon="0.95676">
        <ele>451.8</ele>
        <time>2022-09-04T09:03:28Z</time>
      </trkpt>
      <trkpt lat="43.02804" lon="0.95679">
        <ele>452.4</ele>
        <time>2022-09-04T09:03:32Z</time>
      </trkpt>
      <trkpt lat="43.02804" lon="0.95681">
        <ele>452.6</ele>
        <time>2022-09-04T09:03:33Z</time>
      </trkpt>
      <trkpt lat="43.02804" lon="0.95683">
        <ele>453</ele>
        <time>2022-09-04T09:03:34Z</time>
      </trkpt>
      <trkpt lat="43.02807" lon="0.95686">
        <ele>453.4</ele>
        <time>2022-09-04T09:03:37Z</time>
      </trkpt>
      <trkpt lat="43.0281" lon="0.95691">
        <ele>454</ele>
        <time>2022-09-04T09:03:41Z</time>
      </trkpt>
      <trkpt lat="43.02811" lon="0.95693">
        <ele>454.2</ele>
        <time>2022-09-04T09:03:42Z</time>
      </trkpt>
      <trkpt lat="43.02816" lon="0.95698">
        <ele>455</ele>
        <time>2022-09-04T09:03:47Z</time>
      </trkpt>
      <trkpt lat="43.02821" lon="0.95702">
        <ele>455.8</ele>
        <time>2022-09-04T09:03:53Z</time>
      </trkpt>
      <trkpt lat="43.02821" lon="0.95699">
        <ele>456</ele>
        <time>2022-09-04T09:03:55Z</time>
      </trkpt>
      <trkpt lat="43.02823" lon="0.95694">
        <ele>456.4</ele>
        <time>2022-09-04T09:03:58Z</time>
      </trkpt>
      <trkpt lat="43.02825" lon="0.95693">
        <ele>456.8</ele>
        <time>2022-09-04T09:04:00Z</time>
      </trkpt>
      <trkpt lat="43.02826" lon="0.95691">
        <ele>457</ele>
        <time>2022-09-04T09:04:01Z</time>
      </trkpt>
      <trkpt lat="43.02826" lon="0.9569">
        <ele>457.2</ele>
        <time>2022-09-04T09:04:02Z</time>
      </trkpt>
      <trkpt lat="43.02827" lon="0.95685">
        <ele>457.6</ele>
        <time>2022-09-04T09:04:04Z</time>
      </trkpt>
      <trkpt lat="43.0283" lon="0.9568">
        <ele>458.4</ele>
        <time>2022-09-04T09:04:08Z</time>
      </trkpt>
      <trkpt lat="43.0283" lon="0.95679">
        <ele>458.6</ele>
        <time>2022-09-04T09:04:09Z</time>
      </trkpt>
      <trkpt lat="43.02833" lon="0.95674">
        <ele>459.4</ele>
        <time>2022-09-04T09:04:13Z</time>
      </trkpt>
      <trkpt lat="43.02834" lon="0.95673">
        <ele>459.4</ele>
        <time>2022-09-04T09:04:14Z</time>
      </trkpt>
      <trkpt lat="43.02834" lon="0.95671">
        <ele>459.8</ele>
        <time>2022-09-04T09:04:15Z</time>
      </trkpt>
      <trkpt lat="43.02834" lon="0.95666">
        <ele>460.4</ele>
        <time>2022-09-04T09:04:18Z</time>
      </trkpt>
      <trkpt lat="43.02838" lon="0.95663">
        <ele>461</ele>
        <time>2022-09-04T09:04:21Z</time>
      </trkpt>
      <trkpt lat="43.02839" lon="0.9566">
        <ele>461.6</ele>
        <time>2022-09-04T09:04:23Z</time>
      </trkpt>
      <trkpt lat="43.0284" lon="0.95654">
        <ele>462.2</ele>
        <time>2022-09-04T09:04:26Z</time>
      </trkpt>
      <trkpt lat="43.02843" lon="0.95653">
        <ele>462.6</ele>
        <time>2022-09-04T09:04:28Z</time>
      </trkpt>
      <trkpt lat="43.02843" lon="0.95651">
        <ele>462.8</ele>
        <time>2022-09-04T09:04:29Z</time>
      </trkpt>
      <trkpt lat="43.02844" lon="0.9565">
        <ele>463</ele>
        <time>2022-09-04T09:04:30Z</time>
      </trkpt>
      <trkpt lat="43.02844" lon="0.95648">
        <ele>463.2</ele>
        <time>2022-09-04T09:04:31Z</time>
      </trkpt>
      <trkpt lat="43.02846" lon="0.95643">
        <ele>463.6</ele>
        <time>2022-09-04T09:04:34Z</time>
      </trkpt>
      <trkpt lat="43.02847" lon="0.95643">
        <ele>463.8</ele>
        <time>2022-09-04T09:04:35Z</time>
      </trkpt>
      <trkpt lat="43.02849" lon="0.9564">
        <ele>464</ele>
        <time>2022-09-04T09:04:37Z</time>
      </trkpt>
      <trkpt lat="43.02849" lon="0.95634">
        <ele>465</ele>
        <time>2022-09-04T09:04:40Z</time>
      </trkpt>
      <trkpt lat="43.02852" lon="0.95633">
        <ele>465.2</ele>
        <time>2022-09-04T09:04:42Z</time>
      </trkpt>
      <trkpt lat="43.02854" lon="0.95624">
        <ele>466</ele>
        <time>2022-09-04T09:04:47Z</time>
      </trkpt>
      <trkpt lat="43.02857" lon="0.95618">
        <ele>466.8</ele>
        <time>2022-09-04T09:04:52Z</time>
      </trkpt>
      <trkpt lat="43.02858" lon="0.95616">
        <ele>467</ele>
        <time>2022-09-04T09:04:53Z</time>
      </trkpt>
      <trkpt lat="43.02862" lon="0.95613">
        <ele>467.6</ele>
        <time>2022-09-04T09:04:57Z</time>
      </trkpt>
      <trkpt lat="43.02862" lon="0.95611">
        <ele>467.8</ele>
        <time>2022-09-04T09:04:58Z</time>
      </trkpt>
      <trkpt lat="43.02863" lon="0.95606">
        <ele>468.2</ele>
        <time>2022-09-04T09:05:01Z</time>
      </trkpt>
      <trkpt lat="43.02867" lon="0.95602">
        <ele>469</ele>
        <time>2022-09-04T09:05:05Z</time>
      </trkpt>
      <trkpt lat="43.02867" lon="0.95598">
        <ele>469.2</ele>
        <time>2022-09-04T09:05:07Z</time>
      </trkpt>
      <trkpt lat="43.02868" lon="0.95597">
        <ele>469.4</ele>
        <time>2022-09-04T09:05:08Z</time>
      </trkpt>
      <trkpt lat="43.0287" lon="0.95595">
        <ele>469.6</ele>
        <time>2022-09-04T09:05:10Z</time>
      </trkpt>
      <trkpt lat="43.02874" lon="0.95589">
        <ele>470.4</ele>
        <time>2022-09-04T09:05:14Z</time>
      </trkpt>
      <trkpt lat="43.02876" lon="0.95585">
        <ele>471</ele>
        <time>2022-09-04T09:05:17Z</time>
      </trkpt>
      <trkpt lat="43.02879" lon="0.9558">
        <ele>471.2</ele>
        <time>2022-09-04T09:05:20Z</time>
      </trkpt>
      <trkpt lat="43.02879" lon="0.95579">
        <ele>471.4</ele>
        <time>2022-09-04T09:05:21Z</time>
      </trkpt>
      <trkpt lat="43.02881" lon="0.95573">
        <ele>471.8</ele>
        <time>2022-09-04T09:05:24Z</time>
      </trkpt>
      <trkpt lat="43.02883" lon="0.95568">
        <ele>472.4</ele>
        <time>2022-09-04T09:05:27Z</time>
      </trkpt>
      <trkpt lat="43.02887" lon="0.95559">
        <ele>473.2</ele>
        <time>2022-09-04T09:05:33Z</time>
      </trkpt>
      <trkpt lat="43.02888" lon="0.95554">
        <ele>473.6</ele>
        <time>2022-09-04T09:05:35Z</time>
      </trkpt>
      <trkpt lat="43.0289" lon="0.95546">
        <ele>474.2</ele>
        <time>2022-09-04T09:05:39Z</time>
      </trkpt>
      <trkpt lat="43.02892" lon="0.95539">
        <ele>474.6</ele>
        <time>2022-09-04T09:05:43Z</time>
      </trkpt>
      <trkpt lat="43.02895" lon="0.95531">
        <ele>475.4</ele>
        <time>2022-09-04T09:05:47Z</time>
      </trkpt>
      <trkpt lat="43.02896" lon="0.95526">
        <ele>475.8</ele>
        <time>2022-09-04T09:05:49Z</time>
      </trkpt>
      <trkpt lat="43.02899" lon="0.95515">
        <ele>477</ele>
        <time>2022-09-04T09:05:55Z</time>
      </trkpt>
      <trkpt lat="43.029" lon="0.95512">
        <ele>477.2</ele>
        <time>2022-09-04T09:05:57Z</time>
      </trkpt>
      <trkpt lat="43.02902" lon="0.95502">
        <ele>478</ele>
        <time>2022-09-04T09:06:02Z</time>
      </trkpt>
      <trkpt lat="43.02903" lon="0.95497">
        <ele>478.4</ele>
        <time>2022-09-04T09:06:05Z</time>
      </trkpt>
      <trkpt lat="43.02905" lon="0.95485">
        <ele>479</ele>
        <time>2022-09-04T09:06:11Z</time>
      </trkpt>
      <trkpt lat="43.02906" lon="0.95481">
        <ele>479.4</ele>
        <time>2022-09-04T09:06:13Z</time>
      </trkpt>
      <trkpt lat="43.02908" lon="0.95471">
        <ele>480</ele>
        <time>2022-09-04T09:06:19Z</time>
      </trkpt>
      <trkpt lat="43.02909" lon="0.95464">
        <ele>480.4</ele>
        <time>2022-09-04T09:06:22Z</time>
      </trkpt>
      <trkpt lat="43.02911" lon="0.95452">
        <ele>481.2</ele>
        <time>2022-09-04T09:06:28Z</time>
      </trkpt>
      <trkpt lat="43.02912" lon="0.95448">
        <ele>481.4</ele>
        <time>2022-09-04T09:06:30Z</time>
      </trkpt>
      <trkpt lat="43.02914" lon="0.95434">
        <ele>482.4</ele>
        <time>2022-09-04T09:06:37Z</time>
      </trkpt>
      <trkpt lat="43.02915" lon="0.95431">
        <ele>482.4</ele>
        <time>2022-09-04T09:06:39Z</time>
      </trkpt>
      <trkpt lat="43.02918" lon="0.95418">
        <ele>483.4</ele>
        <time>2022-09-04T09:06:46Z</time>
      </trkpt>
      <trkpt lat="43.02918" lon="0.95416">
        <ele>483.4</ele>
        <time>2022-09-04T09:06:47Z</time>
      </trkpt>
      <trkpt lat="43.02922" lon="0.95403">
        <ele>484.4</ele>
        <time>2022-09-04T09:06:54Z</time>
      </trkpt>
      <trkpt lat="43.02922" lon="0.95401">
        <ele>484.6</ele>
        <time>2022-09-04T09:06:55Z</time>
      </trkpt>
      <trkpt lat="43.02926" lon="0.95386">
        <ele>485.6</ele>
        <time>2022-09-04T09:07:03Z</time>
      </trkpt>
      <trkpt lat="43.02926" lon="0.95384">
        <ele>486</ele>
        <time>2022-09-04T09:07:04Z</time>
      </trkpt>
      <trkpt lat="43.02928" lon="0.95373">
        <ele>486.8</ele>
        <time>2022-09-04T09:07:10Z</time>
      </trkpt>
      <trkpt lat="43.0293" lon="0.95368">
        <ele>487.2</ele>
        <time>2022-09-04T09:07:13Z</time>
      </trkpt>
      <trkpt lat="43.0293" lon="0.95367">
        <ele>487.4</ele>
        <time>2022-09-04T09:07:14Z</time>
      </trkpt>
      <trkpt lat="43.0293" lon="0.95361">
        <ele>487.8</ele>
        <time>2022-09-04T09:07:17Z</time>
      </trkpt>
      <trkpt lat="43.02932" lon="0.95354">
        <ele>488.4</ele>
        <time>2022-09-04T09:07:21Z</time>
      </trkpt>
      <trkpt lat="43.02933" lon="0.95348">
        <ele>489</ele>
        <time>2022-09-04T09:07:24Z</time>
      </trkpt>
      <trkpt lat="43.02934" lon="0.95335">
        <ele>489.6</ele>
        <time>2022-09-04T09:07:30Z</time>
      </trkpt>
      <trkpt lat="43.02935" lon="0.95328">
        <ele>490.2</ele>
        <time>2022-09-04T09:07:34Z</time>
      </trkpt>
      <trkpt lat="43.02937" lon="0.95322">
        <ele>490.6</ele>
        <time>2022-09-04T09:07:38Z</time>
      </trkpt>
      <trkpt lat="43.02938" lon="0.95309">
        <ele>491.2</ele>
        <time>2022-09-04T09:07:44Z</time>
      </trkpt>
      <trkpt lat="43.02938" lon="0.95308">
        <ele>491.2</ele>
        <time>2022-09-04T09:07:45Z</time>
      </trkpt>
      <trkpt lat="43.02938" lon="0.95297">
        <ele>492.2</ele>
        <time>2022-09-04T09:07:50Z</time>
      </trkpt>
      <trkpt lat="43.02938" lon="0.95293">
        <ele>492.2</ele>
        <time>2022-09-04T09:07:52Z</time>
      </trkpt>
      <trkpt lat="43.02939" lon="0.95276">
        <ele>493.2</ele>
        <time>2022-09-04T09:08:01Z</time>
      </trkpt>
      <trkpt lat="43.02938" lon="0.95274">
        <ele>493.4</ele>
        <time>2022-09-04T09:08:02Z</time>
      </trkpt>
      <trkpt lat="43.02939" lon="0.95267">
        <ele>494</ele>
        <time>2022-09-04T09:08:05Z</time>
      </trkpt>
      <trkpt lat="43.02939" lon="0.95263">
        <ele>494.4</ele>
        <time>2022-09-04T09:08:07Z</time>
      </trkpt>
      <trkpt lat="43.02938" lon="0.95261">
        <ele>494.6</ele>
        <time>2022-09-04T09:08:08Z</time>
      </trkpt>
      <trkpt lat="43.02937" lon="0.95251">
        <ele>495.4</ele>
        <time>2022-09-04T09:08:14Z</time>
      </trkpt>
      <trkpt lat="43.02937" lon="0.95249">
        <ele>495.4</ele>
        <time>2022-09-04T09:08:15Z</time>
      </trkpt>
      <trkpt lat="43.02937" lon="0.95233">
        <ele>496.6</ele>
        <time>2022-09-04T09:08:23Z</time>
      </trkpt>
      <trkpt lat="43.02937" lon="0.95231">
        <ele>496.8</ele>
        <time>2022-09-04T09:08:24Z</time>
      </trkpt>
      <trkpt lat="43.02937" lon="0.95228">
        <ele>497.2</ele>
        <time>2022-09-04T09:08:26Z</time>
      </trkpt>
      <trkpt lat="43.02936" lon="0.95223">
        <ele>497.6</ele>
        <time>2022-09-04T09:08:28Z</time>
      </trkpt>
      <trkpt lat="43.02937" lon="0.95222">
        <ele>498</ele>
        <time>2022-09-04T09:08:29Z</time>
      </trkpt>
      <trkpt lat="43.02937" lon="0.9522">
        <ele>498.2</ele>
        <time>2022-09-04T09:08:30Z</time>
      </trkpt>
      <trkpt lat="43.0294" lon="0.95213">
        <ele>498.8</ele>
        <time>2022-09-04T09:08:34Z</time>
      </trkpt>
      <trkpt lat="43.02942" lon="0.9521">
        <ele>499.2</ele>
        <time>2022-09-04T09:08:37Z</time>
      </trkpt>
      <trkpt lat="43.02945" lon="0.95209">
        <ele>500</ele>
        <time>2022-09-04T09:08:39Z</time>
      </trkpt>
      <trkpt lat="43.02951" lon="0.95205">
        <ele>500.8</ele>
        <time>2022-09-04T09:08:43Z</time>
      </trkpt>
      <trkpt lat="43.02953" lon="0.95205">
        <ele>501</ele>
        <time>2022-09-04T09:08:44Z</time>
      </trkpt>
      <trkpt lat="43.02961" lon="0.95202">
        <ele>501.6</ele>
        <time>2022-09-04T09:08:48Z</time>
      </trkpt>
      <trkpt lat="43.02964" lon="0.95202">
        <ele>501.8</ele>
        <time>2022-09-04T09:08:50Z</time>
      </trkpt>
      <trkpt lat="43.02967" lon="0.95201">
        <ele>502</ele>
        <time>2022-09-04T09:08:52Z</time>
      </trkpt>
      <trkpt lat="43.02978" lon="0.952">
        <ele>503</ele>
        <time>2022-09-04T09:08:59Z</time>
      </trkpt>
      <trkpt lat="43.0298" lon="0.952">
        <ele>503</ele>
        <time>2022-09-04T09:09:00Z</time>
      </trkpt>
      <trkpt lat="43.02994" lon="0.95197">
        <ele>504</ele>
        <time>2022-09-04T09:09:09Z</time>
      </trkpt>
      <trkpt lat="43.03007" lon="0.95188">
        <ele>504.8</ele>
        <time>2022-09-04T09:09:18Z</time>
      </trkpt>
      <trkpt lat="43.0302" lon="0.95177">
        <ele>504.6</ele>
        <time>2022-09-04T09:09:26Z</time>
      </trkpt>
      <trkpt lat="43.03034" lon="0.95164">
        <ele>504.2</ele>
        <time>2022-09-04T09:09:33Z</time>
      </trkpt>
      <trkpt lat="43.03049" lon="0.95155">
        <ele>503.2</ele>
        <time>2022-09-04T09:09:38Z</time>
      </trkpt>
      <trkpt lat="43.03053" lon="0.95155">
        <ele>502.8</ele>
        <time>2022-09-04T09:09:39Z</time>
      </trkpt>
      <trkpt lat="43.03064" lon="0.95155">
        <ele>501.6</ele>
        <time>2022-09-04T09:09:42Z</time>
      </trkpt>
      <trkpt lat="43.03067" lon="0.95156">
        <ele>501</ele>
        <time>2022-09-04T09:09:43Z</time>
      </trkpt>
      <trkpt lat="43.0307" lon="0.95155">
        <ele>500.4</ele>
        <time>2022-09-04T09:09:44Z</time>
      </trkpt>
      <trkpt lat="43.03077" lon="0.95147">
        <ele>499.4</ele>
        <time>2022-09-04T09:09:47Z</time>
      </trkpt>
      <trkpt lat="43.03076" lon="0.95123">
        <ele>497.2</ele>
        <time>2022-09-04T09:09:50Z</time>
      </trkpt>
      <trkpt lat="43.03078" lon="0.95103">
        <ele>495.2</ele>
        <time>2022-09-04T09:09:52Z</time>
      </trkpt>
      <trkpt lat="43.03082" lon="0.95079">
        <ele>493.8</ele>
        <time>2022-09-04T09:09:54Z</time>
      </trkpt>
      <trkpt lat="43.03086" lon="0.9504">
        <ele>492.4</ele>
        <time>2022-09-04T09:09:57Z</time>
      </trkpt>
      <trkpt lat="43.03089" lon="0.95002">
        <ele>491.4</ele>
        <time>2022-09-04T09:10:00Z</time>
      </trkpt>
      <trkpt lat="43.03091" lon="0.94978">
        <ele>490.2</ele>
        <time>2022-09-04T09:10:02Z</time>
      </trkpt>
      <trkpt lat="43.03093" lon="0.94962">
        <ele>489.2</ele>
        <time>2022-09-04T09:10:04Z</time>
      </trkpt>
      <trkpt lat="43.03095" lon="0.94956">
        <ele>489</ele>
        <time>2022-09-04T09:10:05Z</time>
      </trkpt>
      <trkpt lat="43.03103" lon="0.94932">
        <ele>487.8</ele>
        <time>2022-09-04T09:10:08Z</time>
      </trkpt>
      <trkpt lat="43.03109" lon="0.94915">
        <ele>486.6</ele>
        <time>2022-09-04T09:10:10Z</time>
      </trkpt>
      <trkpt lat="43.03116" lon="0.94895">
        <ele>485.6</ele>
        <time>2022-09-04T09:10:12Z</time>
      </trkpt>
      <trkpt lat="43.03123" lon="0.94874">
        <ele>485.4</ele>
        <time>2022-09-04T09:10:14Z</time>
      </trkpt>
      <trkpt lat="43.03127" lon="0.94864">
        <ele>484.6</ele>
        <time>2022-09-04T09:10:15Z</time>
      </trkpt>
      <trkpt lat="43.03133" lon="0.94845">
        <ele>483.4</ele>
        <time>2022-09-04T09:10:17Z</time>
      </trkpt>
      <trkpt lat="43.03138" lon="0.94831">
        <ele>482.6</ele>
        <time>2022-09-04T09:10:19Z</time>
      </trkpt>
      <trkpt lat="43.03141" lon="0.94825">
        <ele>482.2</ele>
        <time>2022-09-04T09:10:20Z</time>
      </trkpt>
      <trkpt lat="43.03144" lon="0.94818">
        <ele>481.8</ele>
        <time>2022-09-04T09:10:21Z</time>
      </trkpt>
      <trkpt lat="43.03152" lon="0.94805">
        <ele>480.8</ele>
        <time>2022-09-04T09:10:23Z</time>
      </trkpt>
      <trkpt lat="43.03156" lon="0.94798">
        <ele>480.4</ele>
        <time>2022-09-04T09:10:24Z</time>
      </trkpt>
      <trkpt lat="43.03165" lon="0.94785">
        <ele>479.6</ele>
        <time>2022-09-04T09:10:26Z</time>
      </trkpt>
      <trkpt lat="43.03174" lon="0.94779">
        <ele>479</ele>
        <time>2022-09-04T09:10:28Z</time>
      </trkpt>
      <trkpt lat="43.03183" lon="0.94771">
        <ele>478.6</ele>
        <time>2022-09-04T09:10:30Z</time>
      </trkpt>
      <trkpt lat="43.03198" lon="0.94754">
        <ele>477.4</ele>
        <time>2022-09-04T09:10:33Z</time>
      </trkpt>
      <trkpt lat="43.03216" lon="0.94736">
        <ele>476.2</ele>
        <time>2022-09-04T09:10:36Z</time>
      </trkpt>
      <trkpt lat="43.03226" lon="0.94726">
        <ele>475.2</ele>
        <time>2022-09-04T09:10:38Z</time>
      </trkpt>
      <trkpt lat="43.0323" lon="0.94723">
        <ele>475</ele>
        <time>2022-09-04T09:10:39Z</time>
      </trkpt>
      <trkpt lat="43.03234" lon="0.9472">
        <ele>475.2</ele>
        <time>2022-09-04T09:10:40Z</time>
      </trkpt>
      <trkpt lat="43.0324" lon="0.94715">
        <ele>475.2</ele>
        <time>2022-09-04T09:10:42Z</time>
      </trkpt>
      <trkpt lat="43.03245" lon="0.94716">
        <ele>475.4</ele>
        <time>2022-09-04T09:10:44Z</time>
      </trkpt>
      <trkpt lat="43.03248" lon="0.94718">
        <ele>476</ele>
        <time>2022-09-04T09:10:46Z</time>
      </trkpt>
      <trkpt lat="43.0325" lon="0.9472">
        <ele>476.2</ele>
        <time>2022-09-04T09:10:47Z</time>
      </trkpt>
      <trkpt lat="43.03254" lon="0.94723">
        <ele>476.6</ele>
        <time>2022-09-04T09:10:50Z</time>
      </trkpt>
      <trkpt lat="43.0326" lon="0.9473">
        <ele>477.2</ele>
        <time>2022-09-04T09:10:54Z</time>
      </trkpt>
      <trkpt lat="43.03263" lon="0.94733">
        <ele>477.4</ele>
        <time>2022-09-04T09:10:56Z</time>
      </trkpt>
      <trkpt lat="43.03271" lon="0.94745">
        <ele>478.2</ele>
        <time>2022-09-04T09:11:03Z</time>
      </trkpt>
      <trkpt lat="43.03274" lon="0.94748">
        <ele>478.6</ele>
        <time>2022-09-04T09:11:05Z</time>
      </trkpt>
      <trkpt lat="43.03281" lon="0.94755">
        <ele>479.6</ele>
        <time>2022-09-04T09:11:11Z</time>
      </trkpt>
      <trkpt lat="43.03282" lon="0.94757">
        <ele>479.8</ele>
        <time>2022-09-04T09:11:12Z</time>
      </trkpt>
      <trkpt lat="43.03287" lon="0.94761">
        <ele>480.8</ele>
        <time>2022-09-04T09:11:16Z</time>
      </trkpt>
      <trkpt lat="43.0329" lon="0.94763">
        <ele>481.2</ele>
        <time>2022-09-04T09:11:18Z</time>
      </trkpt>
      <trkpt lat="43.03291" lon="0.94764">
        <ele>481.2</ele>
        <time>2022-09-04T09:11:19Z</time>
      </trkpt>
      <trkpt lat="43.03293" lon="0.94767">
        <ele>481.8</ele>
        <time>2022-09-04T09:11:21Z</time>
      </trkpt>
      <trkpt lat="43.03296" lon="0.94772">
        <ele>482.8</ele>
        <time>2022-09-04T09:11:25Z</time>
      </trkpt>
      <trkpt lat="43.03297" lon="0.94773">
        <ele>483</ele>
        <time>2022-09-04T09:11:26Z</time>
      </trkpt>
      <trkpt lat="43.033" lon="0.94777">
        <ele>483.8</ele>
        <time>2022-09-04T09:11:29Z</time>
      </trkpt>
      <trkpt lat="43.03305" lon="0.94783">
        <ele>484.8</ele>
        <time>2022-09-04T09:11:34Z</time>
      </trkpt>
      <trkpt lat="43.0331" lon="0.94789">
        <ele>486.2</ele>
        <time>2022-09-04T09:11:39Z</time>
      </trkpt>
      <trkpt lat="43.03313" lon="0.9479">
        <ele>486.6</ele>
        <time>2022-09-04T09:11:41Z</time>
      </trkpt>
      <trkpt lat="43.03316" lon="0.94795">
        <ele>487.4</ele>
        <time>2022-09-04T09:11:44Z</time>
      </trkpt>
      <trkpt lat="43.0332" lon="0.94796">
        <ele>487.8</ele>
        <time>2022-09-04T09:11:47Z</time>
      </trkpt>
      <trkpt lat="43.03322" lon="0.94798">
        <ele>488.4</ele>
        <time>2022-09-04T09:11:49Z</time>
      </trkpt>
      <trkpt lat="43.03324" lon="0.94802">
        <ele>489</ele>
        <time>2022-09-04T09:11:51Z</time>
      </trkpt>
      <trkpt lat="43.03325" lon="0.94802">
        <ele>489</ele>
        <time>2022-09-04T09:11:52Z</time>
      </trkpt>
      <trkpt lat="43.03326" lon="0.94802">
        <ele>489.2</ele>
        <time>2022-09-04T09:11:53Z</time>
      </trkpt>
      <trkpt lat="43.03327" lon="0.94802">
        <ele>489.4</ele>
        <time>2022-09-04T09:11:54Z</time>
      </trkpt>
      <trkpt lat="43.03334" lon="0.94802">
        <ele>490.6</ele>
        <time>2022-09-04T09:12:00Z</time>
      </trkpt>
      <trkpt lat="43.03342" lon="0.94802">
        <ele>491.6</ele>
        <time>2022-09-04T09:12:07Z</time>
      </trkpt>
      <trkpt lat="43.03349" lon="0.94799">
        <ele>492.4</ele>
        <time>2022-09-04T09:12:13Z</time>
      </trkpt>
      <trkpt lat="43.03351" lon="0.94798">
        <ele>492.4</ele>
        <time>2022-09-04T09:12:14Z</time>
      </trkpt>
      <trkpt lat="43.03353" lon="0.94798">
        <ele>492.8</ele>
        <time>2022-09-04T09:12:16Z</time>
      </trkpt>
      <trkpt lat="43.03363" lon="0.94794">
        <ele>493.6</ele>
        <time>2022-09-04T09:12:23Z</time>
      </trkpt>
      <trkpt lat="43.03364" lon="0.94793">
        <ele>493.8</ele>
        <time>2022-09-04T09:12:24Z</time>
      </trkpt>
      <trkpt lat="43.03372" lon="0.94792">
        <ele>494.2</ele>
        <time>2022-09-04T09:12:30Z</time>
      </trkpt>
      <trkpt lat="43.03381" lon="0.9479">
        <ele>494.4</ele>
        <time>2022-09-04T09:12:36Z</time>
      </trkpt>
      <trkpt lat="43.03396" lon="0.94786">
        <ele>494</ele>
        <time>2022-09-04T09:12:43Z</time>
      </trkpt>
      <trkpt lat="43.03412" lon="0.94782">
        <ele>493.8</ele>
        <time>2022-09-04T09:12:49Z</time>
      </trkpt>
      <trkpt lat="43.03434" lon="0.94778">
        <ele>493.8</ele>
        <time>2022-09-04T09:12:56Z</time>
      </trkpt>
      <trkpt lat="43.03452" lon="0.94778">
        <ele>495</ele>
        <time>2022-09-04T09:13:03Z</time>
      </trkpt>
      <trkpt lat="43.03455" lon="0.94778">
        <ele>495.4</ele>
        <time>2022-09-04T09:13:04Z</time>
      </trkpt>
      <trkpt lat="43.03462" lon="0.94778">
        <ele>496.2</ele>
        <time>2022-09-04T09:13:08Z</time>
      </trkpt>
      <trkpt lat="43.03466" lon="0.94779">
        <ele>496.6</ele>
        <time>2022-09-04T09:13:10Z</time>
      </trkpt>
      <trkpt lat="43.03472" lon="0.94781">
        <ele>497.2</ele>
        <time>2022-09-04T09:13:14Z</time>
      </trkpt>
      <trkpt lat="43.03478" lon="0.94782">
        <ele>498</ele>
        <time>2022-09-04T09:13:17Z</time>
      </trkpt>
      <trkpt lat="43.03487" lon="0.94785">
        <ele>498.4</ele>
        <time>2022-09-04T09:13:22Z</time>
      </trkpt>
      <trkpt lat="43.03492" lon="0.94787">
        <ele>498.6</ele>
        <time>2022-09-04T09:13:25Z</time>
      </trkpt>
      <trkpt lat="43.03505" lon="0.94793">
        <ele>499</ele>
        <time>2022-09-04T09:13:32Z</time>
      </trkpt>
      <trkpt lat="43.03518" lon="0.94806">
        <ele>497.8</ele>
        <time>2022-09-04T09:13:37Z</time>
      </trkpt>
      <trkpt lat="43.0352" lon="0.94818">
        <ele>496.8</ele>
        <time>2022-09-04T09:13:39Z</time>
      </trkpt>
      <trkpt lat="43.03519" lon="0.94824">
        <ele>496.2</ele>
        <time>2022-09-04T09:13:40Z</time>
      </trkpt>
      <trkpt lat="43.03517" lon="0.94835">
        <ele>495.6</ele>
        <time>2022-09-04T09:13:42Z</time>
      </trkpt>
      <trkpt lat="43.03516" lon="0.9485">
        <ele>494.2</ele>
        <time>2022-09-04T09:13:45Z</time>
      </trkpt>
      <trkpt lat="43.0352" lon="0.94871">
        <ele>493.6</ele>
        <time>2022-09-04T09:13:50Z</time>
      </trkpt>
      <trkpt lat="43.03528" lon="0.94891">
        <ele>493.4</ele>
        <time>2022-09-04T09:13:57Z</time>
      </trkpt>
      <trkpt lat="43.03537" lon="0.94895">
        <ele>494.6</ele>
        <time>2022-09-04T09:14:03Z</time>
      </trkpt>
      <trkpt lat="43.0354" lon="0.94898">
        <ele>495.4</ele>
        <time>2022-09-04T09:14:08Z</time>
      </trkpt>
      <trkpt lat="43.03542" lon="0.94899">
        <ele>495.4</ele>
        <time>2022-09-04T09:14:09Z</time>
      </trkpt>
      <trkpt lat="43.03551" lon="0.94901">
        <ele>496.4</ele>
        <time>2022-09-04T09:14:16Z</time>
      </trkpt>
      <trkpt lat="43.03562" lon="0.94898">
        <ele>495.6</ele>
        <time>2022-09-04T09:14:23Z</time>
      </trkpt>
      <trkpt lat="43.03564" lon="0.94897">
        <ele>495.4</ele>
        <time>2022-09-04T09:14:24Z</time>
      </trkpt>
      <trkpt lat="43.03568" lon="0.94893">
        <ele>494.2</ele>
        <time>2022-09-04T09:14:27Z</time>
      </trkpt>
      <trkpt lat="43.03572" lon="0.94892">
        <ele>493.8</ele>
        <time>2022-09-04T09:14:29Z</time>
      </trkpt>
      <trkpt lat="43.03577" lon="0.9489">
        <ele>492.8</ele>
        <time>2022-09-04T09:14:31Z</time>
      </trkpt>
      <trkpt lat="43.0358" lon="0.94887">
        <ele>492.4</ele>
        <time>2022-09-04T09:14:33Z</time>
      </trkpt>
      <trkpt lat="43.03582" lon="0.94885">
        <ele>492</ele>
        <time>2022-09-04T09:14:34Z</time>
      </trkpt>
      <trkpt lat="43.03583" lon="0.94883">
        <ele>491.8</ele>
        <time>2022-09-04T09:14:35Z</time>
      </trkpt>
      <trkpt lat="43.0359" lon="0.94875">
        <ele>490.6</ele>
        <time>2022-09-04T09:14:39Z</time>
      </trkpt>
      <trkpt lat="43.03597" lon="0.94868">
        <ele>489.8</ele>
        <time>2022-09-04T09:14:43Z</time>
      </trkpt>
      <trkpt lat="43.036" lon="0.94866">
        <ele>489.4</ele>
        <time>2022-09-04T09:14:44Z</time>
      </trkpt>
      <trkpt lat="43.03608" lon="0.94859">
        <ele>488.4</ele>
        <time>2022-09-04T09:14:48Z</time>
      </trkpt>
      <trkpt lat="43.0361" lon="0.94856">
        <ele>488.2</ele>
        <time>2022-09-04T09:14:49Z</time>
      </trkpt>
      <trkpt lat="43.03616" lon="0.94851">
        <ele>487.2</ele>
        <time>2022-09-04T09:14:52Z</time>
      </trkpt>
      <trkpt lat="43.03632" lon="0.94841">
        <ele>485.8</ele>
        <time>2022-09-04T09:17:11Z</time>
      </trkpt>
      <trkpt lat="43.03637" lon="0.94842">
        <ele>485.6</ele>
        <time>2022-09-04T09:17:13Z</time>
      </trkpt>
      <trkpt lat="43.03639" lon="0.94841">
        <ele>485.4</ele>
        <time>2022-09-04T09:17:14Z</time>
      </trkpt>
      <trkpt lat="43.03647" lon="0.94843">
        <ele>484.8</ele>
        <time>2022-09-04T09:17:17Z</time>
      </trkpt>
      <trkpt lat="43.03656" lon="0.94846">
        <ele>484.4</ele>
        <time>2022-09-04T09:17:20Z</time>
      </trkpt>
      <trkpt lat="43.03668" lon="0.9485">
        <ele>484</ele>
        <time>2022-09-04T09:17:25Z</time>
      </trkpt>
      <trkpt lat="43.03672" lon="0.94851">
        <ele>483.6</ele>
        <time>2022-09-04T09:17:27Z</time>
      </trkpt>
      <trkpt lat="43.03676" lon="0.94852">
        <ele>484</ele>
        <time>2022-09-04T09:17:30Z</time>
      </trkpt>
      <trkpt lat="43.0369" lon="0.94859">
        <ele>484.2</ele>
        <time>2022-09-04T09:17:39Z</time>
      </trkpt>
      <trkpt lat="43.03702" lon="0.94864">
        <ele>484</ele>
        <time>2022-09-04T09:17:45Z</time>
      </trkpt>
      <trkpt lat="43.03704" lon="0.94864">
        <ele>484</ele>
        <time>2022-09-04T09:17:46Z</time>
      </trkpt>
      <trkpt lat="43.0372" lon="0.94871">
        <ele>484</ele>
        <time>2022-09-04T09:17:53Z</time>
      </trkpt>
      <trkpt lat="43.03765" lon="0.94888">
        <ele>483.2</ele>
        <time>2022-09-04T09:18:12Z</time>
      </trkpt>
      <trkpt lat="43.03767" lon="0.9489">
        <ele>483</ele>
        <time>2022-09-04T09:18:13Z</time>
      </trkpt>
      <trkpt lat="43.03786" lon="0.94896">
        <ele>482.4</ele>
        <time>2022-09-04T09:18:20Z</time>
      </trkpt>
      <trkpt lat="43.03798" lon="0.94903">
        <ele>482</ele>
        <time>2022-09-04T09:18:25Z</time>
      </trkpt>
      <trkpt lat="43.0381" lon="0.94909">
        <ele>481.2</ele>
        <time>2022-09-04T09:18:29Z</time>
      </trkpt>
      <trkpt lat="43.03815" lon="0.94912">
        <ele>481</ele>
        <time>2022-09-04T09:18:31Z</time>
      </trkpt>
      <trkpt lat="43.03834" lon="0.94923">
        <ele>480.2</ele>
        <time>2022-09-04T09:18:37Z</time>
      </trkpt>
      <trkpt lat="43.03845" lon="0.94932">
        <ele>479.6</ele>
        <time>2022-09-04T09:18:41Z</time>
      </trkpt>
      <trkpt lat="43.03849" lon="0.94937">
        <ele>479</ele>
        <time>2022-09-04T09:18:43Z</time>
      </trkpt>
      <trkpt lat="43.03862" lon="0.94951">
        <ele>477.8</ele>
        <time>2022-09-04T09:18:48Z</time>
      </trkpt>
      <trkpt lat="43.03872" lon="0.94962">
        <ele>476.8</ele>
        <time>2022-09-04T09:18:52Z</time>
      </trkpt>
      <trkpt lat="43.03875" lon="0.94965">
        <ele>476.2</ele>
        <time>2022-09-04T09:18:53Z</time>
      </trkpt>
      <trkpt lat="43.0388" lon="0.94969">
        <ele>475.4</ele>
        <time>2022-09-04T09:18:56Z</time>
      </trkpt>
      <trkpt lat="43.03882" lon="0.94968">
        <ele>474.8</ele>
        <time>2022-09-04T09:18:57Z</time>
      </trkpt>
      <trkpt lat="43.03885" lon="0.94967">
        <ele>474.4</ele>
        <time>2022-09-04T09:18:58Z</time>
      </trkpt>
      <trkpt lat="43.0389" lon="0.94963">
        <ele>473.2</ele>
        <time>2022-09-04T09:19:01Z</time>
      </trkpt>
      <trkpt lat="43.03892" lon="0.94961">
        <ele>472.8</ele>
        <time>2022-09-04T09:19:02Z</time>
      </trkpt>
      <trkpt lat="43.03895" lon="0.94959">
        <ele>471.8</ele>
        <time>2022-09-04T09:19:04Z</time>
      </trkpt>
      <trkpt lat="43.039" lon="0.94957">
        <ele>470.6</ele>
        <time>2022-09-04T09:19:07Z</time>
      </trkpt>
      <trkpt lat="43.03901" lon="0.94958">
        <ele>470.2</ele>
        <time>2022-09-04T09:19:08Z</time>
      </trkpt>
      <trkpt lat="43.03904" lon="0.94961">
        <ele>469.6</ele>
        <time>2022-09-04T09:19:10Z</time>
      </trkpt>
      <trkpt lat="43.03912" lon="0.94968">
        <ele>468.6</ele>
        <time>2022-09-04T09:19:13Z</time>
      </trkpt>
      <trkpt lat="43.03913" lon="0.94969">
        <ele>468.2</ele>
        <time>2022-09-04T09:19:14Z</time>
      </trkpt>
      <trkpt lat="43.03914" lon="0.94971">
        <ele>468</ele>
        <time>2022-09-04T09:19:15Z</time>
      </trkpt>
      <trkpt lat="43.03916" lon="0.94975">
        <ele>467.4</ele>
        <time>2022-09-04T09:19:17Z</time>
      </trkpt>
      <trkpt lat="43.03918" lon="0.94977">
        <ele>467.2</ele>
        <time>2022-09-04T09:19:18Z</time>
      </trkpt>
      <trkpt lat="43.03922" lon="0.94976">
        <ele>466</ele>
        <time>2022-09-04T09:19:21Z</time>
      </trkpt>
      <trkpt lat="43.03925" lon="0.94976">
        <ele>465.6</ele>
        <time>2022-09-04T09:19:22Z</time>
      </trkpt>
      <trkpt lat="43.03929" lon="0.94973">
        <ele>464.8</ele>
        <time>2022-09-04T09:19:24Z</time>
      </trkpt>
      <trkpt lat="43.03934" lon="0.94969">
        <ele>463.8</ele>
        <time>2022-09-04T09:19:27Z</time>
      </trkpt>
      <trkpt lat="43.03939" lon="0.94965">
        <ele>462.6</ele>
        <time>2022-09-04T09:19:30Z</time>
      </trkpt>
      <trkpt lat="43.03944" lon="0.94966">
        <ele>461.6</ele>
        <time>2022-09-04T09:19:33Z</time>
      </trkpt>
      <trkpt lat="43.0395" lon="0.94971">
        <ele>460.8</ele>
        <time>2022-09-04T09:19:36Z</time>
      </trkpt>
      <trkpt lat="43.03952" lon="0.94973">
        <ele>460.2</ele>
        <time>2022-09-04T09:19:37Z</time>
      </trkpt>
      <trkpt lat="43.03957" lon="0.94976">
        <ele>459.2</ele>
        <time>2022-09-04T09:19:39Z</time>
      </trkpt>
      <trkpt lat="43.03964" lon="0.94981">
        <ele>458</ele>
        <time>2022-09-04T09:19:42Z</time>
      </trkpt>
      <trkpt lat="43.03968" lon="0.94985">
        <ele>457</ele>
        <time>2022-09-04T09:19:44Z</time>
      </trkpt>
      <trkpt lat="43.03969" lon="0.94986">
        <ele>456.4</ele>
        <time>2022-09-04T09:19:45Z</time>
      </trkpt>
      <trkpt lat="43.03974" lon="0.9499">
        <ele>455.4</ele>
        <time>2022-09-04T09:19:47Z</time>
      </trkpt>
      <trkpt lat="43.03981" lon="0.94996">
        <ele>454.2</ele>
        <time>2022-09-04T09:19:50Z</time>
      </trkpt>
      <trkpt lat="43.03982" lon="0.94998">
        <ele>453.6</ele>
        <time>2022-09-04T09:19:51Z</time>
      </trkpt>
      <trkpt lat="43.03986" lon="0.95003">
        <ele>453</ele>
        <time>2022-09-04T09:19:53Z</time>
      </trkpt>
      <trkpt lat="43.03993" lon="0.95011">
        <ele>451.4</ele>
        <time>2022-09-04T09:19:56Z</time>
      </trkpt>
      <trkpt lat="43.03994" lon="0.95013">
        <ele>451</ele>
        <time>2022-09-04T09:19:57Z</time>
      </trkpt>
      <trkpt lat="43.03996" lon="0.95018">
        <ele>450.4</ele>
        <time>2022-09-04T09:19:59Z</time>
      </trkpt>
      <trkpt lat="43.03999" lon="0.95024">
        <ele>449.4</ele>
        <time>2022-09-04T09:20:02Z</time>
      </trkpt>
      <trkpt lat="43.04004" lon="0.95025">
        <ele>448.2</ele>
        <time>2022-09-04T09:20:05Z</time>
      </trkpt>
      <trkpt lat="43.04008" lon="0.95024">
        <ele>447.8</ele>
        <time>2022-09-04T09:20:07Z</time>
      </trkpt>
      <trkpt lat="43.04012" lon="0.9502">
        <ele>447</ele>
        <time>2022-09-04T09:20:09Z</time>
      </trkpt>
      <trkpt lat="43.04018" lon="0.95013">
        <ele>446</ele>
        <time>2022-09-04T09:20:13Z</time>
      </trkpt>
      <trkpt lat="43.04019" lon="0.95011">
        <ele>445.6</ele>
        <time>2022-09-04T09:20:14Z</time>
      </trkpt>
      <trkpt lat="43.04022" lon="0.95005">
        <ele>444.8</ele>
        <time>2022-09-04T09:20:16Z</time>
      </trkpt>
      <trkpt lat="43.04025" lon="0.94997">
        <ele>443.8</ele>
        <time>2022-09-04T09:20:19Z</time>
      </trkpt>
      <trkpt lat="43.04028" lon="0.94991">
        <ele>443.2</ele>
        <time>2022-09-04T09:20:21Z</time>
      </trkpt>
      <trkpt lat="43.04028" lon="0.94988">
        <ele>442.8</ele>
        <time>2022-09-04T09:20:22Z</time>
      </trkpt>
      <trkpt lat="43.04033" lon="0.94975">
        <ele>441.4</ele>
        <time>2022-09-04T09:20:26Z</time>
      </trkpt>
      <trkpt lat="43.04035" lon="0.94966">
        <ele>440.2</ele>
        <time>2022-09-04T09:20:29Z</time>
      </trkpt>
      <trkpt lat="43.04037" lon="0.94958">
        <ele>439</ele>
        <time>2022-09-04T09:20:32Z</time>
      </trkpt>
      <trkpt lat="43.0404" lon="0.94948">
        <ele>438</ele>
        <time>2022-09-04T09:20:36Z</time>
      </trkpt>
      <trkpt lat="43.04042" lon="0.94943">
        <ele>437</ele>
        <time>2022-09-04T09:20:38Z</time>
      </trkpt>
      <trkpt lat="43.04042" lon="0.9494">
        <ele>436.6</ele>
        <time>2022-09-04T09:20:39Z</time>
      </trkpt>
      <trkpt lat="43.04044" lon="0.94931">
        <ele>435.6</ele>
        <time>2022-09-04T09:20:42Z</time>
      </trkpt>
      <trkpt lat="43.04044" lon="0.94926">
        <ele>434.8</ele>
        <time>2022-09-04T09:20:44Z</time>
      </trkpt>
      <trkpt lat="43.04044" lon="0.94923">
        <ele>434.4</ele>
        <time>2022-09-04T09:20:45Z</time>
      </trkpt>
      <trkpt lat="43.04045" lon="0.94914">
        <ele>433.4</ele>
        <time>2022-09-04T09:20:48Z</time>
      </trkpt>
      <trkpt lat="43.04046" lon="0.94904">
        <ele>432.2</ele>
        <time>2022-09-04T09:20:51Z</time>
      </trkpt>
      <trkpt lat="43.04046" lon="0.94901">
        <ele>432</ele>
        <time>2022-09-04T09:20:52Z</time>
      </trkpt>
      <trkpt lat="43.04046" lon="0.94895">
        <ele>431.2</ele>
        <time>2022-09-04T09:20:54Z</time>
      </trkpt>
      <trkpt lat="43.04047" lon="0.94887">
        <ele>430</ele>
        <time>2022-09-04T09:20:57Z</time>
      </trkpt>
      <trkpt lat="43.04047" lon="0.94884">
        <ele>429.4</ele>
        <time>2022-09-04T09:20:58Z</time>
      </trkpt>
      <trkpt lat="43.04048" lon="0.94876">
        <ele>428.8</ele>
        <time>2022-09-04T09:21:01Z</time>
      </trkpt>
      <trkpt lat="43.04047" lon="0.94869">
        <ele>427.8</ele>
        <time>2022-09-04T09:21:04Z</time>
      </trkpt>
      <trkpt lat="43.04043" lon="0.94835">
        <ele>424.6</ele>
        <time>2022-09-04T09:23:26Z</time>
      </trkpt>
      <trkpt lat="43.04041" lon="0.9483">
        <ele>424</ele>
        <time>2022-09-04T09:23:28Z</time>
      </trkpt>
      <trkpt lat="43.0404" lon="0.94828">
        <ele>423.6</ele>
        <time>2022-09-04T09:23:29Z</time>
      </trkpt>
      <trkpt lat="43.04036" lon="0.94819">
        <ele>422.8</ele>
        <time>2022-09-04T09:23:34Z</time>
      </trkpt>
      <trkpt lat="43.04033" lon="0.94814">
        <ele>422.4</ele>
        <time>2022-09-04T09:23:37Z</time>
      </trkpt>
      <trkpt lat="43.04037" lon="0.9479">
        <ele>417.2</ele>
        <time>2022-09-04T09:24:12Z</time>
      </trkpt>
      <trkpt lat="43.0404" lon="0.94785">
        <ele>417</ele>
        <time>2022-09-04T09:24:14Z</time>
      </trkpt>
      <trkpt lat="43.04044" lon="0.94781">
        <ele>416.6</ele>
        <time>2022-09-04T09:24:16Z</time>
      </trkpt>
      <trkpt lat="43.04051" lon="0.94771">
        <ele>417</ele>
        <time>2022-09-04T09:24:20Z</time>
      </trkpt>
      <trkpt lat="43.04059" lon="0.94751">
        <ele>418.2</ele>
        <time>2022-09-04T09:24:25Z</time>
      </trkpt>
      <trkpt lat="43.04061" lon="0.94747">
        <ele>418.4</ele>
        <time>2022-09-04T09:24:26Z</time>
      </trkpt>
      <trkpt lat="43.04066" lon="0.94738">
        <ele>419.4</ele>
        <time>2022-09-04T09:24:29Z</time>
      </trkpt>
      <trkpt lat="43.04073" lon="0.94726">
        <ele>420.4</ele>
        <time>2022-09-04T09:24:34Z</time>
      </trkpt>
      <trkpt lat="43.04075" lon="0.94724">
        <ele>421.4</ele>
        <time>2022-09-04T09:24:38Z</time>
      </trkpt>
      <trkpt lat="43.04075" lon="0.94723">
        <ele>421.6</ele>
        <time>2022-09-04T09:24:39Z</time>
      </trkpt>
      <trkpt lat="43.04104" lon="0.94697">
        <ele>420</ele>
        <time>2022-09-04T09:27:53Z</time>
      </trkpt>
      <trkpt lat="43.04108" lon="0.94692">
        <ele>419.8</ele>
        <time>2022-09-04T09:27:55Z</time>
      </trkpt>
      <trkpt lat="43.04116" lon="0.94679">
        <ele>419.6</ele>
        <time>2022-09-04T09:28:01Z</time>
      </trkpt>
      <trkpt lat="43.04122" lon="0.94669">
        <ele>420</ele>
        <time>2022-09-04T09:28:07Z</time>
      </trkpt>
      <trkpt lat="43.04123" lon="0.94667">
        <ele>420.2</ele>
        <time>2022-09-04T09:28:08Z</time>
      </trkpt>
      <trkpt lat="43.04124" lon="0.94658">
        <ele>420.6</ele>
        <time>2022-09-04T09:28:12Z</time>
      </trkpt>
      <trkpt lat="43.0413" lon="0.94595">
        <ele>427</ele>
        <time>2022-09-04T09:30:04Z</time>
      </trkpt>
      <trkpt lat="43.04136" lon="0.94579">
        <ele>427.6</ele>
        <time>2022-09-04T09:30:11Z</time>
      </trkpt>
      <trkpt lat="43.04136" lon="0.94577">
        <ele>427.6</ele>
        <time>2022-09-04T09:30:12Z</time>
      </trkpt>
      <trkpt lat="43.04138" lon="0.94572">
        <ele>428</ele>
        <time>2022-09-04T09:30:14Z</time>
      </trkpt>
      <trkpt lat="43.04141" lon="0.94568">
        <ele>428.2</ele>
        <time>2022-09-04T09:30:16Z</time>
      </trkpt>
      <trkpt lat="43.04143" lon="0.9456">
        <ele>428.2</ele>
        <time>2022-09-04T09:30:19Z</time>
      </trkpt>
      <trkpt lat="43.04156" lon="0.94503">
        <ele>428.6</ele>
        <time>2022-09-04T09:30:45Z</time>
      </trkpt>
      <trkpt lat="43.04155" lon="0.94497">
        <ele>428.6</ele>
        <time>2022-09-04T09:30:47Z</time>
      </trkpt>
      <trkpt lat="43.04153" lon="0.94478">
        <ele>428.2</ele>
        <time>2022-09-04T09:30:54Z</time>
      </trkpt>
      <trkpt lat="43.04158" lon="0.94461">
        <ele>428.8</ele>
        <time>2022-09-04T09:31:00Z</time>
      </trkpt>
      <trkpt lat="43.04159" lon="0.94454">
        <ele>429</ele>
        <time>2022-09-04T09:31:02Z</time>
      </trkpt>
      <trkpt lat="43.04161" lon="0.94443">
        <ele>430</ele>
        <time>2022-09-04T09:31:06Z</time>
      </trkpt>
      <trkpt lat="43.04201" lon="0.94377">
        <ele>433.6</ele>
        <time>2022-09-04T09:35:12Z</time>
      </trkpt>
      <trkpt lat="43.04205" lon="0.94376">
        <ele>433.6</ele>
        <time>2022-09-04T09:35:14Z</time>
      </trkpt>
      <trkpt lat="43.04209" lon="0.94375">
        <ele>433.8</ele>
        <time>2022-09-04T09:35:16Z</time>
      </trkpt>
      <trkpt lat="43.04216" lon="0.94374">
        <ele>434.4</ele>
        <time>2022-09-04T09:35:20Z</time>
      </trkpt>
      <trkpt lat="43.04217" lon="0.94374">
        <ele>434.6</ele>
        <time>2022-09-04T09:35:21Z</time>
      </trkpt>
      <trkpt lat="43.04225" lon="0.94372">
        <ele>435.6</ele>
        <time>2022-09-04T09:35:26Z</time>
      </trkpt>
      <trkpt lat="43.04226" lon="0.94371">
        <ele>435.8</ele>
        <time>2022-09-04T09:35:27Z</time>
      </trkpt>
      <trkpt lat="43.04235" lon="0.94369">
        <ele>436.6</ele>
        <time>2022-09-04T09:35:34Z</time>
      </trkpt>
      <trkpt lat="43.04237" lon="0.94369">
        <ele>436.8</ele>
        <time>2022-09-04T09:35:35Z</time>
      </trkpt>
      <trkpt lat="43.04247" lon="0.94372">
        <ele>437.4</ele>
        <time>2022-09-04T09:35:54Z</time>
      </trkpt>
      <trkpt lat="43.04251" lon="0.94378">
        <ele>436.8</ele>
        <time>2022-09-04T09:35:57Z</time>
      </trkpt>
      <trkpt lat="43.04258" lon="0.94385">
        <ele>435.6</ele>
        <time>2022-09-04T09:36:01Z</time>
      </trkpt>
      <trkpt lat="43.0426" lon="0.94387">
        <ele>435.4</ele>
        <time>2022-09-04T09:36:02Z</time>
      </trkpt>
      <trkpt lat="43.04263" lon="0.94392">
        <ele>434.8</ele>
        <time>2022-09-04T09:36:04Z</time>
      </trkpt>
      <trkpt lat="43.04265" lon="0.94394">
        <ele>434.6</ele>
        <time>2022-09-04T09:36:05Z</time>
      </trkpt>
      <trkpt lat="43.04271" lon="0.94402">
        <ele>434</ele>
        <time>2022-09-04T09:36:09Z</time>
      </trkpt>
      <trkpt lat="43.04273" lon="0.94403">
        <ele>434</ele>
        <time>2022-09-04T09:36:10Z</time>
      </trkpt>
      <trkpt lat="43.04278" lon="0.94407">
        <ele>433.6</ele>
        <time>2022-09-04T09:36:13Z</time>
      </trkpt>
      <trkpt lat="43.04282" lon="0.94408">
        <ele>433.6</ele>
        <time>2022-09-04T09:36:15Z</time>
      </trkpt>
      <trkpt lat="43.04284" lon="0.94408">
        <ele>433.4</ele>
        <time>2022-09-04T09:36:16Z</time>
      </trkpt>
      <trkpt lat="43.04289" lon="0.9441">
        <ele>433</ele>
        <time>2022-09-04T09:36:18Z</time>
      </trkpt>
      <trkpt lat="43.04292" lon="0.94412">
        <ele>433</ele>
        <time>2022-09-04T09:36:19Z</time>
      </trkpt>
      <trkpt lat="43.04299" lon="0.94417">
        <ele>432.4</ele>
        <time>2022-09-04T09:36:22Z</time>
      </trkpt>
      <trkpt lat="43.04312" lon="0.94426">
        <ele>431.8</ele>
        <time>2022-09-04T09:36:27Z</time>
      </trkpt>
      <trkpt lat="43.04314" lon="0.94427">
        <ele>431.4</ele>
        <time>2022-09-04T09:36:28Z</time>
      </trkpt>
      <trkpt lat="43.04323" lon="0.9443">
        <ele>430.2</ele>
        <time>2022-09-04T09:36:31Z</time>
      </trkpt>
      <trkpt lat="43.04329" lon="0.94428">
        <ele>429.4</ele>
        <time>2022-09-04T09:36:33Z</time>
      </trkpt>
      <trkpt lat="43.04332" lon="0.94427">
        <ele>429.2</ele>
        <time>2022-09-04T09:36:34Z</time>
      </trkpt>
      <trkpt lat="43.04339" lon="0.94424">
        <ele>428</ele>
        <time>2022-09-04T09:36:36Z</time>
      </trkpt>
      <trkpt lat="43.04346" lon="0.9442">
        <ele>427.4</ele>
        <time>2022-09-04T09:36:39Z</time>
      </trkpt>
      <trkpt lat="43.04348" lon="0.9442">
        <ele>427</ele>
        <time>2022-09-04T09:36:40Z</time>
      </trkpt>
      <trkpt lat="43.04354" lon="0.94417">
        <ele>426</ele>
        <time>2022-09-04T09:36:43Z</time>
      </trkpt>
      <trkpt lat="43.04358" lon="0.94415">
        <ele>425.4</ele>
        <time>2022-09-04T09:36:45Z</time>
      </trkpt>
      <trkpt lat="43.04361" lon="0.94413">
        <ele>424.8</ele>
        <time>2022-09-04T09:36:47Z</time>
      </trkpt>
      <trkpt lat="43.04368" lon="0.94407">
        <ele>423.8</ele>
        <time>2022-09-04T09:36:50Z</time>
      </trkpt>
      <trkpt lat="43.04377" lon="0.94396">
        <ele>422.8</ele>
        <time>2022-09-04T09:36:54Z</time>
      </trkpt>
      <trkpt lat="43.04379" lon="0.94392">
        <ele>422.4</ele>
        <time>2022-09-04T09:36:55Z</time>
      </trkpt>
      <trkpt lat="43.04386" lon="0.9438">
        <ele>421.6</ele>
        <time>2022-09-04T09:36:59Z</time>
      </trkpt>
      <trkpt lat="43.04391" lon="0.94372">
        <ele>420.8</ele>
        <time>2022-09-04T09:37:02Z</time>
      </trkpt>
      <trkpt lat="43.04392" lon="0.9437">
        <ele>420.8</ele>
        <time>2022-09-04T09:37:03Z</time>
      </trkpt>
      <trkpt lat="43.04393" lon="0.94368">
        <ele>420.4</ele>
        <time>2022-09-04T09:37:04Z</time>
      </trkpt>
      <trkpt lat="43.044" lon="0.9436">
        <ele>419.6</ele>
        <time>2022-09-04T09:37:08Z</time>
      </trkpt>
      <trkpt lat="43.04491" lon="0.94219">
        <ele>395.4</ele>
        <time>2022-09-04T09:39:51Z</time>
      </trkpt>
      <trkpt lat="43.04492" lon="0.9422">
        <ele>395</ele>
        <time>2022-09-04T09:39:53Z</time>
      </trkpt>
      <trkpt lat="43.04498" lon="0.94224">
        <ele>394.2</ele>
        <time>2022-09-04T09:39:56Z</time>
      </trkpt>
      <trkpt lat="43.04577" lon="0.94191">
        <ele>389.2</ele>
        <time>2022-09-04T09:41:50Z</time>
      </trkpt>
      <trkpt lat="43.04582" lon="0.94178">
        <ele>389</ele>
        <time>2022-09-04T09:41:56Z</time>
      </trkpt>
      <trkpt lat="43.04589" lon="0.94166">
        <ele>389</ele>
        <time>2022-09-04T09:42:02Z</time>
      </trkpt>
      <trkpt lat="43.0459" lon="0.94165">
        <ele>389.2</ele>
        <time>2022-09-04T09:42:03Z</time>
      </trkpt>
      <trkpt lat="43.04594" lon="0.94158">
        <ele>389</ele>
        <time>2022-09-04T09:42:07Z</time>
      </trkpt>
      <trkpt lat="43.04598" lon="0.94152">
        <ele>389.2</ele>
        <time>2022-09-04T09:42:10Z</time>
      </trkpt>
      <trkpt lat="43.04604" lon="0.9414">
        <ele>389.2</ele>
        <time>2022-09-04T09:42:16Z</time>
      </trkpt>
      <trkpt lat="43.04613" lon="0.94127">
        <ele>389.6</ele>
        <time>2022-09-04T09:42:23Z</time>
      </trkpt>
      <trkpt lat="43.04621" lon="0.94112">
        <ele>389.2</ele>
        <time>2022-09-04T09:42:30Z</time>
      </trkpt>
      <trkpt lat="43.0463" lon="0.94094">
        <ele>388.8</ele>
        <time>2022-09-04T09:42:35Z</time>
      </trkpt>
      <trkpt lat="43.04636" lon="0.94078">
        <ele>388.2</ele>
        <time>2022-09-04T09:42:39Z</time>
      </trkpt>
      <trkpt lat="43.04642" lon="0.94056">
        <ele>387</ele>
        <time>2022-09-04T09:42:45Z</time>
      </trkpt>
      <trkpt lat="43.04643" lon="0.94053">
        <ele>387</ele>
        <time>2022-09-04T09:42:46Z</time>
      </trkpt>
      <trkpt lat="43.0465" lon="0.94028">
        <ele>386.4</ele>
        <time>2022-09-04T09:42:53Z</time>
      </trkpt>
      <trkpt lat="43.04654" lon="0.94012">
        <ele>386.2</ele>
        <time>2022-09-04T09:42:58Z</time>
      </trkpt>
      <trkpt lat="43.04655" lon="0.94005">
        <ele>386</ele>
        <time>2022-09-04T09:43:00Z</time>
      </trkpt>
      <trkpt lat="43.04659" lon="0.93995">
        <ele>385.4</ele>
        <time>2022-09-04T09:43:04Z</time>
      </trkpt>
      <trkpt lat="43.04659" lon="0.93992">
        <ele>385</ele>
        <time>2022-09-04T09:43:07Z</time>
      </trkpt>
      <trkpt lat="43.04665" lon="0.9397">
        <ele>384</ele>
        <time>2022-09-04T09:45:06Z</time>
      </trkpt>
      <trkpt lat="43.04667" lon="0.93965">
        <ele>384</ele>
        <time>2022-09-04T09:45:08Z</time>
      </trkpt>
      <trkpt lat="43.0467" lon="0.93951">
        <ele>383.2</ele>
        <time>2022-09-04T09:45:12Z</time>
      </trkpt>
      <trkpt lat="43.04672" lon="0.93937">
        <ele>382.8</ele>
        <time>2022-09-04T09:45:15Z</time>
      </trkpt>
      <trkpt lat="43.04674" lon="0.93927">
        <ele>382.6</ele>
        <time>2022-09-04T09:45:17Z</time>
      </trkpt>
      <trkpt lat="43.04676" lon="0.93911">
        <ele>381.6</ele>
        <time>2022-09-04T09:45:20Z</time>
      </trkpt>
      <trkpt lat="43.04679" lon="0.93894">
        <ele>381.2</ele>
        <time>2022-09-04T09:45:23Z</time>
      </trkpt>
      <trkpt lat="43.04679" lon="0.93875">
        <ele>380.2</ele>
        <time>2022-09-04T09:45:26Z</time>
      </trkpt>
      <trkpt lat="43.04681" lon="0.9385">
        <ele>379.4</ele>
        <time>2022-09-04T09:45:30Z</time>
      </trkpt>
      <trkpt lat="43.04682" lon="0.93838">
        <ele>379.2</ele>
        <time>2022-09-04T09:45:32Z</time>
      </trkpt>
      <trkpt lat="43.04687" lon="0.93812">
        <ele>378.6</ele>
        <time>2022-09-04T09:45:37Z</time>
      </trkpt>
      <trkpt lat="43.04692" lon="0.93791">
        <ele>378</ele>
        <time>2022-09-04T09:45:42Z</time>
      </trkpt>
      <trkpt lat="43.04693" lon="0.93787">
        <ele>377.6</ele>
        <time>2022-09-04T09:45:43Z</time>
      </trkpt>
      <trkpt lat="43.04695" lon="0.93768">
        <ele>377</ele>
        <time>2022-09-04T09:45:47Z</time>
      </trkpt>
      <trkpt lat="43.04695" lon="0.93763">
        <ele>376.6</ele>
        <time>2022-09-04T09:45:48Z</time>
      </trkpt>
      <trkpt lat="43.04694" lon="0.93746">
        <ele>375.6</ele>
        <time>2022-09-04T09:45:52Z</time>
      </trkpt>
      <trkpt lat="43.04694" lon="0.93741">
        <ele>375.4</ele>
        <time>2022-09-04T09:45:54Z</time>
      </trkpt>
      <trkpt lat="43.04692" lon="0.93719">
        <ele>374</ele>
        <time>2022-09-04T09:46:24Z</time>
      </trkpt>
      <trkpt lat="43.04691" lon="0.93706">
        <ele>372.8</ele>
        <time>2022-09-04T09:46:27Z</time>
      </trkpt>
      <trkpt lat="43.04691" lon="0.93694">
        <ele>371.8</ele>
        <time>2022-09-04T09:46:29Z</time>
      </trkpt>
      <trkpt lat="43.04691" lon="0.93688">
        <ele>371.2</ele>
        <time>2022-09-04T09:46:30Z</time>
      </trkpt>
      <trkpt lat="43.0469" lon="0.93682">
        <ele>370.6</ele>
        <time>2022-09-04T09:46:31Z</time>
      </trkpt>
      <trkpt lat="43.04689" lon="0.9367">
        <ele>369.6</ele>
        <time>2022-09-04T09:46:33Z</time>
      </trkpt>
      <trkpt lat="43.04688" lon="0.93652">
        <ele>368.4</ele>
        <time>2022-09-04T09:46:36Z</time>
      </trkpt>
      <trkpt lat="43.04687" lon="0.93636">
        <ele>367</ele>
        <time>2022-09-04T09:46:39Z</time>
      </trkpt>
      <trkpt lat="43.04687" lon="0.93619">
        <ele>365.6</ele>
        <time>2022-09-04T09:46:42Z</time>
      </trkpt>
      <trkpt lat="43.04687" lon="0.93604">
        <ele>364.2</ele>
        <time>2022-09-04T09:46:44Z</time>
      </trkpt>
      <trkpt lat="43.04686" lon="0.93596">
        <ele>363.8</ele>
        <time>2022-09-04T09:46:45Z</time>
      </trkpt>
      <trkpt lat="43.04686" lon="0.93589">
        <ele>363</ele>
        <time>2022-09-04T09:46:46Z</time>
      </trkpt>
      <trkpt lat="43.04685" lon="0.93574">
        <ele>361.6</ele>
        <time>2022-09-04T09:46:48Z</time>
      </trkpt>
      <trkpt lat="43.04684" lon="0.93552">
        <ele>360.4</ele>
        <time>2022-09-04T09:46:51Z</time>
      </trkpt>
      <trkpt lat="43.04683" lon="0.93544">
        <ele>359.6</ele>
        <time>2022-09-04T09:46:52Z</time>
      </trkpt>
      <trkpt lat="43.04682" lon="0.93536">
        <ele>359.2</ele>
        <time>2022-09-04T09:46:53Z</time>
      </trkpt>
      <trkpt lat="43.04682" lon="0.93522">
        <ele>358</ele>
        <time>2022-09-04T09:46:55Z</time>
      </trkpt>
      <trkpt lat="43.04683" lon="0.93515">
        <ele>357.4</ele>
        <time>2022-09-04T09:46:56Z</time>
      </trkpt>
      <trkpt lat="43.04686" lon="0.935">
        <ele>356.6</ele>
        <time>2022-09-04T09:46:58Z</time>
      </trkpt>
      <trkpt lat="43.04693" lon="0.93479">
        <ele>355.2</ele>
        <time>2022-09-04T09:47:01Z</time>
      </trkpt>
      <trkpt lat="43.04698" lon="0.93465">
        <ele>354.4</ele>
        <time>2022-09-04T09:47:03Z</time>
      </trkpt>
      <trkpt lat="43.04701" lon="0.93459">
        <ele>354.2</ele>
        <time>2022-09-04T09:47:04Z</time>
      </trkpt>
      <trkpt lat="43.04705" lon="0.93447">
        <ele>353</ele>
        <time>2022-09-04T09:47:06Z</time>
      </trkpt>
      <trkpt lat="43.0471" lon="0.93431">
        <ele>351.8</ele>
        <time>2022-09-04T09:47:09Z</time>
      </trkpt>
      <trkpt lat="43.04712" lon="0.93426">
        <ele>351.8</ele>
        <time>2022-09-04T09:47:10Z</time>
      </trkpt>
      <trkpt lat="43.04717" lon="0.9341">
        <ele>350.8</ele>
        <time>2022-09-04T09:47:14Z</time>
      </trkpt>
      <trkpt lat="43.04719" lon="0.93407">
        <ele>350.6</ele>
        <time>2022-09-04T09:47:15Z</time>
      </trkpt>
      <trkpt lat="43.04718" lon="0.93396">
        <ele>350.4</ele>
        <time>2022-09-04T09:47:17Z</time>
      </trkpt>
      <trkpt lat="43.04715" lon="0.93391">
        <ele>350</ele>
        <time>2022-09-04T09:47:18Z</time>
      </trkpt>
      <trkpt lat="43.04711" lon="0.93385">
        <ele>349.6</ele>
        <time>2022-09-04T09:47:19Z</time>
      </trkpt>
      <trkpt lat="43.04699" lon="0.93364">
        <ele>348.6</ele>
        <time>2022-09-04T09:47:22Z</time>
      </trkpt>
      <trkpt lat="43.04695" lon="0.93356">
        <ele>348</ele>
        <time>2022-09-04T09:47:23Z</time>
      </trkpt>
      <trkpt lat="43.04687" lon="0.93336">
        <ele>347</ele>
        <time>2022-09-04T09:47:25Z</time>
      </trkpt>
      <trkpt lat="43.04684" lon="0.93325">
        <ele>346.2</ele>
        <time>2022-09-04T09:47:26Z</time>
      </trkpt>
      <trkpt lat="43.04682" lon="0.93313">
        <ele>345.6</ele>
        <time>2022-09-04T09:47:27Z</time>
      </trkpt>
      <trkpt lat="43.04678" lon="0.93277">
        <ele>344.6</ele>
        <time>2022-09-04T09:47:30Z</time>
      </trkpt>
      <trkpt lat="43.04677" lon="0.93266">
        <ele>344.4</ele>
        <time>2022-09-04T09:47:31Z</time>
      </trkpt>
      <trkpt lat="43.04674" lon="0.93229">
        <ele>343.2</ele>
        <time>2022-09-04T09:47:34Z</time>
      </trkpt>
      <trkpt lat="43.0467" lon="0.93182">
        <ele>342.2</ele>
        <time>2022-09-04T09:47:38Z</time>
      </trkpt>
      <trkpt lat="43.04669" lon="0.9317">
        <ele>342</ele>
        <time>2022-09-04T09:47:39Z</time>
      </trkpt>
      <trkpt lat="43.04665" lon="0.93115">
        <ele>340.8</ele>
        <time>2022-09-04T09:47:44Z</time>
      </trkpt>
      <trkpt lat="43.04664" lon="0.93104">
        <ele>340.8</ele>
        <time>2022-09-04T09:47:45Z</time>
      </trkpt>
      <trkpt lat="43.0466" lon="0.93047">
        <ele>340.4</ele>
        <time>2022-09-04T09:47:51Z</time>
      </trkpt>
      <trkpt lat="43.04655" lon="0.92989">
        <ele>340</ele>
        <time>2022-09-04T09:47:58Z</time>
      </trkpt>
      <trkpt lat="43.04654" lon="0.92981">
        <ele>339.8</ele>
        <time>2022-09-04T09:47:59Z</time>
      </trkpt>
      <trkpt lat="43.0465" lon="0.92929">
        <ele>340</ele>
        <time>2022-09-04T09:48:06Z</time>
      </trkpt>
      <trkpt lat="43.04646" lon="0.92882">
        <ele>340.4</ele>
        <time>2022-09-04T09:48:13Z</time>
      </trkpt>
      <trkpt lat="43.04644" lon="0.92851">
        <ele>340.6</ele>
        <time>2022-09-04T09:48:18Z</time>
      </trkpt>
      <trkpt lat="43.0464" lon="0.92793">
        <ele>340.4</ele>
        <time>2022-09-04T09:48:28Z</time>
      </trkpt>
      <trkpt lat="43.04639" lon="0.92773">
        <ele>340.8</ele>
        <time>2022-09-04T09:48:32Z</time>
      </trkpt>
      <trkpt lat="43.04637" lon="0.92757">
        <ele>341.4</ele>
        <time>2022-09-04T09:48:36Z</time>
      </trkpt>
      <trkpt lat="43.0463" lon="0.92749">
        <ele>341.8</ele>
        <time>2022-09-04T09:48:40Z</time>
      </trkpt>
      <trkpt lat="43.04614" lon="0.9274">
        <ele>342</ele>
        <time>2022-09-04T09:48:46Z</time>
      </trkpt>
      <trkpt lat="43.0459" lon="0.92733">
        <ele>342.4</ele>
        <time>2022-09-04T09:48:54Z</time>
      </trkpt>
      <trkpt lat="43.04571" lon="0.92726">
        <ele>342.8</ele>
        <time>2022-09-04T09:49:01Z</time>
      </trkpt>
      <trkpt lat="43.0457" lon="0.92724">
        <ele>343</ele>
        <time>2022-09-04T09:49:02Z</time>
      </trkpt>
      <trkpt lat="43.0457" lon="0.92721">
        <ele>343.2</ele>
        <time>2022-09-04T09:49:03Z</time>
      </trkpt>
      <trkpt lat="43.0457" lon="0.92713">
        <ele>343.4</ele>
        <time>2022-09-04T09:49:06Z</time>
      </trkpt>
      <trkpt lat="43.0457" lon="0.92698">
        <ele>344</ele>
        <time>2022-09-04T09:49:11Z</time>
      </trkpt>
      <trkpt lat="43.0457" lon="0.92687">
        <ele>344.4</ele>
        <time>2022-09-04T09:49:15Z</time>
      </trkpt>
      <trkpt lat="43.0457" lon="0.92675">
        <ele>345</ele>
        <time>2022-09-04T09:49:19Z</time>
      </trkpt>
      <trkpt lat="43.04573" lon="0.92664">
        <ele>345.4</ele>
        <time>2022-09-04T09:49:23Z</time>
      </trkpt>
      <trkpt lat="43.04584" lon="0.92652">
        <ele>345.8</ele>
        <time>2022-09-04T09:49:30Z</time>
      </trkpt>
      <trkpt lat="43.04588" lon="0.92651">
        <ele>346</ele>
        <time>2022-09-04T09:49:32Z</time>
      </trkpt>
      <trkpt lat="43.04603" lon="0.9265">
        <ele>346</ele>
        <time>2022-09-04T09:49:38Z</time>
      </trkpt>
      <trkpt lat="43.04633" lon="0.92651">
        <ele>345.6</ele>
        <time>2022-09-04T09:49:48Z</time>
      </trkpt>
      <trkpt lat="43.04645" lon="0.92647">
        <ele>345.6</ele>
        <time>2022-09-04T09:49:52Z</time>
      </trkpt>
      <trkpt lat="43.04649" lon="0.92641">
        <ele>345.6</ele>
        <time>2022-09-04T09:49:54Z</time>
      </trkpt>
      <trkpt lat="43.04653" lon="0.92626">
        <ele>345.8</ele>
        <time>2022-09-04T09:49:59Z</time>
      </trkpt>
      <trkpt lat="43.04655" lon="0.92603">
        <ele>346.6</ele>
        <time>2022-09-04T09:50:07Z</time>
      </trkpt>
      <trkpt lat="43.04655" lon="0.92596">
        <ele>347</ele>
        <time>2022-09-04T09:50:10Z</time>
      </trkpt>
      <trkpt lat="43.04656" lon="0.92584">
        <ele>348</ele>
        <time>2022-09-04T09:50:16Z</time>
      </trkpt>
      <trkpt lat="43.04656" lon="0.92582">
        <ele>348</ele>
        <time>2022-09-04T09:50:17Z</time>
      </trkpt>
      <trkpt lat="43.04655" lon="0.92569">
        <ele>349.2</ele>
        <time>2022-09-04T09:50:24Z</time>
      </trkpt>
      <trkpt lat="43.04656" lon="0.92557">
        <ele>350.2</ele>
        <time>2022-09-04T09:50:30Z</time>
      </trkpt>
      <trkpt lat="43.04656" lon="0.92555">
        <ele>350.4</ele>
        <time>2022-09-04T09:50:31Z</time>
      </trkpt>
      <trkpt lat="43.04658" lon="0.92544">
        <ele>351.2</ele>
        <time>2022-09-04T09:50:36Z</time>
      </trkpt>
      <trkpt lat="43.04658" lon="0.9254">
        <ele>351.6</ele>
        <time>2022-09-04T09:50:38Z</time>
      </trkpt>
      <trkpt lat="43.04659" lon="0.92533">
        <ele>352.2</ele>
        <time>2022-09-04T09:50:42Z</time>
      </trkpt>
      <trkpt lat="43.04659" lon="0.92529">
        <ele>352.8</ele>
        <time>2022-09-04T09:50:45Z</time>
      </trkpt>
      <trkpt lat="43.04659" lon="0.92526">
        <ele>353.2</ele>
        <time>2022-09-04T09:50:47Z</time>
      </trkpt>
      <trkpt lat="43.04659" lon="0.92524">
        <ele>353.4</ele>
        <time>2022-09-04T09:50:48Z</time>
      </trkpt>
      <trkpt lat="43.0466" lon="0.92519">
        <ele>353.8</ele>
        <time>2022-09-04T09:50:51Z</time>
      </trkpt>
      <trkpt lat="43.04661" lon="0.92516">
        <ele>353.8</ele>
        <time>2022-09-04T09:50:52Z</time>
      </trkpt>
      <trkpt lat="43.04661" lon="0.92514">
        <ele>354.2</ele>
        <time>2022-09-04T09:50:53Z</time>
      </trkpt>
      <trkpt lat="43.04662" lon="0.9251">
        <ele>354.4</ele>
        <time>2022-09-04T09:50:55Z</time>
      </trkpt>
      <trkpt lat="43.04663" lon="0.92507">
        <ele>354.8</ele>
        <time>2022-09-04T09:50:57Z</time>
      </trkpt>
      <trkpt lat="43.04664" lon="0.92505">
        <ele>355</ele>
        <time>2022-09-04T09:50:59Z</time>
      </trkpt>
      <trkpt lat="43.04666" lon="0.92501">
        <ele>355.6</ele>
        <time>2022-09-04T09:51:02Z</time>
      </trkpt>
      <trkpt lat="43.04683" lon="0.92422">
        <ele>363.8</ele>
        <time>2022-09-04T09:51:51Z</time>
      </trkpt>
      <trkpt lat="43.04682" lon="0.92414">
        <ele>364.4</ele>
        <time>2022-09-04T09:51:55Z</time>
      </trkpt>
      <trkpt lat="43.04682" lon="0.92413">
        <ele>364.6</ele>
        <time>2022-09-04T09:51:56Z</time>
      </trkpt>
      <trkpt lat="43.04683" lon="0.92412">
        <ele>364.8</ele>
        <time>2022-09-04T09:51:57Z</time>
      </trkpt>
      <trkpt lat="43.04683" lon="0.92403">
        <ele>365.8</ele>
        <time>2022-09-04T09:52:02Z</time>
      </trkpt>
      <trkpt lat="43.04682" lon="0.92401">
        <ele>365.8</ele>
        <time>2022-09-04T09:52:03Z</time>
      </trkpt>
      <trkpt lat="43.04683" lon="0.924">
        <ele>366</ele>
        <time>2022-09-04T09:52:04Z</time>
      </trkpt>
      <trkpt lat="43.04683" lon="0.92394">
        <ele>366.6</ele>
        <time>2022-09-04T09:52:08Z</time>
      </trkpt>
      <trkpt lat="43.04682" lon="0.92389">
        <ele>366.8</ele>
        <time>2022-09-04T09:52:11Z</time>
      </trkpt>
      <trkpt lat="43.04683" lon="0.92385">
        <ele>367.2</ele>
        <time>2022-09-04T09:52:13Z</time>
      </trkpt>
      <trkpt lat="43.04684" lon="0.92383">
        <ele>367.4</ele>
        <time>2022-09-04T09:52:14Z</time>
      </trkpt>
      <trkpt lat="43.04683" lon="0.9238">
        <ele>367.6</ele>
        <time>2022-09-04T09:52:16Z</time>
      </trkpt>
      <trkpt lat="43.04683" lon="0.92378">
        <ele>367.8</ele>
        <time>2022-09-04T09:52:17Z</time>
      </trkpt>
      <trkpt lat="43.04682" lon="0.92373">
        <ele>368.2</ele>
        <time>2022-09-04T09:52:20Z</time>
      </trkpt>
      <trkpt lat="43.04682" lon="0.92366">
        <ele>368.8</ele>
        <time>2022-09-04T09:52:24Z</time>
      </trkpt>
      <trkpt lat="43.04682" lon="0.92362">
        <ele>368.8</ele>
        <time>2022-09-04T09:52:26Z</time>
      </trkpt>
      <trkpt lat="43.04682" lon="0.92348">
        <ele>369.8</ele>
        <time>2022-09-04T09:52:33Z</time>
      </trkpt>
      <trkpt lat="43.04682" lon="0.92343">
        <ele>370.2</ele>
        <time>2022-09-04T09:52:36Z</time>
      </trkpt>
      <trkpt lat="43.04681" lon="0.92333">
        <ele>371</ele>
        <time>2022-09-04T09:52:41Z</time>
      </trkpt>
      <trkpt lat="43.04681" lon="0.92324">
        <ele>371.6</ele>
        <time>2022-09-04T09:52:46Z</time>
      </trkpt>
      <trkpt lat="43.0468" lon="0.92316">
        <ele>372.2</ele>
        <time>2022-09-04T09:52:50Z</time>
      </trkpt>
      <trkpt lat="43.04679" lon="0.9231">
        <ele>372.4</ele>
        <time>2022-09-04T09:52:53Z</time>
      </trkpt>
      <trkpt lat="43.04678" lon="0.92303">
        <ele>373</ele>
        <time>2022-09-04T09:52:57Z</time>
      </trkpt>
      <trkpt lat="43.04678" lon="0.92301">
        <ele>373.2</ele>
        <time>2022-09-04T09:52:58Z</time>
      </trkpt>
      <trkpt lat="43.04677" lon="0.92297">
        <ele>373.6</ele>
        <time>2022-09-04T09:53:00Z</time>
      </trkpt>
      <trkpt lat="43.04676" lon="0.92294">
        <ele>373.8</ele>
        <time>2022-09-04T09:53:02Z</time>
      </trkpt>
      <trkpt lat="43.04676" lon="0.92292">
        <ele>374</ele>
        <time>2022-09-04T09:53:03Z</time>
      </trkpt>
      <trkpt lat="43.04676" lon="0.92288">
        <ele>374.2</ele>
        <time>2022-09-04T09:53:05Z</time>
      </trkpt>
      <trkpt lat="43.04676" lon="0.92286">
        <ele>374.4</ele>
        <time>2022-09-04T09:53:06Z</time>
      </trkpt>
      <trkpt lat="43.04673" lon="0.92277">
        <ele>375.4</ele>
        <time>2022-09-04T09:53:12Z</time>
      </trkpt>
      <trkpt lat="43.04673" lon="0.92275">
        <ele>375.4</ele>
        <time>2022-09-04T09:53:13Z</time>
      </trkpt>
      <trkpt lat="43.0467" lon="0.92269">
        <ele>376.2</ele>
        <time>2022-09-04T09:53:17Z</time>
      </trkpt>
      <trkpt lat="43.0467" lon="0.92266">
        <ele>376.6</ele>
        <time>2022-09-04T09:53:19Z</time>
      </trkpt>
      <trkpt lat="43.0467" lon="0.92262">
        <ele>376.8</ele>
        <time>2022-09-04T09:53:21Z</time>
      </trkpt>
      <trkpt lat="43.04668" lon="0.92259">
        <ele>376.8</ele>
        <time>2022-09-04T09:53:23Z</time>
      </trkpt>
      <trkpt lat="43.04664" lon="0.92253">
        <ele>377.2</ele>
        <time>2022-09-04T09:53:27Z</time>
      </trkpt>
      <trkpt lat="43.04665" lon="0.92251">
        <ele>377.6</ele>
        <time>2022-09-04T09:53:28Z</time>
      </trkpt>
      <trkpt lat="43.04663" lon="0.92245">
        <ele>378</ele>
        <time>2022-09-04T09:53:32Z</time>
      </trkpt>
      <trkpt lat="43.04663" lon="0.92243">
        <ele>378.2</ele>
        <time>2022-09-04T09:53:33Z</time>
      </trkpt>
      <trkpt lat="43.04662" lon="0.9224">
        <ele>378.6</ele>
        <time>2022-09-04T09:53:35Z</time>
      </trkpt>
      <trkpt lat="43.04659" lon="0.92228">
        <ele>379.6</ele>
        <time>2022-09-04T09:53:42Z</time>
      </trkpt>
      <trkpt lat="43.04658" lon="0.92226">
        <ele>379.8</ele>
        <time>2022-09-04T09:53:43Z</time>
      </trkpt>
      <trkpt lat="43.04655" lon="0.92212">
        <ele>380.8</ele>
        <time>2022-09-04T09:53:50Z</time>
      </trkpt>
      <trkpt lat="43.04655" lon="0.92211">
        <ele>381</ele>
        <time>2022-09-04T09:53:51Z</time>
      </trkpt>
      <trkpt lat="43.04654" lon="0.92198">
        <ele>382</ele>
        <time>2022-09-04T09:53:57Z</time>
      </trkpt>
      <trkpt lat="43.04653" lon="0.92192">
        <ele>382.2</ele>
        <time>2022-09-04T09:54:00Z</time>
      </trkpt>
      <trkpt lat="43.04653" lon="0.9218">
        <ele>383</ele>
        <time>2022-09-04T09:54:06Z</time>
      </trkpt>
      <trkpt lat="43.04652" lon="0.92175">
        <ele>383.2</ele>
        <time>2022-09-04T09:54:08Z</time>
      </trkpt>
      <trkpt lat="43.04652" lon="0.92161">
        <ele>384</ele>
        <time>2022-09-04T09:54:15Z</time>
      </trkpt>
      <trkpt lat="43.04652" lon="0.92158">
        <ele>384.2</ele>
        <time>2022-09-04T09:54:16Z</time>
      </trkpt>
      <trkpt lat="43.0465" lon="0.92138">
        <ele>385.2</ele>
        <time>2022-09-04T09:54:25Z</time>
      </trkpt>
      <trkpt lat="43.0465" lon="0.92136">
        <ele>385.2</ele>
        <time>2022-09-04T09:54:26Z</time>
      </trkpt>
      <trkpt lat="43.04648" lon="0.9212">
        <ele>386.2</ele>
        <time>2022-09-04T09:54:33Z</time>
      </trkpt>
      <trkpt lat="43.04648" lon="0.92118">
        <ele>386.2</ele>
        <time>2022-09-04T09:54:34Z</time>
      </trkpt>
      <trkpt lat="43.04647" lon="0.92099">
        <ele>387</ele>
        <time>2022-09-04T09:54:42Z</time>
      </trkpt>
      <trkpt lat="43.04647" lon="0.92097">
        <ele>387.2</ele>
        <time>2022-09-04T09:54:43Z</time>
      </trkpt>
      <trkpt lat="43.04647" lon="0.92095">
        <ele>387.4</ele>
        <time>2022-09-04T09:54:44Z</time>
      </trkpt>
      <trkpt lat="43.04647" lon="0.92077">
        <ele>388.2</ele>
        <time>2022-09-04T09:54:52Z</time>
      </trkpt>
      <trkpt lat="43.04648" lon="0.92074">
        <ele>388.2</ele>
        <time>2022-09-04T09:54:53Z</time>
      </trkpt>
      <trkpt lat="43.04653" lon="0.92056">
        <ele>389.2</ele>
        <time>2022-09-04T09:55:01Z</time>
      </trkpt>
      <trkpt lat="43.04654" lon="0.92054">
        <ele>389.4</ele>
        <time>2022-09-04T09:55:02Z</time>
      </trkpt>
      <trkpt lat="43.0466" lon="0.92044">
        <ele>390.2</ele>
        <time>2022-09-04T09:55:07Z</time>
      </trkpt>
      <trkpt lat="43.04662" lon="0.92041">
        <ele>390.4</ele>
        <time>2022-09-04T09:55:09Z</time>
      </trkpt>
      <trkpt lat="43.04668" lon="0.92031">
        <ele>391</ele>
        <time>2022-09-04T09:55:55Z</time>
      </trkpt>
      <trkpt lat="43.04671" lon="0.92026">
        <ele>391.6</ele>
        <time>2022-09-04T09:55:58Z</time>
      </trkpt>
      <trkpt lat="43.04678" lon="0.92013">
        <ele>392.6</ele>
        <time>2022-09-04T09:56:04Z</time>
      </trkpt>
      <trkpt lat="43.04684" lon="0.92">
        <ele>393.6</ele>
        <time>2022-09-04T09:56:10Z</time>
      </trkpt>
      <trkpt lat="43.04685" lon="0.91998">
        <ele>393.8</ele>
        <time>2022-09-04T09:56:11Z</time>
      </trkpt>
      <trkpt lat="43.0469" lon="0.91987">
        <ele>395</ele>
        <time>2022-09-04T09:56:17Z</time>
      </trkpt>
      <trkpt lat="43.04691" lon="0.91985">
        <ele>395</ele>
        <time>2022-09-04T09:56:18Z</time>
      </trkpt>
      <trkpt lat="43.04696" lon="0.91973">
        <ele>396.2</ele>
        <time>2022-09-04T09:56:24Z</time>
      </trkpt>
      <trkpt lat="43.04698" lon="0.91968">
        <ele>396.6</ele>
        <time>2022-09-04T09:56:27Z</time>
      </trkpt>
      <trkpt lat="43.04702" lon="0.91958">
        <ele>397.2</ele>
        <time>2022-09-04T09:56:32Z</time>
      </trkpt>
      <trkpt lat="43.04705" lon="0.91953">
        <ele>397.8</ele>
        <time>2022-09-04T09:56:35Z</time>
      </trkpt>
      <trkpt lat="43.04707" lon="0.91947">
        <ele>398.4</ele>
        <time>2022-09-04T09:56:38Z</time>
      </trkpt>
      <trkpt lat="43.04711" lon="0.91937">
        <ele>398.8</ele>
        <time>2022-09-04T09:56:43Z</time>
      </trkpt>
      <trkpt lat="43.04713" lon="0.91928">
        <ele>399.4</ele>
        <time>2022-09-04T09:56:48Z</time>
      </trkpt>
      <trkpt lat="43.04714" lon="0.91921">
        <ele>399.8</ele>
        <time>2022-09-04T09:56:51Z</time>
      </trkpt>
      <trkpt lat="43.04719" lon="0.91906">
        <ele>400.6</ele>
        <time>2022-09-04T09:56:58Z</time>
      </trkpt>
      <trkpt lat="43.04721" lon="0.919">
        <ele>400.8</ele>
        <time>2022-09-04T09:57:01Z</time>
      </trkpt>
      <trkpt lat="43.04724" lon="0.91887">
        <ele>401.6</ele>
        <time>2022-09-04T09:57:06Z</time>
      </trkpt>
      <trkpt lat="43.04727" lon="0.91876">
        <ele>402.2</ele>
        <time>2022-09-04T09:57:11Z</time>
      </trkpt>
      <trkpt lat="43.04729" lon="0.91868">
        <ele>402.6</ele>
        <time>2022-09-04T09:57:14Z</time>
      </trkpt>
      <trkpt lat="43.04733" lon="0.91853">
        <ele>403.4</ele>
        <time>2022-09-04T09:57:20Z</time>
      </trkpt>
      <trkpt lat="43.04734" lon="0.91848">
        <ele>403.6</ele>
        <time>2022-09-04T09:57:22Z</time>
      </trkpt>
      <trkpt lat="43.04737" lon="0.91831">
        <ele>404.2</ele>
        <time>2022-09-04T09:57:29Z</time>
      </trkpt>
      <trkpt lat="43.04739" lon="0.91824">
        <ele>404.6</ele>
        <time>2022-09-04T09:57:32Z</time>
      </trkpt>
      <trkpt lat="43.04741" lon="0.91811">
        <ele>405</ele>
        <time>2022-09-04T09:57:37Z</time>
      </trkpt>
      <trkpt lat="43.04744" lon="0.91796">
        <ele>405.6</ele>
        <time>2022-09-04T09:57:43Z</time>
      </trkpt>
      <trkpt lat="43.04745" lon="0.91789">
        <ele>405.8</ele>
        <time>2022-09-04T09:57:46Z</time>
      </trkpt>
      <trkpt lat="43.04749" lon="0.91771">
        <ele>406.6</ele>
        <time>2022-09-04T09:57:53Z</time>
      </trkpt>
      <trkpt lat="43.04752" lon="0.91757">
        <ele>406.8</ele>
        <time>2022-09-04T09:57:58Z</time>
      </trkpt>
      <trkpt lat="43.04755" lon="0.91742">
        <ele>407.6</ele>
        <time>2022-09-04T09:58:03Z</time>
      </trkpt>
      <trkpt lat="43.04757" lon="0.91731">
        <ele>407.8</ele>
        <time>2022-09-04T09:58:07Z</time>
      </trkpt>
      <trkpt lat="43.0476" lon="0.91713">
        <ele>408.6</ele>
        <time>2022-09-04T09:58:13Z</time>
      </trkpt>
      <trkpt lat="43.04761" lon="0.91707">
        <ele>408.8</ele>
        <time>2022-09-04T09:58:15Z</time>
      </trkpt>
      <trkpt lat="43.04765" lon="0.91679">
        <ele>409.6</ele>
        <time>2022-09-04T09:58:24Z</time>
      </trkpt>
      <trkpt lat="43.04766" lon="0.91666">
        <ele>410</ele>
        <time>2022-09-04T09:58:28Z</time>
      </trkpt>
      <trkpt lat="43.04769" lon="0.91642">
        <ele>410.2</ele>
        <time>2022-09-04T09:58:36Z</time>
      </trkpt>
      <trkpt lat="43.04774" lon="0.91616">
        <ele>410.4</ele>
        <time>2022-09-04T09:58:45Z</time>
      </trkpt>
      <trkpt lat="43.04775" lon="0.91606">
        <ele>410.2</ele>
        <time>2022-09-04T09:58:49Z</time>
      </trkpt>
      <trkpt lat="43.04776" lon="0.91596">
        <ele>410.2</ele>
        <time>2022-09-04T09:58:53Z</time>
      </trkpt>
      <trkpt lat="43.04778" lon="0.91581">
        <ele>409.8</ele>
        <time>2022-09-04T10:00:50Z</time>
      </trkpt>
      <trkpt lat="43.04779" lon="0.91561">
        <ele>409.8</ele>
        <time>2022-09-04T10:00:56Z</time>
      </trkpt>
      <trkpt lat="43.0478" lon="0.91536">
        <ele>409.6</ele>
        <time>2022-09-04T10:01:03Z</time>
      </trkpt>
      <trkpt lat="43.0478" lon="0.9151">
        <ele>409.4</ele>
        <time>2022-09-04T10:01:10Z</time>
      </trkpt>
      <trkpt lat="43.04785" lon="0.91482">
        <ele>409</ele>
        <time>2022-09-04T10:01:17Z</time>
      </trkpt>
      <trkpt lat="43.04785" lon="0.91477">
        <ele>408.8</ele>
        <time>2022-09-04T10:01:18Z</time>
      </trkpt>
      <trkpt lat="43.04789" lon="0.91446">
        <ele>408.4</ele>
        <time>2022-09-04T10:01:24Z</time>
      </trkpt>
      <trkpt lat="43.0479" lon="0.91429">
        <ele>408</ele>
        <time>2022-09-04T10:01:27Z</time>
      </trkpt>
      <trkpt lat="43.04792" lon="0.91417">
        <ele>407.6</ele>
        <time>2022-09-04T10:01:29Z</time>
      </trkpt>
      <trkpt lat="43.04793" lon="0.91403">
        <ele>407.6</ele>
        <time>2022-09-04T10:01:31Z</time>
      </trkpt>
      <trkpt lat="43.04797" lon="0.91354">
        <ele>406.6</ele>
        <time>2022-09-04T10:01:38Z</time>
      </trkpt>
      <trkpt lat="43.04799" lon="0.91347">
        <ele>406.4</ele>
        <time>2022-09-04T10:01:39Z</time>
      </trkpt>
      <trkpt lat="43.04804" lon="0.91315">
        <ele>405.4</ele>
        <time>2022-09-04T10:01:43Z</time>
      </trkpt>
      <trkpt lat="43.04808" lon="0.91299">
        <ele>405.2</ele>
        <time>2022-09-04T10:01:45Z</time>
      </trkpt>
      <trkpt lat="43.04819" lon="0.91249">
        <ele>404.4</ele>
        <time>2022-09-04T10:01:51Z</time>
      </trkpt>
      <trkpt lat="43.04822" lon="0.9124">
        <ele>404</ele>
        <time>2022-09-04T10:01:52Z</time>
      </trkpt>
      <trkpt lat="43.04829" lon="0.91204">
        <ele>403.2</ele>
        <time>2022-09-04T10:01:56Z</time>
      </trkpt>
      <trkpt lat="43.04833" lon="0.91184">
        <ele>403</ele>
        <time>2022-09-04T10:01:58Z</time>
      </trkpt>
      <trkpt lat="43.04841" lon="0.91154">
        <ele>402.2</ele>
        <time>2022-09-04T10:02:01Z</time>
      </trkpt>
      <trkpt lat="43.04853" lon="0.91119">
        <ele>401.4</ele>
        <time>2022-09-04T10:02:05Z</time>
      </trkpt>
      <trkpt lat="43.04855" lon="0.91114">
        <ele>401</ele>
        <time>2022-09-04T10:02:06Z</time>
      </trkpt>
      <trkpt lat="43.04857" lon="0.91107">
        <ele>400.6</ele>
        <time>2022-09-04T10:02:08Z</time>
      </trkpt>
      <trkpt lat="43.04859" lon="0.91102">
        <ele>400.6</ele>
        <time>2022-09-04T10:02:30Z</time>
      </trkpt>
      <trkpt lat="43.04861" lon="0.91097">
        <ele>400.6</ele>
        <time>2022-09-04T10:02:32Z</time>
      </trkpt>
      <trkpt lat="43.0487" lon="0.91075">
        <ele>401.2</ele>
        <time>2022-09-04T10:02:39Z</time>
      </trkpt>
      <trkpt lat="43.04884" lon="0.91042">
        <ele>401.4</ele>
        <time>2022-09-04T10:02:49Z</time>
      </trkpt>
      <trkpt lat="43.04896" lon="0.91011">
        <ele>401</ele>
        <time>2022-09-04T10:02:58Z</time>
      </trkpt>
      <trkpt lat="43.049" lon="0.91002">
        <ele>401</ele>
        <time>2022-09-04T10:03:03Z</time>
      </trkpt>
      <trkpt lat="43.04902" lon="0.90994">
        <ele>400.8</ele>
        <time>2022-09-04T10:03:13Z</time>
      </trkpt>
      <trkpt lat="43.04902" lon="0.90991">
        <ele>400.8</ele>
        <time>2022-09-04T10:03:14Z</time>
      </trkpt>
      <trkpt lat="43.04907" lon="0.90972">
        <ele>400.2</ele>
        <time>2022-09-04T10:03:19Z</time>
      </trkpt>
      <trkpt lat="43.04911" lon="0.90949">
        <ele>399.8</ele>
        <time>2022-09-04T10:03:23Z</time>
      </trkpt>
      <trkpt lat="43.04914" lon="0.9093">
        <ele>399.6</ele>
        <time>2022-09-04T10:03:26Z</time>
      </trkpt>
      <trkpt lat="43.04914" lon="0.90923">
        <ele>399.6</ele>
        <time>2022-09-04T10:03:27Z</time>
      </trkpt>
      <trkpt lat="43.04916" lon="0.90884">
        <ele>399.4</ele>
        <time>2022-09-04T10:03:33Z</time>
      </trkpt>
      <trkpt lat="43.04917" lon="0.90833">
        <ele>399.6</ele>
        <time>2022-09-04T10:03:41Z</time>
      </trkpt>
      <trkpt lat="43.04917" lon="0.908">
        <ele>400.8</ele>
        <time>2022-09-04T10:03:48Z</time>
      </trkpt>
      <trkpt lat="43.04916" lon="0.90792">
        <ele>401</ele>
        <time>2022-09-04T10:03:50Z</time>
      </trkpt>
      <trkpt lat="43.04916" lon="0.90769">
        <ele>402</ele>
        <time>2022-09-04T10:03:56Z</time>
      </trkpt>
      <trkpt lat="43.04916" lon="0.90766">
        <ele>402.4</ele>
        <time>2022-09-04T10:03:57Z</time>
      </trkpt>
      <trkpt lat="43.04915" lon="0.90752">
        <ele>403.2</ele>
        <time>2022-09-04T10:04:02Z</time>
      </trkpt>
      <trkpt lat="43.04915" lon="0.90747">
        <ele>403.6</ele>
        <time>2022-09-04T10:04:04Z</time>
      </trkpt>
      <trkpt lat="43.04915" lon="0.90738">
        <ele>404.4</ele>
        <time>2022-09-04T10:04:08Z</time>
      </trkpt>
      <trkpt lat="43.04914" lon="0.90731">
        <ele>405.2</ele>
        <time>2022-09-04T10:04:11Z</time>
      </trkpt>
      <trkpt lat="43.04911" lon="0.90728">
        <ele>405.8</ele>
        <time>2022-09-04T10:04:13Z</time>
      </trkpt>
      <trkpt lat="43.04911" lon="0.90726">
        <ele>405.8</ele>
        <time>2022-09-04T10:04:14Z</time>
      </trkpt>
      <trkpt lat="43.0491" lon="0.90721">
        <ele>406.2</ele>
        <time>2022-09-04T10:04:16Z</time>
      </trkpt>
      <trkpt lat="43.0491" lon="0.90717">
        <ele>406.8</ele>
        <time>2022-09-04T10:04:18Z</time>
      </trkpt>
      <trkpt lat="43.04907" lon="0.90706">
        <ele>407.8</ele>
        <time>2022-09-04T10:04:23Z</time>
      </trkpt>
      <trkpt lat="43.04908" lon="0.90697">
        <ele>408.4</ele>
        <time>2022-09-04T10:04:27Z</time>
      </trkpt>
      <trkpt lat="43.04907" lon="0.90692">
        <ele>408.6</ele>
        <time>2022-09-04T10:04:29Z</time>
      </trkpt>
      <trkpt lat="43.04907" lon="0.90684">
        <ele>408.8</ele>
        <time>2022-09-04T10:04:32Z</time>
      </trkpt>
      <trkpt lat="43.04907" lon="0.90681">
        <ele>408.8</ele>
        <time>2022-09-04T10:04:33Z</time>
      </trkpt>
      <trkpt lat="43.04913" lon="0.90658">
        <ele>409</ele>
        <time>2022-09-04T10:04:41Z</time>
      </trkpt>
      <trkpt lat="43.04921" lon="0.9063">
        <ele>409.4</ele>
        <time>2022-09-04T10:04:50Z</time>
      </trkpt>
      <trkpt lat="43.04931" lon="0.906">
        <ele>409.6</ele>
        <time>2022-09-04T10:04:59Z</time>
      </trkpt>
      <trkpt lat="43.04936" lon="0.90583">
        <ele>410</ele>
        <time>2022-09-04T10:05:04Z</time>
      </trkpt>
      <trkpt lat="43.04939" lon="0.90572">
        <ele>410.2</ele>
        <time>2022-09-04T10:05:07Z</time>
      </trkpt>
      <trkpt lat="43.04942" lon="0.90549">
        <ele>411</ele>
        <time>2022-09-04T10:05:14Z</time>
      </trkpt>
      <trkpt lat="43.04942" lon="0.90542">
        <ele>411.4</ele>
        <time>2022-09-04T10:05:16Z</time>
      </trkpt>
      <trkpt lat="43.04947" lon="0.90518">
        <ele>412</ele>
        <time>2022-09-04T10:05:23Z</time>
      </trkpt>
      <trkpt lat="43.0495" lon="0.90495">
        <ele>413.2</ele>
        <time>2022-09-04T10:05:30Z</time>
      </trkpt>
      <trkpt lat="43.04952" lon="0.90487">
        <ele>413.6</ele>
        <time>2022-09-04T10:05:33Z</time>
      </trkpt>
      <trkpt lat="43.04953" lon="0.90484">
        <ele>414.2</ele>
        <time>2022-09-04T10:05:35Z</time>
      </trkpt>
      <trkpt lat="43.04954" lon="0.90482">
        <ele>414.4</ele>
        <time>2022-09-04T10:05:36Z</time>
      </trkpt>
      <trkpt lat="43.04956" lon="0.90477">
        <ele>414.6</ele>
        <time>2022-09-04T10:05:38Z</time>
      </trkpt>
      <trkpt lat="43.04956" lon="0.90462">
        <ele>415.4</ele>
        <time>2022-09-04T10:05:44Z</time>
      </trkpt>
      <trkpt lat="43.04956" lon="0.90459">
        <ele>415.6</ele>
        <time>2022-09-04T10:05:45Z</time>
      </trkpt>
      <trkpt lat="43.04957" lon="0.90445">
        <ele>416.4</ele>
        <time>2022-09-04T10:05:50Z</time>
      </trkpt>
      <trkpt lat="43.04957" lon="0.9044">
        <ele>416.8</ele>
        <time>2022-09-04T10:05:52Z</time>
      </trkpt>
      <trkpt lat="43.04957" lon="0.90431">
        <ele>417.6</ele>
        <time>2022-09-04T10:05:56Z</time>
      </trkpt>
      <trkpt lat="43.04959" lon="0.90424">
        <ele>418</ele>
        <time>2022-09-04T10:05:59Z</time>
      </trkpt>
      <trkpt lat="43.04958" lon="0.90415">
        <ele>418.8</ele>
        <time>2022-09-04T10:06:03Z</time>
      </trkpt>
      <trkpt lat="43.04959" lon="0.90413">
        <ele>418.8</ele>
        <time>2022-09-04T10:06:04Z</time>
      </trkpt>
      <trkpt lat="43.04959" lon="0.90399">
        <ele>419.8</ele>
        <time>2022-09-04T10:06:10Z</time>
      </trkpt>
      <trkpt lat="43.04959" lon="0.90389">
        <ele>420.6</ele>
        <time>2022-09-04T10:06:15Z</time>
      </trkpt>
      <trkpt lat="43.04958" lon="0.90384">
        <ele>421</ele>
        <time>2022-09-04T10:06:17Z</time>
      </trkpt>
      <trkpt lat="43.04959" lon="0.90374">
        <ele>421.6</ele>
        <time>2022-09-04T10:06:21Z</time>
      </trkpt>
      <trkpt lat="43.04958" lon="0.90359">
        <ele>422</ele>
        <time>2022-09-04T10:06:27Z</time>
      </trkpt>
      <trkpt lat="43.04958" lon="0.90355">
        <ele>422.4</ele>
        <time>2022-09-04T10:06:29Z</time>
      </trkpt>
      <trkpt lat="43.04957" lon="0.90334">
        <ele>423</ele>
        <time>2022-09-04T10:06:37Z</time>
      </trkpt>
      <trkpt lat="43.04955" lon="0.90311">
        <ele>424</ele>
        <time>2022-09-04T10:06:45Z</time>
      </trkpt>
      <trkpt lat="43.04955" lon="0.90308">
        <ele>424</ele>
        <time>2022-09-04T10:06:46Z</time>
      </trkpt>
      <trkpt lat="43.04953" lon="0.90291">
        <ele>424.6</ele>
        <time>2022-09-04T10:06:52Z</time>
      </trkpt>
      <trkpt lat="43.04953" lon="0.90288">
        <ele>424.8</ele>
        <time>2022-09-04T10:06:53Z</time>
      </trkpt>
      <trkpt lat="43.04951" lon="0.9028">
        <ele>425</ele>
        <time>2022-09-04T10:06:56Z</time>
      </trkpt>
      <trkpt lat="43.0495" lon="0.90263">
        <ele>425.6</ele>
        <time>2022-09-04T10:07:02Z</time>
      </trkpt>
      <trkpt lat="43.0495" lon="0.90257">
        <ele>425.8</ele>
        <time>2022-09-04T10:07:04Z</time>
      </trkpt>
      <trkpt lat="43.04949" lon="0.90244">
        <ele>426.2</ele>
        <time>2022-09-04T10:07:09Z</time>
      </trkpt>
      <trkpt lat="43.04949" lon="0.90237">
        <ele>426.2</ele>
        <time>2022-09-04T10:07:12Z</time>
      </trkpt>
      <trkpt lat="43.04949" lon="0.90224">
        <ele>426</ele>
        <time>2022-09-04T10:07:17Z</time>
      </trkpt>
      <trkpt lat="43.04949" lon="0.90223">
        <ele>425.8</ele>
        <time>2022-09-04T10:07:18Z</time>
      </trkpt>
      <trkpt lat="43.04947" lon="0.90216">
        <ele>425.6</ele>
        <time>2022-09-04T10:07:30Z</time>
      </trkpt>
      <trkpt lat="43.04946" lon="0.90206">
        <ele>425.4</ele>
        <time>2022-09-04T10:07:33Z</time>
      </trkpt>
      <trkpt lat="43.04946" lon="0.90198">
        <ele>425</ele>
        <time>2022-09-04T10:07:35Z</time>
      </trkpt>
      <trkpt lat="43.04945" lon="0.90181">
        <ele>424.6</ele>
        <time>2022-09-04T10:07:38Z</time>
      </trkpt>
      <trkpt lat="43.04943" lon="0.90162">
        <ele>424.2</ele>
        <time>2022-09-04T10:07:41Z</time>
      </trkpt>
      <trkpt lat="43.04942" lon="0.90155">
        <ele>424</ele>
        <time>2022-09-04T10:07:42Z</time>
      </trkpt>
      <trkpt lat="43.04941" lon="0.90147">
        <ele>424</ele>
        <time>2022-09-04T10:07:43Z</time>
      </trkpt>
      <trkpt lat="43.04939" lon="0.90121">
        <ele>422.8</ele>
        <time>2022-09-04T10:07:46Z</time>
      </trkpt>
      <trkpt lat="43.04937" lon="0.90101">
        <ele>421.8</ele>
        <time>2022-09-04T10:07:48Z</time>
      </trkpt>
      <trkpt lat="43.04936" lon="0.9009">
        <ele>421.2</ele>
        <time>2022-09-04T10:07:49Z</time>
      </trkpt>
      <trkpt lat="43.04934" lon="0.90065">
        <ele>420.2</ele>
        <time>2022-09-04T10:07:51Z</time>
      </trkpt>
      <trkpt lat="43.0493" lon="0.9004">
        <ele>418.4</ele>
        <time>2022-09-04T10:07:53Z</time>
      </trkpt>
      <trkpt lat="43.04927" lon="0.90013">
        <ele>417.4</ele>
        <time>2022-09-04T10:07:55Z</time>
      </trkpt>
      <trkpt lat="43.04919" lon="0.89972">
        <ele>415.4</ele>
        <time>2022-09-04T10:07:58Z</time>
      </trkpt>
      <trkpt lat="43.04915" lon="0.89949">
        <ele>414.2</ele>
        <time>2022-09-04T10:08:00Z</time>
      </trkpt>
      <trkpt lat="43.04912" lon="0.89929">
        <ele>413</ele>
        <time>2022-09-04T10:08:02Z</time>
      </trkpt>
      <trkpt lat="43.04908" lon="0.89906">
        <ele>411.6</ele>
        <time>2022-09-04T10:08:04Z</time>
      </trkpt>
      <trkpt lat="43.04906" lon="0.89895">
        <ele>411</ele>
        <time>2022-09-04T10:08:05Z</time>
      </trkpt>
      <trkpt lat="43.04904" lon="0.89883">
        <ele>410.4</ele>
        <time>2022-09-04T10:08:06Z</time>
      </trkpt>
      <trkpt lat="43.049" lon="0.89857">
        <ele>408.6</ele>
        <time>2022-09-04T10:08:08Z</time>
      </trkpt>
      <trkpt lat="43.04896" lon="0.8983">
        <ele>407.6</ele>
        <time>2022-09-04T10:08:10Z</time>
      </trkpt>
      <trkpt lat="43.04891" lon="0.89804">
        <ele>405.8</ele>
        <time>2022-09-04T10:08:12Z</time>
      </trkpt>
      <trkpt lat="43.04882" lon="0.8975">
        <ele>404.8</ele>
        <time>2022-09-04T10:08:16Z</time>
      </trkpt>
      <trkpt lat="43.04877" lon="0.89723">
        <ele>403.6</ele>
        <time>2022-09-04T10:08:18Z</time>
      </trkpt>
      <trkpt lat="43.04871" lon="0.89697">
        <ele>403.4</ele>
        <time>2022-09-04T10:08:20Z</time>
      </trkpt>
      <trkpt lat="43.04864" lon="0.89672">
        <ele>402.4</ele>
        <time>2022-09-04T10:08:22Z</time>
      </trkpt>
      <trkpt lat="43.04849" lon="0.89611">
        <ele>401.4</ele>
        <time>2022-09-04T10:08:27Z</time>
      </trkpt>
      <trkpt lat="43.04842" lon="0.8959">
        <ele>401</ele>
        <time>2022-09-04T10:08:29Z</time>
      </trkpt>
      <trkpt lat="43.04828" lon="0.89545">
        <ele>401.2</ele>
        <time>2022-09-04T10:08:34Z</time>
      </trkpt>
      <trkpt lat="43.04817" lon="0.8951">
        <ele>401.4</ele>
        <time>2022-09-04T10:08:39Z</time>
      </trkpt>
      <trkpt lat="43.04803" lon="0.89483">
        <ele>402.2</ele>
        <time>2022-09-04T10:08:45Z</time>
      </trkpt>
      <trkpt lat="43.04801" lon="0.89478">
        <ele>402.4</ele>
        <time>2022-09-04T10:08:46Z</time>
      </trkpt>
      <trkpt lat="43.04789" lon="0.89456">
        <ele>402.6</ele>
        <time>2022-09-04T10:08:51Z</time>
      </trkpt>
      <trkpt lat="43.04772" lon="0.89425">
        <ele>403.4</ele>
        <time>2022-09-04T10:08:58Z</time>
      </trkpt>
      <trkpt lat="43.04764" lon="0.89405">
        <ele>404.6</ele>
        <time>2022-09-04T10:09:04Z</time>
      </trkpt>
      <trkpt lat="43.04764" lon="0.89396">
        <ele>405.6</ele>
        <time>2022-09-04T10:09:08Z</time>
      </trkpt>
      <trkpt lat="43.04766" lon="0.89392">
        <ele>405.8</ele>
        <time>2022-09-04T10:09:10Z</time>
      </trkpt>
      <trkpt lat="43.0477" lon="0.89379">
        <ele>406.6</ele>
        <time>2022-09-04T10:09:15Z</time>
      </trkpt>
      <trkpt lat="43.04774" lon="0.89377">
        <ele>406.6</ele>
        <time>2022-09-04T10:09:17Z</time>
      </trkpt>
      <trkpt lat="43.04777" lon="0.89375">
        <ele>407</ele>
        <time>2022-09-04T10:09:19Z</time>
      </trkpt>
      <trkpt lat="43.04781" lon="0.89374">
        <ele>407</ele>
        <time>2022-09-04T10:09:21Z</time>
      </trkpt>
      <trkpt lat="43.0479" lon="0.89369">
        <ele>407.4</ele>
        <time>2022-09-04T10:09:25Z</time>
      </trkpt>
      <trkpt lat="43.04809" lon="0.89357">
        <ele>407</ele>
        <time>2022-09-04T10:09:33Z</time>
      </trkpt>
      <trkpt lat="43.04821" lon="0.89349">
        <ele>406.4</ele>
        <time>2022-09-04T10:09:37Z</time>
      </trkpt>
      <trkpt lat="43.0483" lon="0.89342">
        <ele>405.6</ele>
        <time>2022-09-04T10:09:39Z</time>
      </trkpt>
      <trkpt lat="43.04841" lon="0.89333">
        <ele>405.2</ele>
        <time>2022-09-04T10:09:41Z</time>
      </trkpt>
      <trkpt lat="43.04845" lon="0.89329">
        <ele>404.6</ele>
        <time>2022-09-04T10:09:42Z</time>
      </trkpt>
      <trkpt lat="43.04859" lon="0.89319">
        <ele>403.6</ele>
        <time>2022-09-04T10:09:45Z</time>
      </trkpt>
      <trkpt lat="43.04864" lon="0.89316">
        <ele>403.6</ele>
        <time>2022-09-04T10:09:46Z</time>
      </trkpt>
      <trkpt lat="43.04883" lon="0.89308">
        <ele>402.2</ele>
        <time>2022-09-04T10:09:49Z</time>
      </trkpt>
      <trkpt lat="43.0489" lon="0.89306">
        <ele>401.6</ele>
        <time>2022-09-04T10:09:50Z</time>
      </trkpt>
      <trkpt lat="43.04899" lon="0.89304">
        <ele>401</ele>
        <time>2022-09-04T10:09:51Z</time>
      </trkpt>
      <trkpt lat="43.04918" lon="0.893">
        <ele>399.2</ele>
        <time>2022-09-04T10:09:53Z</time>
      </trkpt>
      <trkpt lat="43.04928" lon="0.89298">
        <ele>398.4</ele>
        <time>2022-09-04T10:09:54Z</time>
      </trkpt>
      <trkpt lat="43.04939" lon="0.89297">
        <ele>397.2</ele>
        <time>2022-09-04T10:09:55Z</time>
      </trkpt>
      <trkpt lat="43.0496" lon="0.89295">
        <ele>396</ele>
        <time>2022-09-04T10:09:57Z</time>
      </trkpt>
      <trkpt lat="43.05" lon="0.89291">
        <ele>395.2</ele>
        <time>2022-09-04T10:10:01Z</time>
      </trkpt>
      <trkpt lat="43.0501" lon="0.89291">
        <ele>394.8</ele>
        <time>2022-09-04T10:10:02Z</time>
      </trkpt>
      <trkpt lat="43.05044" lon="0.8929">
        <ele>394</ele>
        <time>2022-09-04T10:10:06Z</time>
      </trkpt>
      <trkpt lat="43.05058" lon="0.89291">
        <ele>393.6</ele>
        <time>2022-09-04T10:10:08Z</time>
      </trkpt>
      <trkpt lat="43.05071" lon="0.89291">
        <ele>392.4</ele>
        <time>2022-09-04T10:10:10Z</time>
      </trkpt>
      <trkpt lat="43.05077" lon="0.89289">
        <ele>392</ele>
        <time>2022-09-04T10:10:11Z</time>
      </trkpt>
      <trkpt lat="43.05086" lon="0.89276">
        <ele>391.4</ele>
        <time>2022-09-04T10:10:13Z</time>
      </trkpt>
      <trkpt lat="43.05089" lon="0.89268">
        <ele>390.8</ele>
        <time>2022-09-04T10:10:14Z</time>
      </trkpt>
      <trkpt lat="43.05091" lon="0.8926">
        <ele>390.4</ele>
        <time>2022-09-04T10:10:15Z</time>
      </trkpt>
      <trkpt lat="43.05097" lon="0.89242">
        <ele>390.2</ele>
        <time>2022-09-04T10:10:17Z</time>
      </trkpt>
      <trkpt lat="43.05105" lon="0.89212">
        <ele>389</ele>
        <time>2022-09-04T10:10:20Z</time>
      </trkpt>
      <trkpt lat="43.05114" lon="0.89179">
        <ele>388</ele>
        <time>2022-09-04T10:10:23Z</time>
      </trkpt>
      <trkpt lat="43.05123" lon="0.89145">
        <ele>386.8</ele>
        <time>2022-09-04T10:10:26Z</time>
      </trkpt>
      <trkpt lat="43.05126" lon="0.89134">
        <ele>386.2</ele>
        <time>2022-09-04T10:10:27Z</time>
      </trkpt>
      <trkpt lat="43.05129" lon="0.89122">
        <ele>385.6</ele>
        <time>2022-09-04T10:10:28Z</time>
      </trkpt>
      <trkpt lat="43.05139" lon="0.89087">
        <ele>384.4</ele>
        <time>2022-09-04T10:10:31Z</time>
      </trkpt>
      <trkpt lat="43.05152" lon="0.89041">
        <ele>383.4</ele>
        <time>2022-09-04T10:10:35Z</time>
      </trkpt>
      <trkpt lat="43.05155" lon="0.89029">
        <ele>383.2</ele>
        <time>2022-09-04T10:10:36Z</time>
      </trkpt>
      <trkpt lat="43.05165" lon="0.88995">
        <ele>381.8</ele>
        <time>2022-09-04T10:10:39Z</time>
      </trkpt>
      <trkpt lat="43.05179" lon="0.88951">
        <ele>381.2</ele>
        <time>2022-09-04T10:10:43Z</time>
      </trkpt>
      <trkpt lat="43.05187" lon="0.88931">
        <ele>380.8</ele>
        <time>2022-09-04T10:10:45Z</time>
      </trkpt>
      <trkpt lat="43.05197" lon="0.88905">
        <ele>381</ele>
        <time>2022-09-04T10:10:48Z</time>
      </trkpt>
      <trkpt lat="43.05216" lon="0.88864">
        <ele>381.2</ele>
        <time>2022-09-04T10:10:54Z</time>
      </trkpt>
      <trkpt lat="43.0523" lon="0.8883">
        <ele>381.8</ele>
        <time>2022-09-04T10:11:01Z</time>
      </trkpt>
      <trkpt lat="43.05243" lon="0.88791">
        <ele>382.8</ele>
        <time>2022-09-04T10:11:09Z</time>
      </trkpt>
      <trkpt lat="43.05254" lon="0.88745">
        <ele>382.6</ele>
        <time>2022-09-04T10:11:18Z</time>
      </trkpt>
      <trkpt lat="43.05259" lon="0.88708">
        <ele>383</ele>
        <time>2022-09-04T10:11:25Z</time>
      </trkpt>
      <trkpt lat="43.0526" lon="0.88703">
        <ele>383</ele>
        <time>2022-09-04T10:11:26Z</time>
      </trkpt>
      <trkpt lat="43.05264" lon="0.88661">
        <ele>382.8</ele>
        <time>2022-09-04T10:11:34Z</time>
      </trkpt>
      <trkpt lat="43.0527" lon="0.88646">
        <ele>382.8</ele>
        <time>2022-09-04T10:11:37Z</time>
      </trkpt>
      <trkpt lat="43.05277" lon="0.88633">
        <ele>383</ele>
        <time>2022-09-04T10:11:40Z</time>
      </trkpt>
      <trkpt lat="43.05294" lon="0.886">
        <ele>384</ele>
        <time>2022-09-04T10:11:48Z</time>
      </trkpt>
      <trkpt lat="43.053" lon="0.88589">
        <ele>384.2</ele>
        <time>2022-09-04T10:11:51Z</time>
      </trkpt>
      <trkpt lat="43.05309" lon="0.88571">
        <ele>385</ele>
        <time>2022-09-04T10:11:56Z</time>
      </trkpt>
      <trkpt lat="43.05313" lon="0.88562">
        <ele>385.6</ele>
        <time>2022-09-04T10:11:59Z</time>
      </trkpt>
      <trkpt lat="43.05317" lon="0.88553">
        <ele>386</ele>
        <time>2022-09-04T10:12:02Z</time>
      </trkpt>
      <trkpt lat="43.05322" lon="0.88543">
        <ele>386.8</ele>
        <time>2022-09-04T10:12:06Z</time>
      </trkpt>
      <trkpt lat="43.05323" lon="0.88537">
        <ele>387.2</ele>
        <time>2022-09-04T10:12:08Z</time>
      </trkpt>
      <trkpt lat="43.05329" lon="0.88524">
        <ele>388.2</ele>
        <time>2022-09-04T10:12:13Z</time>
      </trkpt>
      <trkpt lat="43.05337" lon="0.88504">
        <ele>389.2</ele>
        <time>2022-09-04T10:12:21Z</time>
      </trkpt>
      <trkpt lat="43.0534" lon="0.88492">
        <ele>389.8</ele>
        <time>2022-09-04T10:12:26Z</time>
      </trkpt>
      <trkpt lat="43.05341" lon="0.88491">
        <ele>389.8</ele>
        <time>2022-09-04T10:12:27Z</time>
      </trkpt>
      <trkpt lat="43.05343" lon="0.88484">
        <ele>389.8</ele>
        <time>2022-09-04T10:14:14Z</time>
      </trkpt>
      <trkpt lat="43.05343" lon="0.88481">
        <ele>390</ele>
        <time>2022-09-04T10:14:15Z</time>
      </trkpt>
      <trkpt lat="43.05346" lon="0.88463">
        <ele>390.4</ele>
        <time>2022-09-04T10:14:20Z</time>
      </trkpt>
      <trkpt lat="43.05349" lon="0.88453">
        <ele>390.6</ele>
        <time>2022-09-04T10:14:23Z</time>
      </trkpt>
      <trkpt lat="43.05355" lon="0.88433">
        <ele>391.4</ele>
        <time>2022-09-04T10:14:30Z</time>
      </trkpt>
      <trkpt lat="43.05357" lon="0.88431">
        <ele>391.6</ele>
        <time>2022-09-04T10:14:31Z</time>
      </trkpt>
      <trkpt lat="43.05365" lon="0.88414">
        <ele>392.4</ele>
        <time>2022-09-04T10:14:38Z</time>
      </trkpt>
      <trkpt lat="43.05367" lon="0.88409">
        <ele>392.6</ele>
        <time>2022-09-04T10:14:40Z</time>
      </trkpt>
      <trkpt lat="43.05373" lon="0.88391">
        <ele>393.4</ele>
        <time>2022-09-04T10:14:47Z</time>
      </trkpt>
      <trkpt lat="43.05374" lon="0.88385">
        <ele>393.6</ele>
        <time>2022-09-04T10:14:49Z</time>
      </trkpt>
      <trkpt lat="43.05378" lon="0.88374">
        <ele>394</ele>
        <time>2022-09-04T10:14:53Z</time>
      </trkpt>
      <trkpt lat="43.05385" lon="0.88355">
        <ele>394.6</ele>
        <time>2022-09-04T10:15:00Z</time>
      </trkpt>
      <trkpt lat="43.05385" lon="0.88352">
        <ele>394.8</ele>
        <time>2022-09-04T10:15:01Z</time>
      </trkpt>
      <trkpt lat="43.05389" lon="0.88324">
        <ele>395.6</ele>
        <time>2022-09-04T10:15:11Z</time>
      </trkpt>
      <trkpt lat="43.05389" lon="0.88321">
        <ele>395.8</ele>
        <time>2022-09-04T10:15:12Z</time>
      </trkpt>
      <trkpt lat="43.0539" lon="0.88299">
        <ele>396.4</ele>
        <time>2022-09-04T10:15:19Z</time>
      </trkpt>
      <trkpt lat="43.0539" lon="0.88289">
        <ele>396.8</ele>
        <time>2022-09-04T10:15:22Z</time>
      </trkpt>
      <trkpt lat="43.05387" lon="0.88274">
        <ele>397.4</ele>
        <time>2022-09-04T10:15:27Z</time>
      </trkpt>
      <trkpt lat="43.05384" lon="0.8827">
        <ele>398</ele>
        <time>2022-09-04T10:15:29Z</time>
      </trkpt>
      <trkpt lat="43.05378" lon="0.88268">
        <ele>398.2</ele>
        <time>2022-09-04T10:15:32Z</time>
      </trkpt>
      <trkpt lat="43.05369" lon="0.88266">
        <ele>399</ele>
        <time>2022-09-04T10:15:37Z</time>
      </trkpt>
      <trkpt lat="43.05365" lon="0.88266">
        <ele>399.2</ele>
        <time>2022-09-04T10:15:39Z</time>
      </trkpt>
      <trkpt lat="43.05357" lon="0.88263">
        <ele>399.8</ele>
        <time>2022-09-04T10:15:43Z</time>
      </trkpt>
      <trkpt lat="43.05355" lon="0.88262">
        <ele>400</ele>
        <time>2022-09-04T10:15:44Z</time>
      </trkpt>
      <trkpt lat="43.05342" lon="0.88259">
        <ele>401.2</ele>
        <time>2022-09-04T10:15:51Z</time>
      </trkpt>
      <trkpt lat="43.05328" lon="0.88257">
        <ele>402.4</ele>
        <time>2022-09-04T10:15:58Z</time>
      </trkpt>
      <trkpt lat="43.05326" lon="0.88257">
        <ele>402.4</ele>
        <time>2022-09-04T10:15:59Z</time>
      </trkpt>
      <trkpt lat="43.05316" lon="0.88255">
        <ele>403.2</ele>
        <time>2022-09-04T10:16:04Z</time>
      </trkpt>
      <trkpt lat="43.05313" lon="0.88255">
        <ele>403.4</ele>
        <time>2022-09-04T10:16:06Z</time>
      </trkpt>
      <trkpt lat="43.05301" lon="0.88252">
        <ele>404.4</ele>
        <time>2022-09-04T10:16:12Z</time>
      </trkpt>
      <trkpt lat="43.05299" lon="0.88251">
        <ele>404.6</ele>
        <time>2022-09-04T10:16:13Z</time>
      </trkpt>
      <trkpt lat="43.05284" lon="0.88249">
        <ele>405.4</ele>
        <time>2022-09-04T10:16:20Z</time>
      </trkpt>
      <trkpt lat="43.0528" lon="0.88248">
        <ele>405.6</ele>
        <time>2022-09-04T10:16:22Z</time>
      </trkpt>
      <trkpt lat="43.05266" lon="0.88245">
        <ele>406</ele>
        <time>2022-09-04T10:16:29Z</time>
      </trkpt>
      <trkpt lat="43.05256" lon="0.88241">
        <ele>406.4</ele>
        <time>2022-09-04T10:16:34Z</time>
      </trkpt>
      <trkpt lat="43.05255" lon="0.88237">
        <ele>406.6</ele>
        <time>2022-09-04T10:16:36Z</time>
      </trkpt>
      <trkpt lat="43.05253" lon="0.88226">
        <ele>407.8</ele>
        <time>2022-09-04T10:16:40Z</time>
      </trkpt>
      <trkpt lat="43.05253" lon="0.88221">
        <ele>408.2</ele>
        <time>2022-09-04T10:16:42Z</time>
      </trkpt>
      <trkpt lat="43.05252" lon="0.8821">
        <ele>408.8</ele>
        <time>2022-09-04T10:16:46Z</time>
      </trkpt>
      <trkpt lat="43.05251" lon="0.88204">
        <ele>409.4</ele>
        <time>2022-09-04T10:16:49Z</time>
      </trkpt>
      <trkpt lat="43.05243" lon="0.88193">
        <ele>409.2</ele>
        <time>2022-09-04T10:16:56Z</time>
      </trkpt>
      <trkpt lat="43.0524" lon="0.8819">
        <ele>408.8</ele>
        <time>2022-09-04T10:16:59Z</time>
      </trkpt>
      <trkpt lat="43.0524" lon="0.88188">
        <ele>408.6</ele>
        <time>2022-09-04T10:17:01Z</time>
      </trkpt>
      <trkpt lat="43.05241" lon="0.88184">
        <ele>408.8</ele>
        <time>2022-09-04T10:17:41Z</time>
      </trkpt>
      <trkpt lat="43.05242" lon="0.88179">
        <ele>409</ele>
        <time>2022-09-04T10:17:43Z</time>
      </trkpt>
      <trkpt lat="43.05249" lon="0.88156">
        <ele>409.6</ele>
        <time>2022-09-04T10:17:51Z</time>
      </trkpt>
      <trkpt lat="43.05254" lon="0.88151">
        <ele>410</ele>
        <time>2022-09-04T10:17:54Z</time>
      </trkpt>
      <trkpt lat="43.05256" lon="0.88151">
        <ele>410</ele>
        <time>2022-09-04T10:17:55Z</time>
      </trkpt>
      <trkpt lat="43.05261" lon="0.88154">
        <ele>411</ele>
        <time>2022-09-04T10:17:58Z</time>
      </trkpt>
      <trkpt lat="43.05266" lon="0.88157">
        <ele>412</ele>
        <time>2022-09-04T10:18:02Z</time>
      </trkpt>
      <trkpt lat="43.05267" lon="0.88157">
        <ele>412.2</ele>
        <time>2022-09-04T10:18:03Z</time>
      </trkpt>
      <trkpt lat="43.05274" lon="0.88152">
        <ele>413.2</ele>
        <time>2022-09-04T10:20:55Z</time>
      </trkpt>
      <trkpt lat="43.05278" lon="0.88152">
        <ele>413.4</ele>
        <time>2022-09-04T10:20:57Z</time>
      </trkpt>
      <trkpt lat="43.05286" lon="0.88147">
        <ele>414</ele>
        <time>2022-09-04T10:21:03Z</time>
      </trkpt>
      <trkpt lat="43.05287" lon="0.88145">
        <ele>414.2</ele>
        <time>2022-09-04T10:21:04Z</time>
      </trkpt>
      <trkpt lat="43.05288" lon="0.88142">
        <ele>414.2</ele>
        <time>2022-09-04T10:21:05Z</time>
      </trkpt>
      <trkpt lat="43.05289" lon="0.8814">
        <ele>413.8</ele>
        <time>2022-09-04T10:21:07Z</time>
      </trkpt>
      <trkpt lat="43.05298" lon="0.88138">
        <ele>414.2</ele>
        <time>2022-09-04T10:21:12Z</time>
      </trkpt>
      <trkpt lat="43.053" lon="0.88138">
        <ele>414.2</ele>
        <time>2022-09-04T10:21:13Z</time>
      </trkpt>
      <trkpt lat="43.0531" lon="0.88131">
        <ele>414.2</ele>
        <time>2022-09-04T10:21:18Z</time>
      </trkpt>
      <trkpt lat="43.0532" lon="0.88122">
        <ele>413.8</ele>
        <time>2022-09-04T10:21:23Z</time>
      </trkpt>
      <trkpt lat="43.05327" lon="0.88108">
        <ele>413</ele>
        <time>2022-09-04T10:21:28Z</time>
      </trkpt>
      <trkpt lat="43.0533" lon="0.88098">
        <ele>412.8</ele>
        <time>2022-09-04T10:21:31Z</time>
      </trkpt>
      <trkpt lat="43.05334" lon="0.88091">
        <ele>412</ele>
        <time>2022-09-04T10:21:34Z</time>
      </trkpt>
      <trkpt lat="43.05342" lon="0.88086">
        <ele>411.2</ele>
        <time>2022-09-04T10:21:37Z</time>
      </trkpt>
      <trkpt lat="43.05346" lon="0.88087">
        <ele>410.8</ele>
        <time>2022-09-04T10:21:38Z</time>
      </trkpt>
      <trkpt lat="43.05357" lon="0.88091">
        <ele>409.8</ele>
        <time>2022-09-04T10:21:40Z</time>
      </trkpt>
      <trkpt lat="43.05364" lon="0.88094">
        <ele>409.2</ele>
        <time>2022-09-04T10:21:41Z</time>
      </trkpt>
      <trkpt lat="43.05379" lon="0.88102">
        <ele>407.6</ele>
        <time>2022-09-04T10:21:43Z</time>
      </trkpt>
      <trkpt lat="43.05386" lon="0.88105">
        <ele>406.8</ele>
        <time>2022-09-04T10:21:44Z</time>
      </trkpt>
      <trkpt lat="43.05393" lon="0.88108">
        <ele>406</ele>
        <time>2022-09-04T10:21:45Z</time>
      </trkpt>
      <trkpt lat="43.05405" lon="0.88113">
        <ele>404.6</ele>
        <time>2022-09-04T10:21:47Z</time>
      </trkpt>
      <trkpt lat="43.05416" lon="0.88118">
        <ele>403.2</ele>
        <time>2022-09-04T10:21:49Z</time>
      </trkpt>
      <trkpt lat="43.0542" lon="0.88119">
        <ele>402.6</ele>
        <time>2022-09-04T10:21:50Z</time>
      </trkpt>
      <trkpt lat="43.05428" lon="0.88122">
        <ele>402</ele>
        <time>2022-09-04T10:21:52Z</time>
      </trkpt>
      <trkpt lat="43.05436" lon="0.88126">
        <ele>401.2</ele>
        <time>2022-09-04T10:21:55Z</time>
      </trkpt>
      <trkpt lat="43.05438" lon="0.88127">
        <ele>401</ele>
        <time>2022-09-04T10:21:56Z</time>
      </trkpt>
      <trkpt lat="43.05439" lon="0.88127">
        <ele>400.8</ele>
        <time>2022-09-04T10:21:57Z</time>
      </trkpt>
      <trkpt lat="43.05443" lon="0.88126">
        <ele>400.4</ele>
        <time>2022-09-04T10:21:59Z</time>
      </trkpt>
      <trkpt lat="43.05447" lon="0.88115">
        <ele>400.4</ele>
        <time>2022-09-04T10:22:03Z</time>
      </trkpt>
      <trkpt lat="43.05448" lon="0.88112">
        <ele>400.4</ele>
        <time>2022-09-04T10:22:04Z</time>
      </trkpt>
      <trkpt lat="43.05454" lon="0.8809">
        <ele>400.4</ele>
        <time>2022-09-04T10:22:10Z</time>
      </trkpt>
      <trkpt lat="43.05458" lon="0.88066">
        <ele>400.6</ele>
        <time>2022-09-04T10:22:16Z</time>
      </trkpt>
      <trkpt lat="43.05466" lon="0.88029">
        <ele>400.8</ele>
        <time>2022-09-04T10:22:24Z</time>
      </trkpt>
      <trkpt lat="43.05473" lon="0.87992">
        <ele>401.2</ele>
        <time>2022-09-04T10:22:32Z</time>
      </trkpt>
      <trkpt lat="43.05475" lon="0.87962">
        <ele>401.4</ele>
        <time>2022-09-04T10:22:38Z</time>
      </trkpt>
      <trkpt lat="43.05479" lon="0.87921">
        <ele>401.6</ele>
        <time>2022-09-04T10:22:46Z</time>
      </trkpt>
      <trkpt lat="43.05483" lon="0.87881">
        <ele>401.6</ele>
        <time>2022-09-04T10:22:54Z</time>
      </trkpt>
      <trkpt lat="43.05486" lon="0.87861">
        <ele>401.4</ele>
        <time>2022-09-04T10:22:58Z</time>
      </trkpt>
      <trkpt lat="43.05488" lon="0.87838">
        <ele>401.2</ele>
        <time>2022-09-04T10:23:02Z</time>
      </trkpt>
      <trkpt lat="43.05489" lon="0.87821">
        <ele>401.2</ele>
        <time>2022-09-04T10:23:05Z</time>
      </trkpt>
      <trkpt lat="43.0549" lon="0.87794">
        <ele>400.8</ele>
        <time>2022-09-04T10:23:10Z</time>
      </trkpt>
      <trkpt lat="43.05486" lon="0.87749">
        <ele>400.8</ele>
        <time>2022-09-04T10:23:18Z</time>
      </trkpt>
      <trkpt lat="43.05485" lon="0.87732">
        <ele>400.8</ele>
        <time>2022-09-04T10:23:22Z</time>
      </trkpt>
      <trkpt lat="43.05485" lon="0.87706">
        <ele>401</ele>
        <time>2022-09-04T10:23:27Z</time>
      </trkpt>
      <trkpt lat="43.05487" lon="0.87694">
        <ele>400.8</ele>
        <time>2022-09-04T10:23:29Z</time>
      </trkpt>
      <trkpt lat="43.05494" lon="0.87679">
        <ele>401.2</ele>
        <time>2022-09-04T10:23:32Z</time>
      </trkpt>
      <trkpt lat="43.05508" lon="0.87649">
        <ele>401.2</ele>
        <time>2022-09-04T10:23:39Z</time>
      </trkpt>
      <trkpt lat="43.0553" lon="0.87614">
        <ele>401.6</ele>
        <time>2022-09-04T10:23:48Z</time>
      </trkpt>
      <trkpt lat="43.05551" lon="0.87583">
        <ele>402.2</ele>
        <time>2022-09-04T10:23:56Z</time>
      </trkpt>
      <trkpt lat="43.05573" lon="0.87543">
        <ele>403</ele>
        <time>2022-09-04T10:24:06Z</time>
      </trkpt>
      <trkpt lat="43.05575" lon="0.8754">
        <ele>403.2</ele>
        <time>2022-09-04T10:24:07Z</time>
      </trkpt>
      <trkpt lat="43.05584" lon="0.8752">
        <ele>404.4</ele>
        <time>2022-09-04T10:24:13Z</time>
      </trkpt>
      <trkpt lat="43.05586" lon="0.87517">
        <ele>404.4</ele>
        <time>2022-09-04T10:24:14Z</time>
      </trkpt>
      <trkpt lat="43.05596" lon="0.87499">
        <ele>405.4</ele>
        <time>2022-09-04T10:24:20Z</time>
      </trkpt>
      <trkpt lat="43.05598" lon="0.87493">
        <ele>405.6</ele>
        <time>2022-09-04T10:24:22Z</time>
      </trkpt>
      <trkpt lat="43.05603" lon="0.87482">
        <ele>406.4</ele>
        <time>2022-09-04T10:24:26Z</time>
      </trkpt>
      <trkpt lat="43.05608" lon="0.87472">
        <ele>407</ele>
        <time>2022-09-04T10:24:30Z</time>
      </trkpt>
      <trkpt lat="43.0561" lon="0.87467">
        <ele>407.6</ele>
        <time>2022-09-04T10:24:32Z</time>
      </trkpt>
      <trkpt lat="43.05614" lon="0.87454">
        <ele>408.2</ele>
        <time>2022-09-04T10:24:37Z</time>
      </trkpt>
      <trkpt lat="43.05617" lon="0.87449">
        <ele>408.8</ele>
        <time>2022-09-04T10:24:39Z</time>
      </trkpt>
      <trkpt lat="43.0562" lon="0.87439">
        <ele>409.4</ele>
        <time>2022-09-04T10:24:43Z</time>
      </trkpt>
      <trkpt lat="43.05623" lon="0.8743">
        <ele>410</ele>
        <time>2022-09-04T10:24:47Z</time>
      </trkpt>
      <trkpt lat="43.05625" lon="0.87423">
        <ele>410.6</ele>
        <time>2022-09-04T10:24:50Z</time>
      </trkpt>
      <trkpt lat="43.05628" lon="0.87417">
        <ele>411</ele>
        <time>2022-09-04T10:24:53Z</time>
      </trkpt>
      <trkpt lat="43.0563" lon="0.8741">
        <ele>411.4</ele>
        <time>2022-09-04T10:24:56Z</time>
      </trkpt>
      <trkpt lat="43.05631" lon="0.87404">
        <ele>412</ele>
        <time>2022-09-04T10:24:59Z</time>
      </trkpt>
      <trkpt lat="43.05634" lon="0.87397">
        <ele>412.4</ele>
        <time>2022-09-04T10:25:03Z</time>
      </trkpt>
      <trkpt lat="43.05637" lon="0.87392">
        <ele>413.2</ele>
        <time>2022-09-04T10:25:06Z</time>
      </trkpt>
      <trkpt lat="43.05639" lon="0.87386">
        <ele>413.6</ele>
        <time>2022-09-04T10:25:10Z</time>
      </trkpt>
      <trkpt lat="43.05643" lon="0.87381">
        <ele>414.2</ele>
        <time>2022-09-04T10:25:14Z</time>
      </trkpt>
      <trkpt lat="43.05643" lon="0.87377">
        <ele>414.6</ele>
        <time>2022-09-04T10:25:16Z</time>
      </trkpt>
      <trkpt lat="43.05644" lon="0.87375">
        <ele>414.6</ele>
        <time>2022-09-04T10:25:17Z</time>
      </trkpt>
      <trkpt lat="43.05646" lon="0.87365">
        <ele>415.4</ele>
        <time>2022-09-04T10:25:23Z</time>
      </trkpt>
      <trkpt lat="43.05646" lon="0.87361">
        <ele>415.8</ele>
        <time>2022-09-04T10:25:25Z</time>
      </trkpt>
      <trkpt lat="43.05649" lon="0.87352">
        <ele>416.6</ele>
        <time>2022-09-04T10:25:30Z</time>
      </trkpt>
      <trkpt lat="43.0565" lon="0.87349">
        <ele>416.8</ele>
        <time>2022-09-04T10:25:32Z</time>
      </trkpt>
      <trkpt lat="43.05652" lon="0.8734">
        <ele>417.6</ele>
        <time>2022-09-04T10:25:36Z</time>
      </trkpt>
      <trkpt lat="43.05653" lon="0.87334">
        <ele>418</ele>
        <time>2022-09-04T10:25:38Z</time>
      </trkpt>
      <trkpt lat="43.05657" lon="0.87325">
        <ele>418.8</ele>
        <time>2022-09-04T10:25:42Z</time>
      </trkpt>
      <trkpt lat="43.0566" lon="0.87316">
        <ele>419.2</ele>
        <time>2022-09-04T10:25:45Z</time>
      </trkpt>
      <trkpt lat="43.0566" lon="0.87313">
        <ele>419.4</ele>
        <time>2022-09-04T10:25:46Z</time>
      </trkpt>
      <trkpt lat="43.05661" lon="0.8731">
        <ele>419.6</ele>
        <time>2022-09-04T10:25:47Z</time>
      </trkpt>
      <trkpt lat="43.05663" lon="0.87304">
        <ele>419.8</ele>
        <time>2022-09-04T10:25:49Z</time>
      </trkpt>
      <trkpt lat="43.05664" lon="0.87298">
        <ele>420.2</ele>
        <time>2022-09-04T10:25:51Z</time>
      </trkpt>
      <trkpt lat="43.05667" lon="0.87291">
        <ele>420.6</ele>
        <time>2022-09-04T10:25:54Z</time>
      </trkpt>
      <trkpt lat="43.05669" lon="0.87286">
        <ele>421</ele>
        <time>2022-09-04T10:25:56Z</time>
      </trkpt>
      <trkpt lat="43.05671" lon="0.87281">
        <ele>421.2</ele>
        <time>2022-09-04T10:25:58Z</time>
      </trkpt>
      <trkpt lat="43.05677" lon="0.87264">
        <ele>421.8</ele>
        <time>2022-09-04T10:26:05Z</time>
      </trkpt>
      <trkpt lat="43.05679" lon="0.8726">
        <ele>422</ele>
        <time>2022-09-04T10:26:07Z</time>
      </trkpt>
      <trkpt lat="43.05685" lon="0.87241">
        <ele>422.2</ele>
        <time>2022-09-04T10:26:14Z</time>
      </trkpt>
      <trkpt lat="43.05693" lon="0.87219">
        <ele>422.2</ele>
        <time>2022-09-04T10:26:21Z</time>
      </trkpt>
      <trkpt lat="43.05706" lon="0.87188">
        <ele>421.8</ele>
        <time>2022-09-04T10:26:29Z</time>
      </trkpt>
      <trkpt lat="43.05721" lon="0.87158">
        <ele>421</ele>
        <time>2022-09-04T10:26:36Z</time>
      </trkpt>
      <trkpt lat="43.05724" lon="0.87153">
        <ele>420.8</ele>
        <time>2022-09-04T10:26:37Z</time>
      </trkpt>
      <trkpt lat="43.05743" lon="0.87114">
        <ele>419.4</ele>
        <time>2022-09-04T10:26:43Z</time>
      </trkpt>
      <trkpt lat="43.05757" lon="0.87085">
        <ele>418.2</ele>
        <time>2022-09-04T10:26:47Z</time>
      </trkpt>
      <trkpt lat="43.05769" lon="0.87061">
        <ele>417.2</ele>
        <time>2022-09-04T10:26:50Z</time>
      </trkpt>
      <trkpt lat="43.05774" lon="0.87053">
        <ele>416.8</ele>
        <time>2022-09-04T10:26:51Z</time>
      </trkpt>
      <trkpt lat="43.05789" lon="0.87027">
        <ele>415.6</ele>
        <time>2022-09-04T10:26:54Z</time>
      </trkpt>
      <trkpt lat="43.05799" lon="0.87007">
        <ele>415</ele>
        <time>2022-09-04T10:26:56Z</time>
      </trkpt>
      <trkpt lat="43.05805" lon="0.86997">
        <ele>414.4</ele>
        <time>2022-09-04T10:26:57Z</time>
      </trkpt>
      <trkpt lat="43.05821" lon="0.86965">
        <ele>413.4</ele>
        <time>2022-09-04T10:27:00Z</time>
      </trkpt>
      <trkpt lat="43.05831" lon="0.86943">
        <ele>412.4</ele>
        <time>2022-09-04T10:27:02Z</time>
      </trkpt>
      <trkpt lat="43.05835" lon="0.86931">
        <ele>411.6</ele>
        <time>2022-09-04T10:27:03Z</time>
      </trkpt>
      <trkpt lat="43.0584" lon="0.86919">
        <ele>411.2</ele>
        <time>2022-09-04T10:27:04Z</time>
      </trkpt>
      <trkpt lat="43.05859" lon="0.8686">
        <ele>410</ele>
        <time>2022-09-04T10:27:09Z</time>
      </trkpt>
      <trkpt lat="43.05862" lon="0.86849">
        <ele>410</ele>
        <time>2022-09-04T10:27:10Z</time>
      </trkpt>
      <trkpt lat="43.05875" lon="0.86802">
        <ele>409</ele>
        <time>2022-09-04T10:27:14Z</time>
      </trkpt>
      <trkpt lat="43.05883" lon="0.86768">
        <ele>407.8</ele>
        <time>2022-09-04T10:27:17Z</time>
      </trkpt>
      <trkpt lat="43.05898" lon="0.86712">
        <ele>406.8</ele>
        <time>2022-09-04T10:27:22Z</time>
      </trkpt>
      <trkpt lat="43.05903" lon="0.86678">
        <ele>406.2</ele>
        <time>2022-09-04T10:27:25Z</time>
      </trkpt>
      <trkpt lat="43.05906" lon="0.86643">
        <ele>405.4</ele>
        <time>2022-09-04T10:27:28Z</time>
      </trkpt>
      <trkpt lat="43.05908" lon="0.86608">
        <ele>404.4</ele>
        <time>2022-09-04T10:27:31Z</time>
      </trkpt>
      <trkpt lat="43.05908" lon="0.86597">
        <ele>404.2</ele>
        <time>2022-09-04T10:27:32Z</time>
      </trkpt>
      <trkpt lat="43.05909" lon="0.86536">
        <ele>404.4</ele>
        <time>2022-09-04T10:27:38Z</time>
      </trkpt>
      <trkpt lat="43.05908" lon="0.86499">
        <ele>405.2</ele>
        <time>2022-09-04T10:27:43Z</time>
      </trkpt>
      <trkpt lat="43.05907" lon="0.86486">
        <ele>405.4</ele>
        <time>2022-09-04T10:27:45Z</time>
      </trkpt>
      <trkpt lat="43.05904" lon="0.86454">
        <ele>405.8</ele>
        <time>2022-09-04T10:27:50Z</time>
      </trkpt>
      <trkpt lat="43.05901" lon="0.86426">
        <ele>406.8</ele>
        <time>2022-09-04T10:27:55Z</time>
      </trkpt>
      <trkpt lat="43.05899" lon="0.86408">
        <ele>407.2</ele>
        <time>2022-09-04T10:27:58Z</time>
      </trkpt>
      <trkpt lat="43.05896" lon="0.86386">
        <ele>407.8</ele>
        <time>2022-09-04T10:28:02Z</time>
      </trkpt>
      <trkpt lat="43.05893" lon="0.8636">
        <ele>408.2</ele>
        <time>2022-09-04T10:28:07Z</time>
      </trkpt>
      <trkpt lat="43.05889" lon="0.86327">
        <ele>409</ele>
        <time>2022-09-04T10:28:13Z</time>
      </trkpt>
      <trkpt lat="43.05887" lon="0.86311">
        <ele>409</ele>
        <time>2022-09-04T10:28:16Z</time>
      </trkpt>
      <trkpt lat="43.05882" lon="0.8626">
        <ele>410</ele>
        <time>2022-09-04T10:28:26Z</time>
      </trkpt>
      <trkpt lat="43.05885" lon="0.8621">
        <ele>410.4</ele>
        <time>2022-09-04T10:28:36Z</time>
      </trkpt>
      <trkpt lat="43.05888" lon="0.86188">
        <ele>410.8</ele>
        <time>2022-09-04T10:28:41Z</time>
      </trkpt>
      <trkpt lat="43.05891" lon="0.86172">
        <ele>410</ele>
        <time>2022-09-04T10:28:44Z</time>
      </trkpt>
      <trkpt lat="43.05894" lon="0.86151">
        <ele>409.6</ele>
        <time>2022-09-04T10:28:47Z</time>
      </trkpt>
      <trkpt lat="43.05896" lon="0.86125">
        <ele>408.6</ele>
        <time>2022-09-04T10:28:50Z</time>
      </trkpt>
      <trkpt lat="43.05898" lon="0.86105">
        <ele>408.2</ele>
        <time>2022-09-04T10:28:52Z</time>
      </trkpt>
      <trkpt lat="43.059" lon="0.86084">
        <ele>407.2</ele>
        <time>2022-09-04T10:28:54Z</time>
      </trkpt>
      <trkpt lat="43.05901" lon="0.86062">
        <ele>406.6</ele>
        <time>2022-09-04T10:28:56Z</time>
      </trkpt>
      <trkpt lat="43.05902" lon="0.86039">
        <ele>406.2</ele>
        <time>2022-09-04T10:28:58Z</time>
      </trkpt>
      <trkpt lat="43.05903" lon="0.86028">
        <ele>406</ele>
        <time>2022-09-04T10:28:59Z</time>
      </trkpt>
      <trkpt lat="43.05907" lon="0.85983">
        <ele>405</ele>
        <time>2022-09-04T10:29:03Z</time>
      </trkpt>
      <trkpt lat="43.05909" lon="0.85959">
        <ele>404.2</ele>
        <time>2022-09-04T10:29:05Z</time>
      </trkpt>
      <trkpt lat="43.0591" lon="0.85947">
        <ele>403.2</ele>
        <time>2022-09-04T10:29:06Z</time>
      </trkpt>
      <trkpt lat="43.05916" lon="0.8591">
        <ele>402.2</ele>
        <time>2022-09-04T10:29:09Z</time>
      </trkpt>
      <trkpt lat="43.05921" lon="0.85885">
        <ele>401.6</ele>
        <time>2022-09-04T10:29:11Z</time>
      </trkpt>
      <trkpt lat="43.05929" lon="0.85861">
        <ele>400.8</ele>
        <time>2022-09-04T10:29:13Z</time>
      </trkpt>
      <trkpt lat="43.05938" lon="0.85838">
        <ele>399.4</ele>
        <time>2022-09-04T10:29:15Z</time>
      </trkpt>
      <trkpt lat="43.05943" lon="0.85827">
        <ele>399</ele>
        <time>2022-09-04T10:29:16Z</time>
      </trkpt>
      <trkpt lat="43.05961" lon="0.85794">
        <ele>398.2</ele>
        <time>2022-09-04T10:29:19Z</time>
      </trkpt>
      <trkpt lat="43.05979" lon="0.85762">
        <ele>397.2</ele>
        <time>2022-09-04T10:29:22Z</time>
      </trkpt>
      <trkpt lat="43.05985" lon="0.85752">
        <ele>396.8</ele>
        <time>2022-09-04T10:29:23Z</time>
      </trkpt>
      <trkpt lat="43.06002" lon="0.85723">
        <ele>396</ele>
        <time>2022-09-04T10:29:26Z</time>
      </trkpt>
      <trkpt lat="43.06024" lon="0.85687">
        <ele>395.4</ele>
        <time>2022-09-04T10:29:30Z</time>
      </trkpt>
      <trkpt lat="43.06044" lon="0.85651">
        <ele>396.2</ele>
        <time>2022-09-04T10:29:35Z</time>
      </trkpt>
      <trkpt lat="43.06055" lon="0.85629">
        <ele>397</ele>
        <time>2022-09-04T10:29:39Z</time>
      </trkpt>
      <trkpt lat="43.06058" lon="0.85617">
        <ele>397.2</ele>
        <time>2022-09-04T10:29:41Z</time>
      </trkpt>
      <trkpt lat="43.06059" lon="0.85587">
        <ele>398</ele>
        <time>2022-09-04T10:29:46Z</time>
      </trkpt>
      <trkpt lat="43.06058" lon="0.85576">
        <ele>398.4</ele>
        <time>2022-09-04T10:29:48Z</time>
      </trkpt>
      <trkpt lat="43.06051" lon="0.85539">
        <ele>398.6</ele>
        <time>2022-09-04T10:29:55Z</time>
      </trkpt>
      <trkpt lat="43.06044" lon="0.85496">
        <ele>399.4</ele>
        <time>2022-09-04T10:30:04Z</time>
      </trkpt>
      <trkpt lat="43.06043" lon="0.85492">
        <ele>399.4</ele>
        <time>2022-09-04T10:30:05Z</time>
      </trkpt>
      <trkpt lat="43.06037" lon="0.85459">
        <ele>400</ele>
        <time>2022-09-04T10:30:12Z</time>
      </trkpt>
      <trkpt lat="43.06033" lon="0.85436">
        <ele>400.4</ele>
        <time>2022-09-04T10:30:17Z</time>
      </trkpt>
      <trkpt lat="43.0603" lon="0.85419">
        <ele>400.8</ele>
        <time>2022-09-04T10:30:21Z</time>
      </trkpt>
      <trkpt lat="43.06023" lon="0.85383">
        <ele>401.4</ele>
        <time>2022-09-04T10:30:29Z</time>
      </trkpt>
      <trkpt lat="43.06022" lon="0.85374">
        <ele>401.6</ele>
        <time>2022-09-04T10:30:31Z</time>
      </trkpt>
      <trkpt lat="43.06017" lon="0.85342">
        <ele>402</ele>
        <time>2022-09-04T10:30:38Z</time>
      </trkpt>
      <trkpt lat="43.06013" lon="0.85316">
        <ele>402.6</ele>
        <time>2022-09-04T10:30:44Z</time>
      </trkpt>
      <trkpt lat="43.0601" lon="0.85299">
        <ele>403</ele>
        <time>2022-09-04T10:30:48Z</time>
      </trkpt>
      <trkpt lat="43.06007" lon="0.85282">
        <ele>403.6</ele>
        <time>2022-09-04T10:30:52Z</time>
      </trkpt>
      <trkpt lat="43.06004" lon="0.85263">
        <ele>404</ele>
        <time>2022-09-04T10:30:57Z</time>
      </trkpt>
      <trkpt lat="43.06002" lon="0.8525">
        <ele>404.8</ele>
        <time>2022-09-04T10:31:01Z</time>
      </trkpt>
      <trkpt lat="43.06" lon="0.85238">
        <ele>405.2</ele>
        <time>2022-09-04T10:31:05Z</time>
      </trkpt>
      <trkpt lat="43.05997" lon="0.85225">
        <ele>405.8</ele>
        <time>2022-09-04T10:31:09Z</time>
      </trkpt>
      <trkpt lat="43.05995" lon="0.8521">
        <ele>406.4</ele>
        <time>2022-09-04T10:31:14Z</time>
      </trkpt>
      <trkpt lat="43.05994" lon="0.85203">
        <ele>406.8</ele>
        <time>2022-09-04T10:31:17Z</time>
      </trkpt>
      <trkpt lat="43.05991" lon="0.85191">
        <ele>407.6</ele>
        <time>2022-09-04T10:31:22Z</time>
      </trkpt>
      <trkpt lat="43.0599" lon="0.8518">
        <ele>408</ele>
        <time>2022-09-04T10:31:26Z</time>
      </trkpt>
      <trkpt lat="43.05989" lon="0.85175">
        <ele>408.2</ele>
        <time>2022-09-04T10:31:29Z</time>
      </trkpt>
      <trkpt lat="43.05987" lon="0.85158">
        <ele>409.2</ele>
        <time>2022-09-04T10:31:36Z</time>
      </trkpt>
      <trkpt lat="43.05986" lon="0.8515">
        <ele>409.6</ele>
        <time>2022-09-04T10:31:39Z</time>
      </trkpt>
      <trkpt lat="43.05984" lon="0.8514">
        <ele>410.2</ele>
        <time>2022-09-04T10:31:43Z</time>
      </trkpt>
      <trkpt lat="43.05981" lon="0.85122">
        <ele>410.8</ele>
        <time>2022-09-04T10:31:50Z</time>
      </trkpt>
      <trkpt lat="43.05979" lon="0.85112">
        <ele>411.2</ele>
        <time>2022-09-04T10:31:54Z</time>
      </trkpt>
      <trkpt lat="43.05977" lon="0.851">
        <ele>412</ele>
        <time>2022-09-04T10:31:59Z</time>
      </trkpt>
      <trkpt lat="43.05975" lon="0.85092">
        <ele>412.4</ele>
        <time>2022-09-04T10:32:02Z</time>
      </trkpt>
      <trkpt lat="43.05973" lon="0.85077">
        <ele>413.2</ele>
        <time>2022-09-04T10:32:08Z</time>
      </trkpt>
      <trkpt lat="43.05973" lon="0.85074">
        <ele>413.4</ele>
        <time>2022-09-04T10:32:09Z</time>
      </trkpt>
      <trkpt lat="43.05971" lon="0.8506">
        <ele>414</ele>
        <time>2022-09-04T10:32:15Z</time>
      </trkpt>
      <trkpt lat="43.0597" lon="0.85052">
        <ele>414.4</ele>
        <time>2022-09-04T10:32:18Z</time>
      </trkpt>
      <trkpt lat="43.05968" lon="0.85038">
        <ele>415.4</ele>
        <time>2022-09-04T10:32:24Z</time>
      </trkpt>
      <trkpt lat="43.05968" lon="0.85026">
        <ele>415.8</ele>
        <time>2022-09-04T10:32:29Z</time>
      </trkpt>
      <trkpt lat="43.05968" lon="0.85019">
        <ele>416.2</ele>
        <time>2022-09-04T10:32:32Z</time>
      </trkpt>
      <trkpt lat="43.05968" lon="0.85012">
        <ele>416.6</ele>
        <time>2022-09-04T10:32:35Z</time>
      </trkpt>
      <trkpt lat="43.05968" lon="0.85009">
        <ele>416.8</ele>
        <time>2022-09-04T10:32:36Z</time>
      </trkpt>
      <trkpt lat="43.05967" lon="0.84992">
        <ele>417.6</ele>
        <time>2022-09-04T10:32:43Z</time>
      </trkpt>
      <trkpt lat="43.05967" lon="0.84973">
        <ele>418.8</ele>
        <time>2022-09-04T10:32:51Z</time>
      </trkpt>
      <trkpt lat="43.05967" lon="0.84952">
        <ele>419.8</ele>
        <time>2022-09-04T10:33:01Z</time>
      </trkpt>
      <trkpt lat="43.05967" lon="0.84949">
        <ele>420</ele>
        <time>2022-09-04T10:33:02Z</time>
      </trkpt>
      <trkpt lat="43.05967" lon="0.84937">
        <ele>420.8</ele>
        <time>2022-09-04T10:33:08Z</time>
      </trkpt>
      <trkpt lat="43.05967" lon="0.84936">
        <ele>421</ele>
        <time>2022-09-04T10:33:09Z</time>
      </trkpt>
      <trkpt lat="43.05967" lon="0.84934">
        <ele>421</ele>
        <time>2022-09-04T10:33:10Z</time>
      </trkpt>
      <trkpt lat="43.05967" lon="0.84931">
        <ele>421.2</ele>
        <time>2022-09-04T10:33:12Z</time>
      </trkpt>
      <trkpt lat="43.05967" lon="0.84923">
        <ele>421.8</ele>
        <time>2022-09-04T10:33:16Z</time>
      </trkpt>
      <trkpt lat="43.05967" lon="0.84919">
        <ele>422.2</ele>
        <time>2022-09-04T10:33:18Z</time>
      </trkpt>
      <trkpt lat="43.05967" lon="0.84909">
        <ele>423</ele>
        <time>2022-09-04T10:33:25Z</time>
      </trkpt>
      <trkpt lat="43.05967" lon="0.84907">
        <ele>423.2</ele>
        <time>2022-09-04T10:33:26Z</time>
      </trkpt>
      <trkpt lat="43.05968" lon="0.84897">
        <ele>424</ele>
        <time>2022-09-04T10:33:32Z</time>
      </trkpt>
      <trkpt lat="43.05968" lon="0.84895">
        <ele>424.2</ele>
        <time>2022-09-04T10:33:33Z</time>
      </trkpt>
      <trkpt lat="43.05971" lon="0.84883">
        <ele>425</ele>
        <time>2022-09-04T10:33:39Z</time>
      </trkpt>
      <trkpt lat="43.0597" lon="0.84881">
        <ele>425.2</ele>
        <time>2022-09-04T10:33:40Z</time>
      </trkpt>
      <trkpt lat="43.05972" lon="0.84875">
        <ele>425.8</ele>
        <time>2022-09-04T10:33:43Z</time>
      </trkpt>
      <trkpt lat="43.05972" lon="0.84869">
        <ele>426.4</ele>
        <time>2022-09-04T10:33:46Z</time>
      </trkpt>
      <trkpt lat="43.05973" lon="0.84864">
        <ele>426.6</ele>
        <time>2022-09-04T10:33:48Z</time>
      </trkpt>
      <trkpt lat="43.05974" lon="0.84856">
        <ele>427.2</ele>
        <time>2022-09-04T10:33:52Z</time>
      </trkpt>
      <trkpt lat="43.05974" lon="0.84853">
        <ele>427.2</ele>
        <time>2022-09-04T10:33:53Z</time>
      </trkpt>
      <trkpt lat="43.05975" lon="0.84849">
        <ele>427.4</ele>
        <time>2022-09-04T10:33:55Z</time>
      </trkpt>
      <trkpt lat="43.05975" lon="0.84847">
        <ele>427.6</ele>
        <time>2022-09-04T10:33:56Z</time>
      </trkpt>
      <trkpt lat="43.05975" lon="0.8484">
        <ele>428</ele>
        <time>2022-09-04T10:33:59Z</time>
      </trkpt>
      <trkpt lat="43.05976" lon="0.84833">
        <ele>428.4</ele>
        <time>2022-09-04T10:34:02Z</time>
      </trkpt>
      <trkpt lat="43.05978" lon="0.8482">
        <ele>429.4</ele>
        <time>2022-09-04T10:34:08Z</time>
      </trkpt>
      <trkpt lat="43.05978" lon="0.84818">
        <ele>429.6</ele>
        <time>2022-09-04T10:34:09Z</time>
      </trkpt>
      <trkpt lat="43.05979" lon="0.84805">
        <ele>430.8</ele>
        <time>2022-09-04T10:34:16Z</time>
      </trkpt>
      <trkpt lat="43.05979" lon="0.84801">
        <ele>431</ele>
        <time>2022-09-04T10:34:18Z</time>
      </trkpt>
      <trkpt lat="43.0598" lon="0.84795">
        <ele>431</ele>
        <time>2022-09-04T10:34:21Z</time>
      </trkpt>
      <trkpt lat="43.0598" lon="0.84792">
        <ele>431.4</ele>
        <time>2022-09-04T10:34:23Z</time>
      </trkpt>
      <trkpt lat="43.0598" lon="0.8479">
        <ele>431.6</ele>
        <time>2022-09-04T10:34:24Z</time>
      </trkpt>
      <trkpt lat="43.05981" lon="0.84787">
        <ele>431.8</ele>
        <time>2022-09-04T10:34:26Z</time>
      </trkpt>
      <trkpt lat="43.05981" lon="0.84783">
        <ele>432.2</ele>
        <time>2022-09-04T10:34:28Z</time>
      </trkpt>
      <trkpt lat="43.05982" lon="0.84776">
        <ele>432.6</ele>
        <time>2022-09-04T10:34:32Z</time>
      </trkpt>
      <trkpt lat="43.05982" lon="0.84774">
        <ele>432.8</ele>
        <time>2022-09-04T10:34:33Z</time>
      </trkpt>
      <trkpt lat="43.05983" lon="0.84768">
        <ele>433.2</ele>
        <time>2022-09-04T10:34:37Z</time>
      </trkpt>
      <trkpt lat="43.05984" lon="0.84766">
        <ele>433.4</ele>
        <time>2022-09-04T10:34:38Z</time>
      </trkpt>
      <trkpt lat="43.05984" lon="0.84758">
        <ele>433.8</ele>
        <time>2022-09-04T10:34:42Z</time>
      </trkpt>
      <trkpt lat="43.05985" lon="0.84755">
        <ele>434.4</ele>
        <time>2022-09-04T10:34:44Z</time>
      </trkpt>
      <trkpt lat="43.05986" lon="0.84745">
        <ele>435</ele>
        <time>2022-09-04T10:34:49Z</time>
      </trkpt>
      <trkpt lat="43.05987" lon="0.8474">
        <ele>435.4</ele>
        <time>2022-09-04T10:34:52Z</time>
      </trkpt>
      <trkpt lat="43.05988" lon="0.84731">
        <ele>436.2</ele>
        <time>2022-09-04T10:34:57Z</time>
      </trkpt>
      <trkpt lat="43.05989" lon="0.84729">
        <ele>436.2</ele>
        <time>2022-09-04T10:34:58Z</time>
      </trkpt>
      <trkpt lat="43.05991" lon="0.84718">
        <ele>437.2</ele>
        <time>2022-09-04T10:35:04Z</time>
      </trkpt>
      <trkpt lat="43.05992" lon="0.8471">
        <ele>437.6</ele>
        <time>2022-09-04T10:35:08Z</time>
      </trkpt>
      <trkpt lat="43.05993" lon="0.84703">
        <ele>438.4</ele>
        <time>2022-09-04T10:35:12Z</time>
      </trkpt>
      <trkpt lat="43.05992" lon="0.84701">
        <ele>438.4</ele>
        <time>2022-09-04T10:35:13Z</time>
      </trkpt>
      <trkpt lat="43.05993" lon="0.847">
        <ele>438.6</ele>
        <time>2022-09-04T10:35:14Z</time>
      </trkpt>
      <trkpt lat="43.05996" lon="0.84691">
        <ele>439.4</ele>
        <time>2022-09-04T10:35:19Z</time>
      </trkpt>
      <trkpt lat="43.05997" lon="0.84685">
        <ele>439.6</ele>
        <time>2022-09-04T10:35:22Z</time>
      </trkpt>
      <trkpt lat="43.05997" lon="0.84683">
        <ele>439.8</ele>
        <time>2022-09-04T10:35:23Z</time>
      </trkpt>
      <trkpt lat="43.05999" lon="0.84678">
        <ele>440.4</ele>
        <time>2022-09-04T10:35:26Z</time>
      </trkpt>
      <trkpt lat="43.05999" lon="0.84673">
        <ele>440.8</ele>
        <time>2022-09-04T10:35:29Z</time>
      </trkpt>
      <trkpt lat="43.06001" lon="0.84665">
        <ele>441.6</ele>
        <time>2022-09-04T10:35:33Z</time>
      </trkpt>
      <trkpt lat="43.06002" lon="0.84662">
        <ele>441.8</ele>
        <time>2022-09-04T10:35:35Z</time>
      </trkpt>
      <trkpt lat="43.06003" lon="0.8466">
        <ele>442</ele>
        <time>2022-09-04T10:35:36Z</time>
      </trkpt>
      <trkpt lat="43.06004" lon="0.84655">
        <ele>442.6</ele>
        <time>2022-09-04T10:35:39Z</time>
      </trkpt>
      <trkpt lat="43.06004" lon="0.84651">
        <ele>442.8</ele>
        <time>2022-09-04T10:35:41Z</time>
      </trkpt>
      <trkpt lat="43.06007" lon="0.84645">
        <ele>443.2</ele>
        <time>2022-09-04T10:35:45Z</time>
      </trkpt>
      <trkpt lat="43.06008" lon="0.84641">
        <ele>443.6</ele>
        <time>2022-09-04T10:35:47Z</time>
      </trkpt>
      <trkpt lat="43.06007" lon="0.84637">
        <ele>444</ele>
        <time>2022-09-04T10:35:49Z</time>
      </trkpt>
      <trkpt lat="43.06008" lon="0.84635">
        <ele>444</ele>
        <time>2022-09-04T10:35:50Z</time>
      </trkpt>
      <trkpt lat="43.06009" lon="0.84634">
        <ele>444.2</ele>
        <time>2022-09-04T10:35:51Z</time>
      </trkpt>
      <trkpt lat="43.06012" lon="0.84626">
        <ele>444.8</ele>
        <time>2022-09-04T10:35:56Z</time>
      </trkpt>
      <trkpt lat="43.06013" lon="0.84624">
        <ele>444.8</ele>
        <time>2022-09-04T10:35:57Z</time>
      </trkpt>
      <trkpt lat="43.06014" lon="0.84618">
        <ele>445.4</ele>
        <time>2022-09-04T10:36:00Z</time>
      </trkpt>
      <trkpt lat="43.06017" lon="0.84608">
        <ele>446</ele>
        <time>2022-09-04T10:36:05Z</time>
      </trkpt>
      <trkpt lat="43.06019" lon="0.84591">
        <ele>446.6</ele>
        <time>2022-09-04T10:36:12Z</time>
      </trkpt>
      <trkpt lat="43.06022" lon="0.84584">
        <ele>447</ele>
        <time>2022-09-04T10:36:15Z</time>
      </trkpt>
      <trkpt lat="43.06024" lon="0.84571">
        <ele>447.4</ele>
        <time>2022-09-04T10:36:20Z</time>
      </trkpt>
      <trkpt lat="43.06031" lon="0.84542">
        <ele>447.8</ele>
        <time>2022-09-04T10:36:30Z</time>
      </trkpt>
      <trkpt lat="43.06036" lon="0.84517">
        <ele>447.8</ele>
        <time>2022-09-04T10:36:38Z</time>
      </trkpt>
      <trkpt lat="43.06042" lon="0.84484">
        <ele>447.8</ele>
        <time>2022-09-04T10:36:47Z</time>
      </trkpt>
      <trkpt lat="43.06047" lon="0.84449">
        <ele>447.2</ele>
        <time>2022-09-04T10:36:55Z</time>
      </trkpt>
      <trkpt lat="43.06051" lon="0.84433">
        <ele>447</ele>
        <time>2022-09-04T10:36:58Z</time>
      </trkpt>
      <trkpt lat="43.06054" lon="0.84416">
        <ele>446.6</ele>
        <time>2022-09-04T10:37:01Z</time>
      </trkpt>
      <trkpt lat="43.06067" lon="0.84364">
        <ele>446</ele>
        <time>2022-09-04T10:37:09Z</time>
      </trkpt>
      <trkpt lat="43.06072" lon="0.84351">
        <ele>445.6</ele>
        <time>2022-09-04T10:37:11Z</time>
      </trkpt>
      <trkpt lat="43.06083" lon="0.8432">
        <ele>445.6</ele>
        <time>2022-09-04T10:37:16Z</time>
      </trkpt>
      <trkpt lat="43.06096" lon="0.84296">
        <ele>445.6</ele>
        <time>2022-09-04T10:37:22Z</time>
      </trkpt>
      <trkpt lat="43.06101" lon="0.84289">
        <ele>445.6</ele>
        <time>2022-09-04T10:37:27Z</time>
      </trkpt>
      <trkpt lat="43.06104" lon="0.84285">
        <ele>446</ele>
        <time>2022-09-04T10:37:56Z</time>
      </trkpt>
      <trkpt lat="43.06108" lon="0.84281">
        <ele>446</ele>
        <time>2022-09-04T10:37:58Z</time>
      </trkpt>
      <trkpt lat="43.06117" lon="0.84268">
        <ele>446.2</ele>
        <time>2022-09-04T10:38:04Z</time>
      </trkpt>
      <trkpt lat="43.06122" lon="0.84261">
        <ele>446.8</ele>
        <time>2022-09-04T10:38:08Z</time>
      </trkpt>
      <trkpt lat="43.06127" lon="0.84254">
        <ele>447</ele>
        <time>2022-09-04T10:38:12Z</time>
      </trkpt>
      <trkpt lat="43.06133" lon="0.84242">
        <ele>447.8</ele>
        <time>2022-09-04T10:38:18Z</time>
      </trkpt>
      <trkpt lat="43.06136" lon="0.84235">
        <ele>448.2</ele>
        <time>2022-09-04T10:38:21Z</time>
      </trkpt>
      <trkpt lat="43.06144" lon="0.84223">
        <ele>448.8</ele>
        <time>2022-09-04T10:38:27Z</time>
      </trkpt>
      <trkpt lat="43.06146" lon="0.84219">
        <ele>449</ele>
        <time>2022-09-04T10:38:29Z</time>
      </trkpt>
      <trkpt lat="43.06155" lon="0.84205">
        <ele>449.8</ele>
        <time>2022-09-04T10:38:36Z</time>
      </trkpt>
      <trkpt lat="43.06156" lon="0.84203">
        <ele>450</ele>
        <time>2022-09-04T10:38:37Z</time>
      </trkpt>
      <trkpt lat="43.06164" lon="0.84189">
        <ele>450.8</ele>
        <time>2022-09-04T10:38:44Z</time>
      </trkpt>
      <trkpt lat="43.06165" lon="0.84187">
        <ele>451</ele>
        <time>2022-09-04T10:38:45Z</time>
      </trkpt>
      <trkpt lat="43.06173" lon="0.84176">
        <ele>452</ele>
        <time>2022-09-04T10:38:51Z</time>
      </trkpt>
      <trkpt lat="43.06175" lon="0.84174">
        <ele>452</ele>
        <time>2022-09-04T10:38:52Z</time>
      </trkpt>
      <trkpt lat="43.06183" lon="0.84161">
        <ele>453</ele>
        <time>2022-09-04T10:38:59Z</time>
      </trkpt>
      <trkpt lat="43.06184" lon="0.84159">
        <ele>453.2</ele>
        <time>2022-09-04T10:39:00Z</time>
      </trkpt>
      <trkpt lat="43.06195" lon="0.84144">
        <ele>454</ele>
        <time>2022-09-04T10:39:08Z</time>
      </trkpt>
      <trkpt lat="43.06208" lon="0.84128">
        <ele>454.4</ele>
        <time>2022-09-04T10:39:17Z</time>
      </trkpt>
      <trkpt lat="43.06221" lon="0.84111">
        <ele>454.2</ele>
        <time>2022-09-04T10:39:24Z</time>
      </trkpt>
      <trkpt lat="43.06241" lon="0.84087">
        <ele>453.6</ele>
        <time>2022-09-04T10:39:31Z</time>
      </trkpt>
      <trkpt lat="43.06249" lon="0.84078">
        <ele>453</ele>
        <time>2022-09-04T10:39:33Z</time>
      </trkpt>
      <trkpt lat="43.06267" lon="0.84056">
        <ele>452</ele>
        <time>2022-09-04T10:39:37Z</time>
      </trkpt>
      <trkpt lat="43.06296" lon="0.84022">
        <ele>450.4</ele>
        <time>2022-09-04T10:39:43Z</time>
      </trkpt>
      <trkpt lat="43.06314" lon="0.84002">
        <ele>449.2</ele>
        <time>2022-09-04T10:39:47Z</time>
      </trkpt>
      <trkpt lat="43.06323" lon="0.83993">
        <ele>448.4</ele>
        <time>2022-09-04T10:39:49Z</time>
      </trkpt>
      <trkpt lat="43.06327" lon="0.83988">
        <ele>447.8</ele>
        <time>2022-09-04T10:39:50Z</time>
      </trkpt>
      <trkpt lat="43.06342" lon="0.83969">
        <ele>446.6</ele>
        <time>2022-09-04T10:39:54Z</time>
      </trkpt>
      <trkpt lat="43.06345" lon="0.83962">
        <ele>446.4</ele>
        <time>2022-09-04T10:39:55Z</time>
      </trkpt>
      <trkpt lat="43.06352" lon="0.83939">
        <ele>445.6</ele>
        <time>2022-09-04T10:39:58Z</time>
      </trkpt>
      <trkpt lat="43.06355" lon="0.83931">
        <ele>445.6</ele>
        <time>2022-09-04T10:39:59Z</time>
      </trkpt>
      <trkpt lat="43.06357" lon="0.83923">
        <ele>445</ele>
        <time>2022-09-04T10:40:00Z</time>
      </trkpt>
      <trkpt lat="43.06359" lon="0.83915">
        <ele>444.6</ele>
        <time>2022-09-04T10:40:01Z</time>
      </trkpt>
      <trkpt lat="43.06361" lon="0.839">
        <ele>443.6</ele>
        <time>2022-09-04T10:40:03Z</time>
      </trkpt>
      <trkpt lat="43.06362" lon="0.83893">
        <ele>443.2</ele>
        <time>2022-09-04T10:40:04Z</time>
      </trkpt>
      <trkpt lat="43.06362" lon="0.83884">
        <ele>443</ele>
        <time>2022-09-04T10:40:05Z</time>
      </trkpt>
      <trkpt lat="43.06362" lon="0.8387">
        <ele>442.4</ele>
        <time>2022-09-04T10:40:07Z</time>
      </trkpt>
      <trkpt lat="43.06363" lon="0.83864">
        <ele>442</ele>
        <time>2022-09-04T10:40:08Z</time>
      </trkpt>
      <trkpt lat="43.06363" lon="0.83847">
        <ele>441</ele>
        <time>2022-09-04T10:40:11Z</time>
      </trkpt>
      <trkpt lat="43.06363" lon="0.83841">
        <ele>440.8</ele>
        <time>2022-09-04T10:40:12Z</time>
      </trkpt>
      <trkpt lat="43.06363" lon="0.83827">
        <ele>440</ele>
        <time>2022-09-04T10:40:14Z</time>
      </trkpt>
      <trkpt lat="43.06363" lon="0.83813">
        <ele>438.4</ele>
        <time>2022-09-04T10:40:16Z</time>
      </trkpt>
      <trkpt lat="43.06361" lon="0.83795">
        <ele>437</ele>
        <time>2022-09-04T10:40:19Z</time>
      </trkpt>
      <trkpt lat="43.06361" lon="0.83777">
        <ele>435.4</ele>
        <time>2022-09-04T10:40:22Z</time>
      </trkpt>
      <trkpt lat="43.0636" lon="0.83764">
        <ele>434.2</ele>
        <time>2022-09-04T10:40:24Z</time>
      </trkpt>
      <trkpt lat="43.0636" lon="0.83749">
        <ele>432.6</ele>
        <time>2022-09-04T10:40:26Z</time>
      </trkpt>
      <trkpt lat="43.06359" lon="0.83742">
        <ele>432.2</ele>
        <time>2022-09-04T10:40:27Z</time>
      </trkpt>
      <trkpt lat="43.06358" lon="0.83735">
        <ele>431.6</ele>
        <time>2022-09-04T10:40:28Z</time>
      </trkpt>
      <trkpt lat="43.06356" lon="0.83721">
        <ele>430.4</ele>
        <time>2022-09-04T10:40:30Z</time>
      </trkpt>
      <trkpt lat="43.06355" lon="0.83701">
        <ele>428.8</ele>
        <time>2022-09-04T10:40:33Z</time>
      </trkpt>
      <trkpt lat="43.06355" lon="0.83694">
        <ele>428.2</ele>
        <time>2022-09-04T10:40:34Z</time>
      </trkpt>
      <trkpt lat="43.06355" lon="0.83688">
        <ele>427.4</ele>
        <time>2022-09-04T10:40:35Z</time>
      </trkpt>
      <trkpt lat="43.06353" lon="0.83675">
        <ele>426.4</ele>
        <time>2022-09-04T10:40:37Z</time>
      </trkpt>
      <trkpt lat="43.06351" lon="0.83659">
        <ele>425.2</ele>
        <time>2022-09-04T10:40:39Z</time>
      </trkpt>
      <trkpt lat="43.0635" lon="0.83651">
        <ele>424.4</ele>
        <time>2022-09-04T10:40:40Z</time>
      </trkpt>
      <trkpt lat="43.06349" lon="0.83643">
        <ele>423.4</ele>
        <time>2022-09-04T10:40:41Z</time>
      </trkpt>
      <trkpt lat="43.06347" lon="0.83629">
        <ele>422.2</ele>
        <time>2022-09-04T10:40:43Z</time>
      </trkpt>
      <trkpt lat="43.06344" lon="0.8361">
        <ele>421</ele>
        <time>2022-09-04T10:40:46Z</time>
      </trkpt>
      <trkpt lat="43.06341" lon="0.83593">
        <ele>419.6</ele>
        <time>2022-09-04T10:40:49Z</time>
      </trkpt>
      <trkpt lat="43.06339" lon="0.83576">
        <ele>418.4</ele>
        <time>2022-09-04T10:40:52Z</time>
      </trkpt>
      <trkpt lat="43.06337" lon="0.83544">
        <ele>417</ele>
        <time>2022-09-04T10:40:56Z</time>
      </trkpt>
      <trkpt lat="43.06337" lon="0.8353">
        <ele>415.6</ele>
        <time>2022-09-04T10:40:58Z</time>
      </trkpt>
      <trkpt lat="43.06336" lon="0.83521">
        <ele>414.4</ele>
        <time>2022-09-04T10:41:00Z</time>
      </trkpt>
      <trkpt lat="43.06336" lon="0.83518">
        <ele>413.6</ele>
        <time>2022-09-04T10:41:03Z</time>
      </trkpt>
      <trkpt lat="43.06335" lon="0.83509">
        <ele>414</ele>
        <time>2022-09-04T10:44:23Z</time>
      </trkpt>
      <trkpt lat="43.06335" lon="0.83499">
        <ele>413.6</ele>
        <time>2022-09-04T10:44:25Z</time>
      </trkpt>
      <trkpt lat="43.06335" lon="0.83493">
        <ele>413.2</ele>
        <time>2022-09-04T10:44:26Z</time>
      </trkpt>
      <trkpt lat="43.06335" lon="0.83473">
        <ele>412.2</ele>
        <time>2022-09-04T10:44:29Z</time>
      </trkpt>
      <trkpt lat="43.06335" lon="0.83465">
        <ele>411.6</ele>
        <time>2022-09-04T10:44:30Z</time>
      </trkpt>
      <trkpt lat="43.06335" lon="0.83457">
        <ele>411</ele>
        <time>2022-09-04T10:44:31Z</time>
      </trkpt>
      <trkpt lat="43.06335" lon="0.8344">
        <ele>409.8</ele>
        <time>2022-09-04T10:44:33Z</time>
      </trkpt>
      <trkpt lat="43.06336" lon="0.83417">
        <ele>408.4</ele>
        <time>2022-09-04T10:44:35Z</time>
      </trkpt>
      <trkpt lat="43.06336" lon="0.83394">
        <ele>407.2</ele>
        <time>2022-09-04T10:44:37Z</time>
      </trkpt>
      <trkpt lat="43.06335" lon="0.83369">
        <ele>405.8</ele>
        <time>2022-09-04T10:44:39Z</time>
      </trkpt>
      <trkpt lat="43.06333" lon="0.83345">
        <ele>404.4</ele>
        <time>2022-09-04T10:44:41Z</time>
      </trkpt>
      <trkpt lat="43.06331" lon="0.83321">
        <ele>402.6</ele>
        <time>2022-09-04T10:44:43Z</time>
      </trkpt>
      <trkpt lat="43.06329" lon="0.83283">
        <ele>401.2</ele>
        <time>2022-09-04T10:44:46Z</time>
      </trkpt>
      <trkpt lat="43.06329" lon="0.8326">
        <ele>400.2</ele>
        <time>2022-09-04T10:44:48Z</time>
      </trkpt>
      <trkpt lat="43.06329" lon="0.83238">
        <ele>398.6</ele>
        <time>2022-09-04T10:44:50Z</time>
      </trkpt>
      <trkpt lat="43.06329" lon="0.83216">
        <ele>397.4</ele>
        <time>2022-09-04T10:44:52Z</time>
      </trkpt>
      <trkpt lat="43.06329" lon="0.83205">
        <ele>396.8</ele>
        <time>2022-09-04T10:44:53Z</time>
      </trkpt>
      <trkpt lat="43.06328" lon="0.83195">
        <ele>396</ele>
        <time>2022-09-04T10:44:54Z</time>
      </trkpt>
      <trkpt lat="43.06327" lon="0.83176">
        <ele>394.4</ele>
        <time>2022-09-04T10:44:56Z</time>
      </trkpt>
      <trkpt lat="43.06328" lon="0.83159">
        <ele>393.2</ele>
        <time>2022-09-04T10:44:58Z</time>
      </trkpt>
      <trkpt lat="43.06327" lon="0.83138">
        <ele>392</ele>
        <time>2022-09-04T10:45:01Z</time>
      </trkpt>
      <trkpt lat="43.06326" lon="0.83126">
        <ele>391.2</ele>
        <time>2022-09-04T10:45:03Z</time>
      </trkpt>
      <trkpt lat="43.06326" lon="0.83118">
        <ele>390.8</ele>
        <time>2022-09-04T10:45:05Z</time>
      </trkpt>
      <trkpt lat="43.06327" lon="0.83115">
        <ele>390.4</ele>
        <time>2022-09-04T10:45:07Z</time>
      </trkpt>
      <trkpt lat="43.06332" lon="0.83106">
        <ele>390.2</ele>
        <time>2022-09-04T10:45:13Z</time>
      </trkpt>
      <trkpt lat="43.06333" lon="0.83106">
        <ele>390.2</ele>
        <time>2022-09-04T10:45:14Z</time>
      </trkpt>
      <trkpt lat="43.06339" lon="0.83109">
        <ele>390.4</ele>
        <time>2022-09-04T10:45:18Z</time>
      </trkpt>
      <trkpt lat="43.06341" lon="0.83111">
        <ele>390.6</ele>
        <time>2022-09-04T10:45:19Z</time>
      </trkpt>
      <trkpt lat="43.06353" lon="0.83119">
        <ele>390.8</ele>
        <time>2022-09-04T10:45:24Z</time>
      </trkpt>
      <trkpt lat="43.06367" lon="0.83125">
        <ele>390.6</ele>
        <time>2022-09-04T10:45:29Z</time>
      </trkpt>
      <trkpt lat="43.06385" lon="0.83132">
        <ele>390.4</ele>
        <time>2022-09-04T10:45:35Z</time>
      </trkpt>
      <trkpt lat="43.06398" lon="0.83134">
        <ele>390</ele>
        <time>2022-09-04T10:45:40Z</time>
      </trkpt>
      <trkpt lat="43.06401" lon="0.83135">
        <ele>389.8</ele>
        <time>2022-09-04T10:45:41Z</time>
      </trkpt>
      <trkpt lat="43.06407" lon="0.83132">
        <ele>389.4</ele>
        <time>2022-09-04T10:45:44Z</time>
      </trkpt>
      <trkpt lat="43.0641" lon="0.83128">
        <ele>389.2</ele>
        <time>2022-09-04T10:45:46Z</time>
      </trkpt>
      <trkpt lat="43.06408" lon="0.83124">
        <ele>389</ele>
        <time>2022-09-04T10:45:50Z</time>
      </trkpt>
      <trkpt lat="43.06402" lon="0.83124">
        <ele>389.6</ele>
        <time>2022-09-04T10:45:55Z</time>
      </trkpt>
      <trkpt lat="43.06398" lon="0.83125">
        <ele>389.6</ele>
        <time>2022-09-04T10:45:58Z</time>
      </trkpt>
      <trkpt lat="43.06394" lon="0.83122">
        <ele>394</ele>
        <time>2022-09-04T11:24:25Z</time>
      </trkpt>
      <trkpt lat="43.06399" lon="0.83123">
        <ele>393.8</ele>
        <time>2022-09-04T11:24:28Z</time>
      </trkpt>
      <trkpt lat="43.06406" lon="0.83124">
        <ele>393.6</ele>
        <time>2022-09-04T11:24:34Z</time>
      </trkpt>
      <trkpt lat="43.06413" lon="0.83125">
        <ele>393.4</ele>
        <time>2022-09-04T11:24:39Z</time>
      </trkpt>
      <trkpt lat="43.06416" lon="0.83125">
        <ele>393.6</ele>
        <time>2022-09-04T11:24:41Z</time>
      </trkpt>
      <trkpt lat="43.06425" lon="0.83121">
        <ele>393</ele>
        <time>2022-09-04T11:24:45Z</time>
      </trkpt>
      <trkpt lat="43.06431" lon="0.83118">
        <ele>393</ele>
        <time>2022-09-04T11:24:47Z</time>
      </trkpt>
      <trkpt lat="43.06441" lon="0.83107">
        <ele>393</ele>
        <time>2022-09-04T11:24:53Z</time>
      </trkpt>
      <trkpt lat="43.0644" lon="0.83098">
        <ele>393.2</ele>
        <time>2022-09-04T11:24:57Z</time>
      </trkpt>
      <trkpt lat="43.06439" lon="0.83096">
        <ele>393.2</ele>
        <time>2022-09-04T11:24:58Z</time>
      </trkpt>
      <trkpt lat="43.06431" lon="0.83083">
        <ele>393.6</ele>
        <time>2022-09-04T11:25:06Z</time>
      </trkpt>
      <trkpt lat="43.06427" lon="0.8307">
        <ele>393.4</ele>
        <time>2022-09-04T11:31:52Z</time>
      </trkpt>
      <trkpt lat="43.06424" lon="0.83065">
        <ele>393.4</ele>
        <time>2022-09-04T11:31:55Z</time>
      </trkpt>
      <trkpt lat="43.06416" lon="0.83049">
        <ele>393.8</ele>
        <time>2022-09-04T11:32:02Z</time>
      </trkpt>
      <trkpt lat="43.06413" lon="0.83045">
        <ele>394</ele>
        <time>2022-09-04T11:32:04Z</time>
      </trkpt>
      <trkpt lat="43.06406" lon="0.83031">
        <ele>394.6</ele>
        <time>2022-09-04T11:32:10Z</time>
      </trkpt>
      <trkpt lat="43.06395" lon="0.83018">
        <ele>395.2</ele>
        <time>2022-09-04T11:32:17Z</time>
      </trkpt>
      <trkpt lat="43.0639" lon="0.83012">
        <ele>395.6</ele>
        <time>2022-09-04T11:32:20Z</time>
      </trkpt>
      <trkpt lat="43.06378" lon="0.82996">
        <ele>396.2</ele>
        <time>2022-09-04T11:32:28Z</time>
      </trkpt>
      <trkpt lat="43.06374" lon="0.82992">
        <ele>396.2</ele>
        <time>2022-09-04T11:32:30Z</time>
      </trkpt>
      <trkpt lat="43.06363" lon="0.82976">
        <ele>396.8</ele>
        <time>2022-09-04T11:32:37Z</time>
      </trkpt>
      <trkpt lat="43.06349" lon="0.82957">
        <ele>397</ele>
        <time>2022-09-04T11:32:46Z</time>
      </trkpt>
      <trkpt lat="43.06339" lon="0.82935">
        <ele>396.6</ele>
        <time>2022-09-04T11:32:51Z</time>
      </trkpt>
      <trkpt lat="43.06324" lon="0.82906">
        <ele>395.4</ele>
        <time>2022-09-04T11:32:56Z</time>
      </trkpt>
      <trkpt lat="43.0632" lon="0.82898">
        <ele>395.2</ele>
        <time>2022-09-04T11:32:57Z</time>
      </trkpt>
      <trkpt lat="43.06306" lon="0.82875">
        <ele>394</ele>
        <time>2022-09-04T11:33:00Z</time>
      </trkpt>
      <trkpt lat="43.06302" lon="0.82866">
        <ele>393.8</ele>
        <time>2022-09-04T11:33:01Z</time>
      </trkpt>
      <trkpt lat="43.06293" lon="0.82849">
        <ele>393</ele>
        <time>2022-09-04T11:33:03Z</time>
      </trkpt>
      <trkpt lat="43.06273" lon="0.82814">
        <ele>392.2</ele>
        <time>2022-09-04T11:33:07Z</time>
      </trkpt>
      <trkpt lat="43.06268" lon="0.82806">
        <ele>392</ele>
        <time>2022-09-04T11:33:08Z</time>
      </trkpt>
      <trkpt lat="43.06264" lon="0.82797">
        <ele>391.6</ele>
        <time>2022-09-04T11:33:09Z</time>
      </trkpt>
      <trkpt lat="43.0625" lon="0.82769">
        <ele>390.8</ele>
        <time>2022-09-04T11:33:12Z</time>
      </trkpt>
      <trkpt lat="43.06243" lon="0.82749">
        <ele>390.6</ele>
        <time>2022-09-04T11:33:14Z</time>
      </trkpt>
      <trkpt lat="43.06237" lon="0.82728">
        <ele>390.2</ele>
        <time>2022-09-04T11:33:16Z</time>
      </trkpt>
      <trkpt lat="43.06234" lon="0.82698">
        <ele>390</ele>
        <time>2022-09-04T11:33:19Z</time>
      </trkpt>
      <trkpt lat="43.06233" lon="0.82643">
        <ele>390</ele>
        <time>2022-09-04T11:33:25Z</time>
      </trkpt>
      <trkpt lat="43.06234" lon="0.82635">
        <ele>390</ele>
        <time>2022-09-04T11:33:26Z</time>
      </trkpt>
      <trkpt lat="43.06239" lon="0.82601">
        <ele>390.6</ele>
        <time>2022-09-04T11:33:31Z</time>
      </trkpt>
      <trkpt lat="43.06239" lon="0.82595">
        <ele>390.6</ele>
        <time>2022-09-04T11:33:32Z</time>
      </trkpt>
      <trkpt lat="43.06237" lon="0.82537">
        <ele>390.2</ele>
        <time>2022-09-04T11:33:41Z</time>
      </trkpt>
      <trkpt lat="43.06236" lon="0.82522">
        <ele>389.6</ele>
        <time>2022-09-04T11:33:43Z</time>
      </trkpt>
      <trkpt lat="43.06234" lon="0.82483">
        <ele>389</ele>
        <time>2022-09-04T11:33:48Z</time>
      </trkpt>
      <trkpt lat="43.06234" lon="0.82474">
        <ele>388.8</ele>
        <time>2022-09-04T11:33:49Z</time>
      </trkpt>
      <trkpt lat="43.06236" lon="0.82458">
        <ele>388.6</ele>
        <time>2022-09-04T11:33:51Z</time>
      </trkpt>
      <trkpt lat="43.06244" lon="0.82418">
        <ele>388.4</ele>
        <time>2022-09-04T11:33:56Z</time>
      </trkpt>
      <trkpt lat="43.06258" lon="0.8236">
        <ele>388.2</ele>
        <time>2022-09-04T11:34:04Z</time>
      </trkpt>
      <trkpt lat="43.06263" lon="0.82335">
        <ele>387.4</ele>
        <time>2022-09-04T11:34:07Z</time>
      </trkpt>
      <trkpt lat="43.06269" lon="0.82306">
        <ele>386.6</ele>
        <time>2022-09-04T11:34:10Z</time>
      </trkpt>
      <trkpt lat="43.06271" lon="0.82296">
        <ele>386</ele>
        <time>2022-09-04T11:34:11Z</time>
      </trkpt>
      <trkpt lat="43.06277" lon="0.82266">
        <ele>384.6</ele>
        <time>2022-09-04T11:34:14Z</time>
      </trkpt>
      <trkpt lat="43.06281" lon="0.82247">
        <ele>383.2</ele>
        <time>2022-09-04T11:34:16Z</time>
      </trkpt>
      <trkpt lat="43.06286" lon="0.82224">
        <ele>382</ele>
        <time>2022-09-04T11:34:18Z</time>
      </trkpt>
      <trkpt lat="43.0629" lon="0.82197">
        <ele>380.8</ele>
        <time>2022-09-04T11:34:20Z</time>
      </trkpt>
      <trkpt lat="43.06292" lon="0.82168">
        <ele>379.6</ele>
        <time>2022-09-04T11:34:22Z</time>
      </trkpt>
      <trkpt lat="43.0629" lon="0.8214">
        <ele>378</ele>
        <time>2022-09-04T11:34:24Z</time>
      </trkpt>
      <trkpt lat="43.06279" lon="0.82102">
        <ele>378.2</ele>
        <time>2022-09-04T11:34:27Z</time>
      </trkpt>
      <trkpt lat="43.06269" lon="0.82081">
        <ele>377.2</ele>
        <time>2022-09-04T11:34:29Z</time>
      </trkpt>
      <trkpt lat="43.06264" lon="0.82071">
        <ele>377</ele>
        <time>2022-09-04T11:34:30Z</time>
      </trkpt>
      <trkpt lat="43.06259" lon="0.82063">
        <ele>376.8</ele>
        <time>2022-09-04T11:34:31Z</time>
      </trkpt>
      <trkpt lat="43.06247" lon="0.82044">
        <ele>376</ele>
        <time>2022-09-04T11:34:34Z</time>
      </trkpt>
      <trkpt lat="43.06246" lon="0.82038">
        <ele>375.8</ele>
        <time>2022-09-04T11:34:35Z</time>
      </trkpt>
      <trkpt lat="43.06247" lon="0.82026">
        <ele>376</ele>
        <time>2022-09-04T11:34:37Z</time>
      </trkpt>
      <trkpt lat="43.0625" lon="0.82016">
        <ele>375.8</ele>
        <time>2022-09-04T11:34:39Z</time>
      </trkpt>
      <trkpt lat="43.06256" lon="0.81997">
        <ele>376.2</ele>
        <time>2022-09-04T11:34:43Z</time>
      </trkpt>
      <trkpt lat="43.06266" lon="0.81968">
        <ele>376.2</ele>
        <time>2022-09-04T11:34:50Z</time>
      </trkpt>
      <trkpt lat="43.06273" lon="0.81947">
        <ele>376.6</ele>
        <time>2022-09-04T11:34:56Z</time>
      </trkpt>
      <trkpt lat="43.06274" lon="0.8193">
        <ele>376.8</ele>
        <time>2022-09-04T11:35:00Z</time>
      </trkpt>
      <trkpt lat="43.06276" lon="0.81913">
        <ele>377.2</ele>
        <time>2022-09-04T11:35:04Z</time>
      </trkpt>
      <trkpt lat="43.06275" lon="0.81882">
        <ele>377.8</ele>
        <time>2022-09-04T11:35:12Z</time>
      </trkpt>
      <trkpt lat="43.06275" lon="0.81879">
        <ele>378</ele>
        <time>2022-09-04T11:35:13Z</time>
      </trkpt>
      <trkpt lat="43.06275" lon="0.81872">
        <ele>378.2</ele>
        <time>2022-09-04T11:35:15Z</time>
      </trkpt>
      <trkpt lat="43.06275" lon="0.81855">
        <ele>379</ele>
        <time>2022-09-04T11:35:20Z</time>
      </trkpt>
      <trkpt lat="43.06275" lon="0.81852">
        <ele>379.2</ele>
        <time>2022-09-04T11:35:21Z</time>
      </trkpt>
      <trkpt lat="43.06275" lon="0.81829">
        <ele>380</ele>
        <time>2022-09-04T11:35:29Z</time>
      </trkpt>
      <trkpt lat="43.06275" lon="0.81826">
        <ele>380</ele>
        <time>2022-09-04T11:35:30Z</time>
      </trkpt>
      <trkpt lat="43.06275" lon="0.818">
        <ele>380.8</ele>
        <time>2022-09-04T11:35:39Z</time>
      </trkpt>
      <trkpt lat="43.06275" lon="0.81794">
        <ele>381.2</ele>
        <time>2022-09-04T11:35:41Z</time>
      </trkpt>
      <trkpt lat="43.06276" lon="0.81768">
        <ele>382.2</ele>
        <time>2022-09-04T11:35:51Z</time>
      </trkpt>
      <trkpt lat="43.06278" lon="0.81741">
        <ele>383.4</ele>
        <time>2022-09-04T11:36:01Z</time>
      </trkpt>
      <trkpt lat="43.0628" lon="0.81716">
        <ele>384.2</ele>
        <time>2022-09-04T11:36:10Z</time>
      </trkpt>
      <trkpt lat="43.0628" lon="0.81713">
        <ele>384.4</ele>
        <time>2022-09-04T11:36:11Z</time>
      </trkpt>
      <trkpt lat="43.06281" lon="0.81687">
        <ele>385.2</ele>
        <time>2022-09-04T11:36:20Z</time>
      </trkpt>
      <trkpt lat="43.0628" lon="0.81675">
        <ele>385.4</ele>
        <time>2022-09-04T11:36:24Z</time>
      </trkpt>
      <trkpt lat="43.06281" lon="0.81657">
        <ele>385.8</ele>
        <time>2022-09-04T11:36:30Z</time>
      </trkpt>
      <trkpt lat="43.06281" lon="0.81645">
        <ele>386.2</ele>
        <time>2022-09-04T11:36:34Z</time>
      </trkpt>
      <trkpt lat="43.06281" lon="0.81636">
        <ele>386.6</ele>
        <time>2022-09-04T11:36:37Z</time>
      </trkpt>
      <trkpt lat="43.06281" lon="0.81633">
        <ele>386.6</ele>
        <time>2022-09-04T11:36:38Z</time>
      </trkpt>
      <trkpt lat="43.06281" lon="0.81605">
        <ele>387.4</ele>
        <time>2022-09-04T11:36:47Z</time>
      </trkpt>
      <trkpt lat="43.06281" lon="0.81603">
        <ele>387.6</ele>
        <time>2022-09-04T11:36:48Z</time>
      </trkpt>
      <trkpt lat="43.06281" lon="0.81586">
        <ele>388</ele>
        <time>2022-09-04T11:36:54Z</time>
      </trkpt>
      <trkpt lat="43.0628" lon="0.81584">
        <ele>388.2</ele>
        <time>2022-09-04T11:36:55Z</time>
      </trkpt>
      <trkpt lat="43.06276" lon="0.81581">
        <ele>388.6</ele>
        <time>2022-09-04T11:36:57Z</time>
      </trkpt>
      <trkpt lat="43.06274" lon="0.81581">
        <ele>388.8</ele>
        <time>2022-09-04T11:36:58Z</time>
      </trkpt>
      <trkpt lat="43.0627" lon="0.81581">
        <ele>388.8</ele>
        <time>2022-09-04T11:37:00Z</time>
      </trkpt>
      <trkpt lat="43.06262" lon="0.8158">
        <ele>388.8</ele>
        <time>2022-09-04T11:37:04Z</time>
      </trkpt>
      <trkpt lat="43.06242" lon="0.81578">
        <ele>389</ele>
        <time>2022-09-04T11:37:12Z</time>
      </trkpt>
      <trkpt lat="43.06216" lon="0.81574">
        <ele>389</ele>
        <time>2022-09-04T11:37:21Z</time>
      </trkpt>
      <trkpt lat="43.06195" lon="0.81574">
        <ele>389</ele>
        <time>2022-09-04T11:37:28Z</time>
      </trkpt>
      <trkpt lat="43.06172" lon="0.81572">
        <ele>389</ele>
        <time>2022-09-04T11:37:36Z</time>
      </trkpt>
      <trkpt lat="43.06149" lon="0.81569">
        <ele>389.2</ele>
        <time>2022-09-04T11:37:43Z</time>
      </trkpt>
      <trkpt lat="43.06119" lon="0.81565">
        <ele>389.4</ele>
        <time>2022-09-04T11:37:51Z</time>
      </trkpt>
      <trkpt lat="43.06099" lon="0.81559">
        <ele>389</ele>
        <time>2022-09-04T11:37:57Z</time>
      </trkpt>
      <trkpt lat="43.06071" lon="0.81553">
        <ele>389</ele>
        <time>2022-09-04T11:38:05Z</time>
      </trkpt>
      <trkpt lat="43.06043" lon="0.81549">
        <ele>389.2</ele>
        <time>2022-09-04T11:38:13Z</time>
      </trkpt>
      <trkpt lat="43.06017" lon="0.8155">
        <ele>389.6</ele>
        <time>2022-09-04T11:38:21Z</time>
      </trkpt>
      <trkpt lat="43.06012" lon="0.8155">
        <ele>389.8</ele>
        <time>2022-09-04T11:38:23Z</time>
      </trkpt>
      <trkpt lat="43.06001" lon="0.81548">
        <ele>390.4</ele>
        <time>2022-09-04T11:38:28Z</time>
      </trkpt>
      <trkpt lat="43.06" lon="0.81546">
        <ele>390.6</ele>
        <time>2022-09-04T11:38:29Z</time>
      </trkpt>
      <trkpt lat="43.05999" lon="0.81543">
        <ele>390.8</ele>
        <time>2022-09-04T11:38:30Z</time>
      </trkpt>
      <trkpt lat="43.05996" lon="0.81537">
        <ele>390.8</ele>
        <time>2022-09-04T11:38:32Z</time>
      </trkpt>
      <trkpt lat="43.05988" lon="0.81505">
        <ele>391.6</ele>
        <time>2022-09-04T11:38:41Z</time>
      </trkpt>
      <trkpt lat="43.05984" lon="0.81494">
        <ele>391.8</ele>
        <time>2022-09-04T11:38:44Z</time>
      </trkpt>
      <trkpt lat="43.05978" lon="0.81468">
        <ele>392.6</ele>
        <time>2022-09-04T11:38:51Z</time>
      </trkpt>
      <trkpt lat="43.05976" lon="0.81457">
        <ele>392.8</ele>
        <time>2022-09-04T11:38:54Z</time>
      </trkpt>
      <trkpt lat="43.05969" lon="0.81429">
        <ele>393.8</ele>
        <time>2022-09-04T11:39:02Z</time>
      </trkpt>
      <trkpt lat="43.05968" lon="0.81426">
        <ele>394</ele>
        <time>2022-09-04T11:39:03Z</time>
      </trkpt>
      <trkpt lat="43.05963" lon="0.81399">
        <ele>395</ele>
        <time>2022-09-04T11:39:11Z</time>
      </trkpt>
      <trkpt lat="43.05961" lon="0.81393">
        <ele>395.2</ele>
        <time>2022-09-04T11:39:13Z</time>
      </trkpt>
      <trkpt lat="43.05957" lon="0.81375">
        <ele>396.4</ele>
        <time>2022-09-04T11:39:19Z</time>
      </trkpt>
      <trkpt lat="43.05955" lon="0.81366">
        <ele>396.6</ele>
        <time>2022-09-04T11:39:22Z</time>
      </trkpt>
      <trkpt lat="43.05953" lon="0.81351">
        <ele>397.4</ele>
        <time>2022-09-04T11:39:27Z</time>
      </trkpt>
      <trkpt lat="43.0595" lon="0.8134">
        <ele>398.2</ele>
        <time>2022-09-04T11:39:31Z</time>
      </trkpt>
      <trkpt lat="43.05949" lon="0.81334">
        <ele>398.6</ele>
        <time>2022-09-04T11:39:33Z</time>
      </trkpt>
      <trkpt lat="43.05946" lon="0.8132">
        <ele>399.2</ele>
        <time>2022-09-04T11:39:38Z</time>
      </trkpt>
      <trkpt lat="43.05944" lon="0.81311">
        <ele>399.6</ele>
        <time>2022-09-04T11:39:41Z</time>
      </trkpt>
      <trkpt lat="43.0594" lon="0.81301">
        <ele>400.6</ele>
        <time>2022-09-04T11:39:45Z</time>
      </trkpt>
      <trkpt lat="43.0594" lon="0.81298">
        <ele>400.8</ele>
        <time>2022-09-04T11:39:46Z</time>
      </trkpt>
      <trkpt lat="43.0594" lon="0.81295">
        <ele>401</ele>
        <time>2022-09-04T11:39:47Z</time>
      </trkpt>
      <trkpt lat="43.0594" lon="0.81287">
        <ele>401.2</ele>
        <time>2022-09-04T11:39:50Z</time>
      </trkpt>
      <trkpt lat="43.05939" lon="0.81285">
        <ele>401.4</ele>
        <time>2022-09-04T11:39:51Z</time>
      </trkpt>
      <trkpt lat="43.05936" lon="0.81274">
        <ele>401.8</ele>
        <time>2022-09-04T11:39:55Z</time>
      </trkpt>
      <trkpt lat="43.05936" lon="0.81269">
        <ele>402.2</ele>
        <time>2022-09-04T11:39:57Z</time>
      </trkpt>
      <trkpt lat="43.05932" lon="0.81252">
        <ele>403.2</ele>
        <time>2022-09-04T11:40:03Z</time>
      </trkpt>
      <trkpt lat="43.0593" lon="0.81245">
        <ele>403.6</ele>
        <time>2022-09-04T11:40:06Z</time>
      </trkpt>
      <trkpt lat="43.05928" lon="0.81234">
        <ele>404.4</ele>
        <time>2022-09-04T11:40:10Z</time>
      </trkpt>
      <trkpt lat="43.05925" lon="0.8122">
        <ele>404.8</ele>
        <time>2022-09-04T11:40:15Z</time>
      </trkpt>
      <trkpt lat="43.05922" lon="0.8121">
        <ele>405.4</ele>
        <time>2022-09-04T11:40:19Z</time>
      </trkpt>
      <trkpt lat="43.05921" lon="0.81206">
        <ele>405.6</ele>
        <time>2022-09-04T11:40:21Z</time>
      </trkpt>
      <trkpt lat="43.05921" lon="0.81203">
        <ele>405.8</ele>
        <time>2022-09-04T11:40:22Z</time>
      </trkpt>
      <trkpt lat="43.05916" lon="0.81191">
        <ele>406.6</ele>
        <time>2022-09-04T11:40:27Z</time>
      </trkpt>
      <trkpt lat="43.05916" lon="0.81189">
        <ele>406.6</ele>
        <time>2022-09-04T11:40:28Z</time>
      </trkpt>
      <trkpt lat="43.05914" lon="0.81173">
        <ele>407.6</ele>
        <time>2022-09-04T11:40:34Z</time>
      </trkpt>
      <trkpt lat="43.05914" lon="0.81171">
        <ele>407.6</ele>
        <time>2022-09-04T11:40:35Z</time>
      </trkpt>
      <trkpt lat="43.05911" lon="0.81156">
        <ele>408.6</ele>
        <time>2022-09-04T11:40:41Z</time>
      </trkpt>
      <trkpt lat="43.05911" lon="0.81151">
        <ele>408.8</ele>
        <time>2022-09-04T11:40:43Z</time>
      </trkpt>
      <trkpt lat="43.05908" lon="0.81143">
        <ele>409.6</ele>
        <time>2022-09-04T11:40:47Z</time>
      </trkpt>
      <trkpt lat="43.05909" lon="0.81141">
        <ele>409.8</ele>
        <time>2022-09-04T11:40:48Z</time>
      </trkpt>
      <trkpt lat="43.05908" lon="0.81127">
        <ele>410.4</ele>
        <time>2022-09-04T11:40:54Z</time>
      </trkpt>
      <trkpt lat="43.05908" lon="0.81125">
        <ele>410.6</ele>
        <time>2022-09-04T11:40:55Z</time>
      </trkpt>
      <trkpt lat="43.0591" lon="0.81116">
        <ele>411.2</ele>
        <time>2022-09-04T11:40:59Z</time>
      </trkpt>
      <trkpt lat="43.05909" lon="0.81105">
        <ele>411.6</ele>
        <time>2022-09-04T11:41:04Z</time>
      </trkpt>
      <trkpt lat="43.05909" lon="0.81102">
        <ele>411.8</ele>
        <time>2022-09-04T11:41:05Z</time>
      </trkpt>
      <trkpt lat="43.0591" lon="0.811">
        <ele>412</ele>
        <time>2022-09-04T11:41:06Z</time>
      </trkpt>
      <trkpt lat="43.05913" lon="0.81093">
        <ele>412.2</ele>
        <time>2022-09-04T11:41:09Z</time>
      </trkpt>
      <trkpt lat="43.05913" lon="0.81079">
        <ele>412.8</ele>
        <time>2022-09-04T11:41:14Z</time>
      </trkpt>
      <trkpt lat="43.05913" lon="0.81077">
        <ele>412.8</ele>
        <time>2022-09-04T11:41:15Z</time>
      </trkpt>
      <trkpt lat="43.05917" lon="0.81058">
        <ele>414</ele>
        <time>2022-09-04T11:41:22Z</time>
      </trkpt>
      <trkpt lat="43.05918" lon="0.8104">
        <ele>414.8</ele>
        <time>2022-09-04T11:41:29Z</time>
      </trkpt>
      <trkpt lat="43.05918" lon="0.81032">
        <ele>415</ele>
        <time>2022-09-04T11:41:32Z</time>
      </trkpt>
      <trkpt lat="43.05921" lon="0.81016">
        <ele>415.8</ele>
        <time>2022-09-04T11:41:38Z</time>
      </trkpt>
      <trkpt lat="43.05921" lon="0.81008">
        <ele>416</ele>
        <time>2022-09-04T11:41:41Z</time>
      </trkpt>
      <trkpt lat="43.05924" lon="0.80991">
        <ele>417</ele>
        <time>2022-09-04T11:41:47Z</time>
      </trkpt>
      <trkpt lat="43.05924" lon="0.80989">
        <ele>417</ele>
        <time>2022-09-04T11:41:48Z</time>
      </trkpt>
      <trkpt lat="43.05926" lon="0.80966">
        <ele>417.8</ele>
        <time>2022-09-04T11:41:56Z</time>
      </trkpt>
      <trkpt lat="43.05927" lon="0.80952">
        <ele>418</ele>
        <time>2022-09-04T11:42:01Z</time>
      </trkpt>
      <trkpt lat="43.05929" lon="0.80943">
        <ele>418.4</ele>
        <time>2022-09-04T11:42:04Z</time>
      </trkpt>
      <trkpt lat="43.05933" lon="0.80928">
        <ele>419.2</ele>
        <time>2022-09-04T11:42:09Z</time>
      </trkpt>
      <trkpt lat="43.05935" lon="0.80917">
        <ele>419.6</ele>
        <time>2022-09-04T11:42:13Z</time>
      </trkpt>
      <trkpt lat="43.05938" lon="0.80908">
        <ele>420.2</ele>
        <time>2022-09-04T11:42:17Z</time>
      </trkpt>
      <trkpt lat="43.0594" lon="0.80906">
        <ele>420.4</ele>
        <time>2022-09-04T11:42:18Z</time>
      </trkpt>
      <trkpt lat="43.05945" lon="0.80891">
        <ele>421.2</ele>
        <time>2022-09-04T11:42:24Z</time>
      </trkpt>
      <trkpt lat="43.05951" lon="0.80884">
        <ele>421.8</ele>
        <time>2022-09-04T11:42:28Z</time>
      </trkpt>
      <trkpt lat="43.05955" lon="0.80877">
        <ele>422.6</ele>
        <time>2022-09-04T11:42:31Z</time>
      </trkpt>
      <trkpt lat="43.05958" lon="0.8087">
        <ele>423.2</ele>
        <time>2022-09-04T11:42:34Z</time>
      </trkpt>
      <trkpt lat="43.05963" lon="0.80862">
        <ele>423.8</ele>
        <time>2022-09-04T11:42:38Z</time>
      </trkpt>
      <trkpt lat="43.05967" lon="0.80854">
        <ele>424.4</ele>
        <time>2022-09-04T11:42:42Z</time>
      </trkpt>
      <trkpt lat="43.05971" lon="0.80848">
        <ele>425</ele>
        <time>2022-09-04T11:42:45Z</time>
      </trkpt>
      <trkpt lat="43.05974" lon="0.80838">
        <ele>425.6</ele>
        <time>2022-09-04T11:42:49Z</time>
      </trkpt>
      <trkpt lat="43.05977" lon="0.80831">
        <ele>426</ele>
        <time>2022-09-04T11:42:52Z</time>
      </trkpt>
      <trkpt lat="43.0598" lon="0.80823">
        <ele>426.4</ele>
        <time>2022-09-04T11:42:55Z</time>
      </trkpt>
      <trkpt lat="43.05985" lon="0.80811">
        <ele>427</ele>
        <time>2022-09-04T11:43:00Z</time>
      </trkpt>
      <trkpt lat="43.05988" lon="0.808">
        <ele>427.4</ele>
        <time>2022-09-04T11:43:04Z</time>
      </trkpt>
      <trkpt lat="43.05992" lon="0.80785">
        <ele>428</ele>
        <time>2022-09-04T11:43:10Z</time>
      </trkpt>
      <trkpt lat="43.05993" lon="0.80777">
        <ele>428.4</ele>
        <time>2022-09-04T11:43:13Z</time>
      </trkpt>
      <trkpt lat="43.05991" lon="0.80756">
        <ele>428.8</ele>
        <time>2022-09-04T11:43:20Z</time>
      </trkpt>
      <trkpt lat="43.0599" lon="0.80747">
        <ele>429.2</ele>
        <time>2022-09-04T11:43:23Z</time>
      </trkpt>
      <trkpt lat="43.05987" lon="0.80733">
        <ele>429.4</ele>
        <time>2022-09-04T11:43:28Z</time>
      </trkpt>
      <trkpt lat="43.05977" lon="0.80708">
        <ele>430</ele>
        <time>2022-09-04T11:43:37Z</time>
      </trkpt>
      <trkpt lat="43.05966" lon="0.80681">
        <ele>430.2</ele>
        <time>2022-09-04T11:43:45Z</time>
      </trkpt>
      <trkpt lat="43.05961" lon="0.80667">
        <ele>430.2</ele>
        <time>2022-09-04T11:43:49Z</time>
      </trkpt>
      <trkpt lat="43.05954" lon="0.8065">
        <ele>430.4</ele>
        <time>2022-09-04T11:43:54Z</time>
      </trkpt>
      <trkpt lat="43.0594" lon="0.80619">
        <ele>430.2</ele>
        <time>2022-09-04T11:44:02Z</time>
      </trkpt>
      <trkpt lat="43.05925" lon="0.80583">
        <ele>429.8</ele>
        <time>2022-09-04T11:44:10Z</time>
      </trkpt>
      <trkpt lat="43.05909" lon="0.80542">
        <ele>429.6</ele>
        <time>2022-09-04T11:44:18Z</time>
      </trkpt>
      <trkpt lat="43.05897" lon="0.80514">
        <ele>429</ele>
        <time>2022-09-04T11:44:23Z</time>
      </trkpt>
      <trkpt lat="43.05888" lon="0.80492">
        <ele>429.2</ele>
        <time>2022-09-04T11:44:27Z</time>
      </trkpt>
      <trkpt lat="43.05874" lon="0.80459">
        <ele>429</ele>
        <time>2022-09-04T11:44:34Z</time>
      </trkpt>
      <trkpt lat="43.05861" lon="0.80428">
        <ele>429.6</ele>
        <time>2022-09-04T11:44:40Z</time>
      </trkpt>
      <trkpt lat="43.05854" lon="0.80412">
        <ele>430.2</ele>
        <time>2022-09-04T11:44:43Z</time>
      </trkpt>
      <trkpt lat="43.05846" lon="0.8039">
        <ele>430.6</ele>
        <time>2022-09-04T11:44:47Z</time>
      </trkpt>
      <trkpt lat="43.05839" lon="0.80374">
        <ele>431.2</ele>
        <time>2022-09-04T11:44:50Z</time>
      </trkpt>
      <trkpt lat="43.0583" lon="0.80354">
        <ele>431.4</ele>
        <time>2022-09-04T11:44:54Z</time>
      </trkpt>
      <trkpt lat="43.05818" lon="0.80324">
        <ele>432.2</ele>
        <time>2022-09-04T11:45:01Z</time>
      </trkpt>
      <trkpt lat="43.05803" lon="0.80289">
        <ele>433</ele>
        <time>2022-09-04T11:45:10Z</time>
      </trkpt>
      <trkpt lat="43.05799" lon="0.80277">
        <ele>433.4</ele>
        <time>2022-09-04T11:45:13Z</time>
      </trkpt>
      <trkpt lat="43.05785" lon="0.80245">
        <ele>434</ele>
        <time>2022-09-04T11:45:21Z</time>
      </trkpt>
      <trkpt lat="43.05772" lon="0.80212">
        <ele>434.4</ele>
        <time>2022-09-04T11:45:29Z</time>
      </trkpt>
      <trkpt lat="43.0577" lon="0.80208">
        <ele>434.4</ele>
        <time>2022-09-04T11:45:30Z</time>
      </trkpt>
      <trkpt lat="43.05754" lon="0.80166">
        <ele>434.4</ele>
        <time>2022-09-04T11:45:40Z</time>
      </trkpt>
      <trkpt lat="43.05737" lon="0.80132">
        <ele>434.4</ele>
        <time>2022-09-04T11:45:48Z</time>
      </trkpt>
      <trkpt lat="43.05713" lon="0.8009">
        <ele>433.6</ele>
        <time>2022-09-04T11:45:57Z</time>
      </trkpt>
      <trkpt lat="43.05709" lon="0.80086">
        <ele>433.6</ele>
        <time>2022-09-04T11:45:58Z</time>
      </trkpt>
      <trkpt lat="43.05703" lon="0.80075">
        <ele>433.2</ele>
        <time>2022-09-04T11:46:00Z</time>
      </trkpt>
      <trkpt lat="43.05695" lon="0.80061">
        <ele>432.8</ele>
        <time>2022-09-04T11:46:03Z</time>
      </trkpt>
      <trkpt lat="43.05692" lon="0.80057">
        <ele>432.6</ele>
        <time>2022-09-04T11:46:04Z</time>
      </trkpt>
      <trkpt lat="43.05683" lon="0.80041">
        <ele>431.8</ele>
        <time>2022-09-04T11:46:07Z</time>
      </trkpt>
      <trkpt lat="43.0568" lon="0.80034">
        <ele>431.6</ele>
        <time>2022-09-04T11:46:08Z</time>
      </trkpt>
      <trkpt lat="43.05661" lon="0.79996">
        <ele>430.8</ele>
        <time>2022-09-04T11:46:13Z</time>
      </trkpt>
      <trkpt lat="43.05657" lon="0.79987">
        <ele>430.4</ele>
        <time>2022-09-04T11:46:14Z</time>
      </trkpt>
      <trkpt lat="43.05639" lon="0.79949">
        <ele>429.4</ele>
        <time>2022-09-04T11:46:18Z</time>
      </trkpt>
      <trkpt lat="43.05633" lon="0.7994">
        <ele>429.2</ele>
        <time>2022-09-04T11:46:19Z</time>
      </trkpt>
      <trkpt lat="43.05598" lon="0.79886">
        <ele>428.2</ele>
        <time>2022-09-04T11:46:25Z</time>
      </trkpt>
      <trkpt lat="43.05586" lon="0.79869">
        <ele>427.2</ele>
        <time>2022-09-04T11:46:27Z</time>
      </trkpt>
      <trkpt lat="43.05548" lon="0.79814">
        <ele>427.2</ele>
        <time>2022-09-04T11:46:34Z</time>
      </trkpt>
      <trkpt lat="43.05518" lon="0.79769">
        <ele>427.6</ele>
        <time>2022-09-04T11:46:41Z</time>
      </trkpt>
      <trkpt lat="43.05491" lon="0.79725">
        <ele>427.8</ele>
        <time>2022-09-04T11:46:49Z</time>
      </trkpt>
      <trkpt lat="43.0546" lon="0.79675">
        <ele>427</ele>
        <time>2022-09-04T11:46:58Z</time>
      </trkpt>
      <trkpt lat="43.05425" lon="0.79618">
        <ele>427.2</ele>
        <time>2022-09-04T11:47:07Z</time>
      </trkpt>
      <trkpt lat="43.05418" lon="0.79606">
        <ele>427.2</ele>
        <time>2022-09-04T11:47:09Z</time>
      </trkpt>
      <trkpt lat="43.05381" lon="0.79547">
        <ele>427.4</ele>
        <time>2022-09-04T11:47:19Z</time>
      </trkpt>
      <trkpt lat="43.0534" lon="0.79493">
        <ele>427.8</ele>
        <time>2022-09-04T11:47:29Z</time>
      </trkpt>
      <trkpt lat="43.05328" lon="0.79477">
        <ele>428.2</ele>
        <time>2022-09-04T11:47:32Z</time>
      </trkpt>
      <trkpt lat="43.05298" lon="0.79438">
        <ele>428.4</ele>
        <time>2022-09-04T11:47:40Z</time>
      </trkpt>
      <trkpt lat="43.05263" lon="0.79392">
        <ele>428.4</ele>
        <time>2022-09-04T11:47:49Z</time>
      </trkpt>
      <trkpt lat="43.05229" lon="0.79333">
        <ele>427.4</ele>
        <time>2022-09-04T11:47:59Z</time>
      </trkpt>
      <trkpt lat="43.0522" lon="0.79312">
        <ele>427</ele>
        <time>2022-09-04T11:48:02Z</time>
      </trkpt>
      <trkpt lat="43.05206" lon="0.79281">
        <ele>427.2</ele>
        <time>2022-09-04T11:48:06Z</time>
      </trkpt>
      <trkpt lat="43.05176" lon="0.79214">
        <ele>426.8</ele>
        <time>2022-09-04T11:48:15Z</time>
      </trkpt>
      <trkpt lat="43.05155" lon="0.79165">
        <ele>427.4</ele>
        <time>2022-09-04T11:48:22Z</time>
      </trkpt>
      <trkpt lat="43.05134" lon="0.79112">
        <ele>428</ele>
        <time>2022-09-04T11:48:30Z</time>
      </trkpt>
      <trkpt lat="43.05131" lon="0.79106">
        <ele>428.2</ele>
        <time>2022-09-04T11:48:31Z</time>
      </trkpt>
      <trkpt lat="43.05114" lon="0.79065">
        <ele>429</ele>
        <time>2022-09-04T11:48:38Z</time>
      </trkpt>
      <trkpt lat="43.05108" lon="0.79048">
        <ele>429.2</ele>
        <time>2022-09-04T11:48:41Z</time>
      </trkpt>
      <trkpt lat="43.05088" lon="0.79001">
        <ele>429.6</ele>
        <time>2022-09-04T11:48:50Z</time>
      </trkpt>
      <trkpt lat="43.05072" lon="0.78955">
        <ele>429.8</ele>
        <time>2022-09-04T11:48:59Z</time>
      </trkpt>
      <trkpt lat="43.05056" lon="0.78911">
        <ele>429.4</ele>
        <time>2022-09-04T11:49:07Z</time>
      </trkpt>
      <trkpt lat="43.05044" lon="0.78874">
        <ele>429.6</ele>
        <time>2022-09-04T11:49:14Z</time>
      </trkpt>
      <trkpt lat="43.0503" lon="0.78835">
        <ele>430.4</ele>
        <time>2022-09-04T11:49:21Z</time>
      </trkpt>
      <trkpt lat="43.05024" lon="0.78819">
        <ele>430.6</ele>
        <time>2022-09-04T11:49:24Z</time>
      </trkpt>
      <trkpt lat="43.05009" lon="0.78768">
        <ele>430.8</ele>
        <time>2022-09-04T11:49:33Z</time>
      </trkpt>
      <trkpt lat="43.05006" lon="0.78756">
        <ele>430.6</ele>
        <time>2022-09-04T11:49:35Z</time>
      </trkpt>
      <trkpt lat="43.05001" lon="0.78726">
        <ele>430.6</ele>
        <time>2022-09-04T11:49:40Z</time>
      </trkpt>
      <trkpt lat="43.0499" lon="0.78663">
        <ele>430.2</ele>
        <time>2022-09-04T11:49:50Z</time>
      </trkpt>
      <trkpt lat="43.04979" lon="0.78602">
        <ele>429.4</ele>
        <time>2022-09-04T11:49:59Z</time>
      </trkpt>
      <trkpt lat="43.04975" lon="0.78551">
        <ele>429.2</ele>
        <time>2022-09-04T11:50:06Z</time>
      </trkpt>
      <trkpt lat="43.04974" lon="0.78544">
        <ele>429</ele>
        <time>2022-09-04T11:50:07Z</time>
      </trkpt>
      <trkpt lat="43.04969" lon="0.78491">
        <ele>428.2</ele>
        <time>2022-09-04T11:50:14Z</time>
      </trkpt>
      <trkpt lat="43.04967" lon="0.78475">
        <ele>427.8</ele>
        <time>2022-09-04T11:50:16Z</time>
      </trkpt>
      <trkpt lat="43.04961" lon="0.78409">
        <ele>427.2</ele>
        <time>2022-09-04T11:50:24Z</time>
      </trkpt>
      <trkpt lat="43.0496" lon="0.784">
        <ele>427</ele>
        <time>2022-09-04T11:50:25Z</time>
      </trkpt>
      <trkpt lat="43.04959" lon="0.78348">
        <ele>426.4</ele>
        <time>2022-09-04T11:50:31Z</time>
      </trkpt>
      <trkpt lat="43.04962" lon="0.7834">
        <ele>426.6</ele>
        <time>2022-09-04T11:50:32Z</time>
      </trkpt>
      <trkpt lat="43.04976" lon="0.78325">
        <ele>426</ele>
        <time>2022-09-04T11:50:35Z</time>
      </trkpt>
      <trkpt lat="43.04979" lon="0.78323">
        <ele>425.6</ele>
        <time>2022-09-04T11:50:36Z</time>
      </trkpt>
      <trkpt lat="43.04987" lon="0.78319">
        <ele>425.2</ele>
        <time>2022-09-04T11:50:39Z</time>
      </trkpt>
      <trkpt lat="43.0501" lon="0.78306">
        <ele>424.8</ele>
        <time>2022-09-04T11:50:47Z</time>
      </trkpt>
      <trkpt lat="43.05028" lon="0.78289">
        <ele>424.2</ele>
        <time>2022-09-04T11:50:52Z</time>
      </trkpt>
      <trkpt lat="43.05033" lon="0.7827">
        <ele>423.6</ele>
        <time>2022-09-04T11:50:55Z</time>
      </trkpt>
      <trkpt lat="43.05031" lon="0.78257">
        <ele>422.4</ele>
        <time>2022-09-04T11:50:58Z</time>
      </trkpt>
      <trkpt lat="43.05022" lon="0.78244">
        <ele>421.8</ele>
        <time>2022-09-04T11:51:01Z</time>
      </trkpt>
      <trkpt lat="43.05018" lon="0.78239">
        <ele>421.6</ele>
        <time>2022-09-04T11:51:02Z</time>
      </trkpt>
      <trkpt lat="43.0501" lon="0.78225">
        <ele>421</ele>
        <time>2022-09-04T11:51:04Z</time>
      </trkpt>
      <trkpt lat="43.04997" lon="0.78202">
        <ele>420</ele>
        <time>2022-09-04T11:51:07Z</time>
      </trkpt>
      <trkpt lat="43.04991" lon="0.78195">
        <ele>419.8</ele>
        <time>2022-09-04T11:51:08Z</time>
      </trkpt>
      <trkpt lat="43.04969" lon="0.78174">
        <ele>418</ele>
        <time>2022-09-04T11:51:11Z</time>
      </trkpt>
      <trkpt lat="43.04952" lon="0.78158">
        <ele>416.2</ele>
        <time>2022-09-04T11:51:13Z</time>
      </trkpt>
      <trkpt lat="43.04934" lon="0.78142">
        <ele>415</ele>
        <time>2022-09-04T11:51:15Z</time>
      </trkpt>
      <trkpt lat="43.04925" lon="0.78134">
        <ele>414.6</ele>
        <time>2022-09-04T11:51:16Z</time>
      </trkpt>
      <trkpt lat="43.04916" lon="0.78126">
        <ele>414</ele>
        <time>2022-09-04T11:51:17Z</time>
      </trkpt>
      <trkpt lat="43.04907" lon="0.78119">
        <ele>412.8</ele>
        <time>2022-09-04T11:51:18Z</time>
      </trkpt>
      <trkpt lat="43.04897" lon="0.78113">
        <ele>412</ele>
        <time>2022-09-04T11:51:19Z</time>
      </trkpt>
      <trkpt lat="43.04887" lon="0.78108">
        <ele>410.2</ele>
        <time>2022-09-04T11:51:20Z</time>
      </trkpt>
      <trkpt lat="43.04877" lon="0.78104">
        <ele>408.8</ele>
        <time>2022-09-04T11:51:21Z</time>
      </trkpt>
      <trkpt lat="43.04867" lon="0.781">
        <ele>407.6</ele>
        <time>2022-09-04T11:51:22Z</time>
      </trkpt>
      <trkpt lat="43.04849" lon="0.78096">
        <ele>405.8</ele>
        <time>2022-09-04T11:51:24Z</time>
      </trkpt>
      <trkpt lat="43.04842" lon="0.78095">
        <ele>404.6</ele>
        <time>2022-09-04T11:51:25Z</time>
      </trkpt>
      <trkpt lat="43.04836" lon="0.78093">
        <ele>403.4</ele>
        <time>2022-09-04T11:51:26Z</time>
      </trkpt>
      <trkpt lat="43.0483" lon="0.78092">
        <ele>402.2</ele>
        <time>2022-09-04T11:51:27Z</time>
      </trkpt>
      <trkpt lat="43.0482" lon="0.7809">
        <ele>401</ele>
        <time>2022-09-04T11:51:29Z</time>
      </trkpt>
      <trkpt lat="43.04816" lon="0.78088">
        <ele>400.4</ele>
        <time>2022-09-04T11:51:30Z</time>
      </trkpt>
      <trkpt lat="43.04806" lon="0.78081">
        <ele>399.6</ele>
        <time>2022-09-04T11:51:32Z</time>
      </trkpt>
      <trkpt lat="43.04799" lon="0.78072">
        <ele>398.6</ele>
        <time>2022-09-04T11:51:34Z</time>
      </trkpt>
      <trkpt lat="43.04793" lon="0.78064">
        <ele>397.8</ele>
        <time>2022-09-04T11:51:36Z</time>
      </trkpt>
      <trkpt lat="43.04787" lon="0.78058">
        <ele>397.4</ele>
        <time>2022-09-04T11:51:38Z</time>
      </trkpt>
      <trkpt lat="43.04781" lon="0.78056">
        <ele>397</ele>
        <time>2022-09-04T11:51:40Z</time>
      </trkpt>
      <trkpt lat="43.04768" lon="0.78047">
        <ele>397.2</ele>
        <time>2022-09-04T11:51:45Z</time>
      </trkpt>
      <trkpt lat="43.04764" lon="0.7803">
        <ele>396.8</ele>
        <time>2022-09-04T11:51:51Z</time>
      </trkpt>
      <trkpt lat="43.04761" lon="0.78012">
        <ele>396.6</ele>
        <time>2022-09-04T11:51:56Z</time>
      </trkpt>
      <trkpt lat="43.0476" lon="0.78009">
        <ele>396.4</ele>
        <time>2022-09-04T11:51:57Z</time>
      </trkpt>
      <trkpt lat="43.0476" lon="0.78006">
        <ele>396.2</ele>
        <time>2022-09-04T11:51:58Z</time>
      </trkpt>
      <trkpt lat="43.0476" lon="0.78001">
        <ele>396</ele>
        <time>2022-09-04T11:52:00Z</time>
      </trkpt>
      <trkpt lat="43.04759" lon="0.78004">
        <ele>396</ele>
        <time>2022-09-04T11:52:03Z</time>
      </trkpt>
      <trkpt lat="43.04765" lon="0.78014">
        <ele>396.2</ele>
        <time>2022-09-04T11:52:08Z</time>
      </trkpt>
      <trkpt lat="43.04767" lon="0.78013">
        <ele>396.2</ele>
        <time>2022-09-04T11:52:09Z</time>
      </trkpt>
      <trkpt lat="43.04768" lon="0.78012">
        <ele>396</ele>
        <time>2022-09-04T11:52:10Z</time>
      </trkpt>
      <trkpt lat="43.04773" lon="0.78011">
        <ele>395.4</ele>
        <time>2022-09-04T11:52:13Z</time>
      </trkpt>
      <trkpt lat="43.04772" lon="0.78011">
        <ele>395.2</ele>
        <time>2022-09-04T11:52:14Z</time>
      </trkpt>
      <trkpt lat="43.0477" lon="0.78013">
        <ele>395.4</ele>
        <time>2022-09-04T11:52:44Z</time>
      </trkpt>
      <trkpt lat="43.04769" lon="0.78013">
        <ele>395.6</ele>
        <time>2022-09-04T11:52:45Z</time>
      </trkpt>
      <trkpt lat="43.04764" lon="0.7802">
        <ele>396.2</ele>
        <time>2022-09-04T11:52:52Z</time>
      </trkpt>
      <trkpt lat="43.04765" lon="0.78021">
        <ele>396.4</ele>
        <time>2022-09-04T11:52:53Z</time>
      </trkpt>
      <trkpt lat="43.04764" lon="0.78021">
        <ele>396.6</ele>
        <time>2022-09-04T11:54:04Z</time>
      </trkpt>
      <trkpt lat="43.04762" lon="0.78009">
        <ele>396.2</ele>
        <time>2022-09-04T11:54:08Z</time>
      </trkpt>
      <trkpt lat="43.0476" lon="0.78001">
        <ele>396</ele>
        <time>2022-09-04T11:54:10Z</time>
      </trkpt>
      <trkpt lat="43.04755" lon="0.77966">
        <ele>395.8</ele>
        <time>2022-09-04T11:54:19Z</time>
      </trkpt>
      <trkpt lat="43.04752" lon="0.77933">
        <ele>395.6</ele>
        <time>2022-09-04T11:54:27Z</time>
      </trkpt>
      <trkpt lat="43.0475" lon="0.77903">
        <ele>395.4</ele>
        <time>2022-09-04T11:54:34Z</time>
      </trkpt>
      <trkpt lat="43.04752" lon="0.77864">
        <ele>395.4</ele>
        <time>2022-09-04T11:54:43Z</time>
      </trkpt>
      <trkpt lat="43.04753" lon="0.77837">
        <ele>395.6</ele>
        <time>2022-09-04T11:54:50Z</time>
      </trkpt>
      <trkpt lat="43.04751" lon="0.77808">
        <ele>395.6</ele>
        <time>2022-09-04T11:54:57Z</time>
      </trkpt>
      <trkpt lat="43.04749" lon="0.77776">
        <ele>396</ele>
        <time>2022-09-04T11:55:05Z</time>
      </trkpt>
      <trkpt lat="43.04747" lon="0.7775">
        <ele>397</ele>
        <time>2022-09-04T11:55:12Z</time>
      </trkpt>
      <trkpt lat="43.04746" lon="0.77735">
        <ele>397.2</ele>
        <time>2022-09-04T11:55:16Z</time>
      </trkpt>
      <trkpt lat="43.04744" lon="0.77721">
        <ele>397.6</ele>
        <time>2022-09-04T11:55:20Z</time>
      </trkpt>
      <trkpt lat="43.04745" lon="0.777">
        <ele>398.4</ele>
        <time>2022-09-04T11:55:26Z</time>
      </trkpt>
      <trkpt lat="43.04754" lon="0.77677">
        <ele>398.8</ele>
        <time>2022-09-04T11:55:33Z</time>
      </trkpt>
      <trkpt lat="43.0475" lon="0.77661">
        <ele>398.8</ele>
        <time>2022-09-04T11:55:37Z</time>
      </trkpt>
      <trkpt lat="43.04736" lon="0.77647">
        <ele>399.2</ele>
        <time>2022-09-04T11:55:43Z</time>
      </trkpt>
      <trkpt lat="43.04729" lon="0.77626">
        <ele>399.4</ele>
        <time>2022-09-04T11:55:48Z</time>
      </trkpt>
      <trkpt lat="43.04724" lon="0.77581">
        <ele>399.2</ele>
        <time>2022-09-04T11:55:57Z</time>
      </trkpt>
      <trkpt lat="43.04717" lon="0.77529">
        <ele>398.8</ele>
        <time>2022-09-04T11:56:08Z</time>
      </trkpt>
      <trkpt lat="43.04715" lon="0.77488">
        <ele>399</ele>
        <time>2022-09-04T11:56:16Z</time>
      </trkpt>
      <trkpt lat="43.04721" lon="0.77447">
        <ele>398.8</ele>
        <time>2022-09-04T11:56:23Z</time>
      </trkpt>
      <trkpt lat="43.04735" lon="0.77385">
        <ele>398.8</ele>
        <time>2022-09-04T11:56:33Z</time>
      </trkpt>
      <trkpt lat="43.04743" lon="0.77342">
        <ele>398.6</ele>
        <time>2022-09-04T11:56:40Z</time>
      </trkpt>
      <trkpt lat="43.04749" lon="0.7727">
        <ele>398.2</ele>
        <time>2022-09-04T11:56:51Z</time>
      </trkpt>
      <trkpt lat="43.04753" lon="0.77217">
        <ele>398.4</ele>
        <time>2022-09-04T11:56:59Z</time>
      </trkpt>
      <trkpt lat="43.04758" lon="0.77171">
        <ele>398.4</ele>
        <time>2022-09-04T11:57:06Z</time>
      </trkpt>
      <trkpt lat="43.04763" lon="0.77104">
        <ele>398.2</ele>
        <time>2022-09-04T11:57:16Z</time>
      </trkpt>
      <trkpt lat="43.04768" lon="0.77051">
        <ele>398.2</ele>
        <time>2022-09-04T11:57:24Z</time>
      </trkpt>
      <trkpt lat="43.04773" lon="0.76989">
        <ele>398.2</ele>
        <time>2022-09-04T11:57:33Z</time>
      </trkpt>
      <trkpt lat="43.04777" lon="0.76924">
        <ele>398.4</ele>
        <time>2022-09-04T11:57:43Z</time>
      </trkpt>
      <trkpt lat="43.0478" lon="0.76872">
        <ele>399</ele>
        <time>2022-09-04T11:57:51Z</time>
      </trkpt>
      <trkpt lat="43.04783" lon="0.76815">
        <ele>399.4</ele>
        <time>2022-09-04T11:58:00Z</time>
      </trkpt>
      <trkpt lat="43.04783" lon="0.76809">
        <ele>399.4</ele>
        <time>2022-09-04T11:58:01Z</time>
      </trkpt>
      <trkpt lat="43.0479" lon="0.76758">
        <ele>400.2</ele>
        <time>2022-09-04T11:58:10Z</time>
      </trkpt>
      <trkpt lat="43.04796" lon="0.76736">
        <ele>400.6</ele>
        <time>2022-09-04T11:58:14Z</time>
      </trkpt>
      <trkpt lat="43.04802" lon="0.76721">
        <ele>401</ele>
        <time>2022-09-04T11:58:17Z</time>
      </trkpt>
      <trkpt lat="43.04821" lon="0.76676">
        <ele>401.4</ele>
        <time>2022-09-04T11:58:26Z</time>
      </trkpt>
      <trkpt lat="43.04825" lon="0.76665">
        <ele>401.6</ele>
        <time>2022-09-04T11:58:28Z</time>
      </trkpt>
      <trkpt lat="43.0484" lon="0.76629">
        <ele>401.6</ele>
        <time>2022-09-04T11:58:35Z</time>
      </trkpt>
      <trkpt lat="43.04861" lon="0.76578">
        <ele>402.2</ele>
        <time>2022-09-04T11:58:45Z</time>
      </trkpt>
      <trkpt lat="43.04869" lon="0.76558">
        <ele>402.6</ele>
        <time>2022-09-04T11:58:49Z</time>
      </trkpt>
      <trkpt lat="43.0488" lon="0.76534">
        <ele>403.4</ele>
        <time>2022-09-04T11:58:54Z</time>
      </trkpt>
      <trkpt lat="43.04882" lon="0.76529">
        <ele>403.6</ele>
        <time>2022-09-04T11:58:55Z</time>
      </trkpt>
      <trkpt lat="43.04891" lon="0.76506">
        <ele>404.6</ele>
        <time>2022-09-04T11:59:00Z</time>
      </trkpt>
      <trkpt lat="43.04895" lon="0.76497">
        <ele>405</ele>
        <time>2022-09-04T11:59:02Z</time>
      </trkpt>
      <trkpt lat="43.049" lon="0.76485">
        <ele>405.8</ele>
        <time>2022-09-04T11:59:05Z</time>
      </trkpt>
      <trkpt lat="43.04905" lon="0.76474">
        <ele>406.6</ele>
        <time>2022-09-04T11:59:08Z</time>
      </trkpt>
      <trkpt lat="43.04906" lon="0.76471">
        <ele>406.8</ele>
        <time>2022-09-04T11:59:09Z</time>
      </trkpt>
      <trkpt lat="43.04912" lon="0.76455">
        <ele>408</ele>
        <time>2022-09-04T11:59:14Z</time>
      </trkpt>
      <trkpt lat="43.04915" lon="0.7645">
        <ele>408.4</ele>
        <time>2022-09-04T11:59:16Z</time>
      </trkpt>
      <trkpt lat="43.04916" lon="0.76448">
        <ele>408.6</ele>
        <time>2022-09-04T11:59:17Z</time>
      </trkpt>
      <trkpt lat="43.04919" lon="0.76443">
        <ele>409</ele>
        <time>2022-09-04T11:59:19Z</time>
      </trkpt>
      <trkpt lat="43.04923" lon="0.76435">
        <ele>409.4</ele>
        <time>2022-09-04T11:59:22Z</time>
      </trkpt>
      <trkpt lat="43.04929" lon="0.76424">
        <ele>410</ele>
        <time>2022-09-04T11:59:26Z</time>
      </trkpt>
      <trkpt lat="43.04932" lon="0.76415">
        <ele>410.4</ele>
        <time>2022-09-04T11:59:29Z</time>
      </trkpt>
      <trkpt lat="43.04934" lon="0.76413">
        <ele>410.4</ele>
        <time>2022-09-04T11:59:30Z</time>
      </trkpt>
      <trkpt lat="43.04938" lon="0.76404">
        <ele>410.6</ele>
        <time>2022-09-04T11:59:33Z</time>
      </trkpt>
      <trkpt lat="43.04945" lon="0.76386">
        <ele>411</ele>
        <time>2022-09-04T11:59:39Z</time>
      </trkpt>
      <trkpt lat="43.04948" lon="0.76381">
        <ele>411.2</ele>
        <time>2022-09-04T11:59:41Z</time>
      </trkpt>
      <trkpt lat="43.04958" lon="0.76358">
        <ele>411.6</ele>
        <time>2022-09-04T11:59:48Z</time>
      </trkpt>
      <trkpt lat="43.04968" lon="0.76332">
        <ele>411.8</ele>
        <time>2022-09-04T11:59:55Z</time>
      </trkpt>
      <trkpt lat="43.0498" lon="0.76299">
        <ele>411.6</ele>
        <time>2022-09-04T12:00:01Z</time>
      </trkpt>
      <trkpt lat="43.04984" lon="0.76286">
        <ele>411.6</ele>
        <time>2022-09-04T12:00:03Z</time>
      </trkpt>
      <trkpt lat="43.04989" lon="0.76258">
        <ele>411.4</ele>
        <time>2022-09-04T12:00:07Z</time>
      </trkpt>
      <trkpt lat="43.04996" lon="0.76189">
        <ele>411.4</ele>
        <time>2022-09-04T12:00:16Z</time>
      </trkpt>
      <trkpt lat="43.05001" lon="0.76136">
        <ele>411.6</ele>
        <time>2022-09-04T12:00:23Z</time>
      </trkpt>
      <trkpt lat="43.05006" lon="0.76073">
        <ele>410.8</ele>
        <time>2022-09-04T12:00:31Z</time>
      </trkpt>
      <trkpt lat="43.05013" lon="0.76008">
        <ele>410</ele>
        <time>2022-09-04T12:00:39Z</time>
      </trkpt>
      <trkpt lat="43.05014" lon="0.76001">
        <ele>410</ele>
        <time>2022-09-04T12:00:40Z</time>
      </trkpt>
      <trkpt lat="43.05015" lon="0.75984">
        <ele>409.8</ele>
        <time>2022-09-04T12:00:42Z</time>
      </trkpt>
      <trkpt lat="43.05017" lon="0.7596">
        <ele>409</ele>
        <time>2022-09-04T12:00:45Z</time>
      </trkpt>
      <trkpt lat="43.05018" lon="0.75951">
        <ele>409</ele>
        <time>2022-09-04T12:00:46Z</time>
      </trkpt>
      <trkpt lat="43.05022" lon="0.75906">
        <ele>407.8</ele>
        <time>2022-09-04T12:00:51Z</time>
      </trkpt>
      <trkpt lat="43.05022" lon="0.75896">
        <ele>407.8</ele>
        <time>2022-09-04T12:00:52Z</time>
      </trkpt>
      <trkpt lat="43.05025" lon="0.75867">
        <ele>407</ele>
        <time>2022-09-04T12:00:55Z</time>
      </trkpt>
      <trkpt lat="43.05026" lon="0.75857">
        <ele>406.6</ele>
        <time>2022-09-04T12:00:56Z</time>
      </trkpt>
      <trkpt lat="43.05027" lon="0.75834">
        <ele>405.8</ele>
        <time>2022-09-04T12:00:58Z</time>
      </trkpt>
      <trkpt lat="43.05026" lon="0.75811">
        <ele>405.4</ele>
        <time>2022-09-04T12:01:00Z</time>
      </trkpt>
      <trkpt lat="43.05026" lon="0.75774">
        <ele>405.2</ele>
        <time>2022-09-04T12:01:03Z</time>
      </trkpt>
      <trkpt lat="43.05028" lon="0.75749">
        <ele>404.2</ele>
        <time>2022-09-04T12:01:05Z</time>
      </trkpt>
      <trkpt lat="43.05034" lon="0.75711">
        <ele>403.8</ele>
        <time>2022-09-04T12:01:08Z</time>
      </trkpt>
      <trkpt lat="43.05037" lon="0.75698">
        <ele>403</ele>
        <time>2022-09-04T12:01:09Z</time>
      </trkpt>
      <trkpt lat="43.05042" lon="0.75672">
        <ele>401.8</ele>
        <time>2022-09-04T12:01:11Z</time>
      </trkpt>
      <trkpt lat="43.0505" lon="0.75636">
        <ele>400.6</ele>
        <time>2022-09-04T12:01:14Z</time>
      </trkpt>
      <trkpt lat="43.05052" lon="0.75624">
        <ele>400</ele>
        <time>2022-09-04T12:01:15Z</time>
      </trkpt>
      <trkpt lat="43.05061" lon="0.75569">
        <ele>399.4</ele>
        <time>2022-09-04T12:01:20Z</time>
      </trkpt>
      <trkpt lat="43.05064" lon="0.75516">
        <ele>399.8</ele>
        <time>2022-09-04T12:01:26Z</time>
      </trkpt>
      <trkpt lat="43.05065" lon="0.75493">
        <ele>400.4</ele>
        <time>2022-09-04T12:01:29Z</time>
      </trkpt>
      <trkpt lat="43.05065" lon="0.75463">
        <ele>400.8</ele>
        <time>2022-09-04T12:01:33Z</time>
      </trkpt>
      <trkpt lat="43.05065" lon="0.75442">
        <ele>400.8</ele>
        <time>2022-09-04T12:01:36Z</time>
      </trkpt>
      <trkpt lat="43.05064" lon="0.75417">
        <ele>400.4</ele>
        <time>2022-09-04T12:01:39Z</time>
      </trkpt>
      <trkpt lat="43.05066" lon="0.75359">
        <ele>399.4</ele>
        <time>2022-09-04T12:01:45Z</time>
      </trkpt>
      <trkpt lat="43.05074" lon="0.75282">
        <ele>398.2</ele>
        <time>2022-09-04T12:01:53Z</time>
      </trkpt>
      <trkpt lat="43.05082" lon="0.75206">
        <ele>397</ele>
        <time>2022-09-04T12:02:01Z</time>
      </trkpt>
      <trkpt lat="43.05082" lon="0.75197">
        <ele>396.8</ele>
        <time>2022-09-04T12:02:02Z</time>
      </trkpt>
      <trkpt lat="43.05084" lon="0.75122">
        <ele>396.2</ele>
        <time>2022-09-04T12:02:10Z</time>
      </trkpt>
      <trkpt lat="43.05086" lon="0.75068">
        <ele>396</ele>
        <time>2022-09-04T12:02:16Z</time>
      </trkpt>
      <trkpt lat="43.05087" lon="0.75042">
        <ele>396</ele>
        <time>2022-09-04T12:02:19Z</time>
      </trkpt>
      <trkpt lat="43.05089" lon="0.74966">
        <ele>396.2</ele>
        <time>2022-09-04T12:02:28Z</time>
      </trkpt>
      <trkpt lat="43.05089" lon="0.74957">
        <ele>396</ele>
        <time>2022-09-04T12:02:29Z</time>
      </trkpt>
      <trkpt lat="43.0509" lon="0.74882">
        <ele>395.4</ele>
        <time>2022-09-04T12:02:38Z</time>
      </trkpt>
      <trkpt lat="43.05091" lon="0.74849">
        <ele>395.2</ele>
        <time>2022-09-04T12:02:42Z</time>
      </trkpt>
      <trkpt lat="43.05091" lon="0.74842">
        <ele>395</ele>
        <time>2022-09-04T12:02:43Z</time>
      </trkpt>
      <trkpt lat="43.0509" lon="0.74826">
        <ele>394.8</ele>
        <time>2022-09-04T12:02:45Z</time>
      </trkpt>
      <trkpt lat="43.05084" lon="0.74761">
        <ele>394.8</ele>
        <time>2022-09-04T12:02:53Z</time>
      </trkpt>
      <trkpt lat="43.05075" lon="0.74706">
        <ele>393.8</ele>
        <time>2022-09-04T12:03:00Z</time>
      </trkpt>
      <trkpt lat="43.05072" lon="0.7469">
        <ele>394</ele>
        <time>2022-09-04T12:03:02Z</time>
      </trkpt>
      <trkpt lat="43.05059" lon="0.74634">
        <ele>393.4</ele>
        <time>2022-09-04T12:03:10Z</time>
      </trkpt>
      <trkpt lat="43.05052" lon="0.74604">
        <ele>392.8</ele>
        <time>2022-09-04T12:03:14Z</time>
      </trkpt>
      <trkpt lat="43.05049" lon="0.74597">
        <ele>392.8</ele>
        <time>2022-09-04T12:03:15Z</time>
      </trkpt>
      <trkpt lat="43.05047" lon="0.74589">
        <ele>392.6</ele>
        <time>2022-09-04T12:03:16Z</time>
      </trkpt>
      <trkpt lat="43.05025" lon="0.74517">
        <ele>391.8</ele>
        <time>2022-09-04T12:03:25Z</time>
      </trkpt>
      <trkpt lat="43.05023" lon="0.74509">
        <ele>391.4</ele>
        <time>2022-09-04T12:03:26Z</time>
      </trkpt>
      <trkpt lat="43.05014" lon="0.74479">
        <ele>390.2</ele>
        <time>2022-09-04T12:03:30Z</time>
      </trkpt>
      <trkpt lat="43.05012" lon="0.74475">
        <ele>390</ele>
        <time>2022-09-04T12:03:31Z</time>
      </trkpt>
      <trkpt lat="43.05005" lon="0.74457">
        <ele>389.8</ele>
        <time>2022-09-04T12:03:36Z</time>
      </trkpt>
      <trkpt lat="43.04989" lon="0.74429">
        <ele>389.8</ele>
        <time>2022-09-04T12:03:43Z</time>
      </trkpt>
      <trkpt lat="43.04976" lon="0.7441">
        <ele>389.6</ele>
        <time>2022-09-04T12:03:49Z</time>
      </trkpt>
      <trkpt lat="43.04964" lon="0.74398">
        <ele>389.6</ele>
        <time>2022-09-04T12:03:56Z</time>
      </trkpt>
      <trkpt lat="43.0495" lon="0.74379">
        <ele>389.6</ele>
        <time>2022-09-04T12:04:05Z</time>
      </trkpt>
      <trkpt lat="43.04937" lon="0.74366">
        <ele>389.6</ele>
        <time>2022-09-04T12:04:12Z</time>
      </trkpt>
      <trkpt lat="43.04932" lon="0.74364">
        <ele>389.2</ele>
        <time>2022-09-04T12:04:16Z</time>
      </trkpt>
      <trkpt lat="43.04933" lon="0.74364">
        <ele>389.2</ele>
        <time>2022-09-04T12:04:17Z</time>
      </trkpt>
      <trkpt lat="43.04929" lon="0.74357">
        <ele>389.4</ele>
        <time>2022-09-04T12:06:08Z</time>
      </trkpt>
      <trkpt lat="43.04926" lon="0.74352">
        <ele>389.6</ele>
        <time>2022-09-04T12:06:10Z</time>
      </trkpt>
      <trkpt lat="43.04913" lon="0.74341">
        <ele>389</ele>
        <time>2022-09-04T12:06:15Z</time>
      </trkpt>
      <trkpt lat="43.049" lon="0.74325">
        <ele>388.6</ele>
        <time>2022-09-04T12:06:20Z</time>
      </trkpt>
      <trkpt lat="43.04905" lon="0.74312">
        <ele>388.4</ele>
        <time>2022-09-04T12:06:23Z</time>
      </trkpt>
      <trkpt lat="43.04908" lon="0.74307">
        <ele>388.2</ele>
        <time>2022-09-04T12:06:24Z</time>
      </trkpt>
      <trkpt lat="43.04912" lon="0.74296">
        <ele>388.2</ele>
        <time>2022-09-04T12:06:26Z</time>
      </trkpt>
      <trkpt lat="43.0492" lon="0.74278">
        <ele>387.8</ele>
        <time>2022-09-04T12:06:29Z</time>
      </trkpt>
      <trkpt lat="43.04932" lon="0.74253">
        <ele>387</ele>
        <time>2022-09-04T12:06:33Z</time>
      </trkpt>
      <trkpt lat="43.0494" lon="0.74235">
        <ele>386.4</ele>
        <time>2022-09-04T12:06:36Z</time>
      </trkpt>
      <trkpt lat="43.04944" lon="0.74225">
        <ele>386</ele>
        <time>2022-09-04T12:06:38Z</time>
      </trkpt>
      <trkpt lat="43.04948" lon="0.74215">
        <ele>385.4</ele>
        <time>2022-09-04T12:06:41Z</time>
      </trkpt>
      <trkpt lat="43.04954" lon="0.74208">
        <ele>385.2</ele>
        <time>2022-09-04T12:06:45Z</time>
      </trkpt>
      <trkpt lat="43.04956" lon="0.74209">
        <ele>385</ele>
        <time>2022-09-04T12:06:46Z</time>
      </trkpt>
      <trkpt lat="43.04967" lon="0.74216">
        <ele>385.2</ele>
        <time>2022-09-04T12:06:52Z</time>
      </trkpt>
      <trkpt lat="43.04969" lon="0.74217">
        <ele>385.2</ele>
        <time>2022-09-04T12:06:53Z</time>
      </trkpt>
      <trkpt lat="43.04977" lon="0.74225">
        <ele>385.4</ele>
        <time>2022-09-04T12:06:59Z</time>
      </trkpt>
      <trkpt lat="43.04992" lon="0.74235">
        <ele>385.4</ele>
        <time>2022-09-04T12:07:07Z</time>
      </trkpt>
      <trkpt lat="43.04999" lon="0.74228">
        <ele>385.2</ele>
        <time>2022-09-04T12:07:12Z</time>
      </trkpt>
      <trkpt lat="43.05008" lon="0.74224">
        <ele>385.4</ele>
        <time>2022-09-04T12:07:19Z</time>
      </trkpt>
      <trkpt lat="43.05013" lon="0.74224">
        <ele>385.6</ele>
        <time>2022-09-04T12:07:23Z</time>
      </trkpt>
      <trkpt lat="43.05014" lon="0.74222">
        <ele>385.6</ele>
        <time>2022-09-04T12:07:25Z</time>
      </trkpt>
      <trkpt lat="43.05005" lon="0.74219">
        <ele>386</ele>
        <time>2022-09-04T12:11:34Z</time>
      </trkpt>
      <trkpt lat="43.05003" lon="0.74219">
        <ele>385.8</ele>
        <time>2022-09-04T12:11:35Z</time>
      </trkpt>
      <trkpt lat="43.0499" lon="0.74219">
        <ele>386</ele>
        <time>2022-09-04T12:11:41Z</time>
      </trkpt>
      <trkpt lat="43.04982" lon="0.74219">
        <ele>386</ele>
        <time>2022-09-04T12:11:45Z</time>
      </trkpt>
      <trkpt lat="43.0498" lon="0.74218">
        <ele>386</ele>
        <time>2022-09-04T12:11:46Z</time>
      </trkpt>
      <trkpt lat="43.04972" lon="0.74213">
        <ele>386</ele>
        <time>2022-09-04T12:11:50Z</time>
      </trkpt>
      <trkpt lat="43.04964" lon="0.74208">
        <ele>386.2</ele>
        <time>2022-09-04T12:11:53Z</time>
      </trkpt>
      <trkpt lat="43.04942" lon="0.74193">
        <ele>386</ele>
        <time>2022-09-04T12:12:01Z</time>
      </trkpt>
      <trkpt lat="43.04918" lon="0.74182">
        <ele>386.6</ele>
        <time>2022-09-04T12:12:10Z</time>
      </trkpt>
      <trkpt lat="43.04903" lon="0.74181">
        <ele>386.8</ele>
        <time>2022-09-04T12:12:16Z</time>
      </trkpt>
      <trkpt lat="43.04899" lon="0.7418">
        <ele>387.2</ele>
        <time>2022-09-04T12:12:18Z</time>
      </trkpt>
      <trkpt lat="43.04888" lon="0.74175">
        <ele>388</ele>
        <time>2022-09-04T12:12:24Z</time>
      </trkpt>
      <trkpt lat="43.04886" lon="0.7417">
        <ele>388.2</ele>
        <time>2022-09-04T12:12:26Z</time>
      </trkpt>
      <trkpt lat="43.04887" lon="0.74162">
        <ele>388.2</ele>
        <time>2022-09-04T12:12:29Z</time>
      </trkpt>
      <trkpt lat="43.04888" lon="0.74159">
        <ele>388.2</ele>
        <time>2022-09-04T12:12:30Z</time>
      </trkpt>
      <trkpt lat="43.04893" lon="0.74138">
        <ele>387.8</ele>
        <time>2022-09-04T12:12:35Z</time>
      </trkpt>
      <trkpt lat="43.04897" lon="0.74116">
        <ele>387.2</ele>
        <time>2022-09-04T12:12:39Z</time>
      </trkpt>
      <trkpt lat="43.04899" lon="0.74109">
        <ele>387</ele>
        <time>2022-09-04T12:12:40Z</time>
      </trkpt>
      <trkpt lat="43.04906" lon="0.74057">
        <ele>386.6</ele>
        <time>2022-09-04T12:12:48Z</time>
      </trkpt>
      <trkpt lat="43.04911" lon="0.74019">
        <ele>386.6</ele>
        <time>2022-09-04T12:12:55Z</time>
      </trkpt>
      <trkpt lat="43.04913" lon="0.73978">
        <ele>387.2</ele>
        <time>2022-09-04T12:13:03Z</time>
      </trkpt>
      <trkpt lat="43.04912" lon="0.73937">
        <ele>388.4</ele>
        <time>2022-09-04T12:13:12Z</time>
      </trkpt>
      <trkpt lat="43.04912" lon="0.73934">
        <ele>388.6</ele>
        <time>2022-09-04T12:13:13Z</time>
      </trkpt>
      <trkpt lat="43.04912" lon="0.73916">
        <ele>389.6</ele>
        <time>2022-09-04T12:13:18Z</time>
      </trkpt>
      <trkpt lat="43.04911" lon="0.73901">
        <ele>390.6</ele>
        <time>2022-09-04T12:13:23Z</time>
      </trkpt>
      <trkpt lat="43.04909" lon="0.73883">
        <ele>391.8</ele>
        <time>2022-09-04T12:13:30Z</time>
      </trkpt>
      <trkpt lat="43.0491" lon="0.73881">
        <ele>391.8</ele>
        <time>2022-09-04T12:13:31Z</time>
      </trkpt>
      <trkpt lat="43.04912" lon="0.73873">
        <ele>392.6</ele>
        <time>2022-09-04T12:13:35Z</time>
      </trkpt>
      <trkpt lat="43.04913" lon="0.73872">
        <ele>392.8</ele>
        <time>2022-09-04T12:13:36Z</time>
      </trkpt>
      <trkpt lat="43.04915" lon="0.73871">
        <ele>392.8</ele>
        <time>2022-09-04T12:13:37Z</time>
      </trkpt>
      <trkpt lat="43.04918" lon="0.73869">
        <ele>393.2</ele>
        <time>2022-09-04T12:13:39Z</time>
      </trkpt>
      <trkpt lat="43.04929" lon="0.73863">
        <ele>393.4</ele>
        <time>2022-09-04T12:13:44Z</time>
      </trkpt>
      <trkpt lat="43.04953" lon="0.73844">
        <ele>393.8</ele>
        <time>2022-09-04T12:13:54Z</time>
      </trkpt>
      <trkpt lat="43.04973" lon="0.73825">
        <ele>393.6</ele>
        <time>2022-09-04T12:14:02Z</time>
      </trkpt>
      <trkpt lat="43.04991" lon="0.73803">
        <ele>393.6</ele>
        <time>2022-09-04T12:14:10Z</time>
      </trkpt>
      <trkpt lat="43.04994" lon="0.73778">
        <ele>394.2</ele>
        <time>2022-09-04T12:14:16Z</time>
      </trkpt>
      <trkpt lat="43.04997" lon="0.73734">
        <ele>394.8</ele>
        <time>2022-09-04T12:14:26Z</time>
      </trkpt>
      <trkpt lat="43.04997" lon="0.73698">
        <ele>395.4</ele>
        <time>2022-09-04T12:14:34Z</time>
      </trkpt>
      <trkpt lat="43.04995" lon="0.73681">
        <ele>395.8</ele>
        <time>2022-09-04T12:14:38Z</time>
      </trkpt>
      <trkpt lat="43.04993" lon="0.73669">
        <ele>396.2</ele>
        <time>2022-09-04T12:14:41Z</time>
      </trkpt>
      <trkpt lat="43.04991" lon="0.7366">
        <ele>396</ele>
        <time>2022-09-04T12:14:43Z</time>
      </trkpt>
      <trkpt lat="43.04984" lon="0.73623">
        <ele>396</ele>
        <time>2022-09-04T12:14:52Z</time>
      </trkpt>
      <trkpt lat="43.04977" lon="0.73578">
        <ele>396.6</ele>
        <time>2022-09-04T12:15:02Z</time>
      </trkpt>
      <trkpt lat="43.04977" lon="0.7356">
        <ele>396.8</ele>
        <time>2022-09-04T12:15:06Z</time>
      </trkpt>
      <trkpt lat="43.04977" lon="0.73542">
        <ele>397.2</ele>
        <time>2022-09-04T12:15:10Z</time>
      </trkpt>
      <trkpt lat="43.0498" lon="0.73505">
        <ele>397.8</ele>
        <time>2022-09-04T12:15:18Z</time>
      </trkpt>
      <trkpt lat="43.04982" lon="0.73496">
        <ele>398</ele>
        <time>2022-09-04T12:15:20Z</time>
      </trkpt>
      <trkpt lat="43.04985" lon="0.73475">
        <ele>398.2</ele>
        <time>2022-09-04T12:15:25Z</time>
      </trkpt>
      <trkpt lat="43.04993" lon="0.73437">
        <ele>398.8</ele>
        <time>2022-09-04T12:15:34Z</time>
      </trkpt>
      <trkpt lat="43.04994" lon="0.73433">
        <ele>399</ele>
        <time>2022-09-04T12:15:35Z</time>
      </trkpt>
      <trkpt lat="43.05006" lon="0.73413">
        <ele>399.2</ele>
        <time>2022-09-04T12:15:41Z</time>
      </trkpt>
      <trkpt lat="43.05022" lon="0.73395">
        <ele>399.8</ele>
        <time>2022-09-04T12:15:48Z</time>
      </trkpt>
      <trkpt lat="43.05025" lon="0.73392">
        <ele>400</ele>
        <time>2022-09-04T12:15:50Z</time>
      </trkpt>
      <trkpt lat="43.05031" lon="0.73387">
        <ele>400.4</ele>
        <time>2022-09-04T12:15:53Z</time>
      </trkpt>
      <trkpt lat="43.05044" lon="0.7337">
        <ele>401.2</ele>
        <time>2022-09-04T12:16:00Z</time>
      </trkpt>
      <trkpt lat="43.05055" lon="0.73349">
        <ele>402.2</ele>
        <time>2022-09-04T12:16:08Z</time>
      </trkpt>
      <trkpt lat="43.05063" lon="0.73329">
        <ele>402.6</ele>
        <time>2022-09-04T12:16:16Z</time>
      </trkpt>
      <trkpt lat="43.05072" lon="0.73313">
        <ele>403</ele>
        <time>2022-09-04T12:16:22Z</time>
      </trkpt>
      <trkpt lat="43.05078" lon="0.73291">
        <ele>402.8</ele>
        <time>2022-09-04T12:16:28Z</time>
      </trkpt>
      <trkpt lat="43.05071" lon="0.73268">
        <ele>402.8</ele>
        <time>2022-09-04T12:16:34Z</time>
      </trkpt>
      <trkpt lat="43.05061" lon="0.73237">
        <ele>403.4</ele>
        <time>2022-09-04T12:16:41Z</time>
      </trkpt>
      <trkpt lat="43.0506" lon="0.73233">
        <ele>403.4</ele>
        <time>2022-09-04T12:16:42Z</time>
      </trkpt>
      <trkpt lat="43.05051" lon="0.73202">
        <ele>404</ele>
        <time>2022-09-04T12:16:49Z</time>
      </trkpt>
      <trkpt lat="43.05047" lon="0.73184">
        <ele>404.6</ele>
        <time>2022-09-04T12:16:53Z</time>
      </trkpt>
      <trkpt lat="43.05042" lon="0.73168">
        <ele>405</ele>
        <time>2022-09-04T12:16:57Z</time>
      </trkpt>
      <trkpt lat="43.05039" lon="0.73151">
        <ele>405.6</ele>
        <time>2022-09-04T12:17:01Z</time>
      </trkpt>
      <trkpt lat="43.05036" lon="0.73129">
        <ele>405.8</ele>
        <time>2022-09-04T12:17:06Z</time>
      </trkpt>
      <trkpt lat="43.0503" lon="0.73094">
        <ele>406</ele>
        <time>2022-09-04T12:17:14Z</time>
      </trkpt>
      <trkpt lat="43.05024" lon="0.73069">
        <ele>406.6</ele>
        <time>2022-09-04T12:17:20Z</time>
      </trkpt>
      <trkpt lat="43.05022" lon="0.73061">
        <ele>406.6</ele>
        <time>2022-09-04T12:17:22Z</time>
      </trkpt>
      <trkpt lat="43.05015" lon="0.73038">
        <ele>406.8</ele>
        <time>2022-09-04T12:17:28Z</time>
      </trkpt>
      <trkpt lat="43.05013" lon="0.73013">
        <ele>407</ele>
        <time>2022-09-04T12:17:34Z</time>
      </trkpt>
      <trkpt lat="43.05016" lon="0.72986">
        <ele>406.8</ele>
        <time>2022-09-04T12:17:39Z</time>
      </trkpt>
      <trkpt lat="43.05021" lon="0.72945">
        <ele>406</ele>
        <time>2022-09-04T12:17:45Z</time>
      </trkpt>
      <trkpt lat="43.05021" lon="0.7293">
        <ele>405.4</ele>
        <time>2022-09-04T12:17:47Z</time>
      </trkpt>
      <trkpt lat="43.05023" lon="0.72891">
        <ele>404.8</ele>
        <time>2022-09-04T12:17:52Z</time>
      </trkpt>
      <trkpt lat="43.05023" lon="0.72873">
        <ele>404.2</ele>
        <time>2022-09-04T12:17:54Z</time>
      </trkpt>
      <trkpt lat="43.05024" lon="0.72843">
        <ele>403</ele>
        <time>2022-09-04T12:17:57Z</time>
      </trkpt>
      <trkpt lat="43.05024" lon="0.72821">
        <ele>402</ele>
        <time>2022-09-04T12:17:59Z</time>
      </trkpt>
      <trkpt lat="43.05022" lon="0.72786">
        <ele>400.8</ele>
        <time>2022-09-04T12:18:02Z</time>
      </trkpt>
      <trkpt lat="43.05024" lon="0.72758">
        <ele>399.6</ele>
        <time>2022-09-04T12:18:04Z</time>
      </trkpt>
      <trkpt lat="43.05031" lon="0.72731">
        <ele>398.2</ele>
        <time>2022-09-04T12:18:06Z</time>
      </trkpt>
      <trkpt lat="43.05035" lon="0.72717">
        <ele>397.8</ele>
        <time>2022-09-04T12:18:07Z</time>
      </trkpt>
      <trkpt lat="43.05043" lon="0.72679">
        <ele>397.2</ele>
        <time>2022-09-04T12:18:10Z</time>
      </trkpt>
      <trkpt lat="43.05044" lon="0.72666">
        <ele>397</ele>
        <time>2022-09-04T12:18:11Z</time>
      </trkpt>
      <trkpt lat="43.05038" lon="0.72633">
        <ele>397.6</ele>
        <time>2022-09-04T12:18:14Z</time>
      </trkpt>
      <trkpt lat="43.0503" lon="0.72614">
        <ele>396.8</ele>
        <time>2022-09-04T12:18:16Z</time>
      </trkpt>
      <trkpt lat="43.05024" lon="0.72597">
        <ele>396.2</ele>
        <time>2022-09-04T12:18:18Z</time>
      </trkpt>
      <trkpt lat="43.05015" lon="0.7257">
        <ele>397.4</ele>
        <time>2022-09-04T12:18:22Z</time>
      </trkpt>
      <trkpt lat="43.05011" lon="0.72554">
        <ele>398.2</ele>
        <time>2022-09-04T12:18:26Z</time>
      </trkpt>
      <trkpt lat="43.05009" lon="0.72547">
        <ele>398.8</ele>
        <time>2022-09-04T12:18:28Z</time>
      </trkpt>
      <trkpt lat="43.05007" lon="0.7254">
        <ele>399.4</ele>
        <time>2022-09-04T12:18:30Z</time>
      </trkpt>
      <trkpt lat="43.05005" lon="0.72527">
        <ele>400.6</ele>
        <time>2022-09-04T12:18:35Z</time>
      </trkpt>
      <trkpt lat="43.05004" lon="0.7251">
        <ele>401.6</ele>
        <time>2022-09-04T12:18:42Z</time>
      </trkpt>
      <trkpt lat="43.05004" lon="0.72508">
        <ele>401.8</ele>
        <time>2022-09-04T12:18:43Z</time>
      </trkpt>
      <trkpt lat="43.05004" lon="0.72501">
        <ele>402.4</ele>
        <time>2022-09-04T12:18:46Z</time>
      </trkpt>
      <trkpt lat="43.05004" lon="0.72499">
        <ele>402.6</ele>
        <time>2022-09-04T12:18:47Z</time>
      </trkpt>
      <trkpt lat="43.05004" lon="0.72497">
        <ele>402.8</ele>
        <time>2022-09-04T12:18:48Z</time>
      </trkpt>
      <trkpt lat="43.05006" lon="0.72495">
        <ele>403</ele>
        <time>2022-09-04T12:18:49Z</time>
      </trkpt>
      <trkpt lat="43.05009" lon="0.72489">
        <ele>403.6</ele>
        <time>2022-09-04T12:18:53Z</time>
      </trkpt>
      <trkpt lat="43.05009" lon="0.72487">
        <ele>403.8</ele>
        <time>2022-09-04T12:18:54Z</time>
      </trkpt>
      <trkpt lat="43.05008" lon="0.72485">
        <ele>404.2</ele>
        <time>2022-09-04T12:18:55Z</time>
      </trkpt>
      <trkpt lat="43.05007" lon="0.72479">
        <ele>404.4</ele>
        <time>2022-09-04T12:18:58Z</time>
      </trkpt>
      <trkpt lat="43.05009" lon="0.72477">
        <ele>405.2</ele>
        <time>2022-09-04T12:19:00Z</time>
      </trkpt>
      <trkpt lat="43.05014" lon="0.7247">
        <ele>406</ele>
        <time>2022-09-04T12:19:06Z</time>
      </trkpt>
      <trkpt lat="43.05013" lon="0.72469">
        <ele>406.2</ele>
        <time>2022-09-04T12:19:07Z</time>
      </trkpt>
      <trkpt lat="43.05012" lon="0.72468">
        <ele>406.2</ele>
        <time>2022-09-04T12:19:08Z</time>
      </trkpt>
      <trkpt lat="43.05007" lon="0.72463">
        <ele>406.4</ele>
        <time>2022-09-04T12:19:12Z</time>
      </trkpt>
      <trkpt lat="43.05002" lon="0.72447">
        <ele>407.2</ele>
        <time>2022-09-04T12:19:20Z</time>
      </trkpt>
      <trkpt lat="43.05002" lon="0.72446">
        <ele>407.2</ele>
        <time>2022-09-04T12:19:21Z</time>
      </trkpt>
      <trkpt lat="43.04998" lon="0.72437">
        <ele>408</ele>
        <time>2022-09-04T12:19:26Z</time>
      </trkpt>
      <trkpt lat="43.04997" lon="0.72434">
        <ele>408.4</ele>
        <time>2022-09-04T12:19:28Z</time>
      </trkpt>
      <trkpt lat="43.05" lon="0.72437">
        <ele>408.8</ele>
        <time>2022-09-04T12:25:35Z</time>
      </trkpt>
      <trkpt lat="43.05002" lon="0.72446">
        <ele>408.6</ele>
        <time>2022-09-04T12:25:37Z</time>
      </trkpt>
      <trkpt lat="43.05007" lon="0.7247">
        <ele>407.2</ele>
        <time>2022-09-04T12:25:42Z</time>
      </trkpt>
      <trkpt lat="43.05007" lon="0.72474">
        <ele>406.8</ele>
        <time>2022-09-04T12:25:43Z</time>
      </trkpt>
      <trkpt lat="43.05003" lon="0.72481">
        <ele>405.8</ele>
        <time>2022-09-04T12:25:45Z</time>
      </trkpt>
      <trkpt lat="43.04999" lon="0.72482">
        <ele>405.6</ele>
        <time>2022-09-04T12:25:46Z</time>
      </trkpt>
      <trkpt lat="43.04995" lon="0.72482">
        <ele>404.6</ele>
        <time>2022-09-04T12:25:47Z</time>
      </trkpt>
      <trkpt lat="43.04984" lon="0.72477">
        <ele>403.8</ele>
        <time>2022-09-04T12:25:49Z</time>
      </trkpt>
      <trkpt lat="43.04977" lon="0.72475">
        <ele>403.4</ele>
        <time>2022-09-04T12:25:50Z</time>
      </trkpt>
      <trkpt lat="43.04954" lon="0.72471">
        <ele>402</ele>
        <time>2022-09-04T12:25:53Z</time>
      </trkpt>
      <trkpt lat="43.04931" lon="0.72482">
        <ele>400.8</ele>
        <time>2022-09-04T12:25:56Z</time>
      </trkpt>
      <trkpt lat="43.04909" lon="0.72489">
        <ele>400.6</ele>
        <time>2022-09-04T12:25:59Z</time>
      </trkpt>
      <trkpt lat="43.04896" lon="0.72486">
        <ele>400.4</ele>
        <time>2022-09-04T12:26:01Z</time>
      </trkpt>
      <trkpt lat="43.0488" lon="0.72477">
        <ele>401.2</ele>
        <time>2022-09-04T12:26:05Z</time>
      </trkpt>
      <trkpt lat="43.04871" lon="0.72471">
        <ele>402</ele>
        <time>2022-09-04T12:26:10Z</time>
      </trkpt>
      <trkpt lat="43.04865" lon="0.72463">
        <ele>403.2</ele>
        <time>2022-09-04T12:26:15Z</time>
      </trkpt>
      <trkpt lat="43.04861" lon="0.72459">
        <ele>403.8</ele>
        <time>2022-09-04T12:26:18Z</time>
      </trkpt>
      <trkpt lat="43.04857" lon="0.72454">
        <ele>404.4</ele>
        <time>2022-09-04T12:26:21Z</time>
      </trkpt>
      <trkpt lat="43.04852" lon="0.72448">
        <ele>405.2</ele>
        <time>2022-09-04T12:26:25Z</time>
      </trkpt>
      <trkpt lat="43.04849" lon="0.72445">
        <ele>405.4</ele>
        <time>2022-09-04T12:26:27Z</time>
      </trkpt>
      <trkpt lat="43.04843" lon="0.72439">
        <ele>406.2</ele>
        <time>2022-09-04T12:26:32Z</time>
      </trkpt>
      <trkpt lat="43.0484" lon="0.72434">
        <ele>406.8</ele>
        <time>2022-09-04T12:26:35Z</time>
      </trkpt>
      <trkpt lat="43.04836" lon="0.72428">
        <ele>407.4</ele>
        <time>2022-09-04T12:26:39Z</time>
      </trkpt>
      <trkpt lat="43.0483" lon="0.72422">
        <ele>408</ele>
        <time>2022-09-04T12:26:44Z</time>
      </trkpt>
      <trkpt lat="43.04828" lon="0.7242">
        <ele>408.2</ele>
        <time>2022-09-04T12:26:46Z</time>
      </trkpt>
      <trkpt lat="43.0482" lon="0.72412">
        <ele>409</ele>
        <time>2022-09-04T12:26:53Z</time>
      </trkpt>
      <trkpt lat="43.04818" lon="0.72411">
        <ele>409</ele>
        <time>2022-09-04T12:26:54Z</time>
      </trkpt>
      <trkpt lat="43.04816" lon="0.72408">
        <ele>409.4</ele>
        <time>2022-09-04T12:26:57Z</time>
      </trkpt>
      <trkpt lat="43.04812" lon="0.72405">
        <ele>410</ele>
        <time>2022-09-04T12:27:00Z</time>
      </trkpt>
      <trkpt lat="43.04811" lon="0.72404">
        <ele>410</ele>
        <time>2022-09-04T12:27:01Z</time>
      </trkpt>
      <trkpt lat="43.04806" lon="0.724">
        <ele>410.4</ele>
        <time>2022-09-04T12:27:05Z</time>
      </trkpt>
      <trkpt lat="43.04804" lon="0.724">
        <ele>410.4</ele>
        <time>2022-09-04T12:27:06Z</time>
      </trkpt>
      <trkpt lat="43.04799" lon="0.72397">
        <ele>411.2</ele>
        <time>2022-09-04T12:27:10Z</time>
      </trkpt>
      <trkpt lat="43.04795" lon="0.72393">
        <ele>411.6</ele>
        <time>2022-09-04T12:27:13Z</time>
      </trkpt>
      <trkpt lat="43.04787" lon="0.72393">
        <ele>412.2</ele>
        <time>2022-09-04T12:27:18Z</time>
      </trkpt>
      <trkpt lat="43.04784" lon="0.72391">
        <ele>412.4</ele>
        <time>2022-09-04T12:27:20Z</time>
      </trkpt>
      <trkpt lat="43.04784" lon="0.72389">
        <ele>412.4</ele>
        <time>2022-09-04T12:27:21Z</time>
      </trkpt>
      <trkpt lat="43.0478" lon="0.72386">
        <ele>413.2</ele>
        <time>2022-09-04T12:27:25Z</time>
      </trkpt>
      <trkpt lat="43.04774" lon="0.72385">
        <ele>414</ele>
        <time>2022-09-04T12:27:30Z</time>
      </trkpt>
      <trkpt lat="43.04771" lon="0.72385">
        <ele>414.2</ele>
        <time>2022-09-04T12:27:32Z</time>
      </trkpt>
      <trkpt lat="43.04766" lon="0.72383">
        <ele>414.6</ele>
        <time>2022-09-04T12:27:35Z</time>
      </trkpt>
      <trkpt lat="43.04765" lon="0.72383">
        <ele>414.6</ele>
        <time>2022-09-04T12:27:36Z</time>
      </trkpt>
      <trkpt lat="43.04756" lon="0.72384">
        <ele>415.2</ele>
        <time>2022-09-04T12:27:41Z</time>
      </trkpt>
      <trkpt lat="43.04754" lon="0.72383">
        <ele>415.6</ele>
        <time>2022-09-04T12:27:43Z</time>
      </trkpt>
      <trkpt lat="43.04747" lon="0.72384">
        <ele>416.2</ele>
        <time>2022-09-04T12:27:48Z</time>
      </trkpt>
      <trkpt lat="43.04745" lon="0.72383">
        <ele>416.4</ele>
        <time>2022-09-04T12:27:49Z</time>
      </trkpt>
      <trkpt lat="43.04732" lon="0.72385">
        <ele>417.2</ele>
        <time>2022-09-04T12:27:57Z</time>
      </trkpt>
      <trkpt lat="43.04731" lon="0.72385">
        <ele>417.2</ele>
        <time>2022-09-04T12:27:58Z</time>
      </trkpt>
      <trkpt lat="43.0472" lon="0.72383">
        <ele>417.8</ele>
        <time>2022-09-04T12:28:06Z</time>
      </trkpt>
      <trkpt lat="43.04714" lon="0.72384">
        <ele>418.4</ele>
        <time>2022-09-04T12:30:16Z</time>
      </trkpt>
      <trkpt lat="43.04712" lon="0.72383">
        <ele>418.4</ele>
        <time>2022-09-04T12:30:17Z</time>
      </trkpt>
      <trkpt lat="43.04695" lon="0.72378">
        <ele>419</ele>
        <time>2022-09-04T12:30:24Z</time>
      </trkpt>
      <trkpt lat="43.04688" lon="0.72375">
        <ele>419.4</ele>
        <time>2022-09-04T12:30:27Z</time>
      </trkpt>
      <trkpt lat="43.04675" lon="0.72369">
        <ele>420</ele>
        <time>2022-09-04T12:30:33Z</time>
      </trkpt>
      <trkpt lat="43.04668" lon="0.72365">
        <ele>420.6</ele>
        <time>2022-09-04T12:30:36Z</time>
      </trkpt>
      <trkpt lat="43.04655" lon="0.72356">
        <ele>421.2</ele>
        <time>2022-09-04T12:30:42Z</time>
      </trkpt>
      <trkpt lat="43.04649" lon="0.72351">
        <ele>421.6</ele>
        <time>2022-09-04T12:30:45Z</time>
      </trkpt>
      <trkpt lat="43.04636" lon="0.72339">
        <ele>422.6</ele>
        <time>2022-09-04T12:30:52Z</time>
      </trkpt>
      <trkpt lat="43.04629" lon="0.72331">
        <ele>422.8</ele>
        <time>2022-09-04T12:30:56Z</time>
      </trkpt>
      <trkpt lat="43.0462" lon="0.72321">
        <ele>423.4</ele>
        <time>2022-09-04T12:31:01Z</time>
      </trkpt>
      <trkpt lat="43.04607" lon="0.72307">
        <ele>423.8</ele>
        <time>2022-09-04T12:31:08Z</time>
      </trkpt>
      <trkpt lat="43.04603" lon="0.72302">
        <ele>424</ele>
        <time>2022-09-04T12:31:10Z</time>
      </trkpt>
      <trkpt lat="43.04589" lon="0.72287">
        <ele>424.8</ele>
        <time>2022-09-04T12:31:18Z</time>
      </trkpt>
      <trkpt lat="43.04587" lon="0.72285">
        <ele>425</ele>
        <time>2022-09-04T12:31:19Z</time>
      </trkpt>
      <trkpt lat="43.04577" lon="0.72273">
        <ele>425.8</ele>
        <time>2022-09-04T12:31:25Z</time>
      </trkpt>
      <trkpt lat="43.04573" lon="0.7227">
        <ele>426.2</ele>
        <time>2022-09-04T12:31:27Z</time>
      </trkpt>
      <trkpt lat="43.04558" lon="0.72254">
        <ele>426.8</ele>
        <time>2022-09-04T12:31:35Z</time>
      </trkpt>
      <trkpt lat="43.04554" lon="0.7225">
        <ele>427</ele>
        <time>2022-09-04T12:31:37Z</time>
      </trkpt>
      <trkpt lat="43.0454" lon="0.72235">
        <ele>427.6</ele>
        <time>2022-09-04T12:31:44Z</time>
      </trkpt>
      <trkpt lat="43.0452" lon="0.72216">
        <ele>427.8</ele>
        <time>2022-09-04T12:31:52Z</time>
      </trkpt>
      <trkpt lat="43.04498" lon="0.72189">
        <ele>427.4</ele>
        <time>2022-09-04T12:32:01Z</time>
      </trkpt>
      <trkpt lat="43.04471" lon="0.72151">
        <ele>426.8</ele>
        <time>2022-09-04T12:32:10Z</time>
      </trkpt>
      <trkpt lat="43.04447" lon="0.72111">
        <ele>427.2</ele>
        <time>2022-09-04T12:32:19Z</time>
      </trkpt>
      <trkpt lat="43.04424" lon="0.72084">
        <ele>427.4</ele>
        <time>2022-09-04T12:32:26Z</time>
      </trkpt>
      <trkpt lat="43.044" lon="0.72062">
        <ele>427.8</ele>
        <time>2022-09-04T12:32:33Z</time>
      </trkpt>
      <trkpt lat="43.0439" lon="0.72053">
        <ele>428.4</ele>
        <time>2022-09-04T12:32:36Z</time>
      </trkpt>
      <trkpt lat="43.04381" lon="0.72045">
        <ele>429</ele>
        <time>2022-09-04T12:32:39Z</time>
      </trkpt>
      <trkpt lat="43.04369" lon="0.72034">
        <ele>429.6</ele>
        <time>2022-09-04T12:32:43Z</time>
      </trkpt>
      <trkpt lat="43.04353" lon="0.7202">
        <ele>430.2</ele>
        <time>2022-09-04T12:32:48Z</time>
      </trkpt>
      <trkpt lat="43.04342" lon="0.72009">
        <ele>430.6</ele>
        <time>2022-09-04T12:32:52Z</time>
      </trkpt>
      <trkpt lat="43.04323" lon="0.71991">
        <ele>431.2</ele>
        <time>2022-09-04T12:32:59Z</time>
      </trkpt>
      <trkpt lat="43.04315" lon="0.71984">
        <ele>431.4</ele>
        <time>2022-09-04T12:33:02Z</time>
      </trkpt>
      <trkpt lat="43.04293" lon="0.71966">
        <ele>432.2</ele>
        <time>2022-09-04T12:33:11Z</time>
      </trkpt>
      <trkpt lat="43.0429" lon="0.71964">
        <ele>432.2</ele>
        <time>2022-09-04T12:33:12Z</time>
      </trkpt>
      <trkpt lat="43.04277" lon="0.71953">
        <ele>433</ele>
        <time>2022-09-04T12:33:18Z</time>
      </trkpt>
      <trkpt lat="43.04262" lon="0.71939">
        <ele>432.6</ele>
        <time>2022-09-04T12:33:24Z</time>
      </trkpt>
      <trkpt lat="43.0424" lon="0.71912">
        <ele>432.2</ele>
        <time>2022-09-04T12:33:31Z</time>
      </trkpt>
      <trkpt lat="43.0421" lon="0.71876">
        <ele>432.2</ele>
        <time>2022-09-04T12:33:40Z</time>
      </trkpt>
      <trkpt lat="43.0417" lon="0.71838">
        <ele>432.2</ele>
        <time>2022-09-04T12:33:51Z</time>
      </trkpt>
      <trkpt lat="43.04132" lon="0.71814">
        <ele>432.2</ele>
        <time>2022-09-04T12:34:01Z</time>
      </trkpt>
      <trkpt lat="43.04106" lon="0.71801">
        <ele>432.6</ele>
        <time>2022-09-04T12:34:08Z</time>
      </trkpt>
      <trkpt lat="43.04073" lon="0.71785">
        <ele>431.8</ele>
        <time>2022-09-04T12:34:15Z</time>
      </trkpt>
      <trkpt lat="43.04053" lon="0.71776">
        <ele>431.2</ele>
        <time>2022-09-04T12:34:19Z</time>
      </trkpt>
      <trkpt lat="43.04027" lon="0.71759">
        <ele>430.6</ele>
        <time>2022-09-04T12:34:24Z</time>
      </trkpt>
      <trkpt lat="43.04012" lon="0.71748">
        <ele>430.2</ele>
        <time>2022-09-04T12:34:27Z</time>
      </trkpt>
      <trkpt lat="43.03983" lon="0.71723">
        <ele>429.4</ele>
        <time>2022-09-04T12:34:33Z</time>
      </trkpt>
      <trkpt lat="43.0395" lon="0.71696">
        <ele>429.4</ele>
        <time>2022-09-04T12:34:40Z</time>
      </trkpt>
      <trkpt lat="43.03933" lon="0.71677">
        <ele>429</ele>
        <time>2022-09-04T12:34:44Z</time>
      </trkpt>
      <trkpt lat="43.03911" lon="0.71653">
        <ele>428.8</ele>
        <time>2022-09-04T12:34:49Z</time>
      </trkpt>
      <trkpt lat="43.03872" lon="0.71608">
        <ele>428.2</ele>
        <time>2022-09-04T12:34:59Z</time>
      </trkpt>
      <trkpt lat="43.0386" lon="0.7159">
        <ele>427.8</ele>
        <time>2022-09-04T12:35:03Z</time>
      </trkpt>
      <trkpt lat="43.03848" lon="0.71572">
        <ele>427.6</ele>
        <time>2022-09-04T12:35:07Z</time>
      </trkpt>
      <trkpt lat="43.03832" lon="0.71536">
        <ele>426.8</ele>
        <time>2022-09-04T12:35:14Z</time>
      </trkpt>
      <trkpt lat="43.0383" lon="0.7153">
        <ele>426.8</ele>
        <time>2022-09-04T12:35:15Z</time>
      </trkpt>
      <trkpt lat="43.0382" lon="0.71514">
        <ele>426.8</ele>
        <time>2022-09-04T12:35:18Z</time>
      </trkpt>
      <trkpt lat="43.03815" lon="0.71507">
        <ele>426.4</ele>
        <time>2022-09-04T12:35:20Z</time>
      </trkpt>
      <trkpt lat="43.03813" lon="0.71503">
        <ele>425.8</ele>
        <time>2022-09-04T12:35:22Z</time>
      </trkpt>
      <trkpt lat="43.03812" lon="0.715">
        <ele>425.4</ele>
        <time>2022-09-04T12:35:24Z</time>
      </trkpt>
      <trkpt lat="43.03811" lon="0.71495">
        <ele>425.4</ele>
        <time>2022-09-04T12:35:56Z</time>
      </trkpt>
      <trkpt lat="43.03812" lon="0.71492">
        <ele>425.2</ele>
        <time>2022-09-04T12:35:57Z</time>
      </trkpt>
      <trkpt lat="43.03818" lon="0.71489">
        <ele>425.6</ele>
        <time>2022-09-04T12:36:00Z</time>
      </trkpt>
      <trkpt lat="43.03821" lon="0.71487">
        <ele>425.8</ele>
        <time>2022-09-04T12:36:01Z</time>
      </trkpt>
      <trkpt lat="43.03832" lon="0.71481">
        <ele>426.8</ele>
        <time>2022-09-04T12:36:06Z</time>
      </trkpt>
      <trkpt lat="43.03833" lon="0.7148">
        <ele>426.8</ele>
        <time>2022-09-04T12:36:07Z</time>
      </trkpt>
      <trkpt lat="43.03836" lon="0.71481">
        <ele>427</ele>
        <time>2022-09-04T12:36:09Z</time>
      </trkpt>
      <trkpt lat="43.03837" lon="0.7148">
        <ele>427.2</ele>
        <time>2022-09-04T12:36:11Z</time>
      </trkpt>
      <trkpt lat="43.03832" lon="0.71483">
        <ele>427.6</ele>
        <time>2022-09-04T12:36:19Z</time>
      </trkpt>
      <trkpt lat="43.03818" lon="0.71491">
        <ele>426.8</ele>
        <time>2022-09-04T12:36:24Z</time>
      </trkpt>
      <trkpt lat="43.0381" lon="0.71496">
        <ele>425.6</ele>
        <time>2022-09-04T12:36:28Z</time>
      </trkpt>
      <trkpt lat="43.03808" lon="0.71497">
        <ele>425.4</ele>
        <time>2022-09-04T12:36:29Z</time>
      </trkpt>
      <trkpt lat="43.03805" lon="0.71495">
        <ele>425</ele>
        <time>2022-09-04T12:36:30Z</time>
      </trkpt>
      <trkpt lat="43.03798" lon="0.71489">
        <ele>424.6</ele>
        <time>2022-09-04T12:36:32Z</time>
      </trkpt>
      <trkpt lat="43.03796" lon="0.71484">
        <ele>424.6</ele>
        <time>2022-09-04T12:36:33Z</time>
      </trkpt>
      <trkpt lat="43.03784" lon="0.71467">
        <ele>423.4</ele>
        <time>2022-09-04T12:36:36Z</time>
      </trkpt>
      <trkpt lat="43.0378" lon="0.7146">
        <ele>423</ele>
        <time>2022-09-04T12:36:37Z</time>
      </trkpt>
      <trkpt lat="43.0377" lon="0.71435">
        <ele>421.8</ele>
        <time>2022-09-04T12:36:40Z</time>
      </trkpt>
      <trkpt lat="43.03762" lon="0.71418">
        <ele>420.8</ele>
        <time>2022-09-04T12:36:42Z</time>
      </trkpt>
      <trkpt lat="43.03757" lon="0.71411">
        <ele>420.4</ele>
        <time>2022-09-04T12:36:43Z</time>
      </trkpt>
      <trkpt lat="43.03742" lon="0.71392">
        <ele>419.6</ele>
        <time>2022-09-04T12:36:46Z</time>
      </trkpt>
      <trkpt lat="43.0373" lon="0.71374">
        <ele>418.4</ele>
        <time>2022-09-04T12:36:49Z</time>
      </trkpt>
      <trkpt lat="43.03727" lon="0.71368">
        <ele>418.2</ele>
        <time>2022-09-04T12:36:50Z</time>
      </trkpt>
      <trkpt lat="43.03723" lon="0.71351">
        <ele>417.6</ele>
        <time>2022-09-04T12:36:52Z</time>
      </trkpt>
      <trkpt lat="43.03722" lon="0.71333">
        <ele>417.4</ele>
        <time>2022-09-04T12:36:54Z</time>
      </trkpt>
      <trkpt lat="43.03722" lon="0.71324">
        <ele>417</ele>
        <time>2022-09-04T12:36:55Z</time>
      </trkpt>
      <trkpt lat="43.03723" lon="0.71315">
        <ele>416.6</ele>
        <time>2022-09-04T12:36:56Z</time>
      </trkpt>
      <trkpt lat="43.03724" lon="0.71297">
        <ele>416</ele>
        <time>2022-09-04T12:36:58Z</time>
      </trkpt>
      <trkpt lat="43.03726" lon="0.71249">
        <ele>415.2</ele>
        <time>2022-09-04T12:37:03Z</time>
      </trkpt>
      <trkpt lat="43.03727" lon="0.71239">
        <ele>414.8</ele>
        <time>2022-09-04T12:37:04Z</time>
      </trkpt>
      <trkpt lat="43.03731" lon="0.71171">
        <ele>414.4</ele>
        <time>2022-09-04T12:37:11Z</time>
      </trkpt>
      <trkpt lat="43.03733" lon="0.71143">
        <ele>414.4</ele>
        <time>2022-09-04T12:37:15Z</time>
      </trkpt>
      <trkpt lat="43.03735" lon="0.71136">
        <ele>414.6</ele>
        <time>2022-09-04T12:37:17Z</time>
      </trkpt>
      <trkpt lat="43.03736" lon="0.71134">
        <ele>414.8</ele>
        <time>2022-09-04T12:37:18Z</time>
      </trkpt>
      <trkpt lat="43.03744" lon="0.71134">
        <ele>415.8</ele>
        <time>2022-09-04T12:37:22Z</time>
      </trkpt>
      <trkpt lat="43.03747" lon="0.71135">
        <ele>416</ele>
        <time>2022-09-04T12:37:23Z</time>
      </trkpt>
      <trkpt lat="43.03749" lon="0.71135">
        <ele>416.2</ele>
        <time>2022-09-04T12:37:24Z</time>
      </trkpt>
      <trkpt lat="43.03757" lon="0.71137">
        <ele>417</ele>
        <time>2022-09-04T12:37:28Z</time>
      </trkpt>
      <trkpt lat="43.0377" lon="0.71139">
        <ele>417.8</ele>
        <time>2022-09-04T12:37:34Z</time>
      </trkpt>
      <trkpt lat="43.03774" lon="0.7114">
        <ele>418.2</ele>
        <time>2022-09-04T12:37:36Z</time>
      </trkpt>
      <trkpt lat="43.03786" lon="0.71141">
        <ele>419.2</ele>
        <time>2022-09-04T12:37:42Z</time>
      </trkpt>
      <trkpt lat="43.03788" lon="0.71141">
        <ele>419.6</ele>
        <time>2022-09-04T12:37:43Z</time>
      </trkpt>
      <trkpt lat="43.03796" lon="0.71144">
        <ele>420.6</ele>
        <time>2022-09-04T12:37:47Z</time>
      </trkpt>
      <trkpt lat="43.03804" lon="0.71146">
        <ele>420.8</ele>
        <time>2022-09-04T12:37:51Z</time>
      </trkpt>
      <trkpt lat="43.03815" lon="0.71145">
        <ele>421.6</ele>
        <time>2022-09-04T12:37:57Z</time>
      </trkpt>
      <trkpt lat="43.03821" lon="0.71145">
        <ele>422</ele>
        <time>2022-09-04T12:38:00Z</time>
      </trkpt>
      <trkpt lat="43.03829" lon="0.71144">
        <ele>422.6</ele>
        <time>2022-09-04T12:38:04Z</time>
      </trkpt>
      <trkpt lat="43.03835" lon="0.71142">
        <ele>423</ele>
        <time>2022-09-04T12:38:07Z</time>
      </trkpt>
      <trkpt lat="43.03844" lon="0.7114">
        <ele>423.6</ele>
        <time>2022-09-04T12:38:12Z</time>
      </trkpt>
      <trkpt lat="43.03846" lon="0.71138">
        <ele>423.8</ele>
        <time>2022-09-04T12:38:13Z</time>
      </trkpt>
      <trkpt lat="43.03857" lon="0.71133">
        <ele>424.4</ele>
        <time>2022-09-04T12:38:19Z</time>
      </trkpt>
      <trkpt lat="43.03861" lon="0.7113">
        <ele>424.8</ele>
        <time>2022-09-04T12:38:21Z</time>
      </trkpt>
      <trkpt lat="43.03867" lon="0.71124">
        <ele>425.2</ele>
        <time>2022-09-04T12:38:25Z</time>
      </trkpt>
      <trkpt lat="43.03869" lon="0.71119">
        <ele>425.4</ele>
        <time>2022-09-04T12:38:27Z</time>
      </trkpt>
      <trkpt lat="43.03877" lon="0.711">
        <ele>425.6</ele>
        <time>2022-09-04T12:38:34Z</time>
      </trkpt>
      <trkpt lat="43.03878" lon="0.71094">
        <ele>425.8</ele>
        <time>2022-09-04T12:38:36Z</time>
      </trkpt>
      <trkpt lat="43.03883" lon="0.71068">
        <ele>425.8</ele>
        <time>2022-09-04T12:38:43Z</time>
      </trkpt>
      <trkpt lat="43.0389" lon="0.71038">
        <ele>426</ele>
        <time>2022-09-04T12:38:51Z</time>
      </trkpt>
      <trkpt lat="43.03902" lon="0.71012">
        <ele>426.2</ele>
        <time>2022-09-04T12:38:58Z</time>
      </trkpt>
      <trkpt lat="43.03922" lon="0.70993">
        <ele>426.8</ele>
        <time>2022-09-04T12:39:05Z</time>
      </trkpt>
      <trkpt lat="43.03937" lon="0.70979">
        <ele>426.8</ele>
        <time>2022-09-04T12:39:10Z</time>
      </trkpt>
      <trkpt lat="43.0395" lon="0.70964">
        <ele>427.2</ele>
        <time>2022-09-04T12:39:15Z</time>
      </trkpt>
      <trkpt lat="43.03969" lon="0.70931">
        <ele>427.6</ele>
        <time>2022-09-04T12:39:23Z</time>
      </trkpt>
      <trkpt lat="43.03991" lon="0.7088">
        <ele>427.8</ele>
        <time>2022-09-04T12:39:33Z</time>
      </trkpt>
      <trkpt lat="43.04" lon="0.70854">
        <ele>428</ele>
        <time>2022-09-04T12:39:38Z</time>
      </trkpt>
      <trkpt lat="43.04004" lon="0.70842">
        <ele>428.2</ele>
        <time>2022-09-04T12:39:40Z</time>
      </trkpt>
      <trkpt lat="43.04018" lon="0.70782">
        <ele>428</ele>
        <time>2022-09-04T12:39:50Z</time>
      </trkpt>
      <trkpt lat="43.04031" lon="0.70741">
        <ele>428.4</ele>
        <time>2022-09-04T12:39:57Z</time>
      </trkpt>
      <trkpt lat="43.04033" lon="0.70736">
        <ele>428.6</ele>
        <time>2022-09-04T12:39:58Z</time>
      </trkpt>
      <trkpt lat="43.04043" lon="0.70715">
        <ele>429</ele>
        <time>2022-09-04T12:40:02Z</time>
      </trkpt>
      <trkpt lat="43.04054" lon="0.70694">
        <ele>429.2</ele>
        <time>2022-09-04T12:40:06Z</time>
      </trkpt>
      <trkpt lat="43.04064" lon="0.70671">
        <ele>428.6</ele>
        <time>2022-09-04T12:40:10Z</time>
      </trkpt>
      <trkpt lat="43.04067" lon="0.70657">
        <ele>428.4</ele>
        <time>2022-09-04T12:40:12Z</time>
      </trkpt>
      <trkpt lat="43.04069" lon="0.70651">
        <ele>428.2</ele>
        <time>2022-09-04T12:40:13Z</time>
      </trkpt>
      <trkpt lat="43.0407" lon="0.70636">
        <ele>427.8</ele>
        <time>2022-09-04T12:40:15Z</time>
      </trkpt>
      <trkpt lat="43.04072" lon="0.70622">
        <ele>427.8</ele>
        <time>2022-09-04T12:40:17Z</time>
      </trkpt>
      <trkpt lat="43.04078" lon="0.70569">
        <ele>426.8</ele>
        <time>2022-09-04T12:40:24Z</time>
      </trkpt>
      <trkpt lat="43.04078" lon="0.70561">
        <ele>426.6</ele>
        <time>2022-09-04T12:40:25Z</time>
      </trkpt>
      <trkpt lat="43.04075" lon="0.70522">
        <ele>427.4</ele>
        <time>2022-09-04T12:40:31Z</time>
      </trkpt>
      <trkpt lat="43.04074" lon="0.70511">
        <ele>428</ele>
        <time>2022-09-04T12:40:33Z</time>
      </trkpt>
      <trkpt lat="43.0407" lon="0.70489">
        <ele>428.8</ele>
        <time>2022-09-04T12:40:38Z</time>
      </trkpt>
      <trkpt lat="43.0407" lon="0.70484">
        <ele>429</ele>
        <time>2022-09-04T12:40:39Z</time>
      </trkpt>
      <trkpt lat="43.04068" lon="0.70449">
        <ele>430</ele>
        <time>2022-09-04T12:40:47Z</time>
      </trkpt>
      <trkpt lat="43.04068" lon="0.70444">
        <ele>430.2</ele>
        <time>2022-09-04T12:40:48Z</time>
      </trkpt>
      <trkpt lat="43.04066" lon="0.70407">
        <ele>430.6</ele>
        <time>2022-09-04T12:40:56Z</time>
      </trkpt>
      <trkpt lat="43.04064" lon="0.70364">
        <ele>430.6</ele>
        <time>2022-09-04T12:41:05Z</time>
      </trkpt>
      <trkpt lat="43.04063" lon="0.70334">
        <ele>430.6</ele>
        <time>2022-09-04T12:41:11Z</time>
      </trkpt>
      <trkpt lat="43.04061" lon="0.70294">
        <ele>430.8</ele>
        <time>2022-09-04T12:41:19Z</time>
      </trkpt>
      <trkpt lat="43.04059" lon="0.7027">
        <ele>431.2</ele>
        <time>2022-09-04T12:41:24Z</time>
      </trkpt>
      <trkpt lat="43.04058" lon="0.70255">
        <ele>431.2</ele>
        <time>2022-09-04T12:41:27Z</time>
      </trkpt>
      <trkpt lat="43.04057" lon="0.70216">
        <ele>432</ele>
        <time>2022-09-04T12:41:35Z</time>
      </trkpt>
      <trkpt lat="43.04056" lon="0.70201">
        <ele>432.2</ele>
        <time>2022-09-04T12:41:38Z</time>
      </trkpt>
      <trkpt lat="43.04055" lon="0.70186">
        <ele>432.4</ele>
        <time>2022-09-04T12:41:41Z</time>
      </trkpt>
      <trkpt lat="43.04054" lon="0.70172">
        <ele>432.6</ele>
        <time>2022-09-04T12:41:44Z</time>
      </trkpt>
      <trkpt lat="43.04054" lon="0.70141">
        <ele>432.8</ele>
        <time>2022-09-04T12:41:50Z</time>
      </trkpt>
      <trkpt lat="43.04054" lon="0.70123">
        <ele>432.6</ele>
        <time>2022-09-04T12:41:53Z</time>
      </trkpt>
      <trkpt lat="43.04055" lon="0.70099">
        <ele>432.8</ele>
        <time>2022-09-04T12:41:57Z</time>
      </trkpt>
      <trkpt lat="43.04061" lon="0.70053">
        <ele>433.2</ele>
        <time>2022-09-04T12:42:05Z</time>
      </trkpt>
      <trkpt lat="43.04062" lon="0.70037">
        <ele>433</ele>
        <time>2022-09-04T12:42:08Z</time>
      </trkpt>
      <trkpt lat="43.04064" lon="0.70026">
        <ele>433</ele>
        <time>2022-09-04T12:42:10Z</time>
      </trkpt>
      <trkpt lat="43.04066" lon="0.70014">
        <ele>433</ele>
        <time>2022-09-04T12:42:12Z</time>
      </trkpt>
      <trkpt lat="43.04067" lon="0.70008">
        <ele>433.2</ele>
        <time>2022-09-04T12:42:13Z</time>
      </trkpt>
      <trkpt lat="43.04071" lon="0.69991">
        <ele>433.2</ele>
        <time>2022-09-04T12:42:16Z</time>
      </trkpt>
      <trkpt lat="43.04072" lon="0.69985">
        <ele>433.4</ele>
        <time>2022-09-04T12:42:17Z</time>
      </trkpt>
      <trkpt lat="43.0408" lon="0.6996">
        <ele>433.4</ele>
        <time>2022-09-04T12:42:21Z</time>
      </trkpt>
      <trkpt lat="43.04087" lon="0.69943">
        <ele>433.6</ele>
        <time>2022-09-04T12:42:24Z</time>
      </trkpt>
      <trkpt lat="43.04094" lon="0.69927">
        <ele>433.6</ele>
        <time>2022-09-04T12:42:27Z</time>
      </trkpt>
      <trkpt lat="43.04116" lon="0.69889">
        <ele>433.8</ele>
        <time>2022-09-04T12:42:35Z</time>
      </trkpt>
      <trkpt lat="43.0413" lon="0.69871">
        <ele>434.4</ele>
        <time>2022-09-04T12:42:40Z</time>
      </trkpt>
      <trkpt lat="43.04133" lon="0.69868">
        <ele>434.4</ele>
        <time>2022-09-04T12:42:41Z</time>
      </trkpt>
      <trkpt lat="43.04149" lon="0.69849">
        <ele>434.8</ele>
        <time>2022-09-04T12:42:47Z</time>
      </trkpt>
      <trkpt lat="43.0416" lon="0.69836">
        <ele>434.8</ele>
        <time>2022-09-04T12:42:52Z</time>
      </trkpt>
      <trkpt lat="43.04178" lon="0.69809">
        <ele>434.8</ele>
        <time>2022-09-04T12:42:59Z</time>
      </trkpt>
      <trkpt lat="43.04206" lon="0.69772">
        <ele>434.6</ele>
        <time>2022-09-04T12:43:09Z</time>
      </trkpt>
      <trkpt lat="43.04229" lon="0.69746">
        <ele>434.6</ele>
        <time>2022-09-04T12:43:16Z</time>
      </trkpt>
      <trkpt lat="43.04233" lon="0.69743">
        <ele>434.4</ele>
        <time>2022-09-04T12:43:17Z</time>
      </trkpt>
      <trkpt lat="43.04253" lon="0.69726">
        <ele>434.2</ele>
        <time>2022-09-04T12:43:22Z</time>
      </trkpt>
      <trkpt lat="43.04286" lon="0.69692">
        <ele>433.8</ele>
        <time>2022-09-04T12:43:30Z</time>
      </trkpt>
      <trkpt lat="43.04289" lon="0.69686">
        <ele>433.8</ele>
        <time>2022-09-04T12:43:31Z</time>
      </trkpt>
      <trkpt lat="43.04303" lon="0.69657">
        <ele>434.2</ele>
        <time>2022-09-04T12:43:36Z</time>
      </trkpt>
      <trkpt lat="43.04328" lon="0.69603">
        <ele>434.4</ele>
        <time>2022-09-04T12:43:45Z</time>
      </trkpt>
      <trkpt lat="43.04357" lon="0.69543">
        <ele>434.4</ele>
        <time>2022-09-04T12:43:55Z</time>
      </trkpt>
      <trkpt lat="43.04371" lon="0.69516">
        <ele>434.2</ele>
        <time>2022-09-04T12:44:00Z</time>
      </trkpt>
      <trkpt lat="43.04378" lon="0.69506">
        <ele>434.2</ele>
        <time>2022-09-04T12:44:02Z</time>
      </trkpt>
      <trkpt lat="43.04409" lon="0.6948">
        <ele>434.2</ele>
        <time>2022-09-04T12:44:09Z</time>
      </trkpt>
      <trkpt lat="43.04444" lon="0.69465">
        <ele>434.4</ele>
        <time>2022-09-04T12:44:16Z</time>
      </trkpt>
      <trkpt lat="43.04482" lon="0.6944">
        <ele>434</ele>
        <time>2022-09-04T12:44:24Z</time>
      </trkpt>
      <trkpt lat="43.04522" lon="0.69409">
        <ele>434</ele>
        <time>2022-09-04T12:44:33Z</time>
      </trkpt>
      <trkpt lat="43.04526" lon="0.69405">
        <ele>434</ele>
        <time>2022-09-04T12:44:34Z</time>
      </trkpt>
      <trkpt lat="43.04547" lon="0.69385">
        <ele>433.8</ele>
        <time>2022-09-04T12:44:39Z</time>
      </trkpt>
      <trkpt lat="43.04587" lon="0.6935">
        <ele>434</ele>
        <time>2022-09-04T12:44:48Z</time>
      </trkpt>
      <trkpt lat="43.04625" lon="0.69316">
        <ele>434.2</ele>
        <time>2022-09-04T12:44:57Z</time>
      </trkpt>
      <trkpt lat="43.04652" lon="0.69286">
        <ele>434.6</ele>
        <time>2022-09-04T12:45:04Z</time>
      </trkpt>
      <trkpt lat="43.04662" lon="0.69256">
        <ele>434.6</ele>
        <time>2022-09-04T12:45:09Z</time>
      </trkpt>
      <trkpt lat="43.04667" lon="0.69238">
        <ele>434.2</ele>
        <time>2022-09-04T12:45:13Z</time>
      </trkpt>
      <trkpt lat="43.04669" lon="0.6923">
        <ele>434</ele>
        <time>2022-09-04T12:45:58Z</time>
      </trkpt>
      <trkpt lat="43.04674" lon="0.6921">
        <ele>434</ele>
        <time>2022-09-04T12:46:03Z</time>
      </trkpt>
      <trkpt lat="43.04677" lon="0.69199">
        <ele>434</ele>
        <time>2022-09-04T12:46:05Z</time>
      </trkpt>
      <trkpt lat="43.04683" lon="0.69178">
        <ele>434.2</ele>
        <time>2022-09-04T12:46:09Z</time>
      </trkpt>
      <trkpt lat="43.04694" lon="0.69139">
        <ele>434.2</ele>
        <time>2022-09-04T12:46:16Z</time>
      </trkpt>
      <trkpt lat="43.04702" lon="0.69105">
        <ele>433.8</ele>
        <time>2022-09-04T12:46:21Z</time>
      </trkpt>
      <trkpt lat="43.04709" lon="0.69078">
        <ele>434.2</ele>
        <time>2022-09-04T12:46:25Z</time>
      </trkpt>
      <trkpt lat="43.0472" lon="0.69053">
        <ele>434</ele>
        <time>2022-09-04T12:46:29Z</time>
      </trkpt>
      <trkpt lat="43.04726" lon="0.69042">
        <ele>434</ele>
        <time>2022-09-04T12:46:31Z</time>
      </trkpt>
      <trkpt lat="43.04734" lon="0.69032">
        <ele>433.8</ele>
        <time>2022-09-04T12:46:33Z</time>
      </trkpt>
      <trkpt lat="43.04751" lon="0.69016">
        <ele>434</ele>
        <time>2022-09-04T12:46:37Z</time>
      </trkpt>
      <trkpt lat="43.04782" lon="0.68982">
        <ele>434.6</ele>
        <time>2022-09-04T12:46:45Z</time>
      </trkpt>
      <trkpt lat="43.04796" lon="0.68965">
        <ele>435.4</ele>
        <time>2022-09-04T12:46:49Z</time>
      </trkpt>
      <trkpt lat="43.04811" lon="0.68944">
        <ele>435.8</ele>
        <time>2022-09-04T12:46:54Z</time>
      </trkpt>
      <trkpt lat="43.04835" lon="0.68909">
        <ele>436</ele>
        <time>2022-09-04T12:47:02Z</time>
      </trkpt>
      <trkpt lat="43.04843" lon="0.68895">
        <ele>436.4</ele>
        <time>2022-09-04T12:47:05Z</time>
      </trkpt>
      <trkpt lat="43.04868" lon="0.68859">
        <ele>436.6</ele>
        <time>2022-09-04T12:47:13Z</time>
      </trkpt>
      <trkpt lat="43.04886" lon="0.68834">
        <ele>437.2</ele>
        <time>2022-09-04T12:47:19Z</time>
      </trkpt>
      <trkpt lat="43.0489" lon="0.68831">
        <ele>437.4</ele>
        <time>2022-09-04T12:47:20Z</time>
      </trkpt>
      <trkpt lat="43.04893" lon="0.68827">
        <ele>437.6</ele>
        <time>2022-09-04T12:47:21Z</time>
      </trkpt>
      <trkpt lat="43.04914" lon="0.68809">
        <ele>438.4</ele>
        <time>2022-09-04T12:47:27Z</time>
      </trkpt>
      <trkpt lat="43.04918" lon="0.68805">
        <ele>438.6</ele>
        <time>2022-09-04T12:47:28Z</time>
      </trkpt>
      <trkpt lat="43.0493" lon="0.68789">
        <ele>438.6</ele>
        <time>2022-09-04T12:47:32Z</time>
      </trkpt>
      <trkpt lat="43.04939" lon="0.68778">
        <ele>438.8</ele>
        <time>2022-09-04T12:47:35Z</time>
      </trkpt>
      <trkpt lat="43.04968" lon="0.68737">
        <ele>439.4</ele>
        <time>2022-09-04T12:47:45Z</time>
      </trkpt>
      <trkpt lat="43.04978" lon="0.68717">
        <ele>439.6</ele>
        <time>2022-09-04T12:47:49Z</time>
      </trkpt>
      <trkpt lat="43.04987" lon="0.68696">
        <ele>439.6</ele>
        <time>2022-09-04T12:47:53Z</time>
      </trkpt>
      <trkpt lat="43.05006" lon="0.68657">
        <ele>440.6</ele>
        <time>2022-09-04T12:48:01Z</time>
      </trkpt>
      <trkpt lat="43.05029" lon="0.68618">
        <ele>441.2</ele>
        <time>2022-09-04T12:48:10Z</time>
      </trkpt>
      <trkpt lat="43.0504" lon="0.68602">
        <ele>441.6</ele>
        <time>2022-09-04T12:48:14Z</time>
      </trkpt>
      <trkpt lat="43.05055" lon="0.68584">
        <ele>442</ele>
        <time>2022-09-04T12:48:19Z</time>
      </trkpt>
      <trkpt lat="43.05064" lon="0.68575">
        <ele>442.6</ele>
        <time>2022-09-04T12:48:22Z</time>
      </trkpt>
      <trkpt lat="43.05079" lon="0.68558">
        <ele>443</ele>
        <time>2022-09-04T12:48:27Z</time>
      </trkpt>
      <trkpt lat="43.05099" lon="0.68536">
        <ele>443.6</ele>
        <time>2022-09-04T12:48:34Z</time>
      </trkpt>
      <trkpt lat="43.05104" lon="0.68531">
        <ele>443.8</ele>
        <time>2022-09-04T12:48:36Z</time>
      </trkpt>
      <trkpt lat="43.05116" lon="0.68518">
        <ele>444.8</ele>
        <time>2022-09-04T12:48:41Z</time>
      </trkpt>
      <trkpt lat="43.05121" lon="0.68513">
        <ele>445</ele>
        <time>2022-09-04T12:48:43Z</time>
      </trkpt>
      <trkpt lat="43.05134" lon="0.68499">
        <ele>445.8</ele>
        <time>2022-09-04T12:48:49Z</time>
      </trkpt>
      <trkpt lat="43.05136" lon="0.68497">
        <ele>446</ele>
        <time>2022-09-04T12:48:50Z</time>
      </trkpt>
      <trkpt lat="43.0515" lon="0.68483">
        <ele>446.8</ele>
        <time>2022-09-04T12:48:57Z</time>
      </trkpt>
      <trkpt lat="43.05154" lon="0.68478">
        <ele>447</ele>
        <time>2022-09-04T12:48:59Z</time>
      </trkpt>
      <trkpt lat="43.05163" lon="0.68469">
        <ele>447.8</ele>
        <time>2022-09-04T12:49:04Z</time>
      </trkpt>
      <trkpt lat="43.05167" lon="0.68465">
        <ele>448</ele>
        <time>2022-09-04T12:49:06Z</time>
      </trkpt>
      <trkpt lat="43.05174" lon="0.68457">
        <ele>448.6</ele>
        <time>2022-09-04T12:49:10Z</time>
      </trkpt>
      <trkpt lat="43.05179" lon="0.68451">
        <ele>449</ele>
        <time>2022-09-04T12:49:13Z</time>
      </trkpt>
      <trkpt lat="43.05191" lon="0.6844">
        <ele>449.6</ele>
        <time>2022-09-04T12:49:19Z</time>
      </trkpt>
      <trkpt lat="43.05197" lon="0.68432">
        <ele>450</ele>
        <time>2022-09-04T12:49:23Z</time>
      </trkpt>
      <trkpt lat="43.05199" lon="0.68431">
        <ele>450.2</ele>
        <time>2022-09-04T12:49:24Z</time>
      </trkpt>
      <trkpt lat="43.05206" lon="0.68422">
        <ele>450.8</ele>
        <time>2022-09-04T12:49:29Z</time>
      </trkpt>
      <trkpt lat="43.05209" lon="0.68416">
        <ele>451.2</ele>
        <time>2022-09-04T12:49:32Z</time>
      </trkpt>
      <trkpt lat="43.05214" lon="0.6841">
        <ele>451.6</ele>
        <time>2022-09-04T12:49:35Z</time>
      </trkpt>
      <trkpt lat="43.05226" lon="0.68399">
        <ele>452</ele>
        <time>2022-09-04T12:49:43Z</time>
      </trkpt>
      <trkpt lat="43.05227" lon="0.68395">
        <ele>452.4</ele>
        <time>2022-09-04T12:49:45Z</time>
      </trkpt>
      <trkpt lat="43.0523" lon="0.68402">
        <ele>452.8</ele>
        <time>2022-09-04T12:50:47Z</time>
      </trkpt>
      <trkpt lat="43.05232" lon="0.68408">
        <ele>452.6</ele>
        <time>2022-09-04T12:50:49Z</time>
      </trkpt>
      <trkpt lat="43.05242" lon="0.68423">
        <ele>453.2</ele>
        <time>2022-09-04T12:50:55Z</time>
      </trkpt>
      <trkpt lat="43.05247" lon="0.6843">
        <ele>453.6</ele>
        <time>2022-09-04T12:50:58Z</time>
      </trkpt>
      <trkpt lat="43.05259" lon="0.68441">
        <ele>454.6</ele>
        <time>2022-09-04T12:51:05Z</time>
      </trkpt>
      <trkpt lat="43.05268" lon="0.68443">
        <ele>455.2</ele>
        <time>2022-09-04T12:51:10Z</time>
      </trkpt>
      <trkpt lat="43.05271" lon="0.68441">
        <ele>455.6</ele>
        <time>2022-09-04T12:51:12Z</time>
      </trkpt>
      <trkpt lat="43.05272" lon="0.68439">
        <ele>455.8</ele>
        <time>2022-09-04T12:51:13Z</time>
      </trkpt>
      <trkpt lat="43.05275" lon="0.68437">
        <ele>456</ele>
        <time>2022-09-04T12:51:15Z</time>
      </trkpt>
      <trkpt lat="43.05283" lon="0.6843">
        <ele>456.8</ele>
        <time>2022-09-04T12:51:21Z</time>
      </trkpt>
      <trkpt lat="43.05284" lon="0.68428">
        <ele>456.8</ele>
        <time>2022-09-04T12:51:22Z</time>
      </trkpt>
      <trkpt lat="43.05293" lon="0.68425">
        <ele>457.4</ele>
        <time>2022-09-04T12:51:28Z</time>
      </trkpt>
      <trkpt lat="43.05298" lon="0.68422">
        <ele>458</ele>
        <time>2022-09-04T12:51:31Z</time>
      </trkpt>
      <trkpt lat="43.05301" lon="0.68419">
        <ele>458.2</ele>
        <time>2022-09-04T12:51:34Z</time>
      </trkpt>
      <trkpt lat="43.053" lon="0.68418">
        <ele>458.2</ele>
        <time>2022-09-04T12:51:35Z</time>
      </trkpt>
      <trkpt lat="43.05299" lon="0.6842">
        <ele>458.2</ele>
        <time>2022-09-04T12:53:11Z</time>
      </trkpt>
      <trkpt lat="43.05305" lon="0.68421">
        <ele>458.6</ele>
        <time>2022-09-04T12:53:15Z</time>
      </trkpt>
      <trkpt lat="43.05309" lon="0.68413">
        <ele>458.8</ele>
        <time>2022-09-04T12:53:19Z</time>
      </trkpt>
      <trkpt lat="43.05311" lon="0.68409">
        <ele>459</ele>
        <time>2022-09-04T12:53:21Z</time>
      </trkpt>
      <trkpt lat="43.05312" lon="0.68407">
        <ele>459.2</ele>
        <time>2022-09-04T12:53:22Z</time>
      </trkpt>
      <trkpt lat="43.05313" lon="0.68391">
        <ele>459.6</ele>
        <time>2022-09-04T12:53:29Z</time>
      </trkpt>
      <trkpt lat="43.0531" lon="0.68375">
        <ele>459.8</ele>
        <time>2022-09-04T12:53:37Z</time>
      </trkpt>
      <trkpt lat="43.05314" lon="0.68376">
        <ele>460.4</ele>
        <time>2022-09-04T12:57:47Z</time>
      </trkpt>
      <trkpt lat="43.05315" lon="0.68389">
        <ele>460.4</ele>
        <time>2022-09-04T12:57:52Z</time>
      </trkpt>
      <trkpt lat="43.05312" lon="0.68415">
        <ele>460.2</ele>
        <time>2022-09-04T12:57:59Z</time>
      </trkpt>
      <trkpt lat="43.05308" lon="0.68419">
        <ele>460</ele>
        <time>2022-09-04T12:58:00Z</time>
      </trkpt>
      <trkpt lat="43.05299" lon="0.68425">
        <ele>459.6</ele>
        <time>2022-09-04T12:58:02Z</time>
      </trkpt>
      <trkpt lat="43.05293" lon="0.68427">
        <ele>459.2</ele>
        <time>2022-09-04T12:58:03Z</time>
      </trkpt>
      <trkpt lat="43.0527" lon="0.6844">
        <ele>458.4</ele>
        <time>2022-09-04T12:58:08Z</time>
      </trkpt>
      <trkpt lat="43.05265" lon="0.68442">
        <ele>458</ele>
        <time>2022-09-04T12:58:09Z</time>
      </trkpt>
      <trkpt lat="43.05255" lon="0.6844">
        <ele>456.8</ele>
        <time>2022-09-04T12:58:11Z</time>
      </trkpt>
      <trkpt lat="43.05251" lon="0.68436">
        <ele>456.2</ele>
        <time>2022-09-04T12:58:12Z</time>
      </trkpt>
      <trkpt lat="43.05247" lon="0.6843">
        <ele>455.8</ele>
        <time>2022-09-04T12:58:13Z</time>
      </trkpt>
      <trkpt lat="43.05243" lon="0.68424">
        <ele>455.4</ele>
        <time>2022-09-04T12:58:14Z</time>
      </trkpt>
      <trkpt lat="43.05235" lon="0.68413">
        <ele>454.8</ele>
        <time>2022-09-04T12:58:16Z</time>
      </trkpt>
      <trkpt lat="43.05232" lon="0.68409">
        <ele>454.6</ele>
        <time>2022-09-04T12:58:17Z</time>
      </trkpt>
      <trkpt lat="43.05224" lon="0.68399">
        <ele>453.8</ele>
        <time>2022-09-04T12:58:20Z</time>
      </trkpt>
      <trkpt lat="43.05217" lon="0.68393">
        <ele>453.4</ele>
        <time>2022-09-04T12:58:22Z</time>
      </trkpt>
      <trkpt lat="43.05215" lon="0.68388">
        <ele>453.2</ele>
        <time>2022-09-04T12:58:23Z</time>
      </trkpt>
      <trkpt lat="43.05212" lon="0.68382">
        <ele>453</ele>
        <time>2022-09-04T12:58:24Z</time>
      </trkpt>
      <trkpt lat="43.052" lon="0.68351">
        <ele>452.4</ele>
        <time>2022-09-04T12:58:29Z</time>
      </trkpt>
      <trkpt lat="43.05196" lon="0.68346">
        <ele>452.4</ele>
        <time>2022-09-04T12:58:30Z</time>
      </trkpt>
      <trkpt lat="43.0517" lon="0.68307">
        <ele>452.4</ele>
        <time>2022-09-04T12:58:37Z</time>
      </trkpt>
      <trkpt lat="43.05147" lon="0.68276">
        <ele>451.4</ele>
        <time>2022-09-04T12:58:44Z</time>
      </trkpt>
      <trkpt lat="43.05143" lon="0.68271">
        <ele>451</ele>
        <time>2022-09-04T12:58:45Z</time>
      </trkpt>
      <trkpt lat="43.05123" lon="0.6824">
        <ele>450.4</ele>
        <time>2022-09-04T12:58:51Z</time>
      </trkpt>
      <trkpt lat="43.05115" lon="0.68229">
        <ele>450</ele>
        <time>2022-09-04T12:58:53Z</time>
      </trkpt>
      <trkpt lat="43.05093" lon="0.68199">
        <ele>448.8</ele>
        <time>2022-09-04T12:58:58Z</time>
      </trkpt>
      <trkpt lat="43.05082" lon="0.68187">
        <ele>448.4</ele>
        <time>2022-09-04T12:59:00Z</time>
      </trkpt>
      <trkpt lat="43.05062" lon="0.6817">
        <ele>447.8</ele>
        <time>2022-09-04T12:59:03Z</time>
      </trkpt>
      <trkpt lat="43.05055" lon="0.68164">
        <ele>447.4</ele>
        <time>2022-09-04T12:59:04Z</time>
      </trkpt>
      <trkpt lat="43.05033" lon="0.6814">
        <ele>446.4</ele>
        <time>2022-09-04T12:59:08Z</time>
      </trkpt>
      <trkpt lat="43.05018" lon="0.68103">
        <ele>445.4</ele>
        <time>2022-09-04T12:59:13Z</time>
      </trkpt>
      <trkpt lat="43.05013" lon="0.68091">
        <ele>445.2</ele>
        <time>2022-09-04T12:59:15Z</time>
      </trkpt>
      <trkpt lat="43.05007" lon="0.68073">
        <ele>445.2</ele>
        <time>2022-09-04T12:59:18Z</time>
      </trkpt>
      <trkpt lat="43.04998" lon="0.68044">
        <ele>445.4</ele>
        <time>2022-09-04T12:59:24Z</time>
      </trkpt>
      <trkpt lat="43.0499" lon="0.68028">
        <ele>445.4</ele>
        <time>2022-09-04T12:59:30Z</time>
      </trkpt>
      <trkpt lat="43.04977" lon="0.68006">
        <ele>445.4</ele>
        <time>2022-09-04T12:59:37Z</time>
      </trkpt>
      <trkpt lat="43.04961" lon="0.67994">
        <ele>445.8</ele>
        <time>2022-09-04T12:59:42Z</time>
      </trkpt>
      <trkpt lat="43.04945" lon="0.6799">
        <ele>444.6</ele>
        <time>2022-09-04T12:59:48Z</time>
      </trkpt>
      <trkpt lat="43.0495" lon="0.6799">
        <ele>444.6</ele>
        <time>2022-09-04T13:00:00Z</time>
      </trkpt>
      <trkpt lat="43.04965" lon="0.67997">
        <ele>444.8</ele>
        <time>2022-09-04T13:00:07Z</time>
      </trkpt>
      <trkpt lat="43.04982" lon="0.68016">
        <ele>445.4</ele>
        <time>2022-09-04T13:00:16Z</time>
      </trkpt>
      <trkpt lat="43.0499" lon="0.68028">
        <ele>445.6</ele>
        <time>2022-09-04T13:00:22Z</time>
      </trkpt>
      <trkpt lat="43.04992" lon="0.68028">
        <ele>445.6</ele>
        <time>2022-09-04T13:00:23Z</time>
      </trkpt>
      <trkpt lat="43.04997" lon="0.68022">
        <ele>446</ele>
        <time>2022-09-04T13:00:28Z</time>
      </trkpt>
      <trkpt lat="43.04997" lon="0.6802">
        <ele>446.2</ele>
        <time>2022-09-04T13:00:29Z</time>
      </trkpt>
      <trkpt lat="43.04997" lon="0.68015">
        <ele>446.6</ele>
        <time>2022-09-04T13:00:31Z</time>
      </trkpt>
      <trkpt lat="43.04996" lon="0.68008">
        <ele>447</ele>
        <time>2022-09-04T13:00:34Z</time>
      </trkpt>
      <trkpt lat="43.04994" lon="0.67999">
        <ele>447.4</ele>
        <time>2022-09-04T13:00:39Z</time>
      </trkpt>
      <trkpt lat="43.04991" lon="0.67987">
        <ele>447.8</ele>
        <time>2022-09-04T13:00:44Z</time>
      </trkpt>
      <trkpt lat="43.04986" lon="0.67962">
        <ele>448</ele>
        <time>2022-09-04T13:00:52Z</time>
      </trkpt>
      <trkpt lat="43.04975" lon="0.67932">
        <ele>448</ele>
        <time>2022-09-04T13:01:01Z</time>
      </trkpt>
      <trkpt lat="43.04962" lon="0.67903">
        <ele>448.4</ele>
        <time>2022-09-04T13:01:09Z</time>
      </trkpt>
      <trkpt lat="43.0496" lon="0.679">
        <ele>448.4</ele>
        <time>2022-09-04T13:01:10Z</time>
      </trkpt>
      <trkpt lat="43.04948" lon="0.67866">
        <ele>448.8</ele>
        <time>2022-09-04T13:01:19Z</time>
      </trkpt>
      <trkpt lat="43.04942" lon="0.67834">
        <ele>448.8</ele>
        <time>2022-09-04T13:01:27Z</time>
      </trkpt>
      <trkpt lat="43.0494" lon="0.67796">
        <ele>449</ele>
        <time>2022-09-04T13:01:36Z</time>
      </trkpt>
      <trkpt lat="43.04936" lon="0.67781">
        <ele>449.6</ele>
        <time>2022-09-04T13:01:40Z</time>
      </trkpt>
      <trkpt lat="43.04932" lon="0.6777">
        <ele>450</ele>
        <time>2022-09-04T13:01:43Z</time>
      </trkpt>
      <trkpt lat="43.04919" lon="0.67753">
        <ele>450.6</ele>
        <time>2022-09-04T13:01:50Z</time>
      </trkpt>
      <trkpt lat="43.04917" lon="0.6775">
        <ele>450.6</ele>
        <time>2022-09-04T13:01:51Z</time>
      </trkpt>
      <trkpt lat="43.04904" lon="0.67728">
        <ele>451.2</ele>
        <time>2022-09-04T13:01:59Z</time>
      </trkpt>
      <trkpt lat="43.04896" lon="0.67697">
        <ele>451.4</ele>
        <time>2022-09-04T13:02:08Z</time>
      </trkpt>
      <trkpt lat="43.04891" lon="0.6768">
        <ele>451.6</ele>
        <time>2022-09-04T13:02:13Z</time>
      </trkpt>
      <trkpt lat="43.04886" lon="0.67663">
        <ele>452.2</ele>
        <time>2022-09-04T13:02:18Z</time>
      </trkpt>
      <trkpt lat="43.04883" lon="0.67649">
        <ele>452.8</ele>
        <time>2022-09-04T13:02:22Z</time>
      </trkpt>
      <trkpt lat="43.0488" lon="0.67636">
        <ele>453.2</ele>
        <time>2022-09-04T13:02:26Z</time>
      </trkpt>
      <trkpt lat="43.04878" lon="0.67609">
        <ele>453.8</ele>
        <time>2022-09-04T13:02:34Z</time>
      </trkpt>
      <trkpt lat="43.04877" lon="0.67599">
        <ele>454.2</ele>
        <time>2022-09-04T13:02:37Z</time>
      </trkpt>
      <trkpt lat="43.04874" lon="0.67581">
        <ele>454.6</ele>
        <time>2022-09-04T13:02:44Z</time>
      </trkpt>
      <trkpt lat="43.04873" lon="0.67565">
        <ele>454.6</ele>
        <time>2022-09-04T13:02:50Z</time>
      </trkpt>
      <trkpt lat="43.04867" lon="0.67537">
        <ele>454.8</ele>
        <time>2022-09-04T13:02:57Z</time>
      </trkpt>
      <trkpt lat="43.0486" lon="0.67509">
        <ele>455.2</ele>
        <time>2022-09-04T13:03:05Z</time>
      </trkpt>
      <trkpt lat="43.04856" lon="0.67479">
        <ele>456</ele>
        <time>2022-09-04T13:03:13Z</time>
      </trkpt>
      <trkpt lat="43.04855" lon="0.67454">
        <ele>456.8</ele>
        <time>2022-09-04T13:03:21Z</time>
      </trkpt>
      <trkpt lat="43.04856" lon="0.67447">
        <ele>457</ele>
        <time>2022-09-04T13:03:23Z</time>
      </trkpt>
      <trkpt lat="43.04856" lon="0.67433">
        <ele>457.6</ele>
        <time>2022-09-04T13:03:28Z</time>
      </trkpt>
      <trkpt lat="43.04855" lon="0.67426">
        <ele>458</ele>
        <time>2022-09-04T13:03:31Z</time>
      </trkpt>
      <trkpt lat="43.04855" lon="0.67416">
        <ele>459</ele>
        <time>2022-09-04T13:03:36Z</time>
      </trkpt>
      <trkpt lat="43.04853" lon="0.67409">
        <ele>460</ele>
        <time>2022-09-04T13:03:40Z</time>
      </trkpt>
      <trkpt lat="43.04851" lon="0.67404">
        <ele>460.6</ele>
        <time>2022-09-04T13:03:43Z</time>
      </trkpt>
      <trkpt lat="43.04851" lon="0.67397">
        <ele>461.2</ele>
        <time>2022-09-04T13:03:46Z</time>
      </trkpt>
      <trkpt lat="43.04849" lon="0.67394">
        <ele>461.6</ele>
        <time>2022-09-04T13:03:48Z</time>
      </trkpt>
      <trkpt lat="43.04846" lon="0.67387">
        <ele>462.4</ele>
        <time>2022-09-04T13:03:52Z</time>
      </trkpt>
      <trkpt lat="43.04845" lon="0.67378">
        <ele>462.8</ele>
        <time>2022-09-04T13:03:56Z</time>
      </trkpt>
      <trkpt lat="43.04845" lon="0.67374">
        <ele>462.8</ele>
        <time>2022-09-04T13:03:58Z</time>
      </trkpt>
      <trkpt lat="43.04843" lon="0.67366">
        <ele>463.4</ele>
        <time>2022-09-04T13:04:02Z</time>
      </trkpt>
      <trkpt lat="43.04838" lon="0.67344">
        <ele>464</ele>
        <time>2022-09-04T13:04:11Z</time>
      </trkpt>
      <trkpt lat="43.04833" lon="0.67325">
        <ele>464</ele>
        <time>2022-09-04T13:04:18Z</time>
      </trkpt>
      <trkpt lat="43.04829" lon="0.67303">
        <ele>463.8</ele>
        <time>2022-09-04T13:04:25Z</time>
      </trkpt>
      <trkpt lat="43.04825" lon="0.67285">
        <ele>463.6</ele>
        <time>2022-09-04T13:04:30Z</time>
      </trkpt>
      <trkpt lat="43.04824" lon="0.67258">
        <ele>463.6</ele>
        <time>2022-09-04T13:04:37Z</time>
      </trkpt>
      <trkpt lat="43.04821" lon="0.67238">
        <ele>463</ele>
        <time>2022-09-04T13:04:42Z</time>
      </trkpt>
      <trkpt lat="43.04822" lon="0.6722">
        <ele>463</ele>
        <time>2022-09-04T13:04:47Z</time>
      </trkpt>
      <trkpt lat="43.04829" lon="0.67213">
        <ele>463.6</ele>
        <time>2022-09-04T13:05:09Z</time>
      </trkpt>
      <trkpt lat="43.04842" lon="0.67208">
        <ele>464.4</ele>
        <time>2022-09-04T13:05:16Z</time>
      </trkpt>
      <trkpt lat="43.04844" lon="0.67208">
        <ele>464.6</ele>
        <time>2022-09-04T13:05:17Z</time>
      </trkpt>
      <trkpt lat="43.04857" lon="0.67204">
        <ele>465.4</ele>
        <time>2022-09-04T13:05:24Z</time>
      </trkpt>
      <trkpt lat="43.04869" lon="0.67199">
        <ele>466.4</ele>
        <time>2022-09-04T13:05:31Z</time>
      </trkpt>
      <trkpt lat="43.04871" lon="0.67198">
        <ele>466.6</ele>
        <time>2022-09-04T13:05:32Z</time>
      </trkpt>
      <trkpt lat="43.0488" lon="0.67194">
        <ele>467.4</ele>
        <time>2022-09-04T13:05:38Z</time>
      </trkpt>
      <trkpt lat="43.04883" lon="0.67193">
        <ele>467.6</ele>
        <time>2022-09-04T13:05:40Z</time>
      </trkpt>
      <trkpt lat="43.04889" lon="0.67189">
        <ele>468.2</ele>
        <time>2022-09-04T13:05:44Z</time>
      </trkpt>
      <trkpt lat="43.04891" lon="0.67186">
        <ele>468.4</ele>
        <time>2022-09-04T13:05:45Z</time>
      </trkpt>
      <trkpt lat="43.04895" lon="0.67181">
        <ele>468.6</ele>
        <time>2022-09-04T13:05:48Z</time>
      </trkpt>
      <trkpt lat="43.04896" lon="0.67172">
        <ele>469.2</ele>
        <time>2022-09-04T13:05:52Z</time>
      </trkpt>
      <trkpt lat="43.04889" lon="0.67159">
        <ele>468.8</ele>
        <time>2022-09-04T13:05:57Z</time>
      </trkpt>
      <trkpt lat="43.0487" lon="0.67142">
        <ele>468.6</ele>
        <time>2022-09-04T13:06:02Z</time>
      </trkpt>
      <trkpt lat="43.04842" lon="0.67121">
        <ele>469</ele>
        <time>2022-09-04T13:06:07Z</time>
      </trkpt>
      <trkpt lat="43.04817" lon="0.67103">
        <ele>467.4</ele>
        <time>2022-09-04T13:06:11Z</time>
      </trkpt>
      <trkpt lat="43.04792" lon="0.67087">
        <ele>467.4</ele>
        <time>2022-09-04T13:06:15Z</time>
      </trkpt>
      <trkpt lat="43.04775" lon="0.67076">
        <ele>466.4</ele>
        <time>2022-09-04T13:06:18Z</time>
      </trkpt>
      <trkpt lat="43.04772" lon="0.67068">
        <ele>466</ele>
        <time>2022-09-04T13:06:19Z</time>
      </trkpt>
      <trkpt lat="43.04769" lon="0.67048">
        <ele>466.2</ele>
        <time>2022-09-04T13:06:22Z</time>
      </trkpt>
      <trkpt lat="43.04766" lon="0.67024">
        <ele>466.6</ele>
        <time>2022-09-04T13:06:27Z</time>
      </trkpt>
      <trkpt lat="43.04761" lon="0.67001">
        <ele>467.2</ele>
        <time>2022-09-04T13:06:33Z</time>
      </trkpt>
      <trkpt lat="43.0476" lon="0.66993">
        <ele>467.4</ele>
        <time>2022-09-04T13:06:35Z</time>
      </trkpt>
      <trkpt lat="43.04758" lon="0.66971">
        <ele>468</ele>
        <time>2022-09-04T13:06:41Z</time>
      </trkpt>
      <trkpt lat="43.04753" lon="0.66943">
        <ele>468.2</ele>
        <time>2022-09-04T13:06:49Z</time>
      </trkpt>
      <trkpt lat="43.04751" lon="0.66924">
        <ele>468.4</ele>
        <time>2022-09-04T13:06:54Z</time>
      </trkpt>
      <trkpt lat="43.04751" lon="0.6692">
        <ele>468.6</ele>
        <time>2022-09-04T13:06:55Z</time>
      </trkpt>
      <trkpt lat="43.0475" lon="0.66888">
        <ele>469.2</ele>
        <time>2022-09-04T13:07:03Z</time>
      </trkpt>
      <trkpt lat="43.0475" lon="0.66881">
        <ele>469.6</ele>
        <time>2022-09-04T13:07:05Z</time>
      </trkpt>
      <trkpt lat="43.04748" lon="0.66868">
        <ele>469.8</ele>
        <time>2022-09-04T13:07:08Z</time>
      </trkpt>
      <trkpt lat="43.04741" lon="0.66844">
        <ele>470.2</ele>
        <time>2022-09-04T13:07:15Z</time>
      </trkpt>
      <trkpt lat="43.04739" lon="0.66837">
        <ele>469.8</ele>
        <time>2022-09-04T13:07:20Z</time>
      </trkpt>
      <trkpt lat="43.04736" lon="0.66829">
        <ele>470.2</ele>
        <time>2022-09-04T13:07:58Z</time>
      </trkpt>
      <trkpt lat="43.04735" lon="0.66826">
        <ele>470</ele>
        <time>2022-09-04T13:07:59Z</time>
      </trkpt>
      <trkpt lat="43.04731" lon="0.66813">
        <ele>470</ele>
        <time>2022-09-04T13:08:06Z</time>
      </trkpt>
      <trkpt lat="43.04729" lon="0.66805">
        <ele>470.4</ele>
        <time>2022-09-04T13:09:13Z</time>
      </trkpt>
      <trkpt lat="43.04728" lon="0.66802">
        <ele>470.4</ele>
        <time>2022-09-04T13:09:14Z</time>
      </trkpt>
      <trkpt lat="43.04726" lon="0.66792">
        <ele>470.6</ele>
        <time>2022-09-04T13:09:17Z</time>
      </trkpt>
      <trkpt lat="43.04721" lon="0.66774">
        <ele>471</ele>
        <time>2022-09-04T13:09:21Z</time>
      </trkpt>
      <trkpt lat="43.04712" lon="0.66741">
        <ele>471.4</ele>
        <time>2022-09-04T13:09:29Z</time>
      </trkpt>
      <trkpt lat="43.04707" lon="0.66726">
        <ele>471.6</ele>
        <time>2022-09-04T13:09:33Z</time>
      </trkpt>
      <trkpt lat="43.04703" lon="0.66714">
        <ele>471.8</ele>
        <time>2022-09-04T13:09:36Z</time>
      </trkpt>
      <trkpt lat="43.04693" lon="0.66682">
        <ele>472.4</ele>
        <time>2022-09-04T13:09:44Z</time>
      </trkpt>
      <trkpt lat="43.04689" lon="0.6667">
        <ele>472.6</ele>
        <time>2022-09-04T13:09:47Z</time>
      </trkpt>
      <trkpt lat="43.04682" lon="0.66645">
        <ele>473</ele>
        <time>2022-09-04T13:09:53Z</time>
      </trkpt>
      <trkpt lat="43.04669" lon="0.6661">
        <ele>473.6</ele>
        <time>2022-09-04T13:10:02Z</time>
      </trkpt>
      <trkpt lat="43.04656" lon="0.66581">
        <ele>473.6</ele>
        <time>2022-09-04T13:10:10Z</time>
      </trkpt>
      <trkpt lat="43.04653" lon="0.66574">
        <ele>473.6</ele>
        <time>2022-09-04T13:10:12Z</time>
      </trkpt>
      <trkpt lat="43.04646" lon="0.66553">
        <ele>474</ele>
        <time>2022-09-04T13:10:18Z</time>
      </trkpt>
      <trkpt lat="43.0464" lon="0.66525">
        <ele>474.6</ele>
        <time>2022-09-04T13:10:25Z</time>
      </trkpt>
      <trkpt lat="43.04637" lon="0.66502">
        <ele>475.2</ele>
        <time>2022-09-04T13:10:31Z</time>
      </trkpt>
      <trkpt lat="43.04634" lon="0.66469">
        <ele>475.6</ele>
        <time>2022-09-04T13:10:39Z</time>
      </trkpt>
      <trkpt lat="43.04634" lon="0.66438">
        <ele>475.8</ele>
        <time>2022-09-04T13:10:46Z</time>
      </trkpt>
      <trkpt lat="43.04635" lon="0.66398">
        <ele>476.4</ele>
        <time>2022-09-04T13:10:55Z</time>
      </trkpt>
      <trkpt lat="43.04632" lon="0.6636">
        <ele>476.6</ele>
        <time>2022-09-04T13:11:03Z</time>
      </trkpt>
      <trkpt lat="43.04629" lon="0.66326">
        <ele>476.4</ele>
        <time>2022-09-04T13:11:10Z</time>
      </trkpt>
      <trkpt lat="43.04623" lon="0.66277">
        <ele>476.6</ele>
        <time>2022-09-04T13:11:20Z</time>
      </trkpt>
      <trkpt lat="43.04612" lon="0.66242">
        <ele>476.8</ele>
        <time>2022-09-04T13:11:28Z</time>
      </trkpt>
      <trkpt lat="43.04594" lon="0.662">
        <ele>477.6</ele>
        <time>2022-09-04T13:11:38Z</time>
      </trkpt>
      <trkpt lat="43.04577" lon="0.66157">
        <ele>477.8</ele>
        <time>2022-09-04T13:11:48Z</time>
      </trkpt>
      <trkpt lat="43.04574" lon="0.66148">
        <ele>478</ele>
        <time>2022-09-04T13:11:50Z</time>
      </trkpt>
      <trkpt lat="43.04563" lon="0.66117">
        <ele>478.2</ele>
        <time>2022-09-04T13:11:57Z</time>
      </trkpt>
      <trkpt lat="43.04554" lon="0.66084">
        <ele>479</ele>
        <time>2022-09-04T13:12:05Z</time>
      </trkpt>
      <trkpt lat="43.04553" lon="0.66079">
        <ele>479.2</ele>
        <time>2022-09-04T13:12:06Z</time>
      </trkpt>
      <trkpt lat="43.04541" lon="0.66046">
        <ele>479.8</ele>
        <time>2022-09-04T13:12:15Z</time>
      </trkpt>
      <trkpt lat="43.04539" lon="0.66043">
        <ele>480.2</ele>
        <time>2022-09-04T13:12:16Z</time>
      </trkpt>
      <trkpt lat="43.04529" lon="0.66021">
        <ele>481</ele>
        <time>2022-09-04T13:12:23Z</time>
      </trkpt>
      <trkpt lat="43.04527" lon="0.66018">
        <ele>481.2</ele>
        <time>2022-09-04T13:12:24Z</time>
      </trkpt>
      <trkpt lat="43.04518" lon="0.66">
        <ele>482.2</ele>
        <time>2022-09-04T13:12:31Z</time>
      </trkpt>
      <trkpt lat="43.0451" lon="0.65988">
        <ele>482.8</ele>
        <time>2022-09-04T13:12:37Z</time>
      </trkpt>
      <trkpt lat="43.04505" lon="0.65979">
        <ele>483.2</ele>
        <time>2022-09-04T13:12:41Z</time>
      </trkpt>
      <trkpt lat="43.04502" lon="0.65975">
        <ele>483.4</ele>
        <time>2022-09-04T13:12:43Z</time>
      </trkpt>
      <trkpt lat="43.04492" lon="0.65962">
        <ele>484</ele>
        <time>2022-09-04T13:12:50Z</time>
      </trkpt>
      <trkpt lat="43.04476" lon="0.65955">
        <ele>483.8</ele>
        <time>2022-09-04T13:12:57Z</time>
      </trkpt>
      <trkpt lat="43.04469" lon="0.65949">
        <ele>483.6</ele>
        <time>2022-09-04T13:12:59Z</time>
      </trkpt>
      <trkpt lat="43.04465" lon="0.65938">
        <ele>483.2</ele>
        <time>2022-09-04T13:13:01Z</time>
      </trkpt>
      <trkpt lat="43.04462" lon="0.65926">
        <ele>483</ele>
        <time>2022-09-04T13:13:03Z</time>
      </trkpt>
      <trkpt lat="43.04459" lon="0.6591">
        <ele>483</ele>
        <time>2022-09-04T13:13:06Z</time>
      </trkpt>
      <trkpt lat="43.04456" lon="0.65871">
        <ele>482.8</ele>
        <time>2022-09-04T13:13:13Z</time>
      </trkpt>
      <trkpt lat="43.04449" lon="0.65816">
        <ele>483.2</ele>
        <time>2022-09-04T13:13:24Z</time>
      </trkpt>
      <trkpt lat="43.04444" lon="0.6579">
        <ele>483.6</ele>
        <time>2022-09-04T13:13:30Z</time>
      </trkpt>
      <trkpt lat="43.04433" lon="0.65756">
        <ele>483.2</ele>
        <time>2022-09-04T13:13:37Z</time>
      </trkpt>
      <trkpt lat="43.0443" lon="0.65751">
        <ele>483.2</ele>
        <time>2022-09-04T13:13:38Z</time>
      </trkpt>
      <trkpt lat="43.04422" lon="0.65743">
        <ele>483.2</ele>
        <time>2022-09-04T13:13:41Z</time>
      </trkpt>
      <trkpt lat="43.04412" lon="0.65737">
        <ele>483.6</ele>
        <time>2022-09-04T13:13:45Z</time>
      </trkpt>
      <trkpt lat="43.04407" lon="0.65733">
        <ele>483.6</ele>
        <time>2022-09-04T13:13:47Z</time>
      </trkpt>
      <trkpt lat="43.04396" lon="0.65715">
        <ele>483.4</ele>
        <time>2022-09-04T13:13:52Z</time>
      </trkpt>
      <trkpt lat="43.04382" lon="0.65692">
        <ele>483</ele>
        <time>2022-09-04T13:13:58Z</time>
      </trkpt>
      <trkpt lat="43.04371" lon="0.65675">
        <ele>483</ele>
        <time>2022-09-04T13:14:02Z</time>
      </trkpt>
      <trkpt lat="43.04366" lon="0.65663">
        <ele>482.8</ele>
        <time>2022-09-04T13:14:04Z</time>
      </trkpt>
      <trkpt lat="43.04355" lon="0.65624">
        <ele>482</ele>
        <time>2022-09-04T13:14:10Z</time>
      </trkpt>
      <trkpt lat="43.04353" lon="0.65618">
        <ele>481.8</ele>
        <time>2022-09-04T13:14:11Z</time>
      </trkpt>
      <trkpt lat="43.04339" lon="0.65575">
        <ele>481.8</ele>
        <time>2022-09-04T13:14:18Z</time>
      </trkpt>
      <trkpt lat="43.04336" lon="0.65558">
        <ele>482</ele>
        <time>2022-09-04T13:14:21Z</time>
      </trkpt>
      <trkpt lat="43.04333" lon="0.65533">
        <ele>481.4</ele>
        <time>2022-09-04T13:14:25Z</time>
      </trkpt>
      <trkpt lat="43.04326" lon="0.65486">
        <ele>482.2</ele>
        <time>2022-09-04T13:14:33Z</time>
      </trkpt>
      <trkpt lat="43.04322" lon="0.65463">
        <ele>481.8</ele>
        <time>2022-09-04T13:14:37Z</time>
      </trkpt>
      <trkpt lat="43.04318" lon="0.65445">
        <ele>482.4</ele>
        <time>2022-09-04T13:14:40Z</time>
      </trkpt>
      <trkpt lat="43.04306" lon="0.65387">
        <ele>483</ele>
        <time>2022-09-04T13:14:50Z</time>
      </trkpt>
      <trkpt lat="43.04302" lon="0.65371">
        <ele>483.2</ele>
        <time>2022-09-04T13:14:53Z</time>
      </trkpt>
      <trkpt lat="43.04294" lon="0.65345">
        <ele>483.2</ele>
        <time>2022-09-04T13:14:58Z</time>
      </trkpt>
      <trkpt lat="43.04291" lon="0.65335">
        <ele>483.4</ele>
        <time>2022-09-04T13:15:00Z</time>
      </trkpt>
      <trkpt lat="43.04284" lon="0.65316">
        <ele>483.4</ele>
        <time>2022-09-04T13:15:04Z</time>
      </trkpt>
      <trkpt lat="43.04279" lon="0.6529">
        <ele>483.4</ele>
        <time>2022-09-04T13:15:10Z</time>
      </trkpt>
      <trkpt lat="43.04273" lon="0.65265">
        <ele>484</ele>
        <time>2022-09-04T13:15:16Z</time>
      </trkpt>
      <trkpt lat="43.04264" lon="0.65231">
        <ele>484</ele>
        <time>2022-09-04T13:15:23Z</time>
      </trkpt>
      <trkpt lat="43.04256" lon="0.65205">
        <ele>484.2</ele>
        <time>2022-09-04T13:15:28Z</time>
      </trkpt>
      <trkpt lat="43.04255" lon="0.652">
        <ele>484.4</ele>
        <time>2022-09-04T13:15:29Z</time>
      </trkpt>
      <trkpt lat="43.04245" lon="0.65163">
        <ele>485.2</ele>
        <time>2022-09-04T13:15:37Z</time>
      </trkpt>
      <trkpt lat="43.04234" lon="0.65122">
        <ele>485</ele>
        <time>2022-09-04T13:15:46Z</time>
      </trkpt>
      <trkpt lat="43.04226" lon="0.65096">
        <ele>485.4</ele>
        <time>2022-09-04T13:15:52Z</time>
      </trkpt>
      <trkpt lat="43.04225" lon="0.65091">
        <ele>485.4</ele>
        <time>2022-09-04T13:15:53Z</time>
      </trkpt>
      <trkpt lat="43.04213" lon="0.65056">
        <ele>485.8</ele>
        <time>2022-09-04T13:16:01Z</time>
      </trkpt>
      <trkpt lat="43.04202" lon="0.65028">
        <ele>485.4</ele>
        <time>2022-09-04T13:16:08Z</time>
      </trkpt>
      <trkpt lat="43.04195" lon="0.65008">
        <ele>485.6</ele>
        <time>2022-09-04T13:16:13Z</time>
      </trkpt>
      <trkpt lat="43.04185" lon="0.6498">
        <ele>485.6</ele>
        <time>2022-09-04T13:16:20Z</time>
      </trkpt>
      <trkpt lat="43.04176" lon="0.64957">
        <ele>485.6</ele>
        <time>2022-09-04T13:16:26Z</time>
      </trkpt>
      <trkpt lat="43.04163" lon="0.64917">
        <ele>486.2</ele>
        <time>2022-09-04T13:16:35Z</time>
      </trkpt>
      <trkpt lat="43.04153" lon="0.64884">
        <ele>486</ele>
        <time>2022-09-04T13:16:43Z</time>
      </trkpt>
      <trkpt lat="43.04144" lon="0.64853">
        <ele>486.2</ele>
        <time>2022-09-04T13:16:51Z</time>
      </trkpt>
      <trkpt lat="43.04139" lon="0.64838">
        <ele>486.4</ele>
        <time>2022-09-04T13:16:55Z</time>
      </trkpt>
      <trkpt lat="43.04135" lon="0.64824">
        <ele>486.4</ele>
        <time>2022-09-04T13:17:00Z</time>
      </trkpt>
      <trkpt lat="43.04132" lon="0.64808">
        <ele>486.6</ele>
        <time>2022-09-04T13:17:07Z</time>
      </trkpt>
      <trkpt lat="43.0413" lon="0.64796">
        <ele>488.4</ele>
        <time>2022-09-04T13:22:18Z</time>
      </trkpt>
      <trkpt lat="43.0413" lon="0.64794">
        <ele>488.6</ele>
        <time>2022-09-04T13:22:19Z</time>
      </trkpt>
      <trkpt lat="43.04128" lon="0.6479">
        <ele>488.6</ele>
        <time>2022-09-04T13:22:21Z</time>
      </trkpt>
      <trkpt lat="43.04122" lon="0.64788">
        <ele>489.2</ele>
        <time>2022-09-04T13:22:24Z</time>
      </trkpt>
      <trkpt lat="43.04115" lon="0.64796">
        <ele>489</ele>
        <time>2022-09-04T13:22:28Z</time>
      </trkpt>
      <trkpt lat="43.04113" lon="0.64798">
        <ele>489</ele>
        <time>2022-09-04T13:22:29Z</time>
      </trkpt>
      <trkpt lat="43.04098" lon="0.64817">
        <ele>489.2</ele>
        <time>2022-09-04T13:22:36Z</time>
      </trkpt>
      <trkpt lat="43.04087" lon="0.64828">
        <ele>489.4</ele>
        <time>2022-09-04T13:22:41Z</time>
      </trkpt>
      <trkpt lat="43.04081" lon="0.64837">
        <ele>489.4</ele>
        <time>2022-09-04T13:22:44Z</time>
      </trkpt>
      <trkpt lat="43.0407" lon="0.64862">
        <ele>489.6</ele>
        <time>2022-09-04T13:22:51Z</time>
      </trkpt>
      <trkpt lat="43.04061" lon="0.64888">
        <ele>489.8</ele>
        <time>2022-09-04T13:22:58Z</time>
      </trkpt>
      <trkpt lat="43.04045" lon="0.64928">
        <ele>490</ele>
        <time>2022-09-04T13:23:08Z</time>
      </trkpt>
      <trkpt lat="43.04031" lon="0.64959">
        <ele>490.2</ele>
        <time>2022-09-04T13:23:16Z</time>
      </trkpt>
      <trkpt lat="43.04023" lon="0.64974">
        <ele>490.6</ele>
        <time>2022-09-04T13:23:20Z</time>
      </trkpt>
      <trkpt lat="43.0401" lon="0.64991">
        <ele>491</ele>
        <time>2022-09-04T13:23:26Z</time>
      </trkpt>
      <trkpt lat="43.04" lon="0.65">
        <ele>491.6</ele>
        <time>2022-09-04T13:23:30Z</time>
      </trkpt>
      <trkpt lat="43.0399" lon="0.65004">
        <ele>492.4</ele>
        <time>2022-09-04T13:23:34Z</time>
      </trkpt>
      <trkpt lat="43.03984" lon="0.65006">
        <ele>492.6</ele>
        <time>2022-09-04T13:23:37Z</time>
      </trkpt>
      <trkpt lat="43.03974" lon="0.65005">
        <ele>493.4</ele>
        <time>2022-09-04T13:23:41Z</time>
      </trkpt>
      <trkpt lat="43.0397" lon="0.65003">
        <ele>493.6</ele>
        <time>2022-09-04T13:23:43Z</time>
      </trkpt>
      <trkpt lat="43.03958" lon="0.65">
        <ele>494.6</ele>
        <time>2022-09-04T13:23:49Z</time>
      </trkpt>
      <trkpt lat="43.03957" lon="0.64999">
        <ele>494.8</ele>
        <time>2022-09-04T13:23:50Z</time>
      </trkpt>
      <trkpt lat="43.0395" lon="0.64991">
        <ele>495.4</ele>
        <time>2022-09-04T13:23:55Z</time>
      </trkpt>
      <trkpt lat="43.0395" lon="0.64979">
        <ele>495.2</ele>
        <time>2022-09-04T13:23:59Z</time>
      </trkpt>
      <trkpt lat="43.03957" lon="0.64946">
        <ele>494.6</ele>
        <time>2022-09-04T13:24:06Z</time>
      </trkpt>
      <trkpt lat="43.03963" lon="0.64903">
        <ele>494.4</ele>
        <time>2022-09-04T13:24:13Z</time>
      </trkpt>
      <trkpt lat="43.03968" lon="0.64847">
        <ele>494</ele>
        <time>2022-09-04T13:24:21Z</time>
      </trkpt>
      <trkpt lat="43.03969" lon="0.64797">
        <ele>494</ele>
        <time>2022-09-04T13:24:28Z</time>
      </trkpt>
      <trkpt lat="43.03969" lon="0.64724">
        <ele>493.6</ele>
        <time>2022-09-04T13:24:38Z</time>
      </trkpt>
      <trkpt lat="43.03969" lon="0.64717">
        <ele>493.6</ele>
        <time>2022-09-04T13:24:39Z</time>
      </trkpt>
      <trkpt lat="43.0397" lon="0.64656">
        <ele>492.6</ele>
        <time>2022-09-04T13:24:47Z</time>
      </trkpt>
      <trkpt lat="43.0397" lon="0.64582">
        <ele>492.2</ele>
        <time>2022-09-04T13:24:56Z</time>
      </trkpt>
      <trkpt lat="43.03969" lon="0.64507">
        <ele>492</ele>
        <time>2022-09-04T13:25:05Z</time>
      </trkpt>
      <trkpt lat="43.03967" lon="0.64445">
        <ele>492.4</ele>
        <time>2022-09-04T13:25:13Z</time>
      </trkpt>
      <trkpt lat="43.03964" lon="0.64379">
        <ele>492.8</ele>
        <time>2022-09-04T13:25:22Z</time>
      </trkpt>
      <trkpt lat="43.03962" lon="0.64333">
        <ele>493.8</ele>
        <time>2022-09-04T13:25:29Z</time>
      </trkpt>
      <trkpt lat="43.03962" lon="0.64321">
        <ele>493.8</ele>
        <time>2022-09-04T13:25:31Z</time>
      </trkpt>
      <trkpt lat="43.03962" lon="0.64266">
        <ele>494</ele>
        <time>2022-09-04T13:25:40Z</time>
      </trkpt>
      <trkpt lat="43.03963" lon="0.64241">
        <ele>494.4</ele>
        <time>2022-09-04T13:25:44Z</time>
      </trkpt>
      <trkpt lat="43.03964" lon="0.64218">
        <ele>494.8</ele>
        <time>2022-09-04T13:25:48Z</time>
      </trkpt>
      <trkpt lat="43.0397" lon="0.64166">
        <ele>495.2</ele>
        <time>2022-09-04T13:25:57Z</time>
      </trkpt>
      <trkpt lat="43.03976" lon="0.64135">
        <ele>496</ele>
        <time>2022-09-04T13:26:03Z</time>
      </trkpt>
      <trkpt lat="43.03977" lon="0.64124">
        <ele>496</ele>
        <time>2022-09-04T13:26:05Z</time>
      </trkpt>
      <trkpt lat="43.03985" lon="0.64093">
        <ele>496.6</ele>
        <time>2022-09-04T13:26:12Z</time>
      </trkpt>
      <trkpt lat="43.03992" lon="0.64067">
        <ele>496.8</ele>
        <time>2022-09-04T13:26:18Z</time>
      </trkpt>
      <trkpt lat="43.03993" lon="0.64063">
        <ele>497</ele>
        <time>2022-09-04T13:26:19Z</time>
      </trkpt>
      <trkpt lat="43.03997" lon="0.64034">
        <ele>497.4</ele>
        <time>2022-09-04T13:26:25Z</time>
      </trkpt>
      <trkpt lat="43.04001" lon="0.64005">
        <ele>497.8</ele>
        <time>2022-09-04T13:26:31Z</time>
      </trkpt>
      <trkpt lat="43.04003" lon="0.63983">
        <ele>498</ele>
        <time>2022-09-04T13:26:35Z</time>
      </trkpt>
      <trkpt lat="43.04004" lon="0.63971">
        <ele>498</ele>
        <time>2022-09-04T13:26:37Z</time>
      </trkpt>
      <trkpt lat="43.04003" lon="0.63925">
        <ele>498.8</ele>
        <time>2022-09-04T13:26:45Z</time>
      </trkpt>
      <trkpt lat="43.04003" lon="0.63887">
        <ele>499</ele>
        <time>2022-09-04T13:26:53Z</time>
      </trkpt>
      <trkpt lat="43.04003" lon="0.63882">
        <ele>499</ele>
        <time>2022-09-04T13:26:54Z</time>
      </trkpt>
      <trkpt lat="43.04" lon="0.63855">
        <ele>500</ele>
        <time>2022-09-04T13:27:00Z</time>
      </trkpt>
      <trkpt lat="43.03995" lon="0.63827">
        <ele>501</ele>
        <time>2022-09-04T13:27:07Z</time>
      </trkpt>
      <trkpt lat="43.03993" lon="0.6382">
        <ele>501.4</ele>
        <time>2022-09-04T13:27:09Z</time>
      </trkpt>
      <trkpt lat="43.03987" lon="0.63793">
        <ele>502.2</ele>
        <time>2022-09-04T13:27:16Z</time>
      </trkpt>
      <trkpt lat="43.03977" lon="0.63761">
        <ele>503.2</ele>
        <time>2022-09-04T13:27:25Z</time>
      </trkpt>
      <trkpt lat="43.03968" lon="0.63736">
        <ele>504</ele>
        <time>2022-09-04T13:27:32Z</time>
      </trkpt>
      <trkpt lat="43.03966" lon="0.63729">
        <ele>504.2</ele>
        <time>2022-09-04T13:27:34Z</time>
      </trkpt>
      <trkpt lat="43.0396" lon="0.63711">
        <ele>504.4</ele>
        <time>2022-09-04T13:27:39Z</time>
      </trkpt>
      <trkpt lat="43.03951" lon="0.63681">
        <ele>504.8</ele>
        <time>2022-09-04T13:27:46Z</time>
      </trkpt>
      <trkpt lat="43.03941" lon="0.63647">
        <ele>505</ele>
        <time>2022-09-04T13:27:54Z</time>
      </trkpt>
      <trkpt lat="43.03928" lon="0.63616">
        <ele>505</ele>
        <time>2022-09-04T13:28:01Z</time>
      </trkpt>
      <trkpt lat="43.03915" lon="0.63594">
        <ele>504.8</ele>
        <time>2022-09-04T13:28:06Z</time>
      </trkpt>
      <trkpt lat="43.03911" lon="0.63589">
        <ele>504.6</ele>
        <time>2022-09-04T13:28:07Z</time>
      </trkpt>
      <trkpt lat="43.03879" lon="0.63559">
        <ele>504.4</ele>
        <time>2022-09-04T13:28:15Z</time>
      </trkpt>
      <trkpt lat="43.03839" lon="0.63532">
        <ele>504.8</ele>
        <time>2022-09-04T13:28:25Z</time>
      </trkpt>
      <trkpt lat="43.03807" lon="0.63503">
        <ele>505.2</ele>
        <time>2022-09-04T13:28:34Z</time>
      </trkpt>
      <trkpt lat="43.03804" lon="0.63499">
        <ele>505.4</ele>
        <time>2022-09-04T13:28:35Z</time>
      </trkpt>
      <trkpt lat="43.03785" lon="0.63468">
        <ele>506</ele>
        <time>2022-09-04T13:28:42Z</time>
      </trkpt>
      <trkpt lat="43.03775" lon="0.63444">
        <ele>506.4</ele>
        <time>2022-09-04T13:28:47Z</time>
      </trkpt>
      <trkpt lat="43.03767" lon="0.63426">
        <ele>506.8</ele>
        <time>2022-09-04T13:28:51Z</time>
      </trkpt>
      <trkpt lat="43.03752" lon="0.6339">
        <ele>507.4</ele>
        <time>2022-09-04T13:28:59Z</time>
      </trkpt>
      <trkpt lat="43.0375" lon="0.63385">
        <ele>507.4</ele>
        <time>2022-09-04T13:29:00Z</time>
      </trkpt>
      <trkpt lat="43.03736" lon="0.63354">
        <ele>507.8</ele>
        <time>2022-09-04T13:29:07Z</time>
      </trkpt>
      <trkpt lat="43.03722" lon="0.63328">
        <ele>508.6</ele>
        <time>2022-09-04T13:29:14Z</time>
      </trkpt>
      <trkpt lat="43.0371" lon="0.63307">
        <ele>509</ele>
        <time>2022-09-04T13:29:20Z</time>
      </trkpt>
      <trkpt lat="43.037" lon="0.63289">
        <ele>509.6</ele>
        <time>2022-09-04T13:29:26Z</time>
      </trkpt>
      <trkpt lat="43.03698" lon="0.63286">
        <ele>509.8</ele>
        <time>2022-09-04T13:29:27Z</time>
      </trkpt>
      <trkpt lat="43.03686" lon="0.63266">
        <ele>510.8</ele>
        <time>2022-09-04T13:29:34Z</time>
      </trkpt>
      <trkpt lat="43.03685" lon="0.63263">
        <ele>511</ele>
        <time>2022-09-04T13:29:35Z</time>
      </trkpt>
      <trkpt lat="43.03675" lon="0.63249">
        <ele>511.6</ele>
        <time>2022-09-04T13:29:41Z</time>
      </trkpt>
      <trkpt lat="43.03673" lon="0.63246">
        <ele>511.8</ele>
        <time>2022-09-04T13:29:42Z</time>
      </trkpt>
      <trkpt lat="43.03666" lon="0.63234">
        <ele>512.6</ele>
        <time>2022-09-04T13:29:47Z</time>
      </trkpt>
      <trkpt lat="43.03661" lon="0.63225">
        <ele>513</ele>
        <time>2022-09-04T13:29:51Z</time>
      </trkpt>
      <trkpt lat="43.03656" lon="0.63218">
        <ele>513.6</ele>
        <time>2022-09-04T13:29:54Z</time>
      </trkpt>
      <trkpt lat="43.03652" lon="0.63212">
        <ele>514</ele>
        <time>2022-09-04T13:29:57Z</time>
      </trkpt>
      <trkpt lat="43.03649" lon="0.63208">
        <ele>514.4</ele>
        <time>2022-09-04T13:29:59Z</time>
      </trkpt>
      <trkpt lat="43.03643" lon="0.63201">
        <ele>515.2</ele>
        <time>2022-09-04T13:30:03Z</time>
      </trkpt>
      <trkpt lat="43.03639" lon="0.63198">
        <ele>515.6</ele>
        <time>2022-09-04T13:30:05Z</time>
      </trkpt>
      <trkpt lat="43.03631" lon="0.63187">
        <ele>516.2</ele>
        <time>2022-09-04T13:30:10Z</time>
      </trkpt>
      <trkpt lat="43.03625" lon="0.63179">
        <ele>516.8</ele>
        <time>2022-09-04T13:30:14Z</time>
      </trkpt>
      <trkpt lat="43.03625" lon="0.63177">
        <ele>516.8</ele>
        <time>2022-09-04T13:30:15Z</time>
      </trkpt>
      <trkpt lat="43.03624" lon="0.63171">
        <ele>517.2</ele>
        <time>2022-09-04T13:30:17Z</time>
      </trkpt>
      <trkpt lat="43.03622" lon="0.63166">
        <ele>517.4</ele>
        <time>2022-09-04T13:30:19Z</time>
      </trkpt>
      <trkpt lat="43.03618" lon="0.63159">
        <ele>517.6</ele>
        <time>2022-09-04T13:30:22Z</time>
      </trkpt>
      <trkpt lat="43.03615" lon="0.63155">
        <ele>517.8</ele>
        <time>2022-09-04T13:30:24Z</time>
      </trkpt>
      <trkpt lat="43.03608" lon="0.63143">
        <ele>518.4</ele>
        <time>2022-09-04T13:30:29Z</time>
      </trkpt>
      <trkpt lat="43.03607" lon="0.63141">
        <ele>518.4</ele>
        <time>2022-09-04T13:30:30Z</time>
      </trkpt>
      <trkpt lat="43.03606" lon="0.63138">
        <ele>518.6</ele>
        <time>2022-09-04T13:30:31Z</time>
      </trkpt>
      <trkpt lat="43.03603" lon="0.63131">
        <ele>519</ele>
        <time>2022-09-04T13:30:34Z</time>
      </trkpt>
      <trkpt lat="43.036" lon="0.63124">
        <ele>519.2</ele>
        <time>2022-09-04T13:30:37Z</time>
      </trkpt>
      <trkpt lat="43.03599" lon="0.63122">
        <ele>519.4</ele>
        <time>2022-09-04T13:30:38Z</time>
      </trkpt>
      <trkpt lat="43.03597" lon="0.63118">
        <ele>519.6</ele>
        <time>2022-09-04T13:30:40Z</time>
      </trkpt>
      <trkpt lat="43.03595" lon="0.63116">
        <ele>519.8</ele>
        <time>2022-09-04T13:30:41Z</time>
      </trkpt>
      <trkpt lat="43.03586" lon="0.63101">
        <ele>520</ele>
        <time>2022-09-04T13:30:49Z</time>
      </trkpt>
      <trkpt lat="43.03581" lon="0.6309">
        <ele>520.2</ele>
        <time>2022-09-04T13:30:53Z</time>
      </trkpt>
      <trkpt lat="43.0358" lon="0.63087">
        <ele>520.2</ele>
        <time>2022-09-04T13:30:54Z</time>
      </trkpt>
      <trkpt lat="43.03569" lon="0.6307">
        <ele>520.2</ele>
        <time>2022-09-04T13:31:00Z</time>
      </trkpt>
      <trkpt lat="43.03562" lon="0.63055">
        <ele>520.4</ele>
        <time>2022-09-04T13:31:05Z</time>
      </trkpt>
      <trkpt lat="43.0356" lon="0.63052">
        <ele>520.6</ele>
        <time>2022-09-04T13:31:06Z</time>
      </trkpt>
      <trkpt lat="43.03549" lon="0.63028">
        <ele>520.8</ele>
        <time>2022-09-04T13:31:13Z</time>
      </trkpt>
      <trkpt lat="43.03541" lon="0.63007">
        <ele>521.4</ele>
        <time>2022-09-04T13:31:19Z</time>
      </trkpt>
      <trkpt lat="43.0354" lon="0.63004">
        <ele>521.6</ele>
        <time>2022-09-04T13:31:20Z</time>
      </trkpt>
      <trkpt lat="43.03535" lon="0.62991">
        <ele>522.4</ele>
        <time>2022-09-04T13:31:25Z</time>
      </trkpt>
      <trkpt lat="43.03535" lon="0.62986">
        <ele>522.6</ele>
        <time>2022-09-04T13:31:27Z</time>
      </trkpt>
      <trkpt lat="43.03534" lon="0.62976">
        <ele>523.2</ele>
        <time>2022-09-04T13:31:31Z</time>
      </trkpt>
      <trkpt lat="43.03534" lon="0.62972">
        <ele>523.8</ele>
        <time>2022-09-04T13:31:33Z</time>
      </trkpt>
      <trkpt lat="43.03534" lon="0.62963">
        <ele>524.2</ele>
        <time>2022-09-04T13:31:37Z</time>
      </trkpt>
      <trkpt lat="43.03534" lon="0.62954">
        <ele>524.8</ele>
        <time>2022-09-04T13:31:41Z</time>
      </trkpt>
      <trkpt lat="43.03534" lon="0.62946">
        <ele>525</ele>
        <time>2022-09-04T13:31:44Z</time>
      </trkpt>
      <trkpt lat="43.03531" lon="0.62934">
        <ele>525.8</ele>
        <time>2022-09-04T13:31:49Z</time>
      </trkpt>
      <trkpt lat="43.0353" lon="0.62931">
        <ele>526</ele>
        <time>2022-09-04T13:31:50Z</time>
      </trkpt>
      <trkpt lat="43.03531" lon="0.62919">
        <ele>526.6</ele>
        <time>2022-09-04T13:31:55Z</time>
      </trkpt>
      <trkpt lat="43.0353" lon="0.62913">
        <ele>527</ele>
        <time>2022-09-04T13:31:57Z</time>
      </trkpt>
      <trkpt lat="43.03525" lon="0.62899">
        <ele>527.4</ele>
        <time>2022-09-04T13:32:01Z</time>
      </trkpt>
      <trkpt lat="43.03518" lon="0.62884">
        <ele>528</ele>
        <time>2022-09-04T13:32:05Z</time>
      </trkpt>
      <trkpt lat="43.03517" lon="0.62881">
        <ele>528.2</ele>
        <time>2022-09-04T13:32:06Z</time>
      </trkpt>
      <trkpt lat="43.03517" lon="0.62878">
        <ele>528.2</ele>
        <time>2022-09-04T13:32:07Z</time>
      </trkpt>
      <trkpt lat="43.0351" lon="0.6286">
        <ele>528.6</ele>
        <time>2022-09-04T13:32:13Z</time>
      </trkpt>
      <trkpt lat="43.03505" lon="0.62837">
        <ele>528</ele>
        <time>2022-09-04T13:32:18Z</time>
      </trkpt>
      <trkpt lat="43.03503" lon="0.62832">
        <ele>527.8</ele>
        <time>2022-09-04T13:32:19Z</time>
      </trkpt>
      <trkpt lat="43.03495" lon="0.62816">
        <ele>526.8</ele>
        <time>2022-09-04T13:32:22Z</time>
      </trkpt>
      <trkpt lat="43.03492" lon="0.62811">
        <ele>526.4</ele>
        <time>2022-09-04T13:32:23Z</time>
      </trkpt>
      <trkpt lat="43.03489" lon="0.62805">
        <ele>525.8</ele>
        <time>2022-09-04T13:32:25Z</time>
      </trkpt>
      <trkpt lat="43.03481" lon="0.62793">
        <ele>525</ele>
        <time>2022-09-04T13:33:33Z</time>
      </trkpt>
      <trkpt lat="43.03475" lon="0.62783">
        <ele>524.6</ele>
        <time>2022-09-04T13:33:35Z</time>
      </trkpt>
      <trkpt lat="43.03468" lon="0.6277">
        <ele>524.2</ele>
        <time>2022-09-04T13:33:37Z</time>
      </trkpt>
      <trkpt lat="43.03462" lon="0.62754">
        <ele>523.6</ele>
        <time>2022-09-04T13:33:39Z</time>
      </trkpt>
      <trkpt lat="43.03454" lon="0.62726">
        <ele>522.4</ele>
        <time>2022-09-04T13:33:42Z</time>
      </trkpt>
      <trkpt lat="43.03452" lon="0.62716">
        <ele>522</ele>
        <time>2022-09-04T13:33:43Z</time>
      </trkpt>
      <trkpt lat="43.0345" lon="0.62705">
        <ele>521.4</ele>
        <time>2022-09-04T13:33:44Z</time>
      </trkpt>
      <trkpt lat="43.03448" lon="0.62694">
        <ele>520.8</ele>
        <time>2022-09-04T13:33:45Z</time>
      </trkpt>
      <trkpt lat="43.03445" lon="0.62683">
        <ele>520.2</ele>
        <time>2022-09-04T13:33:46Z</time>
      </trkpt>
      <trkpt lat="43.03441" lon="0.62672">
        <ele>520</ele>
        <time>2022-09-04T13:33:47Z</time>
      </trkpt>
      <trkpt lat="43.03424" lon="0.62628">
        <ele>518.8</ele>
        <time>2022-09-04T13:33:51Z</time>
      </trkpt>
      <trkpt lat="43.03415" lon="0.62608">
        <ele>517.2</ele>
        <time>2022-09-04T13:33:53Z</time>
      </trkpt>
      <trkpt lat="43.03411" lon="0.62599">
        <ele>515.4</ele>
        <time>2022-09-04T13:33:54Z</time>
      </trkpt>
      <trkpt lat="43.03404" lon="0.62585">
        <ele>513.4</ele>
        <time>2022-09-04T13:33:56Z</time>
      </trkpt>
      <trkpt lat="43.03401" lon="0.6258">
        <ele>512.6</ele>
        <time>2022-09-04T13:33:57Z</time>
      </trkpt>
      <trkpt lat="43.03399" lon="0.62577">
        <ele>512.2</ele>
        <time>2022-09-04T13:33:58Z</time>
      </trkpt>
      <trkpt lat="43.03396" lon="0.62571">
        <ele>511.8</ele>
        <time>2022-09-04T13:34:00Z</time>
      </trkpt>
      <trkpt lat="43.03377" lon="0.62564">
        <ele>511.2</ele>
        <time>2022-09-04T13:34:05Z</time>
      </trkpt>
      <trkpt lat="43.03365" lon="0.62562">
        <ele>510.2</ele>
        <time>2022-09-04T13:34:08Z</time>
      </trkpt>
      <trkpt lat="43.0336" lon="0.6256">
        <ele>509.8</ele>
        <time>2022-09-04T13:34:09Z</time>
      </trkpt>
      <trkpt lat="43.03356" lon="0.62554">
        <ele>509.4</ele>
        <time>2022-09-04T13:34:10Z</time>
      </trkpt>
      <trkpt lat="43.03348" lon="0.6254">
        <ele>508.8</ele>
        <time>2022-09-04T13:34:12Z</time>
      </trkpt>
      <trkpt lat="43.03337" lon="0.62527">
        <ele>508</ele>
        <time>2022-09-04T13:34:14Z</time>
      </trkpt>
      <trkpt lat="43.03333" lon="0.62521">
        <ele>507.6</ele>
        <time>2022-09-04T13:34:15Z</time>
      </trkpt>
      <trkpt lat="43.03329" lon="0.62515">
        <ele>507</ele>
        <time>2022-09-04T13:34:16Z</time>
      </trkpt>
      <trkpt lat="43.03325" lon="0.62508">
        <ele>506.2</ele>
        <time>2022-09-04T13:34:17Z</time>
      </trkpt>
      <trkpt lat="43.03322" lon="0.62502">
        <ele>505.2</ele>
        <time>2022-09-04T13:34:18Z</time>
      </trkpt>
      <trkpt lat="43.03308" lon="0.6248">
        <ele>504.8</ele>
        <time>2022-09-04T13:34:22Z</time>
      </trkpt>
      <trkpt lat="43.03303" lon="0.62469">
        <ele>504.8</ele>
        <time>2022-09-04T13:34:24Z</time>
      </trkpt>
      <trkpt lat="43.03292" lon="0.62435">
        <ele>504.4</ele>
        <time>2022-09-04T13:34:30Z</time>
      </trkpt>
      <trkpt lat="43.0329" lon="0.6243">
        <ele>504.4</ele>
        <time>2022-09-04T13:34:31Z</time>
      </trkpt>
      <trkpt lat="43.03286" lon="0.62419">
        <ele>504</ele>
        <time>2022-09-04T13:34:33Z</time>
      </trkpt>
      <trkpt lat="43.03284" lon="0.62407">
        <ele>503.8</ele>
        <time>2022-09-04T13:34:35Z</time>
      </trkpt>
      <trkpt lat="43.03282" lon="0.62392">
        <ele>503.4</ele>
        <time>2022-09-04T13:34:37Z</time>
      </trkpt>
      <trkpt lat="43.03281" lon="0.62384">
        <ele>503</ele>
        <time>2022-09-04T13:34:38Z</time>
      </trkpt>
      <trkpt lat="43.03281" lon="0.62375">
        <ele>502.6</ele>
        <time>2022-09-04T13:34:39Z</time>
      </trkpt>
      <trkpt lat="43.03282" lon="0.62356">
        <ele>502</ele>
        <time>2022-09-04T13:34:41Z</time>
      </trkpt>
      <trkpt lat="43.03283" lon="0.62348">
        <ele>500.8</ele>
        <time>2022-09-04T13:34:42Z</time>
      </trkpt>
      <trkpt lat="43.03284" lon="0.62332">
        <ele>499.4</ele>
        <time>2022-09-04T13:34:44Z</time>
      </trkpt>
      <trkpt lat="43.03286" lon="0.6232">
        <ele>498</ele>
        <time>2022-09-04T13:34:46Z</time>
      </trkpt>
      <trkpt lat="43.03285" lon="0.62308">
        <ele>497.2</ele>
        <time>2022-09-04T13:34:48Z</time>
      </trkpt>
      <trkpt lat="43.03284" lon="0.62303">
        <ele>496.8</ele>
        <time>2022-09-04T13:34:49Z</time>
      </trkpt>
      <trkpt lat="43.03282" lon="0.62284">
        <ele>495.6</ele>
        <time>2022-09-04T13:34:52Z</time>
      </trkpt>
      <trkpt lat="43.0328" lon="0.62277">
        <ele>495.2</ele>
        <time>2022-09-04T13:34:53Z</time>
      </trkpt>
      <trkpt lat="43.03276" lon="0.62261">
        <ele>494.2</ele>
        <time>2022-09-04T13:34:55Z</time>
      </trkpt>
      <trkpt lat="43.03272" lon="0.62245">
        <ele>493</ele>
        <time>2022-09-04T13:34:57Z</time>
      </trkpt>
      <trkpt lat="43.03268" lon="0.62229">
        <ele>491.8</ele>
        <time>2022-09-04T13:34:59Z</time>
      </trkpt>
      <trkpt lat="43.03266" lon="0.62215">
        <ele>490</ele>
        <time>2022-09-04T13:35:01Z</time>
      </trkpt>
      <trkpt lat="43.03266" lon="0.62202">
        <ele>488.8</ele>
        <time>2022-09-04T13:35:03Z</time>
      </trkpt>
      <trkpt lat="43.03269" lon="0.62188">
        <ele>487.6</ele>
        <time>2022-09-04T13:35:05Z</time>
      </trkpt>
      <trkpt lat="43.03272" lon="0.62181">
        <ele>487</ele>
        <time>2022-09-04T13:35:06Z</time>
      </trkpt>
      <trkpt lat="43.03281" lon="0.62169">
        <ele>486.4</ele>
        <time>2022-09-04T13:35:08Z</time>
      </trkpt>
      <trkpt lat="43.03292" lon="0.62159">
        <ele>486.2</ele>
        <time>2022-09-04T13:35:10Z</time>
      </trkpt>
      <trkpt lat="43.03317" lon="0.62139">
        <ele>485.6</ele>
        <time>2022-09-04T13:35:14Z</time>
      </trkpt>
      <trkpt lat="43.03323" lon="0.62135">
        <ele>485.4</ele>
        <time>2022-09-04T13:35:15Z</time>
      </trkpt>
      <trkpt lat="43.0333" lon="0.6213">
        <ele>485.4</ele>
        <time>2022-09-04T13:35:16Z</time>
      </trkpt>
      <trkpt lat="43.03343" lon="0.62119">
        <ele>485</ele>
        <time>2022-09-04T13:35:18Z</time>
      </trkpt>
      <trkpt lat="43.03353" lon="0.62104">
        <ele>484.8</ele>
        <time>2022-09-04T13:35:20Z</time>
      </trkpt>
      <trkpt lat="43.03366" lon="0.6208">
        <ele>484.4</ele>
        <time>2022-09-04T13:35:23Z</time>
      </trkpt>
      <trkpt lat="43.03372" lon="0.62074">
        <ele>484.2</ele>
        <time>2022-09-04T13:35:24Z</time>
      </trkpt>
      <trkpt lat="43.03377" lon="0.62067">
        <ele>484.2</ele>
        <time>2022-09-04T13:35:25Z</time>
      </trkpt>
      <trkpt lat="43.03404" lon="0.6204">
        <ele>483.2</ele>
        <time>2022-09-04T13:35:29Z</time>
      </trkpt>
      <trkpt lat="43.03412" lon="0.62032">
        <ele>482</ele>
        <time>2022-09-04T13:35:30Z</time>
      </trkpt>
      <trkpt lat="43.03426" lon="0.62015">
        <ele>481</ele>
        <time>2022-09-04T13:35:32Z</time>
      </trkpt>
      <trkpt lat="43.03446" lon="0.61985">
        <ele>480.2</ele>
        <time>2022-09-04T13:35:35Z</time>
      </trkpt>
      <trkpt lat="43.03456" lon="0.61961">
        <ele>479.6</ele>
        <time>2022-09-04T13:35:37Z</time>
      </trkpt>
      <trkpt lat="43.03461" lon="0.61949">
        <ele>478.6</ele>
        <time>2022-09-04T13:35:38Z</time>
      </trkpt>
      <trkpt lat="43.03465" lon="0.61935">
        <ele>478</ele>
        <time>2022-09-04T13:35:39Z</time>
      </trkpt>
      <trkpt lat="43.03473" lon="0.6191">
        <ele>477.6</ele>
        <time>2022-09-04T13:35:41Z</time>
      </trkpt>
      <trkpt lat="43.03485" lon="0.61876">
        <ele>476.8</ele>
        <time>2022-09-04T13:35:44Z</time>
      </trkpt>
      <trkpt lat="43.03493" lon="0.61854">
        <ele>476.4</ele>
        <time>2022-09-04T13:35:46Z</time>
      </trkpt>
      <trkpt lat="43.03509" lon="0.61811">
        <ele>475.2</ele>
        <time>2022-09-04T13:35:50Z</time>
      </trkpt>
      <trkpt lat="43.03518" lon="0.6179">
        <ele>475</ele>
        <time>2022-09-04T13:35:52Z</time>
      </trkpt>
      <trkpt lat="43.03543" lon="0.61733">
        <ele>474.2</ele>
        <time>2022-09-04T13:35:58Z</time>
      </trkpt>
      <trkpt lat="43.03549" lon="0.61694">
        <ele>474</ele>
        <time>2022-09-04T13:36:02Z</time>
      </trkpt>
      <trkpt lat="43.0355" lon="0.61655">
        <ele>473</ele>
        <time>2022-09-04T13:36:06Z</time>
      </trkpt>
      <trkpt lat="43.03551" lon="0.61633">
        <ele>472.2</ele>
        <time>2022-09-04T13:36:08Z</time>
      </trkpt>
      <trkpt lat="43.03551" lon="0.61622">
        <ele>472</ele>
        <time>2022-09-04T13:36:09Z</time>
      </trkpt>
      <trkpt lat="43.03558" lon="0.61547">
        <ele>470.8</ele>
        <time>2022-09-04T13:36:16Z</time>
      </trkpt>
      <trkpt lat="43.03561" lon="0.61528">
        <ele>470.6</ele>
        <time>2022-09-04T13:36:18Z</time>
      </trkpt>
      <trkpt lat="43.03562" lon="0.61511">
        <ele>470.6</ele>
        <time>2022-09-04T13:36:20Z</time>
      </trkpt>
      <trkpt lat="43.03562" lon="0.61503">
        <ele>470.6</ele>
        <time>2022-09-04T13:36:21Z</time>
      </trkpt>
      <trkpt lat="43.03558" lon="0.61483">
        <ele>471</ele>
        <time>2022-09-04T13:36:24Z</time>
      </trkpt>
      <trkpt lat="43.0355" lon="0.61448">
        <ele>470.8</ele>
        <time>2022-09-04T13:36:30Z</time>
      </trkpt>
      <trkpt lat="43.03541" lon="0.61411">
        <ele>471</ele>
        <time>2022-09-04T13:36:37Z</time>
      </trkpt>
      <trkpt lat="43.03541" lon="0.6138">
        <ele>472</ele>
        <time>2022-09-04T13:36:43Z</time>
      </trkpt>
      <trkpt lat="43.03544" lon="0.61348">
        <ele>473.2</ele>
        <time>2022-09-04T13:36:51Z</time>
      </trkpt>
      <trkpt lat="43.03544" lon="0.6133">
        <ele>474.2</ele>
        <time>2022-09-04T13:36:56Z</time>
      </trkpt>
      <trkpt lat="43.03544" lon="0.61326">
        <ele>474.4</ele>
        <time>2022-09-04T13:36:57Z</time>
      </trkpt>
      <trkpt lat="43.03541" lon="0.61306">
        <ele>475</ele>
        <time>2022-09-04T13:37:03Z</time>
      </trkpt>
      <trkpt lat="43.03539" lon="0.613">
        <ele>475.2</ele>
        <time>2022-09-04T13:37:05Z</time>
      </trkpt>
      <trkpt lat="43.03536" lon="0.61287">
        <ele>475.6</ele>
        <time>2022-09-04T13:37:09Z</time>
      </trkpt>
      <trkpt lat="43.03533" lon="0.61259">
        <ele>476</ele>
        <time>2022-09-04T13:37:17Z</time>
      </trkpt>
      <trkpt lat="43.03532" lon="0.61244">
        <ele>476.2</ele>
        <time>2022-09-04T13:37:21Z</time>
      </trkpt>
      <trkpt lat="43.03532" lon="0.61231">
        <ele>476.4</ele>
        <time>2022-09-04T13:37:24Z</time>
      </trkpt>
      <trkpt lat="43.03535" lon="0.61188">
        <ele>475.8</ele>
        <time>2022-09-04T13:37:32Z</time>
      </trkpt>
      <trkpt lat="43.03538" lon="0.61174">
        <ele>475.4</ele>
        <time>2022-09-04T13:37:34Z</time>
      </trkpt>
      <trkpt lat="43.03544" lon="0.61158">
        <ele>475.6</ele>
        <time>2022-09-04T13:37:36Z</time>
      </trkpt>
      <trkpt lat="43.03552" lon="0.61142">
        <ele>474.4</ele>
        <time>2022-09-04T13:37:38Z</time>
      </trkpt>
      <trkpt lat="43.03557" lon="0.61134">
        <ele>474</ele>
        <time>2022-09-04T13:37:39Z</time>
      </trkpt>
      <trkpt lat="43.03562" lon="0.61125">
        <ele>473.4</ele>
        <time>2022-09-04T13:37:40Z</time>
      </trkpt>
      <trkpt lat="43.03572" lon="0.61105">
        <ele>472</ele>
        <time>2022-09-04T13:37:42Z</time>
      </trkpt>
      <trkpt lat="43.03592" lon="0.61063">
        <ele>470.6</ele>
        <time>2022-09-04T13:37:46Z</time>
      </trkpt>
      <trkpt lat="43.03601" lon="0.61039">
        <ele>469.2</ele>
        <time>2022-09-04T13:37:48Z</time>
      </trkpt>
      <trkpt lat="43.03604" lon="0.61027">
        <ele>468.6</ele>
        <time>2022-09-04T13:37:49Z</time>
      </trkpt>
      <trkpt lat="43.03607" lon="0.61014">
        <ele>468.6</ele>
        <time>2022-09-04T13:37:50Z</time>
      </trkpt>
      <trkpt lat="43.03615" lon="0.60954">
        <ele>468</ele>
        <time>2022-09-04T13:37:55Z</time>
      </trkpt>
      <trkpt lat="43.03616" lon="0.60943">
        <ele>467.8</ele>
        <time>2022-09-04T13:37:56Z</time>
      </trkpt>
      <trkpt lat="43.03629" lon="0.60881">
        <ele>467.8</ele>
        <time>2022-09-04T13:38:02Z</time>
      </trkpt>
      <trkpt lat="43.03645" lon="0.60841">
        <ele>468</ele>
        <time>2022-09-04T13:38:07Z</time>
      </trkpt>
      <trkpt lat="43.0366" lon="0.60802">
        <ele>468.4</ele>
        <time>2022-09-04T13:38:13Z</time>
      </trkpt>
      <trkpt lat="43.03668" lon="0.608">
        <ele>468.8</ele>
        <time>2022-09-04T13:38:15Z</time>
      </trkpt>
      <trkpt lat="43.03672" lon="0.60802">
        <ele>469</ele>
        <time>2022-09-04T13:38:16Z</time>
      </trkpt>
      <trkpt lat="43.0368" lon="0.60812">
        <ele>469</ele>
        <time>2022-09-04T13:38:18Z</time>
      </trkpt>
      <trkpt lat="43.03689" lon="0.60822">
        <ele>468.4</ele>
        <time>2022-09-04T13:38:20Z</time>
      </trkpt>
      <trkpt lat="43.037" lon="0.60828">
        <ele>468.2</ele>
        <time>2022-09-04T13:38:22Z</time>
      </trkpt>
      <trkpt lat="43.03706" lon="0.60829">
        <ele>468</ele>
        <time>2022-09-04T13:38:23Z</time>
      </trkpt>
      <trkpt lat="43.03719" lon="0.60826">
        <ele>467.8</ele>
        <time>2022-09-04T13:38:25Z</time>
      </trkpt>
      <trkpt lat="43.03735" lon="0.60811">
        <ele>467.8</ele>
        <time>2022-09-04T13:38:28Z</time>
      </trkpt>
      <trkpt lat="43.03746" lon="0.60778">
        <ele>468.6</ele>
        <time>2022-09-04T13:38:32Z</time>
      </trkpt>
      <trkpt lat="43.03747" lon="0.6077">
        <ele>468.6</ele>
        <time>2022-09-04T13:38:33Z</time>
      </trkpt>
      <trkpt lat="43.03756" lon="0.60708">
        <ele>468.2</ele>
        <time>2022-09-04T13:38:40Z</time>
      </trkpt>
      <trkpt lat="43.03767" lon="0.60631">
        <ele>468.4</ele>
        <time>2022-09-04T13:38:49Z</time>
      </trkpt>
      <trkpt lat="43.03778" lon="0.60558">
        <ele>468</ele>
        <time>2022-09-04T13:38:58Z</time>
      </trkpt>
      <trkpt lat="43.03787" lon="0.60508">
        <ele>468</ele>
        <time>2022-09-04T13:39:05Z</time>
      </trkpt>
      <trkpt lat="43.03801" lon="0.60464">
        <ele>468</ele>
        <time>2022-09-04T13:39:12Z</time>
      </trkpt>
      <trkpt lat="43.03819" lon="0.60438">
        <ele>468.4</ele>
        <time>2022-09-04T13:39:17Z</time>
      </trkpt>
      <trkpt lat="43.03823" lon="0.60434">
        <ele>468.4</ele>
        <time>2022-09-04T13:39:18Z</time>
      </trkpt>
      <trkpt lat="43.03847" lon="0.60421">
        <ele>468.4</ele>
        <time>2022-09-04T13:39:23Z</time>
      </trkpt>
      <trkpt lat="43.03857" lon="0.60421">
        <ele>468.4</ele>
        <time>2022-09-04T13:39:25Z</time>
      </trkpt>
      <trkpt lat="43.03872" lon="0.6042">
        <ele>468.4</ele>
        <time>2022-09-04T13:39:28Z</time>
      </trkpt>
      <trkpt lat="43.03876" lon="0.60419">
        <ele>468.4</ele>
        <time>2022-09-04T13:39:29Z</time>
      </trkpt>
      <trkpt lat="43.03887" lon="0.60408">
        <ele>468.2</ele>
        <time>2022-09-04T13:39:32Z</time>
      </trkpt>
      <trkpt lat="43.03897" lon="0.60378">
        <ele>468.2</ele>
        <time>2022-09-04T13:39:37Z</time>
      </trkpt>
      <trkpt lat="43.03903" lon="0.60354">
        <ele>468.4</ele>
        <time>2022-09-04T13:39:41Z</time>
      </trkpt>
      <trkpt lat="43.03905" lon="0.60348">
        <ele>468.2</ele>
        <time>2022-09-04T13:39:42Z</time>
      </trkpt>
      <trkpt lat="43.03908" lon="0.60336">
        <ele>468.4</ele>
        <time>2022-09-04T13:39:44Z</time>
      </trkpt>
      <trkpt lat="43.03921" lon="0.6028">
        <ele>467.8</ele>
        <time>2022-09-04T13:39:53Z</time>
      </trkpt>
      <trkpt lat="43.03933" lon="0.60237">
        <ele>467.8</ele>
        <time>2022-09-04T13:40:00Z</time>
      </trkpt>
      <trkpt lat="43.03952" lon="0.6019">
        <ele>467.6</ele>
        <time>2022-09-04T13:40:08Z</time>
      </trkpt>
      <trkpt lat="43.03972" lon="0.60152">
        <ele>468.4</ele>
        <time>2022-09-04T13:40:15Z</time>
      </trkpt>
      <trkpt lat="43.03991" lon="0.60115">
        <ele>468.2</ele>
        <time>2022-09-04T13:40:22Z</time>
      </trkpt>
      <trkpt lat="43.0401" lon="0.60075">
        <ele>467.4</ele>
        <time>2022-09-04T13:40:29Z</time>
      </trkpt>
      <trkpt lat="43.04024" lon="0.60048">
        <ele>467.4</ele>
        <time>2022-09-04T13:40:34Z</time>
      </trkpt>
      <trkpt lat="43.04033" lon="0.60025">
        <ele>467.4</ele>
        <time>2022-09-04T13:40:38Z</time>
      </trkpt>
      <trkpt lat="43.04035" lon="0.6002">
        <ele>467.4</ele>
        <time>2022-09-04T13:40:39Z</time>
      </trkpt>
      <trkpt lat="43.04044" lon="0.59994">
        <ele>467.4</ele>
        <time>2022-09-04T13:40:44Z</time>
      </trkpt>
      <trkpt lat="43.04046" lon="0.59988">
        <ele>467.2</ele>
        <time>2022-09-04T13:40:45Z</time>
      </trkpt>
      <trkpt lat="43.04054" lon="0.59961">
        <ele>467.6</ele>
        <time>2022-09-04T13:40:50Z</time>
      </trkpt>
      <trkpt lat="43.04061" lon="0.59944">
        <ele>467.6</ele>
        <time>2022-09-04T13:40:53Z</time>
      </trkpt>
      <trkpt lat="43.04066" lon="0.59932">
        <ele>467.6</ele>
        <time>2022-09-04T13:40:55Z</time>
      </trkpt>
      <trkpt lat="43.04085" lon="0.59889">
        <ele>468</ele>
        <time>2022-09-04T13:41:02Z</time>
      </trkpt>
      <trkpt lat="43.04106" lon="0.59848">
        <ele>467.8</ele>
        <time>2022-09-04T13:41:09Z</time>
      </trkpt>
      <trkpt lat="43.04126" lon="0.59804">
        <ele>467.8</ele>
        <time>2022-09-04T13:41:17Z</time>
      </trkpt>
      <trkpt lat="43.04147" lon="0.59749">
        <ele>468</ele>
        <time>2022-09-04T13:41:26Z</time>
      </trkpt>
      <trkpt lat="43.04163" lon="0.59703">
        <ele>467.8</ele>
        <time>2022-09-04T13:41:34Z</time>
      </trkpt>
      <trkpt lat="43.04179" lon="0.5965">
        <ele>467.6</ele>
        <time>2022-09-04T13:41:43Z</time>
      </trkpt>
      <trkpt lat="43.04186" lon="0.59617">
        <ele>467.8</ele>
        <time>2022-09-04T13:41:49Z</time>
      </trkpt>
      <trkpt lat="43.04193" lon="0.59591">
        <ele>467.6</ele>
        <time>2022-09-04T13:41:55Z</time>
      </trkpt>
      <trkpt lat="43.04198" lon="0.59576">
        <ele>467.4</ele>
        <time>2022-09-04T13:42:00Z</time>
      </trkpt>
      <trkpt lat="43.04199" lon="0.5957">
        <ele>467.6</ele>
        <time>2022-09-04T13:42:20Z</time>
      </trkpt>
      <trkpt lat="43.04201" lon="0.59566">
        <ele>467.4</ele>
        <time>2022-09-04T13:42:21Z</time>
      </trkpt>
      <trkpt lat="43.04215" lon="0.59546">
        <ele>468</ele>
        <time>2022-09-04T13:42:26Z</time>
      </trkpt>
      <trkpt lat="43.04242" lon="0.59514">
        <ele>467.8</ele>
        <time>2022-09-04T13:42:35Z</time>
      </trkpt>
      <trkpt lat="43.04267" lon="0.59486">
        <ele>468.2</ele>
        <time>2022-09-04T13:42:43Z</time>
      </trkpt>
      <trkpt lat="43.04304" lon="0.59446">
        <ele>468.6</ele>
        <time>2022-09-04T13:42:54Z</time>
      </trkpt>
      <trkpt lat="43.04323" lon="0.59423">
        <ele>468.4</ele>
        <time>2022-09-04T13:43:01Z</time>
      </trkpt>
      <trkpt lat="43.04335" lon="0.59404">
        <ele>468.8</ele>
        <time>2022-09-04T13:43:07Z</time>
      </trkpt>
      <trkpt lat="43.04336" lon="0.59396">
        <ele>469.2</ele>
        <time>2022-09-04T13:43:09Z</time>
      </trkpt>
      <trkpt lat="43.04341" lon="0.59382">
        <ele>469</ele>
        <time>2022-09-04T13:43:12Z</time>
      </trkpt>
      <trkpt lat="43.04367" lon="0.59334">
        <ele>469.2</ele>
        <time>2022-09-04T13:43:23Z</time>
      </trkpt>
      <trkpt lat="43.04371" lon="0.59309">
        <ele>469.6</ele>
        <time>2022-09-04T13:43:28Z</time>
      </trkpt>
      <trkpt lat="43.04363" lon="0.59299">
        <ele>469.2</ele>
        <time>2022-09-04T13:43:31Z</time>
      </trkpt>
      <trkpt lat="43.04348" lon="0.59294">
        <ele>468.8</ele>
        <time>2022-09-04T13:43:35Z</time>
      </trkpt>
      <trkpt lat="43.04346" lon="0.59279">
        <ele>468.8</ele>
        <time>2022-09-04T13:43:38Z</time>
      </trkpt>
      <trkpt lat="43.04346" lon="0.59261">
        <ele>468.6</ele>
        <time>2022-09-04T13:43:41Z</time>
      </trkpt>
      <trkpt lat="43.04344" lon="0.59244">
        <ele>468.6</ele>
        <time>2022-09-04T13:43:44Z</time>
      </trkpt>
      <trkpt lat="43.04349" lon="0.59237">
        <ele>468.4</ele>
        <time>2022-09-04T13:43:46Z</time>
      </trkpt>
      <trkpt lat="43.04361" lon="0.59236">
        <ele>468.4</ele>
        <time>2022-09-04T13:43:49Z</time>
      </trkpt>
      <trkpt lat="43.0437" lon="0.59235">
        <ele>468.4</ele>
        <time>2022-09-04T13:43:51Z</time>
      </trkpt>
      <trkpt lat="43.0439" lon="0.59222">
        <ele>468.6</ele>
        <time>2022-09-04T13:43:56Z</time>
      </trkpt>
      <trkpt lat="43.04398" lon="0.59214">
        <ele>468.8</ele>
        <time>2022-09-04T13:43:58Z</time>
      </trkpt>
      <trkpt lat="43.04414" lon="0.59195">
        <ele>469.2</ele>
        <time>2022-09-04T13:44:02Z</time>
      </trkpt>
      <trkpt lat="43.04428" lon="0.59175">
        <ele>469.4</ele>
        <time>2022-09-04T13:44:06Z</time>
      </trkpt>
      <trkpt lat="43.04443" lon="0.59157">
        <ele>469.2</ele>
        <time>2022-09-04T13:44:10Z</time>
      </trkpt>
      <trkpt lat="43.04472" lon="0.59127">
        <ele>469.2</ele>
        <time>2022-09-04T13:44:18Z</time>
      </trkpt>
      <trkpt lat="43.04507" lon="0.59094">
        <ele>469.8</ele>
        <time>2022-09-04T13:44:27Z</time>
      </trkpt>
      <trkpt lat="43.04524" lon="0.59081">
        <ele>470.2</ele>
        <time>2022-09-04T13:44:31Z</time>
      </trkpt>
      <trkpt lat="43.04541" lon="0.59069">
        <ele>470.2</ele>
        <time>2022-09-04T13:44:35Z</time>
      </trkpt>
      <trkpt lat="43.04579" lon="0.59046">
        <ele>470</ele>
        <time>2022-09-04T13:44:44Z</time>
      </trkpt>
      <trkpt lat="43.04601" lon="0.59033">
        <ele>469.2</ele>
        <time>2022-09-04T13:44:49Z</time>
      </trkpt>
      <trkpt lat="43.0461" lon="0.5903">
        <ele>469.2</ele>
        <time>2022-09-04T13:44:51Z</time>
      </trkpt>
      <trkpt lat="43.04636" lon="0.59018">
        <ele>468.8</ele>
        <time>2022-09-04T13:44:57Z</time>
      </trkpt>
      <trkpt lat="43.0466" lon="0.59011">
        <ele>468.6</ele>
        <time>2022-09-04T13:45:02Z</time>
      </trkpt>
      <trkpt lat="43.04669" lon="0.5901">
        <ele>468.6</ele>
        <time>2022-09-04T13:45:04Z</time>
      </trkpt>
      <trkpt lat="43.04694" lon="0.5901">
        <ele>469.4</ele>
        <time>2022-09-04T13:45:10Z</time>
      </trkpt>
      <trkpt lat="43.04703" lon="0.5901">
        <ele>470.4</ele>
        <time>2022-09-04T13:45:13Z</time>
      </trkpt>
      <trkpt lat="43.04705" lon="0.5901">
        <ele>470.8</ele>
        <time>2022-09-04T13:45:14Z</time>
      </trkpt>
      <trkpt lat="43.0471" lon="0.5901">
        <ele>471.6</ele>
        <time>2022-09-04T13:45:16Z</time>
      </trkpt>
      <trkpt lat="43.0472" lon="0.59009">
        <ele>472.2</ele>
        <time>2022-09-04T13:45:20Z</time>
      </trkpt>
      <trkpt lat="43.04731" lon="0.59008">
        <ele>472.6</ele>
        <time>2022-09-04T13:45:25Z</time>
      </trkpt>
      <trkpt lat="43.04736" lon="0.59009">
        <ele>472.8</ele>
        <time>2022-09-04T13:45:27Z</time>
      </trkpt>
      <trkpt lat="43.04754" lon="0.59008">
        <ele>473.4</ele>
        <time>2022-09-04T13:45:33Z</time>
      </trkpt>
      <trkpt lat="43.04756" lon="0.59009">
        <ele>473.6</ele>
        <time>2022-09-04T13:45:34Z</time>
      </trkpt>
      <trkpt lat="43.04768" lon="0.5901">
        <ele>474</ele>
        <time>2022-09-04T13:45:39Z</time>
      </trkpt>
      <trkpt lat="43.04782" lon="0.59012">
        <ele>474.8</ele>
        <time>2022-09-04T13:45:44Z</time>
      </trkpt>
      <trkpt lat="43.04789" lon="0.59013">
        <ele>474.8</ele>
        <time>2022-09-04T13:45:46Z</time>
      </trkpt>
      <trkpt lat="43.04809" lon="0.59017">
        <ele>475.4</ele>
        <time>2022-09-04T13:45:53Z</time>
      </trkpt>
      <trkpt lat="43.04826" lon="0.59021">
        <ele>475.8</ele>
        <time>2022-09-04T13:46:00Z</time>
      </trkpt>
      <trkpt lat="43.04838" lon="0.59025">
        <ele>476.4</ele>
        <time>2022-09-04T13:46:05Z</time>
      </trkpt>
      <trkpt lat="43.0484" lon="0.59024">
        <ele>476.4</ele>
        <time>2022-09-04T13:46:06Z</time>
      </trkpt>
      <trkpt lat="43.04848" lon="0.59026">
        <ele>476.8</ele>
        <time>2022-09-04T13:46:09Z</time>
      </trkpt>
      <trkpt lat="43.0485" lon="0.59027">
        <ele>476.8</ele>
        <time>2022-09-04T13:46:10Z</time>
      </trkpt>
      <trkpt lat="43.04865" lon="0.59031">
        <ele>477.8</ele>
        <time>2022-09-04T13:46:17Z</time>
      </trkpt>
      <trkpt lat="43.0488" lon="0.59035">
        <ele>479.4</ele>
        <time>2022-09-04T13:46:26Z</time>
      </trkpt>
      <trkpt lat="43.04889" lon="0.59037">
        <ele>480</ele>
        <time>2022-09-04T13:46:30Z</time>
      </trkpt>
      <trkpt lat="43.04895" lon="0.59039">
        <ele>480.4</ele>
        <time>2022-09-04T13:46:33Z</time>
      </trkpt>
      <trkpt lat="43.04903" lon="0.5904">
        <ele>481</ele>
        <time>2022-09-04T13:46:37Z</time>
      </trkpt>
      <trkpt lat="43.04913" lon="0.59041">
        <ele>481.4</ele>
        <time>2022-09-04T13:46:42Z</time>
      </trkpt>
      <trkpt lat="43.04917" lon="0.59042">
        <ele>481.8</ele>
        <time>2022-09-04T13:46:44Z</time>
      </trkpt>
      <trkpt lat="43.0493" lon="0.59044">
        <ele>482.4</ele>
        <time>2022-09-04T13:46:51Z</time>
      </trkpt>
      <trkpt lat="43.04932" lon="0.59044">
        <ele>482.6</ele>
        <time>2022-09-04T13:46:52Z</time>
      </trkpt>
      <trkpt lat="43.04947" lon="0.59049">
        <ele>483.2</ele>
        <time>2022-09-04T13:47:00Z</time>
      </trkpt>
      <trkpt lat="43.04959" lon="0.59052">
        <ele>483.6</ele>
        <time>2022-09-04T13:47:06Z</time>
      </trkpt>
      <trkpt lat="43.04962" lon="0.59053">
        <ele>483.8</ele>
        <time>2022-09-04T13:47:07Z</time>
      </trkpt>
      <trkpt lat="43.04979" lon="0.59058">
        <ele>484.2</ele>
        <time>2022-09-04T13:47:13Z</time>
      </trkpt>
      <trkpt lat="43.05" lon="0.59055">
        <ele>483.8</ele>
        <time>2022-09-04T13:47:18Z</time>
      </trkpt>
      <trkpt lat="43.05029" lon="0.59048">
        <ele>482.8</ele>
        <time>2022-09-04T13:47:23Z</time>
      </trkpt>
      <trkpt lat="43.05042" lon="0.59044">
        <ele>482.4</ele>
        <time>2022-09-04T13:47:25Z</time>
      </trkpt>
      <trkpt lat="43.05058" lon="0.5904">
        <ele>480.8</ele>
        <time>2022-09-04T13:47:27Z</time>
      </trkpt>
      <trkpt lat="43.05067" lon="0.59039">
        <ele>480</ele>
        <time>2022-09-04T13:47:28Z</time>
      </trkpt>
      <trkpt lat="43.05086" lon="0.59038">
        <ele>479.4</ele>
        <time>2022-09-04T13:47:30Z</time>
      </trkpt>
      <trkpt lat="43.05095" lon="0.59038">
        <ele>478.2</ele>
        <time>2022-09-04T13:47:31Z</time>
      </trkpt>
      <trkpt lat="43.05104" lon="0.59038">
        <ele>476.8</ele>
        <time>2022-09-04T13:47:32Z</time>
      </trkpt>
      <trkpt lat="43.05113" lon="0.59038">
        <ele>476.6</ele>
        <time>2022-09-04T13:47:33Z</time>
      </trkpt>
      <trkpt lat="43.05122" lon="0.59038">
        <ele>475.8</ele>
        <time>2022-09-04T13:47:34Z</time>
      </trkpt>
      <trkpt lat="43.0514" lon="0.59039">
        <ele>474.2</ele>
        <time>2022-09-04T13:47:36Z</time>
      </trkpt>
      <trkpt lat="43.05153" lon="0.59039">
        <ele>473</ele>
        <time>2022-09-04T13:47:38Z</time>
      </trkpt>
      <trkpt lat="43.05161" lon="0.59028">
        <ele>472</ele>
        <time>2022-09-04T13:47:40Z</time>
      </trkpt>
      <trkpt lat="43.05166" lon="0.59022">
        <ele>472</ele>
        <time>2022-09-04T13:47:41Z</time>
      </trkpt>
      <trkpt lat="43.05171" lon="0.59008">
        <ele>471.8</ele>
        <time>2022-09-04T13:47:43Z</time>
      </trkpt>
      <trkpt lat="43.05172" lon="0.59">
        <ele>471.6</ele>
        <time>2022-09-04T13:47:44Z</time>
      </trkpt>
      <trkpt lat="43.05173" lon="0.58961">
        <ele>470.8</ele>
        <time>2022-09-04T13:47:49Z</time>
      </trkpt>
      <trkpt lat="43.05173" lon="0.58945">
        <ele>470.8</ele>
        <time>2022-09-04T13:47:51Z</time>
      </trkpt>
      <trkpt lat="43.05169" lon="0.58864">
        <ele>472</ele>
        <time>2022-09-04T13:48:01Z</time>
      </trkpt>
      <trkpt lat="43.05162" lon="0.58822">
        <ele>471.8</ele>
        <time>2022-09-04T13:48:08Z</time>
      </trkpt>
      <trkpt lat="43.05156" lon="0.58781">
        <ele>472.2</ele>
        <time>2022-09-04T13:48:15Z</time>
      </trkpt>
      <trkpt lat="43.05157" lon="0.58754">
        <ele>473</ele>
        <time>2022-09-04T13:48:20Z</time>
      </trkpt>
      <trkpt lat="43.05158" lon="0.58749">
        <ele>473</ele>
        <time>2022-09-04T13:48:21Z</time>
      </trkpt>
      <trkpt lat="43.05159" lon="0.58699">
        <ele>473.6</ele>
        <time>2022-09-04T13:48:30Z</time>
      </trkpt>
      <trkpt lat="43.05157" lon="0.58645">
        <ele>473</ele>
        <time>2022-09-04T13:48:39Z</time>
      </trkpt>
      <trkpt lat="43.05154" lon="0.58613">
        <ele>472.6</ele>
        <time>2022-09-04T13:48:44Z</time>
      </trkpt>
      <trkpt lat="43.05151" lon="0.586">
        <ele>472.6</ele>
        <time>2022-09-04T13:48:46Z</time>
      </trkpt>
      <trkpt lat="43.05137" lon="0.58551">
        <ele>473</ele>
        <time>2022-09-04T13:48:54Z</time>
      </trkpt>
      <trkpt lat="43.05124" lon="0.58507">
        <ele>473.2</ele>
        <time>2022-09-04T13:49:01Z</time>
      </trkpt>
      <trkpt lat="43.05107" lon="0.58456">
        <ele>473.6</ele>
        <time>2022-09-04T13:49:09Z</time>
      </trkpt>
      <trkpt lat="43.05089" lon="0.58414">
        <ele>473.6</ele>
        <time>2022-09-04T13:49:16Z</time>
      </trkpt>
      <trkpt lat="43.05079" lon="0.58394">
        <ele>474</ele>
        <time>2022-09-04T13:49:20Z</time>
      </trkpt>
      <trkpt lat="43.05072" lon="0.58379">
        <ele>474.4</ele>
        <time>2022-09-04T13:49:23Z</time>
      </trkpt>
      <trkpt lat="43.05057" lon="0.58336">
        <ele>474.4</ele>
        <time>2022-09-04T13:49:31Z</time>
      </trkpt>
      <trkpt lat="43.05048" lon="0.58307">
        <ele>474.6</ele>
        <time>2022-09-04T13:49:36Z</time>
      </trkpt>
      <trkpt lat="43.05031" lon="0.58262">
        <ele>475</ele>
        <time>2022-09-04T13:49:44Z</time>
      </trkpt>
      <trkpt lat="43.0501" lon="0.5822">
        <ele>474.8</ele>
        <time>2022-09-04T13:49:52Z</time>
      </trkpt>
      <trkpt lat="43.04998" lon="0.58198">
        <ele>474.6</ele>
        <time>2022-09-04T13:49:56Z</time>
      </trkpt>
      <trkpt lat="43.04992" lon="0.58187">
        <ele>474.4</ele>
        <time>2022-09-04T13:49:58Z</time>
      </trkpt>
      <trkpt lat="43.04986" lon="0.58176">
        <ele>474.2</ele>
        <time>2022-09-04T13:50:00Z</time>
      </trkpt>
      <trkpt lat="43.04983" lon="0.58163">
        <ele>474</ele>
        <time>2022-09-04T13:50:02Z</time>
      </trkpt>
      <trkpt lat="43.04981" lon="0.58156">
        <ele>474</ele>
        <time>2022-09-04T13:50:03Z</time>
      </trkpt>
      <trkpt lat="43.04973" lon="0.58109">
        <ele>473.8</ele>
        <time>2022-09-04T13:50:10Z</time>
      </trkpt>
      <trkpt lat="43.04964" lon="0.58057">
        <ele>474</ele>
        <time>2022-09-04T13:50:18Z</time>
      </trkpt>
      <trkpt lat="43.04956" lon="0.58011">
        <ele>475</ele>
        <time>2022-09-04T13:50:26Z</time>
      </trkpt>
      <trkpt lat="43.04956" lon="0.58006">
        <ele>475</ele>
        <time>2022-09-04T13:50:27Z</time>
      </trkpt>
      <trkpt lat="43.04953" lon="0.5799">
        <ele>475.4</ele>
        <time>2022-09-04T13:50:31Z</time>
      </trkpt>
      <trkpt lat="43.04951" lon="0.5798">
        <ele>476.2</ele>
        <time>2022-09-04T13:50:35Z</time>
      </trkpt>
      <trkpt lat="43.04947" lon="0.57965">
        <ele>477.2</ele>
        <time>2022-09-04T13:50:40Z</time>
      </trkpt>
      <trkpt lat="43.04947" lon="0.57952">
        <ele>478.6</ele>
        <time>2022-09-04T13:50:45Z</time>
      </trkpt>
      <trkpt lat="43.04951" lon="0.57935">
        <ele>479.6</ele>
        <time>2022-09-04T13:50:52Z</time>
      </trkpt>
      <trkpt lat="43.04952" lon="0.5793">
        <ele>479.6</ele>
        <time>2022-09-04T13:50:54Z</time>
      </trkpt>
      <trkpt lat="43.04954" lon="0.57919">
        <ele>480</ele>
        <time>2022-09-04T13:50:58Z</time>
      </trkpt>
      <trkpt lat="43.04959" lon="0.57898">
        <ele>480</ele>
        <time>2022-09-04T13:51:04Z</time>
      </trkpt>
      <trkpt lat="43.04965" lon="0.5788">
        <ele>480</ele>
        <time>2022-09-04T13:51:09Z</time>
      </trkpt>
      <trkpt lat="43.04973" lon="0.5785">
        <ele>480.4</ele>
        <time>2022-09-04T13:51:16Z</time>
      </trkpt>
      <trkpt lat="43.04979" lon="0.57825">
        <ele>480.6</ele>
        <time>2022-09-04T13:51:22Z</time>
      </trkpt>
      <trkpt lat="43.0498" lon="0.57821">
        <ele>480.6</ele>
        <time>2022-09-04T13:51:23Z</time>
      </trkpt>
      <trkpt lat="43.04987" lon="0.57792">
        <ele>481.2</ele>
        <time>2022-09-04T13:51:30Z</time>
      </trkpt>
      <trkpt lat="43.04995" lon="0.57775">
        <ele>481.8</ele>
        <time>2022-09-04T13:51:35Z</time>
      </trkpt>
      <trkpt lat="43.04998" lon="0.57769">
        <ele>482</ele>
        <time>2022-09-04T13:51:37Z</time>
      </trkpt>
      <trkpt lat="43.05" lon="0.57766">
        <ele>482.2</ele>
        <time>2022-09-04T13:51:38Z</time>
      </trkpt>
      <trkpt lat="43.05013" lon="0.5774">
        <ele>482.6</ele>
        <time>2022-09-04T13:51:46Z</time>
      </trkpt>
      <trkpt lat="43.05018" lon="0.57731">
        <ele>482.8</ele>
        <time>2022-09-04T13:51:49Z</time>
      </trkpt>
      <trkpt lat="43.0503" lon="0.5771">
        <ele>483.4</ele>
        <time>2022-09-04T13:51:55Z</time>
      </trkpt>
      <trkpt lat="43.0504" lon="0.57693">
        <ele>484</ele>
        <time>2022-09-04T13:52:00Z</time>
      </trkpt>
      <trkpt lat="43.05047" lon="0.57683">
        <ele>484.2</ele>
        <time>2022-09-04T13:52:03Z</time>
      </trkpt>
      <trkpt lat="43.05057" lon="0.57658">
        <ele>485</ele>
        <time>2022-09-04T13:52:10Z</time>
      </trkpt>
      <trkpt lat="43.05059" lon="0.57626">
        <ele>486</ele>
        <time>2022-09-04T13:52:18Z</time>
      </trkpt>
      <trkpt lat="43.0506" lon="0.57622">
        <ele>486.2</ele>
        <time>2022-09-04T13:52:19Z</time>
      </trkpt>
      <trkpt lat="43.05066" lon="0.576">
        <ele>487.2</ele>
        <time>2022-09-04T13:52:25Z</time>
      </trkpt>
      <trkpt lat="43.05067" lon="0.57592">
        <ele>487.4</ele>
        <time>2022-09-04T13:52:27Z</time>
      </trkpt>
      <trkpt lat="43.05072" lon="0.5757">
        <ele>488</ele>
        <time>2022-09-04T13:52:33Z</time>
      </trkpt>
      <trkpt lat="43.05073" lon="0.57567">
        <ele>488.2</ele>
        <time>2022-09-04T13:52:34Z</time>
      </trkpt>
      <trkpt lat="43.05078" lon="0.57547">
        <ele>488.8</ele>
        <time>2022-09-04T13:52:41Z</time>
      </trkpt>
      <trkpt lat="43.05079" lon="0.57541">
        <ele>489.2</ele>
        <time>2022-09-04T13:52:43Z</time>
      </trkpt>
      <trkpt lat="43.05082" lon="0.57531">
        <ele>489.6</ele>
        <time>2022-09-04T13:52:47Z</time>
      </trkpt>
      <trkpt lat="43.05085" lon="0.57521">
        <ele>490.2</ele>
        <time>2022-09-04T13:52:51Z</time>
      </trkpt>
      <trkpt lat="43.05086" lon="0.57514">
        <ele>490.4</ele>
        <time>2022-09-04T13:52:54Z</time>
      </trkpt>
      <trkpt lat="43.05092" lon="0.57494">
        <ele>491.2</ele>
        <time>2022-09-04T13:53:02Z</time>
      </trkpt>
      <trkpt lat="43.05093" lon="0.57492">
        <ele>491.2</ele>
        <time>2022-09-04T13:53:03Z</time>
      </trkpt>
      <trkpt lat="43.05098" lon="0.57474">
        <ele>492.2</ele>
        <time>2022-09-04T13:53:10Z</time>
      </trkpt>
      <trkpt lat="43.05099" lon="0.57472">
        <ele>492.2</ele>
        <time>2022-09-04T13:53:11Z</time>
      </trkpt>
      <trkpt lat="43.05102" lon="0.57458">
        <ele>492.8</ele>
        <time>2022-09-04T13:53:16Z</time>
      </trkpt>
      <trkpt lat="43.05108" lon="0.57431">
        <ele>493.2</ele>
        <time>2022-09-04T13:53:25Z</time>
      </trkpt>
      <trkpt lat="43.05111" lon="0.57423">
        <ele>493.4</ele>
        <time>2022-09-04T13:53:28Z</time>
      </trkpt>
      <trkpt lat="43.05117" lon="0.57406">
        <ele>494</ele>
        <time>2022-09-04T13:53:34Z</time>
      </trkpt>
      <trkpt lat="43.05129" lon="0.57383">
        <ele>494.2</ele>
        <time>2022-09-04T13:53:42Z</time>
      </trkpt>
      <trkpt lat="43.05131" lon="0.57381">
        <ele>494.4</ele>
        <time>2022-09-04T13:53:43Z</time>
      </trkpt>
      <trkpt lat="43.05142" lon="0.5737">
        <ele>494.6</ele>
        <time>2022-09-04T13:53:49Z</time>
      </trkpt>
      <trkpt lat="43.05144" lon="0.57367">
        <ele>494.6</ele>
        <time>2022-09-04T13:53:51Z</time>
      </trkpt>
      <trkpt lat="43.05152" lon="0.57365">
        <ele>494.8</ele>
        <time>2022-09-04T13:56:37Z</time>
      </trkpt>
      <trkpt lat="43.05158" lon="0.57365">
        <ele>495</ele>
        <time>2022-09-04T13:56:39Z</time>
      </trkpt>
      <trkpt lat="43.05182" lon="0.57357">
        <ele>494.8</ele>
        <time>2022-09-04T13:56:46Z</time>
      </trkpt>
      <trkpt lat="43.0521" lon="0.57337">
        <ele>494.2</ele>
        <time>2022-09-04T13:56:53Z</time>
      </trkpt>
      <trkpt lat="43.05215" lon="0.57334">
        <ele>494.2</ele>
        <time>2022-09-04T13:56:54Z</time>
      </trkpt>
      <trkpt lat="43.05233" lon="0.57319">
        <ele>493.4</ele>
        <time>2022-09-04T13:56:58Z</time>
      </trkpt>
      <trkpt lat="43.05237" lon="0.57316">
        <ele>493.2</ele>
        <time>2022-09-04T13:56:59Z</time>
      </trkpt>
      <trkpt lat="43.05242" lon="0.57313">
        <ele>493.2</ele>
        <time>2022-09-04T13:57:00Z</time>
      </trkpt>
      <trkpt lat="43.05247" lon="0.57309">
        <ele>492.8</ele>
        <time>2022-09-04T13:57:01Z</time>
      </trkpt>
      <trkpt lat="43.05257" lon="0.57299">
        <ele>492</ele>
        <time>2022-09-04T13:57:03Z</time>
      </trkpt>
      <trkpt lat="43.05268" lon="0.57288">
        <ele>491.6</ele>
        <time>2022-09-04T13:57:05Z</time>
      </trkpt>
      <trkpt lat="43.05297" lon="0.57249">
        <ele>491.2</ele>
        <time>2022-09-04T13:57:12Z</time>
      </trkpt>
      <trkpt lat="43.0533" lon="0.5721">
        <ele>491.6</ele>
        <time>2022-09-04T13:57:20Z</time>
      </trkpt>
      <trkpt lat="43.05358" lon="0.57182">
        <ele>491.8</ele>
        <time>2022-09-04T13:57:27Z</time>
      </trkpt>
      <trkpt lat="43.05385" lon="0.57156">
        <ele>491</ele>
        <time>2022-09-04T13:57:34Z</time>
      </trkpt>
      <trkpt lat="43.0539" lon="0.57153">
        <ele>491</ele>
        <time>2022-09-04T13:57:35Z</time>
      </trkpt>
      <trkpt lat="43.05412" lon="0.57133">
        <ele>490.8</ele>
        <time>2022-09-04T13:57:40Z</time>
      </trkpt>
      <trkpt lat="43.0542" lon="0.57125">
        <ele>490.6</ele>
        <time>2022-09-04T13:57:42Z</time>
      </trkpt>
      <trkpt lat="43.05438" lon="0.57106">
        <ele>490.2</ele>
        <time>2022-09-04T13:57:47Z</time>
      </trkpt>
      <trkpt lat="43.05446" lon="0.57099">
        <ele>490</ele>
        <time>2022-09-04T13:57:49Z</time>
      </trkpt>
      <trkpt lat="43.0545" lon="0.57095">
        <ele>489.8</ele>
        <time>2022-09-04T13:57:50Z</time>
      </trkpt>
      <trkpt lat="43.05454" lon="0.57091">
        <ele>489.8</ele>
        <time>2022-09-04T13:57:51Z</time>
      </trkpt>
      <trkpt lat="43.05462" lon="0.57082">
        <ele>489.8</ele>
        <time>2022-09-04T13:57:54Z</time>
      </trkpt>
      <trkpt lat="43.05482" lon="0.57058">
        <ele>489.2</ele>
        <time>2022-09-04T13:57:59Z</time>
      </trkpt>
      <trkpt lat="43.05516" lon="0.5702">
        <ele>489.6</ele>
        <time>2022-09-04T13:58:07Z</time>
      </trkpt>
      <trkpt lat="43.05543" lon="0.56994">
        <ele>489</ele>
        <time>2022-09-04T13:58:13Z</time>
      </trkpt>
      <trkpt lat="43.05547" lon="0.5699">
        <ele>488.8</ele>
        <time>2022-09-04T13:58:14Z</time>
      </trkpt>
      <trkpt lat="43.05583" lon="0.56957">
        <ele>489.2</ele>
        <time>2022-09-04T13:58:22Z</time>
      </trkpt>
      <trkpt lat="43.05613" lon="0.56929">
        <ele>489.2</ele>
        <time>2022-09-04T13:58:29Z</time>
      </trkpt>
      <trkpt lat="43.05634" lon="0.5691">
        <ele>490.2</ele>
        <time>2022-09-04T13:58:34Z</time>
      </trkpt>
      <trkpt lat="43.05649" lon="0.56897">
        <ele>490.4</ele>
        <time>2022-09-04T13:58:38Z</time>
      </trkpt>
      <trkpt lat="43.05673" lon="0.56872">
        <ele>491</ele>
        <time>2022-09-04T13:58:45Z</time>
      </trkpt>
      <trkpt lat="43.05677" lon="0.56869">
        <ele>491.2</ele>
        <time>2022-09-04T13:58:46Z</time>
      </trkpt>
      <trkpt lat="43.05696" lon="0.56847">
        <ele>491.4</ele>
        <time>2022-09-04T13:58:52Z</time>
      </trkpt>
      <trkpt lat="43.05705" lon="0.56835">
        <ele>492.2</ele>
        <time>2022-09-04T13:58:55Z</time>
      </trkpt>
      <trkpt lat="43.05717" lon="0.56821">
        <ele>492.2</ele>
        <time>2022-09-04T13:58:59Z</time>
      </trkpt>
      <trkpt lat="43.05744" lon="0.56789">
        <ele>492.6</ele>
        <time>2022-09-04T13:59:08Z</time>
      </trkpt>
      <trkpt lat="43.05769" lon="0.56768">
        <ele>493.2</ele>
        <time>2022-09-04T13:59:15Z</time>
      </trkpt>
      <trkpt lat="43.05784" lon="0.5676">
        <ele>493.2</ele>
        <time>2022-09-04T13:59:19Z</time>
      </trkpt>
      <trkpt lat="43.05799" lon="0.56754">
        <ele>493.4</ele>
        <time>2022-09-04T13:59:23Z</time>
      </trkpt>
      <trkpt lat="43.05821" lon="0.56747">
        <ele>494</ele>
        <time>2022-09-04T13:59:29Z</time>
      </trkpt>
      <trkpt lat="43.05829" lon="0.56745">
        <ele>494.2</ele>
        <time>2022-09-04T13:59:31Z</time>
      </trkpt>
      <trkpt lat="43.05853" lon="0.56738">
        <ele>495</ele>
        <time>2022-09-04T13:59:37Z</time>
      </trkpt>
      <trkpt lat="43.05857" lon="0.56737">
        <ele>495.4</ele>
        <time>2022-09-04T13:59:38Z</time>
      </trkpt>
      <trkpt lat="43.05871" lon="0.56734">
        <ele>496.4</ele>
        <time>2022-09-04T13:59:42Z</time>
      </trkpt>
      <trkpt lat="43.05877" lon="0.56733">
        <ele>496.8</ele>
        <time>2022-09-04T13:59:44Z</time>
      </trkpt>
      <trkpt lat="43.0588" lon="0.56733">
        <ele>496.8</ele>
        <time>2022-09-04T13:59:45Z</time>
      </trkpt>
      <trkpt lat="43.05889" lon="0.56732">
        <ele>497.6</ele>
        <time>2022-09-04T13:59:48Z</time>
      </trkpt>
      <trkpt lat="43.05901" lon="0.56732">
        <ele>498</ele>
        <time>2022-09-04T13:59:53Z</time>
      </trkpt>
      <trkpt lat="43.05922" lon="0.56729">
        <ele>498.8</ele>
        <time>2022-09-04T14:00:01Z</time>
      </trkpt>
      <trkpt lat="43.05945" lon="0.56725">
        <ele>499.6</ele>
        <time>2022-09-04T14:00:09Z</time>
      </trkpt>
      <trkpt lat="43.05963" lon="0.56719">
        <ele>499.4</ele>
        <time>2022-09-04T14:00:15Z</time>
      </trkpt>
      <trkpt lat="43.05987" lon="0.56709">
        <ele>499.2</ele>
        <time>2022-09-04T14:00:21Z</time>
      </trkpt>
      <trkpt lat="43.06011" lon="0.56701">
        <ele>499.2</ele>
        <time>2022-09-04T14:00:27Z</time>
      </trkpt>
      <trkpt lat="43.06041" lon="0.56687">
        <ele>499.6</ele>
        <time>2022-09-04T14:00:34Z</time>
      </trkpt>
      <trkpt lat="43.06071" lon="0.56673">
        <ele>498</ele>
        <time>2022-09-04T14:00:40Z</time>
      </trkpt>
      <trkpt lat="43.06077" lon="0.56671">
        <ele>497.8</ele>
        <time>2022-09-04T14:00:41Z</time>
      </trkpt>
      <trkpt lat="43.06083" lon="0.56669">
        <ele>497.6</ele>
        <time>2022-09-04T14:00:42Z</time>
      </trkpt>
      <trkpt lat="43.06108" lon="0.5666">
        <ele>496.6</ele>
        <time>2022-09-04T14:00:46Z</time>
      </trkpt>
      <trkpt lat="43.06123" lon="0.56655">
        <ele>496.6</ele>
        <time>2022-09-04T14:00:48Z</time>
      </trkpt>
      <trkpt lat="43.06161" lon="0.56641">
        <ele>495.2</ele>
        <time>2022-09-04T14:00:53Z</time>
      </trkpt>
      <trkpt lat="43.06169" lon="0.56637">
        <ele>494.6</ele>
        <time>2022-09-04T14:00:54Z</time>
      </trkpt>
      <trkpt lat="43.06177" lon="0.56634">
        <ele>494.2</ele>
        <time>2022-09-04T14:00:55Z</time>
      </trkpt>
      <trkpt lat="43.06219" lon="0.56615">
        <ele>493</ele>
        <time>2022-09-04T14:01:00Z</time>
      </trkpt>
      <trkpt lat="43.06237" lon="0.56608">
        <ele>491.6</ele>
        <time>2022-09-04T14:01:02Z</time>
      </trkpt>
      <trkpt lat="43.06273" lon="0.56594">
        <ele>490.2</ele>
        <time>2022-09-04T14:01:06Z</time>
      </trkpt>
      <trkpt lat="43.06283" lon="0.56591">
        <ele>489.2</ele>
        <time>2022-09-04T14:01:07Z</time>
      </trkpt>
      <trkpt lat="43.06301" lon="0.56585">
        <ele>487.4</ele>
        <time>2022-09-04T14:01:09Z</time>
      </trkpt>
      <trkpt lat="43.06311" lon="0.56582">
        <ele>486</ele>
        <time>2022-09-04T14:01:10Z</time>
      </trkpt>
      <trkpt lat="43.0634" lon="0.56577">
        <ele>485</ele>
        <time>2022-09-04T14:01:13Z</time>
      </trkpt>
      <trkpt lat="43.06349" lon="0.56575">
        <ele>484.4</ele>
        <time>2022-09-04T14:01:14Z</time>
      </trkpt>
      <trkpt lat="43.06378" lon="0.56575">
        <ele>483.8</ele>
        <time>2022-09-04T14:01:17Z</time>
      </trkpt>
      <trkpt lat="43.06397" lon="0.56578">
        <ele>483.2</ele>
        <time>2022-09-04T14:01:19Z</time>
      </trkpt>
      <trkpt lat="43.06415" lon="0.5658">
        <ele>482.6</ele>
        <time>2022-09-04T14:01:21Z</time>
      </trkpt>
      <trkpt lat="43.0646" lon="0.56588">
        <ele>481.6</ele>
        <time>2022-09-04T14:01:26Z</time>
      </trkpt>
      <trkpt lat="43.06468" lon="0.56591">
        <ele>481</ele>
        <time>2022-09-04T14:01:27Z</time>
      </trkpt>
      <trkpt lat="43.0651" lon="0.56598">
        <ele>480.2</ele>
        <time>2022-09-04T14:01:32Z</time>
      </trkpt>
      <trkpt lat="43.06518" lon="0.56598">
        <ele>480</ele>
        <time>2022-09-04T14:01:33Z</time>
      </trkpt>
      <trkpt lat="43.06527" lon="0.56597">
        <ele>479</ele>
        <time>2022-09-04T14:01:34Z</time>
      </trkpt>
      <trkpt lat="43.0656" lon="0.56592">
        <ele>478.6</ele>
        <time>2022-09-04T14:01:38Z</time>
      </trkpt>
      <trkpt lat="43.06575" lon="0.56589">
        <ele>477.8</ele>
        <time>2022-09-04T14:01:40Z</time>
      </trkpt>
      <trkpt lat="43.06596" lon="0.56585">
        <ele>477.2</ele>
        <time>2022-09-04T14:01:43Z</time>
      </trkpt>
      <trkpt lat="43.06633" lon="0.5658">
        <ele>476.6</ele>
        <time>2022-09-04T14:01:48Z</time>
      </trkpt>
      <trkpt lat="43.06641" lon="0.56579">
        <ele>476.6</ele>
        <time>2022-09-04T14:01:49Z</time>
      </trkpt>
      <trkpt lat="43.06664" lon="0.56579">
        <ele>475</ele>
        <time>2022-09-04T14:01:52Z</time>
      </trkpt>
      <trkpt lat="43.06679" lon="0.56582">
        <ele>473.6</ele>
        <time>2022-09-04T14:01:54Z</time>
      </trkpt>
      <trkpt lat="43.06686" lon="0.56587">
        <ele>473.4</ele>
        <time>2022-09-04T14:01:55Z</time>
      </trkpt>
      <trkpt lat="43.067" lon="0.56609">
        <ele>472.2</ele>
        <time>2022-09-04T14:01:58Z</time>
      </trkpt>
      <trkpt lat="43.06706" lon="0.56626">
        <ele>472.4</ele>
        <time>2022-09-04T14:02:00Z</time>
      </trkpt>
      <trkpt lat="43.06715" lon="0.56649">
        <ele>472</ele>
        <time>2022-09-04T14:02:03Z</time>
      </trkpt>
      <trkpt lat="43.06731" lon="0.56689">
        <ele>471.8</ele>
        <time>2022-09-04T14:02:09Z</time>
      </trkpt>
      <trkpt lat="43.06742" lon="0.56711">
        <ele>472.6</ele>
        <time>2022-09-04T14:02:13Z</time>
      </trkpt>
      <trkpt lat="43.06746" lon="0.5672">
        <ele>472.8</ele>
        <time>2022-09-04T14:02:15Z</time>
      </trkpt>
      <trkpt lat="43.06752" lon="0.56733">
        <ele>473.4</ele>
        <time>2022-09-04T14:02:18Z</time>
      </trkpt>
      <trkpt lat="43.06758" lon="0.56748">
        <ele>475</ele>
        <time>2022-09-04T14:02:22Z</time>
      </trkpt>
      <trkpt lat="43.06765" lon="0.56779">
        <ele>475.8</ele>
        <time>2022-09-04T14:02:31Z</time>
      </trkpt>
      <trkpt lat="43.0677" lon="0.56792">
        <ele>476</ele>
        <time>2022-09-04T14:02:35Z</time>
      </trkpt>
      <trkpt lat="43.06774" lon="0.56807">
        <ele>476</ele>
        <time>2022-09-04T14:02:39Z</time>
      </trkpt>
      <trkpt lat="43.06785" lon="0.56834">
        <ele>475.2</ele>
        <time>2022-09-04T14:02:45Z</time>
      </trkpt>
      <trkpt lat="43.06787" lon="0.56839">
        <ele>475</ele>
        <time>2022-09-04T14:02:46Z</time>
      </trkpt>
      <trkpt lat="43.06802" lon="0.56872">
        <ele>474.2</ele>
        <time>2022-09-04T14:02:51Z</time>
      </trkpt>
      <trkpt lat="43.06805" lon="0.5688">
        <ele>473.8</ele>
        <time>2022-09-04T14:02:52Z</time>
      </trkpt>
      <trkpt lat="43.06816" lon="0.56908">
        <ele>472.4</ele>
        <time>2022-09-04T14:02:55Z</time>
      </trkpt>
      <trkpt lat="43.06819" lon="0.56919">
        <ele>471.8</ele>
        <time>2022-09-04T14:02:56Z</time>
      </trkpt>
      <trkpt lat="43.06827" lon="0.56941">
        <ele>471.2</ele>
        <time>2022-09-04T14:02:58Z</time>
      </trkpt>
      <trkpt lat="43.06839" lon="0.56976">
        <ele>469.8</ele>
        <time>2022-09-04T14:03:01Z</time>
      </trkpt>
      <trkpt lat="43.06843" lon="0.56988">
        <ele>470.2</ele>
        <time>2022-09-04T14:03:02Z</time>
      </trkpt>
      <trkpt lat="43.06858" lon="0.57038">
        <ele>468.4</ele>
        <time>2022-09-04T14:03:06Z</time>
      </trkpt>
      <trkpt lat="43.06861" lon="0.57052">
        <ele>467.8</ele>
        <time>2022-09-04T14:03:07Z</time>
      </trkpt>
      <trkpt lat="43.06864" lon="0.57065">
        <ele>467.2</ele>
        <time>2022-09-04T14:03:08Z</time>
      </trkpt>
      <trkpt lat="43.0687" lon="0.57092">
        <ele>466</ele>
        <time>2022-09-04T14:03:10Z</time>
      </trkpt>
      <trkpt lat="43.06883" lon="0.57143">
        <ele>465.8</ele>
        <time>2022-09-04T14:03:14Z</time>
      </trkpt>
      <trkpt lat="43.06886" lon="0.57156">
        <ele>464.6</ele>
        <time>2022-09-04T14:03:15Z</time>
      </trkpt>
      <trkpt lat="43.0689" lon="0.57168">
        <ele>463</ele>
        <time>2022-09-04T14:03:16Z</time>
      </trkpt>
      <trkpt lat="43.06894" lon="0.5718">
        <ele>462.2</ele>
        <time>2022-09-04T14:03:17Z</time>
      </trkpt>
      <trkpt lat="43.06899" lon="0.57192">
        <ele>461.6</ele>
        <time>2022-09-04T14:03:18Z</time>
      </trkpt>
      <trkpt lat="43.06904" lon="0.57204">
        <ele>461.8</ele>
        <time>2022-09-04T14:03:19Z</time>
      </trkpt>
      <trkpt lat="43.0692" lon="0.5724">
        <ele>460.2</ele>
        <time>2022-09-04T14:03:22Z</time>
      </trkpt>
      <trkpt lat="43.06936" lon="0.57274">
        <ele>459</ele>
        <time>2022-09-04T14:03:25Z</time>
      </trkpt>
      <trkpt lat="43.0694" lon="0.57286">
        <ele>458.2</ele>
        <time>2022-09-04T14:03:26Z</time>
      </trkpt>
      <trkpt lat="43.06944" lon="0.57297">
        <ele>457.6</ele>
        <time>2022-09-04T14:03:27Z</time>
      </trkpt>
      <trkpt lat="43.06947" lon="0.57309">
        <ele>457.4</ele>
        <time>2022-09-04T14:03:28Z</time>
      </trkpt>
      <trkpt lat="43.06951" lon="0.57333">
        <ele>457</ele>
        <time>2022-09-04T14:03:30Z</time>
      </trkpt>
      <trkpt lat="43.06951" lon="0.57345">
        <ele>456.2</ele>
        <time>2022-09-04T14:03:31Z</time>
      </trkpt>
      <trkpt lat="43.06952" lon="0.57357">
        <ele>455.8</ele>
        <time>2022-09-04T14:03:32Z</time>
      </trkpt>
      <trkpt lat="43.06954" lon="0.57389">
        <ele>455</ele>
        <time>2022-09-04T14:03:35Z</time>
      </trkpt>
      <trkpt lat="43.06964" lon="0.5744">
        <ele>454.8</ele>
        <time>2022-09-04T14:03:40Z</time>
      </trkpt>
      <trkpt lat="43.06972" lon="0.57458">
        <ele>453.8</ele>
        <time>2022-09-04T14:03:42Z</time>
      </trkpt>
      <trkpt lat="43.06981" lon="0.57471">
        <ele>453</ele>
        <time>2022-09-04T14:03:44Z</time>
      </trkpt>
      <trkpt lat="43.06984" lon="0.57476">
        <ele>452.6</ele>
        <time>2022-09-04T14:03:45Z</time>
      </trkpt>
      <trkpt lat="43.06989" lon="0.57481">
        <ele>451.8</ele>
        <time>2022-09-04T14:03:47Z</time>
      </trkpt>
      <trkpt lat="43.06991" lon="0.57484">
        <ele>451.4</ele>
        <time>2022-09-04T14:03:48Z</time>
      </trkpt>
      <trkpt lat="43.06995" lon="0.57488">
        <ele>450.4</ele>
        <time>2022-09-04T14:03:51Z</time>
      </trkpt>
      <trkpt lat="43.06997" lon="0.5749">
        <ele>450.2</ele>
        <time>2022-09-04T14:03:52Z</time>
      </trkpt>
      <trkpt lat="43.07" lon="0.57498">
        <ele>449.8</ele>
        <time>2022-09-04T14:03:56Z</time>
      </trkpt>
      <trkpt lat="43.07" lon="0.57501">
        <ele>449.8</ele>
        <time>2022-09-04T14:03:58Z</time>
      </trkpt>
      <trkpt lat="43.07001" lon="0.57508">
        <ele>449.6</ele>
        <time>2022-09-04T14:04:10Z</time>
      </trkpt>
      <trkpt lat="43.07002" lon="0.57511">
        <ele>449.6</ele>
        <time>2022-09-04T14:04:11Z</time>
      </trkpt>
      <trkpt lat="43.07007" lon="0.57526">
        <ele>449.8</ele>
        <time>2022-09-04T14:04:14Z</time>
      </trkpt>
      <trkpt lat="43.07009" lon="0.57532">
        <ele>449.6</ele>
        <time>2022-09-04T14:04:15Z</time>
      </trkpt>
      <trkpt lat="43.0702" lon="0.57554">
        <ele>449.4</ele>
        <time>2022-09-04T14:04:19Z</time>
      </trkpt>
      <trkpt lat="43.0703" lon="0.57576">
        <ele>449.2</ele>
        <time>2022-09-04T14:04:23Z</time>
      </trkpt>
      <trkpt lat="43.07053" lon="0.57636">
        <ele>449</ele>
        <time>2022-09-04T14:04:33Z</time>
      </trkpt>
      <trkpt lat="43.07081" lon="0.57695">
        <ele>448.6</ele>
        <time>2022-09-04T14:04:43Z</time>
      </trkpt>
      <trkpt lat="43.07099" lon="0.57729">
        <ele>448.2</ele>
        <time>2022-09-04T14:04:49Z</time>
      </trkpt>
      <trkpt lat="43.07107" lon="0.57746">
        <ele>448.4</ele>
        <time>2022-09-04T14:04:52Z</time>
      </trkpt>
      <trkpt lat="43.07124" lon="0.57779">
        <ele>448.4</ele>
        <time>2022-09-04T14:04:58Z</time>
      </trkpt>
      <trkpt lat="43.07131" lon="0.57797">
        <ele>448.4</ele>
        <time>2022-09-04T14:05:01Z</time>
      </trkpt>
      <trkpt lat="43.07148" lon="0.57859">
        <ele>448.6</ele>
        <time>2022-09-04T14:05:11Z</time>
      </trkpt>
      <trkpt lat="43.07158" lon="0.57918">
        <ele>448.8</ele>
        <time>2022-09-04T14:05:20Z</time>
      </trkpt>
      <trkpt lat="43.07166" lon="0.57957">
        <ele>449</ele>
        <time>2022-09-04T14:05:26Z</time>
      </trkpt>
      <trkpt lat="43.07171" lon="0.57968">
        <ele>449</ele>
        <time>2022-09-04T14:05:28Z</time>
      </trkpt>
      <trkpt lat="43.07184" lon="0.57987">
        <ele>448.8</ele>
        <time>2022-09-04T14:05:32Z</time>
      </trkpt>
      <trkpt lat="43.07211" lon="0.58023">
        <ele>448.8</ele>
        <time>2022-09-04T14:05:40Z</time>
      </trkpt>
      <trkpt lat="43.07236" lon="0.58055">
        <ele>448.4</ele>
        <time>2022-09-04T14:05:49Z</time>
      </trkpt>
      <trkpt lat="43.07239" lon="0.58055">
        <ele>448.4</ele>
        <time>2022-09-04T14:05:50Z</time>
      </trkpt>
      <trkpt lat="43.07245" lon="0.5805">
        <ele>448.2</ele>
        <time>2022-09-04T14:05:52Z</time>
      </trkpt>
      <trkpt lat="43.07253" lon="0.58033">
        <ele>447.6</ele>
        <time>2022-09-04T14:05:56Z</time>
      </trkpt>
      <trkpt lat="43.07258" lon="0.58025">
        <ele>447.6</ele>
        <time>2022-09-04T14:05:58Z</time>
      </trkpt>
      <trkpt lat="43.07271" lon="0.58004">
        <ele>447.8</ele>
        <time>2022-09-04T14:06:03Z</time>
      </trkpt>
      <trkpt lat="43.0729" lon="0.57968">
        <ele>447.2</ele>
        <time>2022-09-04T14:06:11Z</time>
      </trkpt>
      <trkpt lat="43.07298" lon="0.57954">
        <ele>447.2</ele>
        <time>2022-09-04T14:06:14Z</time>
      </trkpt>
      <trkpt lat="43.07312" lon="0.57927">
        <ele>446.6</ele>
        <time>2022-09-04T14:06:19Z</time>
      </trkpt>
      <trkpt lat="43.0732" lon="0.57917">
        <ele>446.2</ele>
        <time>2022-09-04T14:06:21Z</time>
      </trkpt>
      <trkpt lat="43.07331" lon="0.5791">
        <ele>446</ele>
        <time>2022-09-04T14:06:23Z</time>
      </trkpt>
      <trkpt lat="43.07345" lon="0.57907">
        <ele>445.4</ele>
        <time>2022-09-04T14:06:25Z</time>
      </trkpt>
      <trkpt lat="43.07353" lon="0.57907">
        <ele>445</ele>
        <time>2022-09-04T14:06:26Z</time>
      </trkpt>
      <trkpt lat="43.07361" lon="0.57907">
        <ele>444.8</ele>
        <time>2022-09-04T14:06:27Z</time>
      </trkpt>
      <trkpt lat="43.07377" lon="0.57909">
        <ele>444</ele>
        <time>2022-09-04T14:06:29Z</time>
      </trkpt>
      <trkpt lat="43.07394" lon="0.57912">
        <ele>442.6</ele>
        <time>2022-09-04T14:06:31Z</time>
      </trkpt>
      <trkpt lat="43.07411" lon="0.57914">
        <ele>441.6</ele>
        <time>2022-09-04T14:06:33Z</time>
      </trkpt>
      <trkpt lat="43.0746" lon="0.57916">
        <ele>440.6</ele>
        <time>2022-09-04T14:06:39Z</time>
      </trkpt>
      <trkpt lat="43.07467" lon="0.57916">
        <ele>440.2</ele>
        <time>2022-09-04T14:06:40Z</time>
      </trkpt>
      <trkpt lat="43.07503" lon="0.57907">
        <ele>439.8</ele>
        <time>2022-09-04T14:06:45Z</time>
      </trkpt>
      <trkpt lat="43.07516" lon="0.57903">
        <ele>439.2</ele>
        <time>2022-09-04T14:06:47Z</time>
      </trkpt>
      <trkpt lat="43.07539" lon="0.57896">
        <ele>438.6</ele>
        <time>2022-09-04T14:06:51Z</time>
      </trkpt>
      <trkpt lat="43.07578" lon="0.57884">
        <ele>438.2</ele>
        <time>2022-09-04T14:06:58Z</time>
      </trkpt>
      <trkpt lat="43.07584" lon="0.57883">
        <ele>437.8</ele>
        <time>2022-09-04T14:06:59Z</time>
      </trkpt>
      <trkpt lat="43.07601" lon="0.57876">
        <ele>437.6</ele>
        <time>2022-09-04T14:07:02Z</time>
      </trkpt>
      <trkpt lat="43.07616" lon="0.57866">
        <ele>437.4</ele>
        <time>2022-09-04T14:07:05Z</time>
      </trkpt>
      <trkpt lat="43.0763" lon="0.57855">
        <ele>437</ele>
        <time>2022-09-04T14:07:08Z</time>
      </trkpt>
      <trkpt lat="43.07642" lon="0.57842">
        <ele>436.8</ele>
        <time>2022-09-04T14:07:11Z</time>
      </trkpt>
      <trkpt lat="43.07657" lon="0.57824">
        <ele>436.8</ele>
        <time>2022-09-04T14:07:15Z</time>
      </trkpt>
      <trkpt lat="43.07667" lon="0.57824">
        <ele>437.4</ele>
        <time>2022-09-04T14:07:17Z</time>
      </trkpt>
      <trkpt lat="43.07679" lon="0.57832">
        <ele>436.8</ele>
        <time>2022-09-04T14:07:20Z</time>
      </trkpt>
      <trkpt lat="43.07683" lon="0.57834">
        <ele>436.6</ele>
        <time>2022-09-04T14:07:21Z</time>
      </trkpt>
      <trkpt lat="43.07692" lon="0.57839">
        <ele>436.2</ele>
        <time>2022-09-04T14:07:23Z</time>
      </trkpt>
      <trkpt lat="43.07703" lon="0.57848">
        <ele>436</ele>
        <time>2022-09-04T14:07:26Z</time>
      </trkpt>
      <trkpt lat="43.07716" lon="0.57856">
        <ele>436.2</ele>
        <time>2022-09-04T14:07:30Z</time>
      </trkpt>
      <trkpt lat="43.07725" lon="0.57845">
        <ele>436.4</ele>
        <time>2022-09-04T14:07:33Z</time>
      </trkpt>
      <trkpt lat="43.07728" lon="0.57841">
        <ele>436.4</ele>
        <time>2022-09-04T14:07:34Z</time>
      </trkpt>
      <trkpt lat="43.07743" lon="0.57829">
        <ele>436</ele>
        <time>2022-09-04T14:07:38Z</time>
      </trkpt>
      <trkpt lat="43.07768" lon="0.5782">
        <ele>436</ele>
        <time>2022-09-04T14:07:44Z</time>
      </trkpt>
      <trkpt lat="43.07791" lon="0.57806">
        <ele>435.4</ele>
        <time>2022-09-04T14:07:49Z</time>
      </trkpt>
      <trkpt lat="43.07795" lon="0.57802">
        <ele>435.4</ele>
        <time>2022-09-04T14:07:50Z</time>
      </trkpt>
      <trkpt lat="43.07824" lon="0.57781">
        <ele>435.4</ele>
        <time>2022-09-04T14:07:57Z</time>
      </trkpt>
      <trkpt lat="43.07852" lon="0.57761">
        <ele>435.4</ele>
        <time>2022-09-04T14:08:04Z</time>
      </trkpt>
      <trkpt lat="43.0787" lon="0.57747">
        <ele>435.4</ele>
        <time>2022-09-04T14:08:09Z</time>
      </trkpt>
      <trkpt lat="43.07874" lon="0.57745">
        <ele>435.6</ele>
        <time>2022-09-04T14:08:10Z</time>
      </trkpt>
      <trkpt lat="43.07905" lon="0.57723">
        <ele>435.4</ele>
        <time>2022-09-04T14:08:18Z</time>
      </trkpt>
      <trkpt lat="43.07928" lon="0.57707">
        <ele>434.8</ele>
        <time>2022-09-04T14:08:24Z</time>
      </trkpt>
      <trkpt lat="43.07937" lon="0.57701">
        <ele>434.8</ele>
        <time>2022-09-04T14:08:26Z</time>
      </trkpt>
      <trkpt lat="43.07973" lon="0.57679">
        <ele>433.8</ele>
        <time>2022-09-04T14:08:33Z</time>
      </trkpt>
      <trkpt lat="43.08012" lon="0.57657">
        <ele>432.8</ele>
        <time>2022-09-04T14:08:40Z</time>
      </trkpt>
      <trkpt lat="43.08017" lon="0.57655">
        <ele>432.8</ele>
        <time>2022-09-04T14:08:41Z</time>
      </trkpt>
      <trkpt lat="43.08068" lon="0.57626">
        <ele>432.8</ele>
        <time>2022-09-04T14:08:51Z</time>
      </trkpt>
      <trkpt lat="43.08109" lon="0.576">
        <ele>432.2</ele>
        <time>2022-09-04T14:09:00Z</time>
      </trkpt>
      <trkpt lat="43.08136" lon="0.57583">
        <ele>432.2</ele>
        <time>2022-09-04T14:09:06Z</time>
      </trkpt>
      <trkpt lat="43.08161" lon="0.57568">
        <ele>432.4</ele>
        <time>2022-09-04T14:09:12Z</time>
      </trkpt>
      <trkpt lat="43.08183" lon="0.57562">
        <ele>432.2</ele>
        <time>2022-09-04T14:09:18Z</time>
      </trkpt>
      <trkpt lat="43.08198" lon="0.57558">
        <ele>432</ele>
        <time>2022-09-04T14:09:23Z</time>
      </trkpt>
      <trkpt lat="43.08214" lon="0.5754">
        <ele>432.8</ele>
        <time>2022-09-04T14:09:29Z</time>
      </trkpt>
      <trkpt lat="43.08229" lon="0.5753">
        <ele>434</ele>
        <time>2022-09-04T14:09:34Z</time>
      </trkpt>
      <trkpt lat="43.08235" lon="0.57527">
        <ele>434.2</ele>
        <time>2022-09-04T14:09:36Z</time>
      </trkpt>
      <trkpt lat="43.08253" lon="0.57523">
        <ele>435</ele>
        <time>2022-09-04T14:09:42Z</time>
      </trkpt>
      <trkpt lat="43.08256" lon="0.57523">
        <ele>435</ele>
        <time>2022-09-04T14:09:43Z</time>
      </trkpt>
      <trkpt lat="43.08292" lon="0.5752">
        <ele>435.6</ele>
        <time>2022-09-04T14:09:54Z</time>
      </trkpt>
      <trkpt lat="43.08313" lon="0.57517">
        <ele>435.6</ele>
        <time>2022-09-04T14:10:00Z</time>
      </trkpt>
      <trkpt lat="43.08344" lon="0.57514">
        <ele>435</ele>
        <time>2022-09-04T14:10:08Z</time>
      </trkpt>
      <trkpt lat="43.08351" lon="0.5751">
        <ele>435.2</ele>
        <time>2022-09-04T14:10:10Z</time>
      </trkpt>
      <trkpt lat="43.08363" lon="0.57499">
        <ele>434.8</ele>
        <time>2022-09-04T14:10:13Z</time>
      </trkpt>
      <trkpt lat="43.08391" lon="0.57473">
        <ele>433.8</ele>
        <time>2022-09-04T14:10:19Z</time>
      </trkpt>
      <trkpt lat="43.08416" lon="0.5745">
        <ele>434.6</ele>
        <time>2022-09-04T14:10:26Z</time>
      </trkpt>
      <trkpt lat="43.08418" lon="0.57448">
        <ele>434.8</ele>
        <time>2022-09-04T14:10:27Z</time>
      </trkpt>
      <trkpt lat="43.08423" lon="0.57443">
        <ele>435</ele>
        <time>2022-09-04T14:10:29Z</time>
      </trkpt>
      <trkpt lat="43.08432" lon="0.57433">
        <ele>435.6</ele>
        <time>2022-09-04T14:10:33Z</time>
      </trkpt>
      <trkpt lat="43.08439" lon="0.5742">
        <ele>436.2</ele>
        <time>2022-09-04T14:10:37Z</time>
      </trkpt>
      <trkpt lat="43.0844" lon="0.57413">
        <ele>436.6</ele>
        <time>2022-09-04T14:10:39Z</time>
      </trkpt>
      <trkpt lat="43.08438" lon="0.57396">
        <ele>437.2</ele>
        <time>2022-09-04T14:10:44Z</time>
      </trkpt>
      <trkpt lat="43.08436" lon="0.57381">
        <ele>438.4</ele>
        <time>2022-09-04T14:10:50Z</time>
      </trkpt>
      <trkpt lat="43.08435" lon="0.57376">
        <ele>438.6</ele>
        <time>2022-09-04T14:10:52Z</time>
      </trkpt>
      <trkpt lat="43.08432" lon="0.57361">
        <ele>439.4</ele>
        <time>2022-09-04T14:10:58Z</time>
      </trkpt>
      <trkpt lat="43.08429" lon="0.57353">
        <ele>440</ele>
        <time>2022-09-04T14:11:02Z</time>
      </trkpt>
      <trkpt lat="43.08429" lon="0.57345">
        <ele>440.4</ele>
        <time>2022-09-04T14:11:05Z</time>
      </trkpt>
      <trkpt lat="43.08428" lon="0.57339">
        <ele>441</ele>
        <time>2022-09-04T14:11:08Z</time>
      </trkpt>
      <trkpt lat="43.08427" lon="0.57334">
        <ele>441.4</ele>
        <time>2022-09-04T14:11:10Z</time>
      </trkpt>
      <trkpt lat="43.08423" lon="0.5732">
        <ele>442.2</ele>
        <time>2022-09-04T14:11:16Z</time>
      </trkpt>
      <trkpt lat="43.08422" lon="0.57318">
        <ele>442.4</ele>
        <time>2022-09-04T14:11:17Z</time>
      </trkpt>
      <trkpt lat="43.08416" lon="0.57305">
        <ele>443.6</ele>
        <time>2022-09-04T14:11:24Z</time>
      </trkpt>
      <trkpt lat="43.0841" lon="0.57295">
        <ele>444.6</ele>
        <time>2022-09-04T14:11:30Z</time>
      </trkpt>
      <trkpt lat="43.08409" lon="0.57294">
        <ele>444.6</ele>
        <time>2022-09-04T14:11:31Z</time>
      </trkpt>
      <trkpt lat="43.084" lon="0.57283">
        <ele>445.8</ele>
        <time>2022-09-04T14:11:38Z</time>
      </trkpt>
      <trkpt lat="43.08393" lon="0.57273">
        <ele>447</ele>
        <time>2022-09-04T14:11:45Z</time>
      </trkpt>
      <trkpt lat="43.08392" lon="0.57271">
        <ele>447</ele>
        <time>2022-09-04T14:11:46Z</time>
      </trkpt>
      <trkpt lat="43.08387" lon="0.57265">
        <ele>447.8</ele>
        <time>2022-09-04T14:11:51Z</time>
      </trkpt>
      <trkpt lat="43.08386" lon="0.57265">
        <ele>448</ele>
        <time>2022-09-04T14:11:52Z</time>
      </trkpt>
      <trkpt lat="43.08384" lon="0.57265">
        <ele>448.2</ele>
        <time>2022-09-04T14:11:53Z</time>
      </trkpt>
      <trkpt lat="43.08382" lon="0.57262">
        <ele>448.4</ele>
        <time>2022-09-04T14:11:55Z</time>
      </trkpt>
      <trkpt lat="43.08379" lon="0.57257">
        <ele>449</ele>
        <time>2022-09-04T14:11:58Z</time>
      </trkpt>
      <trkpt lat="43.08379" lon="0.57255">
        <ele>449.2</ele>
        <time>2022-09-04T14:11:59Z</time>
      </trkpt>
      <trkpt lat="43.08377" lon="0.57249">
        <ele>450</ele>
        <time>2022-09-04T14:12:03Z</time>
      </trkpt>
      <trkpt lat="43.08376" lon="0.57247">
        <ele>450.2</ele>
        <time>2022-09-04T14:12:04Z</time>
      </trkpt>
      <trkpt lat="43.08376" lon="0.57244">
        <ele>450.6</ele>
        <time>2022-09-04T14:12:06Z</time>
      </trkpt>
      <trkpt lat="43.08375" lon="0.57231">
        <ele>452</ele>
        <time>2022-09-04T14:12:45Z</time>
      </trkpt>
      <trkpt lat="43.08376" lon="0.57223">
        <ele>453.2</ele>
        <time>2022-09-04T14:12:49Z</time>
      </trkpt>
      <trkpt lat="43.08374" lon="0.57217">
        <ele>454</ele>
        <time>2022-09-04T14:12:53Z</time>
      </trkpt>
      <trkpt lat="43.08373" lon="0.57213">
        <ele>454.4</ele>
        <time>2022-09-04T14:12:55Z</time>
      </trkpt>
      <trkpt lat="43.08376" lon="0.57209">
        <ele>455</ele>
        <time>2022-09-04T14:12:58Z</time>
      </trkpt>
      <trkpt lat="43.08376" lon="0.57206">
        <ele>455.4</ele>
        <time>2022-09-04T14:13:00Z</time>
      </trkpt>
      <trkpt lat="43.08375" lon="0.57205">
        <ele>455.6</ele>
        <time>2022-09-04T14:13:01Z</time>
      </trkpt>
      <trkpt lat="43.08372" lon="0.57203">
        <ele>456</ele>
        <time>2022-09-04T14:13:03Z</time>
      </trkpt>
      <trkpt lat="43.08372" lon="0.57196">
        <ele>456.6</ele>
        <time>2022-09-04T14:13:06Z</time>
      </trkpt>
      <trkpt lat="43.08372" lon="0.57194">
        <ele>456.6</ele>
        <time>2022-09-04T14:13:07Z</time>
      </trkpt>
      <trkpt lat="43.08372" lon="0.57193">
        <ele>456.8</ele>
        <time>2022-09-04T14:13:08Z</time>
      </trkpt>
      <trkpt lat="43.08373" lon="0.57189">
        <ele>457.4</ele>
        <time>2022-09-04T14:13:11Z</time>
      </trkpt>
      <trkpt lat="43.08374" lon="0.57188">
        <ele>457.6</ele>
        <time>2022-09-04T14:13:12Z</time>
      </trkpt>
      <trkpt lat="43.08409" lon="0.5711">
        <ele>474.6</ele>
        <time>2022-09-04T14:16:43Z</time>
      </trkpt>
      <trkpt lat="43.08416" lon="0.57107">
        <ele>474.8</ele>
        <time>2022-09-04T14:16:45Z</time>
      </trkpt>
      <trkpt lat="43.08428" lon="0.57098">
        <ele>475.2</ele>
        <time>2022-09-04T14:16:49Z</time>
      </trkpt>
      <trkpt lat="43.08435" lon="0.57086">
        <ele>475.6</ele>
        <time>2022-09-04T14:16:53Z</time>
      </trkpt>
      <trkpt lat="43.08436" lon="0.57084">
        <ele>475.8</ele>
        <time>2022-09-04T14:16:54Z</time>
      </trkpt>
      <trkpt lat="43.08444" lon="0.57069">
        <ele>476.6</ele>
        <time>2022-09-04T14:17:00Z</time>
      </trkpt>
      <trkpt lat="43.08447" lon="0.57064">
        <ele>477</ele>
        <time>2022-09-04T14:17:02Z</time>
      </trkpt>
      <trkpt lat="43.08453" lon="0.57047">
        <ele>477.4</ele>
        <time>2022-09-04T14:17:09Z</time>
      </trkpt>
      <trkpt lat="43.08458" lon="0.57037">
        <ele>477.8</ele>
        <time>2022-09-04T14:17:13Z</time>
      </trkpt>
      <trkpt lat="43.08462" lon="0.57026">
        <ele>478</ele>
        <time>2022-09-04T14:17:16Z</time>
      </trkpt>
      <trkpt lat="43.08472" lon="0.56996">
        <ele>478.6</ele>
        <time>2022-09-04T14:17:25Z</time>
      </trkpt>
      <trkpt lat="43.08479" lon="0.56979">
        <ele>478.8</ele>
        <time>2022-09-04T14:17:30Z</time>
      </trkpt>
      <trkpt lat="43.08482" lon="0.56971">
        <ele>479</ele>
        <time>2022-09-04T14:17:33Z</time>
      </trkpt>
      <trkpt lat="43.0849" lon="0.56948">
        <ele>479.2</ele>
        <time>2022-09-04T14:17:40Z</time>
      </trkpt>
      <trkpt lat="43.08501" lon="0.56926">
        <ele>479.6</ele>
        <time>2022-09-04T14:17:47Z</time>
      </trkpt>
      <trkpt lat="43.08504" lon="0.56918">
        <ele>479.8</ele>
        <time>2022-09-04T14:17:50Z</time>
      </trkpt>
      <trkpt lat="43.08506" lon="0.56914">
        <ele>480</ele>
        <time>2022-09-04T14:17:52Z</time>
      </trkpt>
    </trkseg>
  </trk>
  <trk>
    <name><![CDATA[J2 - Far west - Mirepoix - Saint-Lizier ]]></name>
    <extensions>
      <line xmlns="http://www.topografix.com/GPX/gpx_style/0/2">
        <color>000088</color>
        <width>4</width>
      </line>
    </extensions>
    <trkseg>
      <trkpt lat="43.0885" lon="1.87315">
        <ele>295.2</ele>
        <time>2022-09-03T07:24:15Z</time>
      </trkpt>
      <trkpt lat="43.08847" lon="1.8731">
        <ele>295.2</ele>
        <time>2022-09-03T07:24:22Z</time>
      </trkpt>
      <trkpt lat="43.08845" lon="1.87304">
        <ele>295.2</ele>
        <time>2022-09-03T07:24:25Z</time>
      </trkpt>
      <trkpt lat="43.0884" lon="1.87281">
        <ele>295</ele>
        <time>2022-09-03T07:24:34Z</time>
      </trkpt>
      <trkpt lat="43.08833" lon="1.87265">
        <ele>294.8</ele>
        <time>2022-09-03T07:24:40Z</time>
      </trkpt>
      <trkpt lat="43.08837" lon="1.87241">
        <ele>294.8</ele>
        <time>2022-09-03T07:24:46Z</time>
      </trkpt>
      <trkpt lat="43.08841" lon="1.87221">
        <ele>294.8</ele>
        <time>2022-09-03T07:24:53Z</time>
      </trkpt>
      <trkpt lat="43.08845" lon="1.87217">
        <ele>294.6</ele>
        <time>2022-09-03T07:24:57Z</time>
      </trkpt>
      <trkpt lat="43.08864" lon="1.87209">
        <ele>294.8</ele>
        <time>2022-09-03T07:29:41Z</time>
      </trkpt>
      <trkpt lat="43.08867" lon="1.8721">
        <ele>295</ele>
        <time>2022-09-03T07:29:42Z</time>
      </trkpt>
      <trkpt lat="43.08885" lon="1.8721">
        <ele>294.6</ele>
        <time>2022-09-03T07:29:48Z</time>
      </trkpt>
      <trkpt lat="43.08904" lon="1.87215">
        <ele>294.4</ele>
        <time>2022-09-03T07:29:53Z</time>
      </trkpt>
      <trkpt lat="43.08906" lon="1.87218">
        <ele>294.4</ele>
        <time>2022-09-03T07:29:54Z</time>
      </trkpt>
      <trkpt lat="43.0891" lon="1.87235">
        <ele>294.4</ele>
        <time>2022-09-03T07:29:58Z</time>
      </trkpt>
      <trkpt lat="43.0891" lon="1.87239">
        <ele>294.4</ele>
        <time>2022-09-03T07:29:59Z</time>
      </trkpt>
      <trkpt lat="43.08911" lon="1.87269">
        <ele>294.6</ele>
        <time>2022-09-03T07:30:06Z</time>
      </trkpt>
      <trkpt lat="43.08911" lon="1.87303">
        <ele>295</ele>
        <time>2022-09-03T07:30:14Z</time>
      </trkpt>
      <trkpt lat="43.08911" lon="1.8733">
        <ele>295.4</ele>
        <time>2022-09-03T07:30:21Z</time>
      </trkpt>
      <trkpt lat="43.08912" lon="1.87359">
        <ele>295.6</ele>
        <time>2022-09-03T07:30:28Z</time>
      </trkpt>
      <trkpt lat="43.08911" lon="1.8739">
        <ele>296.2</ele>
        <time>2022-09-03T07:30:35Z</time>
      </trkpt>
      <trkpt lat="43.08913" lon="1.87418">
        <ele>296.4</ele>
        <time>2022-09-03T07:30:42Z</time>
      </trkpt>
      <trkpt lat="43.08912" lon="1.87448">
        <ele>296.6</ele>
        <time>2022-09-03T07:30:49Z</time>
      </trkpt>
      <trkpt lat="43.08912" lon="1.87481">
        <ele>296.8</ele>
        <time>2022-09-03T07:30:56Z</time>
      </trkpt>
      <trkpt lat="43.08912" lon="1.8751">
        <ele>297</ele>
        <time>2022-09-03T07:31:02Z</time>
      </trkpt>
      <trkpt lat="43.08913" lon="1.87537">
        <ele>297.2</ele>
        <time>2022-09-03T07:31:08Z</time>
      </trkpt>
      <trkpt lat="43.08913" lon="1.87542">
        <ele>297.2</ele>
        <time>2022-09-03T07:31:09Z</time>
      </trkpt>
      <trkpt lat="43.08913" lon="1.87579">
        <ele>297.4</ele>
        <time>2022-09-03T07:31:17Z</time>
      </trkpt>
      <trkpt lat="43.08915" lon="1.8761">
        <ele>297</ele>
        <time>2022-09-03T07:31:23Z</time>
      </trkpt>
      <trkpt lat="43.08918" lon="1.87614">
        <ele>297</ele>
        <time>2022-09-03T07:31:24Z</time>
      </trkpt>
      <trkpt lat="43.08929" lon="1.87617">
        <ele>297</ele>
        <time>2022-09-03T07:31:28Z</time>
      </trkpt>
      <trkpt lat="43.08954" lon="1.8762">
        <ele>296.6</ele>
        <time>2022-09-03T07:31:35Z</time>
      </trkpt>
      <trkpt lat="43.08978" lon="1.87618">
        <ele>296.4</ele>
        <time>2022-09-03T07:31:41Z</time>
      </trkpt>
      <trkpt lat="43.09003" lon="1.87619">
        <ele>296.2</ele>
        <time>2022-09-03T07:31:47Z</time>
      </trkpt>
      <trkpt lat="43.09011" lon="1.87619">
        <ele>296.2</ele>
        <time>2022-09-03T07:31:49Z</time>
      </trkpt>
      <trkpt lat="43.09045" lon="1.8762">
        <ele>296</ele>
        <time>2022-09-03T07:31:56Z</time>
      </trkpt>
      <trkpt lat="43.09073" lon="1.87621">
        <ele>295.6</ele>
        <time>2022-09-03T07:32:02Z</time>
      </trkpt>
      <trkpt lat="43.09111" lon="1.87623">
        <ele>295.2</ele>
        <time>2022-09-03T07:32:10Z</time>
      </trkpt>
      <trkpt lat="43.09115" lon="1.87624">
        <ele>295</ele>
        <time>2022-09-03T07:32:11Z</time>
      </trkpt>
      <trkpt lat="43.09143" lon="1.87627">
        <ele>295</ele>
        <time>2022-09-03T07:32:17Z</time>
      </trkpt>
      <trkpt lat="43.09176" lon="1.87629">
        <ele>294.8</ele>
        <time>2022-09-03T07:32:24Z</time>
      </trkpt>
      <trkpt lat="43.09209" lon="1.87627">
        <ele>295</ele>
        <time>2022-09-03T07:32:31Z</time>
      </trkpt>
      <trkpt lat="43.09241" lon="1.87625">
        <ele>294.8</ele>
        <time>2022-09-03T07:32:38Z</time>
      </trkpt>
      <trkpt lat="43.09284" lon="1.87623">
        <ele>294.8</ele>
        <time>2022-09-03T07:32:47Z</time>
      </trkpt>
      <trkpt lat="43.09331" lon="1.87624">
        <ele>294.8</ele>
        <time>2022-09-03T07:32:57Z</time>
      </trkpt>
      <trkpt lat="43.09373" lon="1.87624">
        <ele>294.8</ele>
        <time>2022-09-03T07:33:06Z</time>
      </trkpt>
      <trkpt lat="43.09419" lon="1.87625">
        <ele>295</ele>
        <time>2022-09-03T07:33:16Z</time>
      </trkpt>
      <trkpt lat="43.09459" lon="1.87626">
        <ele>294.6</ele>
        <time>2022-09-03T07:33:25Z</time>
      </trkpt>
      <trkpt lat="43.09487" lon="1.87626">
        <ele>294</ele>
        <time>2022-09-03T07:33:31Z</time>
      </trkpt>
      <trkpt lat="43.09502" lon="1.87627">
        <ele>294</ele>
        <time>2022-09-03T07:33:34Z</time>
      </trkpt>
      <trkpt lat="43.09512" lon="1.87626">
        <ele>294</ele>
        <time>2022-09-03T07:33:36Z</time>
      </trkpt>
      <trkpt lat="43.09525" lon="1.87627">
        <ele>293.8</ele>
        <time>2022-09-03T07:33:39Z</time>
      </trkpt>
      <trkpt lat="43.09559" lon="1.87627">
        <ele>293.2</ele>
        <time>2022-09-03T07:33:46Z</time>
      </trkpt>
      <trkpt lat="43.09583" lon="1.87626">
        <ele>293</ele>
        <time>2022-09-03T07:33:51Z</time>
      </trkpt>
      <trkpt lat="43.09588" lon="1.87626">
        <ele>293</ele>
        <time>2022-09-03T07:33:52Z</time>
      </trkpt>
      <trkpt lat="43.09604" lon="1.87627">
        <ele>292.8</ele>
        <time>2022-09-03T07:33:55Z</time>
      </trkpt>
      <trkpt lat="43.09613" lon="1.8763">
        <ele>292.6</ele>
        <time>2022-09-03T07:33:57Z</time>
      </trkpt>
      <trkpt lat="43.09618" lon="1.8763">
        <ele>292.6</ele>
        <time>2022-09-03T07:33:58Z</time>
      </trkpt>
      <trkpt lat="43.09628" lon="1.87623">
        <ele>292.6</ele>
        <time>2022-09-03T07:34:01Z</time>
      </trkpt>
      <trkpt lat="43.09639" lon="1.87602">
        <ele>292.4</ele>
        <time>2022-09-03T07:34:05Z</time>
      </trkpt>
      <trkpt lat="43.09641" lon="1.87595">
        <ele>292.4</ele>
        <time>2022-09-03T07:34:06Z</time>
      </trkpt>
      <trkpt lat="43.09646" lon="1.87567">
        <ele>292.2</ele>
        <time>2022-09-03T07:34:10Z</time>
      </trkpt>
      <trkpt lat="43.09647" lon="1.87559">
        <ele>292</ele>
        <time>2022-09-03T07:34:11Z</time>
      </trkpt>
      <trkpt lat="43.09648" lon="1.87514">
        <ele>291.4</ele>
        <time>2022-09-03T07:34:17Z</time>
      </trkpt>
      <trkpt lat="43.09649" lon="1.87508">
        <ele>291.4</ele>
        <time>2022-09-03T07:34:18Z</time>
      </trkpt>
      <trkpt lat="43.09652" lon="1.87486">
        <ele>291</ele>
        <time>2022-09-03T07:34:21Z</time>
      </trkpt>
      <trkpt lat="43.09654" lon="1.8744">
        <ele>290.8</ele>
        <time>2022-09-03T07:34:27Z</time>
      </trkpt>
      <trkpt lat="43.09655" lon="1.87425">
        <ele>290.6</ele>
        <time>2022-09-03T07:34:29Z</time>
      </trkpt>
      <trkpt lat="43.0966" lon="1.87373">
        <ele>290.2</ele>
        <time>2022-09-03T07:34:36Z</time>
      </trkpt>
      <trkpt lat="43.09665" lon="1.87321">
        <ele>289.8</ele>
        <time>2022-09-03T07:34:43Z</time>
      </trkpt>
      <trkpt lat="43.09666" lon="1.87313">
        <ele>289.8</ele>
        <time>2022-09-03T07:34:44Z</time>
      </trkpt>
      <trkpt lat="43.09672" lon="1.8724">
        <ele>289.4</ele>
        <time>2022-09-03T07:34:54Z</time>
      </trkpt>
      <trkpt lat="43.09677" lon="1.87167">
        <ele>289</ele>
        <time>2022-09-03T07:35:04Z</time>
      </trkpt>
      <trkpt lat="43.09678" lon="1.87152">
        <ele>288.8</ele>
        <time>2022-09-03T07:35:06Z</time>
      </trkpt>
      <trkpt lat="43.0968" lon="1.87093">
        <ele>288.6</ele>
        <time>2022-09-03T07:35:14Z</time>
      </trkpt>
      <trkpt lat="43.09684" lon="1.87039">
        <ele>288.6</ele>
        <time>2022-09-03T07:35:22Z</time>
      </trkpt>
      <trkpt lat="43.09679" lon="1.87002">
        <ele>288.6</ele>
        <time>2022-09-03T07:35:27Z</time>
      </trkpt>
      <trkpt lat="43.09677" lon="1.86996">
        <ele>288.6</ele>
        <time>2022-09-03T07:35:28Z</time>
      </trkpt>
      <trkpt lat="43.0966" lon="1.86927">
        <ele>288.4</ele>
        <time>2022-09-03T07:35:38Z</time>
      </trkpt>
      <trkpt lat="43.09641" lon="1.86852">
        <ele>288.2</ele>
        <time>2022-09-03T07:35:49Z</time>
      </trkpt>
      <trkpt lat="43.09639" lon="1.86845">
        <ele>288.2</ele>
        <time>2022-09-03T07:35:50Z</time>
      </trkpt>
      <trkpt lat="43.09623" lon="1.8678">
        <ele>287.8</ele>
        <time>2022-09-03T07:36:00Z</time>
      </trkpt>
      <trkpt lat="43.0962" lon="1.86767">
        <ele>288</ele>
        <time>2022-09-03T07:36:02Z</time>
      </trkpt>
      <trkpt lat="43.09605" lon="1.86702">
        <ele>288</ele>
        <time>2022-09-03T07:36:12Z</time>
      </trkpt>
      <trkpt lat="43.09594" lon="1.86654">
        <ele>288</ele>
        <time>2022-09-03T07:36:20Z</time>
      </trkpt>
      <trkpt lat="43.09582" lon="1.86606">
        <ele>287.8</ele>
        <time>2022-09-03T07:36:28Z</time>
      </trkpt>
      <trkpt lat="43.0957" lon="1.8655">
        <ele>287.8</ele>
        <time>2022-09-03T07:36:37Z</time>
      </trkpt>
      <trkpt lat="43.09553" lon="1.86474">
        <ele>287.6</ele>
        <time>2022-09-03T07:36:49Z</time>
      </trkpt>
      <trkpt lat="43.09538" lon="1.8641">
        <ele>287.8</ele>
        <time>2022-09-03T07:36:59Z</time>
      </trkpt>
      <trkpt lat="43.09528" lon="1.86361">
        <ele>287.8</ele>
        <time>2022-09-03T07:37:07Z</time>
      </trkpt>
      <trkpt lat="43.09513" lon="1.86297">
        <ele>288</ele>
        <time>2022-09-03T07:37:17Z</time>
      </trkpt>
      <trkpt lat="43.09501" lon="1.8624">
        <ele>288</ele>
        <time>2022-09-03T07:37:26Z</time>
      </trkpt>
      <trkpt lat="43.09498" lon="1.8618">
        <ele>288</ele>
        <time>2022-09-03T07:37:35Z</time>
      </trkpt>
      <trkpt lat="43.09497" lon="1.86128">
        <ele>287.4</ele>
        <time>2022-09-03T07:37:42Z</time>
      </trkpt>
      <trkpt lat="43.09496" lon="1.86096">
        <ele>286.8</ele>
        <time>2022-09-03T07:37:46Z</time>
      </trkpt>
      <trkpt lat="43.09495" lon="1.86055">
        <ele>286.2</ele>
        <time>2022-09-03T07:37:51Z</time>
      </trkpt>
      <trkpt lat="43.09494" lon="1.85992">
        <ele>285.8</ele>
        <time>2022-09-03T07:37:59Z</time>
      </trkpt>
      <trkpt lat="43.09494" lon="1.85985">
        <ele>285.6</ele>
        <time>2022-09-03T07:38:00Z</time>
      </trkpt>
      <trkpt lat="43.09493" lon="1.85911">
        <ele>285.4</ele>
        <time>2022-09-03T07:38:10Z</time>
      </trkpt>
      <trkpt lat="43.09493" lon="1.85903">
        <ele>285.4</ele>
        <time>2022-09-03T07:38:11Z</time>
      </trkpt>
      <trkpt lat="43.09491" lon="1.85825">
        <ele>285.4</ele>
        <time>2022-09-03T07:38:22Z</time>
      </trkpt>
      <trkpt lat="43.09489" lon="1.85748">
        <ele>285</ele>
        <time>2022-09-03T07:38:33Z</time>
      </trkpt>
      <trkpt lat="43.09489" lon="1.85734">
        <ele>285</ele>
        <time>2022-09-03T07:38:35Z</time>
      </trkpt>
      <trkpt lat="43.09488" lon="1.85666">
        <ele>285</ele>
        <time>2022-09-03T07:38:45Z</time>
      </trkpt>
      <trkpt lat="43.09486" lon="1.85597">
        <ele>285</ele>
        <time>2022-09-03T07:38:55Z</time>
      </trkpt>
      <trkpt lat="43.09484" lon="1.85527">
        <ele>285</ele>
        <time>2022-09-03T07:39:05Z</time>
      </trkpt>
      <trkpt lat="43.09483" lon="1.85458">
        <ele>285</ele>
        <time>2022-09-03T07:39:15Z</time>
      </trkpt>
      <trkpt lat="43.09481" lon="1.85384">
        <ele>285</ele>
        <time>2022-09-03T07:39:26Z</time>
      </trkpt>
      <trkpt lat="43.09479" lon="1.85308">
        <ele>285</ele>
        <time>2022-09-03T07:39:37Z</time>
      </trkpt>
      <trkpt lat="43.09477" lon="1.85233">
        <ele>284.8</ele>
        <time>2022-09-03T07:39:48Z</time>
      </trkpt>
      <trkpt lat="43.09476" lon="1.85206">
        <ele>284.8</ele>
        <time>2022-09-03T07:39:52Z</time>
      </trkpt>
      <trkpt lat="43.09475" lon="1.85159">
        <ele>284.8</ele>
        <time>2022-09-03T07:39:59Z</time>
      </trkpt>
      <trkpt lat="43.09473" lon="1.85079">
        <ele>284.6</ele>
        <time>2022-09-03T07:40:11Z</time>
      </trkpt>
      <trkpt lat="43.09473" lon="1.85072">
        <ele>284.6</ele>
        <time>2022-09-03T07:40:12Z</time>
      </trkpt>
      <trkpt lat="43.09471" lon="1.84992">
        <ele>284.8</ele>
        <time>2022-09-03T07:40:24Z</time>
      </trkpt>
      <trkpt lat="43.0947" lon="1.84933">
        <ele>284.8</ele>
        <time>2022-09-03T07:40:33Z</time>
      </trkpt>
      <trkpt lat="43.09469" lon="1.84867">
        <ele>284.8</ele>
        <time>2022-09-03T07:40:43Z</time>
      </trkpt>
      <trkpt lat="43.09467" lon="1.84805">
        <ele>284.8</ele>
        <time>2022-09-03T07:40:53Z</time>
      </trkpt>
      <trkpt lat="43.09469" lon="1.84765">
        <ele>285.2</ele>
        <time>2022-09-03T07:41:00Z</time>
      </trkpt>
      <trkpt lat="43.09475" lon="1.84725">
        <ele>285.6</ele>
        <time>2022-09-03T07:41:08Z</time>
      </trkpt>
      <trkpt lat="43.09475" lon="1.8472">
        <ele>285.8</ele>
        <time>2022-09-03T07:41:09Z</time>
      </trkpt>
      <trkpt lat="43.09478" lon="1.84684">
        <ele>286.4</ele>
        <time>2022-09-03T07:41:16Z</time>
      </trkpt>
      <trkpt lat="43.09469" lon="1.84662">
        <ele>286.6</ele>
        <time>2022-09-03T07:41:21Z</time>
      </trkpt>
      <trkpt lat="43.09454" lon="1.84656">
        <ele>286.6</ele>
        <time>2022-09-03T07:41:25Z</time>
      </trkpt>
      <trkpt lat="43.0945" lon="1.84654">
        <ele>286.6</ele>
        <time>2022-09-03T07:41:26Z</time>
      </trkpt>
      <trkpt lat="43.09441" lon="1.84652">
        <ele>286.4</ele>
        <time>2022-09-03T07:41:28Z</time>
      </trkpt>
      <trkpt lat="43.09433" lon="1.84651">
        <ele>286.4</ele>
        <time>2022-09-03T07:41:30Z</time>
      </trkpt>
      <trkpt lat="43.09412" lon="1.84649">
        <ele>286.6</ele>
        <time>2022-09-03T07:41:36Z</time>
      </trkpt>
      <trkpt lat="43.09401" lon="1.84642">
        <ele>286.8</ele>
        <time>2022-09-03T07:41:41Z</time>
      </trkpt>
      <trkpt lat="43.09399" lon="1.84642">
        <ele>286.8</ele>
        <time>2022-09-03T07:41:42Z</time>
      </trkpt>
      <trkpt lat="43.09392" lon="1.84635">
        <ele>287.8</ele>
        <time>2022-09-03T07:46:22Z</time>
      </trkpt>
      <trkpt lat="43.09389" lon="1.8463">
        <ele>288</ele>
        <time>2022-09-03T07:46:25Z</time>
      </trkpt>
      <trkpt lat="43.09383" lon="1.84614">
        <ele>288.2</ele>
        <time>2022-09-03T07:46:30Z</time>
      </trkpt>
      <trkpt lat="43.09369" lon="1.84579">
        <ele>288.6</ele>
        <time>2022-09-03T07:46:38Z</time>
      </trkpt>
      <trkpt lat="43.09358" lon="1.84542">
        <ele>288.8</ele>
        <time>2022-09-03T07:46:45Z</time>
      </trkpt>
      <trkpt lat="43.09346" lon="1.84502">
        <ele>287.8</ele>
        <time>2022-09-03T07:46:51Z</time>
      </trkpt>
      <trkpt lat="43.09344" lon="1.84494">
        <ele>287.6</ele>
        <time>2022-09-03T07:46:52Z</time>
      </trkpt>
      <trkpt lat="43.09335" lon="1.84462">
        <ele>286.6</ele>
        <time>2022-09-03T07:46:56Z</time>
      </trkpt>
      <trkpt lat="43.09326" lon="1.84429">
        <ele>286</ele>
        <time>2022-09-03T07:47:00Z</time>
      </trkpt>
      <trkpt lat="43.09322" lon="1.84413">
        <ele>285.6</ele>
        <time>2022-09-03T07:47:02Z</time>
      </trkpt>
      <trkpt lat="43.09309" lon="1.84366">
        <ele>284.8</ele>
        <time>2022-09-03T07:47:08Z</time>
      </trkpt>
      <trkpt lat="43.09295" lon="1.84313">
        <ele>284.4</ele>
        <time>2022-09-03T07:47:15Z</time>
      </trkpt>
      <trkpt lat="43.0929" lon="1.84298">
        <ele>284.4</ele>
        <time>2022-09-03T07:47:17Z</time>
      </trkpt>
      <trkpt lat="43.09268" lon="1.84234">
        <ele>284</ele>
        <time>2022-09-03T07:47:26Z</time>
      </trkpt>
      <trkpt lat="43.09258" lon="1.84216">
        <ele>284.2</ele>
        <time>2022-09-03T07:47:29Z</time>
      </trkpt>
      <trkpt lat="43.09244" lon="1.84193">
        <ele>284.4</ele>
        <time>2022-09-03T07:47:33Z</time>
      </trkpt>
      <trkpt lat="43.09235" lon="1.84183">
        <ele>284.4</ele>
        <time>2022-09-03T07:47:35Z</time>
      </trkpt>
      <trkpt lat="43.09213" lon="1.8416">
        <ele>284</ele>
        <time>2022-09-03T07:47:40Z</time>
      </trkpt>
      <trkpt lat="43.09172" lon="1.84121">
        <ele>283.4</ele>
        <time>2022-09-03T07:47:49Z</time>
      </trkpt>
      <trkpt lat="43.09167" lon="1.84116">
        <ele>283.6</ele>
        <time>2022-09-03T07:47:50Z</time>
      </trkpt>
      <trkpt lat="43.0912" lon="1.8407">
        <ele>283.4</ele>
        <time>2022-09-03T07:48:00Z</time>
      </trkpt>
      <trkpt lat="43.09115" lon="1.84066">
        <ele>283.2</ele>
        <time>2022-09-03T07:48:01Z</time>
      </trkpt>
      <trkpt lat="43.09073" lon="1.84026">
        <ele>283</ele>
        <time>2022-09-03T07:48:10Z</time>
      </trkpt>
      <trkpt lat="43.09032" lon="1.83987">
        <ele>282.6</ele>
        <time>2022-09-03T07:48:19Z</time>
      </trkpt>
      <trkpt lat="43.09005" lon="1.8396">
        <ele>282.4</ele>
        <time>2022-09-03T07:48:25Z</time>
      </trkpt>
      <trkpt lat="43.08993" lon="1.83945">
        <ele>282.4</ele>
        <time>2022-09-03T07:48:28Z</time>
      </trkpt>
      <trkpt lat="43.08952" lon="1.83895">
        <ele>282.2</ele>
        <time>2022-09-03T07:48:38Z</time>
      </trkpt>
      <trkpt lat="43.08916" lon="1.83848">
        <ele>282.4</ele>
        <time>2022-09-03T07:48:47Z</time>
      </trkpt>
      <trkpt lat="43.08892" lon="1.83808">
        <ele>282.2</ele>
        <time>2022-09-03T07:48:54Z</time>
      </trkpt>
      <trkpt lat="43.08864" lon="1.83752">
        <ele>281.6</ele>
        <time>2022-09-03T07:49:03Z</time>
      </trkpt>
      <trkpt lat="43.08839" lon="1.83704">
        <ele>282</ele>
        <time>2022-09-03T07:49:11Z</time>
      </trkpt>
      <trkpt lat="43.08824" lon="1.83674">
        <ele>281.2</ele>
        <time>2022-09-03T07:49:16Z</time>
      </trkpt>
      <trkpt lat="43.08805" lon="1.83638">
        <ele>281.6</ele>
        <time>2022-09-03T07:49:22Z</time>
      </trkpt>
      <trkpt lat="43.08774" lon="1.83578">
        <ele>280.8</ele>
        <time>2022-09-03T07:49:32Z</time>
      </trkpt>
      <trkpt lat="43.08745" lon="1.83514">
        <ele>281.4</ele>
        <time>2022-09-03T07:49:42Z</time>
      </trkpt>
      <trkpt lat="43.0874" lon="1.83502">
        <ele>281.4</ele>
        <time>2022-09-03T07:49:44Z</time>
      </trkpt>
      <trkpt lat="43.08719" lon="1.83436">
        <ele>281.2</ele>
        <time>2022-09-03T07:49:54Z</time>
      </trkpt>
      <trkpt lat="43.08705" lon="1.83373">
        <ele>281</ele>
        <time>2022-09-03T07:50:03Z</time>
      </trkpt>
      <trkpt lat="43.08691" lon="1.83295">
        <ele>280.8</ele>
        <time>2022-09-03T07:50:14Z</time>
      </trkpt>
      <trkpt lat="43.0868" lon="1.83231">
        <ele>281</ele>
        <time>2022-09-03T07:50:23Z</time>
      </trkpt>
      <trkpt lat="43.08668" lon="1.83155">
        <ele>281.2</ele>
        <time>2022-09-03T07:50:34Z</time>
      </trkpt>
      <trkpt lat="43.08659" lon="1.83103">
        <ele>281.4</ele>
        <time>2022-09-03T07:50:42Z</time>
      </trkpt>
      <trkpt lat="43.08646" lon="1.83027">
        <ele>281</ele>
        <time>2022-09-03T07:50:53Z</time>
      </trkpt>
      <trkpt lat="43.08632" lon="1.82951">
        <ele>281.2</ele>
        <time>2022-09-03T07:51:04Z</time>
      </trkpt>
      <trkpt lat="43.0863" lon="1.82944">
        <ele>281.4</ele>
        <time>2022-09-03T07:51:05Z</time>
      </trkpt>
      <trkpt lat="43.08614" lon="1.82895">
        <ele>282</ele>
        <time>2022-09-03T07:51:13Z</time>
      </trkpt>
      <trkpt lat="43.086" lon="1.82865">
        <ele>281.8</ele>
        <time>2022-09-03T07:51:19Z</time>
      </trkpt>
      <trkpt lat="43.08584" lon="1.82839">
        <ele>282</ele>
        <time>2022-09-03T07:51:25Z</time>
      </trkpt>
      <trkpt lat="43.08562" lon="1.82799">
        <ele>282.2</ele>
        <time>2022-09-03T07:51:33Z</time>
      </trkpt>
      <trkpt lat="43.08557" lon="1.8279">
        <ele>282.4</ele>
        <time>2022-09-03T07:51:35Z</time>
      </trkpt>
      <trkpt lat="43.08545" lon="1.82769">
        <ele>282.2</ele>
        <time>2022-09-03T07:51:39Z</time>
      </trkpt>
      <trkpt lat="43.08533" lon="1.82747">
        <ele>282</ele>
        <time>2022-09-03T07:51:43Z</time>
      </trkpt>
      <trkpt lat="43.0853" lon="1.82742">
        <ele>282</ele>
        <time>2022-09-03T07:51:44Z</time>
      </trkpt>
      <trkpt lat="43.08517" lon="1.82721">
        <ele>282</ele>
        <time>2022-09-03T07:51:48Z</time>
      </trkpt>
      <trkpt lat="43.08511" lon="1.82711">
        <ele>281.8</ele>
        <time>2022-09-03T07:51:50Z</time>
      </trkpt>
      <trkpt lat="43.08502" lon="1.8269">
        <ele>281.6</ele>
        <time>2022-09-03T07:51:54Z</time>
      </trkpt>
      <trkpt lat="43.085" lon="1.82685">
        <ele>281.6</ele>
        <time>2022-09-03T07:51:55Z</time>
      </trkpt>
      <trkpt lat="43.0849" lon="1.82652">
        <ele>281.8</ele>
        <time>2022-09-03T07:52:01Z</time>
      </trkpt>
      <trkpt lat="43.08487" lon="1.8264">
        <ele>282</ele>
        <time>2022-09-03T07:52:03Z</time>
      </trkpt>
      <trkpt lat="43.08481" lon="1.82615">
        <ele>282.4</ele>
        <time>2022-09-03T07:52:07Z</time>
      </trkpt>
      <trkpt lat="43.08472" lon="1.82588">
        <ele>282.4</ele>
        <time>2022-09-03T07:52:11Z</time>
      </trkpt>
      <trkpt lat="43.08469" lon="1.82575">
        <ele>282.6</ele>
        <time>2022-09-03T07:52:13Z</time>
      </trkpt>
      <trkpt lat="43.08466" lon="1.82569">
        <ele>282.4</ele>
        <time>2022-09-03T07:52:14Z</time>
      </trkpt>
      <trkpt lat="43.08456" lon="1.82547">
        <ele>282.2</ele>
        <time>2022-09-03T07:52:17Z</time>
      </trkpt>
      <trkpt lat="43.08449" lon="1.82532">
        <ele>282</ele>
        <time>2022-09-03T07:52:19Z</time>
      </trkpt>
      <trkpt lat="43.08446" lon="1.82525">
        <ele>282.2</ele>
        <time>2022-09-03T07:52:20Z</time>
      </trkpt>
      <trkpt lat="43.08433" lon="1.82472">
        <ele>281.4</ele>
        <time>2022-09-03T07:52:27Z</time>
      </trkpt>
      <trkpt lat="43.08424" lon="1.82418">
        <ele>280.6</ele>
        <time>2022-09-03T07:52:34Z</time>
      </trkpt>
      <trkpt lat="43.08409" lon="1.82341">
        <ele>280.4</ele>
        <time>2022-09-03T07:52:43Z</time>
      </trkpt>
      <trkpt lat="43.08405" lon="1.82325">
        <ele>280.2</ele>
        <time>2022-09-03T07:52:45Z</time>
      </trkpt>
      <trkpt lat="43.08387" lon="1.8225">
        <ele>280</ele>
        <time>2022-09-03T07:52:54Z</time>
      </trkpt>
      <trkpt lat="43.08384" lon="1.82233">
        <ele>279.8</ele>
        <time>2022-09-03T07:52:56Z</time>
      </trkpt>
      <trkpt lat="43.08373" lon="1.82181">
        <ele>279.2</ele>
        <time>2022-09-03T07:53:02Z</time>
      </trkpt>
      <trkpt lat="43.08369" lon="1.82163">
        <ele>279</ele>
        <time>2022-09-03T07:53:04Z</time>
      </trkpt>
      <trkpt lat="43.08363" lon="1.82115">
        <ele>278.4</ele>
        <time>2022-09-03T07:53:10Z</time>
      </trkpt>
      <trkpt lat="43.08361" lon="1.82089">
        <ele>278.2</ele>
        <time>2022-09-03T07:53:13Z</time>
      </trkpt>
      <trkpt lat="43.08359" lon="1.82054">
        <ele>277.8</ele>
        <time>2022-09-03T07:53:17Z</time>
      </trkpt>
      <trkpt lat="43.08357" lon="1.81978">
        <ele>278.2</ele>
        <time>2022-09-03T07:53:26Z</time>
      </trkpt>
      <trkpt lat="43.08357" lon="1.81955">
        <ele>278.2</ele>
        <time>2022-09-03T07:53:29Z</time>
      </trkpt>
      <trkpt lat="43.08358" lon="1.81887">
        <ele>278.4</ele>
        <time>2022-09-03T07:53:38Z</time>
      </trkpt>
      <trkpt lat="43.08362" lon="1.81835">
        <ele>278.4</ele>
        <time>2022-09-03T07:53:45Z</time>
      </trkpt>
      <trkpt lat="43.08376" lon="1.81791">
        <ele>278.4</ele>
        <time>2022-09-03T07:53:51Z</time>
      </trkpt>
      <trkpt lat="43.08389" lon="1.81741">
        <ele>278.4</ele>
        <time>2022-09-03T07:53:58Z</time>
      </trkpt>
      <trkpt lat="43.08397" lon="1.81693">
        <ele>278.6</ele>
        <time>2022-09-03T07:54:05Z</time>
      </trkpt>
      <trkpt lat="43.08407" lon="1.81643">
        <ele>278.8</ele>
        <time>2022-09-03T07:54:12Z</time>
      </trkpt>
      <trkpt lat="43.08408" lon="1.81636">
        <ele>278.8</ele>
        <time>2022-09-03T07:54:13Z</time>
      </trkpt>
      <trkpt lat="43.08418" lon="1.81604">
        <ele>279</ele>
        <time>2022-09-03T07:54:18Z</time>
      </trkpt>
      <trkpt lat="43.0842" lon="1.81598">
        <ele>279</ele>
        <time>2022-09-03T07:54:19Z</time>
      </trkpt>
      <trkpt lat="43.0843" lon="1.81571">
        <ele>278.6</ele>
        <time>2022-09-03T07:54:23Z</time>
      </trkpt>
      <trkpt lat="43.08444" lon="1.81519">
        <ele>278.4</ele>
        <time>2022-09-03T07:54:30Z</time>
      </trkpt>
      <trkpt lat="43.08454" lon="1.81471">
        <ele>278</ele>
        <time>2022-09-03T07:54:37Z</time>
      </trkpt>
      <trkpt lat="43.08464" lon="1.81419">
        <ele>278</ele>
        <time>2022-09-03T07:54:44Z</time>
      </trkpt>
      <trkpt lat="43.08464" lon="1.81411">
        <ele>278</ele>
        <time>2022-09-03T07:54:45Z</time>
      </trkpt>
      <trkpt lat="43.08468" lon="1.81379">
        <ele>278</ele>
        <time>2022-09-03T07:54:49Z</time>
      </trkpt>
      <trkpt lat="43.08473" lon="1.81364">
        <ele>278.2</ele>
        <time>2022-09-03T07:54:51Z</time>
      </trkpt>
      <trkpt lat="43.08488" lon="1.81333">
        <ele>278.4</ele>
        <time>2022-09-03T07:54:56Z</time>
      </trkpt>
      <trkpt lat="43.08491" lon="1.81328">
        <ele>278.4</ele>
        <time>2022-09-03T07:54:57Z</time>
      </trkpt>
      <trkpt lat="43.08499" lon="1.81321">
        <ele>278.6</ele>
        <time>2022-09-03T07:54:59Z</time>
      </trkpt>
      <trkpt lat="43.08511" lon="1.81315">
        <ele>278.8</ele>
        <time>2022-09-03T07:55:02Z</time>
      </trkpt>
      <trkpt lat="43.08535" lon="1.81306">
        <ele>279.4</ele>
        <time>2022-09-03T07:55:08Z</time>
      </trkpt>
      <trkpt lat="43.08543" lon="1.81303">
        <ele>279.6</ele>
        <time>2022-09-03T07:55:10Z</time>
      </trkpt>
      <trkpt lat="43.08573" lon="1.81293">
        <ele>280.4</ele>
        <time>2022-09-03T07:55:17Z</time>
      </trkpt>
      <trkpt lat="43.08577" lon="1.81292">
        <ele>280.4</ele>
        <time>2022-09-03T07:55:18Z</time>
      </trkpt>
      <trkpt lat="43.08605" lon="1.81277">
        <ele>281.2</ele>
        <time>2022-09-03T07:55:25Z</time>
      </trkpt>
      <trkpt lat="43.08633" lon="1.81249">
        <ele>281.4</ele>
        <time>2022-09-03T07:55:33Z</time>
      </trkpt>
      <trkpt lat="43.08662" lon="1.81203">
        <ele>281.4</ele>
        <time>2022-09-03T07:55:43Z</time>
      </trkpt>
      <trkpt lat="43.08671" lon="1.81177">
        <ele>281.6</ele>
        <time>2022-09-03T07:55:48Z</time>
      </trkpt>
      <trkpt lat="43.08674" lon="1.81159">
        <ele>281.6</ele>
        <time>2022-09-03T07:55:51Z</time>
      </trkpt>
      <trkpt lat="43.08674" lon="1.81121">
        <ele>281.6</ele>
        <time>2022-09-03T07:55:57Z</time>
      </trkpt>
      <trkpt lat="43.0867" lon="1.81057">
        <ele>281.4</ele>
        <time>2022-09-03T07:56:06Z</time>
      </trkpt>
      <trkpt lat="43.08667" lon="1.80991">
        <ele>281.2</ele>
        <time>2022-09-03T07:56:15Z</time>
      </trkpt>
      <trkpt lat="43.08662" lon="1.80916">
        <ele>281</ele>
        <time>2022-09-03T07:56:25Z</time>
      </trkpt>
      <trkpt lat="43.08662" lon="1.80908">
        <ele>281.2</ele>
        <time>2022-09-03T07:56:26Z</time>
      </trkpt>
      <trkpt lat="43.08655" lon="1.80858">
        <ele>281.4</ele>
        <time>2022-09-03T07:56:33Z</time>
      </trkpt>
      <trkpt lat="43.08644" lon="1.80835">
        <ele>281.6</ele>
        <time>2022-09-03T07:56:37Z</time>
      </trkpt>
      <trkpt lat="43.0864" lon="1.80829">
        <ele>281.8</ele>
        <time>2022-09-03T07:56:38Z</time>
      </trkpt>
      <trkpt lat="43.08633" lon="1.8082">
        <ele>281.6</ele>
        <time>2022-09-03T07:56:40Z</time>
      </trkpt>
      <trkpt lat="43.08616" lon="1.80806">
        <ele>282</ele>
        <time>2022-09-03T07:56:44Z</time>
      </trkpt>
      <trkpt lat="43.08588" lon="1.80783">
        <ele>281.8</ele>
        <time>2022-09-03T07:56:50Z</time>
      </trkpt>
      <trkpt lat="43.08563" lon="1.80747">
        <ele>281.6</ele>
        <time>2022-09-03T07:56:57Z</time>
      </trkpt>
      <trkpt lat="43.08546" lon="1.80702">
        <ele>280.8</ele>
        <time>2022-09-03T07:57:04Z</time>
      </trkpt>
      <trkpt lat="43.08524" lon="1.80637">
        <ele>280.8</ele>
        <time>2022-09-03T07:57:13Z</time>
      </trkpt>
      <trkpt lat="43.0851" lon="1.80592">
        <ele>280.6</ele>
        <time>2022-09-03T07:57:19Z</time>
      </trkpt>
      <trkpt lat="43.08503" lon="1.8057">
        <ele>280.6</ele>
        <time>2022-09-03T07:57:22Z</time>
      </trkpt>
      <trkpt lat="43.0849" lon="1.80517">
        <ele>280.4</ele>
        <time>2022-09-03T07:57:29Z</time>
      </trkpt>
      <trkpt lat="43.08484" lon="1.8046">
        <ele>279.8</ele>
        <time>2022-09-03T07:57:36Z</time>
      </trkpt>
      <trkpt lat="43.08481" lon="1.80418">
        <ele>279.4</ele>
        <time>2022-09-03T07:57:41Z</time>
      </trkpt>
      <trkpt lat="43.08475" lon="1.80369">
        <ele>279</ele>
        <time>2022-09-03T07:57:47Z</time>
      </trkpt>
      <trkpt lat="43.08464" lon="1.80312">
        <ele>278.8</ele>
        <time>2022-09-03T07:57:54Z</time>
      </trkpt>
      <trkpt lat="43.08463" lon="1.80261">
        <ele>278.6</ele>
        <time>2022-09-03T07:58:00Z</time>
      </trkpt>
      <trkpt lat="43.08472" lon="1.80212">
        <ele>278.8</ele>
        <time>2022-09-03T07:58:06Z</time>
      </trkpt>
      <trkpt lat="43.0849" lon="1.80138">
        <ele>278.4</ele>
        <time>2022-09-03T07:58:15Z</time>
      </trkpt>
      <trkpt lat="43.08492" lon="1.8013">
        <ele>278.6</ele>
        <time>2022-09-03T07:58:16Z</time>
      </trkpt>
      <trkpt lat="43.08508" lon="1.80054">
        <ele>277.8</ele>
        <time>2022-09-03T07:58:25Z</time>
      </trkpt>
      <trkpt lat="43.0851" lon="1.80038">
        <ele>277.8</ele>
        <time>2022-09-03T07:58:27Z</time>
      </trkpt>
      <trkpt lat="43.08518" lon="1.79963">
        <ele>278.2</ele>
        <time>2022-09-03T07:58:36Z</time>
      </trkpt>
      <trkpt lat="43.08521" lon="1.79916">
        <ele>278.4</ele>
        <time>2022-09-03T07:58:42Z</time>
      </trkpt>
      <trkpt lat="43.08518" lon="1.79858">
        <ele>277.8</ele>
        <time>2022-09-03T07:58:49Z</time>
      </trkpt>
      <trkpt lat="43.08515" lon="1.79825">
        <ele>277.4</ele>
        <time>2022-09-03T07:58:53Z</time>
      </trkpt>
      <trkpt lat="43.08512" lon="1.79801">
        <ele>277</ele>
        <time>2022-09-03T07:58:56Z</time>
      </trkpt>
      <trkpt lat="43.08505" lon="1.79731">
        <ele>276.4</ele>
        <time>2022-09-03T07:59:04Z</time>
      </trkpt>
      <trkpt lat="43.08505" lon="1.79723">
        <ele>276.4</ele>
        <time>2022-09-03T07:59:05Z</time>
      </trkpt>
      <trkpt lat="43.08499" lon="1.79672">
        <ele>275.8</ele>
        <time>2022-09-03T07:59:11Z</time>
      </trkpt>
      <trkpt lat="43.08492" lon="1.79611">
        <ele>275.2</ele>
        <time>2022-09-03T07:59:18Z</time>
      </trkpt>
      <trkpt lat="43.08478" lon="1.79562">
        <ele>275</ele>
        <time>2022-09-03T07:59:24Z</time>
      </trkpt>
      <trkpt lat="43.08452" lon="1.79489">
        <ele>274.6</ele>
        <time>2022-09-03T07:59:33Z</time>
      </trkpt>
      <trkpt lat="43.0844" lon="1.79422">
        <ele>274.6</ele>
        <time>2022-09-03T07:59:41Z</time>
      </trkpt>
      <trkpt lat="43.0843" lon="1.79348">
        <ele>274.4</ele>
        <time>2022-09-03T07:59:50Z</time>
      </trkpt>
      <trkpt lat="43.08426" lon="1.79314">
        <ele>274</ele>
        <time>2022-09-03T07:59:54Z</time>
      </trkpt>
      <trkpt lat="43.08425" lon="1.7927">
        <ele>274.2</ele>
        <time>2022-09-03T07:59:59Z</time>
      </trkpt>
      <trkpt lat="43.08431" lon="1.79201">
        <ele>274.8</ele>
        <time>2022-09-03T08:00:07Z</time>
      </trkpt>
      <trkpt lat="43.08439" lon="1.79124">
        <ele>274.4</ele>
        <time>2022-09-03T08:00:16Z</time>
      </trkpt>
      <trkpt lat="43.0844" lon="1.79115">
        <ele>274.4</ele>
        <time>2022-09-03T08:00:17Z</time>
      </trkpt>
      <trkpt lat="43.08446" lon="1.79038">
        <ele>274</ele>
        <time>2022-09-03T08:00:26Z</time>
      </trkpt>
      <trkpt lat="43.08447" lon="1.79029">
        <ele>274</ele>
        <time>2022-09-03T08:00:27Z</time>
      </trkpt>
      <trkpt lat="43.08458" lon="1.78972">
        <ele>273.8</ele>
        <time>2022-09-03T08:00:34Z</time>
      </trkpt>
      <trkpt lat="43.08485" lon="1.78921">
        <ele>273.8</ele>
        <time>2022-09-03T08:00:41Z</time>
      </trkpt>
      <trkpt lat="43.08516" lon="1.78856">
        <ele>274</ele>
        <time>2022-09-03T08:00:50Z</time>
      </trkpt>
      <trkpt lat="43.08527" lon="1.78811">
        <ele>274.4</ele>
        <time>2022-09-03T08:00:56Z</time>
      </trkpt>
      <trkpt lat="43.08542" lon="1.7876">
        <ele>274.4</ele>
        <time>2022-09-03T08:01:03Z</time>
      </trkpt>
      <trkpt lat="43.08562" lon="1.78711">
        <ele>273.8</ele>
        <time>2022-09-03T08:01:10Z</time>
      </trkpt>
      <trkpt lat="43.0857" lon="1.78674">
        <ele>274</ele>
        <time>2022-09-03T08:01:15Z</time>
      </trkpt>
      <trkpt lat="43.08583" lon="1.78631">
        <ele>274</ele>
        <time>2022-09-03T08:01:21Z</time>
      </trkpt>
      <trkpt lat="43.08608" lon="1.78582">
        <ele>272.8</ele>
        <time>2022-09-03T08:01:28Z</time>
      </trkpt>
      <trkpt lat="43.08629" lon="1.78547">
        <ele>271.8</ele>
        <time>2022-09-03T08:01:33Z</time>
      </trkpt>
      <trkpt lat="43.08638" lon="1.78532">
        <ele>271.6</ele>
        <time>2022-09-03T08:01:35Z</time>
      </trkpt>
      <trkpt lat="43.08655" lon="1.7849">
        <ele>270.6</ele>
        <time>2022-09-03T08:01:40Z</time>
      </trkpt>
      <trkpt lat="43.0866" lon="1.78474">
        <ele>270.2</ele>
        <time>2022-09-03T08:01:42Z</time>
      </trkpt>
      <trkpt lat="43.08661" lon="1.78466">
        <ele>270</ele>
        <time>2022-09-03T08:01:43Z</time>
      </trkpt>
      <trkpt lat="43.08659" lon="1.78451">
        <ele>269.6</ele>
        <time>2022-09-03T08:01:45Z</time>
      </trkpt>
      <trkpt lat="43.08641" lon="1.78431">
        <ele>269</ele>
        <time>2022-09-03T08:01:48Z</time>
      </trkpt>
      <trkpt lat="43.08634" lon="1.78426">
        <ele>268.8</ele>
        <time>2022-09-03T08:01:49Z</time>
      </trkpt>
      <trkpt lat="43.08627" lon="1.7842">
        <ele>268.2</ele>
        <time>2022-09-03T08:01:50Z</time>
      </trkpt>
      <trkpt lat="43.08592" lon="1.78395">
        <ele>267.8</ele>
        <time>2022-09-03T08:01:55Z</time>
      </trkpt>
      <trkpt lat="43.0854" lon="1.78358">
        <ele>267.4</ele>
        <time>2022-09-03T08:02:03Z</time>
      </trkpt>
      <trkpt lat="43.08528" lon="1.78349">
        <ele>267.2</ele>
        <time>2022-09-03T08:02:05Z</time>
      </trkpt>
      <trkpt lat="43.08476" lon="1.78312">
        <ele>266.8</ele>
        <time>2022-09-03T08:02:14Z</time>
      </trkpt>
      <trkpt lat="43.08432" lon="1.78281">
        <ele>266.6</ele>
        <time>2022-09-03T08:02:22Z</time>
      </trkpt>
      <trkpt lat="43.08381" lon="1.78244">
        <ele>266.6</ele>
        <time>2022-09-03T08:02:32Z</time>
      </trkpt>
      <trkpt lat="43.08375" lon="1.78241">
        <ele>266.6</ele>
        <time>2022-09-03T08:02:33Z</time>
      </trkpt>
      <trkpt lat="43.08322" lon="1.78204">
        <ele>266.2</ele>
        <time>2022-09-03T08:02:43Z</time>
      </trkpt>
      <trkpt lat="43.08277" lon="1.78171">
        <ele>266.4</ele>
        <time>2022-09-03T08:02:52Z</time>
      </trkpt>
      <trkpt lat="43.08226" lon="1.78135">
        <ele>266.4</ele>
        <time>2022-09-03T08:03:02Z</time>
      </trkpt>
      <trkpt lat="43.08221" lon="1.78132">
        <ele>266.4</ele>
        <time>2022-09-03T08:03:03Z</time>
      </trkpt>
      <trkpt lat="43.08171" lon="1.78097">
        <ele>266.4</ele>
        <time>2022-09-03T08:03:13Z</time>
      </trkpt>
      <trkpt lat="43.08147" lon="1.78079">
        <ele>266.2</ele>
        <time>2022-09-03T08:03:18Z</time>
      </trkpt>
      <trkpt lat="43.08128" lon="1.78066">
        <ele>266.6</ele>
        <time>2022-09-03T08:03:22Z</time>
      </trkpt>
      <trkpt lat="43.08088" lon="1.78038">
        <ele>267</ele>
        <time>2022-09-03T08:03:31Z</time>
      </trkpt>
      <trkpt lat="43.08084" lon="1.78035">
        <ele>267.2</ele>
        <time>2022-09-03T08:03:32Z</time>
      </trkpt>
      <trkpt lat="43.08049" lon="1.78012">
        <ele>268.2</ele>
        <time>2022-09-03T08:03:41Z</time>
      </trkpt>
      <trkpt lat="43.08028" lon="1.77998">
        <ele>268.8</ele>
        <time>2022-09-03T08:03:47Z</time>
      </trkpt>
      <trkpt lat="43.08008" lon="1.77984">
        <ele>268.6</ele>
        <time>2022-09-03T08:03:53Z</time>
      </trkpt>
      <trkpt lat="43.07985" lon="1.7796">
        <ele>268</ele>
        <time>2022-09-03T08:04:01Z</time>
      </trkpt>
      <trkpt lat="43.07977" lon="1.77957">
        <ele>267.4</ele>
        <time>2022-09-03T08:05:16Z</time>
      </trkpt>
      <trkpt lat="43.07975" lon="1.77957">
        <ele>267.6</ele>
        <time>2022-09-03T08:05:17Z</time>
      </trkpt>
      <trkpt lat="43.07972" lon="1.77956">
        <ele>267.8</ele>
        <time>2022-09-03T08:05:18Z</time>
      </trkpt>
      <trkpt lat="43.07964" lon="1.77949">
        <ele>267.8</ele>
        <time>2022-09-03T08:05:22Z</time>
      </trkpt>
      <trkpt lat="43.07961" lon="1.77948">
        <ele>268</ele>
        <time>2022-09-03T08:05:23Z</time>
      </trkpt>
      <trkpt lat="43.07937" lon="1.77931">
        <ele>268</ele>
        <time>2022-09-03T08:05:31Z</time>
      </trkpt>
      <trkpt lat="43.07904" lon="1.77908">
        <ele>268.4</ele>
        <time>2022-09-03T08:05:41Z</time>
      </trkpt>
      <trkpt lat="43.07873" lon="1.77886">
        <ele>268.6</ele>
        <time>2022-09-03T08:05:50Z</time>
      </trkpt>
      <trkpt lat="43.07851" lon="1.77857">
        <ele>269.2</ele>
        <time>2022-09-03T08:05:58Z</time>
      </trkpt>
      <trkpt lat="43.0785" lon="1.77852">
        <ele>269.2</ele>
        <time>2022-09-03T08:05:59Z</time>
      </trkpt>
      <trkpt lat="43.07851" lon="1.77835">
        <ele>269.4</ele>
        <time>2022-09-03T08:06:02Z</time>
      </trkpt>
      <trkpt lat="43.07855" lon="1.77819">
        <ele>269.4</ele>
        <time>2022-09-03T08:06:05Z</time>
      </trkpt>
      <trkpt lat="43.07856" lon="1.77814">
        <ele>269.6</ele>
        <time>2022-09-03T08:06:06Z</time>
      </trkpt>
      <trkpt lat="43.07861" lon="1.77797">
        <ele>269.6</ele>
        <time>2022-09-03T08:06:09Z</time>
      </trkpt>
      <trkpt lat="43.07873" lon="1.77745">
        <ele>270</ele>
        <time>2022-09-03T08:06:19Z</time>
      </trkpt>
      <trkpt lat="43.07877" lon="1.7773">
        <ele>270.2</ele>
        <time>2022-09-03T08:06:22Z</time>
      </trkpt>
      <trkpt lat="43.07886" lon="1.77691">
        <ele>270.8</ele>
        <time>2022-09-03T08:06:30Z</time>
      </trkpt>
      <trkpt lat="43.07891" lon="1.77672">
        <ele>271.4</ele>
        <time>2022-09-03T08:06:34Z</time>
      </trkpt>
      <trkpt lat="43.07894" lon="1.77659">
        <ele>271.8</ele>
        <time>2022-09-03T08:06:37Z</time>
      </trkpt>
      <trkpt lat="43.07899" lon="1.7762">
        <ele>272.4</ele>
        <time>2022-09-03T08:06:45Z</time>
      </trkpt>
      <trkpt lat="43.07904" lon="1.77571">
        <ele>272.2</ele>
        <time>2022-09-03T08:06:54Z</time>
      </trkpt>
      <trkpt lat="43.0791" lon="1.7751">
        <ele>272.2</ele>
        <time>2022-09-03T08:07:05Z</time>
      </trkpt>
      <trkpt lat="43.07918" lon="1.77457">
        <ele>272.2</ele>
        <time>2022-09-03T08:07:15Z</time>
      </trkpt>
      <trkpt lat="43.07925" lon="1.77422">
        <ele>272.4</ele>
        <time>2022-09-03T08:07:23Z</time>
      </trkpt>
      <trkpt lat="43.0793" lon="1.77417">
        <ele>272.4</ele>
        <time>2022-09-03T08:07:25Z</time>
      </trkpt>
      <trkpt lat="43.07933" lon="1.77417">
        <ele>272.4</ele>
        <time>2022-09-03T08:07:26Z</time>
      </trkpt>
      <trkpt lat="43.07944" lon="1.77419">
        <ele>272</ele>
        <time>2022-09-03T08:07:29Z</time>
      </trkpt>
      <trkpt lat="43.07953" lon="1.77421">
        <ele>271.8</ele>
        <time>2022-09-03T08:07:31Z</time>
      </trkpt>
      <trkpt lat="43.07963" lon="1.77423">
        <ele>271.4</ele>
        <time>2022-09-03T08:07:33Z</time>
      </trkpt>
      <trkpt lat="43.07981" lon="1.77429">
        <ele>270.4</ele>
        <time>2022-09-03T08:07:36Z</time>
      </trkpt>
      <trkpt lat="43.07988" lon="1.77433">
        <ele>270</ele>
        <time>2022-09-03T08:07:37Z</time>
      </trkpt>
      <trkpt lat="43.08015" lon="1.7745">
        <ele>269.2</ele>
        <time>2022-09-03T08:07:41Z</time>
      </trkpt>
      <trkpt lat="43.08028" lon="1.77459">
        <ele>269</ele>
        <time>2022-09-03T08:07:43Z</time>
      </trkpt>
      <trkpt lat="43.08057" lon="1.7748">
        <ele>268</ele>
        <time>2022-09-03T08:07:48Z</time>
      </trkpt>
      <trkpt lat="43.08068" lon="1.77488">
        <ele>267.8</ele>
        <time>2022-09-03T08:07:50Z</time>
      </trkpt>
      <trkpt lat="43.08115" lon="1.77521">
        <ele>267</ele>
        <time>2022-09-03T08:07:59Z</time>
      </trkpt>
      <trkpt lat="43.0812" lon="1.77524">
        <ele>266.8</ele>
        <time>2022-09-03T08:08:00Z</time>
      </trkpt>
      <trkpt lat="43.08145" lon="1.77534">
        <ele>266.4</ele>
        <time>2022-09-03T08:08:06Z</time>
      </trkpt>
      <trkpt lat="43.08151" lon="1.77522">
        <ele>266</ele>
        <time>2022-09-03T08:08:09Z</time>
      </trkpt>
      <trkpt lat="43.08153" lon="1.77517">
        <ele>266</ele>
        <time>2022-09-03T08:08:10Z</time>
      </trkpt>
      <trkpt lat="43.08165" lon="1.77483">
        <ele>266.2</ele>
        <time>2022-09-03T08:08:17Z</time>
      </trkpt>
      <trkpt lat="43.08179" lon="1.77441">
        <ele>266.2</ele>
        <time>2022-09-03T08:08:25Z</time>
      </trkpt>
      <trkpt lat="43.08196" lon="1.77395">
        <ele>266</ele>
        <time>2022-09-03T08:08:33Z</time>
      </trkpt>
      <trkpt lat="43.08207" lon="1.77355">
        <ele>266</ele>
        <time>2022-09-03T08:08:40Z</time>
      </trkpt>
      <trkpt lat="43.08204" lon="1.7732">
        <ele>266.2</ele>
        <time>2022-09-03T08:08:46Z</time>
      </trkpt>
      <trkpt lat="43.082" lon="1.77272">
        <ele>266.4</ele>
        <time>2022-09-03T08:08:54Z</time>
      </trkpt>
      <trkpt lat="43.08197" lon="1.77238">
        <ele>266.6</ele>
        <time>2022-09-03T08:09:00Z</time>
      </trkpt>
      <trkpt lat="43.08191" lon="1.77183">
        <ele>267.2</ele>
        <time>2022-09-03T08:09:09Z</time>
      </trkpt>
      <trkpt lat="43.08186" lon="1.77131">
        <ele>267.8</ele>
        <time>2022-09-03T08:09:18Z</time>
      </trkpt>
      <trkpt lat="43.08186" lon="1.77086">
        <ele>268.8</ele>
        <time>2022-09-03T08:09:27Z</time>
      </trkpt>
      <trkpt lat="43.08193" lon="1.77068">
        <ele>269.8</ele>
        <time>2022-09-03T08:09:32Z</time>
      </trkpt>
      <trkpt lat="43.08195" lon="1.77065">
        <ele>269.8</ele>
        <time>2022-09-03T08:09:33Z</time>
      </trkpt>
      <trkpt lat="43.08211" lon="1.77048">
        <ele>270.8</ele>
        <time>2022-09-03T08:09:39Z</time>
      </trkpt>
      <trkpt lat="43.08214" lon="1.77045">
        <ele>271</ele>
        <time>2022-09-03T08:09:40Z</time>
      </trkpt>
      <trkpt lat="43.08231" lon="1.77027">
        <ele>272</ele>
        <time>2022-09-03T08:09:47Z</time>
      </trkpt>
      <trkpt lat="43.08234" lon="1.77025">
        <ele>272.2</ele>
        <time>2022-09-03T08:09:48Z</time>
      </trkpt>
      <trkpt lat="43.08247" lon="1.77006">
        <ele>272.4</ele>
        <time>2022-09-03T08:09:54Z</time>
      </trkpt>
      <trkpt lat="43.08258" lon="1.76976">
        <ele>272.8</ele>
        <time>2022-09-03T08:10:01Z</time>
      </trkpt>
      <trkpt lat="43.0826" lon="1.76961">
        <ele>273</ele>
        <time>2022-09-03T08:10:04Z</time>
      </trkpt>
      <trkpt lat="43.08261" lon="1.76947">
        <ele>273.4</ele>
        <time>2022-09-03T08:10:07Z</time>
      </trkpt>
      <trkpt lat="43.08258" lon="1.76919">
        <ele>273.8</ele>
        <time>2022-09-03T08:10:13Z</time>
      </trkpt>
      <trkpt lat="43.08258" lon="1.76895">
        <ele>274.2</ele>
        <time>2022-09-03T08:10:18Z</time>
      </trkpt>
      <trkpt lat="43.08259" lon="1.76887">
        <ele>274.2</ele>
        <time>2022-09-03T08:10:20Z</time>
      </trkpt>
      <trkpt lat="43.08268" lon="1.76852">
        <ele>274</ele>
        <time>2022-09-03T08:10:28Z</time>
      </trkpt>
      <trkpt lat="43.08285" lon="1.76814">
        <ele>273.8</ele>
        <time>2022-09-03T08:10:37Z</time>
      </trkpt>
      <trkpt lat="43.08293" lon="1.76794">
        <ele>273.6</ele>
        <time>2022-09-03T08:10:41Z</time>
      </trkpt>
      <trkpt lat="43.08299" lon="1.76782">
        <ele>273</ele>
        <time>2022-09-03T08:10:44Z</time>
      </trkpt>
      <trkpt lat="43.08307" lon="1.76768">
        <ele>272.8</ele>
        <time>2022-09-03T08:10:48Z</time>
      </trkpt>
      <trkpt lat="43.0831" lon="1.76768">
        <ele>272.8</ele>
        <time>2022-09-03T08:10:49Z</time>
      </trkpt>
      <trkpt lat="43.08325" lon="1.76776">
        <ele>272.6</ele>
        <time>2022-09-03T08:10:54Z</time>
      </trkpt>
      <trkpt lat="43.08341" lon="1.76786">
        <ele>272.4</ele>
        <time>2022-09-03T08:10:59Z</time>
      </trkpt>
      <trkpt lat="43.08344" lon="1.76783">
        <ele>272.4</ele>
        <time>2022-09-03T08:11:00Z</time>
      </trkpt>
      <trkpt lat="43.08355" lon="1.76773">
        <ele>272.6</ele>
        <time>2022-09-03T08:11:04Z</time>
      </trkpt>
      <trkpt lat="43.08374" lon="1.76744">
        <ele>273</ele>
        <time>2022-09-03T08:11:12Z</time>
      </trkpt>
      <trkpt lat="43.08391" lon="1.76717">
        <ele>272.6</ele>
        <time>2022-09-03T08:11:19Z</time>
      </trkpt>
      <trkpt lat="43.08396" lon="1.76695">
        <ele>272.4</ele>
        <time>2022-09-03T08:11:24Z</time>
      </trkpt>
      <trkpt lat="43.08402" lon="1.7667">
        <ele>272</ele>
        <time>2022-09-03T08:11:29Z</time>
      </trkpt>
      <trkpt lat="43.08403" lon="1.76659">
        <ele>271.8</ele>
        <time>2022-09-03T08:11:31Z</time>
      </trkpt>
      <trkpt lat="43.08413" lon="1.76614">
        <ele>271.4</ele>
        <time>2022-09-03T08:11:40Z</time>
      </trkpt>
      <trkpt lat="43.08424" lon="1.76591">
        <ele>271.2</ele>
        <time>2022-09-03T08:11:46Z</time>
      </trkpt>
      <trkpt lat="43.08425" lon="1.76573">
        <ele>271.4</ele>
        <time>2022-09-03T08:11:50Z</time>
      </trkpt>
      <trkpt lat="43.08414" lon="1.76552">
        <ele>271.4</ele>
        <time>2022-09-03T08:11:55Z</time>
      </trkpt>
      <trkpt lat="43.08393" lon="1.76519">
        <ele>272</ele>
        <time>2022-09-03T08:12:03Z</time>
      </trkpt>
      <trkpt lat="43.08385" lon="1.76493">
        <ele>272</ele>
        <time>2022-09-03T08:12:08Z</time>
      </trkpt>
      <trkpt lat="43.08373" lon="1.76455">
        <ele>272.8</ele>
        <time>2022-09-03T08:12:16Z</time>
      </trkpt>
      <trkpt lat="43.08363" lon="1.76412">
        <ele>273</ele>
        <time>2022-09-03T08:12:25Z</time>
      </trkpt>
      <trkpt lat="43.08362" lon="1.76408">
        <ele>273</ele>
        <time>2022-09-03T08:12:26Z</time>
      </trkpt>
      <trkpt lat="43.08357" lon="1.76388">
        <ele>273.4</ele>
        <time>2022-09-03T08:12:30Z</time>
      </trkpt>
      <trkpt lat="43.08345" lon="1.76348">
        <ele>274</ele>
        <time>2022-09-03T08:12:39Z</time>
      </trkpt>
      <trkpt lat="43.08344" lon="1.76344">
        <ele>274.2</ele>
        <time>2022-09-03T08:12:40Z</time>
      </trkpt>
      <trkpt lat="43.08331" lon="1.76321">
        <ele>274.8</ele>
        <time>2022-09-03T08:12:47Z</time>
      </trkpt>
      <trkpt lat="43.08322" lon="1.76309">
        <ele>275.2</ele>
        <time>2022-09-03T08:12:51Z</time>
      </trkpt>
      <trkpt lat="43.08311" lon="1.76295">
        <ele>275.6</ele>
        <time>2022-09-03T08:12:56Z</time>
      </trkpt>
      <trkpt lat="43.08297" lon="1.76278">
        <ele>275.8</ele>
        <time>2022-09-03T08:13:02Z</time>
      </trkpt>
      <trkpt lat="43.08293" lon="1.76261">
        <ele>275.8</ele>
        <time>2022-09-03T08:13:07Z</time>
      </trkpt>
      <trkpt lat="43.08301" lon="1.76247">
        <ele>276.4</ele>
        <time>2022-09-03T08:13:12Z</time>
      </trkpt>
      <trkpt lat="43.08303" lon="1.76243">
        <ele>276.4</ele>
        <time>2022-09-03T08:13:13Z</time>
      </trkpt>
      <trkpt lat="43.08318" lon="1.76215">
        <ele>275.8</ele>
        <time>2022-09-03T08:13:20Z</time>
      </trkpt>
      <trkpt lat="43.08329" lon="1.76194">
        <ele>275.2</ele>
        <time>2022-09-03T08:13:24Z</time>
      </trkpt>
      <trkpt lat="43.08335" lon="1.76184">
        <ele>275.2</ele>
        <time>2022-09-03T08:13:26Z</time>
      </trkpt>
      <trkpt lat="43.0836" lon="1.76139">
        <ele>274.4</ele>
        <time>2022-09-03T08:13:34Z</time>
      </trkpt>
      <trkpt lat="43.08363" lon="1.76133">
        <ele>274.2</ele>
        <time>2022-09-03T08:13:35Z</time>
      </trkpt>
      <trkpt lat="43.08382" lon="1.76099">
        <ele>273</ele>
        <time>2022-09-03T08:13:40Z</time>
      </trkpt>
      <trkpt lat="43.08387" lon="1.76093">
        <ele>273</ele>
        <time>2022-09-03T08:13:41Z</time>
      </trkpt>
      <trkpt lat="43.08403" lon="1.76077">
        <ele>272.2</ele>
        <time>2022-09-03T08:13:44Z</time>
      </trkpt>
      <trkpt lat="43.08407" lon="1.76072">
        <ele>271.8</ele>
        <time>2022-09-03T08:13:45Z</time>
      </trkpt>
      <trkpt lat="43.08418" lon="1.76053">
        <ele>271.6</ele>
        <time>2022-09-03T08:13:48Z</time>
      </trkpt>
      <trkpt lat="43.08428" lon="1.76037">
        <ele>271</ele>
        <time>2022-09-03T08:13:51Z</time>
      </trkpt>
      <trkpt lat="43.08431" lon="1.76032">
        <ele>270.8</ele>
        <time>2022-09-03T08:13:52Z</time>
      </trkpt>
      <trkpt lat="43.08434" lon="1.76027">
        <ele>270.8</ele>
        <time>2022-09-03T08:13:53Z</time>
      </trkpt>
      <trkpt lat="43.08447" lon="1.76004">
        <ele>270.8</ele>
        <time>2022-09-03T08:13:58Z</time>
      </trkpt>
      <trkpt lat="43.08461" lon="1.75971">
        <ele>270.2</ele>
        <time>2022-09-03T08:14:05Z</time>
      </trkpt>
      <trkpt lat="43.08463" lon="1.75965">
        <ele>269.6</ele>
        <time>2022-09-03T08:14:07Z</time>
      </trkpt>
      <trkpt lat="43.08464" lon="1.75963">
        <ele>269.4</ele>
        <time>2022-09-03T08:14:08Z</time>
      </trkpt>
      <trkpt lat="43.08472" lon="1.75952">
        <ele>269.8</ele>
        <time>2022-09-03T08:14:40Z</time>
      </trkpt>
      <trkpt lat="43.08473" lon="1.7595">
        <ele>269.8</ele>
        <time>2022-09-03T08:14:41Z</time>
      </trkpt>
      <trkpt lat="43.0848" lon="1.75938">
        <ele>269.8</ele>
        <time>2022-09-03T08:14:47Z</time>
      </trkpt>
      <trkpt lat="43.08493" lon="1.75921">
        <ele>269.8</ele>
        <time>2022-09-03T08:14:54Z</time>
      </trkpt>
      <trkpt lat="43.08501" lon="1.75908">
        <ele>269.8</ele>
        <time>2022-09-03T08:14:59Z</time>
      </trkpt>
      <trkpt lat="43.08511" lon="1.75895">
        <ele>269.6</ele>
        <time>2022-09-03T08:15:04Z</time>
      </trkpt>
      <trkpt lat="43.08525" lon="1.75873">
        <ele>269.4</ele>
        <time>2022-09-03T08:15:11Z</time>
      </trkpt>
      <trkpt lat="43.08532" lon="1.75862">
        <ele>269.2</ele>
        <time>2022-09-03T08:15:15Z</time>
      </trkpt>
      <trkpt lat="43.08542" lon="1.75841">
        <ele>269</ele>
        <time>2022-09-03T08:15:21Z</time>
      </trkpt>
      <trkpt lat="43.08555" lon="1.75811">
        <ele>269</ele>
        <time>2022-09-03T08:15:28Z</time>
      </trkpt>
      <trkpt lat="43.08567" lon="1.75788">
        <ele>269</ele>
        <time>2022-09-03T08:15:34Z</time>
      </trkpt>
      <trkpt lat="43.0858" lon="1.75761">
        <ele>269</ele>
        <time>2022-09-03T08:15:41Z</time>
      </trkpt>
      <trkpt lat="43.08591" lon="1.75736">
        <ele>268.6</ele>
        <time>2022-09-03T08:15:47Z</time>
      </trkpt>
      <trkpt lat="43.08593" lon="1.75732">
        <ele>268.6</ele>
        <time>2022-09-03T08:15:48Z</time>
      </trkpt>
      <trkpt lat="43.08607" lon="1.75709">
        <ele>268.4</ele>
        <time>2022-09-03T08:15:54Z</time>
      </trkpt>
      <trkpt lat="43.0862" lon="1.75686">
        <ele>268.2</ele>
        <time>2022-09-03T08:16:01Z</time>
      </trkpt>
      <trkpt lat="43.08632" lon="1.75664">
        <ele>268.2</ele>
        <time>2022-09-03T08:16:07Z</time>
      </trkpt>
      <trkpt lat="43.08644" lon="1.75641">
        <ele>268.2</ele>
        <time>2022-09-03T08:16:13Z</time>
      </trkpt>
      <trkpt lat="43.08653" lon="1.75623">
        <ele>268</ele>
        <time>2022-09-03T08:16:18Z</time>
      </trkpt>
      <trkpt lat="43.08667" lon="1.75597">
        <ele>268</ele>
        <time>2022-09-03T08:16:25Z</time>
      </trkpt>
      <trkpt lat="43.0868" lon="1.75579">
        <ele>268</ele>
        <time>2022-09-03T08:16:31Z</time>
      </trkpt>
      <trkpt lat="43.08689" lon="1.7556">
        <ele>268</ele>
        <time>2022-09-03T08:16:36Z</time>
      </trkpt>
      <trkpt lat="43.087" lon="1.7554">
        <ele>268</ele>
        <time>2022-09-03T08:16:43Z</time>
      </trkpt>
      <trkpt lat="43.0871" lon="1.7552">
        <ele>268</ele>
        <time>2022-09-03T08:16:49Z</time>
      </trkpt>
      <trkpt lat="43.08721" lon="1.755">
        <ele>268</ele>
        <time>2022-09-03T08:16:55Z</time>
      </trkpt>
      <trkpt lat="43.08729" lon="1.75483">
        <ele>267.8</ele>
        <time>2022-09-03T08:17:01Z</time>
      </trkpt>
      <trkpt lat="43.08738" lon="1.75463">
        <ele>267.4</ele>
        <time>2022-09-03T08:17:07Z</time>
      </trkpt>
      <trkpt lat="43.08751" lon="1.75444">
        <ele>267.8</ele>
        <time>2022-09-03T08:17:13Z</time>
      </trkpt>
      <trkpt lat="43.08766" lon="1.75414">
        <ele>267.8</ele>
        <time>2022-09-03T08:17:21Z</time>
      </trkpt>
      <trkpt lat="43.08782" lon="1.7538">
        <ele>267.8</ele>
        <time>2022-09-03T08:17:30Z</time>
      </trkpt>
      <trkpt lat="43.08793" lon="1.75359">
        <ele>267.8</ele>
        <time>2022-09-03T08:17:36Z</time>
      </trkpt>
      <trkpt lat="43.08806" lon="1.7534">
        <ele>267.8</ele>
        <time>2022-09-03T08:17:42Z</time>
      </trkpt>
      <trkpt lat="43.08818" lon="1.75315">
        <ele>268</ele>
        <time>2022-09-03T08:17:49Z</time>
      </trkpt>
      <trkpt lat="43.08829" lon="1.75295">
        <ele>268</ele>
        <time>2022-09-03T08:17:55Z</time>
      </trkpt>
      <trkpt lat="43.08844" lon="1.75268">
        <ele>268</ele>
        <time>2022-09-03T08:18:03Z</time>
      </trkpt>
      <trkpt lat="43.08861" lon="1.7523">
        <ele>268</ele>
        <time>2022-09-03T08:18:13Z</time>
      </trkpt>
      <trkpt lat="43.0888" lon="1.75196">
        <ele>268</ele>
        <time>2022-09-03T08:18:22Z</time>
      </trkpt>
      <trkpt lat="43.08901" lon="1.75159">
        <ele>268</ele>
        <time>2022-09-03T08:18:32Z</time>
      </trkpt>
      <trkpt lat="43.0892" lon="1.75123">
        <ele>268.2</ele>
        <time>2022-09-03T08:18:42Z</time>
      </trkpt>
      <trkpt lat="43.0894" lon="1.75088">
        <ele>268.4</ele>
        <time>2022-09-03T08:18:52Z</time>
      </trkpt>
      <trkpt lat="43.08953" lon="1.75061">
        <ele>268.4</ele>
        <time>2022-09-03T08:18:59Z</time>
      </trkpt>
      <trkpt lat="43.08973" lon="1.75024">
        <ele>268.4</ele>
        <time>2022-09-03T08:19:09Z</time>
      </trkpt>
      <trkpt lat="43.08977" lon="1.75016">
        <ele>268.6</ele>
        <time>2022-09-03T08:19:11Z</time>
      </trkpt>
      <trkpt lat="43.0899" lon="1.74992">
        <ele>268.4</ele>
        <time>2022-09-03T08:19:17Z</time>
      </trkpt>
      <trkpt lat="43.09008" lon="1.7496">
        <ele>268.8</ele>
        <time>2022-09-03T08:19:25Z</time>
      </trkpt>
      <trkpt lat="43.09021" lon="1.74931">
        <ele>268.8</ele>
        <time>2022-09-03T08:19:32Z</time>
      </trkpt>
      <trkpt lat="43.09035" lon="1.74901">
        <ele>268.8</ele>
        <time>2022-09-03T08:19:39Z</time>
      </trkpt>
      <trkpt lat="43.09049" lon="1.74872">
        <ele>268.8</ele>
        <time>2022-09-03T08:19:46Z</time>
      </trkpt>
      <trkpt lat="43.09059" lon="1.74853">
        <ele>269</ele>
        <time>2022-09-03T08:19:52Z</time>
      </trkpt>
      <trkpt lat="43.09069" lon="1.74834">
        <ele>268.8</ele>
        <time>2022-09-03T08:19:59Z</time>
      </trkpt>
      <trkpt lat="43.09077" lon="1.74816">
        <ele>269</ele>
        <time>2022-09-03T08:20:04Z</time>
      </trkpt>
      <trkpt lat="43.09089" lon="1.74791">
        <ele>269</ele>
        <time>2022-09-03T08:20:11Z</time>
      </trkpt>
      <trkpt lat="43.09101" lon="1.74764">
        <ele>269.6</ele>
        <time>2022-09-03T08:20:18Z</time>
      </trkpt>
      <trkpt lat="43.09104" lon="1.74756">
        <ele>269.6</ele>
        <time>2022-09-03T08:20:20Z</time>
      </trkpt>
      <trkpt lat="43.09116" lon="1.74727">
        <ele>269.4</ele>
        <time>2022-09-03T08:20:28Z</time>
      </trkpt>
      <trkpt lat="43.0913" lon="1.74698">
        <ele>269.8</ele>
        <time>2022-09-03T08:20:36Z</time>
      </trkpt>
      <trkpt lat="43.09144" lon="1.74664">
        <ele>269.8</ele>
        <time>2022-09-03T08:20:45Z</time>
      </trkpt>
      <trkpt lat="43.0916" lon="1.74637">
        <ele>269.6</ele>
        <time>2022-09-03T08:20:53Z</time>
      </trkpt>
      <trkpt lat="43.09174" lon="1.7462">
        <ele>269.2</ele>
        <time>2022-09-03T08:20:58Z</time>
      </trkpt>
      <trkpt lat="43.09183" lon="1.7461">
        <ele>268.8</ele>
        <time>2022-09-03T08:21:03Z</time>
      </trkpt>
      <trkpt lat="43.09173" lon="1.74564">
        <ele>266.8</ele>
        <time>2022-09-03T08:22:48Z</time>
      </trkpt>
      <trkpt lat="43.09181" lon="1.7455">
        <ele>267</ele>
        <time>2022-09-03T08:22:55Z</time>
      </trkpt>
      <trkpt lat="43.09194" lon="1.74531">
        <ele>268</ele>
        <time>2022-09-03T08:23:03Z</time>
      </trkpt>
      <trkpt lat="43.09206" lon="1.74509">
        <ele>268.6</ele>
        <time>2022-09-03T08:23:10Z</time>
      </trkpt>
      <trkpt lat="43.09213" lon="1.74495">
        <ele>269</ele>
        <time>2022-09-03T08:23:15Z</time>
      </trkpt>
      <trkpt lat="43.09216" lon="1.74488">
        <ele>269.2</ele>
        <time>2022-09-03T08:23:17Z</time>
      </trkpt>
      <trkpt lat="43.09227" lon="1.74467">
        <ele>269.8</ele>
        <time>2022-09-03T08:23:24Z</time>
      </trkpt>
      <trkpt lat="43.0923" lon="1.7446">
        <ele>270.2</ele>
        <time>2022-09-03T08:23:26Z</time>
      </trkpt>
      <trkpt lat="43.09234" lon="1.74442">
        <ele>270.6</ele>
        <time>2022-09-03T08:23:31Z</time>
      </trkpt>
      <trkpt lat="43.09237" lon="1.74412">
        <ele>271.2</ele>
        <time>2022-09-03T08:23:38Z</time>
      </trkpt>
      <trkpt lat="43.09237" lon="1.74407">
        <ele>271.2</ele>
        <time>2022-09-03T08:23:39Z</time>
      </trkpt>
      <trkpt lat="43.09238" lon="1.7436">
        <ele>271.8</ele>
        <time>2022-09-03T08:23:49Z</time>
      </trkpt>
      <trkpt lat="43.0924" lon="1.74306">
        <ele>272</ele>
        <time>2022-09-03T08:24:00Z</time>
      </trkpt>
      <trkpt lat="43.09239" lon="1.74292">
        <ele>272.2</ele>
        <time>2022-09-03T08:24:03Z</time>
      </trkpt>
      <trkpt lat="43.09241" lon="1.74275">
        <ele>272.2</ele>
        <time>2022-09-03T08:24:07Z</time>
      </trkpt>
      <trkpt lat="43.0925" lon="1.7426">
        <ele>272.2</ele>
        <time>2022-09-03T08:24:11Z</time>
      </trkpt>
      <trkpt lat="43.09276" lon="1.74239">
        <ele>272.2</ele>
        <time>2022-09-03T08:24:19Z</time>
      </trkpt>
      <trkpt lat="43.09299" lon="1.74219">
        <ele>272</ele>
        <time>2022-09-03T08:24:27Z</time>
      </trkpt>
      <trkpt lat="43.09327" lon="1.74197">
        <ele>271.6</ele>
        <time>2022-09-03T08:24:36Z</time>
      </trkpt>
      <trkpt lat="43.09339" lon="1.74185">
        <ele>271.2</ele>
        <time>2022-09-03T08:24:40Z</time>
      </trkpt>
      <trkpt lat="43.09348" lon="1.74175">
        <ele>271.2</ele>
        <time>2022-09-03T08:24:43Z</time>
      </trkpt>
      <trkpt lat="43.09354" lon="1.74166">
        <ele>271.2</ele>
        <time>2022-09-03T08:24:45Z</time>
      </trkpt>
      <trkpt lat="43.09368" lon="1.7414">
        <ele>270.6</ele>
        <time>2022-09-03T08:24:50Z</time>
      </trkpt>
      <trkpt lat="43.09378" lon="1.74118">
        <ele>270.2</ele>
        <time>2022-09-03T08:24:54Z</time>
      </trkpt>
      <trkpt lat="43.09388" lon="1.74097">
        <ele>269.8</ele>
        <time>2022-09-03T08:24:58Z</time>
      </trkpt>
      <trkpt lat="43.09414" lon="1.74047">
        <ele>269.4</ele>
        <time>2022-09-03T08:25:07Z</time>
      </trkpt>
      <trkpt lat="43.09417" lon="1.74043">
        <ele>269.2</ele>
        <time>2022-09-03T08:25:08Z</time>
      </trkpt>
      <trkpt lat="43.0942" lon="1.74039">
        <ele>269.2</ele>
        <time>2022-09-03T08:25:09Z</time>
      </trkpt>
      <trkpt lat="43.09423" lon="1.74035">
        <ele>269</ele>
        <time>2022-09-03T08:25:10Z</time>
      </trkpt>
      <trkpt lat="43.09426" lon="1.74031">
        <ele>269</ele>
        <time>2022-09-03T08:25:11Z</time>
      </trkpt>
      <trkpt lat="43.09436" lon="1.74015">
        <ele>269</ele>
        <time>2022-09-03T08:25:15Z</time>
      </trkpt>
      <trkpt lat="43.09441" lon="1.74005">
        <ele>269.2</ele>
        <time>2022-09-03T08:25:17Z</time>
      </trkpt>
      <trkpt lat="43.09454" lon="1.73973">
        <ele>268.8</ele>
        <time>2022-09-03T08:25:23Z</time>
      </trkpt>
      <trkpt lat="43.09467" lon="1.73934">
        <ele>268.8</ele>
        <time>2022-09-03T08:25:31Z</time>
      </trkpt>
      <trkpt lat="43.09474" lon="1.73903">
        <ele>269</ele>
        <time>2022-09-03T08:25:37Z</time>
      </trkpt>
      <trkpt lat="43.09483" lon="1.73858">
        <ele>268.8</ele>
        <time>2022-09-03T08:25:45Z</time>
      </trkpt>
      <trkpt lat="43.09492" lon="1.73817">
        <ele>269.2</ele>
        <time>2022-09-03T08:25:52Z</time>
      </trkpt>
      <trkpt lat="43.09508" lon="1.73759">
        <ele>269.2</ele>
        <time>2022-09-03T08:26:02Z</time>
      </trkpt>
      <trkpt lat="43.09529" lon="1.73715">
        <ele>269</ele>
        <time>2022-09-03T08:26:11Z</time>
      </trkpt>
      <trkpt lat="43.09546" lon="1.73678">
        <ele>269</ele>
        <time>2022-09-03T08:26:19Z</time>
      </trkpt>
      <trkpt lat="43.09568" lon="1.73631">
        <ele>268.8</ele>
        <time>2022-09-03T08:26:29Z</time>
      </trkpt>
      <trkpt lat="43.09586" lon="1.73595">
        <ele>269</ele>
        <time>2022-09-03T08:26:37Z</time>
      </trkpt>
      <trkpt lat="43.09613" lon="1.73555">
        <ele>269.2</ele>
        <time>2022-09-03T08:26:46Z</time>
      </trkpt>
      <trkpt lat="43.09634" lon="1.73525">
        <ele>269</ele>
        <time>2022-09-03T08:26:54Z</time>
      </trkpt>
      <trkpt lat="43.09654" lon="1.73495">
        <ele>269</ele>
        <time>2022-09-03T08:27:02Z</time>
      </trkpt>
      <trkpt lat="43.09671" lon="1.73464">
        <ele>268.8</ele>
        <time>2022-09-03T08:27:10Z</time>
      </trkpt>
      <trkpt lat="43.09683" lon="1.73436">
        <ele>269.2</ele>
        <time>2022-09-03T08:27:17Z</time>
      </trkpt>
      <trkpt lat="43.09691" lon="1.7342">
        <ele>268.6</ele>
        <time>2022-09-03T08:27:23Z</time>
      </trkpt>
      <trkpt lat="43.09693" lon="1.73414">
        <ele>268.4</ele>
        <time>2022-09-03T08:27:30Z</time>
      </trkpt>
      <trkpt lat="43.09695" lon="1.73411">
        <ele>268.4</ele>
        <time>2022-09-03T08:27:32Z</time>
      </trkpt>
      <trkpt lat="43.09694" lon="1.73404">
        <ele>268.4</ele>
        <time>2022-09-03T08:27:34Z</time>
      </trkpt>
      <trkpt lat="43.0969" lon="1.73396">
        <ele>268.2</ele>
        <time>2022-09-03T08:27:36Z</time>
      </trkpt>
      <trkpt lat="43.09689" lon="1.73392">
        <ele>268.2</ele>
        <time>2022-09-03T08:27:37Z</time>
      </trkpt>
      <trkpt lat="43.09685" lon="1.73382">
        <ele>267.8</ele>
        <time>2022-09-03T08:27:39Z</time>
      </trkpt>
      <trkpt lat="43.09676" lon="1.73342">
        <ele>267.2</ele>
        <time>2022-09-03T08:27:45Z</time>
      </trkpt>
      <trkpt lat="43.09674" lon="1.73335">
        <ele>267</ele>
        <time>2022-09-03T08:27:46Z</time>
      </trkpt>
      <trkpt lat="43.09661" lon="1.73277">
        <ele>267</ele>
        <time>2022-09-03T08:27:54Z</time>
      </trkpt>
      <trkpt lat="43.09645" lon="1.73205">
        <ele>266.8</ele>
        <time>2022-09-03T08:28:04Z</time>
      </trkpt>
      <trkpt lat="43.09632" lon="1.73142">
        <ele>267.2</ele>
        <time>2022-09-03T08:28:13Z</time>
      </trkpt>
      <trkpt lat="43.09624" lon="1.73102">
        <ele>267.8</ele>
        <time>2022-09-03T08:28:20Z</time>
      </trkpt>
      <trkpt lat="43.09621" lon="1.73093">
        <ele>268.2</ele>
        <time>2022-09-03T08:28:22Z</time>
      </trkpt>
      <trkpt lat="43.09617" lon="1.73074">
        <ele>269.2</ele>
        <time>2022-09-03T08:28:27Z</time>
      </trkpt>
      <trkpt lat="43.09616" lon="1.7307">
        <ele>269.2</ele>
        <time>2022-09-03T08:28:28Z</time>
      </trkpt>
      <trkpt lat="43.0961" lon="1.73042">
        <ele>270.2</ele>
        <time>2022-09-03T08:28:35Z</time>
      </trkpt>
      <trkpt lat="43.09602" lon="1.7301">
        <ele>271</ele>
        <time>2022-09-03T08:28:43Z</time>
      </trkpt>
      <trkpt lat="43.09596" lon="1.72983">
        <ele>271.4</ele>
        <time>2022-09-03T08:28:49Z</time>
      </trkpt>
      <trkpt lat="43.0959" lon="1.72962">
        <ele>272</ele>
        <time>2022-09-03T08:28:54Z</time>
      </trkpt>
      <trkpt lat="43.09581" lon="1.72934">
        <ele>272.4</ele>
        <time>2022-09-03T08:29:01Z</time>
      </trkpt>
      <trkpt lat="43.09576" lon="1.72918">
        <ele>272.8</ele>
        <time>2022-09-03T08:29:05Z</time>
      </trkpt>
      <trkpt lat="43.09568" lon="1.72894">
        <ele>273.4</ele>
        <time>2022-09-03T08:29:11Z</time>
      </trkpt>
      <trkpt lat="43.09565" lon="1.72887">
        <ele>273.6</ele>
        <time>2022-09-03T08:29:13Z</time>
      </trkpt>
      <trkpt lat="43.09555" lon="1.72861">
        <ele>274.4</ele>
        <time>2022-09-03T08:29:20Z</time>
      </trkpt>
      <trkpt lat="43.09548" lon="1.72846">
        <ele>275</ele>
        <time>2022-09-03T08:29:24Z</time>
      </trkpt>
      <trkpt lat="43.09544" lon="1.72835">
        <ele>275.6</ele>
        <time>2022-09-03T08:29:27Z</time>
      </trkpt>
      <trkpt lat="43.09534" lon="1.72814">
        <ele>276.2</ele>
        <time>2022-09-03T08:29:33Z</time>
      </trkpt>
      <trkpt lat="43.09528" lon="1.72799">
        <ele>276.6</ele>
        <time>2022-09-03T08:29:37Z</time>
      </trkpt>
      <trkpt lat="43.09524" lon="1.72788">
        <ele>277</ele>
        <time>2022-09-03T08:29:40Z</time>
      </trkpt>
      <trkpt lat="43.09514" lon="1.72752">
        <ele>277.8</ele>
        <time>2022-09-03T08:29:49Z</time>
      </trkpt>
      <trkpt lat="43.09506" lon="1.72724">
        <ele>278.4</ele>
        <time>2022-09-03T08:29:56Z</time>
      </trkpt>
      <trkpt lat="43.09496" lon="1.72701">
        <ele>278.8</ele>
        <time>2022-09-03T08:30:02Z</time>
      </trkpt>
      <trkpt lat="43.09494" lon="1.72695">
        <ele>278.8</ele>
        <time>2022-09-03T08:30:04Z</time>
      </trkpt>
      <trkpt lat="43.09482" lon="1.72673">
        <ele>279.2</ele>
        <time>2022-09-03T08:30:11Z</time>
      </trkpt>
      <trkpt lat="43.0946" lon="1.72637">
        <ele>280</ele>
        <time>2022-09-03T08:30:21Z</time>
      </trkpt>
      <trkpt lat="43.09457" lon="1.72633">
        <ele>280</ele>
        <time>2022-09-03T08:30:22Z</time>
      </trkpt>
      <trkpt lat="43.09431" lon="1.72606">
        <ele>280.4</ele>
        <time>2022-09-03T08:30:31Z</time>
      </trkpt>
      <trkpt lat="43.09424" lon="1.726">
        <ele>280.4</ele>
        <time>2022-09-03T08:30:33Z</time>
      </trkpt>
      <trkpt lat="43.094" lon="1.7258">
        <ele>281</ele>
        <time>2022-09-03T08:30:40Z</time>
      </trkpt>
      <trkpt lat="43.09396" lon="1.72578">
        <ele>281</ele>
        <time>2022-09-03T08:30:41Z</time>
      </trkpt>
      <trkpt lat="43.09361" lon="1.7255">
        <ele>281.2</ele>
        <time>2022-09-03T08:30:51Z</time>
      </trkpt>
      <trkpt lat="43.09336" lon="1.72534">
        <ele>281.6</ele>
        <time>2022-09-03T08:30:59Z</time>
      </trkpt>
      <trkpt lat="43.09318" lon="1.72525">
        <ele>281.8</ele>
        <time>2022-09-03T08:31:06Z</time>
      </trkpt>
      <trkpt lat="43.09314" lon="1.72523">
        <ele>282</ele>
        <time>2022-09-03T08:31:09Z</time>
      </trkpt>
      <trkpt lat="43.09311" lon="1.7252">
        <ele>282</ele>
        <time>2022-09-03T08:31:12Z</time>
      </trkpt>
      <trkpt lat="43.09305" lon="1.72516">
        <ele>282.2</ele>
        <time>2022-09-03T08:31:28Z</time>
      </trkpt>
      <trkpt lat="43.09301" lon="1.72513">
        <ele>282.4</ele>
        <time>2022-09-03T08:31:30Z</time>
      </trkpt>
      <trkpt lat="43.09295" lon="1.7251">
        <ele>282.4</ele>
        <time>2022-09-03T08:31:32Z</time>
      </trkpt>
      <trkpt lat="43.09282" lon="1.72503">
        <ele>282.2</ele>
        <time>2022-09-03T08:31:37Z</time>
      </trkpt>
      <trkpt lat="43.09264" lon="1.72493">
        <ele>282.4</ele>
        <time>2022-09-03T08:31:44Z</time>
      </trkpt>
      <trkpt lat="43.09241" lon="1.72478">
        <ele>282.8</ele>
        <time>2022-09-03T08:31:52Z</time>
      </trkpt>
      <trkpt lat="43.09222" lon="1.72461">
        <ele>283</ele>
        <time>2022-09-03T08:31:59Z</time>
      </trkpt>
      <trkpt lat="43.09219" lon="1.72458">
        <ele>283.2</ele>
        <time>2022-09-03T08:32:00Z</time>
      </trkpt>
      <trkpt lat="43.0919" lon="1.72427">
        <ele>283.4</ele>
        <time>2022-09-03T08:32:10Z</time>
      </trkpt>
      <trkpt lat="43.09181" lon="1.72417">
        <ele>283.2</ele>
        <time>2022-09-03T08:32:13Z</time>
      </trkpt>
      <trkpt lat="43.09164" lon="1.72396">
        <ele>283.8</ele>
        <time>2022-09-03T08:32:19Z</time>
      </trkpt>
      <trkpt lat="43.09147" lon="1.72376">
        <ele>284</ele>
        <time>2022-09-03T08:32:26Z</time>
      </trkpt>
      <trkpt lat="43.09142" lon="1.7237">
        <ele>284</ele>
        <time>2022-09-03T08:32:29Z</time>
      </trkpt>
      <trkpt lat="43.09132" lon="1.72356">
        <ele>284</ele>
        <time>2022-09-03T08:32:34Z</time>
      </trkpt>
      <trkpt lat="43.09113" lon="1.72326">
        <ele>284.6</ele>
        <time>2022-09-03T08:32:44Z</time>
      </trkpt>
      <trkpt lat="43.09093" lon="1.72284">
        <ele>284.8</ele>
        <time>2022-09-03T08:32:56Z</time>
      </trkpt>
      <trkpt lat="43.09089" lon="1.72276">
        <ele>285.2</ele>
        <time>2022-09-03T08:32:58Z</time>
      </trkpt>
      <trkpt lat="43.09078" lon="1.72259">
        <ele>285.8</ele>
        <time>2022-09-03T08:33:03Z</time>
      </trkpt>
      <trkpt lat="43.09072" lon="1.72249">
        <ele>286.2</ele>
        <time>2022-09-03T08:33:06Z</time>
      </trkpt>
      <trkpt lat="43.09059" lon="1.72234">
        <ele>286.8</ele>
        <time>2022-09-03T08:33:11Z</time>
      </trkpt>
      <trkpt lat="43.09043" lon="1.7222">
        <ele>287.2</ele>
        <time>2022-09-03T08:33:17Z</time>
      </trkpt>
      <trkpt lat="43.0904" lon="1.72219">
        <ele>287.4</ele>
        <time>2022-09-03T08:33:18Z</time>
      </trkpt>
      <trkpt lat="43.09022" lon="1.72209">
        <ele>288</ele>
        <time>2022-09-03T08:33:24Z</time>
      </trkpt>
      <trkpt lat="43.09008" lon="1.72202">
        <ele>288.4</ele>
        <time>2022-09-03T08:33:29Z</time>
      </trkpt>
      <trkpt lat="43.09002" lon="1.72199">
        <ele>288.6</ele>
        <time>2022-09-03T08:33:31Z</time>
      </trkpt>
      <trkpt lat="43.08999" lon="1.72198">
        <ele>288.8</ele>
        <time>2022-09-03T08:33:32Z</time>
      </trkpt>
      <trkpt lat="43.08979" lon="1.72185">
        <ele>289.2</ele>
        <time>2022-09-03T08:33:39Z</time>
      </trkpt>
      <trkpt lat="43.08969" lon="1.72176">
        <ele>289.4</ele>
        <time>2022-09-03T08:33:43Z</time>
      </trkpt>
      <trkpt lat="43.08959" lon="1.72171">
        <ele>290</ele>
        <time>2022-09-03T08:33:47Z</time>
      </trkpt>
      <trkpt lat="43.08944" lon="1.72164">
        <ele>289.6</ele>
        <time>2022-09-03T08:33:53Z</time>
      </trkpt>
      <trkpt lat="43.08925" lon="1.72154">
        <ele>289.6</ele>
        <time>2022-09-03T08:33:59Z</time>
      </trkpt>
      <trkpt lat="43.08897" lon="1.72136">
        <ele>289.4</ele>
        <time>2022-09-03T08:34:07Z</time>
      </trkpt>
      <trkpt lat="43.08872" lon="1.72113">
        <ele>289.8</ele>
        <time>2022-09-03T08:34:15Z</time>
      </trkpt>
      <trkpt lat="43.08849" lon="1.72092">
        <ele>290</ele>
        <time>2022-09-03T08:34:23Z</time>
      </trkpt>
      <trkpt lat="43.08826" lon="1.72076">
        <ele>289.6</ele>
        <time>2022-09-03T08:34:31Z</time>
      </trkpt>
      <trkpt lat="43.08815" lon="1.72063">
        <ele>288.8</ele>
        <time>2022-09-03T08:34:37Z</time>
      </trkpt>
      <trkpt lat="43.08814" lon="1.72051">
        <ele>289.8</ele>
        <time>2022-09-03T08:34:43Z</time>
      </trkpt>
      <trkpt lat="43.08817" lon="1.72044">
        <ele>290.6</ele>
        <time>2022-09-03T08:34:47Z</time>
      </trkpt>
      <trkpt lat="43.0882" lon="1.72037">
        <ele>291.6</ele>
        <time>2022-09-03T08:34:51Z</time>
      </trkpt>
      <trkpt lat="43.08844" lon="1.7197">
        <ele>304.2</ele>
        <time>2022-09-03T08:37:16Z</time>
      </trkpt>
      <trkpt lat="43.08842" lon="1.71964">
        <ele>304.6</ele>
        <time>2022-09-03T08:37:18Z</time>
      </trkpt>
      <trkpt lat="43.08832" lon="1.71949">
        <ele>305.4</ele>
        <time>2022-09-03T08:37:25Z</time>
      </trkpt>
      <trkpt lat="43.0883" lon="1.71945">
        <ele>305.6</ele>
        <time>2022-09-03T08:37:27Z</time>
      </trkpt>
      <trkpt lat="43.08824" lon="1.71935">
        <ele>306.6</ele>
        <time>2022-09-03T08:37:32Z</time>
      </trkpt>
      <trkpt lat="43.08821" lon="1.71928">
        <ele>307</ele>
        <time>2022-09-03T08:37:35Z</time>
      </trkpt>
      <trkpt lat="43.08817" lon="1.71916">
        <ele>307.6</ele>
        <time>2022-09-03T08:37:39Z</time>
      </trkpt>
      <trkpt lat="43.08815" lon="1.71908">
        <ele>308</ele>
        <time>2022-09-03T08:37:42Z</time>
      </trkpt>
      <trkpt lat="43.08812" lon="1.71895">
        <ele>308.8</ele>
        <time>2022-09-03T08:37:47Z</time>
      </trkpt>
      <trkpt lat="43.08811" lon="1.71884">
        <ele>309.2</ele>
        <time>2022-09-03T08:37:51Z</time>
      </trkpt>
      <trkpt lat="43.08812" lon="1.71872">
        <ele>310</ele>
        <time>2022-09-03T08:37:55Z</time>
      </trkpt>
      <trkpt lat="43.08815" lon="1.71862">
        <ele>310.4</ele>
        <time>2022-09-03T08:37:59Z</time>
      </trkpt>
      <trkpt lat="43.08818" lon="1.71849">
        <ele>311</ele>
        <time>2022-09-03T08:38:04Z</time>
      </trkpt>
      <trkpt lat="43.08821" lon="1.71842">
        <ele>311.4</ele>
        <time>2022-09-03T08:38:07Z</time>
      </trkpt>
      <trkpt lat="43.08826" lon="1.71823">
        <ele>312.2</ele>
        <time>2022-09-03T08:38:14Z</time>
      </trkpt>
      <trkpt lat="43.08826" lon="1.7182">
        <ele>312.2</ele>
        <time>2022-09-03T08:38:15Z</time>
      </trkpt>
      <trkpt lat="43.0882" lon="1.71808">
        <ele>312.6</ele>
        <time>2022-09-03T08:38:20Z</time>
      </trkpt>
      <trkpt lat="43.0881" lon="1.71792">
        <ele>312.8</ele>
        <time>2022-09-03T08:38:27Z</time>
      </trkpt>
      <trkpt lat="43.08804" lon="1.71775">
        <ele>312.8</ele>
        <time>2022-09-03T08:38:33Z</time>
      </trkpt>
      <trkpt lat="43.088" lon="1.71756">
        <ele>312.6</ele>
        <time>2022-09-03T08:38:39Z</time>
      </trkpt>
      <trkpt lat="43.08802" lon="1.71754">
        <ele>312.6</ele>
        <time>2022-09-03T08:38:40Z</time>
      </trkpt>
      <trkpt lat="43.08814" lon="1.71738">
        <ele>311.6</ele>
        <time>2022-09-03T08:38:44Z</time>
      </trkpt>
      <trkpt lat="43.08817" lon="1.71733">
        <ele>311.2</ele>
        <time>2022-09-03T08:38:45Z</time>
      </trkpt>
      <trkpt lat="43.08819" lon="1.71728">
        <ele>311</ele>
        <time>2022-09-03T08:38:46Z</time>
      </trkpt>
      <trkpt lat="43.08822" lon="1.71714">
        <ele>310.6</ele>
        <time>2022-09-03T08:38:48Z</time>
      </trkpt>
      <trkpt lat="43.08824" lon="1.71705">
        <ele>310.4</ele>
        <time>2022-09-03T08:38:49Z</time>
      </trkpt>
      <trkpt lat="43.08825" lon="1.71695">
        <ele>309.8</ele>
        <time>2022-09-03T08:38:50Z</time>
      </trkpt>
      <trkpt lat="43.08827" lon="1.71675">
        <ele>308.4</ele>
        <time>2022-09-03T08:38:52Z</time>
      </trkpt>
      <trkpt lat="43.0883" lon="1.71655">
        <ele>307</ele>
        <time>2022-09-03T08:38:54Z</time>
      </trkpt>
      <trkpt lat="43.08832" lon="1.71645">
        <ele>306.2</ele>
        <time>2022-09-03T08:38:55Z</time>
      </trkpt>
      <trkpt lat="43.08834" lon="1.71635">
        <ele>305.6</ele>
        <time>2022-09-03T08:38:56Z</time>
      </trkpt>
      <trkpt lat="43.08836" lon="1.71624">
        <ele>304.8</ele>
        <time>2022-09-03T08:38:57Z</time>
      </trkpt>
      <trkpt lat="43.08838" lon="1.71613">
        <ele>304.2</ele>
        <time>2022-09-03T08:38:58Z</time>
      </trkpt>
      <trkpt lat="43.0884" lon="1.7158">
        <ele>303</ele>
        <time>2022-09-03T08:39:01Z</time>
      </trkpt>
      <trkpt lat="43.0884" lon="1.7157">
        <ele>303</ele>
        <time>2022-09-03T08:39:02Z</time>
      </trkpt>
      <trkpt lat="43.08839" lon="1.71541">
        <ele>302</ele>
        <time>2022-09-03T08:39:05Z</time>
      </trkpt>
      <trkpt lat="43.08836" lon="1.71523">
        <ele>302</ele>
        <time>2022-09-03T08:39:07Z</time>
      </trkpt>
      <trkpt lat="43.08826" lon="1.71483">
        <ele>301.4</ele>
        <time>2022-09-03T08:39:12Z</time>
      </trkpt>
      <trkpt lat="43.08815" lon="1.71446">
        <ele>301.2</ele>
        <time>2022-09-03T08:39:18Z</time>
      </trkpt>
      <trkpt lat="43.0881" lon="1.71434">
        <ele>301</ele>
        <time>2022-09-03T08:39:20Z</time>
      </trkpt>
      <trkpt lat="43.08806" lon="1.7142">
        <ele>301</ele>
        <time>2022-09-03T08:39:22Z</time>
      </trkpt>
      <trkpt lat="43.08805" lon="1.71412">
        <ele>300.8</ele>
        <time>2022-09-03T08:39:23Z</time>
      </trkpt>
      <trkpt lat="43.08805" lon="1.71387">
        <ele>300.2</ele>
        <time>2022-09-03T08:39:26Z</time>
      </trkpt>
      <trkpt lat="43.08804" lon="1.71379">
        <ele>300</ele>
        <time>2022-09-03T08:39:27Z</time>
      </trkpt>
      <trkpt lat="43.08796" lon="1.71346">
        <ele>298.8</ele>
        <time>2022-09-03T08:39:31Z</time>
      </trkpt>
      <trkpt lat="43.08795" lon="1.71338">
        <ele>298.4</ele>
        <time>2022-09-03T08:39:32Z</time>
      </trkpt>
      <trkpt lat="43.08795" lon="1.71323">
        <ele>297.8</ele>
        <time>2022-09-03T08:39:34Z</time>
      </trkpt>
      <trkpt lat="43.08798" lon="1.71317">
        <ele>297.6</ele>
        <time>2022-09-03T08:39:35Z</time>
      </trkpt>
      <trkpt lat="43.08807" lon="1.71308">
        <ele>297.6</ele>
        <time>2022-09-03T08:39:38Z</time>
      </trkpt>
      <trkpt lat="43.08819" lon="1.71291">
        <ele>298</ele>
        <time>2022-09-03T08:39:43Z</time>
      </trkpt>
      <trkpt lat="43.08821" lon="1.71275">
        <ele>298.8</ele>
        <time>2022-09-03T08:39:47Z</time>
      </trkpt>
      <trkpt lat="43.08821" lon="1.71272">
        <ele>298.8</ele>
        <time>2022-09-03T08:39:48Z</time>
      </trkpt>
      <trkpt lat="43.08814" lon="1.7125">
        <ele>299.8</ele>
        <time>2022-09-03T08:39:55Z</time>
      </trkpt>
      <trkpt lat="43.08809" lon="1.7123">
        <ele>300.6</ele>
        <time>2022-09-03T08:40:01Z</time>
      </trkpt>
      <trkpt lat="43.08807" lon="1.71223">
        <ele>301</ele>
        <time>2022-09-03T08:40:03Z</time>
      </trkpt>
      <trkpt lat="43.088" lon="1.71196">
        <ele>302.2</ele>
        <time>2022-09-03T08:40:11Z</time>
      </trkpt>
      <trkpt lat="43.08796" lon="1.7118">
        <ele>303.2</ele>
        <time>2022-09-03T08:40:17Z</time>
      </trkpt>
      <trkpt lat="43.08795" lon="1.71177">
        <ele>303.4</ele>
        <time>2022-09-03T08:40:18Z</time>
      </trkpt>
      <trkpt lat="43.0879" lon="1.71158">
        <ele>304.2</ele>
        <time>2022-09-03T08:40:25Z</time>
      </trkpt>
      <trkpt lat="43.08789" lon="1.71153">
        <ele>304.6</ele>
        <time>2022-09-03T08:40:27Z</time>
      </trkpt>
      <trkpt lat="43.08785" lon="1.71142">
        <ele>305.4</ele>
        <time>2022-09-03T08:40:32Z</time>
      </trkpt>
      <trkpt lat="43.08784" lon="1.71137">
        <ele>305.8</ele>
        <time>2022-09-03T08:40:34Z</time>
      </trkpt>
      <trkpt lat="43.08778" lon="1.71122">
        <ele>306.4</ele>
        <time>2022-09-03T08:40:39Z</time>
      </trkpt>
      <trkpt lat="43.08777" lon="1.71116">
        <ele>307</ele>
        <time>2022-09-03T08:40:41Z</time>
      </trkpt>
      <trkpt lat="43.08774" lon="1.71104">
        <ele>307.6</ele>
        <time>2022-09-03T08:40:45Z</time>
      </trkpt>
      <trkpt lat="43.08772" lon="1.71094">
        <ele>308.2</ele>
        <time>2022-09-03T08:40:49Z</time>
      </trkpt>
      <trkpt lat="43.08769" lon="1.71084">
        <ele>308.6</ele>
        <time>2022-09-03T08:40:53Z</time>
      </trkpt>
      <trkpt lat="43.08767" lon="1.71079">
        <ele>309.2</ele>
        <time>2022-09-03T08:40:56Z</time>
      </trkpt>
      <trkpt lat="43.08766" lon="1.71068">
        <ele>309.8</ele>
        <time>2022-09-03T08:41:00Z</time>
      </trkpt>
      <trkpt lat="43.08765" lon="1.71063">
        <ele>310</ele>
        <time>2022-09-03T08:41:02Z</time>
      </trkpt>
      <trkpt lat="43.08762" lon="1.71047">
        <ele>310.8</ele>
        <time>2022-09-03T08:41:07Z</time>
      </trkpt>
      <trkpt lat="43.08761" lon="1.7104">
        <ele>311</ele>
        <time>2022-09-03T08:41:09Z</time>
      </trkpt>
      <trkpt lat="43.08756" lon="1.71013">
        <ele>312</ele>
        <time>2022-09-03T08:41:17Z</time>
      </trkpt>
      <trkpt lat="43.08753" lon="1.70992">
        <ele>312.6</ele>
        <time>2022-09-03T08:41:24Z</time>
      </trkpt>
      <trkpt lat="43.08744" lon="1.70969">
        <ele>312.8</ele>
        <time>2022-09-03T08:41:30Z</time>
      </trkpt>
      <trkpt lat="43.08737" lon="1.70951">
        <ele>312.8</ele>
        <time>2022-09-03T08:41:36Z</time>
      </trkpt>
      <trkpt lat="43.08729" lon="1.7093">
        <ele>312.8</ele>
        <time>2022-09-03T08:41:42Z</time>
      </trkpt>
      <trkpt lat="43.08725" lon="1.70919">
        <ele>312.4</ele>
        <time>2022-09-03T08:41:44Z</time>
      </trkpt>
      <trkpt lat="43.08717" lon="1.70888">
        <ele>311</ele>
        <time>2022-09-03T08:41:48Z</time>
      </trkpt>
      <trkpt lat="43.087" lon="1.70828">
        <ele>310</ele>
        <time>2022-09-03T08:41:55Z</time>
      </trkpt>
      <trkpt lat="43.08698" lon="1.7082">
        <ele>309.8</ele>
        <time>2022-09-03T08:41:56Z</time>
      </trkpt>
      <trkpt lat="43.08693" lon="1.70804">
        <ele>309.4</ele>
        <time>2022-09-03T08:41:58Z</time>
      </trkpt>
      <trkpt lat="43.08687" lon="1.70793">
        <ele>309.4</ele>
        <time>2022-09-03T08:42:00Z</time>
      </trkpt>
      <trkpt lat="43.08676" lon="1.70771">
        <ele>310.2</ele>
        <time>2022-09-03T08:42:04Z</time>
      </trkpt>
      <trkpt lat="43.08673" lon="1.70764">
        <ele>311.2</ele>
        <time>2022-09-03T08:42:06Z</time>
      </trkpt>
      <trkpt lat="43.0867" lon="1.70759">
        <ele>312</ele>
        <time>2022-09-03T08:42:08Z</time>
      </trkpt>
      <trkpt lat="43.08667" lon="1.70754">
        <ele>312.2</ele>
        <time>2022-09-03T08:42:10Z</time>
      </trkpt>
      <trkpt lat="43.0866" lon="1.70745">
        <ele>313.4</ele>
        <time>2022-09-03T08:42:15Z</time>
      </trkpt>
      <trkpt lat="43.08654" lon="1.70739">
        <ele>314.6</ele>
        <time>2022-09-03T08:42:19Z</time>
      </trkpt>
      <trkpt lat="43.08647" lon="1.70732">
        <ele>315.6</ele>
        <time>2022-09-03T08:42:23Z</time>
      </trkpt>
      <trkpt lat="43.08645" lon="1.7073">
        <ele>315.8</ele>
        <time>2022-09-03T08:42:24Z</time>
      </trkpt>
      <trkpt lat="43.08637" lon="1.70721">
        <ele>316.8</ele>
        <time>2022-09-03T08:42:29Z</time>
      </trkpt>
      <trkpt lat="43.08636" lon="1.70719">
        <ele>317</ele>
        <time>2022-09-03T08:42:30Z</time>
      </trkpt>
      <trkpt lat="43.08631" lon="1.70715">
        <ele>317.8</ele>
        <time>2022-09-03T08:42:33Z</time>
      </trkpt>
      <trkpt lat="43.08626" lon="1.7071">
        <ele>319</ele>
        <time>2022-09-03T08:42:37Z</time>
      </trkpt>
      <trkpt lat="43.08622" lon="1.70704">
        <ele>320.4</ele>
        <time>2022-09-03T08:42:41Z</time>
      </trkpt>
      <trkpt lat="43.08619" lon="1.70697">
        <ele>321.2</ele>
        <time>2022-09-03T08:42:44Z</time>
      </trkpt>
      <trkpt lat="43.08619" lon="1.70695">
        <ele>321.4</ele>
        <time>2022-09-03T08:42:45Z</time>
      </trkpt>
      <trkpt lat="43.08617" lon="1.70692">
        <ele>321.8</ele>
        <time>2022-09-03T08:42:47Z</time>
      </trkpt>
      <trkpt lat="43.08615" lon="1.70686">
        <ele>322</ele>
        <time>2022-09-03T08:42:50Z</time>
      </trkpt>
      <trkpt lat="43.08615" lon="1.70678">
        <ele>322.4</ele>
        <time>2022-09-03T08:42:54Z</time>
      </trkpt>
      <trkpt lat="43.08616" lon="1.70669">
        <ele>322.4</ele>
        <time>2022-09-03T08:42:58Z</time>
      </trkpt>
      <trkpt lat="43.08619" lon="1.70657">
        <ele>322.6</ele>
        <time>2022-09-03T08:43:03Z</time>
      </trkpt>
      <trkpt lat="43.0862" lon="1.70649">
        <ele>322.8</ele>
        <time>2022-09-03T08:43:06Z</time>
      </trkpt>
      <trkpt lat="43.08611" lon="1.70638">
        <ele>323.2</ele>
        <time>2022-09-03T08:43:11Z</time>
      </trkpt>
      <trkpt lat="43.08606" lon="1.70633">
        <ele>323.6</ele>
        <time>2022-09-03T08:43:14Z</time>
      </trkpt>
      <trkpt lat="43.08596" lon="1.70625">
        <ele>324</ele>
        <time>2022-09-03T08:43:19Z</time>
      </trkpt>
      <trkpt lat="43.0858" lon="1.70609">
        <ele>324.6</ele>
        <time>2022-09-03T08:43:27Z</time>
      </trkpt>
      <trkpt lat="43.08575" lon="1.70605">
        <ele>324.6</ele>
        <time>2022-09-03T08:43:29Z</time>
      </trkpt>
      <trkpt lat="43.08561" lon="1.70593">
        <ele>325</ele>
        <time>2022-09-03T08:43:34Z</time>
      </trkpt>
      <trkpt lat="43.08541" lon="1.70575">
        <ele>325.2</ele>
        <time>2022-09-03T08:43:42Z</time>
      </trkpt>
      <trkpt lat="43.08523" lon="1.70559">
        <ele>325.4</ele>
        <time>2022-09-03T08:43:49Z</time>
      </trkpt>
      <trkpt lat="43.085" lon="1.70537">
        <ele>325.6</ele>
        <time>2022-09-03T08:43:58Z</time>
      </trkpt>
      <trkpt lat="43.08497" lon="1.70536">
        <ele>325.8</ele>
        <time>2022-09-03T08:43:59Z</time>
      </trkpt>
      <trkpt lat="43.0848" lon="1.70519">
        <ele>326</ele>
        <time>2022-09-03T08:44:06Z</time>
      </trkpt>
      <trkpt lat="43.08456" lon="1.70499">
        <ele>326</ele>
        <time>2022-09-03T08:44:15Z</time>
      </trkpt>
      <trkpt lat="43.08454" lon="1.70497">
        <ele>325.8</ele>
        <time>2022-09-03T08:44:19Z</time>
      </trkpt>
      <trkpt lat="43.08451" lon="1.70493">
        <ele>326</ele>
        <time>2022-09-03T08:44:36Z</time>
      </trkpt>
      <trkpt lat="43.08447" lon="1.7049">
        <ele>326.2</ele>
        <time>2022-09-03T08:44:38Z</time>
      </trkpt>
      <trkpt lat="43.08431" lon="1.70476">
        <ele>326</ele>
        <time>2022-09-03T08:44:45Z</time>
      </trkpt>
      <trkpt lat="43.0841" lon="1.70457">
        <ele>326</ele>
        <time>2022-09-03T08:44:55Z</time>
      </trkpt>
      <trkpt lat="43.08391" lon="1.70439">
        <ele>326.4</ele>
        <time>2022-09-03T08:45:03Z</time>
      </trkpt>
      <trkpt lat="43.0837" lon="1.70419">
        <ele>326.2</ele>
        <time>2022-09-03T08:45:12Z</time>
      </trkpt>
      <trkpt lat="43.08355" lon="1.70407">
        <ele>326.2</ele>
        <time>2022-09-03T08:45:19Z</time>
      </trkpt>
      <trkpt lat="43.08336" lon="1.70389">
        <ele>326</ele>
        <time>2022-09-03T08:45:26Z</time>
      </trkpt>
      <trkpt lat="43.08334" lon="1.7038">
        <ele>325.6</ele>
        <time>2022-09-03T08:45:28Z</time>
      </trkpt>
      <trkpt lat="43.08334" lon="1.70376">
        <ele>325.8</ele>
        <time>2022-09-03T08:45:29Z</time>
      </trkpt>
      <trkpt lat="43.08339" lon="1.7036">
        <ele>326.2</ele>
        <time>2022-09-03T08:45:33Z</time>
      </trkpt>
      <trkpt lat="43.08348" lon="1.70343">
        <ele>326.8</ele>
        <time>2022-09-03T08:45:38Z</time>
      </trkpt>
      <trkpt lat="43.08351" lon="1.70337">
        <ele>326.8</ele>
        <time>2022-09-03T08:45:40Z</time>
      </trkpt>
      <trkpt lat="43.08366" lon="1.70311">
        <ele>327.6</ele>
        <time>2022-09-03T08:45:48Z</time>
      </trkpt>
      <trkpt lat="43.08368" lon="1.703">
        <ele>327.6</ele>
        <time>2022-09-03T08:45:51Z</time>
      </trkpt>
      <trkpt lat="43.08367" lon="1.70297">
        <ele>327.6</ele>
        <time>2022-09-03T08:45:52Z</time>
      </trkpt>
      <trkpt lat="43.08365" lon="1.70295">
        <ele>328</ele>
        <time>2022-09-03T08:45:53Z</time>
      </trkpt>
      <trkpt lat="43.08357" lon="1.70281">
        <ele>328.6</ele>
        <time>2022-09-03T08:45:58Z</time>
      </trkpt>
      <trkpt lat="43.08349" lon="1.70267">
        <ele>329</ele>
        <time>2022-09-03T08:46:03Z</time>
      </trkpt>
      <trkpt lat="43.08342" lon="1.70256">
        <ele>329.4</ele>
        <time>2022-09-03T08:46:07Z</time>
      </trkpt>
      <trkpt lat="43.08331" lon="1.70236">
        <ele>330</ele>
        <time>2022-09-03T08:46:14Z</time>
      </trkpt>
      <trkpt lat="43.0833" lon="1.70233">
        <ele>330.2</ele>
        <time>2022-09-03T08:46:15Z</time>
      </trkpt>
      <trkpt lat="43.08315" lon="1.70208">
        <ele>331</ele>
        <time>2022-09-03T08:46:24Z</time>
      </trkpt>
      <trkpt lat="43.08297" lon="1.70175">
        <ele>332</ele>
        <time>2022-09-03T08:46:35Z</time>
      </trkpt>
      <trkpt lat="43.08295" lon="1.70172">
        <ele>332.2</ele>
        <time>2022-09-03T08:46:36Z</time>
      </trkpt>
      <trkpt lat="43.08281" lon="1.7015">
        <ele>333</ele>
        <time>2022-09-03T08:46:44Z</time>
      </trkpt>
      <trkpt lat="43.08277" lon="1.70141">
        <ele>333.6</ele>
        <time>2022-09-03T08:46:47Z</time>
      </trkpt>
      <trkpt lat="43.08267" lon="1.70124">
        <ele>334.2</ele>
        <time>2022-09-03T08:46:53Z</time>
      </trkpt>
      <trkpt lat="43.08262" lon="1.70115">
        <ele>334.6</ele>
        <time>2022-09-03T08:46:57Z</time>
      </trkpt>
      <trkpt lat="43.08258" lon="1.70108">
        <ele>335.2</ele>
        <time>2022-09-03T08:47:00Z</time>
      </trkpt>
      <trkpt lat="43.08253" lon="1.70098">
        <ele>335.8</ele>
        <time>2022-09-03T08:47:05Z</time>
      </trkpt>
      <trkpt lat="43.08251" lon="1.70095">
        <ele>336.2</ele>
        <time>2022-09-03T08:47:07Z</time>
      </trkpt>
      <trkpt lat="43.08246" lon="1.70086">
        <ele>337</ele>
        <time>2022-09-03T08:47:11Z</time>
      </trkpt>
      <trkpt lat="43.08243" lon="1.70082">
        <ele>337.2</ele>
        <time>2022-09-03T08:47:13Z</time>
      </trkpt>
      <trkpt lat="43.08238" lon="1.7007">
        <ele>338.2</ele>
        <time>2022-09-03T08:47:19Z</time>
      </trkpt>
      <trkpt lat="43.08237" lon="1.70067">
        <ele>338.4</ele>
        <time>2022-09-03T08:47:20Z</time>
      </trkpt>
      <trkpt lat="43.08232" lon="1.7006">
        <ele>339.4</ele>
        <time>2022-09-03T08:47:25Z</time>
      </trkpt>
      <trkpt lat="43.08231" lon="1.70058">
        <ele>339.6</ele>
        <time>2022-09-03T08:47:26Z</time>
      </trkpt>
      <trkpt lat="43.08226" lon="1.70049">
        <ele>340.4</ele>
        <time>2022-09-03T08:47:30Z</time>
      </trkpt>
      <trkpt lat="43.08224" lon="1.70046">
        <ele>341</ele>
        <time>2022-09-03T08:47:32Z</time>
      </trkpt>
      <trkpt lat="43.0822" lon="1.7004">
        <ele>341.4</ele>
        <time>2022-09-03T08:47:35Z</time>
      </trkpt>
      <trkpt lat="43.08219" lon="1.70037">
        <ele>341.8</ele>
        <time>2022-09-03T08:47:36Z</time>
      </trkpt>
      <trkpt lat="43.08217" lon="1.70034">
        <ele>342.2</ele>
        <time>2022-09-03T08:47:38Z</time>
      </trkpt>
      <trkpt lat="43.08214" lon="1.70028">
        <ele>342.8</ele>
        <time>2022-09-03T08:47:42Z</time>
      </trkpt>
      <trkpt lat="43.08212" lon="1.70025">
        <ele>343.2</ele>
        <time>2022-09-03T08:47:44Z</time>
      </trkpt>
      <trkpt lat="43.0821" lon="1.70019">
        <ele>343.8</ele>
        <time>2022-09-03T08:47:48Z</time>
      </trkpt>
      <trkpt lat="43.08207" lon="1.70013">
        <ele>344.4</ele>
        <time>2022-09-03T08:47:51Z</time>
      </trkpt>
      <trkpt lat="43.08203" lon="1.70006">
        <ele>345</ele>
        <time>2022-09-03T08:47:54Z</time>
      </trkpt>
      <trkpt lat="43.082" lon="1.69999">
        <ele>345.6</ele>
        <time>2022-09-03T08:47:58Z</time>
      </trkpt>
      <trkpt lat="43.08196" lon="1.69987">
        <ele>346.2</ele>
        <time>2022-09-03T08:48:04Z</time>
      </trkpt>
      <trkpt lat="43.08195" lon="1.69985">
        <ele>346.2</ele>
        <time>2022-09-03T08:48:05Z</time>
      </trkpt>
      <trkpt lat="43.08191" lon="1.69969">
        <ele>346.4</ele>
        <time>2022-09-03T08:48:11Z</time>
      </trkpt>
      <trkpt lat="43.08189" lon="1.69953">
        <ele>346.8</ele>
        <time>2022-09-03T08:48:17Z</time>
      </trkpt>
      <trkpt lat="43.08186" lon="1.69934">
        <ele>347.4</ele>
        <time>2022-09-03T08:48:23Z</time>
      </trkpt>
      <trkpt lat="43.08185" lon="1.69931">
        <ele>347.4</ele>
        <time>2022-09-03T08:48:24Z</time>
      </trkpt>
      <trkpt lat="43.08183" lon="1.69917">
        <ele>347.8</ele>
        <time>2022-09-03T08:48:29Z</time>
      </trkpt>
      <trkpt lat="43.08181" lon="1.69908">
        <ele>348.2</ele>
        <time>2022-09-03T08:48:32Z</time>
      </trkpt>
      <trkpt lat="43.08179" lon="1.699">
        <ele>348.4</ele>
        <time>2022-09-03T08:48:35Z</time>
      </trkpt>
      <trkpt lat="43.08176" lon="1.69886">
        <ele>349.4</ele>
        <time>2022-09-03T08:48:40Z</time>
      </trkpt>
      <trkpt lat="43.08175" lon="1.69883">
        <ele>349.6</ele>
        <time>2022-09-03T08:48:41Z</time>
      </trkpt>
      <trkpt lat="43.08172" lon="1.69871">
        <ele>350.4</ele>
        <time>2022-09-03T08:48:45Z</time>
      </trkpt>
      <trkpt lat="43.08169" lon="1.69865">
        <ele>350.6</ele>
        <time>2022-09-03T08:48:47Z</time>
      </trkpt>
      <trkpt lat="43.08162" lon="1.69845">
        <ele>351.4</ele>
        <time>2022-09-03T08:48:54Z</time>
      </trkpt>
      <trkpt lat="43.0816" lon="1.69843">
        <ele>351.6</ele>
        <time>2022-09-03T08:48:55Z</time>
      </trkpt>
      <trkpt lat="43.08152" lon="1.69823">
        <ele>351.8</ele>
        <time>2022-09-03T08:49:00Z</time>
      </trkpt>
      <trkpt lat="43.0813" lon="1.69788">
        <ele>352.2</ele>
        <time>2022-09-03T08:49:08Z</time>
      </trkpt>
      <trkpt lat="43.08122" lon="1.69778">
        <ele>352.6</ele>
        <time>2022-09-03T08:49:11Z</time>
      </trkpt>
      <trkpt lat="43.08112" lon="1.69765">
        <ele>353</ele>
        <time>2022-09-03T08:49:15Z</time>
      </trkpt>
      <trkpt lat="43.08096" lon="1.69747">
        <ele>353.8</ele>
        <time>2022-09-03T08:49:22Z</time>
      </trkpt>
      <trkpt lat="43.08081" lon="1.6973">
        <ele>354.6</ele>
        <time>2022-09-03T08:49:29Z</time>
      </trkpt>
      <trkpt lat="43.08075" lon="1.69721">
        <ele>354.8</ele>
        <time>2022-09-03T08:49:32Z</time>
      </trkpt>
      <trkpt lat="43.08064" lon="1.69706">
        <ele>355.2</ele>
        <time>2022-09-03T08:49:37Z</time>
      </trkpt>
      <trkpt lat="43.08057" lon="1.69687">
        <ele>355.2</ele>
        <time>2022-09-03T08:49:43Z</time>
      </trkpt>
      <trkpt lat="43.08044" lon="1.69663">
        <ele>354.8</ele>
        <time>2022-09-03T08:49:49Z</time>
      </trkpt>
      <trkpt lat="43.08025" lon="1.6963">
        <ele>353.8</ele>
        <time>2022-09-03T08:49:55Z</time>
      </trkpt>
      <trkpt lat="43.08002" lon="1.69589">
        <ele>353</ele>
        <time>2022-09-03T08:50:02Z</time>
      </trkpt>
      <trkpt lat="43.07987" lon="1.69563">
        <ele>353.2</ele>
        <time>2022-09-03T08:50:08Z</time>
      </trkpt>
      <trkpt lat="43.07974" lon="1.69541">
        <ele>353.2</ele>
        <time>2022-09-03T08:50:14Z</time>
      </trkpt>
      <trkpt lat="43.07961" lon="1.69523">
        <ele>353</ele>
        <time>2022-09-03T08:50:20Z</time>
      </trkpt>
      <trkpt lat="43.07951" lon="1.69508">
        <ele>352.6</ele>
        <time>2022-09-03T08:50:25Z</time>
      </trkpt>
      <trkpt lat="43.07948" lon="1.695">
        <ele>352.4</ele>
        <time>2022-09-03T08:50:27Z</time>
      </trkpt>
      <trkpt lat="43.07938" lon="1.69481">
        <ele>351.8</ele>
        <time>2022-09-03T08:50:31Z</time>
      </trkpt>
      <trkpt lat="43.07931" lon="1.69467">
        <ele>351.4</ele>
        <time>2022-09-03T08:50:34Z</time>
      </trkpt>
      <trkpt lat="43.07927" lon="1.69458">
        <ele>351.4</ele>
        <time>2022-09-03T08:50:36Z</time>
      </trkpt>
      <trkpt lat="43.07917" lon="1.69434">
        <ele>350.6</ele>
        <time>2022-09-03T08:50:41Z</time>
      </trkpt>
      <trkpt lat="43.07915" lon="1.69429">
        <ele>350.4</ele>
        <time>2022-09-03T08:50:42Z</time>
      </trkpt>
      <trkpt lat="43.07905" lon="1.69409">
        <ele>349.6</ele>
        <time>2022-09-03T08:50:46Z</time>
      </trkpt>
      <trkpt lat="43.07898" lon="1.69394">
        <ele>349.2</ele>
        <time>2022-09-03T08:50:49Z</time>
      </trkpt>
      <trkpt lat="43.07889" lon="1.69377">
        <ele>349.2</ele>
        <time>2022-09-03T08:50:52Z</time>
      </trkpt>
      <trkpt lat="43.07872" lon="1.69344">
        <ele>348</ele>
        <time>2022-09-03T08:50:58Z</time>
      </trkpt>
      <trkpt lat="43.07867" lon="1.69334">
        <ele>347.4</ele>
        <time>2022-09-03T08:51:00Z</time>
      </trkpt>
      <trkpt lat="43.0786" lon="1.69322">
        <ele>346.8</ele>
        <time>2022-09-03T08:51:03Z</time>
      </trkpt>
      <trkpt lat="43.07858" lon="1.69315">
        <ele>346.6</ele>
        <time>2022-09-03T08:51:04Z</time>
      </trkpt>
      <trkpt lat="43.07848" lon="1.69285">
        <ele>345.8</ele>
        <time>2022-09-03T08:51:08Z</time>
      </trkpt>
      <trkpt lat="43.07846" lon="1.69245">
        <ele>345.2</ele>
        <time>2022-09-03T08:51:13Z</time>
      </trkpt>
      <trkpt lat="43.07847" lon="1.69238">
        <ele>345</ele>
        <time>2022-09-03T08:51:14Z</time>
      </trkpt>
      <trkpt lat="43.07856" lon="1.69211">
        <ele>345</ele>
        <time>2022-09-03T08:51:19Z</time>
      </trkpt>
      <trkpt lat="43.07858" lon="1.69207">
        <ele>345</ele>
        <time>2022-09-03T08:51:20Z</time>
      </trkpt>
      <trkpt lat="43.0786" lon="1.69202">
        <ele>344.8</ele>
        <time>2022-09-03T08:51:21Z</time>
      </trkpt>
      <trkpt lat="43.07864" lon="1.69184">
        <ele>344.6</ele>
        <time>2022-09-03T08:51:25Z</time>
      </trkpt>
      <trkpt lat="43.07865" lon="1.69156">
        <ele>344.6</ele>
        <time>2022-09-03T08:51:31Z</time>
      </trkpt>
      <trkpt lat="43.07865" lon="1.69113">
        <ele>343.8</ele>
        <time>2022-09-03T08:51:39Z</time>
      </trkpt>
      <trkpt lat="43.07865" lon="1.69108">
        <ele>343.8</ele>
        <time>2022-09-03T08:51:40Z</time>
      </trkpt>
      <trkpt lat="43.07865" lon="1.69102">
        <ele>343.6</ele>
        <time>2022-09-03T08:51:41Z</time>
      </trkpt>
      <trkpt lat="43.07868" lon="1.69076">
        <ele>343.4</ele>
        <time>2022-09-03T08:51:46Z</time>
      </trkpt>
      <trkpt lat="43.07869" lon="1.69064">
        <ele>343.2</ele>
        <time>2022-09-03T08:51:48Z</time>
      </trkpt>
      <trkpt lat="43.0787" lon="1.69033">
        <ele>342.8</ele>
        <time>2022-09-03T08:51:53Z</time>
      </trkpt>
      <trkpt lat="43.07873" lon="1.68968">
        <ele>342</ele>
        <time>2022-09-03T08:52:03Z</time>
      </trkpt>
      <trkpt lat="43.07876" lon="1.68942">
        <ele>341.6</ele>
        <time>2022-09-03T08:52:07Z</time>
      </trkpt>
      <trkpt lat="43.07876" lon="1.68915">
        <ele>341.2</ele>
        <time>2022-09-03T08:52:11Z</time>
      </trkpt>
      <trkpt lat="43.07871" lon="1.68862">
        <ele>340.8</ele>
        <time>2022-09-03T08:52:19Z</time>
      </trkpt>
      <trkpt lat="43.07871" lon="1.68855">
        <ele>340.6</ele>
        <time>2022-09-03T08:52:20Z</time>
      </trkpt>
      <trkpt lat="43.07866" lon="1.6881">
        <ele>340.4</ele>
        <time>2022-09-03T08:52:27Z</time>
      </trkpt>
      <trkpt lat="43.07862" lon="1.68755">
        <ele>339.8</ele>
        <time>2022-09-03T08:52:35Z</time>
      </trkpt>
      <trkpt lat="43.07862" lon="1.68741">
        <ele>339.6</ele>
        <time>2022-09-03T08:52:37Z</time>
      </trkpt>
      <trkpt lat="43.07862" lon="1.68699">
        <ele>339.2</ele>
        <time>2022-09-03T08:52:43Z</time>
      </trkpt>
      <trkpt lat="43.07862" lon="1.68653">
        <ele>338.8</ele>
        <time>2022-09-03T08:52:50Z</time>
      </trkpt>
      <trkpt lat="43.07862" lon="1.68639">
        <ele>338.6</ele>
        <time>2022-09-03T08:52:52Z</time>
      </trkpt>
      <trkpt lat="43.07864" lon="1.68598">
        <ele>338</ele>
        <time>2022-09-03T08:52:58Z</time>
      </trkpt>
      <trkpt lat="43.07864" lon="1.68556">
        <ele>337.6</ele>
        <time>2022-09-03T08:53:04Z</time>
      </trkpt>
      <trkpt lat="43.07864" lon="1.68543">
        <ele>337.6</ele>
        <time>2022-09-03T08:53:06Z</time>
      </trkpt>
      <trkpt lat="43.07858" lon="1.68493">
        <ele>337</ele>
        <time>2022-09-03T08:53:14Z</time>
      </trkpt>
      <trkpt lat="43.07849" lon="1.68447">
        <ele>336.6</ele>
        <time>2022-09-03T08:53:22Z</time>
      </trkpt>
      <trkpt lat="43.07849" lon="1.68441">
        <ele>336.6</ele>
        <time>2022-09-03T08:53:23Z</time>
      </trkpt>
      <trkpt lat="43.07843" lon="1.68412">
        <ele>336.6</ele>
        <time>2022-09-03T08:53:29Z</time>
      </trkpt>
      <trkpt lat="43.07838" lon="1.68377">
        <ele>336.6</ele>
        <time>2022-09-03T08:53:36Z</time>
      </trkpt>
      <trkpt lat="43.0783" lon="1.68334">
        <ele>336.6</ele>
        <time>2022-09-03T08:53:45Z</time>
      </trkpt>
      <trkpt lat="43.07823" lon="1.68294">
        <ele>336.6</ele>
        <time>2022-09-03T08:53:53Z</time>
      </trkpt>
      <trkpt lat="43.07815" lon="1.68248">
        <ele>336.8</ele>
        <time>2022-09-03T08:54:02Z</time>
      </trkpt>
      <trkpt lat="43.07806" lon="1.682">
        <ele>337</ele>
        <time>2022-09-03T08:54:12Z</time>
      </trkpt>
      <trkpt lat="43.07799" lon="1.68161">
        <ele>336</ele>
        <time>2022-09-03T08:54:19Z</time>
      </trkpt>
      <trkpt lat="43.07792" lon="1.68132">
        <ele>335.4</ele>
        <time>2022-09-03T08:54:23Z</time>
      </trkpt>
      <trkpt lat="43.0779" lon="1.68124">
        <ele>335.2</ele>
        <time>2022-09-03T08:54:24Z</time>
      </trkpt>
      <trkpt lat="43.07787" lon="1.68116">
        <ele>335</ele>
        <time>2022-09-03T08:54:25Z</time>
      </trkpt>
      <trkpt lat="43.07768" lon="1.68064">
        <ele>334.8</ele>
        <time>2022-09-03T08:54:31Z</time>
      </trkpt>
      <trkpt lat="43.07758" lon="1.68015">
        <ele>335</ele>
        <time>2022-09-03T08:54:37Z</time>
      </trkpt>
      <trkpt lat="43.07747" lon="1.67952">
        <ele>335.8</ele>
        <time>2022-09-03T08:54:46Z</time>
      </trkpt>
      <trkpt lat="43.07743" lon="1.67912">
        <ele>336.4</ele>
        <time>2022-09-03T08:54:52Z</time>
      </trkpt>
      <trkpt lat="43.07743" lon="1.67906">
        <ele>336.4</ele>
        <time>2022-09-03T08:54:53Z</time>
      </trkpt>
      <trkpt lat="43.07747" lon="1.67853">
        <ele>336.8</ele>
        <time>2022-09-03T08:55:01Z</time>
      </trkpt>
      <trkpt lat="43.07752" lon="1.67811">
        <ele>337.4</ele>
        <time>2022-09-03T08:55:08Z</time>
      </trkpt>
      <trkpt lat="43.07752" lon="1.67805">
        <ele>337.6</ele>
        <time>2022-09-03T08:55:09Z</time>
      </trkpt>
      <trkpt lat="43.07761" lon="1.67741">
        <ele>338.2</ele>
        <time>2022-09-03T08:55:20Z</time>
      </trkpt>
      <trkpt lat="43.07768" lon="1.67701">
        <ele>338.4</ele>
        <time>2022-09-03T08:55:27Z</time>
      </trkpt>
      <trkpt lat="43.07769" lon="1.67695">
        <ele>338.6</ele>
        <time>2022-09-03T08:55:28Z</time>
      </trkpt>
      <trkpt lat="43.07777" lon="1.67643">
        <ele>339</ele>
        <time>2022-09-03T08:55:37Z</time>
      </trkpt>
      <trkpt lat="43.07787" lon="1.67573">
        <ele>339.2</ele>
        <time>2022-09-03T08:55:49Z</time>
      </trkpt>
      <trkpt lat="43.07794" lon="1.6751">
        <ele>339.4</ele>
        <time>2022-09-03T08:55:59Z</time>
      </trkpt>
      <trkpt lat="43.07795" lon="1.67466">
        <ele>339.6</ele>
        <time>2022-09-03T08:56:06Z</time>
      </trkpt>
      <trkpt lat="43.07796" lon="1.67454">
        <ele>340</ele>
        <time>2022-09-03T08:56:08Z</time>
      </trkpt>
      <trkpt lat="43.07796" lon="1.67402">
        <ele>339.6</ele>
        <time>2022-09-03T08:56:17Z</time>
      </trkpt>
      <trkpt lat="43.07796" lon="1.67398">
        <ele>339.2</ele>
        <time>2022-09-03T08:56:20Z</time>
      </trkpt>
      <trkpt lat="43.07795" lon="1.67398">
        <ele>339.2</ele>
        <time>2022-09-03T08:56:21Z</time>
      </trkpt>
      <trkpt lat="43.07797" lon="1.67409">
        <ele>339.4</ele>
        <time>2022-09-03T08:56:29Z</time>
      </trkpt>
      <trkpt lat="43.07797" lon="1.67412">
        <ele>339.4</ele>
        <time>2022-09-03T08:56:30Z</time>
      </trkpt>
      <trkpt lat="43.07796" lon="1.67416">
        <ele>338.4</ele>
        <time>2022-09-03T09:06:55Z</time>
      </trkpt>
      <trkpt lat="43.07797" lon="1.67407">
        <ele>338.4</ele>
        <time>2022-09-03T09:06:58Z</time>
      </trkpt>
      <trkpt lat="43.07795" lon="1.67382">
        <ele>338.6</ele>
        <time>2022-09-03T09:07:05Z</time>
      </trkpt>
      <trkpt lat="43.07793" lon="1.67349">
        <ele>338.6</ele>
        <time>2022-09-03T09:07:14Z</time>
      </trkpt>
      <trkpt lat="43.07791" lon="1.67315">
        <ele>338.4</ele>
        <time>2022-09-03T09:07:23Z</time>
      </trkpt>
      <trkpt lat="43.07787" lon="1.6729">
        <ele>338.4</ele>
        <time>2022-09-03T09:07:30Z</time>
      </trkpt>
      <trkpt lat="43.07787" lon="1.67303">
        <ele>337.2</ele>
        <time>2022-09-03T09:16:13Z</time>
      </trkpt>
      <trkpt lat="43.07788" lon="1.67296">
        <ele>337.4</ele>
        <time>2022-09-03T09:16:16Z</time>
      </trkpt>
      <trkpt lat="43.07787" lon="1.67292">
        <ele>337.2</ele>
        <time>2022-09-03T09:16:17Z</time>
      </trkpt>
      <trkpt lat="43.07786" lon="1.67269">
        <ele>336.6</ele>
        <time>2022-09-03T09:16:22Z</time>
      </trkpt>
      <trkpt lat="43.07784" lon="1.67252">
        <ele>336.2</ele>
        <time>2022-09-03T09:16:25Z</time>
      </trkpt>
      <trkpt lat="43.07783" lon="1.67237">
        <ele>335.8</ele>
        <time>2022-09-03T09:16:27Z</time>
      </trkpt>
      <trkpt lat="43.0778" lon="1.67203">
        <ele>334.8</ele>
        <time>2022-09-03T09:16:31Z</time>
      </trkpt>
      <trkpt lat="43.07778" lon="1.67184">
        <ele>333.8</ele>
        <time>2022-09-03T09:16:33Z</time>
      </trkpt>
      <trkpt lat="43.07778" lon="1.67151">
        <ele>332.6</ele>
        <time>2022-09-03T09:16:36Z</time>
      </trkpt>
      <trkpt lat="43.07779" lon="1.67125">
        <ele>331.6</ele>
        <time>2022-09-03T09:16:38Z</time>
      </trkpt>
      <trkpt lat="43.0778" lon="1.67111">
        <ele>330.8</ele>
        <time>2022-09-03T09:16:39Z</time>
      </trkpt>
      <trkpt lat="43.07781" lon="1.67083">
        <ele>329.4</ele>
        <time>2022-09-03T09:16:41Z</time>
      </trkpt>
      <trkpt lat="43.07783" lon="1.67054">
        <ele>328.2</ele>
        <time>2022-09-03T09:16:43Z</time>
      </trkpt>
      <trkpt lat="43.07784" lon="1.6704">
        <ele>327</ele>
        <time>2022-09-03T09:16:44Z</time>
      </trkpt>
      <trkpt lat="43.07787" lon="1.67009">
        <ele>326</ele>
        <time>2022-09-03T09:16:46Z</time>
      </trkpt>
      <trkpt lat="43.0779" lon="1.66979">
        <ele>324.4</ele>
        <time>2022-09-03T09:16:48Z</time>
      </trkpt>
      <trkpt lat="43.07795" lon="1.66935">
        <ele>323</ele>
        <time>2022-09-03T09:16:51Z</time>
      </trkpt>
      <trkpt lat="43.078" lon="1.66894">
        <ele>321.8</ele>
        <time>2022-09-03T09:16:54Z</time>
      </trkpt>
      <trkpt lat="43.07806" lon="1.66856">
        <ele>321.2</ele>
        <time>2022-09-03T09:16:57Z</time>
      </trkpt>
      <trkpt lat="43.07812" lon="1.66822">
        <ele>320.6</ele>
        <time>2022-09-03T09:17:00Z</time>
      </trkpt>
      <trkpt lat="43.07818" lon="1.6678">
        <ele>319.8</ele>
        <time>2022-09-03T09:17:04Z</time>
      </trkpt>
      <trkpt lat="43.07825" lon="1.66743">
        <ele>319</ele>
        <time>2022-09-03T09:17:08Z</time>
      </trkpt>
      <trkpt lat="43.07828" lon="1.66718">
        <ele>318.6</ele>
        <time>2022-09-03T09:17:11Z</time>
      </trkpt>
      <trkpt lat="43.07826" lon="1.6667">
        <ele>318.6</ele>
        <time>2022-09-03T09:17:17Z</time>
      </trkpt>
      <trkpt lat="43.07815" lon="1.66605">
        <ele>318.2</ele>
        <time>2022-09-03T09:17:26Z</time>
      </trkpt>
      <trkpt lat="43.07811" lon="1.66592">
        <ele>318.2</ele>
        <time>2022-09-03T09:17:28Z</time>
      </trkpt>
      <trkpt lat="43.07806" lon="1.66581">
        <ele>318</ele>
        <time>2022-09-03T09:17:30Z</time>
      </trkpt>
      <trkpt lat="43.07803" lon="1.66575">
        <ele>318</ele>
        <time>2022-09-03T09:17:31Z</time>
      </trkpt>
      <trkpt lat="43.07786" lon="1.66542">
        <ele>318.2</ele>
        <time>2022-09-03T09:17:38Z</time>
      </trkpt>
      <trkpt lat="43.07781" lon="1.66513">
        <ele>318</ele>
        <time>2022-09-03T09:17:44Z</time>
      </trkpt>
      <trkpt lat="43.07782" lon="1.66492">
        <ele>317.8</ele>
        <time>2022-09-03T09:17:50Z</time>
      </trkpt>
      <trkpt lat="43.07784" lon="1.66483">
        <ele>317.8</ele>
        <time>2022-09-03T09:17:55Z</time>
      </trkpt>
      <trkpt lat="43.07786" lon="1.66469">
        <ele>317.8</ele>
        <time>2022-09-03T09:18:00Z</time>
      </trkpt>
      <trkpt lat="43.0779" lon="1.66438">
        <ele>317.8</ele>
        <time>2022-09-03T09:18:06Z</time>
      </trkpt>
      <trkpt lat="43.07789" lon="1.66425">
        <ele>317.8</ele>
        <time>2022-09-03T09:18:08Z</time>
      </trkpt>
      <trkpt lat="43.07788" lon="1.66394">
        <ele>317.4</ele>
        <time>2022-09-03T09:18:13Z</time>
      </trkpt>
      <trkpt lat="43.07786" lon="1.66355">
        <ele>317.6</ele>
        <time>2022-09-03T09:18:20Z</time>
      </trkpt>
      <trkpt lat="43.0778" lon="1.66325">
        <ele>317.6</ele>
        <time>2022-09-03T09:18:26Z</time>
      </trkpt>
      <trkpt lat="43.07773" lon="1.66286">
        <ele>317.4</ele>
        <time>2022-09-03T09:18:34Z</time>
      </trkpt>
      <trkpt lat="43.07773" lon="1.6628">
        <ele>317.4</ele>
        <time>2022-09-03T09:18:35Z</time>
      </trkpt>
      <trkpt lat="43.07773" lon="1.66261">
        <ele>317</ele>
        <time>2022-09-03T09:18:38Z</time>
      </trkpt>
      <trkpt lat="43.07774" lon="1.66254">
        <ele>316.8</ele>
        <time>2022-09-03T09:18:39Z</time>
      </trkpt>
      <trkpt lat="43.0778" lon="1.66217">
        <ele>315.8</ele>
        <time>2022-09-03T09:18:44Z</time>
      </trkpt>
      <trkpt lat="43.07782" lon="1.66209">
        <ele>315.6</ele>
        <time>2022-09-03T09:18:45Z</time>
      </trkpt>
      <trkpt lat="43.07789" lon="1.66169">
        <ele>314.8</ele>
        <time>2022-09-03T09:18:50Z</time>
      </trkpt>
      <trkpt lat="43.07797" lon="1.66133">
        <ele>314.2</ele>
        <time>2022-09-03T09:18:55Z</time>
      </trkpt>
      <trkpt lat="43.07793" lon="1.66117">
        <ele>313.8</ele>
        <time>2022-09-03T09:18:58Z</time>
      </trkpt>
      <trkpt lat="43.0779" lon="1.66113">
        <ele>313.6</ele>
        <time>2022-09-03T09:18:59Z</time>
      </trkpt>
      <trkpt lat="43.07777" lon="1.66102">
        <ele>313.6</ele>
        <time>2022-09-03T09:19:02Z</time>
      </trkpt>
      <trkpt lat="43.07773" lon="1.66099">
        <ele>313.8</ele>
        <time>2022-09-03T09:19:03Z</time>
      </trkpt>
      <trkpt lat="43.07739" lon="1.66076">
        <ele>313.6</ele>
        <time>2022-09-03T09:19:10Z</time>
      </trkpt>
      <trkpt lat="43.07699" lon="1.66044">
        <ele>313.2</ele>
        <time>2022-09-03T09:19:19Z</time>
      </trkpt>
      <trkpt lat="43.07695" lon="1.66039">
        <ele>313.2</ele>
        <time>2022-09-03T09:19:20Z</time>
      </trkpt>
      <trkpt lat="43.07661" lon="1.65996">
        <ele>313</ele>
        <time>2022-09-03T09:19:29Z</time>
      </trkpt>
      <trkpt lat="43.07628" lon="1.65966">
        <ele>313.2</ele>
        <time>2022-09-03T09:19:37Z</time>
      </trkpt>
      <trkpt lat="43.07599" lon="1.65942">
        <ele>312.8</ele>
        <time>2022-09-03T09:19:44Z</time>
      </trkpt>
      <trkpt lat="43.07586" lon="1.65931">
        <ele>312.6</ele>
        <time>2022-09-03T09:19:47Z</time>
      </trkpt>
      <trkpt lat="43.07562" lon="1.65912">
        <ele>312.8</ele>
        <time>2022-09-03T09:19:53Z</time>
      </trkpt>
      <trkpt lat="43.07535" lon="1.65887">
        <ele>313</ele>
        <time>2022-09-03T09:20:00Z</time>
      </trkpt>
      <trkpt lat="43.07506" lon="1.65855">
        <ele>312.8</ele>
        <time>2022-09-03T09:20:08Z</time>
      </trkpt>
      <trkpt lat="43.07477" lon="1.65826">
        <ele>312.8</ele>
        <time>2022-09-03T09:20:16Z</time>
      </trkpt>
      <trkpt lat="43.07447" lon="1.65788">
        <ele>313</ele>
        <time>2022-09-03T09:20:25Z</time>
      </trkpt>
      <trkpt lat="43.07417" lon="1.65747">
        <ele>313</ele>
        <time>2022-09-03T09:20:34Z</time>
      </trkpt>
      <trkpt lat="43.07396" lon="1.65717">
        <ele>312.8</ele>
        <time>2022-09-03T09:20:41Z</time>
      </trkpt>
      <trkpt lat="43.07375" lon="1.65688">
        <ele>312.8</ele>
        <time>2022-09-03T09:20:49Z</time>
      </trkpt>
      <trkpt lat="43.07362" lon="1.65676">
        <ele>312.8</ele>
        <time>2022-09-03T09:20:54Z</time>
      </trkpt>
      <trkpt lat="43.07337" lon="1.65673">
        <ele>313.2</ele>
        <time>2022-09-03T09:21:00Z</time>
      </trkpt>
      <trkpt lat="43.07296" lon="1.65668">
        <ele>313.4</ele>
        <time>2022-09-03T09:21:09Z</time>
      </trkpt>
      <trkpt lat="43.07249" lon="1.65663">
        <ele>313.6</ele>
        <time>2022-09-03T09:21:19Z</time>
      </trkpt>
      <trkpt lat="43.07244" lon="1.65662">
        <ele>313.8</ele>
        <time>2022-09-03T09:21:20Z</time>
      </trkpt>
      <trkpt lat="43.07195" lon="1.65651">
        <ele>313.6</ele>
        <time>2022-09-03T09:21:30Z</time>
      </trkpt>
      <trkpt lat="43.07151" lon="1.6564">
        <ele>313.8</ele>
        <time>2022-09-03T09:21:39Z</time>
      </trkpt>
      <trkpt lat="43.07147" lon="1.65638">
        <ele>313.6</ele>
        <time>2022-09-03T09:21:40Z</time>
      </trkpt>
      <trkpt lat="43.07114" lon="1.65626">
        <ele>313.8</ele>
        <time>2022-09-03T09:21:47Z</time>
      </trkpt>
      <trkpt lat="43.07077" lon="1.65609">
        <ele>314</ele>
        <time>2022-09-03T09:21:55Z</time>
      </trkpt>
      <trkpt lat="43.07026" lon="1.6559">
        <ele>314.4</ele>
        <time>2022-09-03T09:22:06Z</time>
      </trkpt>
      <trkpt lat="43.0698" lon="1.65583">
        <ele>314.6</ele>
        <time>2022-09-03T09:22:16Z</time>
      </trkpt>
      <trkpt lat="43.06957" lon="1.65582">
        <ele>314.8</ele>
        <time>2022-09-03T09:22:21Z</time>
      </trkpt>
      <trkpt lat="43.06937" lon="1.6558">
        <ele>314.8</ele>
        <time>2022-09-03T09:22:25Z</time>
      </trkpt>
      <trkpt lat="43.06898" lon="1.65581">
        <ele>315.2</ele>
        <time>2022-09-03T09:22:33Z</time>
      </trkpt>
      <trkpt lat="43.06893" lon="1.6558">
        <ele>315.2</ele>
        <time>2022-09-03T09:22:34Z</time>
      </trkpt>
      <trkpt lat="43.06889" lon="1.65579">
        <ele>315.2</ele>
        <time>2022-09-03T09:22:35Z</time>
      </trkpt>
      <trkpt lat="43.06875" lon="1.6557">
        <ele>315.4</ele>
        <time>2022-09-03T09:22:38Z</time>
      </trkpt>
      <trkpt lat="43.06866" lon="1.65548">
        <ele>315.4</ele>
        <time>2022-09-03T09:22:42Z</time>
      </trkpt>
      <trkpt lat="43.06865" lon="1.65542">
        <ele>315.4</ele>
        <time>2022-09-03T09:22:43Z</time>
      </trkpt>
      <trkpt lat="43.06861" lon="1.65523">
        <ele>315.4</ele>
        <time>2022-09-03T09:22:46Z</time>
      </trkpt>
      <trkpt lat="43.06854" lon="1.65506">
        <ele>315.6</ele>
        <time>2022-09-03T09:22:49Z</time>
      </trkpt>
      <trkpt lat="43.06851" lon="1.65501">
        <ele>315.8</ele>
        <time>2022-09-03T09:22:50Z</time>
      </trkpt>
      <trkpt lat="43.06844" lon="1.65491">
        <ele>315.8</ele>
        <time>2022-09-03T09:22:52Z</time>
      </trkpt>
      <trkpt lat="43.06832" lon="1.65478">
        <ele>315.8</ele>
        <time>2022-09-03T09:22:55Z</time>
      </trkpt>
      <trkpt lat="43.06794" lon="1.65442">
        <ele>315.8</ele>
        <time>2022-09-03T09:23:04Z</time>
      </trkpt>
      <trkpt lat="43.06762" lon="1.65423">
        <ele>315.8</ele>
        <time>2022-09-03T09:23:11Z</time>
      </trkpt>
      <trkpt lat="43.06728" lon="1.65413">
        <ele>316</ele>
        <time>2022-09-03T09:23:19Z</time>
      </trkpt>
      <trkpt lat="43.06684" lon="1.65412">
        <ele>316.6</ele>
        <time>2022-09-03T09:23:28Z</time>
      </trkpt>
      <trkpt lat="43.06675" lon="1.65412">
        <ele>316.8</ele>
        <time>2022-09-03T09:23:30Z</time>
      </trkpt>
      <trkpt lat="43.06633" lon="1.65411">
        <ele>316.8</ele>
        <time>2022-09-03T09:23:39Z</time>
      </trkpt>
      <trkpt lat="43.06597" lon="1.65411">
        <ele>316.8</ele>
        <time>2022-09-03T09:23:47Z</time>
      </trkpt>
      <trkpt lat="43.06569" lon="1.65409">
        <ele>316.6</ele>
        <time>2022-09-03T09:23:54Z</time>
      </trkpt>
      <trkpt lat="43.06533" lon="1.65403">
        <ele>316.6</ele>
        <time>2022-09-03T09:24:02Z</time>
      </trkpt>
      <trkpt lat="43.06502" lon="1.65398">
        <ele>316.6</ele>
        <time>2022-09-03T09:24:10Z</time>
      </trkpt>
      <trkpt lat="43.06466" lon="1.65392">
        <ele>316.6</ele>
        <time>2022-09-03T09:24:19Z</time>
      </trkpt>
      <trkpt lat="43.06428" lon="1.65388">
        <ele>317</ele>
        <time>2022-09-03T09:24:28Z</time>
      </trkpt>
      <trkpt lat="43.064" lon="1.65378">
        <ele>317.2</ele>
        <time>2022-09-03T09:24:35Z</time>
      </trkpt>
      <trkpt lat="43.06392" lon="1.65372">
        <ele>317.2</ele>
        <time>2022-09-03T09:24:37Z</time>
      </trkpt>
      <trkpt lat="43.0638" lon="1.65364">
        <ele>317.6</ele>
        <time>2022-09-03T09:24:40Z</time>
      </trkpt>
      <trkpt lat="43.06362" lon="1.65348">
        <ele>317.4</ele>
        <time>2022-09-03T09:24:45Z</time>
      </trkpt>
      <trkpt lat="43.06355" lon="1.65342">
        <ele>317.4</ele>
        <time>2022-09-03T09:24:47Z</time>
      </trkpt>
      <trkpt lat="43.06344" lon="1.65334">
        <ele>317.6</ele>
        <time>2022-09-03T09:24:50Z</time>
      </trkpt>
      <trkpt lat="43.06319" lon="1.6531">
        <ele>317.6</ele>
        <time>2022-09-03T09:24:57Z</time>
      </trkpt>
      <trkpt lat="43.06312" lon="1.65303">
        <ele>317.6</ele>
        <time>2022-09-03T09:24:59Z</time>
      </trkpt>
      <trkpt lat="43.06299" lon="1.65288">
        <ele>317.8</ele>
        <time>2022-09-03T09:25:03Z</time>
      </trkpt>
      <trkpt lat="43.0629" lon="1.65275">
        <ele>317.8</ele>
        <time>2022-09-03T09:25:06Z</time>
      </trkpt>
      <trkpt lat="43.06277" lon="1.65259">
        <ele>318</ele>
        <time>2022-09-03T09:25:10Z</time>
      </trkpt>
      <trkpt lat="43.06274" lon="1.65255">
        <ele>318</ele>
        <time>2022-09-03T09:25:11Z</time>
      </trkpt>
      <trkpt lat="43.06257" lon="1.65229">
        <ele>318</ele>
        <time>2022-09-03T09:25:18Z</time>
      </trkpt>
      <trkpt lat="43.06245" lon="1.6521">
        <ele>318</ele>
        <time>2022-09-03T09:25:24Z</time>
      </trkpt>
      <trkpt lat="43.06227" lon="1.6518">
        <ele>318.4</ele>
        <time>2022-09-03T09:25:32Z</time>
      </trkpt>
      <trkpt lat="43.06207" lon="1.65149">
        <ele>318.8</ele>
        <time>2022-09-03T09:25:40Z</time>
      </trkpt>
      <trkpt lat="43.06199" lon="1.65138">
        <ele>319</ele>
        <time>2022-09-03T09:25:43Z</time>
      </trkpt>
      <trkpt lat="43.06183" lon="1.65115">
        <ele>319.2</ele>
        <time>2022-09-03T09:25:49Z</time>
      </trkpt>
      <trkpt lat="43.06159" lon="1.65082">
        <ele>319.6</ele>
        <time>2022-09-03T09:25:58Z</time>
      </trkpt>
      <trkpt lat="43.06137" lon="1.65053">
        <ele>319.8</ele>
        <time>2022-09-03T09:26:06Z</time>
      </trkpt>
      <trkpt lat="43.06131" lon="1.65046">
        <ele>320</ele>
        <time>2022-09-03T09:26:08Z</time>
      </trkpt>
      <trkpt lat="43.06109" lon="1.65015">
        <ele>320.2</ele>
        <time>2022-09-03T09:26:16Z</time>
      </trkpt>
      <trkpt lat="43.06083" lon="1.64978">
        <ele>320.4</ele>
        <time>2022-09-03T09:26:25Z</time>
      </trkpt>
      <trkpt lat="43.0606" lon="1.64944">
        <ele>321</ele>
        <time>2022-09-03T09:26:34Z</time>
      </trkpt>
      <trkpt lat="43.06057" lon="1.6494">
        <ele>321</ele>
        <time>2022-09-03T09:26:35Z</time>
      </trkpt>
      <trkpt lat="43.06036" lon="1.64915">
        <ele>321.2</ele>
        <time>2022-09-03T09:26:42Z</time>
      </trkpt>
      <trkpt lat="43.06015" lon="1.64893">
        <ele>321.2</ele>
        <time>2022-09-03T09:26:50Z</time>
      </trkpt>
      <trkpt lat="43.05997" lon="1.64887">
        <ele>321.2</ele>
        <time>2022-09-03T09:26:56Z</time>
      </trkpt>
      <trkpt lat="43.05987" lon="1.64874">
        <ele>321.4</ele>
        <time>2022-09-03T09:27:00Z</time>
      </trkpt>
      <trkpt lat="43.05966" lon="1.64848">
        <ele>322</ele>
        <time>2022-09-03T09:27:07Z</time>
      </trkpt>
      <trkpt lat="43.05962" lon="1.64845">
        <ele>322</ele>
        <time>2022-09-03T09:27:08Z</time>
      </trkpt>
      <trkpt lat="43.05956" lon="1.64838">
        <ele>322.2</ele>
        <time>2022-09-03T09:27:10Z</time>
      </trkpt>
      <trkpt lat="43.05942" lon="1.64826">
        <ele>322.4</ele>
        <time>2022-09-03T09:27:14Z</time>
      </trkpt>
      <trkpt lat="43.05908" lon="1.64799">
        <ele>323</ele>
        <time>2022-09-03T09:27:23Z</time>
      </trkpt>
      <trkpt lat="43.05895" lon="1.64786">
        <ele>323.2</ele>
        <time>2022-09-03T09:27:27Z</time>
      </trkpt>
      <trkpt lat="43.0588" lon="1.64774">
        <ele>323.2</ele>
        <time>2022-09-03T09:27:31Z</time>
      </trkpt>
      <trkpt lat="43.05851" lon="1.6475">
        <ele>323.6</ele>
        <time>2022-09-03T09:27:39Z</time>
      </trkpt>
      <trkpt lat="43.0581" lon="1.64722">
        <ele>324</ele>
        <time>2022-09-03T09:27:50Z</time>
      </trkpt>
      <trkpt lat="43.05802" lon="1.64716">
        <ele>324.2</ele>
        <time>2022-09-03T09:27:52Z</time>
      </trkpt>
      <trkpt lat="43.05772" lon="1.64692">
        <ele>324.4</ele>
        <time>2022-09-03T09:28:00Z</time>
      </trkpt>
      <trkpt lat="43.05737" lon="1.64658">
        <ele>324.8</ele>
        <time>2022-09-03T09:28:10Z</time>
      </trkpt>
      <trkpt lat="43.05709" lon="1.64635">
        <ele>324.8</ele>
        <time>2022-09-03T09:28:18Z</time>
      </trkpt>
      <trkpt lat="43.05677" lon="1.64608">
        <ele>325</ele>
        <time>2022-09-03T09:28:27Z</time>
      </trkpt>
      <trkpt lat="43.05653" lon="1.64583">
        <ele>325</ele>
        <time>2022-09-03T09:28:34Z</time>
      </trkpt>
      <trkpt lat="43.05648" lon="1.64575">
        <ele>325</ele>
        <time>2022-09-03T09:28:36Z</time>
      </trkpt>
      <trkpt lat="43.05645" lon="1.6457">
        <ele>325.2</ele>
        <time>2022-09-03T09:28:37Z</time>
      </trkpt>
      <trkpt lat="43.05643" lon="1.64565">
        <ele>325.2</ele>
        <time>2022-09-03T09:28:38Z</time>
      </trkpt>
      <trkpt lat="43.05633" lon="1.64545">
        <ele>325.4</ele>
        <time>2022-09-03T09:28:42Z</time>
      </trkpt>
      <trkpt lat="43.05614" lon="1.6451">
        <ele>325.8</ele>
        <time>2022-09-03T09:28:49Z</time>
      </trkpt>
      <trkpt lat="43.05611" lon="1.64505">
        <ele>325.8</ele>
        <time>2022-09-03T09:28:50Z</time>
      </trkpt>
      <trkpt lat="43.05579" lon="1.64459">
        <ele>326</ele>
        <time>2022-09-03T09:29:00Z</time>
      </trkpt>
      <trkpt lat="43.05555" lon="1.64436">
        <ele>326.4</ele>
        <time>2022-09-03T09:29:06Z</time>
      </trkpt>
      <trkpt lat="43.05551" lon="1.64432">
        <ele>326.4</ele>
        <time>2022-09-03T09:29:07Z</time>
      </trkpt>
      <trkpt lat="43.05519" lon="1.64402">
        <ele>326.4</ele>
        <time>2022-09-03T09:29:15Z</time>
      </trkpt>
      <trkpt lat="43.05485" lon="1.64371">
        <ele>326.4</ele>
        <time>2022-09-03T09:29:24Z</time>
      </trkpt>
      <trkpt lat="43.05457" lon="1.6434">
        <ele>326.6</ele>
        <time>2022-09-03T09:29:32Z</time>
      </trkpt>
      <trkpt lat="43.05444" lon="1.64325">
        <ele>326.8</ele>
        <time>2022-09-03T09:29:36Z</time>
      </trkpt>
      <trkpt lat="43.05433" lon="1.64313">
        <ele>326.6</ele>
        <time>2022-09-03T09:29:39Z</time>
      </trkpt>
      <trkpt lat="43.05411" lon="1.64288">
        <ele>326.4</ele>
        <time>2022-09-03T09:29:46Z</time>
      </trkpt>
      <trkpt lat="43.0539" lon="1.64264">
        <ele>326.8</ele>
        <time>2022-09-03T09:29:53Z</time>
      </trkpt>
      <trkpt lat="43.05367" lon="1.64241">
        <ele>326.2</ele>
        <time>2022-09-03T09:30:00Z</time>
      </trkpt>
      <trkpt lat="43.05363" lon="1.64239">
        <ele>326</ele>
        <time>2022-09-03T09:30:01Z</time>
      </trkpt>
      <trkpt lat="43.0534" lon="1.64225">
        <ele>325</ele>
        <time>2022-09-03T09:30:06Z</time>
      </trkpt>
      <trkpt lat="43.05335" lon="1.64222">
        <ele>324.8</ele>
        <time>2022-09-03T09:30:07Z</time>
      </trkpt>
      <trkpt lat="43.05317" lon="1.64212">
        <ele>324</ele>
        <time>2022-09-03T09:30:10Z</time>
      </trkpt>
      <trkpt lat="43.05303" lon="1.64204">
        <ele>323.2</ele>
        <time>2022-09-03T09:30:12Z</time>
      </trkpt>
      <trkpt lat="43.05288" lon="1.64196">
        <ele>322.8</ele>
        <time>2022-09-03T09:30:14Z</time>
      </trkpt>
      <trkpt lat="43.05258" lon="1.64177">
        <ele>321.8</ele>
        <time>2022-09-03T09:30:18Z</time>
      </trkpt>
      <trkpt lat="43.0525" lon="1.64172">
        <ele>321.2</ele>
        <time>2022-09-03T09:30:19Z</time>
      </trkpt>
      <trkpt lat="43.05234" lon="1.64162">
        <ele>320.6</ele>
        <time>2022-09-03T09:30:21Z</time>
      </trkpt>
      <trkpt lat="43.05217" lon="1.64152">
        <ele>319.4</ele>
        <time>2022-09-03T09:30:23Z</time>
      </trkpt>
      <trkpt lat="43.05186" lon="1.64133">
        <ele>318.4</ele>
        <time>2022-09-03T09:30:27Z</time>
      </trkpt>
      <trkpt lat="43.05178" lon="1.64127">
        <ele>318.4</ele>
        <time>2022-09-03T09:30:28Z</time>
      </trkpt>
      <trkpt lat="43.05157" lon="1.64111">
        <ele>318</ele>
        <time>2022-09-03T09:30:31Z</time>
      </trkpt>
      <trkpt lat="43.05147" lon="1.64098">
        <ele>318</ele>
        <time>2022-09-03T09:30:33Z</time>
      </trkpt>
      <trkpt lat="43.05137" lon="1.64083">
        <ele>318</ele>
        <time>2022-09-03T09:30:36Z</time>
      </trkpt>
      <trkpt lat="43.05134" lon="1.64078">
        <ele>318</ele>
        <time>2022-09-03T09:30:39Z</time>
      </trkpt>
      <trkpt lat="43.05127" lon="1.6407">
        <ele>318</ele>
        <time>2022-09-03T09:30:44Z</time>
      </trkpt>
      <trkpt lat="43.05119" lon="1.64058">
        <ele>317.6</ele>
        <time>2022-09-03T09:30:47Z</time>
      </trkpt>
      <trkpt lat="43.05118" lon="1.64053">
        <ele>317.4</ele>
        <time>2022-09-03T09:30:48Z</time>
      </trkpt>
      <trkpt lat="43.05109" lon="1.64026">
        <ele>317.4</ele>
        <time>2022-09-03T09:30:53Z</time>
      </trkpt>
      <trkpt lat="43.05102" lon="1.64004">
        <ele>317.4</ele>
        <time>2022-09-03T09:30:57Z</time>
      </trkpt>
      <trkpt lat="43.05099" lon="1.63992">
        <ele>317.2</ele>
        <time>2022-09-03T09:30:59Z</time>
      </trkpt>
      <trkpt lat="43.0509" lon="1.63949">
        <ele>317.2</ele>
        <time>2022-09-03T09:31:07Z</time>
      </trkpt>
      <trkpt lat="43.05084" lon="1.63899">
        <ele>317</ele>
        <time>2022-09-03T09:31:16Z</time>
      </trkpt>
      <trkpt lat="43.05083" lon="1.63894">
        <ele>317</ele>
        <time>2022-09-03T09:31:17Z</time>
      </trkpt>
      <trkpt lat="43.05079" lon="1.63877">
        <ele>317</ele>
        <time>2022-09-03T09:31:20Z</time>
      </trkpt>
      <trkpt lat="43.05074" lon="1.63869">
        <ele>317.2</ele>
        <time>2022-09-03T09:31:22Z</time>
      </trkpt>
      <trkpt lat="43.05059" lon="1.63859">
        <ele>317.6</ele>
        <time>2022-09-03T09:31:26Z</time>
      </trkpt>
      <trkpt lat="43.05056" lon="1.63856">
        <ele>317.6</ele>
        <time>2022-09-03T09:31:27Z</time>
      </trkpt>
      <trkpt lat="43.05039" lon="1.63836">
        <ele>317.6</ele>
        <time>2022-09-03T09:31:33Z</time>
      </trkpt>
      <trkpt lat="43.05018" lon="1.63809">
        <ele>317.6</ele>
        <time>2022-09-03T09:31:41Z</time>
      </trkpt>
      <trkpt lat="43.04995" lon="1.63785">
        <ele>317.8</ele>
        <time>2022-09-03T09:31:49Z</time>
      </trkpt>
      <trkpt lat="43.04971" lon="1.63779">
        <ele>318</ele>
        <time>2022-09-03T09:31:55Z</time>
      </trkpt>
      <trkpt lat="43.04943" lon="1.63773">
        <ele>318.4</ele>
        <time>2022-09-03T09:32:02Z</time>
      </trkpt>
      <trkpt lat="43.04939" lon="1.63773">
        <ele>318.4</ele>
        <time>2022-09-03T09:32:03Z</time>
      </trkpt>
      <trkpt lat="43.04903" lon="1.63765">
        <ele>318.4</ele>
        <time>2022-09-03T09:32:12Z</time>
      </trkpt>
      <trkpt lat="43.04887" lon="1.63763">
        <ele>318.8</ele>
        <time>2022-09-03T09:32:16Z</time>
      </trkpt>
      <trkpt lat="43.04875" lon="1.63761">
        <ele>319</ele>
        <time>2022-09-03T09:32:19Z</time>
      </trkpt>
      <trkpt lat="43.04846" lon="1.6376">
        <ele>318.8</ele>
        <time>2022-09-03T09:32:26Z</time>
      </trkpt>
      <trkpt lat="43.04821" lon="1.63759">
        <ele>318.8</ele>
        <time>2022-09-03T09:32:33Z</time>
      </trkpt>
      <trkpt lat="43.0481" lon="1.63756">
        <ele>318.8</ele>
        <time>2022-09-03T09:32:38Z</time>
      </trkpt>
      <trkpt lat="43.04806" lon="1.63745">
        <ele>319.2</ele>
        <time>2022-09-03T09:32:53Z</time>
      </trkpt>
      <trkpt lat="43.04803" lon="1.63731">
        <ele>319.4</ele>
        <time>2022-09-03T09:32:57Z</time>
      </trkpt>
      <trkpt lat="43.048" lon="1.63719">
        <ele>319.4</ele>
        <time>2022-09-03T09:33:00Z</time>
      </trkpt>
      <trkpt lat="43.04793" lon="1.63685">
        <ele>319.4</ele>
        <time>2022-09-03T09:33:09Z</time>
      </trkpt>
      <trkpt lat="43.04792" lon="1.63667">
        <ele>319.4</ele>
        <time>2022-09-03T09:33:16Z</time>
      </trkpt>
      <trkpt lat="43.04791" lon="1.63664">
        <ele>319.2</ele>
        <time>2022-09-03T09:33:17Z</time>
      </trkpt>
      <trkpt lat="43.04787" lon="1.63661">
        <ele>319.2</ele>
        <time>2022-09-03T09:33:20Z</time>
      </trkpt>
      <trkpt lat="43.04785" lon="1.63651">
        <ele>319.4</ele>
        <time>2022-09-03T09:33:23Z</time>
      </trkpt>
      <trkpt lat="43.04784" lon="1.63648">
        <ele>319.4</ele>
        <time>2022-09-03T09:33:24Z</time>
      </trkpt>
      <trkpt lat="43.04778" lon="1.63624">
        <ele>319.6</ele>
        <time>2022-09-03T09:33:30Z</time>
      </trkpt>
      <trkpt lat="43.04772" lon="1.63599">
        <ele>319.4</ele>
        <time>2022-09-03T09:33:36Z</time>
      </trkpt>
      <trkpt lat="43.04765" lon="1.6357">
        <ele>319.6</ele>
        <time>2022-09-03T09:33:43Z</time>
      </trkpt>
      <trkpt lat="43.04757" lon="1.63536">
        <ele>319.6</ele>
        <time>2022-09-03T09:33:50Z</time>
      </trkpt>
      <trkpt lat="43.04745" lon="1.63491">
        <ele>319.8</ele>
        <time>2022-09-03T09:33:58Z</time>
      </trkpt>
      <trkpt lat="43.04745" lon="1.63478">
        <ele>319.8</ele>
        <time>2022-09-03T09:34:01Z</time>
      </trkpt>
      <trkpt lat="43.04748" lon="1.63479">
        <ele>319.6</ele>
        <time>2022-09-03T09:34:02Z</time>
      </trkpt>
      <trkpt lat="43.04755" lon="1.63483">
        <ele>319.6</ele>
        <time>2022-09-03T09:34:06Z</time>
      </trkpt>
      <trkpt lat="43.04758" lon="1.63486">
        <ele>319.6</ele>
        <time>2022-09-03T09:34:09Z</time>
      </trkpt>
      <trkpt lat="43.04761" lon="1.63486">
        <ele>319.6</ele>
        <time>2022-09-03T09:34:11Z</time>
      </trkpt>
      <trkpt lat="43.04758" lon="1.63482">
        <ele>319.6</ele>
        <time>2022-09-03T09:34:15Z</time>
      </trkpt>
      <trkpt lat="43.04745" lon="1.63475">
        <ele>320.6</ele>
        <time>2022-09-03T09:42:06Z</time>
      </trkpt>
      <trkpt lat="43.0474" lon="1.6346">
        <ele>320.8</ele>
        <time>2022-09-03T09:42:13Z</time>
      </trkpt>
      <trkpt lat="43.04735" lon="1.6344">
        <ele>321</ele>
        <time>2022-09-03T09:42:19Z</time>
      </trkpt>
      <trkpt lat="43.04726" lon="1.63414">
        <ele>321</ele>
        <time>2022-09-03T09:42:26Z</time>
      </trkpt>
      <trkpt lat="43.04717" lon="1.63376">
        <ele>321.2</ele>
        <time>2022-09-03T09:42:34Z</time>
      </trkpt>
      <trkpt lat="43.04703" lon="1.63319">
        <ele>321.6</ele>
        <time>2022-09-03T09:42:46Z</time>
      </trkpt>
      <trkpt lat="43.04701" lon="1.6331">
        <ele>321.8</ele>
        <time>2022-09-03T09:42:48Z</time>
      </trkpt>
      <trkpt lat="43.04692" lon="1.63266">
        <ele>322.2</ele>
        <time>2022-09-03T09:42:57Z</time>
      </trkpt>
      <trkpt lat="43.04681" lon="1.63226">
        <ele>322.4</ele>
        <time>2022-09-03T09:43:05Z</time>
      </trkpt>
      <trkpt lat="43.04672" lon="1.63188">
        <ele>322.8</ele>
        <time>2022-09-03T09:43:12Z</time>
      </trkpt>
      <trkpt lat="43.04669" lon="1.63177">
        <ele>322.8</ele>
        <time>2022-09-03T09:43:14Z</time>
      </trkpt>
      <trkpt lat="43.04658" lon="1.6313">
        <ele>323.4</ele>
        <time>2022-09-03T09:43:23Z</time>
      </trkpt>
      <trkpt lat="43.04646" lon="1.63089">
        <ele>323.2</ele>
        <time>2022-09-03T09:43:31Z</time>
      </trkpt>
      <trkpt lat="43.04635" lon="1.63044">
        <ele>323.4</ele>
        <time>2022-09-03T09:43:39Z</time>
      </trkpt>
      <trkpt lat="43.04623" lon="1.63001">
        <ele>323.8</ele>
        <time>2022-09-03T09:43:47Z</time>
      </trkpt>
      <trkpt lat="43.04622" lon="1.62995">
        <ele>324</ele>
        <time>2022-09-03T09:43:48Z</time>
      </trkpt>
      <trkpt lat="43.04613" lon="1.62958">
        <ele>323.8</ele>
        <time>2022-09-03T09:43:55Z</time>
      </trkpt>
      <trkpt lat="43.04606" lon="1.62927">
        <ele>324</ele>
        <time>2022-09-03T09:44:02Z</time>
      </trkpt>
      <trkpt lat="43.04598" lon="1.62894">
        <ele>324</ele>
        <time>2022-09-03T09:44:11Z</time>
      </trkpt>
      <trkpt lat="43.04595" lon="1.62888">
        <ele>323.6</ele>
        <time>2022-09-03T09:44:15Z</time>
      </trkpt>
      <trkpt lat="43.04592" lon="1.62864">
        <ele>323.2</ele>
        <time>2022-09-03T09:44:38Z</time>
      </trkpt>
      <trkpt lat="43.0459" lon="1.62862">
        <ele>323.2</ele>
        <time>2022-09-03T09:44:39Z</time>
      </trkpt>
      <trkpt lat="43.04587" lon="1.62857">
        <ele>323</ele>
        <time>2022-09-03T09:44:41Z</time>
      </trkpt>
      <trkpt lat="43.04586" lon="1.62856">
        <ele>323</ele>
        <time>2022-09-03T09:44:42Z</time>
      </trkpt>
      <trkpt lat="43.04585" lon="1.62854">
        <ele>323</ele>
        <time>2022-09-03T09:44:43Z</time>
      </trkpt>
      <trkpt lat="43.0456" lon="1.62833">
        <ele>321.8</ele>
        <time>2022-09-03T09:51:36Z</time>
      </trkpt>
      <trkpt lat="43.04558" lon="1.62828">
        <ele>321.6</ele>
        <time>2022-09-03T09:51:38Z</time>
      </trkpt>
      <trkpt lat="43.04555" lon="1.62822">
        <ele>321.6</ele>
        <time>2022-09-03T09:51:42Z</time>
      </trkpt>
      <trkpt lat="43.04553" lon="1.62823">
        <ele>321.6</ele>
        <time>2022-09-03T09:51:44Z</time>
      </trkpt>
      <trkpt lat="43.04548" lon="1.62826">
        <ele>322.2</ele>
        <time>2022-09-03T09:51:50Z</time>
      </trkpt>
      <trkpt lat="43.04544" lon="1.62827">
        <ele>322.8</ele>
        <time>2022-09-03T09:51:54Z</time>
      </trkpt>
      <trkpt lat="43.04542" lon="1.62827">
        <ele>323</ele>
        <time>2022-09-03T09:51:56Z</time>
      </trkpt>
      <trkpt lat="43.04531" lon="1.62834">
        <ele>323.8</ele>
        <time>2022-09-03T09:52:02Z</time>
      </trkpt>
      <trkpt lat="43.04514" lon="1.62848">
        <ele>324</ele>
        <time>2022-09-03T09:52:10Z</time>
      </trkpt>
      <trkpt lat="43.04493" lon="1.62868">
        <ele>324.4</ele>
        <time>2022-09-03T09:52:19Z</time>
      </trkpt>
      <trkpt lat="43.0447" lon="1.62884">
        <ele>324.8</ele>
        <time>2022-09-03T09:52:27Z</time>
      </trkpt>
      <trkpt lat="43.04462" lon="1.62891">
        <ele>325</ele>
        <time>2022-09-03T09:52:30Z</time>
      </trkpt>
      <trkpt lat="43.04438" lon="1.62914">
        <ele>325.4</ele>
        <time>2022-09-03T09:52:39Z</time>
      </trkpt>
      <trkpt lat="43.04417" lon="1.62934">
        <ele>325.8</ele>
        <time>2022-09-03T09:52:47Z</time>
      </trkpt>
      <trkpt lat="43.04408" lon="1.62941">
        <ele>326</ele>
        <time>2022-09-03T09:52:50Z</time>
      </trkpt>
      <trkpt lat="43.044" lon="1.62946">
        <ele>326.4</ele>
        <time>2022-09-03T09:52:53Z</time>
      </trkpt>
      <trkpt lat="43.04396" lon="1.62947">
        <ele>326.4</ele>
        <time>2022-09-03T09:52:54Z</time>
      </trkpt>
      <trkpt lat="43.04376" lon="1.62941">
        <ele>326.6</ele>
        <time>2022-09-03T09:53:00Z</time>
      </trkpt>
      <trkpt lat="43.04357" lon="1.62929">
        <ele>326.6</ele>
        <time>2022-09-03T09:53:06Z</time>
      </trkpt>
      <trkpt lat="43.0434" lon="1.6292">
        <ele>327</ele>
        <time>2022-09-03T09:53:12Z</time>
      </trkpt>
      <trkpt lat="43.04337" lon="1.62917">
        <ele>327</ele>
        <time>2022-09-03T09:53:13Z</time>
      </trkpt>
      <trkpt lat="43.04317" lon="1.62907">
        <ele>327.4</ele>
        <time>2022-09-03T09:53:19Z</time>
      </trkpt>
      <trkpt lat="43.04294" lon="1.62894">
        <ele>327.4</ele>
        <time>2022-09-03T09:53:26Z</time>
      </trkpt>
      <trkpt lat="43.0427" lon="1.62882">
        <ele>327.6</ele>
        <time>2022-09-03T09:53:33Z</time>
      </trkpt>
      <trkpt lat="43.04249" lon="1.62871">
        <ele>328</ele>
        <time>2022-09-03T09:53:39Z</time>
      </trkpt>
      <trkpt lat="43.04245" lon="1.62869">
        <ele>328.2</ele>
        <time>2022-09-03T09:53:40Z</time>
      </trkpt>
      <trkpt lat="43.04219" lon="1.62854">
        <ele>328.8</ele>
        <time>2022-09-03T09:53:48Z</time>
      </trkpt>
      <trkpt lat="43.04208" lon="1.62845">
        <ele>329.2</ele>
        <time>2022-09-03T09:53:52Z</time>
      </trkpt>
      <trkpt lat="43.04204" lon="1.62839">
        <ele>329.6</ele>
        <time>2022-09-03T09:53:54Z</time>
      </trkpt>
      <trkpt lat="43.04191" lon="1.62813">
        <ele>330</ele>
        <time>2022-09-03T09:54:01Z</time>
      </trkpt>
      <trkpt lat="43.04182" lon="1.62783">
        <ele>330</ele>
        <time>2022-09-03T09:54:08Z</time>
      </trkpt>
      <trkpt lat="43.04171" lon="1.62751">
        <ele>330.2</ele>
        <time>2022-09-03T09:54:15Z</time>
      </trkpt>
      <trkpt lat="43.04169" lon="1.62746">
        <ele>330.2</ele>
        <time>2022-09-03T09:54:16Z</time>
      </trkpt>
      <trkpt lat="43.04164" lon="1.6273">
        <ele>330.2</ele>
        <time>2022-09-03T09:54:19Z</time>
      </trkpt>
      <trkpt lat="43.04159" lon="1.62714">
        <ele>330.2</ele>
        <time>2022-09-03T09:54:22Z</time>
      </trkpt>
      <trkpt lat="43.04148" lon="1.62678">
        <ele>330</ele>
        <time>2022-09-03T09:54:29Z</time>
      </trkpt>
      <trkpt lat="43.04135" lon="1.62642">
        <ele>330</ele>
        <time>2022-09-03T09:54:36Z</time>
      </trkpt>
      <trkpt lat="43.04121" lon="1.62615">
        <ele>330</ele>
        <time>2022-09-03T09:54:42Z</time>
      </trkpt>
      <trkpt lat="43.04115" lon="1.62607">
        <ele>330.2</ele>
        <time>2022-09-03T09:54:44Z</time>
      </trkpt>
      <trkpt lat="43.04088" lon="1.62569">
        <ele>330.4</ele>
        <time>2022-09-03T09:54:54Z</time>
      </trkpt>
      <trkpt lat="43.04075" lon="1.62547">
        <ele>330.4</ele>
        <time>2022-09-03T09:54:59Z</time>
      </trkpt>
      <trkpt lat="43.04071" lon="1.62537">
        <ele>330.4</ele>
        <time>2022-09-03T09:55:01Z</time>
      </trkpt>
      <trkpt lat="43.04055" lon="1.62496">
        <ele>331.2</ele>
        <time>2022-09-03T09:55:09Z</time>
      </trkpt>
      <trkpt lat="43.04042" lon="1.62461">
        <ele>330.4</ele>
        <time>2022-09-03T09:55:16Z</time>
      </trkpt>
      <trkpt lat="43.0404" lon="1.62455">
        <ele>330.6</ele>
        <time>2022-09-03T09:55:17Z</time>
      </trkpt>
      <trkpt lat="43.04023" lon="1.62418">
        <ele>330</ele>
        <time>2022-09-03T09:55:25Z</time>
      </trkpt>
      <trkpt lat="43.04008" lon="1.62381">
        <ele>330.2</ele>
        <time>2022-09-03T09:55:33Z</time>
      </trkpt>
      <trkpt lat="43.04003" lon="1.62363">
        <ele>330.2</ele>
        <time>2022-09-03T09:55:38Z</time>
      </trkpt>
      <trkpt lat="43.03994" lon="1.62344">
        <ele>330.6</ele>
        <time>2022-09-03T09:55:43Z</time>
      </trkpt>
      <trkpt lat="43.03992" lon="1.62339">
        <ele>330.6</ele>
        <time>2022-09-03T09:55:44Z</time>
      </trkpt>
      <trkpt lat="43.03982" lon="1.62321">
        <ele>329.6</ele>
        <time>2022-09-03T09:55:48Z</time>
      </trkpt>
      <trkpt lat="43.03978" lon="1.62317">
        <ele>329.6</ele>
        <time>2022-09-03T09:55:49Z</time>
      </trkpt>
      <trkpt lat="43.03954" lon="1.6229">
        <ele>329.8</ele>
        <time>2022-09-03T09:55:56Z</time>
      </trkpt>
      <trkpt lat="43.03928" lon="1.62257">
        <ele>330</ele>
        <time>2022-09-03T09:56:04Z</time>
      </trkpt>
      <trkpt lat="43.03904" lon="1.62222">
        <ele>330.2</ele>
        <time>2022-09-03T09:56:12Z</time>
      </trkpt>
      <trkpt lat="43.03877" lon="1.62187">
        <ele>330.4</ele>
        <time>2022-09-03T09:56:20Z</time>
      </trkpt>
      <trkpt lat="43.03866" lon="1.62175">
        <ele>330.4</ele>
        <time>2022-09-03T09:56:23Z</time>
      </trkpt>
      <trkpt lat="43.03855" lon="1.62163">
        <ele>330.4</ele>
        <time>2022-09-03T09:56:26Z</time>
      </trkpt>
      <trkpt lat="43.03839" lon="1.62146">
        <ele>330.8</ele>
        <time>2022-09-03T09:56:31Z</time>
      </trkpt>
      <trkpt lat="43.03812" lon="1.62119">
        <ele>330.2</ele>
        <time>2022-09-03T09:56:39Z</time>
      </trkpt>
      <trkpt lat="43.03788" lon="1.62095">
        <ele>330.2</ele>
        <time>2022-09-03T09:56:46Z</time>
      </trkpt>
      <trkpt lat="43.03761" lon="1.62071">
        <ele>330.2</ele>
        <time>2022-09-03T09:56:54Z</time>
      </trkpt>
      <trkpt lat="43.03749" lon="1.6206">
        <ele>329.8</ele>
        <time>2022-09-03T09:56:57Z</time>
      </trkpt>
      <trkpt lat="43.03737" lon="1.6205">
        <ele>329.4</ele>
        <time>2022-09-03T09:57:00Z</time>
      </trkpt>
      <trkpt lat="43.03731" lon="1.62044">
        <ele>329</ele>
        <time>2022-09-03T09:57:02Z</time>
      </trkpt>
      <trkpt lat="43.0373" lon="1.62041">
        <ele>328.6</ele>
        <time>2022-09-03T09:57:03Z</time>
      </trkpt>
      <trkpt lat="43.03729" lon="1.62037">
        <ele>328.4</ele>
        <time>2022-09-03T09:57:04Z</time>
      </trkpt>
      <trkpt lat="43.03735" lon="1.62021">
        <ele>328.6</ele>
        <time>2022-09-03T09:57:08Z</time>
      </trkpt>
      <trkpt lat="43.03737" lon="1.62017">
        <ele>328.6</ele>
        <time>2022-09-03T09:57:09Z</time>
      </trkpt>
      <trkpt lat="43.03749" lon="1.61989">
        <ele>328.2</ele>
        <time>2022-09-03T09:57:16Z</time>
      </trkpt>
      <trkpt lat="43.03746" lon="1.61972">
        <ele>328.2</ele>
        <time>2022-09-03T09:57:20Z</time>
      </trkpt>
      <trkpt lat="43.0373" lon="1.61941">
        <ele>328.6</ele>
        <time>2022-09-03T09:57:28Z</time>
      </trkpt>
      <trkpt lat="43.03714" lon="1.61906">
        <ele>329.2</ele>
        <time>2022-09-03T09:57:36Z</time>
      </trkpt>
      <trkpt lat="43.03705" lon="1.61878">
        <ele>329.2</ele>
        <time>2022-09-03T09:57:42Z</time>
      </trkpt>
      <trkpt lat="43.037" lon="1.61859">
        <ele>329.4</ele>
        <time>2022-09-03T09:57:46Z</time>
      </trkpt>
      <trkpt lat="43.03688" lon="1.61824">
        <ele>329.2</ele>
        <time>2022-09-03T09:57:53Z</time>
      </trkpt>
      <trkpt lat="43.03675" lon="1.61779">
        <ele>329.4</ele>
        <time>2022-09-03T09:58:01Z</time>
      </trkpt>
      <trkpt lat="43.03667" lon="1.61753">
        <ele>330</ele>
        <time>2022-09-03T09:58:06Z</time>
      </trkpt>
      <trkpt lat="43.03665" lon="1.61743">
        <ele>330</ele>
        <time>2022-09-03T09:58:08Z</time>
      </trkpt>
      <trkpt lat="43.03655" lon="1.61711">
        <ele>330.8</ele>
        <time>2022-09-03T09:58:15Z</time>
      </trkpt>
      <trkpt lat="43.03642" lon="1.61698">
        <ele>331</ele>
        <time>2022-09-03T09:58:20Z</time>
      </trkpt>
      <trkpt lat="43.03639" lon="1.61696">
        <ele>331</ele>
        <time>2022-09-03T09:58:21Z</time>
      </trkpt>
      <trkpt lat="43.03632" lon="1.61687">
        <ele>331.4</ele>
        <time>2022-09-03T09:58:25Z</time>
      </trkpt>
      <trkpt lat="43.03622" lon="1.6166">
        <ele>331.6</ele>
        <time>2022-09-03T09:58:33Z</time>
      </trkpt>
      <trkpt lat="43.03619" lon="1.61631">
        <ele>331.4</ele>
        <time>2022-09-03T09:58:40Z</time>
      </trkpt>
      <trkpt lat="43.03619" lon="1.61599">
        <ele>331</ele>
        <time>2022-09-03T09:58:47Z</time>
      </trkpt>
      <trkpt lat="43.03615" lon="1.61568">
        <ele>330.4</ele>
        <time>2022-09-03T09:58:53Z</time>
      </trkpt>
      <trkpt lat="43.03606" lon="1.61548">
        <ele>330</ele>
        <time>2022-09-03T09:58:57Z</time>
      </trkpt>
      <trkpt lat="43.03605" lon="1.61543">
        <ele>330</ele>
        <time>2022-09-03T09:58:58Z</time>
      </trkpt>
      <trkpt lat="43.03603" lon="1.61537">
        <ele>330</ele>
        <time>2022-09-03T09:58:59Z</time>
      </trkpt>
      <trkpt lat="43.03602" lon="1.61526">
        <ele>330</ele>
        <time>2022-09-03T09:59:01Z</time>
      </trkpt>
      <trkpt lat="43.03601" lon="1.61516">
        <ele>330</ele>
        <time>2022-09-03T09:59:03Z</time>
      </trkpt>
      <trkpt lat="43.03593" lon="1.61487">
        <ele>330</ele>
        <time>2022-09-03T09:59:09Z</time>
      </trkpt>
      <trkpt lat="43.0358" lon="1.61457">
        <ele>330.2</ele>
        <time>2022-09-03T09:59:17Z</time>
      </trkpt>
      <trkpt lat="43.03564" lon="1.6142">
        <ele>330.8</ele>
        <time>2022-09-03T09:59:27Z</time>
      </trkpt>
      <trkpt lat="43.03563" lon="1.61417">
        <ele>331</ele>
        <time>2022-09-03T09:59:28Z</time>
      </trkpt>
      <trkpt lat="43.03555" lon="1.614">
        <ele>331.6</ele>
        <time>2022-09-03T09:59:33Z</time>
      </trkpt>
      <trkpt lat="43.0354" lon="1.61368">
        <ele>331.4</ele>
        <time>2022-09-03T09:59:42Z</time>
      </trkpt>
      <trkpt lat="43.03524" lon="1.61335">
        <ele>331.8</ele>
        <time>2022-09-03T09:59:50Z</time>
      </trkpt>
      <trkpt lat="43.03513" lon="1.61314">
        <ele>332</ele>
        <time>2022-09-03T09:59:55Z</time>
      </trkpt>
      <trkpt lat="43.03495" lon="1.61279">
        <ele>332.2</ele>
        <time>2022-09-03T10:00:03Z</time>
      </trkpt>
      <trkpt lat="43.0347" lon="1.61237">
        <ele>332.6</ele>
        <time>2022-09-03T10:00:12Z</time>
      </trkpt>
      <trkpt lat="43.03439" lon="1.61193">
        <ele>332.8</ele>
        <time>2022-09-03T10:00:22Z</time>
      </trkpt>
      <trkpt lat="43.03418" lon="1.61165">
        <ele>332.8</ele>
        <time>2022-09-03T10:00:29Z</time>
      </trkpt>
      <trkpt lat="43.03412" lon="1.61157">
        <ele>333</ele>
        <time>2022-09-03T10:00:31Z</time>
      </trkpt>
      <trkpt lat="43.03386" lon="1.61122">
        <ele>333.2</ele>
        <time>2022-09-03T10:00:39Z</time>
      </trkpt>
      <trkpt lat="43.03358" lon="1.61082">
        <ele>334</ele>
        <time>2022-09-03T10:00:48Z</time>
      </trkpt>
      <trkpt lat="43.03355" lon="1.61077">
        <ele>334</ele>
        <time>2022-09-03T10:00:49Z</time>
      </trkpt>
      <trkpt lat="43.03336" lon="1.61047">
        <ele>334.2</ele>
        <time>2022-09-03T10:00:56Z</time>
      </trkpt>
      <trkpt lat="43.0331" lon="1.61008">
        <ele>334.4</ele>
        <time>2022-09-03T10:01:05Z</time>
      </trkpt>
      <trkpt lat="43.03292" lon="1.60973">
        <ele>334.8</ele>
        <time>2022-09-03T10:01:13Z</time>
      </trkpt>
      <trkpt lat="43.03275" lon="1.60954">
        <ele>335.2</ele>
        <time>2022-09-03T10:01:19Z</time>
      </trkpt>
      <trkpt lat="43.03246" lon="1.60939">
        <ele>336.4</ele>
        <time>2022-09-03T10:01:27Z</time>
      </trkpt>
      <trkpt lat="43.03226" lon="1.60929">
        <ele>337.2</ele>
        <time>2022-09-03T10:01:33Z</time>
      </trkpt>
      <trkpt lat="43.03213" lon="1.60922">
        <ele>337.6</ele>
        <time>2022-09-03T10:01:37Z</time>
      </trkpt>
      <trkpt lat="43.03193" lon="1.60912">
        <ele>337.6</ele>
        <time>2022-09-03T10:01:43Z</time>
      </trkpt>
      <trkpt lat="43.03165" lon="1.60899">
        <ele>338</ele>
        <time>2022-09-03T10:01:51Z</time>
      </trkpt>
      <trkpt lat="43.03133" lon="1.60886">
        <ele>338.2</ele>
        <time>2022-09-03T10:01:59Z</time>
      </trkpt>
      <trkpt lat="43.03096" lon="1.60876">
        <ele>338.6</ele>
        <time>2022-09-03T10:02:08Z</time>
      </trkpt>
      <trkpt lat="43.03059" lon="1.60865">
        <ele>338.4</ele>
        <time>2022-09-03T10:02:17Z</time>
      </trkpt>
      <trkpt lat="43.03026" lon="1.60854">
        <ele>338.6</ele>
        <time>2022-09-03T10:02:25Z</time>
      </trkpt>
      <trkpt lat="43.03018" lon="1.60852">
        <ele>338.6</ele>
        <time>2022-09-03T10:02:27Z</time>
      </trkpt>
      <trkpt lat="43.03003" lon="1.60852">
        <ele>338.8</ele>
        <time>2022-09-03T10:02:31Z</time>
      </trkpt>
      <trkpt lat="43.02976" lon="1.60861">
        <ele>338.4</ele>
        <time>2022-09-03T10:02:38Z</time>
      </trkpt>
      <trkpt lat="43.02942" lon="1.60872">
        <ele>337.8</ele>
        <time>2022-09-03T10:02:47Z</time>
      </trkpt>
      <trkpt lat="43.02926" lon="1.60877">
        <ele>337.4</ele>
        <time>2022-09-03T10:02:51Z</time>
      </trkpt>
      <trkpt lat="43.02919" lon="1.60874">
        <ele>337.4</ele>
        <time>2022-09-03T10:02:53Z</time>
      </trkpt>
      <trkpt lat="43.02914" lon="1.6086">
        <ele>337</ele>
        <time>2022-09-03T10:02:56Z</time>
      </trkpt>
      <trkpt lat="43.02912" lon="1.60847">
        <ele>336.8</ele>
        <time>2022-09-03T10:02:58Z</time>
      </trkpt>
      <trkpt lat="43.02908" lon="1.60813">
        <ele>336.8</ele>
        <time>2022-09-03T10:03:03Z</time>
      </trkpt>
      <trkpt lat="43.02906" lon="1.60786">
        <ele>336.6</ele>
        <time>2022-09-03T10:03:07Z</time>
      </trkpt>
      <trkpt lat="43.02905" lon="1.60765">
        <ele>336.8</ele>
        <time>2022-09-03T10:03:10Z</time>
      </trkpt>
      <trkpt lat="43.02901" lon="1.60723">
        <ele>336.6</ele>
        <time>2022-09-03T10:03:17Z</time>
      </trkpt>
      <trkpt lat="43.02897" lon="1.60684">
        <ele>336.4</ele>
        <time>2022-09-03T10:03:23Z</time>
      </trkpt>
      <trkpt lat="43.02897" lon="1.60679">
        <ele>336.4</ele>
        <time>2022-09-03T10:03:24Z</time>
      </trkpt>
      <trkpt lat="43.02893" lon="1.60647">
        <ele>336.4</ele>
        <time>2022-09-03T10:03:30Z</time>
      </trkpt>
      <trkpt lat="43.02888" lon="1.6063">
        <ele>336.6</ele>
        <time>2022-09-03T10:03:33Z</time>
      </trkpt>
      <trkpt lat="43.02882" lon="1.60621">
        <ele>336.6</ele>
        <time>2022-09-03T10:03:35Z</time>
      </trkpt>
      <trkpt lat="43.02866" lon="1.60609">
        <ele>337</ele>
        <time>2022-09-03T10:03:39Z</time>
      </trkpt>
      <trkpt lat="43.02853" lon="1.60606">
        <ele>337.2</ele>
        <time>2022-09-03T10:03:42Z</time>
      </trkpt>
      <trkpt lat="43.02849" lon="1.60606">
        <ele>337.4</ele>
        <time>2022-09-03T10:03:43Z</time>
      </trkpt>
      <trkpt lat="43.02841" lon="1.60605">
        <ele>337.8</ele>
        <time>2022-09-03T10:03:45Z</time>
      </trkpt>
      <trkpt lat="43.02806" lon="1.60604">
        <ele>338.6</ele>
        <time>2022-09-03T10:03:54Z</time>
      </trkpt>
      <trkpt lat="43.02777" lon="1.60605">
        <ele>339.6</ele>
        <time>2022-09-03T10:04:02Z</time>
      </trkpt>
      <trkpt lat="43.02774" lon="1.60604">
        <ele>339.6</ele>
        <time>2022-09-03T10:04:03Z</time>
      </trkpt>
      <trkpt lat="43.0275" lon="1.60604">
        <ele>340.4</ele>
        <time>2022-09-03T10:04:10Z</time>
      </trkpt>
      <trkpt lat="43.0274" lon="1.60603">
        <ele>340.6</ele>
        <time>2022-09-03T10:04:13Z</time>
      </trkpt>
      <trkpt lat="43.02725" lon="1.60603">
        <ele>341.2</ele>
        <time>2022-09-03T10:04:18Z</time>
      </trkpt>
      <trkpt lat="43.02713" lon="1.60603">
        <ele>341.8</ele>
        <time>2022-09-03T10:04:22Z</time>
      </trkpt>
      <trkpt lat="43.02698" lon="1.606">
        <ele>342.6</ele>
        <time>2022-09-03T10:04:27Z</time>
      </trkpt>
      <trkpt lat="43.02689" lon="1.60598">
        <ele>342.8</ele>
        <time>2022-09-03T10:04:30Z</time>
      </trkpt>
      <trkpt lat="43.02674" lon="1.60592">
        <ele>343.4</ele>
        <time>2022-09-03T10:04:35Z</time>
      </trkpt>
      <trkpt lat="43.02666" lon="1.60587">
        <ele>343.8</ele>
        <time>2022-09-03T10:04:38Z</time>
      </trkpt>
      <trkpt lat="43.02652" lon="1.60577">
        <ele>344.4</ele>
        <time>2022-09-03T10:04:43Z</time>
      </trkpt>
      <trkpt lat="43.02641" lon="1.60564">
        <ele>344.8</ele>
        <time>2022-09-03T10:04:48Z</time>
      </trkpt>
      <trkpt lat="43.02633" lon="1.60552">
        <ele>345.6</ele>
        <time>2022-09-03T10:04:52Z</time>
      </trkpt>
      <trkpt lat="43.02628" lon="1.60543">
        <ele>346</ele>
        <time>2022-09-03T10:04:55Z</time>
      </trkpt>
      <trkpt lat="43.0262" lon="1.60527">
        <ele>346.8</ele>
        <time>2022-09-03T10:05:00Z</time>
      </trkpt>
      <trkpt lat="43.02618" lon="1.60524">
        <ele>347</ele>
        <time>2022-09-03T10:05:01Z</time>
      </trkpt>
      <trkpt lat="43.02607" lon="1.60509">
        <ele>347.4</ele>
        <time>2022-09-03T10:05:07Z</time>
      </trkpt>
      <trkpt lat="43.02597" lon="1.60497">
        <ele>348</ele>
        <time>2022-09-03T10:05:12Z</time>
      </trkpt>
      <trkpt lat="43.02595" lon="1.60495">
        <ele>348.2</ele>
        <time>2022-09-03T10:05:13Z</time>
      </trkpt>
      <trkpt lat="43.02581" lon="1.60496">
        <ele>348</ele>
        <time>2022-09-03T10:05:17Z</time>
      </trkpt>
      <trkpt lat="43.02564" lon="1.60506">
        <ele>347</ele>
        <time>2022-09-03T10:05:20Z</time>
      </trkpt>
      <trkpt lat="43.02556" lon="1.60511">
        <ele>346.4</ele>
        <time>2022-09-03T10:05:21Z</time>
      </trkpt>
      <trkpt lat="43.02539" lon="1.60519">
        <ele>344.8</ele>
        <time>2022-09-03T10:05:23Z</time>
      </trkpt>
      <trkpt lat="43.0253" lon="1.60523">
        <ele>344</ele>
        <time>2022-09-03T10:05:24Z</time>
      </trkpt>
      <trkpt lat="43.02522" lon="1.60527">
        <ele>343.6</ele>
        <time>2022-09-03T10:05:25Z</time>
      </trkpt>
      <trkpt lat="43.02497" lon="1.6054">
        <ele>342.6</ele>
        <time>2022-09-03T10:05:28Z</time>
      </trkpt>
      <trkpt lat="43.02473" lon="1.60554">
        <ele>342</ele>
        <time>2022-09-03T10:05:31Z</time>
      </trkpt>
      <trkpt lat="43.0246" lon="1.60567">
        <ele>341.4</ele>
        <time>2022-09-03T10:05:33Z</time>
      </trkpt>
      <trkpt lat="43.02448" lon="1.60581">
        <ele>341.2</ele>
        <time>2022-09-03T10:05:35Z</time>
      </trkpt>
      <trkpt lat="43.02424" lon="1.60609">
        <ele>340.8</ele>
        <time>2022-09-03T10:05:40Z</time>
      </trkpt>
      <trkpt lat="43.02403" lon="1.6063">
        <ele>341</ele>
        <time>2022-09-03T10:05:46Z</time>
      </trkpt>
      <trkpt lat="43.02388" lon="1.60633">
        <ele>341.6</ele>
        <time>2022-09-03T10:05:50Z</time>
      </trkpt>
      <trkpt lat="43.02365" lon="1.60624">
        <ele>342.4</ele>
        <time>2022-09-03T10:05:56Z</time>
      </trkpt>
      <trkpt lat="43.02361" lon="1.60622">
        <ele>342.6</ele>
        <time>2022-09-03T10:05:57Z</time>
      </trkpt>
      <trkpt lat="43.02336" lon="1.60609">
        <ele>343.2</ele>
        <time>2022-09-03T10:06:04Z</time>
      </trkpt>
      <trkpt lat="43.02308" lon="1.60597">
        <ele>343.6</ele>
        <time>2022-09-03T10:06:12Z</time>
      </trkpt>
      <trkpt lat="43.02293" lon="1.6059">
        <ele>343.6</ele>
        <time>2022-09-03T10:06:16Z</time>
      </trkpt>
      <trkpt lat="43.02285" lon="1.60586">
        <ele>343.6</ele>
        <time>2022-09-03T10:06:18Z</time>
      </trkpt>
      <trkpt lat="43.0227" lon="1.60577">
        <ele>343.8</ele>
        <time>2022-09-03T10:06:22Z</time>
      </trkpt>
      <trkpt lat="43.02249" lon="1.60566">
        <ele>343.8</ele>
        <time>2022-09-03T10:06:28Z</time>
      </trkpt>
      <trkpt lat="43.02223" lon="1.60548">
        <ele>343.8</ele>
        <time>2022-09-03T10:06:36Z</time>
      </trkpt>
      <trkpt lat="43.02197" lon="1.6053">
        <ele>343.6</ele>
        <time>2022-09-03T10:06:44Z</time>
      </trkpt>
      <trkpt lat="43.02173" lon="1.60522">
        <ele>344.2</ele>
        <time>2022-09-03T10:06:50Z</time>
      </trkpt>
      <trkpt lat="43.02144" lon="1.60517">
        <ele>344.4</ele>
        <time>2022-09-03T10:06:57Z</time>
      </trkpt>
      <trkpt lat="43.02111" lon="1.60513">
        <ele>344.8</ele>
        <time>2022-09-03T10:07:05Z</time>
      </trkpt>
      <trkpt lat="43.02107" lon="1.60513">
        <ele>344.8</ele>
        <time>2022-09-03T10:07:06Z</time>
      </trkpt>
      <trkpt lat="43.02085" lon="1.60512">
        <ele>345</ele>
        <time>2022-09-03T10:07:12Z</time>
      </trkpt>
      <trkpt lat="43.02062" lon="1.6051">
        <ele>345</ele>
        <time>2022-09-03T10:07:18Z</time>
      </trkpt>
      <trkpt lat="43.02032" lon="1.60508">
        <ele>345.4</ele>
        <time>2022-09-03T10:07:25Z</time>
      </trkpt>
      <trkpt lat="43.02028" lon="1.60507">
        <ele>345.6</ele>
        <time>2022-09-03T10:07:26Z</time>
      </trkpt>
      <trkpt lat="43.02012" lon="1.60505">
        <ele>346</ele>
        <time>2022-09-03T10:07:30Z</time>
      </trkpt>
      <trkpt lat="43.01999" lon="1.60504">
        <ele>345.8</ele>
        <time>2022-09-03T10:07:33Z</time>
      </trkpt>
      <trkpt lat="43.01965" lon="1.60501">
        <ele>345.6</ele>
        <time>2022-09-03T10:07:41Z</time>
      </trkpt>
      <trkpt lat="43.01957" lon="1.605">
        <ele>345.6</ele>
        <time>2022-09-03T10:07:43Z</time>
      </trkpt>
      <trkpt lat="43.01944" lon="1.60499">
        <ele>345.6</ele>
        <time>2022-09-03T10:07:46Z</time>
      </trkpt>
      <trkpt lat="43.0194" lon="1.60499">
        <ele>345.6</ele>
        <time>2022-09-03T10:07:47Z</time>
      </trkpt>
      <trkpt lat="43.01924" lon="1.60497">
        <ele>345.8</ele>
        <time>2022-09-03T10:07:51Z</time>
      </trkpt>
      <trkpt lat="43.01917" lon="1.60491">
        <ele>345.8</ele>
        <time>2022-09-03T10:07:53Z</time>
      </trkpt>
      <trkpt lat="43.01905" lon="1.60482">
        <ele>345.8</ele>
        <time>2022-09-03T10:07:56Z</time>
      </trkpt>
      <trkpt lat="43.01888" lon="1.60476">
        <ele>345.8</ele>
        <time>2022-09-03T10:08:00Z</time>
      </trkpt>
      <trkpt lat="43.01861" lon="1.60478">
        <ele>345.6</ele>
        <time>2022-09-03T10:08:06Z</time>
      </trkpt>
      <trkpt lat="43.01857" lon="1.6048">
        <ele>345.6</ele>
        <time>2022-09-03T10:08:07Z</time>
      </trkpt>
      <trkpt lat="43.01847" lon="1.60492">
        <ele>345.6</ele>
        <time>2022-09-03T10:08:10Z</time>
      </trkpt>
      <trkpt lat="43.01843" lon="1.60496">
        <ele>345.6</ele>
        <time>2022-09-03T10:08:11Z</time>
      </trkpt>
      <trkpt lat="43.01823" lon="1.60507">
        <ele>345.8</ele>
        <time>2022-09-03T10:08:16Z</time>
      </trkpt>
      <trkpt lat="43.01806" lon="1.60512">
        <ele>346</ele>
        <time>2022-09-03T10:08:20Z</time>
      </trkpt>
      <trkpt lat="43.01793" lon="1.60516">
        <ele>346.2</ele>
        <time>2022-09-03T10:08:23Z</time>
      </trkpt>
      <trkpt lat="43.01775" lon="1.60535">
        <ele>346</ele>
        <time>2022-09-03T10:08:29Z</time>
      </trkpt>
      <trkpt lat="43.01759" lon="1.60546">
        <ele>346.4</ele>
        <time>2022-09-03T10:08:34Z</time>
      </trkpt>
      <trkpt lat="43.01756" lon="1.60546">
        <ele>346.4</ele>
        <time>2022-09-03T10:08:35Z</time>
      </trkpt>
      <trkpt lat="43.01742" lon="1.60537">
        <ele>346.4</ele>
        <time>2022-09-03T10:08:39Z</time>
      </trkpt>
      <trkpt lat="43.01709" lon="1.60526">
        <ele>346.2</ele>
        <time>2022-09-03T10:08:47Z</time>
      </trkpt>
      <trkpt lat="43.01695" lon="1.60518">
        <ele>345.8</ele>
        <time>2022-09-03T10:08:51Z</time>
      </trkpt>
      <trkpt lat="43.01694" lon="1.60514">
        <ele>345.8</ele>
        <time>2022-09-03T10:08:52Z</time>
      </trkpt>
      <trkpt lat="43.01697" lon="1.60501">
        <ele>345.6</ele>
        <time>2022-09-03T10:08:55Z</time>
      </trkpt>
      <trkpt lat="43.01701" lon="1.60493">
        <ele>345.6</ele>
        <time>2022-09-03T10:08:57Z</time>
      </trkpt>
      <trkpt lat="43.0171" lon="1.60479">
        <ele>345.4</ele>
        <time>2022-09-03T10:09:01Z</time>
      </trkpt>
      <trkpt lat="43.01713" lon="1.60475">
        <ele>345.2</ele>
        <time>2022-09-03T10:09:03Z</time>
      </trkpt>
      <trkpt lat="43.01712" lon="1.60473">
        <ele>345</ele>
        <time>2022-09-03T10:09:05Z</time>
      </trkpt>
      <trkpt lat="43.01707" lon="1.60481">
        <ele>345.2</ele>
        <time>2022-09-03T10:09:09Z</time>
      </trkpt>
      <trkpt lat="43.01706" lon="1.60484">
        <ele>345.4</ele>
        <time>2022-09-03T10:09:10Z</time>
      </trkpt>
      <trkpt lat="43.01696" lon="1.60507">
        <ele>345.8</ele>
        <time>2022-09-03T10:09:17Z</time>
      </trkpt>
      <trkpt lat="43.01684" lon="1.60533">
        <ele>345.6</ele>
        <time>2022-09-03T10:09:25Z</time>
      </trkpt>
      <trkpt lat="43.01677" lon="1.6054">
        <ele>345.6</ele>
        <time>2022-09-03T10:09:29Z</time>
      </trkpt>
      <trkpt lat="43.01676" lon="1.6054">
        <ele>345.6</ele>
        <time>2022-09-03T10:09:30Z</time>
      </trkpt>
      <trkpt lat="43.0167" lon="1.60534">
        <ele>345.6</ele>
        <time>2022-09-03T10:09:33Z</time>
      </trkpt>
      <trkpt lat="43.01668" lon="1.60532">
        <ele>345.6</ele>
        <time>2022-09-03T10:09:34Z</time>
      </trkpt>
      <trkpt lat="43.01657" lon="1.60514">
        <ele>346</ele>
        <time>2022-09-03T10:09:40Z</time>
      </trkpt>
      <trkpt lat="43.01648" lon="1.60501">
        <ele>346.4</ele>
        <time>2022-09-03T10:09:46Z</time>
      </trkpt>
      <trkpt lat="43.0164" lon="1.6049">
        <ele>347</ele>
        <time>2022-09-03T10:09:52Z</time>
      </trkpt>
      <trkpt lat="43.01633" lon="1.60478">
        <ele>347.4</ele>
        <time>2022-09-03T10:09:58Z</time>
      </trkpt>
      <trkpt lat="43.01577" lon="1.60469">
        <ele>356.4</ele>
        <time>2022-09-03T10:10:44Z</time>
      </trkpt>
      <trkpt lat="43.01576" lon="1.6047">
        <ele>356.6</ele>
        <time>2022-09-03T10:10:45Z</time>
      </trkpt>
      <trkpt lat="43.01568" lon="1.60467">
        <ele>357.4</ele>
        <time>2022-09-03T10:11:52Z</time>
      </trkpt>
      <trkpt lat="43.01568" lon="1.60461">
        <ele>357.6</ele>
        <time>2022-09-03T10:11:54Z</time>
      </trkpt>
      <trkpt lat="43.01561" lon="1.60447">
        <ele>357.6</ele>
        <time>2022-09-03T10:11:59Z</time>
      </trkpt>
      <trkpt lat="43.01546" lon="1.60432">
        <ele>357.8</ele>
        <time>2022-09-03T10:12:06Z</time>
      </trkpt>
      <trkpt lat="43.01529" lon="1.60415">
        <ele>357.8</ele>
        <time>2022-09-03T10:12:14Z</time>
      </trkpt>
      <trkpt lat="43.01515" lon="1.60411">
        <ele>358.2</ele>
        <time>2022-09-03T10:12:19Z</time>
      </trkpt>
      <trkpt lat="43.01503" lon="1.60422">
        <ele>358.4</ele>
        <time>2022-09-03T10:12:24Z</time>
      </trkpt>
      <trkpt lat="43.01498" lon="1.60428">
        <ele>358.8</ele>
        <time>2022-09-03T10:12:26Z</time>
      </trkpt>
      <trkpt lat="43.01489" lon="1.6044">
        <ele>359</ele>
        <time>2022-09-03T10:12:30Z</time>
      </trkpt>
      <trkpt lat="43.01473" lon="1.60465">
        <ele>359.8</ele>
        <time>2022-09-03T10:12:38Z</time>
      </trkpt>
      <trkpt lat="43.01458" lon="1.6049">
        <ele>359.8</ele>
        <time>2022-09-03T10:12:46Z</time>
      </trkpt>
      <trkpt lat="43.0144" lon="1.60504">
        <ele>360.2</ele>
        <time>2022-09-03T10:12:53Z</time>
      </trkpt>
      <trkpt lat="43.01423" lon="1.60515">
        <ele>360.8</ele>
        <time>2022-09-03T10:12:59Z</time>
      </trkpt>
      <trkpt lat="43.01421" lon="1.60517">
        <ele>361</ele>
        <time>2022-09-03T10:13:00Z</time>
      </trkpt>
      <trkpt lat="43.01412" lon="1.60527">
        <ele>362</ele>
        <time>2022-09-03T10:13:04Z</time>
      </trkpt>
      <trkpt lat="43.01409" lon="1.60532">
        <ele>362.4</ele>
        <time>2022-09-03T10:13:06Z</time>
      </trkpt>
      <trkpt lat="43.01403" lon="1.60543">
        <ele>363</ele>
        <time>2022-09-03T10:13:10Z</time>
      </trkpt>
      <trkpt lat="43.01401" lon="1.60547">
        <ele>363.4</ele>
        <time>2022-09-03T10:13:12Z</time>
      </trkpt>
      <trkpt lat="43.01395" lon="1.60564">
        <ele>363.2</ele>
        <time>2022-09-03T10:13:17Z</time>
      </trkpt>
      <trkpt lat="43.0139" lon="1.60574">
        <ele>362.8</ele>
        <time>2022-09-03T10:13:19Z</time>
      </trkpt>
      <trkpt lat="43.01382" lon="1.60586">
        <ele>362.2</ele>
        <time>2022-09-03T10:13:21Z</time>
      </trkpt>
      <trkpt lat="43.01378" lon="1.60592">
        <ele>361.4</ele>
        <time>2022-09-03T10:13:22Z</time>
      </trkpt>
      <trkpt lat="43.01373" lon="1.60597">
        <ele>360.8</ele>
        <time>2022-09-03T10:13:23Z</time>
      </trkpt>
      <trkpt lat="43.01368" lon="1.60603">
        <ele>360.2</ele>
        <time>2022-09-03T10:13:24Z</time>
      </trkpt>
      <trkpt lat="43.01356" lon="1.60616">
        <ele>359.2</ele>
        <time>2022-09-03T10:13:26Z</time>
      </trkpt>
      <trkpt lat="43.01346" lon="1.60629">
        <ele>357.8</ele>
        <time>2022-09-03T10:13:28Z</time>
      </trkpt>
      <trkpt lat="43.01337" lon="1.6064">
        <ele>356.6</ele>
        <time>2022-09-03T10:13:31Z</time>
      </trkpt>
      <trkpt lat="43.01333" lon="1.60645">
        <ele>356.2</ele>
        <time>2022-09-03T10:13:32Z</time>
      </trkpt>
      <trkpt lat="43.01329" lon="1.60651">
        <ele>355.8</ele>
        <time>2022-09-03T10:13:33Z</time>
      </trkpt>
      <trkpt lat="43.01327" lon="1.60656">
        <ele>355.2</ele>
        <time>2022-09-03T10:13:34Z</time>
      </trkpt>
      <trkpt lat="43.01324" lon="1.60667">
        <ele>355</ele>
        <time>2022-09-03T10:13:36Z</time>
      </trkpt>
      <trkpt lat="43.01323" lon="1.60679">
        <ele>355.2</ele>
        <time>2022-09-03T10:13:38Z</time>
      </trkpt>
      <trkpt lat="43.01318" lon="1.60697">
        <ele>354.2</ele>
        <time>2022-09-03T10:13:41Z</time>
      </trkpt>
      <trkpt lat="43.01308" lon="1.60716">
        <ele>352.8</ele>
        <time>2022-09-03T10:13:44Z</time>
      </trkpt>
      <trkpt lat="43.01301" lon="1.60729">
        <ele>351.8</ele>
        <time>2022-09-03T10:13:46Z</time>
      </trkpt>
      <trkpt lat="43.01296" lon="1.60742">
        <ele>350.6</ele>
        <time>2022-09-03T10:13:48Z</time>
      </trkpt>
      <trkpt lat="43.01294" lon="1.60748">
        <ele>350.2</ele>
        <time>2022-09-03T10:13:49Z</time>
      </trkpt>
      <trkpt lat="43.01293" lon="1.60753">
        <ele>349.6</ele>
        <time>2022-09-03T10:13:50Z</time>
      </trkpt>
      <trkpt lat="43.01292" lon="1.60758">
        <ele>349.2</ele>
        <time>2022-09-03T10:13:51Z</time>
      </trkpt>
      <trkpt lat="43.01291" lon="1.60769">
        <ele>348</ele>
        <time>2022-09-03T10:13:54Z</time>
      </trkpt>
      <trkpt lat="43.0129" lon="1.60771">
        <ele>347.6</ele>
        <time>2022-09-03T10:13:55Z</time>
      </trkpt>
      <trkpt lat="43.01288" lon="1.60773">
        <ele>347.2</ele>
        <time>2022-09-03T10:13:56Z</time>
      </trkpt>
      <trkpt lat="43.01284" lon="1.60777">
        <ele>346.8</ele>
        <time>2022-09-03T10:13:58Z</time>
      </trkpt>
      <trkpt lat="43.01281" lon="1.60779">
        <ele>346.8</ele>
        <time>2022-09-03T10:13:59Z</time>
      </trkpt>
      <trkpt lat="43.01262" lon="1.60784">
        <ele>346.8</ele>
        <time>2022-09-03T10:14:05Z</time>
      </trkpt>
      <trkpt lat="43.01246" lon="1.60783">
        <ele>347.2</ele>
        <time>2022-09-03T10:14:10Z</time>
      </trkpt>
      <trkpt lat="43.0124" lon="1.60783">
        <ele>347.2</ele>
        <time>2022-09-03T10:14:12Z</time>
      </trkpt>
      <trkpt lat="43.01217" lon="1.60784">
        <ele>347</ele>
        <time>2022-09-03T10:14:20Z</time>
      </trkpt>
      <trkpt lat="43.01193" lon="1.60785">
        <ele>347.2</ele>
        <time>2022-09-03T10:14:28Z</time>
      </trkpt>
      <trkpt lat="43.01158" lon="1.60791">
        <ele>348</ele>
        <time>2022-09-03T10:14:38Z</time>
      </trkpt>
      <trkpt lat="43.01129" lon="1.60799">
        <ele>348.8</ele>
        <time>2022-09-03T10:14:46Z</time>
      </trkpt>
      <trkpt lat="43.01122" lon="1.60802">
        <ele>349.2</ele>
        <time>2022-09-03T10:14:48Z</time>
      </trkpt>
      <trkpt lat="43.01099" lon="1.60814">
        <ele>349.4</ele>
        <time>2022-09-03T10:14:54Z</time>
      </trkpt>
      <trkpt lat="43.01067" lon="1.60834">
        <ele>349.6</ele>
        <time>2022-09-03T10:15:03Z</time>
      </trkpt>
      <trkpt lat="43.01042" lon="1.60845">
        <ele>350.2</ele>
        <time>2022-09-03T10:15:10Z</time>
      </trkpt>
      <trkpt lat="43.01009" lon="1.60854">
        <ele>350.6</ele>
        <time>2022-09-03T10:15:19Z</time>
      </trkpt>
      <trkpt lat="43.00983" lon="1.6086">
        <ele>351.4</ele>
        <time>2022-09-03T10:15:25Z</time>
      </trkpt>
      <trkpt lat="43.00979" lon="1.60861">
        <ele>351.2</ele>
        <time>2022-09-03T10:15:26Z</time>
      </trkpt>
      <trkpt lat="43.00952" lon="1.60868">
        <ele>350.8</ele>
        <time>2022-09-03T10:15:32Z</time>
      </trkpt>
      <trkpt lat="43.00907" lon="1.60879">
        <ele>350.6</ele>
        <time>2022-09-03T10:15:41Z</time>
      </trkpt>
      <trkpt lat="43.00854" lon="1.60892">
        <ele>350.6</ele>
        <time>2022-09-03T10:15:51Z</time>
      </trkpt>
      <trkpt lat="43.00796" lon="1.60906">
        <ele>350.6</ele>
        <time>2022-09-03T10:16:02Z</time>
      </trkpt>
      <trkpt lat="43.00791" lon="1.60908">
        <ele>350.8</ele>
        <time>2022-09-03T10:16:03Z</time>
      </trkpt>
      <trkpt lat="43.00734" lon="1.60921">
        <ele>351</ele>
        <time>2022-09-03T10:16:14Z</time>
      </trkpt>
      <trkpt lat="43.00729" lon="1.60923">
        <ele>351.2</ele>
        <time>2022-09-03T10:16:15Z</time>
      </trkpt>
      <trkpt lat="43.00682" lon="1.60935">
        <ele>352.2</ele>
        <time>2022-09-03T10:16:24Z</time>
      </trkpt>
      <trkpt lat="43.00652" lon="1.60941">
        <ele>352.4</ele>
        <time>2022-09-03T10:16:30Z</time>
      </trkpt>
      <trkpt lat="43.00637" lon="1.60945">
        <ele>352.2</ele>
        <time>2022-09-03T10:16:33Z</time>
      </trkpt>
      <trkpt lat="43.00592" lon="1.60956">
        <ele>353.2</ele>
        <time>2022-09-03T10:16:42Z</time>
      </trkpt>
      <trkpt lat="43.00559" lon="1.60963">
        <ele>353.6</ele>
        <time>2022-09-03T10:16:49Z</time>
      </trkpt>
      <trkpt lat="43.00545" lon="1.60965">
        <ele>354</ele>
        <time>2022-09-03T10:16:52Z</time>
      </trkpt>
      <trkpt lat="43.00496" lon="1.60972">
        <ele>354</ele>
        <time>2022-09-03T10:17:03Z</time>
      </trkpt>
      <trkpt lat="43.00475" lon="1.60975">
        <ele>354.6</ele>
        <time>2022-09-03T10:17:08Z</time>
      </trkpt>
      <trkpt lat="43.00462" lon="1.60976">
        <ele>354.6</ele>
        <time>2022-09-03T10:17:11Z</time>
      </trkpt>
      <trkpt lat="43.00416" lon="1.60982">
        <ele>355.2</ele>
        <time>2022-09-03T10:17:22Z</time>
      </trkpt>
      <trkpt lat="43.00371" lon="1.60991">
        <ele>355.4</ele>
        <time>2022-09-03T10:17:33Z</time>
      </trkpt>
      <trkpt lat="43.00333" lon="1.60996">
        <ele>355</ele>
        <time>2022-09-03T10:17:41Z</time>
      </trkpt>
      <trkpt lat="43.00287" lon="1.60999">
        <ele>355.2</ele>
        <time>2022-09-03T10:17:50Z</time>
      </trkpt>
      <trkpt lat="43.00257" lon="1.60991">
        <ele>355.8</ele>
        <time>2022-09-03T10:17:56Z</time>
      </trkpt>
      <trkpt lat="43.00247" lon="1.60988">
        <ele>355.8</ele>
        <time>2022-09-03T10:17:58Z</time>
      </trkpt>
      <trkpt lat="43.00204" lon="1.6098">
        <ele>356.4</ele>
        <time>2022-09-03T10:18:07Z</time>
      </trkpt>
      <trkpt lat="43.0019" lon="1.6098">
        <ele>356.8</ele>
        <time>2022-09-03T10:18:10Z</time>
      </trkpt>
      <trkpt lat="43.00177" lon="1.60983">
        <ele>357</ele>
        <time>2022-09-03T10:18:13Z</time>
      </trkpt>
      <trkpt lat="43.00173" lon="1.60984">
        <ele>357</ele>
        <time>2022-09-03T10:18:14Z</time>
      </trkpt>
      <trkpt lat="43.00145" lon="1.60998">
        <ele>357.4</ele>
        <time>2022-09-03T10:18:21Z</time>
      </trkpt>
      <trkpt lat="43.00128" lon="1.61005">
        <ele>357.8</ele>
        <time>2022-09-03T10:18:25Z</time>
      </trkpt>
      <trkpt lat="43.00116" lon="1.6101">
        <ele>357.8</ele>
        <time>2022-09-03T10:18:28Z</time>
      </trkpt>
      <trkpt lat="43.00081" lon="1.61018">
        <ele>358.8</ele>
        <time>2022-09-03T10:18:37Z</time>
      </trkpt>
      <trkpt lat="43.00077" lon="1.61018">
        <ele>359</ele>
        <time>2022-09-03T10:18:38Z</time>
      </trkpt>
      <trkpt lat="43.00058" lon="1.61015">
        <ele>360</ele>
        <time>2022-09-03T10:18:43Z</time>
      </trkpt>
      <trkpt lat="43.00048" lon="1.61012">
        <ele>360.6</ele>
        <time>2022-09-03T10:18:46Z</time>
      </trkpt>
      <trkpt lat="43.0003" lon="1.61005">
        <ele>361.2</ele>
        <time>2022-09-03T10:18:51Z</time>
      </trkpt>
      <trkpt lat="43.00027" lon="1.61003">
        <ele>361.2</ele>
        <time>2022-09-03T10:18:52Z</time>
      </trkpt>
      <trkpt lat="43.00002" lon="1.6099">
        <ele>362.2</ele>
        <time>2022-09-03T10:18:59Z</time>
      </trkpt>
      <trkpt lat="42.99999" lon="1.60989">
        <ele>362.2</ele>
        <time>2022-09-03T10:19:00Z</time>
      </trkpt>
      <trkpt lat="42.99972" lon="1.6097">
        <ele>363.2</ele>
        <time>2022-09-03T10:19:08Z</time>
      </trkpt>
      <trkpt lat="42.99968" lon="1.60968">
        <ele>363.2</ele>
        <time>2022-09-03T10:19:09Z</time>
      </trkpt>
      <trkpt lat="42.99944" lon="1.60952">
        <ele>364</ele>
        <time>2022-09-03T10:19:16Z</time>
      </trkpt>
      <trkpt lat="42.99936" lon="1.60949">
        <ele>364.2</ele>
        <time>2022-09-03T10:19:18Z</time>
      </trkpt>
      <trkpt lat="42.99909" lon="1.60944">
        <ele>364.6</ele>
        <time>2022-09-03T10:19:25Z</time>
      </trkpt>
      <trkpt lat="42.9987" lon="1.60945">
        <ele>365.4</ele>
        <time>2022-09-03T10:19:35Z</time>
      </trkpt>
      <trkpt lat="42.99863" lon="1.60945">
        <ele>365.6</ele>
        <time>2022-09-03T10:19:37Z</time>
      </trkpt>
      <trkpt lat="42.99835" lon="1.60943">
        <ele>366.6</ele>
        <time>2022-09-03T10:19:44Z</time>
      </trkpt>
      <trkpt lat="42.99831" lon="1.60942">
        <ele>366.8</ele>
        <time>2022-09-03T10:19:45Z</time>
      </trkpt>
      <trkpt lat="42.99812" lon="1.60933">
        <ele>367.4</ele>
        <time>2022-09-03T10:19:52Z</time>
      </trkpt>
      <trkpt lat="42.99808" lon="1.6093">
        <ele>367.6</ele>
        <time>2022-09-03T10:19:54Z</time>
      </trkpt>
      <trkpt lat="42.99799" lon="1.60925">
        <ele>368.4</ele>
        <time>2022-09-03T10:19:58Z</time>
      </trkpt>
      <trkpt lat="42.99796" lon="1.60922">
        <ele>368.6</ele>
        <time>2022-09-03T10:20:00Z</time>
      </trkpt>
      <trkpt lat="42.99788" lon="1.60915">
        <ele>369.8</ele>
        <time>2022-09-03T10:20:05Z</time>
      </trkpt>
      <trkpt lat="42.99786" lon="1.60913">
        <ele>369.8</ele>
        <time>2022-09-03T10:20:06Z</time>
      </trkpt>
      <trkpt lat="42.99776" lon="1.60905">
        <ele>370.8</ele>
        <time>2022-09-03T10:20:12Z</time>
      </trkpt>
      <trkpt lat="42.99773" lon="1.60902">
        <ele>371.2</ele>
        <time>2022-09-03T10:20:14Z</time>
      </trkpt>
      <trkpt lat="42.99767" lon="1.60897">
        <ele>371.8</ele>
        <time>2022-09-03T10:20:18Z</time>
      </trkpt>
      <trkpt lat="42.9976" lon="1.6089">
        <ele>372.8</ele>
        <time>2022-09-03T10:20:23Z</time>
      </trkpt>
      <trkpt lat="42.99758" lon="1.60889">
        <ele>372.8</ele>
        <time>2022-09-03T10:20:24Z</time>
      </trkpt>
      <trkpt lat="42.99751" lon="1.60883">
        <ele>374</ele>
        <time>2022-09-03T10:20:29Z</time>
      </trkpt>
      <trkpt lat="42.99748" lon="1.60881">
        <ele>374.4</ele>
        <time>2022-09-03T10:20:31Z</time>
      </trkpt>
      <trkpt lat="42.99741" lon="1.60877">
        <ele>375.2</ele>
        <time>2022-09-03T10:20:35Z</time>
      </trkpt>
      <trkpt lat="42.99732" lon="1.60873">
        <ele>376.2</ele>
        <time>2022-09-03T10:20:40Z</time>
      </trkpt>
      <trkpt lat="42.99723" lon="1.60868">
        <ele>377.2</ele>
        <time>2022-09-03T10:20:46Z</time>
      </trkpt>
      <trkpt lat="42.99721" lon="1.60867">
        <ele>377.4</ele>
        <time>2022-09-03T10:20:47Z</time>
      </trkpt>
      <trkpt lat="42.99715" lon="1.60863">
        <ele>378.4</ele>
        <time>2022-09-03T10:20:51Z</time>
      </trkpt>
      <trkpt lat="42.99709" lon="1.6086">
        <ele>379</ele>
        <time>2022-09-03T10:20:55Z</time>
      </trkpt>
      <trkpt lat="42.99706" lon="1.60858">
        <ele>379.4</ele>
        <time>2022-09-03T10:20:57Z</time>
      </trkpt>
      <trkpt lat="42.997" lon="1.60856">
        <ele>380</ele>
        <time>2022-09-03T10:21:01Z</time>
      </trkpt>
      <trkpt lat="42.99696" lon="1.60852">
        <ele>380.6</ele>
        <time>2022-09-03T10:21:04Z</time>
      </trkpt>
      <trkpt lat="42.99692" lon="1.60851">
        <ele>380.8</ele>
        <time>2022-09-03T10:21:06Z</time>
      </trkpt>
      <trkpt lat="42.99689" lon="1.60849">
        <ele>381.2</ele>
        <time>2022-09-03T10:21:08Z</time>
      </trkpt>
      <trkpt lat="42.99686" lon="1.60848">
        <ele>381.6</ele>
        <time>2022-09-03T10:21:10Z</time>
      </trkpt>
      <trkpt lat="42.99682" lon="1.60845">
        <ele>382</ele>
        <time>2022-09-03T10:21:13Z</time>
      </trkpt>
      <trkpt lat="42.99679" lon="1.60843">
        <ele>382.8</ele>
        <time>2022-09-03T10:21:15Z</time>
      </trkpt>
      <trkpt lat="42.99676" lon="1.60842">
        <ele>383.2</ele>
        <time>2022-09-03T10:21:17Z</time>
      </trkpt>
      <trkpt lat="42.99672" lon="1.60841">
        <ele>383.6</ele>
        <time>2022-09-03T10:21:19Z</time>
      </trkpt>
      <trkpt lat="42.99669" lon="1.6084">
        <ele>383.8</ele>
        <time>2022-09-03T10:21:21Z</time>
      </trkpt>
      <trkpt lat="42.99658" lon="1.60836">
        <ele>385</ele>
        <time>2022-09-03T10:21:27Z</time>
      </trkpt>
      <trkpt lat="42.99651" lon="1.60835">
        <ele>385.6</ele>
        <time>2022-09-03T10:21:31Z</time>
      </trkpt>
      <trkpt lat="42.99643" lon="1.60834">
        <ele>386</ele>
        <time>2022-09-03T10:21:35Z</time>
      </trkpt>
      <trkpt lat="42.99637" lon="1.60833">
        <ele>386.6</ele>
        <time>2022-09-03T10:21:39Z</time>
      </trkpt>
      <trkpt lat="42.99632" lon="1.60833">
        <ele>387</ele>
        <time>2022-09-03T10:21:42Z</time>
      </trkpt>
      <trkpt lat="42.99622" lon="1.60832">
        <ele>387.6</ele>
        <time>2022-09-03T10:21:47Z</time>
      </trkpt>
      <trkpt lat="42.99615" lon="1.60831">
        <ele>388</ele>
        <time>2022-09-03T10:21:51Z</time>
      </trkpt>
      <trkpt lat="42.99605" lon="1.60832">
        <ele>388.8</ele>
        <time>2022-09-03T10:21:56Z</time>
      </trkpt>
      <trkpt lat="42.99601" lon="1.60832">
        <ele>389.2</ele>
        <time>2022-09-03T10:21:58Z</time>
      </trkpt>
      <trkpt lat="42.99592" lon="1.60833">
        <ele>389.6</ele>
        <time>2022-09-03T10:22:02Z</time>
      </trkpt>
      <trkpt lat="42.99576" lon="1.60834">
        <ele>390.2</ele>
        <time>2022-09-03T10:22:09Z</time>
      </trkpt>
      <trkpt lat="42.99566" lon="1.60835">
        <ele>390.2</ele>
        <time>2022-09-03T10:22:13Z</time>
      </trkpt>
      <trkpt lat="42.99543" lon="1.60837">
        <ele>390.8</ele>
        <time>2022-09-03T10:22:22Z</time>
      </trkpt>
      <trkpt lat="42.99533" lon="1.60839">
        <ele>391.2</ele>
        <time>2022-09-03T10:22:26Z</time>
      </trkpt>
      <trkpt lat="42.99526" lon="1.60839">
        <ele>391.4</ele>
        <time>2022-09-03T10:22:29Z</time>
      </trkpt>
      <trkpt lat="42.99506" lon="1.60841">
        <ele>392</ele>
        <time>2022-09-03T10:22:37Z</time>
      </trkpt>
      <trkpt lat="42.99496" lon="1.60841">
        <ele>392</ele>
        <time>2022-09-03T10:22:42Z</time>
      </trkpt>
      <trkpt lat="42.99495" lon="1.60837">
        <ele>392</ele>
        <time>2022-09-03T10:22:44Z</time>
      </trkpt>
      <trkpt lat="42.99498" lon="1.60832">
        <ele>392.2</ele>
        <time>2022-09-03T10:22:48Z</time>
      </trkpt>
      <trkpt lat="42.99499" lon="1.60832">
        <ele>392</ele>
        <time>2022-09-03T10:22:49Z</time>
      </trkpt>
      <trkpt lat="42.99501" lon="1.60831">
        <ele>392.2</ele>
        <time>2022-09-03T10:22:53Z</time>
      </trkpt>
      <trkpt lat="42.99509" lon="1.60832">
        <ele>392.2</ele>
        <time>2022-09-03T10:25:26Z</time>
      </trkpt>
      <trkpt lat="42.99515" lon="1.60832">
        <ele>392.2</ele>
        <time>2022-09-03T10:25:28Z</time>
      </trkpt>
      <trkpt lat="42.99522" lon="1.60832">
        <ele>392.4</ele>
        <time>2022-09-03T10:25:30Z</time>
      </trkpt>
      <trkpt lat="42.99539" lon="1.60829">
        <ele>392.4</ele>
        <time>2022-09-03T10:25:35Z</time>
      </trkpt>
      <trkpt lat="42.99572" lon="1.60824">
        <ele>392.2</ele>
        <time>2022-09-03T10:25:44Z</time>
      </trkpt>
      <trkpt lat="42.99591" lon="1.60819">
        <ele>392.4</ele>
        <time>2022-09-03T10:25:49Z</time>
      </trkpt>
      <trkpt lat="42.99621" lon="1.60819">
        <ele>393</ele>
        <time>2022-09-03T10:25:57Z</time>
      </trkpt>
      <trkpt lat="42.99649" lon="1.60821">
        <ele>393</ele>
        <time>2022-09-03T10:26:05Z</time>
      </trkpt>
      <trkpt lat="42.99665" lon="1.60823">
        <ele>393.4</ele>
        <time>2022-09-03T10:26:10Z</time>
      </trkpt>
      <trkpt lat="42.99668" lon="1.60824">
        <ele>393.4</ele>
        <time>2022-09-03T10:26:11Z</time>
      </trkpt>
      <trkpt lat="42.99691" lon="1.60828">
        <ele>394.2</ele>
        <time>2022-09-03T10:26:18Z</time>
      </trkpt>
      <trkpt lat="42.99714" lon="1.60829">
        <ele>394.4</ele>
        <time>2022-09-03T10:26:25Z</time>
      </trkpt>
      <trkpt lat="42.99733" lon="1.60829">
        <ele>394.8</ele>
        <time>2022-09-03T10:26:31Z</time>
      </trkpt>
      <trkpt lat="42.99755" lon="1.60824">
        <ele>395</ele>
        <time>2022-09-03T10:26:38Z</time>
      </trkpt>
      <trkpt lat="42.99765" lon="1.60822">
        <ele>395.4</ele>
        <time>2022-09-03T10:26:41Z</time>
      </trkpt>
      <trkpt lat="42.99782" lon="1.60817">
        <ele>395.6</ele>
        <time>2022-09-03T10:26:46Z</time>
      </trkpt>
      <trkpt lat="42.99816" lon="1.60801">
        <ele>396</ele>
        <time>2022-09-03T10:26:56Z</time>
      </trkpt>
      <trkpt lat="42.99844" lon="1.60782">
        <ele>396.4</ele>
        <time>2022-09-03T10:27:05Z</time>
      </trkpt>
      <trkpt lat="42.99847" lon="1.6078">
        <ele>396.6</ele>
        <time>2022-09-03T10:27:06Z</time>
      </trkpt>
      <trkpt lat="42.99871" lon="1.60758">
        <ele>397.2</ele>
        <time>2022-09-03T10:27:14Z</time>
      </trkpt>
      <trkpt lat="42.99874" lon="1.60756">
        <ele>397.2</ele>
        <time>2022-09-03T10:27:15Z</time>
      </trkpt>
      <trkpt lat="42.99897" lon="1.6073">
        <ele>397.6</ele>
        <time>2022-09-03T10:27:23Z</time>
      </trkpt>
      <trkpt lat="42.99902" lon="1.60723">
        <ele>397.6</ele>
        <time>2022-09-03T10:27:25Z</time>
      </trkpt>
      <trkpt lat="42.99917" lon="1.60702">
        <ele>398</ele>
        <time>2022-09-03T10:27:31Z</time>
      </trkpt>
      <trkpt lat="42.99929" lon="1.60681">
        <ele>398.6</ele>
        <time>2022-09-03T10:27:37Z</time>
      </trkpt>
      <trkpt lat="42.99942" lon="1.60657">
        <ele>399</ele>
        <time>2022-09-03T10:27:43Z</time>
      </trkpt>
      <trkpt lat="42.99952" lon="1.60632">
        <ele>399.4</ele>
        <time>2022-09-03T10:27:49Z</time>
      </trkpt>
      <trkpt lat="42.99957" lon="1.60611">
        <ele>399.8</ele>
        <time>2022-09-03T10:27:54Z</time>
      </trkpt>
      <trkpt lat="42.99958" lon="1.60606">
        <ele>399.6</ele>
        <time>2022-09-03T10:27:55Z</time>
      </trkpt>
      <trkpt lat="42.99963" lon="1.60578">
        <ele>400</ele>
        <time>2022-09-03T10:28:01Z</time>
      </trkpt>
      <trkpt lat="42.99967" lon="1.60552">
        <ele>400.2</ele>
        <time>2022-09-03T10:28:07Z</time>
      </trkpt>
      <trkpt lat="42.99971" lon="1.60525">
        <ele>400.4</ele>
        <time>2022-09-03T10:28:13Z</time>
      </trkpt>
      <trkpt lat="42.99974" lon="1.60502">
        <ele>400.8</ele>
        <time>2022-09-03T10:28:18Z</time>
      </trkpt>
      <trkpt lat="42.99975" lon="1.60486">
        <ele>401</ele>
        <time>2022-09-03T10:28:21Z</time>
      </trkpt>
      <trkpt lat="42.99975" lon="1.6046">
        <ele>401</ele>
        <time>2022-09-03T10:28:26Z</time>
      </trkpt>
      <trkpt lat="42.99975" lon="1.60429">
        <ele>401.4</ele>
        <time>2022-09-03T10:28:33Z</time>
      </trkpt>
      <trkpt lat="42.99974" lon="1.60403">
        <ele>401.6</ele>
        <time>2022-09-03T10:28:40Z</time>
      </trkpt>
      <trkpt lat="42.99971" lon="1.60388">
        <ele>401.4</ele>
        <time>2022-09-03T10:28:46Z</time>
      </trkpt>
      <trkpt lat="42.99977" lon="1.6037">
        <ele>402</ele>
        <time>2022-09-03T10:33:08Z</time>
      </trkpt>
      <trkpt lat="42.99977" lon="1.60368">
        <ele>402</ele>
        <time>2022-09-03T10:33:09Z</time>
      </trkpt>
      <trkpt lat="42.99975" lon="1.60351">
        <ele>402.4</ele>
        <time>2022-09-03T10:33:15Z</time>
      </trkpt>
      <trkpt lat="42.99973" lon="1.60331">
        <ele>402.8</ele>
        <time>2022-09-03T10:33:21Z</time>
      </trkpt>
      <trkpt lat="42.99974" lon="1.60313">
        <ele>403</ele>
        <time>2022-09-03T10:33:25Z</time>
      </trkpt>
      <trkpt lat="42.99974" lon="1.60305">
        <ele>403.2</ele>
        <time>2022-09-03T10:33:27Z</time>
      </trkpt>
      <trkpt lat="42.99971" lon="1.60276">
        <ele>403.6</ele>
        <time>2022-09-03T10:33:34Z</time>
      </trkpt>
      <trkpt lat="42.9997" lon="1.60256">
        <ele>404</ele>
        <time>2022-09-03T10:33:38Z</time>
      </trkpt>
      <trkpt lat="42.9997" lon="1.60251">
        <ele>404.2</ele>
        <time>2022-09-03T10:33:39Z</time>
      </trkpt>
      <trkpt lat="42.99969" lon="1.60235">
        <ele>404.4</ele>
        <time>2022-09-03T10:33:43Z</time>
      </trkpt>
      <trkpt lat="42.99971" lon="1.60209">
        <ele>404.6</ele>
        <time>2022-09-03T10:33:49Z</time>
      </trkpt>
      <trkpt lat="42.99975" lon="1.6019">
        <ele>405</ele>
        <time>2022-09-03T10:33:54Z</time>
      </trkpt>
      <trkpt lat="42.99977" lon="1.60181">
        <ele>405.2</ele>
        <time>2022-09-03T10:33:56Z</time>
      </trkpt>
      <trkpt lat="42.99983" lon="1.6016">
        <ele>405.4</ele>
        <time>2022-09-03T10:34:00Z</time>
      </trkpt>
      <trkpt lat="42.99997" lon="1.60121">
        <ele>406</ele>
        <time>2022-09-03T10:34:07Z</time>
      </trkpt>
      <trkpt lat="43.00002" lon="1.60107">
        <ele>406.2</ele>
        <time>2022-09-03T10:34:10Z</time>
      </trkpt>
      <trkpt lat="43.0001" lon="1.60084">
        <ele>406.6</ele>
        <time>2022-09-03T10:34:15Z</time>
      </trkpt>
      <trkpt lat="43.0002" lon="1.60054">
        <ele>407.2</ele>
        <time>2022-09-03T10:34:22Z</time>
      </trkpt>
      <trkpt lat="43.00021" lon="1.6005">
        <ele>407.4</ele>
        <time>2022-09-03T10:34:23Z</time>
      </trkpt>
      <trkpt lat="43.00029" lon="1.60027">
        <ele>407.8</ele>
        <time>2022-09-03T10:34:28Z</time>
      </trkpt>
      <trkpt lat="43.00041" lon="1.59998">
        <ele>408.2</ele>
        <time>2022-09-03T10:34:35Z</time>
      </trkpt>
      <trkpt lat="43.00048" lon="1.59981">
        <ele>408.4</ele>
        <time>2022-09-03T10:34:39Z</time>
      </trkpt>
      <trkpt lat="43.00053" lon="1.59965">
        <ele>408.6</ele>
        <time>2022-09-03T10:34:43Z</time>
      </trkpt>
      <trkpt lat="43.0006" lon="1.59946">
        <ele>408.8</ele>
        <time>2022-09-03T10:34:48Z</time>
      </trkpt>
      <trkpt lat="43.00066" lon="1.59935">
        <ele>409.2</ele>
        <time>2022-09-03T10:34:51Z</time>
      </trkpt>
      <trkpt lat="43.00077" lon="1.59921">
        <ele>409.4</ele>
        <time>2022-09-03T10:34:56Z</time>
      </trkpt>
      <trkpt lat="43.00078" lon="1.59916">
        <ele>409.6</ele>
        <time>2022-09-03T10:34:57Z</time>
      </trkpt>
      <trkpt lat="43.00084" lon="1.59892">
        <ele>409.8</ele>
        <time>2022-09-03T10:35:02Z</time>
      </trkpt>
      <trkpt lat="43.00093" lon="1.59866">
        <ele>410.4</ele>
        <time>2022-09-03T10:35:08Z</time>
      </trkpt>
      <trkpt lat="43.00094" lon="1.59862">
        <ele>410.4</ele>
        <time>2022-09-03T10:35:09Z</time>
      </trkpt>
      <trkpt lat="43.00101" lon="1.59846">
        <ele>410.6</ele>
        <time>2022-09-03T10:35:13Z</time>
      </trkpt>
      <trkpt lat="43.00108" lon="1.59818">
        <ele>411</ele>
        <time>2022-09-03T10:35:19Z</time>
      </trkpt>
      <trkpt lat="43.00116" lon="1.59794">
        <ele>411.2</ele>
        <time>2022-09-03T10:35:25Z</time>
      </trkpt>
      <trkpt lat="43.0012" lon="1.59786">
        <ele>411.4</ele>
        <time>2022-09-03T10:35:27Z</time>
      </trkpt>
      <trkpt lat="43.00126" lon="1.59774">
        <ele>411.8</ele>
        <time>2022-09-03T10:35:30Z</time>
      </trkpt>
      <trkpt lat="43.00144" lon="1.59738">
        <ele>412.2</ele>
        <time>2022-09-03T10:35:39Z</time>
      </trkpt>
      <trkpt lat="43.00148" lon="1.59725">
        <ele>412.6</ele>
        <time>2022-09-03T10:35:42Z</time>
      </trkpt>
      <trkpt lat="43.00151" lon="1.59711">
        <ele>412.6</ele>
        <time>2022-09-03T10:35:45Z</time>
      </trkpt>
      <trkpt lat="43.0016" lon="1.59676">
        <ele>413</ele>
        <time>2022-09-03T10:35:52Z</time>
      </trkpt>
      <trkpt lat="43.00165" lon="1.5964">
        <ele>413.2</ele>
        <time>2022-09-03T10:35:59Z</time>
      </trkpt>
      <trkpt lat="43.00167" lon="1.59621">
        <ele>413.6</ele>
        <time>2022-09-03T10:36:03Z</time>
      </trkpt>
      <trkpt lat="43.00169" lon="1.59607">
        <ele>413.8</ele>
        <time>2022-09-03T10:36:06Z</time>
      </trkpt>
      <trkpt lat="43.00171" lon="1.59567">
        <ele>414.6</ele>
        <time>2022-09-03T10:36:14Z</time>
      </trkpt>
      <trkpt lat="43.00171" lon="1.59558">
        <ele>414.8</ele>
        <time>2022-09-03T10:36:16Z</time>
      </trkpt>
      <trkpt lat="43.00171" lon="1.59548">
        <ele>415</ele>
        <time>2022-09-03T10:36:18Z</time>
      </trkpt>
      <trkpt lat="43.00169" lon="1.59528">
        <ele>415.2</ele>
        <time>2022-09-03T10:36:22Z</time>
      </trkpt>
      <trkpt lat="43.00171" lon="1.59504">
        <ele>415.6</ele>
        <time>2022-09-03T10:36:28Z</time>
      </trkpt>
      <trkpt lat="43.00172" lon="1.59473">
        <ele>415.8</ele>
        <time>2022-09-03T10:36:35Z</time>
      </trkpt>
      <trkpt lat="43.00172" lon="1.59469">
        <ele>415.8</ele>
        <time>2022-09-03T10:36:36Z</time>
      </trkpt>
      <trkpt lat="43.00173" lon="1.59438">
        <ele>415.8</ele>
        <time>2022-09-03T10:36:43Z</time>
      </trkpt>
      <trkpt lat="43.00174" lon="1.59417">
        <ele>416.2</ele>
        <time>2022-09-03T10:36:50Z</time>
      </trkpt>
      <trkpt lat="43.00175" lon="1.59402">
        <ele>416.2</ele>
        <time>2022-09-03T10:36:57Z</time>
      </trkpt>
      <trkpt lat="43.00176" lon="1.59389">
        <ele>416.8</ele>
        <time>2022-09-03T10:38:07Z</time>
      </trkpt>
      <trkpt lat="43.00177" lon="1.59385">
        <ele>416.8</ele>
        <time>2022-09-03T10:38:08Z</time>
      </trkpt>
      <trkpt lat="43.00177" lon="1.5937">
        <ele>417</ele>
        <time>2022-09-03T10:38:11Z</time>
      </trkpt>
      <trkpt lat="43.00177" lon="1.59359">
        <ele>417.2</ele>
        <time>2022-09-03T10:38:14Z</time>
      </trkpt>
      <trkpt lat="43.00178" lon="1.59341">
        <ele>417.6</ele>
        <time>2022-09-03T10:38:20Z</time>
      </trkpt>
      <trkpt lat="43.00179" lon="1.59324">
        <ele>417.6</ele>
        <time>2022-09-03T10:38:25Z</time>
      </trkpt>
      <trkpt lat="43.00179" lon="1.59313">
        <ele>418</ele>
        <time>2022-09-03T10:38:28Z</time>
      </trkpt>
      <trkpt lat="43.00179" lon="1.59295">
        <ele>418.2</ele>
        <time>2022-09-03T10:38:31Z</time>
      </trkpt>
      <trkpt lat="43.00179" lon="1.59258">
        <ele>418.4</ele>
        <time>2022-09-03T10:38:38Z</time>
      </trkpt>
      <trkpt lat="43.0018" lon="1.59225">
        <ele>419</ele>
        <time>2022-09-03T10:38:45Z</time>
      </trkpt>
      <trkpt lat="43.0018" lon="1.5922">
        <ele>419</ele>
        <time>2022-09-03T10:38:46Z</time>
      </trkpt>
      <trkpt lat="43.0018" lon="1.59215">
        <ele>419</ele>
        <time>2022-09-03T10:38:47Z</time>
      </trkpt>
      <trkpt lat="43.00182" lon="1.59195">
        <ele>419.4</ele>
        <time>2022-09-03T10:38:52Z</time>
      </trkpt>
      <trkpt lat="43.00183" lon="1.5918">
        <ele>420</ele>
        <time>2022-09-03T10:38:56Z</time>
      </trkpt>
      <trkpt lat="43.00184" lon="1.59175">
        <ele>420</ele>
        <time>2022-09-03T10:38:57Z</time>
      </trkpt>
      <trkpt lat="43.00184" lon="1.5915">
        <ele>420.4</ele>
        <time>2022-09-03T10:39:03Z</time>
      </trkpt>
      <trkpt lat="43.00187" lon="1.59129">
        <ele>420.6</ele>
        <time>2022-09-03T10:39:08Z</time>
      </trkpt>
      <trkpt lat="43.0019" lon="1.59104">
        <ele>421</ele>
        <time>2022-09-03T10:39:14Z</time>
      </trkpt>
      <trkpt lat="43.00191" lon="1.59094">
        <ele>421</ele>
        <time>2022-09-03T10:39:16Z</time>
      </trkpt>
      <trkpt lat="43.00195" lon="1.59071">
        <ele>421.6</ele>
        <time>2022-09-03T10:39:21Z</time>
      </trkpt>
      <trkpt lat="43.002" lon="1.59036">
        <ele>421.6</ele>
        <time>2022-09-03T10:39:28Z</time>
      </trkpt>
      <trkpt lat="43.00207" lon="1.59006">
        <ele>422</ele>
        <time>2022-09-03T10:39:34Z</time>
      </trkpt>
      <trkpt lat="43.0021" lon="1.58989">
        <ele>422.2</ele>
        <time>2022-09-03T10:39:37Z</time>
      </trkpt>
      <trkpt lat="43.00214" lon="1.58972">
        <ele>422.6</ele>
        <time>2022-09-03T10:39:40Z</time>
      </trkpt>
      <trkpt lat="43.00219" lon="1.58946">
        <ele>422.8</ele>
        <time>2022-09-03T10:39:46Z</time>
      </trkpt>
      <trkpt lat="43.0022" lon="1.58944">
        <ele>423</ele>
        <time>2022-09-03T10:39:47Z</time>
      </trkpt>
      <trkpt lat="43.00223" lon="1.58934">
        <ele>423.2</ele>
        <time>2022-09-03T10:39:51Z</time>
      </trkpt>
      <trkpt lat="43.00224" lon="1.58928">
        <ele>423.4</ele>
        <time>2022-09-03T10:39:53Z</time>
      </trkpt>
      <trkpt lat="43.00227" lon="1.58909">
        <ele>423.6</ele>
        <time>2022-09-03T10:39:58Z</time>
      </trkpt>
      <trkpt lat="43.00229" lon="1.58887">
        <ele>424</ele>
        <time>2022-09-03T10:40:03Z</time>
      </trkpt>
      <trkpt lat="43.00231" lon="1.58854">
        <ele>424.2</ele>
        <time>2022-09-03T10:40:09Z</time>
      </trkpt>
      <trkpt lat="43.00232" lon="1.58841">
        <ele>424.4</ele>
        <time>2022-09-03T10:40:11Z</time>
      </trkpt>
      <trkpt lat="43.00234" lon="1.58812">
        <ele>425</ele>
        <time>2022-09-03T10:40:16Z</time>
      </trkpt>
      <trkpt lat="43.00235" lon="1.58785">
        <ele>425.4</ele>
        <time>2022-09-03T10:40:22Z</time>
      </trkpt>
      <trkpt lat="43.00236" lon="1.58781">
        <ele>425.4</ele>
        <time>2022-09-03T10:40:23Z</time>
      </trkpt>
      <trkpt lat="43.00235" lon="1.58759">
        <ele>425.8</ele>
        <time>2022-09-03T10:40:28Z</time>
      </trkpt>
      <trkpt lat="43.00237" lon="1.58745">
        <ele>426</ele>
        <time>2022-09-03T10:40:33Z</time>
      </trkpt>
      <trkpt lat="43.00239" lon="1.58728">
        <ele>426.6</ele>
        <time>2022-09-03T10:40:39Z</time>
      </trkpt>
      <trkpt lat="43.0024" lon="1.58711">
        <ele>426.4</ele>
        <time>2022-09-03T10:40:44Z</time>
      </trkpt>
      <trkpt lat="43.0024" lon="1.58709">
        <ele>426.6</ele>
        <time>2022-09-03T10:40:45Z</time>
      </trkpt>
      <trkpt lat="43.00233" lon="1.58672">
        <ele>426.4</ele>
        <time>2022-09-03T10:40:51Z</time>
      </trkpt>
      <trkpt lat="43.0023" lon="1.58638">
        <ele>426.2</ele>
        <time>2022-09-03T10:40:56Z</time>
      </trkpt>
      <trkpt lat="43.00221" lon="1.5859">
        <ele>426.4</ele>
        <time>2022-09-03T10:41:04Z</time>
      </trkpt>
      <trkpt lat="43.00218" lon="1.58566">
        <ele>427.6</ele>
        <time>2022-09-03T10:41:10Z</time>
      </trkpt>
      <trkpt lat="43.00218" lon="1.58563">
        <ele>427.8</ele>
        <time>2022-09-03T10:41:11Z</time>
      </trkpt>
      <trkpt lat="43.00215" lon="1.58543">
        <ele>428.6</ele>
        <time>2022-09-03T10:41:17Z</time>
      </trkpt>
      <trkpt lat="43.00214" lon="1.58531">
        <ele>428.8</ele>
        <time>2022-09-03T10:41:20Z</time>
      </trkpt>
      <trkpt lat="43.00211" lon="1.58514">
        <ele>428.8</ele>
        <time>2022-09-03T10:41:24Z</time>
      </trkpt>
      <trkpt lat="43.00202" lon="1.58487">
        <ele>429.2</ele>
        <time>2022-09-03T10:41:30Z</time>
      </trkpt>
      <trkpt lat="43.00199" lon="1.58478">
        <ele>429.4</ele>
        <time>2022-09-03T10:41:32Z</time>
      </trkpt>
      <trkpt lat="43.00191" lon="1.58449">
        <ele>429.6</ele>
        <time>2022-09-03T10:41:38Z</time>
      </trkpt>
      <trkpt lat="43.00187" lon="1.58437">
        <ele>429.8</ele>
        <time>2022-09-03T10:41:41Z</time>
      </trkpt>
      <trkpt lat="43.00184" lon="1.58423">
        <ele>430</ele>
        <time>2022-09-03T10:41:44Z</time>
      </trkpt>
      <trkpt lat="43.00173" lon="1.58388">
        <ele>430.2</ele>
        <time>2022-09-03T10:41:51Z</time>
      </trkpt>
      <trkpt lat="43.00168" lon="1.58361">
        <ele>430.6</ele>
        <time>2022-09-03T10:41:57Z</time>
      </trkpt>
      <trkpt lat="43.0016" lon="1.58327">
        <ele>430.8</ele>
        <time>2022-09-03T10:42:04Z</time>
      </trkpt>
      <trkpt lat="43.00159" lon="1.58322">
        <ele>431</ele>
        <time>2022-09-03T10:42:05Z</time>
      </trkpt>
      <trkpt lat="43.00154" lon="1.58294">
        <ele>431.2</ele>
        <time>2022-09-03T10:42:11Z</time>
      </trkpt>
      <trkpt lat="43.00151" lon="1.58259">
        <ele>431.8</ele>
        <time>2022-09-03T10:42:18Z</time>
      </trkpt>
      <trkpt lat="43.00151" lon="1.58254">
        <ele>432</ele>
        <time>2022-09-03T10:42:19Z</time>
      </trkpt>
      <trkpt lat="43.0015" lon="1.58211">
        <ele>432.4</ele>
        <time>2022-09-03T10:42:28Z</time>
      </trkpt>
      <trkpt lat="43.00151" lon="1.58184">
        <ele>433</ele>
        <time>2022-09-03T10:42:34Z</time>
      </trkpt>
      <trkpt lat="43.00152" lon="1.58154">
        <ele>433.2</ele>
        <time>2022-09-03T10:42:40Z</time>
      </trkpt>
      <trkpt lat="43.00155" lon="1.58121">
        <ele>433.6</ele>
        <time>2022-09-03T10:42:47Z</time>
      </trkpt>
      <trkpt lat="43.00163" lon="1.58092">
        <ele>434</ele>
        <time>2022-09-03T10:42:53Z</time>
      </trkpt>
      <trkpt lat="43.00164" lon="1.58087">
        <ele>434.2</ele>
        <time>2022-09-03T10:42:54Z</time>
      </trkpt>
      <trkpt lat="43.00171" lon="1.58061">
        <ele>434.4</ele>
        <time>2022-09-03T10:43:00Z</time>
      </trkpt>
      <trkpt lat="43.00176" lon="1.58036">
        <ele>435</ele>
        <time>2022-09-03T10:43:06Z</time>
      </trkpt>
      <trkpt lat="43.00178" lon="1.58031">
        <ele>435</ele>
        <time>2022-09-03T10:43:07Z</time>
      </trkpt>
      <trkpt lat="43.00183" lon="1.58004">
        <ele>434.6</ele>
        <time>2022-09-03T10:43:13Z</time>
      </trkpt>
      <trkpt lat="43.0019" lon="1.57976">
        <ele>435.2</ele>
        <time>2022-09-03T10:43:19Z</time>
      </trkpt>
      <trkpt lat="43.00196" lon="1.57943">
        <ele>435.4</ele>
        <time>2022-09-03T10:43:26Z</time>
      </trkpt>
      <trkpt lat="43.00201" lon="1.57915">
        <ele>436</ele>
        <time>2022-09-03T10:43:32Z</time>
      </trkpt>
      <trkpt lat="43.00202" lon="1.5791">
        <ele>436</ele>
        <time>2022-09-03T10:43:33Z</time>
      </trkpt>
      <trkpt lat="43.00207" lon="1.57875">
        <ele>436.6</ele>
        <time>2022-09-03T10:43:40Z</time>
      </trkpt>
      <trkpt lat="43.00207" lon="1.57847">
        <ele>436.8</ele>
        <time>2022-09-03T10:43:46Z</time>
      </trkpt>
      <trkpt lat="43.00208" lon="1.57818">
        <ele>437</ele>
        <time>2022-09-03T10:43:52Z</time>
      </trkpt>
      <trkpt lat="43.00207" lon="1.57808">
        <ele>437</ele>
        <time>2022-09-03T10:43:54Z</time>
      </trkpt>
      <trkpt lat="43.00207" lon="1.57762">
        <ele>437.4</ele>
        <time>2022-09-03T10:44:03Z</time>
      </trkpt>
      <trkpt lat="43.00206" lon="1.57723">
        <ele>437.8</ele>
        <time>2022-09-03T10:44:11Z</time>
      </trkpt>
      <trkpt lat="43.00206" lon="1.57714">
        <ele>438.2</ele>
        <time>2022-09-03T10:44:13Z</time>
      </trkpt>
      <trkpt lat="43.00204" lon="1.57686">
        <ele>438.6</ele>
        <time>2022-09-03T10:44:19Z</time>
      </trkpt>
      <trkpt lat="43.00203" lon="1.57654">
        <ele>439.2</ele>
        <time>2022-09-03T10:44:26Z</time>
      </trkpt>
      <trkpt lat="43.00199" lon="1.57631">
        <ele>439.6</ele>
        <time>2022-09-03T10:44:31Z</time>
      </trkpt>
      <trkpt lat="43.00197" lon="1.5761">
        <ele>439.8</ele>
        <time>2022-09-03T10:44:36Z</time>
      </trkpt>
      <trkpt lat="43.00195" lon="1.57588">
        <ele>440</ele>
        <time>2022-09-03T10:44:41Z</time>
      </trkpt>
      <trkpt lat="43.00192" lon="1.57574">
        <ele>440.2</ele>
        <time>2022-09-03T10:44:44Z</time>
      </trkpt>
      <trkpt lat="43.00189" lon="1.57559">
        <ele>440.6</ele>
        <time>2022-09-03T10:44:47Z</time>
      </trkpt>
      <trkpt lat="43.00187" lon="1.57554">
        <ele>440.6</ele>
        <time>2022-09-03T10:44:48Z</time>
      </trkpt>
      <trkpt lat="43.00184" lon="1.57536">
        <ele>440.8</ele>
        <time>2022-09-03T10:44:52Z</time>
      </trkpt>
      <trkpt lat="43.00181" lon="1.57512">
        <ele>441.2</ele>
        <time>2022-09-03T10:44:57Z</time>
      </trkpt>
      <trkpt lat="43.0018" lon="1.57507">
        <ele>441.4</ele>
        <time>2022-09-03T10:44:58Z</time>
      </trkpt>
      <trkpt lat="43.00178" lon="1.57497">
        <ele>441.6</ele>
        <time>2022-09-03T10:45:00Z</time>
      </trkpt>
      <trkpt lat="43.00169" lon="1.57476">
        <ele>441.6</ele>
        <time>2022-09-03T10:45:04Z</time>
      </trkpt>
      <trkpt lat="43.00175" lon="1.5745">
        <ele>442</ele>
        <time>2022-09-03T10:45:10Z</time>
      </trkpt>
      <trkpt lat="43.00178" lon="1.57442">
        <ele>442.2</ele>
        <time>2022-09-03T10:45:12Z</time>
      </trkpt>
      <trkpt lat="43.00184" lon="1.57422">
        <ele>442.6</ele>
        <time>2022-09-03T10:45:17Z</time>
      </trkpt>
      <trkpt lat="43.00185" lon="1.57394">
        <ele>442.8</ele>
        <time>2022-09-03T10:45:23Z</time>
      </trkpt>
      <trkpt lat="43.00183" lon="1.57359">
        <ele>442.8</ele>
        <time>2022-09-03T10:45:30Z</time>
      </trkpt>
      <trkpt lat="43.00177" lon="1.57323">
        <ele>443</ele>
        <time>2022-09-03T10:45:38Z</time>
      </trkpt>
      <trkpt lat="43.00175" lon="1.57309">
        <ele>443.2</ele>
        <time>2022-09-03T10:45:41Z</time>
      </trkpt>
      <trkpt lat="43.00173" lon="1.57299">
        <ele>443.2</ele>
        <time>2022-09-03T10:45:43Z</time>
      </trkpt>
      <trkpt lat="43.0017" lon="1.57272">
        <ele>443.6</ele>
        <time>2022-09-03T10:45:49Z</time>
      </trkpt>
      <trkpt lat="43.00167" lon="1.57238">
        <ele>444</ele>
        <time>2022-09-03T10:45:56Z</time>
      </trkpt>
      <trkpt lat="43.00166" lon="1.57228">
        <ele>444.2</ele>
        <time>2022-09-03T10:45:58Z</time>
      </trkpt>
      <trkpt lat="43.00165" lon="1.57205">
        <ele>444.8</ele>
        <time>2022-09-03T10:46:03Z</time>
      </trkpt>
      <trkpt lat="43.00163" lon="1.57185">
        <ele>445.2</ele>
        <time>2022-09-03T10:46:07Z</time>
      </trkpt>
      <trkpt lat="43.00161" lon="1.57166">
        <ele>445.4</ele>
        <time>2022-09-03T10:46:11Z</time>
      </trkpt>
      <trkpt lat="43.00158" lon="1.5714">
        <ele>445.8</ele>
        <time>2022-09-03T10:46:16Z</time>
      </trkpt>
      <trkpt lat="43.00159" lon="1.57116">
        <ele>446.2</ele>
        <time>2022-09-03T10:46:21Z</time>
      </trkpt>
      <trkpt lat="43.00159" lon="1.57103">
        <ele>446.4</ele>
        <time>2022-09-03T10:46:24Z</time>
      </trkpt>
      <trkpt lat="43.0016" lon="1.57093">
        <ele>446.6</ele>
        <time>2022-09-03T10:46:26Z</time>
      </trkpt>
      <trkpt lat="43.00159" lon="1.5705">
        <ele>447.2</ele>
        <time>2022-09-03T10:46:34Z</time>
      </trkpt>
      <trkpt lat="43.00158" lon="1.57029">
        <ele>447.4</ele>
        <time>2022-09-03T10:46:38Z</time>
      </trkpt>
      <trkpt lat="43.00159" lon="1.57015">
        <ele>447.6</ele>
        <time>2022-09-03T10:46:41Z</time>
      </trkpt>
      <trkpt lat="43.0016" lon="1.56996">
        <ele>447.8</ele>
        <time>2022-09-03T10:46:46Z</time>
      </trkpt>
      <trkpt lat="43.00164" lon="1.56979">
        <ele>448</ele>
        <time>2022-09-03T10:46:52Z</time>
      </trkpt>
      <trkpt lat="43.00166" lon="1.56966">
        <ele>447.8</ele>
        <time>2022-09-03T10:46:59Z</time>
      </trkpt>
      <trkpt lat="43.00168" lon="1.5695">
        <ele>448</ele>
        <time>2022-09-03T10:47:39Z</time>
      </trkpt>
      <trkpt lat="43.00172" lon="1.56939">
        <ele>448.2</ele>
        <time>2022-09-03T10:47:42Z</time>
      </trkpt>
      <trkpt lat="43.00176" lon="1.56924">
        <ele>448.6</ele>
        <time>2022-09-03T10:47:46Z</time>
      </trkpt>
      <trkpt lat="43.00178" lon="1.56916">
        <ele>448.6</ele>
        <time>2022-09-03T10:47:48Z</time>
      </trkpt>
      <trkpt lat="43.00184" lon="1.56885">
        <ele>449.2</ele>
        <time>2022-09-03T10:47:56Z</time>
      </trkpt>
      <trkpt lat="43.00187" lon="1.56864">
        <ele>449.2</ele>
        <time>2022-09-03T10:48:02Z</time>
      </trkpt>
      <trkpt lat="43.00188" lon="1.56858">
        <ele>449.4</ele>
        <time>2022-09-03T10:48:04Z</time>
      </trkpt>
      <trkpt lat="43.00189" lon="1.5685">
        <ele>449.6</ele>
        <time>2022-09-03T10:48:07Z</time>
      </trkpt>
      <trkpt lat="43.00189" lon="1.56847">
        <ele>449.6</ele>
        <time>2022-09-03T10:48:08Z</time>
      </trkpt>
      <trkpt lat="43.00189" lon="1.56838">
        <ele>449.8</ele>
        <time>2022-09-03T10:48:11Z</time>
      </trkpt>
      <trkpt lat="43.0019" lon="1.56827">
        <ele>449.8</ele>
        <time>2022-09-03T10:48:14Z</time>
      </trkpt>
      <trkpt lat="43.00191" lon="1.56807">
        <ele>450</ele>
        <time>2022-09-03T10:48:20Z</time>
      </trkpt>
      <trkpt lat="43.00194" lon="1.56793">
        <ele>450.2</ele>
        <time>2022-09-03T10:48:26Z</time>
      </trkpt>
      <trkpt lat="43.002" lon="1.56767">
        <ele>450.6</ele>
        <time>2022-09-03T10:48:33Z</time>
      </trkpt>
      <trkpt lat="43.00201" lon="1.56763">
        <ele>450.6</ele>
        <time>2022-09-03T10:48:34Z</time>
      </trkpt>
      <trkpt lat="43.00205" lon="1.56738">
        <ele>451</ele>
        <time>2022-09-03T10:48:40Z</time>
      </trkpt>
      <trkpt lat="43.00211" lon="1.56709">
        <ele>451.2</ele>
        <time>2022-09-03T10:48:47Z</time>
      </trkpt>
      <trkpt lat="43.00219" lon="1.56684">
        <ele>451.6</ele>
        <time>2022-09-03T10:48:53Z</time>
      </trkpt>
      <trkpt lat="43.0022" lon="1.5668">
        <ele>451.8</ele>
        <time>2022-09-03T10:48:54Z</time>
      </trkpt>
      <trkpt lat="43.00224" lon="1.56656">
        <ele>451.8</ele>
        <time>2022-09-03T10:49:00Z</time>
      </trkpt>
      <trkpt lat="43.00223" lon="1.56634">
        <ele>452</ele>
        <time>2022-09-03T10:49:06Z</time>
      </trkpt>
      <trkpt lat="43.00227" lon="1.56616">
        <ele>452.2</ele>
        <time>2022-09-03T10:49:59Z</time>
      </trkpt>
      <trkpt lat="43.00236" lon="1.56608">
        <ele>452.4</ele>
        <time>2022-09-03T10:50:02Z</time>
      </trkpt>
      <trkpt lat="43.00247" lon="1.56591">
        <ele>452.8</ele>
        <time>2022-09-03T10:50:08Z</time>
      </trkpt>
      <trkpt lat="43.00248" lon="1.56582">
        <ele>452.8</ele>
        <time>2022-09-03T10:50:12Z</time>
      </trkpt>
      <trkpt lat="43.00248" lon="1.5658">
        <ele>452.8</ele>
        <time>2022-09-03T10:50:14Z</time>
      </trkpt>
      <trkpt lat="43.00264" lon="1.56553">
        <ele>453.4</ele>
        <time>2022-09-03T10:52:56Z</time>
      </trkpt>
      <trkpt lat="43.00267" lon="1.56547">
        <ele>453.4</ele>
        <time>2022-09-03T10:52:58Z</time>
      </trkpt>
      <trkpt lat="43.00276" lon="1.56527">
        <ele>453.6</ele>
        <time>2022-09-03T10:53:04Z</time>
      </trkpt>
      <trkpt lat="43.00281" lon="1.56515">
        <ele>453.8</ele>
        <time>2022-09-03T10:53:08Z</time>
      </trkpt>
      <trkpt lat="43.00286" lon="1.56506">
        <ele>453.6</ele>
        <time>2022-09-03T10:53:11Z</time>
      </trkpt>
      <trkpt lat="43.00292" lon="1.56493">
        <ele>454</ele>
        <time>2022-09-03T10:53:17Z</time>
      </trkpt>
      <trkpt lat="43.00296" lon="1.5648">
        <ele>454</ele>
        <time>2022-09-03T10:53:23Z</time>
      </trkpt>
      <trkpt lat="43.00304" lon="1.56467">
        <ele>454.4</ele>
        <time>2022-09-03T10:53:29Z</time>
      </trkpt>
      <trkpt lat="43.00312" lon="1.56446">
        <ele>455</ele>
        <time>2022-09-03T10:55:26Z</time>
      </trkpt>
      <trkpt lat="43.00325" lon="1.56423">
        <ele>455.4</ele>
        <time>2022-09-03T10:55:34Z</time>
      </trkpt>
      <trkpt lat="43.00333" lon="1.564">
        <ele>455.6</ele>
        <time>2022-09-03T10:55:41Z</time>
      </trkpt>
      <trkpt lat="43.00339" lon="1.56383">
        <ele>456</ele>
        <time>2022-09-03T10:55:47Z</time>
      </trkpt>
      <trkpt lat="43.00341" lon="1.56381">
        <ele>456</ele>
        <time>2022-09-03T10:55:48Z</time>
      </trkpt>
      <trkpt lat="43.00349" lon="1.56366">
        <ele>456.4</ele>
        <time>2022-09-03T10:55:53Z</time>
      </trkpt>
      <trkpt lat="43.00362" lon="1.56342">
        <ele>456.8</ele>
        <time>2022-09-03T10:56:00Z</time>
      </trkpt>
      <trkpt lat="43.00368" lon="1.56331">
        <ele>457.2</ele>
        <time>2022-09-03T10:56:03Z</time>
      </trkpt>
      <trkpt lat="43.00377" lon="1.56308">
        <ele>457.4</ele>
        <time>2022-09-03T10:56:09Z</time>
      </trkpt>
      <trkpt lat="43.00389" lon="1.56286">
        <ele>457.8</ele>
        <time>2022-09-03T10:56:15Z</time>
      </trkpt>
      <trkpt lat="43.00396" lon="1.56271">
        <ele>458.2</ele>
        <time>2022-09-03T10:56:19Z</time>
      </trkpt>
      <trkpt lat="43.00401" lon="1.56258">
        <ele>458.4</ele>
        <time>2022-09-03T10:56:22Z</time>
      </trkpt>
      <trkpt lat="43.00415" lon="1.56233">
        <ele>459</ele>
        <time>2022-09-03T10:56:28Z</time>
      </trkpt>
      <trkpt lat="43.00421" lon="1.56217">
        <ele>459.2</ele>
        <time>2022-09-03T10:56:32Z</time>
      </trkpt>
      <trkpt lat="43.00424" lon="1.56203">
        <ele>459.4</ele>
        <time>2022-09-03T10:56:35Z</time>
      </trkpt>
      <trkpt lat="43.00435" lon="1.56184">
        <ele>459.6</ele>
        <time>2022-09-03T10:56:40Z</time>
      </trkpt>
      <trkpt lat="43.00449" lon="1.56163">
        <ele>460.2</ele>
        <time>2022-09-03T10:56:46Z</time>
      </trkpt>
      <trkpt lat="43.00461" lon="1.56149">
        <ele>460.2</ele>
        <time>2022-09-03T10:56:50Z</time>
      </trkpt>
      <trkpt lat="43.00466" lon="1.56145">
        <ele>460.4</ele>
        <time>2022-09-03T10:56:52Z</time>
      </trkpt>
      <trkpt lat="43.00476" lon="1.5613">
        <ele>460.6</ele>
        <time>2022-09-03T10:56:57Z</time>
      </trkpt>
      <trkpt lat="43.00482" lon="1.56113">
        <ele>460.8</ele>
        <time>2022-09-03T10:57:03Z</time>
      </trkpt>
      <trkpt lat="43.00488" lon="1.56096">
        <ele>461</ele>
        <time>2022-09-03T10:57:09Z</time>
      </trkpt>
      <trkpt lat="43.00496" lon="1.56078">
        <ele>461.4</ele>
        <time>2022-09-03T10:57:15Z</time>
      </trkpt>
      <trkpt lat="43.00501" lon="1.56072">
        <ele>461.8</ele>
        <time>2022-09-03T10:57:17Z</time>
      </trkpt>
      <trkpt lat="43.00514" lon="1.56057">
        <ele>462.2</ele>
        <time>2022-09-03T10:57:22Z</time>
      </trkpt>
      <trkpt lat="43.00536" lon="1.56037">
        <ele>462.4</ele>
        <time>2022-09-03T10:57:28Z</time>
      </trkpt>
      <trkpt lat="43.00544" lon="1.56023">
        <ele>462.4</ele>
        <time>2022-09-03T10:57:31Z</time>
      </trkpt>
      <trkpt lat="43.00546" lon="1.56018">
        <ele>462.6</ele>
        <time>2022-09-03T10:57:32Z</time>
      </trkpt>
      <trkpt lat="43.00553" lon="1.5601">
        <ele>462.6</ele>
        <time>2022-09-03T10:57:34Z</time>
      </trkpt>
      <trkpt lat="43.00573" lon="1.55987">
        <ele>463</ele>
        <time>2022-09-03T10:57:41Z</time>
      </trkpt>
      <trkpt lat="43.00587" lon="1.55971">
        <ele>463.4</ele>
        <time>2022-09-03T10:57:46Z</time>
      </trkpt>
      <trkpt lat="43.00604" lon="1.55952">
        <ele>463.8</ele>
        <time>2022-09-03T10:57:52Z</time>
      </trkpt>
      <trkpt lat="43.00621" lon="1.55927">
        <ele>464.2</ele>
        <time>2022-09-03T10:57:59Z</time>
      </trkpt>
      <trkpt lat="43.00633" lon="1.55908">
        <ele>464.2</ele>
        <time>2022-09-03T10:58:05Z</time>
      </trkpt>
      <trkpt lat="43.00634" lon="1.55905">
        <ele>464.6</ele>
        <time>2022-09-03T10:58:06Z</time>
      </trkpt>
      <trkpt lat="43.00646" lon="1.55888">
        <ele>464.8</ele>
        <time>2022-09-03T10:58:11Z</time>
      </trkpt>
      <trkpt lat="43.00659" lon="1.55863">
        <ele>465</ele>
        <time>2022-09-03T10:58:18Z</time>
      </trkpt>
      <trkpt lat="43.00671" lon="1.55845">
        <ele>465.4</ele>
        <time>2022-09-03T10:58:23Z</time>
      </trkpt>
      <trkpt lat="43.00674" lon="1.55841">
        <ele>465.6</ele>
        <time>2022-09-03T10:58:24Z</time>
      </trkpt>
      <trkpt lat="43.00683" lon="1.5582">
        <ele>466</ele>
        <time>2022-09-03T10:58:29Z</time>
      </trkpt>
      <trkpt lat="43.0069" lon="1.55797">
        <ele>466.6</ele>
        <time>2022-09-03T10:58:34Z</time>
      </trkpt>
      <trkpt lat="43.00694" lon="1.55789">
        <ele>466.6</ele>
        <time>2022-09-03T10:58:36Z</time>
      </trkpt>
      <trkpt lat="43.00699" lon="1.55767">
        <ele>467</ele>
        <time>2022-09-03T10:58:41Z</time>
      </trkpt>
      <trkpt lat="43.00708" lon="1.55735">
        <ele>467.4</ele>
        <time>2022-09-03T10:58:48Z</time>
      </trkpt>
      <trkpt lat="43.00714" lon="1.55727">
        <ele>467.6</ele>
        <time>2022-09-03T10:58:50Z</time>
      </trkpt>
      <trkpt lat="43.00723" lon="1.55707">
        <ele>468</ele>
        <time>2022-09-03T10:58:54Z</time>
      </trkpt>
      <trkpt lat="43.00734" lon="1.55684">
        <ele>468.4</ele>
        <time>2022-09-03T10:58:59Z</time>
      </trkpt>
      <trkpt lat="43.00748" lon="1.55653">
        <ele>468.6</ele>
        <time>2022-09-03T10:59:06Z</time>
      </trkpt>
      <trkpt lat="43.00752" lon="1.55644">
        <ele>468.6</ele>
        <time>2022-09-03T10:59:08Z</time>
      </trkpt>
      <trkpt lat="43.00761" lon="1.55622">
        <ele>468.8</ele>
        <time>2022-09-03T10:59:13Z</time>
      </trkpt>
      <trkpt lat="43.00771" lon="1.55589">
        <ele>469.4</ele>
        <time>2022-09-03T10:59:20Z</time>
      </trkpt>
      <trkpt lat="43.00774" lon="1.55581">
        <ele>469.6</ele>
        <time>2022-09-03T10:59:22Z</time>
      </trkpt>
      <trkpt lat="43.00786" lon="1.55554">
        <ele>470</ele>
        <time>2022-09-03T10:59:28Z</time>
      </trkpt>
      <trkpt lat="43.00795" lon="1.55523">
        <ele>470.4</ele>
        <time>2022-09-03T10:59:35Z</time>
      </trkpt>
      <trkpt lat="43.008" lon="1.55506">
        <ele>470.8</ele>
        <time>2022-09-03T10:59:39Z</time>
      </trkpt>
      <trkpt lat="43.00806" lon="1.55493">
        <ele>470.8</ele>
        <time>2022-09-03T10:59:42Z</time>
      </trkpt>
      <trkpt lat="43.00819" lon="1.55462">
        <ele>471.2</ele>
        <time>2022-09-03T10:59:49Z</time>
      </trkpt>
      <trkpt lat="43.00832" lon="1.55425">
        <ele>471.6</ele>
        <time>2022-09-03T10:59:57Z</time>
      </trkpt>
      <trkpt lat="43.00841" lon="1.55402">
        <ele>471.8</ele>
        <time>2022-09-03T11:00:02Z</time>
      </trkpt>
      <trkpt lat="43.00847" lon="1.55384">
        <ele>472.2</ele>
        <time>2022-09-03T11:00:06Z</time>
      </trkpt>
      <trkpt lat="43.00857" lon="1.55354">
        <ele>472.4</ele>
        <time>2022-09-03T11:00:13Z</time>
      </trkpt>
      <trkpt lat="43.00867" lon="1.55329">
        <ele>472.8</ele>
        <time>2022-09-03T11:00:19Z</time>
      </trkpt>
      <trkpt lat="43.00871" lon="1.5532">
        <ele>473</ele>
        <time>2022-09-03T11:00:21Z</time>
      </trkpt>
      <trkpt lat="43.00886" lon="1.55276">
        <ele>473.6</ele>
        <time>2022-09-03T11:00:31Z</time>
      </trkpt>
      <trkpt lat="43.0089" lon="1.55263">
        <ele>473.8</ele>
        <time>2022-09-03T11:00:34Z</time>
      </trkpt>
      <trkpt lat="43.00896" lon="1.55245">
        <ele>474.2</ele>
        <time>2022-09-03T11:00:38Z</time>
      </trkpt>
      <trkpt lat="43.00908" lon="1.55209">
        <ele>474.6</ele>
        <time>2022-09-03T11:00:46Z</time>
      </trkpt>
      <trkpt lat="43.00915" lon="1.55191">
        <ele>475</ele>
        <time>2022-09-03T11:00:50Z</time>
      </trkpt>
      <trkpt lat="43.00921" lon="1.55173">
        <ele>475.2</ele>
        <time>2022-09-03T11:00:54Z</time>
      </trkpt>
      <trkpt lat="43.0093" lon="1.55147">
        <ele>475.8</ele>
        <time>2022-09-03T11:01:00Z</time>
      </trkpt>
      <trkpt lat="43.00937" lon="1.55123">
        <ele>476</ele>
        <time>2022-09-03T11:01:05Z</time>
      </trkpt>
      <trkpt lat="43.00941" lon="1.55109">
        <ele>476.2</ele>
        <time>2022-09-03T11:01:08Z</time>
      </trkpt>
      <trkpt lat="43.00955" lon="1.55069">
        <ele>477</ele>
        <time>2022-09-03T11:01:17Z</time>
      </trkpt>
      <trkpt lat="43.00957" lon="1.55064">
        <ele>477</ele>
        <time>2022-09-03T11:01:18Z</time>
      </trkpt>
      <trkpt lat="43.00969" lon="1.5503">
        <ele>477.4</ele>
        <time>2022-09-03T11:01:26Z</time>
      </trkpt>
      <trkpt lat="43.0098" lon="1.54989">
        <ele>478</ele>
        <time>2022-09-03T11:01:35Z</time>
      </trkpt>
      <trkpt lat="43.00991" lon="1.54954">
        <ele>478</ele>
        <time>2022-09-03T11:01:43Z</time>
      </trkpt>
      <trkpt lat="43.00997" lon="1.54934">
        <ele>478.6</ele>
        <time>2022-09-03T11:01:49Z</time>
      </trkpt>
      <trkpt lat="43.01003" lon="1.54913">
        <ele>478.6</ele>
        <time>2022-09-03T11:01:56Z</time>
      </trkpt>
      <trkpt lat="43.0101" lon="1.5489">
        <ele>479</ele>
        <time>2022-09-03T11:02:02Z</time>
      </trkpt>
      <trkpt lat="43.01016" lon="1.54871">
        <ele>479.4</ele>
        <time>2022-09-03T11:02:07Z</time>
      </trkpt>
      <trkpt lat="43.01026" lon="1.54839">
        <ele>479.8</ele>
        <time>2022-09-03T11:02:14Z</time>
      </trkpt>
      <trkpt lat="43.01031" lon="1.54825">
        <ele>480</ele>
        <time>2022-09-03T11:02:17Z</time>
      </trkpt>
      <trkpt lat="43.01038" lon="1.54802">
        <ele>480.4</ele>
        <time>2022-09-03T11:02:22Z</time>
      </trkpt>
      <trkpt lat="43.01049" lon="1.54774">
        <ele>480.8</ele>
        <time>2022-09-03T11:02:28Z</time>
      </trkpt>
      <trkpt lat="43.01056" lon="1.54761">
        <ele>481</ele>
        <time>2022-09-03T11:02:31Z</time>
      </trkpt>
      <trkpt lat="43.01062" lon="1.54747">
        <ele>481.2</ele>
        <time>2022-09-03T11:02:34Z</time>
      </trkpt>
      <trkpt lat="43.01077" lon="1.54712">
        <ele>481.6</ele>
        <time>2022-09-03T11:02:42Z</time>
      </trkpt>
      <trkpt lat="43.01087" lon="1.54683">
        <ele>482</ele>
        <time>2022-09-03T11:02:49Z</time>
      </trkpt>
      <trkpt lat="43.01092" lon="1.54675">
        <ele>482.2</ele>
        <time>2022-09-03T11:02:51Z</time>
      </trkpt>
      <trkpt lat="43.01105" lon="1.54651">
        <ele>482.4</ele>
        <time>2022-09-03T11:02:57Z</time>
      </trkpt>
      <trkpt lat="43.01117" lon="1.54626">
        <ele>483</ele>
        <time>2022-09-03T11:03:03Z</time>
      </trkpt>
      <trkpt lat="43.01128" lon="1.54601">
        <ele>483.2</ele>
        <time>2022-09-03T11:03:09Z</time>
      </trkpt>
      <trkpt lat="43.01137" lon="1.54581">
        <ele>483.6</ele>
        <time>2022-09-03T11:03:14Z</time>
      </trkpt>
      <trkpt lat="43.01153" lon="1.5455">
        <ele>483.8</ele>
        <time>2022-09-03T11:03:22Z</time>
      </trkpt>
      <trkpt lat="43.01163" lon="1.54525">
        <ele>484.2</ele>
        <time>2022-09-03T11:03:28Z</time>
      </trkpt>
      <trkpt lat="43.01165" lon="1.54521">
        <ele>484.2</ele>
        <time>2022-09-03T11:03:29Z</time>
      </trkpt>
      <trkpt lat="43.01175" lon="1.54495">
        <ele>484.4</ele>
        <time>2022-09-03T11:03:35Z</time>
      </trkpt>
      <trkpt lat="43.0119" lon="1.54464">
        <ele>484.6</ele>
        <time>2022-09-03T11:03:42Z</time>
      </trkpt>
      <trkpt lat="43.01198" lon="1.54446">
        <ele>484.6</ele>
        <time>2022-09-03T11:03:46Z</time>
      </trkpt>
      <trkpt lat="43.0121" lon="1.54413">
        <ele>484.8</ele>
        <time>2022-09-03T11:03:52Z</time>
      </trkpt>
      <trkpt lat="43.01223" lon="1.54375">
        <ele>484.6</ele>
        <time>2022-09-03T11:03:59Z</time>
      </trkpt>
      <trkpt lat="43.01231" lon="1.54352">
        <ele>484.6</ele>
        <time>2022-09-03T11:04:03Z</time>
      </trkpt>
      <trkpt lat="43.01234" lon="1.5434">
        <ele>484.6</ele>
        <time>2022-09-03T11:04:05Z</time>
      </trkpt>
      <trkpt lat="43.01245" lon="1.54304">
        <ele>484.6</ele>
        <time>2022-09-03T11:04:11Z</time>
      </trkpt>
      <trkpt lat="43.01258" lon="1.54266">
        <ele>484.6</ele>
        <time>2022-09-03T11:04:17Z</time>
      </trkpt>
      <trkpt lat="43.01263" lon="1.54252">
        <ele>484.6</ele>
        <time>2022-09-03T11:04:19Z</time>
      </trkpt>
      <trkpt lat="43.01269" lon="1.54228">
        <ele>484.6</ele>
        <time>2022-09-03T11:04:23Z</time>
      </trkpt>
      <trkpt lat="43.01271" lon="1.54222">
        <ele>484.6</ele>
        <time>2022-09-03T11:04:24Z</time>
      </trkpt>
      <trkpt lat="43.01273" lon="1.54215">
        <ele>484.6</ele>
        <time>2022-09-03T11:04:25Z</time>
      </trkpt>
      <trkpt lat="43.01275" lon="1.54203">
        <ele>484.6</ele>
        <time>2022-09-03T11:04:27Z</time>
      </trkpt>
      <trkpt lat="43.01278" lon="1.54193">
        <ele>484.6</ele>
        <time>2022-09-03T11:04:30Z</time>
      </trkpt>
      <trkpt lat="43.01284" lon="1.54167">
        <ele>483.8</ele>
        <time>2022-09-03T11:04:35Z</time>
      </trkpt>
      <trkpt lat="43.01297" lon="1.54134">
        <ele>484</ele>
        <time>2022-09-03T11:04:41Z</time>
      </trkpt>
      <trkpt lat="43.01307" lon="1.54101">
        <ele>484</ele>
        <time>2022-09-03T11:04:47Z</time>
      </trkpt>
      <trkpt lat="43.0132" lon="1.54074">
        <ele>483.8</ele>
        <time>2022-09-03T11:04:53Z</time>
      </trkpt>
      <trkpt lat="43.01331" lon="1.54052">
        <ele>484.4</ele>
        <time>2022-09-03T11:04:59Z</time>
      </trkpt>
      <trkpt lat="43.01342" lon="1.54026">
        <ele>484.4</ele>
        <time>2022-09-03T11:05:06Z</time>
      </trkpt>
      <trkpt lat="43.01351" lon="1.54001">
        <ele>484</ele>
        <time>2022-09-03T11:05:12Z</time>
      </trkpt>
      <trkpt lat="43.01357" lon="1.5398">
        <ele>483.8</ele>
        <time>2022-09-03T11:05:18Z</time>
      </trkpt>
      <trkpt lat="43.01364" lon="1.53954">
        <ele>483.8</ele>
        <time>2022-09-03T11:05:24Z</time>
      </trkpt>
      <trkpt lat="43.01371" lon="1.5393">
        <ele>483.6</ele>
        <time>2022-09-03T11:05:30Z</time>
      </trkpt>
      <trkpt lat="43.01381" lon="1.53898">
        <ele>483.6</ele>
        <time>2022-09-03T11:05:37Z</time>
      </trkpt>
      <trkpt lat="43.01387" lon="1.53866">
        <ele>483.8</ele>
        <time>2022-09-03T11:05:43Z</time>
      </trkpt>
      <trkpt lat="43.01395" lon="1.53824">
        <ele>483.8</ele>
        <time>2022-09-03T11:05:50Z</time>
      </trkpt>
      <trkpt lat="43.01402" lon="1.53794">
        <ele>483.6</ele>
        <time>2022-09-03T11:05:55Z</time>
      </trkpt>
      <trkpt lat="43.01412" lon="1.53754">
        <ele>483.6</ele>
        <time>2022-09-03T11:06:02Z</time>
      </trkpt>
      <trkpt lat="43.0142" lon="1.53715">
        <ele>483.6</ele>
        <time>2022-09-03T11:06:09Z</time>
      </trkpt>
      <trkpt lat="43.01423" lon="1.53694">
        <ele>483.8</ele>
        <time>2022-09-03T11:06:15Z</time>
      </trkpt>
      <trkpt lat="43.01423" lon="1.53687">
        <ele>484</ele>
        <time>2022-09-03T11:06:17Z</time>
      </trkpt>
      <trkpt lat="43.01425" lon="1.53679">
        <ele>484.2</ele>
        <time>2022-09-03T11:06:19Z</time>
      </trkpt>
      <trkpt lat="43.01431" lon="1.53652">
        <ele>484.2</ele>
        <time>2022-09-03T11:06:25Z</time>
      </trkpt>
      <trkpt lat="43.0143" lon="1.53627">
        <ele>484.2</ele>
        <time>2022-09-03T11:06:31Z</time>
      </trkpt>
      <trkpt lat="43.01434" lon="1.53609">
        <ele>484.2</ele>
        <time>2022-09-03T11:06:37Z</time>
      </trkpt>
      <trkpt lat="43.01444" lon="1.53591">
        <ele>484.2</ele>
        <time>2022-09-03T11:06:44Z</time>
      </trkpt>
      <trkpt lat="43.01451" lon="1.53567">
        <ele>484</ele>
        <time>2022-09-03T11:06:51Z</time>
      </trkpt>
      <trkpt lat="43.01453" lon="1.53541">
        <ele>484</ele>
        <time>2022-09-03T11:06:58Z</time>
      </trkpt>
      <trkpt lat="43.01454" lon="1.53514">
        <ele>484.2</ele>
        <time>2022-09-03T11:07:05Z</time>
      </trkpt>
      <trkpt lat="43.01454" lon="1.53483">
        <ele>484</ele>
        <time>2022-09-03T11:07:12Z</time>
      </trkpt>
      <trkpt lat="43.01453" lon="1.53441">
        <ele>484.2</ele>
        <time>2022-09-03T11:07:20Z</time>
      </trkpt>
      <trkpt lat="43.01449" lon="1.53399">
        <ele>484</ele>
        <time>2022-09-03T11:07:28Z</time>
      </trkpt>
      <trkpt lat="43.01447" lon="1.53369">
        <ele>484.2</ele>
        <time>2022-09-03T11:07:34Z</time>
      </trkpt>
      <trkpt lat="43.01443" lon="1.53338">
        <ele>484</ele>
        <time>2022-09-03T11:07:40Z</time>
      </trkpt>
      <trkpt lat="43.01439" lon="1.53304">
        <ele>484.6</ele>
        <time>2022-09-03T11:07:47Z</time>
      </trkpt>
      <trkpt lat="43.01433" lon="1.53262">
        <ele>484.8</ele>
        <time>2022-09-03T11:07:55Z</time>
      </trkpt>
      <trkpt lat="43.01428" lon="1.53228">
        <ele>485.4</ele>
        <time>2022-09-03T11:08:02Z</time>
      </trkpt>
      <trkpt lat="43.01421" lon="1.53189">
        <ele>485.8</ele>
        <time>2022-09-03T11:08:10Z</time>
      </trkpt>
      <trkpt lat="43.01416" lon="1.53164">
        <ele>486.4</ele>
        <time>2022-09-03T11:08:15Z</time>
      </trkpt>
      <trkpt lat="43.0141" lon="1.5314">
        <ele>486.4</ele>
        <time>2022-09-03T11:08:20Z</time>
      </trkpt>
      <trkpt lat="43.01398" lon="1.53102">
        <ele>487.4</ele>
        <time>2022-09-03T11:08:28Z</time>
      </trkpt>
      <trkpt lat="43.01397" lon="1.53097">
        <ele>487.4</ele>
        <time>2022-09-03T11:08:29Z</time>
      </trkpt>
      <trkpt lat="43.01387" lon="1.5307">
        <ele>487.6</ele>
        <time>2022-09-03T11:08:35Z</time>
      </trkpt>
      <trkpt lat="43.01374" lon="1.53041">
        <ele>488</ele>
        <time>2022-09-03T11:08:42Z</time>
      </trkpt>
      <trkpt lat="43.01365" lon="1.53021">
        <ele>488.2</ele>
        <time>2022-09-03T11:08:47Z</time>
      </trkpt>
      <trkpt lat="43.01359" lon="1.53012">
        <ele>488.4</ele>
        <time>2022-09-03T11:08:50Z</time>
      </trkpt>
      <trkpt lat="43.01354" lon="1.53001">
        <ele>488.8</ele>
        <time>2022-09-03T11:08:53Z</time>
      </trkpt>
      <trkpt lat="43.01343" lon="1.52978">
        <ele>489.4</ele>
        <time>2022-09-03T11:09:00Z</time>
      </trkpt>
      <trkpt lat="43.01337" lon="1.52962">
        <ele>489.6</ele>
        <time>2022-09-03T11:09:04Z</time>
      </trkpt>
      <trkpt lat="43.01333" lon="1.52954">
        <ele>489.6</ele>
        <time>2022-09-03T11:09:06Z</time>
      </trkpt>
      <trkpt lat="43.01323" lon="1.52932">
        <ele>490.2</ele>
        <time>2022-09-03T11:09:12Z</time>
      </trkpt>
      <trkpt lat="43.0131" lon="1.52899">
        <ele>490.4</ele>
        <time>2022-09-03T11:09:20Z</time>
      </trkpt>
      <trkpt lat="43.01306" lon="1.5289">
        <ele>490.8</ele>
        <time>2022-09-03T11:09:22Z</time>
      </trkpt>
      <trkpt lat="43.01294" lon="1.5286">
        <ele>491.2</ele>
        <time>2022-09-03T11:09:28Z</time>
      </trkpt>
      <trkpt lat="43.01273" lon="1.52812">
        <ele>491.8</ele>
        <time>2022-09-03T11:09:37Z</time>
      </trkpt>
      <trkpt lat="43.01261" lon="1.52779">
        <ele>492</ele>
        <time>2022-09-03T11:09:43Z</time>
      </trkpt>
      <trkpt lat="43.01244" lon="1.52725">
        <ele>492.8</ele>
        <time>2022-09-03T11:09:52Z</time>
      </trkpt>
      <trkpt lat="43.01235" lon="1.52688">
        <ele>493.2</ele>
        <time>2022-09-03T11:09:59Z</time>
      </trkpt>
      <trkpt lat="43.01229" lon="1.52659">
        <ele>493.6</ele>
        <time>2022-09-03T11:10:05Z</time>
      </trkpt>
      <trkpt lat="43.01226" lon="1.52634">
        <ele>493.8</ele>
        <time>2022-09-03T11:10:10Z</time>
      </trkpt>
      <trkpt lat="43.01225" lon="1.52623">
        <ele>494</ele>
        <time>2022-09-03T11:10:12Z</time>
      </trkpt>
      <trkpt lat="43.01219" lon="1.52574">
        <ele>494.6</ele>
        <time>2022-09-03T11:10:21Z</time>
      </trkpt>
      <trkpt lat="43.01217" lon="1.52559">
        <ele>495</ele>
        <time>2022-09-03T11:10:24Z</time>
      </trkpt>
      <trkpt lat="43.01215" lon="1.5254">
        <ele>495</ele>
        <time>2022-09-03T11:10:28Z</time>
      </trkpt>
      <trkpt lat="43.01211" lon="1.52503">
        <ele>495.6</ele>
        <time>2022-09-03T11:10:35Z</time>
      </trkpt>
      <trkpt lat="43.01208" lon="1.52471">
        <ele>496</ele>
        <time>2022-09-03T11:10:41Z</time>
      </trkpt>
      <trkpt lat="43.01206" lon="1.52461">
        <ele>496</ele>
        <time>2022-09-03T11:10:43Z</time>
      </trkpt>
      <trkpt lat="43.01203" lon="1.52442">
        <ele>496.2</ele>
        <time>2022-09-03T11:10:47Z</time>
      </trkpt>
      <trkpt lat="43.01202" lon="1.52414">
        <ele>496.4</ele>
        <time>2022-09-03T11:10:53Z</time>
      </trkpt>
      <trkpt lat="43.01198" lon="1.52386">
        <ele>496.8</ele>
        <time>2022-09-03T11:10:59Z</time>
      </trkpt>
      <trkpt lat="43.01196" lon="1.5237">
        <ele>497.2</ele>
        <time>2022-09-03T11:11:02Z</time>
      </trkpt>
      <trkpt lat="43.01193" lon="1.52347">
        <ele>497.4</ele>
        <time>2022-09-03T11:11:06Z</time>
      </trkpt>
      <trkpt lat="43.01184" lon="1.52301">
        <ele>497.8</ele>
        <time>2022-09-03T11:11:13Z</time>
      </trkpt>
      <trkpt lat="43.01171" lon="1.52255">
        <ele>498</ele>
        <time>2022-09-03T11:11:20Z</time>
      </trkpt>
      <trkpt lat="43.01156" lon="1.52215">
        <ele>497.6</ele>
        <time>2022-09-03T11:11:27Z</time>
      </trkpt>
      <trkpt lat="43.01144" lon="1.5219">
        <ele>497.6</ele>
        <time>2022-09-03T11:11:32Z</time>
      </trkpt>
      <trkpt lat="43.01131" lon="1.52152">
        <ele>497.4</ele>
        <time>2022-09-03T11:11:38Z</time>
      </trkpt>
      <trkpt lat="43.01128" lon="1.52138">
        <ele>497</ele>
        <time>2022-09-03T11:11:40Z</time>
      </trkpt>
      <trkpt lat="43.01123" lon="1.52112">
        <ele>496.8</ele>
        <time>2022-09-03T11:11:44Z</time>
      </trkpt>
      <trkpt lat="43.01122" lon="1.52106">
        <ele>496.6</ele>
        <time>2022-09-03T11:11:45Z</time>
      </trkpt>
      <trkpt lat="43.01117" lon="1.52057">
        <ele>496.2</ele>
        <time>2022-09-03T11:11:52Z</time>
      </trkpt>
      <trkpt lat="43.01111" lon="1.52022">
        <ele>496</ele>
        <time>2022-09-03T11:11:57Z</time>
      </trkpt>
      <trkpt lat="43.01108" lon="1.52008">
        <ele>495.8</ele>
        <time>2022-09-03T11:11:59Z</time>
      </trkpt>
      <trkpt lat="43.01105" lon="1.51994">
        <ele>495.2</ele>
        <time>2022-09-03T11:12:01Z</time>
      </trkpt>
      <trkpt lat="43.01104" lon="1.51987">
        <ele>495</ele>
        <time>2022-09-03T11:12:02Z</time>
      </trkpt>
      <trkpt lat="43.011" lon="1.51969">
        <ele>495</ele>
        <time>2022-09-03T11:12:05Z</time>
      </trkpt>
      <trkpt lat="43.01091" lon="1.51913">
        <ele>494</ele>
        <time>2022-09-03T11:12:13Z</time>
      </trkpt>
      <trkpt lat="43.01089" lon="1.51883">
        <ele>493.4</ele>
        <time>2022-09-03T11:12:19Z</time>
      </trkpt>
      <trkpt lat="43.01086" lon="1.51848">
        <ele>493.4</ele>
        <time>2022-09-03T11:12:26Z</time>
      </trkpt>
      <trkpt lat="43.01081" lon="1.51806">
        <ele>493.4</ele>
        <time>2022-09-03T11:12:33Z</time>
      </trkpt>
      <trkpt lat="43.0108" lon="1.51794">
        <ele>492.8</ele>
        <time>2022-09-03T11:12:35Z</time>
      </trkpt>
      <trkpt lat="43.01079" lon="1.51762">
        <ele>492.6</ele>
        <time>2022-09-03T11:12:41Z</time>
      </trkpt>
      <trkpt lat="43.01081" lon="1.51733">
        <ele>492</ele>
        <time>2022-09-03T11:12:47Z</time>
      </trkpt>
      <trkpt lat="43.01082" lon="1.51724">
        <ele>491.8</ele>
        <time>2022-09-03T11:12:49Z</time>
      </trkpt>
      <trkpt lat="43.01085" lon="1.51701">
        <ele>491.6</ele>
        <time>2022-09-03T11:12:53Z</time>
      </trkpt>
      <trkpt lat="43.01091" lon="1.51655">
        <ele>490.6</ele>
        <time>2022-09-03T11:13:00Z</time>
      </trkpt>
      <trkpt lat="43.01097" lon="1.51616">
        <ele>490.4</ele>
        <time>2022-09-03T11:13:06Z</time>
      </trkpt>
      <trkpt lat="43.01104" lon="1.51577">
        <ele>489.8</ele>
        <time>2022-09-03T11:13:12Z</time>
      </trkpt>
      <trkpt lat="43.01109" lon="1.5155">
        <ele>489.6</ele>
        <time>2022-09-03T11:13:16Z</time>
      </trkpt>
      <trkpt lat="43.01112" lon="1.5153">
        <ele>489.2</ele>
        <time>2022-09-03T11:13:19Z</time>
      </trkpt>
      <trkpt lat="43.01121" lon="1.51479">
        <ele>488.8</ele>
        <time>2022-09-03T11:13:27Z</time>
      </trkpt>
      <trkpt lat="43.01122" lon="1.51473">
        <ele>488.8</ele>
        <time>2022-09-03T11:13:28Z</time>
      </trkpt>
      <trkpt lat="43.01123" lon="1.51467">
        <ele>488.8</ele>
        <time>2022-09-03T11:13:29Z</time>
      </trkpt>
      <trkpt lat="43.01125" lon="1.51456">
        <ele>488.4</ele>
        <time>2022-09-03T11:13:31Z</time>
      </trkpt>
      <trkpt lat="43.0113" lon="1.51428">
        <ele>488</ele>
        <time>2022-09-03T11:13:36Z</time>
      </trkpt>
      <trkpt lat="43.01134" lon="1.514">
        <ele>487.6</ele>
        <time>2022-09-03T11:13:42Z</time>
      </trkpt>
      <trkpt lat="43.01135" lon="1.51391">
        <ele>487.4</ele>
        <time>2022-09-03T11:13:45Z</time>
      </trkpt>
      <trkpt lat="43.01137" lon="1.51381">
        <ele>487.4</ele>
        <time>2022-09-03T11:13:48Z</time>
      </trkpt>
      <trkpt lat="43.01141" lon="1.51356">
        <ele>487.2</ele>
        <time>2022-09-03T11:13:53Z</time>
      </trkpt>
      <trkpt lat="43.01147" lon="1.51325">
        <ele>486.4</ele>
        <time>2022-09-03T11:13:59Z</time>
      </trkpt>
      <trkpt lat="43.01147" lon="1.51322">
        <ele>486.4</ele>
        <time>2022-09-03T11:14:00Z</time>
      </trkpt>
      <trkpt lat="43.01148" lon="1.51314">
        <ele>485.8</ele>
        <time>2022-09-03T11:14:54Z</time>
      </trkpt>
      <trkpt lat="43.01149" lon="1.51305">
        <ele>485.8</ele>
        <time>2022-09-03T11:14:56Z</time>
      </trkpt>
      <trkpt lat="43.01154" lon="1.51274">
        <ele>485.8</ele>
        <time>2022-09-03T11:15:02Z</time>
      </trkpt>
      <trkpt lat="43.01163" lon="1.5122">
        <ele>485.6</ele>
        <time>2022-09-03T11:15:11Z</time>
      </trkpt>
      <trkpt lat="43.01165" lon="1.51209">
        <ele>485.2</ele>
        <time>2022-09-03T11:15:13Z</time>
      </trkpt>
      <trkpt lat="43.01168" lon="1.51192">
        <ele>485.2</ele>
        <time>2022-09-03T11:15:16Z</time>
      </trkpt>
      <trkpt lat="43.01169" lon="1.5118">
        <ele>485</ele>
        <time>2022-09-03T11:15:18Z</time>
      </trkpt>
      <trkpt lat="43.01172" lon="1.51149">
        <ele>484.8</ele>
        <time>2022-09-03T11:15:23Z</time>
      </trkpt>
      <trkpt lat="43.01173" lon="1.51136">
        <ele>484.6</ele>
        <time>2022-09-03T11:15:25Z</time>
      </trkpt>
      <trkpt lat="43.01175" lon="1.51099">
        <ele>484.2</ele>
        <time>2022-09-03T11:15:31Z</time>
      </trkpt>
      <trkpt lat="43.01175" lon="1.51093">
        <ele>483.8</ele>
        <time>2022-09-03T11:15:32Z</time>
      </trkpt>
      <trkpt lat="43.01173" lon="1.51039">
        <ele>483.2</ele>
        <time>2022-09-03T11:15:40Z</time>
      </trkpt>
      <trkpt lat="43.01171" lon="1.51006">
        <ele>483</ele>
        <time>2022-09-03T11:15:45Z</time>
      </trkpt>
      <trkpt lat="43.0117" lon="1.50993">
        <ele>482.8</ele>
        <time>2022-09-03T11:15:47Z</time>
      </trkpt>
      <trkpt lat="43.01161" lon="1.50936">
        <ele>482</ele>
        <time>2022-09-03T11:15:56Z</time>
      </trkpt>
      <trkpt lat="43.0116" lon="1.5093">
        <ele>482</ele>
        <time>2022-09-03T11:15:57Z</time>
      </trkpt>
      <trkpt lat="43.01155" lon="1.50907">
        <ele>481.4</ele>
        <time>2022-09-03T11:16:02Z</time>
      </trkpt>
      <trkpt lat="43.01153" lon="1.50899">
        <ele>480.8</ele>
        <time>2022-09-03T11:16:05Z</time>
      </trkpt>
      <trkpt lat="43.0115" lon="1.5089">
        <ele>480.4</ele>
        <time>2022-09-03T11:16:19Z</time>
      </trkpt>
      <trkpt lat="43.0115" lon="1.50884">
        <ele>480.4</ele>
        <time>2022-09-03T11:16:22Z</time>
      </trkpt>
      <trkpt lat="43.01123" lon="1.50791">
        <ele>479.8</ele>
        <time>2022-09-03T11:22:27Z</time>
      </trkpt>
      <trkpt lat="43.01122" lon="1.50788">
        <ele>479.6</ele>
        <time>2022-09-03T11:22:28Z</time>
      </trkpt>
      <trkpt lat="43.01118" lon="1.50774">
        <ele>481.2</ele>
        <time>2022-09-03T12:07:28Z</time>
      </trkpt>
      <trkpt lat="43.01112" lon="1.50753">
        <ele>481.2</ele>
        <time>2022-09-03T12:07:34Z</time>
      </trkpt>
      <trkpt lat="43.01103" lon="1.50727">
        <ele>481</ele>
        <time>2022-09-03T12:07:40Z</time>
      </trkpt>
      <trkpt lat="43.01092" lon="1.50694">
        <ele>480.8</ele>
        <time>2022-09-03T12:07:47Z</time>
      </trkpt>
      <trkpt lat="43.01079" lon="1.50651">
        <ele>480.4</ele>
        <time>2022-09-03T12:07:55Z</time>
      </trkpt>
      <trkpt lat="43.01073" lon="1.50635">
        <ele>480.2</ele>
        <time>2022-09-03T12:07:58Z</time>
      </trkpt>
      <trkpt lat="43.01068" lon="1.50618">
        <ele>480.2</ele>
        <time>2022-09-03T12:08:01Z</time>
      </trkpt>
      <trkpt lat="43.01057" lon="1.50583">
        <ele>479.8</ele>
        <time>2022-09-03T12:08:07Z</time>
      </trkpt>
      <trkpt lat="43.01052" lon="1.50565">
        <ele>479.2</ele>
        <time>2022-09-03T12:08:10Z</time>
      </trkpt>
      <trkpt lat="43.0105" lon="1.50559">
        <ele>479</ele>
        <time>2022-09-03T12:08:11Z</time>
      </trkpt>
      <trkpt lat="43.01047" lon="1.50547">
        <ele>479</ele>
        <time>2022-09-03T12:08:13Z</time>
      </trkpt>
      <trkpt lat="43.01044" lon="1.50533">
        <ele>478.8</ele>
        <time>2022-09-03T12:08:15Z</time>
      </trkpt>
      <trkpt lat="43.01039" lon="1.50506">
        <ele>478.6</ele>
        <time>2022-09-03T12:08:19Z</time>
      </trkpt>
      <trkpt lat="43.01033" lon="1.50467">
        <ele>478.4</ele>
        <time>2022-09-03T12:08:25Z</time>
      </trkpt>
      <trkpt lat="43.01032" lon="1.50455">
        <ele>478</ele>
        <time>2022-09-03T12:08:27Z</time>
      </trkpt>
      <trkpt lat="43.01028" lon="1.50431">
        <ele>477.8</ele>
        <time>2022-09-03T12:08:31Z</time>
      </trkpt>
      <trkpt lat="43.01026" lon="1.50376">
        <ele>477.6</ele>
        <time>2022-09-03T12:08:39Z</time>
      </trkpt>
      <trkpt lat="43.01024" lon="1.50329">
        <ele>477.6</ele>
        <time>2022-09-03T12:08:46Z</time>
      </trkpt>
      <trkpt lat="43.01023" lon="1.5027">
        <ele>477.6</ele>
        <time>2022-09-03T12:08:55Z</time>
      </trkpt>
      <trkpt lat="43.01021" lon="1.50192">
        <ele>477.4</ele>
        <time>2022-09-03T12:09:07Z</time>
      </trkpt>
      <trkpt lat="43.0102" lon="1.50143">
        <ele>477.4</ele>
        <time>2022-09-03T12:09:15Z</time>
      </trkpt>
      <trkpt lat="43.01021" lon="1.50102">
        <ele>477.4</ele>
        <time>2022-09-03T12:09:23Z</time>
      </trkpt>
      <trkpt lat="43.01021" lon="1.50081">
        <ele>477.8</ele>
        <time>2022-09-03T12:09:28Z</time>
      </trkpt>
      <trkpt lat="43.01015" lon="1.50064">
        <ele>477.6</ele>
        <time>2022-09-03T12:09:33Z</time>
      </trkpt>
      <trkpt lat="43.01015" lon="1.50037">
        <ele>477.2</ele>
        <time>2022-09-03T12:09:39Z</time>
      </trkpt>
      <trkpt lat="43.01014" lon="1.50024">
        <ele>477</ele>
        <time>2022-09-03T12:09:41Z</time>
      </trkpt>
      <trkpt lat="43.01012" lon="1.50012">
        <ele>477.2</ele>
        <time>2022-09-03T12:09:43Z</time>
      </trkpt>
      <trkpt lat="43.01011" lon="1.50005">
        <ele>477.2</ele>
        <time>2022-09-03T12:09:44Z</time>
      </trkpt>
      <trkpt lat="43.01009" lon="1.49999">
        <ele>477</ele>
        <time>2022-09-03T12:09:45Z</time>
      </trkpt>
      <trkpt lat="43.01" lon="1.49952">
        <ele>476.4</ele>
        <time>2022-09-03T12:09:52Z</time>
      </trkpt>
      <trkpt lat="43.00989" lon="1.49905">
        <ele>475.8</ele>
        <time>2022-09-03T12:09:59Z</time>
      </trkpt>
      <trkpt lat="43.00987" lon="1.49898">
        <ele>475.6</ele>
        <time>2022-09-03T12:10:00Z</time>
      </trkpt>
      <trkpt lat="43.00983" lon="1.49884">
        <ele>475.6</ele>
        <time>2022-09-03T12:10:02Z</time>
      </trkpt>
      <trkpt lat="43.00969" lon="1.49833">
        <ele>475.2</ele>
        <time>2022-09-03T12:10:09Z</time>
      </trkpt>
      <trkpt lat="43.00963" lon="1.49806">
        <ele>474.6</ele>
        <time>2022-09-03T12:10:13Z</time>
      </trkpt>
      <trkpt lat="43.00957" lon="1.49786">
        <ele>474.4</ele>
        <time>2022-09-03T12:10:16Z</time>
      </trkpt>
      <trkpt lat="43.00943" lon="1.49727">
        <ele>474</ele>
        <time>2022-09-03T12:10:24Z</time>
      </trkpt>
      <trkpt lat="43.00939" lon="1.49705">
        <ele>473.6</ele>
        <time>2022-09-03T12:10:27Z</time>
      </trkpt>
      <trkpt lat="43.00936" lon="1.49681">
        <ele>473.2</ele>
        <time>2022-09-03T12:10:30Z</time>
      </trkpt>
      <trkpt lat="43.00931" lon="1.49626">
        <ele>472.4</ele>
        <time>2022-09-03T12:10:37Z</time>
      </trkpt>
      <trkpt lat="43.0093" lon="1.49589">
        <ele>472</ele>
        <time>2022-09-03T12:10:42Z</time>
      </trkpt>
      <trkpt lat="43.00929" lon="1.49574">
        <ele>471.8</ele>
        <time>2022-09-03T12:10:44Z</time>
      </trkpt>
      <trkpt lat="43.0093" lon="1.4952">
        <ele>471.4</ele>
        <time>2022-09-03T12:10:51Z</time>
      </trkpt>
      <trkpt lat="43.00934" lon="1.49457">
        <ele>470.4</ele>
        <time>2022-09-03T12:10:59Z</time>
      </trkpt>
      <trkpt lat="43.00935" lon="1.49442">
        <ele>470.4</ele>
        <time>2022-09-03T12:11:01Z</time>
      </trkpt>
      <trkpt lat="43.00938" lon="1.49375">
        <ele>470</ele>
        <time>2022-09-03T12:11:10Z</time>
      </trkpt>
      <trkpt lat="43.0094" lon="1.49346">
        <ele>469.4</ele>
        <time>2022-09-03T12:11:14Z</time>
      </trkpt>
      <trkpt lat="43.00943" lon="1.4931">
        <ele>469</ele>
        <time>2022-09-03T12:11:19Z</time>
      </trkpt>
      <trkpt lat="43.00946" lon="1.49252">
        <ele>468.6</ele>
        <time>2022-09-03T12:11:26Z</time>
      </trkpt>
      <trkpt lat="43.00948" lon="1.49217">
        <ele>468.2</ele>
        <time>2022-09-03T12:11:30Z</time>
      </trkpt>
      <trkpt lat="43.00951" lon="1.49192">
        <ele>468</ele>
        <time>2022-09-03T12:11:33Z</time>
      </trkpt>
      <trkpt lat="43.00954" lon="1.49146">
        <ele>467.2</ele>
        <time>2022-09-03T12:11:39Z</time>
      </trkpt>
      <trkpt lat="43.00954" lon="1.49138">
        <ele>467.2</ele>
        <time>2022-09-03T12:11:40Z</time>
      </trkpt>
      <trkpt lat="43.00958" lon="1.49081">
        <ele>466.4</ele>
        <time>2022-09-03T12:11:47Z</time>
      </trkpt>
      <trkpt lat="43.00958" lon="1.49065">
        <ele>466.2</ele>
        <time>2022-09-03T12:11:49Z</time>
      </trkpt>
      <trkpt lat="43.00962" lon="1.49007">
        <ele>465.4</ele>
        <time>2022-09-03T12:11:56Z</time>
      </trkpt>
      <trkpt lat="43.00963" lon="1.48991">
        <ele>465</ele>
        <time>2022-09-03T12:11:58Z</time>
      </trkpt>
      <trkpt lat="43.00966" lon="1.48938">
        <ele>464.6</ele>
        <time>2022-09-03T12:12:05Z</time>
      </trkpt>
      <trkpt lat="43.00974" lon="1.48874">
        <ele>464.2</ele>
        <time>2022-09-03T12:12:13Z</time>
      </trkpt>
      <trkpt lat="43.00977" lon="1.48852">
        <ele>464</ele>
        <time>2022-09-03T12:12:16Z</time>
      </trkpt>
      <trkpt lat="43.00986" lon="1.48807">
        <ele>463.2</ele>
        <time>2022-09-03T12:12:22Z</time>
      </trkpt>
      <trkpt lat="43.00996" lon="1.48762">
        <ele>462.8</ele>
        <time>2022-09-03T12:12:28Z</time>
      </trkpt>
      <trkpt lat="43.00997" lon="1.48754">
        <ele>462.8</ele>
        <time>2022-09-03T12:12:29Z</time>
      </trkpt>
      <trkpt lat="43.01007" lon="1.48715">
        <ele>462.4</ele>
        <time>2022-09-03T12:12:35Z</time>
      </trkpt>
      <trkpt lat="43.01012" lon="1.48697">
        <ele>461.8</ele>
        <time>2022-09-03T12:12:38Z</time>
      </trkpt>
      <trkpt lat="43.01015" lon="1.48686">
        <ele>461.6</ele>
        <time>2022-09-03T12:12:40Z</time>
      </trkpt>
      <trkpt lat="43.01016" lon="1.48679">
        <ele>461.4</ele>
        <time>2022-09-03T12:12:41Z</time>
      </trkpt>
      <trkpt lat="43.0102" lon="1.48667">
        <ele>461.2</ele>
        <time>2022-09-03T12:12:43Z</time>
      </trkpt>
      <trkpt lat="43.01026" lon="1.48637">
        <ele>461.4</ele>
        <time>2022-09-03T12:12:47Z</time>
      </trkpt>
      <trkpt lat="43.01031" lon="1.48601">
        <ele>460.8</ele>
        <time>2022-09-03T12:12:52Z</time>
      </trkpt>
      <trkpt lat="43.01041" lon="1.48545">
        <ele>460</ele>
        <time>2022-09-03T12:13:00Z</time>
      </trkpt>
      <trkpt lat="43.01054" lon="1.48486">
        <ele>459.6</ele>
        <time>2022-09-03T12:13:08Z</time>
      </trkpt>
      <trkpt lat="43.01073" lon="1.48434">
        <ele>459</ele>
        <time>2022-09-03T12:13:15Z</time>
      </trkpt>
      <trkpt lat="43.01094" lon="1.4839">
        <ele>459</ele>
        <time>2022-09-03T12:13:21Z</time>
      </trkpt>
      <trkpt lat="43.01106" lon="1.48371">
        <ele>458.4</ele>
        <time>2022-09-03T12:13:24Z</time>
      </trkpt>
      <trkpt lat="43.01115" lon="1.48358">
        <ele>458</ele>
        <time>2022-09-03T12:13:26Z</time>
      </trkpt>
      <trkpt lat="43.01141" lon="1.48322">
        <ele>458</ele>
        <time>2022-09-03T12:13:32Z</time>
      </trkpt>
      <trkpt lat="43.01165" lon="1.48293">
        <ele>457.2</ele>
        <time>2022-09-03T12:13:37Z</time>
      </trkpt>
      <trkpt lat="43.01175" lon="1.48282">
        <ele>457</ele>
        <time>2022-09-03T12:13:39Z</time>
      </trkpt>
      <trkpt lat="43.01205" lon="1.48242">
        <ele>456.6</ele>
        <time>2022-09-03T12:13:46Z</time>
      </trkpt>
      <trkpt lat="43.0122" lon="1.48218">
        <ele>456.2</ele>
        <time>2022-09-03T12:13:50Z</time>
      </trkpt>
      <trkpt lat="43.0123" lon="1.48201">
        <ele>455.8</ele>
        <time>2022-09-03T12:13:53Z</time>
      </trkpt>
      <trkpt lat="43.01249" lon="1.48157">
        <ele>455.4</ele>
        <time>2022-09-03T12:14:00Z</time>
      </trkpt>
      <trkpt lat="43.01254" lon="1.48144">
        <ele>455.2</ele>
        <time>2022-09-03T12:14:02Z</time>
      </trkpt>
      <trkpt lat="43.01261" lon="1.48123">
        <ele>455</ele>
        <time>2022-09-03T12:14:05Z</time>
      </trkpt>
      <trkpt lat="43.01264" lon="1.48115">
        <ele>455</ele>
        <time>2022-09-03T12:14:06Z</time>
      </trkpt>
      <trkpt lat="43.01273" lon="1.48067">
        <ele>454.8</ele>
        <time>2022-09-03T12:14:12Z</time>
      </trkpt>
      <trkpt lat="43.01277" lon="1.48034">
        <ele>454.2</ele>
        <time>2022-09-03T12:14:16Z</time>
      </trkpt>
      <trkpt lat="43.01279" lon="1.47991">
        <ele>454.2</ele>
        <time>2022-09-03T12:14:21Z</time>
      </trkpt>
      <trkpt lat="43.01274" lon="1.47913">
        <ele>453.2</ele>
        <time>2022-09-03T12:14:30Z</time>
      </trkpt>
      <trkpt lat="43.01274" lon="1.47905">
        <ele>453.2</ele>
        <time>2022-09-03T12:14:31Z</time>
      </trkpt>
      <trkpt lat="43.01267" lon="1.47825">
        <ele>452.4</ele>
        <time>2022-09-03T12:14:40Z</time>
      </trkpt>
      <trkpt lat="43.01266" lon="1.47809">
        <ele>452</ele>
        <time>2022-09-03T12:14:42Z</time>
      </trkpt>
      <trkpt lat="43.0126" lon="1.47762">
        <ele>451.4</ele>
        <time>2022-09-03T12:14:48Z</time>
      </trkpt>
      <trkpt lat="43.01248" lon="1.477">
        <ele>450.8</ele>
        <time>2022-09-03T12:14:56Z</time>
      </trkpt>
      <trkpt lat="43.01232" lon="1.47652">
        <ele>450.2</ele>
        <time>2022-09-03T12:15:02Z</time>
      </trkpt>
      <trkpt lat="43.01211" lon="1.47605">
        <ele>450</ele>
        <time>2022-09-03T12:15:09Z</time>
      </trkpt>
      <trkpt lat="43.01208" lon="1.47598">
        <ele>449.8</ele>
        <time>2022-09-03T12:15:10Z</time>
      </trkpt>
      <trkpt lat="43.01197" lon="1.47579">
        <ele>449.4</ele>
        <time>2022-09-03T12:15:14Z</time>
      </trkpt>
      <trkpt lat="43.01173" lon="1.47545">
        <ele>449</ele>
        <time>2022-09-03T12:15:21Z</time>
      </trkpt>
      <trkpt lat="43.01169" lon="1.47539">
        <ele>448.8</ele>
        <time>2022-09-03T12:15:22Z</time>
      </trkpt>
      <trkpt lat="43.01165" lon="1.47534">
        <ele>448.6</ele>
        <time>2022-09-03T12:15:23Z</time>
      </trkpt>
      <trkpt lat="43.01148" lon="1.47514">
        <ele>448.2</ele>
        <time>2022-09-03T12:15:27Z</time>
      </trkpt>
      <trkpt lat="43.01116" lon="1.47477">
        <ele>447.6</ele>
        <time>2022-09-03T12:15:34Z</time>
      </trkpt>
      <trkpt lat="43.01084" lon="1.47438">
        <ele>446.8</ele>
        <time>2022-09-03T12:15:41Z</time>
      </trkpt>
      <trkpt lat="43.01074" lon="1.47427">
        <ele>446.6</ele>
        <time>2022-09-03T12:15:43Z</time>
      </trkpt>
      <trkpt lat="43.01052" lon="1.474">
        <ele>446.4</ele>
        <time>2022-09-03T12:15:48Z</time>
      </trkpt>
      <trkpt lat="43.01021" lon="1.47352">
        <ele>445.8</ele>
        <time>2022-09-03T12:15:56Z</time>
      </trkpt>
      <trkpt lat="43.01015" lon="1.47339">
        <ele>445.6</ele>
        <time>2022-09-03T12:15:58Z</time>
      </trkpt>
      <trkpt lat="43.00998" lon="1.47295">
        <ele>445.4</ele>
        <time>2022-09-03T12:16:04Z</time>
      </trkpt>
      <trkpt lat="43.00982" lon="1.47233">
        <ele>445</ele>
        <time>2022-09-03T12:16:12Z</time>
      </trkpt>
      <trkpt lat="43.00978" lon="1.47208">
        <ele>444.6</ele>
        <time>2022-09-03T12:16:15Z</time>
      </trkpt>
      <trkpt lat="43.00975" lon="1.4717">
        <ele>443.8</ele>
        <time>2022-09-03T12:16:20Z</time>
      </trkpt>
      <trkpt lat="43.00974" lon="1.4714">
        <ele>443.4</ele>
        <time>2022-09-03T12:16:24Z</time>
      </trkpt>
      <trkpt lat="43.00975" lon="1.4711">
        <ele>443.4</ele>
        <time>2022-09-03T12:16:28Z</time>
      </trkpt>
      <trkpt lat="43.00981" lon="1.47064">
        <ele>443</ele>
        <time>2022-09-03T12:16:34Z</time>
      </trkpt>
      <trkpt lat="43.00983" lon="1.47056">
        <ele>442.8</ele>
        <time>2022-09-03T12:16:35Z</time>
      </trkpt>
      <trkpt lat="43.0099" lon="1.47018">
        <ele>442.6</ele>
        <time>2022-09-03T12:16:40Z</time>
      </trkpt>
      <trkpt lat="43.00992" lon="1.47003">
        <ele>442.4</ele>
        <time>2022-09-03T12:16:42Z</time>
      </trkpt>
      <trkpt lat="43.00997" lon="1.46974">
        <ele>441.8</ele>
        <time>2022-09-03T12:16:46Z</time>
      </trkpt>
      <trkpt lat="43.01006" lon="1.46929">
        <ele>441.4</ele>
        <time>2022-09-03T12:16:52Z</time>
      </trkpt>
      <trkpt lat="43.01009" lon="1.46904">
        <ele>441.2</ele>
        <time>2022-09-03T12:16:55Z</time>
      </trkpt>
      <trkpt lat="43.01015" lon="1.46866">
        <ele>440.6</ele>
        <time>2022-09-03T12:17:00Z</time>
      </trkpt>
      <trkpt lat="43.01018" lon="1.46852">
        <ele>440.2</ele>
        <time>2022-09-03T12:17:02Z</time>
      </trkpt>
      <trkpt lat="43.01026" lon="1.46806">
        <ele>439.6</ele>
        <time>2022-09-03T12:17:08Z</time>
      </trkpt>
      <trkpt lat="43.01038" lon="1.4675">
        <ele>439.2</ele>
        <time>2022-09-03T12:17:15Z</time>
      </trkpt>
      <trkpt lat="43.01041" lon="1.46743">
        <ele>439</ele>
        <time>2022-09-03T12:17:16Z</time>
      </trkpt>
      <trkpt lat="43.01043" lon="1.46736">
        <ele>439</ele>
        <time>2022-09-03T12:17:17Z</time>
      </trkpt>
      <trkpt lat="43.01056" lon="1.46694">
        <ele>438.6</ele>
        <time>2022-09-03T12:17:23Z</time>
      </trkpt>
      <trkpt lat="43.01065" lon="1.46668">
        <ele>438.2</ele>
        <time>2022-09-03T12:17:27Z</time>
      </trkpt>
      <trkpt lat="43.01071" lon="1.46649">
        <ele>437.8</ele>
        <time>2022-09-03T12:17:30Z</time>
      </trkpt>
      <trkpt lat="43.01086" lon="1.46607">
        <ele>437.2</ele>
        <time>2022-09-03T12:17:37Z</time>
      </trkpt>
      <trkpt lat="43.01088" lon="1.466">
        <ele>437</ele>
        <time>2022-09-03T12:17:38Z</time>
      </trkpt>
      <trkpt lat="43.01103" lon="1.46556">
        <ele>436.4</ele>
        <time>2022-09-03T12:17:45Z</time>
      </trkpt>
      <trkpt lat="43.01114" lon="1.46513">
        <ele>436</ele>
        <time>2022-09-03T12:17:51Z</time>
      </trkpt>
      <trkpt lat="43.01123" lon="1.4646">
        <ele>435.8</ele>
        <time>2022-09-03T12:17:58Z</time>
      </trkpt>
      <trkpt lat="43.01129" lon="1.46401">
        <ele>435</ele>
        <time>2022-09-03T12:18:05Z</time>
      </trkpt>
      <trkpt lat="43.01131" lon="1.46344">
        <ele>434.4</ele>
        <time>2022-09-03T12:18:12Z</time>
      </trkpt>
      <trkpt lat="43.01131" lon="1.46326">
        <ele>433.8</ele>
        <time>2022-09-03T12:18:14Z</time>
      </trkpt>
      <trkpt lat="43.01132" lon="1.46299">
        <ele>433.8</ele>
        <time>2022-09-03T12:18:17Z</time>
      </trkpt>
      <trkpt lat="43.01131" lon="1.46291">
        <ele>433.8</ele>
        <time>2022-09-03T12:18:18Z</time>
      </trkpt>
      <trkpt lat="43.01131" lon="1.46253">
        <ele>433.2</ele>
        <time>2022-09-03T12:18:22Z</time>
      </trkpt>
      <trkpt lat="43.01133" lon="1.46206">
        <ele>432.8</ele>
        <time>2022-09-03T12:18:27Z</time>
      </trkpt>
      <trkpt lat="43.01133" lon="1.46197">
        <ele>432.6</ele>
        <time>2022-09-03T12:18:28Z</time>
      </trkpt>
      <trkpt lat="43.01132" lon="1.46115">
        <ele>431.6</ele>
        <time>2022-09-03T12:18:36Z</time>
      </trkpt>
      <trkpt lat="43.01131" lon="1.46105">
        <ele>431.8</ele>
        <time>2022-09-03T12:18:37Z</time>
      </trkpt>
      <trkpt lat="43.01131" lon="1.46096">
        <ele>432</ele>
        <time>2022-09-03T12:18:38Z</time>
      </trkpt>
      <trkpt lat="43.01129" lon="1.46018">
        <ele>430.6</ele>
        <time>2022-09-03T12:18:47Z</time>
      </trkpt>
      <trkpt lat="43.0113" lon="1.45963">
        <ele>429.8</ele>
        <time>2022-09-03T12:18:54Z</time>
      </trkpt>
      <trkpt lat="43.01129" lon="1.45947">
        <ele>429.6</ele>
        <time>2022-09-03T12:18:56Z</time>
      </trkpt>
      <trkpt lat="43.01128" lon="1.45918">
        <ele>429.2</ele>
        <time>2022-09-03T12:19:00Z</time>
      </trkpt>
      <trkpt lat="43.01128" lon="1.4591">
        <ele>429</ele>
        <time>2022-09-03T12:19:01Z</time>
      </trkpt>
      <trkpt lat="43.01127" lon="1.45867">
        <ele>428.6</ele>
        <time>2022-09-03T12:19:07Z</time>
      </trkpt>
      <trkpt lat="43.01128" lon="1.45861">
        <ele>428.6</ele>
        <time>2022-09-03T12:19:08Z</time>
      </trkpt>
      <trkpt lat="43.01128" lon="1.45842">
        <ele>428.4</ele>
        <time>2022-09-03T12:19:11Z</time>
      </trkpt>
      <trkpt lat="43.01129" lon="1.4583">
        <ele>428.4</ele>
        <time>2022-09-03T12:19:13Z</time>
      </trkpt>
      <trkpt lat="43.01131" lon="1.45811">
        <ele>428.2</ele>
        <time>2022-09-03T12:19:16Z</time>
      </trkpt>
      <trkpt lat="43.01133" lon="1.4579">
        <ele>428</ele>
        <time>2022-09-03T12:19:20Z</time>
      </trkpt>
      <trkpt lat="43.01137" lon="1.45762">
        <ele>427.8</ele>
        <time>2022-09-03T12:19:26Z</time>
      </trkpt>
      <trkpt lat="43.01139" lon="1.4575">
        <ele>427.6</ele>
        <time>2022-09-03T12:19:29Z</time>
      </trkpt>
      <trkpt lat="43.0114" lon="1.4574">
        <ele>427.4</ele>
        <time>2022-09-03T12:19:32Z</time>
      </trkpt>
      <trkpt lat="43.01167" lon="1.45659">
        <ele>426.6</ele>
        <time>2022-09-03T12:19:45Z</time>
      </trkpt>
      <trkpt lat="43.01168" lon="1.45652">
        <ele>426.6</ele>
        <time>2022-09-03T12:19:48Z</time>
      </trkpt>
      <trkpt lat="43.01168" lon="1.45651">
        <ele>426.4</ele>
        <time>2022-09-03T12:19:49Z</time>
      </trkpt>
      <trkpt lat="43.01174" lon="1.45637">
        <ele>426.6</ele>
        <time>2022-09-03T12:22:31Z</time>
      </trkpt>
      <trkpt lat="43.01175" lon="1.45636">
        <ele>426.6</ele>
        <time>2022-09-03T12:22:32Z</time>
      </trkpt>
      <trkpt lat="43.01178" lon="1.4563">
        <ele>426.4</ele>
        <time>2022-09-03T12:22:35Z</time>
      </trkpt>
      <trkpt lat="43.01183" lon="1.45619">
        <ele>426.4</ele>
        <time>2022-09-03T12:22:39Z</time>
      </trkpt>
      <trkpt lat="43.01196" lon="1.45597">
        <ele>426.2</ele>
        <time>2022-09-03T12:22:45Z</time>
      </trkpt>
      <trkpt lat="43.01221" lon="1.45564">
        <ele>425.8</ele>
        <time>2022-09-03T12:22:53Z</time>
      </trkpt>
      <trkpt lat="43.01244" lon="1.45536">
        <ele>425.4</ele>
        <time>2022-09-03T12:22:59Z</time>
      </trkpt>
      <trkpt lat="43.01248" lon="1.4553">
        <ele>425.4</ele>
        <time>2022-09-03T12:23:00Z</time>
      </trkpt>
      <trkpt lat="43.01268" lon="1.45503">
        <ele>424.4</ele>
        <time>2022-09-03T12:23:06Z</time>
      </trkpt>
      <trkpt lat="43.0129" lon="1.45474">
        <ele>424.4</ele>
        <time>2022-09-03T12:23:12Z</time>
      </trkpt>
      <trkpt lat="43.01293" lon="1.4547">
        <ele>424.4</ele>
        <time>2022-09-03T12:23:13Z</time>
      </trkpt>
      <trkpt lat="43.013" lon="1.4546">
        <ele>424.4</ele>
        <time>2022-09-03T12:23:15Z</time>
      </trkpt>
      <trkpt lat="43.01303" lon="1.45455">
        <ele>424.4</ele>
        <time>2022-09-03T12:23:16Z</time>
      </trkpt>
      <trkpt lat="43.01315" lon="1.45432">
        <ele>424</ele>
        <time>2022-09-03T12:23:20Z</time>
      </trkpt>
      <trkpt lat="43.0133" lon="1.45395">
        <ele>423.2</ele>
        <time>2022-09-03T12:23:26Z</time>
      </trkpt>
      <trkpt lat="43.01343" lon="1.45359">
        <ele>422.8</ele>
        <time>2022-09-03T12:23:32Z</time>
      </trkpt>
      <trkpt lat="43.01354" lon="1.4532">
        <ele>422.6</ele>
        <time>2022-09-03T12:23:38Z</time>
      </trkpt>
      <trkpt lat="43.01355" lon="1.45313">
        <ele>422.8</ele>
        <time>2022-09-03T12:23:39Z</time>
      </trkpt>
      <trkpt lat="43.0136" lon="1.45291">
        <ele>422.6</ele>
        <time>2022-09-03T12:23:42Z</time>
      </trkpt>
      <trkpt lat="43.01362" lon="1.45274">
        <ele>422.6</ele>
        <time>2022-09-03T12:23:44Z</time>
      </trkpt>
      <trkpt lat="43.01367" lon="1.45219">
        <ele>422.2</ele>
        <time>2022-09-03T12:23:50Z</time>
      </trkpt>
      <trkpt lat="43.01367" lon="1.45183">
        <ele>422</ele>
        <time>2022-09-03T12:23:54Z</time>
      </trkpt>
      <trkpt lat="43.01364" lon="1.45139">
        <ele>421.6</ele>
        <time>2022-09-03T12:23:59Z</time>
      </trkpt>
      <trkpt lat="43.01359" lon="1.45095">
        <ele>421</ele>
        <time>2022-09-03T12:24:04Z</time>
      </trkpt>
      <trkpt lat="43.01352" lon="1.45023">
        <ele>420</ele>
        <time>2022-09-03T12:24:12Z</time>
      </trkpt>
      <trkpt lat="43.01351" lon="1.45015">
        <ele>420</ele>
        <time>2022-09-03T12:24:13Z</time>
      </trkpt>
      <trkpt lat="43.01347" lon="1.44966">
        <ele>419.4</ele>
        <time>2022-09-03T12:24:19Z</time>
      </trkpt>
      <trkpt lat="43.01342" lon="1.44925">
        <ele>419</ele>
        <time>2022-09-03T12:24:24Z</time>
      </trkpt>
      <trkpt lat="43.01339" lon="1.44909">
        <ele>418.8</ele>
        <time>2022-09-03T12:24:26Z</time>
      </trkpt>
      <trkpt lat="43.01334" lon="1.44848">
        <ele>418</ele>
        <time>2022-09-03T12:24:33Z</time>
      </trkpt>
      <trkpt lat="43.01334" lon="1.44839">
        <ele>417.8</ele>
        <time>2022-09-03T12:24:34Z</time>
      </trkpt>
      <trkpt lat="43.01332" lon="1.44813">
        <ele>417.6</ele>
        <time>2022-09-03T12:24:37Z</time>
      </trkpt>
      <trkpt lat="43.01329" lon="1.44786">
        <ele>417.2</ele>
        <time>2022-09-03T12:24:40Z</time>
      </trkpt>
      <trkpt lat="43.01325" lon="1.44741">
        <ele>416.8</ele>
        <time>2022-09-03T12:24:45Z</time>
      </trkpt>
      <trkpt lat="43.01322" lon="1.44707">
        <ele>416.2</ele>
        <time>2022-09-03T12:24:49Z</time>
      </trkpt>
      <trkpt lat="43.01318" lon="1.44663">
        <ele>415.8</ele>
        <time>2022-09-03T12:24:55Z</time>
      </trkpt>
      <trkpt lat="43.01313" lon="1.44606">
        <ele>415</ele>
        <time>2022-09-03T12:25:03Z</time>
      </trkpt>
      <trkpt lat="43.01313" lon="1.446">
        <ele>415</ele>
        <time>2022-09-03T12:25:04Z</time>
      </trkpt>
      <trkpt lat="43.01312" lon="1.44593">
        <ele>415</ele>
        <time>2022-09-03T12:25:05Z</time>
      </trkpt>
      <trkpt lat="43.01308" lon="1.44559">
        <ele>414.8</ele>
        <time>2022-09-03T12:25:10Z</time>
      </trkpt>
      <trkpt lat="43.01307" lon="1.44551">
        <ele>414.6</ele>
        <time>2022-09-03T12:25:11Z</time>
      </trkpt>
      <trkpt lat="43.01304" lon="1.44513">
        <ele>414.2</ele>
        <time>2022-09-03T12:25:16Z</time>
      </trkpt>
      <trkpt lat="43.01299" lon="1.44462">
        <ele>413.8</ele>
        <time>2022-09-03T12:25:22Z</time>
      </trkpt>
      <trkpt lat="43.01297" lon="1.44435">
        <ele>413.6</ele>
        <time>2022-09-03T12:25:25Z</time>
      </trkpt>
      <trkpt lat="43.01292" lon="1.44374">
        <ele>412.8</ele>
        <time>2022-09-03T12:25:32Z</time>
      </trkpt>
      <trkpt lat="43.01292" lon="1.44365">
        <ele>412.6</ele>
        <time>2022-09-03T12:25:33Z</time>
      </trkpt>
      <trkpt lat="43.0129" lon="1.44305">
        <ele>412</ele>
        <time>2022-09-03T12:25:40Z</time>
      </trkpt>
      <trkpt lat="43.01292" lon="1.44259">
        <ele>412</ele>
        <time>2022-09-03T12:25:45Z</time>
      </trkpt>
      <trkpt lat="43.01293" lon="1.4425">
        <ele>411.8</ele>
        <time>2022-09-03T12:25:46Z</time>
      </trkpt>
      <trkpt lat="43.01296" lon="1.44222">
        <ele>411.6</ele>
        <time>2022-09-03T12:25:49Z</time>
      </trkpt>
      <trkpt lat="43.01303" lon="1.4417">
        <ele>410.8</ele>
        <time>2022-09-03T12:25:55Z</time>
      </trkpt>
      <trkpt lat="43.01305" lon="1.44153">
        <ele>410.6</ele>
        <time>2022-09-03T12:25:57Z</time>
      </trkpt>
      <trkpt lat="43.01313" lon="1.44105">
        <ele>409.8</ele>
        <time>2022-09-03T12:26:03Z</time>
      </trkpt>
      <trkpt lat="43.0132" lon="1.44064">
        <ele>409.4</ele>
        <time>2022-09-03T12:26:08Z</time>
      </trkpt>
      <trkpt lat="43.01324" lon="1.44038">
        <ele>409.4</ele>
        <time>2022-09-03T12:26:11Z</time>
      </trkpt>
      <trkpt lat="43.0133" lon="1.43988">
        <ele>408.8</ele>
        <time>2022-09-03T12:26:17Z</time>
      </trkpt>
      <trkpt lat="43.01333" lon="1.43951">
        <ele>408.4</ele>
        <time>2022-09-03T12:26:22Z</time>
      </trkpt>
      <trkpt lat="43.01335" lon="1.43938">
        <ele>408.2</ele>
        <time>2022-09-03T12:26:24Z</time>
      </trkpt>
      <trkpt lat="43.01335" lon="1.4392">
        <ele>407.8</ele>
        <time>2022-09-03T12:26:27Z</time>
      </trkpt>
      <trkpt lat="43.01333" lon="1.4391">
        <ele>407.8</ele>
        <time>2022-09-03T12:26:29Z</time>
      </trkpt>
      <trkpt lat="43.01333" lon="1.43891">
        <ele>407.6</ele>
        <time>2022-09-03T12:26:32Z</time>
      </trkpt>
      <trkpt lat="43.01335" lon="1.43884">
        <ele>407.4</ele>
        <time>2022-09-03T12:26:33Z</time>
      </trkpt>
      <trkpt lat="43.01337" lon="1.43869">
        <ele>407.2</ele>
        <time>2022-09-03T12:26:35Z</time>
      </trkpt>
      <trkpt lat="43.01338" lon="1.43862">
        <ele>407.2</ele>
        <time>2022-09-03T12:26:36Z</time>
      </trkpt>
      <trkpt lat="43.01339" lon="1.43842">
        <ele>407.4</ele>
        <time>2022-09-03T12:26:39Z</time>
      </trkpt>
      <trkpt lat="43.01343" lon="1.43801">
        <ele>407.2</ele>
        <time>2022-09-03T12:26:45Z</time>
      </trkpt>
      <trkpt lat="43.01344" lon="1.43787">
        <ele>406.8</ele>
        <time>2022-09-03T12:26:47Z</time>
      </trkpt>
      <trkpt lat="43.01346" lon="1.43747">
        <ele>406.6</ele>
        <time>2022-09-03T12:26:53Z</time>
      </trkpt>
      <trkpt lat="43.01347" lon="1.43741">
        <ele>406.6</ele>
        <time>2022-09-03T12:26:54Z</time>
      </trkpt>
      <trkpt lat="43.0135" lon="1.43683">
        <ele>406.4</ele>
        <time>2022-09-03T12:27:02Z</time>
      </trkpt>
      <trkpt lat="43.01351" lon="1.43668">
        <ele>406</ele>
        <time>2022-09-03T12:27:04Z</time>
      </trkpt>
      <trkpt lat="43.01355" lon="1.43625">
        <ele>405.8</ele>
        <time>2022-09-03T12:27:10Z</time>
      </trkpt>
      <trkpt lat="43.01356" lon="1.43602">
        <ele>405.4</ele>
        <time>2022-09-03T12:27:13Z</time>
      </trkpt>
      <trkpt lat="43.01357" lon="1.43589">
        <ele>405.2</ele>
        <time>2022-09-03T12:27:15Z</time>
      </trkpt>
      <trkpt lat="43.01357" lon="1.43576">
        <ele>405</ele>
        <time>2022-09-03T12:27:17Z</time>
      </trkpt>
      <trkpt lat="43.01357" lon="1.43554">
        <ele>404.8</ele>
        <time>2022-09-03T12:27:20Z</time>
      </trkpt>
      <trkpt lat="43.01357" lon="1.43531">
        <ele>404.6</ele>
        <time>2022-09-03T12:27:23Z</time>
      </trkpt>
      <trkpt lat="43.01359" lon="1.43509">
        <ele>404.2</ele>
        <time>2022-09-03T12:27:26Z</time>
      </trkpt>
      <trkpt lat="43.01361" lon="1.4348">
        <ele>403.8</ele>
        <time>2022-09-03T12:27:30Z</time>
      </trkpt>
      <trkpt lat="43.01362" lon="1.43473">
        <ele>403.8</ele>
        <time>2022-09-03T12:27:31Z</time>
      </trkpt>
      <trkpt lat="43.01364" lon="1.43434">
        <ele>403.4</ele>
        <time>2022-09-03T12:27:37Z</time>
      </trkpt>
      <trkpt lat="43.01365" lon="1.43427">
        <ele>403.4</ele>
        <time>2022-09-03T12:27:38Z</time>
      </trkpt>
      <trkpt lat="43.01367" lon="1.43403">
        <ele>403.2</ele>
        <time>2022-09-03T12:27:42Z</time>
      </trkpt>
      <trkpt lat="43.01372" lon="1.43353">
        <ele>403.2</ele>
        <time>2022-09-03T12:27:49Z</time>
      </trkpt>
      <trkpt lat="43.01379" lon="1.43314">
        <ele>403.2</ele>
        <time>2022-09-03T12:27:55Z</time>
      </trkpt>
      <trkpt lat="43.0138" lon="1.43308">
        <ele>403.2</ele>
        <time>2022-09-03T12:27:56Z</time>
      </trkpt>
      <trkpt lat="43.01386" lon="1.43293">
        <ele>403.2</ele>
        <time>2022-09-03T12:27:59Z</time>
      </trkpt>
      <trkpt lat="43.01395" lon="1.43273">
        <ele>403</ele>
        <time>2022-09-03T12:28:04Z</time>
      </trkpt>
      <trkpt lat="43.01402" lon="1.43253">
        <ele>403.2</ele>
        <time>2022-09-03T12:28:10Z</time>
      </trkpt>
      <trkpt lat="43.01406" lon="1.43241">
        <ele>402.8</ele>
        <time>2022-09-03T12:28:13Z</time>
      </trkpt>
      <trkpt lat="43.01409" lon="1.43233">
        <ele>403</ele>
        <time>2022-09-03T12:28:15Z</time>
      </trkpt>
      <trkpt lat="43.01419" lon="1.43205">
        <ele>402.8</ele>
        <time>2022-09-03T12:28:22Z</time>
      </trkpt>
      <trkpt lat="43.01429" lon="1.43172">
        <ele>403</ele>
        <time>2022-09-03T12:28:31Z</time>
      </trkpt>
      <trkpt lat="43.01444" lon="1.43141">
        <ele>403.8</ele>
        <time>2022-09-03T12:28:39Z</time>
      </trkpt>
      <trkpt lat="43.0146" lon="1.43114">
        <ele>404</ele>
        <time>2022-09-03T12:28:45Z</time>
      </trkpt>
      <trkpt lat="43.01465" lon="1.43105">
        <ele>404</ele>
        <time>2022-09-03T12:28:47Z</time>
      </trkpt>
      <trkpt lat="43.01488" lon="1.43062">
        <ele>403.8</ele>
        <time>2022-09-03T12:28:56Z</time>
      </trkpt>
      <trkpt lat="43.01507" lon="1.43029">
        <ele>403.8</ele>
        <time>2022-09-03T12:29:03Z</time>
      </trkpt>
      <trkpt lat="43.01526" lon="1.42986">
        <ele>403.8</ele>
        <time>2022-09-03T12:29:10Z</time>
      </trkpt>
      <trkpt lat="43.01549" lon="1.42929">
        <ele>403.4</ele>
        <time>2022-09-03T12:29:19Z</time>
      </trkpt>
      <trkpt lat="43.01567" lon="1.42895">
        <ele>403.4</ele>
        <time>2022-09-03T12:29:25Z</time>
      </trkpt>
      <trkpt lat="43.01573" lon="1.42884">
        <ele>403.4</ele>
        <time>2022-09-03T12:29:27Z</time>
      </trkpt>
      <trkpt lat="43.01597" lon="1.42841">
        <ele>403.2</ele>
        <time>2022-09-03T12:29:35Z</time>
      </trkpt>
      <trkpt lat="43.01603" lon="1.42831">
        <ele>403.2</ele>
        <time>2022-09-03T12:29:37Z</time>
      </trkpt>
      <trkpt lat="43.01614" lon="1.4281">
        <ele>403.2</ele>
        <time>2022-09-03T12:29:41Z</time>
      </trkpt>
      <trkpt lat="43.01621" lon="1.42795">
        <ele>402.8</ele>
        <time>2022-09-03T12:29:44Z</time>
      </trkpt>
      <trkpt lat="43.01636" lon="1.42761">
        <ele>402.6</ele>
        <time>2022-09-03T12:29:50Z</time>
      </trkpt>
      <trkpt lat="43.0165" lon="1.42724">
        <ele>402.2</ele>
        <time>2022-09-03T12:29:57Z</time>
      </trkpt>
      <trkpt lat="43.01654" lon="1.42706">
        <ele>401.8</ele>
        <time>2022-09-03T12:30:00Z</time>
      </trkpt>
      <trkpt lat="43.01658" lon="1.42688">
        <ele>401.4</ele>
        <time>2022-09-03T12:30:03Z</time>
      </trkpt>
      <trkpt lat="43.01666" lon="1.42644">
        <ele>401.4</ele>
        <time>2022-09-03T12:30:09Z</time>
      </trkpt>
      <trkpt lat="43.01672" lon="1.42606">
        <ele>400.8</ele>
        <time>2022-09-03T12:30:14Z</time>
      </trkpt>
      <trkpt lat="43.01676" lon="1.42586">
        <ele>401</ele>
        <time>2022-09-03T12:30:17Z</time>
      </trkpt>
      <trkpt lat="43.01677" lon="1.42574">
        <ele>400.8</ele>
        <time>2022-09-03T12:30:19Z</time>
      </trkpt>
      <trkpt lat="43.01681" lon="1.42555">
        <ele>400.2</ele>
        <time>2022-09-03T12:30:22Z</time>
      </trkpt>
      <trkpt lat="43.01685" lon="1.42535">
        <ele>400</ele>
        <time>2022-09-03T12:30:25Z</time>
      </trkpt>
      <trkpt lat="43.01687" lon="1.42523">
        <ele>399.8</ele>
        <time>2022-09-03T12:30:27Z</time>
      </trkpt>
      <trkpt lat="43.01688" lon="1.42517">
        <ele>399.6</ele>
        <time>2022-09-03T12:30:28Z</time>
      </trkpt>
      <trkpt lat="43.01696" lon="1.42473">
        <ele>399.2</ele>
        <time>2022-09-03T12:30:35Z</time>
      </trkpt>
      <trkpt lat="43.01698" lon="1.42467">
        <ele>399</ele>
        <time>2022-09-03T12:30:36Z</time>
      </trkpt>
      <trkpt lat="43.01701" lon="1.42455">
        <ele>399</ele>
        <time>2022-09-03T12:30:38Z</time>
      </trkpt>
      <trkpt lat="43.01707" lon="1.42443">
        <ele>398.6</ele>
        <time>2022-09-03T12:30:40Z</time>
      </trkpt>
      <trkpt lat="43.01728" lon="1.42402">
        <ele>398.4</ele>
        <time>2022-09-03T12:30:47Z</time>
      </trkpt>
      <trkpt lat="43.01754" lon="1.4236">
        <ele>397.8</ele>
        <time>2022-09-03T12:30:55Z</time>
      </trkpt>
      <trkpt lat="43.01769" lon="1.4234">
        <ele>397.6</ele>
        <time>2022-09-03T12:30:59Z</time>
      </trkpt>
      <trkpt lat="43.01781" lon="1.42327">
        <ele>397.4</ele>
        <time>2022-09-03T12:31:02Z</time>
      </trkpt>
      <trkpt lat="43.0181" lon="1.42298">
        <ele>396.8</ele>
        <time>2022-09-03T12:31:09Z</time>
      </trkpt>
      <trkpt lat="43.01831" lon="1.42278">
        <ele>396.6</ele>
        <time>2022-09-03T12:31:14Z</time>
      </trkpt>
      <trkpt lat="43.01839" lon="1.4227">
        <ele>396.4</ele>
        <time>2022-09-03T12:31:16Z</time>
      </trkpt>
      <trkpt lat="43.01878" lon="1.42232">
        <ele>395.6</ele>
        <time>2022-09-03T12:31:25Z</time>
      </trkpt>
      <trkpt lat="43.01895" lon="1.42209">
        <ele>395.6</ele>
        <time>2022-09-03T12:31:30Z</time>
      </trkpt>
      <trkpt lat="43.01902" lon="1.422">
        <ele>395.4</ele>
        <time>2022-09-03T12:31:32Z</time>
      </trkpt>
      <trkpt lat="43.01912" lon="1.42188">
        <ele>395.4</ele>
        <time>2022-09-03T12:31:35Z</time>
      </trkpt>
      <trkpt lat="43.01922" lon="1.42178">
        <ele>395.4</ele>
        <time>2022-09-03T12:31:38Z</time>
      </trkpt>
      <trkpt lat="43.01936" lon="1.42156">
        <ele>394.8</ele>
        <time>2022-09-03T12:31:43Z</time>
      </trkpt>
      <trkpt lat="43.01939" lon="1.42151">
        <ele>394.4</ele>
        <time>2022-09-03T12:31:44Z</time>
      </trkpt>
      <trkpt lat="43.01958" lon="1.4211">
        <ele>394</ele>
        <time>2022-09-03T12:31:51Z</time>
      </trkpt>
      <trkpt lat="43.01976" lon="1.42054">
        <ele>393.8</ele>
        <time>2022-09-03T12:31:59Z</time>
      </trkpt>
      <trkpt lat="43.0198" lon="1.4204">
        <ele>393.6</ele>
        <time>2022-09-03T12:32:01Z</time>
      </trkpt>
      <trkpt lat="43.01986" lon="1.4202">
        <ele>393.2</ele>
        <time>2022-09-03T12:32:04Z</time>
      </trkpt>
      <trkpt lat="43.01988" lon="1.42015">
        <ele>393</ele>
        <time>2022-09-03T12:32:05Z</time>
      </trkpt>
      <trkpt lat="43.02" lon="1.41974">
        <ele>392.4</ele>
        <time>2022-09-03T12:32:12Z</time>
      </trkpt>
      <trkpt lat="43.02009" lon="1.41944">
        <ele>392.2</ele>
        <time>2022-09-03T12:32:17Z</time>
      </trkpt>
      <trkpt lat="43.02011" lon="1.41933">
        <ele>392.2</ele>
        <time>2022-09-03T12:32:19Z</time>
      </trkpt>
      <trkpt lat="43.02012" lon="1.41928">
        <ele>392</ele>
        <time>2022-09-03T12:32:20Z</time>
      </trkpt>
      <trkpt lat="43.02015" lon="1.4191">
        <ele>391.6</ele>
        <time>2022-09-03T12:32:23Z</time>
      </trkpt>
      <trkpt lat="43.02017" lon="1.41893">
        <ele>391.2</ele>
        <time>2022-09-03T12:32:26Z</time>
      </trkpt>
      <trkpt lat="43.02018" lon="1.41887">
        <ele>391.2</ele>
        <time>2022-09-03T12:32:27Z</time>
      </trkpt>
      <trkpt lat="43.02018" lon="1.41881">
        <ele>391.2</ele>
        <time>2022-09-03T12:32:28Z</time>
      </trkpt>
      <trkpt lat="43.0202" lon="1.41863">
        <ele>390.8</ele>
        <time>2022-09-03T12:32:31Z</time>
      </trkpt>
      <trkpt lat="43.02022" lon="1.41839">
        <ele>390.8</ele>
        <time>2022-09-03T12:32:35Z</time>
      </trkpt>
      <trkpt lat="43.02023" lon="1.41819">
        <ele>390.6</ele>
        <time>2022-09-03T12:32:38Z</time>
      </trkpt>
      <trkpt lat="43.02024" lon="1.41791">
        <ele>390.4</ele>
        <time>2022-09-03T12:32:43Z</time>
      </trkpt>
      <trkpt lat="43.02025" lon="1.41775">
        <ele>390.2</ele>
        <time>2022-09-03T12:32:46Z</time>
      </trkpt>
      <trkpt lat="43.02022" lon="1.4176">
        <ele>390</ele>
        <time>2022-09-03T12:32:49Z</time>
      </trkpt>
      <trkpt lat="43.02014" lon="1.4172">
        <ele>389.6</ele>
        <time>2022-09-03T12:32:56Z</time>
      </trkpt>
      <trkpt lat="43.02005" lon="1.41678">
        <ele>389.4</ele>
        <time>2022-09-03T12:33:03Z</time>
      </trkpt>
      <trkpt lat="43.02001" lon="1.41659">
        <ele>389.2</ele>
        <time>2022-09-03T12:33:06Z</time>
      </trkpt>
      <trkpt lat="43.01991" lon="1.41629">
        <ele>389</ele>
        <time>2022-09-03T12:33:11Z</time>
      </trkpt>
      <trkpt lat="43.01984" lon="1.41612">
        <ele>388.8</ele>
        <time>2022-09-03T12:33:14Z</time>
      </trkpt>
      <trkpt lat="43.01978" lon="1.41595">
        <ele>388.4</ele>
        <time>2022-09-03T12:33:17Z</time>
      </trkpt>
      <trkpt lat="43.01969" lon="1.41575">
        <ele>388.2</ele>
        <time>2022-09-03T12:33:21Z</time>
      </trkpt>
      <trkpt lat="43.01964" lon="1.41566">
        <ele>388.2</ele>
        <time>2022-09-03T12:33:23Z</time>
      </trkpt>
      <trkpt lat="43.01962" lon="1.41562">
        <ele>388</ele>
        <time>2022-09-03T12:33:24Z</time>
      </trkpt>
      <trkpt lat="43.01947" lon="1.41532">
        <ele>387.8</ele>
        <time>2022-09-03T12:33:31Z</time>
      </trkpt>
      <trkpt lat="43.01934" lon="1.41505">
        <ele>387.6</ele>
        <time>2022-09-03T12:33:37Z</time>
      </trkpt>
      <trkpt lat="43.01922" lon="1.41481">
        <ele>387</ele>
        <time>2022-09-03T12:33:43Z</time>
      </trkpt>
      <trkpt lat="43.0191" lon="1.41461">
        <ele>387.2</ele>
        <time>2022-09-03T12:33:49Z</time>
      </trkpt>
      <trkpt lat="43.01903" lon="1.41439">
        <ele>386.8</ele>
        <time>2022-09-03T12:33:54Z</time>
      </trkpt>
      <trkpt lat="43.01895" lon="1.41411">
        <ele>386.6</ele>
        <time>2022-09-03T12:34:00Z</time>
      </trkpt>
      <trkpt lat="43.01884" lon="1.41375">
        <ele>386.4</ele>
        <time>2022-09-03T12:34:07Z</time>
      </trkpt>
      <trkpt lat="43.01875" lon="1.41333">
        <ele>386</ele>
        <time>2022-09-03T12:34:15Z</time>
      </trkpt>
      <trkpt lat="43.01874" lon="1.41322">
        <ele>386</ele>
        <time>2022-09-03T12:34:17Z</time>
      </trkpt>
      <trkpt lat="43.01873" lon="1.41294">
        <ele>385.6</ele>
        <time>2022-09-03T12:34:22Z</time>
      </trkpt>
      <trkpt lat="43.01873" lon="1.41253">
        <ele>385.4</ele>
        <time>2022-09-03T12:34:29Z</time>
      </trkpt>
      <trkpt lat="43.01878" lon="1.41213">
        <ele>385.2</ele>
        <time>2022-09-03T12:34:35Z</time>
      </trkpt>
      <trkpt lat="43.01879" lon="1.41205">
        <ele>385.2</ele>
        <time>2022-09-03T12:34:36Z</time>
      </trkpt>
      <trkpt lat="43.01882" lon="1.41182">
        <ele>384.8</ele>
        <time>2022-09-03T12:34:39Z</time>
      </trkpt>
      <trkpt lat="43.01883" lon="1.41175">
        <ele>384.8</ele>
        <time>2022-09-03T12:34:40Z</time>
      </trkpt>
      <trkpt lat="43.01893" lon="1.41111">
        <ele>384.2</ele>
        <time>2022-09-03T12:34:48Z</time>
      </trkpt>
      <trkpt lat="43.019" lon="1.4106">
        <ele>383.8</ele>
        <time>2022-09-03T12:34:54Z</time>
      </trkpt>
      <trkpt lat="43.01901" lon="1.41052">
        <ele>383.6</ele>
        <time>2022-09-03T12:34:55Z</time>
      </trkpt>
      <trkpt lat="43.01904" lon="1.40983">
        <ele>383.4</ele>
        <time>2022-09-03T12:35:03Z</time>
      </trkpt>
      <trkpt lat="43.01902" lon="1.40949">
        <ele>382.6</ele>
        <time>2022-09-03T12:35:07Z</time>
      </trkpt>
      <trkpt lat="43.01901" lon="1.40941">
        <ele>382.4</ele>
        <time>2022-09-03T12:35:08Z</time>
      </trkpt>
      <trkpt lat="43.019" lon="1.40934">
        <ele>382.4</ele>
        <time>2022-09-03T12:35:09Z</time>
      </trkpt>
      <trkpt lat="43.01888" lon="1.40874">
        <ele>382.2</ele>
        <time>2022-09-03T12:35:17Z</time>
      </trkpt>
      <trkpt lat="43.01869" lon="1.40815">
        <ele>381.6</ele>
        <time>2022-09-03T12:35:25Z</time>
      </trkpt>
      <trkpt lat="43.01861" lon="1.40795">
        <ele>381.6</ele>
        <time>2022-09-03T12:35:28Z</time>
      </trkpt>
      <trkpt lat="43.01841" lon="1.40756">
        <ele>381.2</ele>
        <time>2022-09-03T12:35:34Z</time>
      </trkpt>
      <trkpt lat="43.0181" lon="1.40702">
        <ele>381.2</ele>
        <time>2022-09-03T12:35:43Z</time>
      </trkpt>
      <trkpt lat="43.01787" lon="1.40661">
        <ele>381</ele>
        <time>2022-09-03T12:35:50Z</time>
      </trkpt>
      <trkpt lat="43.01772" lon="1.40634">
        <ele>380.6</ele>
        <time>2022-09-03T12:35:56Z</time>
      </trkpt>
      <trkpt lat="43.01766" lon="1.40622">
        <ele>380.6</ele>
        <time>2022-09-03T12:35:59Z</time>
      </trkpt>
      <trkpt lat="43.01758" lon="1.40603">
        <ele>380.6</ele>
        <time>2022-09-03T12:36:03Z</time>
      </trkpt>
      <trkpt lat="43.01741" lon="1.40562">
        <ele>380.4</ele>
        <time>2022-09-03T12:36:10Z</time>
      </trkpt>
      <trkpt lat="43.01721" lon="1.40497">
        <ele>380.4</ele>
        <time>2022-09-03T12:36:20Z</time>
      </trkpt>
      <trkpt lat="43.01706" lon="1.4044">
        <ele>379.6</ele>
        <time>2022-09-03T12:36:30Z</time>
      </trkpt>
      <trkpt lat="43.01702" lon="1.40423">
        <ele>379.4</ele>
        <time>2022-09-03T12:36:33Z</time>
      </trkpt>
      <trkpt lat="43.01698" lon="1.40403">
        <ele>378.8</ele>
        <time>2022-09-03T12:36:36Z</time>
      </trkpt>
      <trkpt lat="43.01695" lon="1.4039">
        <ele>378.6</ele>
        <time>2022-09-03T12:36:38Z</time>
      </trkpt>
      <trkpt lat="43.01692" lon="1.40385">
        <ele>378.2</ele>
        <time>2022-09-03T12:36:39Z</time>
      </trkpt>
      <trkpt lat="43.01689" lon="1.4038">
        <ele>378.2</ele>
        <time>2022-09-03T12:36:40Z</time>
      </trkpt>
      <trkpt lat="43.0168" lon="1.40372">
        <ele>378.2</ele>
        <time>2022-09-03T12:36:42Z</time>
      </trkpt>
      <trkpt lat="43.0167" lon="1.40361">
        <ele>377.4</ele>
        <time>2022-09-03T12:36:45Z</time>
      </trkpt>
      <trkpt lat="43.01669" lon="1.40358">
        <ele>377.2</ele>
        <time>2022-09-03T12:36:46Z</time>
      </trkpt>
      <trkpt lat="43.01671" lon="1.40353">
        <ele>377.4</ele>
        <time>2022-09-03T12:36:48Z</time>
      </trkpt>
      <trkpt lat="43.01678" lon="1.40338">
        <ele>378.2</ele>
        <time>2022-09-03T12:36:52Z</time>
      </trkpt>
      <trkpt lat="43.0168" lon="1.40333">
        <ele>378.4</ele>
        <time>2022-09-03T12:36:53Z</time>
      </trkpt>
      <trkpt lat="43.01693" lon="1.40304">
        <ele>379</ele>
        <time>2022-09-03T12:37:00Z</time>
      </trkpt>
      <trkpt lat="43.01698" lon="1.40285">
        <ele>379.2</ele>
        <time>2022-09-03T12:37:04Z</time>
      </trkpt>
      <trkpt lat="43.01701" lon="1.40268">
        <ele>379.2</ele>
        <time>2022-09-03T12:37:07Z</time>
      </trkpt>
      <trkpt lat="43.01703" lon="1.4025">
        <ele>379</ele>
        <time>2022-09-03T12:37:10Z</time>
      </trkpt>
      <trkpt lat="43.01704" lon="1.40232">
        <ele>379.2</ele>
        <time>2022-09-03T12:37:13Z</time>
      </trkpt>
      <trkpt lat="43.01705" lon="1.40219">
        <ele>379.2</ele>
        <time>2022-09-03T12:37:15Z</time>
      </trkpt>
      <trkpt lat="43.01707" lon="1.40192">
        <ele>379</ele>
        <time>2022-09-03T12:37:19Z</time>
      </trkpt>
      <trkpt lat="43.01712" lon="1.40128">
        <ele>378.8</ele>
        <time>2022-09-03T12:37:28Z</time>
      </trkpt>
      <trkpt lat="43.01716" lon="1.40072">
        <ele>378.6</ele>
        <time>2022-09-03T12:37:36Z</time>
      </trkpt>
      <trkpt lat="43.01722" lon="1.40006">
        <ele>378.2</ele>
        <time>2022-09-03T12:37:45Z</time>
      </trkpt>
      <trkpt lat="43.01722" lon="1.39998">
        <ele>378.2</ele>
        <time>2022-09-03T12:37:46Z</time>
      </trkpt>
      <trkpt lat="43.01729" lon="1.39923">
        <ele>377.4</ele>
        <time>2022-09-03T12:37:57Z</time>
      </trkpt>
      <trkpt lat="43.01733" lon="1.39862">
        <ele>377.2</ele>
        <time>2022-09-03T12:38:06Z</time>
      </trkpt>
      <trkpt lat="43.01734" lon="1.39848">
        <ele>377.2</ele>
        <time>2022-09-03T12:38:08Z</time>
      </trkpt>
      <trkpt lat="43.01738" lon="1.39792">
        <ele>377.2</ele>
        <time>2022-09-03T12:38:15Z</time>
      </trkpt>
      <trkpt lat="43.01744" lon="1.39718">
        <ele>376.4</ele>
        <time>2022-09-03T12:38:24Z</time>
      </trkpt>
      <trkpt lat="43.01745" lon="1.39702">
        <ele>376</ele>
        <time>2022-09-03T12:38:26Z</time>
      </trkpt>
      <trkpt lat="43.01749" lon="1.39641">
        <ele>375.8</ele>
        <time>2022-09-03T12:38:34Z</time>
      </trkpt>
      <trkpt lat="43.01753" lon="1.39592">
        <ele>375</ele>
        <time>2022-09-03T12:38:41Z</time>
      </trkpt>
      <trkpt lat="43.01754" lon="1.39578">
        <ele>375</ele>
        <time>2022-09-03T12:38:43Z</time>
      </trkpt>
      <trkpt lat="43.01757" lon="1.39539">
        <ele>374.8</ele>
        <time>2022-09-03T12:38:50Z</time>
      </trkpt>
      <trkpt lat="43.01759" lon="1.39516">
        <ele>374.4</ele>
        <time>2022-09-03T12:38:54Z</time>
      </trkpt>
      <trkpt lat="43.0176" lon="1.39495">
        <ele>374.4</ele>
        <time>2022-09-03T12:38:57Z</time>
      </trkpt>
      <trkpt lat="43.01763" lon="1.39456">
        <ele>374</ele>
        <time>2022-09-03T12:39:03Z</time>
      </trkpt>
      <trkpt lat="43.01764" lon="1.39442">
        <ele>374.2</ele>
        <time>2022-09-03T12:39:05Z</time>
      </trkpt>
      <trkpt lat="43.01766" lon="1.3942">
        <ele>374</ele>
        <time>2022-09-03T12:39:08Z</time>
      </trkpt>
      <trkpt lat="43.01767" lon="1.39382">
        <ele>373.8</ele>
        <time>2022-09-03T12:39:13Z</time>
      </trkpt>
      <trkpt lat="43.01772" lon="1.39328">
        <ele>373</ele>
        <time>2022-09-03T12:39:20Z</time>
      </trkpt>
      <trkpt lat="43.01774" lon="1.39314">
        <ele>372.8</ele>
        <time>2022-09-03T12:39:22Z</time>
      </trkpt>
      <trkpt lat="43.01775" lon="1.39307">
        <ele>372.6</ele>
        <time>2022-09-03T12:39:23Z</time>
      </trkpt>
      <trkpt lat="43.01776" lon="1.39285">
        <ele>372.8</ele>
        <time>2022-09-03T12:39:26Z</time>
      </trkpt>
      <trkpt lat="43.01781" lon="1.39208">
        <ele>372.2</ele>
        <time>2022-09-03T12:39:36Z</time>
      </trkpt>
      <trkpt lat="43.01785" lon="1.39152">
        <ele>372.2</ele>
        <time>2022-09-03T12:39:43Z</time>
      </trkpt>
      <trkpt lat="43.01786" lon="1.39135">
        <ele>372</ele>
        <time>2022-09-03T12:39:45Z</time>
      </trkpt>
      <trkpt lat="43.01786" lon="1.39103">
        <ele>371.8</ele>
        <time>2022-09-03T12:39:49Z</time>
      </trkpt>
      <trkpt lat="43.01785" lon="1.39095">
        <ele>371.6</ele>
        <time>2022-09-03T12:39:50Z</time>
      </trkpt>
      <trkpt lat="43.01779" lon="1.39033">
        <ele>371.6</ele>
        <time>2022-09-03T12:39:58Z</time>
      </trkpt>
      <trkpt lat="43.01773" lon="1.39002">
        <ele>371.4</ele>
        <time>2022-09-03T12:40:02Z</time>
      </trkpt>
      <trkpt lat="43.0177" lon="1.38987">
        <ele>371</ele>
        <time>2022-09-03T12:40:04Z</time>
      </trkpt>
      <trkpt lat="43.01757" lon="1.38938">
        <ele>371</ele>
        <time>2022-09-03T12:40:11Z</time>
      </trkpt>
      <trkpt lat="43.01753" lon="1.38925">
        <ele>371</ele>
        <time>2022-09-03T12:40:13Z</time>
      </trkpt>
      <trkpt lat="43.01749" lon="1.38911">
        <ele>370.6</ele>
        <time>2022-09-03T12:40:15Z</time>
      </trkpt>
      <trkpt lat="43.01743" lon="1.38884">
        <ele>370.8</ele>
        <time>2022-09-03T12:40:19Z</time>
      </trkpt>
      <trkpt lat="43.01741" lon="1.38872">
        <ele>370.8</ele>
        <time>2022-09-03T12:40:21Z</time>
      </trkpt>
      <trkpt lat="43.01732" lon="1.38841">
        <ele>370.8</ele>
        <time>2022-09-03T12:40:27Z</time>
      </trkpt>
      <trkpt lat="43.01718" lon="1.38787">
        <ele>370.6</ele>
        <time>2022-09-03T12:40:37Z</time>
      </trkpt>
      <trkpt lat="43.01711" lon="1.38759">
        <ele>370.6</ele>
        <time>2022-09-03T12:40:43Z</time>
      </trkpt>
      <trkpt lat="43.01708" lon="1.38741">
        <ele>370.4</ele>
        <time>2022-09-03T12:40:47Z</time>
      </trkpt>
      <trkpt lat="43.01705" lon="1.38708">
        <ele>370.4</ele>
        <time>2022-09-03T12:40:54Z</time>
      </trkpt>
      <trkpt lat="43.01703" lon="1.38667">
        <ele>370.4</ele>
        <time>2022-09-03T12:41:01Z</time>
      </trkpt>
      <trkpt lat="43.01704" lon="1.38645">
        <ele>370.2</ele>
        <time>2022-09-03T12:41:05Z</time>
      </trkpt>
      <trkpt lat="43.01704" lon="1.38634">
        <ele>370.2</ele>
        <time>2022-09-03T12:41:07Z</time>
      </trkpt>
      <trkpt lat="43.01706" lon="1.38607">
        <ele>370.2</ele>
        <time>2022-09-03T12:41:12Z</time>
      </trkpt>
      <trkpt lat="43.01707" lon="1.38598">
        <ele>370</ele>
        <time>2022-09-03T12:41:14Z</time>
      </trkpt>
      <trkpt lat="43.0171" lon="1.38574">
        <ele>369.8</ele>
        <time>2022-09-03T12:41:19Z</time>
      </trkpt>
      <trkpt lat="43.01712" lon="1.38557">
        <ele>369.6</ele>
        <time>2022-09-03T12:41:22Z</time>
      </trkpt>
      <trkpt lat="43.01714" lon="1.38533">
        <ele>369.6</ele>
        <time>2022-09-03T12:41:27Z</time>
      </trkpt>
      <trkpt lat="43.01716" lon="1.38503">
        <ele>369.4</ele>
        <time>2022-09-03T12:41:34Z</time>
      </trkpt>
      <trkpt lat="43.01717" lon="1.38479">
        <ele>369.4</ele>
        <time>2022-09-03T12:41:40Z</time>
      </trkpt>
      <trkpt lat="43.0172" lon="1.38444">
        <ele>369</ele>
        <time>2022-09-03T12:41:46Z</time>
      </trkpt>
      <trkpt lat="43.01725" lon="1.38394">
        <ele>369.2</ele>
        <time>2022-09-03T12:41:54Z</time>
      </trkpt>
      <trkpt lat="43.01731" lon="1.38332">
        <ele>368.8</ele>
        <time>2022-09-03T12:42:03Z</time>
      </trkpt>
      <trkpt lat="43.01732" lon="1.38326">
        <ele>368.4</ele>
        <time>2022-09-03T12:42:04Z</time>
      </trkpt>
      <trkpt lat="43.01735" lon="1.38291">
        <ele>368.4</ele>
        <time>2022-09-03T12:42:09Z</time>
      </trkpt>
      <trkpt lat="43.01739" lon="1.38225">
        <ele>368</ele>
        <time>2022-09-03T12:42:18Z</time>
      </trkpt>
      <trkpt lat="43.01736" lon="1.38165">
        <ele>367.4</ele>
        <time>2022-09-03T12:42:26Z</time>
      </trkpt>
      <trkpt lat="43.01735" lon="1.38158">
        <ele>367.4</ele>
        <time>2022-09-03T12:42:27Z</time>
      </trkpt>
      <trkpt lat="43.01728" lon="1.38108">
        <ele>366.8</ele>
        <time>2022-09-03T12:42:34Z</time>
      </trkpt>
      <trkpt lat="43.01723" lon="1.3807">
        <ele>366.4</ele>
        <time>2022-09-03T12:42:39Z</time>
      </trkpt>
      <trkpt lat="43.01722" lon="1.38063">
        <ele>366.4</ele>
        <time>2022-09-03T12:42:40Z</time>
      </trkpt>
      <trkpt lat="43.01719" lon="1.38049">
        <ele>366.2</ele>
        <time>2022-09-03T12:42:42Z</time>
      </trkpt>
      <trkpt lat="43.01714" lon="1.38016">
        <ele>366.2</ele>
        <time>2022-09-03T12:42:47Z</time>
      </trkpt>
      <trkpt lat="43.01712" lon="1.38003">
        <ele>366</ele>
        <time>2022-09-03T12:42:49Z</time>
      </trkpt>
      <trkpt lat="43.01706" lon="1.37956">
        <ele>365.8</ele>
        <time>2022-09-03T12:42:56Z</time>
      </trkpt>
      <trkpt lat="43.01702" lon="1.37912">
        <ele>365.8</ele>
        <time>2022-09-03T12:43:03Z</time>
      </trkpt>
      <trkpt lat="43.01701" lon="1.37876">
        <ele>365.8</ele>
        <time>2022-09-03T12:43:10Z</time>
      </trkpt>
      <trkpt lat="43.01694" lon="1.37854">
        <ele>366.2</ele>
        <time>2022-09-03T12:43:16Z</time>
      </trkpt>
      <trkpt lat="43.0168" lon="1.3784">
        <ele>367.2</ele>
        <time>2022-09-03T12:43:21Z</time>
      </trkpt>
      <trkpt lat="43.01679" lon="1.37836">
        <ele>367.4</ele>
        <time>2022-09-03T12:43:22Z</time>
      </trkpt>
      <trkpt lat="43.01678" lon="1.37818">
        <ele>367.8</ele>
        <time>2022-09-03T12:43:26Z</time>
      </trkpt>
      <trkpt lat="43.01679" lon="1.37812">
        <ele>367.6</ele>
        <time>2022-09-03T12:43:27Z</time>
      </trkpt>
      <trkpt lat="43.01687" lon="1.37793">
        <ele>367</ele>
        <time>2022-09-03T12:43:30Z</time>
      </trkpt>
      <trkpt lat="43.01696" lon="1.37773">
        <ele>366.6</ele>
        <time>2022-09-03T12:43:33Z</time>
      </trkpt>
      <trkpt lat="43.01697" lon="1.37759">
        <ele>366.6</ele>
        <time>2022-09-03T12:43:35Z</time>
      </trkpt>
      <trkpt lat="43.017" lon="1.37724">
        <ele>366.4</ele>
        <time>2022-09-03T12:43:40Z</time>
      </trkpt>
      <trkpt lat="43.01701" lon="1.37711">
        <ele>366.2</ele>
        <time>2022-09-03T12:43:42Z</time>
      </trkpt>
      <trkpt lat="43.01705" lon="1.37676">
        <ele>366</ele>
        <time>2022-09-03T12:43:47Z</time>
      </trkpt>
      <trkpt lat="43.01711" lon="1.37623">
        <ele>366</ele>
        <time>2022-09-03T12:43:55Z</time>
      </trkpt>
      <trkpt lat="43.01716" lon="1.37583">
        <ele>365.8</ele>
        <time>2022-09-03T12:44:01Z</time>
      </trkpt>
      <trkpt lat="43.01717" lon="1.3757">
        <ele>365.4</ele>
        <time>2022-09-03T12:44:03Z</time>
      </trkpt>
      <trkpt lat="43.01717" lon="1.37544">
        <ele>365.6</ele>
        <time>2022-09-03T12:44:07Z</time>
      </trkpt>
      <trkpt lat="43.01713" lon="1.37485">
        <ele>365.6</ele>
        <time>2022-09-03T12:44:16Z</time>
      </trkpt>
      <trkpt lat="43.01709" lon="1.37449">
        <ele>365.6</ele>
        <time>2022-09-03T12:44:23Z</time>
      </trkpt>
      <trkpt lat="43.01709" lon="1.37439">
        <ele>365.2</ele>
        <time>2022-09-03T12:44:26Z</time>
      </trkpt>
      <trkpt lat="43.01706" lon="1.37427">
        <ele>365</ele>
        <time>2022-09-03T12:44:29Z</time>
      </trkpt>
      <trkpt lat="43.017" lon="1.37397">
        <ele>364.4</ele>
        <time>2022-09-03T12:44:34Z</time>
      </trkpt>
      <trkpt lat="43.017" lon="1.37391">
        <ele>364</ele>
        <time>2022-09-03T12:44:35Z</time>
      </trkpt>
      <trkpt lat="43.01703" lon="1.37383">
        <ele>363.4</ele>
        <time>2022-09-03T12:44:37Z</time>
      </trkpt>
      <trkpt lat="43.01707" lon="1.3738">
        <ele>363</ele>
        <time>2022-09-03T12:44:39Z</time>
      </trkpt>
      <trkpt lat="43.01709" lon="1.37379">
        <ele>363</ele>
        <time>2022-09-03T12:44:40Z</time>
      </trkpt>
      <trkpt lat="43.01723" lon="1.37373">
        <ele>363.2</ele>
        <time>2022-09-03T12:44:45Z</time>
      </trkpt>
      <trkpt lat="43.01725" lon="1.3737">
        <ele>363.2</ele>
        <time>2022-09-03T12:44:46Z</time>
      </trkpt>
      <trkpt lat="43.01728" lon="1.37351">
        <ele>364</ele>
        <time>2022-09-03T12:44:51Z</time>
      </trkpt>
      <trkpt lat="43.01729" lon="1.37344">
        <ele>364.2</ele>
        <time>2022-09-03T12:44:53Z</time>
      </trkpt>
      <trkpt lat="43.01732" lon="1.37327">
        <ele>365.2</ele>
        <time>2022-09-03T12:44:58Z</time>
      </trkpt>
      <trkpt lat="43.01734" lon="1.37324">
        <ele>365.4</ele>
        <time>2022-09-03T12:45:00Z</time>
      </trkpt>
      <trkpt lat="43.01737" lon="1.3731">
        <ele>366</ele>
        <time>2022-09-03T12:45:05Z</time>
      </trkpt>
      <trkpt lat="43.01738" lon="1.37302">
        <ele>366.2</ele>
        <time>2022-09-03T12:45:07Z</time>
      </trkpt>
      <trkpt lat="43.01739" lon="1.37287">
        <ele>366.4</ele>
        <time>2022-09-03T12:45:12Z</time>
      </trkpt>
      <trkpt lat="43.01739" lon="1.37285">
        <ele>366.4</ele>
        <time>2022-09-03T12:45:13Z</time>
      </trkpt>
      <trkpt lat="43.01737" lon="1.37285">
        <ele>366.4</ele>
        <time>2022-09-03T12:45:15Z</time>
      </trkpt>
      <trkpt lat="43.01736" lon="1.37288">
        <ele>366.4</ele>
        <time>2022-09-03T12:45:17Z</time>
      </trkpt>
      <trkpt lat="43.01736" lon="1.37291">
        <ele>366.2</ele>
        <time>2022-09-03T12:45:20Z</time>
      </trkpt>
      <trkpt lat="43.0174" lon="1.37286">
        <ele>366</ele>
        <time>2022-09-03T12:46:32Z</time>
      </trkpt>
      <trkpt lat="43.0174" lon="1.37281">
        <ele>366.2</ele>
        <time>2022-09-03T12:46:34Z</time>
      </trkpt>
      <trkpt lat="43.01738" lon="1.37267">
        <ele>366</ele>
        <time>2022-09-03T12:50:12Z</time>
      </trkpt>
      <trkpt lat="43.01738" lon="1.3726">
        <ele>366</ele>
        <time>2022-09-03T12:50:14Z</time>
      </trkpt>
      <trkpt lat="43.01739" lon="1.37231">
        <ele>366.2</ele>
        <time>2022-09-03T12:50:22Z</time>
      </trkpt>
      <trkpt lat="43.01738" lon="1.37194">
        <ele>366.2</ele>
        <time>2022-09-03T12:50:31Z</time>
      </trkpt>
      <trkpt lat="43.01731" lon="1.37163">
        <ele>366.4</ele>
        <time>2022-09-03T12:50:39Z</time>
      </trkpt>
      <trkpt lat="43.01719" lon="1.3714">
        <ele>366.6</ele>
        <time>2022-09-03T12:50:46Z</time>
      </trkpt>
      <trkpt lat="43.01702" lon="1.37123">
        <ele>367</ele>
        <time>2022-09-03T12:50:53Z</time>
      </trkpt>
      <trkpt lat="43.01695" lon="1.37117">
        <ele>367.2</ele>
        <time>2022-09-03T12:50:56Z</time>
      </trkpt>
      <trkpt lat="43.01686" lon="1.37105">
        <ele>367.4</ele>
        <time>2022-09-03T12:51:00Z</time>
      </trkpt>
      <trkpt lat="43.01673" lon="1.37096">
        <ele>368.2</ele>
        <time>2022-09-03T12:51:05Z</time>
      </trkpt>
      <trkpt lat="43.01667" lon="1.37092">
        <ele>368.2</ele>
        <time>2022-09-03T12:51:07Z</time>
      </trkpt>
      <trkpt lat="43.01652" lon="1.37085">
        <ele>368.4</ele>
        <time>2022-09-03T12:51:12Z</time>
      </trkpt>
      <trkpt lat="43.01637" lon="1.37074">
        <ele>369.4</ele>
        <time>2022-09-03T12:51:18Z</time>
      </trkpt>
      <trkpt lat="43.01636" lon="1.37072">
        <ele>369.8</ele>
        <time>2022-09-03T12:51:19Z</time>
      </trkpt>
      <trkpt lat="43.0163" lon="1.37067">
        <ele>370.6</ele>
        <time>2022-09-03T12:51:22Z</time>
      </trkpt>
      <trkpt lat="43.01623" lon="1.37058">
        <ele>371.6</ele>
        <time>2022-09-03T12:51:27Z</time>
      </trkpt>
      <trkpt lat="43.01621" lon="1.37056">
        <ele>371.8</ele>
        <time>2022-09-03T12:51:28Z</time>
      </trkpt>
      <trkpt lat="43.0161" lon="1.37042">
        <ele>372.6</ele>
        <time>2022-09-03T12:51:35Z</time>
      </trkpt>
      <trkpt lat="43.01607" lon="1.37038">
        <ele>372.8</ele>
        <time>2022-09-03T12:51:37Z</time>
      </trkpt>
      <trkpt lat="43.01596" lon="1.37025">
        <ele>373</ele>
        <time>2022-09-03T12:51:43Z</time>
      </trkpt>
      <trkpt lat="43.01581" lon="1.37006">
        <ele>373.8</ele>
        <time>2022-09-03T12:51:52Z</time>
      </trkpt>
      <trkpt lat="43.01573" lon="1.36996">
        <ele>373.8</ele>
        <time>2022-09-03T12:51:56Z</time>
      </trkpt>
      <trkpt lat="43.01568" lon="1.36992">
        <ele>374</ele>
        <time>2022-09-03T12:51:58Z</time>
      </trkpt>
      <trkpt lat="43.01552" lon="1.36974">
        <ele>374</ele>
        <time>2022-09-03T12:52:05Z</time>
      </trkpt>
      <trkpt lat="43.01534" lon="1.36956">
        <ele>374.4</ele>
        <time>2022-09-03T12:52:12Z</time>
      </trkpt>
      <trkpt lat="43.01512" lon="1.36936">
        <ele>374.8</ele>
        <time>2022-09-03T12:52:20Z</time>
      </trkpt>
      <trkpt lat="43.0151" lon="1.36934">
        <ele>375</ele>
        <time>2022-09-03T12:52:21Z</time>
      </trkpt>
      <trkpt lat="43.01485" lon="1.36911">
        <ele>375.6</ele>
        <time>2022-09-03T12:52:30Z</time>
      </trkpt>
      <trkpt lat="43.01466" lon="1.36894">
        <ele>376</ele>
        <time>2022-09-03T12:52:37Z</time>
      </trkpt>
      <trkpt lat="43.0144" lon="1.36873">
        <ele>376.4</ele>
        <time>2022-09-03T12:52:46Z</time>
      </trkpt>
      <trkpt lat="43.01419" lon="1.36857">
        <ele>376.6</ele>
        <time>2022-09-03T12:52:53Z</time>
      </trkpt>
      <trkpt lat="43.01403" lon="1.36846">
        <ele>377</ele>
        <time>2022-09-03T12:52:58Z</time>
      </trkpt>
      <trkpt lat="43.01391" lon="1.36839">
        <ele>377.6</ele>
        <time>2022-09-03T12:53:02Z</time>
      </trkpt>
      <trkpt lat="43.0137" lon="1.36829">
        <ele>377.8</ele>
        <time>2022-09-03T12:53:08Z</time>
      </trkpt>
      <trkpt lat="43.0135" lon="1.3682">
        <ele>378</ele>
        <time>2022-09-03T12:53:14Z</time>
      </trkpt>
      <trkpt lat="43.01347" lon="1.36818">
        <ele>378</ele>
        <time>2022-09-03T12:53:15Z</time>
      </trkpt>
      <trkpt lat="43.01317" lon="1.36808">
        <ele>378.4</ele>
        <time>2022-09-03T12:53:23Z</time>
      </trkpt>
      <trkpt lat="43.01281" lon="1.36797">
        <ele>379</ele>
        <time>2022-09-03T12:53:33Z</time>
      </trkpt>
      <trkpt lat="43.01246" lon="1.36788">
        <ele>379.8</ele>
        <time>2022-09-03T12:53:43Z</time>
      </trkpt>
      <trkpt lat="43.01229" lon="1.36782">
        <ele>380</ele>
        <time>2022-09-03T12:53:48Z</time>
      </trkpt>
      <trkpt lat="43.01219" lon="1.36779">
        <ele>380.2</ele>
        <time>2022-09-03T12:53:51Z</time>
      </trkpt>
      <trkpt lat="43.01192" lon="1.36765">
        <ele>381</ele>
        <time>2022-09-03T12:53:59Z</time>
      </trkpt>
      <trkpt lat="43.01183" lon="1.36761">
        <ele>381.2</ele>
        <time>2022-09-03T12:54:02Z</time>
      </trkpt>
      <trkpt lat="43.01166" lon="1.36751">
        <ele>381.6</ele>
        <time>2022-09-03T12:54:07Z</time>
      </trkpt>
      <trkpt lat="43.01145" lon="1.36737">
        <ele>381.8</ele>
        <time>2022-09-03T12:54:13Z</time>
      </trkpt>
      <trkpt lat="43.01127" lon="1.36722">
        <ele>382</ele>
        <time>2022-09-03T12:54:19Z</time>
      </trkpt>
      <trkpt lat="43.01121" lon="1.36716">
        <ele>382.2</ele>
        <time>2022-09-03T12:54:21Z</time>
      </trkpt>
      <trkpt lat="43.0111" lon="1.36705">
        <ele>382.4</ele>
        <time>2022-09-03T12:54:25Z</time>
      </trkpt>
      <trkpt lat="43.01088" lon="1.36677">
        <ele>382.8</ele>
        <time>2022-09-03T12:54:33Z</time>
      </trkpt>
      <trkpt lat="43.01071" lon="1.36655">
        <ele>383</ele>
        <time>2022-09-03T12:54:39Z</time>
      </trkpt>
      <trkpt lat="43.01065" lon="1.36647">
        <ele>383.4</ele>
        <time>2022-09-03T12:54:41Z</time>
      </trkpt>
      <trkpt lat="43.01055" lon="1.36627">
        <ele>383.8</ele>
        <time>2022-09-03T12:54:46Z</time>
      </trkpt>
      <trkpt lat="43.01038" lon="1.36604">
        <ele>383.8</ele>
        <time>2022-09-03T12:54:52Z</time>
      </trkpt>
      <trkpt lat="43.01016" lon="1.36574">
        <ele>384.2</ele>
        <time>2022-09-03T12:55:00Z</time>
      </trkpt>
      <trkpt lat="43.01008" lon="1.36563">
        <ele>384.4</ele>
        <time>2022-09-03T12:55:03Z</time>
      </trkpt>
      <trkpt lat="43.00991" lon="1.36536">
        <ele>385</ele>
        <time>2022-09-03T12:55:10Z</time>
      </trkpt>
      <trkpt lat="43.00975" lon="1.36514">
        <ele>385.4</ele>
        <time>2022-09-03T12:55:16Z</time>
      </trkpt>
      <trkpt lat="43.00962" lon="1.36495">
        <ele>385.8</ele>
        <time>2022-09-03T12:55:21Z</time>
      </trkpt>
      <trkpt lat="43.0094" lon="1.36462">
        <ele>386.4</ele>
        <time>2022-09-03T12:55:30Z</time>
      </trkpt>
      <trkpt lat="43.00934" lon="1.36454">
        <ele>386.6</ele>
        <time>2022-09-03T12:55:32Z</time>
      </trkpt>
      <trkpt lat="43.00904" lon="1.36411">
        <ele>387.2</ele>
        <time>2022-09-03T12:55:44Z</time>
      </trkpt>
      <trkpt lat="43.00899" lon="1.36404">
        <ele>387.4</ele>
        <time>2022-09-03T12:55:46Z</time>
      </trkpt>
      <trkpt lat="43.00889" lon="1.36391">
        <ele>387.6</ele>
        <time>2022-09-03T12:55:50Z</time>
      </trkpt>
      <trkpt lat="43.00868" lon="1.36359">
        <ele>388</ele>
        <time>2022-09-03T12:55:59Z</time>
      </trkpt>
      <trkpt lat="43.00859" lon="1.36346">
        <ele>388.6</ele>
        <time>2022-09-03T12:56:03Z</time>
      </trkpt>
      <trkpt lat="43.00854" lon="1.36338">
        <ele>388.4</ele>
        <time>2022-09-03T12:56:06Z</time>
      </trkpt>
      <trkpt lat="43.0084" lon="1.36318">
        <ele>388.8</ele>
        <time>2022-09-03T12:56:14Z</time>
      </trkpt>
      <trkpt lat="43.00817" lon="1.36285">
        <ele>389.2</ele>
        <time>2022-09-03T12:56:24Z</time>
      </trkpt>
      <trkpt lat="43.00802" lon="1.36261">
        <ele>389.6</ele>
        <time>2022-09-03T12:56:31Z</time>
      </trkpt>
      <trkpt lat="43.008" lon="1.36258">
        <ele>389.6</ele>
        <time>2022-09-03T12:56:32Z</time>
      </trkpt>
      <trkpt lat="43.00794" lon="1.36248">
        <ele>389.6</ele>
        <time>2022-09-03T12:56:37Z</time>
      </trkpt>
      <trkpt lat="43.00794" lon="1.36249">
        <ele>389.6</ele>
        <time>2022-09-03T12:56:38Z</time>
      </trkpt>
      <trkpt lat="43.00794" lon="1.36248">
        <ele>389.6</ele>
        <time>2022-09-03T12:57:46Z</time>
      </trkpt>
      <trkpt lat="43.00792" lon="1.36245">
        <ele>389.8</ele>
        <time>2022-09-03T12:57:47Z</time>
      </trkpt>
      <trkpt lat="43.00776" lon="1.36222">
        <ele>390.2</ele>
        <time>2022-09-03T12:57:54Z</time>
      </trkpt>
      <trkpt lat="43.00768" lon="1.36212">
        <ele>390.6</ele>
        <time>2022-09-03T12:57:57Z</time>
      </trkpt>
      <trkpt lat="43.00753" lon="1.36188">
        <ele>391</ele>
        <time>2022-09-03T12:58:03Z</time>
      </trkpt>
      <trkpt lat="43.00734" lon="1.36154">
        <ele>391.2</ele>
        <time>2022-09-03T12:58:11Z</time>
      </trkpt>
      <trkpt lat="43.00728" lon="1.36139">
        <ele>391.4</ele>
        <time>2022-09-03T12:58:14Z</time>
      </trkpt>
      <trkpt lat="43.00724" lon="1.3613">
        <ele>391.6</ele>
        <time>2022-09-03T12:58:16Z</time>
      </trkpt>
      <trkpt lat="43.00719" lon="1.3612">
        <ele>391.8</ele>
        <time>2022-09-03T12:58:18Z</time>
      </trkpt>
      <trkpt lat="43.00701" lon="1.36071">
        <ele>392.6</ele>
        <time>2022-09-03T12:58:28Z</time>
      </trkpt>
      <trkpt lat="43.00699" lon="1.36067">
        <ele>392.6</ele>
        <time>2022-09-03T12:58:29Z</time>
      </trkpt>
      <trkpt lat="43.00691" lon="1.36042">
        <ele>392.8</ele>
        <time>2022-09-03T12:58:35Z</time>
      </trkpt>
      <trkpt lat="43.00683" lon="1.36011">
        <ele>393</ele>
        <time>2022-09-03T12:58:42Z</time>
      </trkpt>
      <trkpt lat="43.00672" lon="1.35969">
        <ele>393.8</ele>
        <time>2022-09-03T12:58:51Z</time>
      </trkpt>
      <trkpt lat="43.0066" lon="1.3592">
        <ele>394.2</ele>
        <time>2022-09-03T12:59:01Z</time>
      </trkpt>
      <trkpt lat="43.00654" lon="1.3589">
        <ele>394.8</ele>
        <time>2022-09-03T12:59:07Z</time>
      </trkpt>
      <trkpt lat="43.00649" lon="1.35867">
        <ele>395.2</ele>
        <time>2022-09-03T12:59:12Z</time>
      </trkpt>
      <trkpt lat="43.0064" lon="1.35831">
        <ele>395.4</ele>
        <time>2022-09-03T12:59:20Z</time>
      </trkpt>
      <trkpt lat="43.00632" lon="1.35793">
        <ele>395.8</ele>
        <time>2022-09-03T12:59:28Z</time>
      </trkpt>
      <trkpt lat="43.00623" lon="1.35755">
        <ele>396.4</ele>
        <time>2022-09-03T12:59:36Z</time>
      </trkpt>
      <trkpt lat="43.00614" lon="1.35712">
        <ele>396.8</ele>
        <time>2022-09-03T12:59:45Z</time>
      </trkpt>
      <trkpt lat="43.00612" lon="1.35701">
        <ele>397</ele>
        <time>2022-09-03T12:59:47Z</time>
      </trkpt>
      <trkpt lat="43.00603" lon="1.35662">
        <ele>397.6</ele>
        <time>2022-09-03T12:59:55Z</time>
      </trkpt>
      <trkpt lat="43.00596" lon="1.35632">
        <ele>398</ele>
        <time>2022-09-03T13:00:01Z</time>
      </trkpt>
      <trkpt lat="43.0059" lon="1.35607">
        <ele>398.2</ele>
        <time>2022-09-03T13:00:06Z</time>
      </trkpt>
      <trkpt lat="43.00589" lon="1.35602">
        <ele>398.2</ele>
        <time>2022-09-03T13:00:07Z</time>
      </trkpt>
      <trkpt lat="43.00583" lon="1.35582">
        <ele>398.6</ele>
        <time>2022-09-03T13:00:11Z</time>
      </trkpt>
      <trkpt lat="43.00575" lon="1.35556">
        <ele>399</ele>
        <time>2022-09-03T13:00:16Z</time>
      </trkpt>
      <trkpt lat="43.00572" lon="1.35546">
        <ele>399</ele>
        <time>2022-09-03T13:00:18Z</time>
      </trkpt>
      <trkpt lat="43.00559" lon="1.35504">
        <ele>399.8</ele>
        <time>2022-09-03T13:00:26Z</time>
      </trkpt>
      <trkpt lat="43.00551" lon="1.35478">
        <ele>400</ele>
        <time>2022-09-03T13:00:31Z</time>
      </trkpt>
      <trkpt lat="43.00547" lon="1.35467">
        <ele>400.4</ele>
        <time>2022-09-03T13:00:33Z</time>
      </trkpt>
      <trkpt lat="43.00533" lon="1.35418">
        <ele>401</ele>
        <time>2022-09-03T13:00:42Z</time>
      </trkpt>
      <trkpt lat="43.00531" lon="1.35413">
        <ele>401</ele>
        <time>2022-09-03T13:00:43Z</time>
      </trkpt>
      <trkpt lat="43.00514" lon="1.35353">
        <ele>401.6</ele>
        <time>2022-09-03T13:00:54Z</time>
      </trkpt>
      <trkpt lat="43.00501" lon="1.35311">
        <ele>402.2</ele>
        <time>2022-09-03T13:01:02Z</time>
      </trkpt>
      <trkpt lat="43.00486" lon="1.35263">
        <ele>403</ele>
        <time>2022-09-03T13:01:11Z</time>
      </trkpt>
      <trkpt lat="43.00483" lon="1.35252">
        <ele>403.2</ele>
        <time>2022-09-03T13:01:13Z</time>
      </trkpt>
      <trkpt lat="43.00474" lon="1.3522">
        <ele>403.6</ele>
        <time>2022-09-03T13:01:19Z</time>
      </trkpt>
      <trkpt lat="43.0046" lon="1.35178">
        <ele>404.2</ele>
        <time>2022-09-03T13:01:27Z</time>
      </trkpt>
      <trkpt lat="43.00458" lon="1.35167">
        <ele>404.4</ele>
        <time>2022-09-03T13:01:29Z</time>
      </trkpt>
      <trkpt lat="43.0045" lon="1.3513">
        <ele>405</ele>
        <time>2022-09-03T13:01:36Z</time>
      </trkpt>
      <trkpt lat="43.00445" lon="1.35099">
        <ele>405.4</ele>
        <time>2022-09-03T13:01:42Z</time>
      </trkpt>
      <trkpt lat="43.00439" lon="1.35059">
        <ele>405.6</ele>
        <time>2022-09-03T13:01:49Z</time>
      </trkpt>
      <trkpt lat="43.00434" lon="1.3502">
        <ele>406.4</ele>
        <time>2022-09-03T13:01:56Z</time>
      </trkpt>
      <trkpt lat="43.00434" lon="1.35014">
        <ele>406.4</ele>
        <time>2022-09-03T13:01:57Z</time>
      </trkpt>
      <trkpt lat="43.00429" lon="1.34984">
        <ele>407</ele>
        <time>2022-09-03T13:02:03Z</time>
      </trkpt>
      <trkpt lat="43.00428" lon="1.34958">
        <ele>407.2</ele>
        <time>2022-09-03T13:02:08Z</time>
      </trkpt>
      <trkpt lat="43.00428" lon="1.34948">
        <ele>407.4</ele>
        <time>2022-09-03T13:02:10Z</time>
      </trkpt>
      <trkpt lat="43.00427" lon="1.34927">
        <ele>407.6</ele>
        <time>2022-09-03T13:02:14Z</time>
      </trkpt>
      <trkpt lat="43.00427" lon="1.34896">
        <ele>408</ele>
        <time>2022-09-03T13:02:20Z</time>
      </trkpt>
      <trkpt lat="43.00428" lon="1.3486">
        <ele>408.4</ele>
        <time>2022-09-03T13:02:26Z</time>
      </trkpt>
      <trkpt lat="43.00429" lon="1.34819">
        <ele>408.6</ele>
        <time>2022-09-03T13:02:33Z</time>
      </trkpt>
      <trkpt lat="43.00431" lon="1.34781">
        <ele>409</ele>
        <time>2022-09-03T13:02:40Z</time>
      </trkpt>
      <trkpt lat="43.00432" lon="1.34771">
        <ele>409.4</ele>
        <time>2022-09-03T13:02:42Z</time>
      </trkpt>
      <trkpt lat="43.00432" lon="1.34751">
        <ele>409.6</ele>
        <time>2022-09-03T13:02:46Z</time>
      </trkpt>
      <trkpt lat="43.0043" lon="1.34724">
        <ele>409.8</ele>
        <time>2022-09-03T13:02:51Z</time>
      </trkpt>
      <trkpt lat="43.00428" lon="1.34683">
        <ele>410.2</ele>
        <time>2022-09-03T13:02:58Z</time>
      </trkpt>
      <trkpt lat="43.00424" lon="1.34637">
        <ele>410.2</ele>
        <time>2022-09-03T13:03:05Z</time>
      </trkpt>
      <trkpt lat="43.00423" lon="1.3463">
        <ele>410.6</ele>
        <time>2022-09-03T13:03:06Z</time>
      </trkpt>
      <trkpt lat="43.00416" lon="1.34591">
        <ele>410.4</ele>
        <time>2022-09-03T13:03:12Z</time>
      </trkpt>
      <trkpt lat="43.00407" lon="1.34541">
        <ele>410.6</ele>
        <time>2022-09-03T13:03:20Z</time>
      </trkpt>
      <trkpt lat="43.00401" lon="1.34501">
        <ele>410.6</ele>
        <time>2022-09-03T13:03:27Z</time>
      </trkpt>
      <trkpt lat="43.00393" lon="1.34451">
        <ele>410.4</ele>
        <time>2022-09-03T13:03:36Z</time>
      </trkpt>
      <trkpt lat="43.00387" lon="1.34409">
        <ele>410.6</ele>
        <time>2022-09-03T13:03:43Z</time>
      </trkpt>
      <trkpt lat="43.0038" lon="1.34361">
        <ele>410.2</ele>
        <time>2022-09-03T13:03:50Z</time>
      </trkpt>
      <trkpt lat="43.00374" lon="1.3432">
        <ele>410.4</ele>
        <time>2022-09-03T13:03:56Z</time>
      </trkpt>
      <trkpt lat="43.00364" lon="1.34253">
        <ele>411</ele>
        <time>2022-09-03T13:04:06Z</time>
      </trkpt>
      <trkpt lat="43.00358" lon="1.34205">
        <ele>411.6</ele>
        <time>2022-09-03T13:04:13Z</time>
      </trkpt>
      <trkpt lat="43.00357" lon="1.34198">
        <ele>411.6</ele>
        <time>2022-09-03T13:04:14Z</time>
      </trkpt>
      <trkpt lat="43.0035" lon="1.34158">
        <ele>412.4</ele>
        <time>2022-09-03T13:04:20Z</time>
      </trkpt>
      <trkpt lat="43.00347" lon="1.34131">
        <ele>412.4</ele>
        <time>2022-09-03T13:04:24Z</time>
      </trkpt>
      <trkpt lat="43.00344" lon="1.34111">
        <ele>412.6</ele>
        <time>2022-09-03T13:04:27Z</time>
      </trkpt>
      <trkpt lat="43.00339" lon="1.34079">
        <ele>413</ele>
        <time>2022-09-03T13:04:32Z</time>
      </trkpt>
      <trkpt lat="43.00332" lon="1.34034">
        <ele>413.4</ele>
        <time>2022-09-03T13:04:39Z</time>
      </trkpt>
      <trkpt lat="43.00329" lon="1.34016">
        <ele>413.8</ele>
        <time>2022-09-03T13:04:42Z</time>
      </trkpt>
      <trkpt lat="43.00323" lon="1.33988">
        <ele>414.2</ele>
        <time>2022-09-03T13:04:47Z</time>
      </trkpt>
      <trkpt lat="43.00319" lon="1.33961">
        <ele>414.6</ele>
        <time>2022-09-03T13:04:53Z</time>
      </trkpt>
      <trkpt lat="43.00317" lon="1.33945">
        <ele>414.8</ele>
        <time>2022-09-03T13:04:56Z</time>
      </trkpt>
      <trkpt lat="43.00314" lon="1.33924">
        <ele>415.2</ele>
        <time>2022-09-03T13:05:00Z</time>
      </trkpt>
      <trkpt lat="43.00312" lon="1.33913">
        <ele>415.4</ele>
        <time>2022-09-03T13:05:02Z</time>
      </trkpt>
      <trkpt lat="43.00307" lon="1.33884">
        <ele>415.8</ele>
        <time>2022-09-03T13:05:07Z</time>
      </trkpt>
      <trkpt lat="43.00306" lon="1.33879">
        <ele>416</ele>
        <time>2022-09-03T13:05:08Z</time>
      </trkpt>
      <trkpt lat="43.00298" lon="1.33833">
        <ele>416.6</ele>
        <time>2022-09-03T13:05:16Z</time>
      </trkpt>
      <trkpt lat="43.00288" lon="1.3378">
        <ele>417</ele>
        <time>2022-09-03T13:05:26Z</time>
      </trkpt>
      <trkpt lat="43.00284" lon="1.33748">
        <ele>417.4</ele>
        <time>2022-09-03T13:05:32Z</time>
      </trkpt>
      <trkpt lat="43.00279" lon="1.33712">
        <ele>418</ele>
        <time>2022-09-03T13:05:39Z</time>
      </trkpt>
      <trkpt lat="43.00277" lon="1.33701">
        <ele>418.2</ele>
        <time>2022-09-03T13:05:41Z</time>
      </trkpt>
      <trkpt lat="43.0027" lon="1.33656">
        <ele>418.6</ele>
        <time>2022-09-03T13:05:50Z</time>
      </trkpt>
      <trkpt lat="43.00265" lon="1.33625">
        <ele>419.2</ele>
        <time>2022-09-03T13:05:56Z</time>
      </trkpt>
      <trkpt lat="43.00264" lon="1.33613">
        <ele>419.6</ele>
        <time>2022-09-03T13:05:59Z</time>
      </trkpt>
      <trkpt lat="43.00261" lon="1.33596">
        <ele>419.8</ele>
        <time>2022-09-03T13:06:04Z</time>
      </trkpt>
      <trkpt lat="43.00256" lon="1.33569">
        <ele>420</ele>
        <time>2022-09-03T13:06:10Z</time>
      </trkpt>
      <trkpt lat="43.00252" lon="1.33553">
        <ele>420.4</ele>
        <time>2022-09-03T13:06:14Z</time>
      </trkpt>
      <trkpt lat="43.00249" lon="1.33543">
        <ele>420.6</ele>
        <time>2022-09-03T13:06:16Z</time>
      </trkpt>
      <trkpt lat="43.00239" lon="1.33506">
        <ele>421</ele>
        <time>2022-09-03T13:06:23Z</time>
      </trkpt>
      <trkpt lat="43.00229" lon="1.33478">
        <ele>421.4</ele>
        <time>2022-09-03T13:06:29Z</time>
      </trkpt>
      <trkpt lat="43.00226" lon="1.33468">
        <ele>421.6</ele>
        <time>2022-09-03T13:06:31Z</time>
      </trkpt>
      <trkpt lat="43.00209" lon="1.33421">
        <ele>421.8</ele>
        <time>2022-09-03T13:06:40Z</time>
      </trkpt>
      <trkpt lat="43.00196" lon="1.33386">
        <ele>422.4</ele>
        <time>2022-09-03T13:06:47Z</time>
      </trkpt>
      <trkpt lat="43.00193" lon="1.33376">
        <ele>422.6</ele>
        <time>2022-09-03T13:06:49Z</time>
      </trkpt>
      <trkpt lat="43.00177" lon="1.33337">
        <ele>423.2</ele>
        <time>2022-09-03T13:06:57Z</time>
      </trkpt>
      <trkpt lat="43.0017" lon="1.33316">
        <ele>423.6</ele>
        <time>2022-09-03T13:07:01Z</time>
      </trkpt>
      <trkpt lat="43.0016" lon="1.33291">
        <ele>424</ele>
        <time>2022-09-03T13:07:06Z</time>
      </trkpt>
      <trkpt lat="43.00157" lon="1.3328">
        <ele>424.2</ele>
        <time>2022-09-03T13:07:08Z</time>
      </trkpt>
      <trkpt lat="43.00146" lon="1.33256">
        <ele>424.4</ele>
        <time>2022-09-03T13:07:13Z</time>
      </trkpt>
      <trkpt lat="43.00141" lon="1.33248">
        <ele>424.6</ele>
        <time>2022-09-03T13:07:15Z</time>
      </trkpt>
      <trkpt lat="43.00129" lon="1.33225">
        <ele>425</ele>
        <time>2022-09-03T13:07:20Z</time>
      </trkpt>
      <trkpt lat="43.00107" lon="1.33187">
        <ele>425.4</ele>
        <time>2022-09-03T13:07:29Z</time>
      </trkpt>
      <trkpt lat="43.00104" lon="1.33183">
        <ele>425.6</ele>
        <time>2022-09-03T13:07:30Z</time>
      </trkpt>
      <trkpt lat="43.00083" lon="1.33151">
        <ele>426.6</ele>
        <time>2022-09-03T13:07:38Z</time>
      </trkpt>
      <trkpt lat="43.00077" lon="1.33142">
        <ele>426.6</ele>
        <time>2022-09-03T13:07:40Z</time>
      </trkpt>
      <trkpt lat="43.00054" lon="1.33109">
        <ele>427.2</ele>
        <time>2022-09-03T13:07:48Z</time>
      </trkpt>
      <trkpt lat="43.00031" lon="1.33076">
        <ele>427.6</ele>
        <time>2022-09-03T13:07:56Z</time>
      </trkpt>
      <trkpt lat="43.00025" lon="1.33069">
        <ele>428</ele>
        <time>2022-09-03T13:07:58Z</time>
      </trkpt>
      <trkpt lat="43.00004" lon="1.33037">
        <ele>428.4</ele>
        <time>2022-09-03T13:08:06Z</time>
      </trkpt>
      <trkpt lat="42.99995" lon="1.33025">
        <ele>428.8</ele>
        <time>2022-09-03T13:08:09Z</time>
      </trkpt>
      <trkpt lat="42.99992" lon="1.3302">
        <ele>428.8</ele>
        <time>2022-09-03T13:08:10Z</time>
      </trkpt>
      <trkpt lat="42.99984" lon="1.33007">
        <ele>429</ele>
        <time>2022-09-03T13:08:13Z</time>
      </trkpt>
      <trkpt lat="42.99961" lon="1.32977">
        <ele>429.4</ele>
        <time>2022-09-03T13:08:21Z</time>
      </trkpt>
      <trkpt lat="42.99948" lon="1.32958">
        <ele>429.8</ele>
        <time>2022-09-03T13:08:27Z</time>
      </trkpt>
      <trkpt lat="42.99946" lon="1.32954">
        <ele>430</ele>
        <time>2022-09-03T13:08:28Z</time>
      </trkpt>
      <trkpt lat="42.99932" lon="1.32931">
        <ele>430.4</ele>
        <time>2022-09-03T13:08:34Z</time>
      </trkpt>
      <trkpt lat="42.99911" lon="1.32895">
        <ele>431</ele>
        <time>2022-09-03T13:08:43Z</time>
      </trkpt>
      <trkpt lat="42.99896" lon="1.3287">
        <ele>431.6</ele>
        <time>2022-09-03T13:08:49Z</time>
      </trkpt>
      <trkpt lat="42.99884" lon="1.32848">
        <ele>432</ele>
        <time>2022-09-03T13:08:54Z</time>
      </trkpt>
      <trkpt lat="42.99882" lon="1.32844">
        <ele>432.2</ele>
        <time>2022-09-03T13:08:55Z</time>
      </trkpt>
      <trkpt lat="42.99869" lon="1.32814">
        <ele>432.6</ele>
        <time>2022-09-03T13:09:01Z</time>
      </trkpt>
      <trkpt lat="42.99857" lon="1.32787">
        <ele>433</ele>
        <time>2022-09-03T13:09:07Z</time>
      </trkpt>
      <trkpt lat="42.99855" lon="1.32782">
        <ele>433</ele>
        <time>2022-09-03T13:09:08Z</time>
      </trkpt>
      <trkpt lat="42.9984" lon="1.32741">
        <ele>433.4</ele>
        <time>2022-09-03T13:09:16Z</time>
      </trkpt>
      <trkpt lat="42.99825" lon="1.32704">
        <ele>433.8</ele>
        <time>2022-09-03T13:09:23Z</time>
      </trkpt>
      <trkpt lat="42.99821" lon="1.32693">
        <ele>433.8</ele>
        <time>2022-09-03T13:09:25Z</time>
      </trkpt>
      <trkpt lat="42.99817" lon="1.32683">
        <ele>434</ele>
        <time>2022-09-03T13:09:27Z</time>
      </trkpt>
      <trkpt lat="42.99804" lon="1.32649">
        <ele>434.8</ele>
        <time>2022-09-03T13:09:34Z</time>
      </trkpt>
      <trkpt lat="42.99795" lon="1.3262">
        <ele>435</ele>
        <time>2022-09-03T13:09:40Z</time>
      </trkpt>
      <trkpt lat="42.99792" lon="1.3261">
        <ele>435.2</ele>
        <time>2022-09-03T13:09:42Z</time>
      </trkpt>
      <trkpt lat="42.99785" lon="1.32586">
        <ele>435.4</ele>
        <time>2022-09-03T13:09:47Z</time>
      </trkpt>
      <trkpt lat="42.99773" lon="1.3254">
        <ele>436.2</ele>
        <time>2022-09-03T13:09:56Z</time>
      </trkpt>
      <trkpt lat="42.99772" lon="1.32535">
        <ele>436.2</ele>
        <time>2022-09-03T13:09:57Z</time>
      </trkpt>
      <trkpt lat="42.99763" lon="1.32495">
        <ele>436.8</ele>
        <time>2022-09-03T13:10:05Z</time>
      </trkpt>
      <trkpt lat="42.99754" lon="1.32453">
        <ele>436.8</ele>
        <time>2022-09-03T13:10:13Z</time>
      </trkpt>
      <trkpt lat="42.99748" lon="1.32427">
        <ele>437.2</ele>
        <time>2022-09-03T13:10:18Z</time>
      </trkpt>
      <trkpt lat="42.99743" lon="1.32402">
        <ele>437.8</ele>
        <time>2022-09-03T13:10:23Z</time>
      </trkpt>
      <trkpt lat="42.99737" lon="1.32376">
        <ele>438.2</ele>
        <time>2022-09-03T13:10:28Z</time>
      </trkpt>
      <trkpt lat="42.99731" lon="1.32344">
        <ele>438.8</ele>
        <time>2022-09-03T13:10:34Z</time>
      </trkpt>
      <trkpt lat="42.99722" lon="1.32308">
        <ele>438.8</ele>
        <time>2022-09-03T13:10:41Z</time>
      </trkpt>
      <trkpt lat="42.99718" lon="1.32287">
        <ele>439.4</ele>
        <time>2022-09-03T13:10:45Z</time>
      </trkpt>
      <trkpt lat="42.99712" lon="1.32261">
        <ele>440</ele>
        <time>2022-09-03T13:10:50Z</time>
      </trkpt>
      <trkpt lat="42.99707" lon="1.32233">
        <ele>440</ele>
        <time>2022-09-03T13:10:56Z</time>
      </trkpt>
      <trkpt lat="42.99702" lon="1.32209">
        <ele>440.2</ele>
        <time>2022-09-03T13:11:02Z</time>
      </trkpt>
      <trkpt lat="42.99697" lon="1.32196">
        <ele>440.4</ele>
        <time>2022-09-03T13:11:05Z</time>
      </trkpt>
      <trkpt lat="42.99691" lon="1.32176">
        <ele>441</ele>
        <time>2022-09-03T13:11:09Z</time>
      </trkpt>
      <trkpt lat="42.99683" lon="1.32153">
        <ele>441.2</ele>
        <time>2022-09-03T13:11:14Z</time>
      </trkpt>
      <trkpt lat="42.99675" lon="1.32128">
        <ele>441.4</ele>
        <time>2022-09-03T13:11:19Z</time>
      </trkpt>
      <trkpt lat="42.99666" lon="1.32105">
        <ele>442</ele>
        <time>2022-09-03T13:11:24Z</time>
      </trkpt>
      <trkpt lat="42.99654" lon="1.32073">
        <ele>442</ele>
        <time>2022-09-03T13:11:31Z</time>
      </trkpt>
      <trkpt lat="42.99641" lon="1.32048">
        <ele>442.4</ele>
        <time>2022-09-03T13:11:37Z</time>
      </trkpt>
      <trkpt lat="42.99637" lon="1.3204">
        <ele>442.8</ele>
        <time>2022-09-03T13:11:39Z</time>
      </trkpt>
      <trkpt lat="42.99621" lon="1.32004">
        <ele>443.2</ele>
        <time>2022-09-03T13:11:47Z</time>
      </trkpt>
      <trkpt lat="42.99613" lon="1.31986">
        <ele>443.6</ele>
        <time>2022-09-03T13:11:51Z</time>
      </trkpt>
      <trkpt lat="42.9961" lon="1.31982">
        <ele>443.4</ele>
        <time>2022-09-03T13:11:52Z</time>
      </trkpt>
      <trkpt lat="42.99595" lon="1.31954">
        <ele>444</ele>
        <time>2022-09-03T13:11:59Z</time>
      </trkpt>
      <trkpt lat="42.99579" lon="1.3192">
        <ele>444.6</ele>
        <time>2022-09-03T13:12:07Z</time>
      </trkpt>
      <trkpt lat="42.99571" lon="1.31904">
        <ele>445</ele>
        <time>2022-09-03T13:12:12Z</time>
      </trkpt>
      <trkpt lat="42.99558" lon="1.3188">
        <ele>445.4</ele>
        <time>2022-09-03T13:12:19Z</time>
      </trkpt>
      <trkpt lat="42.99554" lon="1.31871">
        <ele>445.6</ele>
        <time>2022-09-03T13:12:21Z</time>
      </trkpt>
      <trkpt lat="42.99546" lon="1.31855">
        <ele>445.6</ele>
        <time>2022-09-03T13:12:24Z</time>
      </trkpt>
      <trkpt lat="42.99533" lon="1.31822">
        <ele>446.2</ele>
        <time>2022-09-03T13:12:31Z</time>
      </trkpt>
      <trkpt lat="42.99527" lon="1.31807">
        <ele>446.6</ele>
        <time>2022-09-03T13:12:34Z</time>
      </trkpt>
      <trkpt lat="42.99516" lon="1.31778">
        <ele>447.4</ele>
        <time>2022-09-03T13:12:40Z</time>
      </trkpt>
      <trkpt lat="42.9951" lon="1.31764">
        <ele>447.8</ele>
        <time>2022-09-03T13:12:43Z</time>
      </trkpt>
      <trkpt lat="42.99498" lon="1.31745">
        <ele>448</ele>
        <time>2022-09-03T13:12:49Z</time>
      </trkpt>
      <trkpt lat="42.9948" lon="1.3173">
        <ele>448.4</ele>
        <time>2022-09-03T13:12:56Z</time>
      </trkpt>
      <trkpt lat="42.9947" lon="1.31707">
        <ele>448.2</ele>
        <time>2022-09-03T13:13:02Z</time>
      </trkpt>
      <trkpt lat="42.99464" lon="1.31688">
        <ele>448</ele>
        <time>2022-09-03T13:13:08Z</time>
      </trkpt>
      <trkpt lat="42.99459" lon="1.31676">
        <ele>448.6</ele>
        <time>2022-09-03T13:13:13Z</time>
      </trkpt>
      <trkpt lat="42.99456" lon="1.31671">
        <ele>448.8</ele>
        <time>2022-09-03T13:13:15Z</time>
      </trkpt>
      <trkpt lat="42.99447" lon="1.31653">
        <ele>449</ele>
        <time>2022-09-03T13:13:21Z</time>
      </trkpt>
      <trkpt lat="42.99432" lon="1.31621">
        <ele>448.8</ele>
        <time>2022-09-03T13:13:29Z</time>
      </trkpt>
      <trkpt lat="42.99417" lon="1.31591">
        <ele>449.4</ele>
        <time>2022-09-03T13:13:36Z</time>
      </trkpt>
      <trkpt lat="42.99403" lon="1.31558">
        <ele>449.8</ele>
        <time>2022-09-03T13:13:43Z</time>
      </trkpt>
      <trkpt lat="42.99401" lon="1.31553">
        <ele>450</ele>
        <time>2022-09-03T13:13:44Z</time>
      </trkpt>
      <trkpt lat="42.99394" lon="1.31534">
        <ele>450.2</ele>
        <time>2022-09-03T13:13:48Z</time>
      </trkpt>
      <trkpt lat="42.9938" lon="1.31502">
        <ele>450.8</ele>
        <time>2022-09-03T13:13:55Z</time>
      </trkpt>
      <trkpt lat="42.99378" lon="1.31498">
        <ele>451</ele>
        <time>2022-09-03T13:13:56Z</time>
      </trkpt>
      <trkpt lat="42.99364" lon="1.31466">
        <ele>451.6</ele>
        <time>2022-09-03T13:14:03Z</time>
      </trkpt>
      <trkpt lat="42.99358" lon="1.31449">
        <ele>452</ele>
        <time>2022-09-03T13:14:07Z</time>
      </trkpt>
      <trkpt lat="42.99354" lon="1.31434">
        <ele>452.2</ele>
        <time>2022-09-03T13:14:10Z</time>
      </trkpt>
      <trkpt lat="42.99343" lon="1.31384">
        <ele>452.8</ele>
        <time>2022-09-03T13:14:20Z</time>
      </trkpt>
      <trkpt lat="42.99342" lon="1.31379">
        <ele>453</ele>
        <time>2022-09-03T13:14:21Z</time>
      </trkpt>
      <trkpt lat="42.99335" lon="1.31341">
        <ele>453.8</ele>
        <time>2022-09-03T13:14:29Z</time>
      </trkpt>
      <trkpt lat="42.99331" lon="1.31301">
        <ele>454</ele>
        <time>2022-09-03T13:14:37Z</time>
      </trkpt>
      <trkpt lat="42.99329" lon="1.31285">
        <ele>454.2</ele>
        <time>2022-09-03T13:14:40Z</time>
      </trkpt>
      <trkpt lat="42.99328" lon="1.31238">
        <ele>454.8</ele>
        <time>2022-09-03T13:14:49Z</time>
      </trkpt>
      <trkpt lat="42.99328" lon="1.31227">
        <ele>455</ele>
        <time>2022-09-03T13:14:51Z</time>
      </trkpt>
      <trkpt lat="42.99328" lon="1.31185">
        <ele>455.4</ele>
        <time>2022-09-03T13:14:59Z</time>
      </trkpt>
      <trkpt lat="42.99331" lon="1.3114">
        <ele>456</ele>
        <time>2022-09-03T13:15:08Z</time>
      </trkpt>
      <trkpt lat="42.99332" lon="1.3113">
        <ele>456</ele>
        <time>2022-09-03T13:15:10Z</time>
      </trkpt>
      <trkpt lat="42.9934" lon="1.31076">
        <ele>456.8</ele>
        <time>2022-09-03T13:15:21Z</time>
      </trkpt>
      <trkpt lat="42.99344" lon="1.31048">
        <ele>457.2</ele>
        <time>2022-09-03T13:15:27Z</time>
      </trkpt>
      <trkpt lat="42.99348" lon="1.31028">
        <ele>457.6</ele>
        <time>2022-09-03T13:15:33Z</time>
      </trkpt>
      <trkpt lat="42.99348" lon="1.31028">
        <ele>458.2</ele>
        <time>2022-09-03T13:15:44Z</time>
      </trkpt>
      <trkpt lat="42.99348" lon="1.31028">
        <ele>459.2</ele>
        <time>2022-09-03T13:16:01Z</time>
      </trkpt>
      <trkpt lat="42.99348" lon="1.31028">
        <ele>460.4</ele>
        <time>2022-09-03T13:16:28Z</time>
      </trkpt>
      <trkpt lat="42.99408" lon="1.3072">
        <ele>460.8</ele>
        <time>2022-09-03T13:16:42Z</time>
      </trkpt>
      <trkpt lat="42.99408" lon="1.30705">
        <ele>460.8</ele>
        <time>2022-09-03T13:16:46Z</time>
      </trkpt>
      <trkpt lat="42.99411" lon="1.30699">
        <ele>460.6</ele>
        <time>2022-09-03T13:18:50Z</time>
      </trkpt>
      <trkpt lat="42.99413" lon="1.30695">
        <ele>460.6</ele>
        <time>2022-09-03T13:18:52Z</time>
      </trkpt>
      <trkpt lat="42.99415" lon="1.30684">
        <ele>461</ele>
        <time>2022-09-03T13:18:55Z</time>
      </trkpt>
      <trkpt lat="42.99417" lon="1.30671">
        <ele>461</ele>
        <time>2022-09-03T13:18:58Z</time>
      </trkpt>
      <trkpt lat="42.9942" lon="1.30655">
        <ele>461.4</ele>
        <time>2022-09-03T13:19:02Z</time>
      </trkpt>
      <trkpt lat="42.99422" lon="1.30642">
        <ele>461.6</ele>
        <time>2022-09-03T13:19:05Z</time>
      </trkpt>
      <trkpt lat="42.99428" lon="1.30608">
        <ele>462.2</ele>
        <time>2022-09-03T13:19:12Z</time>
      </trkpt>
      <trkpt lat="42.99432" lon="1.30584">
        <ele>462.4</ele>
        <time>2022-09-03T13:19:17Z</time>
      </trkpt>
      <trkpt lat="42.99433" lon="1.3058">
        <ele>462.6</ele>
        <time>2022-09-03T13:19:18Z</time>
      </trkpt>
      <trkpt lat="42.9944" lon="1.30549">
        <ele>462.8</ele>
        <time>2022-09-03T13:19:24Z</time>
      </trkpt>
      <trkpt lat="42.99445" lon="1.30517">
        <ele>463.2</ele>
        <time>2022-09-03T13:19:30Z</time>
      </trkpt>
      <trkpt lat="42.99447" lon="1.30506">
        <ele>463.6</ele>
        <time>2022-09-03T13:19:32Z</time>
      </trkpt>
      <trkpt lat="42.99451" lon="1.30486">
        <ele>463.6</ele>
        <time>2022-09-03T13:19:36Z</time>
      </trkpt>
      <trkpt lat="42.99458" lon="1.30441">
        <ele>464.2</ele>
        <time>2022-09-03T13:19:44Z</time>
      </trkpt>
      <trkpt lat="42.99466" lon="1.30403">
        <ele>464.4</ele>
        <time>2022-09-03T13:19:51Z</time>
      </trkpt>
      <trkpt lat="42.99467" lon="1.30398">
        <ele>464.6</ele>
        <time>2022-09-03T13:19:52Z</time>
      </trkpt>
      <trkpt lat="42.99472" lon="1.30357">
        <ele>465.2</ele>
        <time>2022-09-03T13:20:00Z</time>
      </trkpt>
      <trkpt lat="42.99474" lon="1.30315">
        <ele>465.6</ele>
        <time>2022-09-03T13:20:08Z</time>
      </trkpt>
      <trkpt lat="42.99474" lon="1.3031">
        <ele>465.6</ele>
        <time>2022-09-03T13:20:09Z</time>
      </trkpt>
      <trkpt lat="42.99473" lon="1.30278">
        <ele>465.8</ele>
        <time>2022-09-03T13:20:15Z</time>
      </trkpt>
      <trkpt lat="42.99473" lon="1.30246">
        <ele>466.4</ele>
        <time>2022-09-03T13:20:21Z</time>
      </trkpt>
      <trkpt lat="42.99471" lon="1.30225">
        <ele>466.8</ele>
        <time>2022-09-03T13:20:25Z</time>
      </trkpt>
      <trkpt lat="42.99469" lon="1.302">
        <ele>467.4</ele>
        <time>2022-09-03T13:20:30Z</time>
      </trkpt>
      <trkpt lat="42.99466" lon="1.30177">
        <ele>467.4</ele>
        <time>2022-09-03T13:20:35Z</time>
      </trkpt>
      <trkpt lat="42.99463" lon="1.30157">
        <ele>467.8</ele>
        <time>2022-09-03T13:20:40Z</time>
      </trkpt>
      <trkpt lat="42.99463" lon="1.30151">
        <ele>468</ele>
        <time>2022-09-03T13:20:42Z</time>
      </trkpt>
      <trkpt lat="42.99458" lon="1.30127">
        <ele>468.4</ele>
        <time>2022-09-03T13:20:48Z</time>
      </trkpt>
      <trkpt lat="42.99455" lon="1.30102">
        <ele>468.8</ele>
        <time>2022-09-03T13:20:54Z</time>
      </trkpt>
      <trkpt lat="42.99453" lon="1.30093">
        <ele>468.8</ele>
        <time>2022-09-03T13:20:56Z</time>
      </trkpt>
      <trkpt lat="42.9945" lon="1.30075">
        <ele>469</ele>
        <time>2022-09-03T13:21:00Z</time>
      </trkpt>
      <trkpt lat="42.99445" lon="1.30046">
        <ele>469.4</ele>
        <time>2022-09-03T13:21:06Z</time>
      </trkpt>
      <trkpt lat="42.99439" lon="1.30021">
        <ele>470</ele>
        <time>2022-09-03T13:21:11Z</time>
      </trkpt>
      <trkpt lat="42.99438" lon="1.30016">
        <ele>470</ele>
        <time>2022-09-03T13:21:12Z</time>
      </trkpt>
      <trkpt lat="42.9943" lon="1.29977">
        <ele>470.4</ele>
        <time>2022-09-03T13:21:20Z</time>
      </trkpt>
      <trkpt lat="42.99422" lon="1.29943">
        <ele>471</ele>
        <time>2022-09-03T13:21:27Z</time>
      </trkpt>
      <trkpt lat="42.99412" lon="1.29898">
        <ele>471.6</ele>
        <time>2022-09-03T13:21:36Z</time>
      </trkpt>
      <trkpt lat="42.99406" lon="1.29863">
        <ele>471.8</ele>
        <time>2022-09-03T13:21:43Z</time>
      </trkpt>
      <trkpt lat="42.99405" lon="1.29859">
        <ele>472</ele>
        <time>2022-09-03T13:21:44Z</time>
      </trkpt>
      <trkpt lat="42.99397" lon="1.2982">
        <ele>472.6</ele>
        <time>2022-09-03T13:21:52Z</time>
      </trkpt>
      <trkpt lat="42.99394" lon="1.29797">
        <ele>473.2</ele>
        <time>2022-09-03T13:21:57Z</time>
      </trkpt>
      <trkpt lat="42.99391" lon="1.29782">
        <ele>473.2</ele>
        <time>2022-09-03T13:22:00Z</time>
      </trkpt>
      <trkpt lat="42.99383" lon="1.29745">
        <ele>473.8</ele>
        <time>2022-09-03T13:22:08Z</time>
      </trkpt>
      <trkpt lat="42.99376" lon="1.29714">
        <ele>474.2</ele>
        <time>2022-09-03T13:22:15Z</time>
      </trkpt>
      <trkpt lat="42.99368" lon="1.29679">
        <ele>474.6</ele>
        <time>2022-09-03T13:22:22Z</time>
      </trkpt>
      <trkpt lat="42.99362" lon="1.29643">
        <ele>475</ele>
        <time>2022-09-03T13:22:29Z</time>
      </trkpt>
      <trkpt lat="42.99355" lon="1.29612">
        <ele>475.4</ele>
        <time>2022-09-03T13:22:35Z</time>
      </trkpt>
      <trkpt lat="42.99352" lon="1.29596">
        <ele>475.8</ele>
        <time>2022-09-03T13:22:38Z</time>
      </trkpt>
      <trkpt lat="42.99341" lon="1.29551">
        <ele>476.2</ele>
        <time>2022-09-03T13:22:47Z</time>
      </trkpt>
      <trkpt lat="42.99339" lon="1.29546">
        <ele>476.4</ele>
        <time>2022-09-03T13:22:48Z</time>
      </trkpt>
      <trkpt lat="42.99331" lon="1.29518">
        <ele>476.6</ele>
        <time>2022-09-03T13:22:54Z</time>
      </trkpt>
      <trkpt lat="42.9932" lon="1.29497">
        <ele>477.4</ele>
        <time>2022-09-03T13:23:00Z</time>
      </trkpt>
      <trkpt lat="42.99317" lon="1.29491">
        <ele>477.4</ele>
        <time>2022-09-03T13:23:02Z</time>
      </trkpt>
      <trkpt lat="42.99317" lon="1.29491">
        <ele>478.4</ele>
        <time>2022-09-03T13:23:14Z</time>
      </trkpt>
      <trkpt lat="42.99317" lon="1.29491">
        <ele>479.6</ele>
        <time>2022-09-03T13:23:32Z</time>
      </trkpt>
      <trkpt lat="42.99317" lon="1.29491">
        <ele>480.6</ele>
        <time>2022-09-03T13:23:49Z</time>
      </trkpt>
      <trkpt lat="42.99317" lon="1.29491">
        <ele>481.6</ele>
        <time>2022-09-03T13:24:04Z</time>
      </trkpt>
      <trkpt lat="42.99317" lon="1.29491">
        <ele>482.6</ele>
        <time>2022-09-03T13:24:24Z</time>
      </trkpt>
      <trkpt lat="42.99317" lon="1.29491">
        <ele>483.8</ele>
        <time>2022-09-03T13:24:42Z</time>
      </trkpt>
      <trkpt lat="42.99317" lon="1.29491">
        <ele>484.8</ele>
        <time>2022-09-03T13:24:59Z</time>
      </trkpt>
      <trkpt lat="42.99317" lon="1.29491">
        <ele>485.2</ele>
        <time>2022-09-03T13:25:09Z</time>
      </trkpt>
      <trkpt lat="42.98954" lon="1.28574">
        <ele>485.2</ele>
        <time>2022-09-03T13:26:06Z</time>
      </trkpt>
      <trkpt lat="42.98951" lon="1.28562">
        <ele>485.2</ele>
        <time>2022-09-03T13:26:08Z</time>
      </trkpt>
      <trkpt lat="42.98947" lon="1.28544">
        <ele>485.4</ele>
        <time>2022-09-03T13:26:11Z</time>
      </trkpt>
      <trkpt lat="42.98946" lon="1.28526">
        <ele>485.2</ele>
        <time>2022-09-03T13:26:14Z</time>
      </trkpt>
      <trkpt lat="42.98937" lon="1.28505">
        <ele>485.2</ele>
        <time>2022-09-03T13:26:19Z</time>
      </trkpt>
      <trkpt lat="42.9893" lon="1.28478">
        <ele>485.2</ele>
        <time>2022-09-03T13:26:25Z</time>
      </trkpt>
      <trkpt lat="42.98925" lon="1.28448">
        <ele>485</ele>
        <time>2022-09-03T13:26:31Z</time>
      </trkpt>
      <trkpt lat="42.98923" lon="1.28412">
        <ele>484.8</ele>
        <time>2022-09-03T13:26:37Z</time>
      </trkpt>
      <trkpt lat="42.98921" lon="1.28355">
        <ele>485</ele>
        <time>2022-09-03T13:26:46Z</time>
      </trkpt>
      <trkpt lat="42.98921" lon="1.28317">
        <ele>484.8</ele>
        <time>2022-09-03T13:26:53Z</time>
      </trkpt>
      <trkpt lat="42.98922" lon="1.28286">
        <ele>485</ele>
        <time>2022-09-03T13:26:59Z</time>
      </trkpt>
      <trkpt lat="42.9892" lon="1.28254">
        <ele>484.8</ele>
        <time>2022-09-03T13:27:05Z</time>
      </trkpt>
      <trkpt lat="42.98913" lon="1.28223">
        <ele>484.8</ele>
        <time>2022-09-03T13:27:10Z</time>
      </trkpt>
      <trkpt lat="42.9891" lon="1.28173">
        <ele>485</ele>
        <time>2022-09-03T13:27:17Z</time>
      </trkpt>
      <trkpt lat="42.98908" lon="1.28121">
        <ele>485</ele>
        <time>2022-09-03T13:27:24Z</time>
      </trkpt>
      <trkpt lat="42.9891" lon="1.28088">
        <ele>484.8</ele>
        <time>2022-09-03T13:27:29Z</time>
      </trkpt>
      <trkpt lat="42.98911" lon="1.28076">
        <ele>484.6</ele>
        <time>2022-09-03T13:27:31Z</time>
      </trkpt>
      <trkpt lat="42.98915" lon="1.28043">
        <ele>484.4</ele>
        <time>2022-09-03T13:27:37Z</time>
      </trkpt>
      <trkpt lat="42.98921" lon="1.2801">
        <ele>484.4</ele>
        <time>2022-09-03T13:27:44Z</time>
      </trkpt>
      <trkpt lat="42.98929" lon="1.27978">
        <ele>484.4</ele>
        <time>2022-09-03T13:27:50Z</time>
      </trkpt>
      <trkpt lat="42.9894" lon="1.27925">
        <ele>484.6</ele>
        <time>2022-09-03T13:27:58Z</time>
      </trkpt>
      <trkpt lat="42.98948" lon="1.27879">
        <ele>485</ele>
        <time>2022-09-03T13:28:04Z</time>
      </trkpt>
      <trkpt lat="42.98957" lon="1.27825">
        <ele>484.6</ele>
        <time>2022-09-03T13:28:11Z</time>
      </trkpt>
      <trkpt lat="42.98969" lon="1.2776">
        <ele>484.8</ele>
        <time>2022-09-03T13:28:20Z</time>
      </trkpt>
      <trkpt lat="42.98975" lon="1.27724">
        <ele>484.2</ele>
        <time>2022-09-03T13:28:26Z</time>
      </trkpt>
      <trkpt lat="42.98982" lon="1.27686">
        <ele>483.6</ele>
        <time>2022-09-03T13:28:32Z</time>
      </trkpt>
      <trkpt lat="42.98982" lon="1.2768">
        <ele>483.4</ele>
        <time>2022-09-03T13:28:33Z</time>
      </trkpt>
      <trkpt lat="42.9899" lon="1.27637">
        <ele>483.2</ele>
        <time>2022-09-03T13:28:39Z</time>
      </trkpt>
      <trkpt lat="42.98995" lon="1.27582">
        <ele>482.6</ele>
        <time>2022-09-03T13:28:46Z</time>
      </trkpt>
      <trkpt lat="42.98995" lon="1.27574">
        <ele>482.4</ele>
        <time>2022-09-03T13:28:47Z</time>
      </trkpt>
      <trkpt lat="42.98995" lon="1.27567">
        <ele>482.4</ele>
        <time>2022-09-03T13:28:48Z</time>
      </trkpt>
      <trkpt lat="42.98995" lon="1.27521">
        <ele>482.2</ele>
        <time>2022-09-03T13:28:54Z</time>
      </trkpt>
      <trkpt lat="42.98995" lon="1.27513">
        <ele>482.2</ele>
        <time>2022-09-03T13:28:55Z</time>
      </trkpt>
      <trkpt lat="42.98992" lon="1.27493">
        <ele>481.6</ele>
        <time>2022-09-03T13:28:58Z</time>
      </trkpt>
      <trkpt lat="42.98992" lon="1.27489">
        <ele>481.2</ele>
        <time>2022-09-03T13:28:59Z</time>
      </trkpt>
      <trkpt lat="42.9899" lon="1.27469">
        <ele>480.6</ele>
        <time>2022-09-03T13:29:04Z</time>
      </trkpt>
      <trkpt lat="42.98989" lon="1.27454">
        <ele>480.4</ele>
        <time>2022-09-03T13:29:07Z</time>
      </trkpt>
      <trkpt lat="42.98987" lon="1.27441">
        <ele>480.6</ele>
        <time>2022-09-03T13:29:09Z</time>
      </trkpt>
      <trkpt lat="42.98978" lon="1.27395">
        <ele>480</ele>
        <time>2022-09-03T13:29:16Z</time>
      </trkpt>
      <trkpt lat="42.9897" lon="1.27355">
        <ele>479.4</ele>
        <time>2022-09-03T13:29:22Z</time>
      </trkpt>
      <trkpt lat="42.98966" lon="1.27342">
        <ele>479.2</ele>
        <time>2022-09-03T13:29:24Z</time>
      </trkpt>
      <trkpt lat="42.98953" lon="1.27286">
        <ele>479.2</ele>
        <time>2022-09-03T13:29:32Z</time>
      </trkpt>
      <trkpt lat="42.98939" lon="1.27226">
        <ele>478.8</ele>
        <time>2022-09-03T13:29:40Z</time>
      </trkpt>
      <trkpt lat="42.98938" lon="1.27219">
        <ele>478.8</ele>
        <time>2022-09-03T13:29:41Z</time>
      </trkpt>
      <trkpt lat="42.98934" lon="1.27197">
        <ele>478.2</ele>
        <time>2022-09-03T13:29:44Z</time>
      </trkpt>
      <trkpt lat="42.98931" lon="1.27183">
        <ele>477.8</ele>
        <time>2022-09-03T13:29:46Z</time>
      </trkpt>
      <trkpt lat="42.98927" lon="1.27135">
        <ele>477.2</ele>
        <time>2022-09-03T13:29:53Z</time>
      </trkpt>
      <trkpt lat="42.98927" lon="1.27121">
        <ele>477.2</ele>
        <time>2022-09-03T13:29:55Z</time>
      </trkpt>
      <trkpt lat="42.98926" lon="1.27107">
        <ele>477.2</ele>
        <time>2022-09-03T13:29:57Z</time>
      </trkpt>
      <trkpt lat="42.98926" lon="1.271">
        <ele>477</ele>
        <time>2022-09-03T13:29:58Z</time>
      </trkpt>
      <trkpt lat="42.98926" lon="1.27069">
        <ele>476.8</ele>
        <time>2022-09-03T13:30:02Z</time>
      </trkpt>
      <trkpt lat="42.98926" lon="1.27054">
        <ele>476.6</ele>
        <time>2022-09-03T13:30:04Z</time>
      </trkpt>
      <trkpt lat="42.98929" lon="1.27015">
        <ele>476.4</ele>
        <time>2022-09-03T13:30:10Z</time>
      </trkpt>
      <trkpt lat="42.98929" lon="1.27008">
        <ele>476.4</ele>
        <time>2022-09-03T13:30:11Z</time>
      </trkpt>
      <trkpt lat="42.98931" lon="1.26982">
        <ele>476.4</ele>
        <time>2022-09-03T13:30:15Z</time>
      </trkpt>
      <trkpt lat="42.98933" lon="1.26963">
        <ele>476</ele>
        <time>2022-09-03T13:30:18Z</time>
      </trkpt>
      <trkpt lat="42.98934" lon="1.26949">
        <ele>475.8</ele>
        <time>2022-09-03T13:30:20Z</time>
      </trkpt>
      <trkpt lat="42.98934" lon="1.26927">
        <ele>475.6</ele>
        <time>2022-09-03T13:30:23Z</time>
      </trkpt>
      <trkpt lat="42.98935" lon="1.26893">
        <ele>475.4</ele>
        <time>2022-09-03T13:30:28Z</time>
      </trkpt>
      <trkpt lat="42.98934" lon="1.26886">
        <ele>475.4</ele>
        <time>2022-09-03T13:30:29Z</time>
      </trkpt>
      <trkpt lat="42.98933" lon="1.26863">
        <ele>475</ele>
        <time>2022-09-03T13:30:32Z</time>
      </trkpt>
      <trkpt lat="42.98932" lon="1.26841">
        <ele>475</ele>
        <time>2022-09-03T13:30:35Z</time>
      </trkpt>
      <trkpt lat="42.98932" lon="1.26812">
        <ele>474.6</ele>
        <time>2022-09-03T13:30:40Z</time>
      </trkpt>
      <trkpt lat="42.9893" lon="1.268">
        <ele>474.6</ele>
        <time>2022-09-03T13:33:38Z</time>
      </trkpt>
      <trkpt lat="42.98931" lon="1.26796">
        <ele>474.6</ele>
        <time>2022-09-03T13:33:39Z</time>
      </trkpt>
      <trkpt lat="42.98932" lon="1.26783">
        <ele>474.4</ele>
        <time>2022-09-03T13:33:42Z</time>
      </trkpt>
      <trkpt lat="42.98932" lon="1.26778">
        <ele>474.2</ele>
        <time>2022-09-03T13:33:43Z</time>
      </trkpt>
      <trkpt lat="42.98933" lon="1.26749">
        <ele>474.2</ele>
        <time>2022-09-03T13:33:48Z</time>
      </trkpt>
      <trkpt lat="42.98933" lon="1.26728">
        <ele>474</ele>
        <time>2022-09-03T13:33:51Z</time>
      </trkpt>
      <trkpt lat="42.98932" lon="1.26702">
        <ele>473.6</ele>
        <time>2022-09-03T13:33:55Z</time>
      </trkpt>
      <trkpt lat="42.98934" lon="1.26683">
        <ele>473.4</ele>
        <time>2022-09-03T13:33:58Z</time>
      </trkpt>
      <trkpt lat="42.98934" lon="1.26669">
        <ele>473.4</ele>
        <time>2022-09-03T13:34:00Z</time>
      </trkpt>
      <trkpt lat="42.98936" lon="1.26633">
        <ele>473.2</ele>
        <time>2022-09-03T13:34:05Z</time>
      </trkpt>
      <trkpt lat="42.98936" lon="1.26626">
        <ele>473</ele>
        <time>2022-09-03T13:34:06Z</time>
      </trkpt>
      <trkpt lat="42.98936" lon="1.26601">
        <ele>473</ele>
        <time>2022-09-03T13:34:09Z</time>
      </trkpt>
      <trkpt lat="42.98933" lon="1.26566">
        <ele>472.6</ele>
        <time>2022-09-03T13:34:13Z</time>
      </trkpt>
      <trkpt lat="42.98932" lon="1.26494">
        <ele>472.2</ele>
        <time>2022-09-03T13:34:22Z</time>
      </trkpt>
      <trkpt lat="42.98933" lon="1.26461">
        <ele>471.8</ele>
        <time>2022-09-03T13:34:27Z</time>
      </trkpt>
      <trkpt lat="42.98933" lon="1.26447">
        <ele>471.6</ele>
        <time>2022-09-03T13:34:29Z</time>
      </trkpt>
      <trkpt lat="42.98933" lon="1.264">
        <ele>471.2</ele>
        <time>2022-09-03T13:34:36Z</time>
      </trkpt>
      <trkpt lat="42.98933" lon="1.26377">
        <ele>470.8</ele>
        <time>2022-09-03T13:34:39Z</time>
      </trkpt>
      <trkpt lat="42.98932" lon="1.26353">
        <ele>470.6</ele>
        <time>2022-09-03T13:34:42Z</time>
      </trkpt>
      <trkpt lat="42.98931" lon="1.26291">
        <ele>470</ele>
        <time>2022-09-03T13:34:50Z</time>
      </trkpt>
      <trkpt lat="42.9893" lon="1.26253">
        <ele>469.8</ele>
        <time>2022-09-03T13:34:55Z</time>
      </trkpt>
      <trkpt lat="42.9893" lon="1.26245">
        <ele>469.6</ele>
        <time>2022-09-03T13:34:56Z</time>
      </trkpt>
      <trkpt lat="42.98927" lon="1.26175">
        <ele>468.8</ele>
        <time>2022-09-03T13:35:05Z</time>
      </trkpt>
      <trkpt lat="42.98927" lon="1.26167">
        <ele>468.6</ele>
        <time>2022-09-03T13:35:06Z</time>
      </trkpt>
      <trkpt lat="42.9893" lon="1.26107">
        <ele>468.2</ele>
        <time>2022-09-03T13:35:13Z</time>
      </trkpt>
      <trkpt lat="42.98937" lon="1.26041">
        <ele>468</ele>
        <time>2022-09-03T13:35:21Z</time>
      </trkpt>
      <trkpt lat="42.9894" lon="1.26025">
        <ele>467.6</ele>
        <time>2022-09-03T13:35:23Z</time>
      </trkpt>
      <trkpt lat="42.9895" lon="1.25971">
        <ele>467</ele>
        <time>2022-09-03T13:35:30Z</time>
      </trkpt>
      <trkpt lat="42.98957" lon="1.25933">
        <ele>466.4</ele>
        <time>2022-09-03T13:35:35Z</time>
      </trkpt>
      <trkpt lat="42.9896" lon="1.25918">
        <ele>466.2</ele>
        <time>2022-09-03T13:35:37Z</time>
      </trkpt>
      <trkpt lat="42.98971" lon="1.25864">
        <ele>466</ele>
        <time>2022-09-03T13:35:44Z</time>
      </trkpt>
      <trkpt lat="42.98982" lon="1.25815">
        <ele>465.4</ele>
        <time>2022-09-03T13:35:50Z</time>
      </trkpt>
      <trkpt lat="42.98984" lon="1.25806">
        <ele>465.2</ele>
        <time>2022-09-03T13:35:51Z</time>
      </trkpt>
      <trkpt lat="42.98997" lon="1.25748">
        <ele>465</ele>
        <time>2022-09-03T13:35:58Z</time>
      </trkpt>
      <trkpt lat="42.99004" lon="1.25713">
        <ele>464.2</ele>
        <time>2022-09-03T13:36:02Z</time>
      </trkpt>
      <trkpt lat="42.99013" lon="1.25668">
        <ele>464.4</ele>
        <time>2022-09-03T13:36:07Z</time>
      </trkpt>
      <trkpt lat="42.99027" lon="1.25604">
        <ele>463.8</ele>
        <time>2022-09-03T13:36:14Z</time>
      </trkpt>
      <trkpt lat="42.99038" lon="1.2555">
        <ele>463.2</ele>
        <time>2022-09-03T13:36:20Z</time>
      </trkpt>
      <trkpt lat="42.99044" lon="1.25524">
        <ele>463</ele>
        <time>2022-09-03T13:36:23Z</time>
      </trkpt>
      <trkpt lat="42.99056" lon="1.25468">
        <ele>462.4</ele>
        <time>2022-09-03T13:36:29Z</time>
      </trkpt>
      <trkpt lat="42.99058" lon="1.25459">
        <ele>462.2</ele>
        <time>2022-09-03T13:36:30Z</time>
      </trkpt>
      <trkpt lat="42.99067" lon="1.25413">
        <ele>462</ele>
        <time>2022-09-03T13:36:35Z</time>
      </trkpt>
      <trkpt lat="42.99079" lon="1.25352">
        <ele>461.2</ele>
        <time>2022-09-03T13:36:42Z</time>
      </trkpt>
      <trkpt lat="42.99081" lon="1.25344">
        <ele>461.2</ele>
        <time>2022-09-03T13:36:43Z</time>
      </trkpt>
      <trkpt lat="42.99091" lon="1.25296">
        <ele>460.4</ele>
        <time>2022-09-03T13:36:49Z</time>
      </trkpt>
      <trkpt lat="42.99096" lon="1.25274">
        <ele>460</ele>
        <time>2022-09-03T13:36:52Z</time>
      </trkpt>
      <trkpt lat="42.99099" lon="1.25259">
        <ele>459.8</ele>
        <time>2022-09-03T13:36:54Z</time>
      </trkpt>
      <trkpt lat="42.99112" lon="1.25215">
        <ele>459.6</ele>
        <time>2022-09-03T13:37:01Z</time>
      </trkpt>
      <trkpt lat="42.99121" lon="1.25188">
        <ele>459</ele>
        <time>2022-09-03T13:37:05Z</time>
      </trkpt>
      <trkpt lat="42.9913" lon="1.25167">
        <ele>459</ele>
        <time>2022-09-03T13:37:08Z</time>
      </trkpt>
      <trkpt lat="42.99154" lon="1.25117">
        <ele>458.4</ele>
        <time>2022-09-03T13:37:16Z</time>
      </trkpt>
      <trkpt lat="42.99168" lon="1.25093">
        <ele>458</ele>
        <time>2022-09-03T13:37:20Z</time>
      </trkpt>
      <trkpt lat="42.99188" lon="1.25063">
        <ele>457.2</ele>
        <time>2022-09-03T13:37:25Z</time>
      </trkpt>
      <trkpt lat="42.992" lon="1.25045">
        <ele>456.8</ele>
        <time>2022-09-03T13:37:28Z</time>
      </trkpt>
      <trkpt lat="42.9923" lon="1.25001">
        <ele>456</ele>
        <time>2022-09-03T13:37:35Z</time>
      </trkpt>
      <trkpt lat="42.99247" lon="1.24977">
        <ele>455.8</ele>
        <time>2022-09-03T13:37:39Z</time>
      </trkpt>
      <trkpt lat="42.99263" lon="1.24953">
        <ele>455.4</ele>
        <time>2022-09-03T13:37:43Z</time>
      </trkpt>
      <trkpt lat="42.99296" lon="1.249">
        <ele>455</ele>
        <time>2022-09-03T13:37:52Z</time>
      </trkpt>
      <trkpt lat="42.99299" lon="1.24893">
        <ele>454.8</ele>
        <time>2022-09-03T13:37:53Z</time>
      </trkpt>
      <trkpt lat="42.99322" lon="1.24843">
        <ele>454.6</ele>
        <time>2022-09-03T13:38:00Z</time>
      </trkpt>
      <trkpt lat="42.99339" lon="1.24791">
        <ele>453.8</ele>
        <time>2022-09-03T13:38:07Z</time>
      </trkpt>
      <trkpt lat="42.99352" lon="1.24735">
        <ele>453.6</ele>
        <time>2022-09-03T13:38:14Z</time>
      </trkpt>
      <trkpt lat="42.99362" lon="1.24668">
        <ele>452.8</ele>
        <time>2022-09-03T13:38:22Z</time>
      </trkpt>
      <trkpt lat="42.99363" lon="1.24659">
        <ele>452.8</ele>
        <time>2022-09-03T13:38:23Z</time>
      </trkpt>
      <trkpt lat="42.99367" lon="1.24617">
        <ele>452.2</ele>
        <time>2022-09-03T13:38:28Z</time>
      </trkpt>
      <trkpt lat="42.9937" lon="1.24584">
        <ele>451.6</ele>
        <time>2022-09-03T13:38:32Z</time>
      </trkpt>
      <trkpt lat="42.99372" lon="1.24568">
        <ele>451.6</ele>
        <time>2022-09-03T13:38:34Z</time>
      </trkpt>
      <trkpt lat="42.99376" lon="1.24527">
        <ele>451.2</ele>
        <time>2022-09-03T13:38:39Z</time>
      </trkpt>
      <trkpt lat="42.99386" lon="1.24461">
        <ele>450.6</ele>
        <time>2022-09-03T13:38:47Z</time>
      </trkpt>
      <trkpt lat="42.99402" lon="1.24397">
        <ele>450</ele>
        <time>2022-09-03T13:38:55Z</time>
      </trkpt>
      <trkpt lat="42.99414" lon="1.24359">
        <ele>449.6</ele>
        <time>2022-09-03T13:39:00Z</time>
      </trkpt>
      <trkpt lat="42.99422" lon="1.24336">
        <ele>449.2</ele>
        <time>2022-09-03T13:39:03Z</time>
      </trkpt>
      <trkpt lat="42.9945" lon="1.24266">
        <ele>448.8</ele>
        <time>2022-09-03T13:39:12Z</time>
      </trkpt>
      <trkpt lat="42.99452" lon="1.24259">
        <ele>448.8</ele>
        <time>2022-09-03T13:39:13Z</time>
      </trkpt>
      <trkpt lat="42.9946" lon="1.2424">
        <ele>448.4</ele>
        <time>2022-09-03T13:39:16Z</time>
      </trkpt>
      <trkpt lat="42.99471" lon="1.24212">
        <ele>448.2</ele>
        <time>2022-09-03T13:39:20Z</time>
      </trkpt>
      <trkpt lat="42.99491" lon="1.24163">
        <ele>447.4</ele>
        <time>2022-09-03T13:39:27Z</time>
      </trkpt>
      <trkpt lat="42.99499" lon="1.24143">
        <ele>446.8</ele>
        <time>2022-09-03T13:39:30Z</time>
      </trkpt>
      <trkpt lat="42.99513" lon="1.24109">
        <ele>446.2</ele>
        <time>2022-09-03T13:39:35Z</time>
      </trkpt>
      <trkpt lat="42.99518" lon="1.24096">
        <ele>446</ele>
        <time>2022-09-03T13:39:37Z</time>
      </trkpt>
      <trkpt lat="42.99544" lon="1.24033">
        <ele>445.4</ele>
        <time>2022-09-03T13:39:46Z</time>
      </trkpt>
      <trkpt lat="42.9955" lon="1.24018">
        <ele>445.2</ele>
        <time>2022-09-03T13:39:48Z</time>
      </trkpt>
      <trkpt lat="42.99576" lon="1.23948">
        <ele>444.4</ele>
        <time>2022-09-03T13:39:57Z</time>
      </trkpt>
      <trkpt lat="42.99579" lon="1.2394">
        <ele>444.4</ele>
        <time>2022-09-03T13:39:58Z</time>
      </trkpt>
      <trkpt lat="42.99585" lon="1.23923">
        <ele>444.2</ele>
        <time>2022-09-03T13:40:00Z</time>
      </trkpt>
      <trkpt lat="42.99587" lon="1.23915">
        <ele>444.2</ele>
        <time>2022-09-03T13:40:01Z</time>
      </trkpt>
      <trkpt lat="42.99603" lon="1.23859">
        <ele>444</ele>
        <time>2022-09-03T13:40:08Z</time>
      </trkpt>
      <trkpt lat="42.99616" lon="1.23803">
        <ele>443.4</ele>
        <time>2022-09-03T13:40:16Z</time>
      </trkpt>
      <trkpt lat="42.99627" lon="1.23746">
        <ele>443.8</ele>
        <time>2022-09-03T13:40:25Z</time>
      </trkpt>
      <trkpt lat="42.99632" lon="1.23734">
        <ele>443.8</ele>
        <time>2022-09-03T13:40:27Z</time>
      </trkpt>
      <trkpt lat="42.99641" lon="1.23719">
        <ele>444</ele>
        <time>2022-09-03T13:40:30Z</time>
      </trkpt>
      <trkpt lat="42.99649" lon="1.23712">
        <ele>443.8</ele>
        <time>2022-09-03T13:40:32Z</time>
      </trkpt>
      <trkpt lat="42.99662" lon="1.23703">
        <ele>444</ele>
        <time>2022-09-03T13:40:35Z</time>
      </trkpt>
      <trkpt lat="42.99674" lon="1.23688">
        <ele>443.6</ele>
        <time>2022-09-03T13:40:39Z</time>
      </trkpt>
      <trkpt lat="42.99677" lon="1.23683">
        <ele>443.6</ele>
        <time>2022-09-03T13:40:40Z</time>
      </trkpt>
      <trkpt lat="42.9969" lon="1.23661">
        <ele>443.6</ele>
        <time>2022-09-03T13:40:45Z</time>
      </trkpt>
      <trkpt lat="42.997" lon="1.23634">
        <ele>443.6</ele>
        <time>2022-09-03T13:40:50Z</time>
      </trkpt>
      <trkpt lat="42.997" lon="1.23629">
        <ele>443.4</ele>
        <time>2022-09-03T13:40:51Z</time>
      </trkpt>
      <trkpt lat="42.99702" lon="1.23616">
        <ele>443.2</ele>
        <time>2022-09-03T13:40:53Z</time>
      </trkpt>
      <trkpt lat="42.99707" lon="1.23589">
        <ele>443</ele>
        <time>2022-09-03T13:40:57Z</time>
      </trkpt>
      <trkpt lat="42.9972" lon="1.23543">
        <ele>442.2</ele>
        <time>2022-09-03T13:41:03Z</time>
      </trkpt>
      <trkpt lat="42.99723" lon="1.23534">
        <ele>441.6</ele>
        <time>2022-09-03T13:41:04Z</time>
      </trkpt>
      <trkpt lat="42.99725" lon="1.23525">
        <ele>441</ele>
        <time>2022-09-03T13:41:05Z</time>
      </trkpt>
      <trkpt lat="42.99736" lon="1.2348">
        <ele>440</ele>
        <time>2022-09-03T13:41:10Z</time>
      </trkpt>
      <trkpt lat="42.99738" lon="1.23471">
        <ele>439.8</ele>
        <time>2022-09-03T13:41:11Z</time>
      </trkpt>
      <trkpt lat="42.99746" lon="1.23432">
        <ele>439.4</ele>
        <time>2022-09-03T13:41:16Z</time>
      </trkpt>
      <trkpt lat="42.99745" lon="1.23426">
        <ele>439.6</ele>
        <time>2022-09-03T13:41:17Z</time>
      </trkpt>
      <trkpt lat="42.99737" lon="1.23416">
        <ele>440.2</ele>
        <time>2022-09-03T13:41:20Z</time>
      </trkpt>
      <trkpt lat="42.99734" lon="1.23401">
        <ele>441.2</ele>
        <time>2022-09-03T13:41:24Z</time>
      </trkpt>
      <trkpt lat="42.9974" lon="1.23377">
        <ele>441.8</ele>
        <time>2022-09-03T13:41:30Z</time>
      </trkpt>
      <trkpt lat="42.99741" lon="1.23365">
        <ele>442.4</ele>
        <time>2022-09-03T13:41:33Z</time>
      </trkpt>
      <trkpt lat="42.99739" lon="1.23354">
        <ele>443</ele>
        <time>2022-09-03T13:41:36Z</time>
      </trkpt>
      <trkpt lat="42.99736" lon="1.23349">
        <ele>443.4</ele>
        <time>2022-09-03T13:41:38Z</time>
      </trkpt>
      <trkpt lat="42.99731" lon="1.23342">
        <ele>443.6</ele>
        <time>2022-09-03T13:41:41Z</time>
      </trkpt>
      <trkpt lat="42.99731" lon="1.23332">
        <ele>443.6</ele>
        <time>2022-09-03T13:41:44Z</time>
      </trkpt>
      <trkpt lat="42.99732" lon="1.23327">
        <ele>443.6</ele>
        <time>2022-09-03T13:41:45Z</time>
      </trkpt>
      <trkpt lat="42.99742" lon="1.23288">
        <ele>443.2</ele>
        <time>2022-09-03T13:41:53Z</time>
      </trkpt>
      <trkpt lat="42.99752" lon="1.23245">
        <ele>443</ele>
        <time>2022-09-03T13:42:01Z</time>
      </trkpt>
      <trkpt lat="42.99759" lon="1.23214">
        <ele>442.8</ele>
        <time>2022-09-03T13:42:06Z</time>
      </trkpt>
      <trkpt lat="42.99763" lon="1.23189">
        <ele>442.6</ele>
        <time>2022-09-03T13:42:10Z</time>
      </trkpt>
      <trkpt lat="42.99769" lon="1.2314">
        <ele>442.4</ele>
        <time>2022-09-03T13:42:17Z</time>
      </trkpt>
      <trkpt lat="42.99769" lon="1.2308">
        <ele>441.6</ele>
        <time>2022-09-03T13:42:25Z</time>
      </trkpt>
      <trkpt lat="42.99764" lon="1.23029">
        <ele>441.2</ele>
        <time>2022-09-03T13:42:32Z</time>
      </trkpt>
      <trkpt lat="42.99761" lon="1.23015">
        <ele>441</ele>
        <time>2022-09-03T13:42:34Z</time>
      </trkpt>
      <trkpt lat="42.99746" lon="1.22954">
        <ele>440.6</ele>
        <time>2022-09-03T13:42:43Z</time>
      </trkpt>
      <trkpt lat="42.99743" lon="1.22942">
        <ele>440.4</ele>
        <time>2022-09-03T13:42:45Z</time>
      </trkpt>
      <trkpt lat="42.99738" lon="1.2293">
        <ele>440.4</ele>
        <time>2022-09-03T13:42:47Z</time>
      </trkpt>
      <trkpt lat="42.99735" lon="1.22925">
        <ele>440</ele>
        <time>2022-09-03T13:42:48Z</time>
      </trkpt>
      <trkpt lat="42.99721" lon="1.22895">
        <ele>440</ele>
        <time>2022-09-03T13:42:53Z</time>
      </trkpt>
      <trkpt lat="42.99702" lon="1.22858">
        <ele>439.6</ele>
        <time>2022-09-03T13:42:59Z</time>
      </trkpt>
      <trkpt lat="42.99683" lon="1.22823">
        <ele>439.2</ele>
        <time>2022-09-03T13:43:05Z</time>
      </trkpt>
      <trkpt lat="42.99674" lon="1.22806">
        <ele>439</ele>
        <time>2022-09-03T13:43:08Z</time>
      </trkpt>
      <trkpt lat="42.99663" lon="1.22786">
        <ele>438.8</ele>
        <time>2022-09-03T13:43:12Z</time>
      </trkpt>
      <trkpt lat="42.99648" lon="1.22758">
        <ele>438.8</ele>
        <time>2022-09-03T13:43:17Z</time>
      </trkpt>
      <trkpt lat="42.99635" lon="1.22732">
        <ele>438.2</ele>
        <time>2022-09-03T13:43:22Z</time>
      </trkpt>
      <trkpt lat="42.9963" lon="1.2272">
        <ele>438</ele>
        <time>2022-09-03T13:43:24Z</time>
      </trkpt>
      <trkpt lat="42.99615" lon="1.22693">
        <ele>438.2</ele>
        <time>2022-09-03T13:43:29Z</time>
      </trkpt>
      <trkpt lat="42.99604" lon="1.22671">
        <ele>438</ele>
        <time>2022-09-03T13:43:33Z</time>
      </trkpt>
      <trkpt lat="42.99599" lon="1.22663">
        <ele>437.8</ele>
        <time>2022-09-03T13:43:35Z</time>
      </trkpt>
      <trkpt lat="42.99583" lon="1.22635">
        <ele>437</ele>
        <time>2022-09-03T13:43:41Z</time>
      </trkpt>
      <trkpt lat="42.99574" lon="1.22622">
        <ele>436.2</ele>
        <time>2022-09-03T13:43:46Z</time>
      </trkpt>
      <trkpt lat="42.99569" lon="1.22612">
        <ele>436.2</ele>
        <time>2022-09-03T13:43:58Z</time>
      </trkpt>
      <trkpt lat="42.99564" lon="1.22604">
        <ele>436.2</ele>
        <time>2022-09-03T13:44:00Z</time>
      </trkpt>
      <trkpt lat="42.9955" lon="1.22585">
        <ele>436</ele>
        <time>2022-09-03T13:44:05Z</time>
      </trkpt>
      <trkpt lat="42.99545" lon="1.22578">
        <ele>435.8</ele>
        <time>2022-09-03T13:44:07Z</time>
      </trkpt>
      <trkpt lat="42.99529" lon="1.2256">
        <ele>435.8</ele>
        <time>2022-09-03T13:44:12Z</time>
      </trkpt>
      <trkpt lat="42.99504" lon="1.22538">
        <ele>435.6</ele>
        <time>2022-09-03T13:44:18Z</time>
      </trkpt>
      <trkpt lat="42.99483" lon="1.22522">
        <ele>435</ele>
        <time>2022-09-03T13:44:24Z</time>
      </trkpt>
      <trkpt lat="42.99464" lon="1.22513">
        <ele>435</ele>
        <time>2022-09-03T13:44:28Z</time>
      </trkpt>
      <trkpt lat="42.99459" lon="1.2251">
        <ele>435</ele>
        <time>2022-09-03T13:44:29Z</time>
      </trkpt>
      <trkpt lat="42.99454" lon="1.22509">
        <ele>435</ele>
        <time>2022-09-03T13:44:30Z</time>
      </trkpt>
      <trkpt lat="42.9942" lon="1.22497">
        <ele>434.8</ele>
        <time>2022-09-03T13:44:37Z</time>
      </trkpt>
      <trkpt lat="42.99409" lon="1.22494">
        <ele>434.8</ele>
        <time>2022-09-03T13:44:39Z</time>
      </trkpt>
      <trkpt lat="42.99391" lon="1.2249">
        <ele>434.6</ele>
        <time>2022-09-03T13:44:42Z</time>
      </trkpt>
      <trkpt lat="42.99362" lon="1.2248">
        <ele>434</ele>
        <time>2022-09-03T13:44:48Z</time>
      </trkpt>
      <trkpt lat="42.99356" lon="1.22479">
        <ele>433.8</ele>
        <time>2022-09-03T13:44:49Z</time>
      </trkpt>
      <trkpt lat="42.99346" lon="1.22473">
        <ele>433.4</ele>
        <time>2022-09-03T13:44:51Z</time>
      </trkpt>
      <trkpt lat="42.99335" lon="1.22469">
        <ele>433.4</ele>
        <time>2022-09-03T13:44:53Z</time>
      </trkpt>
      <trkpt lat="42.99329" lon="1.22467">
        <ele>433</ele>
        <time>2022-09-03T13:44:54Z</time>
      </trkpt>
      <trkpt lat="42.99303" lon="1.22456">
        <ele>432.8</ele>
        <time>2022-09-03T13:44:59Z</time>
      </trkpt>
      <trkpt lat="42.99293" lon="1.2245">
        <ele>432.6</ele>
        <time>2022-09-03T13:45:01Z</time>
      </trkpt>
      <trkpt lat="42.99271" lon="1.22435">
        <ele>432.2</ele>
        <time>2022-09-03T13:45:06Z</time>
      </trkpt>
      <trkpt lat="42.99268" lon="1.22432">
        <ele>432.2</ele>
        <time>2022-09-03T13:45:07Z</time>
      </trkpt>
      <trkpt lat="42.99259" lon="1.22422">
        <ele>432.2</ele>
        <time>2022-09-03T13:45:10Z</time>
      </trkpt>
      <trkpt lat="42.99251" lon="1.22415">
        <ele>432.2</ele>
        <time>2022-09-03T13:45:12Z</time>
      </trkpt>
      <trkpt lat="42.99236" lon="1.22399">
        <ele>432</ele>
        <time>2022-09-03T13:45:16Z</time>
      </trkpt>
      <trkpt lat="42.99218" lon="1.22372">
        <ele>431.6</ele>
        <time>2022-09-03T13:45:22Z</time>
      </trkpt>
      <trkpt lat="42.99215" lon="1.22368">
        <ele>431.4</ele>
        <time>2022-09-03T13:45:23Z</time>
      </trkpt>
      <trkpt lat="42.99183" lon="1.22337">
        <ele>431</ele>
        <time>2022-09-03T13:45:30Z</time>
      </trkpt>
      <trkpt lat="42.99167" lon="1.22316">
        <ele>430.6</ele>
        <time>2022-09-03T13:45:34Z</time>
      </trkpt>
      <trkpt lat="42.99152" lon="1.22288">
        <ele>430.2</ele>
        <time>2022-09-03T13:45:39Z</time>
      </trkpt>
      <trkpt lat="42.99141" lon="1.2226">
        <ele>429.6</ele>
        <time>2022-09-03T13:45:44Z</time>
      </trkpt>
      <trkpt lat="42.99136" lon="1.22244">
        <ele>429.4</ele>
        <time>2022-09-03T13:45:47Z</time>
      </trkpt>
      <trkpt lat="42.99131" lon="1.22215">
        <ele>429.4</ele>
        <time>2022-09-03T13:45:53Z</time>
      </trkpt>
      <trkpt lat="42.99131" lon="1.22194">
        <ele>429.2</ele>
        <time>2022-09-03T13:45:58Z</time>
      </trkpt>
      <trkpt lat="42.99127" lon="1.22161">
        <ele>428.8</ele>
        <time>2022-09-03T13:46:04Z</time>
      </trkpt>
      <trkpt lat="42.99124" lon="1.22133">
        <ele>428.6</ele>
        <time>2022-09-03T13:46:09Z</time>
      </trkpt>
      <trkpt lat="42.99124" lon="1.22114">
        <ele>428.4</ele>
        <time>2022-09-03T13:46:12Z</time>
      </trkpt>
      <trkpt lat="42.99121" lon="1.22064">
        <ele>428.2</ele>
        <time>2022-09-03T13:46:19Z</time>
      </trkpt>
      <trkpt lat="42.99121" lon="1.22049">
        <ele>428.4</ele>
        <time>2022-09-03T13:46:21Z</time>
      </trkpt>
      <trkpt lat="42.99125" lon="1.22021">
        <ele>428.4</ele>
        <time>2022-09-03T13:46:25Z</time>
      </trkpt>
      <trkpt lat="42.99137" lon="1.21969">
        <ele>428</ele>
        <time>2022-09-03T13:46:32Z</time>
      </trkpt>
      <trkpt lat="42.99148" lon="1.21923">
        <ele>427.8</ele>
        <time>2022-09-03T13:46:38Z</time>
      </trkpt>
      <trkpt lat="42.9916" lon="1.21877">
        <ele>427.6</ele>
        <time>2022-09-03T13:46:44Z</time>
      </trkpt>
      <trkpt lat="42.99169" lon="1.21848">
        <ele>427.6</ele>
        <time>2022-09-03T13:46:48Z</time>
      </trkpt>
      <trkpt lat="42.99178" lon="1.21811">
        <ele>427.4</ele>
        <time>2022-09-03T13:46:53Z</time>
      </trkpt>
      <trkpt lat="42.99189" lon="1.21759">
        <ele>427.2</ele>
        <time>2022-09-03T13:47:00Z</time>
      </trkpt>
      <trkpt lat="42.99196" lon="1.21716">
        <ele>426.4</ele>
        <time>2022-09-03T13:47:06Z</time>
      </trkpt>
      <trkpt lat="42.99203" lon="1.21654">
        <ele>426.4</ele>
        <time>2022-09-03T13:47:14Z</time>
      </trkpt>
      <trkpt lat="42.99209" lon="1.21595">
        <ele>426.4</ele>
        <time>2022-09-03T13:47:22Z</time>
      </trkpt>
      <trkpt lat="42.99211" lon="1.21559">
        <ele>426.4</ele>
        <time>2022-09-03T13:47:27Z</time>
      </trkpt>
      <trkpt lat="42.9921" lon="1.21499">
        <ele>426</ele>
        <time>2022-09-03T13:47:35Z</time>
      </trkpt>
      <trkpt lat="42.99207" lon="1.2144">
        <ele>425.8</ele>
        <time>2022-09-03T13:47:43Z</time>
      </trkpt>
      <trkpt lat="42.99204" lon="1.21411">
        <ele>425.6</ele>
        <time>2022-09-03T13:47:47Z</time>
      </trkpt>
      <trkpt lat="42.99201" lon="1.21389">
        <ele>425.6</ele>
        <time>2022-09-03T13:47:50Z</time>
      </trkpt>
      <trkpt lat="42.99195" lon="1.21337">
        <ele>425.6</ele>
        <time>2022-09-03T13:47:57Z</time>
      </trkpt>
      <trkpt lat="42.99194" lon="1.21323">
        <ele>425.2</ele>
        <time>2022-09-03T13:47:59Z</time>
      </trkpt>
      <trkpt lat="42.99192" lon="1.21285">
        <ele>425.2</ele>
        <time>2022-09-03T13:48:04Z</time>
      </trkpt>
      <trkpt lat="42.99188" lon="1.21238">
        <ele>424.8</ele>
        <time>2022-09-03T13:48:10Z</time>
      </trkpt>
      <trkpt lat="42.99186" lon="1.21186">
        <ele>424.8</ele>
        <time>2022-09-03T13:48:17Z</time>
      </trkpt>
      <trkpt lat="42.99184" lon="1.21155">
        <ele>424.2</ele>
        <time>2022-09-03T13:48:21Z</time>
      </trkpt>
      <trkpt lat="42.99184" lon="1.21122">
        <ele>424</ele>
        <time>2022-09-03T13:48:25Z</time>
      </trkpt>
      <trkpt lat="42.99185" lon="1.21065">
        <ele>424</ele>
        <time>2022-09-03T13:48:32Z</time>
      </trkpt>
      <trkpt lat="42.99188" lon="1.21003">
        <ele>423.8</ele>
        <time>2022-09-03T13:48:40Z</time>
      </trkpt>
      <trkpt lat="42.99195" lon="1.20933">
        <ele>423.6</ele>
        <time>2022-09-03T13:48:49Z</time>
      </trkpt>
      <trkpt lat="42.99203" lon="1.20852">
        <ele>423.8</ele>
        <time>2022-09-03T13:48:59Z</time>
      </trkpt>
      <trkpt lat="42.99206" lon="1.20822">
        <ele>423</ele>
        <time>2022-09-03T13:49:03Z</time>
      </trkpt>
      <trkpt lat="42.99209" lon="1.20793">
        <ele>423.4</ele>
        <time>2022-09-03T13:49:07Z</time>
      </trkpt>
      <trkpt lat="42.99215" lon="1.20744">
        <ele>423</ele>
        <time>2022-09-03T13:49:14Z</time>
      </trkpt>
      <trkpt lat="42.99221" lon="1.20693">
        <ele>422.4</ele>
        <time>2022-09-03T13:49:21Z</time>
      </trkpt>
      <trkpt lat="42.99229" lon="1.20626">
        <ele>422</ele>
        <time>2022-09-03T13:49:30Z</time>
      </trkpt>
      <trkpt lat="42.99229" lon="1.20618">
        <ele>422</ele>
        <time>2022-09-03T13:49:31Z</time>
      </trkpt>
      <trkpt lat="42.99236" lon="1.20554">
        <ele>421.6</ele>
        <time>2022-09-03T13:49:39Z</time>
      </trkpt>
      <trkpt lat="42.99242" lon="1.20498">
        <ele>421.8</ele>
        <time>2022-09-03T13:49:46Z</time>
      </trkpt>
      <trkpt lat="42.99251" lon="1.20418">
        <ele>421.6</ele>
        <time>2022-09-03T13:49:56Z</time>
      </trkpt>
      <trkpt lat="42.99253" lon="1.20402">
        <ele>421.6</ele>
        <time>2022-09-03T13:49:58Z</time>
      </trkpt>
      <trkpt lat="42.99261" lon="1.20332">
        <ele>421</ele>
        <time>2022-09-03T13:50:07Z</time>
      </trkpt>
      <trkpt lat="42.99262" lon="1.20324">
        <ele>421</ele>
        <time>2022-09-03T13:50:08Z</time>
      </trkpt>
      <trkpt lat="42.99271" lon="1.20247">
        <ele>420.4</ele>
        <time>2022-09-03T13:50:18Z</time>
      </trkpt>
      <trkpt lat="42.99272" lon="1.20239">
        <ele>420.2</ele>
        <time>2022-09-03T13:50:19Z</time>
      </trkpt>
      <trkpt lat="42.99281" lon="1.20189">
        <ele>420.2</ele>
        <time>2022-09-03T13:50:26Z</time>
      </trkpt>
      <trkpt lat="42.99294" lon="1.20143">
        <ele>420.2</ele>
        <time>2022-09-03T13:50:33Z</time>
      </trkpt>
      <trkpt lat="42.99307" lon="1.2011">
        <ele>420</ele>
        <time>2022-09-03T13:50:38Z</time>
      </trkpt>
      <trkpt lat="42.99319" lon="1.20084">
        <ele>420</ele>
        <time>2022-09-03T13:50:42Z</time>
      </trkpt>
      <trkpt lat="42.99341" lon="1.20039">
        <ele>419.6</ele>
        <time>2022-09-03T13:50:49Z</time>
      </trkpt>
      <trkpt lat="42.99352" lon="1.20016">
        <ele>419.6</ele>
        <time>2022-09-03T13:50:53Z</time>
      </trkpt>
      <trkpt lat="42.99358" lon="1.20005">
        <ele>419.4</ele>
        <time>2022-09-03T13:50:55Z</time>
      </trkpt>
      <trkpt lat="42.99378" lon="1.19963">
        <ele>419.4</ele>
        <time>2022-09-03T13:51:02Z</time>
      </trkpt>
      <trkpt lat="42.99397" lon="1.1991">
        <ele>418.8</ele>
        <time>2022-09-03T13:51:10Z</time>
      </trkpt>
      <trkpt lat="42.99405" lon="1.19881">
        <ele>419</ele>
        <time>2022-09-03T13:51:14Z</time>
      </trkpt>
      <trkpt lat="42.99406" lon="1.19867">
        <ele>418.8</ele>
        <time>2022-09-03T13:51:16Z</time>
      </trkpt>
      <trkpt lat="42.99407" lon="1.19848">
        <ele>418.6</ele>
        <time>2022-09-03T13:51:19Z</time>
      </trkpt>
      <trkpt lat="42.99409" lon="1.19836">
        <ele>418.4</ele>
        <time>2022-09-03T13:51:21Z</time>
      </trkpt>
      <trkpt lat="42.99409" lon="1.19822">
        <ele>418.4</ele>
        <time>2022-09-03T13:51:23Z</time>
      </trkpt>
      <trkpt lat="42.99409" lon="1.19808">
        <ele>418.2</ele>
        <time>2022-09-03T13:51:25Z</time>
      </trkpt>
      <trkpt lat="42.99409" lon="1.198">
        <ele>418.2</ele>
        <time>2022-09-03T13:51:26Z</time>
      </trkpt>
      <trkpt lat="42.99412" lon="1.19763">
        <ele>417.8</ele>
        <time>2022-09-03T13:51:31Z</time>
      </trkpt>
      <trkpt lat="42.99413" lon="1.19756">
        <ele>417.8</ele>
        <time>2022-09-03T13:51:32Z</time>
      </trkpt>
      <trkpt lat="42.99416" lon="1.1973">
        <ele>417.6</ele>
        <time>2022-09-03T13:51:36Z</time>
      </trkpt>
      <trkpt lat="42.99416" lon="1.19723">
        <ele>417.4</ele>
        <time>2022-09-03T13:51:37Z</time>
      </trkpt>
      <trkpt lat="42.99416" lon="1.19701">
        <ele>417.6</ele>
        <time>2022-09-03T13:51:40Z</time>
      </trkpt>
      <trkpt lat="42.99417" lon="1.19688">
        <ele>417.8</ele>
        <time>2022-09-03T13:51:42Z</time>
      </trkpt>
      <trkpt lat="42.99415" lon="1.19656">
        <ele>417.8</ele>
        <time>2022-09-03T13:51:47Z</time>
      </trkpt>
      <trkpt lat="42.99413" lon="1.19623">
        <ele>417.6</ele>
        <time>2022-09-03T13:51:52Z</time>
      </trkpt>
      <trkpt lat="42.99412" lon="1.19605">
        <ele>417.8</ele>
        <time>2022-09-03T13:51:55Z</time>
      </trkpt>
      <trkpt lat="42.99411" lon="1.19587">
        <ele>417.6</ele>
        <time>2022-09-03T13:51:58Z</time>
      </trkpt>
      <trkpt lat="42.99404" lon="1.19538">
        <ele>416.8</ele>
        <time>2022-09-03T13:52:07Z</time>
      </trkpt>
      <trkpt lat="42.99396" lon="1.19496">
        <ele>417.4</ele>
        <time>2022-09-03T13:52:14Z</time>
      </trkpt>
      <trkpt lat="42.99394" lon="1.1949">
        <ele>417.4</ele>
        <time>2022-09-03T13:52:15Z</time>
      </trkpt>
      <trkpt lat="42.9938" lon="1.19437">
        <ele>417</ele>
        <time>2022-09-03T13:52:24Z</time>
      </trkpt>
      <trkpt lat="42.99372" lon="1.19401">
        <ele>417</ele>
        <time>2022-09-03T13:52:30Z</time>
      </trkpt>
      <trkpt lat="42.99364" lon="1.19353">
        <ele>416.4</ele>
        <time>2022-09-03T13:52:38Z</time>
      </trkpt>
      <trkpt lat="42.9936" lon="1.19315">
        <ele>416</ele>
        <time>2022-09-03T13:52:45Z</time>
      </trkpt>
      <trkpt lat="42.99361" lon="1.19278">
        <ele>416</ele>
        <time>2022-09-03T13:52:51Z</time>
      </trkpt>
      <trkpt lat="42.99362" lon="1.19245">
        <ele>416</ele>
        <time>2022-09-03T13:52:56Z</time>
      </trkpt>
      <trkpt lat="42.99363" lon="1.19231">
        <ele>415.8</ele>
        <time>2022-09-03T13:52:58Z</time>
      </trkpt>
      <trkpt lat="42.99366" lon="1.19211">
        <ele>415.8</ele>
        <time>2022-09-03T13:53:01Z</time>
      </trkpt>
      <trkpt lat="42.99367" lon="1.19204">
        <ele>415.8</ele>
        <time>2022-09-03T13:53:02Z</time>
      </trkpt>
      <trkpt lat="42.99377" lon="1.19155">
        <ele>415.4</ele>
        <time>2022-09-03T13:53:09Z</time>
      </trkpt>
      <trkpt lat="42.99391" lon="1.19117">
        <ele>415.2</ele>
        <time>2022-09-03T13:53:15Z</time>
      </trkpt>
      <trkpt lat="42.9941" lon="1.19066">
        <ele>414.8</ele>
        <time>2022-09-03T13:53:23Z</time>
      </trkpt>
      <trkpt lat="42.99412" lon="1.1906">
        <ele>414.8</ele>
        <time>2022-09-03T13:53:24Z</time>
      </trkpt>
      <trkpt lat="42.99422" lon="1.19037">
        <ele>415</ele>
        <time>2022-09-03T13:53:28Z</time>
      </trkpt>
      <trkpt lat="42.99441" lon="1.18985">
        <ele>414.6</ele>
        <time>2022-09-03T13:53:36Z</time>
      </trkpt>
      <trkpt lat="42.99446" lon="1.18973">
        <ele>414.6</ele>
        <time>2022-09-03T13:53:38Z</time>
      </trkpt>
      <trkpt lat="42.99452" lon="1.18953">
        <ele>414.6</ele>
        <time>2022-09-03T13:53:41Z</time>
      </trkpt>
      <trkpt lat="42.99459" lon="1.18936">
        <ele>414.2</ele>
        <time>2022-09-03T13:53:44Z</time>
      </trkpt>
      <trkpt lat="42.99461" lon="1.18923">
        <ele>414.2</ele>
        <time>2022-09-03T13:53:46Z</time>
      </trkpt>
      <trkpt lat="42.99462" lon="1.18912">
        <ele>414.4</ele>
        <time>2022-09-03T13:53:48Z</time>
      </trkpt>
      <trkpt lat="42.99463" lon="1.18901">
        <ele>414.2</ele>
        <time>2022-09-03T13:53:51Z</time>
      </trkpt>
      <trkpt lat="42.99462" lon="1.18896">
        <ele>413.8</ele>
        <time>2022-09-03T13:53:53Z</time>
      </trkpt>
      <trkpt lat="42.99463" lon="1.18891">
        <ele>413.6</ele>
        <time>2022-09-03T13:53:56Z</time>
      </trkpt>
      <trkpt lat="42.99463" lon="1.18874">
        <ele>414</ele>
        <time>2022-09-03T13:54:01Z</time>
      </trkpt>
      <trkpt lat="42.9946" lon="1.18847">
        <ele>414</ele>
        <time>2022-09-03T13:54:06Z</time>
      </trkpt>
      <trkpt lat="42.99459" lon="1.18821">
        <ele>414.2</ele>
        <time>2022-09-03T13:54:11Z</time>
      </trkpt>
      <trkpt lat="42.99459" lon="1.18797">
        <ele>414.2</ele>
        <time>2022-09-03T13:54:16Z</time>
      </trkpt>
      <trkpt lat="42.99456" lon="1.18769">
        <ele>414</ele>
        <time>2022-09-03T13:54:21Z</time>
      </trkpt>
      <trkpt lat="42.99457" lon="1.1874">
        <ele>414</ele>
        <time>2022-09-03T13:54:27Z</time>
      </trkpt>
      <trkpt lat="42.99453" lon="1.18711">
        <ele>414.4</ele>
        <time>2022-09-03T13:54:32Z</time>
      </trkpt>
      <trkpt lat="42.99449" lon="1.18679">
        <ele>413.6</ele>
        <time>2022-09-03T13:54:37Z</time>
      </trkpt>
      <trkpt lat="42.99449" lon="1.18673">
        <ele>413.6</ele>
        <time>2022-09-03T13:54:38Z</time>
      </trkpt>
      <trkpt lat="42.9944" lon="1.18642">
        <ele>413.4</ele>
        <time>2022-09-03T13:54:43Z</time>
      </trkpt>
      <trkpt lat="42.99426" lon="1.18604">
        <ele>413.2</ele>
        <time>2022-09-03T13:54:49Z</time>
      </trkpt>
      <trkpt lat="42.99424" lon="1.18598">
        <ele>413.2</ele>
        <time>2022-09-03T13:54:50Z</time>
      </trkpt>
      <trkpt lat="42.99409" lon="1.18556">
        <ele>412.8</ele>
        <time>2022-09-03T13:54:57Z</time>
      </trkpt>
      <trkpt lat="42.99402" lon="1.18527">
        <ele>412.8</ele>
        <time>2022-09-03T13:55:02Z</time>
      </trkpt>
      <trkpt lat="42.994" lon="1.18521">
        <ele>412.6</ele>
        <time>2022-09-03T13:55:03Z</time>
      </trkpt>
      <trkpt lat="42.99391" lon="1.18485">
        <ele>412.6</ele>
        <time>2022-09-03T13:55:09Z</time>
      </trkpt>
      <trkpt lat="42.99385" lon="1.18439">
        <ele>412.2</ele>
        <time>2022-09-03T13:55:16Z</time>
      </trkpt>
      <trkpt lat="42.99384" lon="1.18433">
        <ele>412.2</ele>
        <time>2022-09-03T13:55:17Z</time>
      </trkpt>
      <trkpt lat="42.99382" lon="1.18405">
        <ele>412.2</ele>
        <time>2022-09-03T13:55:21Z</time>
      </trkpt>
      <trkpt lat="42.99378" lon="1.18353">
        <ele>412.2</ele>
        <time>2022-09-03T13:55:28Z</time>
      </trkpt>
      <trkpt lat="42.99377" lon="1.18346">
        <ele>412.2</ele>
        <time>2022-09-03T13:55:29Z</time>
      </trkpt>
      <trkpt lat="42.99377" lon="1.18312">
        <ele>412</ele>
        <time>2022-09-03T13:55:34Z</time>
      </trkpt>
      <trkpt lat="42.99374" lon="1.18274">
        <ele>412.2</ele>
        <time>2022-09-03T13:55:40Z</time>
      </trkpt>
      <trkpt lat="42.99371" lon="1.18242">
        <ele>411.8</ele>
        <time>2022-09-03T13:55:46Z</time>
      </trkpt>
      <trkpt lat="42.99369" lon="1.18196">
        <ele>412</ele>
        <time>2022-09-03T13:55:53Z</time>
      </trkpt>
      <trkpt lat="42.99368" lon="1.18146">
        <ele>411.8</ele>
        <time>2022-09-03T13:56:00Z</time>
      </trkpt>
      <trkpt lat="42.99366" lon="1.18127">
        <ele>411.6</ele>
        <time>2022-09-03T13:56:03Z</time>
      </trkpt>
      <trkpt lat="42.99366" lon="1.1811">
        <ele>411.6</ele>
        <time>2022-09-03T13:56:06Z</time>
      </trkpt>
      <trkpt lat="42.99363" lon="1.18089">
        <ele>412.8</ele>
        <time>2022-09-03T13:56:09Z</time>
      </trkpt>
      <trkpt lat="42.99361" lon="1.18069">
        <ele>412.6</ele>
        <time>2022-09-03T13:56:12Z</time>
      </trkpt>
      <trkpt lat="42.9936" lon="1.18049">
        <ele>411.4</ele>
        <time>2022-09-03T13:56:15Z</time>
      </trkpt>
      <trkpt lat="42.99358" lon="1.18028">
        <ele>411</ele>
        <time>2022-09-03T13:56:18Z</time>
      </trkpt>
      <trkpt lat="42.99352" lon="1.17957">
        <ele>410.6</ele>
        <time>2022-09-03T13:56:28Z</time>
      </trkpt>
      <trkpt lat="42.99351" lon="1.1795">
        <ele>410.4</ele>
        <time>2022-09-03T13:56:29Z</time>
      </trkpt>
      <trkpt lat="42.99347" lon="1.17907">
        <ele>410.6</ele>
        <time>2022-09-03T13:56:36Z</time>
      </trkpt>
      <trkpt lat="42.99346" lon="1.17895">
        <ele>410.6</ele>
        <time>2022-09-03T13:56:38Z</time>
      </trkpt>
      <trkpt lat="42.99344" lon="1.17876">
        <ele>410.2</ele>
        <time>2022-09-03T13:56:41Z</time>
      </trkpt>
      <trkpt lat="42.99339" lon="1.17827">
        <ele>410</ele>
        <time>2022-09-03T13:56:49Z</time>
      </trkpt>
      <trkpt lat="42.99333" lon="1.1777">
        <ele>409.6</ele>
        <time>2022-09-03T13:56:58Z</time>
      </trkpt>
      <trkpt lat="42.9933" lon="1.17743">
        <ele>409.4</ele>
        <time>2022-09-03T13:57:02Z</time>
      </trkpt>
      <trkpt lat="42.99326" lon="1.17701">
        <ele>409.2</ele>
        <time>2022-09-03T13:57:08Z</time>
      </trkpt>
      <trkpt lat="42.99323" lon="1.17668">
        <ele>409</ele>
        <time>2022-09-03T13:57:13Z</time>
      </trkpt>
      <trkpt lat="42.99321" lon="1.17657">
        <ele>409</ele>
        <time>2022-09-03T13:57:15Z</time>
      </trkpt>
      <trkpt lat="42.99317" lon="1.17627">
        <ele>408.6</ele>
        <time>2022-09-03T13:57:21Z</time>
      </trkpt>
      <trkpt lat="42.99312" lon="1.17588">
        <ele>408.6</ele>
        <time>2022-09-03T13:57:27Z</time>
      </trkpt>
      <trkpt lat="42.99308" lon="1.1754">
        <ele>408.8</ele>
        <time>2022-09-03T13:57:34Z</time>
      </trkpt>
      <trkpt lat="42.99306" lon="1.17502">
        <ele>409.4</ele>
        <time>2022-09-03T13:57:40Z</time>
      </trkpt>
      <trkpt lat="42.99303" lon="1.17465">
        <ele>409.4</ele>
        <time>2022-09-03T13:57:46Z</time>
      </trkpt>
      <trkpt lat="42.99303" lon="1.17459">
        <ele>409.4</ele>
        <time>2022-09-03T13:57:47Z</time>
      </trkpt>
      <trkpt lat="42.993" lon="1.17421">
        <ele>409.2</ele>
        <time>2022-09-03T13:57:54Z</time>
      </trkpt>
      <trkpt lat="42.99299" lon="1.17413">
        <ele>409</ele>
        <time>2022-09-03T13:57:58Z</time>
      </trkpt>
      <trkpt lat="42.99298" lon="1.17399">
        <ele>409.4</ele>
        <time>2022-09-03T13:59:48Z</time>
      </trkpt>
      <trkpt lat="42.99298" lon="1.17395">
        <ele>409.4</ele>
        <time>2022-09-03T13:59:49Z</time>
      </trkpt>
      <trkpt lat="42.99293" lon="1.17351">
        <ele>409</ele>
        <time>2022-09-03T13:59:58Z</time>
      </trkpt>
      <trkpt lat="42.99291" lon="1.17319">
        <ele>409.4</ele>
        <time>2022-09-03T14:00:04Z</time>
      </trkpt>
      <trkpt lat="42.99287" lon="1.17263">
        <ele>408.6</ele>
        <time>2022-09-03T14:00:14Z</time>
      </trkpt>
      <trkpt lat="42.99285" lon="1.17244">
        <ele>408.2</ele>
        <time>2022-09-03T14:00:17Z</time>
      </trkpt>
      <trkpt lat="42.99285" lon="1.17215">
        <ele>407.8</ele>
        <time>2022-09-03T14:00:21Z</time>
      </trkpt>
      <trkpt lat="42.99286" lon="1.17183">
        <ele>407.2</ele>
        <time>2022-09-03T14:00:25Z</time>
      </trkpt>
      <trkpt lat="42.99286" lon="1.17168">
        <ele>406.8</ele>
        <time>2022-09-03T14:00:27Z</time>
      </trkpt>
      <trkpt lat="42.99285" lon="1.17137">
        <ele>406.2</ele>
        <time>2022-09-03T14:00:31Z</time>
      </trkpt>
      <trkpt lat="42.99285" lon="1.1713">
        <ele>406.2</ele>
        <time>2022-09-03T14:00:32Z</time>
      </trkpt>
      <trkpt lat="42.99285" lon="1.17124">
        <ele>406.4</ele>
        <time>2022-09-03T14:00:33Z</time>
      </trkpt>
      <trkpt lat="42.99285" lon="1.17111">
        <ele>406.6</ele>
        <time>2022-09-03T14:00:35Z</time>
      </trkpt>
      <trkpt lat="42.99285" lon="1.17095">
        <ele>406.6</ele>
        <time>2022-09-03T14:00:38Z</time>
      </trkpt>
      <trkpt lat="42.99284" lon="1.17073">
        <ele>405.8</ele>
        <time>2022-09-03T14:00:42Z</time>
      </trkpt>
      <trkpt lat="42.99284" lon="1.17067">
        <ele>405.8</ele>
        <time>2022-09-03T14:00:43Z</time>
      </trkpt>
      <trkpt lat="42.9928" lon="1.17042">
        <ele>405.8</ele>
        <time>2022-09-03T14:00:48Z</time>
      </trkpt>
      <trkpt lat="42.99277" lon="1.17008">
        <ele>405.6</ele>
        <time>2022-09-03T14:00:54Z</time>
      </trkpt>
      <trkpt lat="42.99275" lon="1.16983">
        <ele>405.4</ele>
        <time>2022-09-03T14:00:58Z</time>
      </trkpt>
      <trkpt lat="42.99273" lon="1.1697">
        <ele>405.4</ele>
        <time>2022-09-03T14:01:00Z</time>
      </trkpt>
      <trkpt lat="42.99267" lon="1.16936">
        <ele>405.2</ele>
        <time>2022-09-03T14:01:06Z</time>
      </trkpt>
      <trkpt lat="42.99261" lon="1.16891">
        <ele>404.8</ele>
        <time>2022-09-03T14:01:14Z</time>
      </trkpt>
      <trkpt lat="42.99257" lon="1.16861">
        <ele>404.6</ele>
        <time>2022-09-03T14:01:19Z</time>
      </trkpt>
      <trkpt lat="42.99251" lon="1.16825">
        <ele>404.4</ele>
        <time>2022-09-03T14:01:26Z</time>
      </trkpt>
      <trkpt lat="42.99249" lon="1.1681">
        <ele>404.2</ele>
        <time>2022-09-03T14:01:30Z</time>
      </trkpt>
      <trkpt lat="42.99248" lon="1.16805">
        <ele>404</ele>
        <time>2022-09-03T14:01:32Z</time>
      </trkpt>
      <trkpt lat="42.99234" lon="1.16748">
        <ele>404</ele>
        <time>2022-09-03T14:02:55Z</time>
      </trkpt>
      <trkpt lat="42.99233" lon="1.16745">
        <ele>403.8</ele>
        <time>2022-09-03T14:02:56Z</time>
      </trkpt>
      <trkpt lat="42.99228" lon="1.16726">
        <ele>403.8</ele>
        <time>2022-09-03T14:03:01Z</time>
      </trkpt>
      <trkpt lat="42.99227" lon="1.16723">
        <ele>403.8</ele>
        <time>2022-09-03T14:03:02Z</time>
      </trkpt>
      <trkpt lat="42.99221" lon="1.16704">
        <ele>404</ele>
        <time>2022-09-03T14:03:22Z</time>
      </trkpt>
      <trkpt lat="42.99217" lon="1.16696">
        <ele>404</ele>
        <time>2022-09-03T14:03:24Z</time>
      </trkpt>
      <trkpt lat="42.99203" lon="1.16665">
        <ele>404</ele>
        <time>2022-09-03T14:03:30Z</time>
      </trkpt>
      <trkpt lat="42.9919" lon="1.1663">
        <ele>404</ele>
        <time>2022-09-03T14:03:37Z</time>
      </trkpt>
      <trkpt lat="42.99178" lon="1.16601">
        <ele>404.2</ele>
        <time>2022-09-03T14:03:43Z</time>
      </trkpt>
      <trkpt lat="42.99165" lon="1.1656">
        <ele>404.2</ele>
        <time>2022-09-03T14:03:51Z</time>
      </trkpt>
      <trkpt lat="42.99159" lon="1.16533">
        <ele>404.2</ele>
        <time>2022-09-03T14:03:57Z</time>
      </trkpt>
      <trkpt lat="42.99153" lon="1.16511">
        <ele>404</ele>
        <time>2022-09-03T14:04:01Z</time>
      </trkpt>
      <trkpt lat="42.9915" lon="1.165">
        <ele>404</ele>
        <time>2022-09-03T14:04:03Z</time>
      </trkpt>
      <trkpt lat="42.99143" lon="1.16474">
        <ele>404.2</ele>
        <time>2022-09-03T14:04:08Z</time>
      </trkpt>
      <trkpt lat="42.99135" lon="1.16441">
        <ele>404.4</ele>
        <time>2022-09-03T14:04:14Z</time>
      </trkpt>
      <trkpt lat="42.99127" lon="1.16413">
        <ele>404.4</ele>
        <time>2022-09-03T14:04:19Z</time>
      </trkpt>
      <trkpt lat="42.99122" lon="1.16387">
        <ele>404.4</ele>
        <time>2022-09-03T14:04:24Z</time>
      </trkpt>
      <trkpt lat="42.99119" lon="1.16376">
        <ele>404.4</ele>
        <time>2022-09-03T14:04:26Z</time>
      </trkpt>
      <trkpt lat="42.99115" lon="1.16352">
        <ele>404.4</ele>
        <time>2022-09-03T14:04:30Z</time>
      </trkpt>
      <trkpt lat="42.99109" lon="1.16326">
        <ele>404.2</ele>
        <time>2022-09-03T14:04:35Z</time>
      </trkpt>
      <trkpt lat="42.99102" lon="1.16295">
        <ele>404.2</ele>
        <time>2022-09-03T14:04:42Z</time>
      </trkpt>
      <trkpt lat="42.99095" lon="1.16261">
        <ele>404.2</ele>
        <time>2022-09-03T14:04:49Z</time>
      </trkpt>
      <trkpt lat="42.99089" lon="1.16246">
        <ele>404.2</ele>
        <time>2022-09-03T14:04:53Z</time>
      </trkpt>
      <trkpt lat="42.99087" lon="1.16243">
        <ele>404.2</ele>
        <time>2022-09-03T14:04:54Z</time>
      </trkpt>
      <trkpt lat="42.99078" lon="1.1624">
        <ele>404.8</ele>
        <time>2022-09-03T14:04:57Z</time>
      </trkpt>
      <trkpt lat="42.99072" lon="1.16239">
        <ele>405.2</ele>
        <time>2022-09-03T14:04:59Z</time>
      </trkpt>
      <trkpt lat="42.9907" lon="1.16239">
        <ele>405.4</ele>
        <time>2022-09-03T14:05:00Z</time>
      </trkpt>
      <trkpt lat="42.99057" lon="1.16239">
        <ele>406.4</ele>
        <time>2022-09-03T14:05:05Z</time>
      </trkpt>
      <trkpt lat="42.99054" lon="1.16239">
        <ele>406.6</ele>
        <time>2022-09-03T14:05:06Z</time>
      </trkpt>
      <trkpt lat="42.99045" lon="1.16239">
        <ele>407.6</ele>
        <time>2022-09-03T14:05:11Z</time>
      </trkpt>
      <trkpt lat="42.99043" lon="1.16239">
        <ele>407.8</ele>
        <time>2022-09-03T14:05:12Z</time>
      </trkpt>
      <trkpt lat="42.99036" lon="1.16241">
        <ele>408.8</ele>
        <time>2022-09-03T14:05:16Z</time>
      </trkpt>
      <trkpt lat="42.99028" lon="1.16238">
        <ele>409.8</ele>
        <time>2022-09-03T14:05:21Z</time>
      </trkpt>
      <trkpt lat="42.99026" lon="1.16235">
        <ele>410.4</ele>
        <time>2022-09-03T14:05:23Z</time>
      </trkpt>
      <trkpt lat="42.99026" lon="1.16228">
        <ele>411</ele>
        <time>2022-09-03T14:05:26Z</time>
      </trkpt>
      <trkpt lat="42.99027" lon="1.16225">
        <ele>411.2</ele>
        <time>2022-09-03T14:05:28Z</time>
      </trkpt>
      <trkpt lat="42.99034" lon="1.16212">
        <ele>411</ele>
        <time>2022-09-03T14:05:34Z</time>
      </trkpt>
      <trkpt lat="42.9904" lon="1.16194">
        <ele>410.6</ele>
        <time>2022-09-03T14:05:38Z</time>
      </trkpt>
      <trkpt lat="42.99041" lon="1.16188">
        <ele>410.2</ele>
        <time>2022-09-03T14:05:39Z</time>
      </trkpt>
      <trkpt lat="42.99042" lon="1.16176">
        <ele>410</ele>
        <time>2022-09-03T14:05:41Z</time>
      </trkpt>
      <trkpt lat="42.99041" lon="1.16163">
        <ele>409.8</ele>
        <time>2022-09-03T14:05:43Z</time>
      </trkpt>
      <trkpt lat="42.99041" lon="1.16156">
        <ele>409.8</ele>
        <time>2022-09-03T14:05:44Z</time>
      </trkpt>
      <trkpt lat="42.99039" lon="1.16142">
        <ele>409.4</ele>
        <time>2022-09-03T14:05:46Z</time>
      </trkpt>
      <trkpt lat="42.99039" lon="1.16119">
        <ele>408.8</ele>
        <time>2022-09-03T14:05:49Z</time>
      </trkpt>
      <trkpt lat="42.99039" lon="1.16111">
        <ele>408.6</ele>
        <time>2022-09-03T14:05:50Z</time>
      </trkpt>
      <trkpt lat="42.9904" lon="1.16084">
        <ele>407.8</ele>
        <time>2022-09-03T14:05:53Z</time>
      </trkpt>
      <trkpt lat="42.9904" lon="1.16065">
        <ele>407.4</ele>
        <time>2022-09-03T14:05:55Z</time>
      </trkpt>
      <trkpt lat="42.99041" lon="1.16025">
        <ele>406.6</ele>
        <time>2022-09-03T14:05:59Z</time>
      </trkpt>
      <trkpt lat="42.99042" lon="1.16006">
        <ele>406.4</ele>
        <time>2022-09-03T14:06:01Z</time>
      </trkpt>
      <trkpt lat="42.99047" lon="1.15971">
        <ele>405.8</ele>
        <time>2022-09-03T14:06:05Z</time>
      </trkpt>
      <trkpt lat="42.99049" lon="1.15963">
        <ele>405.6</ele>
        <time>2022-09-03T14:06:06Z</time>
      </trkpt>
      <trkpt lat="42.99051" lon="1.15955">
        <ele>405.4</ele>
        <time>2022-09-03T14:06:07Z</time>
      </trkpt>
      <trkpt lat="42.99059" lon="1.15939">
        <ele>404.8</ele>
        <time>2022-09-03T14:06:09Z</time>
      </trkpt>
      <trkpt lat="42.99063" lon="1.15929">
        <ele>404.4</ele>
        <time>2022-09-03T14:06:10Z</time>
      </trkpt>
      <trkpt lat="42.99075" lon="1.15898">
        <ele>403.2</ele>
        <time>2022-09-03T14:06:13Z</time>
      </trkpt>
      <trkpt lat="42.99079" lon="1.15888">
        <ele>403</ele>
        <time>2022-09-03T14:06:14Z</time>
      </trkpt>
      <trkpt lat="42.99084" lon="1.15879">
        <ele>402.8</ele>
        <time>2022-09-03T14:06:15Z</time>
      </trkpt>
      <trkpt lat="42.99108" lon="1.15838">
        <ele>402.2</ele>
        <time>2022-09-03T14:06:20Z</time>
      </trkpt>
      <trkpt lat="42.9912" lon="1.15816">
        <ele>402.2</ele>
        <time>2022-09-03T14:06:24Z</time>
      </trkpt>
      <trkpt lat="42.99123" lon="1.15813">
        <ele>401.6</ele>
        <time>2022-09-03T14:06:26Z</time>
      </trkpt>
      <trkpt lat="42.99124" lon="1.15811">
        <ele>401</ele>
        <time>2022-09-03T14:06:27Z</time>
      </trkpt>
      <trkpt lat="42.99124" lon="1.15811">
        <ele>401</ele>
        <time>2022-09-03T14:06:28Z</time>
      </trkpt>
      <trkpt lat="42.99134" lon="1.15799">
        <ele>400.8</ele>
        <time>2022-09-03T14:11:46Z</time>
      </trkpt>
      <trkpt lat="42.99138" lon="1.15794">
        <ele>400.4</ele>
        <time>2022-09-03T14:11:48Z</time>
      </trkpt>
      <trkpt lat="42.99152" lon="1.15783">
        <ele>400</ele>
        <time>2022-09-03T14:11:52Z</time>
      </trkpt>
      <trkpt lat="42.99171" lon="1.15765">
        <ele>399.8</ele>
        <time>2022-09-03T14:11:58Z</time>
      </trkpt>
      <trkpt lat="42.99187" lon="1.15749">
        <ele>399.6</ele>
        <time>2022-09-03T14:12:03Z</time>
      </trkpt>
      <trkpt lat="42.9919" lon="1.15745">
        <ele>399.4</ele>
        <time>2022-09-03T14:12:04Z</time>
      </trkpt>
      <trkpt lat="42.99202" lon="1.15733">
        <ele>399</ele>
        <time>2022-09-03T14:12:07Z</time>
      </trkpt>
      <trkpt lat="42.99206" lon="1.15728">
        <ele>398.8</ele>
        <time>2022-09-03T14:12:08Z</time>
      </trkpt>
      <trkpt lat="42.9921" lon="1.15722">
        <ele>398.6</ele>
        <time>2022-09-03T14:12:09Z</time>
      </trkpt>
      <trkpt lat="42.9922" lon="1.15705">
        <ele>398.4</ele>
        <time>2022-09-03T14:12:12Z</time>
      </trkpt>
      <trkpt lat="42.99224" lon="1.15692">
        <ele>398.4</ele>
        <time>2022-09-03T14:12:14Z</time>
      </trkpt>
      <trkpt lat="42.99229" lon="1.15673">
        <ele>398.8</ele>
        <time>2022-09-03T14:12:18Z</time>
      </trkpt>
      <trkpt lat="42.9923" lon="1.1567">
        <ele>398.8</ele>
        <time>2022-09-03T14:12:19Z</time>
      </trkpt>
      <trkpt lat="42.99234" lon="1.15655">
        <ele>399.4</ele>
        <time>2022-09-03T14:12:25Z</time>
      </trkpt>
      <trkpt lat="42.99235" lon="1.15654">
        <ele>399.6</ele>
        <time>2022-09-03T14:12:26Z</time>
      </trkpt>
      <trkpt lat="42.99237" lon="1.1565">
        <ele>399.6</ele>
        <time>2022-09-03T14:12:30Z</time>
      </trkpt>
      <trkpt lat="42.99239" lon="1.15641">
        <ele>399.4</ele>
        <time>2022-09-03T14:15:35Z</time>
      </trkpt>
      <trkpt lat="42.99238" lon="1.15633">
        <ele>399.6</ele>
        <time>2022-09-03T14:15:37Z</time>
      </trkpt>
      <trkpt lat="42.9923" lon="1.15605">
        <ele>399.4</ele>
        <time>2022-09-03T14:15:43Z</time>
      </trkpt>
      <trkpt lat="42.9922" lon="1.15566">
        <ele>399.4</ele>
        <time>2022-09-03T14:15:50Z</time>
      </trkpt>
      <trkpt lat="42.99219" lon="1.15536">
        <ele>399.6</ele>
        <time>2022-09-03T14:15:56Z</time>
      </trkpt>
      <trkpt lat="42.99215" lon="1.15511">
        <ele>399.4</ele>
        <time>2022-09-03T14:16:01Z</time>
      </trkpt>
      <trkpt lat="42.992" lon="1.1549">
        <ele>399.2</ele>
        <time>2022-09-03T14:16:06Z</time>
      </trkpt>
      <trkpt lat="42.99176" lon="1.1546">
        <ele>398.8</ele>
        <time>2022-09-03T14:16:13Z</time>
      </trkpt>
      <trkpt lat="42.99157" lon="1.15437">
        <ele>398.4</ele>
        <time>2022-09-03T14:16:18Z</time>
      </trkpt>
      <trkpt lat="42.99153" lon="1.15432">
        <ele>398.4</ele>
        <time>2022-09-03T14:16:19Z</time>
      </trkpt>
      <trkpt lat="42.99127" lon="1.15398">
        <ele>398.2</ele>
        <time>2022-09-03T14:16:26Z</time>
      </trkpt>
      <trkpt lat="42.99109" lon="1.15376">
        <ele>398</ele>
        <time>2022-09-03T14:16:31Z</time>
      </trkpt>
      <trkpt lat="42.99102" lon="1.15367">
        <ele>397.6</ele>
        <time>2022-09-03T14:16:33Z</time>
      </trkpt>
      <trkpt lat="42.99071" lon="1.15324">
        <ele>397.8</ele>
        <time>2022-09-03T14:16:42Z</time>
      </trkpt>
      <trkpt lat="42.99055" lon="1.15298">
        <ele>397.6</ele>
        <time>2022-09-03T14:16:47Z</time>
      </trkpt>
      <trkpt lat="42.99036" lon="1.15264">
        <ele>397.4</ele>
        <time>2022-09-03T14:16:53Z</time>
      </trkpt>
      <trkpt lat="42.99033" lon="1.15258">
        <ele>397.4</ele>
        <time>2022-09-03T14:16:54Z</time>
      </trkpt>
      <trkpt lat="42.99011" lon="1.15214">
        <ele>396.8</ele>
        <time>2022-09-03T14:17:01Z</time>
      </trkpt>
      <trkpt lat="42.99002" lon="1.15196">
        <ele>397</ele>
        <time>2022-09-03T14:17:04Z</time>
      </trkpt>
      <trkpt lat="42.98997" lon="1.15184">
        <ele>397</ele>
        <time>2022-09-03T14:17:06Z</time>
      </trkpt>
      <trkpt lat="42.98978" lon="1.15142">
        <ele>396.8</ele>
        <time>2022-09-03T14:17:13Z</time>
      </trkpt>
      <trkpt lat="42.98977" lon="1.15133">
        <ele>396.6</ele>
        <time>2022-09-03T14:17:15Z</time>
      </trkpt>
      <trkpt lat="42.98978" lon="1.15129">
        <ele>396.4</ele>
        <time>2022-09-03T14:17:16Z</time>
      </trkpt>
      <trkpt lat="42.98991" lon="1.15114">
        <ele>396</ele>
        <time>2022-09-03T14:17:20Z</time>
      </trkpt>
      <trkpt lat="42.98994" lon="1.15109">
        <ele>395.8</ele>
        <time>2022-09-03T14:17:21Z</time>
      </trkpt>
      <trkpt lat="42.98997" lon="1.15103">
        <ele>395.8</ele>
        <time>2022-09-03T14:17:22Z</time>
      </trkpt>
      <trkpt lat="42.99" lon="1.15088">
        <ele>395.4</ele>
        <time>2022-09-03T14:17:24Z</time>
      </trkpt>
      <trkpt lat="42.99004" lon="1.15066">
        <ele>395</ele>
        <time>2022-09-03T14:17:27Z</time>
      </trkpt>
      <trkpt lat="42.99008" lon="1.15044">
        <ele>394.6</ele>
        <time>2022-09-03T14:17:30Z</time>
      </trkpt>
      <trkpt lat="42.9901" lon="1.1503">
        <ele>394.6</ele>
        <time>2022-09-03T14:17:32Z</time>
      </trkpt>
      <trkpt lat="42.99013" lon="1.15001">
        <ele>394.4</ele>
        <time>2022-09-03T14:17:36Z</time>
      </trkpt>
      <trkpt lat="42.99019" lon="1.14991">
        <ele>394.2</ele>
        <time>2022-09-03T14:17:38Z</time>
      </trkpt>
      <trkpt lat="42.99027" lon="1.14984">
        <ele>394.2</ele>
        <time>2022-09-03T14:17:40Z</time>
      </trkpt>
      <trkpt lat="42.9903" lon="1.1498">
        <ele>394.4</ele>
        <time>2022-09-03T14:17:41Z</time>
      </trkpt>
      <trkpt lat="42.99032" lon="1.14975">
        <ele>394.2</ele>
        <time>2022-09-03T14:17:42Z</time>
      </trkpt>
      <trkpt lat="42.99029" lon="1.14959">
        <ele>394.6</ele>
        <time>2022-09-03T14:17:45Z</time>
      </trkpt>
      <trkpt lat="42.99025" lon="1.14947">
        <ele>394.6</ele>
        <time>2022-09-03T14:17:48Z</time>
      </trkpt>
      <trkpt lat="42.99021" lon="1.14935">
        <ele>395.2</ele>
        <time>2022-09-03T14:17:51Z</time>
      </trkpt>
      <trkpt lat="42.99015" lon="1.14922">
        <ele>395.8</ele>
        <time>2022-09-03T14:17:55Z</time>
      </trkpt>
      <trkpt lat="42.99008" lon="1.14903">
        <ele>396.4</ele>
        <time>2022-09-03T14:18:00Z</time>
      </trkpt>
      <trkpt lat="42.99003" lon="1.14889">
        <ele>396.8</ele>
        <time>2022-09-03T14:18:04Z</time>
      </trkpt>
      <trkpt lat="42.98996" lon="1.14868">
        <ele>397.8</ele>
        <time>2022-09-03T14:18:10Z</time>
      </trkpt>
      <trkpt lat="42.98995" lon="1.14856">
        <ele>398.6</ele>
        <time>2022-09-03T14:18:14Z</time>
      </trkpt>
      <trkpt lat="42.98996" lon="1.14852">
        <ele>399</ele>
        <time>2022-09-03T14:18:16Z</time>
      </trkpt>
      <trkpt lat="42.99008" lon="1.14847">
        <ele>399.8</ele>
        <time>2022-09-03T14:18:22Z</time>
      </trkpt>
      <trkpt lat="42.9901" lon="1.14847">
        <ele>400</ele>
        <time>2022-09-03T14:18:23Z</time>
      </trkpt>
      <trkpt lat="42.99022" lon="1.14846">
        <ele>400.2</ele>
        <time>2022-09-03T14:18:28Z</time>
      </trkpt>
      <trkpt lat="42.99048" lon="1.14844">
        <ele>400.8</ele>
        <time>2022-09-03T14:18:37Z</time>
      </trkpt>
      <trkpt lat="42.99051" lon="1.14844">
        <ele>401</ele>
        <time>2022-09-03T14:18:38Z</time>
      </trkpt>
      <trkpt lat="42.99075" lon="1.14845">
        <ele>400.8</ele>
        <time>2022-09-03T14:18:45Z</time>
      </trkpt>
      <trkpt lat="42.991" lon="1.14838">
        <ele>401</ele>
        <time>2022-09-03T14:18:52Z</time>
      </trkpt>
      <trkpt lat="42.99114" lon="1.14816">
        <ele>401.2</ele>
        <time>2022-09-03T14:18:58Z</time>
      </trkpt>
      <trkpt lat="42.99126" lon="1.14796">
        <ele>401</ele>
        <time>2022-09-03T14:19:03Z</time>
      </trkpt>
      <trkpt lat="42.99129" lon="1.14792">
        <ele>400.8</ele>
        <time>2022-09-03T14:19:04Z</time>
      </trkpt>
      <trkpt lat="42.99134" lon="1.14782">
        <ele>400.6</ele>
        <time>2022-09-03T14:19:06Z</time>
      </trkpt>
      <trkpt lat="42.99138" lon="1.14762">
        <ele>400.4</ele>
        <time>2022-09-03T14:19:09Z</time>
      </trkpt>
      <trkpt lat="42.99136" lon="1.1474">
        <ele>400.2</ele>
        <time>2022-09-03T14:19:12Z</time>
      </trkpt>
      <trkpt lat="42.99134" lon="1.14733">
        <ele>400.2</ele>
        <time>2022-09-03T14:19:13Z</time>
      </trkpt>
      <trkpt lat="42.99132" lon="1.14726">
        <ele>400</ele>
        <time>2022-09-03T14:19:14Z</time>
      </trkpt>
      <trkpt lat="42.99119" lon="1.14697">
        <ele>399.8</ele>
        <time>2022-09-03T14:19:19Z</time>
      </trkpt>
      <trkpt lat="42.99111" lon="1.14679">
        <ele>400</ele>
        <time>2022-09-03T14:19:23Z</time>
      </trkpt>
      <trkpt lat="42.991" lon="1.14653">
        <ele>399.6</ele>
        <time>2022-09-03T14:19:29Z</time>
      </trkpt>
      <trkpt lat="42.99089" lon="1.14623">
        <ele>399.2</ele>
        <time>2022-09-03T14:19:36Z</time>
      </trkpt>
      <trkpt lat="42.99086" lon="1.14612">
        <ele>399.2</ele>
        <time>2022-09-03T14:19:38Z</time>
      </trkpt>
      <trkpt lat="42.99086" lon="1.14606">
        <ele>399</ele>
        <time>2022-09-03T14:19:39Z</time>
      </trkpt>
      <trkpt lat="42.99087" lon="1.14599">
        <ele>398.8</ele>
        <time>2022-09-03T14:19:40Z</time>
      </trkpt>
      <trkpt lat="42.99091" lon="1.14572">
        <ele>398.2</ele>
        <time>2022-09-03T14:19:44Z</time>
      </trkpt>
      <trkpt lat="42.99093" lon="1.14559">
        <ele>398</ele>
        <time>2022-09-03T14:19:46Z</time>
      </trkpt>
      <trkpt lat="42.99093" lon="1.14552">
        <ele>397.8</ele>
        <time>2022-09-03T14:19:47Z</time>
      </trkpt>
      <trkpt lat="42.99093" lon="1.14545">
        <ele>397.6</ele>
        <time>2022-09-03T14:19:48Z</time>
      </trkpt>
      <trkpt lat="42.99091" lon="1.14526">
        <ele>396.2</ele>
        <time>2022-09-03T14:19:51Z</time>
      </trkpt>
      <trkpt lat="42.99087" lon="1.14509">
        <ele>395</ele>
        <time>2022-09-03T14:19:54Z</time>
      </trkpt>
      <trkpt lat="42.99087" lon="1.14504">
        <ele>394.6</ele>
        <time>2022-09-03T14:19:55Z</time>
      </trkpt>
      <trkpt lat="42.99087" lon="1.14493">
        <ele>393.8</ele>
        <time>2022-09-03T14:19:57Z</time>
      </trkpt>
      <trkpt lat="42.99086" lon="1.14484">
        <ele>392.8</ele>
        <time>2022-09-03T14:19:59Z</time>
      </trkpt>
      <trkpt lat="42.99085" lon="1.1448">
        <ele>392.6</ele>
        <time>2022-09-03T14:20:00Z</time>
      </trkpt>
      <trkpt lat="42.99076" lon="1.14464">
        <ele>391.8</ele>
        <time>2022-09-03T14:20:04Z</time>
      </trkpt>
      <trkpt lat="42.99073" lon="1.1446">
        <ele>391.8</ele>
        <time>2022-09-03T14:20:05Z</time>
      </trkpt>
      <trkpt lat="42.9906" lon="1.14442">
        <ele>391.6</ele>
        <time>2022-09-03T14:20:09Z</time>
      </trkpt>
      <trkpt lat="42.99057" lon="1.14438">
        <ele>391.4</ele>
        <time>2022-09-03T14:20:10Z</time>
      </trkpt>
      <trkpt lat="42.99043" lon="1.14408">
        <ele>391</ele>
        <time>2022-09-03T14:20:16Z</time>
      </trkpt>
      <trkpt lat="42.99042" lon="1.14403">
        <ele>391</ele>
        <time>2022-09-03T14:20:17Z</time>
      </trkpt>
      <trkpt lat="42.9904" lon="1.14393">
        <ele>390.8</ele>
        <time>2022-09-03T14:20:19Z</time>
      </trkpt>
      <trkpt lat="42.99039" lon="1.14388">
        <ele>390.6</ele>
        <time>2022-09-03T14:20:20Z</time>
      </trkpt>
      <trkpt lat="42.99039" lon="1.14384">
        <ele>390.4</ele>
        <time>2022-09-03T14:20:22Z</time>
      </trkpt>
      <trkpt lat="42.9904" lon="1.14381">
        <ele>390.6</ele>
        <time>2022-09-03T14:20:24Z</time>
      </trkpt>
      <trkpt lat="42.9904" lon="1.14381">
        <ele>390.6</ele>
        <time>2022-09-03T14:20:26Z</time>
      </trkpt>
      <trkpt lat="42.99044" lon="1.14379">
        <ele>390.6</ele>
        <time>2022-09-03T14:20:34Z</time>
      </trkpt>
      <trkpt lat="42.99049" lon="1.14377">
        <ele>390.8</ele>
        <time>2022-09-03T14:20:36Z</time>
      </trkpt>
      <trkpt lat="42.99054" lon="1.14376">
        <ele>390.8</ele>
        <time>2022-09-03T14:20:38Z</time>
      </trkpt>
      <trkpt lat="42.9907" lon="1.14368">
        <ele>391</ele>
        <time>2022-09-03T14:20:43Z</time>
      </trkpt>
      <trkpt lat="42.99093" lon="1.14354">
        <ele>390.6</ele>
        <time>2022-09-03T14:20:50Z</time>
      </trkpt>
      <trkpt lat="42.99111" lon="1.14342">
        <ele>391</ele>
        <time>2022-09-03T14:20:56Z</time>
      </trkpt>
      <trkpt lat="42.99133" lon="1.14323">
        <ele>391</ele>
        <time>2022-09-03T14:21:03Z</time>
      </trkpt>
      <trkpt lat="42.9915" lon="1.14298">
        <ele>391</ele>
        <time>2022-09-03T14:21:10Z</time>
      </trkpt>
      <trkpt lat="42.99169" lon="1.1427">
        <ele>391.6</ele>
        <time>2022-09-03T14:21:17Z</time>
      </trkpt>
      <trkpt lat="42.99189" lon="1.14243">
        <ele>391.8</ele>
        <time>2022-09-03T14:21:24Z</time>
      </trkpt>
      <trkpt lat="42.99198" lon="1.14232">
        <ele>391.8</ele>
        <time>2022-09-03T14:21:27Z</time>
      </trkpt>
      <trkpt lat="42.99209" lon="1.14218">
        <ele>392</ele>
        <time>2022-09-03T14:21:31Z</time>
      </trkpt>
      <trkpt lat="42.99219" lon="1.14203">
        <ele>392</ele>
        <time>2022-09-03T14:21:35Z</time>
      </trkpt>
      <trkpt lat="42.99231" lon="1.14187">
        <ele>392.2</ele>
        <time>2022-09-03T14:21:40Z</time>
      </trkpt>
      <trkpt lat="42.99239" lon="1.14187">
        <ele>392.2</ele>
        <time>2022-09-03T14:21:43Z</time>
      </trkpt>
      <trkpt lat="42.99241" lon="1.14187">
        <ele>392.4</ele>
        <time>2022-09-03T14:21:44Z</time>
      </trkpt>
      <trkpt lat="42.99249" lon="1.14184">
        <ele>392.4</ele>
        <time>2022-09-03T14:21:48Z</time>
      </trkpt>
      <trkpt lat="42.99251" lon="1.14184">
        <ele>392.6</ele>
        <time>2022-09-03T14:21:50Z</time>
      </trkpt>
      <trkpt lat="42.99253" lon="1.14186">
        <ele>392.8</ele>
        <time>2022-09-03T14:21:51Z</time>
      </trkpt>
      <trkpt lat="42.99259" lon="1.1419">
        <ele>393</ele>
        <time>2022-09-03T14:21:56Z</time>
      </trkpt>
      <trkpt lat="42.99259" lon="1.142">
        <ele>392.8</ele>
        <time>2022-09-03T14:31:10Z</time>
      </trkpt>
      <trkpt lat="42.99256" lon="1.14201">
        <ele>392.8</ele>
        <time>2022-09-03T14:31:11Z</time>
      </trkpt>
      <trkpt lat="42.99251" lon="1.14195">
        <ele>392.8</ele>
        <time>2022-09-03T14:31:14Z</time>
      </trkpt>
      <trkpt lat="42.99247" lon="1.14188">
        <ele>392.8</ele>
        <time>2022-09-03T14:31:17Z</time>
      </trkpt>
      <trkpt lat="42.99246" lon="1.14181">
        <ele>392.4</ele>
        <time>2022-09-03T14:31:19Z</time>
      </trkpt>
      <trkpt lat="42.99246" lon="1.14175">
        <ele>392.4</ele>
        <time>2022-09-03T14:31:21Z</time>
      </trkpt>
      <trkpt lat="42.9925" lon="1.1416">
        <ele>392.2</ele>
        <time>2022-09-03T14:31:25Z</time>
      </trkpt>
      <trkpt lat="42.9927" lon="1.14128">
        <ele>392.8</ele>
        <time>2022-09-03T14:31:33Z</time>
      </trkpt>
      <trkpt lat="42.99289" lon="1.14096">
        <ele>393.2</ele>
        <time>2022-09-03T14:31:41Z</time>
      </trkpt>
      <trkpt lat="42.9931" lon="1.14059">
        <ele>393.8</ele>
        <time>2022-09-03T14:31:50Z</time>
      </trkpt>
      <trkpt lat="42.99315" lon="1.14051">
        <ele>393.8</ele>
        <time>2022-09-03T14:31:52Z</time>
      </trkpt>
      <trkpt lat="42.99335" lon="1.14026">
        <ele>394.2</ele>
        <time>2022-09-03T14:31:59Z</time>
      </trkpt>
      <trkpt lat="42.99356" lon="1.14015">
        <ele>394.8</ele>
        <time>2022-09-03T14:32:05Z</time>
      </trkpt>
      <trkpt lat="42.99359" lon="1.14015">
        <ele>395</ele>
        <time>2022-09-03T14:32:06Z</time>
      </trkpt>
      <trkpt lat="42.99372" lon="1.14016">
        <ele>396</ele>
        <time>2022-09-03T14:32:10Z</time>
      </trkpt>
      <trkpt lat="42.99378" lon="1.14017">
        <ele>396.2</ele>
        <time>2022-09-03T14:32:12Z</time>
      </trkpt>
      <trkpt lat="42.99392" lon="1.14022">
        <ele>396.8</ele>
        <time>2022-09-03T14:32:17Z</time>
      </trkpt>
      <trkpt lat="42.99397" lon="1.14026">
        <ele>397</ele>
        <time>2022-09-03T14:32:19Z</time>
      </trkpt>
      <trkpt lat="42.99412" lon="1.14035">
        <ele>398</ele>
        <time>2022-09-03T14:32:25Z</time>
      </trkpt>
      <trkpt lat="42.99414" lon="1.14036">
        <ele>398.2</ele>
        <time>2022-09-03T14:32:26Z</time>
      </trkpt>
      <trkpt lat="42.99431" lon="1.14039">
        <ele>399.2</ele>
        <time>2022-09-03T14:32:33Z</time>
      </trkpt>
      <trkpt lat="42.99445" lon="1.14037">
        <ele>397.8</ele>
        <time>2022-09-03T14:32:39Z</time>
      </trkpt>
      <trkpt lat="42.99459" lon="1.14032">
        <ele>397.2</ele>
        <time>2022-09-03T14:32:42Z</time>
      </trkpt>
      <trkpt lat="42.99464" lon="1.14029">
        <ele>397</ele>
        <time>2022-09-03T14:32:43Z</time>
      </trkpt>
      <trkpt lat="42.99469" lon="1.14025">
        <ele>396.4</ele>
        <time>2022-09-03T14:32:44Z</time>
      </trkpt>
      <trkpt lat="42.99474" lon="1.14021">
        <ele>396.2</ele>
        <time>2022-09-03T14:32:45Z</time>
      </trkpt>
      <trkpt lat="42.99483" lon="1.1401">
        <ele>395.4</ele>
        <time>2022-09-03T14:32:47Z</time>
      </trkpt>
      <trkpt lat="42.99487" lon="1.14003">
        <ele>394.6</ele>
        <time>2022-09-03T14:32:48Z</time>
      </trkpt>
      <trkpt lat="42.99492" lon="1.13995">
        <ele>394</ele>
        <time>2022-09-03T14:32:49Z</time>
      </trkpt>
      <trkpt lat="42.99513" lon="1.13957">
        <ele>393.4</ele>
        <time>2022-09-03T14:32:54Z</time>
      </trkpt>
      <trkpt lat="42.99518" lon="1.1395">
        <ele>392.6</ele>
        <time>2022-09-03T14:32:55Z</time>
      </trkpt>
      <trkpt lat="42.99527" lon="1.13938">
        <ele>392</ele>
        <time>2022-09-03T14:32:57Z</time>
      </trkpt>
      <trkpt lat="42.99536" lon="1.13926">
        <ele>391.4</ele>
        <time>2022-09-03T14:32:59Z</time>
      </trkpt>
      <trkpt lat="42.99549" lon="1.13909">
        <ele>390.4</ele>
        <time>2022-09-03T14:33:03Z</time>
      </trkpt>
      <trkpt lat="42.99555" lon="1.13898">
        <ele>389.6</ele>
        <time>2022-09-03T14:33:20Z</time>
      </trkpt>
      <trkpt lat="42.99557" lon="1.13895">
        <ele>389.6</ele>
        <time>2022-09-03T14:33:23Z</time>
      </trkpt>
      <trkpt lat="42.99566" lon="1.13889">
        <ele>389.6</ele>
        <time>2022-09-03T14:33:29Z</time>
      </trkpt>
      <trkpt lat="42.99582" lon="1.13879">
        <ele>389.8</ele>
        <time>2022-09-03T14:33:37Z</time>
      </trkpt>
      <trkpt lat="42.99595" lon="1.13872">
        <ele>389.8</ele>
        <time>2022-09-03T14:33:43Z</time>
      </trkpt>
      <trkpt lat="42.99613" lon="1.13859">
        <ele>389.8</ele>
        <time>2022-09-03T14:33:50Z</time>
      </trkpt>
      <trkpt lat="42.99627" lon="1.13845">
        <ele>389.4</ele>
        <time>2022-09-03T14:33:55Z</time>
      </trkpt>
      <trkpt lat="42.99639" lon="1.13831">
        <ele>389.4</ele>
        <time>2022-09-03T14:34:00Z</time>
      </trkpt>
      <trkpt lat="42.9964" lon="1.13827">
        <ele>389.4</ele>
        <time>2022-09-03T14:34:01Z</time>
      </trkpt>
      <trkpt lat="42.99644" lon="1.13821">
        <ele>389.4</ele>
        <time>2022-09-03T14:34:03Z</time>
      </trkpt>
      <trkpt lat="42.99652" lon="1.13805">
        <ele>389.2</ele>
        <time>2022-09-03T14:34:08Z</time>
      </trkpt>
      <trkpt lat="42.99663" lon="1.13777">
        <ele>388.8</ele>
        <time>2022-09-03T14:34:15Z</time>
      </trkpt>
      <trkpt lat="42.99671" lon="1.1376">
        <ele>388.4</ele>
        <time>2022-09-03T14:34:20Z</time>
      </trkpt>
      <trkpt lat="42.99675" lon="1.13751">
        <ele>387.8</ele>
        <time>2022-09-03T14:34:22Z</time>
      </trkpt>
      <trkpt lat="42.9968" lon="1.13737">
        <ele>387</ele>
        <time>2022-09-03T14:34:25Z</time>
      </trkpt>
      <trkpt lat="42.99687" lon="1.13727">
        <ele>386.2</ele>
        <time>2022-09-03T14:34:28Z</time>
      </trkpt>
      <trkpt lat="42.99699" lon="1.13718">
        <ele>386</ele>
        <time>2022-09-03T14:34:34Z</time>
      </trkpt>
      <trkpt lat="42.99706" lon="1.13712">
        <ele>386</ele>
        <time>2022-09-03T14:34:37Z</time>
      </trkpt>
      <trkpt lat="42.99711" lon="1.1371">
        <ele>385.8</ele>
        <time>2022-09-03T14:34:39Z</time>
      </trkpt>
      <trkpt lat="42.99729" lon="1.13705">
        <ele>386</ele>
        <time>2022-09-03T14:34:47Z</time>
      </trkpt>
      <trkpt lat="42.99744" lon="1.137">
        <ele>385.8</ele>
        <time>2022-09-03T14:34:54Z</time>
      </trkpt>
      <trkpt lat="42.99758" lon="1.13695">
        <ele>385.6</ele>
        <time>2022-09-03T14:35:01Z</time>
      </trkpt>
      <trkpt lat="42.99772" lon="1.13691">
        <ele>384.8</ele>
        <time>2022-09-03T14:35:06Z</time>
      </trkpt>
      <trkpt lat="42.99789" lon="1.13691">
        <ele>384.4</ele>
        <time>2022-09-03T14:35:11Z</time>
      </trkpt>
      <trkpt lat="42.99803" lon="1.13684">
        <ele>384.4</ele>
        <time>2022-09-03T14:35:16Z</time>
      </trkpt>
      <trkpt lat="42.99819" lon="1.13674">
        <ele>383.8</ele>
        <time>2022-09-03T14:35:23Z</time>
      </trkpt>
      <trkpt lat="42.99839" lon="1.13659">
        <ele>383.8</ele>
        <time>2022-09-03T14:35:30Z</time>
      </trkpt>
      <trkpt lat="42.99859" lon="1.13647">
        <ele>383.6</ele>
        <time>2022-09-03T14:35:37Z</time>
      </trkpt>
      <trkpt lat="42.99862" lon="1.13645">
        <ele>383.6</ele>
        <time>2022-09-03T14:35:38Z</time>
      </trkpt>
      <trkpt lat="42.99886" lon="1.13638">
        <ele>383.2</ele>
        <time>2022-09-03T14:35:46Z</time>
      </trkpt>
      <trkpt lat="42.99903" lon="1.13632">
        <ele>383.2</ele>
        <time>2022-09-03T14:35:53Z</time>
      </trkpt>
      <trkpt lat="42.99916" lon="1.13625">
        <ele>383</ele>
        <time>2022-09-03T14:35:59Z</time>
      </trkpt>
      <trkpt lat="42.99919" lon="1.13624">
        <ele>382.8</ele>
        <time>2022-09-03T14:36:00Z</time>
      </trkpt>
      <trkpt lat="42.99941" lon="1.13612">
        <ele>382.6</ele>
        <time>2022-09-03T14:36:08Z</time>
      </trkpt>
      <trkpt lat="42.99964" lon="1.13596">
        <ele>382.4</ele>
        <time>2022-09-03T14:36:16Z</time>
      </trkpt>
      <trkpt lat="42.99983" lon="1.13586">
        <ele>383.2</ele>
        <time>2022-09-03T14:36:22Z</time>
      </trkpt>
      <trkpt lat="42.9999" lon="1.13582">
        <ele>383.8</ele>
        <time>2022-09-03T14:36:25Z</time>
      </trkpt>
      <trkpt lat="42.99996" lon="1.13578">
        <ele>385</ele>
        <time>2022-09-03T14:36:29Z</time>
      </trkpt>
      <trkpt lat="43" lon="1.13577">
        <ele>386</ele>
        <time>2022-09-03T14:36:32Z</time>
      </trkpt>
      <trkpt lat="43.00005" lon="1.13573">
        <ele>387</ele>
        <time>2022-09-03T14:36:35Z</time>
      </trkpt>
      <trkpt lat="43.00007" lon="1.13572">
        <ele>387.2</ele>
        <time>2022-09-03T14:36:36Z</time>
      </trkpt>
      <trkpt lat="43.00011" lon="1.13573">
        <ele>388.2</ele>
        <time>2022-09-03T14:36:39Z</time>
      </trkpt>
      <trkpt lat="43.00012" lon="1.13574">
        <ele>388.4</ele>
        <time>2022-09-03T14:36:40Z</time>
      </trkpt>
      <trkpt lat="43.0002" lon="1.13569">
        <ele>390</ele>
        <time>2022-09-03T14:36:52Z</time>
      </trkpt>
      <trkpt lat="43.0003" lon="1.13551">
        <ele>389.2</ele>
        <time>2022-09-03T14:36:56Z</time>
      </trkpt>
      <trkpt lat="43.00032" lon="1.13546">
        <ele>389</ele>
        <time>2022-09-03T14:36:57Z</time>
      </trkpt>
      <trkpt lat="43.00044" lon="1.13519">
        <ele>387.6</ele>
        <time>2022-09-03T14:37:02Z</time>
      </trkpt>
      <trkpt lat="43.00049" lon="1.1351">
        <ele>387</ele>
        <time>2022-09-03T14:37:06Z</time>
      </trkpt>
      <trkpt lat="43.00046" lon="1.13496">
        <ele>387.2</ele>
        <time>2022-09-03T14:37:10Z</time>
      </trkpt>
      <trkpt lat="43.00045" lon="1.13492">
        <ele>387.4</ele>
        <time>2022-09-03T14:37:11Z</time>
      </trkpt>
      <trkpt lat="43.00042" lon="1.13475">
        <ele>387.6</ele>
        <time>2022-09-03T14:37:17Z</time>
      </trkpt>
      <trkpt lat="43.0004" lon="1.1347">
        <ele>387.4</ele>
        <time>2022-09-03T14:37:24Z</time>
      </trkpt>
      <trkpt lat="43.00035" lon="1.13451">
        <ele>386.8</ele>
        <time>2022-09-03T14:37:30Z</time>
      </trkpt>
      <trkpt lat="43.00036" lon="1.13446">
        <ele>386.8</ele>
        <time>2022-09-03T14:37:32Z</time>
      </trkpt>
      <trkpt lat="43.00038" lon="1.13444">
        <ele>386.6</ele>
        <time>2022-09-03T14:37:34Z</time>
      </trkpt>
      <trkpt lat="43.00041" lon="1.1344">
        <ele>386.4</ele>
        <time>2022-09-03T14:37:45Z</time>
      </trkpt>
      <trkpt lat="43.00044" lon="1.13438">
        <ele>386.6</ele>
        <time>2022-09-03T14:37:46Z</time>
      </trkpt>
      <trkpt lat="43.00065" lon="1.1343">
        <ele>386.8</ele>
        <time>2022-09-03T14:37:52Z</time>
      </trkpt>
      <trkpt lat="43.00088" lon="1.13426">
        <ele>386.8</ele>
        <time>2022-09-03T14:37:58Z</time>
      </trkpt>
      <trkpt lat="43.00113" lon="1.13413">
        <ele>386</ele>
        <time>2022-09-03T14:38:04Z</time>
      </trkpt>
      <trkpt lat="43.00127" lon="1.13405">
        <ele>385.6</ele>
        <time>2022-09-03T14:38:07Z</time>
      </trkpt>
      <trkpt lat="43.00142" lon="1.13396">
        <ele>385</ele>
        <time>2022-09-03T14:38:10Z</time>
      </trkpt>
      <trkpt lat="43.00157" lon="1.13386">
        <ele>384.6</ele>
        <time>2022-09-03T14:38:13Z</time>
      </trkpt>
      <trkpt lat="43.00181" lon="1.13365">
        <ele>383.8</ele>
        <time>2022-09-03T14:38:18Z</time>
      </trkpt>
      <trkpt lat="43.00186" lon="1.1336">
        <ele>383.6</ele>
        <time>2022-09-03T14:38:19Z</time>
      </trkpt>
      <trkpt lat="43.0019" lon="1.13354">
        <ele>383.4</ele>
        <time>2022-09-03T14:38:20Z</time>
      </trkpt>
      <trkpt lat="43.00203" lon="1.13335">
        <ele>382.6</ele>
        <time>2022-09-03T14:38:23Z</time>
      </trkpt>
      <trkpt lat="43.00216" lon="1.13318">
        <ele>382.2</ele>
        <time>2022-09-03T14:38:26Z</time>
      </trkpt>
      <trkpt lat="43.00239" lon="1.1329">
        <ele>381.4</ele>
        <time>2022-09-03T14:38:31Z</time>
      </trkpt>
      <trkpt lat="43.00249" lon="1.13279">
        <ele>381.2</ele>
        <time>2022-09-03T14:38:33Z</time>
      </trkpt>
      <trkpt lat="43.00284" lon="1.13237">
        <ele>380.8</ele>
        <time>2022-09-03T14:38:41Z</time>
      </trkpt>
      <trkpt lat="43.00295" lon="1.13223">
        <ele>380.6</ele>
        <time>2022-09-03T14:38:44Z</time>
      </trkpt>
      <trkpt lat="43.00299" lon="1.13212">
        <ele>380.6</ele>
        <time>2022-09-03T14:38:46Z</time>
      </trkpt>
      <trkpt lat="43.00302" lon="1.13206">
        <ele>380.8</ele>
        <time>2022-09-03T14:38:49Z</time>
      </trkpt>
      <trkpt lat="43.00311" lon="1.13192">
        <ele>381.2</ele>
        <time>2022-09-03T14:38:55Z</time>
      </trkpt>
      <trkpt lat="43.00322" lon="1.13176">
        <ele>382.2</ele>
        <time>2022-09-03T14:39:01Z</time>
      </trkpt>
      <trkpt lat="43.00326" lon="1.13171">
        <ele>382.4</ele>
        <time>2022-09-03T14:39:03Z</time>
      </trkpt>
      <trkpt lat="43.00339" lon="1.13156">
        <ele>383.2</ele>
        <time>2022-09-03T14:39:09Z</time>
      </trkpt>
      <trkpt lat="43.00341" lon="1.13154">
        <ele>383.4</ele>
        <time>2022-09-03T14:39:10Z</time>
      </trkpt>
      <trkpt lat="43.00356" lon="1.13135">
        <ele>384.6</ele>
        <time>2022-09-03T14:39:17Z</time>
      </trkpt>
      <trkpt lat="43.00359" lon="1.13132">
        <ele>384.6</ele>
        <time>2022-09-03T14:39:18Z</time>
      </trkpt>
      <trkpt lat="43.0038" lon="1.13109">
        <ele>385.6</ele>
        <time>2022-09-03T14:39:27Z</time>
      </trkpt>
      <trkpt lat="43.00382" lon="1.13107">
        <ele>385.6</ele>
        <time>2022-09-03T14:39:28Z</time>
      </trkpt>
      <trkpt lat="43.00399" lon="1.13089">
        <ele>386</ele>
        <time>2022-09-03T14:39:35Z</time>
      </trkpt>
      <trkpt lat="43.00418" lon="1.13073">
        <ele>385.8</ele>
        <time>2022-09-03T14:39:41Z</time>
      </trkpt>
      <trkpt lat="43.00447" lon="1.13046">
        <ele>385.2</ele>
        <time>2022-09-03T14:39:51Z</time>
      </trkpt>
      <trkpt lat="43.00472" lon="1.13022">
        <ele>385</ele>
        <time>2022-09-03T14:39:59Z</time>
      </trkpt>
      <trkpt lat="43.00504" lon="1.12992">
        <ele>385</ele>
        <time>2022-09-03T14:40:09Z</time>
      </trkpt>
      <trkpt lat="43.0053" lon="1.12967">
        <ele>384.8</ele>
        <time>2022-09-03T14:40:17Z</time>
      </trkpt>
      <trkpt lat="43.00537" lon="1.12961">
        <ele>384.6</ele>
        <time>2022-09-03T14:40:19Z</time>
      </trkpt>
      <trkpt lat="43.00567" lon="1.12932">
        <ele>384.6</ele>
        <time>2022-09-03T14:40:28Z</time>
      </trkpt>
      <trkpt lat="43.00599" lon="1.12902">
        <ele>384</ele>
        <time>2022-09-03T14:40:37Z</time>
      </trkpt>
      <trkpt lat="43.00624" lon="1.12872">
        <ele>384.2</ele>
        <time>2022-09-03T14:40:46Z</time>
      </trkpt>
      <trkpt lat="43.00621" lon="1.12855">
        <ele>384.8</ele>
        <time>2022-09-03T14:40:50Z</time>
      </trkpt>
      <trkpt lat="43.00619" lon="1.12842">
        <ele>385.6</ele>
        <time>2022-09-03T14:40:55Z</time>
      </trkpt>
      <trkpt lat="43.0062" lon="1.12841">
        <ele>385.8</ele>
        <time>2022-09-03T14:40:56Z</time>
      </trkpt>
      <trkpt lat="43.00625" lon="1.12835">
        <ele>385.8</ele>
        <time>2022-09-03T14:41:00Z</time>
      </trkpt>
      <trkpt lat="43.00632" lon="1.12841">
        <ele>386</ele>
        <time>2022-09-03T14:41:04Z</time>
      </trkpt>
      <trkpt lat="43.00646" lon="1.12849">
        <ele>385.6</ele>
        <time>2022-09-03T14:41:08Z</time>
      </trkpt>
      <trkpt lat="43.00663" lon="1.1284">
        <ele>385</ele>
        <time>2022-09-03T14:41:11Z</time>
      </trkpt>
      <trkpt lat="43.00667" lon="1.12835">
        <ele>384.6</ele>
        <time>2022-09-03T14:41:12Z</time>
      </trkpt>
      <trkpt lat="43.00671" lon="1.12831">
        <ele>384.6</ele>
        <time>2022-09-03T14:41:13Z</time>
      </trkpt>
      <trkpt lat="43.00684" lon="1.12819">
        <ele>383.6</ele>
        <time>2022-09-03T14:41:16Z</time>
      </trkpt>
      <trkpt lat="43.00712" lon="1.12786">
        <ele>382.8</ele>
        <time>2022-09-03T14:41:24Z</time>
      </trkpt>
      <trkpt lat="43.00728" lon="1.12771">
        <ele>382.8</ele>
        <time>2022-09-03T14:41:28Z</time>
      </trkpt>
      <trkpt lat="43.00735" lon="1.12763">
        <ele>382.6</ele>
        <time>2022-09-03T14:41:30Z</time>
      </trkpt>
      <trkpt lat="43.00762" lon="1.12727">
        <ele>382.6</ele>
        <time>2022-09-03T14:41:38Z</time>
      </trkpt>
      <trkpt lat="43.00765" lon="1.12722">
        <ele>382.6</ele>
        <time>2022-09-03T14:41:39Z</time>
      </trkpt>
      <trkpt lat="43.00782" lon="1.12699">
        <ele>382.4</ele>
        <time>2022-09-03T14:41:44Z</time>
      </trkpt>
      <trkpt lat="43.00816" lon="1.12651">
        <ele>382</ele>
        <time>2022-09-03T14:41:54Z</time>
      </trkpt>
      <trkpt lat="43.00837" lon="1.12613">
        <ele>381.8</ele>
        <time>2022-09-03T14:42:01Z</time>
      </trkpt>
      <trkpt lat="43.00853" lon="1.12585">
        <ele>381.6</ele>
        <time>2022-09-03T14:42:06Z</time>
      </trkpt>
      <trkpt lat="43.0086" lon="1.12574">
        <ele>381.6</ele>
        <time>2022-09-03T14:42:08Z</time>
      </trkpt>
      <trkpt lat="43.0088" lon="1.12534">
        <ele>381.4</ele>
        <time>2022-09-03T14:42:15Z</time>
      </trkpt>
      <trkpt lat="43.00893" lon="1.12505">
        <ele>381.2</ele>
        <time>2022-09-03T14:42:20Z</time>
      </trkpt>
      <trkpt lat="43.0091" lon="1.12471">
        <ele>381</ele>
        <time>2022-09-03T14:42:26Z</time>
      </trkpt>
      <trkpt lat="43.0093" lon="1.12423">
        <ele>380.6</ele>
        <time>2022-09-03T14:42:34Z</time>
      </trkpt>
      <trkpt lat="43.00932" lon="1.12417">
        <ele>380.6</ele>
        <time>2022-09-03T14:42:35Z</time>
      </trkpt>
      <trkpt lat="43.00948" lon="1.12376">
        <ele>380.4</ele>
        <time>2022-09-03T14:42:42Z</time>
      </trkpt>
      <trkpt lat="43.00961" lon="1.12353">
        <ele>380.2</ele>
        <time>2022-09-03T14:42:47Z</time>
      </trkpt>
      <trkpt lat="43.00974" lon="1.12315">
        <ele>380</ele>
        <time>2022-09-03T14:42:54Z</time>
      </trkpt>
      <trkpt lat="43.00981" lon="1.12282">
        <ele>379.4</ele>
        <time>2022-09-03T14:43:00Z</time>
      </trkpt>
      <trkpt lat="43.00988" lon="1.12233">
        <ele>379.2</ele>
        <time>2022-09-03T14:43:08Z</time>
      </trkpt>
      <trkpt lat="43.00989" lon="1.12189">
        <ele>379.2</ele>
        <time>2022-09-03T14:43:16Z</time>
      </trkpt>
      <trkpt lat="43.00989" lon="1.12148">
        <ele>379</ele>
        <time>2022-09-03T14:43:24Z</time>
      </trkpt>
      <trkpt lat="43.00978" lon="1.12126">
        <ele>379</ele>
        <time>2022-09-03T14:43:29Z</time>
      </trkpt>
      <trkpt lat="43.00968" lon="1.12109">
        <ele>379.2</ele>
        <time>2022-09-03T14:43:33Z</time>
      </trkpt>
      <trkpt lat="43.0096" lon="1.12095">
        <ele>379.6</ele>
        <time>2022-09-03T14:43:36Z</time>
      </trkpt>
      <trkpt lat="43.00939" lon="1.1206">
        <ele>380.2</ele>
        <time>2022-09-03T14:43:44Z</time>
      </trkpt>
      <trkpt lat="43.00937" lon="1.12056">
        <ele>380.4</ele>
        <time>2022-09-03T14:43:45Z</time>
      </trkpt>
      <trkpt lat="43.00923" lon="1.12038">
        <ele>381.4</ele>
        <time>2022-09-03T14:43:51Z</time>
      </trkpt>
      <trkpt lat="43.0092" lon="1.12036">
        <ele>381.6</ele>
        <time>2022-09-03T14:43:52Z</time>
      </trkpt>
      <trkpt lat="43.00905" lon="1.1202">
        <ele>382.2</ele>
        <time>2022-09-03T14:43:59Z</time>
      </trkpt>
      <trkpt lat="43.00899" lon="1.12013">
        <ele>382.4</ele>
        <time>2022-09-03T14:44:04Z</time>
      </trkpt>
      <trkpt lat="43.00897" lon="1.12009">
        <ele>382.6</ele>
        <time>2022-09-03T14:44:40Z</time>
      </trkpt>
      <trkpt lat="43.00895" lon="1.12007">
        <ele>382.6</ele>
        <time>2022-09-03T14:44:41Z</time>
      </trkpt>
      <trkpt lat="43.00885" lon="1.11994">
        <ele>382.4</ele>
        <time>2022-09-03T14:44:46Z</time>
      </trkpt>
      <trkpt lat="43.00863" lon="1.11971">
        <ele>382.6</ele>
        <time>2022-09-03T14:44:54Z</time>
      </trkpt>
      <trkpt lat="43.00844" lon="1.11946">
        <ele>382.8</ele>
        <time>2022-09-03T14:45:02Z</time>
      </trkpt>
      <trkpt lat="43.00843" lon="1.1193">
        <ele>383</ele>
        <time>2022-09-03T14:45:06Z</time>
      </trkpt>
      <trkpt lat="43.00845" lon="1.1191">
        <ele>382.8</ele>
        <time>2022-09-03T14:45:12Z</time>
      </trkpt>
      <trkpt lat="43.00842" lon="1.11908">
        <ele>383</ele>
        <time>2022-09-03T14:45:13Z</time>
      </trkpt>
      <trkpt lat="43.00826" lon="1.11895">
        <ele>382.8</ele>
        <time>2022-09-03T14:45:19Z</time>
      </trkpt>
      <trkpt lat="43.00809" lon="1.11877">
        <ele>383</ele>
        <time>2022-09-03T14:45:26Z</time>
      </trkpt>
      <trkpt lat="43.00809" lon="1.11873">
        <ele>382.8</ele>
        <time>2022-09-03T14:45:27Z</time>
      </trkpt>
      <trkpt lat="43.00818" lon="1.11858">
        <ele>383</ele>
        <time>2022-09-03T14:45:31Z</time>
      </trkpt>
      <trkpt lat="43.00841" lon="1.11824">
        <ele>383.2</ele>
        <time>2022-09-03T14:45:40Z</time>
      </trkpt>
      <trkpt lat="43.0086" lon="1.11795">
        <ele>383</ele>
        <time>2022-09-03T14:45:47Z</time>
      </trkpt>
      <trkpt lat="43.00878" lon="1.1176">
        <ele>382.8</ele>
        <time>2022-09-03T14:45:54Z</time>
      </trkpt>
      <trkpt lat="43.00898" lon="1.11725">
        <ele>382.8</ele>
        <time>2022-09-03T14:46:01Z</time>
      </trkpt>
      <trkpt lat="43.00901" lon="1.1172">
        <ele>382.8</ele>
        <time>2022-09-03T14:46:02Z</time>
      </trkpt>
      <trkpt lat="43.00908" lon="1.11712">
        <ele>382.6</ele>
        <time>2022-09-03T14:46:04Z</time>
      </trkpt>
      <trkpt lat="43.00919" lon="1.11694">
        <ele>382.8</ele>
        <time>2022-09-03T14:46:08Z</time>
      </trkpt>
      <trkpt lat="43.00943" lon="1.11657">
        <ele>382.4</ele>
        <time>2022-09-03T14:46:16Z</time>
      </trkpt>
      <trkpt lat="43.00964" lon="1.11622">
        <ele>383</ele>
        <time>2022-09-03T14:46:23Z</time>
      </trkpt>
      <trkpt lat="43.0097" lon="1.11612">
        <ele>383</ele>
        <time>2022-09-03T14:46:25Z</time>
      </trkpt>
      <trkpt lat="43.00986" lon="1.11584">
        <ele>382.6</ele>
        <time>2022-09-03T14:46:31Z</time>
      </trkpt>
      <trkpt lat="43.00989" lon="1.1158">
        <ele>382.6</ele>
        <time>2022-09-03T14:46:32Z</time>
      </trkpt>
      <trkpt lat="43.01017" lon="1.11536">
        <ele>382.6</ele>
        <time>2022-09-03T14:46:41Z</time>
      </trkpt>
      <trkpt lat="43.01047" lon="1.11492">
        <ele>382.4</ele>
        <time>2022-09-03T14:46:49Z</time>
      </trkpt>
      <trkpt lat="43.01075" lon="1.1145">
        <ele>382.6</ele>
        <time>2022-09-03T14:46:57Z</time>
      </trkpt>
      <trkpt lat="43.01103" lon="1.1141">
        <ele>382.2</ele>
        <time>2022-09-03T14:47:05Z</time>
      </trkpt>
      <trkpt lat="43.01135" lon="1.11369">
        <ele>382</ele>
        <time>2022-09-03T14:47:13Z</time>
      </trkpt>
      <trkpt lat="43.01165" lon="1.11331">
        <ele>381.8</ele>
        <time>2022-09-03T14:47:21Z</time>
      </trkpt>
      <trkpt lat="43.01184" lon="1.11303">
        <ele>381.6</ele>
        <time>2022-09-03T14:47:26Z</time>
      </trkpt>
      <trkpt lat="43.01188" lon="1.11299">
        <ele>381.6</ele>
        <time>2022-09-03T14:47:27Z</time>
      </trkpt>
      <trkpt lat="43.01196" lon="1.11289">
        <ele>381.4</ele>
        <time>2022-09-03T14:47:29Z</time>
      </trkpt>
      <trkpt lat="43.01214" lon="1.11265">
        <ele>381</ele>
        <time>2022-09-03T14:47:34Z</time>
      </trkpt>
      <trkpt lat="43.01227" lon="1.11246">
        <ele>380.8</ele>
        <time>2022-09-03T14:47:38Z</time>
      </trkpt>
      <trkpt lat="43.01237" lon="1.11232">
        <ele>380.8</ele>
        <time>2022-09-03T14:47:41Z</time>
      </trkpt>
      <trkpt lat="43.01263" lon="1.11196">
        <ele>380.8</ele>
        <time>2022-09-03T14:47:48Z</time>
      </trkpt>
      <trkpt lat="43.01274" lon="1.11178">
        <ele>380.6</ele>
        <time>2022-09-03T14:47:51Z</time>
      </trkpt>
      <trkpt lat="43.01288" lon="1.11156">
        <ele>380.4</ele>
        <time>2022-09-03T14:47:55Z</time>
      </trkpt>
      <trkpt lat="43.01294" lon="1.11145">
        <ele>380.2</ele>
        <time>2022-09-03T14:47:57Z</time>
      </trkpt>
      <trkpt lat="43.01301" lon="1.11135">
        <ele>380</ele>
        <time>2022-09-03T14:47:59Z</time>
      </trkpt>
      <trkpt lat="43.01313" lon="1.11115">
        <ele>380.2</ele>
        <time>2022-09-03T14:48:03Z</time>
      </trkpt>
      <trkpt lat="43.01338" lon="1.11074">
        <ele>380</ele>
        <time>2022-09-03T14:48:11Z</time>
      </trkpt>
      <trkpt lat="43.01361" lon="1.11038">
        <ele>379.8</ele>
        <time>2022-09-03T14:48:19Z</time>
      </trkpt>
      <trkpt lat="43.01379" lon="1.11006">
        <ele>379.8</ele>
        <time>2022-09-03T14:48:26Z</time>
      </trkpt>
      <trkpt lat="43.01385" lon="1.10998">
        <ele>379.6</ele>
        <time>2022-09-03T14:48:28Z</time>
      </trkpt>
      <trkpt lat="43.01402" lon="1.10983">
        <ele>379.4</ele>
        <time>2022-09-03T14:48:33Z</time>
      </trkpt>
      <trkpt lat="43.01413" lon="1.10991">
        <ele>379.6</ele>
        <time>2022-09-03T14:48:36Z</time>
      </trkpt>
      <trkpt lat="43.01423" lon="1.11006">
        <ele>379.4</ele>
        <time>2022-09-03T14:48:40Z</time>
      </trkpt>
      <trkpt lat="43.01426" lon="1.11014">
        <ele>379.2</ele>
        <time>2022-09-03T14:48:42Z</time>
      </trkpt>
      <trkpt lat="43.01424" lon="1.11026">
        <ele>379.4</ele>
        <time>2022-09-03T14:48:45Z</time>
      </trkpt>
      <trkpt lat="43.01418" lon="1.11039">
        <ele>379.6</ele>
        <time>2022-09-03T14:48:50Z</time>
      </trkpt>
      <trkpt lat="43.0141" lon="1.11042">
        <ele>379.8</ele>
        <time>2022-09-03T14:48:56Z</time>
      </trkpt>
    </trkseg>
  </trk>
  <trk>
    <name><![CDATA[J1 - Far west - Carcassonne - Mirepoix 😎]]></name>
    <extensions>
      <line xmlns="http://www.topografix.com/GPX/gpx_style/0/2">
        <color>008800</color>
        <width>4</width>
      </line>
    </extensions>
    <trkseg>
      <trkpt lat="43.21773" lon="2.35164">
        <ele>128</ele>
        <time>2022-09-02T08:44:27Z</time>
      </trkpt>
      <trkpt lat="43.21772" lon="2.35185">
        <ele>127.8</ele>
        <time>2022-09-02T08:44:34Z</time>
      </trkpt>
      <trkpt lat="43.21761" lon="2.35185">
        <ele>128</ele>
        <time>2022-09-02T08:44:38Z</time>
      </trkpt>
      <trkpt lat="43.21736" lon="2.35187">
        <ele>128.4</ele>
        <time>2022-09-02T08:44:47Z</time>
      </trkpt>
      <trkpt lat="43.21718" lon="2.35181">
        <ele>128.2</ele>
        <time>2022-09-02T08:44:54Z</time>
      </trkpt>
      <trkpt lat="43.21704" lon="2.3518">
        <ele>127.4</ele>
        <time>2022-09-02T08:45:00Z</time>
      </trkpt>
      <trkpt lat="43.21683" lon="2.35183">
        <ele>127.2</ele>
        <time>2022-09-02T08:45:09Z</time>
      </trkpt>
      <trkpt lat="43.21673" lon="2.35183">
        <ele>127.2</ele>
        <time>2022-09-02T08:45:14Z</time>
      </trkpt>
      <trkpt lat="43.21658" lon="2.35183">
        <ele>127.2</ele>
        <time>2022-09-02T08:45:21Z</time>
      </trkpt>
      <trkpt lat="43.21649" lon="2.35185">
        <ele>127</ele>
        <time>2022-09-02T08:45:26Z</time>
      </trkpt>
      <trkpt lat="43.21646" lon="2.35185">
        <ele>126.8</ele>
        <time>2022-09-02T08:45:27Z</time>
      </trkpt>
      <trkpt lat="43.21641" lon="2.35193">
        <ele>126.8</ele>
        <time>2022-09-02T08:45:31Z</time>
      </trkpt>
      <trkpt lat="43.2164" lon="2.35197">
        <ele>126.6</ele>
        <time>2022-09-02T08:45:34Z</time>
      </trkpt>
      <trkpt lat="43.21641" lon="2.35202">
        <ele>126.8</ele>
        <time>2022-09-02T08:45:37Z</time>
      </trkpt>
      <trkpt lat="43.21641" lon="2.35204">
        <ele>126.8</ele>
        <time>2022-09-02T08:45:38Z</time>
      </trkpt>
      <trkpt lat="43.21642" lon="2.35212">
        <ele>127</ele>
        <time>2022-09-02T08:45:45Z</time>
      </trkpt>
      <trkpt lat="43.21644" lon="2.35237">
        <ele>127</ele>
        <time>2022-09-02T08:45:53Z</time>
      </trkpt>
      <trkpt lat="43.21639" lon="2.35257">
        <ele>126.4</ele>
        <time>2022-09-02T08:46:00Z</time>
      </trkpt>
      <trkpt lat="43.21641" lon="2.35269">
        <ele>126.4</ele>
        <time>2022-09-02T08:55:55Z</time>
      </trkpt>
      <trkpt lat="43.21639" lon="2.35288">
        <ele>126.4</ele>
        <time>2022-09-02T08:56:02Z</time>
      </trkpt>
      <trkpt lat="43.21635" lon="2.35304">
        <ele>126</ele>
        <time>2022-09-02T08:56:09Z</time>
      </trkpt>
      <trkpt lat="43.21635" lon="2.35306">
        <ele>125.8</ele>
        <time>2022-09-02T08:56:10Z</time>
      </trkpt>
      <trkpt lat="43.21634" lon="2.35316">
        <ele>127.2</ele>
        <time>2022-09-02T08:56:14Z</time>
      </trkpt>
      <trkpt lat="43.21634" lon="2.35322">
        <ele>126.8</ele>
        <time>2022-09-02T08:56:16Z</time>
      </trkpt>
      <trkpt lat="43.21634" lon="2.3533">
        <ele>125.8</ele>
        <time>2022-09-02T08:56:18Z</time>
      </trkpt>
      <trkpt lat="43.21635" lon="2.35352">
        <ele>125</ele>
        <time>2022-09-02T08:56:23Z</time>
      </trkpt>
      <trkpt lat="43.21633" lon="2.35362">
        <ele>125.2</ele>
        <time>2022-09-02T08:56:26Z</time>
      </trkpt>
      <trkpt lat="43.21631" lon="2.35364">
        <ele>125.4</ele>
        <time>2022-09-02T08:56:27Z</time>
      </trkpt>
      <trkpt lat="43.21615" lon="2.35371">
        <ele>125.4</ele>
        <time>2022-09-02T08:56:33Z</time>
      </trkpt>
      <trkpt lat="43.21592" lon="2.35384">
        <ele>125</ele>
        <time>2022-09-02T08:56:40Z</time>
      </trkpt>
      <trkpt lat="43.21586" lon="2.35388">
        <ele>124.8</ele>
        <time>2022-09-02T08:56:42Z</time>
      </trkpt>
      <trkpt lat="43.21577" lon="2.35393">
        <ele>124.8</ele>
        <time>2022-09-02T08:56:45Z</time>
      </trkpt>
      <trkpt lat="43.21559" lon="2.35404">
        <ele>124.6</ele>
        <time>2022-09-02T08:56:52Z</time>
      </trkpt>
      <trkpt lat="43.21546" lon="2.35414">
        <ele>124.8</ele>
        <time>2022-09-02T08:56:57Z</time>
      </trkpt>
      <trkpt lat="43.21527" lon="2.35424">
        <ele>124.6</ele>
        <time>2022-09-02T08:57:03Z</time>
      </trkpt>
      <trkpt lat="43.21509" lon="2.35434">
        <ele>124.6</ele>
        <time>2022-09-02T08:57:09Z</time>
      </trkpt>
      <trkpt lat="43.21495" lon="2.35441">
        <ele>124.6</ele>
        <time>2022-09-02T08:57:15Z</time>
      </trkpt>
      <trkpt lat="43.21487" lon="2.3545">
        <ele>124.4</ele>
        <time>2022-09-02T08:57:21Z</time>
      </trkpt>
      <trkpt lat="43.21473" lon="2.3546">
        <ele>124.6</ele>
        <time>2022-09-02T08:57:27Z</time>
      </trkpt>
      <trkpt lat="43.21458" lon="2.35467">
        <ele>124.6</ele>
        <time>2022-09-02T08:57:33Z</time>
      </trkpt>
      <trkpt lat="43.21441" lon="2.35474">
        <ele>124.4</ele>
        <time>2022-09-02T08:57:39Z</time>
      </trkpt>
      <trkpt lat="43.21426" lon="2.35483">
        <ele>124.4</ele>
        <time>2022-09-02T08:57:45Z</time>
      </trkpt>
      <trkpt lat="43.21414" lon="2.35492">
        <ele>124.4</ele>
        <time>2022-09-02T08:57:51Z</time>
      </trkpt>
      <trkpt lat="43.21412" lon="2.35494">
        <ele>124.4</ele>
        <time>2022-09-02T08:57:52Z</time>
      </trkpt>
      <trkpt lat="43.21402" lon="2.355">
        <ele>124.4</ele>
        <time>2022-09-02T08:57:56Z</time>
      </trkpt>
      <trkpt lat="43.21387" lon="2.35507">
        <ele>124.4</ele>
        <time>2022-09-02T08:58:02Z</time>
      </trkpt>
      <trkpt lat="43.21373" lon="2.35512">
        <ele>124.2</ele>
        <time>2022-09-02T08:58:08Z</time>
      </trkpt>
      <trkpt lat="43.2136" lon="2.35519">
        <ele>124</ele>
        <time>2022-09-02T08:58:14Z</time>
      </trkpt>
      <trkpt lat="43.21349" lon="2.35522">
        <ele>124</ele>
        <time>2022-09-02T08:58:20Z</time>
      </trkpt>
      <trkpt lat="43.21336" lon="2.35531">
        <ele>124</ele>
        <time>2022-09-02T08:58:26Z</time>
      </trkpt>
      <trkpt lat="43.2132" lon="2.35539">
        <ele>124.4</ele>
        <time>2022-09-02T08:58:33Z</time>
      </trkpt>
      <trkpt lat="43.21306" lon="2.35548">
        <ele>124.4</ele>
        <time>2022-09-02T08:58:40Z</time>
      </trkpt>
      <trkpt lat="43.21289" lon="2.35547">
        <ele>124.8</ele>
        <time>2022-09-02T08:58:46Z</time>
      </trkpt>
      <trkpt lat="43.21273" lon="2.3555">
        <ele>124.2</ele>
        <time>2022-09-02T08:58:52Z</time>
      </trkpt>
      <trkpt lat="43.21261" lon="2.35552">
        <ele>124</ele>
        <time>2022-09-02T08:59:15Z</time>
      </trkpt>
      <trkpt lat="43.21246" lon="2.35548">
        <ele>124.4</ele>
        <time>2022-09-02T08:59:21Z</time>
      </trkpt>
      <trkpt lat="43.21222" lon="2.35542">
        <ele>125</ele>
        <time>2022-09-02T08:59:30Z</time>
      </trkpt>
      <trkpt lat="43.21203" lon="2.35536">
        <ele>124.2</ele>
        <time>2022-09-02T08:59:37Z</time>
      </trkpt>
      <trkpt lat="43.21194" lon="2.3554">
        <ele>124.2</ele>
        <time>2022-09-02T08:59:41Z</time>
      </trkpt>
      <trkpt lat="43.21191" lon="2.35539">
        <ele>124.2</ele>
        <time>2022-09-02T08:59:42Z</time>
      </trkpt>
      <trkpt lat="43.21173" lon="2.35534">
        <ele>124.4</ele>
        <time>2022-09-02T08:59:49Z</time>
      </trkpt>
      <trkpt lat="43.21153" lon="2.3553">
        <ele>124.6</ele>
        <time>2022-09-02T08:59:56Z</time>
      </trkpt>
      <trkpt lat="43.21126" lon="2.35525">
        <ele>124.8</ele>
        <time>2022-09-02T09:00:05Z</time>
      </trkpt>
      <trkpt lat="43.21112" lon="2.35524">
        <ele>125</ele>
        <time>2022-09-02T09:00:11Z</time>
      </trkpt>
      <trkpt lat="43.2111" lon="2.35526">
        <ele>125</ele>
        <time>2022-09-02T09:00:12Z</time>
      </trkpt>
      <trkpt lat="43.21107" lon="2.35533">
        <ele>125</ele>
        <time>2022-09-02T09:00:16Z</time>
      </trkpt>
      <trkpt lat="43.21113" lon="2.35543">
        <ele>125.2</ele>
        <time>2022-09-02T09:00:20Z</time>
      </trkpt>
      <trkpt lat="43.21115" lon="2.35552">
        <ele>125</ele>
        <time>2022-09-02T09:00:24Z</time>
      </trkpt>
      <trkpt lat="43.21115" lon="2.35555">
        <ele>125</ele>
        <time>2022-09-02T09:00:25Z</time>
      </trkpt>
      <trkpt lat="43.21112" lon="2.35582">
        <ele>125.2</ele>
        <time>2022-09-02T09:00:32Z</time>
      </trkpt>
      <trkpt lat="43.21107" lon="2.35615">
        <ele>124.8</ele>
        <time>2022-09-02T09:00:40Z</time>
      </trkpt>
      <trkpt lat="43.21106" lon="2.3562">
        <ele>124.6</ele>
        <time>2022-09-02T09:00:43Z</time>
      </trkpt>
      <trkpt lat="43.21106" lon="2.35622">
        <ele>124.6</ele>
        <time>2022-09-02T09:00:44Z</time>
      </trkpt>
      <trkpt lat="43.21102" lon="2.35641">
        <ele>124.4</ele>
        <time>2022-09-02T09:00:51Z</time>
      </trkpt>
      <trkpt lat="43.21096" lon="2.35673">
        <ele>124</ele>
        <time>2022-09-02T09:00:59Z</time>
      </trkpt>
      <trkpt lat="43.21093" lon="2.35691">
        <ele>123.8</ele>
        <time>2022-09-02T09:01:03Z</time>
      </trkpt>
      <trkpt lat="43.2109" lon="2.35703">
        <ele>123.8</ele>
        <time>2022-09-02T09:01:06Z</time>
      </trkpt>
      <trkpt lat="43.21078" lon="2.35738">
        <ele>123.4</ele>
        <time>2022-09-02T09:01:15Z</time>
      </trkpt>
      <trkpt lat="43.21065" lon="2.35767">
        <ele>124</ele>
        <time>2022-09-02T09:01:23Z</time>
      </trkpt>
      <trkpt lat="43.21056" lon="2.35784">
        <ele>124.8</ele>
        <time>2022-09-02T09:01:29Z</time>
      </trkpt>
      <trkpt lat="43.21053" lon="2.3579">
        <ele>125</ele>
        <time>2022-09-02T09:01:31Z</time>
      </trkpt>
      <trkpt lat="43.21047" lon="2.3581">
        <ele>125.8</ele>
        <time>2022-09-02T09:01:38Z</time>
      </trkpt>
      <trkpt lat="43.21046" lon="2.35813">
        <ele>126</ele>
        <time>2022-09-02T09:01:39Z</time>
      </trkpt>
      <trkpt lat="43.21042" lon="2.35827">
        <ele>127</ele>
        <time>2022-09-02T09:01:44Z</time>
      </trkpt>
      <trkpt lat="43.2104" lon="2.35835">
        <ele>128.2</ele>
        <time>2022-09-02T09:01:47Z</time>
      </trkpt>
      <trkpt lat="43.21038" lon="2.35853">
        <ele>128.2</ele>
        <time>2022-09-02T09:01:54Z</time>
      </trkpt>
      <trkpt lat="43.21035" lon="2.35863">
        <ele>129.2</ele>
        <time>2022-09-02T09:01:58Z</time>
      </trkpt>
      <trkpt lat="43.21034" lon="2.35872">
        <ele>130.2</ele>
        <time>2022-09-02T09:02:01Z</time>
      </trkpt>
      <trkpt lat="43.21033" lon="2.35882">
        <ele>129</ele>
        <time>2022-09-02T09:02:05Z</time>
      </trkpt>
      <trkpt lat="43.21031" lon="2.35889">
        <ele>129.4</ele>
        <time>2022-09-02T09:02:08Z</time>
      </trkpt>
      <trkpt lat="43.21028" lon="2.35907">
        <ele>129</ele>
        <time>2022-09-02T09:02:16Z</time>
      </trkpt>
      <trkpt lat="43.21027" lon="2.35914">
        <ele>129</ele>
        <time>2022-09-02T09:02:19Z</time>
      </trkpt>
      <trkpt lat="43.21024" lon="2.35927">
        <ele>128.8</ele>
        <time>2022-09-02T09:02:23Z</time>
      </trkpt>
      <trkpt lat="43.21021" lon="2.35943">
        <ele>128.6</ele>
        <time>2022-09-02T09:02:29Z</time>
      </trkpt>
      <trkpt lat="43.21021" lon="2.35951">
        <ele>128.4</ele>
        <time>2022-09-02T09:02:35Z</time>
      </trkpt>
      <trkpt lat="43.21019" lon="2.3595">
        <ele>129.6</ele>
        <time>2022-09-02T09:03:43Z</time>
      </trkpt>
      <trkpt lat="43.21021" lon="2.35945">
        <ele>129.6</ele>
        <time>2022-09-02T09:03:45Z</time>
      </trkpt>
      <trkpt lat="43.21024" lon="2.35924">
        <ele>129.8</ele>
        <time>2022-09-02T09:03:53Z</time>
      </trkpt>
      <trkpt lat="43.21026" lon="2.35917">
        <ele>130</ele>
        <time>2022-09-02T09:03:55Z</time>
      </trkpt>
      <trkpt lat="43.21027" lon="2.35903">
        <ele>129.6</ele>
        <time>2022-09-02T09:03:59Z</time>
      </trkpt>
      <trkpt lat="43.21031" lon="2.35885">
        <ele>129.8</ele>
        <time>2022-09-02T09:04:04Z</time>
      </trkpt>
      <trkpt lat="43.21036" lon="2.35854">
        <ele>129.2</ele>
        <time>2022-09-02T09:04:12Z</time>
      </trkpt>
      <trkpt lat="43.21039" lon="2.35834">
        <ele>128.8</ele>
        <time>2022-09-02T09:04:16Z</time>
      </trkpt>
      <trkpt lat="43.21042" lon="2.35823">
        <ele>128.2</ele>
        <time>2022-09-02T09:04:18Z</time>
      </trkpt>
      <trkpt lat="43.21043" lon="2.35818">
        <ele>127.4</ele>
        <time>2022-09-02T09:04:19Z</time>
      </trkpt>
      <trkpt lat="43.2105" lon="2.35798">
        <ele>126.4</ele>
        <time>2022-09-02T09:04:24Z</time>
      </trkpt>
      <trkpt lat="43.2105" lon="2.35794">
        <ele>126.2</ele>
        <time>2022-09-02T09:04:25Z</time>
      </trkpt>
      <trkpt lat="43.21044" lon="2.35788">
        <ele>125.6</ele>
        <time>2022-09-02T09:04:27Z</time>
      </trkpt>
      <trkpt lat="43.21027" lon="2.35777">
        <ele>125.6</ele>
        <time>2022-09-02T09:04:31Z</time>
      </trkpt>
      <trkpt lat="43.21023" lon="2.35761">
        <ele>125.2</ele>
        <time>2022-09-02T09:04:34Z</time>
      </trkpt>
      <trkpt lat="43.21026" lon="2.35741">
        <ele>125.2</ele>
        <time>2022-09-02T09:04:38Z</time>
      </trkpt>
      <trkpt lat="43.21026" lon="2.35723">
        <ele>125.6</ele>
        <time>2022-09-02T09:04:42Z</time>
      </trkpt>
      <trkpt lat="43.2102" lon="2.35718">
        <ele>124.2</ele>
        <time>2022-09-02T09:04:44Z</time>
      </trkpt>
      <trkpt lat="43.21009" lon="2.35721">
        <ele>124.2</ele>
        <time>2022-09-02T09:04:48Z</time>
      </trkpt>
      <trkpt lat="43.20993" lon="2.35729">
        <ele>124.6</ele>
        <time>2022-09-02T09:04:54Z</time>
      </trkpt>
      <trkpt lat="43.20976" lon="2.35733">
        <ele>124.6</ele>
        <time>2022-09-02T09:05:01Z</time>
      </trkpt>
      <trkpt lat="43.20962" lon="2.35729">
        <ele>123.6</ele>
        <time>2022-09-02T09:05:05Z</time>
      </trkpt>
      <trkpt lat="43.20957" lon="2.35727">
        <ele>123.4</ele>
        <time>2022-09-02T09:05:06Z</time>
      </trkpt>
      <trkpt lat="43.20952" lon="2.35724">
        <ele>123</ele>
        <time>2022-09-02T09:05:07Z</time>
      </trkpt>
      <trkpt lat="43.20936" lon="2.35718">
        <ele>122.4</ele>
        <time>2022-09-02T09:05:10Z</time>
      </trkpt>
      <trkpt lat="43.20931" lon="2.35715">
        <ele>122</ele>
        <time>2022-09-02T09:05:11Z</time>
      </trkpt>
      <trkpt lat="43.20927" lon="2.3571">
        <ele>121.8</ele>
        <time>2022-09-02T09:05:12Z</time>
      </trkpt>
      <trkpt lat="43.2092" lon="2.35703">
        <ele>121.8</ele>
        <time>2022-09-02T09:05:14Z</time>
      </trkpt>
      <trkpt lat="43.20904" lon="2.35688">
        <ele>122.4</ele>
        <time>2022-09-02T09:05:19Z</time>
      </trkpt>
      <trkpt lat="43.20889" lon="2.35676">
        <ele>122.2</ele>
        <time>2022-09-02T09:05:24Z</time>
      </trkpt>
      <trkpt lat="43.20867" lon="2.35655">
        <ele>121.8</ele>
        <time>2022-09-02T09:05:32Z</time>
      </trkpt>
      <trkpt lat="43.20835" lon="2.35625">
        <ele>122.8</ele>
        <time>2022-09-02T09:05:43Z</time>
      </trkpt>
      <trkpt lat="43.20832" lon="2.35622">
        <ele>123</ele>
        <time>2022-09-02T09:05:44Z</time>
      </trkpt>
      <trkpt lat="43.20812" lon="2.35604">
        <ele>122.8</ele>
        <time>2022-09-02T09:05:50Z</time>
      </trkpt>
      <trkpt lat="43.20773" lon="2.35566">
        <ele>123.4</ele>
        <time>2022-09-02T09:06:02Z</time>
      </trkpt>
      <trkpt lat="43.20755" lon="2.35549">
        <ele>124</ele>
        <time>2022-09-02T09:06:08Z</time>
      </trkpt>
      <trkpt lat="43.2074" lon="2.35534">
        <ele>124</ele>
        <time>2022-09-02T09:06:13Z</time>
      </trkpt>
      <trkpt lat="43.20715" lon="2.35511">
        <ele>124.2</ele>
        <time>2022-09-02T09:06:21Z</time>
      </trkpt>
      <trkpt lat="43.2069" lon="2.35487">
        <ele>124.8</ele>
        <time>2022-09-02T09:06:29Z</time>
      </trkpt>
      <trkpt lat="43.20669" lon="2.35467">
        <ele>124.2</ele>
        <time>2022-09-02T09:06:36Z</time>
      </trkpt>
      <trkpt lat="43.20645" lon="2.35444">
        <ele>123.8</ele>
        <time>2022-09-02T09:06:43Z</time>
      </trkpt>
      <trkpt lat="43.20617" lon="2.35415">
        <ele>124</ele>
        <time>2022-09-02T09:06:52Z</time>
      </trkpt>
      <trkpt lat="43.20595" lon="2.35394">
        <ele>124.2</ele>
        <time>2022-09-02T09:06:59Z</time>
      </trkpt>
      <trkpt lat="43.2057" lon="2.35364">
        <ele>124.2</ele>
        <time>2022-09-02T09:07:08Z</time>
      </trkpt>
      <trkpt lat="43.20564" lon="2.35345">
        <ele>124.2</ele>
        <time>2022-09-02T09:07:13Z</time>
      </trkpt>
      <trkpt lat="43.20553" lon="2.35321">
        <ele>125</ele>
        <time>2022-09-02T09:07:19Z</time>
      </trkpt>
      <trkpt lat="43.20549" lon="2.35308">
        <ele>125.2</ele>
        <time>2022-09-02T09:07:22Z</time>
      </trkpt>
      <trkpt lat="43.20545" lon="2.35282">
        <ele>125.8</ele>
        <time>2022-09-02T09:07:29Z</time>
      </trkpt>
      <trkpt lat="43.20545" lon="2.35275">
        <ele>126.2</ele>
        <time>2022-09-02T09:07:31Z</time>
      </trkpt>
      <trkpt lat="43.20545" lon="2.35264">
        <ele>127</ele>
        <time>2022-09-02T09:07:34Z</time>
      </trkpt>
      <trkpt lat="43.20544" lon="2.35257">
        <ele>127.4</ele>
        <time>2022-09-02T09:07:36Z</time>
      </trkpt>
      <trkpt lat="43.20541" lon="2.35237">
        <ele>128.2</ele>
        <time>2022-09-02T09:07:41Z</time>
      </trkpt>
      <trkpt lat="43.20536" lon="2.35212">
        <ele>128.2</ele>
        <time>2022-09-02T09:07:48Z</time>
      </trkpt>
      <trkpt lat="43.20532" lon="2.35192">
        <ele>128.4</ele>
        <time>2022-09-02T09:07:53Z</time>
      </trkpt>
      <trkpt lat="43.2053" lon="2.35184">
        <ele>128.2</ele>
        <time>2022-09-02T09:07:55Z</time>
      </trkpt>
      <trkpt lat="43.20531" lon="2.35159">
        <ele>127.8</ele>
        <time>2022-09-02T09:08:01Z</time>
      </trkpt>
      <trkpt lat="43.20533" lon="2.35148">
        <ele>127.6</ele>
        <time>2022-09-02T09:08:04Z</time>
      </trkpt>
      <trkpt lat="43.20534" lon="2.3514">
        <ele>127.8</ele>
        <time>2022-09-02T09:08:06Z</time>
      </trkpt>
      <trkpt lat="43.20536" lon="2.35132">
        <ele>127.6</ele>
        <time>2022-09-02T09:08:08Z</time>
      </trkpt>
      <trkpt lat="43.20538" lon="2.35117">
        <ele>127.8</ele>
        <time>2022-09-02T09:08:12Z</time>
      </trkpt>
      <trkpt lat="43.20537" lon="2.35113">
        <ele>127.8</ele>
        <time>2022-09-02T09:08:13Z</time>
      </trkpt>
      <trkpt lat="43.20532" lon="2.35101">
        <ele>127.2</ele>
        <time>2022-09-02T09:08:16Z</time>
      </trkpt>
      <trkpt lat="43.20524" lon="2.35079">
        <ele>126.4</ele>
        <time>2022-09-02T09:08:20Z</time>
      </trkpt>
      <trkpt lat="43.20523" lon="2.35073">
        <ele>126.4</ele>
        <time>2022-09-02T09:08:21Z</time>
      </trkpt>
      <trkpt lat="43.20521" lon="2.3506">
        <ele>126.2</ele>
        <time>2022-09-02T09:08:23Z</time>
      </trkpt>
      <trkpt lat="43.2052" lon="2.35047">
        <ele>126</ele>
        <time>2022-09-02T09:08:25Z</time>
      </trkpt>
      <trkpt lat="43.2052" lon="2.35041">
        <ele>126</ele>
        <time>2022-09-02T09:08:26Z</time>
      </trkpt>
      <trkpt lat="43.2052" lon="2.34986">
        <ele>125.8</ele>
        <time>2022-09-02T09:08:34Z</time>
      </trkpt>
      <trkpt lat="43.20522" lon="2.34973">
        <ele>125.8</ele>
        <time>2022-09-02T09:08:36Z</time>
      </trkpt>
      <trkpt lat="43.20526" lon="2.34954">
        <ele>125.6</ele>
        <time>2022-09-02T09:08:39Z</time>
      </trkpt>
      <trkpt lat="43.20528" lon="2.34948">
        <ele>125.8</ele>
        <time>2022-09-02T09:08:40Z</time>
      </trkpt>
      <trkpt lat="43.20537" lon="2.34925">
        <ele>126</ele>
        <time>2022-09-02T09:08:44Z</time>
      </trkpt>
      <trkpt lat="43.20538" lon="2.34919">
        <ele>126</ele>
        <time>2022-09-02T09:08:45Z</time>
      </trkpt>
      <trkpt lat="43.20544" lon="2.34885">
        <ele>126</ele>
        <time>2022-09-02T09:08:51Z</time>
      </trkpt>
      <trkpt lat="43.20552" lon="2.34854">
        <ele>126</ele>
        <time>2022-09-02T09:08:57Z</time>
      </trkpt>
      <trkpt lat="43.20566" lon="2.34838">
        <ele>125.8</ele>
        <time>2022-09-02T09:09:02Z</time>
      </trkpt>
      <trkpt lat="43.2057" lon="2.34833">
        <ele>125.8</ele>
        <time>2022-09-02T09:09:03Z</time>
      </trkpt>
      <trkpt lat="43.20575" lon="2.34824">
        <ele>125.8</ele>
        <time>2022-09-02T09:09:05Z</time>
      </trkpt>
      <trkpt lat="43.2058" lon="2.34814">
        <ele>126</ele>
        <time>2022-09-02T09:09:07Z</time>
      </trkpt>
      <trkpt lat="43.20597" lon="2.34766">
        <ele>126</ele>
        <time>2022-09-02T09:09:16Z</time>
      </trkpt>
      <trkpt lat="43.20606" lon="2.34735">
        <ele>126.4</ele>
        <time>2022-09-02T09:09:22Z</time>
      </trkpt>
      <trkpt lat="43.20616" lon="2.34713">
        <ele>126.2</ele>
        <time>2022-09-02T09:09:27Z</time>
      </trkpt>
      <trkpt lat="43.20627" lon="2.34688">
        <ele>126</ele>
        <time>2022-09-02T09:09:33Z</time>
      </trkpt>
      <trkpt lat="43.20636" lon="2.3466">
        <ele>126.2</ele>
        <time>2022-09-02T09:09:39Z</time>
      </trkpt>
      <trkpt lat="43.20632" lon="2.34639">
        <ele>126.2</ele>
        <time>2022-09-02T09:09:44Z</time>
      </trkpt>
      <trkpt lat="43.20634" lon="2.34625">
        <ele>126</ele>
        <time>2022-09-02T09:09:48Z</time>
      </trkpt>
      <trkpt lat="43.20639" lon="2.34603">
        <ele>126.2</ele>
        <time>2022-09-02T09:09:54Z</time>
      </trkpt>
      <trkpt lat="43.20646" lon="2.34582">
        <ele>126</ele>
        <time>2022-09-02T09:10:00Z</time>
      </trkpt>
      <trkpt lat="43.20656" lon="2.34557">
        <ele>126.4</ele>
        <time>2022-09-02T09:10:06Z</time>
      </trkpt>
      <trkpt lat="43.20668" lon="2.34522">
        <ele>126.2</ele>
        <time>2022-09-02T09:10:13Z</time>
      </trkpt>
      <trkpt lat="43.20681" lon="2.34487">
        <ele>126.6</ele>
        <time>2022-09-02T09:10:20Z</time>
      </trkpt>
      <trkpt lat="43.20693" lon="2.34452">
        <ele>126.4</ele>
        <time>2022-09-02T09:10:27Z</time>
      </trkpt>
      <trkpt lat="43.20705" lon="2.34419">
        <ele>126.2</ele>
        <time>2022-09-02T09:10:34Z</time>
      </trkpt>
      <trkpt lat="43.20718" lon="2.34383">
        <ele>126.2</ele>
        <time>2022-09-02T09:10:41Z</time>
      </trkpt>
      <trkpt lat="43.20725" lon="2.34347">
        <ele>126.2</ele>
        <time>2022-09-02T09:10:47Z</time>
      </trkpt>
      <trkpt lat="43.20727" lon="2.34314">
        <ele>126.2</ele>
        <time>2022-09-02T09:10:53Z</time>
      </trkpt>
      <trkpt lat="43.20734" lon="2.34275">
        <ele>126.4</ele>
        <time>2022-09-02T09:11:00Z</time>
      </trkpt>
      <trkpt lat="43.2074" lon="2.34248">
        <ele>126.6</ele>
        <time>2022-09-02T09:11:05Z</time>
      </trkpt>
      <trkpt lat="43.20748" lon="2.34213">
        <ele>126.4</ele>
        <time>2022-09-02T09:11:11Z</time>
      </trkpt>
      <trkpt lat="43.20756" lon="2.34175">
        <ele>126.6</ele>
        <time>2022-09-02T09:11:17Z</time>
      </trkpt>
      <trkpt lat="43.20764" lon="2.34141">
        <ele>126.8</ele>
        <time>2022-09-02T09:11:23Z</time>
      </trkpt>
      <trkpt lat="43.2077" lon="2.34098">
        <ele>127</ele>
        <time>2022-09-02T09:11:30Z</time>
      </trkpt>
      <trkpt lat="43.20774" lon="2.34067">
        <ele>127</ele>
        <time>2022-09-02T09:11:35Z</time>
      </trkpt>
      <trkpt lat="43.20775" lon="2.34048">
        <ele>127.2</ele>
        <time>2022-09-02T09:11:38Z</time>
      </trkpt>
      <trkpt lat="43.20774" lon="2.34014">
        <ele>127.4</ele>
        <time>2022-09-02T09:11:43Z</time>
      </trkpt>
      <trkpt lat="43.20774" lon="2.33977">
        <ele>127.8</ele>
        <time>2022-09-02T09:11:49Z</time>
      </trkpt>
      <trkpt lat="43.20773" lon="2.3397">
        <ele>128.2</ele>
        <time>2022-09-02T09:11:50Z</time>
      </trkpt>
      <trkpt lat="43.20772" lon="2.33965">
        <ele>128.4</ele>
        <time>2022-09-02T09:11:51Z</time>
      </trkpt>
      <trkpt lat="43.20769" lon="2.33944">
        <ele>128.8</ele>
        <time>2022-09-02T09:11:55Z</time>
      </trkpt>
      <trkpt lat="43.20759" lon="2.3389">
        <ele>128.8</ele>
        <time>2022-09-02T09:12:05Z</time>
      </trkpt>
      <trkpt lat="43.20751" lon="2.33857">
        <ele>128.8</ele>
        <time>2022-09-02T09:12:12Z</time>
      </trkpt>
      <trkpt lat="43.20746" lon="2.33823">
        <ele>128.8</ele>
        <time>2022-09-02T09:12:19Z</time>
      </trkpt>
      <trkpt lat="43.20736" lon="2.33797">
        <ele>129</ele>
        <time>2022-09-02T09:12:25Z</time>
      </trkpt>
      <trkpt lat="43.20727" lon="2.33782">
        <ele>128.8</ele>
        <time>2022-09-02T09:12:30Z</time>
      </trkpt>
      <trkpt lat="43.20717" lon="2.33762">
        <ele>128.8</ele>
        <time>2022-09-02T09:12:36Z</time>
      </trkpt>
      <trkpt lat="43.20708" lon="2.3374">
        <ele>128.4</ele>
        <time>2022-09-02T09:12:44Z</time>
      </trkpt>
      <trkpt lat="43.20704" lon="2.33734">
        <ele>128.8</ele>
        <time>2022-09-02T09:13:38Z</time>
      </trkpt>
      <trkpt lat="43.20702" lon="2.33729">
        <ele>128.6</ele>
        <time>2022-09-02T09:13:40Z</time>
      </trkpt>
      <trkpt lat="43.20706" lon="2.33724">
        <ele>128.8</ele>
        <time>2022-09-02T09:13:45Z</time>
      </trkpt>
      <trkpt lat="43.20711" lon="2.33731">
        <ele>129</ele>
        <time>2022-09-02T09:13:48Z</time>
      </trkpt>
      <trkpt lat="43.20715" lon="2.33737">
        <ele>129.2</ele>
        <time>2022-09-02T09:13:50Z</time>
      </trkpt>
      <trkpt lat="43.20728" lon="2.33761">
        <ele>129.2</ele>
        <time>2022-09-02T09:13:57Z</time>
      </trkpt>
      <trkpt lat="43.20742" lon="2.33779">
        <ele>129.4</ele>
        <time>2022-09-02T09:14:03Z</time>
      </trkpt>
      <trkpt lat="43.20747" lon="2.33781">
        <ele>129.4</ele>
        <time>2022-09-02T09:14:05Z</time>
      </trkpt>
      <trkpt lat="43.20765" lon="2.33778">
        <ele>129.6</ele>
        <time>2022-09-02T09:14:11Z</time>
      </trkpt>
      <trkpt lat="43.20771" lon="2.33763">
        <ele>130</ele>
        <time>2022-09-02T09:14:15Z</time>
      </trkpt>
      <trkpt lat="43.20779" lon="2.33732">
        <ele>130.2</ele>
        <time>2022-09-02T09:14:24Z</time>
      </trkpt>
      <trkpt lat="43.20783" lon="2.33713">
        <ele>130</ele>
        <time>2022-09-02T09:14:31Z</time>
      </trkpt>
      <trkpt lat="43.20785" lon="2.33707">
        <ele>130.4</ele>
        <time>2022-09-02T09:14:35Z</time>
      </trkpt>
      <trkpt lat="43.20785" lon="2.33704">
        <ele>130.6</ele>
        <time>2022-09-02T09:14:39Z</time>
      </trkpt>
      <trkpt lat="43.20786" lon="2.337">
        <ele>130.4</ele>
        <time>2022-09-02T09:14:42Z</time>
      </trkpt>
      <trkpt lat="43.20789" lon="2.33694">
        <ele>131.2</ele>
        <time>2022-09-02T09:14:44Z</time>
      </trkpt>
      <trkpt lat="43.20799" lon="2.33662">
        <ele>131</ele>
        <time>2022-09-02T09:14:52Z</time>
      </trkpt>
      <trkpt lat="43.20801" lon="2.33632">
        <ele>131.2</ele>
        <time>2022-09-02T09:14:58Z</time>
      </trkpt>
      <trkpt lat="43.208" lon="2.33577">
        <ele>131</ele>
        <time>2022-09-02T09:15:08Z</time>
      </trkpt>
      <trkpt lat="43.20799" lon="2.33533">
        <ele>131.4</ele>
        <time>2022-09-02T09:15:16Z</time>
      </trkpt>
      <trkpt lat="43.208" lon="2.33527">
        <ele>131.6</ele>
        <time>2022-09-02T09:15:17Z</time>
      </trkpt>
      <trkpt lat="43.20807" lon="2.33481">
        <ele>131.6</ele>
        <time>2022-09-02T09:15:25Z</time>
      </trkpt>
      <trkpt lat="43.20817" lon="2.33426">
        <ele>131.6</ele>
        <time>2022-09-02T09:15:35Z</time>
      </trkpt>
      <trkpt lat="43.20827" lon="2.33371">
        <ele>131.6</ele>
        <time>2022-09-02T09:15:45Z</time>
      </trkpt>
      <trkpt lat="43.20836" lon="2.33316">
        <ele>132.6</ele>
        <time>2022-09-02T09:15:55Z</time>
      </trkpt>
      <trkpt lat="43.20846" lon="2.33268">
        <ele>132.2</ele>
        <time>2022-09-02T09:16:03Z</time>
      </trkpt>
      <trkpt lat="43.20854" lon="2.33218">
        <ele>132.4</ele>
        <time>2022-09-02T09:16:11Z</time>
      </trkpt>
      <trkpt lat="43.20856" lon="2.33173">
        <ele>132</ele>
        <time>2022-09-02T09:16:18Z</time>
      </trkpt>
      <trkpt lat="43.20857" lon="2.33141">
        <ele>131.4</ele>
        <time>2022-09-02T09:16:23Z</time>
      </trkpt>
      <trkpt lat="43.20858" lon="2.33122">
        <ele>131.6</ele>
        <time>2022-09-02T09:16:26Z</time>
      </trkpt>
      <trkpt lat="43.20858" lon="2.33078">
        <ele>131.4</ele>
        <time>2022-09-02T09:16:33Z</time>
      </trkpt>
      <trkpt lat="43.20859" lon="2.3302">
        <ele>131.2</ele>
        <time>2022-09-02T09:16:43Z</time>
      </trkpt>
      <trkpt lat="43.2086" lon="2.33014">
        <ele>131.6</ele>
        <time>2022-09-02T09:16:44Z</time>
      </trkpt>
      <trkpt lat="43.20861" lon="2.32979">
        <ele>131.6</ele>
        <time>2022-09-02T09:16:50Z</time>
      </trkpt>
      <trkpt lat="43.20862" lon="2.32933">
        <ele>131.8</ele>
        <time>2022-09-02T09:16:58Z</time>
      </trkpt>
      <trkpt lat="43.20864" lon="2.32915">
        <ele>131.8</ele>
        <time>2022-09-02T09:17:01Z</time>
      </trkpt>
      <trkpt lat="43.20863" lon="2.32903">
        <ele>131.6</ele>
        <time>2022-09-02T09:17:03Z</time>
      </trkpt>
      <trkpt lat="43.20861" lon="2.32891">
        <ele>131.8</ele>
        <time>2022-09-02T09:17:05Z</time>
      </trkpt>
      <trkpt lat="43.20854" lon="2.32877">
        <ele>131.6</ele>
        <time>2022-09-02T09:17:08Z</time>
      </trkpt>
      <trkpt lat="43.20845" lon="2.32864">
        <ele>131.8</ele>
        <time>2022-09-02T09:17:11Z</time>
      </trkpt>
      <trkpt lat="43.20817" lon="2.32819">
        <ele>132</ele>
        <time>2022-09-02T09:17:21Z</time>
      </trkpt>
      <trkpt lat="43.20791" lon="2.32778">
        <ele>132</ele>
        <time>2022-09-02T09:17:30Z</time>
      </trkpt>
      <trkpt lat="43.20768" lon="2.32739">
        <ele>132.2</ele>
        <time>2022-09-02T09:17:38Z</time>
      </trkpt>
      <trkpt lat="43.20765" lon="2.32734">
        <ele>132.4</ele>
        <time>2022-09-02T09:17:39Z</time>
      </trkpt>
      <trkpt lat="43.20745" lon="2.32704">
        <ele>132.6</ele>
        <time>2022-09-02T09:17:46Z</time>
      </trkpt>
      <trkpt lat="43.20743" lon="2.32699">
        <ele>132.6</ele>
        <time>2022-09-02T09:17:47Z</time>
      </trkpt>
      <trkpt lat="43.20723" lon="2.32667">
        <ele>132.8</ele>
        <time>2022-09-02T09:17:55Z</time>
      </trkpt>
      <trkpt lat="43.20718" lon="2.32659">
        <ele>133.6</ele>
        <time>2022-09-02T09:17:57Z</time>
      </trkpt>
      <trkpt lat="43.20707" lon="2.32652">
        <ele>133.8</ele>
        <time>2022-09-02T09:18:00Z</time>
      </trkpt>
      <trkpt lat="43.20703" lon="2.32651">
        <ele>133.8</ele>
        <time>2022-09-02T09:18:01Z</time>
      </trkpt>
      <trkpt lat="43.20669" lon="2.32647">
        <ele>133</ele>
        <time>2022-09-02T09:18:09Z</time>
      </trkpt>
      <trkpt lat="43.20624" lon="2.32644">
        <ele>133.6</ele>
        <time>2022-09-02T09:18:19Z</time>
      </trkpt>
      <trkpt lat="43.20575" lon="2.3264">
        <ele>134.2</ele>
        <time>2022-09-02T09:18:30Z</time>
      </trkpt>
      <trkpt lat="43.20545" lon="2.32638">
        <ele>133.8</ele>
        <time>2022-09-02T09:18:37Z</time>
      </trkpt>
      <trkpt lat="43.2054" lon="2.32637">
        <ele>133.8</ele>
        <time>2022-09-02T09:18:38Z</time>
      </trkpt>
      <trkpt lat="43.20506" lon="2.32634">
        <ele>133.8</ele>
        <time>2022-09-02T09:18:46Z</time>
      </trkpt>
      <trkpt lat="43.20472" lon="2.3263">
        <ele>134.2</ele>
        <time>2022-09-02T09:18:54Z</time>
      </trkpt>
      <trkpt lat="43.20445" lon="2.32628">
        <ele>133.8</ele>
        <time>2022-09-02T09:19:01Z</time>
      </trkpt>
      <trkpt lat="43.20429" lon="2.32626">
        <ele>134.6</ele>
        <time>2022-09-02T09:19:06Z</time>
      </trkpt>
      <trkpt lat="43.20427" lon="2.32624">
        <ele>135</ele>
        <time>2022-09-02T09:19:07Z</time>
      </trkpt>
      <trkpt lat="43.20427" lon="2.32616">
        <ele>136</ele>
        <time>2022-09-02T09:19:09Z</time>
      </trkpt>
      <trkpt lat="43.20427" lon="2.32612">
        <ele>135.8</ele>
        <time>2022-09-02T09:19:10Z</time>
      </trkpt>
      <trkpt lat="43.20428" lon="2.32608">
        <ele>135.8</ele>
        <time>2022-09-02T09:19:11Z</time>
      </trkpt>
      <trkpt lat="43.20432" lon="2.32571">
        <ele>136</ele>
        <time>2022-09-02T09:19:19Z</time>
      </trkpt>
      <trkpt lat="43.20435" lon="2.32531">
        <ele>136.2</ele>
        <time>2022-09-02T09:19:27Z</time>
      </trkpt>
      <trkpt lat="43.20437" lon="2.32505">
        <ele>136.4</ele>
        <time>2022-09-02T09:19:33Z</time>
      </trkpt>
      <trkpt lat="43.20439" lon="2.32478">
        <ele>136.8</ele>
        <time>2022-09-02T09:19:39Z</time>
      </trkpt>
      <trkpt lat="43.20439" lon="2.32459">
        <ele>137</ele>
        <time>2022-09-02T09:19:43Z</time>
      </trkpt>
      <trkpt lat="43.20441" lon="2.32446">
        <ele>137.2</ele>
        <time>2022-09-02T09:19:46Z</time>
      </trkpt>
      <trkpt lat="43.20443" lon="2.32419">
        <ele>138.2</ele>
        <time>2022-09-02T09:19:52Z</time>
      </trkpt>
      <trkpt lat="43.20443" lon="2.32406">
        <ele>138.4</ele>
        <time>2022-09-02T09:19:55Z</time>
      </trkpt>
      <trkpt lat="43.20443" lon="2.32394">
        <ele>138.2</ele>
        <time>2022-09-02T09:20:00Z</time>
      </trkpt>
      <trkpt lat="43.20443" lon="2.32388">
        <ele>139</ele>
        <time>2022-09-02T09:20:33Z</time>
      </trkpt>
      <trkpt lat="43.2044" lon="2.32378">
        <ele>139.2</ele>
        <time>2022-09-02T09:20:37Z</time>
      </trkpt>
      <trkpt lat="43.20438" lon="2.32376">
        <ele>139.2</ele>
        <time>2022-09-02T09:20:38Z</time>
      </trkpt>
      <trkpt lat="43.20421" lon="2.32362">
        <ele>140.2</ele>
        <time>2022-09-02T09:20:47Z</time>
      </trkpt>
      <trkpt lat="43.20419" lon="2.3236">
        <ele>140.4</ele>
        <time>2022-09-02T09:20:48Z</time>
      </trkpt>
      <trkpt lat="43.20403" lon="2.32346">
        <ele>141.2</ele>
        <time>2022-09-02T09:20:56Z</time>
      </trkpt>
      <trkpt lat="43.20401" lon="2.32344">
        <ele>141.2</ele>
        <time>2022-09-02T09:20:57Z</time>
      </trkpt>
      <trkpt lat="43.20393" lon="2.32338">
        <ele>141.6</ele>
        <time>2022-09-02T09:21:02Z</time>
      </trkpt>
      <trkpt lat="43.20389" lon="2.3233">
        <ele>141.8</ele>
        <time>2022-09-02T09:21:06Z</time>
      </trkpt>
      <trkpt lat="43.20387" lon="2.32326">
        <ele>142.2</ele>
        <time>2022-09-02T09:21:08Z</time>
      </trkpt>
      <trkpt lat="43.2038" lon="2.32325">
        <ele>142</ele>
        <time>2022-09-02T09:21:11Z</time>
      </trkpt>
      <trkpt lat="43.20376" lon="2.32323">
        <ele>142.2</ele>
        <time>2022-09-02T09:21:13Z</time>
      </trkpt>
      <trkpt lat="43.20374" lon="2.32321">
        <ele>142.4</ele>
        <time>2022-09-02T09:21:14Z</time>
      </trkpt>
      <trkpt lat="43.20371" lon="2.32317">
        <ele>142.8</ele>
        <time>2022-09-02T09:21:17Z</time>
      </trkpt>
      <trkpt lat="43.2037" lon="2.32313">
        <ele>142.8</ele>
        <time>2022-09-02T09:21:19Z</time>
      </trkpt>
      <trkpt lat="43.20378" lon="2.32313">
        <ele>142.8</ele>
        <time>2022-09-02T09:21:23Z</time>
      </trkpt>
      <trkpt lat="43.20379" lon="2.32314">
        <ele>142.6</ele>
        <time>2022-09-02T09:21:24Z</time>
      </trkpt>
      <trkpt lat="43.20382" lon="2.32313">
        <ele>142.2</ele>
        <time>2022-09-02T09:21:26Z</time>
      </trkpt>
      <trkpt lat="43.20383" lon="2.32309">
        <ele>142.2</ele>
        <time>2022-09-02T09:21:28Z</time>
      </trkpt>
      <trkpt lat="43.20378" lon="2.32309">
        <ele>142.2</ele>
        <time>2022-09-02T09:21:31Z</time>
      </trkpt>
      <trkpt lat="43.20371" lon="2.32311">
        <ele>142.8</ele>
        <time>2022-09-02T09:21:35Z</time>
      </trkpt>
      <trkpt lat="43.20368" lon="2.32312">
        <ele>143.2</ele>
        <time>2022-09-02T09:21:37Z</time>
      </trkpt>
      <trkpt lat="43.20364" lon="2.32314">
        <ele>143.4</ele>
        <time>2022-09-02T09:21:39Z</time>
      </trkpt>
      <trkpt lat="43.20353" lon="2.32315">
        <ele>144.2</ele>
        <time>2022-09-02T09:21:46Z</time>
      </trkpt>
      <trkpt lat="43.20356" lon="2.3232">
        <ele>144</ele>
        <time>2022-09-02T09:22:39Z</time>
      </trkpt>
      <trkpt lat="43.20369" lon="2.3232">
        <ele>143.4</ele>
        <time>2022-09-02T09:22:44Z</time>
      </trkpt>
      <trkpt lat="43.20379" lon="2.32326">
        <ele>142.2</ele>
        <time>2022-09-02T09:22:48Z</time>
      </trkpt>
      <trkpt lat="43.20382" lon="2.32327">
        <ele>141.8</ele>
        <time>2022-09-02T09:22:50Z</time>
      </trkpt>
      <trkpt lat="43.20385" lon="2.32325">
        <ele>141.4</ele>
        <time>2022-09-02T09:23:02Z</time>
      </trkpt>
      <trkpt lat="43.20388" lon="2.32321">
        <ele>142</ele>
        <time>2022-09-02T09:23:04Z</time>
      </trkpt>
      <trkpt lat="43.2039" lon="2.32313">
        <ele>142.4</ele>
        <time>2022-09-02T09:23:06Z</time>
      </trkpt>
      <trkpt lat="43.20391" lon="2.323">
        <ele>142.2</ele>
        <time>2022-09-02T09:23:09Z</time>
      </trkpt>
      <trkpt lat="43.20393" lon="2.32284">
        <ele>142.4</ele>
        <time>2022-09-02T09:23:12Z</time>
      </trkpt>
      <trkpt lat="43.20399" lon="2.32236">
        <ele>141.8</ele>
        <time>2022-09-02T09:23:20Z</time>
      </trkpt>
      <trkpt lat="43.20404" lon="2.32196">
        <ele>141.2</ele>
        <time>2022-09-02T09:23:26Z</time>
      </trkpt>
      <trkpt lat="43.20406" lon="2.32182">
        <ele>140.8</ele>
        <time>2022-09-02T09:23:28Z</time>
      </trkpt>
      <trkpt lat="43.2041" lon="2.32149">
        <ele>139.8</ele>
        <time>2022-09-02T09:23:33Z</time>
      </trkpt>
      <trkpt lat="43.20411" lon="2.3213">
        <ele>140.2</ele>
        <time>2022-09-02T09:23:36Z</time>
      </trkpt>
      <trkpt lat="43.20412" lon="2.32085">
        <ele>140.8</ele>
        <time>2022-09-02T09:23:44Z</time>
      </trkpt>
      <trkpt lat="43.20412" lon="2.3208">
        <ele>141</ele>
        <time>2022-09-02T09:23:45Z</time>
      </trkpt>
      <trkpt lat="43.20412" lon="2.32051">
        <ele>140.6</ele>
        <time>2022-09-02T09:23:50Z</time>
      </trkpt>
      <trkpt lat="43.20418" lon="2.32029">
        <ele>139.8</ele>
        <time>2022-09-02T09:23:53Z</time>
      </trkpt>
      <trkpt lat="43.20422" lon="2.32023">
        <ele>139.4</ele>
        <time>2022-09-02T09:23:54Z</time>
      </trkpt>
      <trkpt lat="43.20436" lon="2.3201">
        <ele>138.4</ele>
        <time>2022-09-02T09:23:57Z</time>
      </trkpt>
      <trkpt lat="43.20441" lon="2.32007">
        <ele>138.2</ele>
        <time>2022-09-02T09:23:58Z</time>
      </trkpt>
      <trkpt lat="43.20446" lon="2.32003">
        <ele>138.2</ele>
        <time>2022-09-02T09:23:59Z</time>
      </trkpt>
      <trkpt lat="43.2045" lon="2.3199">
        <ele>138.4</ele>
        <time>2022-09-02T09:24:01Z</time>
      </trkpt>
      <trkpt lat="43.20443" lon="2.31971">
        <ele>137.2</ele>
        <time>2022-09-02T09:24:04Z</time>
      </trkpt>
      <trkpt lat="43.2044" lon="2.31965">
        <ele>137.2</ele>
        <time>2022-09-02T09:24:05Z</time>
      </trkpt>
      <trkpt lat="43.20438" lon="2.31959">
        <ele>137.2</ele>
        <time>2022-09-02T09:24:06Z</time>
      </trkpt>
      <trkpt lat="43.20434" lon="2.31939">
        <ele>137.6</ele>
        <time>2022-09-02T09:24:09Z</time>
      </trkpt>
      <trkpt lat="43.20427" lon="2.31899">
        <ele>137.8</ele>
        <time>2022-09-02T09:24:16Z</time>
      </trkpt>
      <trkpt lat="43.20418" lon="2.31876">
        <ele>137.8</ele>
        <time>2022-09-02T09:24:22Z</time>
      </trkpt>
      <trkpt lat="43.20405" lon="2.31872">
        <ele>138</ele>
        <time>2022-09-02T09:24:26Z</time>
      </trkpt>
      <trkpt lat="43.2038" lon="2.31874">
        <ele>138</ele>
        <time>2022-09-02T09:24:33Z</time>
      </trkpt>
      <trkpt lat="43.20359" lon="2.31873">
        <ele>138.4</ele>
        <time>2022-09-02T09:24:39Z</time>
      </trkpt>
      <trkpt lat="43.20344" lon="2.31873">
        <ele>139.2</ele>
        <time>2022-09-02T09:24:43Z</time>
      </trkpt>
      <trkpt lat="43.2032" lon="2.31871">
        <ele>139.4</ele>
        <time>2022-09-02T09:24:50Z</time>
      </trkpt>
      <trkpt lat="43.20304" lon="2.31871">
        <ele>139.6</ele>
        <time>2022-09-02T09:24:55Z</time>
      </trkpt>
      <trkpt lat="43.20288" lon="2.3187">
        <ele>140.6</ele>
        <time>2022-09-02T09:25:00Z</time>
      </trkpt>
      <trkpt lat="43.20279" lon="2.31869">
        <ele>141.6</ele>
        <time>2022-09-02T09:25:03Z</time>
      </trkpt>
      <trkpt lat="43.20253" lon="2.3187">
        <ele>141.8</ele>
        <time>2022-09-02T09:25:13Z</time>
      </trkpt>
      <trkpt lat="43.2025" lon="2.31871">
        <ele>142.2</ele>
        <time>2022-09-02T09:25:14Z</time>
      </trkpt>
      <trkpt lat="43.2024" lon="2.31875">
        <ele>143</ele>
        <time>2022-09-02T09:25:18Z</time>
      </trkpt>
      <trkpt lat="43.20232" lon="2.31884">
        <ele>143</ele>
        <time>2022-09-02T09:25:22Z</time>
      </trkpt>
      <trkpt lat="43.20212" lon="2.31897">
        <ele>143.6</ele>
        <time>2022-09-02T09:25:30Z</time>
      </trkpt>
      <trkpt lat="43.20204" lon="2.31898">
        <ele>144.2</ele>
        <time>2022-09-02T09:25:33Z</time>
      </trkpt>
      <trkpt lat="43.20191" lon="2.31897">
        <ele>145</ele>
        <time>2022-09-02T09:25:38Z</time>
      </trkpt>
      <trkpt lat="43.20188" lon="2.31897">
        <ele>145.2</ele>
        <time>2022-09-02T09:25:39Z</time>
      </trkpt>
      <trkpt lat="43.20173" lon="2.31887">
        <ele>146</ele>
        <time>2022-09-02T09:25:45Z</time>
      </trkpt>
      <trkpt lat="43.20171" lon="2.31884">
        <ele>146.2</ele>
        <time>2022-09-02T09:25:46Z</time>
      </trkpt>
      <trkpt lat="43.20153" lon="2.31865">
        <ele>145.4</ele>
        <time>2022-09-02T09:25:54Z</time>
      </trkpt>
      <trkpt lat="43.20134" lon="2.31847">
        <ele>145.2</ele>
        <time>2022-09-02T09:26:02Z</time>
      </trkpt>
      <trkpt lat="43.20131" lon="2.31845">
        <ele>145.6</ele>
        <time>2022-09-02T09:26:03Z</time>
      </trkpt>
      <trkpt lat="43.2011" lon="2.31837">
        <ele>146</ele>
        <time>2022-09-02T09:26:10Z</time>
      </trkpt>
      <trkpt lat="43.20107" lon="2.31836">
        <ele>146.2</ele>
        <time>2022-09-02T09:26:11Z</time>
      </trkpt>
      <trkpt lat="43.20093" lon="2.31832">
        <ele>146.4</ele>
        <time>2022-09-02T09:26:15Z</time>
      </trkpt>
      <trkpt lat="43.20068" lon="2.31828">
        <ele>146.4</ele>
        <time>2022-09-02T09:26:22Z</time>
      </trkpt>
      <trkpt lat="43.20049" lon="2.31824">
        <ele>146.6</ele>
        <time>2022-09-02T09:26:27Z</time>
      </trkpt>
      <trkpt lat="43.20015" lon="2.31817">
        <ele>146.6</ele>
        <time>2022-09-02T09:26:36Z</time>
      </trkpt>
      <trkpt lat="43.19984" lon="2.31811">
        <ele>146.2</ele>
        <time>2022-09-02T09:26:44Z</time>
      </trkpt>
      <trkpt lat="43.19948" lon="2.31805">
        <ele>146.8</ele>
        <time>2022-09-02T09:26:53Z</time>
      </trkpt>
      <trkpt lat="43.19915" lon="2.31799">
        <ele>146.6</ele>
        <time>2022-09-02T09:27:02Z</time>
      </trkpt>
      <trkpt lat="43.19896" lon="2.31794">
        <ele>145.8</ele>
        <time>2022-09-02T09:27:07Z</time>
      </trkpt>
      <trkpt lat="43.1987" lon="2.31789">
        <ele>145.6</ele>
        <time>2022-09-02T09:27:14Z</time>
      </trkpt>
      <trkpt lat="43.19826" lon="2.3178">
        <ele>145.8</ele>
        <time>2022-09-02T09:27:26Z</time>
      </trkpt>
      <trkpt lat="43.19803" lon="2.31775">
        <ele>146.2</ele>
        <time>2022-09-02T09:27:33Z</time>
      </trkpt>
      <trkpt lat="43.1978" lon="2.3177">
        <ele>147</ele>
        <time>2022-09-02T09:27:41Z</time>
      </trkpt>
      <trkpt lat="43.19776" lon="2.31769">
        <ele>147.4</ele>
        <time>2022-09-02T09:27:43Z</time>
      </trkpt>
      <trkpt lat="43.19766" lon="2.31767">
        <ele>148.4</ele>
        <time>2022-09-02T09:27:48Z</time>
      </trkpt>
      <trkpt lat="43.19764" lon="2.31766">
        <ele>148.6</ele>
        <time>2022-09-02T09:27:49Z</time>
      </trkpt>
      <trkpt lat="43.19757" lon="2.31759">
        <ele>149.6</ele>
        <time>2022-09-02T09:27:54Z</time>
      </trkpt>
      <trkpt lat="43.19755" lon="2.31757">
        <ele>150.6</ele>
        <time>2022-09-02T09:27:57Z</time>
      </trkpt>
      <trkpt lat="43.19756" lon="2.31756">
        <ele>150.8</ele>
        <time>2022-09-02T09:27:58Z</time>
      </trkpt>
      <trkpt lat="43.1976" lon="2.31746">
        <ele>150.8</ele>
        <time>2022-09-02T09:28:04Z</time>
      </trkpt>
      <trkpt lat="43.19762" lon="2.31742">
        <ele>150.8</ele>
        <time>2022-09-02T09:28:06Z</time>
      </trkpt>
      <trkpt lat="43.19765" lon="2.31731">
        <ele>150.8</ele>
        <time>2022-09-02T09:28:10Z</time>
      </trkpt>
      <trkpt lat="43.19768" lon="2.31713">
        <ele>151.2</ele>
        <time>2022-09-02T09:28:16Z</time>
      </trkpt>
      <trkpt lat="43.1977" lon="2.31687">
        <ele>150.6</ele>
        <time>2022-09-02T09:28:23Z</time>
      </trkpt>
      <trkpt lat="43.19772" lon="2.3167">
        <ele>150.8</ele>
        <time>2022-09-02T09:28:29Z</time>
      </trkpt>
      <trkpt lat="43.19773" lon="2.3165">
        <ele>150.2</ele>
        <time>2022-09-02T09:28:34Z</time>
      </trkpt>
      <trkpt lat="43.19772" lon="2.31638">
        <ele>149.8</ele>
        <time>2022-09-02T09:28:36Z</time>
      </trkpt>
      <trkpt lat="43.19772" lon="2.31632">
        <ele>149.6</ele>
        <time>2022-09-02T09:28:37Z</time>
      </trkpt>
      <trkpt lat="43.19773" lon="2.31619">
        <ele>149.4</ele>
        <time>2022-09-02T09:28:39Z</time>
      </trkpt>
      <trkpt lat="43.19774" lon="2.31597">
        <ele>148.8</ele>
        <time>2022-09-02T09:28:43Z</time>
      </trkpt>
      <trkpt lat="43.19773" lon="2.31587">
        <ele>148.8</ele>
        <time>2022-09-02T09:28:45Z</time>
      </trkpt>
      <trkpt lat="43.19775" lon="2.31545">
        <ele>148.8</ele>
        <time>2022-09-02T09:28:53Z</time>
      </trkpt>
      <trkpt lat="43.19775" lon="2.31528">
        <ele>148.2</ele>
        <time>2022-09-02T09:28:57Z</time>
      </trkpt>
      <trkpt lat="43.19775" lon="2.31525">
        <ele>148.2</ele>
        <time>2022-09-02T09:28:58Z</time>
      </trkpt>
      <trkpt lat="43.19773" lon="2.31503">
        <ele>148.4</ele>
        <time>2022-09-02T09:29:04Z</time>
      </trkpt>
      <trkpt lat="43.19776" lon="2.31474">
        <ele>149</ele>
        <time>2022-09-02T09:29:11Z</time>
      </trkpt>
      <trkpt lat="43.19776" lon="2.31471">
        <ele>149.2</ele>
        <time>2022-09-02T09:29:12Z</time>
      </trkpt>
      <trkpt lat="43.19771" lon="2.31456">
        <ele>149</ele>
        <time>2022-09-02T09:29:16Z</time>
      </trkpt>
      <trkpt lat="43.19765" lon="2.31434">
        <ele>149.2</ele>
        <time>2022-09-02T09:29:22Z</time>
      </trkpt>
      <trkpt lat="43.19766" lon="2.314">
        <ele>150</ele>
        <time>2022-09-02T09:29:30Z</time>
      </trkpt>
      <trkpt lat="43.19767" lon="2.31392">
        <ele>150.4</ele>
        <time>2022-09-02T09:29:32Z</time>
      </trkpt>
      <trkpt lat="43.19769" lon="2.31358">
        <ele>150.8</ele>
        <time>2022-09-02T09:29:40Z</time>
      </trkpt>
      <trkpt lat="43.19768" lon="2.31345">
        <ele>151.4</ele>
        <time>2022-09-02T09:29:43Z</time>
      </trkpt>
      <trkpt lat="43.19765" lon="2.31333">
        <ele>151.6</ele>
        <time>2022-09-02T09:29:46Z</time>
      </trkpt>
      <trkpt lat="43.19758" lon="2.31311">
        <ele>152.4</ele>
        <time>2022-09-02T09:29:52Z</time>
      </trkpt>
      <trkpt lat="43.19757" lon="2.31308">
        <ele>152.6</ele>
        <time>2022-09-02T09:29:53Z</time>
      </trkpt>
      <trkpt lat="43.19751" lon="2.31291">
        <ele>153.4</ele>
        <time>2022-09-02T09:29:58Z</time>
      </trkpt>
      <trkpt lat="43.1975" lon="2.31281">
        <ele>153.8</ele>
        <time>2022-09-02T09:30:01Z</time>
      </trkpt>
      <trkpt lat="43.19746" lon="2.31267">
        <ele>154.6</ele>
        <time>2022-09-02T09:30:06Z</time>
      </trkpt>
      <trkpt lat="43.19743" lon="2.31263">
        <ele>155</ele>
        <time>2022-09-02T09:30:08Z</time>
      </trkpt>
      <trkpt lat="43.19734" lon="2.3126">
        <ele>155.8</ele>
        <time>2022-09-02T09:30:12Z</time>
      </trkpt>
      <trkpt lat="43.19727" lon="2.3126">
        <ele>156.6</ele>
        <time>2022-09-02T09:30:15Z</time>
      </trkpt>
      <trkpt lat="43.19722" lon="2.31261">
        <ele>157</ele>
        <time>2022-09-02T09:30:17Z</time>
      </trkpt>
      <trkpt lat="43.19714" lon="2.31261">
        <ele>158</ele>
        <time>2022-09-02T09:30:21Z</time>
      </trkpt>
      <trkpt lat="43.19709" lon="2.31261">
        <ele>158.2</ele>
        <time>2022-09-02T09:30:23Z</time>
      </trkpt>
      <trkpt lat="43.1969" lon="2.31261">
        <ele>158.8</ele>
        <time>2022-09-02T09:30:31Z</time>
      </trkpt>
      <trkpt lat="43.19669" lon="2.31262">
        <ele>158.8</ele>
        <time>2022-09-02T09:30:39Z</time>
      </trkpt>
      <trkpt lat="43.19658" lon="2.31264">
        <ele>159</ele>
        <time>2022-09-02T09:30:43Z</time>
      </trkpt>
      <trkpt lat="43.1965" lon="2.31265">
        <ele>158.8</ele>
        <time>2022-09-02T09:30:46Z</time>
      </trkpt>
      <trkpt lat="43.19619" lon="2.31267">
        <ele>159</ele>
        <time>2022-09-02T09:30:56Z</time>
      </trkpt>
      <trkpt lat="43.19605" lon="2.3127">
        <ele>158.8</ele>
        <time>2022-09-02T09:31:00Z</time>
      </trkpt>
      <trkpt lat="43.19593" lon="2.31278">
        <ele>158.4</ele>
        <time>2022-09-02T09:31:04Z</time>
      </trkpt>
      <trkpt lat="43.19573" lon="2.31294">
        <ele>158.4</ele>
        <time>2022-09-02T09:31:11Z</time>
      </trkpt>
      <trkpt lat="43.19552" lon="2.31301">
        <ele>158.4</ele>
        <time>2022-09-02T09:31:18Z</time>
      </trkpt>
      <trkpt lat="43.19532" lon="2.31299">
        <ele>159</ele>
        <time>2022-09-02T09:31:24Z</time>
      </trkpt>
      <trkpt lat="43.19512" lon="2.31296">
        <ele>159.4</ele>
        <time>2022-09-02T09:31:31Z</time>
      </trkpt>
      <trkpt lat="43.19493" lon="2.3129">
        <ele>159</ele>
        <time>2022-09-02T09:31:38Z</time>
      </trkpt>
      <trkpt lat="43.19469" lon="2.31284">
        <ele>158</ele>
        <time>2022-09-02T09:31:44Z</time>
      </trkpt>
      <trkpt lat="43.19464" lon="2.31283">
        <ele>158</ele>
        <time>2022-09-02T09:31:45Z</time>
      </trkpt>
      <trkpt lat="43.19455" lon="2.31278">
        <ele>157.8</ele>
        <time>2022-09-02T09:31:47Z</time>
      </trkpt>
      <trkpt lat="43.1944" lon="2.31268">
        <ele>156.6</ele>
        <time>2022-09-02T09:31:50Z</time>
      </trkpt>
      <trkpt lat="43.19436" lon="2.31265">
        <ele>156.2</ele>
        <time>2022-09-02T09:31:51Z</time>
      </trkpt>
      <trkpt lat="43.19432" lon="2.31262">
        <ele>155.6</ele>
        <time>2022-09-02T09:31:52Z</time>
      </trkpt>
      <trkpt lat="43.19426" lon="2.31259">
        <ele>155.2</ele>
        <time>2022-09-02T09:31:53Z</time>
      </trkpt>
      <trkpt lat="43.19409" lon="2.31253">
        <ele>154.4</ele>
        <time>2022-09-02T09:31:56Z</time>
      </trkpt>
      <trkpt lat="43.19403" lon="2.31251">
        <ele>153.4</ele>
        <time>2022-09-02T09:31:57Z</time>
      </trkpt>
      <trkpt lat="43.19387" lon="2.31246">
        <ele>152.4</ele>
        <time>2022-09-02T09:32:00Z</time>
      </trkpt>
      <trkpt lat="43.19378" lon="2.31244">
        <ele>151.6</ele>
        <time>2022-09-02T09:32:02Z</time>
      </trkpt>
      <trkpt lat="43.19374" lon="2.31241">
        <ele>151.2</ele>
        <time>2022-09-02T09:32:03Z</time>
      </trkpt>
      <trkpt lat="43.19364" lon="2.31231">
        <ele>150.2</ele>
        <time>2022-09-02T09:32:06Z</time>
      </trkpt>
      <trkpt lat="43.19361" lon="2.31227">
        <ele>150</ele>
        <time>2022-09-02T09:32:07Z</time>
      </trkpt>
      <trkpt lat="43.19353" lon="2.31221">
        <ele>149</ele>
        <time>2022-09-02T09:32:10Z</time>
      </trkpt>
      <trkpt lat="43.19351" lon="2.3122">
        <ele>148.6</ele>
        <time>2022-09-02T09:32:11Z</time>
      </trkpt>
      <trkpt lat="43.19342" lon="2.31219">
        <ele>147.8</ele>
        <time>2022-09-02T09:32:15Z</time>
      </trkpt>
      <trkpt lat="43.19339" lon="2.31217">
        <ele>147.8</ele>
        <time>2022-09-02T09:32:16Z</time>
      </trkpt>
      <trkpt lat="43.19327" lon="2.31199">
        <ele>147</ele>
        <time>2022-09-02T09:32:20Z</time>
      </trkpt>
      <trkpt lat="43.19323" lon="2.31193">
        <ele>146.4</ele>
        <time>2022-09-02T09:32:21Z</time>
      </trkpt>
      <trkpt lat="43.19309" lon="2.31169">
        <ele>145.8</ele>
        <time>2022-09-02T09:32:25Z</time>
      </trkpt>
      <trkpt lat="43.19309" lon="2.31169">
        <ele>145.2</ele>
        <time>2022-09-02T09:32:32Z</time>
      </trkpt>
      <trkpt lat="43.19269" lon="2.31096">
        <ele>144</ele>
        <time>2022-09-02T09:32:37Z</time>
      </trkpt>
      <trkpt lat="43.19268" lon="2.31093">
        <ele>144</ele>
        <time>2022-09-02T09:32:38Z</time>
      </trkpt>
      <trkpt lat="43.19267" lon="2.31094">
        <ele>143.8</ele>
        <time>2022-09-02T09:32:39Z</time>
      </trkpt>
      <trkpt lat="43.19263" lon="2.311">
        <ele>143.4</ele>
        <time>2022-09-02T09:32:41Z</time>
      </trkpt>
      <trkpt lat="43.19261" lon="2.31114">
        <ele>142.8</ele>
        <time>2022-09-02T09:32:44Z</time>
      </trkpt>
      <trkpt lat="43.1926" lon="2.31118">
        <ele>142.8</ele>
        <time>2022-09-02T09:32:45Z</time>
      </trkpt>
      <trkpt lat="43.1926" lon="2.31124">
        <ele>143</ele>
        <time>2022-09-02T09:32:46Z</time>
      </trkpt>
      <trkpt lat="43.19253" lon="2.3116">
        <ele>143.2</ele>
        <time>2022-09-02T09:32:53Z</time>
      </trkpt>
      <trkpt lat="43.19245" lon="2.31201">
        <ele>143.2</ele>
        <time>2022-09-02T09:33:01Z</time>
      </trkpt>
      <trkpt lat="43.19243" lon="2.31225">
        <ele>143.8</ele>
        <time>2022-09-02T09:33:06Z</time>
      </trkpt>
      <trkpt lat="43.1924" lon="2.31249">
        <ele>143.8</ele>
        <time>2022-09-02T09:33:13Z</time>
      </trkpt>
      <trkpt lat="43.19238" lon="2.31251">
        <ele>143.8</ele>
        <time>2022-09-02T09:33:15Z</time>
      </trkpt>
      <trkpt lat="43.19237" lon="2.31249">
        <ele>143.8</ele>
        <time>2022-09-02T09:33:17Z</time>
      </trkpt>
      <trkpt lat="43.19238" lon="2.31243">
        <ele>144</ele>
        <time>2022-09-02T09:33:20Z</time>
      </trkpt>
      <trkpt lat="43.19239" lon="2.31239">
        <ele>144</ele>
        <time>2022-09-02T09:33:21Z</time>
      </trkpt>
      <trkpt lat="43.19241" lon="2.31217">
        <ele>143.6</ele>
        <time>2022-09-02T09:33:29Z</time>
      </trkpt>
      <trkpt lat="43.19233" lon="2.31211">
        <ele>143.6</ele>
        <time>2022-09-02T09:35:34Z</time>
      </trkpt>
      <trkpt lat="43.19227" lon="2.31211">
        <ele>143.2</ele>
        <time>2022-09-02T09:35:36Z</time>
      </trkpt>
      <trkpt lat="43.19206" lon="2.31213">
        <ele>142.6</ele>
        <time>2022-09-02T09:35:42Z</time>
      </trkpt>
      <trkpt lat="43.19181" lon="2.3121">
        <ele>142.2</ele>
        <time>2022-09-02T09:35:48Z</time>
      </trkpt>
      <trkpt lat="43.19162" lon="2.31208">
        <ele>141.8</ele>
        <time>2022-09-02T09:35:52Z</time>
      </trkpt>
      <trkpt lat="43.19146" lon="2.31206">
        <ele>141.4</ele>
        <time>2022-09-02T09:35:55Z</time>
      </trkpt>
      <trkpt lat="43.19113" lon="2.31201">
        <ele>141</ele>
        <time>2022-09-02T09:36:02Z</time>
      </trkpt>
      <trkpt lat="43.19105" lon="2.31201">
        <ele>140.6</ele>
        <time>2022-09-02T09:36:04Z</time>
      </trkpt>
      <trkpt lat="43.19084" lon="2.31198">
        <ele>140.8</ele>
        <time>2022-09-02T09:36:09Z</time>
      </trkpt>
      <trkpt lat="43.19045" lon="2.31193">
        <ele>140.6</ele>
        <time>2022-09-02T09:36:18Z</time>
      </trkpt>
      <trkpt lat="43.19025" lon="2.31191">
        <ele>140.8</ele>
        <time>2022-09-02T09:36:23Z</time>
      </trkpt>
      <trkpt lat="43.18999" lon="2.31192">
        <ele>140.4</ele>
        <time>2022-09-02T09:36:30Z</time>
      </trkpt>
      <trkpt lat="43.18974" lon="2.31188">
        <ele>140.2</ele>
        <time>2022-09-02T09:36:38Z</time>
      </trkpt>
      <trkpt lat="43.18954" lon="2.31167">
        <ele>140.8</ele>
        <time>2022-09-02T09:36:45Z</time>
      </trkpt>
      <trkpt lat="43.18928" lon="2.31135">
        <ele>141</ele>
        <time>2022-09-02T09:36:54Z</time>
      </trkpt>
      <trkpt lat="43.18906" lon="2.3111">
        <ele>141.6</ele>
        <time>2022-09-02T09:37:02Z</time>
      </trkpt>
      <trkpt lat="43.18899" lon="2.31099">
        <ele>141.8</ele>
        <time>2022-09-02T09:37:05Z</time>
      </trkpt>
      <trkpt lat="43.18895" lon="2.31085">
        <ele>141.8</ele>
        <time>2022-09-02T09:37:08Z</time>
      </trkpt>
      <trkpt lat="43.18886" lon="2.31064">
        <ele>141.6</ele>
        <time>2022-09-02T09:37:13Z</time>
      </trkpt>
      <trkpt lat="43.18873" lon="2.31051">
        <ele>141.4</ele>
        <time>2022-09-02T09:37:18Z</time>
      </trkpt>
      <trkpt lat="43.18858" lon="2.31026">
        <ele>141.2</ele>
        <time>2022-09-02T09:37:26Z</time>
      </trkpt>
      <trkpt lat="43.18856" lon="2.31004">
        <ele>141.6</ele>
        <time>2022-09-02T09:37:31Z</time>
      </trkpt>
      <trkpt lat="43.18843" lon="2.30987">
        <ele>141.8</ele>
        <time>2022-09-02T09:37:36Z</time>
      </trkpt>
      <trkpt lat="43.18819" lon="2.30955">
        <ele>142.4</ele>
        <time>2022-09-02T09:37:45Z</time>
      </trkpt>
      <trkpt lat="43.18808" lon="2.30934">
        <ele>142.8</ele>
        <time>2022-09-02T09:37:50Z</time>
      </trkpt>
      <trkpt lat="43.18801" lon="2.30922">
        <ele>143.2</ele>
        <time>2022-09-02T09:37:53Z</time>
      </trkpt>
      <trkpt lat="43.18787" lon="2.30902">
        <ele>144</ele>
        <time>2022-09-02T09:37:59Z</time>
      </trkpt>
      <trkpt lat="43.18784" lon="2.309">
        <ele>144.2</ele>
        <time>2022-09-02T09:38:00Z</time>
      </trkpt>
      <trkpt lat="43.18756" lon="2.30877">
        <ele>143.4</ele>
        <time>2022-09-02T09:38:09Z</time>
      </trkpt>
      <trkpt lat="43.18745" lon="2.30867">
        <ele>142.8</ele>
        <time>2022-09-02T09:38:12Z</time>
      </trkpt>
      <trkpt lat="43.18738" lon="2.30857">
        <ele>142.6</ele>
        <time>2022-09-02T09:38:14Z</time>
      </trkpt>
      <trkpt lat="43.18711" lon="2.3082">
        <ele>142.4</ele>
        <time>2022-09-02T09:38:22Z</time>
      </trkpt>
      <trkpt lat="43.18689" lon="2.308">
        <ele>142.2</ele>
        <time>2022-09-02T09:38:28Z</time>
      </trkpt>
      <trkpt lat="43.18674" lon="2.30788">
        <ele>142</ele>
        <time>2022-09-02T09:38:32Z</time>
      </trkpt>
      <trkpt lat="43.18666" lon="2.30783">
        <ele>142.2</ele>
        <time>2022-09-02T09:38:34Z</time>
      </trkpt>
      <trkpt lat="43.18639" lon="2.30767">
        <ele>142.4</ele>
        <time>2022-09-02T09:38:41Z</time>
      </trkpt>
      <trkpt lat="43.18606" lon="2.30752">
        <ele>142.4</ele>
        <time>2022-09-02T09:38:49Z</time>
      </trkpt>
      <trkpt lat="43.18588" lon="2.30744">
        <ele>141.8</ele>
        <time>2022-09-02T09:38:53Z</time>
      </trkpt>
      <trkpt lat="43.18574" lon="2.3074">
        <ele>142</ele>
        <time>2022-09-02T09:38:56Z</time>
      </trkpt>
      <trkpt lat="43.18539" lon="2.30725">
        <ele>141.6</ele>
        <time>2022-09-02T09:39:04Z</time>
      </trkpt>
      <trkpt lat="43.18506" lon="2.30714">
        <ele>141.8</ele>
        <time>2022-09-02T09:39:12Z</time>
      </trkpt>
      <trkpt lat="43.18498" lon="2.30711">
        <ele>141.6</ele>
        <time>2022-09-02T09:39:14Z</time>
      </trkpt>
      <trkpt lat="43.18482" lon="2.30705">
        <ele>141.8</ele>
        <time>2022-09-02T09:39:18Z</time>
      </trkpt>
      <trkpt lat="43.18442" lon="2.30692">
        <ele>141.4</ele>
        <time>2022-09-02T09:39:27Z</time>
      </trkpt>
      <trkpt lat="43.1841" lon="2.30682">
        <ele>141.4</ele>
        <time>2022-09-02T09:39:34Z</time>
      </trkpt>
      <trkpt lat="43.18368" lon="2.30662">
        <ele>141</ele>
        <time>2022-09-02T09:39:43Z</time>
      </trkpt>
      <trkpt lat="43.18363" lon="2.3066">
        <ele>140.6</ele>
        <time>2022-09-02T09:39:44Z</time>
      </trkpt>
      <trkpt lat="43.18336" lon="2.30649">
        <ele>141</ele>
        <time>2022-09-02T09:39:50Z</time>
      </trkpt>
      <trkpt lat="43.18324" lon="2.3064">
        <ele>141</ele>
        <time>2022-09-02T09:39:53Z</time>
      </trkpt>
      <trkpt lat="43.18311" lon="2.30631">
        <ele>141</ele>
        <time>2022-09-02T09:39:56Z</time>
      </trkpt>
      <trkpt lat="43.18295" lon="2.3062">
        <ele>140.8</ele>
        <time>2022-09-02T09:40:00Z</time>
      </trkpt>
      <trkpt lat="43.18284" lon="2.30613">
        <ele>140.8</ele>
        <time>2022-09-02T09:40:03Z</time>
      </trkpt>
      <trkpt lat="43.18252" lon="2.30592">
        <ele>141</ele>
        <time>2022-09-02T09:40:11Z</time>
      </trkpt>
      <trkpt lat="43.18225" lon="2.30574">
        <ele>141.2</ele>
        <time>2022-09-02T09:40:18Z</time>
      </trkpt>
      <trkpt lat="43.1819" lon="2.30552">
        <ele>141</ele>
        <time>2022-09-02T09:40:27Z</time>
      </trkpt>
      <trkpt lat="43.18158" lon="2.30531">
        <ele>140.8</ele>
        <time>2022-09-02T09:40:35Z</time>
      </trkpt>
      <trkpt lat="43.18128" lon="2.30511">
        <ele>141</ele>
        <time>2022-09-02T09:40:43Z</time>
      </trkpt>
      <trkpt lat="43.18107" lon="2.30494">
        <ele>141</ele>
        <time>2022-09-02T09:40:49Z</time>
      </trkpt>
      <trkpt lat="43.18101" lon="2.30486">
        <ele>141.2</ele>
        <time>2022-09-02T09:40:51Z</time>
      </trkpt>
      <trkpt lat="43.18085" lon="2.30462">
        <ele>141.6</ele>
        <time>2022-09-02T09:40:57Z</time>
      </trkpt>
      <trkpt lat="43.18077" lon="2.30451">
        <ele>142</ele>
        <time>2022-09-02T09:41:00Z</time>
      </trkpt>
      <trkpt lat="43.18058" lon="2.30424">
        <ele>142.8</ele>
        <time>2022-09-02T09:41:08Z</time>
      </trkpt>
      <trkpt lat="43.18057" lon="2.30421">
        <ele>142.8</ele>
        <time>2022-09-02T09:41:09Z</time>
      </trkpt>
      <trkpt lat="43.18049" lon="2.30411">
        <ele>143.8</ele>
        <time>2022-09-02T09:41:13Z</time>
      </trkpt>
      <trkpt lat="43.18044" lon="2.30405">
        <ele>144.6</ele>
        <time>2022-09-02T09:41:16Z</time>
      </trkpt>
      <trkpt lat="43.18038" lon="2.30399">
        <ele>145</ele>
        <time>2022-09-02T09:41:19Z</time>
      </trkpt>
      <trkpt lat="43.18032" lon="2.30391">
        <ele>146</ele>
        <time>2022-09-02T09:41:24Z</time>
      </trkpt>
      <trkpt lat="43.18031" lon="2.30389">
        <ele>146</ele>
        <time>2022-09-02T09:41:25Z</time>
      </trkpt>
      <trkpt lat="43.18025" lon="2.30383">
        <ele>147</ele>
        <time>2022-09-02T09:41:29Z</time>
      </trkpt>
      <trkpt lat="43.18024" lon="2.30381">
        <ele>147.2</ele>
        <time>2022-09-02T09:41:30Z</time>
      </trkpt>
      <trkpt lat="43.18023" lon="2.30379">
        <ele>147.2</ele>
        <time>2022-09-02T09:41:31Z</time>
      </trkpt>
      <trkpt lat="43.18015" lon="2.30372">
        <ele>148.2</ele>
        <time>2022-09-02T09:41:36Z</time>
      </trkpt>
      <trkpt lat="43.18011" lon="2.30366">
        <ele>149</ele>
        <time>2022-09-02T09:41:39Z</time>
      </trkpt>
      <trkpt lat="43.18009" lon="2.30362">
        <ele>149.4</ele>
        <time>2022-09-02T09:41:41Z</time>
      </trkpt>
      <trkpt lat="43.18005" lon="2.30354">
        <ele>150.4</ele>
        <time>2022-09-02T09:41:45Z</time>
      </trkpt>
      <trkpt lat="43.18003" lon="2.3035">
        <ele>151.2</ele>
        <time>2022-09-02T09:41:47Z</time>
      </trkpt>
      <trkpt lat="43.18" lon="2.30343">
        <ele>151.6</ele>
        <time>2022-09-02T09:41:50Z</time>
      </trkpt>
      <trkpt lat="43.17996" lon="2.30332">
        <ele>152.6</ele>
        <time>2022-09-02T09:41:55Z</time>
      </trkpt>
      <trkpt lat="43.17994" lon="2.30328">
        <ele>153</ele>
        <time>2022-09-02T09:41:57Z</time>
      </trkpt>
      <trkpt lat="43.17991" lon="2.30321">
        <ele>154</ele>
        <time>2022-09-02T09:42:00Z</time>
      </trkpt>
      <trkpt lat="43.17987" lon="2.30309">
        <ele>155</ele>
        <time>2022-09-02T09:42:06Z</time>
      </trkpt>
      <trkpt lat="43.17982" lon="2.30293">
        <ele>155.6</ele>
        <time>2022-09-02T09:42:13Z</time>
      </trkpt>
      <trkpt lat="43.17977" lon="2.30277">
        <ele>156.2</ele>
        <time>2022-09-02T09:42:19Z</time>
      </trkpt>
      <trkpt lat="43.17975" lon="2.30269">
        <ele>156.4</ele>
        <time>2022-09-02T09:42:22Z</time>
      </trkpt>
      <trkpt lat="43.17968" lon="2.30249">
        <ele>157.2</ele>
        <time>2022-09-02T09:42:29Z</time>
      </trkpt>
      <trkpt lat="43.17966" lon="2.30244">
        <ele>157.4</ele>
        <time>2022-09-02T09:42:31Z</time>
      </trkpt>
      <trkpt lat="43.17957" lon="2.30221">
        <ele>157.6</ele>
        <time>2022-09-02T09:42:39Z</time>
      </trkpt>
      <trkpt lat="43.17947" lon="2.30199">
        <ele>157.8</ele>
        <time>2022-09-02T09:42:47Z</time>
      </trkpt>
      <trkpt lat="43.17944" lon="2.30191">
        <ele>158.4</ele>
        <time>2022-09-02T09:42:50Z</time>
      </trkpt>
      <trkpt lat="43.17939" lon="2.30179">
        <ele>158.8</ele>
        <time>2022-09-02T09:42:54Z</time>
      </trkpt>
      <trkpt lat="43.17929" lon="2.30152">
        <ele>159.2</ele>
        <time>2022-09-02T09:43:03Z</time>
      </trkpt>
      <trkpt lat="43.17928" lon="2.30146">
        <ele>159.4</ele>
        <time>2022-09-02T09:43:05Z</time>
      </trkpt>
      <trkpt lat="43.17924" lon="2.3012">
        <ele>160.2</ele>
        <time>2022-09-02T09:43:13Z</time>
      </trkpt>
      <trkpt lat="43.17923" lon="2.3011">
        <ele>160.6</ele>
        <time>2022-09-02T09:43:16Z</time>
      </trkpt>
      <trkpt lat="43.17921" lon="2.30087">
        <ele>161.2</ele>
        <time>2022-09-02T09:43:23Z</time>
      </trkpt>
      <trkpt lat="43.17919" lon="2.3007">
        <ele>161.6</ele>
        <time>2022-09-02T09:43:28Z</time>
      </trkpt>
      <trkpt lat="43.17915" lon="2.30055">
        <ele>162.4</ele>
        <time>2022-09-02T09:43:33Z</time>
      </trkpt>
      <trkpt lat="43.1791" lon="2.30048">
        <ele>162.6</ele>
        <time>2022-09-02T09:43:36Z</time>
      </trkpt>
      <trkpt lat="43.17906" lon="2.30045">
        <ele>162.8</ele>
        <time>2022-09-02T09:43:38Z</time>
      </trkpt>
      <trkpt lat="43.17897" lon="2.3004">
        <ele>163</ele>
        <time>2022-09-02T09:43:43Z</time>
      </trkpt>
      <trkpt lat="43.17876" lon="2.30034">
        <ele>162.2</ele>
        <time>2022-09-02T09:43:52Z</time>
      </trkpt>
      <trkpt lat="43.17858" lon="2.30028">
        <ele>161.8</ele>
        <time>2022-09-02T09:43:57Z</time>
      </trkpt>
      <trkpt lat="43.1785" lon="2.30025">
        <ele>161.4</ele>
        <time>2022-09-02T09:43:59Z</time>
      </trkpt>
      <trkpt lat="43.17827" lon="2.30014">
        <ele>160.6</ele>
        <time>2022-09-02T09:44:04Z</time>
      </trkpt>
      <trkpt lat="43.17817" lon="2.30011">
        <ele>160.4</ele>
        <time>2022-09-02T09:44:06Z</time>
      </trkpt>
      <trkpt lat="43.17803" lon="2.30004">
        <ele>159.2</ele>
        <time>2022-09-02T09:44:09Z</time>
      </trkpt>
      <trkpt lat="43.17787" lon="2.29997">
        <ele>158.2</ele>
        <time>2022-09-02T09:44:12Z</time>
      </trkpt>
      <trkpt lat="43.17782" lon="2.29995">
        <ele>158</ele>
        <time>2022-09-02T09:44:13Z</time>
      </trkpt>
      <trkpt lat="43.17755" lon="2.29983">
        <ele>156.6</ele>
        <time>2022-09-02T09:44:18Z</time>
      </trkpt>
      <trkpt lat="43.1775" lon="2.29981">
        <ele>156.2</ele>
        <time>2022-09-02T09:44:19Z</time>
      </trkpt>
      <trkpt lat="43.17737" lon="2.29975">
        <ele>155.4</ele>
        <time>2022-09-02T09:44:22Z</time>
      </trkpt>
      <trkpt lat="43.17733" lon="2.29973">
        <ele>154.2</ele>
        <time>2022-09-02T09:44:23Z</time>
      </trkpt>
      <trkpt lat="43.17729" lon="2.29972">
        <ele>153.8</ele>
        <time>2022-09-02T09:44:24Z</time>
      </trkpt>
      <trkpt lat="43.17713" lon="2.29977">
        <ele>153.4</ele>
        <time>2022-09-02T09:44:29Z</time>
      </trkpt>
      <trkpt lat="43.17709" lon="2.29979">
        <ele>153</ele>
        <time>2022-09-02T09:44:30Z</time>
      </trkpt>
      <trkpt lat="43.177" lon="2.29981">
        <ele>152.2</ele>
        <time>2022-09-02T09:44:32Z</time>
      </trkpt>
      <trkpt lat="43.17696" lon="2.29981">
        <ele>151.6</ele>
        <time>2022-09-02T09:44:33Z</time>
      </trkpt>
      <trkpt lat="43.17686" lon="2.29973">
        <ele>150.8</ele>
        <time>2022-09-02T09:44:37Z</time>
      </trkpt>
      <trkpt lat="43.17686" lon="2.29967">
        <ele>151.2</ele>
        <time>2022-09-02T09:44:42Z</time>
      </trkpt>
      <trkpt lat="43.17692" lon="2.2996">
        <ele>151.6</ele>
        <time>2022-09-02T09:44:48Z</time>
      </trkpt>
      <trkpt lat="43.17701" lon="2.29963">
        <ele>152</ele>
        <time>2022-09-02T09:44:53Z</time>
      </trkpt>
      <trkpt lat="43.17715" lon="2.2997">
        <ele>152.6</ele>
        <time>2022-09-02T09:45:00Z</time>
      </trkpt>
      <trkpt lat="43.17717" lon="2.29971">
        <ele>152.6</ele>
        <time>2022-09-02T09:45:01Z</time>
      </trkpt>
      <trkpt lat="43.17733" lon="2.29978">
        <ele>153.6</ele>
        <time>2022-09-02T09:45:09Z</time>
      </trkpt>
      <trkpt lat="43.17735" lon="2.2998">
        <ele>153.8</ele>
        <time>2022-09-02T09:45:10Z</time>
      </trkpt>
      <trkpt lat="43.17747" lon="2.29984">
        <ele>154.6</ele>
        <time>2022-09-02T09:45:16Z</time>
      </trkpt>
      <trkpt lat="43.17751" lon="2.29986">
        <ele>155.2</ele>
        <time>2022-09-02T09:45:18Z</time>
      </trkpt>
      <trkpt lat="43.17764" lon="2.29991">
        <ele>155.8</ele>
        <time>2022-09-02T09:45:25Z</time>
      </trkpt>
      <trkpt lat="43.1777" lon="2.29994">
        <ele>156.2</ele>
        <time>2022-09-02T09:45:28Z</time>
      </trkpt>
      <trkpt lat="43.17784" lon="2.29999">
        <ele>157.4</ele>
        <time>2022-09-02T09:45:35Z</time>
      </trkpt>
      <trkpt lat="43.1779" lon="2.30002">
        <ele>158</ele>
        <time>2022-09-02T09:45:38Z</time>
      </trkpt>
      <trkpt lat="43.17801" lon="2.30007">
        <ele>158.4</ele>
        <time>2022-09-02T09:45:44Z</time>
      </trkpt>
      <trkpt lat="43.17803" lon="2.30007">
        <ele>158.6</ele>
        <time>2022-09-02T09:45:45Z</time>
      </trkpt>
      <trkpt lat="43.17815" lon="2.30011">
        <ele>159.2</ele>
        <time>2022-09-02T09:45:51Z</time>
      </trkpt>
      <trkpt lat="43.17822" lon="2.30015">
        <ele>159.6</ele>
        <time>2022-09-02T09:45:55Z</time>
      </trkpt>
      <trkpt lat="43.17832" lon="2.30018">
        <ele>160</ele>
        <time>2022-09-02T09:46:00Z</time>
      </trkpt>
      <trkpt lat="43.17846" lon="2.30024">
        <ele>160.6</ele>
        <time>2022-09-02T09:46:07Z</time>
      </trkpt>
      <trkpt lat="43.17848" lon="2.30025">
        <ele>160.8</ele>
        <time>2022-09-02T09:46:08Z</time>
      </trkpt>
      <trkpt lat="43.17863" lon="2.30031">
        <ele>161.6</ele>
        <time>2022-09-02T09:46:15Z</time>
      </trkpt>
      <trkpt lat="43.17867" lon="2.30033">
        <ele>161.8</ele>
        <time>2022-09-02T09:46:17Z</time>
      </trkpt>
      <trkpt lat="43.17879" lon="2.30037">
        <ele>162.4</ele>
        <time>2022-09-02T09:46:23Z</time>
      </trkpt>
      <trkpt lat="43.17887" lon="2.30036">
        <ele>162.6</ele>
        <time>2022-09-02T09:46:27Z</time>
      </trkpt>
      <trkpt lat="43.17888" lon="2.30031">
        <ele>163.2</ele>
        <time>2022-09-02T09:46:29Z</time>
      </trkpt>
      <trkpt lat="43.17883" lon="2.30023">
        <ele>162.8</ele>
        <time>2022-09-02T09:46:34Z</time>
      </trkpt>
      <trkpt lat="43.17881" lon="2.30021">
        <ele>162.8</ele>
        <time>2022-09-02T09:46:35Z</time>
      </trkpt>
      <trkpt lat="43.17869" lon="2.30018">
        <ele>162.4</ele>
        <time>2022-09-02T09:46:40Z</time>
      </trkpt>
      <trkpt lat="43.1785" lon="2.3001">
        <ele>162.8</ele>
        <time>2022-09-02T09:46:48Z</time>
      </trkpt>
      <trkpt lat="43.17844" lon="2.30003">
        <ele>163.2</ele>
        <time>2022-09-02T09:46:51Z</time>
      </trkpt>
      <trkpt lat="43.1784" lon="2.3">
        <ele>163</ele>
        <time>2022-09-02T09:46:53Z</time>
      </trkpt>
      <trkpt lat="43.17831" lon="2.29998">
        <ele>163.2</ele>
        <time>2022-09-02T09:46:56Z</time>
      </trkpt>
      <trkpt lat="43.17823" lon="2.29993">
        <ele>163</ele>
        <time>2022-09-02T09:46:59Z</time>
      </trkpt>
      <trkpt lat="43.178" lon="2.29978">
        <ele>162.8</ele>
        <time>2022-09-02T09:47:07Z</time>
      </trkpt>
      <trkpt lat="43.17785" lon="2.29968">
        <ele>162.6</ele>
        <time>2022-09-02T09:47:13Z</time>
      </trkpt>
      <trkpt lat="43.17765" lon="2.29955">
        <ele>162.8</ele>
        <time>2022-09-02T09:47:20Z</time>
      </trkpt>
      <trkpt lat="43.17746" lon="2.29941">
        <ele>162.6</ele>
        <time>2022-09-02T09:47:27Z</time>
      </trkpt>
      <trkpt lat="43.17729" lon="2.29929">
        <ele>162.4</ele>
        <time>2022-09-02T09:47:33Z</time>
      </trkpt>
      <trkpt lat="43.17706" lon="2.29914">
        <ele>162.4</ele>
        <time>2022-09-02T09:47:42Z</time>
      </trkpt>
      <trkpt lat="43.17686" lon="2.29901">
        <ele>162.4</ele>
        <time>2022-09-02T09:47:49Z</time>
      </trkpt>
      <trkpt lat="43.1767" lon="2.29891">
        <ele>162.4</ele>
        <time>2022-09-02T09:47:55Z</time>
      </trkpt>
      <trkpt lat="43.17656" lon="2.2988">
        <ele>162.8</ele>
        <time>2022-09-02T09:48:00Z</time>
      </trkpt>
      <trkpt lat="43.17653" lon="2.29879">
        <ele>162.8</ele>
        <time>2022-09-02T09:48:01Z</time>
      </trkpt>
      <trkpt lat="43.17643" lon="2.29875">
        <ele>162.8</ele>
        <time>2022-09-02T09:48:04Z</time>
      </trkpt>
      <trkpt lat="43.17626" lon="2.29862">
        <ele>163</ele>
        <time>2022-09-02T09:48:10Z</time>
      </trkpt>
      <trkpt lat="43.17611" lon="2.2985">
        <ele>162.8</ele>
        <time>2022-09-02T09:48:16Z</time>
      </trkpt>
      <trkpt lat="43.1761" lon="2.29837">
        <ele>162.6</ele>
        <time>2022-09-02T09:48:20Z</time>
      </trkpt>
      <trkpt lat="43.17613" lon="2.29831">
        <ele>162.6</ele>
        <time>2022-09-02T09:48:23Z</time>
      </trkpt>
      <trkpt lat="43.17617" lon="2.29826">
        <ele>162.8</ele>
        <time>2022-09-02T09:48:25Z</time>
      </trkpt>
      <trkpt lat="43.17622" lon="2.29815">
        <ele>162.6</ele>
        <time>2022-09-02T09:48:28Z</time>
      </trkpt>
      <trkpt lat="43.17626" lon="2.29803">
        <ele>162.6</ele>
        <time>2022-09-02T09:48:31Z</time>
      </trkpt>
      <trkpt lat="43.17642" lon="2.29771">
        <ele>163.2</ele>
        <time>2022-09-02T09:48:39Z</time>
      </trkpt>
      <trkpt lat="43.17649" lon="2.29744">
        <ele>163.4</ele>
        <time>2022-09-02T09:48:46Z</time>
      </trkpt>
      <trkpt lat="43.17653" lon="2.29715">
        <ele>163.6</ele>
        <time>2022-09-02T09:48:54Z</time>
      </trkpt>
      <trkpt lat="43.17656" lon="2.29692">
        <ele>163</ele>
        <time>2022-09-02T09:48:59Z</time>
      </trkpt>
      <trkpt lat="43.17657" lon="2.29673">
        <ele>162.6</ele>
        <time>2022-09-02T09:49:02Z</time>
      </trkpt>
      <trkpt lat="43.17659" lon="2.29661">
        <ele>162.2</ele>
        <time>2022-09-02T09:49:04Z</time>
      </trkpt>
      <trkpt lat="43.17658" lon="2.29655">
        <ele>161.8</ele>
        <time>2022-09-02T09:49:05Z</time>
      </trkpt>
      <trkpt lat="43.17654" lon="2.29643">
        <ele>161.6</ele>
        <time>2022-09-02T09:49:07Z</time>
      </trkpt>
      <trkpt lat="43.17653" lon="2.29637">
        <ele>161.6</ele>
        <time>2022-09-02T09:49:08Z</time>
      </trkpt>
      <trkpt lat="43.17648" lon="2.29612">
        <ele>161.4</ele>
        <time>2022-09-02T09:49:13Z</time>
      </trkpt>
      <trkpt lat="43.17648" lon="2.29602">
        <ele>161.6</ele>
        <time>2022-09-02T09:49:15Z</time>
      </trkpt>
      <trkpt lat="43.1765" lon="2.2958">
        <ele>161.6</ele>
        <time>2022-09-02T09:49:19Z</time>
      </trkpt>
      <trkpt lat="43.17651" lon="2.29555">
        <ele>161.6</ele>
        <time>2022-09-02T09:49:24Z</time>
      </trkpt>
      <trkpt lat="43.17656" lon="2.2952">
        <ele>161.6</ele>
        <time>2022-09-02T09:49:31Z</time>
      </trkpt>
      <trkpt lat="43.17659" lon="2.29489">
        <ele>161.6</ele>
        <time>2022-09-02T09:49:38Z</time>
      </trkpt>
      <trkpt lat="43.17665" lon="2.29458">
        <ele>161.4</ele>
        <time>2022-09-02T09:49:46Z</time>
      </trkpt>
      <trkpt lat="43.17668" lon="2.2943">
        <ele>161.6</ele>
        <time>2022-09-02T09:49:53Z</time>
      </trkpt>
      <trkpt lat="43.17674" lon="2.29404">
        <ele>162.2</ele>
        <time>2022-09-02T09:50:00Z</time>
      </trkpt>
      <trkpt lat="43.1768" lon="2.29375">
        <ele>162.4</ele>
        <time>2022-09-02T09:50:08Z</time>
      </trkpt>
      <trkpt lat="43.17683" lon="2.29366">
        <ele>162.6</ele>
        <time>2022-09-02T09:50:12Z</time>
      </trkpt>
      <trkpt lat="43.17684" lon="2.29364">
        <ele>162.8</ele>
        <time>2022-09-02T09:50:13Z</time>
      </trkpt>
      <trkpt lat="43.17689" lon="2.29351">
        <ele>162.4</ele>
        <time>2022-09-02T09:50:18Z</time>
      </trkpt>
      <trkpt lat="43.17691" lon="2.29329">
        <ele>162.2</ele>
        <time>2022-09-02T09:50:24Z</time>
      </trkpt>
      <trkpt lat="43.17692" lon="2.29309">
        <ele>161.8</ele>
        <time>2022-09-02T09:50:29Z</time>
      </trkpt>
      <trkpt lat="43.17697" lon="2.29296">
        <ele>161.6</ele>
        <time>2022-09-02T09:50:32Z</time>
      </trkpt>
      <trkpt lat="43.17699" lon="2.29291">
        <ele>161.6</ele>
        <time>2022-09-02T09:50:33Z</time>
      </trkpt>
      <trkpt lat="43.17706" lon="2.29265">
        <ele>161</ele>
        <time>2022-09-02T09:50:38Z</time>
      </trkpt>
      <trkpt lat="43.17707" lon="2.29247">
        <ele>161.2</ele>
        <time>2022-09-02T09:50:42Z</time>
      </trkpt>
      <trkpt lat="43.1771" lon="2.29234">
        <ele>161.4</ele>
        <time>2022-09-02T09:50:46Z</time>
      </trkpt>
      <trkpt lat="43.17717" lon="2.29216">
        <ele>161.4</ele>
        <time>2022-09-02T09:50:51Z</time>
      </trkpt>
      <trkpt lat="43.17724" lon="2.29192">
        <ele>161.6</ele>
        <time>2022-09-02T09:50:57Z</time>
      </trkpt>
      <trkpt lat="43.17737" lon="2.29169">
        <ele>162.2</ele>
        <time>2022-09-02T09:51:03Z</time>
      </trkpt>
      <trkpt lat="43.17749" lon="2.29155">
        <ele>161.8</ele>
        <time>2022-09-02T09:51:08Z</time>
      </trkpt>
      <trkpt lat="43.17763" lon="2.29143">
        <ele>161.8</ele>
        <time>2022-09-02T09:51:13Z</time>
      </trkpt>
      <trkpt lat="43.17766" lon="2.2913">
        <ele>162.4</ele>
        <time>2022-09-02T09:51:17Z</time>
      </trkpt>
      <trkpt lat="43.17764" lon="2.29121">
        <ele>162.8</ele>
        <time>2022-09-02T09:51:20Z</time>
      </trkpt>
      <trkpt lat="43.17763" lon="2.29118">
        <ele>162.8</ele>
        <time>2022-09-02T09:51:21Z</time>
      </trkpt>
      <trkpt lat="43.17763" lon="2.29115">
        <ele>162.8</ele>
        <time>2022-09-02T09:51:22Z</time>
      </trkpt>
      <trkpt lat="43.17762" lon="2.29105">
        <ele>163.4</ele>
        <time>2022-09-02T09:51:27Z</time>
      </trkpt>
      <trkpt lat="43.17769" lon="2.29106">
        <ele>163.4</ele>
        <time>2022-09-02T09:51:56Z</time>
      </trkpt>
      <trkpt lat="43.17771" lon="2.29105">
        <ele>163.4</ele>
        <time>2022-09-02T09:51:57Z</time>
      </trkpt>
      <trkpt lat="43.17783" lon="2.29096">
        <ele>163.4</ele>
        <time>2022-09-02T09:52:04Z</time>
      </trkpt>
      <trkpt lat="43.17783" lon="2.29096">
        <ele>163.8</ele>
        <time>2022-09-02T09:52:17Z</time>
      </trkpt>
      <trkpt lat="43.17779" lon="2.29101">
        <ele>163.4</ele>
        <time>2022-09-02T09:52:20Z</time>
      </trkpt>
      <trkpt lat="43.17766" lon="2.2911">
        <ele>163.4</ele>
        <time>2022-09-02T09:52:28Z</time>
      </trkpt>
      <trkpt lat="43.17765" lon="2.29117">
        <ele>162.8</ele>
        <time>2022-09-02T09:52:31Z</time>
      </trkpt>
      <trkpt lat="43.17766" lon="2.29119">
        <ele>162.6</ele>
        <time>2022-09-02T09:52:32Z</time>
      </trkpt>
      <trkpt lat="43.17768" lon="2.29121">
        <ele>162.6</ele>
        <time>2022-09-02T09:52:33Z</time>
      </trkpt>
      <trkpt lat="43.17768" lon="2.29124">
        <ele>162.6</ele>
        <time>2022-09-02T09:52:34Z</time>
      </trkpt>
      <trkpt lat="43.17767" lon="2.29133">
        <ele>162.4</ele>
        <time>2022-09-02T09:52:37Z</time>
      </trkpt>
      <trkpt lat="43.17769" lon="2.2914">
        <ele>161.8</ele>
        <time>2022-09-02T09:52:42Z</time>
      </trkpt>
      <trkpt lat="43.17776" lon="2.29135">
        <ele>161.8</ele>
        <time>2022-09-02T09:52:46Z</time>
      </trkpt>
      <trkpt lat="43.17778" lon="2.29131">
        <ele>161.8</ele>
        <time>2022-09-02T09:52:48Z</time>
      </trkpt>
      <trkpt lat="43.17786" lon="2.29123">
        <ele>161.8</ele>
        <time>2022-09-02T09:52:53Z</time>
      </trkpt>
      <trkpt lat="43.17801" lon="2.29109">
        <ele>162.2</ele>
        <time>2022-09-02T09:53:02Z</time>
      </trkpt>
      <trkpt lat="43.17816" lon="2.29097">
        <ele>162.2</ele>
        <time>2022-09-02T09:53:09Z</time>
      </trkpt>
      <trkpt lat="43.17827" lon="2.29092">
        <ele>162.2</ele>
        <time>2022-09-02T09:53:14Z</time>
      </trkpt>
      <trkpt lat="43.17837" lon="2.29085">
        <ele>162.2</ele>
        <time>2022-09-02T09:53:19Z</time>
      </trkpt>
      <trkpt lat="43.17855" lon="2.29073">
        <ele>162.2</ele>
        <time>2022-09-02T09:53:27Z</time>
      </trkpt>
      <trkpt lat="43.17868" lon="2.29062">
        <ele>162</ele>
        <time>2022-09-02T09:53:34Z</time>
      </trkpt>
      <trkpt lat="43.17877" lon="2.29052">
        <ele>161.8</ele>
        <time>2022-09-02T09:53:40Z</time>
      </trkpt>
      <trkpt lat="43.17885" lon="2.29037">
        <ele>162</ele>
        <time>2022-09-02T09:53:46Z</time>
      </trkpt>
      <trkpt lat="43.1789" lon="2.2901">
        <ele>162.8</ele>
        <time>2022-09-02T09:53:54Z</time>
      </trkpt>
      <trkpt lat="43.17894" lon="2.28985">
        <ele>162.8</ele>
        <time>2022-09-02T09:54:02Z</time>
      </trkpt>
      <trkpt lat="43.179" lon="2.28971">
        <ele>162.6</ele>
        <time>2022-09-02T09:54:07Z</time>
      </trkpt>
      <trkpt lat="43.17904" lon="2.28952">
        <ele>163</ele>
        <time>2022-09-02T09:54:13Z</time>
      </trkpt>
      <trkpt lat="43.17909" lon="2.28928">
        <ele>163.2</ele>
        <time>2022-09-02T09:54:20Z</time>
      </trkpt>
      <trkpt lat="43.17915" lon="2.28905">
        <ele>163.6</ele>
        <time>2022-09-02T09:54:27Z</time>
      </trkpt>
      <trkpt lat="43.17915" lon="2.28899">
        <ele>163.6</ele>
        <time>2022-09-02T09:54:29Z</time>
      </trkpt>
      <trkpt lat="43.17917" lon="2.2889">
        <ele>163.8</ele>
        <time>2022-09-02T09:54:32Z</time>
      </trkpt>
      <trkpt lat="43.17924" lon="2.28861">
        <ele>164.6</ele>
        <time>2022-09-02T09:54:40Z</time>
      </trkpt>
      <trkpt lat="43.17925" lon="2.28854">
        <ele>164.8</ele>
        <time>2022-09-02T09:54:42Z</time>
      </trkpt>
      <trkpt lat="43.17931" lon="2.28831">
        <ele>165.4</ele>
        <time>2022-09-02T09:54:49Z</time>
      </trkpt>
      <trkpt lat="43.17936" lon="2.28808">
        <ele>165.8</ele>
        <time>2022-09-02T09:54:56Z</time>
      </trkpt>
      <trkpt lat="43.17936" lon="2.28804">
        <ele>165.8</ele>
        <time>2022-09-02T09:54:57Z</time>
      </trkpt>
      <trkpt lat="43.17941" lon="2.28781">
        <ele>166</ele>
        <time>2022-09-02T09:55:04Z</time>
      </trkpt>
      <trkpt lat="43.17943" lon="2.28775">
        <ele>166.2</ele>
        <time>2022-09-02T09:55:06Z</time>
      </trkpt>
      <trkpt lat="43.17948" lon="2.28753">
        <ele>166.6</ele>
        <time>2022-09-02T09:55:12Z</time>
      </trkpt>
      <trkpt lat="43.17953" lon="2.28738">
        <ele>166.8</ele>
        <time>2022-09-02T09:55:16Z</time>
      </trkpt>
      <trkpt lat="43.17954" lon="2.28734">
        <ele>167</ele>
        <time>2022-09-02T09:55:17Z</time>
      </trkpt>
      <trkpt lat="43.1796" lon="2.28711">
        <ele>167.2</ele>
        <time>2022-09-02T09:55:23Z</time>
      </trkpt>
      <trkpt lat="43.17965" lon="2.28683">
        <ele>167.8</ele>
        <time>2022-09-02T09:55:30Z</time>
      </trkpt>
      <trkpt lat="43.17971" lon="2.28658">
        <ele>168.6</ele>
        <time>2022-09-02T09:55:37Z</time>
      </trkpt>
      <trkpt lat="43.17972" lon="2.28651">
        <ele>169</ele>
        <time>2022-09-02T09:55:39Z</time>
      </trkpt>
      <trkpt lat="43.17973" lon="2.28639">
        <ele>169</ele>
        <time>2022-09-02T09:55:43Z</time>
      </trkpt>
      <trkpt lat="43.17975" lon="2.28631">
        <ele>169.2</ele>
        <time>2022-09-02T09:55:49Z</time>
      </trkpt>
      <trkpt lat="43.17978" lon="2.28622">
        <ele>169.6</ele>
        <time>2022-09-02T09:57:45Z</time>
      </trkpt>
      <trkpt lat="43.17979" lon="2.28617">
        <ele>169.8</ele>
        <time>2022-09-02T09:57:47Z</time>
      </trkpt>
      <trkpt lat="43.1798" lon="2.28615">
        <ele>170</ele>
        <time>2022-09-02T09:57:48Z</time>
      </trkpt>
      <trkpt lat="43.17984" lon="2.28595">
        <ele>170.4</ele>
        <time>2022-09-02T09:57:55Z</time>
      </trkpt>
      <trkpt lat="43.17987" lon="2.28578">
        <ele>171</ele>
        <time>2022-09-02T09:58:01Z</time>
      </trkpt>
      <trkpt lat="43.17988" lon="2.28572">
        <ele>171.2</ele>
        <time>2022-09-02T09:58:03Z</time>
      </trkpt>
      <trkpt lat="43.17993" lon="2.28549">
        <ele>172</ele>
        <time>2022-09-02T09:58:11Z</time>
      </trkpt>
      <trkpt lat="43.17999" lon="2.28526">
        <ele>173</ele>
        <time>2022-09-02T09:58:19Z</time>
      </trkpt>
      <trkpt lat="43.18" lon="2.28523">
        <ele>173.2</ele>
        <time>2022-09-02T09:58:20Z</time>
      </trkpt>
      <trkpt lat="43.18005" lon="2.28507">
        <ele>174</ele>
        <time>2022-09-02T09:58:26Z</time>
      </trkpt>
      <trkpt lat="43.18005" lon="2.28501">
        <ele>174.4</ele>
        <time>2022-09-02T09:58:28Z</time>
      </trkpt>
      <trkpt lat="43.18006" lon="2.28493">
        <ele>175</ele>
        <time>2022-09-02T09:58:31Z</time>
      </trkpt>
      <trkpt lat="43.1801" lon="2.2848">
        <ele>175.6</ele>
        <time>2022-09-02T09:58:36Z</time>
      </trkpt>
      <trkpt lat="43.18013" lon="2.28472">
        <ele>176.2</ele>
        <time>2022-09-02T09:58:39Z</time>
      </trkpt>
      <trkpt lat="43.18014" lon="2.28463">
        <ele>176.6</ele>
        <time>2022-09-02T09:58:42Z</time>
      </trkpt>
      <trkpt lat="43.18016" lon="2.28451">
        <ele>177.2</ele>
        <time>2022-09-02T09:58:47Z</time>
      </trkpt>
      <trkpt lat="43.18016" lon="2.28449">
        <ele>177.8</ele>
        <time>2022-09-02T09:58:48Z</time>
      </trkpt>
      <trkpt lat="43.18019" lon="2.28437">
        <ele>178.4</ele>
        <time>2022-09-02T09:58:53Z</time>
      </trkpt>
      <trkpt lat="43.1802" lon="2.2843">
        <ele>178.8</ele>
        <time>2022-09-02T09:58:56Z</time>
      </trkpt>
      <trkpt lat="43.18022" lon="2.28417">
        <ele>179.4</ele>
        <time>2022-09-02T09:59:01Z</time>
      </trkpt>
      <trkpt lat="43.18025" lon="2.28406">
        <ele>179.8</ele>
        <time>2022-09-02T09:59:05Z</time>
      </trkpt>
      <trkpt lat="43.18026" lon="2.28401">
        <ele>180.2</ele>
        <time>2022-09-02T09:59:07Z</time>
      </trkpt>
      <trkpt lat="43.1803" lon="2.28389">
        <ele>181</ele>
        <time>2022-09-02T09:59:12Z</time>
      </trkpt>
      <trkpt lat="43.18031" lon="2.28383">
        <ele>181.2</ele>
        <time>2022-09-02T09:59:14Z</time>
      </trkpt>
      <trkpt lat="43.18034" lon="2.28364">
        <ele>181.6</ele>
        <time>2022-09-02T09:59:21Z</time>
      </trkpt>
      <trkpt lat="43.18039" lon="2.28338">
        <ele>181.6</ele>
        <time>2022-09-02T09:59:29Z</time>
      </trkpt>
      <trkpt lat="43.18044" lon="2.2832">
        <ele>182</ele>
        <time>2022-09-02T09:59:35Z</time>
      </trkpt>
      <trkpt lat="43.18046" lon="2.28314">
        <ele>182.2</ele>
        <time>2022-09-02T09:59:37Z</time>
      </trkpt>
      <trkpt lat="43.18051" lon="2.28298">
        <ele>183</ele>
        <time>2022-09-02T09:59:42Z</time>
      </trkpt>
      <trkpt lat="43.18053" lon="2.28289">
        <ele>183.4</ele>
        <time>2022-09-02T09:59:45Z</time>
      </trkpt>
      <trkpt lat="43.18051" lon="2.2828">
        <ele>184</ele>
        <time>2022-09-02T09:59:48Z</time>
      </trkpt>
      <trkpt lat="43.1805" lon="2.28278">
        <ele>184</ele>
        <time>2022-09-02T09:59:49Z</time>
      </trkpt>
      <trkpt lat="43.18047" lon="2.28273">
        <ele>184.2</ele>
        <time>2022-09-02T09:59:51Z</time>
      </trkpt>
      <trkpt lat="43.18042" lon="2.28269">
        <ele>184.6</ele>
        <time>2022-09-02T09:59:54Z</time>
      </trkpt>
      <trkpt lat="43.18038" lon="2.28267">
        <ele>185</ele>
        <time>2022-09-02T09:59:56Z</time>
      </trkpt>
      <trkpt lat="43.18036" lon="2.28266">
        <ele>185.2</ele>
        <time>2022-09-02T09:59:57Z</time>
      </trkpt>
      <trkpt lat="43.18026" lon="2.2826">
        <ele>186.2</ele>
        <time>2022-09-02T10:00:02Z</time>
      </trkpt>
      <trkpt lat="43.18017" lon="2.28252">
        <ele>186.8</ele>
        <time>2022-09-02T10:00:07Z</time>
      </trkpt>
      <trkpt lat="43.18008" lon="2.28246">
        <ele>187.2</ele>
        <time>2022-09-02T10:00:12Z</time>
      </trkpt>
      <trkpt lat="43.18001" lon="2.2824">
        <ele>187.8</ele>
        <time>2022-09-02T10:00:16Z</time>
      </trkpt>
      <trkpt lat="43.17985" lon="2.28229">
        <ele>188.6</ele>
        <time>2022-09-02T10:00:24Z</time>
      </trkpt>
      <trkpt lat="43.17983" lon="2.28227">
        <ele>188.8</ele>
        <time>2022-09-02T10:00:25Z</time>
      </trkpt>
      <trkpt lat="43.17967" lon="2.28215">
        <ele>189.6</ele>
        <time>2022-09-02T10:00:33Z</time>
      </trkpt>
      <trkpt lat="43.17961" lon="2.28211">
        <ele>190</ele>
        <time>2022-09-02T10:00:36Z</time>
      </trkpt>
      <trkpt lat="43.17953" lon="2.282">
        <ele>190.8</ele>
        <time>2022-09-02T10:00:41Z</time>
      </trkpt>
      <trkpt lat="43.17951" lon="2.28196">
        <ele>190.8</ele>
        <time>2022-09-02T10:00:43Z</time>
      </trkpt>
      <trkpt lat="43.17944" lon="2.28188">
        <ele>190</ele>
        <time>2022-09-02T10:00:50Z</time>
      </trkpt>
      <trkpt lat="43.17943" lon="2.28185">
        <ele>190.6</ele>
        <time>2022-09-02T10:03:20Z</time>
      </trkpt>
      <trkpt lat="43.17943" lon="2.28179">
        <ele>190.8</ele>
        <time>2022-09-02T10:03:22Z</time>
      </trkpt>
      <trkpt lat="43.17945" lon="2.28164">
        <ele>191.2</ele>
        <time>2022-09-02T10:03:28Z</time>
      </trkpt>
      <trkpt lat="43.17946" lon="2.28162">
        <ele>191.8</ele>
        <time>2022-09-02T10:03:29Z</time>
      </trkpt>
      <trkpt lat="43.17951" lon="2.28145">
        <ele>192</ele>
        <time>2022-09-02T10:03:35Z</time>
      </trkpt>
      <trkpt lat="43.17958" lon="2.28119">
        <ele>192.4</ele>
        <time>2022-09-02T10:03:44Z</time>
      </trkpt>
      <trkpt lat="43.17962" lon="2.28105">
        <ele>192.8</ele>
        <time>2022-09-02T10:03:49Z</time>
      </trkpt>
      <trkpt lat="43.17965" lon="2.28095">
        <ele>193.4</ele>
        <time>2022-09-02T10:03:53Z</time>
      </trkpt>
      <trkpt lat="43.17967" lon="2.28087">
        <ele>194</ele>
        <time>2022-09-02T10:03:56Z</time>
      </trkpt>
      <trkpt lat="43.1797" lon="2.28078">
        <ele>194.6</ele>
        <time>2022-09-02T10:04:00Z</time>
      </trkpt>
      <trkpt lat="43.17972" lon="2.28071">
        <ele>195.2</ele>
        <time>2022-09-02T10:04:03Z</time>
      </trkpt>
      <trkpt lat="43.17974" lon="2.28061">
        <ele>195.6</ele>
        <time>2022-09-02T10:04:07Z</time>
      </trkpt>
      <trkpt lat="43.17976" lon="2.28049">
        <ele>196.4</ele>
        <time>2022-09-02T10:04:12Z</time>
      </trkpt>
      <trkpt lat="43.17977" lon="2.28044">
        <ele>196.8</ele>
        <time>2022-09-02T10:04:14Z</time>
      </trkpt>
      <trkpt lat="43.17981" lon="2.2803">
        <ele>197.6</ele>
        <time>2022-09-02T10:04:20Z</time>
      </trkpt>
      <trkpt lat="43.17983" lon="2.28022">
        <ele>198</ele>
        <time>2022-09-02T10:04:24Z</time>
      </trkpt>
      <trkpt lat="43.17985" lon="2.28016">
        <ele>198.6</ele>
        <time>2022-09-02T10:04:27Z</time>
      </trkpt>
      <trkpt lat="43.17987" lon="2.28008">
        <ele>199.4</ele>
        <time>2022-09-02T10:04:31Z</time>
      </trkpt>
      <trkpt lat="43.17988" lon="2.28003">
        <ele>199.8</ele>
        <time>2022-09-02T10:04:33Z</time>
      </trkpt>
      <trkpt lat="43.17993" lon="2.27985">
        <ele>200.8</ele>
        <time>2022-09-02T10:04:41Z</time>
      </trkpt>
      <trkpt lat="43.17998" lon="2.27967">
        <ele>202</ele>
        <time>2022-09-02T10:04:49Z</time>
      </trkpt>
      <trkpt lat="43.18003" lon="2.27951">
        <ele>203</ele>
        <time>2022-09-02T10:04:56Z</time>
      </trkpt>
      <trkpt lat="43.18006" lon="2.27937">
        <ele>204.2</ele>
        <time>2022-09-02T10:05:03Z</time>
      </trkpt>
      <trkpt lat="43.18008" lon="2.27932">
        <ele>204.4</ele>
        <time>2022-09-02T10:05:05Z</time>
      </trkpt>
      <trkpt lat="43.18011" lon="2.27917">
        <ele>205.2</ele>
        <time>2022-09-02T10:05:12Z</time>
      </trkpt>
      <trkpt lat="43.18012" lon="2.27912">
        <ele>205.4</ele>
        <time>2022-09-02T10:05:14Z</time>
      </trkpt>
      <trkpt lat="43.18015" lon="2.27887">
        <ele>206</ele>
        <time>2022-09-02T10:05:23Z</time>
      </trkpt>
      <trkpt lat="43.18016" lon="2.27884">
        <ele>206.2</ele>
        <time>2022-09-02T10:05:24Z</time>
      </trkpt>
      <trkpt lat="43.18021" lon="2.27858">
        <ele>206.4</ele>
        <time>2022-09-02T10:05:33Z</time>
      </trkpt>
      <trkpt lat="43.18027" lon="2.27835">
        <ele>206.2</ele>
        <time>2022-09-02T10:05:40Z</time>
      </trkpt>
      <trkpt lat="43.18035" lon="2.27808">
        <ele>205.8</ele>
        <time>2022-09-02T10:05:47Z</time>
      </trkpt>
      <trkpt lat="43.18044" lon="2.27784">
        <ele>205.4</ele>
        <time>2022-09-02T10:05:53Z</time>
      </trkpt>
      <trkpt lat="43.18048" lon="2.27758">
        <ele>205.8</ele>
        <time>2022-09-02T10:05:59Z</time>
      </trkpt>
      <trkpt lat="43.1805" lon="2.27727">
        <ele>205.4</ele>
        <time>2022-09-02T10:06:06Z</time>
      </trkpt>
      <trkpt lat="43.18052" lon="2.27716">
        <ele>205.2</ele>
        <time>2022-09-02T10:06:09Z</time>
      </trkpt>
      <trkpt lat="43.18056" lon="2.27701">
        <ele>205.2</ele>
        <time>2022-09-02T10:06:13Z</time>
      </trkpt>
      <trkpt lat="43.1806" lon="2.27687">
        <ele>204.8</ele>
        <time>2022-09-02T10:06:19Z</time>
      </trkpt>
      <trkpt lat="43.18074" lon="2.27677">
        <ele>205.6</ele>
        <time>2022-09-02T10:06:50Z</time>
      </trkpt>
      <trkpt lat="43.18084" lon="2.27678">
        <ele>205.8</ele>
        <time>2022-09-02T10:06:54Z</time>
      </trkpt>
      <trkpt lat="43.18098" lon="2.27683">
        <ele>206.2</ele>
        <time>2022-09-02T10:07:00Z</time>
      </trkpt>
      <trkpt lat="43.18102" lon="2.27684">
        <ele>206.4</ele>
        <time>2022-09-02T10:07:02Z</time>
      </trkpt>
      <trkpt lat="43.18118" lon="2.2769">
        <ele>206.8</ele>
        <time>2022-09-02T10:07:10Z</time>
      </trkpt>
      <trkpt lat="43.18126" lon="2.27689">
        <ele>207.2</ele>
        <time>2022-09-02T10:07:15Z</time>
      </trkpt>
      <trkpt lat="43.18129" lon="2.27679">
        <ele>207</ele>
        <time>2022-09-02T10:07:19Z</time>
      </trkpt>
      <trkpt lat="43.18134" lon="2.27655">
        <ele>206.6</ele>
        <time>2022-09-02T10:07:26Z</time>
      </trkpt>
      <trkpt lat="43.18139" lon="2.27624">
        <ele>206.4</ele>
        <time>2022-09-02T10:07:34Z</time>
      </trkpt>
      <trkpt lat="43.1814" lon="2.2759">
        <ele>205.6</ele>
        <time>2022-09-02T10:07:42Z</time>
      </trkpt>
      <trkpt lat="43.1814" lon="2.27585">
        <ele>205.4</ele>
        <time>2022-09-02T10:07:44Z</time>
      </trkpt>
      <trkpt lat="43.1814" lon="2.27583">
        <ele>205.2</ele>
        <time>2022-09-02T10:07:45Z</time>
      </trkpt>
      <trkpt lat="43.18141" lon="2.2758">
        <ele>205.4</ele>
        <time>2022-09-02T10:07:46Z</time>
      </trkpt>
      <trkpt lat="43.18141" lon="2.27572">
        <ele>205.6</ele>
        <time>2022-09-02T10:07:48Z</time>
      </trkpt>
      <trkpt lat="43.18141" lon="2.27559">
        <ele>205.6</ele>
        <time>2022-09-02T10:07:51Z</time>
      </trkpt>
      <trkpt lat="43.1814" lon="2.27521">
        <ele>205.6</ele>
        <time>2022-09-02T10:07:59Z</time>
      </trkpt>
      <trkpt lat="43.18142" lon="2.27485">
        <ele>204.4</ele>
        <time>2022-09-02T10:08:06Z</time>
      </trkpt>
      <trkpt lat="43.18144" lon="2.27456">
        <ele>204.6</ele>
        <time>2022-09-02T10:08:12Z</time>
      </trkpt>
      <trkpt lat="43.18151" lon="2.27405">
        <ele>204.6</ele>
        <time>2022-09-02T10:08:21Z</time>
      </trkpt>
      <trkpt lat="43.18158" lon="2.27362">
        <ele>204.8</ele>
        <time>2022-09-02T10:08:29Z</time>
      </trkpt>
      <trkpt lat="43.18167" lon="2.27323">
        <ele>205.6</ele>
        <time>2022-09-02T10:08:37Z</time>
      </trkpt>
      <trkpt lat="43.18172" lon="2.27299">
        <ele>206.4</ele>
        <time>2022-09-02T10:08:43Z</time>
      </trkpt>
      <trkpt lat="43.18175" lon="2.27278">
        <ele>207.4</ele>
        <time>2022-09-02T10:08:48Z</time>
      </trkpt>
      <trkpt lat="43.18178" lon="2.27268">
        <ele>208.6</ele>
        <time>2022-09-02T10:08:51Z</time>
      </trkpt>
      <trkpt lat="43.18182" lon="2.27251">
        <ele>209.2</ele>
        <time>2022-09-02T10:08:57Z</time>
      </trkpt>
      <trkpt lat="43.18192" lon="2.27227">
        <ele>208.6</ele>
        <time>2022-09-02T10:09:03Z</time>
      </trkpt>
      <trkpt lat="43.18204" lon="2.27216">
        <ele>208</ele>
        <time>2022-09-02T10:09:06Z</time>
      </trkpt>
      <trkpt lat="43.18208" lon="2.27214">
        <ele>207.8</ele>
        <time>2022-09-02T10:09:07Z</time>
      </trkpt>
      <trkpt lat="43.18217" lon="2.2721">
        <ele>207.8</ele>
        <time>2022-09-02T10:09:09Z</time>
      </trkpt>
      <trkpt lat="43.18233" lon="2.27203">
        <ele>208</ele>
        <time>2022-09-02T10:09:13Z</time>
      </trkpt>
      <trkpt lat="43.18262" lon="2.27192">
        <ele>207.6</ele>
        <time>2022-09-02T10:09:21Z</time>
      </trkpt>
      <trkpt lat="43.18272" lon="2.27186">
        <ele>207.4</ele>
        <time>2022-09-02T10:09:24Z</time>
      </trkpt>
      <trkpt lat="43.18281" lon="2.27176">
        <ele>207.4</ele>
        <time>2022-09-02T10:09:27Z</time>
      </trkpt>
      <trkpt lat="43.18286" lon="2.27155">
        <ele>207.8</ele>
        <time>2022-09-02T10:09:31Z</time>
      </trkpt>
      <trkpt lat="43.18286" lon="2.27128">
        <ele>208.6</ele>
        <time>2022-09-02T10:09:36Z</time>
      </trkpt>
      <trkpt lat="43.18286" lon="2.27107">
        <ele>209.6</ele>
        <time>2022-09-02T10:09:40Z</time>
      </trkpt>
      <trkpt lat="43.18286" lon="2.27087">
        <ele>210.6</ele>
        <time>2022-09-02T10:09:44Z</time>
      </trkpt>
      <trkpt lat="43.18286" lon="2.27067">
        <ele>211.2</ele>
        <time>2022-09-02T10:09:48Z</time>
      </trkpt>
      <trkpt lat="43.18285" lon="2.27059">
        <ele>211.8</ele>
        <time>2022-09-02T10:09:50Z</time>
      </trkpt>
      <trkpt lat="43.18286" lon="2.27041">
        <ele>212.2</ele>
        <time>2022-09-02T10:09:54Z</time>
      </trkpt>
      <trkpt lat="43.18288" lon="2.27014">
        <ele>212.6</ele>
        <time>2022-09-02T10:10:00Z</time>
      </trkpt>
      <trkpt lat="43.18291" lon="2.26981">
        <ele>212.2</ele>
        <time>2022-09-02T10:10:07Z</time>
      </trkpt>
      <trkpt lat="43.18297" lon="2.26942">
        <ele>211.2</ele>
        <time>2022-09-02T10:10:14Z</time>
      </trkpt>
      <trkpt lat="43.18299" lon="2.2693">
        <ele>210.8</ele>
        <time>2022-09-02T10:10:16Z</time>
      </trkpt>
      <trkpt lat="43.18307" lon="2.269">
        <ele>210.8</ele>
        <time>2022-09-02T10:10:21Z</time>
      </trkpt>
      <trkpt lat="43.18313" lon="2.26877">
        <ele>210.8</ele>
        <time>2022-09-02T10:10:25Z</time>
      </trkpt>
      <trkpt lat="43.18319" lon="2.2686">
        <ele>210</ele>
        <time>2022-09-02T10:10:28Z</time>
      </trkpt>
      <trkpt lat="43.1833" lon="2.26834">
        <ele>210</ele>
        <time>2022-09-02T10:10:33Z</time>
      </trkpt>
      <trkpt lat="43.18335" lon="2.26825">
        <ele>209.4</ele>
        <time>2022-09-02T10:10:35Z</time>
      </trkpt>
      <trkpt lat="43.18343" lon="2.26811">
        <ele>209.4</ele>
        <time>2022-09-02T10:10:38Z</time>
      </trkpt>
      <trkpt lat="43.18352" lon="2.26801">
        <ele>209.2</ele>
        <time>2022-09-02T10:10:41Z</time>
      </trkpt>
      <trkpt lat="43.18365" lon="2.26791">
        <ele>209</ele>
        <time>2022-09-02T10:10:45Z</time>
      </trkpt>
      <trkpt lat="43.18371" lon="2.26787">
        <ele>209</ele>
        <time>2022-09-02T10:10:47Z</time>
      </trkpt>
      <trkpt lat="43.18385" lon="2.26779">
        <ele>209</ele>
        <time>2022-09-02T10:10:51Z</time>
      </trkpt>
      <trkpt lat="43.18412" lon="2.26764">
        <ele>210.6</ele>
        <time>2022-09-02T10:10:59Z</time>
      </trkpt>
      <trkpt lat="43.18424" lon="2.2675">
        <ele>211.2</ele>
        <time>2022-09-02T10:11:04Z</time>
      </trkpt>
      <trkpt lat="43.18429" lon="2.26725">
        <ele>210.4</ele>
        <time>2022-09-02T10:11:10Z</time>
      </trkpt>
      <trkpt lat="43.18432" lon="2.26707">
        <ele>209.6</ele>
        <time>2022-09-02T10:11:14Z</time>
      </trkpt>
      <trkpt lat="43.18435" lon="2.267">
        <ele>209.4</ele>
        <time>2022-09-02T10:11:17Z</time>
      </trkpt>
      <trkpt lat="43.18445" lon="2.26698">
        <ele>208.8</ele>
        <time>2022-09-02T10:11:21Z</time>
      </trkpt>
      <trkpt lat="43.18453" lon="2.267">
        <ele>208.8</ele>
        <time>2022-09-02T10:11:23Z</time>
      </trkpt>
      <trkpt lat="43.18458" lon="2.26702">
        <ele>208.4</ele>
        <time>2022-09-02T10:11:24Z</time>
      </trkpt>
      <trkpt lat="43.18462" lon="2.26704">
        <ele>208.2</ele>
        <time>2022-09-02T10:11:25Z</time>
      </trkpt>
      <trkpt lat="43.18467" lon="2.26706">
        <ele>207.8</ele>
        <time>2022-09-02T10:11:26Z</time>
      </trkpt>
      <trkpt lat="43.18471" lon="2.26709">
        <ele>207.4</ele>
        <time>2022-09-02T10:11:27Z</time>
      </trkpt>
      <trkpt lat="43.18477" lon="2.26714">
        <ele>206.6</ele>
        <time>2022-09-02T10:11:29Z</time>
      </trkpt>
      <trkpt lat="43.18482" lon="2.26718">
        <ele>206.2</ele>
        <time>2022-09-02T10:11:31Z</time>
      </trkpt>
      <trkpt lat="43.18483" lon="2.2672">
        <ele>205.4</ele>
        <time>2022-09-02T10:11:33Z</time>
      </trkpt>
      <trkpt lat="43.18485" lon="2.26725">
        <ele>204.8</ele>
        <time>2022-09-02T10:11:42Z</time>
      </trkpt>
      <trkpt lat="43.18485" lon="2.26731">
        <ele>204.8</ele>
        <time>2022-09-02T10:11:44Z</time>
      </trkpt>
      <trkpt lat="43.18483" lon="2.26739">
        <ele>204.4</ele>
        <time>2022-09-02T10:11:47Z</time>
      </trkpt>
      <trkpt lat="43.18482" lon="2.2674">
        <ele>204.4</ele>
        <time>2022-09-02T10:11:49Z</time>
      </trkpt>
      <trkpt lat="43.18478" lon="2.2675">
        <ele>204.8</ele>
        <time>2022-09-02T10:15:01Z</time>
      </trkpt>
      <trkpt lat="43.18478" lon="2.26753">
        <ele>204.8</ele>
        <time>2022-09-02T10:15:02Z</time>
      </trkpt>
      <trkpt lat="43.18477" lon="2.26763">
        <ele>204.2</ele>
        <time>2022-09-02T10:15:05Z</time>
      </trkpt>
      <trkpt lat="43.18475" lon="2.26771">
        <ele>204</ele>
        <time>2022-09-02T10:15:07Z</time>
      </trkpt>
      <trkpt lat="43.18473" lon="2.26788">
        <ele>203.6</ele>
        <time>2022-09-02T10:15:11Z</time>
      </trkpt>
      <trkpt lat="43.18467" lon="2.2681">
        <ele>202.8</ele>
        <time>2022-09-02T10:15:17Z</time>
      </trkpt>
      <trkpt lat="43.18466" lon="2.26815">
        <ele>202.6</ele>
        <time>2022-09-02T10:15:19Z</time>
      </trkpt>
      <trkpt lat="43.18466" lon="2.26817">
        <ele>202.4</ele>
        <time>2022-09-02T10:15:22Z</time>
      </trkpt>
      <trkpt lat="43.18464" lon="2.26811">
        <ele>203.6</ele>
        <time>2022-09-02T10:19:32Z</time>
      </trkpt>
      <trkpt lat="43.18465" lon="2.26806">
        <ele>203.8</ele>
        <time>2022-09-02T10:19:34Z</time>
      </trkpt>
      <trkpt lat="43.18467" lon="2.268">
        <ele>204.2</ele>
        <time>2022-09-02T10:19:36Z</time>
      </trkpt>
      <trkpt lat="43.18472" lon="2.26782">
        <ele>204.4</ele>
        <time>2022-09-02T10:19:41Z</time>
      </trkpt>
      <trkpt lat="43.18474" lon="2.26776">
        <ele>204.6</ele>
        <time>2022-09-02T10:19:43Z</time>
      </trkpt>
      <trkpt lat="43.18482" lon="2.26752">
        <ele>205.8</ele>
        <time>2022-09-02T10:19:50Z</time>
      </trkpt>
      <trkpt lat="43.18489" lon="2.26728">
        <ele>206.2</ele>
        <time>2022-09-02T10:19:58Z</time>
      </trkpt>
      <trkpt lat="43.18492" lon="2.26712">
        <ele>206.8</ele>
        <time>2022-09-02T10:20:03Z</time>
      </trkpt>
      <trkpt lat="43.18494" lon="2.26703">
        <ele>207</ele>
        <time>2022-09-02T10:20:06Z</time>
      </trkpt>
      <trkpt lat="43.185" lon="2.26676">
        <ele>207.6</ele>
        <time>2022-09-02T10:20:14Z</time>
      </trkpt>
      <trkpt lat="43.18504" lon="2.26662">
        <ele>208</ele>
        <time>2022-09-02T10:20:18Z</time>
      </trkpt>
      <trkpt lat="43.18507" lon="2.26651">
        <ele>208.2</ele>
        <time>2022-09-02T10:20:21Z</time>
      </trkpt>
      <trkpt lat="43.18513" lon="2.26628">
        <ele>209</ele>
        <time>2022-09-02T10:20:27Z</time>
      </trkpt>
      <trkpt lat="43.18516" lon="2.26613">
        <ele>209.4</ele>
        <time>2022-09-02T10:20:31Z</time>
      </trkpt>
      <trkpt lat="43.18516" lon="2.26602">
        <ele>210</ele>
        <time>2022-09-02T10:20:34Z</time>
      </trkpt>
      <trkpt lat="43.18517" lon="2.26578">
        <ele>210</ele>
        <time>2022-09-02T10:20:40Z</time>
      </trkpt>
      <trkpt lat="43.18513" lon="2.26543">
        <ele>210.2</ele>
        <time>2022-09-02T10:20:49Z</time>
      </trkpt>
      <trkpt lat="43.18503" lon="2.26515">
        <ele>210.4</ele>
        <time>2022-09-02T10:20:56Z</time>
      </trkpt>
      <trkpt lat="43.1849" lon="2.26482">
        <ele>209.6</ele>
        <time>2022-09-02T10:21:03Z</time>
      </trkpt>
      <trkpt lat="43.18476" lon="2.26456">
        <ele>210.4</ele>
        <time>2022-09-02T10:21:09Z</time>
      </trkpt>
      <trkpt lat="43.18465" lon="2.26437">
        <ele>210</ele>
        <time>2022-09-02T10:21:13Z</time>
      </trkpt>
      <trkpt lat="43.1846" lon="2.26428">
        <ele>209.6</ele>
        <time>2022-09-02T10:21:15Z</time>
      </trkpt>
      <trkpt lat="43.18457" lon="2.26424">
        <ele>209.4</ele>
        <time>2022-09-02T10:21:16Z</time>
      </trkpt>
      <trkpt lat="43.18435" lon="2.26384">
        <ele>209.4</ele>
        <time>2022-09-02T10:21:25Z</time>
      </trkpt>
      <trkpt lat="43.18418" lon="2.26353">
        <ele>209</ele>
        <time>2022-09-02T10:21:32Z</time>
      </trkpt>
      <trkpt lat="43.18416" lon="2.26349">
        <ele>209</ele>
        <time>2022-09-02T10:21:33Z</time>
      </trkpt>
      <trkpt lat="43.18397" lon="2.26329">
        <ele>208.6</ele>
        <time>2022-09-02T10:21:39Z</time>
      </trkpt>
      <trkpt lat="43.18385" lon="2.26322">
        <ele>208.8</ele>
        <time>2022-09-02T10:21:42Z</time>
      </trkpt>
      <trkpt lat="43.18372" lon="2.26316">
        <ele>208.4</ele>
        <time>2022-09-02T10:21:45Z</time>
      </trkpt>
      <trkpt lat="43.18334" lon="2.26305">
        <ele>208</ele>
        <time>2022-09-02T10:21:53Z</time>
      </trkpt>
      <trkpt lat="43.18329" lon="2.26303">
        <ele>207.8</ele>
        <time>2022-09-02T10:21:54Z</time>
      </trkpt>
      <trkpt lat="43.18284" lon="2.26291">
        <ele>208</ele>
        <time>2022-09-02T10:22:03Z</time>
      </trkpt>
      <trkpt lat="43.18254" lon="2.26282">
        <ele>208.4</ele>
        <time>2022-09-02T10:22:10Z</time>
      </trkpt>
      <trkpt lat="43.18239" lon="2.26278">
        <ele>209.2</ele>
        <time>2022-09-02T10:22:14Z</time>
      </trkpt>
      <trkpt lat="43.18222" lon="2.2627">
        <ele>209.4</ele>
        <time>2022-09-02T10:22:19Z</time>
      </trkpt>
      <trkpt lat="43.18207" lon="2.26251">
        <ele>210.2</ele>
        <time>2022-09-02T10:22:25Z</time>
      </trkpt>
      <trkpt lat="43.18206" lon="2.26246">
        <ele>210.2</ele>
        <time>2022-09-02T10:22:26Z</time>
      </trkpt>
      <trkpt lat="43.18204" lon="2.26229">
        <ele>211</ele>
        <time>2022-09-02T10:22:30Z</time>
      </trkpt>
      <trkpt lat="43.18203" lon="2.26222">
        <ele>211.4</ele>
        <time>2022-09-02T10:22:32Z</time>
      </trkpt>
      <trkpt lat="43.18204" lon="2.26202">
        <ele>212</ele>
        <time>2022-09-02T10:22:37Z</time>
      </trkpt>
      <trkpt lat="43.18205" lon="2.26179">
        <ele>212.4</ele>
        <time>2022-09-02T10:22:43Z</time>
      </trkpt>
      <trkpt lat="43.18207" lon="2.26166">
        <ele>212.6</ele>
        <time>2022-09-02T10:22:46Z</time>
      </trkpt>
      <trkpt lat="43.18209" lon="2.26142">
        <ele>213.4</ele>
        <time>2022-09-02T10:22:52Z</time>
      </trkpt>
      <trkpt lat="43.1821" lon="2.2613">
        <ele>213.2</ele>
        <time>2022-09-02T10:22:55Z</time>
      </trkpt>
      <trkpt lat="43.1821" lon="2.26122">
        <ele>213.6</ele>
        <time>2022-09-02T10:22:57Z</time>
      </trkpt>
      <trkpt lat="43.18212" lon="2.26098">
        <ele>214.6</ele>
        <time>2022-09-02T10:23:03Z</time>
      </trkpt>
      <trkpt lat="43.18213" lon="2.26093">
        <ele>214.8</ele>
        <time>2022-09-02T10:23:04Z</time>
      </trkpt>
      <trkpt lat="43.18215" lon="2.2607">
        <ele>215.6</ele>
        <time>2022-09-02T10:23:10Z</time>
      </trkpt>
      <trkpt lat="43.18215" lon="2.26063">
        <ele>215.8</ele>
        <time>2022-09-02T10:23:12Z</time>
      </trkpt>
      <trkpt lat="43.18215" lon="2.26047">
        <ele>216.2</ele>
        <time>2022-09-02T10:23:16Z</time>
      </trkpt>
      <trkpt lat="43.18209" lon="2.26021">
        <ele>216.6</ele>
        <time>2022-09-02T10:23:23Z</time>
      </trkpt>
      <trkpt lat="43.18204" lon="2.2601">
        <ele>217</ele>
        <time>2022-09-02T10:23:26Z</time>
      </trkpt>
      <trkpt lat="43.18195" lon="2.25998">
        <ele>217.2</ele>
        <time>2022-09-02T10:23:30Z</time>
      </trkpt>
      <trkpt lat="43.18182" lon="2.25983">
        <ele>217.8</ele>
        <time>2022-09-02T10:23:36Z</time>
      </trkpt>
      <trkpt lat="43.1818" lon="2.2598">
        <ele>218</ele>
        <time>2022-09-02T10:23:37Z</time>
      </trkpt>
      <trkpt lat="43.18166" lon="2.25966">
        <ele>219</ele>
        <time>2022-09-02T10:23:43Z</time>
      </trkpt>
      <trkpt lat="43.18159" lon="2.2596">
        <ele>219.4</ele>
        <time>2022-09-02T10:23:46Z</time>
      </trkpt>
      <trkpt lat="43.18144" lon="2.25946">
        <ele>220.2</ele>
        <time>2022-09-02T10:23:53Z</time>
      </trkpt>
      <trkpt lat="43.1814" lon="2.25942">
        <ele>220.6</ele>
        <time>2022-09-02T10:23:55Z</time>
      </trkpt>
      <trkpt lat="43.18124" lon="2.25927">
        <ele>221.2</ele>
        <time>2022-09-02T10:24:04Z</time>
      </trkpt>
      <trkpt lat="43.18122" lon="2.25925">
        <ele>221.2</ele>
        <time>2022-09-02T10:24:05Z</time>
      </trkpt>
      <trkpt lat="43.18112" lon="2.25914">
        <ele>222.2</ele>
        <time>2022-09-02T10:24:11Z</time>
      </trkpt>
      <trkpt lat="43.18111" lon="2.25912">
        <ele>222.4</ele>
        <time>2022-09-02T10:24:12Z</time>
      </trkpt>
      <trkpt lat="43.18098" lon="2.25899">
        <ele>223.4</ele>
        <time>2022-09-02T10:24:19Z</time>
      </trkpt>
      <trkpt lat="43.18095" lon="2.25895">
        <ele>223.6</ele>
        <time>2022-09-02T10:24:21Z</time>
      </trkpt>
      <trkpt lat="43.1808" lon="2.2588">
        <ele>224.6</ele>
        <time>2022-09-02T10:24:29Z</time>
      </trkpt>
      <trkpt lat="43.18069" lon="2.2587">
        <ele>225.6</ele>
        <time>2022-09-02T10:24:35Z</time>
      </trkpt>
      <trkpt lat="43.18067" lon="2.25868">
        <ele>225.6</ele>
        <time>2022-09-02T10:24:36Z</time>
      </trkpt>
      <trkpt lat="43.18055" lon="2.25855">
        <ele>226.8</ele>
        <time>2022-09-02T10:24:43Z</time>
      </trkpt>
      <trkpt lat="43.18053" lon="2.25852">
        <ele>226.8</ele>
        <time>2022-09-02T10:24:44Z</time>
      </trkpt>
      <trkpt lat="43.18044" lon="2.25832">
        <ele>227.8</ele>
        <time>2022-09-02T10:24:52Z</time>
      </trkpt>
      <trkpt lat="43.1804" lon="2.25815">
        <ele>229</ele>
        <time>2022-09-02T10:24:58Z</time>
      </trkpt>
      <trkpt lat="43.18038" lon="2.25806">
        <ele>229.2</ele>
        <time>2022-09-02T10:25:01Z</time>
      </trkpt>
      <trkpt lat="43.18036" lon="2.25792">
        <ele>230</ele>
        <time>2022-09-02T10:25:06Z</time>
      </trkpt>
      <trkpt lat="43.18033" lon="2.25777">
        <ele>230.8</ele>
        <time>2022-09-02T10:25:11Z</time>
      </trkpt>
      <trkpt lat="43.18033" lon="2.25771">
        <ele>231</ele>
        <time>2022-09-02T10:25:13Z</time>
      </trkpt>
      <trkpt lat="43.18029" lon="2.25754">
        <ele>231.8</ele>
        <time>2022-09-02T10:25:19Z</time>
      </trkpt>
      <trkpt lat="43.18029" lon="2.25748">
        <ele>232.2</ele>
        <time>2022-09-02T10:25:21Z</time>
      </trkpt>
      <trkpt lat="43.18025" lon="2.25729">
        <ele>233</ele>
        <time>2022-09-02T10:25:28Z</time>
      </trkpt>
      <trkpt lat="43.18025" lon="2.25726">
        <ele>233.2</ele>
        <time>2022-09-02T10:25:29Z</time>
      </trkpt>
      <trkpt lat="43.18022" lon="2.25703">
        <ele>234</ele>
        <time>2022-09-02T10:25:37Z</time>
      </trkpt>
      <trkpt lat="43.18021" lon="2.25698">
        <ele>234.2</ele>
        <time>2022-09-02T10:25:39Z</time>
      </trkpt>
      <trkpt lat="43.18018" lon="2.25674">
        <ele>235.2</ele>
        <time>2022-09-02T10:25:47Z</time>
      </trkpt>
      <trkpt lat="43.18013" lon="2.25648">
        <ele>236.2</ele>
        <time>2022-09-02T10:25:56Z</time>
      </trkpt>
      <trkpt lat="43.18013" lon="2.25645">
        <ele>236.4</ele>
        <time>2022-09-02T10:25:57Z</time>
      </trkpt>
      <trkpt lat="43.18009" lon="2.25626">
        <ele>237.6</ele>
        <time>2022-09-02T10:26:04Z</time>
      </trkpt>
      <trkpt lat="43.18009" lon="2.25623">
        <ele>237.6</ele>
        <time>2022-09-02T10:26:05Z</time>
      </trkpt>
      <trkpt lat="43.18006" lon="2.25605">
        <ele>238.6</ele>
        <time>2022-09-02T10:26:11Z</time>
      </trkpt>
      <trkpt lat="43.18005" lon="2.256">
        <ele>238.8</ele>
        <time>2022-09-02T10:26:13Z</time>
      </trkpt>
      <trkpt lat="43.18003" lon="2.25585">
        <ele>239.6</ele>
        <time>2022-09-02T10:26:18Z</time>
      </trkpt>
      <trkpt lat="43.18001" lon="2.25574">
        <ele>240.2</ele>
        <time>2022-09-02T10:26:22Z</time>
      </trkpt>
      <trkpt lat="43.17999" lon="2.25563">
        <ele>240.6</ele>
        <time>2022-09-02T10:26:26Z</time>
      </trkpt>
      <trkpt lat="43.17998" lon="2.25555">
        <ele>241.4</ele>
        <time>2022-09-02T10:26:29Z</time>
      </trkpt>
      <trkpt lat="43.17996" lon="2.25547">
        <ele>241.8</ele>
        <time>2022-09-02T10:26:32Z</time>
      </trkpt>
      <trkpt lat="43.17995" lon="2.25538">
        <ele>242</ele>
        <time>2022-09-02T10:26:35Z</time>
      </trkpt>
      <trkpt lat="43.17993" lon="2.25527">
        <ele>242.8</ele>
        <time>2022-09-02T10:26:39Z</time>
      </trkpt>
      <trkpt lat="43.17991" lon="2.2551">
        <ele>243.4</ele>
        <time>2022-09-02T10:26:45Z</time>
      </trkpt>
      <trkpt lat="43.17989" lon="2.25502">
        <ele>243.8</ele>
        <time>2022-09-02T10:26:48Z</time>
      </trkpt>
      <trkpt lat="43.17986" lon="2.25491">
        <ele>245</ele>
        <time>2022-09-02T10:26:52Z</time>
      </trkpt>
      <trkpt lat="43.17984" lon="2.25486">
        <ele>245</ele>
        <time>2022-09-02T10:26:54Z</time>
      </trkpt>
      <trkpt lat="43.17981" lon="2.25473">
        <ele>246.2</ele>
        <time>2022-09-02T10:26:59Z</time>
      </trkpt>
      <trkpt lat="43.1798" lon="2.25471">
        <ele>246.2</ele>
        <time>2022-09-02T10:27:00Z</time>
      </trkpt>
      <trkpt lat="43.17972" lon="2.25453">
        <ele>246.4</ele>
        <time>2022-09-02T10:27:07Z</time>
      </trkpt>
      <trkpt lat="43.17968" lon="2.25446">
        <ele>247.2</ele>
        <time>2022-09-02T10:27:10Z</time>
      </trkpt>
      <trkpt lat="43.17963" lon="2.25434">
        <ele>247.2</ele>
        <time>2022-09-02T10:27:15Z</time>
      </trkpt>
      <trkpt lat="43.17953" lon="2.25411">
        <ele>247.2</ele>
        <time>2022-09-02T10:27:23Z</time>
      </trkpt>
      <trkpt lat="43.1794" lon="2.25384">
        <ele>247.2</ele>
        <time>2022-09-02T10:27:31Z</time>
      </trkpt>
      <trkpt lat="43.17926" lon="2.2536">
        <ele>247.6</ele>
        <time>2022-09-02T10:27:38Z</time>
      </trkpt>
      <trkpt lat="43.17923" lon="2.25352">
        <ele>248.2</ele>
        <time>2022-09-02T10:27:40Z</time>
      </trkpt>
      <trkpt lat="43.17917" lon="2.25337">
        <ele>247.6</ele>
        <time>2022-09-02T10:27:44Z</time>
      </trkpt>
      <trkpt lat="43.17904" lon="2.25314">
        <ele>248</ele>
        <time>2022-09-02T10:27:50Z</time>
      </trkpt>
      <trkpt lat="43.17881" lon="2.25269">
        <ele>249</ele>
        <time>2022-09-02T10:28:01Z</time>
      </trkpt>
      <trkpt lat="43.17863" lon="2.25233">
        <ele>249.2</ele>
        <time>2022-09-02T10:28:10Z</time>
      </trkpt>
      <trkpt lat="43.17855" lon="2.25217">
        <ele>250.2</ele>
        <time>2022-09-02T10:28:14Z</time>
      </trkpt>
      <trkpt lat="43.17845" lon="2.25197">
        <ele>250.2</ele>
        <time>2022-09-02T10:28:19Z</time>
      </trkpt>
      <trkpt lat="43.17827" lon="2.25166">
        <ele>249.2</ele>
        <time>2022-09-02T10:28:27Z</time>
      </trkpt>
      <trkpt lat="43.17822" lon="2.25159">
        <ele>249.2</ele>
        <time>2022-09-02T10:28:29Z</time>
      </trkpt>
      <trkpt lat="43.17803" lon="2.25136">
        <ele>249.4</ele>
        <time>2022-09-02T10:28:36Z</time>
      </trkpt>
      <trkpt lat="43.17776" lon="2.25109">
        <ele>249.2</ele>
        <time>2022-09-02T10:28:45Z</time>
      </trkpt>
      <trkpt lat="43.17748" lon="2.25082">
        <ele>249.8</ele>
        <time>2022-09-02T10:28:54Z</time>
      </trkpt>
      <trkpt lat="43.17743" lon="2.25076">
        <ele>250.2</ele>
        <time>2022-09-02T10:28:56Z</time>
      </trkpt>
      <trkpt lat="43.17723" lon="2.25054">
        <ele>251</ele>
        <time>2022-09-02T10:29:03Z</time>
      </trkpt>
      <trkpt lat="43.17717" lon="2.25048">
        <ele>251.2</ele>
        <time>2022-09-02T10:29:05Z</time>
      </trkpt>
      <trkpt lat="43.17703" lon="2.25033">
        <ele>252</ele>
        <time>2022-09-02T10:29:10Z</time>
      </trkpt>
      <trkpt lat="43.17694" lon="2.25023">
        <ele>252.4</ele>
        <time>2022-09-02T10:29:13Z</time>
      </trkpt>
      <trkpt lat="43.17683" lon="2.2501">
        <ele>252.8</ele>
        <time>2022-09-02T10:29:17Z</time>
      </trkpt>
      <trkpt lat="43.17665" lon="2.24992">
        <ele>253.6</ele>
        <time>2022-09-02T10:29:23Z</time>
      </trkpt>
      <trkpt lat="43.17662" lon="2.24989">
        <ele>253.8</ele>
        <time>2022-09-02T10:29:24Z</time>
      </trkpt>
      <trkpt lat="43.1764" lon="2.24966">
        <ele>254.2</ele>
        <time>2022-09-02T10:29:32Z</time>
      </trkpt>
      <trkpt lat="43.17628" lon="2.24954">
        <ele>254.6</ele>
        <time>2022-09-02T10:29:36Z</time>
      </trkpt>
      <trkpt lat="43.17617" lon="2.24942">
        <ele>255</ele>
        <time>2022-09-02T10:29:40Z</time>
      </trkpt>
      <trkpt lat="43.17603" lon="2.24926">
        <ele>255.6</ele>
        <time>2022-09-02T10:29:45Z</time>
      </trkpt>
      <trkpt lat="43.17595" lon="2.24915">
        <ele>256.4</ele>
        <time>2022-09-02T10:29:48Z</time>
      </trkpt>
      <trkpt lat="43.17591" lon="2.24908">
        <ele>256.8</ele>
        <time>2022-09-02T10:29:50Z</time>
      </trkpt>
      <trkpt lat="43.1758" lon="2.24885">
        <ele>256.2</ele>
        <time>2022-09-02T10:29:56Z</time>
      </trkpt>
      <trkpt lat="43.1757" lon="2.24847">
        <ele>256.4</ele>
        <time>2022-09-02T10:30:05Z</time>
      </trkpt>
      <trkpt lat="43.17564" lon="2.24815">
        <ele>257</ele>
        <time>2022-09-02T10:30:12Z</time>
      </trkpt>
      <trkpt lat="43.17561" lon="2.24798">
        <ele>257.8</ele>
        <time>2022-09-02T10:30:16Z</time>
      </trkpt>
      <trkpt lat="43.17558" lon="2.24781">
        <ele>258.2</ele>
        <time>2022-09-02T10:30:20Z</time>
      </trkpt>
      <trkpt lat="43.17562" lon="2.24743">
        <ele>258.2</ele>
        <time>2022-09-02T10:30:29Z</time>
      </trkpt>
      <trkpt lat="43.17573" lon="2.24715">
        <ele>258.6</ele>
        <time>2022-09-02T10:30:36Z</time>
      </trkpt>
      <trkpt lat="43.17581" lon="2.24701">
        <ele>258.8</ele>
        <time>2022-09-02T10:30:40Z</time>
      </trkpt>
      <trkpt lat="43.1759" lon="2.24681">
        <ele>259</ele>
        <time>2022-09-02T10:30:45Z</time>
      </trkpt>
      <trkpt lat="43.17603" lon="2.24656">
        <ele>259.6</ele>
        <time>2022-09-02T10:30:52Z</time>
      </trkpt>
      <trkpt lat="43.17619" lon="2.2462">
        <ele>259.8</ele>
        <time>2022-09-02T10:31:01Z</time>
      </trkpt>
      <trkpt lat="43.17624" lon="2.24584">
        <ele>260.4</ele>
        <time>2022-09-02T10:31:09Z</time>
      </trkpt>
      <trkpt lat="43.17617" lon="2.24553">
        <ele>261.2</ele>
        <time>2022-09-02T10:31:16Z</time>
      </trkpt>
      <trkpt lat="43.17603" lon="2.24526">
        <ele>261</ele>
        <time>2022-09-02T10:31:23Z</time>
      </trkpt>
      <trkpt lat="43.17588" lon="2.24513">
        <ele>261.2</ele>
        <time>2022-09-02T10:31:28Z</time>
      </trkpt>
      <trkpt lat="43.1757" lon="2.24508">
        <ele>261.8</ele>
        <time>2022-09-02T10:31:34Z</time>
      </trkpt>
      <trkpt lat="43.17557" lon="2.24507">
        <ele>262.2</ele>
        <time>2022-09-02T10:31:38Z</time>
      </trkpt>
      <trkpt lat="43.17544" lon="2.24506">
        <ele>262.8</ele>
        <time>2022-09-02T10:31:42Z</time>
      </trkpt>
      <trkpt lat="43.17538" lon="2.24506">
        <ele>263.2</ele>
        <time>2022-09-02T10:31:44Z</time>
      </trkpt>
      <trkpt lat="43.17522" lon="2.24508">
        <ele>263.8</ele>
        <time>2022-09-02T10:31:50Z</time>
      </trkpt>
      <trkpt lat="43.17514" lon="2.24508">
        <ele>264.4</ele>
        <time>2022-09-02T10:31:53Z</time>
      </trkpt>
      <trkpt lat="43.17507" lon="2.24506">
        <ele>264.6</ele>
        <time>2022-09-02T10:31:56Z</time>
      </trkpt>
      <trkpt lat="43.17492" lon="2.24507">
        <ele>265.2</ele>
        <time>2022-09-02T10:32:02Z</time>
      </trkpt>
      <trkpt lat="43.17489" lon="2.24507">
        <ele>265.4</ele>
        <time>2022-09-02T10:32:03Z</time>
      </trkpt>
      <trkpt lat="43.17474" lon="2.24506">
        <ele>266.4</ele>
        <time>2022-09-02T10:32:09Z</time>
      </trkpt>
      <trkpt lat="43.17456" lon="2.24506">
        <ele>267.4</ele>
        <time>2022-09-02T10:32:16Z</time>
      </trkpt>
      <trkpt lat="43.17451" lon="2.24505">
        <ele>267.8</ele>
        <time>2022-09-02T10:32:18Z</time>
      </trkpt>
      <trkpt lat="43.17445" lon="2.24506">
        <ele>268.4</ele>
        <time>2022-09-02T10:32:20Z</time>
      </trkpt>
      <trkpt lat="43.17428" lon="2.24503">
        <ele>269.4</ele>
        <time>2022-09-02T10:32:27Z</time>
      </trkpt>
      <trkpt lat="43.17425" lon="2.24502">
        <ele>269.6</ele>
        <time>2022-09-02T10:32:28Z</time>
      </trkpt>
      <trkpt lat="43.17411" lon="2.24489">
        <ele>270.6</ele>
        <time>2022-09-02T10:32:35Z</time>
      </trkpt>
      <trkpt lat="43.17404" lon="2.24473">
        <ele>271.6</ele>
        <time>2022-09-02T10:32:41Z</time>
      </trkpt>
      <trkpt lat="43.17403" lon="2.2447">
        <ele>271.8</ele>
        <time>2022-09-02T10:32:42Z</time>
      </trkpt>
      <trkpt lat="43.17398" lon="2.24448">
        <ele>272.8</ele>
        <time>2022-09-02T10:32:50Z</time>
      </trkpt>
      <trkpt lat="43.17398" lon="2.24445">
        <ele>272.8</ele>
        <time>2022-09-02T10:32:51Z</time>
      </trkpt>
      <trkpt lat="43.17394" lon="2.24421">
        <ele>273.8</ele>
        <time>2022-09-02T10:32:58Z</time>
      </trkpt>
      <trkpt lat="43.17388" lon="2.2439">
        <ele>274</ele>
        <time>2022-09-02T10:33:06Z</time>
      </trkpt>
      <trkpt lat="43.17383" lon="2.24366">
        <ele>274.4</ele>
        <time>2022-09-02T10:33:12Z</time>
      </trkpt>
      <trkpt lat="43.17379" lon="2.24347">
        <ele>274.8</ele>
        <time>2022-09-02T10:33:17Z</time>
      </trkpt>
      <trkpt lat="43.17378" lon="2.24343">
        <ele>274.8</ele>
        <time>2022-09-02T10:33:18Z</time>
      </trkpt>
      <trkpt lat="43.17364" lon="2.24315">
        <ele>275.6</ele>
        <time>2022-09-02T10:33:25Z</time>
      </trkpt>
      <trkpt lat="43.17361" lon="2.24311">
        <ele>276</ele>
        <time>2022-09-02T10:33:26Z</time>
      </trkpt>
      <trkpt lat="43.17346" lon="2.24292">
        <ele>276.2</ele>
        <time>2022-09-02T10:33:32Z</time>
      </trkpt>
      <trkpt lat="43.1733" lon="2.24274">
        <ele>276.4</ele>
        <time>2022-09-02T10:33:39Z</time>
      </trkpt>
      <trkpt lat="43.17319" lon="2.24261">
        <ele>277</ele>
        <time>2022-09-02T10:33:44Z</time>
      </trkpt>
      <trkpt lat="43.17314" lon="2.24255">
        <ele>277.2</ele>
        <time>2022-09-02T10:33:47Z</time>
      </trkpt>
      <trkpt lat="43.173" lon="2.24238">
        <ele>278.2</ele>
        <time>2022-09-02T10:33:54Z</time>
      </trkpt>
      <trkpt lat="43.17298" lon="2.24235">
        <ele>278.4</ele>
        <time>2022-09-02T10:33:55Z</time>
      </trkpt>
      <trkpt lat="43.17283" lon="2.24216">
        <ele>278.8</ele>
        <time>2022-09-02T10:34:03Z</time>
      </trkpt>
      <trkpt lat="43.17275" lon="2.24207">
        <ele>279.2</ele>
        <time>2022-09-02T10:34:07Z</time>
      </trkpt>
      <trkpt lat="43.17269" lon="2.24199">
        <ele>279.6</ele>
        <time>2022-09-02T10:34:10Z</time>
      </trkpt>
      <trkpt lat="43.17257" lon="2.2419">
        <ele>280.4</ele>
        <time>2022-09-02T10:34:15Z</time>
      </trkpt>
      <trkpt lat="43.17251" lon="2.24188">
        <ele>280.6</ele>
        <time>2022-09-02T10:34:17Z</time>
      </trkpt>
      <trkpt lat="43.17234" lon="2.24187">
        <ele>281.4</ele>
        <time>2022-09-02T10:34:23Z</time>
      </trkpt>
      <trkpt lat="43.17231" lon="2.24187">
        <ele>281.4</ele>
        <time>2022-09-02T10:34:24Z</time>
      </trkpt>
      <trkpt lat="43.17218" lon="2.24198">
        <ele>282</ele>
        <time>2022-09-02T10:34:30Z</time>
      </trkpt>
      <trkpt lat="43.17211" lon="2.24205">
        <ele>282.4</ele>
        <time>2022-09-02T10:34:33Z</time>
      </trkpt>
      <trkpt lat="43.17198" lon="2.24211">
        <ele>282.8</ele>
        <time>2022-09-02T10:34:38Z</time>
      </trkpt>
      <trkpt lat="43.17186" lon="2.24207">
        <ele>283.6</ele>
        <time>2022-09-02T10:34:43Z</time>
      </trkpt>
      <trkpt lat="43.17178" lon="2.24193">
        <ele>284</ele>
        <time>2022-09-02T10:34:49Z</time>
      </trkpt>
      <trkpt lat="43.17182" lon="2.2417">
        <ele>284.6</ele>
        <time>2022-09-02T10:34:56Z</time>
      </trkpt>
      <trkpt lat="43.17183" lon="2.24167">
        <ele>284.6</ele>
        <time>2022-09-02T10:34:57Z</time>
      </trkpt>
      <trkpt lat="43.17195" lon="2.24139">
        <ele>285.4</ele>
        <time>2022-09-02T10:35:06Z</time>
      </trkpt>
      <trkpt lat="43.17197" lon="2.24136">
        <ele>285.6</ele>
        <time>2022-09-02T10:35:07Z</time>
      </trkpt>
      <trkpt lat="43.17205" lon="2.24117">
        <ele>286.2</ele>
        <time>2022-09-02T10:35:13Z</time>
      </trkpt>
      <trkpt lat="43.17207" lon="2.24111">
        <ele>286.6</ele>
        <time>2022-09-02T10:35:15Z</time>
      </trkpt>
      <trkpt lat="43.17214" lon="2.24095">
        <ele>287.6</ele>
        <time>2022-09-02T10:35:20Z</time>
      </trkpt>
      <trkpt lat="43.17215" lon="2.24089">
        <ele>288</ele>
        <time>2022-09-02T10:35:22Z</time>
      </trkpt>
      <trkpt lat="43.1722" lon="2.24068">
        <ele>288.2</ele>
        <time>2022-09-02T10:35:28Z</time>
      </trkpt>
      <trkpt lat="43.1722" lon="2.24061">
        <ele>288.8</ele>
        <time>2022-09-02T10:35:30Z</time>
      </trkpt>
      <trkpt lat="43.1722" lon="2.24041">
        <ele>289.2</ele>
        <time>2022-09-02T10:35:35Z</time>
      </trkpt>
      <trkpt lat="43.17217" lon="2.24025">
        <ele>289.8</ele>
        <time>2022-09-02T10:35:39Z</time>
      </trkpt>
      <trkpt lat="43.17212" lon="2.24008">
        <ele>290</ele>
        <time>2022-09-02T10:35:43Z</time>
      </trkpt>
      <trkpt lat="43.17199" lon="2.23976">
        <ele>290.8</ele>
        <time>2022-09-02T10:35:51Z</time>
      </trkpt>
      <trkpt lat="43.17184" lon="2.23945">
        <ele>291</ele>
        <time>2022-09-02T10:35:59Z</time>
      </trkpt>
      <trkpt lat="43.17172" lon="2.23917">
        <ele>291.2</ele>
        <time>2022-09-02T10:36:06Z</time>
      </trkpt>
      <trkpt lat="43.17156" lon="2.23894">
        <ele>291.4</ele>
        <time>2022-09-02T10:36:14Z</time>
      </trkpt>
      <trkpt lat="43.17144" lon="2.23871">
        <ele>291.6</ele>
        <time>2022-09-02T10:36:20Z</time>
      </trkpt>
      <trkpt lat="43.17128" lon="2.23848">
        <ele>291.6</ele>
        <time>2022-09-02T10:36:27Z</time>
      </trkpt>
      <trkpt lat="43.17112" lon="2.23829">
        <ele>292</ele>
        <time>2022-09-02T10:36:33Z</time>
      </trkpt>
      <trkpt lat="43.17105" lon="2.23819">
        <ele>292.2</ele>
        <time>2022-09-02T10:36:36Z</time>
      </trkpt>
      <trkpt lat="43.1709" lon="2.23788">
        <ele>292.8</ele>
        <time>2022-09-02T10:36:44Z</time>
      </trkpt>
      <trkpt lat="43.17086" lon="2.23775">
        <ele>293</ele>
        <time>2022-09-02T10:36:47Z</time>
      </trkpt>
      <trkpt lat="43.17079" lon="2.23747">
        <ele>293.4</ele>
        <time>2022-09-02T10:36:53Z</time>
      </trkpt>
      <trkpt lat="43.17065" lon="2.23715">
        <ele>293.8</ele>
        <time>2022-09-02T10:37:01Z</time>
      </trkpt>
      <trkpt lat="43.1705" lon="2.23705">
        <ele>293.8</ele>
        <time>2022-09-02T10:37:06Z</time>
      </trkpt>
      <trkpt lat="43.1704" lon="2.23701">
        <ele>294.2</ele>
        <time>2022-09-02T10:37:09Z</time>
      </trkpt>
      <trkpt lat="43.17031" lon="2.23697">
        <ele>294.4</ele>
        <time>2022-09-02T10:37:12Z</time>
      </trkpt>
      <trkpt lat="43.17019" lon="2.23694">
        <ele>295.2</ele>
        <time>2022-09-02T10:37:16Z</time>
      </trkpt>
      <trkpt lat="43.17012" lon="2.23694">
        <ele>295.6</ele>
        <time>2022-09-02T10:37:18Z</time>
      </trkpt>
      <trkpt lat="43.16989" lon="2.2369">
        <ele>296.2</ele>
        <time>2022-09-02T10:37:26Z</time>
      </trkpt>
      <trkpt lat="43.16986" lon="2.23691">
        <ele>296.4</ele>
        <time>2022-09-02T10:37:27Z</time>
      </trkpt>
      <trkpt lat="43.16967" lon="2.23701">
        <ele>297</ele>
        <time>2022-09-02T10:37:34Z</time>
      </trkpt>
      <trkpt lat="43.16964" lon="2.23703">
        <ele>297.2</ele>
        <time>2022-09-02T10:37:35Z</time>
      </trkpt>
      <trkpt lat="43.16949" lon="2.23725">
        <ele>298.2</ele>
        <time>2022-09-02T10:37:42Z</time>
      </trkpt>
      <trkpt lat="43.16945" lon="2.23731">
        <ele>298.2</ele>
        <time>2022-09-02T10:37:44Z</time>
      </trkpt>
      <trkpt lat="43.16934" lon="2.23749">
        <ele>298.4</ele>
        <time>2022-09-02T10:37:50Z</time>
      </trkpt>
      <trkpt lat="43.16922" lon="2.23766">
        <ele>299</ele>
        <time>2022-09-02T10:37:56Z</time>
      </trkpt>
      <trkpt lat="43.16909" lon="2.23782">
        <ele>299.4</ele>
        <time>2022-09-02T10:38:02Z</time>
      </trkpt>
      <trkpt lat="43.16906" lon="2.23784">
        <ele>299.4</ele>
        <time>2022-09-02T10:38:03Z</time>
      </trkpt>
      <trkpt lat="43.16891" lon="2.23784">
        <ele>299.8</ele>
        <time>2022-09-02T10:38:08Z</time>
      </trkpt>
      <trkpt lat="43.16885" lon="2.23777">
        <ele>300.6</ele>
        <time>2022-09-02T10:38:11Z</time>
      </trkpt>
      <trkpt lat="43.16881" lon="2.23772">
        <ele>301.4</ele>
        <time>2022-09-02T10:38:13Z</time>
      </trkpt>
      <trkpt lat="43.16878" lon="2.23757">
        <ele>301.2</ele>
        <time>2022-09-02T10:38:18Z</time>
      </trkpt>
      <trkpt lat="43.16882" lon="2.23738">
        <ele>301.4</ele>
        <time>2022-09-02T10:38:24Z</time>
      </trkpt>
      <trkpt lat="43.16888" lon="2.23727">
        <ele>301.6</ele>
        <time>2022-09-02T10:38:28Z</time>
      </trkpt>
      <trkpt lat="43.16893" lon="2.23721">
        <ele>302.6</ele>
        <time>2022-09-02T10:38:31Z</time>
      </trkpt>
      <trkpt lat="43.16894" lon="2.23719">
        <ele>302.6</ele>
        <time>2022-09-02T10:38:32Z</time>
      </trkpt>
      <trkpt lat="43.16901" lon="2.23705">
        <ele>303</ele>
        <time>2022-09-02T10:38:36Z</time>
      </trkpt>
      <trkpt lat="43.16911" lon="2.23681">
        <ele>303.2</ele>
        <time>2022-09-02T10:38:43Z</time>
      </trkpt>
      <trkpt lat="43.16912" lon="2.23664">
        <ele>303.8</ele>
        <time>2022-09-02T10:38:47Z</time>
      </trkpt>
      <trkpt lat="43.16911" lon="2.23656">
        <ele>304</ele>
        <time>2022-09-02T10:38:49Z</time>
      </trkpt>
      <trkpt lat="43.169" lon="2.23638">
        <ele>304.8</ele>
        <time>2022-09-02T10:38:55Z</time>
      </trkpt>
      <trkpt lat="43.16898" lon="2.23636">
        <ele>304.8</ele>
        <time>2022-09-02T10:38:56Z</time>
      </trkpt>
      <trkpt lat="43.16884" lon="2.23615">
        <ele>305.2</ele>
        <time>2022-09-02T10:39:03Z</time>
      </trkpt>
      <trkpt lat="43.16883" lon="2.23595">
        <ele>305.6</ele>
        <time>2022-09-02T10:39:08Z</time>
      </trkpt>
      <trkpt lat="43.16884" lon="2.23588">
        <ele>305.8</ele>
        <time>2022-09-02T10:39:10Z</time>
      </trkpt>
      <trkpt lat="43.16891" lon="2.23575">
        <ele>306.2</ele>
        <time>2022-09-02T10:39:14Z</time>
      </trkpt>
      <trkpt lat="43.16894" lon="2.23565">
        <ele>307</ele>
        <time>2022-09-02T10:39:17Z</time>
      </trkpt>
      <trkpt lat="43.16897" lon="2.23554">
        <ele>307.2</ele>
        <time>2022-09-02T10:39:20Z</time>
      </trkpt>
      <trkpt lat="43.16898" lon="2.23532">
        <ele>307.6</ele>
        <time>2022-09-02T10:39:26Z</time>
      </trkpt>
      <trkpt lat="43.16892" lon="2.23516">
        <ele>308.2</ele>
        <time>2022-09-02T10:39:30Z</time>
      </trkpt>
      <trkpt lat="43.16888" lon="2.23508">
        <ele>308.6</ele>
        <time>2022-09-02T10:39:32Z</time>
      </trkpt>
      <trkpt lat="43.1688" lon="2.23478">
        <ele>308.8</ele>
        <time>2022-09-02T10:39:40Z</time>
      </trkpt>
      <trkpt lat="43.1688" lon="2.23469">
        <ele>309.2</ele>
        <time>2022-09-02T10:39:42Z</time>
      </trkpt>
      <trkpt lat="43.1688" lon="2.23444">
        <ele>309.6</ele>
        <time>2022-09-02T10:39:48Z</time>
      </trkpt>
      <trkpt lat="43.1688" lon="2.23428">
        <ele>310.2</ele>
        <time>2022-09-02T10:39:52Z</time>
      </trkpt>
      <trkpt lat="43.1688" lon="2.2342">
        <ele>310.2</ele>
        <time>2022-09-02T10:39:54Z</time>
      </trkpt>
      <trkpt lat="43.16876" lon="2.23396">
        <ele>311.2</ele>
        <time>2022-09-02T10:40:00Z</time>
      </trkpt>
      <trkpt lat="43.16875" lon="2.23393">
        <ele>311.2</ele>
        <time>2022-09-02T10:40:01Z</time>
      </trkpt>
      <trkpt lat="43.16864" lon="2.23375">
        <ele>312.2</ele>
        <time>2022-09-02T10:40:07Z</time>
      </trkpt>
      <trkpt lat="43.16861" lon="2.23373">
        <ele>312.4</ele>
        <time>2022-09-02T10:40:08Z</time>
      </trkpt>
      <trkpt lat="43.16843" lon="2.2336">
        <ele>313</ele>
        <time>2022-09-02T10:40:15Z</time>
      </trkpt>
      <trkpt lat="43.1682" lon="2.23357">
        <ele>313.4</ele>
        <time>2022-09-02T10:40:23Z</time>
      </trkpt>
      <trkpt lat="43.16801" lon="2.23357">
        <ele>314.4</ele>
        <time>2022-09-02T10:40:30Z</time>
      </trkpt>
      <trkpt lat="43.16783" lon="2.23367">
        <ele>314.6</ele>
        <time>2022-09-02T10:40:36Z</time>
      </trkpt>
      <trkpt lat="43.16769" lon="2.23379">
        <ele>315.4</ele>
        <time>2022-09-02T10:40:41Z</time>
      </trkpt>
      <trkpt lat="43.16763" lon="2.23382">
        <ele>315.2</ele>
        <time>2022-09-02T10:40:43Z</time>
      </trkpt>
      <trkpt lat="43.16748" lon="2.2338">
        <ele>315</ele>
        <time>2022-09-02T10:40:48Z</time>
      </trkpt>
      <trkpt lat="43.16739" lon="2.23366">
        <ele>316</ele>
        <time>2022-09-02T10:40:53Z</time>
      </trkpt>
      <trkpt lat="43.16737" lon="2.23345">
        <ele>316.4</ele>
        <time>2022-09-02T10:40:59Z</time>
      </trkpt>
      <trkpt lat="43.16738" lon="2.23338">
        <ele>316.4</ele>
        <time>2022-09-02T10:41:01Z</time>
      </trkpt>
      <trkpt lat="43.16742" lon="2.23321">
        <ele>316.6</ele>
        <time>2022-09-02T10:41:06Z</time>
      </trkpt>
      <trkpt lat="43.16745" lon="2.23304">
        <ele>317.2</ele>
        <time>2022-09-02T10:41:11Z</time>
      </trkpt>
      <trkpt lat="43.16746" lon="2.23297">
        <ele>317.4</ele>
        <time>2022-09-02T10:41:13Z</time>
      </trkpt>
      <trkpt lat="43.16749" lon="2.23279">
        <ele>318</ele>
        <time>2022-09-02T10:41:18Z</time>
      </trkpt>
      <trkpt lat="43.1675" lon="2.2326">
        <ele>318.6</ele>
        <time>2022-09-02T10:41:23Z</time>
      </trkpt>
      <trkpt lat="43.1675" lon="2.23252">
        <ele>318.8</ele>
        <time>2022-09-02T10:41:25Z</time>
      </trkpt>
      <trkpt lat="43.16743" lon="2.23228">
        <ele>319.6</ele>
        <time>2022-09-02T10:41:31Z</time>
      </trkpt>
      <trkpt lat="43.16741" lon="2.23225">
        <ele>319.6</ele>
        <time>2022-09-02T10:41:32Z</time>
      </trkpt>
      <trkpt lat="43.16726" lon="2.23213">
        <ele>320.4</ele>
        <time>2022-09-02T10:41:38Z</time>
      </trkpt>
      <trkpt lat="43.16723" lon="2.2321">
        <ele>320.8</ele>
        <time>2022-09-02T10:41:39Z</time>
      </trkpt>
      <trkpt lat="43.16714" lon="2.23194">
        <ele>321</ele>
        <time>2022-09-02T10:41:44Z</time>
      </trkpt>
      <trkpt lat="43.16708" lon="2.23171">
        <ele>321.2</ele>
        <time>2022-09-02T10:41:50Z</time>
      </trkpt>
      <trkpt lat="43.16707" lon="2.23148">
        <ele>321.8</ele>
        <time>2022-09-02T10:41:56Z</time>
      </trkpt>
      <trkpt lat="43.16707" lon="2.2314">
        <ele>322</ele>
        <time>2022-09-02T10:41:58Z</time>
      </trkpt>
      <trkpt lat="43.16704" lon="2.23109">
        <ele>322.4</ele>
        <time>2022-09-02T10:42:06Z</time>
      </trkpt>
      <trkpt lat="43.16702" lon="2.23088">
        <ele>322.8</ele>
        <time>2022-09-02T10:42:11Z</time>
      </trkpt>
      <trkpt lat="43.16701" lon="2.23076">
        <ele>323.2</ele>
        <time>2022-09-02T10:42:14Z</time>
      </trkpt>
      <trkpt lat="43.16699" lon="2.23049">
        <ele>323.8</ele>
        <time>2022-09-02T10:42:21Z</time>
      </trkpt>
      <trkpt lat="43.16698" lon="2.23045">
        <ele>323.8</ele>
        <time>2022-09-02T10:42:22Z</time>
      </trkpt>
      <trkpt lat="43.16689" lon="2.23023">
        <ele>324.4</ele>
        <time>2022-09-02T10:42:29Z</time>
      </trkpt>
      <trkpt lat="43.16684" lon="2.23014">
        <ele>325</ele>
        <time>2022-09-02T10:42:32Z</time>
      </trkpt>
      <trkpt lat="43.16674" lon="2.23002">
        <ele>325.2</ele>
        <time>2022-09-02T10:42:37Z</time>
      </trkpt>
      <trkpt lat="43.16661" lon="2.22991">
        <ele>326</ele>
        <time>2022-09-02T10:42:42Z</time>
      </trkpt>
      <trkpt lat="43.16649" lon="2.22981">
        <ele>326.6</ele>
        <time>2022-09-02T10:42:47Z</time>
      </trkpt>
      <trkpt lat="43.1664" lon="2.22976">
        <ele>327</ele>
        <time>2022-09-02T10:42:51Z</time>
      </trkpt>
      <trkpt lat="43.16632" lon="2.22973">
        <ele>327.6</ele>
        <time>2022-09-02T10:42:55Z</time>
      </trkpt>
      <trkpt lat="43.16628" lon="2.22967">
        <ele>328</ele>
        <time>2022-09-02T10:42:58Z</time>
      </trkpt>
      <trkpt lat="43.16623" lon="2.22964">
        <ele>328.4</ele>
        <time>2022-09-02T10:43:00Z</time>
      </trkpt>
      <trkpt lat="43.16608" lon="2.22952">
        <ele>329.2</ele>
        <time>2022-09-02T10:43:07Z</time>
      </trkpt>
      <trkpt lat="43.16606" lon="2.2295">
        <ele>329.2</ele>
        <time>2022-09-02T10:43:08Z</time>
      </trkpt>
      <trkpt lat="43.16589" lon="2.22941">
        <ele>329.8</ele>
        <time>2022-09-02T10:43:16Z</time>
      </trkpt>
      <trkpt lat="43.16583" lon="2.22938">
        <ele>329.8</ele>
        <time>2022-09-02T10:43:22Z</time>
      </trkpt>
      <trkpt lat="43.16578" lon="2.22931">
        <ele>330.2</ele>
        <time>2022-09-02T10:45:20Z</time>
      </trkpt>
      <trkpt lat="43.16574" lon="2.22926">
        <ele>330.4</ele>
        <time>2022-09-02T10:45:22Z</time>
      </trkpt>
      <trkpt lat="43.16568" lon="2.2292">
        <ele>330.6</ele>
        <time>2022-09-02T10:45:25Z</time>
      </trkpt>
      <trkpt lat="43.16559" lon="2.22915">
        <ele>331</ele>
        <time>2022-09-02T10:45:29Z</time>
      </trkpt>
      <trkpt lat="43.16549" lon="2.22905">
        <ele>331.4</ele>
        <time>2022-09-02T10:45:34Z</time>
      </trkpt>
      <trkpt lat="43.16543" lon="2.22899">
        <ele>331.6</ele>
        <time>2022-09-02T10:45:37Z</time>
      </trkpt>
      <trkpt lat="43.16533" lon="2.22886">
        <ele>332.4</ele>
        <time>2022-09-02T10:45:43Z</time>
      </trkpt>
      <trkpt lat="43.16532" lon="2.22883">
        <ele>332.4</ele>
        <time>2022-09-02T10:45:44Z</time>
      </trkpt>
      <trkpt lat="43.16524" lon="2.22865">
        <ele>333</ele>
        <time>2022-09-02T10:45:51Z</time>
      </trkpt>
      <trkpt lat="43.1652" lon="2.22856">
        <ele>333.4</ele>
        <time>2022-09-02T10:45:54Z</time>
      </trkpt>
      <trkpt lat="43.16518" lon="2.22839">
        <ele>334.2</ele>
        <time>2022-09-02T10:45:59Z</time>
      </trkpt>
      <trkpt lat="43.16517" lon="2.2283">
        <ele>334.4</ele>
        <time>2022-09-02T10:46:02Z</time>
      </trkpt>
      <trkpt lat="43.16515" lon="2.22813">
        <ele>335</ele>
        <time>2022-09-02T10:46:07Z</time>
      </trkpt>
      <trkpt lat="43.16514" lon="2.22798">
        <ele>335.6</ele>
        <time>2022-09-02T10:46:11Z</time>
      </trkpt>
      <trkpt lat="43.16513" lon="2.22781">
        <ele>336.2</ele>
        <time>2022-09-02T10:46:16Z</time>
      </trkpt>
      <trkpt lat="43.16511" lon="2.22753">
        <ele>336.8</ele>
        <time>2022-09-02T10:46:24Z</time>
      </trkpt>
      <trkpt lat="43.16511" lon="2.2275">
        <ele>336.8</ele>
        <time>2022-09-02T10:46:25Z</time>
      </trkpt>
      <trkpt lat="43.16511" lon="2.22726">
        <ele>337.8</ele>
        <time>2022-09-02T10:46:32Z</time>
      </trkpt>
      <trkpt lat="43.16511" lon="2.22723">
        <ele>337.8</ele>
        <time>2022-09-02T10:46:33Z</time>
      </trkpt>
      <trkpt lat="43.16517" lon="2.22704">
        <ele>338.2</ele>
        <time>2022-09-02T10:46:40Z</time>
      </trkpt>
      <trkpt lat="43.16528" lon="2.22687">
        <ele>338.8</ele>
        <time>2022-09-02T10:46:47Z</time>
      </trkpt>
      <trkpt lat="43.16532" lon="2.22681">
        <ele>338.8</ele>
        <time>2022-09-02T10:46:49Z</time>
      </trkpt>
      <trkpt lat="43.16541" lon="2.22662">
        <ele>340</ele>
        <time>2022-09-02T10:46:56Z</time>
      </trkpt>
      <trkpt lat="43.16543" lon="2.2266">
        <ele>340</ele>
        <time>2022-09-02T10:46:57Z</time>
      </trkpt>
      <trkpt lat="43.16547" lon="2.22637">
        <ele>340.6</ele>
        <time>2022-09-02T10:47:04Z</time>
      </trkpt>
      <trkpt lat="43.16545" lon="2.22618">
        <ele>341.2</ele>
        <time>2022-09-02T10:47:09Z</time>
      </trkpt>
      <trkpt lat="43.16544" lon="2.2261">
        <ele>341.6</ele>
        <time>2022-09-02T10:47:11Z</time>
      </trkpt>
      <trkpt lat="43.16539" lon="2.22578">
        <ele>341.4</ele>
        <time>2022-09-02T10:47:19Z</time>
      </trkpt>
      <trkpt lat="43.16531" lon="2.22538">
        <ele>341.8</ele>
        <time>2022-09-02T10:47:30Z</time>
      </trkpt>
      <trkpt lat="43.16526" lon="2.22523">
        <ele>342.2</ele>
        <time>2022-09-02T10:47:34Z</time>
      </trkpt>
      <trkpt lat="43.16521" lon="2.22514">
        <ele>342.2</ele>
        <time>2022-09-02T10:47:37Z</time>
      </trkpt>
      <trkpt lat="43.16506" lon="2.22497">
        <ele>343.4</ele>
        <time>2022-09-02T10:47:44Z</time>
      </trkpt>
      <trkpt lat="43.16493" lon="2.22485">
        <ele>344.4</ele>
        <time>2022-09-02T10:47:51Z</time>
      </trkpt>
      <trkpt lat="43.1648" lon="2.22473">
        <ele>345.6</ele>
        <time>2022-09-02T10:47:58Z</time>
      </trkpt>
      <trkpt lat="43.16477" lon="2.22468">
        <ele>346</ele>
        <time>2022-09-02T10:48:00Z</time>
      </trkpt>
      <trkpt lat="43.16467" lon="2.22455">
        <ele>346.8</ele>
        <time>2022-09-02T10:48:06Z</time>
      </trkpt>
      <trkpt lat="43.16464" lon="2.2245">
        <ele>347</ele>
        <time>2022-09-02T10:48:08Z</time>
      </trkpt>
      <trkpt lat="43.16458" lon="2.22439">
        <ele>347.8</ele>
        <time>2022-09-02T10:48:13Z</time>
      </trkpt>
      <trkpt lat="43.16455" lon="2.22434">
        <ele>348</ele>
        <time>2022-09-02T10:48:15Z</time>
      </trkpt>
      <trkpt lat="43.16451" lon="2.2242">
        <ele>348.8</ele>
        <time>2022-09-02T10:48:21Z</time>
      </trkpt>
      <trkpt lat="43.16449" lon="2.22412">
        <ele>349.4</ele>
        <time>2022-09-02T10:48:24Z</time>
      </trkpt>
      <trkpt lat="43.16448" lon="2.22407">
        <ele>350</ele>
        <time>2022-09-02T10:48:26Z</time>
      </trkpt>
      <trkpt lat="43.16445" lon="2.22394">
        <ele>350.6</ele>
        <time>2022-09-02T10:48:31Z</time>
      </trkpt>
      <trkpt lat="43.16445" lon="2.22383">
        <ele>351.2</ele>
        <time>2022-09-02T10:48:35Z</time>
      </trkpt>
      <trkpt lat="43.16446" lon="2.22372">
        <ele>351.8</ele>
        <time>2022-09-02T10:48:39Z</time>
      </trkpt>
      <trkpt lat="43.16446" lon="2.22368">
        <ele>352.2</ele>
        <time>2022-09-02T10:48:41Z</time>
      </trkpt>
      <trkpt lat="43.16446" lon="2.22357">
        <ele>352.2</ele>
        <time>2022-09-02T10:48:45Z</time>
      </trkpt>
      <trkpt lat="43.16448" lon="2.22336">
        <ele>353.2</ele>
        <time>2022-09-02T10:48:53Z</time>
      </trkpt>
      <trkpt lat="43.16449" lon="2.22317">
        <ele>354.2</ele>
        <time>2022-09-02T10:49:00Z</time>
      </trkpt>
      <trkpt lat="43.16449" lon="2.22314">
        <ele>354.4</ele>
        <time>2022-09-02T10:49:01Z</time>
      </trkpt>
      <trkpt lat="43.16451" lon="2.22296">
        <ele>355</ele>
        <time>2022-09-02T10:49:08Z</time>
      </trkpt>
      <trkpt lat="43.16452" lon="2.22288">
        <ele>355.6</ele>
        <time>2022-09-02T10:49:11Z</time>
      </trkpt>
      <trkpt lat="43.16451" lon="2.22272">
        <ele>356.4</ele>
        <time>2022-09-02T10:49:17Z</time>
      </trkpt>
      <trkpt lat="43.16452" lon="2.2227">
        <ele>356.6</ele>
        <time>2022-09-02T10:49:18Z</time>
      </trkpt>
      <trkpt lat="43.16452" lon="2.22251">
        <ele>357.6</ele>
        <time>2022-09-02T10:49:25Z</time>
      </trkpt>
      <trkpt lat="43.16452" lon="2.22248">
        <ele>357.8</ele>
        <time>2022-09-02T10:49:26Z</time>
      </trkpt>
      <trkpt lat="43.16452" lon="2.22231">
        <ele>358.8</ele>
        <time>2022-09-02T10:49:32Z</time>
      </trkpt>
      <trkpt lat="43.16453" lon="2.22225">
        <ele>359</ele>
        <time>2022-09-02T10:49:34Z</time>
      </trkpt>
      <trkpt lat="43.16449" lon="2.22202">
        <ele>360</ele>
        <time>2022-09-02T10:49:42Z</time>
      </trkpt>
      <trkpt lat="43.16441" lon="2.22185">
        <ele>360.8</ele>
        <time>2022-09-02T10:49:49Z</time>
      </trkpt>
      <trkpt lat="43.16438" lon="2.22181">
        <ele>361</ele>
        <time>2022-09-02T10:49:51Z</time>
      </trkpt>
      <trkpt lat="43.16432" lon="2.22174">
        <ele>361.8</ele>
        <time>2022-09-02T10:49:55Z</time>
      </trkpt>
      <trkpt lat="43.16427" lon="2.22169">
        <ele>362.2</ele>
        <time>2022-09-02T10:49:58Z</time>
      </trkpt>
      <trkpt lat="43.1642" lon="2.22163">
        <ele>362.6</ele>
        <time>2022-09-02T10:50:02Z</time>
      </trkpt>
      <trkpt lat="43.16413" lon="2.22157">
        <ele>363.4</ele>
        <time>2022-09-02T10:50:06Z</time>
      </trkpt>
      <trkpt lat="43.16405" lon="2.22151">
        <ele>363.8</ele>
        <time>2022-09-02T10:50:11Z</time>
      </trkpt>
      <trkpt lat="43.16398" lon="2.22145">
        <ele>364.4</ele>
        <time>2022-09-02T10:50:15Z</time>
      </trkpt>
      <trkpt lat="43.16394" lon="2.22142">
        <ele>364.8</ele>
        <time>2022-09-02T10:50:17Z</time>
      </trkpt>
      <trkpt lat="43.16385" lon="2.22137">
        <ele>365.6</ele>
        <time>2022-09-02T10:50:22Z</time>
      </trkpt>
      <trkpt lat="43.16384" lon="2.22135">
        <ele>365.8</ele>
        <time>2022-09-02T10:50:23Z</time>
      </trkpt>
      <trkpt lat="43.16383" lon="2.22132">
        <ele>365.8</ele>
        <time>2022-09-02T10:50:24Z</time>
      </trkpt>
      <trkpt lat="43.16374" lon="2.22121">
        <ele>366.4</ele>
        <time>2022-09-02T10:50:30Z</time>
      </trkpt>
      <trkpt lat="43.16372" lon="2.22117">
        <ele>366.6</ele>
        <time>2022-09-02T10:50:32Z</time>
      </trkpt>
      <trkpt lat="43.16371" lon="2.22104">
        <ele>367.2</ele>
        <time>2022-09-02T10:50:37Z</time>
      </trkpt>
      <trkpt lat="43.16372" lon="2.22097">
        <ele>367.6</ele>
        <time>2022-09-02T10:50:40Z</time>
      </trkpt>
      <trkpt lat="43.16375" lon="2.22087">
        <ele>368.2</ele>
        <time>2022-09-02T10:50:45Z</time>
      </trkpt>
      <trkpt lat="43.16378" lon="2.22076">
        <ele>368.6</ele>
        <time>2022-09-02T10:50:50Z</time>
      </trkpt>
      <trkpt lat="43.16381" lon="2.22074">
        <ele>369</ele>
        <time>2022-09-02T10:50:52Z</time>
      </trkpt>
      <trkpt lat="43.16383" lon="2.22074">
        <ele>369.2</ele>
        <time>2022-09-02T10:50:53Z</time>
      </trkpt>
      <trkpt lat="43.16387" lon="2.22066">
        <ele>369.6</ele>
        <time>2022-09-02T10:50:57Z</time>
      </trkpt>
      <trkpt lat="43.16388" lon="2.22064">
        <ele>369.8</ele>
        <time>2022-09-02T10:50:58Z</time>
      </trkpt>
      <trkpt lat="43.16393" lon="2.2206">
        <ele>370.4</ele>
        <time>2022-09-02T10:51:02Z</time>
      </trkpt>
      <trkpt lat="43.16395" lon="2.2206">
        <ele>370.6</ele>
        <time>2022-09-02T10:51:03Z</time>
      </trkpt>
      <trkpt lat="43.16399" lon="2.22058">
        <ele>370.6</ele>
        <time>2022-09-02T10:51:05Z</time>
      </trkpt>
      <trkpt lat="43.16402" lon="2.22053">
        <ele>370.8</ele>
        <time>2022-09-02T10:51:07Z</time>
      </trkpt>
      <trkpt lat="43.16403" lon="2.22049">
        <ele>371</ele>
        <time>2022-09-02T10:51:09Z</time>
      </trkpt>
      <trkpt lat="43.16411" lon="2.22043">
        <ele>371.6</ele>
        <time>2022-09-02T10:51:14Z</time>
      </trkpt>
      <trkpt lat="43.16413" lon="2.22041">
        <ele>372</ele>
        <time>2022-09-02T10:51:15Z</time>
      </trkpt>
      <trkpt lat="43.16423" lon="2.22027">
        <ele>372.6</ele>
        <time>2022-09-02T10:51:22Z</time>
      </trkpt>
      <trkpt lat="43.16424" lon="2.2202">
        <ele>373</ele>
        <time>2022-09-02T10:51:25Z</time>
      </trkpt>
      <trkpt lat="43.16425" lon="2.2201">
        <ele>373.4</ele>
        <time>2022-09-02T10:51:29Z</time>
      </trkpt>
      <trkpt lat="43.16421" lon="2.21997">
        <ele>374</ele>
        <time>2022-09-02T10:51:34Z</time>
      </trkpt>
      <trkpt lat="43.16418" lon="2.21988">
        <ele>374.6</ele>
        <time>2022-09-02T10:51:38Z</time>
      </trkpt>
      <trkpt lat="43.16414" lon="2.2198">
        <ele>375.2</ele>
        <time>2022-09-02T10:51:42Z</time>
      </trkpt>
      <trkpt lat="43.16409" lon="2.21969">
        <ele>376.2</ele>
        <time>2022-09-02T10:51:47Z</time>
      </trkpt>
      <trkpt lat="43.16408" lon="2.21967">
        <ele>376.4</ele>
        <time>2022-09-02T10:51:48Z</time>
      </trkpt>
      <trkpt lat="43.16401" lon="2.21952">
        <ele>377</ele>
        <time>2022-09-02T10:51:55Z</time>
      </trkpt>
      <trkpt lat="43.16399" lon="2.2194">
        <ele>377.4</ele>
        <time>2022-09-02T10:52:00Z</time>
      </trkpt>
      <trkpt lat="43.16399" lon="2.21925">
        <ele>377.8</ele>
        <time>2022-09-02T10:52:05Z</time>
      </trkpt>
      <trkpt lat="43.164" lon="2.21911">
        <ele>378.4</ele>
        <time>2022-09-02T10:52:10Z</time>
      </trkpt>
      <trkpt lat="43.16403" lon="2.21894">
        <ele>379</ele>
        <time>2022-09-02T10:52:16Z</time>
      </trkpt>
      <trkpt lat="43.16404" lon="2.21883">
        <ele>379.4</ele>
        <time>2022-09-02T10:52:20Z</time>
      </trkpt>
      <trkpt lat="43.16406" lon="2.21873">
        <ele>380</ele>
        <time>2022-09-02T10:52:24Z</time>
      </trkpt>
      <trkpt lat="43.16409" lon="2.21858">
        <ele>380.6</ele>
        <time>2022-09-02T10:52:30Z</time>
      </trkpt>
      <trkpt lat="43.16409" lon="2.21855">
        <ele>380.8</ele>
        <time>2022-09-02T10:52:31Z</time>
      </trkpt>
      <trkpt lat="43.16413" lon="2.21838">
        <ele>381.6</ele>
        <time>2022-09-02T10:52:38Z</time>
      </trkpt>
      <trkpt lat="43.16415" lon="2.2183">
        <ele>382</ele>
        <time>2022-09-02T10:52:41Z</time>
      </trkpt>
      <trkpt lat="43.16418" lon="2.2182">
        <ele>382.6</ele>
        <time>2022-09-02T10:52:45Z</time>
      </trkpt>
      <trkpt lat="43.16419" lon="2.21813">
        <ele>383.2</ele>
        <time>2022-09-02T10:52:48Z</time>
      </trkpt>
      <trkpt lat="43.16422" lon="2.218">
        <ele>383.6</ele>
        <time>2022-09-02T10:52:53Z</time>
      </trkpt>
      <trkpt lat="43.16425" lon="2.21791">
        <ele>384.2</ele>
        <time>2022-09-02T10:52:57Z</time>
      </trkpt>
      <trkpt lat="43.1643" lon="2.21786">
        <ele>384.8</ele>
        <time>2022-09-02T10:53:00Z</time>
      </trkpt>
      <trkpt lat="43.16432" lon="2.21778">
        <ele>385</ele>
        <time>2022-09-02T10:53:03Z</time>
      </trkpt>
      <trkpt lat="43.16436" lon="2.21757">
        <ele>385.8</ele>
        <time>2022-09-02T10:53:11Z</time>
      </trkpt>
      <trkpt lat="43.16436" lon="2.21755">
        <ele>386</ele>
        <time>2022-09-02T10:53:12Z</time>
      </trkpt>
      <trkpt lat="43.16439" lon="2.21745">
        <ele>386.4</ele>
        <time>2022-09-02T10:53:16Z</time>
      </trkpt>
      <trkpt lat="43.16441" lon="2.21737">
        <ele>387.2</ele>
        <time>2022-09-02T10:53:19Z</time>
      </trkpt>
      <trkpt lat="43.16448" lon="2.21717">
        <ele>388</ele>
        <time>2022-09-02T10:53:27Z</time>
      </trkpt>
      <trkpt lat="43.1645" lon="2.21712">
        <ele>388.2</ele>
        <time>2022-09-02T10:53:29Z</time>
      </trkpt>
      <trkpt lat="43.16459" lon="2.21699">
        <ele>389.2</ele>
        <time>2022-09-02T10:53:36Z</time>
      </trkpt>
      <trkpt lat="43.16461" lon="2.21697">
        <ele>389.4</ele>
        <time>2022-09-02T10:53:37Z</time>
      </trkpt>
      <trkpt lat="43.16475" lon="2.21681">
        <ele>390.2</ele>
        <time>2022-09-02T10:53:46Z</time>
      </trkpt>
      <trkpt lat="43.16477" lon="2.21679">
        <ele>390.2</ele>
        <time>2022-09-02T10:53:47Z</time>
      </trkpt>
      <trkpt lat="43.16489" lon="2.21666">
        <ele>390.8</ele>
        <time>2022-09-02T10:53:54Z</time>
      </trkpt>
      <trkpt lat="43.16497" lon="2.21657">
        <ele>391.4</ele>
        <time>2022-09-02T10:53:59Z</time>
      </trkpt>
      <trkpt lat="43.16501" lon="2.2165">
        <ele>391.6</ele>
        <time>2022-09-02T10:54:02Z</time>
      </trkpt>
      <trkpt lat="43.16508" lon="2.21635">
        <ele>392</ele>
        <time>2022-09-02T10:54:08Z</time>
      </trkpt>
      <trkpt lat="43.16511" lon="2.2162">
        <ele>392.4</ele>
        <time>2022-09-02T10:54:13Z</time>
      </trkpt>
      <trkpt lat="43.16511" lon="2.21617">
        <ele>392.4</ele>
        <time>2022-09-02T10:54:14Z</time>
      </trkpt>
      <trkpt lat="43.16512" lon="2.21593">
        <ele>393</ele>
        <time>2022-09-02T10:54:22Z</time>
      </trkpt>
      <trkpt lat="43.1651" lon="2.21581">
        <ele>393.4</ele>
        <time>2022-09-02T10:54:26Z</time>
      </trkpt>
      <trkpt lat="43.16508" lon="2.21565">
        <ele>393.6</ele>
        <time>2022-09-02T10:54:31Z</time>
      </trkpt>
      <trkpt lat="43.16506" lon="2.21552">
        <ele>394.4</ele>
        <time>2022-09-02T10:54:35Z</time>
      </trkpt>
      <trkpt lat="43.16503" lon="2.21543">
        <ele>394.8</ele>
        <time>2022-09-02T10:54:38Z</time>
      </trkpt>
      <trkpt lat="43.16499" lon="2.21526">
        <ele>395.2</ele>
        <time>2022-09-02T10:54:44Z</time>
      </trkpt>
      <trkpt lat="43.16498" lon="2.2152">
        <ele>395.6</ele>
        <time>2022-09-02T10:54:46Z</time>
      </trkpt>
      <trkpt lat="43.16494" lon="2.21506">
        <ele>397</ele>
        <time>2022-09-02T10:54:51Z</time>
      </trkpt>
      <trkpt lat="43.16493" lon="2.21504">
        <ele>396.4</ele>
        <time>2022-09-02T10:54:52Z</time>
      </trkpt>
      <trkpt lat="43.16493" lon="2.21501">
        <ele>395.8</ele>
        <time>2022-09-02T10:54:53Z</time>
      </trkpt>
      <trkpt lat="43.16491" lon="2.2149">
        <ele>396.8</ele>
        <time>2022-09-02T10:54:57Z</time>
      </trkpt>
      <trkpt lat="43.16489" lon="2.21475">
        <ele>397.2</ele>
        <time>2022-09-02T10:55:02Z</time>
      </trkpt>
      <trkpt lat="43.16486" lon="2.21454">
        <ele>397.2</ele>
        <time>2022-09-02T10:55:09Z</time>
      </trkpt>
      <trkpt lat="43.16481" lon="2.21438">
        <ele>398</ele>
        <time>2022-09-02T10:55:15Z</time>
      </trkpt>
      <trkpt lat="43.16482" lon="2.21422">
        <ele>398.6</ele>
        <time>2022-09-02T10:55:21Z</time>
      </trkpt>
      <trkpt lat="43.16483" lon="2.21413">
        <ele>399</ele>
        <time>2022-09-02T10:55:24Z</time>
      </trkpt>
      <trkpt lat="43.16482" lon="2.21402">
        <ele>399.8</ele>
        <time>2022-09-02T10:55:28Z</time>
      </trkpt>
      <trkpt lat="43.16481" lon="2.21389">
        <ele>400.2</ele>
        <time>2022-09-02T10:55:32Z</time>
      </trkpt>
      <trkpt lat="43.1648" lon="2.21377">
        <ele>400.6</ele>
        <time>2022-09-02T10:55:36Z</time>
      </trkpt>
      <trkpt lat="43.16479" lon="2.21366">
        <ele>401.2</ele>
        <time>2022-09-02T10:55:40Z</time>
      </trkpt>
      <trkpt lat="43.16478" lon="2.21361">
        <ele>401.4</ele>
        <time>2022-09-02T10:55:42Z</time>
      </trkpt>
      <trkpt lat="43.16477" lon="2.21343">
        <ele>402.2</ele>
        <time>2022-09-02T10:55:48Z</time>
      </trkpt>
      <trkpt lat="43.16475" lon="2.21317">
        <ele>403</ele>
        <time>2022-09-02T10:55:56Z</time>
      </trkpt>
      <trkpt lat="43.16474" lon="2.21307">
        <ele>403.4</ele>
        <time>2022-09-02T10:55:59Z</time>
      </trkpt>
      <trkpt lat="43.16474" lon="2.21295">
        <ele>403.8</ele>
        <time>2022-09-02T10:56:03Z</time>
      </trkpt>
      <trkpt lat="43.16473" lon="2.21283">
        <ele>404.6</ele>
        <time>2022-09-02T10:56:07Z</time>
      </trkpt>
      <trkpt lat="43.16472" lon="2.21271">
        <ele>405</ele>
        <time>2022-09-02T10:56:11Z</time>
      </trkpt>
      <trkpt lat="43.16469" lon="2.21252">
        <ele>405.6</ele>
        <time>2022-09-02T10:56:17Z</time>
      </trkpt>
      <trkpt lat="43.16467" lon="2.21246">
        <ele>405.8</ele>
        <time>2022-09-02T10:56:19Z</time>
      </trkpt>
      <trkpt lat="43.16458" lon="2.21232">
        <ele>406.8</ele>
        <time>2022-09-02T10:56:25Z</time>
      </trkpt>
      <trkpt lat="43.16456" lon="2.2123">
        <ele>407</ele>
        <time>2022-09-02T10:56:26Z</time>
      </trkpt>
      <trkpt lat="43.16441" lon="2.21223">
        <ele>407.6</ele>
        <time>2022-09-02T10:56:33Z</time>
      </trkpt>
      <trkpt lat="43.16439" lon="2.21223">
        <ele>407.8</ele>
        <time>2022-09-02T10:56:34Z</time>
      </trkpt>
      <trkpt lat="43.16427" lon="2.21221">
        <ele>408.2</ele>
        <time>2022-09-02T10:56:39Z</time>
      </trkpt>
      <trkpt lat="43.16418" lon="2.21219">
        <ele>409</ele>
        <time>2022-09-02T10:56:43Z</time>
      </trkpt>
      <trkpt lat="43.16409" lon="2.21218">
        <ele>408.8</ele>
        <time>2022-09-02T10:56:47Z</time>
      </trkpt>
      <trkpt lat="43.16395" lon="2.21216">
        <ele>409.8</ele>
        <time>2022-09-02T10:56:54Z</time>
      </trkpt>
      <trkpt lat="43.16393" lon="2.21215">
        <ele>410</ele>
        <time>2022-09-02T10:56:55Z</time>
      </trkpt>
      <trkpt lat="43.16381" lon="2.21213">
        <ele>410.4</ele>
        <time>2022-09-02T10:57:01Z</time>
      </trkpt>
      <trkpt lat="43.16367" lon="2.21213">
        <ele>410.6</ele>
        <time>2022-09-02T10:57:08Z</time>
      </trkpt>
      <trkpt lat="43.16362" lon="2.21214">
        <ele>411</ele>
        <time>2022-09-02T10:57:10Z</time>
      </trkpt>
      <trkpt lat="43.1635" lon="2.2122">
        <ele>411.6</ele>
        <time>2022-09-02T10:57:16Z</time>
      </trkpt>
      <trkpt lat="43.16341" lon="2.21228">
        <ele>412.2</ele>
        <time>2022-09-02T10:57:21Z</time>
      </trkpt>
      <trkpt lat="43.16334" lon="2.21236">
        <ele>412.4</ele>
        <time>2022-09-02T10:57:25Z</time>
      </trkpt>
      <trkpt lat="43.16321" lon="2.2126">
        <ele>413.2</ele>
        <time>2022-09-02T10:57:34Z</time>
      </trkpt>
      <trkpt lat="43.1632" lon="2.21263">
        <ele>413.2</ele>
        <time>2022-09-02T10:57:35Z</time>
      </trkpt>
      <trkpt lat="43.16312" lon="2.21283">
        <ele>413.6</ele>
        <time>2022-09-02T10:57:42Z</time>
      </trkpt>
      <trkpt lat="43.16299" lon="2.21301">
        <ele>414.2</ele>
        <time>2022-09-02T10:57:50Z</time>
      </trkpt>
      <trkpt lat="43.16297" lon="2.21302">
        <ele>414.2</ele>
        <time>2022-09-02T10:57:51Z</time>
      </trkpt>
      <trkpt lat="43.16281" lon="2.21308">
        <ele>415</ele>
        <time>2022-09-02T10:57:58Z</time>
      </trkpt>
      <trkpt lat="43.16275" lon="2.21306">
        <ele>415.2</ele>
        <time>2022-09-02T10:58:01Z</time>
      </trkpt>
      <trkpt lat="43.16265" lon="2.21299">
        <ele>415.8</ele>
        <time>2022-09-02T10:58:06Z</time>
      </trkpt>
      <trkpt lat="43.16261" lon="2.21294">
        <ele>416.4</ele>
        <time>2022-09-02T10:58:08Z</time>
      </trkpt>
      <trkpt lat="43.16258" lon="2.21282">
        <ele>417</ele>
        <time>2022-09-02T10:58:12Z</time>
      </trkpt>
      <trkpt lat="43.16257" lon="2.21276">
        <ele>417.6</ele>
        <time>2022-09-02T10:58:14Z</time>
      </trkpt>
      <trkpt lat="43.16256" lon="2.21264">
        <ele>418</ele>
        <time>2022-09-02T10:58:18Z</time>
      </trkpt>
      <trkpt lat="43.16249" lon="2.21242">
        <ele>418.4</ele>
        <time>2022-09-02T10:58:26Z</time>
      </trkpt>
      <trkpt lat="43.16247" lon="2.21236">
        <ele>418.6</ele>
        <time>2022-09-02T10:58:28Z</time>
      </trkpt>
      <trkpt lat="43.16237" lon="2.21222">
        <ele>419.2</ele>
        <time>2022-09-02T10:58:34Z</time>
      </trkpt>
      <trkpt lat="43.16231" lon="2.21213">
        <ele>419.6</ele>
        <time>2022-09-02T10:58:38Z</time>
      </trkpt>
      <trkpt lat="43.16223" lon="2.21201">
        <ele>419.8</ele>
        <time>2022-09-02T10:58:43Z</time>
      </trkpt>
      <trkpt lat="43.16211" lon="2.21179">
        <ele>420.6</ele>
        <time>2022-09-02T10:58:51Z</time>
      </trkpt>
      <trkpt lat="43.16208" lon="2.21169">
        <ele>420.6</ele>
        <time>2022-09-02T10:58:54Z</time>
      </trkpt>
      <trkpt lat="43.16202" lon="2.21156">
        <ele>421</ele>
        <time>2022-09-02T10:58:58Z</time>
      </trkpt>
      <trkpt lat="43.16192" lon="2.21135">
        <ele>421.4</ele>
        <time>2022-09-02T10:59:04Z</time>
      </trkpt>
      <trkpt lat="43.16185" lon="2.21122">
        <ele>421.8</ele>
        <time>2022-09-02T10:59:08Z</time>
      </trkpt>
      <trkpt lat="43.1618" lon="2.21111">
        <ele>422</ele>
        <time>2022-09-02T10:59:11Z</time>
      </trkpt>
      <trkpt lat="43.16169" lon="2.21089">
        <ele>422.4</ele>
        <time>2022-09-02T10:59:18Z</time>
      </trkpt>
      <trkpt lat="43.16164" lon="2.21079">
        <ele>422.8</ele>
        <time>2022-09-02T10:59:21Z</time>
      </trkpt>
      <trkpt lat="43.16156" lon="2.21061">
        <ele>423.2</ele>
        <time>2022-09-02T10:59:26Z</time>
      </trkpt>
      <trkpt lat="43.16148" lon="2.2104">
        <ele>423.6</ele>
        <time>2022-09-02T10:59:32Z</time>
      </trkpt>
      <trkpt lat="43.16145" lon="2.21033">
        <ele>423.8</ele>
        <time>2022-09-02T10:59:34Z</time>
      </trkpt>
      <trkpt lat="43.16137" lon="2.21017">
        <ele>424</ele>
        <time>2022-09-02T10:59:39Z</time>
      </trkpt>
      <trkpt lat="43.16122" lon="2.21003">
        <ele>424.2</ele>
        <time>2022-09-02T10:59:45Z</time>
      </trkpt>
      <trkpt lat="43.16103" lon="2.21">
        <ele>424.8</ele>
        <time>2022-09-02T10:59:52Z</time>
      </trkpt>
      <trkpt lat="43.16087" lon="2.21006">
        <ele>425.4</ele>
        <time>2022-09-02T10:59:58Z</time>
      </trkpt>
      <trkpt lat="43.16071" lon="2.21023">
        <ele>425.6</ele>
        <time>2022-09-02T11:00:05Z</time>
      </trkpt>
      <trkpt lat="43.16066" lon="2.21028">
        <ele>426</ele>
        <time>2022-09-02T11:00:07Z</time>
      </trkpt>
      <trkpt lat="43.16048" lon="2.21049">
        <ele>426.8</ele>
        <time>2022-09-02T11:00:15Z</time>
      </trkpt>
      <trkpt lat="43.16044" lon="2.21054">
        <ele>427</ele>
        <time>2022-09-02T11:00:17Z</time>
      </trkpt>
      <trkpt lat="43.16029" lon="2.2107">
        <ele>427.2</ele>
        <time>2022-09-02T11:00:23Z</time>
      </trkpt>
      <trkpt lat="43.16009" lon="2.21092">
        <ele>428</ele>
        <time>2022-09-02T11:00:32Z</time>
      </trkpt>
      <trkpt lat="43.16007" lon="2.21095">
        <ele>428.2</ele>
        <time>2022-09-02T11:00:33Z</time>
      </trkpt>
      <trkpt lat="43.15987" lon="2.21111">
        <ele>428.8</ele>
        <time>2022-09-02T11:00:41Z</time>
      </trkpt>
      <trkpt lat="43.15973" lon="2.21113">
        <ele>429</ele>
        <time>2022-09-02T11:00:46Z</time>
      </trkpt>
      <trkpt lat="43.1597" lon="2.21112">
        <ele>429.2</ele>
        <time>2022-09-02T11:00:47Z</time>
      </trkpt>
      <trkpt lat="43.15953" lon="2.21107">
        <ele>430</ele>
        <time>2022-09-02T11:00:53Z</time>
      </trkpt>
      <trkpt lat="43.15942" lon="2.21104">
        <ele>430.6</ele>
        <time>2022-09-02T11:00:57Z</time>
      </trkpt>
      <trkpt lat="43.15924" lon="2.21103">
        <ele>430.8</ele>
        <time>2022-09-02T11:01:04Z</time>
      </trkpt>
      <trkpt lat="43.15919" lon="2.21103">
        <ele>431</ele>
        <time>2022-09-02T11:01:06Z</time>
      </trkpt>
      <trkpt lat="43.15918" lon="2.21101">
        <ele>431.2</ele>
        <time>2022-09-02T11:01:07Z</time>
      </trkpt>
      <trkpt lat="43.15918" lon="2.211">
        <ele>431.2</ele>
        <time>2022-09-02T11:01:08Z</time>
      </trkpt>
      <trkpt lat="43.15923" lon="2.21091">
        <ele>431</ele>
        <time>2022-09-02T11:01:12Z</time>
      </trkpt>
      <trkpt lat="43.15923" lon="2.21085">
        <ele>431.2</ele>
        <time>2022-09-02T11:01:14Z</time>
      </trkpt>
      <trkpt lat="43.15926" lon="2.21073">
        <ele>431</ele>
        <time>2022-09-02T11:01:18Z</time>
      </trkpt>
      <trkpt lat="43.15922" lon="2.21089">
        <ele>431.4</ele>
        <time>2022-09-02T11:03:09Z</time>
      </trkpt>
      <trkpt lat="43.15914" lon="2.21102">
        <ele>432</ele>
        <time>2022-09-02T11:03:15Z</time>
      </trkpt>
      <trkpt lat="43.15912" lon="2.21104">
        <ele>432.2</ele>
        <time>2022-09-02T11:03:16Z</time>
      </trkpt>
      <trkpt lat="43.15893" lon="2.21116">
        <ele>432.6</ele>
        <time>2022-09-02T11:03:24Z</time>
      </trkpt>
      <trkpt lat="43.1588" lon="2.21118">
        <ele>433.2</ele>
        <time>2022-09-02T11:03:29Z</time>
      </trkpt>
      <trkpt lat="43.15873" lon="2.21117">
        <ele>433</ele>
        <time>2022-09-02T11:03:32Z</time>
      </trkpt>
      <trkpt lat="43.1586" lon="2.21105">
        <ele>433.2</ele>
        <time>2022-09-02T11:03:38Z</time>
      </trkpt>
      <trkpt lat="43.1585" lon="2.21083">
        <ele>432.6</ele>
        <time>2022-09-02T11:03:45Z</time>
      </trkpt>
      <trkpt lat="43.15839" lon="2.21054">
        <ele>433.6</ele>
        <time>2022-09-02T11:03:54Z</time>
      </trkpt>
      <trkpt lat="43.15828" lon="2.21032">
        <ele>434</ele>
        <time>2022-09-02T11:04:01Z</time>
      </trkpt>
      <trkpt lat="43.15813" lon="2.2101">
        <ele>434.2</ele>
        <time>2022-09-02T11:04:08Z</time>
      </trkpt>
      <trkpt lat="43.1581" lon="2.21008">
        <ele>434.4</ele>
        <time>2022-09-02T11:04:09Z</time>
      </trkpt>
      <trkpt lat="43.15795" lon="2.20991">
        <ele>434.6</ele>
        <time>2022-09-02T11:04:15Z</time>
      </trkpt>
      <trkpt lat="43.15773" lon="2.20966">
        <ele>435.2</ele>
        <time>2022-09-02T11:04:24Z</time>
      </trkpt>
      <trkpt lat="43.15768" lon="2.2096">
        <ele>435.6</ele>
        <time>2022-09-02T11:04:26Z</time>
      </trkpt>
      <trkpt lat="43.15746" lon="2.20942">
        <ele>435.4</ele>
        <time>2022-09-02T11:04:34Z</time>
      </trkpt>
      <trkpt lat="43.15727" lon="2.20936">
        <ele>435.8</ele>
        <time>2022-09-02T11:04:40Z</time>
      </trkpt>
      <trkpt lat="43.15701" lon="2.20935">
        <ele>435</ele>
        <time>2022-09-02T11:04:46Z</time>
      </trkpt>
      <trkpt lat="43.15681" lon="2.20932">
        <ele>434.4</ele>
        <time>2022-09-02T11:04:50Z</time>
      </trkpt>
      <trkpt lat="43.15665" lon="2.20927">
        <ele>433.6</ele>
        <time>2022-09-02T11:04:53Z</time>
      </trkpt>
      <trkpt lat="43.15654" lon="2.20921">
        <ele>433.4</ele>
        <time>2022-09-02T11:04:55Z</time>
      </trkpt>
      <trkpt lat="43.15631" lon="2.20907">
        <ele>432.6</ele>
        <time>2022-09-02T11:04:59Z</time>
      </trkpt>
      <trkpt lat="43.15625" lon="2.20903">
        <ele>432.4</ele>
        <time>2022-09-02T11:05:00Z</time>
      </trkpt>
      <trkpt lat="43.15603" lon="2.20884">
        <ele>431.6</ele>
        <time>2022-09-02T11:05:04Z</time>
      </trkpt>
      <trkpt lat="43.15598" lon="2.20878">
        <ele>431.6</ele>
        <time>2022-09-02T11:05:05Z</time>
      </trkpt>
      <trkpt lat="43.15594" lon="2.20871">
        <ele>431.6</ele>
        <time>2022-09-02T11:05:06Z</time>
      </trkpt>
      <trkpt lat="43.15589" lon="2.20863">
        <ele>431.2</ele>
        <time>2022-09-02T11:05:07Z</time>
      </trkpt>
      <trkpt lat="43.15582" lon="2.20847">
        <ele>430.4</ele>
        <time>2022-09-02T11:05:09Z</time>
      </trkpt>
      <trkpt lat="43.15578" lon="2.20838">
        <ele>430.2</ele>
        <time>2022-09-02T11:05:10Z</time>
      </trkpt>
      <trkpt lat="43.15563" lon="2.20793">
        <ele>429.2</ele>
        <time>2022-09-02T11:05:15Z</time>
      </trkpt>
      <trkpt lat="43.1556" lon="2.20783">
        <ele>428.8</ele>
        <time>2022-09-02T11:05:16Z</time>
      </trkpt>
      <trkpt lat="43.15548" lon="2.20745">
        <ele>427.2</ele>
        <time>2022-09-02T11:05:20Z</time>
      </trkpt>
      <trkpt lat="43.15539" lon="2.20717">
        <ele>427.2</ele>
        <time>2022-09-02T11:05:23Z</time>
      </trkpt>
      <trkpt lat="43.15528" lon="2.2069">
        <ele>426</ele>
        <time>2022-09-02T11:05:26Z</time>
      </trkpt>
      <trkpt lat="43.15518" lon="2.20674">
        <ele>425.4</ele>
        <time>2022-09-02T11:05:28Z</time>
      </trkpt>
      <trkpt lat="43.15513" lon="2.20667">
        <ele>425.2</ele>
        <time>2022-09-02T11:05:29Z</time>
      </trkpt>
      <trkpt lat="43.15507" lon="2.2066">
        <ele>425</ele>
        <time>2022-09-02T11:05:30Z</time>
      </trkpt>
      <trkpt lat="43.15494" lon="2.20649">
        <ele>424.8</ele>
        <time>2022-09-02T11:05:32Z</time>
      </trkpt>
      <trkpt lat="43.15473" lon="2.20637">
        <ele>423.8</ele>
        <time>2022-09-02T11:05:35Z</time>
      </trkpt>
      <trkpt lat="43.15446" lon="2.2062">
        <ele>423</ele>
        <time>2022-09-02T11:05:39Z</time>
      </trkpt>
      <trkpt lat="43.15439" lon="2.20615">
        <ele>422.6</ele>
        <time>2022-09-02T11:05:40Z</time>
      </trkpt>
      <trkpt lat="43.15433" lon="2.20609">
        <ele>422.4</ele>
        <time>2022-09-02T11:05:41Z</time>
      </trkpt>
      <trkpt lat="43.15423" lon="2.20595">
        <ele>422.4</ele>
        <time>2022-09-02T11:05:43Z</time>
      </trkpt>
      <trkpt lat="43.15418" lon="2.20588">
        <ele>422.6</ele>
        <time>2022-09-02T11:05:44Z</time>
      </trkpt>
      <trkpt lat="43.15407" lon="2.20563">
        <ele>421.4</ele>
        <time>2022-09-02T11:05:47Z</time>
      </trkpt>
      <trkpt lat="43.15397" lon="2.20517">
        <ele>421.2</ele>
        <time>2022-09-02T11:05:52Z</time>
      </trkpt>
      <trkpt lat="43.15397" lon="2.20508">
        <ele>421.2</ele>
        <time>2022-09-02T11:05:53Z</time>
      </trkpt>
      <trkpt lat="43.15397" lon="2.2049">
        <ele>419.8</ele>
        <time>2022-09-02T11:05:55Z</time>
      </trkpt>
      <trkpt lat="43.15399" lon="2.20481">
        <ele>419.4</ele>
        <time>2022-09-02T11:05:56Z</time>
      </trkpt>
      <trkpt lat="43.15406" lon="2.20455">
        <ele>418.2</ele>
        <time>2022-09-02T11:05:59Z</time>
      </trkpt>
      <trkpt lat="43.1541" lon="2.20446">
        <ele>417.6</ele>
        <time>2022-09-02T11:06:00Z</time>
      </trkpt>
      <trkpt lat="43.15418" lon="2.20431">
        <ele>417.4</ele>
        <time>2022-09-02T11:06:02Z</time>
      </trkpt>
      <trkpt lat="43.15429" lon="2.20406">
        <ele>417.2</ele>
        <time>2022-09-02T11:06:05Z</time>
      </trkpt>
      <trkpt lat="43.15431" lon="2.20398">
        <ele>417.2</ele>
        <time>2022-09-02T11:06:06Z</time>
      </trkpt>
      <trkpt lat="43.15432" lon="2.20379">
        <ele>415.8</ele>
        <time>2022-09-02T11:06:08Z</time>
      </trkpt>
      <trkpt lat="43.15431" lon="2.2037">
        <ele>415.6</ele>
        <time>2022-09-02T11:06:09Z</time>
      </trkpt>
      <trkpt lat="43.15418" lon="2.20347">
        <ele>416</ele>
        <time>2022-09-02T11:06:12Z</time>
      </trkpt>
      <trkpt lat="43.15401" lon="2.20331">
        <ele>415.2</ele>
        <time>2022-09-02T11:06:15Z</time>
      </trkpt>
      <trkpt lat="43.15389" lon="2.20322">
        <ele>414.6</ele>
        <time>2022-09-02T11:06:17Z</time>
      </trkpt>
      <trkpt lat="43.15375" lon="2.20315">
        <ele>413.4</ele>
        <time>2022-09-02T11:06:19Z</time>
      </trkpt>
      <trkpt lat="43.15361" lon="2.20311">
        <ele>412.6</ele>
        <time>2022-09-02T11:06:21Z</time>
      </trkpt>
      <trkpt lat="43.15354" lon="2.20309">
        <ele>412.4</ele>
        <time>2022-09-02T11:06:22Z</time>
      </trkpt>
      <trkpt lat="43.15341" lon="2.20305">
        <ele>412</ele>
        <time>2022-09-02T11:06:24Z</time>
      </trkpt>
      <trkpt lat="43.15329" lon="2.20297">
        <ele>411.6</ele>
        <time>2022-09-02T11:06:26Z</time>
      </trkpt>
      <trkpt lat="43.1532" lon="2.20273">
        <ele>411.6</ele>
        <time>2022-09-02T11:06:29Z</time>
      </trkpt>
      <trkpt lat="43.15321" lon="2.20254">
        <ele>411.2</ele>
        <time>2022-09-02T11:06:31Z</time>
      </trkpt>
      <trkpt lat="43.15322" lon="2.20246">
        <ele>410.2</ele>
        <time>2022-09-02T11:06:32Z</time>
      </trkpt>
      <trkpt lat="43.15324" lon="2.20237">
        <ele>409.8</ele>
        <time>2022-09-02T11:06:33Z</time>
      </trkpt>
      <trkpt lat="43.15331" lon="2.20212">
        <ele>409</ele>
        <time>2022-09-02T11:06:36Z</time>
      </trkpt>
      <trkpt lat="43.15338" lon="2.20187">
        <ele>408.2</ele>
        <time>2022-09-02T11:06:39Z</time>
      </trkpt>
      <trkpt lat="43.15353" lon="2.20156">
        <ele>407.8</ele>
        <time>2022-09-02T11:06:43Z</time>
      </trkpt>
      <trkpt lat="43.15356" lon="2.20149">
        <ele>407.4</ele>
        <time>2022-09-02T11:06:44Z</time>
      </trkpt>
      <trkpt lat="43.15359" lon="2.20141">
        <ele>407</ele>
        <time>2022-09-02T11:06:45Z</time>
      </trkpt>
      <trkpt lat="43.15362" lon="2.20123">
        <ele>406.8</ele>
        <time>2022-09-02T11:06:47Z</time>
      </trkpt>
      <trkpt lat="43.15363" lon="2.20114">
        <ele>406.6</ele>
        <time>2022-09-02T11:06:48Z</time>
      </trkpt>
      <trkpt lat="43.15363" lon="2.20086">
        <ele>405.4</ele>
        <time>2022-09-02T11:06:51Z</time>
      </trkpt>
      <trkpt lat="43.15362" lon="2.20057">
        <ele>404.4</ele>
        <time>2022-09-02T11:06:54Z</time>
      </trkpt>
      <trkpt lat="43.15362" lon="2.20047">
        <ele>404.2</ele>
        <time>2022-09-02T11:06:55Z</time>
      </trkpt>
      <trkpt lat="43.15358" lon="2.1999">
        <ele>403</ele>
        <time>2022-09-02T11:07:01Z</time>
      </trkpt>
      <trkpt lat="43.15357" lon="2.19981">
        <ele>402.6</ele>
        <time>2022-09-02T11:07:02Z</time>
      </trkpt>
      <trkpt lat="43.15354" lon="2.19925">
        <ele>402</ele>
        <time>2022-09-02T11:07:08Z</time>
      </trkpt>
      <trkpt lat="43.15353" lon="2.19915">
        <ele>401.6</ele>
        <time>2022-09-02T11:07:09Z</time>
      </trkpt>
      <trkpt lat="43.15353" lon="2.19897">
        <ele>400.8</ele>
        <time>2022-09-02T11:07:11Z</time>
      </trkpt>
      <trkpt lat="43.15351" lon="2.19858">
        <ele>399.6</ele>
        <time>2022-09-02T11:07:15Z</time>
      </trkpt>
      <trkpt lat="43.15349" lon="2.19838">
        <ele>399.2</ele>
        <time>2022-09-02T11:07:17Z</time>
      </trkpt>
      <trkpt lat="43.15349" lon="2.19809">
        <ele>398</ele>
        <time>2022-09-02T11:07:20Z</time>
      </trkpt>
      <trkpt lat="43.15348" lon="2.19769">
        <ele>396.8</ele>
        <time>2022-09-02T11:07:24Z</time>
      </trkpt>
      <trkpt lat="43.15348" lon="2.19759">
        <ele>396.6</ele>
        <time>2022-09-02T11:07:25Z</time>
      </trkpt>
      <trkpt lat="43.15355" lon="2.19699">
        <ele>395.4</ele>
        <time>2022-09-02T11:07:31Z</time>
      </trkpt>
      <trkpt lat="43.15361" lon="2.19658">
        <ele>394.6</ele>
        <time>2022-09-02T11:07:35Z</time>
      </trkpt>
      <trkpt lat="43.1536" lon="2.19648">
        <ele>394.4</ele>
        <time>2022-09-02T11:07:36Z</time>
      </trkpt>
      <trkpt lat="43.15358" lon="2.19637">
        <ele>394</ele>
        <time>2022-09-02T11:07:37Z</time>
      </trkpt>
      <trkpt lat="43.15349" lon="2.19607">
        <ele>393.2</ele>
        <time>2022-09-02T11:07:40Z</time>
      </trkpt>
      <trkpt lat="43.15345" lon="2.19597">
        <ele>393</ele>
        <time>2022-09-02T11:07:41Z</time>
      </trkpt>
      <trkpt lat="43.15339" lon="2.19576">
        <ele>392.6</ele>
        <time>2022-09-02T11:07:43Z</time>
      </trkpt>
      <trkpt lat="43.15338" lon="2.19564">
        <ele>392.2</ele>
        <time>2022-09-02T11:07:44Z</time>
      </trkpt>
      <trkpt lat="43.15339" lon="2.19553">
        <ele>392</ele>
        <time>2022-09-02T11:07:45Z</time>
      </trkpt>
      <trkpt lat="43.15345" lon="2.19519">
        <ele>391</ele>
        <time>2022-09-02T11:07:48Z</time>
      </trkpt>
      <trkpt lat="43.15347" lon="2.19508">
        <ele>390.8</ele>
        <time>2022-09-02T11:07:49Z</time>
      </trkpt>
      <trkpt lat="43.15352" lon="2.19475">
        <ele>390</ele>
        <time>2022-09-02T11:07:52Z</time>
      </trkpt>
      <trkpt lat="43.15354" lon="2.19452">
        <ele>389.2</ele>
        <time>2022-09-02T11:07:54Z</time>
      </trkpt>
      <trkpt lat="43.15354" lon="2.19418">
        <ele>388.6</ele>
        <time>2022-09-02T11:07:57Z</time>
      </trkpt>
      <trkpt lat="43.15355" lon="2.19383">
        <ele>387.6</ele>
        <time>2022-09-02T11:08:00Z</time>
      </trkpt>
      <trkpt lat="43.15355" lon="2.19348">
        <ele>387.4</ele>
        <time>2022-09-02T11:08:03Z</time>
      </trkpt>
      <trkpt lat="43.15358" lon="2.19304">
        <ele>386.4</ele>
        <time>2022-09-02T11:08:07Z</time>
      </trkpt>
      <trkpt lat="43.15361" lon="2.19284">
        <ele>385.4</ele>
        <time>2022-09-02T11:08:09Z</time>
      </trkpt>
      <trkpt lat="43.15373" lon="2.19247">
        <ele>384.4</ele>
        <time>2022-09-02T11:08:13Z</time>
      </trkpt>
      <trkpt lat="43.15378" lon="2.19229">
        <ele>384.2</ele>
        <time>2022-09-02T11:08:15Z</time>
      </trkpt>
      <trkpt lat="43.15384" lon="2.19193">
        <ele>383.4</ele>
        <time>2022-09-02T11:08:19Z</time>
      </trkpt>
      <trkpt lat="43.15385" lon="2.19184">
        <ele>383.2</ele>
        <time>2022-09-02T11:08:20Z</time>
      </trkpt>
      <trkpt lat="43.15382" lon="2.19141">
        <ele>382.4</ele>
        <time>2022-09-02T11:08:25Z</time>
      </trkpt>
      <trkpt lat="43.15381" lon="2.19133">
        <ele>382</ele>
        <time>2022-09-02T11:08:26Z</time>
      </trkpt>
      <trkpt lat="43.1537" lon="2.19093">
        <ele>381.4</ele>
        <time>2022-09-02T11:08:31Z</time>
      </trkpt>
      <trkpt lat="43.15368" lon="2.19085">
        <ele>381.2</ele>
        <time>2022-09-02T11:08:32Z</time>
      </trkpt>
      <trkpt lat="43.15352" lon="2.19029">
        <ele>380.4</ele>
        <time>2022-09-02T11:08:39Z</time>
      </trkpt>
      <trkpt lat="43.15349" lon="2.19021">
        <ele>380.2</ele>
        <time>2022-09-02T11:08:40Z</time>
      </trkpt>
      <trkpt lat="43.15331" lon="2.1897">
        <ele>379.2</ele>
        <time>2022-09-02T11:08:47Z</time>
      </trkpt>
      <trkpt lat="43.15307" lon="2.18918">
        <ele>379.4</ele>
        <time>2022-09-02T11:08:55Z</time>
      </trkpt>
      <trkpt lat="43.15284" lon="2.18881">
        <ele>380.2</ele>
        <time>2022-09-02T11:09:02Z</time>
      </trkpt>
      <trkpt lat="43.15259" lon="2.18854">
        <ele>380.4</ele>
        <time>2022-09-02T11:09:09Z</time>
      </trkpt>
      <trkpt lat="43.15243" lon="2.18838">
        <ele>380.4</ele>
        <time>2022-09-02T11:09:14Z</time>
      </trkpt>
      <trkpt lat="43.15236" lon="2.18832">
        <ele>380.2</ele>
        <time>2022-09-02T11:09:16Z</time>
      </trkpt>
      <trkpt lat="43.15216" lon="2.18816">
        <ele>380.4</ele>
        <time>2022-09-02T11:09:22Z</time>
      </trkpt>
      <trkpt lat="43.15183" lon="2.18786">
        <ele>380.2</ele>
        <time>2022-09-02T11:09:32Z</time>
      </trkpt>
      <trkpt lat="43.15155" lon="2.18753">
        <ele>381</ele>
        <time>2022-09-02T11:09:41Z</time>
      </trkpt>
      <trkpt lat="43.15126" lon="2.18718">
        <ele>381</ele>
        <time>2022-09-02T11:09:50Z</time>
      </trkpt>
      <trkpt lat="43.1509" lon="2.18685">
        <ele>381</ele>
        <time>2022-09-02T11:10:00Z</time>
      </trkpt>
      <trkpt lat="43.15064" lon="2.18655">
        <ele>381</ele>
        <time>2022-09-02T11:10:08Z</time>
      </trkpt>
      <trkpt lat="43.1505" lon="2.18633">
        <ele>381.4</ele>
        <time>2022-09-02T11:10:13Z</time>
      </trkpt>
      <trkpt lat="43.15044" lon="2.18624">
        <ele>381.6</ele>
        <time>2022-09-02T11:10:15Z</time>
      </trkpt>
      <trkpt lat="43.15024" lon="2.18585">
        <ele>382.2</ele>
        <time>2022-09-02T11:10:23Z</time>
      </trkpt>
      <trkpt lat="43.1502" lon="2.18576">
        <ele>382.4</ele>
        <time>2022-09-02T11:10:25Z</time>
      </trkpt>
      <trkpt lat="43.15018" lon="2.18571">
        <ele>382.6</ele>
        <time>2022-09-02T11:10:26Z</time>
      </trkpt>
      <trkpt lat="43.1501" lon="2.18551">
        <ele>382</ele>
        <time>2022-09-02T11:10:30Z</time>
      </trkpt>
      <trkpt lat="43.15001" lon="2.18515">
        <ele>382</ele>
        <time>2022-09-02T11:10:37Z</time>
      </trkpt>
      <trkpt lat="43.14998" lon="2.18475">
        <ele>382.2</ele>
        <time>2022-09-02T11:10:44Z</time>
      </trkpt>
      <trkpt lat="43.14997" lon="2.18423">
        <ele>383</ele>
        <time>2022-09-02T11:10:53Z</time>
      </trkpt>
      <trkpt lat="43.14995" lon="2.18379">
        <ele>383.6</ele>
        <time>2022-09-02T11:11:01Z</time>
      </trkpt>
      <trkpt lat="43.14995" lon="2.18322">
        <ele>383.2</ele>
        <time>2022-09-02T11:11:11Z</time>
      </trkpt>
      <trkpt lat="43.14998" lon="2.18284">
        <ele>383.2</ele>
        <time>2022-09-02T11:11:18Z</time>
      </trkpt>
      <trkpt lat="43.15009" lon="2.18251">
        <ele>382.4</ele>
        <time>2022-09-02T11:11:24Z</time>
      </trkpt>
      <trkpt lat="43.15011" lon="2.18246">
        <ele>382.2</ele>
        <time>2022-09-02T11:11:25Z</time>
      </trkpt>
      <trkpt lat="43.15031" lon="2.18209">
        <ele>381.6</ele>
        <time>2022-09-02T11:11:32Z</time>
      </trkpt>
      <trkpt lat="43.15037" lon="2.18198">
        <ele>381.2</ele>
        <time>2022-09-02T11:11:34Z</time>
      </trkpt>
      <trkpt lat="43.15052" lon="2.18169">
        <ele>380.2</ele>
        <time>2022-09-02T11:11:39Z</time>
      </trkpt>
      <trkpt lat="43.15058" lon="2.18157">
        <ele>379.8</ele>
        <time>2022-09-02T11:11:41Z</time>
      </trkpt>
      <trkpt lat="43.15068" lon="2.18138">
        <ele>379.2</ele>
        <time>2022-09-02T11:11:44Z</time>
      </trkpt>
      <trkpt lat="43.15086" lon="2.18105">
        <ele>378.6</ele>
        <time>2022-09-02T11:11:49Z</time>
      </trkpt>
      <trkpt lat="43.15094" lon="2.18091">
        <ele>378</ele>
        <time>2022-09-02T11:11:51Z</time>
      </trkpt>
      <trkpt lat="43.15113" lon="2.18069">
        <ele>377</ele>
        <time>2022-09-02T11:11:55Z</time>
      </trkpt>
      <trkpt lat="43.15119" lon="2.18064">
        <ele>376.8</ele>
        <time>2022-09-02T11:11:56Z</time>
      </trkpt>
      <trkpt lat="43.15136" lon="2.18053">
        <ele>376.2</ele>
        <time>2022-09-02T11:11:59Z</time>
      </trkpt>
      <trkpt lat="43.15142" lon="2.1805">
        <ele>375.8</ele>
        <time>2022-09-02T11:12:00Z</time>
      </trkpt>
      <trkpt lat="43.15148" lon="2.18046">
        <ele>375.6</ele>
        <time>2022-09-02T11:12:01Z</time>
      </trkpt>
      <trkpt lat="43.15171" lon="2.18031">
        <ele>375.4</ele>
        <time>2022-09-02T11:12:05Z</time>
      </trkpt>
      <trkpt lat="43.1518" lon="2.18018">
        <ele>375.2</ele>
        <time>2022-09-02T11:12:07Z</time>
      </trkpt>
      <trkpt lat="43.15183" lon="2.1801">
        <ele>374.4</ele>
        <time>2022-09-02T11:12:08Z</time>
      </trkpt>
      <trkpt lat="43.15187" lon="2.17992">
        <ele>374.2</ele>
        <time>2022-09-02T11:12:10Z</time>
      </trkpt>
      <trkpt lat="43.1519" lon="2.17983">
        <ele>374</ele>
        <time>2022-09-02T11:12:11Z</time>
      </trkpt>
      <trkpt lat="43.152" lon="2.17968">
        <ele>373.4</ele>
        <time>2022-09-02T11:12:13Z</time>
      </trkpt>
      <trkpt lat="43.15207" lon="2.17965">
        <ele>373</ele>
        <time>2022-09-02T11:12:14Z</time>
      </trkpt>
      <trkpt lat="43.15214" lon="2.17964">
        <ele>372.6</ele>
        <time>2022-09-02T11:12:15Z</time>
      </trkpt>
      <trkpt lat="43.15228" lon="2.17965">
        <ele>372</ele>
        <time>2022-09-02T11:12:17Z</time>
      </trkpt>
      <trkpt lat="43.15242" lon="2.17962">
        <ele>371.2</ele>
        <time>2022-09-02T11:12:19Z</time>
      </trkpt>
      <trkpt lat="43.15258" lon="2.17941">
        <ele>370.8</ele>
        <time>2022-09-02T11:12:22Z</time>
      </trkpt>
      <trkpt lat="43.15256" lon="2.1792">
        <ele>370.6</ele>
        <time>2022-09-02T11:12:24Z</time>
      </trkpt>
      <trkpt lat="43.15248" lon="2.1789">
        <ele>370</ele>
        <time>2022-09-02T11:12:27Z</time>
      </trkpt>
      <trkpt lat="43.15245" lon="2.17879">
        <ele>369.4</ele>
        <time>2022-09-02T11:12:28Z</time>
      </trkpt>
      <trkpt lat="43.15236" lon="2.17848">
        <ele>368.2</ele>
        <time>2022-09-02T11:12:31Z</time>
      </trkpt>
      <trkpt lat="43.15233" lon="2.17827">
        <ele>367.6</ele>
        <time>2022-09-02T11:12:33Z</time>
      </trkpt>
      <trkpt lat="43.15233" lon="2.17816">
        <ele>367.4</ele>
        <time>2022-09-02T11:12:34Z</time>
      </trkpt>
      <trkpt lat="43.15234" lon="2.17806">
        <ele>367</ele>
        <time>2022-09-02T11:12:35Z</time>
      </trkpt>
      <trkpt lat="43.15242" lon="2.17788">
        <ele>366</ele>
        <time>2022-09-02T11:12:37Z</time>
      </trkpt>
      <trkpt lat="43.15248" lon="2.17781">
        <ele>365.6</ele>
        <time>2022-09-02T11:12:38Z</time>
      </trkpt>
      <trkpt lat="43.15261" lon="2.17771">
        <ele>365.2</ele>
        <time>2022-09-02T11:12:40Z</time>
      </trkpt>
      <trkpt lat="43.15268" lon="2.17766">
        <ele>365</ele>
        <time>2022-09-02T11:12:41Z</time>
      </trkpt>
      <trkpt lat="43.15295" lon="2.17747">
        <ele>364.4</ele>
        <time>2022-09-02T11:12:45Z</time>
      </trkpt>
      <trkpt lat="43.15308" lon="2.17734">
        <ele>363.8</ele>
        <time>2022-09-02T11:12:47Z</time>
      </trkpt>
      <trkpt lat="43.15314" lon="2.17727">
        <ele>363.8</ele>
        <time>2022-09-02T11:12:48Z</time>
      </trkpt>
      <trkpt lat="43.15323" lon="2.17709">
        <ele>363.2</ele>
        <time>2022-09-02T11:12:50Z</time>
      </trkpt>
      <trkpt lat="43.15328" lon="2.17677">
        <ele>362.6</ele>
        <time>2022-09-02T11:12:53Z</time>
      </trkpt>
      <trkpt lat="43.15324" lon="2.17645">
        <ele>362</ele>
        <time>2022-09-02T11:12:56Z</time>
      </trkpt>
      <trkpt lat="43.15321" lon="2.17634">
        <ele>361.8</ele>
        <time>2022-09-02T11:12:57Z</time>
      </trkpt>
      <trkpt lat="43.15318" lon="2.17624">
        <ele>361.6</ele>
        <time>2022-09-02T11:12:58Z</time>
      </trkpt>
      <trkpt lat="43.15314" lon="2.17614">
        <ele>361</ele>
        <time>2022-09-02T11:12:59Z</time>
      </trkpt>
      <trkpt lat="43.15305" lon="2.17596">
        <ele>360.2</ele>
        <time>2022-09-02T11:13:01Z</time>
      </trkpt>
      <trkpt lat="43.15293" lon="2.17581">
        <ele>359.8</ele>
        <time>2022-09-02T11:13:03Z</time>
      </trkpt>
      <trkpt lat="43.15278" lon="2.17571">
        <ele>359.2</ele>
        <time>2022-09-02T11:13:05Z</time>
      </trkpt>
      <trkpt lat="43.15271" lon="2.17566">
        <ele>359.2</ele>
        <time>2022-09-02T11:13:06Z</time>
      </trkpt>
      <trkpt lat="43.15256" lon="2.17554">
        <ele>358.6</ele>
        <time>2022-09-02T11:13:08Z</time>
      </trkpt>
      <trkpt lat="43.15251" lon="2.17546">
        <ele>358</ele>
        <time>2022-09-02T11:13:09Z</time>
      </trkpt>
      <trkpt lat="43.15243" lon="2.17513">
        <ele>357.6</ele>
        <time>2022-09-02T11:13:12Z</time>
      </trkpt>
      <trkpt lat="43.1524" lon="2.17503">
        <ele>357.2</ele>
        <time>2022-09-02T11:13:13Z</time>
      </trkpt>
      <trkpt lat="43.15231" lon="2.17483">
        <ele>356</ele>
        <time>2022-09-02T11:13:15Z</time>
      </trkpt>
      <trkpt lat="43.15227" lon="2.17472">
        <ele>355.4</ele>
        <time>2022-09-02T11:13:16Z</time>
      </trkpt>
      <trkpt lat="43.15224" lon="2.1746">
        <ele>354.8</ele>
        <time>2022-09-02T11:13:17Z</time>
      </trkpt>
      <trkpt lat="43.15223" lon="2.17435">
        <ele>353.8</ele>
        <time>2022-09-02T11:13:19Z</time>
      </trkpt>
      <trkpt lat="43.15236" lon="2.17403">
        <ele>352.8</ele>
        <time>2022-09-02T11:13:22Z</time>
      </trkpt>
      <trkpt lat="43.15242" lon="2.17393">
        <ele>352.2</ele>
        <time>2022-09-02T11:13:23Z</time>
      </trkpt>
      <trkpt lat="43.15258" lon="2.17361">
        <ele>350.8</ele>
        <time>2022-09-02T11:13:26Z</time>
      </trkpt>
      <trkpt lat="43.15268" lon="2.17339">
        <ele>350.2</ele>
        <time>2022-09-02T11:13:28Z</time>
      </trkpt>
      <trkpt lat="43.15277" lon="2.17317">
        <ele>349.8</ele>
        <time>2022-09-02T11:13:30Z</time>
      </trkpt>
      <trkpt lat="43.15286" lon="2.17282">
        <ele>349.2</ele>
        <time>2022-09-02T11:13:33Z</time>
      </trkpt>
      <trkpt lat="43.15288" lon="2.1727">
        <ele>348.6</ele>
        <time>2022-09-02T11:13:34Z</time>
      </trkpt>
      <trkpt lat="43.15286" lon="2.17247">
        <ele>347.6</ele>
        <time>2022-09-02T11:13:36Z</time>
      </trkpt>
      <trkpt lat="43.15279" lon="2.17214">
        <ele>346.4</ele>
        <time>2022-09-02T11:13:39Z</time>
      </trkpt>
      <trkpt lat="43.15275" lon="2.17204">
        <ele>346.6</ele>
        <time>2022-09-02T11:13:40Z</time>
      </trkpt>
      <trkpt lat="43.15257" lon="2.17153">
        <ele>345.4</ele>
        <time>2022-09-02T11:13:45Z</time>
      </trkpt>
      <trkpt lat="43.15254" lon="2.17142">
        <ele>345</ele>
        <time>2022-09-02T11:13:46Z</time>
      </trkpt>
      <trkpt lat="43.15252" lon="2.17099">
        <ele>344</ele>
        <time>2022-09-02T11:13:50Z</time>
      </trkpt>
      <trkpt lat="43.15256" lon="2.1707">
        <ele>343</ele>
        <time>2022-09-02T11:13:53Z</time>
      </trkpt>
      <trkpt lat="43.15259" lon="2.17052">
        <ele>343.2</ele>
        <time>2022-09-02T11:13:55Z</time>
      </trkpt>
      <trkpt lat="43.15261" lon="2.17035">
        <ele>342.8</ele>
        <time>2022-09-02T11:13:57Z</time>
      </trkpt>
      <trkpt lat="43.1527" lon="2.16976">
        <ele>342</ele>
        <time>2022-09-02T11:14:05Z</time>
      </trkpt>
      <trkpt lat="43.15275" lon="2.16943">
        <ele>341.4</ele>
        <time>2022-09-02T11:14:09Z</time>
      </trkpt>
      <trkpt lat="43.15282" lon="2.16895">
        <ele>340.8</ele>
        <time>2022-09-02T11:14:15Z</time>
      </trkpt>
      <trkpt lat="43.15287" lon="2.16862">
        <ele>340.2</ele>
        <time>2022-09-02T11:14:19Z</time>
      </trkpt>
      <trkpt lat="43.15296" lon="2.16806">
        <ele>339.4</ele>
        <time>2022-09-02T11:14:26Z</time>
      </trkpt>
      <trkpt lat="43.15297" lon="2.16798">
        <ele>339.2</ele>
        <time>2022-09-02T11:14:27Z</time>
      </trkpt>
      <trkpt lat="43.15308" lon="2.1675">
        <ele>338.4</ele>
        <time>2022-09-02T11:14:33Z</time>
      </trkpt>
      <trkpt lat="43.15311" lon="2.16742">
        <ele>338</ele>
        <time>2022-09-02T11:14:34Z</time>
      </trkpt>
      <trkpt lat="43.15316" lon="2.16728">
        <ele>337.6</ele>
        <time>2022-09-02T11:14:36Z</time>
      </trkpt>
      <trkpt lat="43.15329" lon="2.1671">
        <ele>337.6</ele>
        <time>2022-09-02T11:14:39Z</time>
      </trkpt>
      <trkpt lat="43.15349" lon="2.16696">
        <ele>337.4</ele>
        <time>2022-09-02T11:14:43Z</time>
      </trkpt>
      <trkpt lat="43.15355" lon="2.16694">
        <ele>337.4</ele>
        <time>2022-09-02T11:14:44Z</time>
      </trkpt>
      <trkpt lat="43.15375" lon="2.16683">
        <ele>337</ele>
        <time>2022-09-02T11:14:48Z</time>
      </trkpt>
      <trkpt lat="43.15383" lon="2.16675">
        <ele>337</ele>
        <time>2022-09-02T11:14:50Z</time>
      </trkpt>
      <trkpt lat="43.15396" lon="2.1665">
        <ele>336.8</ele>
        <time>2022-09-02T11:14:54Z</time>
      </trkpt>
      <trkpt lat="43.154" lon="2.16616">
        <ele>336.2</ele>
        <time>2022-09-02T11:14:58Z</time>
      </trkpt>
      <trkpt lat="43.15397" lon="2.16599">
        <ele>336</ele>
        <time>2022-09-02T11:15:00Z</time>
      </trkpt>
      <trkpt lat="43.15395" lon="2.16591">
        <ele>336</ele>
        <time>2022-09-02T11:15:01Z</time>
      </trkpt>
      <trkpt lat="43.15391" lon="2.16574">
        <ele>336</ele>
        <time>2022-09-02T11:15:03Z</time>
      </trkpt>
      <trkpt lat="43.15375" lon="2.16525">
        <ele>335</ele>
        <time>2022-09-02T11:15:09Z</time>
      </trkpt>
      <trkpt lat="43.15372" lon="2.16518">
        <ele>335</ele>
        <time>2022-09-02T11:15:10Z</time>
      </trkpt>
      <trkpt lat="43.15365" lon="2.16503">
        <ele>334.6</ele>
        <time>2022-09-02T11:15:12Z</time>
      </trkpt>
      <trkpt lat="43.1535" lon="2.16477">
        <ele>334</ele>
        <time>2022-09-02T11:15:16Z</time>
      </trkpt>
      <trkpt lat="43.15343" lon="2.16464">
        <ele>333.8</ele>
        <time>2022-09-02T11:15:18Z</time>
      </trkpt>
      <trkpt lat="43.15334" lon="2.16443">
        <ele>333.6</ele>
        <time>2022-09-02T11:15:21Z</time>
      </trkpt>
      <trkpt lat="43.15333" lon="2.16436">
        <ele>333.6</ele>
        <time>2022-09-02T11:15:22Z</time>
      </trkpt>
      <trkpt lat="43.15334" lon="2.16406">
        <ele>332.8</ele>
        <time>2022-09-02T11:15:26Z</time>
      </trkpt>
      <trkpt lat="43.15338" lon="2.16392">
        <ele>332.6</ele>
        <time>2022-09-02T11:15:28Z</time>
      </trkpt>
      <trkpt lat="43.15341" lon="2.1637">
        <ele>332.8</ele>
        <time>2022-09-02T11:15:31Z</time>
      </trkpt>
      <trkpt lat="43.15342" lon="2.16362">
        <ele>332.8</ele>
        <time>2022-09-02T11:15:32Z</time>
      </trkpt>
      <trkpt lat="43.15341" lon="2.16347">
        <ele>332.2</ele>
        <time>2022-09-02T11:15:34Z</time>
      </trkpt>
      <trkpt lat="43.15335" lon="2.16323">
        <ele>332.2</ele>
        <time>2022-09-02T11:15:37Z</time>
      </trkpt>
      <trkpt lat="43.15322" lon="2.16305">
        <ele>331.8</ele>
        <time>2022-09-02T11:15:40Z</time>
      </trkpt>
      <trkpt lat="43.15317" lon="2.163">
        <ele>331.6</ele>
        <time>2022-09-02T11:15:41Z</time>
      </trkpt>
      <trkpt lat="43.15293" lon="2.16292">
        <ele>331.2</ele>
        <time>2022-09-02T11:15:45Z</time>
      </trkpt>
      <trkpt lat="43.15286" lon="2.16293">
        <ele>330.8</ele>
        <time>2022-09-02T11:15:46Z</time>
      </trkpt>
      <trkpt lat="43.15268" lon="2.163">
        <ele>330.6</ele>
        <time>2022-09-02T11:15:49Z</time>
      </trkpt>
      <trkpt lat="43.15239" lon="2.16312">
        <ele>330.4</ele>
        <time>2022-09-02T11:15:54Z</time>
      </trkpt>
      <trkpt lat="43.15233" lon="2.16313">
        <ele>330.6</ele>
        <time>2022-09-02T11:15:55Z</time>
      </trkpt>
      <trkpt lat="43.15204" lon="2.16307">
        <ele>329.6</ele>
        <time>2022-09-02T11:16:00Z</time>
      </trkpt>
      <trkpt lat="43.15194" lon="2.16299">
        <ele>330</ele>
        <time>2022-09-02T11:16:02Z</time>
      </trkpt>
      <trkpt lat="43.15182" lon="2.16288">
        <ele>329.6</ele>
        <time>2022-09-02T11:16:05Z</time>
      </trkpt>
      <trkpt lat="43.15174" lon="2.1628">
        <ele>329</ele>
        <time>2022-09-02T11:16:07Z</time>
      </trkpt>
      <trkpt lat="43.15166" lon="2.16272">
        <ele>328.6</ele>
        <time>2022-09-02T11:16:09Z</time>
      </trkpt>
      <trkpt lat="43.15158" lon="2.16264">
        <ele>328.2</ele>
        <time>2022-09-02T11:16:11Z</time>
      </trkpt>
      <trkpt lat="43.15135" lon="2.16232">
        <ele>327.4</ele>
        <time>2022-09-02T11:16:18Z</time>
      </trkpt>
      <trkpt lat="43.15115" lon="2.16192">
        <ele>327.6</ele>
        <time>2022-09-02T11:16:25Z</time>
      </trkpt>
      <trkpt lat="43.15102" lon="2.16146">
        <ele>326.8</ele>
        <time>2022-09-02T11:16:32Z</time>
      </trkpt>
      <trkpt lat="43.151" lon="2.16133">
        <ele>326.4</ele>
        <time>2022-09-02T11:16:34Z</time>
      </trkpt>
      <trkpt lat="43.15095" lon="2.16098">
        <ele>325.4</ele>
        <time>2022-09-02T11:16:39Z</time>
      </trkpt>
      <trkpt lat="43.15093" lon="2.16084">
        <ele>325.4</ele>
        <time>2022-09-02T11:16:41Z</time>
      </trkpt>
      <trkpt lat="43.15089" lon="2.16047">
        <ele>325</ele>
        <time>2022-09-02T11:16:47Z</time>
      </trkpt>
      <trkpt lat="43.15088" lon="2.16001">
        <ele>324.6</ele>
        <time>2022-09-02T11:16:54Z</time>
      </trkpt>
      <trkpt lat="43.15091" lon="2.15974">
        <ele>324.2</ele>
        <time>2022-09-02T11:16:58Z</time>
      </trkpt>
      <trkpt lat="43.15097" lon="2.15947">
        <ele>323.8</ele>
        <time>2022-09-02T11:17:02Z</time>
      </trkpt>
      <trkpt lat="43.15103" lon="2.15922">
        <ele>324.2</ele>
        <time>2022-09-02T11:17:06Z</time>
      </trkpt>
      <trkpt lat="43.15109" lon="2.15904">
        <ele>323.6</ele>
        <time>2022-09-02T11:17:09Z</time>
      </trkpt>
      <trkpt lat="43.15114" lon="2.15887">
        <ele>323.2</ele>
        <time>2022-09-02T11:17:12Z</time>
      </trkpt>
      <trkpt lat="43.15122" lon="2.15856">
        <ele>322.4</ele>
        <time>2022-09-02T11:17:17Z</time>
      </trkpt>
      <trkpt lat="43.15125" lon="2.15837">
        <ele>322.4</ele>
        <time>2022-09-02T11:17:20Z</time>
      </trkpt>
      <trkpt lat="43.15126" lon="2.15816">
        <ele>322.2</ele>
        <time>2022-09-02T11:17:23Z</time>
      </trkpt>
      <trkpt lat="43.15126" lon="2.15809">
        <ele>322</ele>
        <time>2022-09-02T11:17:24Z</time>
      </trkpt>
      <trkpt lat="43.15125" lon="2.15802">
        <ele>322</ele>
        <time>2022-09-02T11:17:25Z</time>
      </trkpt>
      <trkpt lat="43.15122" lon="2.15782">
        <ele>321.8</ele>
        <time>2022-09-02T11:17:28Z</time>
      </trkpt>
      <trkpt lat="43.15116" lon="2.15733">
        <ele>321.2</ele>
        <time>2022-09-02T11:17:35Z</time>
      </trkpt>
      <trkpt lat="43.15116" lon="2.15726">
        <ele>321</ele>
        <time>2022-09-02T11:17:36Z</time>
      </trkpt>
      <trkpt lat="43.15118" lon="2.15706">
        <ele>320.6</ele>
        <time>2022-09-02T11:17:39Z</time>
      </trkpt>
      <trkpt lat="43.15122" lon="2.15693">
        <ele>320.4</ele>
        <time>2022-09-02T11:17:41Z</time>
      </trkpt>
      <trkpt lat="43.15136" lon="2.15656">
        <ele>320</ele>
        <time>2022-09-02T11:17:47Z</time>
      </trkpt>
      <trkpt lat="43.15161" lon="2.15623">
        <ele>319.2</ele>
        <time>2022-09-02T11:17:54Z</time>
      </trkpt>
      <trkpt lat="43.1518" lon="2.15599">
        <ele>319</ele>
        <time>2022-09-02T11:17:59Z</time>
      </trkpt>
      <trkpt lat="43.15191" lon="2.15584">
        <ele>318.6</ele>
        <time>2022-09-02T11:18:02Z</time>
      </trkpt>
      <trkpt lat="43.15194" lon="2.15579">
        <ele>318.4</ele>
        <time>2022-09-02T11:18:03Z</time>
      </trkpt>
      <trkpt lat="43.15211" lon="2.15554">
        <ele>317.8</ele>
        <time>2022-09-02T11:18:08Z</time>
      </trkpt>
      <trkpt lat="43.15215" lon="2.1555">
        <ele>317.8</ele>
        <time>2022-09-02T11:18:09Z</time>
      </trkpt>
      <trkpt lat="43.15219" lon="2.15546">
        <ele>317.6</ele>
        <time>2022-09-02T11:18:10Z</time>
      </trkpt>
      <trkpt lat="43.15233" lon="2.15538">
        <ele>317.4</ele>
        <time>2022-09-02T11:18:13Z</time>
      </trkpt>
      <trkpt lat="43.15238" lon="2.15537">
        <ele>317.4</ele>
        <time>2022-09-02T11:18:14Z</time>
      </trkpt>
      <trkpt lat="43.15243" lon="2.15536">
        <ele>317.4</ele>
        <time>2022-09-02T11:18:15Z</time>
      </trkpt>
      <trkpt lat="43.15258" lon="2.15533">
        <ele>317.2</ele>
        <time>2022-09-02T11:18:18Z</time>
      </trkpt>
      <trkpt lat="43.15269" lon="2.15523">
        <ele>317.6</ele>
        <time>2022-09-02T11:18:21Z</time>
      </trkpt>
      <trkpt lat="43.15276" lon="2.155">
        <ele>317</ele>
        <time>2022-09-02T11:18:25Z</time>
      </trkpt>
      <trkpt lat="43.15276" lon="2.15493">
        <ele>317</ele>
        <time>2022-09-02T11:18:26Z</time>
      </trkpt>
      <trkpt lat="43.15277" lon="2.15486">
        <ele>316.8</ele>
        <time>2022-09-02T11:18:27Z</time>
      </trkpt>
      <trkpt lat="43.15276" lon="2.15467">
        <ele>316.8</ele>
        <time>2022-09-02T11:18:30Z</time>
      </trkpt>
      <trkpt lat="43.15275" lon="2.15454">
        <ele>316.4</ele>
        <time>2022-09-02T11:18:32Z</time>
      </trkpt>
      <trkpt lat="43.15268" lon="2.15427">
        <ele>316.2</ele>
        <time>2022-09-02T11:18:36Z</time>
      </trkpt>
      <trkpt lat="43.15266" lon="2.15421">
        <ele>316.2</ele>
        <time>2022-09-02T11:18:37Z</time>
      </trkpt>
      <trkpt lat="43.1526" lon="2.1541">
        <ele>315.8</ele>
        <time>2022-09-02T11:18:39Z</time>
      </trkpt>
      <trkpt lat="43.15256" lon="2.15405">
        <ele>315.4</ele>
        <time>2022-09-02T11:18:40Z</time>
      </trkpt>
      <trkpt lat="43.1523" lon="2.15392">
        <ele>314.6</ele>
        <time>2022-09-02T11:18:45Z</time>
      </trkpt>
      <trkpt lat="43.15219" lon="2.15392">
        <ele>314.4</ele>
        <time>2022-09-02T11:18:47Z</time>
      </trkpt>
      <trkpt lat="43.15201" lon="2.15386">
        <ele>314.2</ele>
        <time>2022-09-02T11:18:50Z</time>
      </trkpt>
      <trkpt lat="43.15181" lon="2.15368">
        <ele>314</ele>
        <time>2022-09-02T11:18:54Z</time>
      </trkpt>
      <trkpt lat="43.1517" lon="2.1535">
        <ele>313.8</ele>
        <time>2022-09-02T11:18:57Z</time>
      </trkpt>
      <trkpt lat="43.15166" lon="2.15344">
        <ele>313.6</ele>
        <time>2022-09-02T11:18:58Z</time>
      </trkpt>
      <trkpt lat="43.15163" lon="2.15338">
        <ele>313.6</ele>
        <time>2022-09-02T11:18:59Z</time>
      </trkpt>
      <trkpt lat="43.15142" lon="2.15299">
        <ele>312.6</ele>
        <time>2022-09-02T11:19:06Z</time>
      </trkpt>
      <trkpt lat="43.15138" lon="2.15286">
        <ele>312.8</ele>
        <time>2022-09-02T11:19:08Z</time>
      </trkpt>
      <trkpt lat="43.15135" lon="2.15272">
        <ele>313</ele>
        <time>2022-09-02T11:19:10Z</time>
      </trkpt>
      <trkpt lat="43.15135" lon="2.15257">
        <ele>312.8</ele>
        <time>2022-09-02T11:19:12Z</time>
      </trkpt>
      <trkpt lat="43.15137" lon="2.15242">
        <ele>312.4</ele>
        <time>2022-09-02T11:19:14Z</time>
      </trkpt>
      <trkpt lat="43.15138" lon="2.15234">
        <ele>312.2</ele>
        <time>2022-09-02T11:19:15Z</time>
      </trkpt>
      <trkpt lat="43.15142" lon="2.15219">
        <ele>311.8</ele>
        <time>2022-09-02T11:19:17Z</time>
      </trkpt>
      <trkpt lat="43.15152" lon="2.1518">
        <ele>311.8</ele>
        <time>2022-09-02T11:19:23Z</time>
      </trkpt>
      <trkpt lat="43.15156" lon="2.15151">
        <ele>311.4</ele>
        <time>2022-09-02T11:19:27Z</time>
      </trkpt>
      <trkpt lat="43.15156" lon="2.15144">
        <ele>311.2</ele>
        <time>2022-09-02T11:19:28Z</time>
      </trkpt>
      <trkpt lat="43.15156" lon="2.15136">
        <ele>311.2</ele>
        <time>2022-09-02T11:19:29Z</time>
      </trkpt>
      <trkpt lat="43.15155" lon="2.15122">
        <ele>311</ele>
        <time>2022-09-02T11:19:31Z</time>
      </trkpt>
      <trkpt lat="43.15148" lon="2.15099">
        <ele>310.8</ele>
        <time>2022-09-02T11:19:34Z</time>
      </trkpt>
      <trkpt lat="43.15138" lon="2.1508">
        <ele>310.4</ele>
        <time>2022-09-02T11:19:37Z</time>
      </trkpt>
      <trkpt lat="43.15134" lon="2.15074">
        <ele>310.2</ele>
        <time>2022-09-02T11:19:38Z</time>
      </trkpt>
      <trkpt lat="43.1513" lon="2.15068">
        <ele>310</ele>
        <time>2022-09-02T11:19:39Z</time>
      </trkpt>
      <trkpt lat="43.15102" lon="2.15036">
        <ele>310.2</ele>
        <time>2022-09-02T11:19:46Z</time>
      </trkpt>
      <trkpt lat="43.15077" lon="2.15009">
        <ele>309.4</ele>
        <time>2022-09-02T11:19:52Z</time>
      </trkpt>
      <trkpt lat="43.15061" lon="2.14991">
        <ele>309.2</ele>
        <time>2022-09-02T11:19:56Z</time>
      </trkpt>
      <trkpt lat="43.15046" lon="2.14975">
        <ele>308.6</ele>
        <time>2022-09-02T11:20:00Z</time>
      </trkpt>
      <trkpt lat="43.15021" lon="2.14948">
        <ele>308.6</ele>
        <time>2022-09-02T11:20:07Z</time>
      </trkpt>
      <trkpt lat="43.15014" lon="2.14941">
        <ele>308.4</ele>
        <time>2022-09-02T11:20:09Z</time>
      </trkpt>
      <trkpt lat="43.15004" lon="2.14929">
        <ele>308.4</ele>
        <time>2022-09-02T11:20:12Z</time>
      </trkpt>
      <trkpt lat="43.15" lon="2.14925">
        <ele>308</ele>
        <time>2022-09-02T11:20:13Z</time>
      </trkpt>
      <trkpt lat="43.14987" lon="2.14907">
        <ele>308.2</ele>
        <time>2022-09-02T11:20:17Z</time>
      </trkpt>
      <trkpt lat="43.14981" lon="2.14897">
        <ele>308.2</ele>
        <time>2022-09-02T11:20:19Z</time>
      </trkpt>
      <trkpt lat="43.14964" lon="2.14856">
        <ele>307.6</ele>
        <time>2022-09-02T11:20:26Z</time>
      </trkpt>
      <trkpt lat="43.1496" lon="2.14842">
        <ele>307</ele>
        <time>2022-09-02T11:20:28Z</time>
      </trkpt>
      <trkpt lat="43.14955" lon="2.14829">
        <ele>307</ele>
        <time>2022-09-02T11:20:30Z</time>
      </trkpt>
      <trkpt lat="43.1495" lon="2.14816">
        <ele>307</ele>
        <time>2022-09-02T11:20:32Z</time>
      </trkpt>
      <trkpt lat="43.14947" lon="2.14809">
        <ele>306.8</ele>
        <time>2022-09-02T11:20:33Z</time>
      </trkpt>
      <trkpt lat="43.14935" lon="2.14794">
        <ele>305.8</ele>
        <time>2022-09-02T11:20:36Z</time>
      </trkpt>
      <trkpt lat="43.14931" lon="2.14789">
        <ele>305.6</ele>
        <time>2022-09-02T11:20:37Z</time>
      </trkpt>
      <trkpt lat="43.14911" lon="2.14765">
        <ele>305.4</ele>
        <time>2022-09-02T11:20:41Z</time>
      </trkpt>
      <trkpt lat="43.14907" lon="2.14757">
        <ele>305.2</ele>
        <time>2022-09-02T11:20:42Z</time>
      </trkpt>
      <trkpt lat="43.14902" lon="2.14739">
        <ele>304.8</ele>
        <time>2022-09-02T11:20:44Z</time>
      </trkpt>
      <trkpt lat="43.149" lon="2.1473">
        <ele>304.6</ele>
        <time>2022-09-02T11:20:45Z</time>
      </trkpt>
      <trkpt lat="43.14899" lon="2.1472">
        <ele>304.2</ele>
        <time>2022-09-02T11:20:46Z</time>
      </trkpt>
      <trkpt lat="43.14895" lon="2.147">
        <ele>303.2</ele>
        <time>2022-09-02T11:20:48Z</time>
      </trkpt>
      <trkpt lat="43.14889" lon="2.14659">
        <ele>302</ele>
        <time>2022-09-02T11:20:52Z</time>
      </trkpt>
      <trkpt lat="43.14886" lon="2.14649">
        <ele>301.6</ele>
        <time>2022-09-02T11:20:53Z</time>
      </trkpt>
      <trkpt lat="43.14882" lon="2.1464">
        <ele>301</ele>
        <time>2022-09-02T11:20:54Z</time>
      </trkpt>
      <trkpt lat="43.14871" lon="2.14628">
        <ele>300</ele>
        <time>2022-09-02T11:20:56Z</time>
      </trkpt>
      <trkpt lat="43.14865" lon="2.14625">
        <ele>299.8</ele>
        <time>2022-09-02T11:20:57Z</time>
      </trkpt>
      <trkpt lat="43.14852" lon="2.14624">
        <ele>299.4</ele>
        <time>2022-09-02T11:20:59Z</time>
      </trkpt>
      <trkpt lat="43.14834" lon="2.14628">
        <ele>298.8</ele>
        <time>2022-09-02T11:21:02Z</time>
      </trkpt>
      <trkpt lat="43.1482" lon="2.14631">
        <ele>298.2</ele>
        <time>2022-09-02T11:21:04Z</time>
      </trkpt>
      <trkpt lat="43.14813" lon="2.14631">
        <ele>298.2</ele>
        <time>2022-09-02T11:21:05Z</time>
      </trkpt>
      <trkpt lat="43.14793" lon="2.14628">
        <ele>297.6</ele>
        <time>2022-09-02T11:21:08Z</time>
      </trkpt>
      <trkpt lat="43.14764" lon="2.14613">
        <ele>296.4</ele>
        <time>2022-09-02T11:21:12Z</time>
      </trkpt>
      <trkpt lat="43.14756" lon="2.14611">
        <ele>296.2</ele>
        <time>2022-09-02T11:21:13Z</time>
      </trkpt>
      <trkpt lat="43.1474" lon="2.14613">
        <ele>295.8</ele>
        <time>2022-09-02T11:21:15Z</time>
      </trkpt>
      <trkpt lat="43.14734" lon="2.14614">
        <ele>295.4</ele>
        <time>2022-09-02T11:21:16Z</time>
      </trkpt>
      <trkpt lat="43.14727" lon="2.14616">
        <ele>294.8</ele>
        <time>2022-09-02T11:21:17Z</time>
      </trkpt>
      <trkpt lat="43.14722" lon="2.14616">
        <ele>294</ele>
        <time>2022-09-02T11:21:18Z</time>
      </trkpt>
      <trkpt lat="43.14717" lon="2.14616">
        <ele>293.6</ele>
        <time>2022-09-02T11:21:19Z</time>
      </trkpt>
      <trkpt lat="43.14706" lon="2.1461">
        <ele>292.8</ele>
        <time>2022-09-02T11:21:22Z</time>
      </trkpt>
      <trkpt lat="43.14703" lon="2.14608">
        <ele>292.6</ele>
        <time>2022-09-02T11:21:23Z</time>
      </trkpt>
      <trkpt lat="43.14696" lon="2.14588">
        <ele>292.2</ele>
        <time>2022-09-02T11:21:27Z</time>
      </trkpt>
      <trkpt lat="43.14695" lon="2.14582">
        <ele>292.2</ele>
        <time>2022-09-02T11:21:28Z</time>
      </trkpt>
      <trkpt lat="43.14693" lon="2.14561">
        <ele>291.6</ele>
        <time>2022-09-02T11:21:31Z</time>
      </trkpt>
      <trkpt lat="43.14691" lon="2.14545">
        <ele>291</ele>
        <time>2022-09-02T11:21:33Z</time>
      </trkpt>
      <trkpt lat="43.14688" lon="2.14504">
        <ele>290.4</ele>
        <time>2022-09-02T11:21:38Z</time>
      </trkpt>
      <trkpt lat="43.14687" lon="2.14478">
        <ele>289.8</ele>
        <time>2022-09-02T11:21:41Z</time>
      </trkpt>
      <trkpt lat="43.14687" lon="2.14451">
        <ele>289.2</ele>
        <time>2022-09-02T11:21:44Z</time>
      </trkpt>
      <trkpt lat="43.14687" lon="2.14424">
        <ele>288</ele>
        <time>2022-09-02T11:21:47Z</time>
      </trkpt>
      <trkpt lat="43.14687" lon="2.14397">
        <ele>287</ele>
        <time>2022-09-02T11:21:50Z</time>
      </trkpt>
      <trkpt lat="43.14687" lon="2.14388">
        <ele>286.8</ele>
        <time>2022-09-02T11:21:51Z</time>
      </trkpt>
      <trkpt lat="43.14688" lon="2.14336">
        <ele>285.8</ele>
        <time>2022-09-02T11:21:57Z</time>
      </trkpt>
      <trkpt lat="43.14686" lon="2.14276">
        <ele>284.8</ele>
        <time>2022-09-02T11:22:04Z</time>
      </trkpt>
      <trkpt lat="43.14682" lon="2.14205">
        <ele>283.8</ele>
        <time>2022-09-02T11:22:12Z</time>
      </trkpt>
      <trkpt lat="43.14679" lon="2.14178">
        <ele>283.6</ele>
        <time>2022-09-02T11:22:15Z</time>
      </trkpt>
      <trkpt lat="43.14674" lon="2.14145">
        <ele>283.2</ele>
        <time>2022-09-02T11:22:19Z</time>
      </trkpt>
      <trkpt lat="43.1467" lon="2.14128">
        <ele>282.4</ele>
        <time>2022-09-02T11:22:21Z</time>
      </trkpt>
      <trkpt lat="43.14656" lon="2.14082">
        <ele>281.6</ele>
        <time>2022-09-02T11:22:27Z</time>
      </trkpt>
      <trkpt lat="43.14648" lon="2.14059">
        <ele>281.4</ele>
        <time>2022-09-02T11:22:30Z</time>
      </trkpt>
      <trkpt lat="43.14642" lon="2.14034">
        <ele>281.2</ele>
        <time>2022-09-02T11:22:33Z</time>
      </trkpt>
      <trkpt lat="43.14641" lon="2.14017">
        <ele>280.8</ele>
        <time>2022-09-02T11:22:35Z</time>
      </trkpt>
      <trkpt lat="43.14641" lon="2.14008">
        <ele>280.8</ele>
        <time>2022-09-02T11:22:36Z</time>
      </trkpt>
      <trkpt lat="43.14642" lon="2.14">
        <ele>280.8</ele>
        <time>2022-09-02T11:22:37Z</time>
      </trkpt>
      <trkpt lat="43.14646" lon="2.13979">
        <ele>280.4</ele>
        <time>2022-09-02T11:22:40Z</time>
      </trkpt>
      <trkpt lat="43.14651" lon="2.13966">
        <ele>280.4</ele>
        <time>2022-09-02T11:22:42Z</time>
      </trkpt>
      <trkpt lat="43.14656" lon="2.13953">
        <ele>280.2</ele>
        <time>2022-09-02T11:22:44Z</time>
      </trkpt>
      <trkpt lat="43.14669" lon="2.13922">
        <ele>279.4</ele>
        <time>2022-09-02T11:22:49Z</time>
      </trkpt>
      <trkpt lat="43.14672" lon="2.13916">
        <ele>279.4</ele>
        <time>2022-09-02T11:22:50Z</time>
      </trkpt>
      <trkpt lat="43.14678" lon="2.13903">
        <ele>279</ele>
        <time>2022-09-02T11:22:52Z</time>
      </trkpt>
      <trkpt lat="43.14689" lon="2.13871">
        <ele>278.8</ele>
        <time>2022-09-02T11:22:57Z</time>
      </trkpt>
      <trkpt lat="43.14697" lon="2.1383">
        <ele>277.8</ele>
        <time>2022-09-02T11:23:03Z</time>
      </trkpt>
      <trkpt lat="43.14697" lon="2.13823">
        <ele>277.6</ele>
        <time>2022-09-02T11:23:04Z</time>
      </trkpt>
      <trkpt lat="43.14695" lon="2.13806">
        <ele>277.4</ele>
        <time>2022-09-02T11:23:07Z</time>
      </trkpt>
      <trkpt lat="43.14699" lon="2.13791">
        <ele>277.4</ele>
        <time>2022-09-02T11:23:11Z</time>
      </trkpt>
      <trkpt lat="43.14707" lon="2.13785">
        <ele>278.6</ele>
        <time>2022-09-02T11:23:15Z</time>
      </trkpt>
      <trkpt lat="43.14709" lon="2.13785">
        <ele>278.8</ele>
        <time>2022-09-02T11:23:16Z</time>
      </trkpt>
      <trkpt lat="43.14719" lon="2.13779">
        <ele>280</ele>
        <time>2022-09-02T11:23:21Z</time>
      </trkpt>
      <trkpt lat="43.14721" lon="2.13779">
        <ele>280.4</ele>
        <time>2022-09-02T11:23:22Z</time>
      </trkpt>
      <trkpt lat="43.14726" lon="2.13777">
        <ele>281</ele>
        <time>2022-09-02T11:23:26Z</time>
      </trkpt>
      <trkpt lat="43.14727" lon="2.13776">
        <ele>281</ele>
        <time>2022-09-02T11:23:27Z</time>
      </trkpt>
      <trkpt lat="43.14732" lon="2.13772">
        <ele>281.8</ele>
        <time>2022-09-02T11:23:31Z</time>
      </trkpt>
      <trkpt lat="43.14734" lon="2.13771">
        <ele>282</ele>
        <time>2022-09-02T11:23:33Z</time>
      </trkpt>
      <trkpt lat="43.14733" lon="2.13762">
        <ele>282.4</ele>
        <time>2022-09-02T11:23:38Z</time>
      </trkpt>
      <trkpt lat="43.14731" lon="2.13752">
        <ele>283</ele>
        <time>2022-09-02T11:23:43Z</time>
      </trkpt>
      <trkpt lat="43.1473" lon="2.1375">
        <ele>283.2</ele>
        <time>2022-09-02T11:23:44Z</time>
      </trkpt>
      <trkpt lat="43.14728" lon="2.13746">
        <ele>284</ele>
        <time>2022-09-02T11:23:46Z</time>
      </trkpt>
      <trkpt lat="43.14726" lon="2.13735">
        <ele>284.6</ele>
        <time>2022-09-02T11:23:51Z</time>
      </trkpt>
      <trkpt lat="43.14724" lon="2.13724">
        <ele>285</ele>
        <time>2022-09-02T11:23:56Z</time>
      </trkpt>
      <trkpt lat="43.14724" lon="2.1372">
        <ele>285.2</ele>
        <time>2022-09-02T11:23:58Z</time>
      </trkpt>
      <trkpt lat="43.14725" lon="2.13704">
        <ele>285</ele>
        <time>2022-09-02T11:24:03Z</time>
      </trkpt>
      <trkpt lat="43.1473" lon="2.13692">
        <ele>285</ele>
        <time>2022-09-02T11:24:07Z</time>
      </trkpt>
      <trkpt lat="43.14734" lon="2.13685">
        <ele>286.2</ele>
        <time>2022-09-02T11:24:10Z</time>
      </trkpt>
      <trkpt lat="43.1474" lon="2.13678">
        <ele>286.4</ele>
        <time>2022-09-02T11:24:14Z</time>
      </trkpt>
      <trkpt lat="43.14752" lon="2.13662">
        <ele>286.8</ele>
        <time>2022-09-02T11:24:22Z</time>
      </trkpt>
      <trkpt lat="43.14755" lon="2.13653">
        <ele>286.2</ele>
        <time>2022-09-02T11:24:26Z</time>
      </trkpt>
      <trkpt lat="43.14755" lon="2.13651">
        <ele>286</ele>
        <time>2022-09-02T11:24:27Z</time>
      </trkpt>
      <trkpt lat="43.14756" lon="2.13645">
        <ele>286.2</ele>
        <time>2022-09-02T11:24:30Z</time>
      </trkpt>
      <trkpt lat="43.14759" lon="2.1364">
        <ele>286</ele>
        <time>2022-09-02T11:24:33Z</time>
      </trkpt>
      <trkpt lat="43.14759" lon="2.13646">
        <ele>287.6</ele>
        <time>2022-09-02T12:00:57Z</time>
      </trkpt>
      <trkpt lat="43.14756" lon="2.13653">
        <ele>287.6</ele>
        <time>2022-09-02T12:01:01Z</time>
      </trkpt>
      <trkpt lat="43.14753" lon="2.13656">
        <ele>288</ele>
        <time>2022-09-02T12:01:04Z</time>
      </trkpt>
      <trkpt lat="43.14746" lon="2.13667">
        <ele>288</ele>
        <time>2022-09-02T12:01:19Z</time>
      </trkpt>
      <trkpt lat="43.14742" lon="2.13671">
        <ele>288</ele>
        <time>2022-09-02T12:01:22Z</time>
      </trkpt>
      <trkpt lat="43.14739" lon="2.13674">
        <ele>288</ele>
        <time>2022-09-02T12:01:24Z</time>
      </trkpt>
      <trkpt lat="43.14731" lon="2.13686">
        <ele>287.8</ele>
        <time>2022-09-02T12:01:29Z</time>
      </trkpt>
      <trkpt lat="43.14725" lon="2.13703">
        <ele>286.6</ele>
        <time>2022-09-02T12:01:35Z</time>
      </trkpt>
      <trkpt lat="43.14726" lon="2.1372">
        <ele>287.2</ele>
        <time>2022-09-02T12:01:42Z</time>
      </trkpt>
      <trkpt lat="43.14729" lon="2.13739">
        <ele>286.8</ele>
        <time>2022-09-02T12:01:49Z</time>
      </trkpt>
      <trkpt lat="43.1473" lon="2.13742">
        <ele>286.6</ele>
        <time>2022-09-02T12:01:50Z</time>
      </trkpt>
      <trkpt lat="43.14734" lon="2.13755">
        <ele>285.4</ele>
        <time>2022-09-02T12:01:55Z</time>
      </trkpt>
      <trkpt lat="43.14735" lon="2.13761">
        <ele>285</ele>
        <time>2022-09-02T12:01:57Z</time>
      </trkpt>
      <trkpt lat="43.14732" lon="2.13769">
        <ele>284.2</ele>
        <time>2022-09-02T12:02:01Z</time>
      </trkpt>
      <trkpt lat="43.1473" lon="2.13771">
        <ele>284.2</ele>
        <time>2022-09-02T12:02:02Z</time>
      </trkpt>
      <trkpt lat="43.14722" lon="2.13776">
        <ele>283.2</ele>
        <time>2022-09-02T12:02:06Z</time>
      </trkpt>
      <trkpt lat="43.1472" lon="2.13776">
        <ele>283</ele>
        <time>2022-09-02T12:02:07Z</time>
      </trkpt>
      <trkpt lat="43.14716" lon="2.13775">
        <ele>282.4</ele>
        <time>2022-09-02T12:02:10Z</time>
      </trkpt>
      <trkpt lat="43.14717" lon="2.13776">
        <ele>282.2</ele>
        <time>2022-09-02T12:02:11Z</time>
      </trkpt>
      <trkpt lat="43.1471" lon="2.13782">
        <ele>282.2</ele>
        <time>2022-09-02T12:07:57Z</time>
      </trkpt>
      <trkpt lat="43.14705" lon="2.13785">
        <ele>281.6</ele>
        <time>2022-09-02T12:07:59Z</time>
      </trkpt>
      <trkpt lat="43.147" lon="2.1378">
        <ele>281.4</ele>
        <time>2022-09-02T12:08:02Z</time>
      </trkpt>
      <trkpt lat="43.14699" lon="2.13778">
        <ele>281.4</ele>
        <time>2022-09-02T12:08:03Z</time>
      </trkpt>
      <trkpt lat="43.14693" lon="2.13768">
        <ele>281.2</ele>
        <time>2022-09-02T12:08:07Z</time>
      </trkpt>
      <trkpt lat="43.14691" lon="2.13764">
        <ele>281</ele>
        <time>2022-09-02T12:08:08Z</time>
      </trkpt>
      <trkpt lat="43.14686" lon="2.13743">
        <ele>280.4</ele>
        <time>2022-09-02T12:08:14Z</time>
      </trkpt>
      <trkpt lat="43.14681" lon="2.13715">
        <ele>280.2</ele>
        <time>2022-09-02T12:08:22Z</time>
      </trkpt>
      <trkpt lat="43.14681" lon="2.13708">
        <ele>280</ele>
        <time>2022-09-02T12:08:24Z</time>
      </trkpt>
      <trkpt lat="43.1468" lon="2.13696">
        <ele>279.4</ele>
        <time>2022-09-02T12:08:28Z</time>
      </trkpt>
      <trkpt lat="43.14681" lon="2.13691">
        <ele>279</ele>
        <time>2022-09-02T12:08:30Z</time>
      </trkpt>
      <trkpt lat="43.1468" lon="2.13685">
        <ele>278.8</ele>
        <time>2022-09-02T12:08:33Z</time>
      </trkpt>
      <trkpt lat="43.14679" lon="2.13685">
        <ele>278.6</ele>
        <time>2022-09-02T12:08:34Z</time>
      </trkpt>
      <trkpt lat="43.14673" lon="2.13684">
        <ele>277.8</ele>
        <time>2022-09-02T12:08:39Z</time>
      </trkpt>
      <trkpt lat="43.1467" lon="2.13684">
        <ele>277.4</ele>
        <time>2022-09-02T12:08:41Z</time>
      </trkpt>
      <trkpt lat="43.14669" lon="2.13682">
        <ele>277.4</ele>
        <time>2022-09-02T12:08:42Z</time>
      </trkpt>
      <trkpt lat="43.14668" lon="2.13677">
        <ele>277.2</ele>
        <time>2022-09-02T12:08:45Z</time>
      </trkpt>
      <trkpt lat="43.14668" lon="2.13675">
        <ele>277.2</ele>
        <time>2022-09-02T12:08:46Z</time>
      </trkpt>
      <trkpt lat="43.14671" lon="2.1367">
        <ele>276.8</ele>
        <time>2022-09-02T12:08:49Z</time>
      </trkpt>
      <trkpt lat="43.14674" lon="2.13669">
        <ele>276.8</ele>
        <time>2022-09-02T12:08:51Z</time>
      </trkpt>
      <trkpt lat="43.14679" lon="2.13666">
        <ele>277.6</ele>
        <time>2022-09-02T12:08:55Z</time>
      </trkpt>
      <trkpt lat="43.14681" lon="2.13665">
        <ele>277.6</ele>
        <time>2022-09-02T12:08:57Z</time>
      </trkpt>
      <trkpt lat="43.14684" lon="2.13663">
        <ele>278</ele>
        <time>2022-09-02T12:08:59Z</time>
      </trkpt>
      <trkpt lat="43.14689" lon="2.13659">
        <ele>278</ele>
        <time>2022-09-02T12:09:03Z</time>
      </trkpt>
      <trkpt lat="43.14687" lon="2.13649">
        <ele>278.2</ele>
        <time>2022-09-02T12:11:51Z</time>
      </trkpt>
      <trkpt lat="43.14684" lon="2.13653">
        <ele>278</ele>
        <time>2022-09-02T12:11:53Z</time>
      </trkpt>
      <trkpt lat="43.14675" lon="2.13672">
        <ele>277.8</ele>
        <time>2022-09-02T12:12:00Z</time>
      </trkpt>
      <trkpt lat="43.14666" lon="2.13672">
        <ele>277.2</ele>
        <time>2022-09-02T12:12:04Z</time>
      </trkpt>
      <trkpt lat="43.14664" lon="2.13671">
        <ele>276.8</ele>
        <time>2022-09-02T12:12:05Z</time>
      </trkpt>
      <trkpt lat="43.14656" lon="2.13659">
        <ele>276</ele>
        <time>2022-09-02T12:12:09Z</time>
      </trkpt>
      <trkpt lat="43.14653" lon="2.13648">
        <ele>275.8</ele>
        <time>2022-09-02T12:12:11Z</time>
      </trkpt>
      <trkpt lat="43.14648" lon="2.13627">
        <ele>275</ele>
        <time>2022-09-02T12:12:14Z</time>
      </trkpt>
      <trkpt lat="43.14646" lon="2.13619">
        <ele>274.6</ele>
        <time>2022-09-02T12:12:15Z</time>
      </trkpt>
      <trkpt lat="43.14639" lon="2.13593">
        <ele>273.4</ele>
        <time>2022-09-02T12:12:18Z</time>
      </trkpt>
      <trkpt lat="43.14636" lon="2.13584">
        <ele>273.2</ele>
        <time>2022-09-02T12:12:19Z</time>
      </trkpt>
      <trkpt lat="43.14625" lon="2.13557">
        <ele>272.4</ele>
        <time>2022-09-02T12:12:22Z</time>
      </trkpt>
      <trkpt lat="43.14618" lon="2.13539">
        <ele>271</ele>
        <time>2022-09-02T12:12:24Z</time>
      </trkpt>
      <trkpt lat="43.14614" lon="2.13529">
        <ele>270.6</ele>
        <time>2022-09-02T12:12:25Z</time>
      </trkpt>
      <trkpt lat="43.14606" lon="2.1351">
        <ele>269.8</ele>
        <time>2022-09-02T12:12:27Z</time>
      </trkpt>
      <trkpt lat="43.14586" lon="2.13461">
        <ele>268.8</ele>
        <time>2022-09-02T12:12:32Z</time>
      </trkpt>
      <trkpt lat="43.14578" lon="2.13442">
        <ele>268.2</ele>
        <time>2022-09-02T12:12:34Z</time>
      </trkpt>
      <trkpt lat="43.14574" lon="2.13432">
        <ele>267.6</ele>
        <time>2022-09-02T12:12:35Z</time>
      </trkpt>
      <trkpt lat="43.14557" lon="2.13389">
        <ele>266.4</ele>
        <time>2022-09-02T12:12:39Z</time>
      </trkpt>
      <trkpt lat="43.14552" lon="2.13378">
        <ele>265.6</ele>
        <time>2022-09-02T12:12:40Z</time>
      </trkpt>
      <trkpt lat="43.14547" lon="2.13367">
        <ele>264.8</ele>
        <time>2022-09-02T12:12:41Z</time>
      </trkpt>
      <trkpt lat="43.14537" lon="2.13345">
        <ele>263.2</ele>
        <time>2022-09-02T12:12:43Z</time>
      </trkpt>
      <trkpt lat="43.14529" lon="2.1332">
        <ele>262</ele>
        <time>2022-09-02T12:12:45Z</time>
      </trkpt>
      <trkpt lat="43.14525" lon="2.13307">
        <ele>261.4</ele>
        <time>2022-09-02T12:12:46Z</time>
      </trkpt>
      <trkpt lat="43.14521" lon="2.13293">
        <ele>260.6</ele>
        <time>2022-09-02T12:12:47Z</time>
      </trkpt>
      <trkpt lat="43.14516" lon="2.13251">
        <ele>259</ele>
        <time>2022-09-02T12:12:50Z</time>
      </trkpt>
      <trkpt lat="43.14514" lon="2.13223">
        <ele>257.6</ele>
        <time>2022-09-02T12:12:52Z</time>
      </trkpt>
      <trkpt lat="43.14511" lon="2.1317">
        <ele>257</ele>
        <time>2022-09-02T12:12:56Z</time>
      </trkpt>
      <trkpt lat="43.1451" lon="2.13145">
        <ele>256</ele>
        <time>2022-09-02T12:12:58Z</time>
      </trkpt>
      <trkpt lat="43.14508" lon="2.1312">
        <ele>255</ele>
        <time>2022-09-02T12:13:00Z</time>
      </trkpt>
      <trkpt lat="43.14506" lon="2.13083">
        <ele>254.2</ele>
        <time>2022-09-02T12:13:03Z</time>
      </trkpt>
      <trkpt lat="43.14505" lon="2.1307">
        <ele>253.4</ele>
        <time>2022-09-02T12:13:04Z</time>
      </trkpt>
      <trkpt lat="43.14501" lon="2.13024">
        <ele>252.2</ele>
        <time>2022-09-02T12:13:08Z</time>
      </trkpt>
      <trkpt lat="43.14499" lon="2.1299">
        <ele>251.2</ele>
        <time>2022-09-02T12:13:11Z</time>
      </trkpt>
      <trkpt lat="43.14498" lon="2.12979">
        <ele>251</ele>
        <time>2022-09-02T12:13:12Z</time>
      </trkpt>
      <trkpt lat="43.14495" lon="2.12934">
        <ele>249.8</ele>
        <time>2022-09-02T12:13:16Z</time>
      </trkpt>
      <trkpt lat="43.14492" lon="2.12889">
        <ele>248.8</ele>
        <time>2022-09-02T12:13:20Z</time>
      </trkpt>
      <trkpt lat="43.1449" lon="2.12853">
        <ele>247.6</ele>
        <time>2022-09-02T12:13:23Z</time>
      </trkpt>
      <trkpt lat="43.14488" lon="2.12827">
        <ele>246.4</ele>
        <time>2022-09-02T12:13:25Z</time>
      </trkpt>
      <trkpt lat="43.14486" lon="2.128">
        <ele>245.2</ele>
        <time>2022-09-02T12:13:27Z</time>
      </trkpt>
      <trkpt lat="43.14484" lon="2.12787">
        <ele>244.2</ele>
        <time>2022-09-02T12:13:28Z</time>
      </trkpt>
      <trkpt lat="43.14474" lon="2.12747">
        <ele>242.6</ele>
        <time>2022-09-02T12:13:31Z</time>
      </trkpt>
      <trkpt lat="43.14469" lon="2.12734">
        <ele>241.8</ele>
        <time>2022-09-02T12:13:32Z</time>
      </trkpt>
      <trkpt lat="43.14464" lon="2.12721">
        <ele>241.4</ele>
        <time>2022-09-02T12:13:33Z</time>
      </trkpt>
      <trkpt lat="43.14454" lon="2.12696">
        <ele>240.8</ele>
        <time>2022-09-02T12:13:35Z</time>
      </trkpt>
      <trkpt lat="43.14443" lon="2.12672">
        <ele>240.2</ele>
        <time>2022-09-02T12:13:37Z</time>
      </trkpt>
      <trkpt lat="43.1443" lon="2.12638">
        <ele>239.8</ele>
        <time>2022-09-02T12:13:40Z</time>
      </trkpt>
      <trkpt lat="43.14408" lon="2.12583">
        <ele>239.6</ele>
        <time>2022-09-02T12:13:46Z</time>
      </trkpt>
      <trkpt lat="43.14397" lon="2.1255">
        <ele>240.4</ele>
        <time>2022-09-02T12:13:51Z</time>
      </trkpt>
      <trkpt lat="43.1438" lon="2.12509">
        <ele>240.4</ele>
        <time>2022-09-02T12:13:59Z</time>
      </trkpt>
      <trkpt lat="43.14365" lon="2.12472">
        <ele>240.8</ele>
        <time>2022-09-02T12:14:07Z</time>
      </trkpt>
      <trkpt lat="43.1436" lon="2.12459">
        <ele>241.4</ele>
        <time>2022-09-02T12:14:10Z</time>
      </trkpt>
      <trkpt lat="43.14351" lon="2.12437">
        <ele>241.2</ele>
        <time>2022-09-02T12:14:15Z</time>
      </trkpt>
      <trkpt lat="43.14339" lon="2.12404">
        <ele>240.4</ele>
        <time>2022-09-02T12:14:22Z</time>
      </trkpt>
      <trkpt lat="43.14333" lon="2.12391">
        <ele>240.6</ele>
        <time>2022-09-02T12:14:25Z</time>
      </trkpt>
      <trkpt lat="43.14321" lon="2.12362">
        <ele>240.8</ele>
        <time>2022-09-02T12:14:32Z</time>
      </trkpt>
      <trkpt lat="43.14317" lon="2.12353">
        <ele>240.8</ele>
        <time>2022-09-02T12:14:34Z</time>
      </trkpt>
      <trkpt lat="43.14305" lon="2.12323">
        <ele>241.4</ele>
        <time>2022-09-02T12:14:41Z</time>
      </trkpt>
      <trkpt lat="43.14302" lon="2.12314">
        <ele>241.4</ele>
        <time>2022-09-02T12:14:43Z</time>
      </trkpt>
      <trkpt lat="43.14287" lon="2.12276">
        <ele>242</ele>
        <time>2022-09-02T12:14:52Z</time>
      </trkpt>
      <trkpt lat="43.14284" lon="2.12268">
        <ele>242.4</ele>
        <time>2022-09-02T12:14:54Z</time>
      </trkpt>
      <trkpt lat="43.14276" lon="2.12246">
        <ele>242.8</ele>
        <time>2022-09-02T12:15:00Z</time>
      </trkpt>
      <trkpt lat="43.14268" lon="2.12225">
        <ele>243.4</ele>
        <time>2022-09-02T12:15:06Z</time>
      </trkpt>
      <trkpt lat="43.14266" lon="2.1222">
        <ele>243.6</ele>
        <time>2022-09-02T12:15:08Z</time>
      </trkpt>
      <trkpt lat="43.14265" lon="2.12217">
        <ele>243.8</ele>
        <time>2022-09-02T12:15:10Z</time>
      </trkpt>
      <trkpt lat="43.14266" lon="2.12225">
        <ele>243.8</ele>
        <time>2022-09-02T12:16:11Z</time>
      </trkpt>
      <trkpt lat="43.14269" lon="2.12233">
        <ele>243.6</ele>
        <time>2022-09-02T12:16:14Z</time>
      </trkpt>
      <trkpt lat="43.14277" lon="2.12258">
        <ele>243.4</ele>
        <time>2022-09-02T12:16:20Z</time>
      </trkpt>
      <trkpt lat="43.14289" lon="2.12288">
        <ele>243</ele>
        <time>2022-09-02T12:16:26Z</time>
      </trkpt>
      <trkpt lat="43.14301" lon="2.12318">
        <ele>242.4</ele>
        <time>2022-09-02T12:16:31Z</time>
      </trkpt>
      <trkpt lat="43.14313" lon="2.12349">
        <ele>241.6</ele>
        <time>2022-09-02T12:16:36Z</time>
      </trkpt>
      <trkpt lat="43.14323" lon="2.12374">
        <ele>241.4</ele>
        <time>2022-09-02T12:16:40Z</time>
      </trkpt>
      <trkpt lat="43.14335" lon="2.12402">
        <ele>241.4</ele>
        <time>2022-09-02T12:16:45Z</time>
      </trkpt>
      <trkpt lat="43.14338" lon="2.12407">
        <ele>241.2</ele>
        <time>2022-09-02T12:16:46Z</time>
      </trkpt>
      <trkpt lat="43.14352" lon="2.1244">
        <ele>241.4</ele>
        <time>2022-09-02T12:16:52Z</time>
      </trkpt>
      <trkpt lat="43.14357" lon="2.12454">
        <ele>240.2</ele>
        <time>2022-09-02T12:16:55Z</time>
      </trkpt>
      <trkpt lat="43.14365" lon="2.12471">
        <ele>240.2</ele>
        <time>2022-09-02T12:16:59Z</time>
      </trkpt>
      <trkpt lat="43.14375" lon="2.12477">
        <ele>240.8</ele>
        <time>2022-09-02T12:17:03Z</time>
      </trkpt>
      <trkpt lat="43.14377" lon="2.12476">
        <ele>240.6</ele>
        <time>2022-09-02T12:17:04Z</time>
      </trkpt>
      <trkpt lat="43.14382" lon="2.12469">
        <ele>240.4</ele>
        <time>2022-09-02T12:17:07Z</time>
      </trkpt>
      <trkpt lat="43.14384" lon="2.12466">
        <ele>240.4</ele>
        <time>2022-09-02T12:17:08Z</time>
      </trkpt>
      <trkpt lat="43.14392" lon="2.12447">
        <ele>240.6</ele>
        <time>2022-09-02T12:17:14Z</time>
      </trkpt>
      <trkpt lat="43.14407" lon="2.12419">
        <ele>241.2</ele>
        <time>2022-09-02T12:17:22Z</time>
      </trkpt>
      <trkpt lat="43.14411" lon="2.12412">
        <ele>241.4</ele>
        <time>2022-09-02T12:17:24Z</time>
      </trkpt>
      <trkpt lat="43.14426" lon="2.12384">
        <ele>241.4</ele>
        <time>2022-09-02T12:17:32Z</time>
      </trkpt>
      <trkpt lat="43.14447" lon="2.12346">
        <ele>241.4</ele>
        <time>2022-09-02T12:17:43Z</time>
      </trkpt>
      <trkpt lat="43.1446" lon="2.12316">
        <ele>242.2</ele>
        <time>2022-09-02T12:17:51Z</time>
      </trkpt>
      <trkpt lat="43.14461" lon="2.12283">
        <ele>242.2</ele>
        <time>2022-09-02T12:17:59Z</time>
      </trkpt>
      <trkpt lat="43.14463" lon="2.1225">
        <ele>242.2</ele>
        <time>2022-09-02T12:18:07Z</time>
      </trkpt>
      <trkpt lat="43.14464" lon="2.12238">
        <ele>242.6</ele>
        <time>2022-09-02T12:18:10Z</time>
      </trkpt>
      <trkpt lat="43.14469" lon="2.12221">
        <ele>243.2</ele>
        <time>2022-09-02T12:18:15Z</time>
      </trkpt>
      <trkpt lat="43.14471" lon="2.12215">
        <ele>243.8</ele>
        <time>2022-09-02T12:18:17Z</time>
      </trkpt>
      <trkpt lat="43.14475" lon="2.12204">
        <ele>244</ele>
        <time>2022-09-02T12:18:22Z</time>
      </trkpt>
      <trkpt lat="43.14477" lon="2.12195">
        <ele>243.8</ele>
        <time>2022-09-02T12:18:27Z</time>
      </trkpt>
      <trkpt lat="43.14476" lon="2.12192">
        <ele>243.8</ele>
        <time>2022-09-02T12:18:28Z</time>
      </trkpt>
      <trkpt lat="43.14465" lon="2.12184">
        <ele>243.6</ele>
        <time>2022-09-02T12:18:32Z</time>
      </trkpt>
      <trkpt lat="43.14436" lon="2.12163">
        <ele>243.6</ele>
        <time>2022-09-02T12:18:40Z</time>
      </trkpt>
      <trkpt lat="43.14406" lon="2.12142">
        <ele>243.4</ele>
        <time>2022-09-02T12:18:48Z</time>
      </trkpt>
      <trkpt lat="43.14376" lon="2.12122">
        <ele>243</ele>
        <time>2022-09-02T12:18:56Z</time>
      </trkpt>
      <trkpt lat="43.14341" lon="2.12098">
        <ele>242.8</ele>
        <time>2022-09-02T12:19:05Z</time>
      </trkpt>
      <trkpt lat="43.14305" lon="2.12074">
        <ele>242.6</ele>
        <time>2022-09-02T12:19:14Z</time>
      </trkpt>
      <trkpt lat="43.1427" lon="2.12049">
        <ele>242.4</ele>
        <time>2022-09-02T12:19:22Z</time>
      </trkpt>
      <trkpt lat="43.14232" lon="2.12024">
        <ele>242</ele>
        <time>2022-09-02T12:19:31Z</time>
      </trkpt>
      <trkpt lat="43.1422" lon="2.12016">
        <ele>241.8</ele>
        <time>2022-09-02T12:19:34Z</time>
      </trkpt>
      <trkpt lat="43.14205" lon="2.12005">
        <ele>241.8</ele>
        <time>2022-09-02T12:19:38Z</time>
      </trkpt>
      <trkpt lat="43.14174" lon="2.11984">
        <ele>241.8</ele>
        <time>2022-09-02T12:19:46Z</time>
      </trkpt>
      <trkpt lat="43.14145" lon="2.11964">
        <ele>242</ele>
        <time>2022-09-02T12:19:53Z</time>
      </trkpt>
      <trkpt lat="43.14107" lon="2.11938">
        <ele>241.8</ele>
        <time>2022-09-02T12:20:02Z</time>
      </trkpt>
      <trkpt lat="43.14081" lon="2.1192">
        <ele>241.4</ele>
        <time>2022-09-02T12:20:08Z</time>
      </trkpt>
      <trkpt lat="43.14032" lon="2.11887">
        <ele>241</ele>
        <time>2022-09-02T12:20:18Z</time>
      </trkpt>
      <trkpt lat="43.13985" lon="2.11854">
        <ele>240.8</ele>
        <time>2022-09-02T12:20:28Z</time>
      </trkpt>
      <trkpt lat="43.13937" lon="2.11822">
        <ele>241</ele>
        <time>2022-09-02T12:20:38Z</time>
      </trkpt>
      <trkpt lat="43.13918" lon="2.11809">
        <ele>240.6</ele>
        <time>2022-09-02T12:20:42Z</time>
      </trkpt>
      <trkpt lat="43.13884" lon="2.11786">
        <ele>240.4</ele>
        <time>2022-09-02T12:20:49Z</time>
      </trkpt>
      <trkpt lat="43.13835" lon="2.11752">
        <ele>240.6</ele>
        <time>2022-09-02T12:20:59Z</time>
      </trkpt>
      <trkpt lat="43.13831" lon="2.11748">
        <ele>240.4</ele>
        <time>2022-09-02T12:21:00Z</time>
      </trkpt>
      <trkpt lat="43.1379" lon="2.1172">
        <ele>241</ele>
        <time>2022-09-02T12:21:09Z</time>
      </trkpt>
      <trkpt lat="43.13753" lon="2.11695">
        <ele>241.6</ele>
        <time>2022-09-02T12:21:18Z</time>
      </trkpt>
      <trkpt lat="43.13745" lon="2.1169">
        <ele>241.6</ele>
        <time>2022-09-02T12:21:20Z</time>
      </trkpt>
      <trkpt lat="43.13712" lon="2.11668">
        <ele>242</ele>
        <time>2022-09-02T12:21:28Z</time>
      </trkpt>
      <trkpt lat="43.13696" lon="2.11657">
        <ele>242.8</ele>
        <time>2022-09-02T12:21:32Z</time>
      </trkpt>
      <trkpt lat="43.13671" lon="2.11639">
        <ele>243</ele>
        <time>2022-09-02T12:21:38Z</time>
      </trkpt>
      <trkpt lat="43.13633" lon="2.11614">
        <ele>242.8</ele>
        <time>2022-09-02T12:21:47Z</time>
      </trkpt>
      <trkpt lat="43.13599" lon="2.11591">
        <ele>242.6</ele>
        <time>2022-09-02T12:21:55Z</time>
      </trkpt>
      <trkpt lat="43.13557" lon="2.1156">
        <ele>243</ele>
        <time>2022-09-02T12:22:05Z</time>
      </trkpt>
      <trkpt lat="43.13511" lon="2.11529">
        <ele>243.6</ele>
        <time>2022-09-02T12:22:16Z</time>
      </trkpt>
      <trkpt lat="43.13503" lon="2.11524">
        <ele>243.8</ele>
        <time>2022-09-02T12:22:18Z</time>
      </trkpt>
      <trkpt lat="43.13481" lon="2.11507">
        <ele>244.6</ele>
        <time>2022-09-02T12:22:24Z</time>
      </trkpt>
      <trkpt lat="43.13475" lon="2.11504">
        <ele>245</ele>
        <time>2022-09-02T12:22:26Z</time>
      </trkpt>
      <trkpt lat="43.13463" lon="2.11496">
        <ele>246.2</ele>
        <time>2022-09-02T12:22:30Z</time>
      </trkpt>
      <trkpt lat="43.1346" lon="2.11494">
        <ele>246.4</ele>
        <time>2022-09-02T12:22:31Z</time>
      </trkpt>
      <trkpt lat="43.13442" lon="2.1148">
        <ele>247</ele>
        <time>2022-09-02T12:22:38Z</time>
      </trkpt>
      <trkpt lat="43.13433" lon="2.11474">
        <ele>247.2</ele>
        <time>2022-09-02T12:22:41Z</time>
      </trkpt>
      <trkpt lat="43.13418" lon="2.11461">
        <ele>246.8</ele>
        <time>2022-09-02T12:22:46Z</time>
      </trkpt>
      <trkpt lat="43.13393" lon="2.11438">
        <ele>247.2</ele>
        <time>2022-09-02T12:22:55Z</time>
      </trkpt>
      <trkpt lat="43.13375" lon="2.11415">
        <ele>247.6</ele>
        <time>2022-09-02T12:23:03Z</time>
      </trkpt>
      <trkpt lat="43.13356" lon="2.11391">
        <ele>248</ele>
        <time>2022-09-02T12:23:11Z</time>
      </trkpt>
      <trkpt lat="43.13349" lon="2.11382">
        <ele>248.2</ele>
        <time>2022-09-02T12:23:14Z</time>
      </trkpt>
      <trkpt lat="43.13339" lon="2.11368">
        <ele>248.4</ele>
        <time>2022-09-02T12:23:18Z</time>
      </trkpt>
      <trkpt lat="43.13321" lon="2.11336">
        <ele>248.4</ele>
        <time>2022-09-02T12:23:27Z</time>
      </trkpt>
      <trkpt lat="43.13308" lon="2.11305">
        <ele>248.6</ele>
        <time>2022-09-02T12:23:35Z</time>
      </trkpt>
      <trkpt lat="43.13299" lon="2.11278">
        <ele>248.6</ele>
        <time>2022-09-02T12:23:42Z</time>
      </trkpt>
      <trkpt lat="43.13294" lon="2.11254">
        <ele>248.2</ele>
        <time>2022-09-02T12:23:48Z</time>
      </trkpt>
      <trkpt lat="43.13286" lon="2.11233">
        <ele>248.4</ele>
        <time>2022-09-02T12:23:53Z</time>
      </trkpt>
      <trkpt lat="43.13281" lon="2.1123">
        <ele>248.4</ele>
        <time>2022-09-02T12:23:55Z</time>
      </trkpt>
      <trkpt lat="43.13276" lon="2.11228">
        <ele>248.6</ele>
        <time>2022-09-02T12:23:57Z</time>
      </trkpt>
      <trkpt lat="43.13262" lon="2.11216">
        <ele>248.8</ele>
        <time>2022-09-02T12:24:03Z</time>
      </trkpt>
      <trkpt lat="43.1326" lon="2.11213">
        <ele>248.8</ele>
        <time>2022-09-02T12:24:04Z</time>
      </trkpt>
      <trkpt lat="43.13254" lon="2.11202">
        <ele>249.4</ele>
        <time>2022-09-02T12:24:08Z</time>
      </trkpt>
      <trkpt lat="43.13249" lon="2.11193">
        <ele>249.2</ele>
        <time>2022-09-02T12:24:11Z</time>
      </trkpt>
      <trkpt lat="43.13246" lon="2.11169">
        <ele>249.6</ele>
        <time>2022-09-02T12:24:17Z</time>
      </trkpt>
      <trkpt lat="43.13249" lon="2.11128">
        <ele>250</ele>
        <time>2022-09-02T12:24:26Z</time>
      </trkpt>
      <trkpt lat="43.13251" lon="2.11102">
        <ele>250.2</ele>
        <time>2022-09-02T12:24:33Z</time>
      </trkpt>
      <trkpt lat="43.13251" lon="2.11096">
        <ele>250.4</ele>
        <time>2022-09-02T12:24:35Z</time>
      </trkpt>
      <trkpt lat="43.13255" lon="2.11079">
        <ele>250.8</ele>
        <time>2022-09-02T12:24:40Z</time>
      </trkpt>
      <trkpt lat="43.13256" lon="2.11052">
        <ele>251.2</ele>
        <time>2022-09-02T12:24:46Z</time>
      </trkpt>
      <trkpt lat="43.13256" lon="2.11042">
        <ele>251.4</ele>
        <time>2022-09-02T12:24:48Z</time>
      </trkpt>
      <trkpt lat="43.13256" lon="2.11009">
        <ele>251.6</ele>
        <time>2022-09-02T12:24:54Z</time>
      </trkpt>
      <trkpt lat="43.13257" lon="2.10947">
        <ele>252.2</ele>
        <time>2022-09-02T12:25:05Z</time>
      </trkpt>
      <trkpt lat="43.13257" lon="2.10936">
        <ele>252.4</ele>
        <time>2022-09-02T12:25:07Z</time>
      </trkpt>
      <trkpt lat="43.13258" lon="2.10885">
        <ele>252.4</ele>
        <time>2022-09-02T12:25:16Z</time>
      </trkpt>
      <trkpt lat="43.13255" lon="2.10838">
        <ele>253</ele>
        <time>2022-09-02T12:25:24Z</time>
      </trkpt>
      <trkpt lat="43.13249" lon="2.10789">
        <ele>253.4</ele>
        <time>2022-09-02T12:25:32Z</time>
      </trkpt>
      <trkpt lat="43.13247" lon="2.10777">
        <ele>253.4</ele>
        <time>2022-09-02T12:25:34Z</time>
      </trkpt>
      <trkpt lat="43.13239" lon="2.10743">
        <ele>254</ele>
        <time>2022-09-02T12:25:40Z</time>
      </trkpt>
      <trkpt lat="43.13221" lon="2.10682">
        <ele>254.6</ele>
        <time>2022-09-02T12:25:51Z</time>
      </trkpt>
      <trkpt lat="43.13202" lon="2.10633">
        <ele>254.4</ele>
        <time>2022-09-02T12:26:00Z</time>
      </trkpt>
      <trkpt lat="43.13183" lon="2.10598">
        <ele>255</ele>
        <time>2022-09-02T12:26:07Z</time>
      </trkpt>
      <trkpt lat="43.13158" lon="2.10556">
        <ele>255.2</ele>
        <time>2022-09-02T12:26:16Z</time>
      </trkpt>
      <trkpt lat="43.13138" lon="2.10522">
        <ele>255.6</ele>
        <time>2022-09-02T12:26:23Z</time>
      </trkpt>
      <trkpt lat="43.13128" lon="2.10507">
        <ele>256</ele>
        <time>2022-09-02T12:26:26Z</time>
      </trkpt>
      <trkpt lat="43.13113" lon="2.10482">
        <ele>256.4</ele>
        <time>2022-09-02T12:26:31Z</time>
      </trkpt>
      <trkpt lat="43.13104" lon="2.10468">
        <ele>256.4</ele>
        <time>2022-09-02T12:26:34Z</time>
      </trkpt>
      <trkpt lat="43.13091" lon="2.10449">
        <ele>256.6</ele>
        <time>2022-09-02T12:26:38Z</time>
      </trkpt>
      <trkpt lat="43.13075" lon="2.10426">
        <ele>256.8</ele>
        <time>2022-09-02T12:26:43Z</time>
      </trkpt>
      <trkpt lat="43.1305" lon="2.10386">
        <ele>257</ele>
        <time>2022-09-02T12:26:51Z</time>
      </trkpt>
      <trkpt lat="43.13047" lon="2.10382">
        <ele>257</ele>
        <time>2022-09-02T12:26:52Z</time>
      </trkpt>
      <trkpt lat="43.13032" lon="2.10356">
        <ele>257.4</ele>
        <time>2022-09-02T12:26:57Z</time>
      </trkpt>
      <trkpt lat="43.13013" lon="2.10326">
        <ele>257.6</ele>
        <time>2022-09-02T12:27:03Z</time>
      </trkpt>
      <trkpt lat="43.13009" lon="2.10322">
        <ele>257.6</ele>
        <time>2022-09-02T12:27:04Z</time>
      </trkpt>
      <trkpt lat="43.13" lon="2.10306">
        <ele>258</ele>
        <time>2022-09-02T12:27:07Z</time>
      </trkpt>
      <trkpt lat="43.12975" lon="2.10265">
        <ele>258.2</ele>
        <time>2022-09-02T12:27:15Z</time>
      </trkpt>
      <trkpt lat="43.12965" lon="2.1025">
        <ele>258.6</ele>
        <time>2022-09-02T12:27:18Z</time>
      </trkpt>
      <trkpt lat="43.12946" lon="2.10221">
        <ele>259</ele>
        <time>2022-09-02T12:27:24Z</time>
      </trkpt>
      <trkpt lat="43.1291" lon="2.1017">
        <ele>258.8</ele>
        <time>2022-09-02T12:27:35Z</time>
      </trkpt>
      <trkpt lat="43.12877" lon="2.10134">
        <ele>259.4</ele>
        <time>2022-09-02T12:27:44Z</time>
      </trkpt>
      <trkpt lat="43.12854" lon="2.10111">
        <ele>259.8</ele>
        <time>2022-09-02T12:27:50Z</time>
      </trkpt>
      <trkpt lat="43.12846" lon="2.10105">
        <ele>259.6</ele>
        <time>2022-09-02T12:27:52Z</time>
      </trkpt>
      <trkpt lat="43.12813" lon="2.10079">
        <ele>260</ele>
        <time>2022-09-02T12:28:00Z</time>
      </trkpt>
      <trkpt lat="43.12782" lon="2.10058">
        <ele>260</ele>
        <time>2022-09-02T12:28:07Z</time>
      </trkpt>
      <trkpt lat="43.12742" lon="2.10028">
        <ele>260.4</ele>
        <time>2022-09-02T12:28:16Z</time>
      </trkpt>
      <trkpt lat="43.12709" lon="2.10004">
        <ele>260.2</ele>
        <time>2022-09-02T12:28:24Z</time>
      </trkpt>
      <trkpt lat="43.12665" lon="2.09972">
        <ele>260.6</ele>
        <time>2022-09-02T12:28:34Z</time>
      </trkpt>
      <trkpt lat="43.1266" lon="2.09969">
        <ele>260.8</ele>
        <time>2022-09-02T12:28:35Z</time>
      </trkpt>
      <trkpt lat="43.1263" lon="2.09947">
        <ele>261</ele>
        <time>2022-09-02T12:28:42Z</time>
      </trkpt>
      <trkpt lat="43.12596" lon="2.09922">
        <ele>261</ele>
        <time>2022-09-02T12:28:50Z</time>
      </trkpt>
      <trkpt lat="43.12562" lon="2.09898">
        <ele>261</ele>
        <time>2022-09-02T12:28:58Z</time>
      </trkpt>
      <trkpt lat="43.12529" lon="2.09873">
        <ele>261.2</ele>
        <time>2022-09-02T12:29:06Z</time>
      </trkpt>
      <trkpt lat="43.12506" lon="2.09854">
        <ele>261.4</ele>
        <time>2022-09-02T12:29:13Z</time>
      </trkpt>
      <trkpt lat="43.12487" lon="2.0984">
        <ele>261.2</ele>
        <time>2022-09-02T12:29:19Z</time>
      </trkpt>
      <trkpt lat="43.12469" lon="2.09823">
        <ele>261</ele>
        <time>2022-09-02T12:29:25Z</time>
      </trkpt>
      <trkpt lat="43.12434" lon="2.0979">
        <ele>261.4</ele>
        <time>2022-09-02T12:29:35Z</time>
      </trkpt>
      <trkpt lat="43.12412" lon="2.09768">
        <ele>261.6</ele>
        <time>2022-09-02T12:29:42Z</time>
      </trkpt>
      <trkpt lat="43.1239" lon="2.09742">
        <ele>261.2</ele>
        <time>2022-09-02T12:29:50Z</time>
      </trkpt>
      <trkpt lat="43.1237" lon="2.09719">
        <ele>260.8</ele>
        <time>2022-09-02T12:29:58Z</time>
      </trkpt>
      <trkpt lat="43.12352" lon="2.09704">
        <ele>260.8</ele>
        <time>2022-09-02T12:30:05Z</time>
      </trkpt>
      <trkpt lat="43.12344" lon="2.09697">
        <ele>260.6</ele>
        <time>2022-09-02T12:30:11Z</time>
      </trkpt>
      <trkpt lat="43.12349" lon="2.09702">
        <ele>260.6</ele>
        <time>2022-09-02T12:30:27Z</time>
      </trkpt>
      <trkpt lat="43.12352" lon="2.09704">
        <ele>260.6</ele>
        <time>2022-09-02T12:30:29Z</time>
      </trkpt>
      <trkpt lat="43.12358" lon="2.09707">
        <ele>260.8</ele>
        <time>2022-09-02T12:30:34Z</time>
      </trkpt>
      <trkpt lat="43.1236" lon="2.09708">
        <ele>260.8</ele>
        <time>2022-09-02T12:30:35Z</time>
      </trkpt>
      <trkpt lat="43.12348" lon="2.097">
        <ele>260.8</ele>
        <time>2022-09-02T12:40:59Z</time>
      </trkpt>
      <trkpt lat="43.12346" lon="2.09698">
        <ele>260.8</ele>
        <time>2022-09-02T12:41:00Z</time>
      </trkpt>
      <trkpt lat="43.12331" lon="2.0968">
        <ele>261</ele>
        <time>2022-09-02T12:41:07Z</time>
      </trkpt>
      <trkpt lat="43.12307" lon="2.09652">
        <ele>261</ele>
        <time>2022-09-02T12:41:16Z</time>
      </trkpt>
      <trkpt lat="43.12283" lon="2.09619">
        <ele>261</ele>
        <time>2022-09-02T12:41:24Z</time>
      </trkpt>
      <trkpt lat="43.12255" lon="2.09578">
        <ele>261</ele>
        <time>2022-09-02T12:41:33Z</time>
      </trkpt>
      <trkpt lat="43.1223" lon="2.09544">
        <ele>261.2</ele>
        <time>2022-09-02T12:41:41Z</time>
      </trkpt>
      <trkpt lat="43.12228" lon="2.0954">
        <ele>261.2</ele>
        <time>2022-09-02T12:41:42Z</time>
      </trkpt>
      <trkpt lat="43.12216" lon="2.09521">
        <ele>261.2</ele>
        <time>2022-09-02T12:41:46Z</time>
      </trkpt>
      <trkpt lat="43.12195" lon="2.09481">
        <ele>261.8</ele>
        <time>2022-09-02T12:41:54Z</time>
      </trkpt>
      <trkpt lat="43.1219" lon="2.09472">
        <ele>262</ele>
        <time>2022-09-02T12:41:56Z</time>
      </trkpt>
      <trkpt lat="43.1218" lon="2.09446">
        <ele>262.2</ele>
        <time>2022-09-02T12:42:01Z</time>
      </trkpt>
      <trkpt lat="43.12167" lon="2.0941">
        <ele>262.6</ele>
        <time>2022-09-02T12:42:08Z</time>
      </trkpt>
      <trkpt lat="43.12162" lon="2.09389">
        <ele>263</ele>
        <time>2022-09-02T12:42:12Z</time>
      </trkpt>
      <trkpt lat="43.12156" lon="2.09373">
        <ele>263.2</ele>
        <time>2022-09-02T12:42:15Z</time>
      </trkpt>
      <trkpt lat="43.12147" lon="2.0933">
        <ele>263.8</ele>
        <time>2022-09-02T12:42:23Z</time>
      </trkpt>
      <trkpt lat="43.12145" lon="2.09319">
        <ele>264</ele>
        <time>2022-09-02T12:42:25Z</time>
      </trkpt>
      <trkpt lat="43.12141" lon="2.0928">
        <ele>264.2</ele>
        <time>2022-09-02T12:42:32Z</time>
      </trkpt>
      <trkpt lat="43.12139" lon="2.09228">
        <ele>265.2</ele>
        <time>2022-09-02T12:42:41Z</time>
      </trkpt>
      <trkpt lat="43.12138" lon="2.09176">
        <ele>265.6</ele>
        <time>2022-09-02T12:42:50Z</time>
      </trkpt>
      <trkpt lat="43.12135" lon="2.09138">
        <ele>266.2</ele>
        <time>2022-09-02T12:42:57Z</time>
      </trkpt>
      <trkpt lat="43.12135" lon="2.09127">
        <ele>266.4</ele>
        <time>2022-09-02T12:42:59Z</time>
      </trkpt>
      <trkpt lat="43.12135" lon="2.09082">
        <ele>267</ele>
        <time>2022-09-02T12:43:07Z</time>
      </trkpt>
      <trkpt lat="43.12135" lon="2.09071">
        <ele>267.4</ele>
        <time>2022-09-02T12:43:09Z</time>
      </trkpt>
      <trkpt lat="43.12135" lon="2.0904">
        <ele>267.2</ele>
        <time>2022-09-02T12:43:15Z</time>
      </trkpt>
      <trkpt lat="43.12134" lon="2.08986">
        <ele>267.6</ele>
        <time>2022-09-02T12:43:25Z</time>
      </trkpt>
      <trkpt lat="43.12134" lon="2.08947">
        <ele>268.4</ele>
        <time>2022-09-02T12:43:32Z</time>
      </trkpt>
      <trkpt lat="43.12134" lon="2.08942">
        <ele>268.4</ele>
        <time>2022-09-02T12:43:33Z</time>
      </trkpt>
      <trkpt lat="43.12132" lon="2.08892">
        <ele>268.8</ele>
        <time>2022-09-02T12:43:42Z</time>
      </trkpt>
      <trkpt lat="43.12132" lon="2.08866">
        <ele>269.2</ele>
        <time>2022-09-02T12:43:47Z</time>
      </trkpt>
      <trkpt lat="43.12132" lon="2.08851">
        <ele>269.4</ele>
        <time>2022-09-02T12:43:50Z</time>
      </trkpt>
      <trkpt lat="43.12131" lon="2.08813">
        <ele>269.6</ele>
        <time>2022-09-02T12:43:57Z</time>
      </trkpt>
      <trkpt lat="43.12131" lon="2.08772">
        <ele>270.2</ele>
        <time>2022-09-02T12:44:05Z</time>
      </trkpt>
      <trkpt lat="43.1213" lon="2.0875">
        <ele>270.4</ele>
        <time>2022-09-02T12:44:09Z</time>
      </trkpt>
      <trkpt lat="43.12129" lon="2.08724">
        <ele>271</ele>
        <time>2022-09-02T12:44:14Z</time>
      </trkpt>
      <trkpt lat="43.12129" lon="2.08676">
        <ele>271.2</ele>
        <time>2022-09-02T12:44:23Z</time>
      </trkpt>
      <trkpt lat="43.12128" lon="2.0864">
        <ele>271.4</ele>
        <time>2022-09-02T12:44:30Z</time>
      </trkpt>
      <trkpt lat="43.12128" lon="2.08629">
        <ele>271.8</ele>
        <time>2022-09-02T12:44:32Z</time>
      </trkpt>
      <trkpt lat="43.12127" lon="2.08581">
        <ele>272</ele>
        <time>2022-09-02T12:44:41Z</time>
      </trkpt>
      <trkpt lat="43.12127" lon="2.0856">
        <ele>272.4</ele>
        <time>2022-09-02T12:44:45Z</time>
      </trkpt>
      <trkpt lat="43.12126" lon="2.08534">
        <ele>272.6</ele>
        <time>2022-09-02T12:44:50Z</time>
      </trkpt>
      <trkpt lat="43.12126" lon="2.08493">
        <ele>273</ele>
        <time>2022-09-02T12:44:57Z</time>
      </trkpt>
      <trkpt lat="43.12125" lon="2.08448">
        <ele>273.4</ele>
        <time>2022-09-02T12:45:05Z</time>
      </trkpt>
      <trkpt lat="43.12125" lon="2.08442">
        <ele>273.6</ele>
        <time>2022-09-02T12:45:06Z</time>
      </trkpt>
      <trkpt lat="43.12124" lon="2.08386">
        <ele>274.2</ele>
        <time>2022-09-02T12:45:16Z</time>
      </trkpt>
      <trkpt lat="43.12124" lon="2.08375">
        <ele>274.6</ele>
        <time>2022-09-02T12:45:18Z</time>
      </trkpt>
      <trkpt lat="43.12123" lon="2.08326">
        <ele>275</ele>
        <time>2022-09-02T12:45:27Z</time>
      </trkpt>
      <trkpt lat="43.12121" lon="2.08266">
        <ele>275.8</ele>
        <time>2022-09-02T12:45:38Z</time>
      </trkpt>
      <trkpt lat="43.12115" lon="2.08214">
        <ele>276.2</ele>
        <time>2022-09-02T12:45:48Z</time>
      </trkpt>
      <trkpt lat="43.12112" lon="2.08185">
        <ele>276.8</ele>
        <time>2022-09-02T12:45:54Z</time>
      </trkpt>
      <trkpt lat="43.12111" lon="2.08175">
        <ele>276.6</ele>
        <time>2022-09-02T12:45:56Z</time>
      </trkpt>
      <trkpt lat="43.12104" lon="2.08125">
        <ele>277.2</ele>
        <time>2022-09-02T12:46:05Z</time>
      </trkpt>
      <trkpt lat="43.12097" lon="2.08086">
        <ele>277.8</ele>
        <time>2022-09-02T12:46:12Z</time>
      </trkpt>
      <trkpt lat="43.12095" lon="2.08075">
        <ele>277.8</ele>
        <time>2022-09-02T12:46:14Z</time>
      </trkpt>
      <trkpt lat="43.12084" lon="2.08019">
        <ele>278.4</ele>
        <time>2022-09-02T12:46:24Z</time>
      </trkpt>
      <trkpt lat="43.12081" lon="2.08003">
        <ele>278.8</ele>
        <time>2022-09-02T12:46:27Z</time>
      </trkpt>
      <trkpt lat="43.12073" lon="2.07972">
        <ele>279</ele>
        <time>2022-09-02T12:46:33Z</time>
      </trkpt>
      <trkpt lat="43.1206" lon="2.07924">
        <ele>279.4</ele>
        <time>2022-09-02T12:46:42Z</time>
      </trkpt>
      <trkpt lat="43.12056" lon="2.07908">
        <ele>280</ele>
        <time>2022-09-02T12:46:45Z</time>
      </trkpt>
      <trkpt lat="43.12046" lon="2.07878">
        <ele>279.8</ele>
        <time>2022-09-02T12:46:51Z</time>
      </trkpt>
      <trkpt lat="43.12042" lon="2.07867">
        <ele>280</ele>
        <time>2022-09-02T12:46:53Z</time>
      </trkpt>
      <trkpt lat="43.1203" lon="2.0783">
        <ele>280.2</ele>
        <time>2022-09-02T12:47:00Z</time>
      </trkpt>
      <trkpt lat="43.12013" lon="2.07783">
        <ele>280.6</ele>
        <time>2022-09-02T12:47:09Z</time>
      </trkpt>
      <trkpt lat="43.11998" lon="2.07748">
        <ele>281</ele>
        <time>2022-09-02T12:47:16Z</time>
      </trkpt>
      <trkpt lat="43.11992" lon="2.07733">
        <ele>281.2</ele>
        <time>2022-09-02T12:47:19Z</time>
      </trkpt>
      <trkpt lat="43.11973" lon="2.07694">
        <ele>281.6</ele>
        <time>2022-09-02T12:47:27Z</time>
      </trkpt>
      <trkpt lat="43.11957" lon="2.07662">
        <ele>281.8</ele>
        <time>2022-09-02T12:47:34Z</time>
      </trkpt>
      <trkpt lat="43.1194" lon="2.07629">
        <ele>282</ele>
        <time>2022-09-02T12:47:41Z</time>
      </trkpt>
      <trkpt lat="43.11928" lon="2.07607">
        <ele>282.2</ele>
        <time>2022-09-02T12:47:46Z</time>
      </trkpt>
      <trkpt lat="43.11901" lon="2.07563">
        <ele>282.6</ele>
        <time>2022-09-02T12:47:56Z</time>
      </trkpt>
      <trkpt lat="43.11881" lon="2.07535">
        <ele>283.2</ele>
        <time>2022-09-02T12:48:03Z</time>
      </trkpt>
      <trkpt lat="43.11857" lon="2.07502">
        <ele>284</ele>
        <time>2022-09-02T12:48:11Z</time>
      </trkpt>
      <trkpt lat="43.11846" lon="2.07486">
        <ele>284.2</ele>
        <time>2022-09-02T12:48:15Z</time>
      </trkpt>
      <trkpt lat="43.11831" lon="2.07465">
        <ele>284.4</ele>
        <time>2022-09-02T12:48:20Z</time>
      </trkpt>
      <trkpt lat="43.11806" lon="2.07431">
        <ele>285</ele>
        <time>2022-09-02T12:48:29Z</time>
      </trkpt>
      <trkpt lat="43.118" lon="2.07423">
        <ele>284.8</ele>
        <time>2022-09-02T12:48:31Z</time>
      </trkpt>
      <trkpt lat="43.11788" lon="2.07407">
        <ele>285</ele>
        <time>2022-09-02T12:48:35Z</time>
      </trkpt>
      <trkpt lat="43.11783" lon="2.07399">
        <ele>285.4</ele>
        <time>2022-09-02T12:48:37Z</time>
      </trkpt>
      <trkpt lat="43.11761" lon="2.0737">
        <ele>285.6</ele>
        <time>2022-09-02T12:48:44Z</time>
      </trkpt>
      <trkpt lat="43.11734" lon="2.07333">
        <ele>286.6</ele>
        <time>2022-09-02T12:48:53Z</time>
      </trkpt>
      <trkpt lat="43.11731" lon="2.07329">
        <ele>286.6</ele>
        <time>2022-09-02T12:48:54Z</time>
      </trkpt>
      <trkpt lat="43.11705" lon="2.07294">
        <ele>287.4</ele>
        <time>2022-09-02T12:49:03Z</time>
      </trkpt>
      <trkpt lat="43.11684" lon="2.07266">
        <ele>287.6</ele>
        <time>2022-09-02T12:49:10Z</time>
      </trkpt>
      <trkpt lat="43.11678" lon="2.07259">
        <ele>287.6</ele>
        <time>2022-09-02T12:49:12Z</time>
      </trkpt>
      <trkpt lat="43.11653" lon="2.07231">
        <ele>288.2</ele>
        <time>2022-09-02T12:49:20Z</time>
      </trkpt>
      <trkpt lat="43.11646" lon="2.07223">
        <ele>288.2</ele>
        <time>2022-09-02T12:49:22Z</time>
      </trkpt>
      <trkpt lat="43.11635" lon="2.07214">
        <ele>288.6</ele>
        <time>2022-09-02T12:49:25Z</time>
      </trkpt>
      <trkpt lat="43.11606" lon="2.07188">
        <ele>289.2</ele>
        <time>2022-09-02T12:49:33Z</time>
      </trkpt>
      <trkpt lat="43.11578" lon="2.07167">
        <ele>289.6</ele>
        <time>2022-09-02T12:49:40Z</time>
      </trkpt>
      <trkpt lat="43.11574" lon="2.07164">
        <ele>289.6</ele>
        <time>2022-09-02T12:49:41Z</time>
      </trkpt>
      <trkpt lat="43.11539" lon="2.07142">
        <ele>290</ele>
        <time>2022-09-02T12:49:49Z</time>
      </trkpt>
      <trkpt lat="43.11513" lon="2.07127">
        <ele>290.6</ele>
        <time>2022-09-02T12:49:55Z</time>
      </trkpt>
      <trkpt lat="43.115" lon="2.0712">
        <ele>290.8</ele>
        <time>2022-09-02T12:49:58Z</time>
      </trkpt>
      <trkpt lat="43.11459" lon="2.07102">
        <ele>291.6</ele>
        <time>2022-09-02T12:50:07Z</time>
      </trkpt>
      <trkpt lat="43.11414" lon="2.07082">
        <ele>292.8</ele>
        <time>2022-09-02T12:50:17Z</time>
      </trkpt>
      <trkpt lat="43.11379" lon="2.07065">
        <ele>293.4</ele>
        <time>2022-09-02T12:50:25Z</time>
      </trkpt>
      <trkpt lat="43.11366" lon="2.07059">
        <ele>293.6</ele>
        <time>2022-09-02T12:50:28Z</time>
      </trkpt>
      <trkpt lat="43.11356" lon="2.07056">
        <ele>293.8</ele>
        <time>2022-09-02T12:50:30Z</time>
      </trkpt>
      <trkpt lat="43.11352" lon="2.07054">
        <ele>293.8</ele>
        <time>2022-09-02T12:50:31Z</time>
      </trkpt>
      <trkpt lat="43.11322" lon="2.0704">
        <ele>294.4</ele>
        <time>2022-09-02T12:50:38Z</time>
      </trkpt>
      <trkpt lat="43.11293" lon="2.07027">
        <ele>294.4</ele>
        <time>2022-09-02T12:50:45Z</time>
      </trkpt>
      <trkpt lat="43.1128" lon="2.07021">
        <ele>294.4</ele>
        <time>2022-09-02T12:50:48Z</time>
      </trkpt>
      <trkpt lat="43.11258" lon="2.0701">
        <ele>294.8</ele>
        <time>2022-09-02T12:50:53Z</time>
      </trkpt>
      <trkpt lat="43.11254" lon="2.07009">
        <ele>294.8</ele>
        <time>2022-09-02T12:50:54Z</time>
      </trkpt>
      <trkpt lat="43.1122" lon="2.06992">
        <ele>295.6</ele>
        <time>2022-09-02T12:51:02Z</time>
      </trkpt>
      <trkpt lat="43.11207" lon="2.06986">
        <ele>295.8</ele>
        <time>2022-09-02T12:51:05Z</time>
      </trkpt>
      <trkpt lat="43.11185" lon="2.06974">
        <ele>296.4</ele>
        <time>2022-09-02T12:51:10Z</time>
      </trkpt>
      <trkpt lat="43.11166" lon="2.06961">
        <ele>297</ele>
        <time>2022-09-02T12:51:15Z</time>
      </trkpt>
      <trkpt lat="43.11158" lon="2.06956">
        <ele>297</ele>
        <time>2022-09-02T12:51:17Z</time>
      </trkpt>
      <trkpt lat="43.11134" lon="2.06937">
        <ele>297.6</ele>
        <time>2022-09-02T12:51:23Z</time>
      </trkpt>
      <trkpt lat="43.1113" lon="2.06934">
        <ele>297.6</ele>
        <time>2022-09-02T12:51:24Z</time>
      </trkpt>
      <trkpt lat="43.11112" lon="2.06917">
        <ele>298</ele>
        <time>2022-09-02T12:51:29Z</time>
      </trkpt>
      <trkpt lat="43.11102" lon="2.06906">
        <ele>298.2</ele>
        <time>2022-09-02T12:51:32Z</time>
      </trkpt>
      <trkpt lat="43.11072" lon="2.06877">
        <ele>298.8</ele>
        <time>2022-09-02T12:51:40Z</time>
      </trkpt>
      <trkpt lat="43.11062" lon="2.06865">
        <ele>299</ele>
        <time>2022-09-02T12:51:43Z</time>
      </trkpt>
      <trkpt lat="43.11056" lon="2.06857">
        <ele>299</ele>
        <time>2022-09-02T12:51:45Z</time>
      </trkpt>
      <trkpt lat="43.1105" lon="2.06849">
        <ele>299.4</ele>
        <time>2022-09-02T12:51:47Z</time>
      </trkpt>
      <trkpt lat="43.11044" lon="2.06841">
        <ele>299.2</ele>
        <time>2022-09-02T12:51:49Z</time>
      </trkpt>
      <trkpt lat="43.11033" lon="2.06821">
        <ele>299.6</ele>
        <time>2022-09-02T12:51:53Z</time>
      </trkpt>
      <trkpt lat="43.11017" lon="2.06798">
        <ele>300.2</ele>
        <time>2022-09-02T12:51:58Z</time>
      </trkpt>
      <trkpt lat="43.11009" lon="2.06784">
        <ele>300.2</ele>
        <time>2022-09-02T12:52:01Z</time>
      </trkpt>
      <trkpt lat="43.11006" lon="2.06779">
        <ele>300.4</ele>
        <time>2022-09-02T12:52:02Z</time>
      </trkpt>
      <trkpt lat="43.10988" lon="2.06745">
        <ele>301.2</ele>
        <time>2022-09-02T12:52:09Z</time>
      </trkpt>
      <trkpt lat="43.10983" lon="2.06735">
        <ele>301.4</ele>
        <time>2022-09-02T12:52:11Z</time>
      </trkpt>
      <trkpt lat="43.10957" lon="2.06684">
        <ele>302</ele>
        <time>2022-09-02T12:52:21Z</time>
      </trkpt>
      <trkpt lat="43.10944" lon="2.06658">
        <ele>302.2</ele>
        <time>2022-09-02T12:52:26Z</time>
      </trkpt>
      <trkpt lat="43.10931" lon="2.06633">
        <ele>302.6</ele>
        <time>2022-09-02T12:52:31Z</time>
      </trkpt>
      <trkpt lat="43.10906" lon="2.06587">
        <ele>303.2</ele>
        <time>2022-09-02T12:52:40Z</time>
      </trkpt>
      <trkpt lat="43.109" lon="2.06577">
        <ele>303.4</ele>
        <time>2022-09-02T12:52:42Z</time>
      </trkpt>
      <trkpt lat="43.10888" lon="2.06558">
        <ele>303.6</ele>
        <time>2022-09-02T12:52:46Z</time>
      </trkpt>
      <trkpt lat="43.10885" lon="2.06554">
        <ele>303.6</ele>
        <time>2022-09-02T12:52:47Z</time>
      </trkpt>
      <trkpt lat="43.10853" lon="2.06516">
        <ele>304</ele>
        <time>2022-09-02T12:52:56Z</time>
      </trkpt>
      <trkpt lat="43.10843" lon="2.06505">
        <ele>304.4</ele>
        <time>2022-09-02T12:52:59Z</time>
      </trkpt>
      <trkpt lat="43.10828" lon="2.0649">
        <ele>304.6</ele>
        <time>2022-09-02T12:53:03Z</time>
      </trkpt>
      <trkpt lat="43.10792" lon="2.06459">
        <ele>305.4</ele>
        <time>2022-09-02T12:53:12Z</time>
      </trkpt>
      <trkpt lat="43.10784" lon="2.06453">
        <ele>305.4</ele>
        <time>2022-09-02T12:53:14Z</time>
      </trkpt>
      <trkpt lat="43.10755" lon="2.06433">
        <ele>305.8</ele>
        <time>2022-09-02T12:53:21Z</time>
      </trkpt>
      <trkpt lat="43.10723" lon="2.06409">
        <ele>306.2</ele>
        <time>2022-09-02T12:53:29Z</time>
      </trkpt>
      <trkpt lat="43.10715" lon="2.06404">
        <ele>306.6</ele>
        <time>2022-09-02T12:53:31Z</time>
      </trkpt>
      <trkpt lat="43.10695" lon="2.06388">
        <ele>307.2</ele>
        <time>2022-09-02T12:53:36Z</time>
      </trkpt>
      <trkpt lat="43.10687" lon="2.06383">
        <ele>307.6</ele>
        <time>2022-09-02T12:53:38Z</time>
      </trkpt>
      <trkpt lat="43.10672" lon="2.06372">
        <ele>307.6</ele>
        <time>2022-09-02T12:53:42Z</time>
      </trkpt>
      <trkpt lat="43.10644" lon="2.06345">
        <ele>308.4</ele>
        <time>2022-09-02T12:53:50Z</time>
      </trkpt>
      <trkpt lat="43.10634" lon="2.06333">
        <ele>308.8</ele>
        <time>2022-09-02T12:53:53Z</time>
      </trkpt>
      <trkpt lat="43.10611" lon="2.06305">
        <ele>309.6</ele>
        <time>2022-09-02T12:54:00Z</time>
      </trkpt>
      <trkpt lat="43.10602" lon="2.06292">
        <ele>309.8</ele>
        <time>2022-09-02T12:54:03Z</time>
      </trkpt>
      <trkpt lat="43.10585" lon="2.06267">
        <ele>309.8</ele>
        <time>2022-09-02T12:54:09Z</time>
      </trkpt>
      <trkpt lat="43.10567" lon="2.06235">
        <ele>310.4</ele>
        <time>2022-09-02T12:54:16Z</time>
      </trkpt>
      <trkpt lat="43.10555" lon="2.06211">
        <ele>310.8</ele>
        <time>2022-09-02T12:54:21Z</time>
      </trkpt>
      <trkpt lat="43.10553" lon="2.06206">
        <ele>310.8</ele>
        <time>2022-09-02T12:54:22Z</time>
      </trkpt>
      <trkpt lat="43.10535" lon="2.0616">
        <ele>311.2</ele>
        <time>2022-09-02T12:54:31Z</time>
      </trkpt>
      <trkpt lat="43.10521" lon="2.06111">
        <ele>311.8</ele>
        <time>2022-09-02T12:54:40Z</time>
      </trkpt>
      <trkpt lat="43.10515" lon="2.0608">
        <ele>312</ele>
        <time>2022-09-02T12:54:47Z</time>
      </trkpt>
      <trkpt lat="43.10509" lon="2.06052">
        <ele>312.6</ele>
        <time>2022-09-02T12:54:54Z</time>
      </trkpt>
      <trkpt lat="43.10505" lon="2.06034">
        <ele>312.8</ele>
        <time>2022-09-02T12:54:58Z</time>
      </trkpt>
      <trkpt lat="43.10503" lon="2.06025">
        <ele>312.8</ele>
        <time>2022-09-02T12:55:00Z</time>
      </trkpt>
      <trkpt lat="43.10495" lon="2.05983">
        <ele>313.2</ele>
        <time>2022-09-02T12:55:08Z</time>
      </trkpt>
      <trkpt lat="43.10486" lon="2.05938">
        <ele>313.6</ele>
        <time>2022-09-02T12:55:16Z</time>
      </trkpt>
      <trkpt lat="43.10482" lon="2.05916">
        <ele>313.8</ele>
        <time>2022-09-02T12:55:20Z</time>
      </trkpt>
      <trkpt lat="43.10475" lon="2.05882">
        <ele>314.2</ele>
        <time>2022-09-02T12:55:26Z</time>
      </trkpt>
      <trkpt lat="43.10467" lon="2.05842">
        <ele>315</ele>
        <time>2022-09-02T12:55:33Z</time>
      </trkpt>
      <trkpt lat="43.10466" lon="2.05836">
        <ele>315</ele>
        <time>2022-09-02T12:55:34Z</time>
      </trkpt>
      <trkpt lat="43.10454" lon="2.05774">
        <ele>315.4</ele>
        <time>2022-09-02T12:55:45Z</time>
      </trkpt>
      <trkpt lat="43.10451" lon="2.05758">
        <ele>316</ele>
        <time>2022-09-02T12:55:48Z</time>
      </trkpt>
      <trkpt lat="43.10443" lon="2.05713">
        <ele>316.8</ele>
        <time>2022-09-02T12:55:56Z</time>
      </trkpt>
      <trkpt lat="43.10442" lon="2.05708">
        <ele>317</ele>
        <time>2022-09-02T12:55:57Z</time>
      </trkpt>
      <trkpt lat="43.1043" lon="2.05657">
        <ele>317.6</ele>
        <time>2022-09-02T12:56:07Z</time>
      </trkpt>
      <trkpt lat="43.10423" lon="2.0562">
        <ele>318.2</ele>
        <time>2022-09-02T12:56:14Z</time>
      </trkpt>
      <trkpt lat="43.10418" lon="2.05594">
        <ele>318.4</ele>
        <time>2022-09-02T12:56:19Z</time>
      </trkpt>
      <trkpt lat="43.10408" lon="2.05541">
        <ele>318.8</ele>
        <time>2022-09-02T12:56:29Z</time>
      </trkpt>
      <trkpt lat="43.10406" lon="2.0553">
        <ele>319.2</ele>
        <time>2022-09-02T12:56:31Z</time>
      </trkpt>
      <trkpt lat="43.10399" lon="2.05495">
        <ele>319.4</ele>
        <time>2022-09-02T12:56:38Z</time>
      </trkpt>
      <trkpt lat="43.1039" lon="2.05448">
        <ele>320</ele>
        <time>2022-09-02T12:56:48Z</time>
      </trkpt>
      <trkpt lat="43.10382" lon="2.05407">
        <ele>320.2</ele>
        <time>2022-09-02T12:56:56Z</time>
      </trkpt>
      <trkpt lat="43.10374" lon="2.05371">
        <ele>320.4</ele>
        <time>2022-09-02T12:57:03Z</time>
      </trkpt>
      <trkpt lat="43.10363" lon="2.05317">
        <ele>321.2</ele>
        <time>2022-09-02T12:57:13Z</time>
      </trkpt>
      <trkpt lat="43.10362" lon="2.05311">
        <ele>321.4</ele>
        <time>2022-09-02T12:57:14Z</time>
      </trkpt>
      <trkpt lat="43.1035" lon="2.05253">
        <ele>322.2</ele>
        <time>2022-09-02T12:57:25Z</time>
      </trkpt>
      <trkpt lat="43.1035" lon="2.05248">
        <ele>322.4</ele>
        <time>2022-09-02T12:57:26Z</time>
      </trkpt>
      <trkpt lat="43.10344" lon="2.05222">
        <ele>322.6</ele>
        <time>2022-09-02T12:57:31Z</time>
      </trkpt>
      <trkpt lat="43.10336" lon="2.05181">
        <ele>323.4</ele>
        <time>2022-09-02T12:57:39Z</time>
      </trkpt>
      <trkpt lat="43.10336" lon="2.05176">
        <ele>323.6</ele>
        <time>2022-09-02T12:57:40Z</time>
      </trkpt>
      <trkpt lat="43.10332" lon="2.0514">
        <ele>324</ele>
        <time>2022-09-02T12:57:47Z</time>
      </trkpt>
      <trkpt lat="43.1033" lon="2.05125">
        <ele>324.6</ele>
        <time>2022-09-02T12:57:50Z</time>
      </trkpt>
      <trkpt lat="43.10329" lon="2.05113">
        <ele>324.4</ele>
        <time>2022-09-02T12:57:53Z</time>
      </trkpt>
      <trkpt lat="43.10328" lon="2.05087">
        <ele>324.6</ele>
        <time>2022-09-02T12:57:59Z</time>
      </trkpt>
      <trkpt lat="43.10328" lon="2.05077">
        <ele>324.6</ele>
        <time>2022-09-02T12:58:01Z</time>
      </trkpt>
      <trkpt lat="43.1033" lon="2.05031">
        <ele>325.2</ele>
        <time>2022-09-02T12:58:10Z</time>
      </trkpt>
      <trkpt lat="43.10333" lon="2.0499">
        <ele>325.6</ele>
        <time>2022-09-02T12:58:18Z</time>
      </trkpt>
      <trkpt lat="43.10339" lon="2.04954">
        <ele>326.4</ele>
        <time>2022-09-02T12:58:25Z</time>
      </trkpt>
      <trkpt lat="43.10342" lon="2.0494">
        <ele>326.6</ele>
        <time>2022-09-02T12:58:28Z</time>
      </trkpt>
      <trkpt lat="43.10348" lon="2.04917">
        <ele>326.8</ele>
        <time>2022-09-02T12:58:33Z</time>
      </trkpt>
      <trkpt lat="43.10357" lon="2.04884">
        <ele>327.4</ele>
        <time>2022-09-02T12:58:40Z</time>
      </trkpt>
      <trkpt lat="43.10366" lon="2.04856">
        <ele>327.8</ele>
        <time>2022-09-02T12:58:46Z</time>
      </trkpt>
      <trkpt lat="43.1037" lon="2.04847">
        <ele>327.8</ele>
        <time>2022-09-02T12:58:48Z</time>
      </trkpt>
      <trkpt lat="43.10385" lon="2.04811">
        <ele>328.2</ele>
        <time>2022-09-02T12:58:56Z</time>
      </trkpt>
      <trkpt lat="43.10394" lon="2.04793">
        <ele>328.8</ele>
        <time>2022-09-02T12:59:00Z</time>
      </trkpt>
      <trkpt lat="43.10408" lon="2.04767">
        <ele>329</ele>
        <time>2022-09-02T12:59:06Z</time>
      </trkpt>
      <trkpt lat="43.10429" lon="2.04735">
        <ele>329.4</ele>
        <time>2022-09-02T12:59:14Z</time>
      </trkpt>
      <trkpt lat="43.10457" lon="2.04699">
        <ele>329.8</ele>
        <time>2022-09-02T12:59:24Z</time>
      </trkpt>
      <trkpt lat="43.10463" lon="2.04691">
        <ele>330</ele>
        <time>2022-09-02T12:59:26Z</time>
      </trkpt>
      <trkpt lat="43.10484" lon="2.04667">
        <ele>330.8</ele>
        <time>2022-09-02T12:59:33Z</time>
      </trkpt>
      <trkpt lat="43.10487" lon="2.04664">
        <ele>331</ele>
        <time>2022-09-02T12:59:34Z</time>
      </trkpt>
      <trkpt lat="43.10517" lon="2.04633">
        <ele>331.2</ele>
        <time>2022-09-02T12:59:44Z</time>
      </trkpt>
      <trkpt lat="43.10541" lon="2.04609">
        <ele>331.8</ele>
        <time>2022-09-02T12:59:52Z</time>
      </trkpt>
      <trkpt lat="43.10548" lon="2.04599">
        <ele>332</ele>
        <time>2022-09-02T12:59:55Z</time>
      </trkpt>
      <trkpt lat="43.10556" lon="2.04588">
        <ele>332.4</ele>
        <time>2022-09-02T12:59:59Z</time>
      </trkpt>
      <trkpt lat="43.10567" lon="2.04579">
        <ele>333.2</ele>
        <time>2022-09-02T13:00:04Z</time>
      </trkpt>
      <trkpt lat="43.10571" lon="2.04575">
        <ele>333.4</ele>
        <time>2022-09-02T13:00:06Z</time>
      </trkpt>
      <trkpt lat="43.10585" lon="2.0456">
        <ele>333.2</ele>
        <time>2022-09-02T13:00:12Z</time>
      </trkpt>
      <trkpt lat="43.1061" lon="2.04534">
        <ele>333.8</ele>
        <time>2022-09-02T13:00:21Z</time>
      </trkpt>
      <trkpt lat="43.10635" lon="2.045">
        <ele>334</ele>
        <time>2022-09-02T13:00:31Z</time>
      </trkpt>
      <trkpt lat="43.10643" lon="2.04489">
        <ele>334.2</ele>
        <time>2022-09-02T13:00:34Z</time>
      </trkpt>
      <trkpt lat="43.10661" lon="2.04461">
        <ele>334.6</ele>
        <time>2022-09-02T13:00:41Z</time>
      </trkpt>
      <trkpt lat="43.10676" lon="2.0443">
        <ele>334.8</ele>
        <time>2022-09-02T13:00:48Z</time>
      </trkpt>
      <trkpt lat="43.10688" lon="2.04404">
        <ele>335</ele>
        <time>2022-09-02T13:00:55Z</time>
      </trkpt>
      <trkpt lat="43.10695" lon="2.04388">
        <ele>335.4</ele>
        <time>2022-09-02T13:00:59Z</time>
      </trkpt>
      <trkpt lat="43.10699" lon="2.04377">
        <ele>335.4</ele>
        <time>2022-09-02T13:01:01Z</time>
      </trkpt>
      <trkpt lat="43.10716" lon="2.0433">
        <ele>335</ele>
        <time>2022-09-02T13:01:10Z</time>
      </trkpt>
      <trkpt lat="43.10731" lon="2.04289">
        <ele>334.6</ele>
        <time>2022-09-02T13:01:18Z</time>
      </trkpt>
      <trkpt lat="43.10746" lon="2.04247">
        <ele>335</ele>
        <time>2022-09-02T13:01:26Z</time>
      </trkpt>
      <trkpt lat="43.10763" lon="2.04195">
        <ele>334.8</ele>
        <time>2022-09-02T13:01:36Z</time>
      </trkpt>
      <trkpt lat="43.10777" lon="2.04135">
        <ele>334.6</ele>
        <time>2022-09-02T13:01:46Z</time>
      </trkpt>
      <trkpt lat="43.10786" lon="2.04087">
        <ele>335</ele>
        <time>2022-09-02T13:01:54Z</time>
      </trkpt>
      <trkpt lat="43.10796" lon="2.04034">
        <ele>335.2</ele>
        <time>2022-09-02T13:02:03Z</time>
      </trkpt>
      <trkpt lat="43.10802" lon="2.04003">
        <ele>335.2</ele>
        <time>2022-09-02T13:02:09Z</time>
      </trkpt>
      <trkpt lat="43.1081" lon="2.03963">
        <ele>335</ele>
        <time>2022-09-02T13:02:16Z</time>
      </trkpt>
      <trkpt lat="43.10819" lon="2.03912">
        <ele>335.2</ele>
        <time>2022-09-02T13:02:24Z</time>
      </trkpt>
      <trkpt lat="43.10828" lon="2.03853">
        <ele>335.2</ele>
        <time>2022-09-02T13:02:33Z</time>
      </trkpt>
      <trkpt lat="43.10833" lon="2.03819">
        <ele>334.8</ele>
        <time>2022-09-02T13:02:39Z</time>
      </trkpt>
      <trkpt lat="43.10836" lon="2.03798">
        <ele>334.8</ele>
        <time>2022-09-02T13:02:44Z</time>
      </trkpt>
      <trkpt lat="43.10839" lon="2.03756">
        <ele>335.2</ele>
        <time>2022-09-02T13:02:51Z</time>
      </trkpt>
      <trkpt lat="43.10841" lon="2.03706">
        <ele>335.4</ele>
        <time>2022-09-02T13:02:59Z</time>
      </trkpt>
      <trkpt lat="43.1084" lon="2.03645">
        <ele>336.4</ele>
        <time>2022-09-02T13:03:09Z</time>
      </trkpt>
      <trkpt lat="43.10838" lon="2.03626">
        <ele>336.4</ele>
        <time>2022-09-02T13:03:12Z</time>
      </trkpt>
      <trkpt lat="43.10835" lon="2.03595">
        <ele>337</ele>
        <time>2022-09-02T13:03:17Z</time>
      </trkpt>
      <trkpt lat="43.10823" lon="2.03538">
        <ele>337.2</ele>
        <time>2022-09-02T13:03:27Z</time>
      </trkpt>
      <trkpt lat="43.10822" lon="2.03533">
        <ele>337.4</ele>
        <time>2022-09-02T13:03:28Z</time>
      </trkpt>
      <trkpt lat="43.10808" lon="2.03482">
        <ele>338.4</ele>
        <time>2022-09-02T13:03:38Z</time>
      </trkpt>
      <trkpt lat="43.108" lon="2.03449">
        <ele>338.6</ele>
        <time>2022-09-02T13:03:45Z</time>
      </trkpt>
      <trkpt lat="43.10799" lon="2.03444">
        <ele>338.6</ele>
        <time>2022-09-02T13:03:46Z</time>
      </trkpt>
      <trkpt lat="43.10787" lon="2.03404">
        <ele>339</ele>
        <time>2022-09-02T13:03:55Z</time>
      </trkpt>
      <trkpt lat="43.10776" lon="2.03367">
        <ele>339.8</ele>
        <time>2022-09-02T13:04:03Z</time>
      </trkpt>
      <trkpt lat="43.10765" lon="2.03324">
        <ele>340.2</ele>
        <time>2022-09-02T13:04:12Z</time>
      </trkpt>
      <trkpt lat="43.10757" lon="2.0329">
        <ele>340.8</ele>
        <time>2022-09-02T13:04:19Z</time>
      </trkpt>
      <trkpt lat="43.10753" lon="2.03275">
        <ele>341</ele>
        <time>2022-09-02T13:04:22Z</time>
      </trkpt>
      <trkpt lat="43.10745" lon="2.03236">
        <ele>341.6</ele>
        <time>2022-09-02T13:04:30Z</time>
      </trkpt>
      <trkpt lat="43.10742" lon="2.03216">
        <ele>341.8</ele>
        <time>2022-09-02T13:04:34Z</time>
      </trkpt>
      <trkpt lat="43.10739" lon="2.03191">
        <ele>342</ele>
        <time>2022-09-02T13:04:39Z</time>
      </trkpt>
      <trkpt lat="43.10735" lon="2.03142">
        <ele>342.8</ele>
        <time>2022-09-02T13:04:49Z</time>
      </trkpt>
      <trkpt lat="43.10735" lon="2.03132">
        <ele>342.8</ele>
        <time>2022-09-02T13:04:51Z</time>
      </trkpt>
      <trkpt lat="43.10734" lon="2.03108">
        <ele>343</ele>
        <time>2022-09-02T13:04:56Z</time>
      </trkpt>
      <trkpt lat="43.10734" lon="2.03072">
        <ele>343.6</ele>
        <time>2022-09-02T13:05:03Z</time>
      </trkpt>
      <trkpt lat="43.10735" lon="2.03057">
        <ele>343.8</ele>
        <time>2022-09-02T13:05:06Z</time>
      </trkpt>
      <trkpt lat="43.10736" lon="2.03035">
        <ele>344</ele>
        <time>2022-09-02T13:05:10Z</time>
      </trkpt>
      <trkpt lat="43.10741" lon="2.02987">
        <ele>344.6</ele>
        <time>2022-09-02T13:05:19Z</time>
      </trkpt>
      <trkpt lat="43.10744" lon="2.02972">
        <ele>344.8</ele>
        <time>2022-09-02T13:05:22Z</time>
      </trkpt>
      <trkpt lat="43.1075" lon="2.02942">
        <ele>345.2</ele>
        <time>2022-09-02T13:05:28Z</time>
      </trkpt>
      <trkpt lat="43.10759" lon="2.02897">
        <ele>345.8</ele>
        <time>2022-09-02T13:05:37Z</time>
      </trkpt>
      <trkpt lat="43.10761" lon="2.02886">
        <ele>346</ele>
        <time>2022-09-02T13:05:39Z</time>
      </trkpt>
      <trkpt lat="43.10769" lon="2.02851">
        <ele>346.4</ele>
        <time>2022-09-02T13:05:46Z</time>
      </trkpt>
      <trkpt lat="43.10781" lon="2.02795">
        <ele>347</ele>
        <time>2022-09-02T13:05:57Z</time>
      </trkpt>
      <trkpt lat="43.10792" lon="2.02743">
        <ele>347.6</ele>
        <time>2022-09-02T13:06:07Z</time>
      </trkpt>
      <trkpt lat="43.10799" lon="2.02713">
        <ele>348</ele>
        <time>2022-09-02T13:06:13Z</time>
      </trkpt>
      <trkpt lat="43.10804" lon="2.02692">
        <ele>348.2</ele>
        <time>2022-09-02T13:06:17Z</time>
      </trkpt>
      <trkpt lat="43.10811" lon="2.02651">
        <ele>348.8</ele>
        <time>2022-09-02T13:06:25Z</time>
      </trkpt>
      <trkpt lat="43.10813" lon="2.0262">
        <ele>349</ele>
        <time>2022-09-02T13:06:31Z</time>
      </trkpt>
      <trkpt lat="43.10814" lon="2.0261">
        <ele>349.2</ele>
        <time>2022-09-02T13:06:33Z</time>
      </trkpt>
      <trkpt lat="43.10816" lon="2.02567">
        <ele>349.6</ele>
        <time>2022-09-02T13:06:41Z</time>
      </trkpt>
      <trkpt lat="43.10815" lon="2.02537">
        <ele>350</ele>
        <time>2022-09-02T13:06:47Z</time>
      </trkpt>
      <trkpt lat="43.10813" lon="2.02521">
        <ele>350</ele>
        <time>2022-09-02T13:06:50Z</time>
      </trkpt>
      <trkpt lat="43.10808" lon="2.02476">
        <ele>350.8</ele>
        <time>2022-09-02T13:06:59Z</time>
      </trkpt>
      <trkpt lat="43.10805" lon="2.02449">
        <ele>351.2</ele>
        <time>2022-09-02T13:07:04Z</time>
      </trkpt>
      <trkpt lat="43.10801" lon="2.0243">
        <ele>351.6</ele>
        <time>2022-09-02T13:07:08Z</time>
      </trkpt>
      <trkpt lat="43.10793" lon="2.02395">
        <ele>351.8</ele>
        <time>2022-09-02T13:07:15Z</time>
      </trkpt>
      <trkpt lat="43.10788" lon="2.02376">
        <ele>352.2</ele>
        <time>2022-09-02T13:07:21Z</time>
      </trkpt>
      <trkpt lat="43.1078" lon="2.02353">
        <ele>352.2</ele>
        <time>2022-09-02T13:07:27Z</time>
      </trkpt>
      <trkpt lat="43.10777" lon="2.02344">
        <ele>352.4</ele>
        <time>2022-09-02T13:07:29Z</time>
      </trkpt>
      <trkpt lat="43.10769" lon="2.02322">
        <ele>352.4</ele>
        <time>2022-09-02T13:07:35Z</time>
      </trkpt>
      <trkpt lat="43.10758" lon="2.02298">
        <ele>353</ele>
        <time>2022-09-02T13:07:41Z</time>
      </trkpt>
      <trkpt lat="43.10741" lon="2.02266">
        <ele>353.4</ele>
        <time>2022-09-02T13:07:49Z</time>
      </trkpt>
      <trkpt lat="43.10734" lon="2.02255">
        <ele>353.4</ele>
        <time>2022-09-02T13:07:52Z</time>
      </trkpt>
      <trkpt lat="43.10716" lon="2.02227">
        <ele>354</ele>
        <time>2022-09-02T13:08:00Z</time>
      </trkpt>
      <trkpt lat="43.10708" lon="2.02214">
        <ele>354.4</ele>
        <time>2022-09-02T13:08:05Z</time>
      </trkpt>
      <trkpt lat="43.10702" lon="2.02205">
        <ele>354.4</ele>
        <time>2022-09-02T13:08:08Z</time>
      </trkpt>
      <trkpt lat="43.10689" lon="2.02191">
        <ele>354.8</ele>
        <time>2022-09-02T13:08:14Z</time>
      </trkpt>
      <trkpt lat="43.10671" lon="2.0217">
        <ele>355.4</ele>
        <time>2022-09-02T13:08:21Z</time>
      </trkpt>
      <trkpt lat="43.10668" lon="2.02167">
        <ele>355.4</ele>
        <time>2022-09-02T13:08:22Z</time>
      </trkpt>
      <trkpt lat="43.10648" lon="2.02149">
        <ele>356</ele>
        <time>2022-09-02T13:08:29Z</time>
      </trkpt>
      <trkpt lat="43.1063" lon="2.02134">
        <ele>356.2</ele>
        <time>2022-09-02T13:08:35Z</time>
      </trkpt>
      <trkpt lat="43.10621" lon="2.02127">
        <ele>356.4</ele>
        <time>2022-09-02T13:08:38Z</time>
      </trkpt>
      <trkpt lat="43.10612" lon="2.0212">
        <ele>356.6</ele>
        <time>2022-09-02T13:08:41Z</time>
      </trkpt>
      <trkpt lat="43.10586" lon="2.02106">
        <ele>357</ele>
        <time>2022-09-02T13:08:48Z</time>
      </trkpt>
      <trkpt lat="43.10565" lon="2.02097">
        <ele>357.2</ele>
        <time>2022-09-02T13:08:54Z</time>
      </trkpt>
      <trkpt lat="43.10555" lon="2.02093">
        <ele>357.4</ele>
        <time>2022-09-02T13:08:57Z</time>
      </trkpt>
      <trkpt lat="43.10539" lon="2.02087">
        <ele>357.6</ele>
        <time>2022-09-02T13:09:02Z</time>
      </trkpt>
      <trkpt lat="43.10514" lon="2.02079">
        <ele>358.2</ele>
        <time>2022-09-02T13:09:10Z</time>
      </trkpt>
      <trkpt lat="43.10503" lon="2.02077">
        <ele>358.6</ele>
        <time>2022-09-02T13:09:15Z</time>
      </trkpt>
      <trkpt lat="43.10501" lon="2.02076">
        <ele>358.6</ele>
        <time>2022-09-02T13:09:16Z</time>
      </trkpt>
      <trkpt lat="43.10491" lon="2.02077">
        <ele>358.4</ele>
        <time>2022-09-02T13:12:52Z</time>
      </trkpt>
      <trkpt lat="43.10487" lon="2.02077">
        <ele>358.4</ele>
        <time>2022-09-02T13:12:54Z</time>
      </trkpt>
      <trkpt lat="43.10482" lon="2.02076">
        <ele>358.4</ele>
        <time>2022-09-02T13:12:56Z</time>
      </trkpt>
      <trkpt lat="43.1047" lon="2.02075">
        <ele>358.6</ele>
        <time>2022-09-02T13:13:00Z</time>
      </trkpt>
      <trkpt lat="43.10442" lon="2.02075">
        <ele>359</ele>
        <time>2022-09-02T13:13:09Z</time>
      </trkpt>
      <trkpt lat="43.10415" lon="2.02078">
        <ele>359.4</ele>
        <time>2022-09-02T13:13:18Z</time>
      </trkpt>
      <trkpt lat="43.10408" lon="2.02079">
        <ele>359.6</ele>
        <time>2022-09-02T13:13:20Z</time>
      </trkpt>
      <trkpt lat="43.10385" lon="2.02085">
        <ele>360</ele>
        <time>2022-09-02T13:13:27Z</time>
      </trkpt>
      <trkpt lat="43.10359" lon="2.02092">
        <ele>360.4</ele>
        <time>2022-09-02T13:13:35Z</time>
      </trkpt>
      <trkpt lat="43.10346" lon="2.02095">
        <ele>360.4</ele>
        <time>2022-09-02T13:13:41Z</time>
      </trkpt>
      <trkpt lat="43.10335" lon="2.02097">
        <ele>360.6</ele>
        <time>2022-09-02T13:13:47Z</time>
      </trkpt>
      <trkpt lat="43.10333" lon="2.02098">
        <ele>360.6</ele>
        <time>2022-09-02T13:13:48Z</time>
      </trkpt>
      <trkpt lat="43.10313" lon="2.02104">
        <ele>360.8</ele>
        <time>2022-09-02T13:13:57Z</time>
      </trkpt>
      <trkpt lat="43.10295" lon="2.02107">
        <ele>361.2</ele>
        <time>2022-09-02T13:14:05Z</time>
      </trkpt>
      <trkpt lat="43.10278" lon="2.02112">
        <ele>361.6</ele>
        <time>2022-09-02T13:14:11Z</time>
      </trkpt>
      <trkpt lat="43.10274" lon="2.02113">
        <ele>361.6</ele>
        <time>2022-09-02T13:14:12Z</time>
      </trkpt>
      <trkpt lat="43.1025" lon="2.0212">
        <ele>362.2</ele>
        <time>2022-09-02T13:14:20Z</time>
      </trkpt>
      <trkpt lat="43.10225" lon="2.02123">
        <ele>362.6</ele>
        <time>2022-09-02T13:14:28Z</time>
      </trkpt>
      <trkpt lat="43.10219" lon="2.02124">
        <ele>362.8</ele>
        <time>2022-09-02T13:14:30Z</time>
      </trkpt>
      <trkpt lat="43.102" lon="2.02125">
        <ele>363</ele>
        <time>2022-09-02T13:14:36Z</time>
      </trkpt>
      <trkpt lat="43.10167" lon="2.02124">
        <ele>363.6</ele>
        <time>2022-09-02T13:14:46Z</time>
      </trkpt>
      <trkpt lat="43.10152" lon="2.02123">
        <ele>363.8</ele>
        <time>2022-09-02T13:14:50Z</time>
      </trkpt>
      <trkpt lat="43.10138" lon="2.0212">
        <ele>364.2</ele>
        <time>2022-09-02T13:14:54Z</time>
      </trkpt>
      <trkpt lat="43.10111" lon="2.02112">
        <ele>364.8</ele>
        <time>2022-09-02T13:15:02Z</time>
      </trkpt>
      <trkpt lat="43.10085" lon="2.02101">
        <ele>364.8</ele>
        <time>2022-09-02T13:15:10Z</time>
      </trkpt>
      <trkpt lat="43.10048" lon="2.02084">
        <ele>365.4</ele>
        <time>2022-09-02T13:15:21Z</time>
      </trkpt>
      <trkpt lat="43.10027" lon="2.0207">
        <ele>365.8</ele>
        <time>2022-09-02T13:15:28Z</time>
      </trkpt>
      <trkpt lat="43.10021" lon="2.02066">
        <ele>365.8</ele>
        <time>2022-09-02T13:15:30Z</time>
      </trkpt>
      <trkpt lat="43.09998" lon="2.02046">
        <ele>366</ele>
        <time>2022-09-02T13:15:38Z</time>
      </trkpt>
      <trkpt lat="43.09976" lon="2.02025">
        <ele>366.6</ele>
        <time>2022-09-02T13:15:46Z</time>
      </trkpt>
      <trkpt lat="43.09955" lon="2.02001">
        <ele>367</ele>
        <time>2022-09-02T13:15:54Z</time>
      </trkpt>
      <trkpt lat="43.09937" lon="2.01978">
        <ele>367.2</ele>
        <time>2022-09-02T13:16:01Z</time>
      </trkpt>
      <trkpt lat="43.09916" lon="2.01948">
        <ele>368</ele>
        <time>2022-09-02T13:16:10Z</time>
      </trkpt>
      <trkpt lat="43.09914" lon="2.01944">
        <ele>368</ele>
        <time>2022-09-02T13:16:11Z</time>
      </trkpt>
      <trkpt lat="43.09899" lon="2.01919">
        <ele>368.4</ele>
        <time>2022-09-02T13:16:18Z</time>
      </trkpt>
      <trkpt lat="43.09888" lon="2.01893">
        <ele>368.4</ele>
        <time>2022-09-02T13:16:24Z</time>
      </trkpt>
      <trkpt lat="43.09877" lon="2.01868">
        <ele>368.6</ele>
        <time>2022-09-02T13:16:30Z</time>
      </trkpt>
      <trkpt lat="43.09867" lon="2.01841">
        <ele>368.8</ele>
        <time>2022-09-02T13:16:36Z</time>
      </trkpt>
      <trkpt lat="43.09864" lon="2.01833">
        <ele>369</ele>
        <time>2022-09-02T13:16:38Z</time>
      </trkpt>
      <trkpt lat="43.09856" lon="2.0181">
        <ele>369.2</ele>
        <time>2022-09-02T13:16:43Z</time>
      </trkpt>
      <trkpt lat="43.09844" lon="2.01776">
        <ele>369.6</ele>
        <time>2022-09-02T13:16:51Z</time>
      </trkpt>
      <trkpt lat="43.09839" lon="2.01764">
        <ele>369.8</ele>
        <time>2022-09-02T13:16:54Z</time>
      </trkpt>
      <trkpt lat="43.09836" lon="2.01755">
        <ele>370</ele>
        <time>2022-09-02T13:16:56Z</time>
      </trkpt>
      <trkpt lat="43.09834" lon="2.01745">
        <ele>370</ele>
        <time>2022-09-02T13:16:58Z</time>
      </trkpt>
      <trkpt lat="43.09821" lon="2.0171">
        <ele>370.4</ele>
        <time>2022-09-02T13:17:06Z</time>
      </trkpt>
      <trkpt lat="43.09814" lon="2.01682">
        <ele>370.8</ele>
        <time>2022-09-02T13:17:12Z</time>
      </trkpt>
      <trkpt lat="43.09805" lon="2.01655">
        <ele>371</ele>
        <time>2022-09-02T13:17:18Z</time>
      </trkpt>
      <trkpt lat="43.09802" lon="2.01647">
        <ele>371.2</ele>
        <time>2022-09-02T13:17:20Z</time>
      </trkpt>
      <trkpt lat="43.09793" lon="2.01623">
        <ele>371.4</ele>
        <time>2022-09-02T13:17:26Z</time>
      </trkpt>
      <trkpt lat="43.09783" lon="2.01593">
        <ele>372</ele>
        <time>2022-09-02T13:17:33Z</time>
      </trkpt>
      <trkpt lat="43.09782" lon="2.01589">
        <ele>372.2</ele>
        <time>2022-09-02T13:17:34Z</time>
      </trkpt>
      <trkpt lat="43.09772" lon="2.01563">
        <ele>372.6</ele>
        <time>2022-09-02T13:17:40Z</time>
      </trkpt>
      <trkpt lat="43.09762" lon="2.0154">
        <ele>373</ele>
        <time>2022-09-02T13:17:46Z</time>
      </trkpt>
      <trkpt lat="43.09757" lon="2.01528">
        <ele>373.2</ele>
        <time>2022-09-02T13:17:49Z</time>
      </trkpt>
      <trkpt lat="43.09747" lon="2.01507">
        <ele>373.6</ele>
        <time>2022-09-02T13:17:54Z</time>
      </trkpt>
      <trkpt lat="43.09731" lon="2.01479">
        <ele>373.8</ele>
        <time>2022-09-02T13:18:01Z</time>
      </trkpt>
      <trkpt lat="43.09724" lon="2.01469">
        <ele>374.2</ele>
        <time>2022-09-02T13:18:04Z</time>
      </trkpt>
      <trkpt lat="43.09713" lon="2.0145">
        <ele>374.4</ele>
        <time>2022-09-02T13:18:09Z</time>
      </trkpt>
      <trkpt lat="43.09696" lon="2.01432">
        <ele>374.6</ele>
        <time>2022-09-02T13:18:15Z</time>
      </trkpt>
      <trkpt lat="43.0968" lon="2.01409">
        <ele>375</ele>
        <time>2022-09-02T13:18:22Z</time>
      </trkpt>
      <trkpt lat="43.09673" lon="2.01402">
        <ele>375.2</ele>
        <time>2022-09-02T13:18:25Z</time>
      </trkpt>
      <trkpt lat="43.09665" lon="2.01393">
        <ele>375.4</ele>
        <time>2022-09-02T13:18:28Z</time>
      </trkpt>
      <trkpt lat="43.09645" lon="2.01374">
        <ele>376</ele>
        <time>2022-09-02T13:18:35Z</time>
      </trkpt>
      <trkpt lat="43.09625" lon="2.01354">
        <ele>376</ele>
        <time>2022-09-02T13:18:42Z</time>
      </trkpt>
      <trkpt lat="43.09611" lon="2.01343">
        <ele>376.2</ele>
        <time>2022-09-02T13:18:47Z</time>
      </trkpt>
      <trkpt lat="43.09608" lon="2.01341">
        <ele>376.2</ele>
        <time>2022-09-02T13:18:48Z</time>
      </trkpt>
      <trkpt lat="43.09591" lon="2.01328">
        <ele>376.4</ele>
        <time>2022-09-02T13:18:54Z</time>
      </trkpt>
      <trkpt lat="43.09576" lon="2.01318">
        <ele>376.8</ele>
        <time>2022-09-02T13:19:00Z</time>
      </trkpt>
      <trkpt lat="43.09565" lon="2.01307">
        <ele>377.2</ele>
        <time>2022-09-02T13:19:05Z</time>
      </trkpt>
      <trkpt lat="43.09563" lon="2.01305">
        <ele>377.4</ele>
        <time>2022-09-02T13:19:06Z</time>
      </trkpt>
      <trkpt lat="43.09549" lon="2.01294">
        <ele>377.8</ele>
        <time>2022-09-02T13:19:11Z</time>
      </trkpt>
      <trkpt lat="43.09522" lon="2.01277">
        <ele>378.4</ele>
        <time>2022-09-02T13:19:19Z</time>
      </trkpt>
      <trkpt lat="43.09503" lon="2.01271">
        <ele>378.6</ele>
        <time>2022-09-02T13:19:24Z</time>
      </trkpt>
      <trkpt lat="43.09484" lon="2.01263">
        <ele>379</ele>
        <time>2022-09-02T13:19:30Z</time>
      </trkpt>
      <trkpt lat="43.09461" lon="2.01254">
        <ele>379.4</ele>
        <time>2022-09-02T13:19:37Z</time>
      </trkpt>
      <trkpt lat="43.09458" lon="2.01253">
        <ele>379.4</ele>
        <time>2022-09-02T13:19:38Z</time>
      </trkpt>
      <trkpt lat="43.0944" lon="2.01249">
        <ele>379.8</ele>
        <time>2022-09-02T13:19:43Z</time>
      </trkpt>
      <trkpt lat="43.09407" lon="2.01244">
        <ele>380.2</ele>
        <time>2022-09-02T13:19:52Z</time>
      </trkpt>
      <trkpt lat="43.09395" lon="2.01241">
        <ele>380.4</ele>
        <time>2022-09-02T13:19:55Z</time>
      </trkpt>
      <trkpt lat="43.09384" lon="2.01238">
        <ele>380.6</ele>
        <time>2022-09-02T13:19:58Z</time>
      </trkpt>
      <trkpt lat="43.09361" lon="2.01233">
        <ele>381.2</ele>
        <time>2022-09-02T13:20:05Z</time>
      </trkpt>
      <trkpt lat="43.0935" lon="2.01229">
        <ele>381.6</ele>
        <time>2022-09-02T13:20:10Z</time>
      </trkpt>
      <trkpt lat="43.0935" lon="2.01229">
        <ele>382.6</ele>
        <time>2022-09-02T13:20:33Z</time>
      </trkpt>
      <trkpt lat="43.0935" lon="2.01229">
        <ele>383.6</ele>
        <time>2022-09-02T13:20:53Z</time>
      </trkpt>
      <trkpt lat="43.0935" lon="2.01229">
        <ele>384.6</ele>
        <time>2022-09-02T13:21:21Z</time>
      </trkpt>
      <trkpt lat="43.0935" lon="2.01229">
        <ele>384.6</ele>
        <time>2022-09-02T13:21:26Z</time>
      </trkpt>
      <trkpt lat="43.09056" lon="2.01143">
        <ele>385.6</ele>
        <time>2022-09-02T13:21:54Z</time>
      </trkpt>
      <trkpt lat="43.09041" lon="2.01154">
        <ele>385.6</ele>
        <time>2022-09-02T13:23:10Z</time>
      </trkpt>
      <trkpt lat="43.0904" lon="2.01153">
        <ele>385.8</ele>
        <time>2022-09-02T13:23:11Z</time>
      </trkpt>
      <trkpt lat="43.09028" lon="2.01145">
        <ele>386.2</ele>
        <time>2022-09-02T13:23:18Z</time>
      </trkpt>
      <trkpt lat="43.09012" lon="2.01132">
        <ele>386.6</ele>
        <time>2022-09-02T13:23:24Z</time>
      </trkpt>
      <trkpt lat="43.09005" lon="2.01124">
        <ele>386.8</ele>
        <time>2022-09-02T13:23:26Z</time>
      </trkpt>
      <trkpt lat="43.08991" lon="2.01111">
        <ele>386.8</ele>
        <time>2022-09-02T13:23:30Z</time>
      </trkpt>
      <trkpt lat="43.08961" lon="2.01081">
        <ele>387.2</ele>
        <time>2022-09-02T13:23:38Z</time>
      </trkpt>
      <trkpt lat="43.08946" lon="2.01068">
        <ele>387.6</ele>
        <time>2022-09-02T13:23:42Z</time>
      </trkpt>
      <trkpt lat="43.08936" lon="2.01056">
        <ele>387.8</ele>
        <time>2022-09-02T13:23:46Z</time>
      </trkpt>
      <trkpt lat="43.08931" lon="2.01048">
        <ele>388</ele>
        <time>2022-09-02T13:23:48Z</time>
      </trkpt>
      <trkpt lat="43.08916" lon="2.01026">
        <ele>387.8</ele>
        <time>2022-09-02T13:23:54Z</time>
      </trkpt>
      <trkpt lat="43.08901" lon="2.01002">
        <ele>388</ele>
        <time>2022-09-02T13:24:00Z</time>
      </trkpt>
      <trkpt lat="43.0888" lon="2.00964">
        <ele>388</ele>
        <time>2022-09-02T13:24:07Z</time>
      </trkpt>
      <trkpt lat="43.08867" lon="2.00929">
        <ele>387.6</ele>
        <time>2022-09-02T13:24:13Z</time>
      </trkpt>
      <trkpt lat="43.08852" lon="2.00892">
        <ele>387.6</ele>
        <time>2022-09-02T13:24:20Z</time>
      </trkpt>
      <trkpt lat="43.08836" lon="2.00855">
        <ele>387.2</ele>
        <time>2022-09-02T13:24:27Z</time>
      </trkpt>
      <trkpt lat="43.08828" lon="2.0083">
        <ele>387</ele>
        <time>2022-09-02T13:24:32Z</time>
      </trkpt>
      <trkpt lat="43.08818" lon="2.00801">
        <ele>387</ele>
        <time>2022-09-02T13:24:37Z</time>
      </trkpt>
      <trkpt lat="43.08813" lon="2.00791">
        <ele>386.8</ele>
        <time>2022-09-02T13:24:39Z</time>
      </trkpt>
      <trkpt lat="43.08805" lon="2.00771">
        <ele>386.4</ele>
        <time>2022-09-02T13:24:43Z</time>
      </trkpt>
      <trkpt lat="43.0879" lon="2.0073">
        <ele>386.4</ele>
        <time>2022-09-02T13:24:50Z</time>
      </trkpt>
      <trkpt lat="43.08773" lon="2.0068">
        <ele>386</ele>
        <time>2022-09-02T13:24:58Z</time>
      </trkpt>
      <trkpt lat="43.08766" lon="2.00657">
        <ele>385.8</ele>
        <time>2022-09-02T13:25:03Z</time>
      </trkpt>
      <trkpt lat="43.08764" lon="2.00649">
        <ele>385.8</ele>
        <time>2022-09-02T13:25:05Z</time>
      </trkpt>
      <trkpt lat="43.08759" lon="2.00631">
        <ele>385.4</ele>
        <time>2022-09-02T13:25:09Z</time>
      </trkpt>
      <trkpt lat="43.08749" lon="2.00592">
        <ele>385.4</ele>
        <time>2022-09-02T13:25:17Z</time>
      </trkpt>
      <trkpt lat="43.08745" lon="2.00574">
        <ele>385</ele>
        <time>2022-09-02T13:25:22Z</time>
      </trkpt>
      <trkpt lat="43.08746" lon="2.00566">
        <ele>385</ele>
        <time>2022-09-02T13:26:05Z</time>
      </trkpt>
      <trkpt lat="43.08746" lon="2.00562">
        <ele>385.2</ele>
        <time>2022-09-02T13:26:06Z</time>
      </trkpt>
      <trkpt lat="43.08744" lon="2.00538">
        <ele>385</ele>
        <time>2022-09-02T13:26:11Z</time>
      </trkpt>
      <trkpt lat="43.08743" lon="2.00522">
        <ele>384.8</ele>
        <time>2022-09-02T13:26:14Z</time>
      </trkpt>
      <trkpt lat="43.0874" lon="2.005">
        <ele>384.8</ele>
        <time>2022-09-02T13:26:18Z</time>
      </trkpt>
      <trkpt lat="43.08738" lon="2.00469">
        <ele>384.2</ele>
        <time>2022-09-02T13:26:24Z</time>
      </trkpt>
      <trkpt lat="43.08737" lon="2.00443">
        <ele>384.2</ele>
        <time>2022-09-02T13:26:30Z</time>
      </trkpt>
      <trkpt lat="43.08735" lon="2.00406">
        <ele>384</ele>
        <time>2022-09-02T13:26:37Z</time>
      </trkpt>
      <trkpt lat="43.08735" lon="2.00369">
        <ele>384</ele>
        <time>2022-09-02T13:26:43Z</time>
      </trkpt>
      <trkpt lat="43.08734" lon="2.00362">
        <ele>384</ele>
        <time>2022-09-02T13:26:44Z</time>
      </trkpt>
      <trkpt lat="43.08733" lon="2.00347">
        <ele>383.6</ele>
        <time>2022-09-02T13:26:46Z</time>
      </trkpt>
      <trkpt lat="43.08732" lon="2.00328">
        <ele>383.2</ele>
        <time>2022-09-02T13:26:49Z</time>
      </trkpt>
      <trkpt lat="43.08731" lon="2.00294">
        <ele>383</ele>
        <time>2022-09-02T13:26:54Z</time>
      </trkpt>
      <trkpt lat="43.0873" lon="2.00287">
        <ele>383</ele>
        <time>2022-09-02T13:26:55Z</time>
      </trkpt>
      <trkpt lat="43.08728" lon="2.00266">
        <ele>383</ele>
        <time>2022-09-02T13:26:58Z</time>
      </trkpt>
      <trkpt lat="43.08728" lon="2.00259">
        <ele>382.8</ele>
        <time>2022-09-02T13:26:59Z</time>
      </trkpt>
      <trkpt lat="43.08727" lon="2.00251">
        <ele>382.6</ele>
        <time>2022-09-02T13:27:00Z</time>
      </trkpt>
      <trkpt lat="43.08724" lon="2.00202">
        <ele>382.4</ele>
        <time>2022-09-02T13:27:07Z</time>
      </trkpt>
      <trkpt lat="43.08721" lon="2.00177">
        <ele>382.2</ele>
        <time>2022-09-02T13:27:11Z</time>
      </trkpt>
      <trkpt lat="43.0872" lon="2.00163">
        <ele>381.8</ele>
        <time>2022-09-02T13:27:13Z</time>
      </trkpt>
      <trkpt lat="43.08719" lon="2.00156">
        <ele>381.8</ele>
        <time>2022-09-02T13:27:14Z</time>
      </trkpt>
      <trkpt lat="43.08718" lon="2.00142">
        <ele>381.6</ele>
        <time>2022-09-02T13:27:16Z</time>
      </trkpt>
      <trkpt lat="43.08717" lon="2.00128">
        <ele>381.6</ele>
        <time>2022-09-02T13:27:18Z</time>
      </trkpt>
      <trkpt lat="43.08716" lon="2.00114">
        <ele>381.4</ele>
        <time>2022-09-02T13:27:20Z</time>
      </trkpt>
      <trkpt lat="43.08713" lon="2.00101">
        <ele>381.4</ele>
        <time>2022-09-02T13:27:22Z</time>
      </trkpt>
      <trkpt lat="43.08708" lon="2.00055">
        <ele>381.4</ele>
        <time>2022-09-02T13:27:28Z</time>
      </trkpt>
      <trkpt lat="43.08702" lon="2.00006">
        <ele>381</ele>
        <time>2022-09-02T13:27:34Z</time>
      </trkpt>
      <trkpt lat="43.08693" lon="1.99957">
        <ele>380.6</ele>
        <time>2022-09-02T13:27:40Z</time>
      </trkpt>
      <trkpt lat="43.08689" lon="1.9994">
        <ele>380.6</ele>
        <time>2022-09-02T13:27:42Z</time>
      </trkpt>
      <trkpt lat="43.08684" lon="1.99924">
        <ele>380.4</ele>
        <time>2022-09-02T13:27:44Z</time>
      </trkpt>
      <trkpt lat="43.08682" lon="1.99916">
        <ele>380.4</ele>
        <time>2022-09-02T13:27:45Z</time>
      </trkpt>
      <trkpt lat="43.08667" lon="1.99858">
        <ele>380.2</ele>
        <time>2022-09-02T13:27:52Z</time>
      </trkpt>
      <trkpt lat="43.08651" lon="1.99806">
        <ele>379.4</ele>
        <time>2022-09-02T13:27:59Z</time>
      </trkpt>
      <trkpt lat="43.08648" lon="1.99799">
        <ele>379.4</ele>
        <time>2022-09-02T13:28:00Z</time>
      </trkpt>
      <trkpt lat="43.08629" lon="1.99747">
        <ele>379</ele>
        <time>2022-09-02T13:28:08Z</time>
      </trkpt>
      <trkpt lat="43.08614" lon="1.99708">
        <ele>378.4</ele>
        <time>2022-09-02T13:28:15Z</time>
      </trkpt>
      <trkpt lat="43.08612" lon="1.99702">
        <ele>378.2</ele>
        <time>2022-09-02T13:28:16Z</time>
      </trkpt>
      <trkpt lat="43.08595" lon="1.9966">
        <ele>378.2</ele>
        <time>2022-09-02T13:28:23Z</time>
      </trkpt>
      <trkpt lat="43.08576" lon="1.99615">
        <ele>377.2</ele>
        <time>2022-09-02T13:28:30Z</time>
      </trkpt>
      <trkpt lat="43.08573" lon="1.99608">
        <ele>377.2</ele>
        <time>2022-09-02T13:28:31Z</time>
      </trkpt>
      <trkpt lat="43.0855" lon="1.99555">
        <ele>376.6</ele>
        <time>2022-09-02T13:28:40Z</time>
      </trkpt>
      <trkpt lat="43.08543" lon="1.99541">
        <ele>376.6</ele>
        <time>2022-09-02T13:28:43Z</time>
      </trkpt>
      <trkpt lat="43.0854" lon="1.99532">
        <ele>376.6</ele>
        <time>2022-09-02T13:28:45Z</time>
      </trkpt>
      <trkpt lat="43.08536" lon="1.99524">
        <ele>376.2</ele>
        <time>2022-09-02T13:28:48Z</time>
      </trkpt>
      <trkpt lat="43.08533" lon="1.99517">
        <ele>376.2</ele>
        <time>2022-09-02T13:28:50Z</time>
      </trkpt>
      <trkpt lat="43.08527" lon="1.99506">
        <ele>376.2</ele>
        <time>2022-09-02T13:28:55Z</time>
      </trkpt>
      <trkpt lat="43.08529" lon="1.99507">
        <ele>375.8</ele>
        <time>2022-09-02T13:32:13Z</time>
      </trkpt>
      <trkpt lat="43.08524" lon="1.99493">
        <ele>376</ele>
        <time>2022-09-02T13:32:19Z</time>
      </trkpt>
      <trkpt lat="43.08512" lon="1.99466">
        <ele>376.4</ele>
        <time>2022-09-02T13:32:28Z</time>
      </trkpt>
      <trkpt lat="43.08499" lon="1.99438">
        <ele>376.4</ele>
        <time>2022-09-02T13:32:35Z</time>
      </trkpt>
      <trkpt lat="43.08481" lon="1.99395">
        <ele>376.2</ele>
        <time>2022-09-02T13:32:45Z</time>
      </trkpt>
      <trkpt lat="43.08462" lon="1.99353">
        <ele>375.8</ele>
        <time>2022-09-02T13:32:54Z</time>
      </trkpt>
      <trkpt lat="43.08443" lon="1.99312">
        <ele>375.6</ele>
        <time>2022-09-02T13:33:02Z</time>
      </trkpt>
      <trkpt lat="43.08432" lon="1.99286">
        <ele>375.2</ele>
        <time>2022-09-02T13:33:07Z</time>
      </trkpt>
      <trkpt lat="43.08426" lon="1.99271">
        <ele>375.2</ele>
        <time>2022-09-02T13:33:10Z</time>
      </trkpt>
      <trkpt lat="43.08409" lon="1.99232">
        <ele>374.8</ele>
        <time>2022-09-02T13:33:18Z</time>
      </trkpt>
      <trkpt lat="43.08391" lon="1.99192">
        <ele>374.2</ele>
        <time>2022-09-02T13:33:26Z</time>
      </trkpt>
      <trkpt lat="43.08389" lon="1.99187">
        <ele>374.2</ele>
        <time>2022-09-02T13:33:27Z</time>
      </trkpt>
      <trkpt lat="43.08369" lon="1.9914">
        <ele>373.8</ele>
        <time>2022-09-02T13:33:35Z</time>
      </trkpt>
      <trkpt lat="43.08347" lon="1.99092">
        <ele>373.2</ele>
        <time>2022-09-02T13:33:43Z</time>
      </trkpt>
      <trkpt lat="43.08336" lon="1.99066">
        <ele>373.2</ele>
        <time>2022-09-02T13:33:47Z</time>
      </trkpt>
      <trkpt lat="43.08323" lon="1.99033">
        <ele>373</ele>
        <time>2022-09-02T13:33:52Z</time>
      </trkpt>
      <trkpt lat="43.08301" lon="1.98978">
        <ele>372.2</ele>
        <time>2022-09-02T13:34:00Z</time>
      </trkpt>
      <trkpt lat="43.08298" lon="1.98971">
        <ele>372</ele>
        <time>2022-09-02T13:34:01Z</time>
      </trkpt>
      <trkpt lat="43.08274" lon="1.98902">
        <ele>371</ele>
        <time>2022-09-02T13:34:11Z</time>
      </trkpt>
      <trkpt lat="43.08259" lon="1.9886">
        <ele>370.8</ele>
        <time>2022-09-02T13:34:17Z</time>
      </trkpt>
      <trkpt lat="43.08254" lon="1.98846">
        <ele>370.8</ele>
        <time>2022-09-02T13:34:19Z</time>
      </trkpt>
      <trkpt lat="43.08236" lon="1.98788">
        <ele>370.4</ele>
        <time>2022-09-02T13:34:27Z</time>
      </trkpt>
      <trkpt lat="43.0822" lon="1.9873">
        <ele>370</ele>
        <time>2022-09-02T13:34:35Z</time>
      </trkpt>
      <trkpt lat="43.08216" lon="1.98715">
        <ele>370</ele>
        <time>2022-09-02T13:34:37Z</time>
      </trkpt>
      <trkpt lat="43.08209" lon="1.98692">
        <ele>369.8</ele>
        <time>2022-09-02T13:34:40Z</time>
      </trkpt>
      <trkpt lat="43.0819" lon="1.98622">
        <ele>369.2</ele>
        <time>2022-09-02T13:34:49Z</time>
      </trkpt>
      <trkpt lat="43.08177" lon="1.98565">
        <ele>368.8</ele>
        <time>2022-09-02T13:34:56Z</time>
      </trkpt>
      <trkpt lat="43.08163" lon="1.98503">
        <ele>368.2</ele>
        <time>2022-09-02T13:35:04Z</time>
      </trkpt>
      <trkpt lat="43.08149" lon="1.98445">
        <ele>367.8</ele>
        <time>2022-09-02T13:35:12Z</time>
      </trkpt>
      <trkpt lat="43.08148" lon="1.98438">
        <ele>367.8</ele>
        <time>2022-09-02T13:35:13Z</time>
      </trkpt>
      <trkpt lat="43.08137" lon="1.98386">
        <ele>367.2</ele>
        <time>2022-09-02T13:35:20Z</time>
      </trkpt>
      <trkpt lat="43.08124" lon="1.9833">
        <ele>366.8</ele>
        <time>2022-09-02T13:35:27Z</time>
      </trkpt>
      <trkpt lat="43.08106" lon="1.98258">
        <ele>366.6</ele>
        <time>2022-09-02T13:35:36Z</time>
      </trkpt>
      <trkpt lat="43.0809" lon="1.98192">
        <ele>365.8</ele>
        <time>2022-09-02T13:35:44Z</time>
      </trkpt>
      <trkpt lat="43.08086" lon="1.98176">
        <ele>365.8</ele>
        <time>2022-09-02T13:35:46Z</time>
      </trkpt>
      <trkpt lat="43.08075" lon="1.98128">
        <ele>365.8</ele>
        <time>2022-09-02T13:35:52Z</time>
      </trkpt>
      <trkpt lat="43.08062" lon="1.98072">
        <ele>365</ele>
        <time>2022-09-02T13:35:59Z</time>
      </trkpt>
      <trkpt lat="43.08054" lon="1.98035">
        <ele>364.4</ele>
        <time>2022-09-02T13:36:04Z</time>
      </trkpt>
      <trkpt lat="43.08049" lon="1.98015">
        <ele>364.2</ele>
        <time>2022-09-02T13:36:07Z</time>
      </trkpt>
      <trkpt lat="43.08036" lon="1.97962">
        <ele>364</ele>
        <time>2022-09-02T13:36:14Z</time>
      </trkpt>
      <trkpt lat="43.08023" lon="1.97905">
        <ele>363.4</ele>
        <time>2022-09-02T13:36:21Z</time>
      </trkpt>
      <trkpt lat="43.08017" lon="1.97881">
        <ele>363.4</ele>
        <time>2022-09-02T13:36:24Z</time>
      </trkpt>
      <trkpt lat="43.08006" lon="1.97835">
        <ele>362.4</ele>
        <time>2022-09-02T13:36:30Z</time>
      </trkpt>
      <trkpt lat="43.08003" lon="1.9782">
        <ele>362.4</ele>
        <time>2022-09-02T13:36:32Z</time>
      </trkpt>
      <trkpt lat="43.07987" lon="1.97753">
        <ele>362</ele>
        <time>2022-09-02T13:36:42Z</time>
      </trkpt>
      <trkpt lat="43.07982" lon="1.9773">
        <ele>361.8</ele>
        <time>2022-09-02T13:36:47Z</time>
      </trkpt>
      <trkpt lat="43.07975" lon="1.97699">
        <ele>361.4</ele>
        <time>2022-09-02T13:36:54Z</time>
      </trkpt>
      <trkpt lat="43.07966" lon="1.97662">
        <ele>361.6</ele>
        <time>2022-09-02T13:37:00Z</time>
      </trkpt>
      <trkpt lat="43.07963" lon="1.97648">
        <ele>361.4</ele>
        <time>2022-09-02T13:37:02Z</time>
      </trkpt>
      <trkpt lat="43.07949" lon="1.9759">
        <ele>361.4</ele>
        <time>2022-09-02T13:37:10Z</time>
      </trkpt>
      <trkpt lat="43.07932" lon="1.97515">
        <ele>361.8</ele>
        <time>2022-09-02T13:37:20Z</time>
      </trkpt>
      <trkpt lat="43.07919" lon="1.97443">
        <ele>361.8</ele>
        <time>2022-09-02T13:37:30Z</time>
      </trkpt>
      <trkpt lat="43.07912" lon="1.97397">
        <ele>361.2</ele>
        <time>2022-09-02T13:37:37Z</time>
      </trkpt>
      <trkpt lat="43.07906" lon="1.97347">
        <ele>361.4</ele>
        <time>2022-09-02T13:37:45Z</time>
      </trkpt>
      <trkpt lat="43.07904" lon="1.97319">
        <ele>361.4</ele>
        <time>2022-09-02T13:37:51Z</time>
      </trkpt>
      <trkpt lat="43.07901" lon="1.97291">
        <ele>361.8</ele>
        <time>2022-09-02T13:37:56Z</time>
      </trkpt>
      <trkpt lat="43.079" lon="1.97285">
        <ele>362</ele>
        <time>2022-09-02T13:37:57Z</time>
      </trkpt>
      <trkpt lat="43.07897" lon="1.97239">
        <ele>361.2</ele>
        <time>2022-09-02T13:38:04Z</time>
      </trkpt>
      <trkpt lat="43.07895" lon="1.97188">
        <ele>361.6</ele>
        <time>2022-09-02T13:38:11Z</time>
      </trkpt>
      <trkpt lat="43.07896" lon="1.97181">
        <ele>362</ele>
        <time>2022-09-02T13:38:12Z</time>
      </trkpt>
      <trkpt lat="43.07896" lon="1.97131">
        <ele>360.8</ele>
        <time>2022-09-02T13:38:19Z</time>
      </trkpt>
      <trkpt lat="43.07898" lon="1.9707">
        <ele>360.4</ele>
        <time>2022-09-02T13:38:27Z</time>
      </trkpt>
      <trkpt lat="43.07899" lon="1.97063">
        <ele>360.2</ele>
        <time>2022-09-02T13:38:28Z</time>
      </trkpt>
      <trkpt lat="43.07906" lon="1.96984">
        <ele>359.8</ele>
        <time>2022-09-02T13:38:38Z</time>
      </trkpt>
      <trkpt lat="43.07915" lon="1.96921">
        <ele>359.4</ele>
        <time>2022-09-02T13:38:46Z</time>
      </trkpt>
      <trkpt lat="43.07918" lon="1.96898">
        <ele>359.2</ele>
        <time>2022-09-02T13:38:49Z</time>
      </trkpt>
      <trkpt lat="43.07923" lon="1.96859">
        <ele>358.8</ele>
        <time>2022-09-02T13:38:54Z</time>
      </trkpt>
      <trkpt lat="43.07933" lon="1.96793">
        <ele>358.6</ele>
        <time>2022-09-02T13:39:02Z</time>
      </trkpt>
      <trkpt lat="43.07939" lon="1.96752">
        <ele>358.2</ele>
        <time>2022-09-02T13:39:07Z</time>
      </trkpt>
      <trkpt lat="43.07944" lon="1.96712">
        <ele>358</ele>
        <time>2022-09-02T13:39:12Z</time>
      </trkpt>
      <trkpt lat="43.07953" lon="1.96648">
        <ele>357.6</ele>
        <time>2022-09-02T13:39:20Z</time>
      </trkpt>
      <trkpt lat="43.07959" lon="1.96598">
        <ele>357.2</ele>
        <time>2022-09-02T13:39:26Z</time>
      </trkpt>
      <trkpt lat="43.07962" lon="1.96565">
        <ele>356.6</ele>
        <time>2022-09-02T13:39:30Z</time>
      </trkpt>
      <trkpt lat="43.07966" lon="1.96501">
        <ele>356.2</ele>
        <time>2022-09-02T13:39:38Z</time>
      </trkpt>
      <trkpt lat="43.07967" lon="1.96457">
        <ele>355.6</ele>
        <time>2022-09-02T13:39:44Z</time>
      </trkpt>
      <trkpt lat="43.07968" lon="1.96394">
        <ele>355.4</ele>
        <time>2022-09-02T13:39:52Z</time>
      </trkpt>
      <trkpt lat="43.07966" lon="1.96353">
        <ele>355.2</ele>
        <time>2022-09-02T13:39:57Z</time>
      </trkpt>
      <trkpt lat="43.07964" lon="1.9632">
        <ele>354.6</ele>
        <time>2022-09-02T13:40:01Z</time>
      </trkpt>
      <trkpt lat="43.07959" lon="1.9627">
        <ele>354</ele>
        <time>2022-09-02T13:40:07Z</time>
      </trkpt>
      <trkpt lat="43.07957" lon="1.96254">
        <ele>354</ele>
        <time>2022-09-02T13:40:09Z</time>
      </trkpt>
      <trkpt lat="43.07951" lon="1.96192">
        <ele>353.2</ele>
        <time>2022-09-02T13:40:17Z</time>
      </trkpt>
      <trkpt lat="43.0795" lon="1.96184">
        <ele>353</ele>
        <time>2022-09-02T13:40:18Z</time>
      </trkpt>
      <trkpt lat="43.07944" lon="1.96142">
        <ele>353.2</ele>
        <time>2022-09-02T13:40:24Z</time>
      </trkpt>
      <trkpt lat="43.07937" lon="1.96094">
        <ele>352.8</ele>
        <time>2022-09-02T13:40:31Z</time>
      </trkpt>
      <trkpt lat="43.07935" lon="1.96081">
        <ele>352.6</ele>
        <time>2022-09-02T13:40:33Z</time>
      </trkpt>
      <trkpt lat="43.07928" lon="1.96041">
        <ele>352.4</ele>
        <time>2022-09-02T13:40:40Z</time>
      </trkpt>
      <trkpt lat="43.07922" lon="1.96002">
        <ele>352.4</ele>
        <time>2022-09-02T13:40:47Z</time>
      </trkpt>
      <trkpt lat="43.07919" lon="1.95971">
        <ele>352</ele>
        <time>2022-09-02T13:40:54Z</time>
      </trkpt>
      <trkpt lat="43.07916" lon="1.95952">
        <ele>352</ele>
        <time>2022-09-02T13:40:58Z</time>
      </trkpt>
      <trkpt lat="43.07914" lon="1.95942">
        <ele>351.6</ele>
        <time>2022-09-02T13:41:00Z</time>
      </trkpt>
      <trkpt lat="43.07908" lon="1.95904">
        <ele>351.4</ele>
        <time>2022-09-02T13:41:06Z</time>
      </trkpt>
      <trkpt lat="43.07901" lon="1.95858">
        <ele>351.2</ele>
        <time>2022-09-02T13:41:13Z</time>
      </trkpt>
      <trkpt lat="43.07898" lon="1.95829">
        <ele>351.2</ele>
        <time>2022-09-02T13:41:18Z</time>
      </trkpt>
      <trkpt lat="43.07891" lon="1.95777">
        <ele>351</ele>
        <time>2022-09-02T13:41:26Z</time>
      </trkpt>
      <trkpt lat="43.07883" lon="1.95741">
        <ele>351</ele>
        <time>2022-09-02T13:41:31Z</time>
      </trkpt>
      <trkpt lat="43.0788" lon="1.95722">
        <ele>350.8</ele>
        <time>2022-09-02T13:41:34Z</time>
      </trkpt>
      <trkpt lat="43.07878" lon="1.95703">
        <ele>350.8</ele>
        <time>2022-09-02T13:41:37Z</time>
      </trkpt>
      <trkpt lat="43.07874" lon="1.95681">
        <ele>350.6</ele>
        <time>2022-09-02T13:41:41Z</time>
      </trkpt>
      <trkpt lat="43.07871" lon="1.95651">
        <ele>350.6</ele>
        <time>2022-09-02T13:41:47Z</time>
      </trkpt>
      <trkpt lat="43.0787" lon="1.95612">
        <ele>350.6</ele>
        <time>2022-09-02T13:41:54Z</time>
      </trkpt>
      <trkpt lat="43.07868" lon="1.95563">
        <ele>350.8</ele>
        <time>2022-09-02T13:42:02Z</time>
      </trkpt>
      <trkpt lat="43.07862" lon="1.95514">
        <ele>351</ele>
        <time>2022-09-02T13:42:10Z</time>
      </trkpt>
      <trkpt lat="43.07858" lon="1.95491">
        <ele>351</ele>
        <time>2022-09-02T13:42:14Z</time>
      </trkpt>
      <trkpt lat="43.07858" lon="1.95479">
        <ele>351</ele>
        <time>2022-09-02T13:42:16Z</time>
      </trkpt>
      <trkpt lat="43.07853" lon="1.95428">
        <ele>351.2</ele>
        <time>2022-09-02T13:42:24Z</time>
      </trkpt>
      <trkpt lat="43.07848" lon="1.95364">
        <ele>351</ele>
        <time>2022-09-02T13:42:34Z</time>
      </trkpt>
      <trkpt lat="43.07841" lon="1.95314">
        <ele>351</ele>
        <time>2022-09-02T13:42:42Z</time>
      </trkpt>
      <trkpt lat="43.0783" lon="1.9526">
        <ele>351</ele>
        <time>2022-09-02T13:42:51Z</time>
      </trkpt>
      <trkpt lat="43.07818" lon="1.95207">
        <ele>350.8</ele>
        <time>2022-09-02T13:43:00Z</time>
      </trkpt>
      <trkpt lat="43.07803" lon="1.95163">
        <ele>351</ele>
        <time>2022-09-02T13:43:08Z</time>
      </trkpt>
      <trkpt lat="43.07792" lon="1.95137">
        <ele>350.8</ele>
        <time>2022-09-02T13:43:13Z</time>
      </trkpt>
      <trkpt lat="43.0779" lon="1.95126">
        <ele>351</ele>
        <time>2022-09-02T13:43:15Z</time>
      </trkpt>
      <trkpt lat="43.0778" lon="1.95066">
        <ele>350.8</ele>
        <time>2022-09-02T13:43:25Z</time>
      </trkpt>
      <trkpt lat="43.07772" lon="1.95019">
        <ele>351</ele>
        <time>2022-09-02T13:43:33Z</time>
      </trkpt>
      <trkpt lat="43.07762" lon="1.94967">
        <ele>351</ele>
        <time>2022-09-02T13:43:42Z</time>
      </trkpt>
      <trkpt lat="43.0775" lon="1.94911">
        <ele>350.8</ele>
        <time>2022-09-02T13:43:52Z</time>
      </trkpt>
      <trkpt lat="43.07741" lon="1.94875">
        <ele>351.2</ele>
        <time>2022-09-02T13:43:59Z</time>
      </trkpt>
      <trkpt lat="43.07729" lon="1.94838">
        <ele>350.8</ele>
        <time>2022-09-02T13:44:07Z</time>
      </trkpt>
      <trkpt lat="43.07724" lon="1.94816">
        <ele>350.8</ele>
        <time>2022-09-02T13:44:13Z</time>
      </trkpt>
      <trkpt lat="43.07716" lon="1.94793">
        <ele>350.4</ele>
        <time>2022-09-02T13:44:19Z</time>
      </trkpt>
      <trkpt lat="43.07706" lon="1.94759">
        <ele>350.2</ele>
        <time>2022-09-02T13:44:26Z</time>
      </trkpt>
      <trkpt lat="43.07703" lon="1.94749">
        <ele>350.4</ele>
        <time>2022-09-02T13:44:28Z</time>
      </trkpt>
      <trkpt lat="43.07695" lon="1.94724">
        <ele>350.2</ele>
        <time>2022-09-02T13:44:33Z</time>
      </trkpt>
      <trkpt lat="43.07687" lon="1.94697">
        <ele>349.8</ele>
        <time>2022-09-02T13:44:38Z</time>
      </trkpt>
      <trkpt lat="43.07682" lon="1.9468">
        <ele>350</ele>
        <time>2022-09-02T13:44:41Z</time>
      </trkpt>
      <trkpt lat="43.07669" lon="1.94626">
        <ele>349.6</ele>
        <time>2022-09-02T13:44:50Z</time>
      </trkpt>
      <trkpt lat="43.07663" lon="1.94589">
        <ele>349.8</ele>
        <time>2022-09-02T13:44:56Z</time>
      </trkpt>
      <trkpt lat="43.07662" lon="1.94583">
        <ele>349.6</ele>
        <time>2022-09-02T13:44:57Z</time>
      </trkpt>
      <trkpt lat="43.07658" lon="1.94553">
        <ele>349.2</ele>
        <time>2022-09-02T13:45:02Z</time>
      </trkpt>
      <trkpt lat="43.07655" lon="1.94509">
        <ele>348.8</ele>
        <time>2022-09-02T13:45:09Z</time>
      </trkpt>
      <trkpt lat="43.07654" lon="1.94503">
        <ele>348.8</ele>
        <time>2022-09-02T13:45:10Z</time>
      </trkpt>
      <trkpt lat="43.07653" lon="1.94486">
        <ele>348.8</ele>
        <time>2022-09-02T13:45:13Z</time>
      </trkpt>
      <trkpt lat="43.07652" lon="1.94476">
        <ele>348.2</ele>
        <time>2022-09-02T13:45:15Z</time>
      </trkpt>
      <trkpt lat="43.07651" lon="1.94463">
        <ele>347.8</ele>
        <time>2022-09-02T13:45:20Z</time>
      </trkpt>
      <trkpt lat="43.07653" lon="1.94468">
        <ele>347.6</ele>
        <time>2022-09-02T13:45:42Z</time>
      </trkpt>
      <trkpt lat="43.07653" lon="1.94475">
        <ele>347.8</ele>
        <time>2022-09-02T13:45:44Z</time>
      </trkpt>
      <trkpt lat="43.07653" lon="1.94497">
        <ele>348.2</ele>
        <time>2022-09-02T13:45:50Z</time>
      </trkpt>
      <trkpt lat="43.07654" lon="1.94518">
        <ele>348.2</ele>
        <time>2022-09-02T13:45:57Z</time>
      </trkpt>
      <trkpt lat="43.07655" lon="1.94521">
        <ele>348.2</ele>
        <time>2022-09-02T13:45:59Z</time>
      </trkpt>
      <trkpt lat="43.07655" lon="1.94516">
        <ele>348.6</ele>
        <time>2022-09-02T13:47:59Z</time>
      </trkpt>
      <trkpt lat="43.07654" lon="1.94502">
        <ele>348.6</ele>
        <time>2022-09-02T13:48:04Z</time>
      </trkpt>
      <trkpt lat="43.07654" lon="1.94499">
        <ele>348.6</ele>
        <time>2022-09-02T13:48:05Z</time>
      </trkpt>
      <trkpt lat="43.07653" lon="1.94469">
        <ele>348.4</ele>
        <time>2022-09-02T13:48:12Z</time>
      </trkpt>
      <trkpt lat="43.07653" lon="1.94442">
        <ele>348.2</ele>
        <time>2022-09-02T13:48:19Z</time>
      </trkpt>
      <trkpt lat="43.07652" lon="1.94437">
        <ele>348</ele>
        <time>2022-09-02T13:49:26Z</time>
      </trkpt>
      <trkpt lat="43.07653" lon="1.94418">
        <ele>348.2</ele>
        <time>2022-09-02T13:49:33Z</time>
      </trkpt>
      <trkpt lat="43.07653" lon="1.94394">
        <ele>348.2</ele>
        <time>2022-09-02T13:49:40Z</time>
      </trkpt>
      <trkpt lat="43.07654" lon="1.94368">
        <ele>348</ele>
        <time>2022-09-02T13:49:47Z</time>
      </trkpt>
      <trkpt lat="43.07655" lon="1.94336">
        <ele>347.8</ele>
        <time>2022-09-02T13:49:54Z</time>
      </trkpt>
      <trkpt lat="43.07654" lon="1.94307">
        <ele>347.6</ele>
        <time>2022-09-02T13:50:00Z</time>
      </trkpt>
      <trkpt lat="43.07656" lon="1.9427">
        <ele>347.2</ele>
        <time>2022-09-02T13:50:07Z</time>
      </trkpt>
      <trkpt lat="43.07657" lon="1.94229">
        <ele>347</ele>
        <time>2022-09-02T13:50:14Z</time>
      </trkpt>
      <trkpt lat="43.07657" lon="1.94211">
        <ele>346.8</ele>
        <time>2022-09-02T13:50:17Z</time>
      </trkpt>
      <trkpt lat="43.07657" lon="1.94175">
        <ele>346.4</ele>
        <time>2022-09-02T13:50:23Z</time>
      </trkpt>
      <trkpt lat="43.07658" lon="1.94127">
        <ele>346</ele>
        <time>2022-09-02T13:50:31Z</time>
      </trkpt>
      <trkpt lat="43.0766" lon="1.94084">
        <ele>346.2</ele>
        <time>2022-09-02T13:50:38Z</time>
      </trkpt>
      <trkpt lat="43.07661" lon="1.94066">
        <ele>346</ele>
        <time>2022-09-02T13:50:41Z</time>
      </trkpt>
      <trkpt lat="43.07663" lon="1.94036">
        <ele>345.8</ele>
        <time>2022-09-02T13:50:46Z</time>
      </trkpt>
      <trkpt lat="43.07667" lon="1.93996">
        <ele>345.6</ele>
        <time>2022-09-02T13:50:53Z</time>
      </trkpt>
      <trkpt lat="43.0767" lon="1.93979">
        <ele>345.6</ele>
        <time>2022-09-02T13:50:56Z</time>
      </trkpt>
      <trkpt lat="43.07673" lon="1.93955">
        <ele>345.6</ele>
        <time>2022-09-02T13:51:00Z</time>
      </trkpt>
      <trkpt lat="43.07682" lon="1.93908">
        <ele>345.6</ele>
        <time>2022-09-02T13:51:08Z</time>
      </trkpt>
      <trkpt lat="43.07683" lon="1.93903">
        <ele>345.4</ele>
        <time>2022-09-02T13:51:09Z</time>
      </trkpt>
      <trkpt lat="43.07689" lon="1.93878">
        <ele>345.6</ele>
        <time>2022-09-02T13:51:13Z</time>
      </trkpt>
      <trkpt lat="43.07702" lon="1.93838">
        <ele>345.4</ele>
        <time>2022-09-02T13:51:20Z</time>
      </trkpt>
      <trkpt lat="43.07713" lon="1.93807">
        <ele>345.4</ele>
        <time>2022-09-02T13:51:26Z</time>
      </trkpt>
      <trkpt lat="43.07729" lon="1.93783">
        <ele>345</ele>
        <time>2022-09-02T13:51:32Z</time>
      </trkpt>
      <trkpt lat="43.07736" lon="1.93773">
        <ele>344.8</ele>
        <time>2022-09-02T13:51:34Z</time>
      </trkpt>
      <trkpt lat="43.0774" lon="1.93767">
        <ele>344.2</ele>
        <time>2022-09-02T13:51:35Z</time>
      </trkpt>
      <trkpt lat="43.07745" lon="1.93761">
        <ele>343.6</ele>
        <time>2022-09-02T13:51:36Z</time>
      </trkpt>
      <trkpt lat="43.0775" lon="1.93756">
        <ele>343</ele>
        <time>2022-09-02T13:51:37Z</time>
      </trkpt>
      <trkpt lat="43.07754" lon="1.93749">
        <ele>342.4</ele>
        <time>2022-09-02T13:51:38Z</time>
      </trkpt>
      <trkpt lat="43.07762" lon="1.93735">
        <ele>341.8</ele>
        <time>2022-09-02T13:51:40Z</time>
      </trkpt>
      <trkpt lat="43.07765" lon="1.93729">
        <ele>341.4</ele>
        <time>2022-09-02T13:51:41Z</time>
      </trkpt>
      <trkpt lat="43.07769" lon="1.93717">
        <ele>341</ele>
        <time>2022-09-02T13:51:44Z</time>
      </trkpt>
      <trkpt lat="43.07769" lon="1.9371">
        <ele>340.8</ele>
        <time>2022-09-02T13:51:46Z</time>
      </trkpt>
      <trkpt lat="43.07768" lon="1.93704">
        <ele>340.6</ele>
        <time>2022-09-02T13:51:48Z</time>
      </trkpt>
      <trkpt lat="43.07768" lon="1.93706">
        <ele>340.4</ele>
        <time>2022-09-02T13:51:49Z</time>
      </trkpt>
      <trkpt lat="43.07765" lon="1.93701">
        <ele>340.4</ele>
        <time>2022-09-02T13:51:51Z</time>
      </trkpt>
      <trkpt lat="43.07762" lon="1.93701">
        <ele>340.6</ele>
        <time>2022-09-02T13:51:53Z</time>
      </trkpt>
      <trkpt lat="43.07758" lon="1.93701">
        <ele>340.6</ele>
        <time>2022-09-02T13:51:55Z</time>
      </trkpt>
      <trkpt lat="43.07747" lon="1.93707">
        <ele>340.6</ele>
        <time>2022-09-02T13:52:00Z</time>
      </trkpt>
      <trkpt lat="43.07741" lon="1.93716">
        <ele>341.2</ele>
        <time>2022-09-02T13:52:05Z</time>
      </trkpt>
      <trkpt lat="43.07739" lon="1.93721">
        <ele>341.8</ele>
        <time>2022-09-02T13:52:08Z</time>
      </trkpt>
      <trkpt lat="43.0774" lon="1.93728">
        <ele>342.6</ele>
        <time>2022-09-02T13:52:11Z</time>
      </trkpt>
      <trkpt lat="43.07742" lon="1.93729">
        <ele>343</ele>
        <time>2022-09-02T13:52:13Z</time>
      </trkpt>
      <trkpt lat="43.07743" lon="1.93727">
        <ele>343.2</ele>
        <time>2022-09-02T13:52:14Z</time>
      </trkpt>
      <trkpt lat="43.07744" lon="1.93726">
        <ele>343.4</ele>
        <time>2022-09-02T13:52:15Z</time>
      </trkpt>
      <trkpt lat="43.07748" lon="1.93723">
        <ele>344.2</ele>
        <time>2022-09-02T13:52:18Z</time>
      </trkpt>
      <trkpt lat="43.07753" lon="1.93719">
        <ele>345</ele>
        <time>2022-09-02T13:52:22Z</time>
      </trkpt>
      <trkpt lat="43.07757" lon="1.93715">
        <ele>345.4</ele>
        <time>2022-09-02T13:52:25Z</time>
      </trkpt>
      <trkpt lat="43.07762" lon="1.93708">
        <ele>345.4</ele>
        <time>2022-09-02T13:52:29Z</time>
      </trkpt>
      <trkpt lat="43.0777" lon="1.93696">
        <ele>345.4</ele>
        <time>2022-09-02T13:52:34Z</time>
      </trkpt>
      <trkpt lat="43.07781" lon="1.93676">
        <ele>345.6</ele>
        <time>2022-09-02T13:52:41Z</time>
      </trkpt>
      <trkpt lat="43.07793" lon="1.93657">
        <ele>345.4</ele>
        <time>2022-09-02T13:52:47Z</time>
      </trkpt>
      <trkpt lat="43.07809" lon="1.93637">
        <ele>345.4</ele>
        <time>2022-09-02T13:52:53Z</time>
      </trkpt>
      <trkpt lat="43.07828" lon="1.93614">
        <ele>345.4</ele>
        <time>2022-09-02T13:53:00Z</time>
      </trkpt>
      <trkpt lat="43.07847" lon="1.9359">
        <ele>345.2</ele>
        <time>2022-09-02T13:53:07Z</time>
      </trkpt>
      <trkpt lat="43.07864" lon="1.93574">
        <ele>345.2</ele>
        <time>2022-09-02T13:53:12Z</time>
      </trkpt>
      <trkpt lat="43.07867" lon="1.93571">
        <ele>345.2</ele>
        <time>2022-09-02T13:53:13Z</time>
      </trkpt>
      <trkpt lat="43.07888" lon="1.93546">
        <ele>345.2</ele>
        <time>2022-09-02T13:53:20Z</time>
      </trkpt>
      <trkpt lat="43.07909" lon="1.93521">
        <ele>345</ele>
        <time>2022-09-02T13:53:27Z</time>
      </trkpt>
      <trkpt lat="43.07933" lon="1.93499">
        <ele>344.8</ele>
        <time>2022-09-02T13:53:33Z</time>
      </trkpt>
      <trkpt lat="43.07953" lon="1.93478">
        <ele>345</ele>
        <time>2022-09-02T13:53:40Z</time>
      </trkpt>
      <trkpt lat="43.07966" lon="1.93462">
        <ele>344.6</ele>
        <time>2022-09-02T13:53:46Z</time>
      </trkpt>
      <trkpt lat="43.07983" lon="1.93445">
        <ele>344.8</ele>
        <time>2022-09-02T13:53:52Z</time>
      </trkpt>
      <trkpt lat="43.08006" lon="1.93421">
        <ele>344.6</ele>
        <time>2022-09-02T13:53:58Z</time>
      </trkpt>
      <trkpt lat="43.08032" lon="1.93395">
        <ele>344.4</ele>
        <time>2022-09-02T13:54:03Z</time>
      </trkpt>
      <trkpt lat="43.08036" lon="1.93389">
        <ele>344.2</ele>
        <time>2022-09-02T13:54:04Z</time>
      </trkpt>
      <trkpt lat="43.08058" lon="1.93357">
        <ele>344.4</ele>
        <time>2022-09-02T13:54:09Z</time>
      </trkpt>
      <trkpt lat="43.08086" lon="1.93311">
        <ele>344</ele>
        <time>2022-09-02T13:54:16Z</time>
      </trkpt>
      <trkpt lat="43.08118" lon="1.93253">
        <ele>343.4</ele>
        <time>2022-09-02T13:54:25Z</time>
      </trkpt>
      <trkpt lat="43.08125" lon="1.9324">
        <ele>343.2</ele>
        <time>2022-09-02T13:54:27Z</time>
      </trkpt>
      <trkpt lat="43.08145" lon="1.93204">
        <ele>343</ele>
        <time>2022-09-02T13:54:33Z</time>
      </trkpt>
      <trkpt lat="43.08169" lon="1.93165">
        <ele>342.4</ele>
        <time>2022-09-02T13:54:40Z</time>
      </trkpt>
      <trkpt lat="43.08191" lon="1.93123">
        <ele>342.6</ele>
        <time>2022-09-02T13:54:47Z</time>
      </trkpt>
      <trkpt lat="43.08214" lon="1.9308">
        <ele>342.2</ele>
        <time>2022-09-02T13:54:54Z</time>
      </trkpt>
      <trkpt lat="43.08221" lon="1.93068">
        <ele>342.2</ele>
        <time>2022-09-02T13:54:56Z</time>
      </trkpt>
      <trkpt lat="43.08244" lon="1.93027">
        <ele>341.8</ele>
        <time>2022-09-02T13:55:03Z</time>
      </trkpt>
      <trkpt lat="43.08267" lon="1.92984">
        <ele>341.4</ele>
        <time>2022-09-02T13:55:11Z</time>
      </trkpt>
      <trkpt lat="43.08283" lon="1.92956">
        <ele>341.4</ele>
        <time>2022-09-02T13:55:17Z</time>
      </trkpt>
      <trkpt lat="43.08301" lon="1.9292">
        <ele>341.6</ele>
        <time>2022-09-02T13:55:23Z</time>
      </trkpt>
      <trkpt lat="43.08324" lon="1.92878">
        <ele>341.4</ele>
        <time>2022-09-02T13:55:30Z</time>
      </trkpt>
      <trkpt lat="43.08352" lon="1.92828">
        <ele>341.4</ele>
        <time>2022-09-02T13:55:39Z</time>
      </trkpt>
      <trkpt lat="43.08375" lon="1.92783">
        <ele>341.2</ele>
        <time>2022-09-02T13:55:47Z</time>
      </trkpt>
      <trkpt lat="43.08397" lon="1.92743">
        <ele>341.6</ele>
        <time>2022-09-02T13:55:54Z</time>
      </trkpt>
      <trkpt lat="43.08423" lon="1.92693">
        <ele>341.8</ele>
        <time>2022-09-02T13:56:03Z</time>
      </trkpt>
      <trkpt lat="43.08437" lon="1.92666">
        <ele>341.8</ele>
        <time>2022-09-02T13:56:08Z</time>
      </trkpt>
      <trkpt lat="43.08444" lon="1.9265">
        <ele>341.8</ele>
        <time>2022-09-02T13:56:11Z</time>
      </trkpt>
      <trkpt lat="43.08464" lon="1.92595">
        <ele>342</ele>
        <time>2022-09-02T13:56:20Z</time>
      </trkpt>
      <trkpt lat="43.08473" lon="1.92557">
        <ele>341.8</ele>
        <time>2022-09-02T13:56:26Z</time>
      </trkpt>
      <trkpt lat="43.08482" lon="1.92519">
        <ele>342</ele>
        <time>2022-09-02T13:56:32Z</time>
      </trkpt>
      <trkpt lat="43.08494" lon="1.92468">
        <ele>341.8</ele>
        <time>2022-09-02T13:56:40Z</time>
      </trkpt>
      <trkpt lat="43.08504" lon="1.92429">
        <ele>342</ele>
        <time>2022-09-02T13:56:46Z</time>
      </trkpt>
      <trkpt lat="43.08505" lon="1.92422">
        <ele>342</ele>
        <time>2022-09-02T13:56:47Z</time>
      </trkpt>
      <trkpt lat="43.08516" lon="1.92383">
        <ele>342.2</ele>
        <time>2022-09-02T13:56:53Z</time>
      </trkpt>
      <trkpt lat="43.08527" lon="1.92325">
        <ele>342.2</ele>
        <time>2022-09-02T13:57:02Z</time>
      </trkpt>
      <trkpt lat="43.08534" lon="1.92279">
        <ele>342.4</ele>
        <time>2022-09-02T13:57:09Z</time>
      </trkpt>
      <trkpt lat="43.0854" lon="1.92224">
        <ele>342.8</ele>
        <time>2022-09-02T13:57:17Z</time>
      </trkpt>
      <trkpt lat="43.08542" lon="1.92161">
        <ele>343</ele>
        <time>2022-09-02T13:57:26Z</time>
      </trkpt>
      <trkpt lat="43.08539" lon="1.92099">
        <ele>342.6</ele>
        <time>2022-09-02T13:57:35Z</time>
      </trkpt>
      <trkpt lat="43.08533" lon="1.92035">
        <ele>342.2</ele>
        <time>2022-09-02T13:57:44Z</time>
      </trkpt>
      <trkpt lat="43.08528" lon="1.91986">
        <ele>341.8</ele>
        <time>2022-09-02T13:57:51Z</time>
      </trkpt>
      <trkpt lat="43.08523" lon="1.91929">
        <ele>341.6</ele>
        <time>2022-09-02T13:57:59Z</time>
      </trkpt>
      <trkpt lat="43.08516" lon="1.91866">
        <ele>341.2</ele>
        <time>2022-09-02T13:58:08Z</time>
      </trkpt>
      <trkpt lat="43.08516" lon="1.91859">
        <ele>341.2</ele>
        <time>2022-09-02T13:58:09Z</time>
      </trkpt>
      <trkpt lat="43.08513" lon="1.91819">
        <ele>340.6</ele>
        <time>2022-09-02T13:58:15Z</time>
      </trkpt>
      <trkpt lat="43.08508" lon="1.91772">
        <ele>340.4</ele>
        <time>2022-09-02T13:58:22Z</time>
      </trkpt>
      <trkpt lat="43.08502" lon="1.91718">
        <ele>340.6</ele>
        <time>2022-09-02T13:58:30Z</time>
      </trkpt>
      <trkpt lat="43.085" lon="1.9171">
        <ele>340.6</ele>
        <time>2022-09-02T13:58:31Z</time>
      </trkpt>
      <trkpt lat="43.08498" lon="1.91689">
        <ele>340.2</ele>
        <time>2022-09-02T13:58:34Z</time>
      </trkpt>
      <trkpt lat="43.08497" lon="1.91682">
        <ele>340.2</ele>
        <time>2022-09-02T13:58:35Z</time>
      </trkpt>
      <trkpt lat="43.08494" lon="1.91641">
        <ele>339.6</ele>
        <time>2022-09-02T13:58:41Z</time>
      </trkpt>
      <trkpt lat="43.08493" lon="1.91635">
        <ele>339.6</ele>
        <time>2022-09-02T13:58:42Z</time>
      </trkpt>
      <trkpt lat="43.08491" lon="1.91613">
        <ele>339.8</ele>
        <time>2022-09-02T13:58:45Z</time>
      </trkpt>
      <trkpt lat="43.08489" lon="1.9157">
        <ele>339.2</ele>
        <time>2022-09-02T13:58:51Z</time>
      </trkpt>
      <trkpt lat="43.08485" lon="1.91526">
        <ele>339</ele>
        <time>2022-09-02T13:58:57Z</time>
      </trkpt>
      <trkpt lat="43.0848" lon="1.91474">
        <ele>339</ele>
        <time>2022-09-02T13:59:04Z</time>
      </trkpt>
      <trkpt lat="43.08473" lon="1.91406">
        <ele>338.4</ele>
        <time>2022-09-02T13:59:13Z</time>
      </trkpt>
      <trkpt lat="43.08464" lon="1.9134">
        <ele>338.2</ele>
        <time>2022-09-02T13:59:22Z</time>
      </trkpt>
      <trkpt lat="43.08463" lon="1.91333">
        <ele>338</ele>
        <time>2022-09-02T13:59:23Z</time>
      </trkpt>
      <trkpt lat="43.0845" lon="1.91268">
        <ele>337.4</ele>
        <time>2022-09-02T13:59:32Z</time>
      </trkpt>
      <trkpt lat="43.08436" lon="1.91211">
        <ele>336.8</ele>
        <time>2022-09-02T13:59:40Z</time>
      </trkpt>
      <trkpt lat="43.08425" lon="1.91166">
        <ele>336.6</ele>
        <time>2022-09-02T13:59:47Z</time>
      </trkpt>
      <trkpt lat="43.08411" lon="1.91122">
        <ele>336.6</ele>
        <time>2022-09-02T13:59:55Z</time>
      </trkpt>
      <trkpt lat="43.084" lon="1.91094">
        <ele>336.8</ele>
        <time>2022-09-02T14:00:01Z</time>
      </trkpt>
      <trkpt lat="43.08389" lon="1.91064">
        <ele>336.2</ele>
        <time>2022-09-02T14:00:06Z</time>
      </trkpt>
      <trkpt lat="43.08372" lon="1.91021">
        <ele>336</ele>
        <time>2022-09-02T14:00:13Z</time>
      </trkpt>
      <trkpt lat="43.08364" lon="1.90997">
        <ele>336</ele>
        <time>2022-09-02T14:00:17Z</time>
      </trkpt>
      <trkpt lat="43.08357" lon="1.9098">
        <ele>336</ele>
        <time>2022-09-02T14:00:20Z</time>
      </trkpt>
      <trkpt lat="43.08341" lon="1.90941">
        <ele>336.2</ele>
        <time>2022-09-02T14:00:27Z</time>
      </trkpt>
      <trkpt lat="43.08322" lon="1.90894">
        <ele>336.6</ele>
        <time>2022-09-02T14:00:36Z</time>
      </trkpt>
      <trkpt lat="43.08306" lon="1.90853">
        <ele>336.4</ele>
        <time>2022-09-02T14:00:44Z</time>
      </trkpt>
      <trkpt lat="43.08286" lon="1.90798">
        <ele>336.8</ele>
        <time>2022-09-02T14:00:54Z</time>
      </trkpt>
      <trkpt lat="43.08274" lon="1.90759">
        <ele>336.8</ele>
        <time>2022-09-02T14:01:01Z</time>
      </trkpt>
      <trkpt lat="43.08265" lon="1.90718">
        <ele>337</ele>
        <time>2022-09-02T14:01:08Z</time>
      </trkpt>
      <trkpt lat="43.08258" lon="1.90684">
        <ele>337</ele>
        <time>2022-09-02T14:01:14Z</time>
      </trkpt>
      <trkpt lat="43.08249" lon="1.90628">
        <ele>337</ele>
        <time>2022-09-02T14:01:23Z</time>
      </trkpt>
      <trkpt lat="43.08244" lon="1.90584">
        <ele>337.4</ele>
        <time>2022-09-02T14:01:31Z</time>
      </trkpt>
      <trkpt lat="43.08242" lon="1.90537">
        <ele>337.2</ele>
        <time>2022-09-02T14:01:39Z</time>
      </trkpt>
      <trkpt lat="43.08241" lon="1.90497">
        <ele>337.4</ele>
        <time>2022-09-02T14:01:46Z</time>
      </trkpt>
      <trkpt lat="43.08242" lon="1.90459">
        <ele>337.2</ele>
        <time>2022-09-02T14:01:53Z</time>
      </trkpt>
      <trkpt lat="43.08243" lon="1.9042">
        <ele>337.4</ele>
        <time>2022-09-02T14:02:00Z</time>
      </trkpt>
      <trkpt lat="43.08247" lon="1.90368">
        <ele>338.2</ele>
        <time>2022-09-02T14:02:09Z</time>
      </trkpt>
      <trkpt lat="43.08247" lon="1.90362">
        <ele>338.4</ele>
        <time>2022-09-02T14:02:10Z</time>
      </trkpt>
      <trkpt lat="43.08248" lon="1.90356">
        <ele>338.4</ele>
        <time>2022-09-02T14:02:11Z</time>
      </trkpt>
      <trkpt lat="43.08251" lon="1.9032">
        <ele>338</ele>
        <time>2022-09-02T14:02:17Z</time>
      </trkpt>
      <trkpt lat="43.08252" lon="1.90278">
        <ele>338</ele>
        <time>2022-09-02T14:02:24Z</time>
      </trkpt>
      <trkpt lat="43.08253" lon="1.90272">
        <ele>338</ele>
        <time>2022-09-02T14:02:25Z</time>
      </trkpt>
      <trkpt lat="43.08255" lon="1.90238">
        <ele>338</ele>
        <time>2022-09-02T14:02:31Z</time>
      </trkpt>
      <trkpt lat="43.08257" lon="1.90197">
        <ele>338</ele>
        <time>2022-09-02T14:02:38Z</time>
      </trkpt>
      <trkpt lat="43.0826" lon="1.90157">
        <ele>338</ele>
        <time>2022-09-02T14:02:45Z</time>
      </trkpt>
      <trkpt lat="43.0826" lon="1.90128">
        <ele>338.2</ele>
        <time>2022-09-02T14:02:50Z</time>
      </trkpt>
      <trkpt lat="43.08261" lon="1.90115">
        <ele>338.2</ele>
        <time>2022-09-02T14:02:52Z</time>
      </trkpt>
      <trkpt lat="43.08263" lon="1.90067">
        <ele>338.6</ele>
        <time>2022-09-02T14:03:00Z</time>
      </trkpt>
      <trkpt lat="43.08266" lon="1.90037">
        <ele>339.2</ele>
        <time>2022-09-02T14:03:05Z</time>
      </trkpt>
      <trkpt lat="43.08267" lon="1.90025">
        <ele>339.4</ele>
        <time>2022-09-02T14:03:07Z</time>
      </trkpt>
      <trkpt lat="43.08268" lon="1.89999">
        <ele>339.2</ele>
        <time>2022-09-02T14:03:13Z</time>
      </trkpt>
      <trkpt lat="43.08272" lon="1.89967">
        <ele>339.2</ele>
        <time>2022-09-02T14:03:20Z</time>
      </trkpt>
      <trkpt lat="43.08275" lon="1.89913">
        <ele>339.4</ele>
        <time>2022-09-02T14:03:30Z</time>
      </trkpt>
      <trkpt lat="43.08279" lon="1.89857">
        <ele>339.6</ele>
        <time>2022-09-02T14:03:40Z</time>
      </trkpt>
      <trkpt lat="43.0828" lon="1.89834">
        <ele>340</ele>
        <time>2022-09-02T14:03:44Z</time>
      </trkpt>
      <trkpt lat="43.08281" lon="1.89817">
        <ele>339.8</ele>
        <time>2022-09-02T14:03:47Z</time>
      </trkpt>
      <trkpt lat="43.08284" lon="1.89776">
        <ele>340.2</ele>
        <time>2022-09-02T14:03:54Z</time>
      </trkpt>
      <trkpt lat="43.08284" lon="1.89766">
        <ele>340.2</ele>
        <time>2022-09-02T14:03:56Z</time>
      </trkpt>
      <trkpt lat="43.08287" lon="1.89737">
        <ele>340.2</ele>
        <time>2022-09-02T14:04:01Z</time>
      </trkpt>
      <trkpt lat="43.08288" lon="1.89708">
        <ele>340.4</ele>
        <time>2022-09-02T14:04:06Z</time>
      </trkpt>
      <trkpt lat="43.0829" lon="1.89668">
        <ele>340.4</ele>
        <time>2022-09-02T14:04:13Z</time>
      </trkpt>
      <trkpt lat="43.08295" lon="1.8961">
        <ele>340.8</ele>
        <time>2022-09-02T14:04:23Z</time>
      </trkpt>
      <trkpt lat="43.08299" lon="1.89564">
        <ele>340.6</ele>
        <time>2022-09-02T14:04:31Z</time>
      </trkpt>
      <trkpt lat="43.08301" lon="1.89522">
        <ele>340.6</ele>
        <time>2022-09-02T14:04:39Z</time>
      </trkpt>
      <trkpt lat="43.08303" lon="1.89494">
        <ele>340.4</ele>
        <time>2022-09-02T14:04:44Z</time>
      </trkpt>
      <trkpt lat="43.08305" lon="1.89453">
        <ele>340.6</ele>
        <time>2022-09-02T14:04:51Z</time>
      </trkpt>
      <trkpt lat="43.08308" lon="1.89402">
        <ele>340.6</ele>
        <time>2022-09-02T14:05:00Z</time>
      </trkpt>
      <trkpt lat="43.08311" lon="1.89362">
        <ele>340.4</ele>
        <time>2022-09-02T14:05:07Z</time>
      </trkpt>
      <trkpt lat="43.08314" lon="1.89295">
        <ele>340</ele>
        <time>2022-09-02T14:05:18Z</time>
      </trkpt>
      <trkpt lat="43.08317" lon="1.89227">
        <ele>339.6</ele>
        <time>2022-09-02T14:05:28Z</time>
      </trkpt>
      <trkpt lat="43.08321" lon="1.89171">
        <ele>339.8</ele>
        <time>2022-09-02T14:05:36Z</time>
      </trkpt>
      <trkpt lat="43.08324" lon="1.89142">
        <ele>339.2</ele>
        <time>2022-09-02T14:05:41Z</time>
      </trkpt>
      <trkpt lat="43.08324" lon="1.89129">
        <ele>339.2</ele>
        <time>2022-09-02T14:05:43Z</time>
      </trkpt>
      <trkpt lat="43.08326" lon="1.89105">
        <ele>338.8</ele>
        <time>2022-09-02T14:05:47Z</time>
      </trkpt>
      <trkpt lat="43.08326" lon="1.89099">
        <ele>338.8</ele>
        <time>2022-09-02T14:05:48Z</time>
      </trkpt>
      <trkpt lat="43.08328" lon="1.89056">
        <ele>339.2</ele>
        <time>2022-09-02T14:05:55Z</time>
      </trkpt>
      <trkpt lat="43.08331" lon="1.89018">
        <ele>338.8</ele>
        <time>2022-09-02T14:06:01Z</time>
      </trkpt>
      <trkpt lat="43.08334" lon="1.88976">
        <ele>338.4</ele>
        <time>2022-09-02T14:06:09Z</time>
      </trkpt>
      <trkpt lat="43.08336" lon="1.88942">
        <ele>339</ele>
        <time>2022-09-02T14:06:15Z</time>
      </trkpt>
      <trkpt lat="43.08338" lon="1.88895">
        <ele>338.8</ele>
        <time>2022-09-02T14:06:22Z</time>
      </trkpt>
      <trkpt lat="43.08342" lon="1.88847">
        <ele>338</ele>
        <time>2022-09-02T14:06:29Z</time>
      </trkpt>
      <trkpt lat="43.08342" lon="1.88833">
        <ele>337.8</ele>
        <time>2022-09-02T14:06:31Z</time>
      </trkpt>
      <trkpt lat="43.08345" lon="1.88785">
        <ele>338</ele>
        <time>2022-09-02T14:06:38Z</time>
      </trkpt>
      <trkpt lat="43.08346" lon="1.88771">
        <ele>338</ele>
        <time>2022-09-02T14:06:40Z</time>
      </trkpt>
      <trkpt lat="43.08351" lon="1.88703">
        <ele>337.6</ele>
        <time>2022-09-02T14:06:50Z</time>
      </trkpt>
      <trkpt lat="43.08354" lon="1.88648">
        <ele>337.2</ele>
        <time>2022-09-02T14:06:58Z</time>
      </trkpt>
      <trkpt lat="43.08355" lon="1.88641">
        <ele>337</ele>
        <time>2022-09-02T14:06:59Z</time>
      </trkpt>
      <trkpt lat="43.08357" lon="1.88596">
        <ele>336.8</ele>
        <time>2022-09-02T14:07:06Z</time>
      </trkpt>
      <trkpt lat="43.0836" lon="1.88556">
        <ele>336.4</ele>
        <time>2022-09-02T14:07:12Z</time>
      </trkpt>
      <trkpt lat="43.08363" lon="1.88501">
        <ele>336.4</ele>
        <time>2022-09-02T14:07:20Z</time>
      </trkpt>
      <trkpt lat="43.08367" lon="1.88438">
        <ele>336.2</ele>
        <time>2022-09-02T14:07:29Z</time>
      </trkpt>
      <trkpt lat="43.08369" lon="1.88403">
        <ele>336</ele>
        <time>2022-09-02T14:07:34Z</time>
      </trkpt>
      <trkpt lat="43.08371" lon="1.88384">
        <ele>335.8</ele>
        <time>2022-09-02T14:07:37Z</time>
      </trkpt>
      <trkpt lat="43.08373" lon="1.88331">
        <ele>335.6</ele>
        <time>2022-09-02T14:07:45Z</time>
      </trkpt>
      <trkpt lat="43.08375" lon="1.88297">
        <ele>335.4</ele>
        <time>2022-09-02T14:07:50Z</time>
      </trkpt>
      <trkpt lat="43.08377" lon="1.88285">
        <ele>335.2</ele>
        <time>2022-09-02T14:07:52Z</time>
      </trkpt>
      <trkpt lat="43.08377" lon="1.88278">
        <ele>335.2</ele>
        <time>2022-09-02T14:07:53Z</time>
      </trkpt>
      <trkpt lat="43.08379" lon="1.88251">
        <ele>335.4</ele>
        <time>2022-09-02T14:07:57Z</time>
      </trkpt>
      <trkpt lat="43.0838" lon="1.8823">
        <ele>335</ele>
        <time>2022-09-02T14:08:00Z</time>
      </trkpt>
      <trkpt lat="43.08381" lon="1.88199">
        <ele>334.8</ele>
        <time>2022-09-02T14:08:05Z</time>
      </trkpt>
      <trkpt lat="43.08381" lon="1.88174">
        <ele>334.6</ele>
        <time>2022-09-02T14:08:10Z</time>
      </trkpt>
      <trkpt lat="43.08382" lon="1.88143">
        <ele>334.2</ele>
        <time>2022-09-02T14:08:16Z</time>
      </trkpt>
      <trkpt lat="43.08386" lon="1.88103">
        <ele>334.2</ele>
        <time>2022-09-02T14:08:23Z</time>
      </trkpt>
      <trkpt lat="43.08388" lon="1.88066">
        <ele>334</ele>
        <time>2022-09-02T14:08:30Z</time>
      </trkpt>
      <trkpt lat="43.08389" lon="1.8806">
        <ele>334</ele>
        <time>2022-09-02T14:08:31Z</time>
      </trkpt>
      <trkpt lat="43.08391" lon="1.88027">
        <ele>334</ele>
        <time>2022-09-02T14:08:37Z</time>
      </trkpt>
      <trkpt lat="43.08394" lon="1.87996">
        <ele>333.8</ele>
        <time>2022-09-02T14:08:42Z</time>
      </trkpt>
      <trkpt lat="43.08394" lon="1.8799">
        <ele>333.6</ele>
        <time>2022-09-02T14:08:43Z</time>
      </trkpt>
      <trkpt lat="43.08398" lon="1.87945">
        <ele>333.8</ele>
        <time>2022-09-02T14:08:50Z</time>
      </trkpt>
      <trkpt lat="43.084" lon="1.87911">
        <ele>333.2</ele>
        <time>2022-09-02T14:08:56Z</time>
      </trkpt>
      <trkpt lat="43.08405" lon="1.87867">
        <ele>333.2</ele>
        <time>2022-09-02T14:09:04Z</time>
      </trkpt>
      <trkpt lat="43.08408" lon="1.87831">
        <ele>333</ele>
        <time>2022-09-02T14:09:11Z</time>
      </trkpt>
      <trkpt lat="43.08409" lon="1.87814">
        <ele>333</ele>
        <time>2022-09-02T14:09:15Z</time>
      </trkpt>
      <trkpt lat="43.0841" lon="1.87809">
        <ele>333</ele>
        <time>2022-09-02T14:09:16Z</time>
      </trkpt>
      <trkpt lat="43.08413" lon="1.87781">
        <ele>333</ele>
        <time>2022-09-02T14:09:22Z</time>
      </trkpt>
      <trkpt lat="43.08417" lon="1.87753">
        <ele>333</ele>
        <time>2022-09-02T14:09:28Z</time>
      </trkpt>
      <trkpt lat="43.08421" lon="1.87734">
        <ele>333</ele>
        <time>2022-09-02T14:09:33Z</time>
      </trkpt>
      <trkpt lat="43.08423" lon="1.87733">
        <ele>333</ele>
        <time>2022-09-02T14:09:34Z</time>
      </trkpt>
      <trkpt lat="43.08431" lon="1.87735">
        <ele>333</ele>
        <time>2022-09-02T14:09:37Z</time>
      </trkpt>
      <trkpt lat="43.08434" lon="1.87735">
        <ele>333</ele>
        <time>2022-09-02T14:09:38Z</time>
      </trkpt>
      <trkpt lat="43.08455" lon="1.87728">
        <ele>333.4</ele>
        <time>2022-09-02T14:09:45Z</time>
      </trkpt>
      <trkpt lat="43.08458" lon="1.87713">
        <ele>333.8</ele>
        <time>2022-09-02T14:09:49Z</time>
      </trkpt>
      <trkpt lat="43.08457" lon="1.87674">
        <ele>333.6</ele>
        <time>2022-09-02T14:09:58Z</time>
      </trkpt>
      <trkpt lat="43.08456" lon="1.87645">
        <ele>333.6</ele>
        <time>2022-09-02T14:10:07Z</time>
      </trkpt>
      <trkpt lat="43.08461" lon="1.87626">
        <ele>333.6</ele>
        <time>2022-09-02T14:10:14Z</time>
      </trkpt>
      <trkpt lat="43.08472" lon="1.87623">
        <ele>333.4</ele>
        <time>2022-09-02T14:10:18Z</time>
      </trkpt>
      <trkpt lat="43.08489" lon="1.8762">
        <ele>333</ele>
        <time>2022-09-02T14:10:24Z</time>
      </trkpt>
      <trkpt lat="43.08505" lon="1.87616">
        <ele>333.2</ele>
        <time>2022-09-02T14:10:30Z</time>
      </trkpt>
      <trkpt lat="43.08518" lon="1.87608">
        <ele>333</ele>
        <time>2022-09-02T14:10:34Z</time>
      </trkpt>
      <trkpt lat="43.08522" lon="1.87608">
        <ele>333</ele>
        <time>2022-09-02T14:10:35Z</time>
      </trkpt>
      <trkpt lat="43.08554" lon="1.8761">
        <ele>333.2</ele>
        <time>2022-09-02T14:10:43Z</time>
      </trkpt>
      <trkpt lat="43.08592" lon="1.87609">
        <ele>332.6</ele>
        <time>2022-09-02T14:10:52Z</time>
      </trkpt>
      <trkpt lat="43.08621" lon="1.87611">
        <ele>332.6</ele>
        <time>2022-09-02T14:10:59Z</time>
      </trkpt>
      <trkpt lat="43.08649" lon="1.87612">
        <ele>332.4</ele>
        <time>2022-09-02T14:11:06Z</time>
      </trkpt>
      <trkpt lat="43.08679" lon="1.87613">
        <ele>332.8</ele>
        <time>2022-09-02T14:11:14Z</time>
      </trkpt>
      <trkpt lat="43.087" lon="1.87612">
        <ele>332.6</ele>
        <time>2022-09-02T14:11:20Z</time>
      </trkpt>
      <trkpt lat="43.08719" lon="1.87614">
        <ele>332.8</ele>
        <time>2022-09-02T14:11:26Z</time>
      </trkpt>
      <trkpt lat="43.08737" lon="1.87613">
        <ele>332.6</ele>
        <time>2022-09-02T14:11:31Z</time>
      </trkpt>
      <trkpt lat="43.08739" lon="1.87611">
        <ele>332.6</ele>
        <time>2022-09-02T14:11:32Z</time>
      </trkpt>
      <trkpt lat="43.08741" lon="1.87603">
        <ele>332.8</ele>
        <time>2022-09-02T14:11:34Z</time>
      </trkpt>
      <trkpt lat="43.08742" lon="1.87594">
        <ele>332.6</ele>
        <time>2022-09-02T14:11:36Z</time>
      </trkpt>
      <trkpt lat="43.08743" lon="1.87577">
        <ele>332.4</ele>
        <time>2022-09-02T14:11:40Z</time>
      </trkpt>
      <trkpt lat="43.08746" lon="1.87568">
        <ele>332.2</ele>
        <time>2022-09-02T14:11:42Z</time>
      </trkpt>
      <trkpt lat="43.08753" lon="1.87567">
        <ele>332</ele>
        <time>2022-09-02T14:11:44Z</time>
      </trkpt>
      <trkpt lat="43.0878" lon="1.87567">
        <ele>331.8</ele>
        <time>2022-09-02T14:11:52Z</time>
      </trkpt>
      <trkpt lat="43.0879" lon="1.87567">
        <ele>331.6</ele>
        <time>2022-09-02T14:11:55Z</time>
      </trkpt>
      <trkpt lat="43.08797" lon="1.87568">
        <ele>331.4</ele>
        <time>2022-09-02T14:11:57Z</time>
      </trkpt>
      <trkpt lat="43.08799" lon="1.87564">
        <ele>331.2</ele>
        <time>2022-09-02T14:11:59Z</time>
      </trkpt>
      <trkpt lat="43.088" lon="1.87562">
        <ele>331.2</ele>
        <time>2022-09-02T14:12:00Z</time>
      </trkpt>
      <trkpt lat="43.08803" lon="1.87555">
        <ele>331.4</ele>
        <time>2022-09-02T14:12:03Z</time>
      </trkpt>
      <trkpt lat="43.08801" lon="1.87533">
        <ele>331.2</ele>
        <time>2022-09-02T14:13:54Z</time>
      </trkpt>
      <trkpt lat="43.08799" lon="1.87522">
        <ele>331.4</ele>
        <time>2022-09-02T14:13:58Z</time>
      </trkpt>
      <trkpt lat="43.08797" lon="1.87512">
        <ele>331.4</ele>
        <time>2022-09-02T14:14:01Z</time>
      </trkpt>
      <trkpt lat="43.08797" lon="1.87496">
        <ele>331</ele>
        <time>2022-09-02T14:14:07Z</time>
      </trkpt>
      <trkpt lat="43.08803" lon="1.87491">
        <ele>331</ele>
        <time>2022-09-02T14:14:12Z</time>
      </trkpt>
      <trkpt lat="43.08816" lon="1.87492">
        <ele>331.2</ele>
        <time>2022-09-02T14:14:19Z</time>
      </trkpt>
      <trkpt lat="43.08832" lon="1.87489">
        <ele>331.2</ele>
        <time>2022-09-02T14:14:25Z</time>
      </trkpt>
      <trkpt lat="43.08844" lon="1.87491">
        <ele>331</ele>
        <time>2022-09-02T14:14:32Z</time>
      </trkpt>
      <trkpt lat="43.08846" lon="1.87494">
        <ele>331</ele>
        <time>2022-09-02T14:14:33Z</time>
      </trkpt>
      <trkpt lat="43.08851" lon="1.87502">
        <ele>331</ele>
        <time>2022-09-02T14:14:38Z</time>
      </trkpt>
    </trkseg>
  </trk>
</gpx>